<?xml version="1.0" encoding="UTF-8" standalone="no" ?>
<gpx xmlns="http://www.topografix.com/GPX/1/1" xmlns:xsi="http://www.w3.org/2001/XMLSchema-instance" xsi:schemaLocation="http://www.topografix.com/GPX/1/1 http://www.topografix.com/GPX/1/1/gpx.xsd" version="1.1" creator="VisuGPX - https://www.visugpx.com">
  <metadata>
    <name>Montreal 70K D2400</name>
    <desc><![CDATA[Montreal 76K D2400 tracé à revoir]]></desc>
  </metadata>
  <wpt lat="44.52849" lon="4.29223">
    <ele>287</ele>
    <name><![CDATA[Départ]]></name>
  </wpt>
  <trk>
    <name><![CDATA[20180807221000-MJqCB]]></name>
    <trkseg>
      <trkpt lat="44.52835" lon="4.29234">
        <ele>290</ele>
        <time>2018-06-03T06:11:44.000Z</time>
      </trkpt>
      <trkpt lat="44.52835" lon="4.29235">
        <ele>290</ele>
        <time>2018-06-03T06:11:45.000Z</time>
      </trkpt>
      <trkpt lat="44.52835" lon="4.29235">
        <ele>290</ele>
        <time>2018-06-03T06:11:46.000Z</time>
      </trkpt>
      <trkpt lat="44.52835" lon="4.29235">
        <ele>290</ele>
        <time>2018-06-03T06:11:47.000Z</time>
      </trkpt>
      <trkpt lat="44.52835" lon="4.29235">
        <ele>290</ele>
        <time>2018-06-03T06:11:48.000Z</time>
      </trkpt>
      <trkpt lat="44.52835" lon="4.29235">
        <ele>290</ele>
        <time>2018-06-03T06:11:49.000Z</time>
      </trkpt>
      <trkpt lat="44.52835" lon="4.29235">
        <ele>290</ele>
        <time>2018-06-03T06:11:50.000Z</time>
      </trkpt>
      <trkpt lat="44.52835" lon="4.29235">
        <ele>290</ele>
        <time>2018-06-03T06:11:51.000Z</time>
      </trkpt>
      <trkpt lat="44.52835" lon="4.29235">
        <ele>290</ele>
        <time>2018-06-03T06:11:52.000Z</time>
      </trkpt>
      <trkpt lat="44.52835" lon="4.29235">
        <ele>290</ele>
        <time>2018-06-03T06:11:53.000Z</time>
      </trkpt>
      <trkpt lat="44.52835" lon="4.29235">
        <ele>290</ele>
        <time>2018-06-03T06:11:54.000Z</time>
      </trkpt>
      <trkpt lat="44.52835" lon="4.29234">
        <ele>290</ele>
        <time>2018-06-03T06:11:55.000Z</time>
      </trkpt>
      <trkpt lat="44.52835" lon="4.29234">
        <ele>290</ele>
        <time>2018-06-03T06:11:56.000Z</time>
      </trkpt>
      <trkpt lat="44.52835" lon="4.29234">
        <ele>290</ele>
        <time>2018-06-03T06:11:57.000Z</time>
      </trkpt>
      <trkpt lat="44.52835" lon="4.29234">
        <ele>290</ele>
        <time>2018-06-03T06:11:58.000Z</time>
      </trkpt>
      <trkpt lat="44.52835" lon="4.29234">
        <ele>290</ele>
        <time>2018-06-03T06:11:59.000Z</time>
      </trkpt>
      <trkpt lat="44.52835" lon="4.29234">
        <ele>290</ele>
        <time>2018-06-03T06:12:00.000Z</time>
      </trkpt>
      <trkpt lat="44.52835" lon="4.29234">
        <ele>290</ele>
        <time>2018-06-03T06:12:01.000Z</time>
      </trkpt>
      <trkpt lat="44.52834" lon="4.29233">
        <ele>290</ele>
        <time>2018-06-03T06:12:02.000Z</time>
      </trkpt>
      <trkpt lat="44.52833" lon="4.29232">
        <ele>293</ele>
        <time>2018-06-03T06:12:03.000Z</time>
      </trkpt>
      <trkpt lat="44.52831" lon="4.29233">
        <ele>293</ele>
        <time>2018-06-03T06:12:04.000Z</time>
      </trkpt>
      <trkpt lat="44.52829" lon="4.29233">
        <ele>293</ele>
        <time>2018-06-03T06:12:05.000Z</time>
      </trkpt>
      <trkpt lat="44.52825" lon="4.29234">
        <ele>293</ele>
        <time>2018-06-03T06:12:06.000Z</time>
      </trkpt>
      <trkpt lat="44.52821" lon="4.29235">
        <ele>293</ele>
        <time>2018-06-03T06:12:07.000Z</time>
      </trkpt>
      <trkpt lat="44.52817" lon="4.29236">
        <ele>293</ele>
        <time>2018-06-03T06:12:08.000Z</time>
      </trkpt>
      <trkpt lat="44.52812" lon="4.29237">
        <ele>292</ele>
        <time>2018-06-03T06:12:09.000Z</time>
      </trkpt>
      <trkpt lat="44.52807" lon="4.29238">
        <ele>292</ele>
        <time>2018-06-03T06:12:10.000Z</time>
      </trkpt>
      <trkpt lat="44.52803" lon="4.29239">
        <ele>292</ele>
        <time>2018-06-03T06:12:11.000Z</time>
      </trkpt>
      <trkpt lat="44.52798" lon="4.29239">
        <ele>292</ele>
        <time>2018-06-03T06:12:12.000Z</time>
      </trkpt>
      <trkpt lat="44.52794" lon="4.29239">
        <ele>291</ele>
        <time>2018-06-03T06:12:13.000Z</time>
      </trkpt>
      <trkpt lat="44.52791" lon="4.29239">
        <ele>291</ele>
        <time>2018-06-03T06:12:14.000Z</time>
      </trkpt>
      <trkpt lat="44.52789" lon="4.29239">
        <ele>291</ele>
        <time>2018-06-03T06:12:15.000Z</time>
      </trkpt>
      <trkpt lat="44.52787" lon="4.29239">
        <ele>291</ele>
        <time>2018-06-03T06:12:16.000Z</time>
      </trkpt>
      <trkpt lat="44.52787" lon="4.29239">
        <ele>291</ele>
        <time>2018-06-03T06:12:17.000Z</time>
      </trkpt>
      <trkpt lat="44.52786" lon="4.29239">
        <ele>291</ele>
        <time>2018-06-03T06:12:18.000Z</time>
      </trkpt>
      <trkpt lat="44.52785" lon="4.29239">
        <ele>291</ele>
        <time>2018-06-03T06:12:19.000Z</time>
      </trkpt>
      <trkpt lat="44.52785" lon="4.29238">
        <ele>291</ele>
        <time>2018-06-03T06:12:20.000Z</time>
      </trkpt>
      <trkpt lat="44.52785" lon="4.29238">
        <ele>291</ele>
        <time>2018-06-03T06:12:21.000Z</time>
      </trkpt>
      <trkpt lat="44.52784" lon="4.29238">
        <ele>291</ele>
        <time>2018-06-03T06:12:22.000Z</time>
      </trkpt>
      <trkpt lat="44.52784" lon="4.29238">
        <ele>291</ele>
        <time>2018-06-03T06:12:23.000Z</time>
      </trkpt>
      <trkpt lat="44.52784" lon="4.29238">
        <ele>291</ele>
        <time>2018-06-03T06:12:24.000Z</time>
      </trkpt>
      <trkpt lat="44.52784" lon="4.29238">
        <ele>291</ele>
        <time>2018-06-03T06:12:25.000Z</time>
      </trkpt>
      <trkpt lat="44.52783" lon="4.29237">
        <ele>291</ele>
        <time>2018-06-03T06:12:26.000Z</time>
      </trkpt>
      <trkpt lat="44.52782" lon="4.29235">
        <ele>291</ele>
        <time>2018-06-03T06:12:27.000Z</time>
      </trkpt>
      <trkpt lat="44.52781" lon="4.29232">
        <ele>291</ele>
        <time>2018-06-03T06:12:28.000Z</time>
      </trkpt>
      <trkpt lat="44.5278" lon="4.29228">
        <ele>291</ele>
        <time>2018-06-03T06:12:29.000Z</time>
      </trkpt>
      <trkpt lat="44.52779" lon="4.29223">
        <ele>291</ele>
        <time>2018-06-03T06:12:30.000Z</time>
      </trkpt>
      <trkpt lat="44.52778" lon="4.29219">
        <ele>291</ele>
        <time>2018-06-03T06:12:31.000Z</time>
      </trkpt>
      <trkpt lat="44.52778" lon="4.29215">
        <ele>291</ele>
        <time>2018-06-03T06:12:32.000Z</time>
      </trkpt>
      <trkpt lat="44.52778" lon="4.2921">
        <ele>290</ele>
        <time>2018-06-03T06:12:33.000Z</time>
      </trkpt>
      <trkpt lat="44.52779" lon="4.29205">
        <ele>290</ele>
        <time>2018-06-03T06:12:34.000Z</time>
      </trkpt>
      <trkpt lat="44.52779" lon="4.292">
        <ele>290</ele>
        <time>2018-06-03T06:12:35.000Z</time>
      </trkpt>
      <trkpt lat="44.5278" lon="4.29194">
        <ele>290</ele>
        <time>2018-06-03T06:12:36.000Z</time>
      </trkpt>
      <trkpt lat="44.52781" lon="4.29189">
        <ele>290</ele>
        <time>2018-06-03T06:12:37.000Z</time>
      </trkpt>
      <trkpt lat="44.52782" lon="4.29183">
        <ele>290</ele>
        <time>2018-06-03T06:12:38.000Z</time>
      </trkpt>
      <trkpt lat="44.52783" lon="4.29177">
        <ele>290</ele>
        <time>2018-06-03T06:12:39.000Z</time>
      </trkpt>
      <trkpt lat="44.52784" lon="4.29171">
        <ele>290</ele>
        <time>2018-06-03T06:12:40.000Z</time>
      </trkpt>
      <trkpt lat="44.52785" lon="4.29165">
        <ele>288</ele>
        <time>2018-06-03T06:12:41.000Z</time>
      </trkpt>
      <trkpt lat="44.52786" lon="4.29158">
        <ele>288</ele>
        <time>2018-06-03T06:12:42.000Z</time>
      </trkpt>
      <trkpt lat="44.52788" lon="4.29151">
        <ele>288</ele>
        <time>2018-06-03T06:12:43.000Z</time>
      </trkpt>
      <trkpt lat="44.52789" lon="4.29144">
        <ele>288</ele>
        <time>2018-06-03T06:12:44.000Z</time>
      </trkpt>
      <trkpt lat="44.5279" lon="4.29137">
        <ele>288</ele>
        <time>2018-06-03T06:12:45.000Z</time>
      </trkpt>
      <trkpt lat="44.52792" lon="4.2913">
        <ele>288</ele>
        <time>2018-06-03T06:12:46.000Z</time>
      </trkpt>
      <trkpt lat="44.52793" lon="4.29123">
        <ele>288</ele>
        <time>2018-06-03T06:12:47.000Z</time>
      </trkpt>
      <trkpt lat="44.52795" lon="4.29116">
        <ele>287</ele>
        <time>2018-06-03T06:12:48.000Z</time>
      </trkpt>
      <trkpt lat="44.52796" lon="4.29109">
        <ele>287</ele>
        <time>2018-06-03T06:12:49.000Z</time>
      </trkpt>
      <trkpt lat="44.52797" lon="4.29102">
        <ele>287</ele>
        <time>2018-06-03T06:12:50.000Z</time>
      </trkpt>
      <trkpt lat="44.52798" lon="4.29095">
        <ele>287</ele>
        <time>2018-06-03T06:12:51.000Z</time>
      </trkpt>
      <trkpt lat="44.52799" lon="4.29088">
        <ele>287</ele>
        <time>2018-06-03T06:12:52.000Z</time>
      </trkpt>
      <trkpt lat="44.528" lon="4.29081">
        <ele>286</ele>
        <time>2018-06-03T06:12:53.000Z</time>
      </trkpt>
      <trkpt lat="44.52801" lon="4.29073">
        <ele>286</ele>
        <time>2018-06-03T06:12:54.000Z</time>
      </trkpt>
      <trkpt lat="44.52802" lon="4.29067">
        <ele>286</ele>
        <time>2018-06-03T06:12:55.000Z</time>
      </trkpt>
      <trkpt lat="44.52801" lon="4.2906">
        <ele>286</ele>
        <time>2018-06-03T06:12:56.000Z</time>
      </trkpt>
      <trkpt lat="44.52797" lon="4.29056">
        <ele>286</ele>
        <time>2018-06-03T06:12:57.000Z</time>
      </trkpt>
      <trkpt lat="44.52793" lon="4.29052">
        <ele>286</ele>
        <time>2018-06-03T06:12:58.000Z</time>
      </trkpt>
      <trkpt lat="44.52786" lon="4.2905">
        <ele>285</ele>
        <time>2018-06-03T06:12:59.000Z</time>
      </trkpt>
      <trkpt lat="44.52779" lon="4.29047">
        <ele>285</ele>
        <time>2018-06-03T06:13:00.000Z</time>
      </trkpt>
      <trkpt lat="44.52772" lon="4.29044">
        <ele>285</ele>
        <time>2018-06-03T06:13:01.000Z</time>
      </trkpt>
      <trkpt lat="44.52763" lon="4.29041">
        <ele>285</ele>
        <time>2018-06-03T06:13:02.000Z</time>
      </trkpt>
      <trkpt lat="44.52755" lon="4.29038">
        <ele>285</ele>
        <time>2018-06-03T06:13:03.000Z</time>
      </trkpt>
      <trkpt lat="44.52745" lon="4.29036">
        <ele>281</ele>
        <time>2018-06-03T06:13:04.000Z</time>
      </trkpt>
      <trkpt lat="44.52736" lon="4.29034">
        <ele>281</ele>
        <time>2018-06-03T06:13:05.000Z</time>
      </trkpt>
      <trkpt lat="44.52726" lon="4.29031">
        <ele>281</ele>
        <time>2018-06-03T06:13:06.000Z</time>
      </trkpt>
      <trkpt lat="44.52717" lon="4.29027">
        <ele>280</ele>
        <time>2018-06-03T06:13:07.000Z</time>
      </trkpt>
      <trkpt lat="44.52707" lon="4.29023">
        <ele>280</ele>
        <time>2018-06-03T06:13:08.000Z</time>
      </trkpt>
      <trkpt lat="44.52698" lon="4.2902">
        <ele>279</ele>
        <time>2018-06-03T06:13:09.000Z</time>
      </trkpt>
      <trkpt lat="44.5269" lon="4.29017">
        <ele>279</ele>
        <time>2018-06-03T06:13:10.000Z</time>
      </trkpt>
      <trkpt lat="44.52683" lon="4.29013">
        <ele>278</ele>
        <time>2018-06-03T06:13:11.000Z</time>
      </trkpt>
      <trkpt lat="44.52675" lon="4.2901">
        <ele>278</ele>
        <time>2018-06-03T06:13:12.000Z</time>
      </trkpt>
      <trkpt lat="44.52667" lon="4.29005">
        <ele>277</ele>
        <time>2018-06-03T06:13:13.000Z</time>
      </trkpt>
      <trkpt lat="44.5266" lon="4.29001">
        <ele>275</ele>
        <time>2018-06-03T06:13:14.000Z</time>
      </trkpt>
      <trkpt lat="44.52654" lon="4.28996">
        <ele>273</ele>
        <time>2018-06-03T06:13:15.000Z</time>
      </trkpt>
      <trkpt lat="44.52647" lon="4.2899">
        <ele>272</ele>
        <time>2018-06-03T06:13:16.000Z</time>
      </trkpt>
      <trkpt lat="44.52642" lon="4.28984">
        <ele>272</ele>
        <time>2018-06-03T06:13:17.000Z</time>
      </trkpt>
      <trkpt lat="44.52636" lon="4.28978">
        <ele>271</ele>
        <time>2018-06-03T06:13:18.000Z</time>
      </trkpt>
      <trkpt lat="44.52631" lon="4.28973">
        <ele>271</ele>
        <time>2018-06-03T06:13:19.000Z</time>
      </trkpt>
      <trkpt lat="44.52628" lon="4.28966">
        <ele>270</ele>
        <time>2018-06-03T06:13:20.000Z</time>
      </trkpt>
      <trkpt lat="44.52625" lon="4.28958">
        <ele>270</ele>
        <time>2018-06-03T06:13:21.000Z</time>
      </trkpt>
      <trkpt lat="44.52624" lon="4.28948">
        <ele>270</ele>
        <time>2018-06-03T06:13:22.000Z</time>
      </trkpt>
      <trkpt lat="44.52623" lon="4.28938">
        <ele>270</ele>
        <time>2018-06-03T06:13:23.000Z</time>
      </trkpt>
      <trkpt lat="44.52621" lon="4.28927">
        <ele>269</ele>
        <time>2018-06-03T06:13:24.000Z</time>
      </trkpt>
      <trkpt lat="44.5262" lon="4.28917">
        <ele>269</ele>
        <time>2018-06-03T06:13:25.000Z</time>
      </trkpt>
      <trkpt lat="44.52618" lon="4.28907">
        <ele>270</ele>
        <time>2018-06-03T06:13:26.000Z</time>
      </trkpt>
      <trkpt lat="44.52615" lon="4.28898">
        <ele>270</ele>
        <time>2018-06-03T06:13:27.000Z</time>
      </trkpt>
      <trkpt lat="44.52611" lon="4.28891">
        <ele>270</ele>
        <time>2018-06-03T06:13:28.000Z</time>
      </trkpt>
      <trkpt lat="44.52607" lon="4.28885">
        <ele>270</ele>
        <time>2018-06-03T06:13:29.000Z</time>
      </trkpt>
      <trkpt lat="44.52603" lon="4.28881">
        <ele>270</ele>
        <time>2018-06-03T06:13:30.000Z</time>
      </trkpt>
      <trkpt lat="44.52599" lon="4.28879">
        <ele>270</ele>
        <time>2018-06-03T06:13:31.000Z</time>
      </trkpt>
      <trkpt lat="44.52595" lon="4.28882">
        <ele>270</ele>
        <time>2018-06-03T06:13:32.000Z</time>
      </trkpt>
      <trkpt lat="44.52591" lon="4.28886">
        <ele>269</ele>
        <time>2018-06-03T06:13:33.000Z</time>
      </trkpt>
      <trkpt lat="44.52587" lon="4.2889">
        <ele>269</ele>
        <time>2018-06-03T06:13:34.000Z</time>
      </trkpt>
      <trkpt lat="44.52582" lon="4.28893">
        <ele>270</ele>
        <time>2018-06-03T06:13:35.000Z</time>
      </trkpt>
      <trkpt lat="44.52577" lon="4.28896">
        <ele>270</ele>
        <time>2018-06-03T06:13:36.000Z</time>
      </trkpt>
      <trkpt lat="44.52572" lon="4.28898">
        <ele>270</ele>
        <time>2018-06-03T06:13:37.000Z</time>
      </trkpt>
      <trkpt lat="44.52566" lon="4.28899">
        <ele>270</ele>
        <time>2018-06-03T06:13:38.000Z</time>
      </trkpt>
      <trkpt lat="44.52561" lon="4.28902">
        <ele>271</ele>
        <time>2018-06-03T06:13:39.000Z</time>
      </trkpt>
      <trkpt lat="44.52556" lon="4.28905">
        <ele>271</ele>
        <time>2018-06-03T06:13:40.000Z</time>
      </trkpt>
      <trkpt lat="44.52551" lon="4.28907">
        <ele>271</ele>
        <time>2018-06-03T06:13:41.000Z</time>
      </trkpt>
      <trkpt lat="44.52546" lon="4.28911">
        <ele>271</ele>
        <time>2018-06-03T06:13:42.000Z</time>
      </trkpt>
      <trkpt lat="44.52541" lon="4.28915">
        <ele>272</ele>
        <time>2018-06-03T06:13:43.000Z</time>
      </trkpt>
      <trkpt lat="44.52536" lon="4.28919">
        <ele>268</ele>
        <time>2018-06-03T06:13:44.000Z</time>
      </trkpt>
      <trkpt lat="44.52531" lon="4.28923">
        <ele>268</ele>
        <time>2018-06-03T06:13:45.000Z</time>
      </trkpt>
      <trkpt lat="44.52526" lon="4.28927">
        <ele>268</ele>
        <time>2018-06-03T06:13:46.000Z</time>
      </trkpt>
      <trkpt lat="44.52522" lon="4.28932">
        <ele>268</ele>
        <time>2018-06-03T06:13:47.000Z</time>
      </trkpt>
      <trkpt lat="44.52518" lon="4.28938">
        <ele>268</ele>
        <time>2018-06-03T06:13:48.000Z</time>
      </trkpt>
      <trkpt lat="44.52513" lon="4.28943">
        <ele>268</ele>
        <time>2018-06-03T06:13:49.000Z</time>
      </trkpt>
      <trkpt lat="44.52509" lon="4.28949">
        <ele>268</ele>
        <time>2018-06-03T06:13:50.000Z</time>
      </trkpt>
      <trkpt lat="44.52505" lon="4.28954">
        <ele>267</ele>
        <time>2018-06-03T06:13:51.000Z</time>
      </trkpt>
      <trkpt lat="44.52501" lon="4.2896">
        <ele>267</ele>
        <time>2018-06-03T06:13:52.000Z</time>
      </trkpt>
      <trkpt lat="44.52498" lon="4.28965">
        <ele>268</ele>
        <time>2018-06-03T06:13:53.000Z</time>
      </trkpt>
      <trkpt lat="44.52495" lon="4.28971">
        <ele>268</ele>
        <time>2018-06-03T06:13:54.000Z</time>
      </trkpt>
      <trkpt lat="44.52491" lon="4.28978">
        <ele>267</ele>
        <time>2018-06-03T06:13:55.000Z</time>
      </trkpt>
      <trkpt lat="44.52487" lon="4.28985">
        <ele>267</ele>
        <time>2018-06-03T06:13:56.000Z</time>
      </trkpt>
      <trkpt lat="44.52483" lon="4.28991">
        <ele>266</ele>
        <time>2018-06-03T06:13:57.000Z</time>
      </trkpt>
      <trkpt lat="44.52479" lon="4.28997">
        <ele>267</ele>
        <time>2018-06-03T06:13:58.000Z</time>
      </trkpt>
      <trkpt lat="44.52474" lon="4.29004">
        <ele>264</ele>
        <time>2018-06-03T06:13:59.000Z</time>
      </trkpt>
      <trkpt lat="44.52469" lon="4.29011">
        <ele>264</ele>
        <time>2018-06-03T06:14:00.000Z</time>
      </trkpt>
      <trkpt lat="44.52464" lon="4.29018">
        <ele>264</ele>
        <time>2018-06-03T06:14:01.000Z</time>
      </trkpt>
      <trkpt lat="44.52459" lon="4.29022">
        <ele>264</ele>
        <time>2018-06-03T06:14:02.000Z</time>
      </trkpt>
      <trkpt lat="44.52453" lon="4.29025">
        <ele>264</ele>
        <time>2018-06-03T06:14:03.000Z</time>
      </trkpt>
      <trkpt lat="44.52447" lon="4.29029">
        <ele>264</ele>
        <time>2018-06-03T06:14:04.000Z</time>
      </trkpt>
      <trkpt lat="44.52442" lon="4.29033">
        <ele>264</ele>
        <time>2018-06-03T06:14:05.000Z</time>
      </trkpt>
      <trkpt lat="44.52436" lon="4.29036">
        <ele>264</ele>
        <time>2018-06-03T06:14:06.000Z</time>
      </trkpt>
      <trkpt lat="44.52431" lon="4.29038">
        <ele>264</ele>
        <time>2018-06-03T06:14:07.000Z</time>
      </trkpt>
      <trkpt lat="44.52426" lon="4.2904">
        <ele>264</ele>
        <time>2018-06-03T06:14:08.000Z</time>
      </trkpt>
      <trkpt lat="44.52423" lon="4.29042">
        <ele>264</ele>
        <time>2018-06-03T06:14:09.000Z</time>
      </trkpt>
      <trkpt lat="44.52421" lon="4.29044">
        <ele>264</ele>
        <time>2018-06-03T06:14:10.000Z</time>
      </trkpt>
      <trkpt lat="44.5242" lon="4.29046">
        <ele>264</ele>
        <time>2018-06-03T06:14:11.000Z</time>
      </trkpt>
      <trkpt lat="44.52419" lon="4.29048">
        <ele>264</ele>
        <time>2018-06-03T06:14:12.000Z</time>
      </trkpt>
      <trkpt lat="44.52419" lon="4.2905">
        <ele>264</ele>
        <time>2018-06-03T06:14:13.000Z</time>
      </trkpt>
      <trkpt lat="44.52419" lon="4.29052">
        <ele>264</ele>
        <time>2018-06-03T06:14:14.000Z</time>
      </trkpt>
      <trkpt lat="44.52418" lon="4.29057">
        <ele>264</ele>
        <time>2018-06-03T06:14:15.000Z</time>
      </trkpt>
      <trkpt lat="44.52417" lon="4.29062">
        <ele>264</ele>
        <time>2018-06-03T06:14:16.000Z</time>
      </trkpt>
      <trkpt lat="44.52416" lon="4.29068">
        <ele>265</ele>
        <time>2018-06-03T06:14:17.000Z</time>
      </trkpt>
      <trkpt lat="44.52416" lon="4.29074">
        <ele>264</ele>
        <time>2018-06-03T06:14:18.000Z</time>
      </trkpt>
      <trkpt lat="44.52415" lon="4.2908">
        <ele>264</ele>
        <time>2018-06-03T06:14:19.000Z</time>
      </trkpt>
      <trkpt lat="44.52413" lon="4.29086">
        <ele>263</ele>
        <time>2018-06-03T06:14:20.000Z</time>
      </trkpt>
      <trkpt lat="44.52412" lon="4.29091">
        <ele>262</ele>
        <time>2018-06-03T06:14:21.000Z</time>
      </trkpt>
      <trkpt lat="44.5241" lon="4.29095">
        <ele>262</ele>
        <time>2018-06-03T06:14:22.000Z</time>
      </trkpt>
      <trkpt lat="44.52408" lon="4.29097">
        <ele>262</ele>
        <time>2018-06-03T06:14:23.000Z</time>
      </trkpt>
      <trkpt lat="44.52406" lon="4.29098">
        <ele>261</ele>
        <time>2018-06-03T06:14:24.000Z</time>
      </trkpt>
      <trkpt lat="44.52404" lon="4.29098">
        <ele>261</ele>
        <time>2018-06-03T06:14:25.000Z</time>
      </trkpt>
      <trkpt lat="44.52402" lon="4.29097">
        <ele>261</ele>
        <time>2018-06-03T06:14:26.000Z</time>
      </trkpt>
      <trkpt lat="44.524" lon="4.29097">
        <ele>261</ele>
        <time>2018-06-03T06:14:27.000Z</time>
      </trkpt>
      <trkpt lat="44.52399" lon="4.29098">
        <ele>261</ele>
        <time>2018-06-03T06:14:28.000Z</time>
      </trkpt>
      <trkpt lat="44.52398" lon="4.29098">
        <ele>261</ele>
        <time>2018-06-03T06:14:29.000Z</time>
      </trkpt>
      <trkpt lat="44.52397" lon="4.29099">
        <ele>261</ele>
        <time>2018-06-03T06:14:30.000Z</time>
      </trkpt>
      <trkpt lat="44.52396" lon="4.29099">
        <ele>261</ele>
        <time>2018-06-03T06:14:31.000Z</time>
      </trkpt>
      <trkpt lat="44.52395" lon="4.29099">
        <ele>261</ele>
        <time>2018-06-03T06:14:32.000Z</time>
      </trkpt>
      <trkpt lat="44.52395" lon="4.291">
        <ele>261</ele>
        <time>2018-06-03T06:14:33.000Z</time>
      </trkpt>
      <trkpt lat="44.52393" lon="4.291">
        <ele>261</ele>
        <time>2018-06-03T06:14:34.000Z</time>
      </trkpt>
      <trkpt lat="44.52392" lon="4.29101">
        <ele>261</ele>
        <time>2018-06-03T06:14:35.000Z</time>
      </trkpt>
      <trkpt lat="44.52391" lon="4.29101">
        <ele>261</ele>
        <time>2018-06-03T06:14:36.000Z</time>
      </trkpt>
      <trkpt lat="44.52389" lon="4.29101">
        <ele>261</ele>
        <time>2018-06-03T06:14:37.000Z</time>
      </trkpt>
      <trkpt lat="44.52388" lon="4.29102">
        <ele>261</ele>
        <time>2018-06-03T06:14:38.000Z</time>
      </trkpt>
      <trkpt lat="44.52388" lon="4.29103">
        <ele>261</ele>
        <time>2018-06-03T06:14:39.000Z</time>
      </trkpt>
      <trkpt lat="44.52387" lon="4.29103">
        <ele>261</ele>
        <time>2018-06-03T06:14:40.000Z</time>
      </trkpt>
      <trkpt lat="44.52386" lon="4.29103">
        <ele>261</ele>
        <time>2018-06-03T06:14:41.000Z</time>
      </trkpt>
      <trkpt lat="44.52386" lon="4.29104">
        <ele>261</ele>
        <time>2018-06-03T06:14:42.000Z</time>
      </trkpt>
      <trkpt lat="44.52385" lon="4.29104">
        <ele>261</ele>
        <time>2018-06-03T06:14:43.000Z</time>
      </trkpt>
      <trkpt lat="44.52384" lon="4.29104">
        <ele>261</ele>
        <time>2018-06-03T06:14:44.000Z</time>
      </trkpt>
      <trkpt lat="44.52384" lon="4.29104">
        <ele>261</ele>
        <time>2018-06-03T06:14:45.000Z</time>
      </trkpt>
      <trkpt lat="44.52384" lon="4.29104">
        <ele>261</ele>
        <time>2018-06-03T06:14:46.000Z</time>
      </trkpt>
      <trkpt lat="44.52384" lon="4.29104">
        <ele>261</ele>
        <time>2018-06-03T06:14:47.000Z</time>
      </trkpt>
      <trkpt lat="44.52383" lon="4.29104">
        <ele>261</ele>
        <time>2018-06-03T06:14:48.000Z</time>
      </trkpt>
      <trkpt lat="44.52382" lon="4.29105">
        <ele>261</ele>
        <time>2018-06-03T06:14:49.000Z</time>
      </trkpt>
      <trkpt lat="44.52381" lon="4.29105">
        <ele>261</ele>
        <time>2018-06-03T06:14:50.000Z</time>
      </trkpt>
      <trkpt lat="44.52379" lon="4.29105">
        <ele>261</ele>
        <time>2018-06-03T06:14:51.000Z</time>
      </trkpt>
      <trkpt lat="44.52378" lon="4.29105">
        <ele>261</ele>
        <time>2018-06-03T06:14:52.000Z</time>
      </trkpt>
      <trkpt lat="44.52377" lon="4.29105">
        <ele>261</ele>
        <time>2018-06-03T06:14:53.000Z</time>
      </trkpt>
      <trkpt lat="44.52376" lon="4.29105">
        <ele>261</ele>
        <time>2018-06-03T06:14:54.000Z</time>
      </trkpt>
      <trkpt lat="44.52375" lon="4.29105">
        <ele>261</ele>
        <time>2018-06-03T06:14:55.000Z</time>
      </trkpt>
      <trkpt lat="44.52374" lon="4.29106">
        <ele>261</ele>
        <time>2018-06-03T06:14:56.000Z</time>
      </trkpt>
      <trkpt lat="44.52372" lon="4.29106">
        <ele>261</ele>
        <time>2018-06-03T06:14:57.000Z</time>
      </trkpt>
      <trkpt lat="44.5237" lon="4.29105">
        <ele>261</ele>
        <time>2018-06-03T06:14:58.000Z</time>
      </trkpt>
      <trkpt lat="44.52368" lon="4.29105">
        <ele>261</ele>
        <time>2018-06-03T06:14:59.000Z</time>
      </trkpt>
      <trkpt lat="44.52366" lon="4.29105">
        <ele>261</ele>
        <time>2018-06-03T06:15:00.000Z</time>
      </trkpt>
      <trkpt lat="44.52364" lon="4.29104">
        <ele>262</ele>
        <time>2018-06-03T06:15:01.000Z</time>
      </trkpt>
      <trkpt lat="44.52362" lon="4.29104">
        <ele>262</ele>
        <time>2018-06-03T06:15:02.000Z</time>
      </trkpt>
      <trkpt lat="44.52359" lon="4.29104">
        <ele>262</ele>
        <time>2018-06-03T06:15:03.000Z</time>
      </trkpt>
      <trkpt lat="44.52357" lon="4.29105">
        <ele>262</ele>
        <time>2018-06-03T06:15:04.000Z</time>
      </trkpt>
      <trkpt lat="44.52355" lon="4.29106">
        <ele>262</ele>
        <time>2018-06-03T06:15:05.000Z</time>
      </trkpt>
      <trkpt lat="44.52352" lon="4.29105">
        <ele>262</ele>
        <time>2018-06-03T06:15:06.000Z</time>
      </trkpt>
      <trkpt lat="44.5235" lon="4.29103">
        <ele>262</ele>
        <time>2018-06-03T06:15:07.000Z</time>
      </trkpt>
      <trkpt lat="44.52348" lon="4.29102">
        <ele>263</ele>
        <time>2018-06-03T06:15:08.000Z</time>
      </trkpt>
      <trkpt lat="44.52345" lon="4.291">
        <ele>263</ele>
        <time>2018-06-03T06:15:09.000Z</time>
      </trkpt>
      <trkpt lat="44.52343" lon="4.29098">
        <ele>263</ele>
        <time>2018-06-03T06:15:10.000Z</time>
      </trkpt>
      <trkpt lat="44.52341" lon="4.29096">
        <ele>264</ele>
        <time>2018-06-03T06:15:11.000Z</time>
      </trkpt>
      <trkpt lat="44.52339" lon="4.29094">
        <ele>264</ele>
        <time>2018-06-03T06:15:12.000Z</time>
      </trkpt>
      <trkpt lat="44.52338" lon="4.29092">
        <ele>265</ele>
        <time>2018-06-03T06:15:13.000Z</time>
      </trkpt>
      <trkpt lat="44.52336" lon="4.29091">
        <ele>265</ele>
        <time>2018-06-03T06:15:14.000Z</time>
      </trkpt>
      <trkpt lat="44.52334" lon="4.29089">
        <ele>266</ele>
        <time>2018-06-03T06:15:15.000Z</time>
      </trkpt>
      <trkpt lat="44.52332" lon="4.29088">
        <ele>265</ele>
        <time>2018-06-03T06:15:16.000Z</time>
      </trkpt>
      <trkpt lat="44.52331" lon="4.29088">
        <ele>265</ele>
        <time>2018-06-03T06:15:17.000Z</time>
      </trkpt>
      <trkpt lat="44.52331" lon="4.29087">
        <ele>265</ele>
        <time>2018-06-03T06:15:18.000Z</time>
      </trkpt>
      <trkpt lat="44.5233" lon="4.29087">
        <ele>265</ele>
        <time>2018-06-03T06:15:19.000Z</time>
      </trkpt>
      <trkpt lat="44.5233" lon="4.29087">
        <ele>265</ele>
        <time>2018-06-03T06:15:20.000Z</time>
      </trkpt>
      <trkpt lat="44.52329" lon="4.29086">
        <ele>265</ele>
        <time>2018-06-03T06:15:21.000Z</time>
      </trkpt>
      <trkpt lat="44.52329" lon="4.29086">
        <ele>265</ele>
        <time>2018-06-03T06:15:22.000Z</time>
      </trkpt>
      <trkpt lat="44.52328" lon="4.29086">
        <ele>265</ele>
        <time>2018-06-03T06:15:23.000Z</time>
      </trkpt>
      <trkpt lat="44.52328" lon="4.29085">
        <ele>265</ele>
        <time>2018-06-03T06:15:24.000Z</time>
      </trkpt>
      <trkpt lat="44.52327" lon="4.29084">
        <ele>265</ele>
        <time>2018-06-03T06:15:25.000Z</time>
      </trkpt>
      <trkpt lat="44.52326" lon="4.29083">
        <ele>267</ele>
        <time>2018-06-03T06:15:26.000Z</time>
      </trkpt>
      <trkpt lat="44.52325" lon="4.29082">
        <ele>267</ele>
        <time>2018-06-03T06:15:27.000Z</time>
      </trkpt>
      <trkpt lat="44.52324" lon="4.29082">
        <ele>267</ele>
        <time>2018-06-03T06:15:28.000Z</time>
      </trkpt>
      <trkpt lat="44.52323" lon="4.29081">
        <ele>267</ele>
        <time>2018-06-03T06:15:29.000Z</time>
      </trkpt>
      <trkpt lat="44.52321" lon="4.29079">
        <ele>267</ele>
        <time>2018-06-03T06:15:30.000Z</time>
      </trkpt>
      <trkpt lat="44.5232" lon="4.29078">
        <ele>267</ele>
        <time>2018-06-03T06:15:31.000Z</time>
      </trkpt>
      <trkpt lat="44.52318" lon="4.29077">
        <ele>267</ele>
        <time>2018-06-03T06:15:32.000Z</time>
      </trkpt>
      <trkpt lat="44.52316" lon="4.29076">
        <ele>267</ele>
        <time>2018-06-03T06:15:33.000Z</time>
      </trkpt>
      <trkpt lat="44.52314" lon="4.29074">
        <ele>267</ele>
        <time>2018-06-03T06:15:34.000Z</time>
      </trkpt>
      <trkpt lat="44.52312" lon="4.29072">
        <ele>267</ele>
        <time>2018-06-03T06:15:35.000Z</time>
      </trkpt>
      <trkpt lat="44.52309" lon="4.2907">
        <ele>267</ele>
        <time>2018-06-03T06:15:36.000Z</time>
      </trkpt>
      <trkpt lat="44.52305" lon="4.29068">
        <ele>266</ele>
        <time>2018-06-03T06:15:37.000Z</time>
      </trkpt>
      <trkpt lat="44.52302" lon="4.29067">
        <ele>266</ele>
        <time>2018-06-03T06:15:38.000Z</time>
      </trkpt>
      <trkpt lat="44.52299" lon="4.29065">
        <ele>266</ele>
        <time>2018-06-03T06:15:39.000Z</time>
      </trkpt>
      <trkpt lat="44.52296" lon="4.29063">
        <ele>266</ele>
        <time>2018-06-03T06:15:40.000Z</time>
      </trkpt>
      <trkpt lat="44.52293" lon="4.29061">
        <ele>266</ele>
        <time>2018-06-03T06:15:41.000Z</time>
      </trkpt>
      <trkpt lat="44.5229" lon="4.29059">
        <ele>266</ele>
        <time>2018-06-03T06:15:42.000Z</time>
      </trkpt>
      <trkpt lat="44.52288" lon="4.29057">
        <ele>266</ele>
        <time>2018-06-03T06:15:43.000Z</time>
      </trkpt>
      <trkpt lat="44.52285" lon="4.29054">
        <ele>266</ele>
        <time>2018-06-03T06:15:44.000Z</time>
      </trkpt>
      <trkpt lat="44.52283" lon="4.29052">
        <ele>266</ele>
        <time>2018-06-03T06:15:45.000Z</time>
      </trkpt>
      <trkpt lat="44.52281" lon="4.2905">
        <ele>266</ele>
        <time>2018-06-03T06:15:46.000Z</time>
      </trkpt>
      <trkpt lat="44.52279" lon="4.29047">
        <ele>266</ele>
        <time>2018-06-03T06:15:47.000Z</time>
      </trkpt>
      <trkpt lat="44.52277" lon="4.29045">
        <ele>266</ele>
        <time>2018-06-03T06:15:48.000Z</time>
      </trkpt>
      <trkpt lat="44.52275" lon="4.29043">
        <ele>267</ele>
        <time>2018-06-03T06:15:49.000Z</time>
      </trkpt>
      <trkpt lat="44.52274" lon="4.29041">
        <ele>267</ele>
        <time>2018-06-03T06:15:50.000Z</time>
      </trkpt>
      <trkpt lat="44.52274" lon="4.29039">
        <ele>267</ele>
        <time>2018-06-03T06:15:51.000Z</time>
      </trkpt>
      <trkpt lat="44.52273" lon="4.29035">
        <ele>267</ele>
        <time>2018-06-03T06:15:52.000Z</time>
      </trkpt>
      <trkpt lat="44.52272" lon="4.29031">
        <ele>267</ele>
        <time>2018-06-03T06:15:53.000Z</time>
      </trkpt>
      <trkpt lat="44.52271" lon="4.29029">
        <ele>267</ele>
        <time>2018-06-03T06:15:54.000Z</time>
      </trkpt>
      <trkpt lat="44.5227" lon="4.29026">
        <ele>268</ele>
        <time>2018-06-03T06:15:55.000Z</time>
      </trkpt>
      <trkpt lat="44.52269" lon="4.29025">
        <ele>268</ele>
        <time>2018-06-03T06:15:56.000Z</time>
      </trkpt>
      <trkpt lat="44.52267" lon="4.29023">
        <ele>268</ele>
        <time>2018-06-03T06:15:57.000Z</time>
      </trkpt>
      <trkpt lat="44.52265" lon="4.29021">
        <ele>268</ele>
        <time>2018-06-03T06:15:58.000Z</time>
      </trkpt>
      <trkpt lat="44.52263" lon="4.29018">
        <ele>268</ele>
        <time>2018-06-03T06:15:59.000Z</time>
      </trkpt>
      <trkpt lat="44.52262" lon="4.29016">
        <ele>269</ele>
        <time>2018-06-03T06:16:00.000Z</time>
      </trkpt>
      <trkpt lat="44.5226" lon="4.29015">
        <ele>269</ele>
        <time>2018-06-03T06:16:01.000Z</time>
      </trkpt>
      <trkpt lat="44.52259" lon="4.29015">
        <ele>269</ele>
        <time>2018-06-03T06:16:02.000Z</time>
      </trkpt>
      <trkpt lat="44.52258" lon="4.29015">
        <ele>269</ele>
        <time>2018-06-03T06:16:03.000Z</time>
      </trkpt>
      <trkpt lat="44.52255" lon="4.29015">
        <ele>269</ele>
        <time>2018-06-03T06:16:04.000Z</time>
      </trkpt>
      <trkpt lat="44.52253" lon="4.29015">
        <ele>269</ele>
        <time>2018-06-03T06:16:05.000Z</time>
      </trkpt>
      <trkpt lat="44.5225" lon="4.29014">
        <ele>268</ele>
        <time>2018-06-03T06:16:06.000Z</time>
      </trkpt>
      <trkpt lat="44.52247" lon="4.29013">
        <ele>268</ele>
        <time>2018-06-03T06:16:07.000Z</time>
      </trkpt>
      <trkpt lat="44.52244" lon="4.29012">
        <ele>268</ele>
        <time>2018-06-03T06:16:08.000Z</time>
      </trkpt>
      <trkpt lat="44.52241" lon="4.29011">
        <ele>268</ele>
        <time>2018-06-03T06:16:09.000Z</time>
      </trkpt>
      <trkpt lat="44.52237" lon="4.2901">
        <ele>267</ele>
        <time>2018-06-03T06:16:10.000Z</time>
      </trkpt>
      <trkpt lat="44.52234" lon="4.29008">
        <ele>267</ele>
        <time>2018-06-03T06:16:11.000Z</time>
      </trkpt>
      <trkpt lat="44.5223" lon="4.29007">
        <ele>267</ele>
        <time>2018-06-03T06:16:12.000Z</time>
      </trkpt>
      <trkpt lat="44.52227" lon="4.29006">
        <ele>266</ele>
        <time>2018-06-03T06:16:13.000Z</time>
      </trkpt>
      <trkpt lat="44.52223" lon="4.29005">
        <ele>266</ele>
        <time>2018-06-03T06:16:14.000Z</time>
      </trkpt>
      <trkpt lat="44.5222" lon="4.29005">
        <ele>266</ele>
        <time>2018-06-03T06:16:15.000Z</time>
      </trkpt>
      <trkpt lat="44.52217" lon="4.29004">
        <ele>266</ele>
        <time>2018-06-03T06:16:16.000Z</time>
      </trkpt>
      <trkpt lat="44.52215" lon="4.29002">
        <ele>266</ele>
        <time>2018-06-03T06:16:17.000Z</time>
      </trkpt>
      <trkpt lat="44.52214" lon="4.28999">
        <ele>272</ele>
        <time>2018-06-03T06:16:18.000Z</time>
      </trkpt>
      <trkpt lat="44.52213" lon="4.28996">
        <ele>272</ele>
        <time>2018-06-03T06:16:19.000Z</time>
      </trkpt>
      <trkpt lat="44.52213" lon="4.28993">
        <ele>272</ele>
        <time>2018-06-03T06:16:20.000Z</time>
      </trkpt>
      <trkpt lat="44.52213" lon="4.2899">
        <ele>272</ele>
        <time>2018-06-03T06:16:21.000Z</time>
      </trkpt>
      <trkpt lat="44.52213" lon="4.28987">
        <ele>272</ele>
        <time>2018-06-03T06:16:22.000Z</time>
      </trkpt>
      <trkpt lat="44.52212" lon="4.28983">
        <ele>272</ele>
        <time>2018-06-03T06:16:23.000Z</time>
      </trkpt>
      <trkpt lat="44.52212" lon="4.2898">
        <ele>272</ele>
        <time>2018-06-03T06:16:24.000Z</time>
      </trkpt>
      <trkpt lat="44.52213" lon="4.28977">
        <ele>272</ele>
        <time>2018-06-03T06:16:25.000Z</time>
      </trkpt>
      <trkpt lat="44.52213" lon="4.28974">
        <ele>272</ele>
        <time>2018-06-03T06:16:26.000Z</time>
      </trkpt>
      <trkpt lat="44.52212" lon="4.28971">
        <ele>272</ele>
        <time>2018-06-03T06:16:27.000Z</time>
      </trkpt>
      <trkpt lat="44.52212" lon="4.28969">
        <ele>273</ele>
        <time>2018-06-03T06:16:28.000Z</time>
      </trkpt>
      <trkpt lat="44.52211" lon="4.28968">
        <ele>273</ele>
        <time>2018-06-03T06:16:29.000Z</time>
      </trkpt>
      <trkpt lat="44.52209" lon="4.28966">
        <ele>273</ele>
        <time>2018-06-03T06:16:30.000Z</time>
      </trkpt>
      <trkpt lat="44.52207" lon="4.28964">
        <ele>273</ele>
        <time>2018-06-03T06:16:31.000Z</time>
      </trkpt>
      <trkpt lat="44.52206" lon="4.28963">
        <ele>273</ele>
        <time>2018-06-03T06:16:32.000Z</time>
      </trkpt>
      <trkpt lat="44.52204" lon="4.28961">
        <ele>273</ele>
        <time>2018-06-03T06:16:33.000Z</time>
      </trkpt>
      <trkpt lat="44.52203" lon="4.28959">
        <ele>273</ele>
        <time>2018-06-03T06:16:34.000Z</time>
      </trkpt>
      <trkpt lat="44.52201" lon="4.28957">
        <ele>273</ele>
        <time>2018-06-03T06:16:35.000Z</time>
      </trkpt>
      <trkpt lat="44.52199" lon="4.28955">
        <ele>273</ele>
        <time>2018-06-03T06:16:36.000Z</time>
      </trkpt>
      <trkpt lat="44.52198" lon="4.28952">
        <ele>273</ele>
        <time>2018-06-03T06:16:37.000Z</time>
      </trkpt>
      <trkpt lat="44.52196" lon="4.2895">
        <ele>273</ele>
        <time>2018-06-03T06:16:38.000Z</time>
      </trkpt>
      <trkpt lat="44.52194" lon="4.28948">
        <ele>273</ele>
        <time>2018-06-03T06:16:39.000Z</time>
      </trkpt>
      <trkpt lat="44.52193" lon="4.28946">
        <ele>273</ele>
        <time>2018-06-03T06:16:40.000Z</time>
      </trkpt>
      <trkpt lat="44.52191" lon="4.28944">
        <ele>273</ele>
        <time>2018-06-03T06:16:41.000Z</time>
      </trkpt>
      <trkpt lat="44.5219" lon="4.28942">
        <ele>273</ele>
        <time>2018-06-03T06:16:42.000Z</time>
      </trkpt>
      <trkpt lat="44.52188" lon="4.28941">
        <ele>273</ele>
        <time>2018-06-03T06:16:43.000Z</time>
      </trkpt>
      <trkpt lat="44.52186" lon="4.2894">
        <ele>273</ele>
        <time>2018-06-03T06:16:44.000Z</time>
      </trkpt>
      <trkpt lat="44.52184" lon="4.28939">
        <ele>274</ele>
        <time>2018-06-03T06:16:45.000Z</time>
      </trkpt>
      <trkpt lat="44.52182" lon="4.28937">
        <ele>274</ele>
        <time>2018-06-03T06:16:46.000Z</time>
      </trkpt>
      <trkpt lat="44.52181" lon="4.28935">
        <ele>274</ele>
        <time>2018-06-03T06:16:47.000Z</time>
      </trkpt>
      <trkpt lat="44.52179" lon="4.28933">
        <ele>274</ele>
        <time>2018-06-03T06:16:48.000Z</time>
      </trkpt>
      <trkpt lat="44.52178" lon="4.2893">
        <ele>274</ele>
        <time>2018-06-03T06:16:49.000Z</time>
      </trkpt>
      <trkpt lat="44.52177" lon="4.28926">
        <ele>274</ele>
        <time>2018-06-03T06:16:50.000Z</time>
      </trkpt>
      <trkpt lat="44.52177" lon="4.28924">
        <ele>274</ele>
        <time>2018-06-03T06:16:51.000Z</time>
      </trkpt>
      <trkpt lat="44.52177" lon="4.28922">
        <ele>274</ele>
        <time>2018-06-03T06:16:52.000Z</time>
      </trkpt>
      <trkpt lat="44.52178" lon="4.28919">
        <ele>274</ele>
        <time>2018-06-03T06:16:53.000Z</time>
      </trkpt>
      <trkpt lat="44.52178" lon="4.28916">
        <ele>276</ele>
        <time>2018-06-03T06:16:54.000Z</time>
      </trkpt>
      <trkpt lat="44.52179" lon="4.28913">
        <ele>276</ele>
        <time>2018-06-03T06:16:55.000Z</time>
      </trkpt>
      <trkpt lat="44.52179" lon="4.28911">
        <ele>276</ele>
        <time>2018-06-03T06:16:56.000Z</time>
      </trkpt>
      <trkpt lat="44.52179" lon="4.28908">
        <ele>276</ele>
        <time>2018-06-03T06:16:57.000Z</time>
      </trkpt>
      <trkpt lat="44.5218" lon="4.28905">
        <ele>276</ele>
        <time>2018-06-03T06:16:58.000Z</time>
      </trkpt>
      <trkpt lat="44.5218" lon="4.28901">
        <ele>276</ele>
        <time>2018-06-03T06:16:59.000Z</time>
      </trkpt>
      <trkpt lat="44.52181" lon="4.28898">
        <ele>276</ele>
        <time>2018-06-03T06:17:00.000Z</time>
      </trkpt>
      <trkpt lat="44.52181" lon="4.28895">
        <ele>277</ele>
        <time>2018-06-03T06:17:01.000Z</time>
      </trkpt>
      <trkpt lat="44.52182" lon="4.28892">
        <ele>277</ele>
        <time>2018-06-03T06:17:02.000Z</time>
      </trkpt>
      <trkpt lat="44.52182" lon="4.28889">
        <ele>277</ele>
        <time>2018-06-03T06:17:03.000Z</time>
      </trkpt>
      <trkpt lat="44.52183" lon="4.28886">
        <ele>277</ele>
        <time>2018-06-03T06:17:04.000Z</time>
      </trkpt>
      <trkpt lat="44.52184" lon="4.28883">
        <ele>277</ele>
        <time>2018-06-03T06:17:05.000Z</time>
      </trkpt>
      <trkpt lat="44.52185" lon="4.28881">
        <ele>277</ele>
        <time>2018-06-03T06:17:06.000Z</time>
      </trkpt>
      <trkpt lat="44.52185" lon="4.28878">
        <ele>277</ele>
        <time>2018-06-03T06:17:07.000Z</time>
      </trkpt>
      <trkpt lat="44.52185" lon="4.28875">
        <ele>277</ele>
        <time>2018-06-03T06:17:08.000Z</time>
      </trkpt>
      <trkpt lat="44.52187" lon="4.28872">
        <ele>277</ele>
        <time>2018-06-03T06:17:09.000Z</time>
      </trkpt>
      <trkpt lat="44.52189" lon="4.2887">
        <ele>277</ele>
        <time>2018-06-03T06:17:10.000Z</time>
      </trkpt>
      <trkpt lat="44.52191" lon="4.28868">
        <ele>277</ele>
        <time>2018-06-03T06:17:11.000Z</time>
      </trkpt>
      <trkpt lat="44.52193" lon="4.28867">
        <ele>277</ele>
        <time>2018-06-03T06:17:12.000Z</time>
      </trkpt>
      <trkpt lat="44.52196" lon="4.28865">
        <ele>277</ele>
        <time>2018-06-03T06:17:13.000Z</time>
      </trkpt>
      <trkpt lat="44.52198" lon="4.28865">
        <ele>277</ele>
        <time>2018-06-03T06:17:14.000Z</time>
      </trkpt>
      <trkpt lat="44.52201" lon="4.28865">
        <ele>277</ele>
        <time>2018-06-03T06:17:15.000Z</time>
      </trkpt>
      <trkpt lat="44.52204" lon="4.28864">
        <ele>277</ele>
        <time>2018-06-03T06:17:16.000Z</time>
      </trkpt>
      <trkpt lat="44.52206" lon="4.28862">
        <ele>278</ele>
        <time>2018-06-03T06:17:17.000Z</time>
      </trkpt>
      <trkpt lat="44.52209" lon="4.28861">
        <ele>278</ele>
        <time>2018-06-03T06:17:18.000Z</time>
      </trkpt>
      <trkpt lat="44.52211" lon="4.28859">
        <ele>278</ele>
        <time>2018-06-03T06:17:19.000Z</time>
      </trkpt>
      <trkpt lat="44.52214" lon="4.28857">
        <ele>278</ele>
        <time>2018-06-03T06:17:20.000Z</time>
      </trkpt>
      <trkpt lat="44.52217" lon="4.28855">
        <ele>278</ele>
        <time>2018-06-03T06:17:21.000Z</time>
      </trkpt>
      <trkpt lat="44.5222" lon="4.28853">
        <ele>278</ele>
        <time>2018-06-03T06:17:22.000Z</time>
      </trkpt>
      <trkpt lat="44.52224" lon="4.28851">
        <ele>278</ele>
        <time>2018-06-03T06:17:23.000Z</time>
      </trkpt>
      <trkpt lat="44.52227" lon="4.28847">
        <ele>278</ele>
        <time>2018-06-03T06:17:24.000Z</time>
      </trkpt>
      <trkpt lat="44.5223" lon="4.28843">
        <ele>278</ele>
        <time>2018-06-03T06:17:25.000Z</time>
      </trkpt>
      <trkpt lat="44.52232" lon="4.28839">
        <ele>279</ele>
        <time>2018-06-03T06:17:26.000Z</time>
      </trkpt>
      <trkpt lat="44.52235" lon="4.28834">
        <ele>279</ele>
        <time>2018-06-03T06:17:27.000Z</time>
      </trkpt>
      <trkpt lat="44.52238" lon="4.2883">
        <ele>279</ele>
        <time>2018-06-03T06:17:28.000Z</time>
      </trkpt>
      <trkpt lat="44.5224" lon="4.28825">
        <ele>279</ele>
        <time>2018-06-03T06:17:29.000Z</time>
      </trkpt>
      <trkpt lat="44.52242" lon="4.28821">
        <ele>279</ele>
        <time>2018-06-03T06:17:30.000Z</time>
      </trkpt>
      <trkpt lat="44.52245" lon="4.28816">
        <ele>279</ele>
        <time>2018-06-03T06:17:31.000Z</time>
      </trkpt>
      <trkpt lat="44.52247" lon="4.28811">
        <ele>279</ele>
        <time>2018-06-03T06:17:32.000Z</time>
      </trkpt>
      <trkpt lat="44.52248" lon="4.28806">
        <ele>279</ele>
        <time>2018-06-03T06:17:33.000Z</time>
      </trkpt>
      <trkpt lat="44.5225" lon="4.28801">
        <ele>279</ele>
        <time>2018-06-03T06:17:34.000Z</time>
      </trkpt>
      <trkpt lat="44.52252" lon="4.28796">
        <ele>282</ele>
        <time>2018-06-03T06:17:35.000Z</time>
      </trkpt>
      <trkpt lat="44.52253" lon="4.28791">
        <ele>282</ele>
        <time>2018-06-03T06:17:36.000Z</time>
      </trkpt>
      <trkpt lat="44.52254" lon="4.28786">
        <ele>282</ele>
        <time>2018-06-03T06:17:37.000Z</time>
      </trkpt>
      <trkpt lat="44.52256" lon="4.28781">
        <ele>282</ele>
        <time>2018-06-03T06:17:38.000Z</time>
      </trkpt>
      <trkpt lat="44.52257" lon="4.28776">
        <ele>282</ele>
        <time>2018-06-03T06:17:39.000Z</time>
      </trkpt>
      <trkpt lat="44.52259" lon="4.28771">
        <ele>282</ele>
        <time>2018-06-03T06:17:40.000Z</time>
      </trkpt>
      <trkpt lat="44.5226" lon="4.28766">
        <ele>283</ele>
        <time>2018-06-03T06:17:41.000Z</time>
      </trkpt>
      <trkpt lat="44.52261" lon="4.28761">
        <ele>283</ele>
        <time>2018-06-03T06:17:42.000Z</time>
      </trkpt>
      <trkpt lat="44.52263" lon="4.28756">
        <ele>283</ele>
        <time>2018-06-03T06:17:43.000Z</time>
      </trkpt>
      <trkpt lat="44.52264" lon="4.28752">
        <ele>283</ele>
        <time>2018-06-03T06:17:44.000Z</time>
      </trkpt>
      <trkpt lat="44.52266" lon="4.28747">
        <ele>285</ele>
        <time>2018-06-03T06:17:45.000Z</time>
      </trkpt>
      <trkpt lat="44.52268" lon="4.28743">
        <ele>285</ele>
        <time>2018-06-03T06:17:46.000Z</time>
      </trkpt>
      <trkpt lat="44.5227" lon="4.28738">
        <ele>285</ele>
        <time>2018-06-03T06:17:47.000Z</time>
      </trkpt>
      <trkpt lat="44.52272" lon="4.28734">
        <ele>285</ele>
        <time>2018-06-03T06:17:48.000Z</time>
      </trkpt>
      <trkpt lat="44.52275" lon="4.28731">
        <ele>285</ele>
        <time>2018-06-03T06:17:49.000Z</time>
      </trkpt>
      <trkpt lat="44.52278" lon="4.28728">
        <ele>286</ele>
        <time>2018-06-03T06:17:50.000Z</time>
      </trkpt>
      <trkpt lat="44.5228" lon="4.28725">
        <ele>286</ele>
        <time>2018-06-03T06:17:51.000Z</time>
      </trkpt>
      <trkpt lat="44.52283" lon="4.28722">
        <ele>286</ele>
        <time>2018-06-03T06:17:52.000Z</time>
      </trkpt>
      <trkpt lat="44.52286" lon="4.2872">
        <ele>286</ele>
        <time>2018-06-03T06:17:53.000Z</time>
      </trkpt>
      <trkpt lat="44.52288" lon="4.28717">
        <ele>286</ele>
        <time>2018-06-03T06:17:54.000Z</time>
      </trkpt>
      <trkpt lat="44.52291" lon="4.28714">
        <ele>286</ele>
        <time>2018-06-03T06:17:55.000Z</time>
      </trkpt>
      <trkpt lat="44.52293" lon="4.2871">
        <ele>286</ele>
        <time>2018-06-03T06:17:56.000Z</time>
      </trkpt>
      <trkpt lat="44.52295" lon="4.28706">
        <ele>286</ele>
        <time>2018-06-03T06:17:57.000Z</time>
      </trkpt>
      <trkpt lat="44.52296" lon="4.28702">
        <ele>286</ele>
        <time>2018-06-03T06:17:58.000Z</time>
      </trkpt>
      <trkpt lat="44.52298" lon="4.28699">
        <ele>287</ele>
        <time>2018-06-03T06:17:59.000Z</time>
      </trkpt>
      <trkpt lat="44.52299" lon="4.28695">
        <ele>287</ele>
        <time>2018-06-03T06:18:00.000Z</time>
      </trkpt>
      <trkpt lat="44.523" lon="4.28692">
        <ele>287</ele>
        <time>2018-06-03T06:18:01.000Z</time>
      </trkpt>
      <trkpt lat="44.52301" lon="4.28688">
        <ele>287</ele>
        <time>2018-06-03T06:18:02.000Z</time>
      </trkpt>
      <trkpt lat="44.52303" lon="4.28684">
        <ele>287</ele>
        <time>2018-06-03T06:18:03.000Z</time>
      </trkpt>
      <trkpt lat="44.52304" lon="4.28681">
        <ele>287</ele>
        <time>2018-06-03T06:18:04.000Z</time>
      </trkpt>
      <trkpt lat="44.52305" lon="4.28677">
        <ele>287</ele>
        <time>2018-06-03T06:18:05.000Z</time>
      </trkpt>
      <trkpt lat="44.52307" lon="4.28673">
        <ele>287</ele>
        <time>2018-06-03T06:18:06.000Z</time>
      </trkpt>
      <trkpt lat="44.52308" lon="4.2867">
        <ele>287</ele>
        <time>2018-06-03T06:18:07.000Z</time>
      </trkpt>
      <trkpt lat="44.5231" lon="4.28666">
        <ele>290</ele>
        <time>2018-06-03T06:18:08.000Z</time>
      </trkpt>
      <trkpt lat="44.52312" lon="4.28662">
        <ele>290</ele>
        <time>2018-06-03T06:18:09.000Z</time>
      </trkpt>
      <trkpt lat="44.52313" lon="4.28659">
        <ele>290</ele>
        <time>2018-06-03T06:18:10.000Z</time>
      </trkpt>
      <trkpt lat="44.52315" lon="4.28655">
        <ele>290</ele>
        <time>2018-06-03T06:18:11.000Z</time>
      </trkpt>
      <trkpt lat="44.52317" lon="4.28651">
        <ele>290</ele>
        <time>2018-06-03T06:18:12.000Z</time>
      </trkpt>
      <trkpt lat="44.52319" lon="4.28648">
        <ele>290</ele>
        <time>2018-06-03T06:18:13.000Z</time>
      </trkpt>
      <trkpt lat="44.52321" lon="4.28644">
        <ele>290</ele>
        <time>2018-06-03T06:18:14.000Z</time>
      </trkpt>
      <trkpt lat="44.52323" lon="4.28641">
        <ele>290</ele>
        <time>2018-06-03T06:18:15.000Z</time>
      </trkpt>
      <trkpt lat="44.52325" lon="4.28637">
        <ele>290</ele>
        <time>2018-06-03T06:18:16.000Z</time>
      </trkpt>
      <trkpt lat="44.52327" lon="4.28634">
        <ele>290</ele>
        <time>2018-06-03T06:18:17.000Z</time>
      </trkpt>
      <trkpt lat="44.52329" lon="4.2863">
        <ele>290</ele>
        <time>2018-06-03T06:18:18.000Z</time>
      </trkpt>
      <trkpt lat="44.52331" lon="4.28626">
        <ele>290</ele>
        <time>2018-06-03T06:18:19.000Z</time>
      </trkpt>
      <trkpt lat="44.52332" lon="4.28622">
        <ele>290</ele>
        <time>2018-06-03T06:18:20.000Z</time>
      </trkpt>
      <trkpt lat="44.52334" lon="4.28618">
        <ele>290</ele>
        <time>2018-06-03T06:18:21.000Z</time>
      </trkpt>
      <trkpt lat="44.52335" lon="4.28614">
        <ele>290</ele>
        <time>2018-06-03T06:18:22.000Z</time>
      </trkpt>
      <trkpt lat="44.52337" lon="4.2861">
        <ele>290</ele>
        <time>2018-06-03T06:18:23.000Z</time>
      </trkpt>
      <trkpt lat="44.52338" lon="4.28606">
        <ele>291</ele>
        <time>2018-06-03T06:18:24.000Z</time>
      </trkpt>
      <trkpt lat="44.5234" lon="4.28602">
        <ele>291</ele>
        <time>2018-06-03T06:18:25.000Z</time>
      </trkpt>
      <trkpt lat="44.52341" lon="4.28598">
        <ele>291</ele>
        <time>2018-06-03T06:18:26.000Z</time>
      </trkpt>
      <trkpt lat="44.52342" lon="4.28594">
        <ele>291</ele>
        <time>2018-06-03T06:18:27.000Z</time>
      </trkpt>
      <trkpt lat="44.52343" lon="4.2859">
        <ele>291</ele>
        <time>2018-06-03T06:18:28.000Z</time>
      </trkpt>
      <trkpt lat="44.52343" lon="4.28586">
        <ele>291</ele>
        <time>2018-06-03T06:18:29.000Z</time>
      </trkpt>
      <trkpt lat="44.52342" lon="4.28583">
        <ele>292</ele>
        <time>2018-06-03T06:18:30.000Z</time>
      </trkpt>
      <trkpt lat="44.52339" lon="4.28581">
        <ele>292</ele>
        <time>2018-06-03T06:18:31.000Z</time>
      </trkpt>
      <trkpt lat="44.52336" lon="4.28579">
        <ele>292</ele>
        <time>2018-06-03T06:18:32.000Z</time>
      </trkpt>
      <trkpt lat="44.52333" lon="4.28578">
        <ele>292</ele>
        <time>2018-06-03T06:18:33.000Z</time>
      </trkpt>
      <trkpt lat="44.5233" lon="4.28576">
        <ele>292</ele>
        <time>2018-06-03T06:18:34.000Z</time>
      </trkpt>
      <trkpt lat="44.52327" lon="4.28575">
        <ele>292</ele>
        <time>2018-06-03T06:18:35.000Z</time>
      </trkpt>
      <trkpt lat="44.52324" lon="4.28573">
        <ele>293</ele>
        <time>2018-06-03T06:18:36.000Z</time>
      </trkpt>
      <trkpt lat="44.5232" lon="4.28571">
        <ele>293</ele>
        <time>2018-06-03T06:18:37.000Z</time>
      </trkpt>
      <trkpt lat="44.52317" lon="4.28569">
        <ele>293</ele>
        <time>2018-06-03T06:18:38.000Z</time>
      </trkpt>
      <trkpt lat="44.52314" lon="4.28568">
        <ele>293</ele>
        <time>2018-06-03T06:18:39.000Z</time>
      </trkpt>
      <trkpt lat="44.52311" lon="4.28566">
        <ele>293</ele>
        <time>2018-06-03T06:18:40.000Z</time>
      </trkpt>
      <trkpt lat="44.52308" lon="4.28564">
        <ele>293</ele>
        <time>2018-06-03T06:18:41.000Z</time>
      </trkpt>
      <trkpt lat="44.52305" lon="4.28562">
        <ele>293</ele>
        <time>2018-06-03T06:18:42.000Z</time>
      </trkpt>
      <trkpt lat="44.52302" lon="4.2856">
        <ele>293</ele>
        <time>2018-06-03T06:18:43.000Z</time>
      </trkpt>
      <trkpt lat="44.52298" lon="4.28558">
        <ele>293</ele>
        <time>2018-06-03T06:18:44.000Z</time>
      </trkpt>
      <trkpt lat="44.52295" lon="4.28556">
        <ele>293</ele>
        <time>2018-06-03T06:18:45.000Z</time>
      </trkpt>
      <trkpt lat="44.52292" lon="4.28554">
        <ele>293</ele>
        <time>2018-06-03T06:18:46.000Z</time>
      </trkpt>
      <trkpt lat="44.52288" lon="4.28552">
        <ele>293</ele>
        <time>2018-06-03T06:18:47.000Z</time>
      </trkpt>
      <trkpt lat="44.52285" lon="4.28551">
        <ele>293</ele>
        <time>2018-06-03T06:18:48.000Z</time>
      </trkpt>
      <trkpt lat="44.52281" lon="4.28551">
        <ele>293</ele>
        <time>2018-06-03T06:18:49.000Z</time>
      </trkpt>
      <trkpt lat="44.52277" lon="4.2855">
        <ele>293</ele>
        <time>2018-06-03T06:18:50.000Z</time>
      </trkpt>
      <trkpt lat="44.52273" lon="4.28549">
        <ele>293</ele>
        <time>2018-06-03T06:18:51.000Z</time>
      </trkpt>
      <trkpt lat="44.52268" lon="4.28548">
        <ele>293</ele>
        <time>2018-06-03T06:18:52.000Z</time>
      </trkpt>
      <trkpt lat="44.52264" lon="4.28546">
        <ele>293</ele>
        <time>2018-06-03T06:18:53.000Z</time>
      </trkpt>
      <trkpt lat="44.5226" lon="4.28545">
        <ele>293</ele>
        <time>2018-06-03T06:18:54.000Z</time>
      </trkpt>
      <trkpt lat="44.52256" lon="4.28544">
        <ele>293</ele>
        <time>2018-06-03T06:18:55.000Z</time>
      </trkpt>
      <trkpt lat="44.52252" lon="4.28543">
        <ele>293</ele>
        <time>2018-06-03T06:18:56.000Z</time>
      </trkpt>
      <trkpt lat="44.52249" lon="4.28544">
        <ele>289</ele>
        <time>2018-06-03T06:18:57.000Z</time>
      </trkpt>
      <trkpt lat="44.52246" lon="4.28547">
        <ele>289</ele>
        <time>2018-06-03T06:18:58.000Z</time>
      </trkpt>
      <trkpt lat="44.52245" lon="4.28552">
        <ele>289</ele>
        <time>2018-06-03T06:18:59.000Z</time>
      </trkpt>
      <trkpt lat="44.52242" lon="4.28556">
        <ele>289</ele>
        <time>2018-06-03T06:19:00.000Z</time>
      </trkpt>
      <trkpt lat="44.52239" lon="4.28556">
        <ele>289</ele>
        <time>2018-06-03T06:19:01.000Z</time>
      </trkpt>
      <trkpt lat="44.52236" lon="4.28554">
        <ele>289</ele>
        <time>2018-06-03T06:19:02.000Z</time>
      </trkpt>
      <trkpt lat="44.52232" lon="4.28551">
        <ele>289</ele>
        <time>2018-06-03T06:19:03.000Z</time>
      </trkpt>
      <trkpt lat="44.5223" lon="4.28549">
        <ele>289</ele>
        <time>2018-06-03T06:19:04.000Z</time>
      </trkpt>
      <trkpt lat="44.52229" lon="4.28547">
        <ele>288</ele>
        <time>2018-06-03T06:19:05.000Z</time>
      </trkpt>
      <trkpt lat="44.52229" lon="4.28546">
        <ele>288</ele>
        <time>2018-06-03T06:19:06.000Z</time>
      </trkpt>
      <trkpt lat="44.5223" lon="4.28545">
        <ele>288</ele>
        <time>2018-06-03T06:19:07.000Z</time>
      </trkpt>
      <trkpt lat="44.5223" lon="4.28542">
        <ele>288</ele>
        <time>2018-06-03T06:19:08.000Z</time>
      </trkpt>
      <trkpt lat="44.52231" lon="4.2854">
        <ele>289</ele>
        <time>2018-06-03T06:19:09.000Z</time>
      </trkpt>
      <trkpt lat="44.52232" lon="4.28536">
        <ele>289</ele>
        <time>2018-06-03T06:19:10.000Z</time>
      </trkpt>
      <trkpt lat="44.52234" lon="4.28531">
        <ele>289</ele>
        <time>2018-06-03T06:19:11.000Z</time>
      </trkpt>
      <trkpt lat="44.52235" lon="4.28527">
        <ele>289</ele>
        <time>2018-06-03T06:19:12.000Z</time>
      </trkpt>
      <trkpt lat="44.52237" lon="4.28522">
        <ele>289</ele>
        <time>2018-06-03T06:19:13.000Z</time>
      </trkpt>
      <trkpt lat="44.52238" lon="4.28518">
        <ele>290</ele>
        <time>2018-06-03T06:19:14.000Z</time>
      </trkpt>
      <trkpt lat="44.52238" lon="4.28513">
        <ele>290</ele>
        <time>2018-06-03T06:19:15.000Z</time>
      </trkpt>
      <trkpt lat="44.52237" lon="4.28507">
        <ele>290</ele>
        <time>2018-06-03T06:19:16.000Z</time>
      </trkpt>
      <trkpt lat="44.52236" lon="4.28501">
        <ele>290</ele>
        <time>2018-06-03T06:19:17.000Z</time>
      </trkpt>
      <trkpt lat="44.52236" lon="4.28494">
        <ele>290</ele>
        <time>2018-06-03T06:19:18.000Z</time>
      </trkpt>
      <trkpt lat="44.52237" lon="4.28487">
        <ele>290</ele>
        <time>2018-06-03T06:19:19.000Z</time>
      </trkpt>
      <trkpt lat="44.52237" lon="4.2848">
        <ele>289</ele>
        <time>2018-06-03T06:19:20.000Z</time>
      </trkpt>
      <trkpt lat="44.52238" lon="4.28472">
        <ele>289</ele>
        <time>2018-06-03T06:19:21.000Z</time>
      </trkpt>
      <trkpt lat="44.52239" lon="4.28465">
        <ele>289</ele>
        <time>2018-06-03T06:19:22.000Z</time>
      </trkpt>
      <trkpt lat="44.5224" lon="4.28457">
        <ele>289</ele>
        <time>2018-06-03T06:19:23.000Z</time>
      </trkpt>
      <trkpt lat="44.5224" lon="4.28451">
        <ele>289</ele>
        <time>2018-06-03T06:19:24.000Z</time>
      </trkpt>
      <trkpt lat="44.52241" lon="4.28447">
        <ele>289</ele>
        <time>2018-06-03T06:19:25.000Z</time>
      </trkpt>
      <trkpt lat="44.52241" lon="4.28442">
        <ele>289</ele>
        <time>2018-06-03T06:19:26.000Z</time>
      </trkpt>
      <trkpt lat="44.52241" lon="4.28438">
        <ele>289</ele>
        <time>2018-06-03T06:19:27.000Z</time>
      </trkpt>
      <trkpt lat="44.52241" lon="4.28433">
        <ele>290</ele>
        <time>2018-06-03T06:19:28.000Z</time>
      </trkpt>
      <trkpt lat="44.52242" lon="4.28428">
        <ele>290</ele>
        <time>2018-06-03T06:19:29.000Z</time>
      </trkpt>
      <trkpt lat="44.52243" lon="4.28423">
        <ele>291</ele>
        <time>2018-06-03T06:19:30.000Z</time>
      </trkpt>
      <trkpt lat="44.52244" lon="4.28419">
        <ele>291</ele>
        <time>2018-06-03T06:19:31.000Z</time>
      </trkpt>
      <trkpt lat="44.52245" lon="4.28414">
        <ele>292</ele>
        <time>2018-06-03T06:19:32.000Z</time>
      </trkpt>
      <trkpt lat="44.52246" lon="4.28409">
        <ele>291</ele>
        <time>2018-06-03T06:19:33.000Z</time>
      </trkpt>
      <trkpt lat="44.52246" lon="4.28404">
        <ele>290</ele>
        <time>2018-06-03T06:19:34.000Z</time>
      </trkpt>
      <trkpt lat="44.52247" lon="4.28399">
        <ele>290</ele>
        <time>2018-06-03T06:19:35.000Z</time>
      </trkpt>
      <trkpt lat="44.52248" lon="4.28394">
        <ele>290</ele>
        <time>2018-06-03T06:19:36.000Z</time>
      </trkpt>
      <trkpt lat="44.52249" lon="4.2839">
        <ele>289</ele>
        <time>2018-06-03T06:19:37.000Z</time>
      </trkpt>
      <trkpt lat="44.5225" lon="4.28385">
        <ele>289</ele>
        <time>2018-06-03T06:19:38.000Z</time>
      </trkpt>
      <trkpt lat="44.52251" lon="4.2838">
        <ele>295</ele>
        <time>2018-06-03T06:19:39.000Z</time>
      </trkpt>
      <trkpt lat="44.52252" lon="4.28376">
        <ele>295</ele>
        <time>2018-06-03T06:19:40.000Z</time>
      </trkpt>
      <trkpt lat="44.52254" lon="4.28372">
        <ele>295</ele>
        <time>2018-06-03T06:19:41.000Z</time>
      </trkpt>
      <trkpt lat="44.52255" lon="4.28367">
        <ele>295</ele>
        <time>2018-06-03T06:19:42.000Z</time>
      </trkpt>
      <trkpt lat="44.52257" lon="4.28363">
        <ele>295</ele>
        <time>2018-06-03T06:19:43.000Z</time>
      </trkpt>
      <trkpt lat="44.52259" lon="4.28359">
        <ele>295</ele>
        <time>2018-06-03T06:19:44.000Z</time>
      </trkpt>
      <trkpt lat="44.5226" lon="4.28355">
        <ele>294</ele>
        <time>2018-06-03T06:19:45.000Z</time>
      </trkpt>
      <trkpt lat="44.52262" lon="4.28351">
        <ele>294</ele>
        <time>2018-06-03T06:19:46.000Z</time>
      </trkpt>
      <trkpt lat="44.52263" lon="4.28347">
        <ele>294</ele>
        <time>2018-06-03T06:19:47.000Z</time>
      </trkpt>
      <trkpt lat="44.52265" lon="4.28343">
        <ele>294</ele>
        <time>2018-06-03T06:19:48.000Z</time>
      </trkpt>
      <trkpt lat="44.52268" lon="4.2834">
        <ele>294</ele>
        <time>2018-06-03T06:19:49.000Z</time>
      </trkpt>
      <trkpt lat="44.5227" lon="4.28339">
        <ele>295</ele>
        <time>2018-06-03T06:19:50.000Z</time>
      </trkpt>
      <trkpt lat="44.52273" lon="4.28338">
        <ele>295</ele>
        <time>2018-06-03T06:19:51.000Z</time>
      </trkpt>
      <trkpt lat="44.52275" lon="4.28337">
        <ele>295</ele>
        <time>2018-06-03T06:19:52.000Z</time>
      </trkpt>
      <trkpt lat="44.52278" lon="4.28337">
        <ele>295</ele>
        <time>2018-06-03T06:19:53.000Z</time>
      </trkpt>
      <trkpt lat="44.5228" lon="4.28336">
        <ele>296</ele>
        <time>2018-06-03T06:19:54.000Z</time>
      </trkpt>
      <trkpt lat="44.52282" lon="4.28334">
        <ele>296</ele>
        <time>2018-06-03T06:19:55.000Z</time>
      </trkpt>
      <trkpt lat="44.52285" lon="4.28332">
        <ele>296</ele>
        <time>2018-06-03T06:19:56.000Z</time>
      </trkpt>
      <trkpt lat="44.52288" lon="4.28329">
        <ele>296</ele>
        <time>2018-06-03T06:19:57.000Z</time>
      </trkpt>
      <trkpt lat="44.5229" lon="4.28326">
        <ele>296</ele>
        <time>2018-06-03T06:19:58.000Z</time>
      </trkpt>
      <trkpt lat="44.52293" lon="4.28323">
        <ele>296</ele>
        <time>2018-06-03T06:19:59.000Z</time>
      </trkpt>
      <trkpt lat="44.52296" lon="4.28321">
        <ele>297</ele>
        <time>2018-06-03T06:20:00.000Z</time>
      </trkpt>
      <trkpt lat="44.523" lon="4.28318">
        <ele>297</ele>
        <time>2018-06-03T06:20:01.000Z</time>
      </trkpt>
      <trkpt lat="44.52303" lon="4.28316">
        <ele>297</ele>
        <time>2018-06-03T06:20:02.000Z</time>
      </trkpt>
      <trkpt lat="44.52306" lon="4.28314">
        <ele>297</ele>
        <time>2018-06-03T06:20:03.000Z</time>
      </trkpt>
      <trkpt lat="44.52309" lon="4.28311">
        <ele>297</ele>
        <time>2018-06-03T06:20:04.000Z</time>
      </trkpt>
      <trkpt lat="44.52312" lon="4.28308">
        <ele>298</ele>
        <time>2018-06-03T06:20:05.000Z</time>
      </trkpt>
      <trkpt lat="44.52315" lon="4.28305">
        <ele>298</ele>
        <time>2018-06-03T06:20:06.000Z</time>
      </trkpt>
      <trkpt lat="44.52319" lon="4.28301">
        <ele>298</ele>
        <time>2018-06-03T06:20:07.000Z</time>
      </trkpt>
      <trkpt lat="44.52322" lon="4.28298">
        <ele>297</ele>
        <time>2018-06-03T06:20:08.000Z</time>
      </trkpt>
      <trkpt lat="44.52326" lon="4.28295">
        <ele>297</ele>
        <time>2018-06-03T06:20:09.000Z</time>
      </trkpt>
      <trkpt lat="44.52331" lon="4.28292">
        <ele>297</ele>
        <time>2018-06-03T06:20:10.000Z</time>
      </trkpt>
      <trkpt lat="44.52335" lon="4.28289">
        <ele>299</ele>
        <time>2018-06-03T06:20:11.000Z</time>
      </trkpt>
      <trkpt lat="44.52339" lon="4.28287">
        <ele>299</ele>
        <time>2018-06-03T06:20:12.000Z</time>
      </trkpt>
      <trkpt lat="44.52344" lon="4.28283">
        <ele>299</ele>
        <time>2018-06-03T06:20:13.000Z</time>
      </trkpt>
      <trkpt lat="44.52348" lon="4.2828">
        <ele>298</ele>
        <time>2018-06-03T06:20:14.000Z</time>
      </trkpt>
      <trkpt lat="44.52352" lon="4.28278">
        <ele>298</ele>
        <time>2018-06-03T06:20:15.000Z</time>
      </trkpt>
      <trkpt lat="44.52356" lon="4.28275">
        <ele>298</ele>
        <time>2018-06-03T06:20:16.000Z</time>
      </trkpt>
      <trkpt lat="44.5236" lon="4.28272">
        <ele>298</ele>
        <time>2018-06-03T06:20:17.000Z</time>
      </trkpt>
      <trkpt lat="44.52364" lon="4.28269">
        <ele>298</ele>
        <time>2018-06-03T06:20:18.000Z</time>
      </trkpt>
      <trkpt lat="44.52368" lon="4.28265">
        <ele>298</ele>
        <time>2018-06-03T06:20:19.000Z</time>
      </trkpt>
      <trkpt lat="44.52372" lon="4.28262">
        <ele>298</ele>
        <time>2018-06-03T06:20:20.000Z</time>
      </trkpt>
      <trkpt lat="44.52376" lon="4.2826">
        <ele>298</ele>
        <time>2018-06-03T06:20:21.000Z</time>
      </trkpt>
      <trkpt lat="44.5238" lon="4.28257">
        <ele>298</ele>
        <time>2018-06-03T06:20:22.000Z</time>
      </trkpt>
      <trkpt lat="44.52385" lon="4.28256">
        <ele>298</ele>
        <time>2018-06-03T06:20:23.000Z</time>
      </trkpt>
      <trkpt lat="44.52389" lon="4.28255">
        <ele>298</ele>
        <time>2018-06-03T06:20:24.000Z</time>
      </trkpt>
      <trkpt lat="44.52393" lon="4.28255">
        <ele>298</ele>
        <time>2018-06-03T06:20:25.000Z</time>
      </trkpt>
      <trkpt lat="44.52397" lon="4.28255">
        <ele>298</ele>
        <time>2018-06-03T06:20:26.000Z</time>
      </trkpt>
      <trkpt lat="44.52402" lon="4.28254">
        <ele>298</ele>
        <time>2018-06-03T06:20:27.000Z</time>
      </trkpt>
      <trkpt lat="44.52406" lon="4.28252">
        <ele>298</ele>
        <time>2018-06-03T06:20:28.000Z</time>
      </trkpt>
      <trkpt lat="44.5241" lon="4.2825">
        <ele>297</ele>
        <time>2018-06-03T06:20:29.000Z</time>
      </trkpt>
      <trkpt lat="44.52413" lon="4.28248">
        <ele>297</ele>
        <time>2018-06-03T06:20:30.000Z</time>
      </trkpt>
      <trkpt lat="44.52417" lon="4.28245">
        <ele>297</ele>
        <time>2018-06-03T06:20:31.000Z</time>
      </trkpt>
      <trkpt lat="44.52419" lon="4.28242">
        <ele>298</ele>
        <time>2018-06-03T06:20:32.000Z</time>
      </trkpt>
      <trkpt lat="44.5242" lon="4.28237">
        <ele>298</ele>
        <time>2018-06-03T06:20:33.000Z</time>
      </trkpt>
      <trkpt lat="44.52419" lon="4.28232">
        <ele>298</ele>
        <time>2018-06-03T06:20:34.000Z</time>
      </trkpt>
      <trkpt lat="44.52417" lon="4.28226">
        <ele>298</ele>
        <time>2018-06-03T06:20:35.000Z</time>
      </trkpt>
      <trkpt lat="44.52415" lon="4.28219">
        <ele>297</ele>
        <time>2018-06-03T06:20:36.000Z</time>
      </trkpt>
      <trkpt lat="44.52413" lon="4.28211">
        <ele>297</ele>
        <time>2018-06-03T06:20:37.000Z</time>
      </trkpt>
      <trkpt lat="44.52411" lon="4.28203">
        <ele>296</ele>
        <time>2018-06-03T06:20:38.000Z</time>
      </trkpt>
      <trkpt lat="44.52409" lon="4.28195">
        <ele>296</ele>
        <time>2018-06-03T06:20:39.000Z</time>
      </trkpt>
      <trkpt lat="44.52406" lon="4.28186">
        <ele>296</ele>
        <time>2018-06-03T06:20:40.000Z</time>
      </trkpt>
      <trkpt lat="44.52404" lon="4.28177">
        <ele>296</ele>
        <time>2018-06-03T06:20:41.000Z</time>
      </trkpt>
      <trkpt lat="44.52401" lon="4.28169">
        <ele>296</ele>
        <time>2018-06-03T06:20:42.000Z</time>
      </trkpt>
      <trkpt lat="44.52399" lon="4.28161">
        <ele>297</ele>
        <time>2018-06-03T06:20:43.000Z</time>
      </trkpt>
      <trkpt lat="44.52397" lon="4.28155">
        <ele>298</ele>
        <time>2018-06-03T06:20:44.000Z</time>
      </trkpt>
      <trkpt lat="44.52394" lon="4.28152">
        <ele>298</ele>
        <time>2018-06-03T06:20:45.000Z</time>
      </trkpt>
      <trkpt lat="44.5239" lon="4.2815">
        <ele>298</ele>
        <time>2018-06-03T06:20:46.000Z</time>
      </trkpt>
      <trkpt lat="44.52385" lon="4.28151">
        <ele>298</ele>
        <time>2018-06-03T06:20:47.000Z</time>
      </trkpt>
      <trkpt lat="44.52381" lon="4.28153">
        <ele>298</ele>
        <time>2018-06-03T06:20:48.000Z</time>
      </trkpt>
      <trkpt lat="44.52377" lon="4.28157">
        <ele>298</ele>
        <time>2018-06-03T06:20:49.000Z</time>
      </trkpt>
      <trkpt lat="44.52374" lon="4.28161">
        <ele>298</ele>
        <time>2018-06-03T06:20:50.000Z</time>
      </trkpt>
      <trkpt lat="44.5237" lon="4.28165">
        <ele>298</ele>
        <time>2018-06-03T06:20:51.000Z</time>
      </trkpt>
      <trkpt lat="44.52366" lon="4.2817">
        <ele>297</ele>
        <time>2018-06-03T06:20:52.000Z</time>
      </trkpt>
      <trkpt lat="44.52362" lon="4.28173">
        <ele>297</ele>
        <time>2018-06-03T06:20:53.000Z</time>
      </trkpt>
      <trkpt lat="44.52357" lon="4.28176">
        <ele>297</ele>
        <time>2018-06-03T06:20:54.000Z</time>
      </trkpt>
      <trkpt lat="44.52352" lon="4.28179">
        <ele>297</ele>
        <time>2018-06-03T06:20:55.000Z</time>
      </trkpt>
      <trkpt lat="44.52347" lon="4.28181">
        <ele>297</ele>
        <time>2018-06-03T06:20:56.000Z</time>
      </trkpt>
      <trkpt lat="44.52342" lon="4.28183">
        <ele>297</ele>
        <time>2018-06-03T06:20:57.000Z</time>
      </trkpt>
      <trkpt lat="44.52337" lon="4.28185">
        <ele>297</ele>
        <time>2018-06-03T06:20:58.000Z</time>
      </trkpt>
      <trkpt lat="44.52331" lon="4.28187">
        <ele>297</ele>
        <time>2018-06-03T06:20:59.000Z</time>
      </trkpt>
      <trkpt lat="44.52326" lon="4.28189">
        <ele>297</ele>
        <time>2018-06-03T06:21:00.000Z</time>
      </trkpt>
      <trkpt lat="44.5232" lon="4.28192">
        <ele>297</ele>
        <time>2018-06-03T06:21:01.000Z</time>
      </trkpt>
      <trkpt lat="44.52315" lon="4.28195">
        <ele>297</ele>
        <time>2018-06-03T06:21:02.000Z</time>
      </trkpt>
      <trkpt lat="44.5231" lon="4.28198">
        <ele>297</ele>
        <time>2018-06-03T06:21:03.000Z</time>
      </trkpt>
      <trkpt lat="44.52305" lon="4.28201">
        <ele>297</ele>
        <time>2018-06-03T06:21:04.000Z</time>
      </trkpt>
      <trkpt lat="44.523" lon="4.28205">
        <ele>297</ele>
        <time>2018-06-03T06:21:05.000Z</time>
      </trkpt>
      <trkpt lat="44.52294" lon="4.28208">
        <ele>297</ele>
        <time>2018-06-03T06:21:06.000Z</time>
      </trkpt>
      <trkpt lat="44.52288" lon="4.28212">
        <ele>297</ele>
        <time>2018-06-03T06:21:07.000Z</time>
      </trkpt>
      <trkpt lat="44.52282" lon="4.28217">
        <ele>297</ele>
        <time>2018-06-03T06:21:08.000Z</time>
      </trkpt>
      <trkpt lat="44.52276" lon="4.28221">
        <ele>297</ele>
        <time>2018-06-03T06:21:09.000Z</time>
      </trkpt>
      <trkpt lat="44.5227" lon="4.28226">
        <ele>297</ele>
        <time>2018-06-03T06:21:10.000Z</time>
      </trkpt>
      <trkpt lat="44.52264" lon="4.28231">
        <ele>296</ele>
        <time>2018-06-03T06:21:11.000Z</time>
      </trkpt>
      <trkpt lat="44.52258" lon="4.28236">
        <ele>296</ele>
        <time>2018-06-03T06:21:12.000Z</time>
      </trkpt>
      <trkpt lat="44.52252" lon="4.28241">
        <ele>295</ele>
        <time>2018-06-03T06:21:13.000Z</time>
      </trkpt>
      <trkpt lat="44.52247" lon="4.28245">
        <ele>295</ele>
        <time>2018-06-03T06:21:14.000Z</time>
      </trkpt>
      <trkpt lat="44.52241" lon="4.28247">
        <ele>295</ele>
        <time>2018-06-03T06:21:15.000Z</time>
      </trkpt>
      <trkpt lat="44.52236" lon="4.28248">
        <ele>295</ele>
        <time>2018-06-03T06:21:16.000Z</time>
      </trkpt>
      <trkpt lat="44.52232" lon="4.28249">
        <ele>295</ele>
        <time>2018-06-03T06:21:17.000Z</time>
      </trkpt>
      <trkpt lat="44.52228" lon="4.28249">
        <ele>296</ele>
        <time>2018-06-03T06:21:18.000Z</time>
      </trkpt>
      <trkpt lat="44.52223" lon="4.28249">
        <ele>296</ele>
        <time>2018-06-03T06:21:19.000Z</time>
      </trkpt>
      <trkpt lat="44.52219" lon="4.28249">
        <ele>296</ele>
        <time>2018-06-03T06:21:20.000Z</time>
      </trkpt>
      <trkpt lat="44.52214" lon="4.28248">
        <ele>296</ele>
        <time>2018-06-03T06:21:21.000Z</time>
      </trkpt>
      <trkpt lat="44.5221" lon="4.28248">
        <ele>296</ele>
        <time>2018-06-03T06:21:22.000Z</time>
      </trkpt>
      <trkpt lat="44.52205" lon="4.28247">
        <ele>295</ele>
        <time>2018-06-03T06:21:23.000Z</time>
      </trkpt>
      <trkpt lat="44.522" lon="4.28245">
        <ele>295</ele>
        <time>2018-06-03T06:21:24.000Z</time>
      </trkpt>
      <trkpt lat="44.52195" lon="4.28241">
        <ele>295</ele>
        <time>2018-06-03T06:21:25.000Z</time>
      </trkpt>
      <trkpt lat="44.52192" lon="4.28238">
        <ele>295</ele>
        <time>2018-06-03T06:21:26.000Z</time>
      </trkpt>
      <trkpt lat="44.52188" lon="4.28235">
        <ele>295</ele>
        <time>2018-06-03T06:21:27.000Z</time>
      </trkpt>
      <trkpt lat="44.52185" lon="4.28233">
        <ele>295</ele>
        <time>2018-06-03T06:21:28.000Z</time>
      </trkpt>
      <trkpt lat="44.52182" lon="4.28231">
        <ele>295</ele>
        <time>2018-06-03T06:21:29.000Z</time>
      </trkpt>
      <trkpt lat="44.52178" lon="4.28228">
        <ele>295</ele>
        <time>2018-06-03T06:21:30.000Z</time>
      </trkpt>
      <trkpt lat="44.52175" lon="4.28225">
        <ele>295</ele>
        <time>2018-06-03T06:21:31.000Z</time>
      </trkpt>
      <trkpt lat="44.52172" lon="4.28221">
        <ele>296</ele>
        <time>2018-06-03T06:21:32.000Z</time>
      </trkpt>
      <trkpt lat="44.52169" lon="4.28216">
        <ele>296</ele>
        <time>2018-06-03T06:21:33.000Z</time>
      </trkpt>
      <trkpt lat="44.52166" lon="4.28212">
        <ele>295</ele>
        <time>2018-06-03T06:21:34.000Z</time>
      </trkpt>
      <trkpt lat="44.52164" lon="4.28207">
        <ele>296</ele>
        <time>2018-06-03T06:21:35.000Z</time>
      </trkpt>
      <trkpt lat="44.52161" lon="4.28202">
        <ele>296</ele>
        <time>2018-06-03T06:21:36.000Z</time>
      </trkpt>
      <trkpt lat="44.52159" lon="4.28197">
        <ele>296</ele>
        <time>2018-06-03T06:21:37.000Z</time>
      </trkpt>
      <trkpt lat="44.52156" lon="4.28192">
        <ele>297</ele>
        <time>2018-06-03T06:21:38.000Z</time>
      </trkpt>
      <trkpt lat="44.52154" lon="4.28188">
        <ele>297</ele>
        <time>2018-06-03T06:21:39.000Z</time>
      </trkpt>
      <trkpt lat="44.52152" lon="4.28184">
        <ele>297</ele>
        <time>2018-06-03T06:21:40.000Z</time>
      </trkpt>
      <trkpt lat="44.5215" lon="4.28181">
        <ele>297</ele>
        <time>2018-06-03T06:21:41.000Z</time>
      </trkpt>
      <trkpt lat="44.52148" lon="4.28178">
        <ele>298</ele>
        <time>2018-06-03T06:21:42.000Z</time>
      </trkpt>
      <trkpt lat="44.52146" lon="4.28174">
        <ele>298</ele>
        <time>2018-06-03T06:21:43.000Z</time>
      </trkpt>
      <trkpt lat="44.52144" lon="4.2817">
        <ele>297</ele>
        <time>2018-06-03T06:21:44.000Z</time>
      </trkpt>
      <trkpt lat="44.52141" lon="4.28167">
        <ele>297</ele>
        <time>2018-06-03T06:21:45.000Z</time>
      </trkpt>
      <trkpt lat="44.52139" lon="4.28164">
        <ele>301</ele>
        <time>2018-06-03T06:21:46.000Z</time>
      </trkpt>
      <trkpt lat="44.52137" lon="4.2816">
        <ele>301</ele>
        <time>2018-06-03T06:21:47.000Z</time>
      </trkpt>
      <trkpt lat="44.52135" lon="4.28157">
        <ele>301</ele>
        <time>2018-06-03T06:21:48.000Z</time>
      </trkpt>
      <trkpt lat="44.52132" lon="4.28154">
        <ele>301</ele>
        <time>2018-06-03T06:21:49.000Z</time>
      </trkpt>
      <trkpt lat="44.5213" lon="4.28151">
        <ele>301</ele>
        <time>2018-06-03T06:21:50.000Z</time>
      </trkpt>
      <trkpt lat="44.52127" lon="4.28149">
        <ele>301</ele>
        <time>2018-06-03T06:21:51.000Z</time>
      </trkpt>
      <trkpt lat="44.52125" lon="4.28146">
        <ele>301</ele>
        <time>2018-06-03T06:21:52.000Z</time>
      </trkpt>
      <trkpt lat="44.52124" lon="4.28142">
        <ele>301</ele>
        <time>2018-06-03T06:21:53.000Z</time>
      </trkpt>
      <trkpt lat="44.52124" lon="4.28138">
        <ele>302</ele>
        <time>2018-06-03T06:21:54.000Z</time>
      </trkpt>
      <trkpt lat="44.52124" lon="4.28135">
        <ele>302</ele>
        <time>2018-06-03T06:21:55.000Z</time>
      </trkpt>
      <trkpt lat="44.52125" lon="4.28132">
        <ele>302</ele>
        <time>2018-06-03T06:21:56.000Z</time>
      </trkpt>
      <trkpt lat="44.52127" lon="4.28129">
        <ele>302</ele>
        <time>2018-06-03T06:21:57.000Z</time>
      </trkpt>
      <trkpt lat="44.52129" lon="4.28126">
        <ele>302</ele>
        <time>2018-06-03T06:21:58.000Z</time>
      </trkpt>
      <trkpt lat="44.52131" lon="4.28123">
        <ele>302</ele>
        <time>2018-06-03T06:21:59.000Z</time>
      </trkpt>
      <trkpt lat="44.52132" lon="4.2812">
        <ele>302</ele>
        <time>2018-06-03T06:22:00.000Z</time>
      </trkpt>
      <trkpt lat="44.52133" lon="4.28117">
        <ele>303</ele>
        <time>2018-06-03T06:22:01.000Z</time>
      </trkpt>
      <trkpt lat="44.52134" lon="4.28114">
        <ele>303</ele>
        <time>2018-06-03T06:22:02.000Z</time>
      </trkpt>
      <trkpt lat="44.52135" lon="4.28112">
        <ele>303</ele>
        <time>2018-06-03T06:22:03.000Z</time>
      </trkpt>
      <trkpt lat="44.52137" lon="4.28109">
        <ele>303</ele>
        <time>2018-06-03T06:22:04.000Z</time>
      </trkpt>
      <trkpt lat="44.52138" lon="4.28107">
        <ele>303</ele>
        <time>2018-06-03T06:22:05.000Z</time>
      </trkpt>
      <trkpt lat="44.52139" lon="4.28104">
        <ele>303</ele>
        <time>2018-06-03T06:22:06.000Z</time>
      </trkpt>
      <trkpt lat="44.5214" lon="4.28101">
        <ele>304</ele>
        <time>2018-06-03T06:22:07.000Z</time>
      </trkpt>
      <trkpt lat="44.52142" lon="4.28099">
        <ele>304</ele>
        <time>2018-06-03T06:22:08.000Z</time>
      </trkpt>
      <trkpt lat="44.52143" lon="4.28097">
        <ele>304</ele>
        <time>2018-06-03T06:22:09.000Z</time>
      </trkpt>
      <trkpt lat="44.52145" lon="4.28094">
        <ele>304</ele>
        <time>2018-06-03T06:22:10.000Z</time>
      </trkpt>
      <trkpt lat="44.52146" lon="4.28091">
        <ele>304</ele>
        <time>2018-06-03T06:22:11.000Z</time>
      </trkpt>
      <trkpt lat="44.52148" lon="4.28089">
        <ele>305</ele>
        <time>2018-06-03T06:22:12.000Z</time>
      </trkpt>
      <trkpt lat="44.5215" lon="4.28086">
        <ele>305</ele>
        <time>2018-06-03T06:22:13.000Z</time>
      </trkpt>
      <trkpt lat="44.52151" lon="4.28083">
        <ele>306</ele>
        <time>2018-06-03T06:22:14.000Z</time>
      </trkpt>
      <trkpt lat="44.52153" lon="4.28081">
        <ele>306</ele>
        <time>2018-06-03T06:22:15.000Z</time>
      </trkpt>
      <trkpt lat="44.52154" lon="4.28079">
        <ele>306</ele>
        <time>2018-06-03T06:22:16.000Z</time>
      </trkpt>
      <trkpt lat="44.52156" lon="4.28077">
        <ele>306</ele>
        <time>2018-06-03T06:22:17.000Z</time>
      </trkpt>
      <trkpt lat="44.52158" lon="4.28075">
        <ele>306</ele>
        <time>2018-06-03T06:22:18.000Z</time>
      </trkpt>
      <trkpt lat="44.5216" lon="4.28073">
        <ele>306</ele>
        <time>2018-06-03T06:22:19.000Z</time>
      </trkpt>
      <trkpt lat="44.52162" lon="4.28069">
        <ele>306</ele>
        <time>2018-06-03T06:22:20.000Z</time>
      </trkpt>
      <trkpt lat="44.52164" lon="4.28066">
        <ele>306</ele>
        <time>2018-06-03T06:22:21.000Z</time>
      </trkpt>
      <trkpt lat="44.52166" lon="4.28063">
        <ele>306</ele>
        <time>2018-06-03T06:22:22.000Z</time>
      </trkpt>
      <trkpt lat="44.52168" lon="4.28059">
        <ele>307</ele>
        <time>2018-06-03T06:22:23.000Z</time>
      </trkpt>
      <trkpt lat="44.5217" lon="4.28056">
        <ele>307</ele>
        <time>2018-06-03T06:22:24.000Z</time>
      </trkpt>
      <trkpt lat="44.52172" lon="4.28053">
        <ele>307</ele>
        <time>2018-06-03T06:22:25.000Z</time>
      </trkpt>
      <trkpt lat="44.52175" lon="4.2805">
        <ele>307</ele>
        <time>2018-06-03T06:22:26.000Z</time>
      </trkpt>
      <trkpt lat="44.52177" lon="4.28048">
        <ele>307</ele>
        <time>2018-06-03T06:22:27.000Z</time>
      </trkpt>
      <trkpt lat="44.5218" lon="4.28046">
        <ele>307</ele>
        <time>2018-06-03T06:22:28.000Z</time>
      </trkpt>
      <trkpt lat="44.52182" lon="4.28043">
        <ele>307</ele>
        <time>2018-06-03T06:22:29.000Z</time>
      </trkpt>
      <trkpt lat="44.52184" lon="4.2804">
        <ele>307</ele>
        <time>2018-06-03T06:22:30.000Z</time>
      </trkpt>
      <trkpt lat="44.52186" lon="4.28037">
        <ele>307</ele>
        <time>2018-06-03T06:22:31.000Z</time>
      </trkpt>
      <trkpt lat="44.52189" lon="4.28034">
        <ele>307</ele>
        <time>2018-06-03T06:22:32.000Z</time>
      </trkpt>
      <trkpt lat="44.52191" lon="4.2803">
        <ele>307</ele>
        <time>2018-06-03T06:22:33.000Z</time>
      </trkpt>
      <trkpt lat="44.52193" lon="4.28027">
        <ele>307</ele>
        <time>2018-06-03T06:22:34.000Z</time>
      </trkpt>
      <trkpt lat="44.52194" lon="4.28024">
        <ele>307</ele>
        <time>2018-06-03T06:22:35.000Z</time>
      </trkpt>
      <trkpt lat="44.52195" lon="4.28021">
        <ele>307</ele>
        <time>2018-06-03T06:22:36.000Z</time>
      </trkpt>
      <trkpt lat="44.52197" lon="4.28018">
        <ele>307</ele>
        <time>2018-06-03T06:22:37.000Z</time>
      </trkpt>
      <trkpt lat="44.52198" lon="4.28015">
        <ele>307</ele>
        <time>2018-06-03T06:22:38.000Z</time>
      </trkpt>
      <trkpt lat="44.522" lon="4.28012">
        <ele>307</ele>
        <time>2018-06-03T06:22:39.000Z</time>
      </trkpt>
      <trkpt lat="44.52202" lon="4.2801">
        <ele>307</ele>
        <time>2018-06-03T06:22:40.000Z</time>
      </trkpt>
      <trkpt lat="44.52204" lon="4.28007">
        <ele>307</ele>
        <time>2018-06-03T06:22:41.000Z</time>
      </trkpt>
      <trkpt lat="44.52207" lon="4.28004">
        <ele>307</ele>
        <time>2018-06-03T06:22:42.000Z</time>
      </trkpt>
      <trkpt lat="44.52209" lon="4.28001">
        <ele>307</ele>
        <time>2018-06-03T06:22:43.000Z</time>
      </trkpt>
      <trkpt lat="44.52211" lon="4.27997">
        <ele>306</ele>
        <time>2018-06-03T06:22:44.000Z</time>
      </trkpt>
      <trkpt lat="44.52214" lon="4.27993">
        <ele>306</ele>
        <time>2018-06-03T06:22:45.000Z</time>
      </trkpt>
      <trkpt lat="44.52216" lon="4.2799">
        <ele>306</ele>
        <time>2018-06-03T06:22:46.000Z</time>
      </trkpt>
      <trkpt lat="44.52219" lon="4.27986">
        <ele>306</ele>
        <time>2018-06-03T06:22:47.000Z</time>
      </trkpt>
      <trkpt lat="44.52222" lon="4.27982">
        <ele>306</ele>
        <time>2018-06-03T06:22:48.000Z</time>
      </trkpt>
      <trkpt lat="44.52225" lon="4.27979">
        <ele>306</ele>
        <time>2018-06-03T06:22:49.000Z</time>
      </trkpt>
      <trkpt lat="44.52228" lon="4.27976">
        <ele>306</ele>
        <time>2018-06-03T06:22:50.000Z</time>
      </trkpt>
      <trkpt lat="44.52231" lon="4.27973">
        <ele>306</ele>
        <time>2018-06-03T06:22:51.000Z</time>
      </trkpt>
      <trkpt lat="44.52234" lon="4.27971">
        <ele>306</ele>
        <time>2018-06-03T06:22:52.000Z</time>
      </trkpt>
      <trkpt lat="44.52237" lon="4.27969">
        <ele>306</ele>
        <time>2018-06-03T06:22:53.000Z</time>
      </trkpt>
      <trkpt lat="44.52241" lon="4.27967">
        <ele>306</ele>
        <time>2018-06-03T06:22:54.000Z</time>
      </trkpt>
      <trkpt lat="44.52244" lon="4.27965">
        <ele>306</ele>
        <time>2018-06-03T06:22:55.000Z</time>
      </trkpt>
      <trkpt lat="44.52247" lon="4.27964">
        <ele>306</ele>
        <time>2018-06-03T06:22:56.000Z</time>
      </trkpt>
      <trkpt lat="44.5225" lon="4.27963">
        <ele>308</ele>
        <time>2018-06-03T06:22:57.000Z</time>
      </trkpt>
      <trkpt lat="44.52254" lon="4.27962">
        <ele>308</ele>
        <time>2018-06-03T06:22:58.000Z</time>
      </trkpt>
      <trkpt lat="44.52257" lon="4.27961">
        <ele>309</ele>
        <time>2018-06-03T06:22:59.000Z</time>
      </trkpt>
      <trkpt lat="44.5226" lon="4.2796">
        <ele>309</ele>
        <time>2018-06-03T06:23:00.000Z</time>
      </trkpt>
      <trkpt lat="44.52264" lon="4.27959">
        <ele>309</ele>
        <time>2018-06-03T06:23:01.000Z</time>
      </trkpt>
      <trkpt lat="44.52267" lon="4.27958">
        <ele>309</ele>
        <time>2018-06-03T06:23:02.000Z</time>
      </trkpt>
      <trkpt lat="44.52271" lon="4.27957">
        <ele>309</ele>
        <time>2018-06-03T06:23:03.000Z</time>
      </trkpt>
      <trkpt lat="44.52274" lon="4.27955">
        <ele>309</ele>
        <time>2018-06-03T06:23:04.000Z</time>
      </trkpt>
      <trkpt lat="44.52278" lon="4.27954">
        <ele>309</ele>
        <time>2018-06-03T06:23:05.000Z</time>
      </trkpt>
      <trkpt lat="44.52281" lon="4.27954">
        <ele>309</ele>
        <time>2018-06-03T06:23:06.000Z</time>
      </trkpt>
      <trkpt lat="44.52285" lon="4.27953">
        <ele>309</ele>
        <time>2018-06-03T06:23:07.000Z</time>
      </trkpt>
      <trkpt lat="44.52289" lon="4.27953">
        <ele>309</ele>
        <time>2018-06-03T06:23:08.000Z</time>
      </trkpt>
      <trkpt lat="44.52292" lon="4.27953">
        <ele>310</ele>
        <time>2018-06-03T06:23:09.000Z</time>
      </trkpt>
      <trkpt lat="44.52296" lon="4.27953">
        <ele>310</ele>
        <time>2018-06-03T06:23:10.000Z</time>
      </trkpt>
      <trkpt lat="44.523" lon="4.27952">
        <ele>310</ele>
        <time>2018-06-03T06:23:11.000Z</time>
      </trkpt>
      <trkpt lat="44.52304" lon="4.27952">
        <ele>310</ele>
        <time>2018-06-03T06:23:12.000Z</time>
      </trkpt>
      <trkpt lat="44.52308" lon="4.27952">
        <ele>310</ele>
        <time>2018-06-03T06:23:13.000Z</time>
      </trkpt>
      <trkpt lat="44.52312" lon="4.27952">
        <ele>310</ele>
        <time>2018-06-03T06:23:14.000Z</time>
      </trkpt>
      <trkpt lat="44.52317" lon="4.27952">
        <ele>311</ele>
        <time>2018-06-03T06:23:15.000Z</time>
      </trkpt>
      <trkpt lat="44.52321" lon="4.27952">
        <ele>311</ele>
        <time>2018-06-03T06:23:16.000Z</time>
      </trkpt>
      <trkpt lat="44.52325" lon="4.27952">
        <ele>311</ele>
        <time>2018-06-03T06:23:17.000Z</time>
      </trkpt>
      <trkpt lat="44.52329" lon="4.27951">
        <ele>311</ele>
        <time>2018-06-03T06:23:18.000Z</time>
      </trkpt>
      <trkpt lat="44.52334" lon="4.2795">
        <ele>312</ele>
        <time>2018-06-03T06:23:19.000Z</time>
      </trkpt>
      <trkpt lat="44.52338" lon="4.2795">
        <ele>312</ele>
        <time>2018-06-03T06:23:20.000Z</time>
      </trkpt>
      <trkpt lat="44.52342" lon="4.2795">
        <ele>312</ele>
        <time>2018-06-03T06:23:21.000Z</time>
      </trkpt>
      <trkpt lat="44.52346" lon="4.27949">
        <ele>312</ele>
        <time>2018-06-03T06:23:22.000Z</time>
      </trkpt>
      <trkpt lat="44.5235" lon="4.27948">
        <ele>312</ele>
        <time>2018-06-03T06:23:23.000Z</time>
      </trkpt>
      <trkpt lat="44.52354" lon="4.27948">
        <ele>312</ele>
        <time>2018-06-03T06:23:24.000Z</time>
      </trkpt>
      <trkpt lat="44.52358" lon="4.27947">
        <ele>312</ele>
        <time>2018-06-03T06:23:25.000Z</time>
      </trkpt>
      <trkpt lat="44.52362" lon="4.27947">
        <ele>312</ele>
        <time>2018-06-03T06:23:26.000Z</time>
      </trkpt>
      <trkpt lat="44.52367" lon="4.27946">
        <ele>312</ele>
        <time>2018-06-03T06:23:27.000Z</time>
      </trkpt>
      <trkpt lat="44.52371" lon="4.27946">
        <ele>312</ele>
        <time>2018-06-03T06:23:28.000Z</time>
      </trkpt>
      <trkpt lat="44.52375" lon="4.27945">
        <ele>312</ele>
        <time>2018-06-03T06:23:29.000Z</time>
      </trkpt>
      <trkpt lat="44.52379" lon="4.27944">
        <ele>312</ele>
        <time>2018-06-03T06:23:30.000Z</time>
      </trkpt>
      <trkpt lat="44.52384" lon="4.27944">
        <ele>312</ele>
        <time>2018-06-03T06:23:31.000Z</time>
      </trkpt>
      <trkpt lat="44.52388" lon="4.27944">
        <ele>312</ele>
        <time>2018-06-03T06:23:32.000Z</time>
      </trkpt>
      <trkpt lat="44.52393" lon="4.27944">
        <ele>312</ele>
        <time>2018-06-03T06:23:33.000Z</time>
      </trkpt>
      <trkpt lat="44.52399" lon="4.27942">
        <ele>312</ele>
        <time>2018-06-03T06:23:34.000Z</time>
      </trkpt>
      <trkpt lat="44.52404" lon="4.27939">
        <ele>312</ele>
        <time>2018-06-03T06:23:35.000Z</time>
      </trkpt>
      <trkpt lat="44.52408" lon="4.27935">
        <ele>312</ele>
        <time>2018-06-03T06:23:36.000Z</time>
      </trkpt>
      <trkpt lat="44.52412" lon="4.2793">
        <ele>312</ele>
        <time>2018-06-03T06:23:37.000Z</time>
      </trkpt>
      <trkpt lat="44.52417" lon="4.27926">
        <ele>312</ele>
        <time>2018-06-03T06:23:38.000Z</time>
      </trkpt>
      <trkpt lat="44.52421" lon="4.27921">
        <ele>312</ele>
        <time>2018-06-03T06:23:39.000Z</time>
      </trkpt>
      <trkpt lat="44.52425" lon="4.27918">
        <ele>312</ele>
        <time>2018-06-03T06:23:40.000Z</time>
      </trkpt>
      <trkpt lat="44.52428" lon="4.27914">
        <ele>314</ele>
        <time>2018-06-03T06:23:41.000Z</time>
      </trkpt>
      <trkpt lat="44.52429" lon="4.27909">
        <ele>314</ele>
        <time>2018-06-03T06:23:42.000Z</time>
      </trkpt>
      <trkpt lat="44.52429" lon="4.27905">
        <ele>314</ele>
        <time>2018-06-03T06:23:43.000Z</time>
      </trkpt>
      <trkpt lat="44.52427" lon="4.279">
        <ele>314</ele>
        <time>2018-06-03T06:23:44.000Z</time>
      </trkpt>
      <trkpt lat="44.52425" lon="4.27896">
        <ele>314</ele>
        <time>2018-06-03T06:23:45.000Z</time>
      </trkpt>
      <trkpt lat="44.52423" lon="4.27892">
        <ele>314</ele>
        <time>2018-06-03T06:23:46.000Z</time>
      </trkpt>
      <trkpt lat="44.5242" lon="4.27887">
        <ele>314</ele>
        <time>2018-06-03T06:23:47.000Z</time>
      </trkpt>
      <trkpt lat="44.52419" lon="4.27883">
        <ele>314</ele>
        <time>2018-06-03T06:23:48.000Z</time>
      </trkpt>
      <trkpt lat="44.52417" lon="4.27878">
        <ele>314</ele>
        <time>2018-06-03T06:23:49.000Z</time>
      </trkpt>
      <trkpt lat="44.52414" lon="4.27873">
        <ele>314</ele>
        <time>2018-06-03T06:23:50.000Z</time>
      </trkpt>
      <trkpt lat="44.52412" lon="4.27868">
        <ele>314</ele>
        <time>2018-06-03T06:23:51.000Z</time>
      </trkpt>
      <trkpt lat="44.5241" lon="4.27864">
        <ele>314</ele>
        <time>2018-06-03T06:23:52.000Z</time>
      </trkpt>
      <trkpt lat="44.52409" lon="4.27858">
        <ele>314</ele>
        <time>2018-06-03T06:23:53.000Z</time>
      </trkpt>
      <trkpt lat="44.52407" lon="4.27853">
        <ele>314</ele>
        <time>2018-06-03T06:23:54.000Z</time>
      </trkpt>
      <trkpt lat="44.52405" lon="4.27848">
        <ele>314</ele>
        <time>2018-06-03T06:23:55.000Z</time>
      </trkpt>
      <trkpt lat="44.52403" lon="4.27843">
        <ele>314</ele>
        <time>2018-06-03T06:23:56.000Z</time>
      </trkpt>
      <trkpt lat="44.52403" lon="4.27837">
        <ele>314</ele>
        <time>2018-06-03T06:23:57.000Z</time>
      </trkpt>
      <trkpt lat="44.52403" lon="4.27832">
        <ele>314</ele>
        <time>2018-06-03T06:23:58.000Z</time>
      </trkpt>
      <trkpt lat="44.52404" lon="4.27828">
        <ele>314</ele>
        <time>2018-06-03T06:23:59.000Z</time>
      </trkpt>
      <trkpt lat="44.52407" lon="4.27824">
        <ele>314</ele>
        <time>2018-06-03T06:24:00.000Z</time>
      </trkpt>
      <trkpt lat="44.52409" lon="4.27821">
        <ele>314</ele>
        <time>2018-06-03T06:24:01.000Z</time>
      </trkpt>
      <trkpt lat="44.52412" lon="4.27817">
        <ele>314</ele>
        <time>2018-06-03T06:24:02.000Z</time>
      </trkpt>
      <trkpt lat="44.52414" lon="4.27814">
        <ele>314</ele>
        <time>2018-06-03T06:24:03.000Z</time>
      </trkpt>
      <trkpt lat="44.52417" lon="4.2781">
        <ele>316</ele>
        <time>2018-06-03T06:24:04.000Z</time>
      </trkpt>
      <trkpt lat="44.5242" lon="4.27807">
        <ele>316</ele>
        <time>2018-06-03T06:24:05.000Z</time>
      </trkpt>
      <trkpt lat="44.52423" lon="4.27804">
        <ele>316</ele>
        <time>2018-06-03T06:24:06.000Z</time>
      </trkpt>
      <trkpt lat="44.52426" lon="4.278">
        <ele>316</ele>
        <time>2018-06-03T06:24:07.000Z</time>
      </trkpt>
      <trkpt lat="44.52429" lon="4.27797">
        <ele>316</ele>
        <time>2018-06-03T06:24:08.000Z</time>
      </trkpt>
      <trkpt lat="44.52432" lon="4.27794">
        <ele>316</ele>
        <time>2018-06-03T06:24:09.000Z</time>
      </trkpt>
      <trkpt lat="44.52434" lon="4.2779">
        <ele>316</ele>
        <time>2018-06-03T06:24:10.000Z</time>
      </trkpt>
      <trkpt lat="44.52437" lon="4.27785">
        <ele>316</ele>
        <time>2018-06-03T06:24:11.000Z</time>
      </trkpt>
      <trkpt lat="44.52438" lon="4.2778">
        <ele>316</ele>
        <time>2018-06-03T06:24:12.000Z</time>
      </trkpt>
      <trkpt lat="44.52439" lon="4.27775">
        <ele>316</ele>
        <time>2018-06-03T06:24:13.000Z</time>
      </trkpt>
      <trkpt lat="44.5244" lon="4.27769">
        <ele>316</ele>
        <time>2018-06-03T06:24:14.000Z</time>
      </trkpt>
      <trkpt lat="44.5244" lon="4.27762">
        <ele>316</ele>
        <time>2018-06-03T06:24:15.000Z</time>
      </trkpt>
      <trkpt lat="44.5244" lon="4.27756">
        <ele>316</ele>
        <time>2018-06-03T06:24:16.000Z</time>
      </trkpt>
      <trkpt lat="44.5244" lon="4.2775">
        <ele>316</ele>
        <time>2018-06-03T06:24:17.000Z</time>
      </trkpt>
      <trkpt lat="44.52438" lon="4.27745">
        <ele>316</ele>
        <time>2018-06-03T06:24:18.000Z</time>
      </trkpt>
      <trkpt lat="44.52436" lon="4.2774">
        <ele>316</ele>
        <time>2018-06-03T06:24:19.000Z</time>
      </trkpt>
      <trkpt lat="44.52434" lon="4.27735">
        <ele>316</ele>
        <time>2018-06-03T06:24:20.000Z</time>
      </trkpt>
      <trkpt lat="44.52433" lon="4.2773">
        <ele>316</ele>
        <time>2018-06-03T06:24:21.000Z</time>
      </trkpt>
      <trkpt lat="44.52431" lon="4.27724">
        <ele>316</ele>
        <time>2018-06-03T06:24:22.000Z</time>
      </trkpt>
      <trkpt lat="44.5243" lon="4.27718">
        <ele>316</ele>
        <time>2018-06-03T06:24:23.000Z</time>
      </trkpt>
      <trkpt lat="44.52428" lon="4.27712">
        <ele>316</ele>
        <time>2018-06-03T06:24:24.000Z</time>
      </trkpt>
      <trkpt lat="44.52425" lon="4.27706">
        <ele>316</ele>
        <time>2018-06-03T06:24:25.000Z</time>
      </trkpt>
      <trkpt lat="44.52422" lon="4.277">
        <ele>316</ele>
        <time>2018-06-03T06:24:26.000Z</time>
      </trkpt>
      <trkpt lat="44.5242" lon="4.27693">
        <ele>315</ele>
        <time>2018-06-03T06:24:27.000Z</time>
      </trkpt>
      <trkpt lat="44.52419" lon="4.27686">
        <ele>315</ele>
        <time>2018-06-03T06:24:28.000Z</time>
      </trkpt>
      <trkpt lat="44.52417" lon="4.27679">
        <ele>312</ele>
        <time>2018-06-03T06:24:29.000Z</time>
      </trkpt>
      <trkpt lat="44.52414" lon="4.27672">
        <ele>313</ele>
        <time>2018-06-03T06:24:30.000Z</time>
      </trkpt>
      <trkpt lat="44.52411" lon="4.27664">
        <ele>312</ele>
        <time>2018-06-03T06:24:31.000Z</time>
      </trkpt>
      <trkpt lat="44.52408" lon="4.27656">
        <ele>310</ele>
        <time>2018-06-03T06:24:32.000Z</time>
      </trkpt>
      <trkpt lat="44.52405" lon="4.2765">
        <ele>310</ele>
        <time>2018-06-03T06:24:33.000Z</time>
      </trkpt>
      <trkpt lat="44.52403" lon="4.27645">
        <ele>309</ele>
        <time>2018-06-03T06:24:34.000Z</time>
      </trkpt>
      <trkpt lat="44.52401" lon="4.27639">
        <ele>309</ele>
        <time>2018-06-03T06:24:35.000Z</time>
      </trkpt>
      <trkpt lat="44.52398" lon="4.27632">
        <ele>308</ele>
        <time>2018-06-03T06:24:36.000Z</time>
      </trkpt>
      <trkpt lat="44.52396" lon="4.27624">
        <ele>308</ele>
        <time>2018-06-03T06:24:37.000Z</time>
      </trkpt>
      <trkpt lat="44.52393" lon="4.27615">
        <ele>307</ele>
        <time>2018-06-03T06:24:38.000Z</time>
      </trkpt>
      <trkpt lat="44.52391" lon="4.27607">
        <ele>307</ele>
        <time>2018-06-03T06:24:39.000Z</time>
      </trkpt>
      <trkpt lat="44.52387" lon="4.276">
        <ele>307</ele>
        <time>2018-06-03T06:24:40.000Z</time>
      </trkpt>
      <trkpt lat="44.52386" lon="4.27595">
        <ele>307</ele>
        <time>2018-06-03T06:24:41.000Z</time>
      </trkpt>
      <trkpt lat="44.52386" lon="4.27591">
        <ele>307</ele>
        <time>2018-06-03T06:24:42.000Z</time>
      </trkpt>
      <trkpt lat="44.52389" lon="4.27588">
        <ele>307</ele>
        <time>2018-06-03T06:24:43.000Z</time>
      </trkpt>
      <trkpt lat="44.52392" lon="4.27586">
        <ele>307</ele>
        <time>2018-06-03T06:24:44.000Z</time>
      </trkpt>
      <trkpt lat="44.52396" lon="4.27585">
        <ele>307</ele>
        <time>2018-06-03T06:24:45.000Z</time>
      </trkpt>
      <trkpt lat="44.52398" lon="4.27584">
        <ele>307</ele>
        <time>2018-06-03T06:24:46.000Z</time>
      </trkpt>
      <trkpt lat="44.52401" lon="4.27582">
        <ele>305</ele>
        <time>2018-06-03T06:24:47.000Z</time>
      </trkpt>
      <trkpt lat="44.52403" lon="4.27579">
        <ele>306</ele>
        <time>2018-06-03T06:24:48.000Z</time>
      </trkpt>
      <trkpt lat="44.52404" lon="4.27576">
        <ele>306</ele>
        <time>2018-06-03T06:24:49.000Z</time>
      </trkpt>
      <trkpt lat="44.52404" lon="4.27572">
        <ele>305</ele>
        <time>2018-06-03T06:24:50.000Z</time>
      </trkpt>
      <trkpt lat="44.52404" lon="4.27567">
        <ele>305</ele>
        <time>2018-06-03T06:24:51.000Z</time>
      </trkpt>
      <trkpt lat="44.52404" lon="4.27563">
        <ele>305</ele>
        <time>2018-06-03T06:24:52.000Z</time>
      </trkpt>
      <trkpt lat="44.52403" lon="4.27558">
        <ele>304</ele>
        <time>2018-06-03T06:24:53.000Z</time>
      </trkpt>
      <trkpt lat="44.52401" lon="4.27554">
        <ele>304</ele>
        <time>2018-06-03T06:24:54.000Z</time>
      </trkpt>
      <trkpt lat="44.52399" lon="4.27552">
        <ele>304</ele>
        <time>2018-06-03T06:24:55.000Z</time>
      </trkpt>
      <trkpt lat="44.52396" lon="4.27551">
        <ele>304</ele>
        <time>2018-06-03T06:24:56.000Z</time>
      </trkpt>
      <trkpt lat="44.52394" lon="4.27549">
        <ele>304</ele>
        <time>2018-06-03T06:24:57.000Z</time>
      </trkpt>
      <trkpt lat="44.52392" lon="4.27546">
        <ele>303</ele>
        <time>2018-06-03T06:24:58.000Z</time>
      </trkpt>
      <trkpt lat="44.52392" lon="4.27543">
        <ele>303</ele>
        <time>2018-06-03T06:24:59.000Z</time>
      </trkpt>
      <trkpt lat="44.52392" lon="4.27541">
        <ele>303</ele>
        <time>2018-06-03T06:25:00.000Z</time>
      </trkpt>
      <trkpt lat="44.52392" lon="4.27539">
        <ele>303</ele>
        <time>2018-06-03T06:25:01.000Z</time>
      </trkpt>
      <trkpt lat="44.52392" lon="4.27536">
        <ele>303</ele>
        <time>2018-06-03T06:25:02.000Z</time>
      </trkpt>
      <trkpt lat="44.52391" lon="4.27534">
        <ele>303</ele>
        <time>2018-06-03T06:25:03.000Z</time>
      </trkpt>
      <trkpt lat="44.52391" lon="4.27531">
        <ele>303</ele>
        <time>2018-06-03T06:25:04.000Z</time>
      </trkpt>
      <trkpt lat="44.5239" lon="4.27528">
        <ele>303</ele>
        <time>2018-06-03T06:25:05.000Z</time>
      </trkpt>
      <trkpt lat="44.5239" lon="4.27525">
        <ele>303</ele>
        <time>2018-06-03T06:25:06.000Z</time>
      </trkpt>
      <trkpt lat="44.52389" lon="4.27523">
        <ele>303</ele>
        <time>2018-06-03T06:25:07.000Z</time>
      </trkpt>
      <trkpt lat="44.52388" lon="4.2752">
        <ele>303</ele>
        <time>2018-06-03T06:25:08.000Z</time>
      </trkpt>
      <trkpt lat="44.52388" lon="4.27518">
        <ele>303</ele>
        <time>2018-06-03T06:25:09.000Z</time>
      </trkpt>
      <trkpt lat="44.52388" lon="4.27515">
        <ele>303</ele>
        <time>2018-06-03T06:25:10.000Z</time>
      </trkpt>
      <trkpt lat="44.52388" lon="4.27512">
        <ele>303</ele>
        <time>2018-06-03T06:25:11.000Z</time>
      </trkpt>
      <trkpt lat="44.52387" lon="4.27509">
        <ele>303</ele>
        <time>2018-06-03T06:25:12.000Z</time>
      </trkpt>
      <trkpt lat="44.52387" lon="4.27507">
        <ele>303</ele>
        <time>2018-06-03T06:25:13.000Z</time>
      </trkpt>
      <trkpt lat="44.52387" lon="4.27504">
        <ele>303</ele>
        <time>2018-06-03T06:25:14.000Z</time>
      </trkpt>
      <trkpt lat="44.52386" lon="4.27501">
        <ele>303</ele>
        <time>2018-06-03T06:25:15.000Z</time>
      </trkpt>
      <trkpt lat="44.52387" lon="4.27498">
        <ele>303</ele>
        <time>2018-06-03T06:25:16.000Z</time>
      </trkpt>
      <trkpt lat="44.52388" lon="4.27495">
        <ele>303</ele>
        <time>2018-06-03T06:25:17.000Z</time>
      </trkpt>
      <trkpt lat="44.52389" lon="4.27492">
        <ele>303</ele>
        <time>2018-06-03T06:25:18.000Z</time>
      </trkpt>
      <trkpt lat="44.5239" lon="4.2749">
        <ele>303</ele>
        <time>2018-06-03T06:25:19.000Z</time>
      </trkpt>
      <trkpt lat="44.52392" lon="4.27488">
        <ele>303</ele>
        <time>2018-06-03T06:25:20.000Z</time>
      </trkpt>
      <trkpt lat="44.52393" lon="4.27485">
        <ele>303</ele>
        <time>2018-06-03T06:25:21.000Z</time>
      </trkpt>
      <trkpt lat="44.52395" lon="4.27484">
        <ele>303</ele>
        <time>2018-06-03T06:25:22.000Z</time>
      </trkpt>
      <trkpt lat="44.52397" lon="4.27482">
        <ele>303</ele>
        <time>2018-06-03T06:25:23.000Z</time>
      </trkpt>
      <trkpt lat="44.52398" lon="4.2748">
        <ele>303</ele>
        <time>2018-06-03T06:25:24.000Z</time>
      </trkpt>
      <trkpt lat="44.524" lon="4.27478">
        <ele>303</ele>
        <time>2018-06-03T06:25:25.000Z</time>
      </trkpt>
      <trkpt lat="44.52402" lon="4.27476">
        <ele>303</ele>
        <time>2018-06-03T06:25:26.000Z</time>
      </trkpt>
      <trkpt lat="44.52402" lon="4.27473">
        <ele>303</ele>
        <time>2018-06-03T06:25:27.000Z</time>
      </trkpt>
      <trkpt lat="44.52403" lon="4.27471">
        <ele>303</ele>
        <time>2018-06-03T06:25:28.000Z</time>
      </trkpt>
      <trkpt lat="44.52403" lon="4.27469">
        <ele>303</ele>
        <time>2018-06-03T06:25:29.000Z</time>
      </trkpt>
      <trkpt lat="44.52404" lon="4.27467">
        <ele>303</ele>
        <time>2018-06-03T06:25:30.000Z</time>
      </trkpt>
      <trkpt lat="44.52404" lon="4.27465">
        <ele>303</ele>
        <time>2018-06-03T06:25:31.000Z</time>
      </trkpt>
      <trkpt lat="44.52404" lon="4.27463">
        <ele>303</ele>
        <time>2018-06-03T06:25:32.000Z</time>
      </trkpt>
      <trkpt lat="44.52405" lon="4.27461">
        <ele>303</ele>
        <time>2018-06-03T06:25:33.000Z</time>
      </trkpt>
      <trkpt lat="44.52405" lon="4.27458">
        <ele>303</ele>
        <time>2018-06-03T06:25:34.000Z</time>
      </trkpt>
      <trkpt lat="44.52405" lon="4.27456">
        <ele>303</ele>
        <time>2018-06-03T06:25:35.000Z</time>
      </trkpt>
      <trkpt lat="44.52405" lon="4.27453">
        <ele>303</ele>
        <time>2018-06-03T06:25:36.000Z</time>
      </trkpt>
      <trkpt lat="44.52405" lon="4.27449">
        <ele>303</ele>
        <time>2018-06-03T06:25:37.000Z</time>
      </trkpt>
      <trkpt lat="44.52405" lon="4.27446">
        <ele>304</ele>
        <time>2018-06-03T06:25:38.000Z</time>
      </trkpt>
      <trkpt lat="44.52405" lon="4.27443">
        <ele>304</ele>
        <time>2018-06-03T06:25:39.000Z</time>
      </trkpt>
      <trkpt lat="44.52404" lon="4.27439">
        <ele>304</ele>
        <time>2018-06-03T06:25:40.000Z</time>
      </trkpt>
      <trkpt lat="44.52403" lon="4.27437">
        <ele>304</ele>
        <time>2018-06-03T06:25:41.000Z</time>
      </trkpt>
      <trkpt lat="44.52403" lon="4.27437">
        <ele>304</ele>
        <time>2018-06-03T06:25:42.000Z</time>
      </trkpt>
      <trkpt lat="44.52402" lon="4.27437">
        <ele>304</ele>
        <time>2018-06-03T06:25:43.000Z</time>
      </trkpt>
      <trkpt lat="44.524" lon="4.27439">
        <ele>304</ele>
        <time>2018-06-03T06:25:44.000Z</time>
      </trkpt>
      <trkpt lat="44.52398" lon="4.2744">
        <ele>303</ele>
        <time>2018-06-03T06:25:45.000Z</time>
      </trkpt>
      <trkpt lat="44.52395" lon="4.27441">
        <ele>303</ele>
        <time>2018-06-03T06:25:46.000Z</time>
      </trkpt>
      <trkpt lat="44.52391" lon="4.27442">
        <ele>303</ele>
        <time>2018-06-03T06:25:47.000Z</time>
      </trkpt>
      <trkpt lat="44.52387" lon="4.27443">
        <ele>303</ele>
        <time>2018-06-03T06:25:48.000Z</time>
      </trkpt>
      <trkpt lat="44.52383" lon="4.27444">
        <ele>302</ele>
        <time>2018-06-03T06:25:49.000Z</time>
      </trkpt>
      <trkpt lat="44.52378" lon="4.27444">
        <ele>302</ele>
        <time>2018-06-03T06:25:50.000Z</time>
      </trkpt>
      <trkpt lat="44.52375" lon="4.27444">
        <ele>302</ele>
        <time>2018-06-03T06:25:51.000Z</time>
      </trkpt>
      <trkpt lat="44.52373" lon="4.27447">
        <ele>302</ele>
        <time>2018-06-03T06:25:52.000Z</time>
      </trkpt>
      <trkpt lat="44.5237" lon="4.27449">
        <ele>302</ele>
        <time>2018-06-03T06:25:53.000Z</time>
      </trkpt>
      <trkpt lat="44.52367" lon="4.27452">
        <ele>301</ele>
        <time>2018-06-03T06:25:54.000Z</time>
      </trkpt>
      <trkpt lat="44.52363" lon="4.27453">
        <ele>301</ele>
        <time>2018-06-03T06:25:55.000Z</time>
      </trkpt>
      <trkpt lat="44.52359" lon="4.27454">
        <ele>301</ele>
        <time>2018-06-03T06:25:56.000Z</time>
      </trkpt>
      <trkpt lat="44.52353" lon="4.27454">
        <ele>301</ele>
        <time>2018-06-03T06:25:57.000Z</time>
      </trkpt>
      <trkpt lat="44.52347" lon="4.27454">
        <ele>300</ele>
        <time>2018-06-03T06:25:58.000Z</time>
      </trkpt>
      <trkpt lat="44.52342" lon="4.27455">
        <ele>300</ele>
        <time>2018-06-03T06:25:59.000Z</time>
      </trkpt>
      <trkpt lat="44.52336" lon="4.27456">
        <ele>300</ele>
        <time>2018-06-03T06:26:00.000Z</time>
      </trkpt>
      <trkpt lat="44.52332" lon="4.27458">
        <ele>298</ele>
        <time>2018-06-03T06:26:01.000Z</time>
      </trkpt>
      <trkpt lat="44.52328" lon="4.27459">
        <ele>298</ele>
        <time>2018-06-03T06:26:02.000Z</time>
      </trkpt>
      <trkpt lat="44.52324" lon="4.27458">
        <ele>298</ele>
        <time>2018-06-03T06:26:03.000Z</time>
      </trkpt>
      <trkpt lat="44.52322" lon="4.27456">
        <ele>298</ele>
        <time>2018-06-03T06:26:04.000Z</time>
      </trkpt>
      <trkpt lat="44.5232" lon="4.27453">
        <ele>298</ele>
        <time>2018-06-03T06:26:05.000Z</time>
      </trkpt>
      <trkpt lat="44.52318" lon="4.27449">
        <ele>298</ele>
        <time>2018-06-03T06:26:06.000Z</time>
      </trkpt>
      <trkpt lat="44.52316" lon="4.27445">
        <ele>298</ele>
        <time>2018-06-03T06:26:07.000Z</time>
      </trkpt>
      <trkpt lat="44.52313" lon="4.27443">
        <ele>298</ele>
        <time>2018-06-03T06:26:08.000Z</time>
      </trkpt>
      <trkpt lat="44.52311" lon="4.27441">
        <ele>298</ele>
        <time>2018-06-03T06:26:09.000Z</time>
      </trkpt>
      <trkpt lat="44.52308" lon="4.27442">
        <ele>298</ele>
        <time>2018-06-03T06:26:10.000Z</time>
      </trkpt>
      <trkpt lat="44.52305" lon="4.27444">
        <ele>298</ele>
        <time>2018-06-03T06:26:11.000Z</time>
      </trkpt>
      <trkpt lat="44.52302" lon="4.27446">
        <ele>298</ele>
        <time>2018-06-03T06:26:12.000Z</time>
      </trkpt>
      <trkpt lat="44.523" lon="4.27448">
        <ele>298</ele>
        <time>2018-06-03T06:26:13.000Z</time>
      </trkpt>
      <trkpt lat="44.52298" lon="4.27449">
        <ele>298</ele>
        <time>2018-06-03T06:26:14.000Z</time>
      </trkpt>
      <trkpt lat="44.52296" lon="4.2745">
        <ele>298</ele>
        <time>2018-06-03T06:26:15.000Z</time>
      </trkpt>
      <trkpt lat="44.52294" lon="4.27451">
        <ele>298</ele>
        <time>2018-06-03T06:26:16.000Z</time>
      </trkpt>
      <trkpt lat="44.52293" lon="4.27453">
        <ele>298</ele>
        <time>2018-06-03T06:26:17.000Z</time>
      </trkpt>
      <trkpt lat="44.52291" lon="4.27456">
        <ele>298</ele>
        <time>2018-06-03T06:26:18.000Z</time>
      </trkpt>
      <trkpt lat="44.52289" lon="4.27458">
        <ele>298</ele>
        <time>2018-06-03T06:26:19.000Z</time>
      </trkpt>
      <trkpt lat="44.52287" lon="4.2746">
        <ele>298</ele>
        <time>2018-06-03T06:26:20.000Z</time>
      </trkpt>
      <trkpt lat="44.52285" lon="4.27461">
        <ele>298</ele>
        <time>2018-06-03T06:26:21.000Z</time>
      </trkpt>
      <trkpt lat="44.52283" lon="4.27461">
        <ele>298</ele>
        <time>2018-06-03T06:26:22.000Z</time>
      </trkpt>
      <trkpt lat="44.52281" lon="4.27462">
        <ele>298</ele>
        <time>2018-06-03T06:26:23.000Z</time>
      </trkpt>
      <trkpt lat="44.52279" lon="4.27463">
        <ele>298</ele>
        <time>2018-06-03T06:26:24.000Z</time>
      </trkpt>
      <trkpt lat="44.52277" lon="4.27463">
        <ele>298</ele>
        <time>2018-06-03T06:26:25.000Z</time>
      </trkpt>
      <trkpt lat="44.52275" lon="4.27463">
        <ele>298</ele>
        <time>2018-06-03T06:26:26.000Z</time>
      </trkpt>
      <trkpt lat="44.52273" lon="4.27463">
        <ele>298</ele>
        <time>2018-06-03T06:26:27.000Z</time>
      </trkpt>
      <trkpt lat="44.52271" lon="4.27463">
        <ele>298</ele>
        <time>2018-06-03T06:26:28.000Z</time>
      </trkpt>
      <trkpt lat="44.5227" lon="4.27462">
        <ele>298</ele>
        <time>2018-06-03T06:26:29.000Z</time>
      </trkpt>
      <trkpt lat="44.52269" lon="4.27461">
        <ele>298</ele>
        <time>2018-06-03T06:26:30.000Z</time>
      </trkpt>
      <trkpt lat="44.52269" lon="4.2746">
        <ele>298</ele>
        <time>2018-06-03T06:26:31.000Z</time>
      </trkpt>
      <trkpt lat="44.52269" lon="4.27459">
        <ele>299</ele>
        <time>2018-06-03T06:26:32.000Z</time>
      </trkpt>
      <trkpt lat="44.52268" lon="4.27458">
        <ele>299</ele>
        <time>2018-06-03T06:26:33.000Z</time>
      </trkpt>
      <trkpt lat="44.52267" lon="4.27456">
        <ele>299</ele>
        <time>2018-06-03T06:26:34.000Z</time>
      </trkpt>
      <trkpt lat="44.52266" lon="4.27454">
        <ele>299</ele>
        <time>2018-06-03T06:26:35.000Z</time>
      </trkpt>
      <trkpt lat="44.52265" lon="4.27452">
        <ele>299</ele>
        <time>2018-06-03T06:26:36.000Z</time>
      </trkpt>
      <trkpt lat="44.52264" lon="4.27451">
        <ele>299</ele>
        <time>2018-06-03T06:26:37.000Z</time>
      </trkpt>
      <trkpt lat="44.52263" lon="4.27449">
        <ele>299</ele>
        <time>2018-06-03T06:26:38.000Z</time>
      </trkpt>
      <trkpt lat="44.52261" lon="4.27447">
        <ele>299</ele>
        <time>2018-06-03T06:26:39.000Z</time>
      </trkpt>
      <trkpt lat="44.52259" lon="4.27446">
        <ele>299</ele>
        <time>2018-06-03T06:26:40.000Z</time>
      </trkpt>
      <trkpt lat="44.52258" lon="4.27446">
        <ele>299</ele>
        <time>2018-06-03T06:26:41.000Z</time>
      </trkpt>
      <trkpt lat="44.52257" lon="4.27445">
        <ele>300</ele>
        <time>2018-06-03T06:26:42.000Z</time>
      </trkpt>
      <trkpt lat="44.52255" lon="4.27444">
        <ele>300</ele>
        <time>2018-06-03T06:26:43.000Z</time>
      </trkpt>
      <trkpt lat="44.52253" lon="4.27442">
        <ele>300</ele>
        <time>2018-06-03T06:26:44.000Z</time>
      </trkpt>
      <trkpt lat="44.52251" lon="4.27439">
        <ele>300</ele>
        <time>2018-06-03T06:26:45.000Z</time>
      </trkpt>
      <trkpt lat="44.52249" lon="4.27436">
        <ele>301</ele>
        <time>2018-06-03T06:26:46.000Z</time>
      </trkpt>
      <trkpt lat="44.52247" lon="4.27433">
        <ele>301</ele>
        <time>2018-06-03T06:26:47.000Z</time>
      </trkpt>
      <trkpt lat="44.52246" lon="4.27431">
        <ele>301</ele>
        <time>2018-06-03T06:26:48.000Z</time>
      </trkpt>
      <trkpt lat="44.52244" lon="4.27429">
        <ele>301</ele>
        <time>2018-06-03T06:26:49.000Z</time>
      </trkpt>
      <trkpt lat="44.52242" lon="4.27427">
        <ele>301</ele>
        <time>2018-06-03T06:26:50.000Z</time>
      </trkpt>
      <trkpt lat="44.5224" lon="4.27425">
        <ele>301</ele>
        <time>2018-06-03T06:26:51.000Z</time>
      </trkpt>
      <trkpt lat="44.52238" lon="4.27422">
        <ele>301</ele>
        <time>2018-06-03T06:26:52.000Z</time>
      </trkpt>
      <trkpt lat="44.52235" lon="4.27418">
        <ele>301</ele>
        <time>2018-06-03T06:26:53.000Z</time>
      </trkpt>
      <trkpt lat="44.52233" lon="4.27417">
        <ele>303</ele>
        <time>2018-06-03T06:26:54.000Z</time>
      </trkpt>
      <trkpt lat="44.5223" lon="4.27416">
        <ele>303</ele>
        <time>2018-06-03T06:26:55.000Z</time>
      </trkpt>
      <trkpt lat="44.52227" lon="4.27415">
        <ele>303</ele>
        <time>2018-06-03T06:26:56.000Z</time>
      </trkpt>
      <trkpt lat="44.52225" lon="4.27415">
        <ele>303</ele>
        <time>2018-06-03T06:26:57.000Z</time>
      </trkpt>
      <trkpt lat="44.52222" lon="4.27416">
        <ele>303</ele>
        <time>2018-06-03T06:26:58.000Z</time>
      </trkpt>
      <trkpt lat="44.5222" lon="4.27417">
        <ele>301</ele>
        <time>2018-06-03T06:26:59.000Z</time>
      </trkpt>
      <trkpt lat="44.52217" lon="4.27417">
        <ele>301</ele>
        <time>2018-06-03T06:27:00.000Z</time>
      </trkpt>
      <trkpt lat="44.52215" lon="4.27415">
        <ele>303</ele>
        <time>2018-06-03T06:27:01.000Z</time>
      </trkpt>
      <trkpt lat="44.52213" lon="4.27411">
        <ele>303</ele>
        <time>2018-06-03T06:27:02.000Z</time>
      </trkpt>
      <trkpt lat="44.5221" lon="4.27408">
        <ele>303</ele>
        <time>2018-06-03T06:27:03.000Z</time>
      </trkpt>
      <trkpt lat="44.52207" lon="4.27404">
        <ele>303</ele>
        <time>2018-06-03T06:27:04.000Z</time>
      </trkpt>
      <trkpt lat="44.52204" lon="4.27401">
        <ele>303</ele>
        <time>2018-06-03T06:27:05.000Z</time>
      </trkpt>
      <trkpt lat="44.52202" lon="4.27398">
        <ele>303</ele>
        <time>2018-06-03T06:27:06.000Z</time>
      </trkpt>
      <trkpt lat="44.522" lon="4.27396">
        <ele>303</ele>
        <time>2018-06-03T06:27:07.000Z</time>
      </trkpt>
      <trkpt lat="44.52198" lon="4.27394">
        <ele>303</ele>
        <time>2018-06-03T06:27:08.000Z</time>
      </trkpt>
      <trkpt lat="44.52196" lon="4.27392">
        <ele>303</ele>
        <time>2018-06-03T06:27:09.000Z</time>
      </trkpt>
      <trkpt lat="44.52193" lon="4.2739">
        <ele>303</ele>
        <time>2018-06-03T06:27:10.000Z</time>
      </trkpt>
      <trkpt lat="44.5219" lon="4.27388">
        <ele>303</ele>
        <time>2018-06-03T06:27:11.000Z</time>
      </trkpt>
      <trkpt lat="44.52187" lon="4.27385">
        <ele>302</ele>
        <time>2018-06-03T06:27:12.000Z</time>
      </trkpt>
      <trkpt lat="44.52183" lon="4.27382">
        <ele>302</ele>
        <time>2018-06-03T06:27:13.000Z</time>
      </trkpt>
      <trkpt lat="44.52179" lon="4.27379">
        <ele>302</ele>
        <time>2018-06-03T06:27:14.000Z</time>
      </trkpt>
      <trkpt lat="44.52175" lon="4.27375">
        <ele>302</ele>
        <time>2018-06-03T06:27:15.000Z</time>
      </trkpt>
      <trkpt lat="44.52172" lon="4.27372">
        <ele>302</ele>
        <time>2018-06-03T06:27:16.000Z</time>
      </trkpt>
      <trkpt lat="44.5217" lon="4.2737">
        <ele>302</ele>
        <time>2018-06-03T06:27:17.000Z</time>
      </trkpt>
      <trkpt lat="44.52167" lon="4.27368">
        <ele>302</ele>
        <time>2018-06-03T06:27:18.000Z</time>
      </trkpt>
      <trkpt lat="44.52164" lon="4.27365">
        <ele>303</ele>
        <time>2018-06-03T06:27:19.000Z</time>
      </trkpt>
      <trkpt lat="44.52162" lon="4.27362">
        <ele>302</ele>
        <time>2018-06-03T06:27:20.000Z</time>
      </trkpt>
      <trkpt lat="44.52158" lon="4.27359">
        <ele>302</ele>
        <time>2018-06-03T06:27:21.000Z</time>
      </trkpt>
      <trkpt lat="44.52156" lon="4.27357">
        <ele>302</ele>
        <time>2018-06-03T06:27:22.000Z</time>
      </trkpt>
      <trkpt lat="44.52153" lon="4.27355">
        <ele>302</ele>
        <time>2018-06-03T06:27:23.000Z</time>
      </trkpt>
      <trkpt lat="44.52151" lon="4.27353">
        <ele>302</ele>
        <time>2018-06-03T06:27:24.000Z</time>
      </trkpt>
      <trkpt lat="44.52149" lon="4.27351">
        <ele>302</ele>
        <time>2018-06-03T06:27:25.000Z</time>
      </trkpt>
      <trkpt lat="44.52146" lon="4.27348">
        <ele>302</ele>
        <time>2018-06-03T06:27:26.000Z</time>
      </trkpt>
      <trkpt lat="44.52142" lon="4.27345">
        <ele>302</ele>
        <time>2018-06-03T06:27:27.000Z</time>
      </trkpt>
      <trkpt lat="44.52138" lon="4.27343">
        <ele>302</ele>
        <time>2018-06-03T06:27:28.000Z</time>
      </trkpt>
      <trkpt lat="44.52134" lon="4.27339">
        <ele>302</ele>
        <time>2018-06-03T06:27:29.000Z</time>
      </trkpt>
      <trkpt lat="44.5213" lon="4.27336">
        <ele>303</ele>
        <time>2018-06-03T06:27:30.000Z</time>
      </trkpt>
      <trkpt lat="44.52127" lon="4.27334">
        <ele>303</ele>
        <time>2018-06-03T06:27:31.000Z</time>
      </trkpt>
      <trkpt lat="44.52123" lon="4.27332">
        <ele>302</ele>
        <time>2018-06-03T06:27:32.000Z</time>
      </trkpt>
      <trkpt lat="44.52119" lon="4.27329">
        <ele>302</ele>
        <time>2018-06-03T06:27:33.000Z</time>
      </trkpt>
      <trkpt lat="44.52116" lon="4.27326">
        <ele>302</ele>
        <time>2018-06-03T06:27:34.000Z</time>
      </trkpt>
      <trkpt lat="44.52113" lon="4.27323">
        <ele>302</ele>
        <time>2018-06-03T06:27:35.000Z</time>
      </trkpt>
      <trkpt lat="44.52111" lon="4.27318">
        <ele>302</ele>
        <time>2018-06-03T06:27:36.000Z</time>
      </trkpt>
      <trkpt lat="44.52111" lon="4.27314">
        <ele>302</ele>
        <time>2018-06-03T06:27:37.000Z</time>
      </trkpt>
      <trkpt lat="44.52112" lon="4.27311">
        <ele>302</ele>
        <time>2018-06-03T06:27:38.000Z</time>
      </trkpt>
      <trkpt lat="44.52113" lon="4.27306">
        <ele>302</ele>
        <time>2018-06-03T06:27:39.000Z</time>
      </trkpt>
      <trkpt lat="44.52115" lon="4.27301">
        <ele>302</ele>
        <time>2018-06-03T06:27:40.000Z</time>
      </trkpt>
      <trkpt lat="44.52117" lon="4.27297">
        <ele>302</ele>
        <time>2018-06-03T06:27:41.000Z</time>
      </trkpt>
      <trkpt lat="44.52119" lon="4.27293">
        <ele>302</ele>
        <time>2018-06-03T06:27:42.000Z</time>
      </trkpt>
      <trkpt lat="44.52122" lon="4.27289">
        <ele>302</ele>
        <time>2018-06-03T06:27:43.000Z</time>
      </trkpt>
      <trkpt lat="44.52124" lon="4.27285">
        <ele>302</ele>
        <time>2018-06-03T06:27:44.000Z</time>
      </trkpt>
      <trkpt lat="44.52126" lon="4.27281">
        <ele>302</ele>
        <time>2018-06-03T06:27:45.000Z</time>
      </trkpt>
      <trkpt lat="44.52128" lon="4.27278">
        <ele>302</ele>
        <time>2018-06-03T06:27:46.000Z</time>
      </trkpt>
      <trkpt lat="44.5213" lon="4.27276">
        <ele>302</ele>
        <time>2018-06-03T06:27:47.000Z</time>
      </trkpt>
      <trkpt lat="44.52132" lon="4.27273">
        <ele>302</ele>
        <time>2018-06-03T06:27:48.000Z</time>
      </trkpt>
      <trkpt lat="44.52134" lon="4.27269">
        <ele>303</ele>
        <time>2018-06-03T06:27:49.000Z</time>
      </trkpt>
      <trkpt lat="44.52137" lon="4.27266">
        <ele>303</ele>
        <time>2018-06-03T06:27:50.000Z</time>
      </trkpt>
      <trkpt lat="44.52139" lon="4.27263">
        <ele>303</ele>
        <time>2018-06-03T06:27:51.000Z</time>
      </trkpt>
      <trkpt lat="44.52141" lon="4.27261">
        <ele>303</ele>
        <time>2018-06-03T06:27:52.000Z</time>
      </trkpt>
      <trkpt lat="44.52144" lon="4.27258">
        <ele>303</ele>
        <time>2018-06-03T06:27:53.000Z</time>
      </trkpt>
      <trkpt lat="44.52146" lon="4.27255">
        <ele>303</ele>
        <time>2018-06-03T06:27:54.000Z</time>
      </trkpt>
      <trkpt lat="44.5215" lon="4.27254">
        <ele>303</ele>
        <time>2018-06-03T06:27:55.000Z</time>
      </trkpt>
      <trkpt lat="44.52152" lon="4.27253">
        <ele>303</ele>
        <time>2018-06-03T06:27:56.000Z</time>
      </trkpt>
      <trkpt lat="44.52155" lon="4.27252">
        <ele>303</ele>
        <time>2018-06-03T06:27:57.000Z</time>
      </trkpt>
      <trkpt lat="44.52158" lon="4.27251">
        <ele>303</ele>
        <time>2018-06-03T06:27:58.000Z</time>
      </trkpt>
      <trkpt lat="44.52162" lon="4.2725">
        <ele>304</ele>
        <time>2018-06-03T06:27:59.000Z</time>
      </trkpt>
      <trkpt lat="44.52166" lon="4.27249">
        <ele>304</ele>
        <time>2018-06-03T06:28:00.000Z</time>
      </trkpt>
      <trkpt lat="44.5217" lon="4.27248">
        <ele>305</ele>
        <time>2018-06-03T06:28:01.000Z</time>
      </trkpt>
      <trkpt lat="44.52174" lon="4.27247">
        <ele>305</ele>
        <time>2018-06-03T06:28:02.000Z</time>
      </trkpt>
      <trkpt lat="44.52178" lon="4.27245">
        <ele>306</ele>
        <time>2018-06-03T06:28:03.000Z</time>
      </trkpt>
      <trkpt lat="44.52182" lon="4.27242">
        <ele>306</ele>
        <time>2018-06-03T06:28:04.000Z</time>
      </trkpt>
      <trkpt lat="44.52186" lon="4.27239">
        <ele>307</ele>
        <time>2018-06-03T06:28:05.000Z</time>
      </trkpt>
      <trkpt lat="44.5219" lon="4.27237">
        <ele>307</ele>
        <time>2018-06-03T06:28:06.000Z</time>
      </trkpt>
      <trkpt lat="44.52194" lon="4.27234">
        <ele>307</ele>
        <time>2018-06-03T06:28:07.000Z</time>
      </trkpt>
      <trkpt lat="44.52197" lon="4.27231">
        <ele>307</ele>
        <time>2018-06-03T06:28:08.000Z</time>
      </trkpt>
      <trkpt lat="44.522" lon="4.27228">
        <ele>308</ele>
        <time>2018-06-03T06:28:09.000Z</time>
      </trkpt>
      <trkpt lat="44.52203" lon="4.27225">
        <ele>308</ele>
        <time>2018-06-03T06:28:10.000Z</time>
      </trkpt>
      <trkpt lat="44.52206" lon="4.27222">
        <ele>308</ele>
        <time>2018-06-03T06:28:11.000Z</time>
      </trkpt>
      <trkpt lat="44.52209" lon="4.27219">
        <ele>308</ele>
        <time>2018-06-03T06:28:12.000Z</time>
      </trkpt>
      <trkpt lat="44.52212" lon="4.27217">
        <ele>308</ele>
        <time>2018-06-03T06:28:13.000Z</time>
      </trkpt>
      <trkpt lat="44.52215" lon="4.27214">
        <ele>309</ele>
        <time>2018-06-03T06:28:14.000Z</time>
      </trkpt>
      <trkpt lat="44.52217" lon="4.27211">
        <ele>309</ele>
        <time>2018-06-03T06:28:15.000Z</time>
      </trkpt>
      <trkpt lat="44.52219" lon="4.27209">
        <ele>309</ele>
        <time>2018-06-03T06:28:16.000Z</time>
      </trkpt>
      <trkpt lat="44.52221" lon="4.27206">
        <ele>309</ele>
        <time>2018-06-03T06:28:17.000Z</time>
      </trkpt>
      <trkpt lat="44.52223" lon="4.27203">
        <ele>309</ele>
        <time>2018-06-03T06:28:18.000Z</time>
      </trkpt>
      <trkpt lat="44.52225" lon="4.272">
        <ele>310</ele>
        <time>2018-06-03T06:28:19.000Z</time>
      </trkpt>
      <trkpt lat="44.52227" lon="4.27198">
        <ele>310</ele>
        <time>2018-06-03T06:28:20.000Z</time>
      </trkpt>
      <trkpt lat="44.52229" lon="4.27195">
        <ele>310</ele>
        <time>2018-06-03T06:28:21.000Z</time>
      </trkpt>
      <trkpt lat="44.5223" lon="4.27193">
        <ele>310</ele>
        <time>2018-06-03T06:28:22.000Z</time>
      </trkpt>
      <trkpt lat="44.52231" lon="4.2719">
        <ele>311</ele>
        <time>2018-06-03T06:28:23.000Z</time>
      </trkpt>
      <trkpt lat="44.52233" lon="4.27188">
        <ele>311</ele>
        <time>2018-06-03T06:28:24.000Z</time>
      </trkpt>
      <trkpt lat="44.52234" lon="4.27185">
        <ele>311</ele>
        <time>2018-06-03T06:28:25.000Z</time>
      </trkpt>
      <trkpt lat="44.52235" lon="4.27183">
        <ele>312</ele>
        <time>2018-06-03T06:28:26.000Z</time>
      </trkpt>
      <trkpt lat="44.52235" lon="4.2718">
        <ele>312</ele>
        <time>2018-06-03T06:28:27.000Z</time>
      </trkpt>
      <trkpt lat="44.52236" lon="4.27177">
        <ele>312</ele>
        <time>2018-06-03T06:28:28.000Z</time>
      </trkpt>
      <trkpt lat="44.52237" lon="4.27175">
        <ele>313</ele>
        <time>2018-06-03T06:28:29.000Z</time>
      </trkpt>
      <trkpt lat="44.52238" lon="4.27172">
        <ele>313</ele>
        <time>2018-06-03T06:28:30.000Z</time>
      </trkpt>
      <trkpt lat="44.52239" lon="4.2717">
        <ele>313</ele>
        <time>2018-06-03T06:28:31.000Z</time>
      </trkpt>
      <trkpt lat="44.52241" lon="4.27168">
        <ele>314</ele>
        <time>2018-06-03T06:28:32.000Z</time>
      </trkpt>
      <trkpt lat="44.52242" lon="4.27167">
        <ele>316</ele>
        <time>2018-06-03T06:28:33.000Z</time>
      </trkpt>
      <trkpt lat="44.52243" lon="4.27165">
        <ele>316</ele>
        <time>2018-06-03T06:28:34.000Z</time>
      </trkpt>
      <trkpt lat="44.52244" lon="4.27163">
        <ele>316</ele>
        <time>2018-06-03T06:28:35.000Z</time>
      </trkpt>
      <trkpt lat="44.52246" lon="4.27161">
        <ele>316</ele>
        <time>2018-06-03T06:28:36.000Z</time>
      </trkpt>
      <trkpt lat="44.52247" lon="4.2716">
        <ele>316</ele>
        <time>2018-06-03T06:28:37.000Z</time>
      </trkpt>
      <trkpt lat="44.52248" lon="4.27159">
        <ele>316</ele>
        <time>2018-06-03T06:28:38.000Z</time>
      </trkpt>
      <trkpt lat="44.5225" lon="4.27158">
        <ele>316</ele>
        <time>2018-06-03T06:28:39.000Z</time>
      </trkpt>
      <trkpt lat="44.52252" lon="4.27157">
        <ele>319</ele>
        <time>2018-06-03T06:28:40.000Z</time>
      </trkpt>
      <trkpt lat="44.52253" lon="4.27156">
        <ele>319</ele>
        <time>2018-06-03T06:28:41.000Z</time>
      </trkpt>
      <trkpt lat="44.52255" lon="4.27155">
        <ele>320</ele>
        <time>2018-06-03T06:28:42.000Z</time>
      </trkpt>
      <trkpt lat="44.52256" lon="4.27153">
        <ele>320</ele>
        <time>2018-06-03T06:28:43.000Z</time>
      </trkpt>
      <trkpt lat="44.52258" lon="4.27151">
        <ele>320</ele>
        <time>2018-06-03T06:28:44.000Z</time>
      </trkpt>
      <trkpt lat="44.52259" lon="4.2715">
        <ele>321</ele>
        <time>2018-06-03T06:28:45.000Z</time>
      </trkpt>
      <trkpt lat="44.5226" lon="4.27148">
        <ele>321</ele>
        <time>2018-06-03T06:28:46.000Z</time>
      </trkpt>
      <trkpt lat="44.52262" lon="4.27146">
        <ele>321</ele>
        <time>2018-06-03T06:28:47.000Z</time>
      </trkpt>
      <trkpt lat="44.52263" lon="4.27145">
        <ele>322</ele>
        <time>2018-06-03T06:28:48.000Z</time>
      </trkpt>
      <trkpt lat="44.52265" lon="4.27144">
        <ele>322</ele>
        <time>2018-06-03T06:28:49.000Z</time>
      </trkpt>
      <trkpt lat="44.52266" lon="4.27143">
        <ele>322</ele>
        <time>2018-06-03T06:28:50.000Z</time>
      </trkpt>
      <trkpt lat="44.52268" lon="4.27141">
        <ele>323</ele>
        <time>2018-06-03T06:28:51.000Z</time>
      </trkpt>
      <trkpt lat="44.5227" lon="4.27139">
        <ele>323</ele>
        <time>2018-06-03T06:28:52.000Z</time>
      </trkpt>
      <trkpt lat="44.52271" lon="4.27137">
        <ele>323</ele>
        <time>2018-06-03T06:28:53.000Z</time>
      </trkpt>
      <trkpt lat="44.52272" lon="4.27135">
        <ele>323</ele>
        <time>2018-06-03T06:28:54.000Z</time>
      </trkpt>
      <trkpt lat="44.52273" lon="4.27132">
        <ele>324</ele>
        <time>2018-06-03T06:28:55.000Z</time>
      </trkpt>
      <trkpt lat="44.52275" lon="4.2713">
        <ele>324</ele>
        <time>2018-06-03T06:28:56.000Z</time>
      </trkpt>
      <trkpt lat="44.52276" lon="4.27127">
        <ele>324</ele>
        <time>2018-06-03T06:28:57.000Z</time>
      </trkpt>
      <trkpt lat="44.52277" lon="4.27125">
        <ele>324</ele>
        <time>2018-06-03T06:28:58.000Z</time>
      </trkpt>
      <trkpt lat="44.52279" lon="4.27123">
        <ele>324</ele>
        <time>2018-06-03T06:28:59.000Z</time>
      </trkpt>
      <trkpt lat="44.5228" lon="4.2712">
        <ele>325</ele>
        <time>2018-06-03T06:29:00.000Z</time>
      </trkpt>
      <trkpt lat="44.52281" lon="4.27118">
        <ele>325</ele>
        <time>2018-06-03T06:29:01.000Z</time>
      </trkpt>
      <trkpt lat="44.52282" lon="4.27115">
        <ele>325</ele>
        <time>2018-06-03T06:29:02.000Z</time>
      </trkpt>
      <trkpt lat="44.52282" lon="4.27112">
        <ele>325</ele>
        <time>2018-06-03T06:29:03.000Z</time>
      </trkpt>
      <trkpt lat="44.52283" lon="4.27109">
        <ele>325</ele>
        <time>2018-06-03T06:29:04.000Z</time>
      </trkpt>
      <trkpt lat="44.52284" lon="4.27106">
        <ele>325</ele>
        <time>2018-06-03T06:29:05.000Z</time>
      </trkpt>
      <trkpt lat="44.52284" lon="4.27103">
        <ele>326</ele>
        <time>2018-06-03T06:29:06.000Z</time>
      </trkpt>
      <trkpt lat="44.52285" lon="4.271">
        <ele>326</ele>
        <time>2018-06-03T06:29:07.000Z</time>
      </trkpt>
      <trkpt lat="44.52286" lon="4.27097">
        <ele>326</ele>
        <time>2018-06-03T06:29:08.000Z</time>
      </trkpt>
      <trkpt lat="44.52286" lon="4.27094">
        <ele>326</ele>
        <time>2018-06-03T06:29:09.000Z</time>
      </trkpt>
      <trkpt lat="44.52287" lon="4.27091">
        <ele>326</ele>
        <time>2018-06-03T06:29:10.000Z</time>
      </trkpt>
      <trkpt lat="44.52286" lon="4.27087">
        <ele>326</ele>
        <time>2018-06-03T06:29:11.000Z</time>
      </trkpt>
      <trkpt lat="44.52286" lon="4.27083">
        <ele>330</ele>
        <time>2018-06-03T06:29:12.000Z</time>
      </trkpt>
      <trkpt lat="44.52286" lon="4.27078">
        <ele>330</ele>
        <time>2018-06-03T06:29:13.000Z</time>
      </trkpt>
      <trkpt lat="44.52287" lon="4.27074">
        <ele>330</ele>
        <time>2018-06-03T06:29:14.000Z</time>
      </trkpt>
      <trkpt lat="44.52288" lon="4.27069">
        <ele>330</ele>
        <time>2018-06-03T06:29:15.000Z</time>
      </trkpt>
      <trkpt lat="44.52289" lon="4.27064">
        <ele>330</ele>
        <time>2018-06-03T06:29:16.000Z</time>
      </trkpt>
      <trkpt lat="44.5229" lon="4.27059">
        <ele>330</ele>
        <time>2018-06-03T06:29:17.000Z</time>
      </trkpt>
      <trkpt lat="44.52292" lon="4.27055">
        <ele>330</ele>
        <time>2018-06-03T06:29:18.000Z</time>
      </trkpt>
      <trkpt lat="44.52294" lon="4.2705">
        <ele>331</ele>
        <time>2018-06-03T06:29:19.000Z</time>
      </trkpt>
      <trkpt lat="44.52297" lon="4.27047">
        <ele>331</ele>
        <time>2018-06-03T06:29:20.000Z</time>
      </trkpt>
      <trkpt lat="44.523" lon="4.27044">
        <ele>331</ele>
        <time>2018-06-03T06:29:21.000Z</time>
      </trkpt>
      <trkpt lat="44.52302" lon="4.27041">
        <ele>331</ele>
        <time>2018-06-03T06:29:22.000Z</time>
      </trkpt>
      <trkpt lat="44.52305" lon="4.27039">
        <ele>331</ele>
        <time>2018-06-03T06:29:23.000Z</time>
      </trkpt>
      <trkpt lat="44.52307" lon="4.27037">
        <ele>331</ele>
        <time>2018-06-03T06:29:24.000Z</time>
      </trkpt>
      <trkpt lat="44.5231" lon="4.27035">
        <ele>332</ele>
        <time>2018-06-03T06:29:25.000Z</time>
      </trkpt>
      <trkpt lat="44.52312" lon="4.27033">
        <ele>332</ele>
        <time>2018-06-03T06:29:26.000Z</time>
      </trkpt>
      <trkpt lat="44.52315" lon="4.27031">
        <ele>332</ele>
        <time>2018-06-03T06:29:27.000Z</time>
      </trkpt>
      <trkpt lat="44.52318" lon="4.2703">
        <ele>332</ele>
        <time>2018-06-03T06:29:28.000Z</time>
      </trkpt>
      <trkpt lat="44.5232" lon="4.27028">
        <ele>332</ele>
        <time>2018-06-03T06:29:29.000Z</time>
      </trkpt>
      <trkpt lat="44.52323" lon="4.27027">
        <ele>332</ele>
        <time>2018-06-03T06:29:30.000Z</time>
      </trkpt>
      <trkpt lat="44.52325" lon="4.27024">
        <ele>333</ele>
        <time>2018-06-03T06:29:31.000Z</time>
      </trkpt>
      <trkpt lat="44.52327" lon="4.27022">
        <ele>333</ele>
        <time>2018-06-03T06:29:32.000Z</time>
      </trkpt>
      <trkpt lat="44.5233" lon="4.27021">
        <ele>333</ele>
        <time>2018-06-03T06:29:33.000Z</time>
      </trkpt>
      <trkpt lat="44.52333" lon="4.2702">
        <ele>333</ele>
        <time>2018-06-03T06:29:34.000Z</time>
      </trkpt>
      <trkpt lat="44.52335" lon="4.27018">
        <ele>337</ele>
        <time>2018-06-03T06:29:35.000Z</time>
      </trkpt>
      <trkpt lat="44.52337" lon="4.27017">
        <ele>337</ele>
        <time>2018-06-03T06:29:36.000Z</time>
      </trkpt>
      <trkpt lat="44.5234" lon="4.27015">
        <ele>337</ele>
        <time>2018-06-03T06:29:37.000Z</time>
      </trkpt>
      <trkpt lat="44.52342" lon="4.27013">
        <ele>337</ele>
        <time>2018-06-03T06:29:38.000Z</time>
      </trkpt>
      <trkpt lat="44.52344" lon="4.27012">
        <ele>337</ele>
        <time>2018-06-03T06:29:39.000Z</time>
      </trkpt>
      <trkpt lat="44.52346" lon="4.2701">
        <ele>337</ele>
        <time>2018-06-03T06:29:40.000Z</time>
      </trkpt>
      <trkpt lat="44.52348" lon="4.27009">
        <ele>337</ele>
        <time>2018-06-03T06:29:41.000Z</time>
      </trkpt>
      <trkpt lat="44.52351" lon="4.27007">
        <ele>337</ele>
        <time>2018-06-03T06:29:42.000Z</time>
      </trkpt>
      <trkpt lat="44.52353" lon="4.27006">
        <ele>338</ele>
        <time>2018-06-03T06:29:43.000Z</time>
      </trkpt>
      <trkpt lat="44.52355" lon="4.27004">
        <ele>338</ele>
        <time>2018-06-03T06:29:44.000Z</time>
      </trkpt>
      <trkpt lat="44.52357" lon="4.27003">
        <ele>338</ele>
        <time>2018-06-03T06:29:45.000Z</time>
      </trkpt>
      <trkpt lat="44.52359" lon="4.27001">
        <ele>338</ele>
        <time>2018-06-03T06:29:46.000Z</time>
      </trkpt>
      <trkpt lat="44.52361" lon="4.27">
        <ele>340</ele>
        <time>2018-06-03T06:29:47.000Z</time>
      </trkpt>
      <trkpt lat="44.52364" lon="4.26998">
        <ele>341</ele>
        <time>2018-06-03T06:29:48.000Z</time>
      </trkpt>
      <trkpt lat="44.52366" lon="4.26996">
        <ele>341</ele>
        <time>2018-06-03T06:29:49.000Z</time>
      </trkpt>
      <trkpt lat="44.52367" lon="4.26994">
        <ele>341</ele>
        <time>2018-06-03T06:29:50.000Z</time>
      </trkpt>
      <trkpt lat="44.52369" lon="4.26993">
        <ele>341</ele>
        <time>2018-06-03T06:29:51.000Z</time>
      </trkpt>
      <trkpt lat="44.52371" lon="4.26991">
        <ele>342</ele>
        <time>2018-06-03T06:29:52.000Z</time>
      </trkpt>
      <trkpt lat="44.52373" lon="4.2699">
        <ele>342</ele>
        <time>2018-06-03T06:29:53.000Z</time>
      </trkpt>
      <trkpt lat="44.52375" lon="4.26988">
        <ele>342</ele>
        <time>2018-06-03T06:29:54.000Z</time>
      </trkpt>
      <trkpt lat="44.52377" lon="4.26987">
        <ele>342</ele>
        <time>2018-06-03T06:29:55.000Z</time>
      </trkpt>
      <trkpt lat="44.52379" lon="4.26986">
        <ele>342</ele>
        <time>2018-06-03T06:29:56.000Z</time>
      </trkpt>
      <trkpt lat="44.52381" lon="4.26985">
        <ele>342</ele>
        <time>2018-06-03T06:29:57.000Z</time>
      </trkpt>
      <trkpt lat="44.52383" lon="4.26984">
        <ele>343</ele>
        <time>2018-06-03T06:29:58.000Z</time>
      </trkpt>
      <trkpt lat="44.52385" lon="4.26984">
        <ele>343</ele>
        <time>2018-06-03T06:29:59.000Z</time>
      </trkpt>
      <trkpt lat="44.52387" lon="4.26983">
        <ele>343</ele>
        <time>2018-06-03T06:30:00.000Z</time>
      </trkpt>
      <trkpt lat="44.52389" lon="4.26982">
        <ele>343</ele>
        <time>2018-06-03T06:30:01.000Z</time>
      </trkpt>
      <trkpt lat="44.52391" lon="4.26981">
        <ele>343</ele>
        <time>2018-06-03T06:30:02.000Z</time>
      </trkpt>
      <trkpt lat="44.52393" lon="4.2698">
        <ele>343</ele>
        <time>2018-06-03T06:30:03.000Z</time>
      </trkpt>
      <trkpt lat="44.52394" lon="4.26978">
        <ele>343</ele>
        <time>2018-06-03T06:30:04.000Z</time>
      </trkpt>
      <trkpt lat="44.52396" lon="4.26977">
        <ele>343</ele>
        <time>2018-06-03T06:30:05.000Z</time>
      </trkpt>
      <trkpt lat="44.52397" lon="4.26976">
        <ele>344</ele>
        <time>2018-06-03T06:30:06.000Z</time>
      </trkpt>
      <trkpt lat="44.52399" lon="4.26975">
        <ele>344</ele>
        <time>2018-06-03T06:30:07.000Z</time>
      </trkpt>
      <trkpt lat="44.52401" lon="4.26974">
        <ele>344</ele>
        <time>2018-06-03T06:30:08.000Z</time>
      </trkpt>
      <trkpt lat="44.52403" lon="4.26973">
        <ele>344</ele>
        <time>2018-06-03T06:30:09.000Z</time>
      </trkpt>
      <trkpt lat="44.52404" lon="4.26973">
        <ele>344</ele>
        <time>2018-06-03T06:30:10.000Z</time>
      </trkpt>
      <trkpt lat="44.52406" lon="4.26972">
        <ele>344</ele>
        <time>2018-06-03T06:30:11.000Z</time>
      </trkpt>
      <trkpt lat="44.52408" lon="4.26972">
        <ele>344</ele>
        <time>2018-06-03T06:30:12.000Z</time>
      </trkpt>
      <trkpt lat="44.5241" lon="4.26971">
        <ele>344</ele>
        <time>2018-06-03T06:30:13.000Z</time>
      </trkpt>
      <trkpt lat="44.52411" lon="4.2697">
        <ele>344</ele>
        <time>2018-06-03T06:30:14.000Z</time>
      </trkpt>
      <trkpt lat="44.52412" lon="4.26968">
        <ele>344</ele>
        <time>2018-06-03T06:30:15.000Z</time>
      </trkpt>
      <trkpt lat="44.52414" lon="4.26966">
        <ele>344</ele>
        <time>2018-06-03T06:30:16.000Z</time>
      </trkpt>
      <trkpt lat="44.52414" lon="4.26964">
        <ele>344</ele>
        <time>2018-06-03T06:30:17.000Z</time>
      </trkpt>
      <trkpt lat="44.52415" lon="4.26962">
        <ele>344</ele>
        <time>2018-06-03T06:30:18.000Z</time>
      </trkpt>
      <trkpt lat="44.52417" lon="4.2696">
        <ele>344</ele>
        <time>2018-06-03T06:30:19.000Z</time>
      </trkpt>
      <trkpt lat="44.52418" lon="4.26958">
        <ele>350</ele>
        <time>2018-06-03T06:30:20.000Z</time>
      </trkpt>
      <trkpt lat="44.52419" lon="4.26957">
        <ele>350</ele>
        <time>2018-06-03T06:30:21.000Z</time>
      </trkpt>
      <trkpt lat="44.52421" lon="4.26955">
        <ele>350</ele>
        <time>2018-06-03T06:30:22.000Z</time>
      </trkpt>
      <trkpt lat="44.52422" lon="4.26954">
        <ele>350</ele>
        <time>2018-06-03T06:30:23.000Z</time>
      </trkpt>
      <trkpt lat="44.52423" lon="4.26953">
        <ele>350</ele>
        <time>2018-06-03T06:30:24.000Z</time>
      </trkpt>
      <trkpt lat="44.52425" lon="4.26951">
        <ele>350</ele>
        <time>2018-06-03T06:30:25.000Z</time>
      </trkpt>
      <trkpt lat="44.52426" lon="4.2695">
        <ele>350</ele>
        <time>2018-06-03T06:30:26.000Z</time>
      </trkpt>
      <trkpt lat="44.52427" lon="4.26948">
        <ele>350</ele>
        <time>2018-06-03T06:30:27.000Z</time>
      </trkpt>
      <trkpt lat="44.52428" lon="4.26946">
        <ele>351</ele>
        <time>2018-06-03T06:30:28.000Z</time>
      </trkpt>
      <trkpt lat="44.52429" lon="4.26944">
        <ele>351</ele>
        <time>2018-06-03T06:30:29.000Z</time>
      </trkpt>
      <trkpt lat="44.5243" lon="4.26942">
        <ele>351</ele>
        <time>2018-06-03T06:30:30.000Z</time>
      </trkpt>
      <trkpt lat="44.52431" lon="4.2694">
        <ele>351</ele>
        <time>2018-06-03T06:30:31.000Z</time>
      </trkpt>
      <trkpt lat="44.52432" lon="4.26939">
        <ele>351</ele>
        <time>2018-06-03T06:30:32.000Z</time>
      </trkpt>
      <trkpt lat="44.52434" lon="4.26937">
        <ele>351</ele>
        <time>2018-06-03T06:30:33.000Z</time>
      </trkpt>
      <trkpt lat="44.52435" lon="4.26936">
        <ele>351</ele>
        <time>2018-06-03T06:30:34.000Z</time>
      </trkpt>
      <trkpt lat="44.52437" lon="4.26934">
        <ele>351</ele>
        <time>2018-06-03T06:30:35.000Z</time>
      </trkpt>
      <trkpt lat="44.52438" lon="4.26933">
        <ele>351</ele>
        <time>2018-06-03T06:30:36.000Z</time>
      </trkpt>
      <trkpt lat="44.5244" lon="4.26932">
        <ele>351</ele>
        <time>2018-06-03T06:30:37.000Z</time>
      </trkpt>
      <trkpt lat="44.52441" lon="4.26931">
        <ele>351</ele>
        <time>2018-06-03T06:30:38.000Z</time>
      </trkpt>
      <trkpt lat="44.52443" lon="4.2693">
        <ele>351</ele>
        <time>2018-06-03T06:30:39.000Z</time>
      </trkpt>
      <trkpt lat="44.52445" lon="4.26929">
        <ele>351</ele>
        <time>2018-06-03T06:30:40.000Z</time>
      </trkpt>
      <trkpt lat="44.52447" lon="4.26929">
        <ele>351</ele>
        <time>2018-06-03T06:30:41.000Z</time>
      </trkpt>
      <trkpt lat="44.52449" lon="4.26928">
        <ele>351</ele>
        <time>2018-06-03T06:30:42.000Z</time>
      </trkpt>
      <trkpt lat="44.52452" lon="4.26928">
        <ele>352</ele>
        <time>2018-06-03T06:30:43.000Z</time>
      </trkpt>
      <trkpt lat="44.52453" lon="4.26928">
        <ele>352</ele>
        <time>2018-06-03T06:30:44.000Z</time>
      </trkpt>
      <trkpt lat="44.52455" lon="4.26927">
        <ele>352</ele>
        <time>2018-06-03T06:30:45.000Z</time>
      </trkpt>
      <trkpt lat="44.52457" lon="4.26927">
        <ele>352</ele>
        <time>2018-06-03T06:30:46.000Z</time>
      </trkpt>
      <trkpt lat="44.52459" lon="4.26926">
        <ele>352</ele>
        <time>2018-06-03T06:30:47.000Z</time>
      </trkpt>
      <trkpt lat="44.52461" lon="4.26926">
        <ele>352</ele>
        <time>2018-06-03T06:30:48.000Z</time>
      </trkpt>
      <trkpt lat="44.52463" lon="4.26925">
        <ele>352</ele>
        <time>2018-06-03T06:30:49.000Z</time>
      </trkpt>
      <trkpt lat="44.52465" lon="4.26924">
        <ele>352</ele>
        <time>2018-06-03T06:30:50.000Z</time>
      </trkpt>
      <trkpt lat="44.52467" lon="4.26925">
        <ele>353</ele>
        <time>2018-06-03T06:30:51.000Z</time>
      </trkpt>
      <trkpt lat="44.52469" lon="4.26925">
        <ele>353</ele>
        <time>2018-06-03T06:30:52.000Z</time>
      </trkpt>
      <trkpt lat="44.52471" lon="4.26925">
        <ele>353</ele>
        <time>2018-06-03T06:30:53.000Z</time>
      </trkpt>
      <trkpt lat="44.52473" lon="4.26925">
        <ele>353</ele>
        <time>2018-06-03T06:30:54.000Z</time>
      </trkpt>
      <trkpt lat="44.52475" lon="4.26926">
        <ele>353</ele>
        <time>2018-06-03T06:30:55.000Z</time>
      </trkpt>
      <trkpt lat="44.52477" lon="4.26926">
        <ele>353</ele>
        <time>2018-06-03T06:30:56.000Z</time>
      </trkpt>
      <trkpt lat="44.52479" lon="4.26927">
        <ele>353</ele>
        <time>2018-06-03T06:30:57.000Z</time>
      </trkpt>
      <trkpt lat="44.52481" lon="4.26928">
        <ele>354</ele>
        <time>2018-06-03T06:30:58.000Z</time>
      </trkpt>
      <trkpt lat="44.52483" lon="4.26929">
        <ele>354</ele>
        <time>2018-06-03T06:30:59.000Z</time>
      </trkpt>
      <trkpt lat="44.52485" lon="4.26929">
        <ele>354</ele>
        <time>2018-06-03T06:31:00.000Z</time>
      </trkpt>
      <trkpt lat="44.52488" lon="4.26929">
        <ele>354</ele>
        <time>2018-06-03T06:31:01.000Z</time>
      </trkpt>
      <trkpt lat="44.5249" lon="4.26929">
        <ele>354</ele>
        <time>2018-06-03T06:31:02.000Z</time>
      </trkpt>
      <trkpt lat="44.52492" lon="4.26928">
        <ele>354</ele>
        <time>2018-06-03T06:31:03.000Z</time>
      </trkpt>
      <trkpt lat="44.52493" lon="4.26928">
        <ele>355</ele>
        <time>2018-06-03T06:31:04.000Z</time>
      </trkpt>
      <trkpt lat="44.52495" lon="4.26927">
        <ele>355</ele>
        <time>2018-06-03T06:31:05.000Z</time>
      </trkpt>
      <trkpt lat="44.52497" lon="4.26927">
        <ele>355</ele>
        <time>2018-06-03T06:31:06.000Z</time>
      </trkpt>
      <trkpt lat="44.52499" lon="4.26926">
        <ele>355</ele>
        <time>2018-06-03T06:31:07.000Z</time>
      </trkpt>
      <trkpt lat="44.525" lon="4.26924">
        <ele>356</ele>
        <time>2018-06-03T06:31:08.000Z</time>
      </trkpt>
      <trkpt lat="44.52502" lon="4.26923">
        <ele>357</ele>
        <time>2018-06-03T06:31:09.000Z</time>
      </trkpt>
      <trkpt lat="44.52504" lon="4.26922">
        <ele>357</ele>
        <time>2018-06-03T06:31:10.000Z</time>
      </trkpt>
      <trkpt lat="44.52505" lon="4.26921">
        <ele>357</ele>
        <time>2018-06-03T06:31:11.000Z</time>
      </trkpt>
      <trkpt lat="44.52507" lon="4.26919">
        <ele>357</ele>
        <time>2018-06-03T06:31:12.000Z</time>
      </trkpt>
      <trkpt lat="44.52509" lon="4.26918">
        <ele>356</ele>
        <time>2018-06-03T06:31:13.000Z</time>
      </trkpt>
      <trkpt lat="44.52511" lon="4.26917">
        <ele>357</ele>
        <time>2018-06-03T06:31:14.000Z</time>
      </trkpt>
      <trkpt lat="44.52512" lon="4.26914">
        <ele>357</ele>
        <time>2018-06-03T06:31:15.000Z</time>
      </trkpt>
      <trkpt lat="44.52514" lon="4.26911">
        <ele>357</ele>
        <time>2018-06-03T06:31:16.000Z</time>
      </trkpt>
      <trkpt lat="44.52515" lon="4.26909">
        <ele>357</ele>
        <time>2018-06-03T06:31:17.000Z</time>
      </trkpt>
      <trkpt lat="44.52516" lon="4.26906">
        <ele>357</ele>
        <time>2018-06-03T06:31:18.000Z</time>
      </trkpt>
      <trkpt lat="44.52516" lon="4.26904">
        <ele>357</ele>
        <time>2018-06-03T06:31:19.000Z</time>
      </trkpt>
      <trkpt lat="44.52517" lon="4.26902">
        <ele>357</ele>
        <time>2018-06-03T06:31:20.000Z</time>
      </trkpt>
      <trkpt lat="44.52518" lon="4.269">
        <ele>357</ele>
        <time>2018-06-03T06:31:21.000Z</time>
      </trkpt>
      <trkpt lat="44.52519" lon="4.26897">
        <ele>357</ele>
        <time>2018-06-03T06:31:22.000Z</time>
      </trkpt>
      <trkpt lat="44.5252" lon="4.26895">
        <ele>357</ele>
        <time>2018-06-03T06:31:23.000Z</time>
      </trkpt>
      <trkpt lat="44.52522" lon="4.26893">
        <ele>357</ele>
        <time>2018-06-03T06:31:24.000Z</time>
      </trkpt>
      <trkpt lat="44.52523" lon="4.26892">
        <ele>357</ele>
        <time>2018-06-03T06:31:25.000Z</time>
      </trkpt>
      <trkpt lat="44.52523" lon="4.26891">
        <ele>357</ele>
        <time>2018-06-03T06:31:26.000Z</time>
      </trkpt>
      <trkpt lat="44.52523" lon="4.26891">
        <ele>357</ele>
        <time>2018-06-03T06:31:27.000Z</time>
      </trkpt>
      <trkpt lat="44.52523" lon="4.26891">
        <ele>357</ele>
        <time>2018-06-03T06:31:28.000Z</time>
      </trkpt>
      <trkpt lat="44.52523" lon="4.26891">
        <ele>357</ele>
        <time>2018-06-03T06:31:29.000Z</time>
      </trkpt>
      <trkpt lat="44.52523" lon="4.26891">
        <ele>357</ele>
        <time>2018-06-03T06:31:30.000Z</time>
      </trkpt>
      <trkpt lat="44.52523" lon="4.26891">
        <ele>357</ele>
        <time>2018-06-03T06:31:31.000Z</time>
      </trkpt>
      <trkpt lat="44.52523" lon="4.26891">
        <ele>357</ele>
        <time>2018-06-03T06:31:32.000Z</time>
      </trkpt>
      <trkpt lat="44.52523" lon="4.26891">
        <ele>357</ele>
        <time>2018-06-03T06:31:33.000Z</time>
      </trkpt>
      <trkpt lat="44.52523" lon="4.26891">
        <ele>357</ele>
        <time>2018-06-03T06:31:34.000Z</time>
      </trkpt>
      <trkpt lat="44.52523" lon="4.26891">
        <ele>357</ele>
        <time>2018-06-03T06:31:35.000Z</time>
      </trkpt>
      <trkpt lat="44.52523" lon="4.26891">
        <ele>357</ele>
        <time>2018-06-03T06:31:36.000Z</time>
      </trkpt>
      <trkpt lat="44.52523" lon="4.26891">
        <ele>357</ele>
        <time>2018-06-03T06:31:37.000Z</time>
      </trkpt>
      <trkpt lat="44.52523" lon="4.26891">
        <ele>357</ele>
        <time>2018-06-03T06:31:38.000Z</time>
      </trkpt>
      <trkpt lat="44.52523" lon="4.26891">
        <ele>357</ele>
        <time>2018-06-03T06:31:39.000Z</time>
      </trkpt>
      <trkpt lat="44.52523" lon="4.26892">
        <ele>357</ele>
        <time>2018-06-03T06:31:40.000Z</time>
      </trkpt>
      <trkpt lat="44.52524" lon="4.26891">
        <ele>357</ele>
        <time>2018-06-03T06:31:41.000Z</time>
      </trkpt>
      <trkpt lat="44.52525" lon="4.2689">
        <ele>357</ele>
        <time>2018-06-03T06:31:42.000Z</time>
      </trkpt>
      <trkpt lat="44.52526" lon="4.26889">
        <ele>358</ele>
        <time>2018-06-03T06:31:43.000Z</time>
      </trkpt>
      <trkpt lat="44.52528" lon="4.26887">
        <ele>358</ele>
        <time>2018-06-03T06:31:44.000Z</time>
      </trkpt>
      <trkpt lat="44.5253" lon="4.26885">
        <ele>358</ele>
        <time>2018-06-03T06:31:45.000Z</time>
      </trkpt>
      <trkpt lat="44.52532" lon="4.26883">
        <ele>358</ele>
        <time>2018-06-03T06:31:46.000Z</time>
      </trkpt>
      <trkpt lat="44.52534" lon="4.26881">
        <ele>358</ele>
        <time>2018-06-03T06:31:47.000Z</time>
      </trkpt>
      <trkpt lat="44.52536" lon="4.26879">
        <ele>358</ele>
        <time>2018-06-03T06:31:48.000Z</time>
      </trkpt>
      <trkpt lat="44.52539" lon="4.26877">
        <ele>358</ele>
        <time>2018-06-03T06:31:49.000Z</time>
      </trkpt>
      <trkpt lat="44.52541" lon="4.26875">
        <ele>358</ele>
        <time>2018-06-03T06:31:50.000Z</time>
      </trkpt>
      <trkpt lat="44.52543" lon="4.26873">
        <ele>358</ele>
        <time>2018-06-03T06:31:51.000Z</time>
      </trkpt>
      <trkpt lat="44.52545" lon="4.26871">
        <ele>358</ele>
        <time>2018-06-03T06:31:52.000Z</time>
      </trkpt>
      <trkpt lat="44.52547" lon="4.26869">
        <ele>358</ele>
        <time>2018-06-03T06:31:53.000Z</time>
      </trkpt>
      <trkpt lat="44.5255" lon="4.26867">
        <ele>358</ele>
        <time>2018-06-03T06:31:54.000Z</time>
      </trkpt>
      <trkpt lat="44.52552" lon="4.26865">
        <ele>358</ele>
        <time>2018-06-03T06:31:55.000Z</time>
      </trkpt>
      <trkpt lat="44.52554" lon="4.26863">
        <ele>358</ele>
        <time>2018-06-03T06:31:56.000Z</time>
      </trkpt>
      <trkpt lat="44.52555" lon="4.26861">
        <ele>358</ele>
        <time>2018-06-03T06:31:57.000Z</time>
      </trkpt>
      <trkpt lat="44.52557" lon="4.26858">
        <ele>358</ele>
        <time>2018-06-03T06:31:58.000Z</time>
      </trkpt>
      <trkpt lat="44.52559" lon="4.26856">
        <ele>358</ele>
        <time>2018-06-03T06:31:59.000Z</time>
      </trkpt>
      <trkpt lat="44.52561" lon="4.26855">
        <ele>358</ele>
        <time>2018-06-03T06:32:00.000Z</time>
      </trkpt>
      <trkpt lat="44.52564" lon="4.26854">
        <ele>358</ele>
        <time>2018-06-03T06:32:01.000Z</time>
      </trkpt>
      <trkpt lat="44.52567" lon="4.26853">
        <ele>358</ele>
        <time>2018-06-03T06:32:02.000Z</time>
      </trkpt>
      <trkpt lat="44.52569" lon="4.26853">
        <ele>359</ele>
        <time>2018-06-03T06:32:03.000Z</time>
      </trkpt>
      <trkpt lat="44.52572" lon="4.26852">
        <ele>359</ele>
        <time>2018-06-03T06:32:04.000Z</time>
      </trkpt>
      <trkpt lat="44.52575" lon="4.26852">
        <ele>359</ele>
        <time>2018-06-03T06:32:05.000Z</time>
      </trkpt>
      <trkpt lat="44.52577" lon="4.26852">
        <ele>359</ele>
        <time>2018-06-03T06:32:06.000Z</time>
      </trkpt>
      <trkpt lat="44.5258" lon="4.26851">
        <ele>359</ele>
        <time>2018-06-03T06:32:07.000Z</time>
      </trkpt>
      <trkpt lat="44.52582" lon="4.2685">
        <ele>359</ele>
        <time>2018-06-03T06:32:08.000Z</time>
      </trkpt>
      <trkpt lat="44.52585" lon="4.2685">
        <ele>360</ele>
        <time>2018-06-03T06:32:09.000Z</time>
      </trkpt>
      <trkpt lat="44.52588" lon="4.26849">
        <ele>360</ele>
        <time>2018-06-03T06:32:10.000Z</time>
      </trkpt>
      <trkpt lat="44.5259" lon="4.26849">
        <ele>360</ele>
        <time>2018-06-03T06:32:11.000Z</time>
      </trkpt>
      <trkpt lat="44.52593" lon="4.26848">
        <ele>360</ele>
        <time>2018-06-03T06:32:12.000Z</time>
      </trkpt>
      <trkpt lat="44.52595" lon="4.26846">
        <ele>360</ele>
        <time>2018-06-03T06:32:13.000Z</time>
      </trkpt>
      <trkpt lat="44.52598" lon="4.26844">
        <ele>360</ele>
        <time>2018-06-03T06:32:14.000Z</time>
      </trkpt>
      <trkpt lat="44.526" lon="4.26842">
        <ele>360</ele>
        <time>2018-06-03T06:32:15.000Z</time>
      </trkpt>
      <trkpt lat="44.52602" lon="4.26841">
        <ele>360</ele>
        <time>2018-06-03T06:32:16.000Z</time>
      </trkpt>
      <trkpt lat="44.52604" lon="4.2684">
        <ele>360</ele>
        <time>2018-06-03T06:32:17.000Z</time>
      </trkpt>
      <trkpt lat="44.52606" lon="4.26839">
        <ele>360</ele>
        <time>2018-06-03T06:32:18.000Z</time>
      </trkpt>
      <trkpt lat="44.52609" lon="4.26837">
        <ele>360</ele>
        <time>2018-06-03T06:32:19.000Z</time>
      </trkpt>
      <trkpt lat="44.52611" lon="4.26837">
        <ele>360</ele>
        <time>2018-06-03T06:32:20.000Z</time>
      </trkpt>
      <trkpt lat="44.52613" lon="4.26836">
        <ele>360</ele>
        <time>2018-06-03T06:32:21.000Z</time>
      </trkpt>
      <trkpt lat="44.52615" lon="4.26836">
        <ele>361</ele>
        <time>2018-06-03T06:32:22.000Z</time>
      </trkpt>
      <trkpt lat="44.52618" lon="4.26836">
        <ele>361</ele>
        <time>2018-06-03T06:32:23.000Z</time>
      </trkpt>
      <trkpt lat="44.5262" lon="4.26835">
        <ele>361</ele>
        <time>2018-06-03T06:32:24.000Z</time>
      </trkpt>
      <trkpt lat="44.52622" lon="4.26835">
        <ele>361</ele>
        <time>2018-06-03T06:32:25.000Z</time>
      </trkpt>
      <trkpt lat="44.52625" lon="4.26834">
        <ele>361</ele>
        <time>2018-06-03T06:32:26.000Z</time>
      </trkpt>
      <trkpt lat="44.52627" lon="4.26834">
        <ele>361</ele>
        <time>2018-06-03T06:32:27.000Z</time>
      </trkpt>
      <trkpt lat="44.5263" lon="4.26833">
        <ele>361</ele>
        <time>2018-06-03T06:32:28.000Z</time>
      </trkpt>
      <trkpt lat="44.52632" lon="4.26832">
        <ele>361</ele>
        <time>2018-06-03T06:32:29.000Z</time>
      </trkpt>
      <trkpt lat="44.52635" lon="4.26831">
        <ele>362</ele>
        <time>2018-06-03T06:32:30.000Z</time>
      </trkpt>
      <trkpt lat="44.52637" lon="4.26828">
        <ele>362</ele>
        <time>2018-06-03T06:32:31.000Z</time>
      </trkpt>
      <trkpt lat="44.52639" lon="4.26826">
        <ele>362</ele>
        <time>2018-06-03T06:32:32.000Z</time>
      </trkpt>
      <trkpt lat="44.52641" lon="4.26825">
        <ele>362</ele>
        <time>2018-06-03T06:32:33.000Z</time>
      </trkpt>
      <trkpt lat="44.52643" lon="4.26823">
        <ele>362</ele>
        <time>2018-06-03T06:32:34.000Z</time>
      </trkpt>
      <trkpt lat="44.52645" lon="4.26821">
        <ele>362</ele>
        <time>2018-06-03T06:32:35.000Z</time>
      </trkpt>
      <trkpt lat="44.52647" lon="4.2682">
        <ele>362</ele>
        <time>2018-06-03T06:32:36.000Z</time>
      </trkpt>
      <trkpt lat="44.5265" lon="4.26819">
        <ele>362</ele>
        <time>2018-06-03T06:32:37.000Z</time>
      </trkpt>
      <trkpt lat="44.52652" lon="4.26818">
        <ele>362</ele>
        <time>2018-06-03T06:32:38.000Z</time>
      </trkpt>
      <trkpt lat="44.52654" lon="4.26817">
        <ele>362</ele>
        <time>2018-06-03T06:32:39.000Z</time>
      </trkpt>
      <trkpt lat="44.52656" lon="4.26815">
        <ele>362</ele>
        <time>2018-06-03T06:32:40.000Z</time>
      </trkpt>
      <trkpt lat="44.52659" lon="4.26814">
        <ele>362</ele>
        <time>2018-06-03T06:32:41.000Z</time>
      </trkpt>
      <trkpt lat="44.52661" lon="4.26813">
        <ele>362</ele>
        <time>2018-06-03T06:32:42.000Z</time>
      </trkpt>
      <trkpt lat="44.52663" lon="4.26813">
        <ele>362</ele>
        <time>2018-06-03T06:32:43.000Z</time>
      </trkpt>
      <trkpt lat="44.52666" lon="4.26812">
        <ele>362</ele>
        <time>2018-06-03T06:32:44.000Z</time>
      </trkpt>
      <trkpt lat="44.52669" lon="4.26812">
        <ele>365</ele>
        <time>2018-06-03T06:32:45.000Z</time>
      </trkpt>
      <trkpt lat="44.52671" lon="4.26811">
        <ele>365</ele>
        <time>2018-06-03T06:32:46.000Z</time>
      </trkpt>
      <trkpt lat="44.52674" lon="4.26811">
        <ele>365</ele>
        <time>2018-06-03T06:32:47.000Z</time>
      </trkpt>
      <trkpt lat="44.52676" lon="4.26811">
        <ele>365</ele>
        <time>2018-06-03T06:32:48.000Z</time>
      </trkpt>
      <trkpt lat="44.52679" lon="4.26812">
        <ele>365</ele>
        <time>2018-06-03T06:32:49.000Z</time>
      </trkpt>
      <trkpt lat="44.52682" lon="4.26812">
        <ele>365</ele>
        <time>2018-06-03T06:32:50.000Z</time>
      </trkpt>
      <trkpt lat="44.52685" lon="4.26812">
        <ele>365</ele>
        <time>2018-06-03T06:32:51.000Z</time>
      </trkpt>
      <trkpt lat="44.52688" lon="4.26811">
        <ele>365</ele>
        <time>2018-06-03T06:32:52.000Z</time>
      </trkpt>
      <trkpt lat="44.5269" lon="4.26811">
        <ele>366</ele>
        <time>2018-06-03T06:32:53.000Z</time>
      </trkpt>
      <trkpt lat="44.52693" lon="4.2681">
        <ele>366</ele>
        <time>2018-06-03T06:32:54.000Z</time>
      </trkpt>
      <trkpt lat="44.52695" lon="4.2681">
        <ele>366</ele>
        <time>2018-06-03T06:32:55.000Z</time>
      </trkpt>
      <trkpt lat="44.52698" lon="4.26809">
        <ele>366</ele>
        <time>2018-06-03T06:32:56.000Z</time>
      </trkpt>
      <trkpt lat="44.527" lon="4.26808">
        <ele>366</ele>
        <time>2018-06-03T06:32:57.000Z</time>
      </trkpt>
      <trkpt lat="44.52703" lon="4.26806">
        <ele>366</ele>
        <time>2018-06-03T06:32:58.000Z</time>
      </trkpt>
      <trkpt lat="44.52706" lon="4.26805">
        <ele>366</ele>
        <time>2018-06-03T06:32:59.000Z</time>
      </trkpt>
      <trkpt lat="44.52708" lon="4.26804">
        <ele>366</ele>
        <time>2018-06-03T06:33:00.000Z</time>
      </trkpt>
      <trkpt lat="44.52711" lon="4.26803">
        <ele>366</ele>
        <time>2018-06-03T06:33:01.000Z</time>
      </trkpt>
      <trkpt lat="44.52714" lon="4.26802">
        <ele>366</ele>
        <time>2018-06-03T06:33:02.000Z</time>
      </trkpt>
      <trkpt lat="44.52716" lon="4.26801">
        <ele>366</ele>
        <time>2018-06-03T06:33:03.000Z</time>
      </trkpt>
      <trkpt lat="44.52719" lon="4.26801">
        <ele>366</ele>
        <time>2018-06-03T06:33:04.000Z</time>
      </trkpt>
      <trkpt lat="44.52721" lon="4.268">
        <ele>367</ele>
        <time>2018-06-03T06:33:05.000Z</time>
      </trkpt>
      <trkpt lat="44.52724" lon="4.26799">
        <ele>367</ele>
        <time>2018-06-03T06:33:06.000Z</time>
      </trkpt>
      <trkpt lat="44.52726" lon="4.26798">
        <ele>367</ele>
        <time>2018-06-03T06:33:07.000Z</time>
      </trkpt>
      <trkpt lat="44.52729" lon="4.26797">
        <ele>367</ele>
        <time>2018-06-03T06:33:08.000Z</time>
      </trkpt>
      <trkpt lat="44.52731" lon="4.26795">
        <ele>367</ele>
        <time>2018-06-03T06:33:09.000Z</time>
      </trkpt>
      <trkpt lat="44.52733" lon="4.26792">
        <ele>367</ele>
        <time>2018-06-03T06:33:10.000Z</time>
      </trkpt>
      <trkpt lat="44.52734" lon="4.26789">
        <ele>367</ele>
        <time>2018-06-03T06:33:11.000Z</time>
      </trkpt>
      <trkpt lat="44.52734" lon="4.26786">
        <ele>367</ele>
        <time>2018-06-03T06:33:12.000Z</time>
      </trkpt>
      <trkpt lat="44.52732" lon="4.26784">
        <ele>367</ele>
        <time>2018-06-03T06:33:13.000Z</time>
      </trkpt>
      <trkpt lat="44.52731" lon="4.26782">
        <ele>367</ele>
        <time>2018-06-03T06:33:14.000Z</time>
      </trkpt>
      <trkpt lat="44.52729" lon="4.26779">
        <ele>367</ele>
        <time>2018-06-03T06:33:15.000Z</time>
      </trkpt>
      <trkpt lat="44.52728" lon="4.26776">
        <ele>367</ele>
        <time>2018-06-03T06:33:16.000Z</time>
      </trkpt>
      <trkpt lat="44.52726" lon="4.26774">
        <ele>367</ele>
        <time>2018-06-03T06:33:17.000Z</time>
      </trkpt>
      <trkpt lat="44.52724" lon="4.26771">
        <ele>367</ele>
        <time>2018-06-03T06:33:18.000Z</time>
      </trkpt>
      <trkpt lat="44.52723" lon="4.26769">
        <ele>367</ele>
        <time>2018-06-03T06:33:19.000Z</time>
      </trkpt>
      <trkpt lat="44.52722" lon="4.26767">
        <ele>367</ele>
        <time>2018-06-03T06:33:20.000Z</time>
      </trkpt>
      <trkpt lat="44.5272" lon="4.26764">
        <ele>367</ele>
        <time>2018-06-03T06:33:21.000Z</time>
      </trkpt>
      <trkpt lat="44.52719" lon="4.26762">
        <ele>367</ele>
        <time>2018-06-03T06:33:22.000Z</time>
      </trkpt>
      <trkpt lat="44.52717" lon="4.2676">
        <ele>367</ele>
        <time>2018-06-03T06:33:23.000Z</time>
      </trkpt>
      <trkpt lat="44.52715" lon="4.26758">
        <ele>367</ele>
        <time>2018-06-03T06:33:24.000Z</time>
      </trkpt>
      <trkpt lat="44.52713" lon="4.26756">
        <ele>367</ele>
        <time>2018-06-03T06:33:25.000Z</time>
      </trkpt>
      <trkpt lat="44.52711" lon="4.26754">
        <ele>367</ele>
        <time>2018-06-03T06:33:26.000Z</time>
      </trkpt>
      <trkpt lat="44.52708" lon="4.26752">
        <ele>367</ele>
        <time>2018-06-03T06:33:27.000Z</time>
      </trkpt>
      <trkpt lat="44.52706" lon="4.26751">
        <ele>367</ele>
        <time>2018-06-03T06:33:28.000Z</time>
      </trkpt>
      <trkpt lat="44.52703" lon="4.26749">
        <ele>369</ele>
        <time>2018-06-03T06:33:29.000Z</time>
      </trkpt>
      <trkpt lat="44.52701" lon="4.26746">
        <ele>369</ele>
        <time>2018-06-03T06:33:30.000Z</time>
      </trkpt>
      <trkpt lat="44.52699" lon="4.26743">
        <ele>369</ele>
        <time>2018-06-03T06:33:31.000Z</time>
      </trkpt>
      <trkpt lat="44.52698" lon="4.26739">
        <ele>369</ele>
        <time>2018-06-03T06:33:32.000Z</time>
      </trkpt>
      <trkpt lat="44.52696" lon="4.26736">
        <ele>369</ele>
        <time>2018-06-03T06:33:33.000Z</time>
      </trkpt>
      <trkpt lat="44.52695" lon="4.26733">
        <ele>369</ele>
        <time>2018-06-03T06:33:34.000Z</time>
      </trkpt>
      <trkpt lat="44.52694" lon="4.26729">
        <ele>369</ele>
        <time>2018-06-03T06:33:35.000Z</time>
      </trkpt>
      <trkpt lat="44.52693" lon="4.26725">
        <ele>369</ele>
        <time>2018-06-03T06:33:36.000Z</time>
      </trkpt>
      <trkpt lat="44.52693" lon="4.26721">
        <ele>369</ele>
        <time>2018-06-03T06:33:37.000Z</time>
      </trkpt>
      <trkpt lat="44.52692" lon="4.26717">
        <ele>369</ele>
        <time>2018-06-03T06:33:38.000Z</time>
      </trkpt>
      <trkpt lat="44.5269" lon="4.26712">
        <ele>369</ele>
        <time>2018-06-03T06:33:39.000Z</time>
      </trkpt>
      <trkpt lat="44.52689" lon="4.26708">
        <ele>369</ele>
        <time>2018-06-03T06:33:40.000Z</time>
      </trkpt>
      <trkpt lat="44.52689" lon="4.26704">
        <ele>369</ele>
        <time>2018-06-03T06:33:41.000Z</time>
      </trkpt>
      <trkpt lat="44.52689" lon="4.267">
        <ele>369</ele>
        <time>2018-06-03T06:33:42.000Z</time>
      </trkpt>
      <trkpt lat="44.52689" lon="4.26696">
        <ele>369</ele>
        <time>2018-06-03T06:33:43.000Z</time>
      </trkpt>
      <trkpt lat="44.52689" lon="4.26692">
        <ele>369</ele>
        <time>2018-06-03T06:33:44.000Z</time>
      </trkpt>
      <trkpt lat="44.52689" lon="4.26688">
        <ele>369</ele>
        <time>2018-06-03T06:33:45.000Z</time>
      </trkpt>
      <trkpt lat="44.52688" lon="4.26684">
        <ele>369</ele>
        <time>2018-06-03T06:33:46.000Z</time>
      </trkpt>
      <trkpt lat="44.52688" lon="4.26681">
        <ele>369</ele>
        <time>2018-06-03T06:33:47.000Z</time>
      </trkpt>
      <trkpt lat="44.52687" lon="4.26678">
        <ele>369</ele>
        <time>2018-06-03T06:33:48.000Z</time>
      </trkpt>
      <trkpt lat="44.52687" lon="4.26674">
        <ele>369</ele>
        <time>2018-06-03T06:33:49.000Z</time>
      </trkpt>
      <trkpt lat="44.52686" lon="4.2667">
        <ele>369</ele>
        <time>2018-06-03T06:33:50.000Z</time>
      </trkpt>
      <trkpt lat="44.52686" lon="4.26666">
        <ele>369</ele>
        <time>2018-06-03T06:33:51.000Z</time>
      </trkpt>
      <trkpt lat="44.52686" lon="4.26662">
        <ele>369</ele>
        <time>2018-06-03T06:33:52.000Z</time>
      </trkpt>
      <trkpt lat="44.52684" lon="4.26658">
        <ele>369</ele>
        <time>2018-06-03T06:33:53.000Z</time>
      </trkpt>
      <trkpt lat="44.52684" lon="4.26654">
        <ele>369</ele>
        <time>2018-06-03T06:33:54.000Z</time>
      </trkpt>
      <trkpt lat="44.52684" lon="4.2665">
        <ele>369</ele>
        <time>2018-06-03T06:33:55.000Z</time>
      </trkpt>
      <trkpt lat="44.52684" lon="4.26645">
        <ele>369</ele>
        <time>2018-06-03T06:33:56.000Z</time>
      </trkpt>
      <trkpt lat="44.52684" lon="4.26641">
        <ele>369</ele>
        <time>2018-06-03T06:33:57.000Z</time>
      </trkpt>
      <trkpt lat="44.52684" lon="4.26637">
        <ele>369</ele>
        <time>2018-06-03T06:33:58.000Z</time>
      </trkpt>
      <trkpt lat="44.52684" lon="4.26632">
        <ele>369</ele>
        <time>2018-06-03T06:33:59.000Z</time>
      </trkpt>
      <trkpt lat="44.52684" lon="4.26628">
        <ele>369</ele>
        <time>2018-06-03T06:34:00.000Z</time>
      </trkpt>
      <trkpt lat="44.52684" lon="4.26624">
        <ele>369</ele>
        <time>2018-06-03T06:34:01.000Z</time>
      </trkpt>
      <trkpt lat="44.52685" lon="4.2662">
        <ele>369</ele>
        <time>2018-06-03T06:34:02.000Z</time>
      </trkpt>
      <trkpt lat="44.52687" lon="4.26616">
        <ele>369</ele>
        <time>2018-06-03T06:34:03.000Z</time>
      </trkpt>
      <trkpt lat="44.52688" lon="4.26611">
        <ele>369</ele>
        <time>2018-06-03T06:34:04.000Z</time>
      </trkpt>
      <trkpt lat="44.52689" lon="4.26606">
        <ele>369</ele>
        <time>2018-06-03T06:34:05.000Z</time>
      </trkpt>
      <trkpt lat="44.5269" lon="4.26601">
        <ele>368</ele>
        <time>2018-06-03T06:34:06.000Z</time>
      </trkpt>
      <trkpt lat="44.52691" lon="4.26598">
        <ele>368</ele>
        <time>2018-06-03T06:34:07.000Z</time>
      </trkpt>
      <trkpt lat="44.52693" lon="4.26596">
        <ele>368</ele>
        <time>2018-06-03T06:34:08.000Z</time>
      </trkpt>
      <trkpt lat="44.52695" lon="4.26594">
        <ele>369</ele>
        <time>2018-06-03T06:34:09.000Z</time>
      </trkpt>
      <trkpt lat="44.52697" lon="4.26592">
        <ele>369</ele>
        <time>2018-06-03T06:34:10.000Z</time>
      </trkpt>
      <trkpt lat="44.527" lon="4.26589">
        <ele>369</ele>
        <time>2018-06-03T06:34:11.000Z</time>
      </trkpt>
      <trkpt lat="44.52702" lon="4.26587">
        <ele>369</ele>
        <time>2018-06-03T06:34:12.000Z</time>
      </trkpt>
      <trkpt lat="44.52705" lon="4.26584">
        <ele>369</ele>
        <time>2018-06-03T06:34:13.000Z</time>
      </trkpt>
      <trkpt lat="44.52707" lon="4.26581">
        <ele>368</ele>
        <time>2018-06-03T06:34:14.000Z</time>
      </trkpt>
      <trkpt lat="44.52709" lon="4.26578">
        <ele>368</ele>
        <time>2018-06-03T06:34:15.000Z</time>
      </trkpt>
      <trkpt lat="44.52712" lon="4.26575">
        <ele>369</ele>
        <time>2018-06-03T06:34:16.000Z</time>
      </trkpt>
      <trkpt lat="44.52714" lon="4.26572">
        <ele>369</ele>
        <time>2018-06-03T06:34:17.000Z</time>
      </trkpt>
      <trkpt lat="44.52716" lon="4.26569">
        <ele>369</ele>
        <time>2018-06-03T06:34:18.000Z</time>
      </trkpt>
      <trkpt lat="44.52718" lon="4.26567">
        <ele>369</ele>
        <time>2018-06-03T06:34:19.000Z</time>
      </trkpt>
      <trkpt lat="44.5272" lon="4.26565">
        <ele>369</ele>
        <time>2018-06-03T06:34:20.000Z</time>
      </trkpt>
      <trkpt lat="44.52722" lon="4.26564">
        <ele>369</ele>
        <time>2018-06-03T06:34:21.000Z</time>
      </trkpt>
      <trkpt lat="44.52724" lon="4.26561">
        <ele>369</ele>
        <time>2018-06-03T06:34:22.000Z</time>
      </trkpt>
      <trkpt lat="44.52726" lon="4.26558">
        <ele>369</ele>
        <time>2018-06-03T06:34:23.000Z</time>
      </trkpt>
      <trkpt lat="44.52729" lon="4.26556">
        <ele>370</ele>
        <time>2018-06-03T06:34:24.000Z</time>
      </trkpt>
      <trkpt lat="44.52732" lon="4.26553">
        <ele>370</ele>
        <time>2018-06-03T06:34:25.000Z</time>
      </trkpt>
      <trkpt lat="44.52733" lon="4.26552">
        <ele>370</ele>
        <time>2018-06-03T06:34:26.000Z</time>
      </trkpt>
      <trkpt lat="44.52735" lon="4.2655">
        <ele>370</ele>
        <time>2018-06-03T06:34:27.000Z</time>
      </trkpt>
      <trkpt lat="44.52735" lon="4.26547">
        <ele>370</ele>
        <time>2018-06-03T06:34:28.000Z</time>
      </trkpt>
      <trkpt lat="44.52736" lon="4.26544">
        <ele>369</ele>
        <time>2018-06-03T06:34:29.000Z</time>
      </trkpt>
      <trkpt lat="44.52737" lon="4.26542">
        <ele>369</ele>
        <time>2018-06-03T06:34:30.000Z</time>
      </trkpt>
      <trkpt lat="44.52739" lon="4.2654">
        <ele>370</ele>
        <time>2018-06-03T06:34:31.000Z</time>
      </trkpt>
      <trkpt lat="44.5274" lon="4.26538">
        <ele>370</ele>
        <time>2018-06-03T06:34:32.000Z</time>
      </trkpt>
      <trkpt lat="44.52741" lon="4.26536">
        <ele>370</ele>
        <time>2018-06-03T06:34:33.000Z</time>
      </trkpt>
      <trkpt lat="44.52742" lon="4.26533">
        <ele>370</ele>
        <time>2018-06-03T06:34:34.000Z</time>
      </trkpt>
      <trkpt lat="44.52744" lon="4.2653">
        <ele>370</ele>
        <time>2018-06-03T06:34:35.000Z</time>
      </trkpt>
      <trkpt lat="44.52745" lon="4.26528">
        <ele>370</ele>
        <time>2018-06-03T06:34:36.000Z</time>
      </trkpt>
      <trkpt lat="44.52747" lon="4.26526">
        <ele>370</ele>
        <time>2018-06-03T06:34:37.000Z</time>
      </trkpt>
      <trkpt lat="44.52749" lon="4.26524">
        <ele>370</ele>
        <time>2018-06-03T06:34:38.000Z</time>
      </trkpt>
      <trkpt lat="44.5275" lon="4.26522">
        <ele>374</ele>
        <time>2018-06-03T06:34:39.000Z</time>
      </trkpt>
      <trkpt lat="44.52751" lon="4.26519">
        <ele>374</ele>
        <time>2018-06-03T06:34:40.000Z</time>
      </trkpt>
      <trkpt lat="44.52753" lon="4.26516">
        <ele>374</ele>
        <time>2018-06-03T06:34:41.000Z</time>
      </trkpt>
      <trkpt lat="44.52754" lon="4.26514">
        <ele>374</ele>
        <time>2018-06-03T06:34:42.000Z</time>
      </trkpt>
      <trkpt lat="44.52756" lon="4.26511">
        <ele>374</ele>
        <time>2018-06-03T06:34:43.000Z</time>
      </trkpt>
      <trkpt lat="44.52758" lon="4.26508">
        <ele>374</ele>
        <time>2018-06-03T06:34:44.000Z</time>
      </trkpt>
      <trkpt lat="44.5276" lon="4.26506">
        <ele>374</ele>
        <time>2018-06-03T06:34:45.000Z</time>
      </trkpt>
      <trkpt lat="44.52761" lon="4.26503">
        <ele>374</ele>
        <time>2018-06-03T06:34:46.000Z</time>
      </trkpt>
      <trkpt lat="44.52763" lon="4.265">
        <ele>374</ele>
        <time>2018-06-03T06:34:47.000Z</time>
      </trkpt>
      <trkpt lat="44.52765" lon="4.26497">
        <ele>374</ele>
        <time>2018-06-03T06:34:48.000Z</time>
      </trkpt>
      <trkpt lat="44.52767" lon="4.26494">
        <ele>374</ele>
        <time>2018-06-03T06:34:49.000Z</time>
      </trkpt>
      <trkpt lat="44.52769" lon="4.26491">
        <ele>374</ele>
        <time>2018-06-03T06:34:50.000Z</time>
      </trkpt>
      <trkpt lat="44.52772" lon="4.26488">
        <ele>374</ele>
        <time>2018-06-03T06:34:51.000Z</time>
      </trkpt>
      <trkpt lat="44.52774" lon="4.26485">
        <ele>374</ele>
        <time>2018-06-03T06:34:52.000Z</time>
      </trkpt>
      <trkpt lat="44.52775" lon="4.26483">
        <ele>374</ele>
        <time>2018-06-03T06:34:53.000Z</time>
      </trkpt>
      <trkpt lat="44.52777" lon="4.2648">
        <ele>374</ele>
        <time>2018-06-03T06:34:54.000Z</time>
      </trkpt>
      <trkpt lat="44.52779" lon="4.26478">
        <ele>374</ele>
        <time>2018-06-03T06:34:55.000Z</time>
      </trkpt>
      <trkpt lat="44.52781" lon="4.26475">
        <ele>374</ele>
        <time>2018-06-03T06:34:56.000Z</time>
      </trkpt>
      <trkpt lat="44.52783" lon="4.26474">
        <ele>374</ele>
        <time>2018-06-03T06:34:57.000Z</time>
      </trkpt>
      <trkpt lat="44.52784" lon="4.26473">
        <ele>374</ele>
        <time>2018-06-03T06:34:58.000Z</time>
      </trkpt>
      <trkpt lat="44.52786" lon="4.26471">
        <ele>374</ele>
        <time>2018-06-03T06:34:59.000Z</time>
      </trkpt>
      <trkpt lat="44.52788" lon="4.2647">
        <ele>374</ele>
        <time>2018-06-03T06:35:00.000Z</time>
      </trkpt>
      <trkpt lat="44.5279" lon="4.26469">
        <ele>374</ele>
        <time>2018-06-03T06:35:01.000Z</time>
      </trkpt>
      <trkpt lat="44.52792" lon="4.26467">
        <ele>374</ele>
        <time>2018-06-03T06:35:02.000Z</time>
      </trkpt>
      <trkpt lat="44.52794" lon="4.26465">
        <ele>374</ele>
        <time>2018-06-03T06:35:03.000Z</time>
      </trkpt>
      <trkpt lat="44.52795" lon="4.26462">
        <ele>374</ele>
        <time>2018-06-03T06:35:04.000Z</time>
      </trkpt>
      <trkpt lat="44.52796" lon="4.26459">
        <ele>374</ele>
        <time>2018-06-03T06:35:05.000Z</time>
      </trkpt>
      <trkpt lat="44.52798" lon="4.26457">
        <ele>375</ele>
        <time>2018-06-03T06:35:06.000Z</time>
      </trkpt>
      <trkpt lat="44.528" lon="4.26455">
        <ele>375</ele>
        <time>2018-06-03T06:35:07.000Z</time>
      </trkpt>
      <trkpt lat="44.52802" lon="4.26453">
        <ele>375</ele>
        <time>2018-06-03T06:35:08.000Z</time>
      </trkpt>
      <trkpt lat="44.52804" lon="4.26451">
        <ele>375</ele>
        <time>2018-06-03T06:35:09.000Z</time>
      </trkpt>
      <trkpt lat="44.52806" lon="4.26449">
        <ele>375</ele>
        <time>2018-06-03T06:35:10.000Z</time>
      </trkpt>
      <trkpt lat="44.52808" lon="4.26448">
        <ele>375</ele>
        <time>2018-06-03T06:35:11.000Z</time>
      </trkpt>
      <trkpt lat="44.5281" lon="4.26446">
        <ele>375</ele>
        <time>2018-06-03T06:35:12.000Z</time>
      </trkpt>
      <trkpt lat="44.52812" lon="4.26445">
        <ele>375</ele>
        <time>2018-06-03T06:35:13.000Z</time>
      </trkpt>
      <trkpt lat="44.52814" lon="4.26443">
        <ele>375</ele>
        <time>2018-06-03T06:35:14.000Z</time>
      </trkpt>
      <trkpt lat="44.52815" lon="4.2644">
        <ele>375</ele>
        <time>2018-06-03T06:35:15.000Z</time>
      </trkpt>
      <trkpt lat="44.52816" lon="4.26437">
        <ele>375</ele>
        <time>2018-06-03T06:35:16.000Z</time>
      </trkpt>
      <trkpt lat="44.52819" lon="4.26435">
        <ele>376</ele>
        <time>2018-06-03T06:35:17.000Z</time>
      </trkpt>
      <trkpt lat="44.52822" lon="4.26433">
        <ele>376</ele>
        <time>2018-06-03T06:35:18.000Z</time>
      </trkpt>
      <trkpt lat="44.52825" lon="4.26433">
        <ele>376</ele>
        <time>2018-06-03T06:35:19.000Z</time>
      </trkpt>
      <trkpt lat="44.52828" lon="4.26432">
        <ele>376</ele>
        <time>2018-06-03T06:35:20.000Z</time>
      </trkpt>
      <trkpt lat="44.52831" lon="4.26431">
        <ele>376</ele>
        <time>2018-06-03T06:35:21.000Z</time>
      </trkpt>
      <trkpt lat="44.52834" lon="4.26429">
        <ele>378</ele>
        <time>2018-06-03T06:35:22.000Z</time>
      </trkpt>
      <trkpt lat="44.52837" lon="4.26428">
        <ele>378</ele>
        <time>2018-06-03T06:35:23.000Z</time>
      </trkpt>
      <trkpt lat="44.5284" lon="4.26426">
        <ele>378</ele>
        <time>2018-06-03T06:35:24.000Z</time>
      </trkpt>
      <trkpt lat="44.52842" lon="4.26423">
        <ele>378</ele>
        <time>2018-06-03T06:35:25.000Z</time>
      </trkpt>
      <trkpt lat="44.52843" lon="4.26421">
        <ele>378</ele>
        <time>2018-06-03T06:35:26.000Z</time>
      </trkpt>
      <trkpt lat="44.52843" lon="4.26419">
        <ele>378</ele>
        <time>2018-06-03T06:35:27.000Z</time>
      </trkpt>
      <trkpt lat="44.52843" lon="4.26417">
        <ele>378</ele>
        <time>2018-06-03T06:35:28.000Z</time>
      </trkpt>
      <trkpt lat="44.52843" lon="4.26415">
        <ele>377</ele>
        <time>2018-06-03T06:35:29.000Z</time>
      </trkpt>
      <trkpt lat="44.52843" lon="4.26412">
        <ele>377</ele>
        <time>2018-06-03T06:35:30.000Z</time>
      </trkpt>
      <trkpt lat="44.52843" lon="4.26409">
        <ele>377</ele>
        <time>2018-06-03T06:35:31.000Z</time>
      </trkpt>
      <trkpt lat="44.52843" lon="4.26407">
        <ele>377</ele>
        <time>2018-06-03T06:35:32.000Z</time>
      </trkpt>
      <trkpt lat="44.52843" lon="4.26404">
        <ele>377</ele>
        <time>2018-06-03T06:35:33.000Z</time>
      </trkpt>
      <trkpt lat="44.52843" lon="4.26401">
        <ele>377</ele>
        <time>2018-06-03T06:35:34.000Z</time>
      </trkpt>
      <trkpt lat="44.52844" lon="4.26399">
        <ele>377</ele>
        <time>2018-06-03T06:35:35.000Z</time>
      </trkpt>
      <trkpt lat="44.52845" lon="4.26396">
        <ele>376</ele>
        <time>2018-06-03T06:35:36.000Z</time>
      </trkpt>
      <trkpt lat="44.52845" lon="4.26393">
        <ele>376</ele>
        <time>2018-06-03T06:35:37.000Z</time>
      </trkpt>
      <trkpt lat="44.52846" lon="4.2639">
        <ele>376</ele>
        <time>2018-06-03T06:35:38.000Z</time>
      </trkpt>
      <trkpt lat="44.52846" lon="4.26388">
        <ele>376</ele>
        <time>2018-06-03T06:35:39.000Z</time>
      </trkpt>
      <trkpt lat="44.52846" lon="4.26385">
        <ele>376</ele>
        <time>2018-06-03T06:35:40.000Z</time>
      </trkpt>
      <trkpt lat="44.52845" lon="4.26382">
        <ele>376</ele>
        <time>2018-06-03T06:35:41.000Z</time>
      </trkpt>
      <trkpt lat="44.52845" lon="4.26379">
        <ele>376</ele>
        <time>2018-06-03T06:35:42.000Z</time>
      </trkpt>
      <trkpt lat="44.52845" lon="4.26377">
        <ele>376</ele>
        <time>2018-06-03T06:35:43.000Z</time>
      </trkpt>
      <trkpt lat="44.52844" lon="4.26374">
        <ele>376</ele>
        <time>2018-06-03T06:35:44.000Z</time>
      </trkpt>
      <trkpt lat="44.52843" lon="4.26371">
        <ele>376</ele>
        <time>2018-06-03T06:35:45.000Z</time>
      </trkpt>
      <trkpt lat="44.52843" lon="4.26369">
        <ele>376</ele>
        <time>2018-06-03T06:35:46.000Z</time>
      </trkpt>
      <trkpt lat="44.52842" lon="4.26366">
        <ele>376</ele>
        <time>2018-06-03T06:35:47.000Z</time>
      </trkpt>
      <trkpt lat="44.52841" lon="4.26363">
        <ele>376</ele>
        <time>2018-06-03T06:35:48.000Z</time>
      </trkpt>
      <trkpt lat="44.52839" lon="4.26362">
        <ele>376</ele>
        <time>2018-06-03T06:35:49.000Z</time>
      </trkpt>
      <trkpt lat="44.52837" lon="4.26362">
        <ele>376</ele>
        <time>2018-06-03T06:35:50.000Z</time>
      </trkpt>
      <trkpt lat="44.52836" lon="4.26363">
        <ele>376</ele>
        <time>2018-06-03T06:35:51.000Z</time>
      </trkpt>
      <trkpt lat="44.52834" lon="4.26364">
        <ele>376</ele>
        <time>2018-06-03T06:35:52.000Z</time>
      </trkpt>
      <trkpt lat="44.52832" lon="4.26363">
        <ele>372</ele>
        <time>2018-06-03T06:35:53.000Z</time>
      </trkpt>
      <trkpt lat="44.5283" lon="4.2636">
        <ele>372</ele>
        <time>2018-06-03T06:35:54.000Z</time>
      </trkpt>
      <trkpt lat="44.52828" lon="4.26357">
        <ele>372</ele>
        <time>2018-06-03T06:35:55.000Z</time>
      </trkpt>
      <trkpt lat="44.52826" lon="4.26355">
        <ele>372</ele>
        <time>2018-06-03T06:35:56.000Z</time>
      </trkpt>
      <trkpt lat="44.52825" lon="4.26353">
        <ele>372</ele>
        <time>2018-06-03T06:35:57.000Z</time>
      </trkpt>
      <trkpt lat="44.52822" lon="4.26351">
        <ele>372</ele>
        <time>2018-06-03T06:35:58.000Z</time>
      </trkpt>
      <trkpt lat="44.5282" lon="4.26347">
        <ele>372</ele>
        <time>2018-06-03T06:35:59.000Z</time>
      </trkpt>
      <trkpt lat="44.52819" lon="4.26344">
        <ele>372</ele>
        <time>2018-06-03T06:36:00.000Z</time>
      </trkpt>
      <trkpt lat="44.52817" lon="4.2634">
        <ele>372</ele>
        <time>2018-06-03T06:36:01.000Z</time>
      </trkpt>
      <trkpt lat="44.52817" lon="4.26338">
        <ele>372</ele>
        <time>2018-06-03T06:36:02.000Z</time>
      </trkpt>
      <trkpt lat="44.52816" lon="4.26335">
        <ele>372</ele>
        <time>2018-06-03T06:36:03.000Z</time>
      </trkpt>
      <trkpt lat="44.52816" lon="4.26331">
        <ele>372</ele>
        <time>2018-06-03T06:36:04.000Z</time>
      </trkpt>
      <trkpt lat="44.52817" lon="4.26329">
        <ele>372</ele>
        <time>2018-06-03T06:36:05.000Z</time>
      </trkpt>
      <trkpt lat="44.52818" lon="4.26326">
        <ele>372</ele>
        <time>2018-06-03T06:36:06.000Z</time>
      </trkpt>
      <trkpt lat="44.5282" lon="4.26325">
        <ele>372</ele>
        <time>2018-06-03T06:36:07.000Z</time>
      </trkpt>
      <trkpt lat="44.52823" lon="4.26323">
        <ele>372</ele>
        <time>2018-06-03T06:36:08.000Z</time>
      </trkpt>
      <trkpt lat="44.52826" lon="4.26321">
        <ele>372</ele>
        <time>2018-06-03T06:36:09.000Z</time>
      </trkpt>
      <trkpt lat="44.52829" lon="4.26319">
        <ele>373</ele>
        <time>2018-06-03T06:36:10.000Z</time>
      </trkpt>
      <trkpt lat="44.52832" lon="4.26317">
        <ele>372</ele>
        <time>2018-06-03T06:36:11.000Z</time>
      </trkpt>
      <trkpt lat="44.52835" lon="4.26315">
        <ele>376</ele>
        <time>2018-06-03T06:36:12.000Z</time>
      </trkpt>
      <trkpt lat="44.52839" lon="4.26313">
        <ele>376</ele>
        <time>2018-06-03T06:36:13.000Z</time>
      </trkpt>
      <trkpt lat="44.52842" lon="4.26311">
        <ele>376</ele>
        <time>2018-06-03T06:36:14.000Z</time>
      </trkpt>
      <trkpt lat="44.52845" lon="4.26309">
        <ele>376</ele>
        <time>2018-06-03T06:36:15.000Z</time>
      </trkpt>
      <trkpt lat="44.52847" lon="4.26306">
        <ele>376</ele>
        <time>2018-06-03T06:36:16.000Z</time>
      </trkpt>
      <trkpt lat="44.52847" lon="4.26301">
        <ele>376</ele>
        <time>2018-06-03T06:36:17.000Z</time>
      </trkpt>
      <trkpt lat="44.52847" lon="4.26296">
        <ele>376</ele>
        <time>2018-06-03T06:36:18.000Z</time>
      </trkpt>
      <trkpt lat="44.52848" lon="4.26293">
        <ele>376</ele>
        <time>2018-06-03T06:36:19.000Z</time>
      </trkpt>
      <trkpt lat="44.52849" lon="4.2629">
        <ele>376</ele>
        <time>2018-06-03T06:36:20.000Z</time>
      </trkpt>
      <trkpt lat="44.5285" lon="4.26287">
        <ele>376</ele>
        <time>2018-06-03T06:36:21.000Z</time>
      </trkpt>
      <trkpt lat="44.52851" lon="4.26285">
        <ele>376</ele>
        <time>2018-06-03T06:36:22.000Z</time>
      </trkpt>
      <trkpt lat="44.52853" lon="4.26283">
        <ele>376</ele>
        <time>2018-06-03T06:36:23.000Z</time>
      </trkpt>
      <trkpt lat="44.52855" lon="4.26281">
        <ele>376</ele>
        <time>2018-06-03T06:36:24.000Z</time>
      </trkpt>
      <trkpt lat="44.52855" lon="4.26278">
        <ele>376</ele>
        <time>2018-06-03T06:36:25.000Z</time>
      </trkpt>
      <trkpt lat="44.52855" lon="4.26274">
        <ele>376</ele>
        <time>2018-06-03T06:36:26.000Z</time>
      </trkpt>
      <trkpt lat="44.52855" lon="4.2627">
        <ele>377</ele>
        <time>2018-06-03T06:36:27.000Z</time>
      </trkpt>
      <trkpt lat="44.52855" lon="4.26266">
        <ele>377</ele>
        <time>2018-06-03T06:36:28.000Z</time>
      </trkpt>
      <trkpt lat="44.52854" lon="4.26262">
        <ele>377</ele>
        <time>2018-06-03T06:36:29.000Z</time>
      </trkpt>
      <trkpt lat="44.52853" lon="4.26257">
        <ele>377</ele>
        <time>2018-06-03T06:36:30.000Z</time>
      </trkpt>
      <trkpt lat="44.52852" lon="4.26253">
        <ele>376</ele>
        <time>2018-06-03T06:36:31.000Z</time>
      </trkpt>
      <trkpt lat="44.5285" lon="4.26249">
        <ele>380</ele>
        <time>2018-06-03T06:36:32.000Z</time>
      </trkpt>
      <trkpt lat="44.5285" lon="4.26244">
        <ele>380</ele>
        <time>2018-06-03T06:36:33.000Z</time>
      </trkpt>
      <trkpt lat="44.52849" lon="4.2624">
        <ele>380</ele>
        <time>2018-06-03T06:36:34.000Z</time>
      </trkpt>
      <trkpt lat="44.52849" lon="4.26235">
        <ele>381</ele>
        <time>2018-06-03T06:36:35.000Z</time>
      </trkpt>
      <trkpt lat="44.52849" lon="4.26231">
        <ele>381</ele>
        <time>2018-06-03T06:36:36.000Z</time>
      </trkpt>
      <trkpt lat="44.52851" lon="4.26226">
        <ele>382</ele>
        <time>2018-06-03T06:36:37.000Z</time>
      </trkpt>
      <trkpt lat="44.52853" lon="4.26223">
        <ele>382</ele>
        <time>2018-06-03T06:36:38.000Z</time>
      </trkpt>
      <trkpt lat="44.52855" lon="4.2622">
        <ele>382</ele>
        <time>2018-06-03T06:36:39.000Z</time>
      </trkpt>
      <trkpt lat="44.52856" lon="4.26216">
        <ele>383</ele>
        <time>2018-06-03T06:36:40.000Z</time>
      </trkpt>
      <trkpt lat="44.52858" lon="4.26214">
        <ele>383</ele>
        <time>2018-06-03T06:36:41.000Z</time>
      </trkpt>
      <trkpt lat="44.52858" lon="4.26211">
        <ele>383</ele>
        <time>2018-06-03T06:36:42.000Z</time>
      </trkpt>
      <trkpt lat="44.5286" lon="4.26209">
        <ele>383</ele>
        <time>2018-06-03T06:36:43.000Z</time>
      </trkpt>
      <trkpt lat="44.52861" lon="4.26207">
        <ele>384</ele>
        <time>2018-06-03T06:36:44.000Z</time>
      </trkpt>
      <trkpt lat="44.52863" lon="4.26205">
        <ele>384</ele>
        <time>2018-06-03T06:36:45.000Z</time>
      </trkpt>
      <trkpt lat="44.52864" lon="4.26203">
        <ele>384</ele>
        <time>2018-06-03T06:36:46.000Z</time>
      </trkpt>
      <trkpt lat="44.52865" lon="4.26201">
        <ele>384</ele>
        <time>2018-06-03T06:36:47.000Z</time>
      </trkpt>
      <trkpt lat="44.52866" lon="4.26198">
        <ele>384</ele>
        <time>2018-06-03T06:36:48.000Z</time>
      </trkpt>
      <trkpt lat="44.52868" lon="4.26196">
        <ele>384</ele>
        <time>2018-06-03T06:36:49.000Z</time>
      </trkpt>
      <trkpt lat="44.52868" lon="4.26194">
        <ele>385</ele>
        <time>2018-06-03T06:36:50.000Z</time>
      </trkpt>
      <trkpt lat="44.52869" lon="4.26192">
        <ele>385</ele>
        <time>2018-06-03T06:36:51.000Z</time>
      </trkpt>
      <trkpt lat="44.5287" lon="4.2619">
        <ele>385</ele>
        <time>2018-06-03T06:36:52.000Z</time>
      </trkpt>
      <trkpt lat="44.52871" lon="4.26188">
        <ele>385</ele>
        <time>2018-06-03T06:36:53.000Z</time>
      </trkpt>
      <trkpt lat="44.52871" lon="4.26186">
        <ele>385</ele>
        <time>2018-06-03T06:36:54.000Z</time>
      </trkpt>
      <trkpt lat="44.52872" lon="4.26184">
        <ele>385</ele>
        <time>2018-06-03T06:36:55.000Z</time>
      </trkpt>
      <trkpt lat="44.52872" lon="4.26181">
        <ele>385</ele>
        <time>2018-06-03T06:36:56.000Z</time>
      </trkpt>
      <trkpt lat="44.52873" lon="4.2618">
        <ele>385</ele>
        <time>2018-06-03T06:36:57.000Z</time>
      </trkpt>
      <trkpt lat="44.52873" lon="4.26178">
        <ele>385</ele>
        <time>2018-06-03T06:36:58.000Z</time>
      </trkpt>
      <trkpt lat="44.52874" lon="4.26176">
        <ele>385</ele>
        <time>2018-06-03T06:36:59.000Z</time>
      </trkpt>
      <trkpt lat="44.52874" lon="4.26174">
        <ele>386</ele>
        <time>2018-06-03T06:37:00.000Z</time>
      </trkpt>
      <trkpt lat="44.52874" lon="4.26172">
        <ele>386</ele>
        <time>2018-06-03T06:37:01.000Z</time>
      </trkpt>
      <trkpt lat="44.52875" lon="4.2617">
        <ele>386</ele>
        <time>2018-06-03T06:37:02.000Z</time>
      </trkpt>
      <trkpt lat="44.52876" lon="4.26168">
        <ele>386</ele>
        <time>2018-06-03T06:37:03.000Z</time>
      </trkpt>
      <trkpt lat="44.52876" lon="4.26166">
        <ele>393</ele>
        <time>2018-06-03T06:37:04.000Z</time>
      </trkpt>
      <trkpt lat="44.52876" lon="4.26164">
        <ele>393</ele>
        <time>2018-06-03T06:37:05.000Z</time>
      </trkpt>
      <trkpt lat="44.52875" lon="4.26161">
        <ele>393</ele>
        <time>2018-06-03T06:37:06.000Z</time>
      </trkpt>
      <trkpt lat="44.52875" lon="4.26159">
        <ele>393</ele>
        <time>2018-06-03T06:37:07.000Z</time>
      </trkpt>
      <trkpt lat="44.52875" lon="4.26156">
        <ele>394</ele>
        <time>2018-06-03T06:37:08.000Z</time>
      </trkpt>
      <trkpt lat="44.52875" lon="4.26154">
        <ele>394</ele>
        <time>2018-06-03T06:37:09.000Z</time>
      </trkpt>
      <trkpt lat="44.52874" lon="4.26152">
        <ele>394</ele>
        <time>2018-06-03T06:37:10.000Z</time>
      </trkpt>
      <trkpt lat="44.52874" lon="4.2615">
        <ele>394</ele>
        <time>2018-06-03T06:37:11.000Z</time>
      </trkpt>
      <trkpt lat="44.52873" lon="4.26148">
        <ele>394</ele>
        <time>2018-06-03T06:37:12.000Z</time>
      </trkpt>
      <trkpt lat="44.52873" lon="4.26146">
        <ele>394</ele>
        <time>2018-06-03T06:37:13.000Z</time>
      </trkpt>
      <trkpt lat="44.52873" lon="4.26144">
        <ele>394</ele>
        <time>2018-06-03T06:37:14.000Z</time>
      </trkpt>
      <trkpt lat="44.52873" lon="4.26142">
        <ele>394</ele>
        <time>2018-06-03T06:37:15.000Z</time>
      </trkpt>
      <trkpt lat="44.52874" lon="4.2614">
        <ele>395</ele>
        <time>2018-06-03T06:37:16.000Z</time>
      </trkpt>
      <trkpt lat="44.52874" lon="4.26138">
        <ele>395</ele>
        <time>2018-06-03T06:37:17.000Z</time>
      </trkpt>
      <trkpt lat="44.52874" lon="4.26136">
        <ele>395</ele>
        <time>2018-06-03T06:37:18.000Z</time>
      </trkpt>
      <trkpt lat="44.52875" lon="4.26134">
        <ele>395</ele>
        <time>2018-06-03T06:37:19.000Z</time>
      </trkpt>
      <trkpt lat="44.52875" lon="4.26132">
        <ele>395</ele>
        <time>2018-06-03T06:37:20.000Z</time>
      </trkpt>
      <trkpt lat="44.52876" lon="4.2613">
        <ele>395</ele>
        <time>2018-06-03T06:37:21.000Z</time>
      </trkpt>
      <trkpt lat="44.52876" lon="4.26127">
        <ele>396</ele>
        <time>2018-06-03T06:37:22.000Z</time>
      </trkpt>
      <trkpt lat="44.52876" lon="4.26125">
        <ele>396</ele>
        <time>2018-06-03T06:37:23.000Z</time>
      </trkpt>
      <trkpt lat="44.52877" lon="4.26123">
        <ele>396</ele>
        <time>2018-06-03T06:37:24.000Z</time>
      </trkpt>
      <trkpt lat="44.52877" lon="4.26121">
        <ele>396</ele>
        <time>2018-06-03T06:37:25.000Z</time>
      </trkpt>
      <trkpt lat="44.52878" lon="4.26119">
        <ele>396</ele>
        <time>2018-06-03T06:37:26.000Z</time>
      </trkpt>
      <trkpt lat="44.52878" lon="4.26117">
        <ele>396</ele>
        <time>2018-06-03T06:37:27.000Z</time>
      </trkpt>
      <trkpt lat="44.52877" lon="4.26115">
        <ele>397</ele>
        <time>2018-06-03T06:37:28.000Z</time>
      </trkpt>
      <trkpt lat="44.52877" lon="4.26113">
        <ele>397</ele>
        <time>2018-06-03T06:37:29.000Z</time>
      </trkpt>
      <trkpt lat="44.52876" lon="4.26113">
        <ele>397</ele>
        <time>2018-06-03T06:37:30.000Z</time>
      </trkpt>
      <trkpt lat="44.52874" lon="4.26113">
        <ele>397</ele>
        <time>2018-06-03T06:37:31.000Z</time>
      </trkpt>
      <trkpt lat="44.52872" lon="4.26113">
        <ele>397</ele>
        <time>2018-06-03T06:37:32.000Z</time>
      </trkpt>
      <trkpt lat="44.52871" lon="4.26113">
        <ele>397</ele>
        <time>2018-06-03T06:37:33.000Z</time>
      </trkpt>
      <trkpt lat="44.52869" lon="4.26113">
        <ele>397</ele>
        <time>2018-06-03T06:37:34.000Z</time>
      </trkpt>
      <trkpt lat="44.52866" lon="4.26113">
        <ele>397</ele>
        <time>2018-06-03T06:37:35.000Z</time>
      </trkpt>
      <trkpt lat="44.52864" lon="4.26112">
        <ele>397</ele>
        <time>2018-06-03T06:37:36.000Z</time>
      </trkpt>
      <trkpt lat="44.52862" lon="4.26111">
        <ele>397</ele>
        <time>2018-06-03T06:37:37.000Z</time>
      </trkpt>
      <trkpt lat="44.52859" lon="4.26111">
        <ele>397</ele>
        <time>2018-06-03T06:37:38.000Z</time>
      </trkpt>
      <trkpt lat="44.52857" lon="4.2611">
        <ele>397</ele>
        <time>2018-06-03T06:37:39.000Z</time>
      </trkpt>
      <trkpt lat="44.52855" lon="4.26109">
        <ele>398</ele>
        <time>2018-06-03T06:37:40.000Z</time>
      </trkpt>
      <trkpt lat="44.52853" lon="4.26108">
        <ele>398</ele>
        <time>2018-06-03T06:37:41.000Z</time>
      </trkpt>
      <trkpt lat="44.5285" lon="4.26107">
        <ele>398</ele>
        <time>2018-06-03T06:37:42.000Z</time>
      </trkpt>
      <trkpt lat="44.52848" lon="4.26107">
        <ele>398</ele>
        <time>2018-06-03T06:37:43.000Z</time>
      </trkpt>
      <trkpt lat="44.52845" lon="4.26107">
        <ele>398</ele>
        <time>2018-06-03T06:37:44.000Z</time>
      </trkpt>
      <trkpt lat="44.52842" lon="4.26107">
        <ele>398</ele>
        <time>2018-06-03T06:37:45.000Z</time>
      </trkpt>
      <trkpt lat="44.5284" lon="4.26106">
        <ele>399</ele>
        <time>2018-06-03T06:37:46.000Z</time>
      </trkpt>
      <trkpt lat="44.52837" lon="4.26105">
        <ele>399</ele>
        <time>2018-06-03T06:37:47.000Z</time>
      </trkpt>
      <trkpt lat="44.52835" lon="4.26105">
        <ele>399</ele>
        <time>2018-06-03T06:37:48.000Z</time>
      </trkpt>
      <trkpt lat="44.52833" lon="4.26104">
        <ele>398</ele>
        <time>2018-06-03T06:37:49.000Z</time>
      </trkpt>
      <trkpt lat="44.52831" lon="4.26104">
        <ele>398</ele>
        <time>2018-06-03T06:37:50.000Z</time>
      </trkpt>
      <trkpt lat="44.5283" lon="4.26103">
        <ele>398</ele>
        <time>2018-06-03T06:37:51.000Z</time>
      </trkpt>
      <trkpt lat="44.52828" lon="4.26102">
        <ele>398</ele>
        <time>2018-06-03T06:37:52.000Z</time>
      </trkpt>
      <trkpt lat="44.52827" lon="4.26101">
        <ele>398</ele>
        <time>2018-06-03T06:37:53.000Z</time>
      </trkpt>
      <trkpt lat="44.52825" lon="4.261">
        <ele>398</ele>
        <time>2018-06-03T06:37:54.000Z</time>
      </trkpt>
      <trkpt lat="44.52823" lon="4.26099">
        <ele>399</ele>
        <time>2018-06-03T06:37:55.000Z</time>
      </trkpt>
      <trkpt lat="44.52821" lon="4.26098">
        <ele>399</ele>
        <time>2018-06-03T06:37:56.000Z</time>
      </trkpt>
      <trkpt lat="44.5282" lon="4.26096">
        <ele>399</ele>
        <time>2018-06-03T06:37:57.000Z</time>
      </trkpt>
      <trkpt lat="44.52818" lon="4.26094">
        <ele>399</ele>
        <time>2018-06-03T06:37:58.000Z</time>
      </trkpt>
      <trkpt lat="44.52817" lon="4.26093">
        <ele>399</ele>
        <time>2018-06-03T06:37:59.000Z</time>
      </trkpt>
      <trkpt lat="44.52816" lon="4.26091">
        <ele>399</ele>
        <time>2018-06-03T06:38:00.000Z</time>
      </trkpt>
      <trkpt lat="44.52815" lon="4.2609">
        <ele>399</ele>
        <time>2018-06-03T06:38:01.000Z</time>
      </trkpt>
      <trkpt lat="44.52814" lon="4.26089">
        <ele>399</ele>
        <time>2018-06-03T06:38:02.000Z</time>
      </trkpt>
      <trkpt lat="44.52813" lon="4.26087">
        <ele>399</ele>
        <time>2018-06-03T06:38:03.000Z</time>
      </trkpt>
      <trkpt lat="44.52813" lon="4.26085">
        <ele>399</ele>
        <time>2018-06-03T06:38:04.000Z</time>
      </trkpt>
      <trkpt lat="44.52812" lon="4.26084">
        <ele>399</ele>
        <time>2018-06-03T06:38:05.000Z</time>
      </trkpt>
      <trkpt lat="44.52811" lon="4.26081">
        <ele>404</ele>
        <time>2018-06-03T06:38:06.000Z</time>
      </trkpt>
      <trkpt lat="44.5281" lon="4.26079">
        <ele>404</ele>
        <time>2018-06-03T06:38:07.000Z</time>
      </trkpt>
      <trkpt lat="44.5281" lon="4.26077">
        <ele>404</ele>
        <time>2018-06-03T06:38:08.000Z</time>
      </trkpt>
      <trkpt lat="44.5281" lon="4.26075">
        <ele>404</ele>
        <time>2018-06-03T06:38:09.000Z</time>
      </trkpt>
      <trkpt lat="44.5281" lon="4.26073">
        <ele>404</ele>
        <time>2018-06-03T06:38:10.000Z</time>
      </trkpt>
      <trkpt lat="44.52809" lon="4.26071">
        <ele>404</ele>
        <time>2018-06-03T06:38:11.000Z</time>
      </trkpt>
      <trkpt lat="44.52808" lon="4.26069">
        <ele>404</ele>
        <time>2018-06-03T06:38:12.000Z</time>
      </trkpt>
      <trkpt lat="44.52807" lon="4.26067">
        <ele>404</ele>
        <time>2018-06-03T06:38:13.000Z</time>
      </trkpt>
      <trkpt lat="44.52806" lon="4.26064">
        <ele>404</ele>
        <time>2018-06-03T06:38:14.000Z</time>
      </trkpt>
      <trkpt lat="44.52805" lon="4.26062">
        <ele>404</ele>
        <time>2018-06-03T06:38:15.000Z</time>
      </trkpt>
      <trkpt lat="44.52804" lon="4.2606">
        <ele>404</ele>
        <time>2018-06-03T06:38:16.000Z</time>
      </trkpt>
      <trkpt lat="44.52804" lon="4.26059">
        <ele>404</ele>
        <time>2018-06-03T06:38:17.000Z</time>
      </trkpt>
      <trkpt lat="44.52803" lon="4.26057">
        <ele>404</ele>
        <time>2018-06-03T06:38:18.000Z</time>
      </trkpt>
      <trkpt lat="44.52803" lon="4.26055">
        <ele>404</ele>
        <time>2018-06-03T06:38:19.000Z</time>
      </trkpt>
      <trkpt lat="44.52802" lon="4.26052">
        <ele>404</ele>
        <time>2018-06-03T06:38:20.000Z</time>
      </trkpt>
      <trkpt lat="44.52802" lon="4.26051">
        <ele>404</ele>
        <time>2018-06-03T06:38:21.000Z</time>
      </trkpt>
      <trkpt lat="44.52802" lon="4.26048">
        <ele>404</ele>
        <time>2018-06-03T06:38:22.000Z</time>
      </trkpt>
      <trkpt lat="44.52801" lon="4.26046">
        <ele>404</ele>
        <time>2018-06-03T06:38:23.000Z</time>
      </trkpt>
      <trkpt lat="44.52801" lon="4.26044">
        <ele>404</ele>
        <time>2018-06-03T06:38:24.000Z</time>
      </trkpt>
      <trkpt lat="44.52801" lon="4.26042">
        <ele>404</ele>
        <time>2018-06-03T06:38:25.000Z</time>
      </trkpt>
      <trkpt lat="44.52802" lon="4.2604">
        <ele>404</ele>
        <time>2018-06-03T06:38:26.000Z</time>
      </trkpt>
      <trkpt lat="44.52803" lon="4.26037">
        <ele>404</ele>
        <time>2018-06-03T06:38:27.000Z</time>
      </trkpt>
      <trkpt lat="44.52805" lon="4.26035">
        <ele>404</ele>
        <time>2018-06-03T06:38:28.000Z</time>
      </trkpt>
      <trkpt lat="44.52807" lon="4.26033">
        <ele>404</ele>
        <time>2018-06-03T06:38:29.000Z</time>
      </trkpt>
      <trkpt lat="44.52809" lon="4.26031">
        <ele>404</ele>
        <time>2018-06-03T06:38:30.000Z</time>
      </trkpt>
      <trkpt lat="44.52811" lon="4.26029">
        <ele>404</ele>
        <time>2018-06-03T06:38:31.000Z</time>
      </trkpt>
      <trkpt lat="44.52813" lon="4.26027">
        <ele>405</ele>
        <time>2018-06-03T06:38:32.000Z</time>
      </trkpt>
      <trkpt lat="44.52815" lon="4.26025">
        <ele>405</ele>
        <time>2018-06-03T06:38:33.000Z</time>
      </trkpt>
      <trkpt lat="44.52817" lon="4.26023">
        <ele>405</ele>
        <time>2018-06-03T06:38:34.000Z</time>
      </trkpt>
      <trkpt lat="44.5282" lon="4.26021">
        <ele>405</ele>
        <time>2018-06-03T06:38:35.000Z</time>
      </trkpt>
      <trkpt lat="44.52822" lon="4.26019">
        <ele>405</ele>
        <time>2018-06-03T06:38:36.000Z</time>
      </trkpt>
      <trkpt lat="44.52824" lon="4.26018">
        <ele>406</ele>
        <time>2018-06-03T06:38:37.000Z</time>
      </trkpt>
      <trkpt lat="44.52826" lon="4.26017">
        <ele>406</ele>
        <time>2018-06-03T06:38:38.000Z</time>
      </trkpt>
      <trkpt lat="44.52828" lon="4.26015">
        <ele>406</ele>
        <time>2018-06-03T06:38:39.000Z</time>
      </trkpt>
      <trkpt lat="44.5283" lon="4.26014">
        <ele>406</ele>
        <time>2018-06-03T06:38:40.000Z</time>
      </trkpt>
      <trkpt lat="44.52832" lon="4.26014">
        <ele>406</ele>
        <time>2018-06-03T06:38:41.000Z</time>
      </trkpt>
      <trkpt lat="44.52834" lon="4.26014">
        <ele>406</ele>
        <time>2018-06-03T06:38:42.000Z</time>
      </trkpt>
      <trkpt lat="44.52837" lon="4.26015">
        <ele>406</ele>
        <time>2018-06-03T06:38:43.000Z</time>
      </trkpt>
      <trkpt lat="44.52839" lon="4.26015">
        <ele>406</ele>
        <time>2018-06-03T06:38:44.000Z</time>
      </trkpt>
      <trkpt lat="44.52842" lon="4.26017">
        <ele>406</ele>
        <time>2018-06-03T06:38:45.000Z</time>
      </trkpt>
      <trkpt lat="44.52844" lon="4.26017">
        <ele>406</ele>
        <time>2018-06-03T06:38:46.000Z</time>
      </trkpt>
      <trkpt lat="44.52847" lon="4.26018">
        <ele>406</ele>
        <time>2018-06-03T06:38:47.000Z</time>
      </trkpt>
      <trkpt lat="44.5285" lon="4.26019">
        <ele>406</ele>
        <time>2018-06-03T06:38:48.000Z</time>
      </trkpt>
      <trkpt lat="44.52853" lon="4.2602">
        <ele>405</ele>
        <time>2018-06-03T06:38:49.000Z</time>
      </trkpt>
      <trkpt lat="44.52856" lon="4.26019">
        <ele>405</ele>
        <time>2018-06-03T06:38:50.000Z</time>
      </trkpt>
      <trkpt lat="44.52859" lon="4.26018">
        <ele>405</ele>
        <time>2018-06-03T06:38:51.000Z</time>
      </trkpt>
      <trkpt lat="44.52861" lon="4.26015">
        <ele>405</ele>
        <time>2018-06-03T06:38:52.000Z</time>
      </trkpt>
      <trkpt lat="44.52862" lon="4.26012">
        <ele>405</ele>
        <time>2018-06-03T06:38:53.000Z</time>
      </trkpt>
      <trkpt lat="44.52862" lon="4.26008">
        <ele>405</ele>
        <time>2018-06-03T06:38:54.000Z</time>
      </trkpt>
      <trkpt lat="44.52863" lon="4.26004">
        <ele>405</ele>
        <time>2018-06-03T06:38:55.000Z</time>
      </trkpt>
      <trkpt lat="44.52863" lon="4.26001">
        <ele>405</ele>
        <time>2018-06-03T06:38:56.000Z</time>
      </trkpt>
      <trkpt lat="44.52863" lon="4.25997">
        <ele>406</ele>
        <time>2018-06-03T06:38:57.000Z</time>
      </trkpt>
      <trkpt lat="44.52864" lon="4.25993">
        <ele>406</ele>
        <time>2018-06-03T06:38:58.000Z</time>
      </trkpt>
      <trkpt lat="44.52864" lon="4.2599">
        <ele>405</ele>
        <time>2018-06-03T06:38:59.000Z</time>
      </trkpt>
      <trkpt lat="44.52865" lon="4.25987">
        <ele>405</ele>
        <time>2018-06-03T06:39:00.000Z</time>
      </trkpt>
      <trkpt lat="44.52866" lon="4.25984">
        <ele>405</ele>
        <time>2018-06-03T06:39:01.000Z</time>
      </trkpt>
      <trkpt lat="44.52866" lon="4.2598">
        <ele>405</ele>
        <time>2018-06-03T06:39:02.000Z</time>
      </trkpt>
      <trkpt lat="44.52867" lon="4.25977">
        <ele>405</ele>
        <time>2018-06-03T06:39:03.000Z</time>
      </trkpt>
      <trkpt lat="44.52868" lon="4.25973">
        <ele>405</ele>
        <time>2018-06-03T06:39:04.000Z</time>
      </trkpt>
      <trkpt lat="44.52868" lon="4.2597">
        <ele>405</ele>
        <time>2018-06-03T06:39:05.000Z</time>
      </trkpt>
      <trkpt lat="44.52869" lon="4.25966">
        <ele>405</ele>
        <time>2018-06-03T06:39:06.000Z</time>
      </trkpt>
      <trkpt lat="44.52869" lon="4.25963">
        <ele>405</ele>
        <time>2018-06-03T06:39:07.000Z</time>
      </trkpt>
      <trkpt lat="44.5287" lon="4.25959">
        <ele>405</ele>
        <time>2018-06-03T06:39:08.000Z</time>
      </trkpt>
      <trkpt lat="44.52871" lon="4.25955">
        <ele>405</ele>
        <time>2018-06-03T06:39:09.000Z</time>
      </trkpt>
      <trkpt lat="44.52872" lon="4.25951">
        <ele>405</ele>
        <time>2018-06-03T06:39:10.000Z</time>
      </trkpt>
      <trkpt lat="44.52874" lon="4.25946">
        <ele>405</ele>
        <time>2018-06-03T06:39:11.000Z</time>
      </trkpt>
      <trkpt lat="44.52875" lon="4.25941">
        <ele>404</ele>
        <time>2018-06-03T06:39:12.000Z</time>
      </trkpt>
      <trkpt lat="44.52877" lon="4.25937">
        <ele>404</ele>
        <time>2018-06-03T06:39:13.000Z</time>
      </trkpt>
      <trkpt lat="44.52879" lon="4.25936">
        <ele>404</ele>
        <time>2018-06-03T06:39:14.000Z</time>
      </trkpt>
      <trkpt lat="44.52882" lon="4.25935">
        <ele>405</ele>
        <time>2018-06-03T06:39:15.000Z</time>
      </trkpt>
      <trkpt lat="44.52887" lon="4.25933">
        <ele>405</ele>
        <time>2018-06-03T06:39:16.000Z</time>
      </trkpt>
      <trkpt lat="44.52891" lon="4.2593">
        <ele>405</ele>
        <time>2018-06-03T06:39:17.000Z</time>
      </trkpt>
      <trkpt lat="44.52893" lon="4.25925">
        <ele>405</ele>
        <time>2018-06-03T06:39:18.000Z</time>
      </trkpt>
      <trkpt lat="44.52894" lon="4.2592">
        <ele>405</ele>
        <time>2018-06-03T06:39:19.000Z</time>
      </trkpt>
      <trkpt lat="44.52894" lon="4.25915">
        <ele>404</ele>
        <time>2018-06-03T06:39:20.000Z</time>
      </trkpt>
      <trkpt lat="44.52895" lon="4.25908">
        <ele>404</ele>
        <time>2018-06-03T06:39:21.000Z</time>
      </trkpt>
      <trkpt lat="44.52894" lon="4.25902">
        <ele>404</ele>
        <time>2018-06-03T06:39:22.000Z</time>
      </trkpt>
      <trkpt lat="44.52895" lon="4.25895">
        <ele>404</ele>
        <time>2018-06-03T06:39:23.000Z</time>
      </trkpt>
      <trkpt lat="44.52895" lon="4.2589">
        <ele>403</ele>
        <time>2018-06-03T06:39:24.000Z</time>
      </trkpt>
      <trkpt lat="44.52896" lon="4.25884">
        <ele>403</ele>
        <time>2018-06-03T06:39:25.000Z</time>
      </trkpt>
      <trkpt lat="44.52896" lon="4.25878">
        <ele>403</ele>
        <time>2018-06-03T06:39:26.000Z</time>
      </trkpt>
      <trkpt lat="44.52896" lon="4.25872">
        <ele>403</ele>
        <time>2018-06-03T06:39:27.000Z</time>
      </trkpt>
      <trkpt lat="44.52896" lon="4.25866">
        <ele>403</ele>
        <time>2018-06-03T06:39:28.000Z</time>
      </trkpt>
      <trkpt lat="44.52896" lon="4.2586">
        <ele>403</ele>
        <time>2018-06-03T06:39:29.000Z</time>
      </trkpt>
      <trkpt lat="44.52895" lon="4.25854">
        <ele>404</ele>
        <time>2018-06-03T06:39:30.000Z</time>
      </trkpt>
      <trkpt lat="44.52894" lon="4.25848">
        <ele>404</ele>
        <time>2018-06-03T06:39:31.000Z</time>
      </trkpt>
      <trkpt lat="44.52892" lon="4.25843">
        <ele>404</ele>
        <time>2018-06-03T06:39:32.000Z</time>
      </trkpt>
      <trkpt lat="44.52891" lon="4.25837">
        <ele>404</ele>
        <time>2018-06-03T06:39:33.000Z</time>
      </trkpt>
      <trkpt lat="44.5289" lon="4.25833">
        <ele>405</ele>
        <time>2018-06-03T06:39:34.000Z</time>
      </trkpt>
      <trkpt lat="44.52891" lon="4.2583">
        <ele>405</ele>
        <time>2018-06-03T06:39:35.000Z</time>
      </trkpt>
      <trkpt lat="44.52893" lon="4.25827">
        <ele>405</ele>
        <time>2018-06-03T06:39:36.000Z</time>
      </trkpt>
      <trkpt lat="44.52894" lon="4.25827">
        <ele>405</ele>
        <time>2018-06-03T06:39:37.000Z</time>
      </trkpt>
      <trkpt lat="44.52896" lon="4.25827">
        <ele>405</ele>
        <time>2018-06-03T06:39:38.000Z</time>
      </trkpt>
      <trkpt lat="44.52899" lon="4.25826">
        <ele>405</ele>
        <time>2018-06-03T06:39:39.000Z</time>
      </trkpt>
      <trkpt lat="44.52902" lon="4.25825">
        <ele>405</ele>
        <time>2018-06-03T06:39:40.000Z</time>
      </trkpt>
      <trkpt lat="44.52905" lon="4.25823">
        <ele>405</ele>
        <time>2018-06-03T06:39:41.000Z</time>
      </trkpt>
      <trkpt lat="44.52908" lon="4.25821">
        <ele>406</ele>
        <time>2018-06-03T06:39:42.000Z</time>
      </trkpt>
      <trkpt lat="44.52911" lon="4.25819">
        <ele>406</ele>
        <time>2018-06-03T06:39:43.000Z</time>
      </trkpt>
      <trkpt lat="44.52915" lon="4.25816">
        <ele>406</ele>
        <time>2018-06-03T06:39:44.000Z</time>
      </trkpt>
      <trkpt lat="44.52918" lon="4.25814">
        <ele>406</ele>
        <time>2018-06-03T06:39:45.000Z</time>
      </trkpt>
      <trkpt lat="44.52921" lon="4.2581">
        <ele>406</ele>
        <time>2018-06-03T06:39:46.000Z</time>
      </trkpt>
      <trkpt lat="44.52923" lon="4.25805">
        <ele>406</ele>
        <time>2018-06-03T06:39:47.000Z</time>
      </trkpt>
      <trkpt lat="44.52924" lon="4.258">
        <ele>406</ele>
        <time>2018-06-03T06:39:48.000Z</time>
      </trkpt>
      <trkpt lat="44.52925" lon="4.25796">
        <ele>406</ele>
        <time>2018-06-03T06:39:49.000Z</time>
      </trkpt>
      <trkpt lat="44.52925" lon="4.25793">
        <ele>406</ele>
        <time>2018-06-03T06:39:50.000Z</time>
      </trkpt>
      <trkpt lat="44.52926" lon="4.2579">
        <ele>407</ele>
        <time>2018-06-03T06:39:51.000Z</time>
      </trkpt>
      <trkpt lat="44.52927" lon="4.25787">
        <ele>407</ele>
        <time>2018-06-03T06:39:52.000Z</time>
      </trkpt>
      <trkpt lat="44.52928" lon="4.25784">
        <ele>407</ele>
        <time>2018-06-03T06:39:53.000Z</time>
      </trkpt>
      <trkpt lat="44.52929" lon="4.25781">
        <ele>407</ele>
        <time>2018-06-03T06:39:54.000Z</time>
      </trkpt>
      <trkpt lat="44.5293" lon="4.25778">
        <ele>407</ele>
        <time>2018-06-03T06:39:55.000Z</time>
      </trkpt>
      <trkpt lat="44.5293" lon="4.25775">
        <ele>408</ele>
        <time>2018-06-03T06:39:56.000Z</time>
      </trkpt>
      <trkpt lat="44.52931" lon="4.25772">
        <ele>408</ele>
        <time>2018-06-03T06:39:57.000Z</time>
      </trkpt>
      <trkpt lat="44.52931" lon="4.2577">
        <ele>408</ele>
        <time>2018-06-03T06:39:58.000Z</time>
      </trkpt>
      <trkpt lat="44.52932" lon="4.25768">
        <ele>408</ele>
        <time>2018-06-03T06:39:59.000Z</time>
      </trkpt>
      <trkpt lat="44.52934" lon="4.25765">
        <ele>408</ele>
        <time>2018-06-03T06:40:00.000Z</time>
      </trkpt>
      <trkpt lat="44.52935" lon="4.25762">
        <ele>408</ele>
        <time>2018-06-03T06:40:01.000Z</time>
      </trkpt>
      <trkpt lat="44.52936" lon="4.25759">
        <ele>409</ele>
        <time>2018-06-03T06:40:02.000Z</time>
      </trkpt>
      <trkpt lat="44.52938" lon="4.25756">
        <ele>409</ele>
        <time>2018-06-03T06:40:03.000Z</time>
      </trkpt>
      <trkpt lat="44.5294" lon="4.25754">
        <ele>408</ele>
        <time>2018-06-03T06:40:04.000Z</time>
      </trkpt>
      <trkpt lat="44.52941" lon="4.25751">
        <ele>408</ele>
        <time>2018-06-03T06:40:05.000Z</time>
      </trkpt>
      <trkpt lat="44.52943" lon="4.25748">
        <ele>412</ele>
        <time>2018-06-03T06:40:06.000Z</time>
      </trkpt>
      <trkpt lat="44.52944" lon="4.25745">
        <ele>412</ele>
        <time>2018-06-03T06:40:07.000Z</time>
      </trkpt>
      <trkpt lat="44.52945" lon="4.25742">
        <ele>412</ele>
        <time>2018-06-03T06:40:08.000Z</time>
      </trkpt>
      <trkpt lat="44.52947" lon="4.25739">
        <ele>412</ele>
        <time>2018-06-03T06:40:09.000Z</time>
      </trkpt>
      <trkpt lat="44.52947" lon="4.25736">
        <ele>412</ele>
        <time>2018-06-03T06:40:10.000Z</time>
      </trkpt>
      <trkpt lat="44.52947" lon="4.25733">
        <ele>412</ele>
        <time>2018-06-03T06:40:11.000Z</time>
      </trkpt>
      <trkpt lat="44.52948" lon="4.25731">
        <ele>412</ele>
        <time>2018-06-03T06:40:12.000Z</time>
      </trkpt>
      <trkpt lat="44.52948" lon="4.25728">
        <ele>412</ele>
        <time>2018-06-03T06:40:13.000Z</time>
      </trkpt>
      <trkpt lat="44.52948" lon="4.25726">
        <ele>412</ele>
        <time>2018-06-03T06:40:14.000Z</time>
      </trkpt>
      <trkpt lat="44.52948" lon="4.25723">
        <ele>412</ele>
        <time>2018-06-03T06:40:15.000Z</time>
      </trkpt>
      <trkpt lat="44.52948" lon="4.2572">
        <ele>412</ele>
        <time>2018-06-03T06:40:16.000Z</time>
      </trkpt>
      <trkpt lat="44.52948" lon="4.25718">
        <ele>412</ele>
        <time>2018-06-03T06:40:17.000Z</time>
      </trkpt>
      <trkpt lat="44.52947" lon="4.25715">
        <ele>412</ele>
        <time>2018-06-03T06:40:18.000Z</time>
      </trkpt>
      <trkpt lat="44.52947" lon="4.25713">
        <ele>413</ele>
        <time>2018-06-03T06:40:19.000Z</time>
      </trkpt>
      <trkpt lat="44.52947" lon="4.2571">
        <ele>413</ele>
        <time>2018-06-03T06:40:20.000Z</time>
      </trkpt>
      <trkpt lat="44.52947" lon="4.25707">
        <ele>413</ele>
        <time>2018-06-03T06:40:21.000Z</time>
      </trkpt>
      <trkpt lat="44.52946" lon="4.25704">
        <ele>413</ele>
        <time>2018-06-03T06:40:22.000Z</time>
      </trkpt>
      <trkpt lat="44.52945" lon="4.25701">
        <ele>413</ele>
        <time>2018-06-03T06:40:23.000Z</time>
      </trkpt>
      <trkpt lat="44.52945" lon="4.25697">
        <ele>413</ele>
        <time>2018-06-03T06:40:24.000Z</time>
      </trkpt>
      <trkpt lat="44.52945" lon="4.25695">
        <ele>413</ele>
        <time>2018-06-03T06:40:25.000Z</time>
      </trkpt>
      <trkpt lat="44.52944" lon="4.25693">
        <ele>413</ele>
        <time>2018-06-03T06:40:26.000Z</time>
      </trkpt>
      <trkpt lat="44.52944" lon="4.2569">
        <ele>413</ele>
        <time>2018-06-03T06:40:27.000Z</time>
      </trkpt>
      <trkpt lat="44.52944" lon="4.25687">
        <ele>414</ele>
        <time>2018-06-03T06:40:28.000Z</time>
      </trkpt>
      <trkpt lat="44.52943" lon="4.25684">
        <ele>414</ele>
        <time>2018-06-03T06:40:29.000Z</time>
      </trkpt>
      <trkpt lat="44.52943" lon="4.25681">
        <ele>414</ele>
        <time>2018-06-03T06:40:30.000Z</time>
      </trkpt>
      <trkpt lat="44.52942" lon="4.25678">
        <ele>414</ele>
        <time>2018-06-03T06:40:31.000Z</time>
      </trkpt>
      <trkpt lat="44.52942" lon="4.25675">
        <ele>414</ele>
        <time>2018-06-03T06:40:32.000Z</time>
      </trkpt>
      <trkpt lat="44.52942" lon="4.25671">
        <ele>414</ele>
        <time>2018-06-03T06:40:33.000Z</time>
      </trkpt>
      <trkpt lat="44.52942" lon="4.25667">
        <ele>414</ele>
        <time>2018-06-03T06:40:34.000Z</time>
      </trkpt>
      <trkpt lat="44.52942" lon="4.25664">
        <ele>417</ele>
        <time>2018-06-03T06:40:35.000Z</time>
      </trkpt>
      <trkpt lat="44.52943" lon="4.25661">
        <ele>417</ele>
        <time>2018-06-03T06:40:36.000Z</time>
      </trkpt>
      <trkpt lat="44.52943" lon="4.25658">
        <ele>417</ele>
        <time>2018-06-03T06:40:37.000Z</time>
      </trkpt>
      <trkpt lat="44.52944" lon="4.25655">
        <ele>417</ele>
        <time>2018-06-03T06:40:38.000Z</time>
      </trkpt>
      <trkpt lat="44.52944" lon="4.25652">
        <ele>417</ele>
        <time>2018-06-03T06:40:39.000Z</time>
      </trkpt>
      <trkpt lat="44.52945" lon="4.25649">
        <ele>417</ele>
        <time>2018-06-03T06:40:40.000Z</time>
      </trkpt>
      <trkpt lat="44.52945" lon="4.25646">
        <ele>417</ele>
        <time>2018-06-03T06:40:41.000Z</time>
      </trkpt>
      <trkpt lat="44.52946" lon="4.25643">
        <ele>417</ele>
        <time>2018-06-03T06:40:42.000Z</time>
      </trkpt>
      <trkpt lat="44.52946" lon="4.2564">
        <ele>417</ele>
        <time>2018-06-03T06:40:43.000Z</time>
      </trkpt>
      <trkpt lat="44.52946" lon="4.25636">
        <ele>417</ele>
        <time>2018-06-03T06:40:44.000Z</time>
      </trkpt>
      <trkpt lat="44.52946" lon="4.25633">
        <ele>417</ele>
        <time>2018-06-03T06:40:45.000Z</time>
      </trkpt>
      <trkpt lat="44.52947" lon="4.25629">
        <ele>417</ele>
        <time>2018-06-03T06:40:46.000Z</time>
      </trkpt>
      <trkpt lat="44.52947" lon="4.25626">
        <ele>417</ele>
        <time>2018-06-03T06:40:47.000Z</time>
      </trkpt>
      <trkpt lat="44.52948" lon="4.25622">
        <ele>417</ele>
        <time>2018-06-03T06:40:48.000Z</time>
      </trkpt>
      <trkpt lat="44.52948" lon="4.25618">
        <ele>417</ele>
        <time>2018-06-03T06:40:49.000Z</time>
      </trkpt>
      <trkpt lat="44.52948" lon="4.25614">
        <ele>417</ele>
        <time>2018-06-03T06:40:50.000Z</time>
      </trkpt>
      <trkpt lat="44.52949" lon="4.2561">
        <ele>417</ele>
        <time>2018-06-03T06:40:51.000Z</time>
      </trkpt>
      <trkpt lat="44.52949" lon="4.25606">
        <ele>417</ele>
        <time>2018-06-03T06:40:52.000Z</time>
      </trkpt>
      <trkpt lat="44.52949" lon="4.25603">
        <ele>417</ele>
        <time>2018-06-03T06:40:53.000Z</time>
      </trkpt>
      <trkpt lat="44.52949" lon="4.25599">
        <ele>417</ele>
        <time>2018-06-03T06:40:54.000Z</time>
      </trkpt>
      <trkpt lat="44.52949" lon="4.25595">
        <ele>418</ele>
        <time>2018-06-03T06:40:55.000Z</time>
      </trkpt>
      <trkpt lat="44.52949" lon="4.25591">
        <ele>418</ele>
        <time>2018-06-03T06:40:56.000Z</time>
      </trkpt>
      <trkpt lat="44.52949" lon="4.25588">
        <ele>418</ele>
        <time>2018-06-03T06:40:57.000Z</time>
      </trkpt>
      <trkpt lat="44.52949" lon="4.25585">
        <ele>418</ele>
        <time>2018-06-03T06:40:58.000Z</time>
      </trkpt>
      <trkpt lat="44.52949" lon="4.25581">
        <ele>419</ele>
        <time>2018-06-03T06:40:59.000Z</time>
      </trkpt>
      <trkpt lat="44.52949" lon="4.25577">
        <ele>419</ele>
        <time>2018-06-03T06:41:00.000Z</time>
      </trkpt>
      <trkpt lat="44.52949" lon="4.25573">
        <ele>419</ele>
        <time>2018-06-03T06:41:01.000Z</time>
      </trkpt>
      <trkpt lat="44.52948" lon="4.2557">
        <ele>420</ele>
        <time>2018-06-03T06:41:02.000Z</time>
      </trkpt>
      <trkpt lat="44.52948" lon="4.25566">
        <ele>419</ele>
        <time>2018-06-03T06:41:03.000Z</time>
      </trkpt>
      <trkpt lat="44.52948" lon="4.25563">
        <ele>419</ele>
        <time>2018-06-03T06:41:04.000Z</time>
      </trkpt>
      <trkpt lat="44.52948" lon="4.25559">
        <ele>420</ele>
        <time>2018-06-03T06:41:05.000Z</time>
      </trkpt>
      <trkpt lat="44.52948" lon="4.25555">
        <ele>420</ele>
        <time>2018-06-03T06:41:06.000Z</time>
      </trkpt>
      <trkpt lat="44.52948" lon="4.25552">
        <ele>420</ele>
        <time>2018-06-03T06:41:07.000Z</time>
      </trkpt>
      <trkpt lat="44.52948" lon="4.25549">
        <ele>420</ele>
        <time>2018-06-03T06:41:08.000Z</time>
      </trkpt>
      <trkpt lat="44.52948" lon="4.25545">
        <ele>420</ele>
        <time>2018-06-03T06:41:09.000Z</time>
      </trkpt>
      <trkpt lat="44.52947" lon="4.25541">
        <ele>420</ele>
        <time>2018-06-03T06:41:10.000Z</time>
      </trkpt>
      <trkpt lat="44.52947" lon="4.25538">
        <ele>420</ele>
        <time>2018-06-03T06:41:11.000Z</time>
      </trkpt>
      <trkpt lat="44.52947" lon="4.25535">
        <ele>420</ele>
        <time>2018-06-03T06:41:12.000Z</time>
      </trkpt>
      <trkpt lat="44.52946" lon="4.25532">
        <ele>420</ele>
        <time>2018-06-03T06:41:13.000Z</time>
      </trkpt>
      <trkpt lat="44.52946" lon="4.25529">
        <ele>420</ele>
        <time>2018-06-03T06:41:14.000Z</time>
      </trkpt>
      <trkpt lat="44.52946" lon="4.25526">
        <ele>420</ele>
        <time>2018-06-03T06:41:15.000Z</time>
      </trkpt>
      <trkpt lat="44.52946" lon="4.25523">
        <ele>420</ele>
        <time>2018-06-03T06:41:16.000Z</time>
      </trkpt>
      <trkpt lat="44.52946" lon="4.25521">
        <ele>420</ele>
        <time>2018-06-03T06:41:17.000Z</time>
      </trkpt>
      <trkpt lat="44.52946" lon="4.25518">
        <ele>420</ele>
        <time>2018-06-03T06:41:18.000Z</time>
      </trkpt>
      <trkpt lat="44.52946" lon="4.25515">
        <ele>420</ele>
        <time>2018-06-03T06:41:19.000Z</time>
      </trkpt>
      <trkpt lat="44.52946" lon="4.25512">
        <ele>420</ele>
        <time>2018-06-03T06:41:20.000Z</time>
      </trkpt>
      <trkpt lat="44.52946" lon="4.25509">
        <ele>420</ele>
        <time>2018-06-03T06:41:21.000Z</time>
      </trkpt>
      <trkpt lat="44.52945" lon="4.25507">
        <ele>421</ele>
        <time>2018-06-03T06:41:22.000Z</time>
      </trkpt>
      <trkpt lat="44.52945" lon="4.25504">
        <ele>421</ele>
        <time>2018-06-03T06:41:23.000Z</time>
      </trkpt>
      <trkpt lat="44.52945" lon="4.25501">
        <ele>421</ele>
        <time>2018-06-03T06:41:24.000Z</time>
      </trkpt>
      <trkpt lat="44.52945" lon="4.25498">
        <ele>422</ele>
        <time>2018-06-03T06:41:25.000Z</time>
      </trkpt>
      <trkpt lat="44.52945" lon="4.25496">
        <ele>422</ele>
        <time>2018-06-03T06:41:26.000Z</time>
      </trkpt>
      <trkpt lat="44.52945" lon="4.25493">
        <ele>422</ele>
        <time>2018-06-03T06:41:27.000Z</time>
      </trkpt>
      <trkpt lat="44.52945" lon="4.2549">
        <ele>422</ele>
        <time>2018-06-03T06:41:28.000Z</time>
      </trkpt>
      <trkpt lat="44.52945" lon="4.25488">
        <ele>422</ele>
        <time>2018-06-03T06:41:29.000Z</time>
      </trkpt>
      <trkpt lat="44.52946" lon="4.25485">
        <ele>422</ele>
        <time>2018-06-03T06:41:30.000Z</time>
      </trkpt>
      <trkpt lat="44.52947" lon="4.25481">
        <ele>422</ele>
        <time>2018-06-03T06:41:31.000Z</time>
      </trkpt>
      <trkpt lat="44.52948" lon="4.25479">
        <ele>422</ele>
        <time>2018-06-03T06:41:32.000Z</time>
      </trkpt>
      <trkpt lat="44.52949" lon="4.25476">
        <ele>422</ele>
        <time>2018-06-03T06:41:33.000Z</time>
      </trkpt>
      <trkpt lat="44.52949" lon="4.25473">
        <ele>422</ele>
        <time>2018-06-03T06:41:34.000Z</time>
      </trkpt>
      <trkpt lat="44.5295" lon="4.25469">
        <ele>422</ele>
        <time>2018-06-03T06:41:35.000Z</time>
      </trkpt>
      <trkpt lat="44.5295" lon="4.25466">
        <ele>422</ele>
        <time>2018-06-03T06:41:36.000Z</time>
      </trkpt>
      <trkpt lat="44.52951" lon="4.25462">
        <ele>422</ele>
        <time>2018-06-03T06:41:37.000Z</time>
      </trkpt>
      <trkpt lat="44.52951" lon="4.25459">
        <ele>422</ele>
        <time>2018-06-03T06:41:38.000Z</time>
      </trkpt>
      <trkpt lat="44.52952" lon="4.25456">
        <ele>422</ele>
        <time>2018-06-03T06:41:39.000Z</time>
      </trkpt>
      <trkpt lat="44.52953" lon="4.25452">
        <ele>422</ele>
        <time>2018-06-03T06:41:40.000Z</time>
      </trkpt>
      <trkpt lat="44.52955" lon="4.25449">
        <ele>422</ele>
        <time>2018-06-03T06:41:41.000Z</time>
      </trkpt>
      <trkpt lat="44.52956" lon="4.25445">
        <ele>422</ele>
        <time>2018-06-03T06:41:42.000Z</time>
      </trkpt>
      <trkpt lat="44.52957" lon="4.25442">
        <ele>422</ele>
        <time>2018-06-03T06:41:43.000Z</time>
      </trkpt>
      <trkpt lat="44.52958" lon="4.25438">
        <ele>422</ele>
        <time>2018-06-03T06:41:44.000Z</time>
      </trkpt>
      <trkpt lat="44.52959" lon="4.25435">
        <ele>422</ele>
        <time>2018-06-03T06:41:45.000Z</time>
      </trkpt>
      <trkpt lat="44.5296" lon="4.25432">
        <ele>422</ele>
        <time>2018-06-03T06:41:46.000Z</time>
      </trkpt>
      <trkpt lat="44.5296" lon="4.25428">
        <ele>423</ele>
        <time>2018-06-03T06:41:47.000Z</time>
      </trkpt>
      <trkpt lat="44.5296" lon="4.25424">
        <ele>423</ele>
        <time>2018-06-03T06:41:48.000Z</time>
      </trkpt>
      <trkpt lat="44.52961" lon="4.25421">
        <ele>423</ele>
        <time>2018-06-03T06:41:49.000Z</time>
      </trkpt>
      <trkpt lat="44.52961" lon="4.25416">
        <ele>428</ele>
        <time>2018-06-03T06:41:50.000Z</time>
      </trkpt>
      <trkpt lat="44.52963" lon="4.25412">
        <ele>428</ele>
        <time>2018-06-03T06:41:51.000Z</time>
      </trkpt>
      <trkpt lat="44.52965" lon="4.25409">
        <ele>428</ele>
        <time>2018-06-03T06:41:52.000Z</time>
      </trkpt>
      <trkpt lat="44.52966" lon="4.25405">
        <ele>428</ele>
        <time>2018-06-03T06:41:53.000Z</time>
      </trkpt>
      <trkpt lat="44.52967" lon="4.25402">
        <ele>428</ele>
        <time>2018-06-03T06:41:54.000Z</time>
      </trkpt>
      <trkpt lat="44.52969" lon="4.25398">
        <ele>428</ele>
        <time>2018-06-03T06:41:55.000Z</time>
      </trkpt>
      <trkpt lat="44.5297" lon="4.25395">
        <ele>428</ele>
        <time>2018-06-03T06:41:56.000Z</time>
      </trkpt>
      <trkpt lat="44.52972" lon="4.25391">
        <ele>428</ele>
        <time>2018-06-03T06:41:57.000Z</time>
      </trkpt>
      <trkpt lat="44.52974" lon="4.25388">
        <ele>428</ele>
        <time>2018-06-03T06:41:58.000Z</time>
      </trkpt>
      <trkpt lat="44.52975" lon="4.25384">
        <ele>429</ele>
        <time>2018-06-03T06:41:59.000Z</time>
      </trkpt>
      <trkpt lat="44.52977" lon="4.25381">
        <ele>429</ele>
        <time>2018-06-03T06:42:00.000Z</time>
      </trkpt>
      <trkpt lat="44.52979" lon="4.25378">
        <ele>429</ele>
        <time>2018-06-03T06:42:01.000Z</time>
      </trkpt>
      <trkpt lat="44.5298" lon="4.25375">
        <ele>430</ele>
        <time>2018-06-03T06:42:02.000Z</time>
      </trkpt>
      <trkpt lat="44.52982" lon="4.25372">
        <ele>430</ele>
        <time>2018-06-03T06:42:03.000Z</time>
      </trkpt>
      <trkpt lat="44.52984" lon="4.25369">
        <ele>430</ele>
        <time>2018-06-03T06:42:04.000Z</time>
      </trkpt>
      <trkpt lat="44.52986" lon="4.25365">
        <ele>431</ele>
        <time>2018-06-03T06:42:05.000Z</time>
      </trkpt>
      <trkpt lat="44.52987" lon="4.25362">
        <ele>431</ele>
        <time>2018-06-03T06:42:06.000Z</time>
      </trkpt>
      <trkpt lat="44.52989" lon="4.25358">
        <ele>431</ele>
        <time>2018-06-03T06:42:07.000Z</time>
      </trkpt>
      <trkpt lat="44.5299" lon="4.25355">
        <ele>432</ele>
        <time>2018-06-03T06:42:08.000Z</time>
      </trkpt>
      <trkpt lat="44.52992" lon="4.25352">
        <ele>432</ele>
        <time>2018-06-03T06:42:09.000Z</time>
      </trkpt>
      <trkpt lat="44.52994" lon="4.25349">
        <ele>433</ele>
        <time>2018-06-03T06:42:10.000Z</time>
      </trkpt>
      <trkpt lat="44.52995" lon="4.25346">
        <ele>433</ele>
        <time>2018-06-03T06:42:11.000Z</time>
      </trkpt>
      <trkpt lat="44.52997" lon="4.25343">
        <ele>434</ele>
        <time>2018-06-03T06:42:12.000Z</time>
      </trkpt>
      <trkpt lat="44.52998" lon="4.25339">
        <ele>435</ele>
        <time>2018-06-03T06:42:13.000Z</time>
      </trkpt>
      <trkpt lat="44.53" lon="4.25336">
        <ele>434</ele>
        <time>2018-06-03T06:42:14.000Z</time>
      </trkpt>
      <trkpt lat="44.53002" lon="4.25333">
        <ele>436</ele>
        <time>2018-06-03T06:42:15.000Z</time>
      </trkpt>
      <trkpt lat="44.53005" lon="4.25331">
        <ele>435</ele>
        <time>2018-06-03T06:42:16.000Z</time>
      </trkpt>
      <trkpt lat="44.53007" lon="4.25328">
        <ele>435</ele>
        <time>2018-06-03T06:42:17.000Z</time>
      </trkpt>
      <trkpt lat="44.53008" lon="4.25325">
        <ele>435</ele>
        <time>2018-06-03T06:42:18.000Z</time>
      </trkpt>
      <trkpt lat="44.5301" lon="4.25323">
        <ele>435</ele>
        <time>2018-06-03T06:42:19.000Z</time>
      </trkpt>
      <trkpt lat="44.53012" lon="4.2532">
        <ele>435</ele>
        <time>2018-06-03T06:42:20.000Z</time>
      </trkpt>
      <trkpt lat="44.53014" lon="4.25317">
        <ele>434</ele>
        <time>2018-06-03T06:42:21.000Z</time>
      </trkpt>
      <trkpt lat="44.53015" lon="4.25315">
        <ele>434</ele>
        <time>2018-06-03T06:42:22.000Z</time>
      </trkpt>
      <trkpt lat="44.53017" lon="4.25312">
        <ele>434</ele>
        <time>2018-06-03T06:42:23.000Z</time>
      </trkpt>
      <trkpt lat="44.53019" lon="4.2531">
        <ele>434</ele>
        <time>2018-06-03T06:42:24.000Z</time>
      </trkpt>
      <trkpt lat="44.53021" lon="4.25308">
        <ele>434</ele>
        <time>2018-06-03T06:42:25.000Z</time>
      </trkpt>
      <trkpt lat="44.53023" lon="4.25306">
        <ele>434</ele>
        <time>2018-06-03T06:42:26.000Z</time>
      </trkpt>
      <trkpt lat="44.53025" lon="4.25303">
        <ele>434</ele>
        <time>2018-06-03T06:42:27.000Z</time>
      </trkpt>
      <trkpt lat="44.53027" lon="4.25301">
        <ele>434</ele>
        <time>2018-06-03T06:42:28.000Z</time>
      </trkpt>
      <trkpt lat="44.53029" lon="4.25298">
        <ele>434</ele>
        <time>2018-06-03T06:42:29.000Z</time>
      </trkpt>
      <trkpt lat="44.5303" lon="4.25296">
        <ele>434</ele>
        <time>2018-06-03T06:42:30.000Z</time>
      </trkpt>
      <trkpt lat="44.53032" lon="4.25293">
        <ele>434</ele>
        <time>2018-06-03T06:42:31.000Z</time>
      </trkpt>
      <trkpt lat="44.53033" lon="4.25291">
        <ele>434</ele>
        <time>2018-06-03T06:42:32.000Z</time>
      </trkpt>
      <trkpt lat="44.53035" lon="4.25288">
        <ele>434</ele>
        <time>2018-06-03T06:42:33.000Z</time>
      </trkpt>
      <trkpt lat="44.53037" lon="4.25285">
        <ele>434</ele>
        <time>2018-06-03T06:42:34.000Z</time>
      </trkpt>
      <trkpt lat="44.53038" lon="4.25283">
        <ele>434</ele>
        <time>2018-06-03T06:42:35.000Z</time>
      </trkpt>
      <trkpt lat="44.5304" lon="4.2528">
        <ele>434</ele>
        <time>2018-06-03T06:42:36.000Z</time>
      </trkpt>
      <trkpt lat="44.53042" lon="4.25278">
        <ele>434</ele>
        <time>2018-06-03T06:42:37.000Z</time>
      </trkpt>
      <trkpt lat="44.53043" lon="4.25275">
        <ele>434</ele>
        <time>2018-06-03T06:42:38.000Z</time>
      </trkpt>
      <trkpt lat="44.53045" lon="4.25273">
        <ele>434</ele>
        <time>2018-06-03T06:42:39.000Z</time>
      </trkpt>
      <trkpt lat="44.53046" lon="4.2527">
        <ele>434</ele>
        <time>2018-06-03T06:42:40.000Z</time>
      </trkpt>
      <trkpt lat="44.53048" lon="4.25268">
        <ele>434</ele>
        <time>2018-06-03T06:42:41.000Z</time>
      </trkpt>
      <trkpt lat="44.53049" lon="4.25265">
        <ele>434</ele>
        <time>2018-06-03T06:42:42.000Z</time>
      </trkpt>
      <trkpt lat="44.5305" lon="4.25262">
        <ele>434</ele>
        <time>2018-06-03T06:42:43.000Z</time>
      </trkpt>
      <trkpt lat="44.53052" lon="4.25259">
        <ele>434</ele>
        <time>2018-06-03T06:42:44.000Z</time>
      </trkpt>
      <trkpt lat="44.53053" lon="4.25256">
        <ele>434</ele>
        <time>2018-06-03T06:42:45.000Z</time>
      </trkpt>
      <trkpt lat="44.53054" lon="4.25254">
        <ele>434</ele>
        <time>2018-06-03T06:42:46.000Z</time>
      </trkpt>
      <trkpt lat="44.53055" lon="4.25251">
        <ele>434</ele>
        <time>2018-06-03T06:42:47.000Z</time>
      </trkpt>
      <trkpt lat="44.53056" lon="4.25248">
        <ele>439</ele>
        <time>2018-06-03T06:42:48.000Z</time>
      </trkpt>
      <trkpt lat="44.53058" lon="4.25245">
        <ele>439</ele>
        <time>2018-06-03T06:42:49.000Z</time>
      </trkpt>
      <trkpt lat="44.53059" lon="4.25242">
        <ele>439</ele>
        <time>2018-06-03T06:42:50.000Z</time>
      </trkpt>
      <trkpt lat="44.5306" lon="4.25239">
        <ele>439</ele>
        <time>2018-06-03T06:42:51.000Z</time>
      </trkpt>
      <trkpt lat="44.53061" lon="4.25237">
        <ele>439</ele>
        <time>2018-06-03T06:42:52.000Z</time>
      </trkpt>
      <trkpt lat="44.53062" lon="4.25234">
        <ele>439</ele>
        <time>2018-06-03T06:42:53.000Z</time>
      </trkpt>
      <trkpt lat="44.53063" lon="4.25231">
        <ele>439</ele>
        <time>2018-06-03T06:42:54.000Z</time>
      </trkpt>
      <trkpt lat="44.53064" lon="4.25228">
        <ele>439</ele>
        <time>2018-06-03T06:42:55.000Z</time>
      </trkpt>
      <trkpt lat="44.53065" lon="4.25225">
        <ele>439</ele>
        <time>2018-06-03T06:42:56.000Z</time>
      </trkpt>
      <trkpt lat="44.53066" lon="4.25223">
        <ele>439</ele>
        <time>2018-06-03T06:42:57.000Z</time>
      </trkpt>
      <trkpt lat="44.53067" lon="4.2522">
        <ele>440</ele>
        <time>2018-06-03T06:42:58.000Z</time>
      </trkpt>
      <trkpt lat="44.53068" lon="4.25218">
        <ele>440</ele>
        <time>2018-06-03T06:42:59.000Z</time>
      </trkpt>
      <trkpt lat="44.53069" lon="4.25215">
        <ele>440</ele>
        <time>2018-06-03T06:43:00.000Z</time>
      </trkpt>
      <trkpt lat="44.5307" lon="4.25212">
        <ele>440</ele>
        <time>2018-06-03T06:43:01.000Z</time>
      </trkpt>
      <trkpt lat="44.53071" lon="4.2521">
        <ele>440</ele>
        <time>2018-06-03T06:43:02.000Z</time>
      </trkpt>
      <trkpt lat="44.53072" lon="4.25207">
        <ele>440</ele>
        <time>2018-06-03T06:43:03.000Z</time>
      </trkpt>
      <trkpt lat="44.53073" lon="4.25205">
        <ele>440</ele>
        <time>2018-06-03T06:43:04.000Z</time>
      </trkpt>
      <trkpt lat="44.53074" lon="4.25202">
        <ele>441</ele>
        <time>2018-06-03T06:43:05.000Z</time>
      </trkpt>
      <trkpt lat="44.53075" lon="4.25199">
        <ele>441</ele>
        <time>2018-06-03T06:43:06.000Z</time>
      </trkpt>
      <trkpt lat="44.53076" lon="4.25197">
        <ele>441</ele>
        <time>2018-06-03T06:43:07.000Z</time>
      </trkpt>
      <trkpt lat="44.53077" lon="4.25194">
        <ele>441</ele>
        <time>2018-06-03T06:43:08.000Z</time>
      </trkpt>
      <trkpt lat="44.53077" lon="4.25192">
        <ele>441</ele>
        <time>2018-06-03T06:43:09.000Z</time>
      </trkpt>
      <trkpt lat="44.53078" lon="4.25189">
        <ele>441</ele>
        <time>2018-06-03T06:43:10.000Z</time>
      </trkpt>
      <trkpt lat="44.53079" lon="4.25186">
        <ele>441</ele>
        <time>2018-06-03T06:43:11.000Z</time>
      </trkpt>
      <trkpt lat="44.5308" lon="4.25182">
        <ele>441</ele>
        <time>2018-06-03T06:43:12.000Z</time>
      </trkpt>
      <trkpt lat="44.53081" lon="4.25179">
        <ele>442</ele>
        <time>2018-06-03T06:43:13.000Z</time>
      </trkpt>
      <trkpt lat="44.53082" lon="4.25176">
        <ele>442</ele>
        <time>2018-06-03T06:43:14.000Z</time>
      </trkpt>
      <trkpt lat="44.53083" lon="4.25172">
        <ele>442</ele>
        <time>2018-06-03T06:43:15.000Z</time>
      </trkpt>
      <trkpt lat="44.53084" lon="4.25169">
        <ele>440</ele>
        <time>2018-06-03T06:43:16.000Z</time>
      </trkpt>
      <trkpt lat="44.53084" lon="4.25165">
        <ele>442</ele>
        <time>2018-06-03T06:43:17.000Z</time>
      </trkpt>
      <trkpt lat="44.53085" lon="4.25162">
        <ele>441</ele>
        <time>2018-06-03T06:43:18.000Z</time>
      </trkpt>
      <trkpt lat="44.53086" lon="4.25158">
        <ele>440</ele>
        <time>2018-06-03T06:43:19.000Z</time>
      </trkpt>
      <trkpt lat="44.53087" lon="4.25154">
        <ele>440</ele>
        <time>2018-06-03T06:43:20.000Z</time>
      </trkpt>
      <trkpt lat="44.53087" lon="4.2515">
        <ele>440</ele>
        <time>2018-06-03T06:43:21.000Z</time>
      </trkpt>
      <trkpt lat="44.53088" lon="4.25147">
        <ele>439</ele>
        <time>2018-06-03T06:43:22.000Z</time>
      </trkpt>
      <trkpt lat="44.53089" lon="4.25143">
        <ele>439</ele>
        <time>2018-06-03T06:43:23.000Z</time>
      </trkpt>
      <trkpt lat="44.53089" lon="4.2514">
        <ele>439</ele>
        <time>2018-06-03T06:43:24.000Z</time>
      </trkpt>
      <trkpt lat="44.5309" lon="4.25137">
        <ele>439</ele>
        <time>2018-06-03T06:43:25.000Z</time>
      </trkpt>
      <trkpt lat="44.53091" lon="4.25134">
        <ele>439</ele>
        <time>2018-06-03T06:43:26.000Z</time>
      </trkpt>
      <trkpt lat="44.53091" lon="4.25132">
        <ele>439</ele>
        <time>2018-06-03T06:43:27.000Z</time>
      </trkpt>
      <trkpt lat="44.53092" lon="4.25129">
        <ele>439</ele>
        <time>2018-06-03T06:43:28.000Z</time>
      </trkpt>
      <trkpt lat="44.53093" lon="4.25125">
        <ele>440</ele>
        <time>2018-06-03T06:43:29.000Z</time>
      </trkpt>
      <trkpt lat="44.53094" lon="4.25122">
        <ele>440</ele>
        <time>2018-06-03T06:43:30.000Z</time>
      </trkpt>
      <trkpt lat="44.53095" lon="4.25119">
        <ele>440</ele>
        <time>2018-06-03T06:43:31.000Z</time>
      </trkpt>
      <trkpt lat="44.53096" lon="4.25116">
        <ele>440</ele>
        <time>2018-06-03T06:43:32.000Z</time>
      </trkpt>
      <trkpt lat="44.53096" lon="4.25113">
        <ele>441</ele>
        <time>2018-06-03T06:43:33.000Z</time>
      </trkpt>
      <trkpt lat="44.53097" lon="4.25109">
        <ele>441</ele>
        <time>2018-06-03T06:43:34.000Z</time>
      </trkpt>
      <trkpt lat="44.53098" lon="4.25105">
        <ele>441</ele>
        <time>2018-06-03T06:43:35.000Z</time>
      </trkpt>
      <trkpt lat="44.53099" lon="4.25102">
        <ele>442</ele>
        <time>2018-06-03T06:43:36.000Z</time>
      </trkpt>
      <trkpt lat="44.53101" lon="4.25099">
        <ele>442</ele>
        <time>2018-06-03T06:43:37.000Z</time>
      </trkpt>
      <trkpt lat="44.53103" lon="4.25096">
        <ele>442</ele>
        <time>2018-06-03T06:43:38.000Z</time>
      </trkpt>
      <trkpt lat="44.53103" lon="4.25093">
        <ele>442</ele>
        <time>2018-06-03T06:43:39.000Z</time>
      </trkpt>
      <trkpt lat="44.53104" lon="4.2509">
        <ele>442</ele>
        <time>2018-06-03T06:43:40.000Z</time>
      </trkpt>
      <trkpt lat="44.53105" lon="4.25087">
        <ele>442</ele>
        <time>2018-06-03T06:43:41.000Z</time>
      </trkpt>
      <trkpt lat="44.53106" lon="4.25084">
        <ele>442</ele>
        <time>2018-06-03T06:43:42.000Z</time>
      </trkpt>
      <trkpt lat="44.53107" lon="4.25081">
        <ele>446</ele>
        <time>2018-06-03T06:43:43.000Z</time>
      </trkpt>
      <trkpt lat="44.53108" lon="4.25077">
        <ele>446</ele>
        <time>2018-06-03T06:43:44.000Z</time>
      </trkpt>
      <trkpt lat="44.53109" lon="4.25074">
        <ele>446</ele>
        <time>2018-06-03T06:43:45.000Z</time>
      </trkpt>
      <trkpt lat="44.53109" lon="4.2507">
        <ele>446</ele>
        <time>2018-06-03T06:43:46.000Z</time>
      </trkpt>
      <trkpt lat="44.5311" lon="4.25067">
        <ele>446</ele>
        <time>2018-06-03T06:43:47.000Z</time>
      </trkpt>
      <trkpt lat="44.53111" lon="4.25063">
        <ele>445</ele>
        <time>2018-06-03T06:43:48.000Z</time>
      </trkpt>
      <trkpt lat="44.53111" lon="4.25059">
        <ele>445</ele>
        <time>2018-06-03T06:43:49.000Z</time>
      </trkpt>
      <trkpt lat="44.53111" lon="4.25056">
        <ele>445</ele>
        <time>2018-06-03T06:43:50.000Z</time>
      </trkpt>
      <trkpt lat="44.53112" lon="4.25053">
        <ele>445</ele>
        <time>2018-06-03T06:43:51.000Z</time>
      </trkpt>
      <trkpt lat="44.53112" lon="4.25049">
        <ele>445</ele>
        <time>2018-06-03T06:43:52.000Z</time>
      </trkpt>
      <trkpt lat="44.53112" lon="4.25045">
        <ele>445</ele>
        <time>2018-06-03T06:43:53.000Z</time>
      </trkpt>
      <trkpt lat="44.53111" lon="4.25041">
        <ele>445</ele>
        <time>2018-06-03T06:43:54.000Z</time>
      </trkpt>
      <trkpt lat="44.53111" lon="4.25036">
        <ele>445</ele>
        <time>2018-06-03T06:43:55.000Z</time>
      </trkpt>
      <trkpt lat="44.53111" lon="4.25032">
        <ele>445</ele>
        <time>2018-06-03T06:43:56.000Z</time>
      </trkpt>
      <trkpt lat="44.5311" lon="4.25027">
        <ele>445</ele>
        <time>2018-06-03T06:43:57.000Z</time>
      </trkpt>
      <trkpt lat="44.53108" lon="4.25023">
        <ele>445</ele>
        <time>2018-06-03T06:43:58.000Z</time>
      </trkpt>
      <trkpt lat="44.53105" lon="4.25021">
        <ele>445</ele>
        <time>2018-06-03T06:43:59.000Z</time>
      </trkpt>
      <trkpt lat="44.53103" lon="4.25022">
        <ele>445</ele>
        <time>2018-06-03T06:44:00.000Z</time>
      </trkpt>
      <trkpt lat="44.531" lon="4.25023">
        <ele>445</ele>
        <time>2018-06-03T06:44:01.000Z</time>
      </trkpt>
      <trkpt lat="44.53098" lon="4.25026">
        <ele>445</ele>
        <time>2018-06-03T06:44:02.000Z</time>
      </trkpt>
      <trkpt lat="44.53095" lon="4.25028">
        <ele>445</ele>
        <time>2018-06-03T06:44:03.000Z</time>
      </trkpt>
      <trkpt lat="44.53093" lon="4.25031">
        <ele>445</ele>
        <time>2018-06-03T06:44:04.000Z</time>
      </trkpt>
      <trkpt lat="44.5309" lon="4.25035">
        <ele>445</ele>
        <time>2018-06-03T06:44:05.000Z</time>
      </trkpt>
      <trkpt lat="44.53088" lon="4.25038">
        <ele>445</ele>
        <time>2018-06-03T06:44:06.000Z</time>
      </trkpt>
      <trkpt lat="44.53085" lon="4.25042">
        <ele>446</ele>
        <time>2018-06-03T06:44:07.000Z</time>
      </trkpt>
      <trkpt lat="44.53082" lon="4.25046">
        <ele>442</ele>
        <time>2018-06-03T06:44:08.000Z</time>
      </trkpt>
      <trkpt lat="44.53079" lon="4.2505">
        <ele>443</ele>
        <time>2018-06-03T06:44:09.000Z</time>
      </trkpt>
      <trkpt lat="44.53077" lon="4.25055">
        <ele>443</ele>
        <time>2018-06-03T06:44:10.000Z</time>
      </trkpt>
      <trkpt lat="44.53074" lon="4.2506">
        <ele>444</ele>
        <time>2018-06-03T06:44:11.000Z</time>
      </trkpt>
      <trkpt lat="44.53072" lon="4.25065">
        <ele>444</ele>
        <time>2018-06-03T06:44:12.000Z</time>
      </trkpt>
      <trkpt lat="44.53069" lon="4.25069">
        <ele>444</ele>
        <time>2018-06-03T06:44:13.000Z</time>
      </trkpt>
      <trkpt lat="44.53066" lon="4.25074">
        <ele>444</ele>
        <time>2018-06-03T06:44:14.000Z</time>
      </trkpt>
      <trkpt lat="44.53064" lon="4.25079">
        <ele>444</ele>
        <time>2018-06-03T06:44:15.000Z</time>
      </trkpt>
      <trkpt lat="44.53061" lon="4.25084">
        <ele>446</ele>
        <time>2018-06-03T06:44:16.000Z</time>
      </trkpt>
      <trkpt lat="44.53059" lon="4.25089">
        <ele>446</ele>
        <time>2018-06-03T06:44:17.000Z</time>
      </trkpt>
      <trkpt lat="44.53056" lon="4.25093">
        <ele>446</ele>
        <time>2018-06-03T06:44:18.000Z</time>
      </trkpt>
      <trkpt lat="44.53052" lon="4.25098">
        <ele>445</ele>
        <time>2018-06-03T06:44:19.000Z</time>
      </trkpt>
      <trkpt lat="44.53048" lon="4.25102">
        <ele>445</ele>
        <time>2018-06-03T06:44:20.000Z</time>
      </trkpt>
      <trkpt lat="44.53044" lon="4.25107">
        <ele>444</ele>
        <time>2018-06-03T06:44:21.000Z</time>
      </trkpt>
      <trkpt lat="44.5304" lon="4.25112">
        <ele>444</ele>
        <time>2018-06-03T06:44:22.000Z</time>
      </trkpt>
      <trkpt lat="44.53037" lon="4.25118">
        <ele>444</ele>
        <time>2018-06-03T06:44:23.000Z</time>
      </trkpt>
      <trkpt lat="44.53033" lon="4.25123">
        <ele>444</ele>
        <time>2018-06-03T06:44:24.000Z</time>
      </trkpt>
      <trkpt lat="44.5303" lon="4.25128">
        <ele>444</ele>
        <time>2018-06-03T06:44:25.000Z</time>
      </trkpt>
      <trkpt lat="44.53027" lon="4.25133">
        <ele>444</ele>
        <time>2018-06-03T06:44:26.000Z</time>
      </trkpt>
      <trkpt lat="44.53024" lon="4.25138">
        <ele>444</ele>
        <time>2018-06-03T06:44:27.000Z</time>
      </trkpt>
      <trkpt lat="44.5302" lon="4.25143">
        <ele>444</ele>
        <time>2018-06-03T06:44:28.000Z</time>
      </trkpt>
      <trkpt lat="44.53016" lon="4.25147">
        <ele>444</ele>
        <time>2018-06-03T06:44:29.000Z</time>
      </trkpt>
      <trkpt lat="44.53012" lon="4.25151">
        <ele>445</ele>
        <time>2018-06-03T06:44:30.000Z</time>
      </trkpt>
      <trkpt lat="44.53008" lon="4.25157">
        <ele>445</ele>
        <time>2018-06-03T06:44:31.000Z</time>
      </trkpt>
      <trkpt lat="44.53005" lon="4.25163">
        <ele>445</ele>
        <time>2018-06-03T06:44:32.000Z</time>
      </trkpt>
      <trkpt lat="44.53002" lon="4.25168">
        <ele>446</ele>
        <time>2018-06-03T06:44:33.000Z</time>
      </trkpt>
      <trkpt lat="44.52999" lon="4.25174">
        <ele>445</ele>
        <time>2018-06-03T06:44:34.000Z</time>
      </trkpt>
      <trkpt lat="44.52995" lon="4.25179">
        <ele>444</ele>
        <time>2018-06-03T06:44:35.000Z</time>
      </trkpt>
      <trkpt lat="44.52991" lon="4.25184">
        <ele>444</ele>
        <time>2018-06-03T06:44:36.000Z</time>
      </trkpt>
      <trkpt lat="44.52986" lon="4.25189">
        <ele>443</ele>
        <time>2018-06-03T06:44:37.000Z</time>
      </trkpt>
      <trkpt lat="44.52981" lon="4.25194">
        <ele>443</ele>
        <time>2018-06-03T06:44:38.000Z</time>
      </trkpt>
      <trkpt lat="44.52975" lon="4.25199">
        <ele>442</ele>
        <time>2018-06-03T06:44:39.000Z</time>
      </trkpt>
      <trkpt lat="44.5297" lon="4.25204">
        <ele>442</ele>
        <time>2018-06-03T06:44:40.000Z</time>
      </trkpt>
      <trkpt lat="44.52965" lon="4.25209">
        <ele>442</ele>
        <time>2018-06-03T06:44:41.000Z</time>
      </trkpt>
      <trkpt lat="44.5296" lon="4.25213">
        <ele>442</ele>
        <time>2018-06-03T06:44:42.000Z</time>
      </trkpt>
      <trkpt lat="44.52956" lon="4.25217">
        <ele>441</ele>
        <time>2018-06-03T06:44:43.000Z</time>
      </trkpt>
      <trkpt lat="44.52952" lon="4.25221">
        <ele>441</ele>
        <time>2018-06-03T06:44:44.000Z</time>
      </trkpt>
      <trkpt lat="44.52948" lon="4.25224">
        <ele>441</ele>
        <time>2018-06-03T06:44:45.000Z</time>
      </trkpt>
      <trkpt lat="44.52946" lon="4.25225">
        <ele>441</ele>
        <time>2018-06-03T06:44:46.000Z</time>
      </trkpt>
      <trkpt lat="44.52943" lon="4.25226">
        <ele>441</ele>
        <time>2018-06-03T06:44:47.000Z</time>
      </trkpt>
      <trkpt lat="44.52938" lon="4.25227">
        <ele>440</ele>
        <time>2018-06-03T06:44:48.000Z</time>
      </trkpt>
      <trkpt lat="44.52934" lon="4.25229">
        <ele>440</ele>
        <time>2018-06-03T06:44:49.000Z</time>
      </trkpt>
      <trkpt lat="44.52929" lon="4.25231">
        <ele>440</ele>
        <time>2018-06-03T06:44:50.000Z</time>
      </trkpt>
      <trkpt lat="44.52924" lon="4.25234">
        <ele>440</ele>
        <time>2018-06-03T06:44:51.000Z</time>
      </trkpt>
      <trkpt lat="44.52919" lon="4.25235">
        <ele>439</ele>
        <time>2018-06-03T06:44:52.000Z</time>
      </trkpt>
      <trkpt lat="44.52915" lon="4.25233">
        <ele>435</ele>
        <time>2018-06-03T06:44:53.000Z</time>
      </trkpt>
      <trkpt lat="44.5291" lon="4.25229">
        <ele>434</ele>
        <time>2018-06-03T06:44:54.000Z</time>
      </trkpt>
      <trkpt lat="44.52906" lon="4.25226">
        <ele>434</ele>
        <time>2018-06-03T06:44:55.000Z</time>
      </trkpt>
      <trkpt lat="44.52901" lon="4.25224">
        <ele>433</ele>
        <time>2018-06-03T06:44:56.000Z</time>
      </trkpt>
      <trkpt lat="44.52895" lon="4.25223">
        <ele>433</ele>
        <time>2018-06-03T06:44:57.000Z</time>
      </trkpt>
      <trkpt lat="44.52888" lon="4.25224">
        <ele>432</ele>
        <time>2018-06-03T06:44:58.000Z</time>
      </trkpt>
      <trkpt lat="44.52881" lon="4.25225">
        <ele>432</ele>
        <time>2018-06-03T06:44:59.000Z</time>
      </trkpt>
      <trkpt lat="44.52875" lon="4.25224">
        <ele>431</ele>
        <time>2018-06-03T06:45:00.000Z</time>
      </trkpt>
      <trkpt lat="44.52868" lon="4.25223">
        <ele>431</ele>
        <time>2018-06-03T06:45:01.000Z</time>
      </trkpt>
      <trkpt lat="44.52861" lon="4.25221">
        <ele>430</ele>
        <time>2018-06-03T06:45:02.000Z</time>
      </trkpt>
      <trkpt lat="44.52855" lon="4.25219">
        <ele>430</ele>
        <time>2018-06-03T06:45:03.000Z</time>
      </trkpt>
      <trkpt lat="44.52849" lon="4.25218">
        <ele>429</ele>
        <time>2018-06-03T06:45:04.000Z</time>
      </trkpt>
      <trkpt lat="44.52842" lon="4.25218">
        <ele>429</ele>
        <time>2018-06-03T06:45:05.000Z</time>
      </trkpt>
      <trkpt lat="44.52835" lon="4.25217">
        <ele>429</ele>
        <time>2018-06-03T06:45:06.000Z</time>
      </trkpt>
      <trkpt lat="44.52828" lon="4.25217">
        <ele>422</ele>
        <time>2018-06-03T06:45:07.000Z</time>
      </trkpt>
      <trkpt lat="44.52821" lon="4.25217">
        <ele>422</ele>
        <time>2018-06-03T06:45:08.000Z</time>
      </trkpt>
      <trkpt lat="44.52814" lon="4.25218">
        <ele>422</ele>
        <time>2018-06-03T06:45:09.000Z</time>
      </trkpt>
      <trkpt lat="44.52808" lon="4.25219">
        <ele>422</ele>
        <time>2018-06-03T06:45:10.000Z</time>
      </trkpt>
      <trkpt lat="44.52803" lon="4.25218">
        <ele>422</ele>
        <time>2018-06-03T06:45:11.000Z</time>
      </trkpt>
      <trkpt lat="44.52799" lon="4.2522">
        <ele>421</ele>
        <time>2018-06-03T06:45:12.000Z</time>
      </trkpt>
      <trkpt lat="44.52796" lon="4.25221">
        <ele>421</ele>
        <time>2018-06-03T06:45:13.000Z</time>
      </trkpt>
      <trkpt lat="44.52795" lon="4.25224">
        <ele>421</ele>
        <time>2018-06-03T06:45:14.000Z</time>
      </trkpt>
      <trkpt lat="44.52795" lon="4.25228">
        <ele>421</ele>
        <time>2018-06-03T06:45:15.000Z</time>
      </trkpt>
      <trkpt lat="44.52794" lon="4.25233">
        <ele>421</ele>
        <time>2018-06-03T06:45:16.000Z</time>
      </trkpt>
      <trkpt lat="44.52794" lon="4.25238">
        <ele>421</ele>
        <time>2018-06-03T06:45:17.000Z</time>
      </trkpt>
      <trkpt lat="44.52793" lon="4.25242">
        <ele>421</ele>
        <time>2018-06-03T06:45:18.000Z</time>
      </trkpt>
      <trkpt lat="44.52792" lon="4.25245">
        <ele>421</ele>
        <time>2018-06-03T06:45:19.000Z</time>
      </trkpt>
      <trkpt lat="44.52789" lon="4.25248">
        <ele>420</ele>
        <time>2018-06-03T06:45:20.000Z</time>
      </trkpt>
      <trkpt lat="44.52786" lon="4.2525">
        <ele>420</ele>
        <time>2018-06-03T06:45:21.000Z</time>
      </trkpt>
      <trkpt lat="44.52782" lon="4.2525">
        <ele>418</ele>
        <time>2018-06-03T06:45:22.000Z</time>
      </trkpt>
      <trkpt lat="44.52777" lon="4.25249">
        <ele>419</ele>
        <time>2018-06-03T06:45:23.000Z</time>
      </trkpt>
      <trkpt lat="44.52773" lon="4.25248">
        <ele>419</ele>
        <time>2018-06-03T06:45:24.000Z</time>
      </trkpt>
      <trkpt lat="44.52768" lon="4.25247">
        <ele>418</ele>
        <time>2018-06-03T06:45:25.000Z</time>
      </trkpt>
      <trkpt lat="44.52763" lon="4.25246">
        <ele>418</ele>
        <time>2018-06-03T06:45:26.000Z</time>
      </trkpt>
      <trkpt lat="44.52759" lon="4.25247">
        <ele>417</ele>
        <time>2018-06-03T06:45:27.000Z</time>
      </trkpt>
      <trkpt lat="44.52756" lon="4.2525">
        <ele>415</ele>
        <time>2018-06-03T06:45:28.000Z</time>
      </trkpt>
      <trkpt lat="44.52752" lon="4.25252">
        <ele>415</ele>
        <time>2018-06-03T06:45:29.000Z</time>
      </trkpt>
      <trkpt lat="44.52749" lon="4.25251">
        <ele>414</ele>
        <time>2018-06-03T06:45:30.000Z</time>
      </trkpt>
      <trkpt lat="44.52747" lon="4.25247">
        <ele>414</ele>
        <time>2018-06-03T06:45:31.000Z</time>
      </trkpt>
      <trkpt lat="44.52745" lon="4.25244">
        <ele>414</ele>
        <time>2018-06-03T06:45:32.000Z</time>
      </trkpt>
      <trkpt lat="44.52742" lon="4.2524">
        <ele>413</ele>
        <time>2018-06-03T06:45:33.000Z</time>
      </trkpt>
      <trkpt lat="44.52739" lon="4.25236">
        <ele>413</ele>
        <time>2018-06-03T06:45:34.000Z</time>
      </trkpt>
      <trkpt lat="44.52735" lon="4.25232">
        <ele>412</ele>
        <time>2018-06-03T06:45:35.000Z</time>
      </trkpt>
      <trkpt lat="44.52732" lon="4.25229">
        <ele>412</ele>
        <time>2018-06-03T06:45:36.000Z</time>
      </trkpt>
      <trkpt lat="44.52728" lon="4.25224">
        <ele>412</ele>
        <time>2018-06-03T06:45:37.000Z</time>
      </trkpt>
      <trkpt lat="44.52723" lon="4.25221">
        <ele>411</ele>
        <time>2018-06-03T06:45:38.000Z</time>
      </trkpt>
      <trkpt lat="44.52719" lon="4.25217">
        <ele>411</ele>
        <time>2018-06-03T06:45:39.000Z</time>
      </trkpt>
      <trkpt lat="44.52714" lon="4.25213">
        <ele>411</ele>
        <time>2018-06-03T06:45:40.000Z</time>
      </trkpt>
      <trkpt lat="44.5271" lon="4.25209">
        <ele>410</ele>
        <time>2018-06-03T06:45:41.000Z</time>
      </trkpt>
      <trkpt lat="44.52707" lon="4.25204">
        <ele>410</ele>
        <time>2018-06-03T06:45:42.000Z</time>
      </trkpt>
      <trkpt lat="44.52703" lon="4.25199">
        <ele>410</ele>
        <time>2018-06-03T06:45:43.000Z</time>
      </trkpt>
      <trkpt lat="44.527" lon="4.25195">
        <ele>410</ele>
        <time>2018-06-03T06:45:44.000Z</time>
      </trkpt>
      <trkpt lat="44.52696" lon="4.25191">
        <ele>409</ele>
        <time>2018-06-03T06:45:45.000Z</time>
      </trkpt>
      <trkpt lat="44.52692" lon="4.25186">
        <ele>409</ele>
        <time>2018-06-03T06:45:46.000Z</time>
      </trkpt>
      <trkpt lat="44.52688" lon="4.25184">
        <ele>409</ele>
        <time>2018-06-03T06:45:47.000Z</time>
      </trkpt>
      <trkpt lat="44.52685" lon="4.25184">
        <ele>408</ele>
        <time>2018-06-03T06:45:48.000Z</time>
      </trkpt>
      <trkpt lat="44.52683" lon="4.25185">
        <ele>408</ele>
        <time>2018-06-03T06:45:49.000Z</time>
      </trkpt>
      <trkpt lat="44.52682" lon="4.25186">
        <ele>408</ele>
        <time>2018-06-03T06:45:50.000Z</time>
      </trkpt>
      <trkpt lat="44.52682" lon="4.25187">
        <ele>408</ele>
        <time>2018-06-03T06:45:51.000Z</time>
      </trkpt>
      <trkpt lat="44.52682" lon="4.25189">
        <ele>408</ele>
        <time>2018-06-03T06:45:52.000Z</time>
      </trkpt>
      <trkpt lat="44.52679" lon="4.25191">
        <ele>408</ele>
        <time>2018-06-03T06:45:53.000Z</time>
      </trkpt>
      <trkpt lat="44.52677" lon="4.25192">
        <ele>408</ele>
        <time>2018-06-03T06:45:54.000Z</time>
      </trkpt>
      <trkpt lat="44.52675" lon="4.25192">
        <ele>408</ele>
        <time>2018-06-03T06:45:55.000Z</time>
      </trkpt>
      <trkpt lat="44.52673" lon="4.2519">
        <ele>408</ele>
        <time>2018-06-03T06:45:56.000Z</time>
      </trkpt>
      <trkpt lat="44.52671" lon="4.25189">
        <ele>408</ele>
        <time>2018-06-03T06:45:57.000Z</time>
      </trkpt>
      <trkpt lat="44.52669" lon="4.25189">
        <ele>408</ele>
        <time>2018-06-03T06:45:58.000Z</time>
      </trkpt>
      <trkpt lat="44.52667" lon="4.25191">
        <ele>397</ele>
        <time>2018-06-03T06:45:59.000Z</time>
      </trkpt>
      <trkpt lat="44.52665" lon="4.25195">
        <ele>397</ele>
        <time>2018-06-03T06:46:00.000Z</time>
      </trkpt>
      <trkpt lat="44.52664" lon="4.25199">
        <ele>396</ele>
        <time>2018-06-03T06:46:01.000Z</time>
      </trkpt>
      <trkpt lat="44.52663" lon="4.25203">
        <ele>396</ele>
        <time>2018-06-03T06:46:02.000Z</time>
      </trkpt>
      <trkpt lat="44.52664" lon="4.25206">
        <ele>396</ele>
        <time>2018-06-03T06:46:03.000Z</time>
      </trkpt>
      <trkpt lat="44.52664" lon="4.25209">
        <ele>396</ele>
        <time>2018-06-03T06:46:04.000Z</time>
      </trkpt>
      <trkpt lat="44.52664" lon="4.25212">
        <ele>396</ele>
        <time>2018-06-03T06:46:05.000Z</time>
      </trkpt>
      <trkpt lat="44.52663" lon="4.25214">
        <ele>396</ele>
        <time>2018-06-03T06:46:06.000Z</time>
      </trkpt>
      <trkpt lat="44.52659" lon="4.25214">
        <ele>396</ele>
        <time>2018-06-03T06:46:07.000Z</time>
      </trkpt>
      <trkpt lat="44.52655" lon="4.25211">
        <ele>395</ele>
        <time>2018-06-03T06:46:08.000Z</time>
      </trkpt>
      <trkpt lat="44.52651" lon="4.25206">
        <ele>395</ele>
        <time>2018-06-03T06:46:09.000Z</time>
      </trkpt>
      <trkpt lat="44.52647" lon="4.25204">
        <ele>395</ele>
        <time>2018-06-03T06:46:10.000Z</time>
      </trkpt>
      <trkpt lat="44.52642" lon="4.25201">
        <ele>394</ele>
        <time>2018-06-03T06:46:11.000Z</time>
      </trkpt>
      <trkpt lat="44.52638" lon="4.25198">
        <ele>393</ele>
        <time>2018-06-03T06:46:12.000Z</time>
      </trkpt>
      <trkpt lat="44.52633" lon="4.25193">
        <ele>393</ele>
        <time>2018-06-03T06:46:13.000Z</time>
      </trkpt>
      <trkpt lat="44.52629" lon="4.25188">
        <ele>392</ele>
        <time>2018-06-03T06:46:14.000Z</time>
      </trkpt>
      <trkpt lat="44.52625" lon="4.25182">
        <ele>391</ele>
        <time>2018-06-03T06:46:15.000Z</time>
      </trkpt>
      <trkpt lat="44.52622" lon="4.25175">
        <ele>391</ele>
        <time>2018-06-03T06:46:16.000Z</time>
      </trkpt>
      <trkpt lat="44.5262" lon="4.25168">
        <ele>390</ele>
        <time>2018-06-03T06:46:17.000Z</time>
      </trkpt>
      <trkpt lat="44.52619" lon="4.25161">
        <ele>386</ele>
        <time>2018-06-03T06:46:18.000Z</time>
      </trkpt>
      <trkpt lat="44.52617" lon="4.25153">
        <ele>386</ele>
        <time>2018-06-03T06:46:19.000Z</time>
      </trkpt>
      <trkpt lat="44.52615" lon="4.25145">
        <ele>385</ele>
        <time>2018-06-03T06:46:20.000Z</time>
      </trkpt>
      <trkpt lat="44.52614" lon="4.25136">
        <ele>385</ele>
        <time>2018-06-03T06:46:21.000Z</time>
      </trkpt>
      <trkpt lat="44.52614" lon="4.25129">
        <ele>384</ele>
        <time>2018-06-03T06:46:22.000Z</time>
      </trkpt>
      <trkpt lat="44.52614" lon="4.25122">
        <ele>384</ele>
        <time>2018-06-03T06:46:23.000Z</time>
      </trkpt>
      <trkpt lat="44.52615" lon="4.25116">
        <ele>384</ele>
        <time>2018-06-03T06:46:24.000Z</time>
      </trkpt>
      <trkpt lat="44.52615" lon="4.25109">
        <ele>383</ele>
        <time>2018-06-03T06:46:25.000Z</time>
      </trkpt>
      <trkpt lat="44.52617" lon="4.25103">
        <ele>383</ele>
        <time>2018-06-03T06:46:26.000Z</time>
      </trkpt>
      <trkpt lat="44.52619" lon="4.25098">
        <ele>383</ele>
        <time>2018-06-03T06:46:27.000Z</time>
      </trkpt>
      <trkpt lat="44.52622" lon="4.25093">
        <ele>384</ele>
        <time>2018-06-03T06:46:28.000Z</time>
      </trkpt>
      <trkpt lat="44.52625" lon="4.25089">
        <ele>384</ele>
        <time>2018-06-03T06:46:29.000Z</time>
      </trkpt>
      <trkpt lat="44.52628" lon="4.25084">
        <ele>385</ele>
        <time>2018-06-03T06:46:30.000Z</time>
      </trkpt>
      <trkpt lat="44.52631" lon="4.25079">
        <ele>378</ele>
        <time>2018-06-03T06:46:31.000Z</time>
      </trkpt>
      <trkpt lat="44.52636" lon="4.25076">
        <ele>379</ele>
        <time>2018-06-03T06:46:32.000Z</time>
      </trkpt>
      <trkpt lat="44.5264" lon="4.25072">
        <ele>379</ele>
        <time>2018-06-03T06:46:33.000Z</time>
      </trkpt>
      <trkpt lat="44.52644" lon="4.25068">
        <ele>380</ele>
        <time>2018-06-03T06:46:34.000Z</time>
      </trkpt>
      <trkpt lat="44.52647" lon="4.25065">
        <ele>380</ele>
        <time>2018-06-03T06:46:35.000Z</time>
      </trkpt>
      <trkpt lat="44.52649" lon="4.25063">
        <ele>380</ele>
        <time>2018-06-03T06:46:36.000Z</time>
      </trkpt>
      <trkpt lat="44.5265" lon="4.25063">
        <ele>380</ele>
        <time>2018-06-03T06:46:37.000Z</time>
      </trkpt>
      <trkpt lat="44.52649" lon="4.25063">
        <ele>380</ele>
        <time>2018-06-03T06:46:38.000Z</time>
      </trkpt>
      <trkpt lat="44.52649" lon="4.25061">
        <ele>380</ele>
        <time>2018-06-03T06:46:39.000Z</time>
      </trkpt>
      <trkpt lat="44.5265" lon="4.25059">
        <ele>379</ele>
        <time>2018-06-03T06:46:40.000Z</time>
      </trkpt>
      <trkpt lat="44.52652" lon="4.25056">
        <ele>379</ele>
        <time>2018-06-03T06:46:41.000Z</time>
      </trkpt>
      <trkpt lat="44.52654" lon="4.25054">
        <ele>379</ele>
        <time>2018-06-03T06:46:42.000Z</time>
      </trkpt>
      <trkpt lat="44.52656" lon="4.2505">
        <ele>379</ele>
        <time>2018-06-03T06:46:43.000Z</time>
      </trkpt>
      <trkpt lat="44.52659" lon="4.25047">
        <ele>378</ele>
        <time>2018-06-03T06:46:44.000Z</time>
      </trkpt>
      <trkpt lat="44.52662" lon="4.25044">
        <ele>378</ele>
        <time>2018-06-03T06:46:45.000Z</time>
      </trkpt>
      <trkpt lat="44.52666" lon="4.25043">
        <ele>378</ele>
        <time>2018-06-03T06:46:46.000Z</time>
      </trkpt>
      <trkpt lat="44.52669" lon="4.25042">
        <ele>388</ele>
        <time>2018-06-03T06:46:47.000Z</time>
      </trkpt>
      <trkpt lat="44.52673" lon="4.25042">
        <ele>388</ele>
        <time>2018-06-03T06:46:48.000Z</time>
      </trkpt>
      <trkpt lat="44.52677" lon="4.25041">
        <ele>388</ele>
        <time>2018-06-03T06:46:49.000Z</time>
      </trkpt>
      <trkpt lat="44.52681" lon="4.25041">
        <ele>388</ele>
        <time>2018-06-03T06:46:50.000Z</time>
      </trkpt>
      <trkpt lat="44.52686" lon="4.25041">
        <ele>388</ele>
        <time>2018-06-03T06:46:51.000Z</time>
      </trkpt>
      <trkpt lat="44.5269" lon="4.25041">
        <ele>389</ele>
        <time>2018-06-03T06:46:52.000Z</time>
      </trkpt>
      <trkpt lat="44.52694" lon="4.25041">
        <ele>389</ele>
        <time>2018-06-03T06:46:53.000Z</time>
      </trkpt>
      <trkpt lat="44.52699" lon="4.25041">
        <ele>389</ele>
        <time>2018-06-03T06:46:54.000Z</time>
      </trkpt>
      <trkpt lat="44.52704" lon="4.2504">
        <ele>389</ele>
        <time>2018-06-03T06:46:55.000Z</time>
      </trkpt>
      <trkpt lat="44.52708" lon="4.25039">
        <ele>389</ele>
        <time>2018-06-03T06:46:56.000Z</time>
      </trkpt>
      <trkpt lat="44.52713" lon="4.25039">
        <ele>390</ele>
        <time>2018-06-03T06:46:57.000Z</time>
      </trkpt>
      <trkpt lat="44.52717" lon="4.25038">
        <ele>390</ele>
        <time>2018-06-03T06:46:58.000Z</time>
      </trkpt>
      <trkpt lat="44.52722" lon="4.25037">
        <ele>390</ele>
        <time>2018-06-03T06:46:59.000Z</time>
      </trkpt>
      <trkpt lat="44.52726" lon="4.25036">
        <ele>390</ele>
        <time>2018-06-03T06:47:00.000Z</time>
      </trkpt>
      <trkpt lat="44.52731" lon="4.25034">
        <ele>390</ele>
        <time>2018-06-03T06:47:01.000Z</time>
      </trkpt>
      <trkpt lat="44.52736" lon="4.25032">
        <ele>389</ele>
        <time>2018-06-03T06:47:02.000Z</time>
      </trkpt>
      <trkpt lat="44.52741" lon="4.2503">
        <ele>389</ele>
        <time>2018-06-03T06:47:03.000Z</time>
      </trkpt>
      <trkpt lat="44.52746" lon="4.25029">
        <ele>389</ele>
        <time>2018-06-03T06:47:04.000Z</time>
      </trkpt>
      <trkpt lat="44.52751" lon="4.25029">
        <ele>393</ele>
        <time>2018-06-03T06:47:05.000Z</time>
      </trkpt>
      <trkpt lat="44.52756" lon="4.25028">
        <ele>393</ele>
        <time>2018-06-03T06:47:06.000Z</time>
      </trkpt>
      <trkpt lat="44.52761" lon="4.25028">
        <ele>394</ele>
        <time>2018-06-03T06:47:07.000Z</time>
      </trkpt>
      <trkpt lat="44.52766" lon="4.25028">
        <ele>394</ele>
        <time>2018-06-03T06:47:08.000Z</time>
      </trkpt>
      <trkpt lat="44.52771" lon="4.25028">
        <ele>394</ele>
        <time>2018-06-03T06:47:09.000Z</time>
      </trkpt>
      <trkpt lat="44.52775" lon="4.25028">
        <ele>395</ele>
        <time>2018-06-03T06:47:10.000Z</time>
      </trkpt>
      <trkpt lat="44.5278" lon="4.25028">
        <ele>395</ele>
        <time>2018-06-03T06:47:11.000Z</time>
      </trkpt>
      <trkpt lat="44.52785" lon="4.25029">
        <ele>396</ele>
        <time>2018-06-03T06:47:12.000Z</time>
      </trkpt>
      <trkpt lat="44.52789" lon="4.2503">
        <ele>396</ele>
        <time>2018-06-03T06:47:13.000Z</time>
      </trkpt>
      <trkpt lat="44.52792" lon="4.2503">
        <ele>396</ele>
        <time>2018-06-03T06:47:14.000Z</time>
      </trkpt>
      <trkpt lat="44.52796" lon="4.25031">
        <ele>396</ele>
        <time>2018-06-03T06:47:15.000Z</time>
      </trkpt>
      <trkpt lat="44.528" lon="4.25032">
        <ele>397</ele>
        <time>2018-06-03T06:47:16.000Z</time>
      </trkpt>
      <trkpt lat="44.52804" lon="4.25032">
        <ele>397</ele>
        <time>2018-06-03T06:47:17.000Z</time>
      </trkpt>
      <trkpt lat="44.52809" lon="4.25033">
        <ele>397</ele>
        <time>2018-06-03T06:47:18.000Z</time>
      </trkpt>
      <trkpt lat="44.52813" lon="4.25033">
        <ele>397</ele>
        <time>2018-06-03T06:47:19.000Z</time>
      </trkpt>
      <trkpt lat="44.52817" lon="4.25032">
        <ele>397</ele>
        <time>2018-06-03T06:47:20.000Z</time>
      </trkpt>
      <trkpt lat="44.52821" lon="4.25032">
        <ele>397</ele>
        <time>2018-06-03T06:47:21.000Z</time>
      </trkpt>
      <trkpt lat="44.52826" lon="4.25031">
        <ele>397</ele>
        <time>2018-06-03T06:47:22.000Z</time>
      </trkpt>
      <trkpt lat="44.5283" lon="4.25031">
        <ele>397</ele>
        <time>2018-06-03T06:47:23.000Z</time>
      </trkpt>
      <trkpt lat="44.52834" lon="4.25031">
        <ele>402</ele>
        <time>2018-06-03T06:47:24.000Z</time>
      </trkpt>
      <trkpt lat="44.52838" lon="4.25031">
        <ele>402</ele>
        <time>2018-06-03T06:47:25.000Z</time>
      </trkpt>
      <trkpt lat="44.52842" lon="4.2503">
        <ele>402</ele>
        <time>2018-06-03T06:47:26.000Z</time>
      </trkpt>
      <trkpt lat="44.52847" lon="4.2503">
        <ele>402</ele>
        <time>2018-06-03T06:47:27.000Z</time>
      </trkpt>
      <trkpt lat="44.52851" lon="4.25029">
        <ele>402</ele>
        <time>2018-06-03T06:47:28.000Z</time>
      </trkpt>
      <trkpt lat="44.52855" lon="4.25029">
        <ele>403</ele>
        <time>2018-06-03T06:47:29.000Z</time>
      </trkpt>
      <trkpt lat="44.5286" lon="4.25028">
        <ele>403</ele>
        <time>2018-06-03T06:47:30.000Z</time>
      </trkpt>
      <trkpt lat="44.52864" lon="4.25028">
        <ele>403</ele>
        <time>2018-06-03T06:47:31.000Z</time>
      </trkpt>
      <trkpt lat="44.52869" lon="4.25028">
        <ele>404</ele>
        <time>2018-06-03T06:47:32.000Z</time>
      </trkpt>
      <trkpt lat="44.52873" lon="4.25027">
        <ele>404</ele>
        <time>2018-06-03T06:47:33.000Z</time>
      </trkpt>
      <trkpt lat="44.52877" lon="4.25026">
        <ele>404</ele>
        <time>2018-06-03T06:47:34.000Z</time>
      </trkpt>
      <trkpt lat="44.52881" lon="4.25025">
        <ele>404</ele>
        <time>2018-06-03T06:47:35.000Z</time>
      </trkpt>
      <trkpt lat="44.52885" lon="4.25023">
        <ele>404</ele>
        <time>2018-06-03T06:47:36.000Z</time>
      </trkpt>
      <trkpt lat="44.5289" lon="4.25022">
        <ele>404</ele>
        <time>2018-06-03T06:47:37.000Z</time>
      </trkpt>
      <trkpt lat="44.52895" lon="4.25021">
        <ele>404</ele>
        <time>2018-06-03T06:47:38.000Z</time>
      </trkpt>
      <trkpt lat="44.52899" lon="4.25019">
        <ele>404</ele>
        <time>2018-06-03T06:47:39.000Z</time>
      </trkpt>
      <trkpt lat="44.52904" lon="4.25017">
        <ele>403</ele>
        <time>2018-06-03T06:47:40.000Z</time>
      </trkpt>
      <trkpt lat="44.52909" lon="4.25015">
        <ele>403</ele>
        <time>2018-06-03T06:47:41.000Z</time>
      </trkpt>
      <trkpt lat="44.52913" lon="4.25013">
        <ele>402</ele>
        <time>2018-06-03T06:47:42.000Z</time>
      </trkpt>
      <trkpt lat="44.52918" lon="4.25011">
        <ele>407</ele>
        <time>2018-06-03T06:47:43.000Z</time>
      </trkpt>
      <trkpt lat="44.52922" lon="4.25008">
        <ele>406</ele>
        <time>2018-06-03T06:47:44.000Z</time>
      </trkpt>
      <trkpt lat="44.52926" lon="4.25005">
        <ele>407</ele>
        <time>2018-06-03T06:47:45.000Z</time>
      </trkpt>
      <trkpt lat="44.5293" lon="4.25003">
        <ele>408</ele>
        <time>2018-06-03T06:47:46.000Z</time>
      </trkpt>
      <trkpt lat="44.52934" lon="4.25001">
        <ele>410</ele>
        <time>2018-06-03T06:47:47.000Z</time>
      </trkpt>
      <trkpt lat="44.52938" lon="4.24998">
        <ele>404</ele>
        <time>2018-06-03T06:47:48.000Z</time>
      </trkpt>
      <trkpt lat="44.52942" lon="4.24996">
        <ele>405</ele>
        <time>2018-06-03T06:47:49.000Z</time>
      </trkpt>
      <trkpt lat="44.52945" lon="4.24993">
        <ele>406</ele>
        <time>2018-06-03T06:47:50.000Z</time>
      </trkpt>
      <trkpt lat="44.52949" lon="4.24989">
        <ele>406</ele>
        <time>2018-06-03T06:47:51.000Z</time>
      </trkpt>
      <trkpt lat="44.52952" lon="4.24984">
        <ele>407</ele>
        <time>2018-06-03T06:47:52.000Z</time>
      </trkpt>
      <trkpt lat="44.52955" lon="4.24979">
        <ele>407</ele>
        <time>2018-06-03T06:47:53.000Z</time>
      </trkpt>
      <trkpt lat="44.52958" lon="4.24973">
        <ele>408</ele>
        <time>2018-06-03T06:47:54.000Z</time>
      </trkpt>
      <trkpt lat="44.52962" lon="4.24967">
        <ele>408</ele>
        <time>2018-06-03T06:47:55.000Z</time>
      </trkpt>
      <trkpt lat="44.52965" lon="4.24961">
        <ele>408</ele>
        <time>2018-06-03T06:47:56.000Z</time>
      </trkpt>
      <trkpt lat="44.52968" lon="4.24955">
        <ele>408</ele>
        <time>2018-06-03T06:47:57.000Z</time>
      </trkpt>
      <trkpt lat="44.52971" lon="4.24948">
        <ele>408</ele>
        <time>2018-06-03T06:47:58.000Z</time>
      </trkpt>
      <trkpt lat="44.52972" lon="4.24941">
        <ele>408</ele>
        <time>2018-06-03T06:47:59.000Z</time>
      </trkpt>
      <trkpt lat="44.52971" lon="4.24934">
        <ele>408</ele>
        <time>2018-06-03T06:48:00.000Z</time>
      </trkpt>
      <trkpt lat="44.5297" lon="4.24928">
        <ele>407</ele>
        <time>2018-06-03T06:48:01.000Z</time>
      </trkpt>
      <trkpt lat="44.52967" lon="4.24922">
        <ele>407</ele>
        <time>2018-06-03T06:48:02.000Z</time>
      </trkpt>
      <trkpt lat="44.52963" lon="4.24917">
        <ele>409</ele>
        <time>2018-06-03T06:48:03.000Z</time>
      </trkpt>
      <trkpt lat="44.52958" lon="4.24912">
        <ele>408</ele>
        <time>2018-06-03T06:48:04.000Z</time>
      </trkpt>
      <trkpt lat="44.52953" lon="4.24907">
        <ele>407</ele>
        <time>2018-06-03T06:48:05.000Z</time>
      </trkpt>
      <trkpt lat="44.52948" lon="4.24903">
        <ele>406</ele>
        <time>2018-06-03T06:48:06.000Z</time>
      </trkpt>
      <trkpt lat="44.52943" lon="4.24898">
        <ele>406</ele>
        <time>2018-06-03T06:48:07.000Z</time>
      </trkpt>
      <trkpt lat="44.52939" lon="4.24892">
        <ele>406</ele>
        <time>2018-06-03T06:48:08.000Z</time>
      </trkpt>
      <trkpt lat="44.52935" lon="4.24886">
        <ele>406</ele>
        <time>2018-06-03T06:48:09.000Z</time>
      </trkpt>
      <trkpt lat="44.52931" lon="4.24881">
        <ele>407</ele>
        <time>2018-06-03T06:48:10.000Z</time>
      </trkpt>
      <trkpt lat="44.52927" lon="4.24875">
        <ele>407</ele>
        <time>2018-06-03T06:48:11.000Z</time>
      </trkpt>
      <trkpt lat="44.52923" lon="4.2487">
        <ele>407</ele>
        <time>2018-06-03T06:48:12.000Z</time>
      </trkpt>
      <trkpt lat="44.52919" lon="4.24864">
        <ele>408</ele>
        <time>2018-06-03T06:48:13.000Z</time>
      </trkpt>
      <trkpt lat="44.52914" lon="4.24857">
        <ele>397</ele>
        <time>2018-06-03T06:48:14.000Z</time>
      </trkpt>
      <trkpt lat="44.5291" lon="4.24851">
        <ele>398</ele>
        <time>2018-06-03T06:48:15.000Z</time>
      </trkpt>
      <trkpt lat="44.52906" lon="4.24843">
        <ele>399</ele>
        <time>2018-06-03T06:48:16.000Z</time>
      </trkpt>
      <trkpt lat="44.52902" lon="4.24836">
        <ele>399</ele>
        <time>2018-06-03T06:48:17.000Z</time>
      </trkpt>
      <trkpt lat="44.52898" lon="4.24828">
        <ele>403</ele>
        <time>2018-06-03T06:48:18.000Z</time>
      </trkpt>
      <trkpt lat="44.52893" lon="4.24819">
        <ele>403</ele>
        <time>2018-06-03T06:48:19.000Z</time>
      </trkpt>
      <trkpt lat="44.52889" lon="4.24811">
        <ele>402</ele>
        <time>2018-06-03T06:48:20.000Z</time>
      </trkpt>
      <trkpt lat="44.52884" lon="4.24803">
        <ele>402</ele>
        <time>2018-06-03T06:48:21.000Z</time>
      </trkpt>
      <trkpt lat="44.5288" lon="4.24796">
        <ele>402</ele>
        <time>2018-06-03T06:48:22.000Z</time>
      </trkpt>
      <trkpt lat="44.52875" lon="4.24789">
        <ele>402</ele>
        <time>2018-06-03T06:48:23.000Z</time>
      </trkpt>
      <trkpt lat="44.5287" lon="4.24782">
        <ele>401</ele>
        <time>2018-06-03T06:48:24.000Z</time>
      </trkpt>
      <trkpt lat="44.52866" lon="4.24776">
        <ele>401</ele>
        <time>2018-06-03T06:48:25.000Z</time>
      </trkpt>
      <trkpt lat="44.52862" lon="4.24771">
        <ele>400</ele>
        <time>2018-06-03T06:48:26.000Z</time>
      </trkpt>
      <trkpt lat="44.52858" lon="4.24765">
        <ele>400</ele>
        <time>2018-06-03T06:48:27.000Z</time>
      </trkpt>
      <trkpt lat="44.52854" lon="4.2476">
        <ele>399</ele>
        <time>2018-06-03T06:48:28.000Z</time>
      </trkpt>
      <trkpt lat="44.5285" lon="4.24755">
        <ele>398</ele>
        <time>2018-06-03T06:48:29.000Z</time>
      </trkpt>
      <trkpt lat="44.52848" lon="4.24749">
        <ele>400</ele>
        <time>2018-06-03T06:48:30.000Z</time>
      </trkpt>
      <trkpt lat="44.52847" lon="4.24743">
        <ele>400</ele>
        <time>2018-06-03T06:48:31.000Z</time>
      </trkpt>
      <trkpt lat="44.52846" lon="4.24738">
        <ele>400</ele>
        <time>2018-06-03T06:48:32.000Z</time>
      </trkpt>
      <trkpt lat="44.52846" lon="4.24733">
        <ele>401</ele>
        <time>2018-06-03T06:48:33.000Z</time>
      </trkpt>
      <trkpt lat="44.52846" lon="4.24728">
        <ele>401</ele>
        <time>2018-06-03T06:48:34.000Z</time>
      </trkpt>
      <trkpt lat="44.52847" lon="4.24724">
        <ele>402</ele>
        <time>2018-06-03T06:48:35.000Z</time>
      </trkpt>
      <trkpt lat="44.52848" lon="4.24721">
        <ele>402</ele>
        <time>2018-06-03T06:48:36.000Z</time>
      </trkpt>
      <trkpt lat="44.5285" lon="4.2472">
        <ele>403</ele>
        <time>2018-06-03T06:48:37.000Z</time>
      </trkpt>
      <trkpt lat="44.52852" lon="4.24719">
        <ele>403</ele>
        <time>2018-06-03T06:48:38.000Z</time>
      </trkpt>
      <trkpt lat="44.52853" lon="4.24718">
        <ele>403</ele>
        <time>2018-06-03T06:48:39.000Z</time>
      </trkpt>
      <trkpt lat="44.52855" lon="4.24716">
        <ele>403</ele>
        <time>2018-06-03T06:48:40.000Z</time>
      </trkpt>
      <trkpt lat="44.52857" lon="4.24713">
        <ele>404</ele>
        <time>2018-06-03T06:48:41.000Z</time>
      </trkpt>
      <trkpt lat="44.52859" lon="4.2471">
        <ele>404</ele>
        <time>2018-06-03T06:48:42.000Z</time>
      </trkpt>
      <trkpt lat="44.52861" lon="4.24707">
        <ele>404</ele>
        <time>2018-06-03T06:48:43.000Z</time>
      </trkpt>
      <trkpt lat="44.52863" lon="4.24703">
        <ele>405</ele>
        <time>2018-06-03T06:48:44.000Z</time>
      </trkpt>
      <trkpt lat="44.52864" lon="4.24699">
        <ele>405</ele>
        <time>2018-06-03T06:48:45.000Z</time>
      </trkpt>
      <trkpt lat="44.52866" lon="4.24695">
        <ele>405</ele>
        <time>2018-06-03T06:48:46.000Z</time>
      </trkpt>
      <trkpt lat="44.52867" lon="4.24692">
        <ele>405</ele>
        <time>2018-06-03T06:48:47.000Z</time>
      </trkpt>
      <trkpt lat="44.52868" lon="4.24688">
        <ele>405</ele>
        <time>2018-06-03T06:48:48.000Z</time>
      </trkpt>
      <trkpt lat="44.52869" lon="4.24685">
        <ele>405</ele>
        <time>2018-06-03T06:48:49.000Z</time>
      </trkpt>
      <trkpt lat="44.5287" lon="4.24681">
        <ele>406</ele>
        <time>2018-06-03T06:48:50.000Z</time>
      </trkpt>
      <trkpt lat="44.52872" lon="4.24678">
        <ele>406</ele>
        <time>2018-06-03T06:48:51.000Z</time>
      </trkpt>
      <trkpt lat="44.52873" lon="4.24675">
        <ele>406</ele>
        <time>2018-06-03T06:48:52.000Z</time>
      </trkpt>
      <trkpt lat="44.52874" lon="4.24672">
        <ele>406</ele>
        <time>2018-06-03T06:48:53.000Z</time>
      </trkpt>
      <trkpt lat="44.52876" lon="4.24668">
        <ele>407</ele>
        <time>2018-06-03T06:48:54.000Z</time>
      </trkpt>
      <trkpt lat="44.52877" lon="4.24665">
        <ele>405</ele>
        <time>2018-06-03T06:48:55.000Z</time>
      </trkpt>
      <trkpt lat="44.52878" lon="4.24662">
        <ele>405</ele>
        <time>2018-06-03T06:48:56.000Z</time>
      </trkpt>
      <trkpt lat="44.52878" lon="4.24659">
        <ele>406</ele>
        <time>2018-06-03T06:48:57.000Z</time>
      </trkpt>
      <trkpt lat="44.52879" lon="4.24656">
        <ele>406</ele>
        <time>2018-06-03T06:48:58.000Z</time>
      </trkpt>
      <trkpt lat="44.52879" lon="4.24654">
        <ele>406</ele>
        <time>2018-06-03T06:48:59.000Z</time>
      </trkpt>
      <trkpt lat="44.5288" lon="4.2465">
        <ele>406</ele>
        <time>2018-06-03T06:49:00.000Z</time>
      </trkpt>
      <trkpt lat="44.5288" lon="4.24647">
        <ele>405</ele>
        <time>2018-06-03T06:49:01.000Z</time>
      </trkpt>
      <trkpt lat="44.5288" lon="4.24644">
        <ele>405</ele>
        <time>2018-06-03T06:49:02.000Z</time>
      </trkpt>
      <trkpt lat="44.5288" lon="4.24641">
        <ele>405</ele>
        <time>2018-06-03T06:49:03.000Z</time>
      </trkpt>
      <trkpt lat="44.5288" lon="4.24637">
        <ele>405</ele>
        <time>2018-06-03T06:49:04.000Z</time>
      </trkpt>
      <trkpt lat="44.5288" lon="4.24634">
        <ele>405</ele>
        <time>2018-06-03T06:49:05.000Z</time>
      </trkpt>
      <trkpt lat="44.5288" lon="4.2463">
        <ele>404</ele>
        <time>2018-06-03T06:49:06.000Z</time>
      </trkpt>
      <trkpt lat="44.5288" lon="4.24627">
        <ele>404</ele>
        <time>2018-06-03T06:49:07.000Z</time>
      </trkpt>
      <trkpt lat="44.5288" lon="4.24624">
        <ele>404</ele>
        <time>2018-06-03T06:49:08.000Z</time>
      </trkpt>
      <trkpt lat="44.5288" lon="4.2462">
        <ele>404</ele>
        <time>2018-06-03T06:49:09.000Z</time>
      </trkpt>
      <trkpt lat="44.5288" lon="4.24617">
        <ele>404</ele>
        <time>2018-06-03T06:49:10.000Z</time>
      </trkpt>
      <trkpt lat="44.52879" lon="4.24615">
        <ele>404</ele>
        <time>2018-06-03T06:49:11.000Z</time>
      </trkpt>
      <trkpt lat="44.52879" lon="4.24612">
        <ele>404</ele>
        <time>2018-06-03T06:49:12.000Z</time>
      </trkpt>
      <trkpt lat="44.52879" lon="4.24609">
        <ele>404</ele>
        <time>2018-06-03T06:49:13.000Z</time>
      </trkpt>
      <trkpt lat="44.52879" lon="4.24606">
        <ele>404</ele>
        <time>2018-06-03T06:49:14.000Z</time>
      </trkpt>
      <trkpt lat="44.5288" lon="4.24603">
        <ele>404</ele>
        <time>2018-06-03T06:49:15.000Z</time>
      </trkpt>
      <trkpt lat="44.5288" lon="4.246">
        <ele>404</ele>
        <time>2018-06-03T06:49:16.000Z</time>
      </trkpt>
      <trkpt lat="44.52881" lon="4.24598">
        <ele>404</ele>
        <time>2018-06-03T06:49:17.000Z</time>
      </trkpt>
      <trkpt lat="44.52882" lon="4.24595">
        <ele>404</ele>
        <time>2018-06-03T06:49:18.000Z</time>
      </trkpt>
      <trkpt lat="44.52883" lon="4.24593">
        <ele>404</ele>
        <time>2018-06-03T06:49:19.000Z</time>
      </trkpt>
      <trkpt lat="44.52884" lon="4.2459">
        <ele>404</ele>
        <time>2018-06-03T06:49:20.000Z</time>
      </trkpt>
      <trkpt lat="44.52886" lon="4.24588">
        <ele>405</ele>
        <time>2018-06-03T06:49:21.000Z</time>
      </trkpt>
      <trkpt lat="44.52888" lon="4.24586">
        <ele>405</ele>
        <time>2018-06-03T06:49:22.000Z</time>
      </trkpt>
      <trkpt lat="44.5289" lon="4.24584">
        <ele>406</ele>
        <time>2018-06-03T06:49:23.000Z</time>
      </trkpt>
      <trkpt lat="44.52892" lon="4.24583">
        <ele>400</ele>
        <time>2018-06-03T06:49:24.000Z</time>
      </trkpt>
      <trkpt lat="44.52894" lon="4.24581">
        <ele>401</ele>
        <time>2018-06-03T06:49:25.000Z</time>
      </trkpt>
      <trkpt lat="44.52897" lon="4.2458">
        <ele>402</ele>
        <time>2018-06-03T06:49:26.000Z</time>
      </trkpt>
      <trkpt lat="44.52899" lon="4.24579">
        <ele>403</ele>
        <time>2018-06-03T06:49:27.000Z</time>
      </trkpt>
      <trkpt lat="44.529" lon="4.24578">
        <ele>403</ele>
        <time>2018-06-03T06:49:28.000Z</time>
      </trkpt>
      <trkpt lat="44.52902" lon="4.24576">
        <ele>404</ele>
        <time>2018-06-03T06:49:29.000Z</time>
      </trkpt>
      <trkpt lat="44.52904" lon="4.24575">
        <ele>404</ele>
        <time>2018-06-03T06:49:30.000Z</time>
      </trkpt>
      <trkpt lat="44.52906" lon="4.24574">
        <ele>405</ele>
        <time>2018-06-03T06:49:31.000Z</time>
      </trkpt>
      <trkpt lat="44.52908" lon="4.24573">
        <ele>405</ele>
        <time>2018-06-03T06:49:32.000Z</time>
      </trkpt>
      <trkpt lat="44.5291" lon="4.24572">
        <ele>405</ele>
        <time>2018-06-03T06:49:33.000Z</time>
      </trkpt>
      <trkpt lat="44.52913" lon="4.24571">
        <ele>405</ele>
        <time>2018-06-03T06:49:34.000Z</time>
      </trkpt>
      <trkpt lat="44.52915" lon="4.24569">
        <ele>405</ele>
        <time>2018-06-03T06:49:35.000Z</time>
      </trkpt>
      <trkpt lat="44.52917" lon="4.24568">
        <ele>404</ele>
        <time>2018-06-03T06:49:36.000Z</time>
      </trkpt>
      <trkpt lat="44.52919" lon="4.24566">
        <ele>411</ele>
        <time>2018-06-03T06:49:37.000Z</time>
      </trkpt>
      <trkpt lat="44.52921" lon="4.24565">
        <ele>411</ele>
        <time>2018-06-03T06:49:38.000Z</time>
      </trkpt>
      <trkpt lat="44.52923" lon="4.24563">
        <ele>411</ele>
        <time>2018-06-03T06:49:39.000Z</time>
      </trkpt>
      <trkpt lat="44.52926" lon="4.24562">
        <ele>410</ele>
        <time>2018-06-03T06:49:40.000Z</time>
      </trkpt>
      <trkpt lat="44.52928" lon="4.24559">
        <ele>410</ele>
        <time>2018-06-03T06:49:41.000Z</time>
      </trkpt>
      <trkpt lat="44.52931" lon="4.24557">
        <ele>410</ele>
        <time>2018-06-03T06:49:42.000Z</time>
      </trkpt>
      <trkpt lat="44.52933" lon="4.24556">
        <ele>410</ele>
        <time>2018-06-03T06:49:43.000Z</time>
      </trkpt>
      <trkpt lat="44.52936" lon="4.24555">
        <ele>410</ele>
        <time>2018-06-03T06:49:44.000Z</time>
      </trkpt>
      <trkpt lat="44.52939" lon="4.24554">
        <ele>410</ele>
        <time>2018-06-03T06:49:45.000Z</time>
      </trkpt>
      <trkpt lat="44.52942" lon="4.24552">
        <ele>410</ele>
        <time>2018-06-03T06:49:46.000Z</time>
      </trkpt>
      <trkpt lat="44.52945" lon="4.24551">
        <ele>410</ele>
        <time>2018-06-03T06:49:47.000Z</time>
      </trkpt>
      <trkpt lat="44.52949" lon="4.2455">
        <ele>410</ele>
        <time>2018-06-03T06:49:48.000Z</time>
      </trkpt>
      <trkpt lat="44.52952" lon="4.24549">
        <ele>410</ele>
        <time>2018-06-03T06:49:49.000Z</time>
      </trkpt>
      <trkpt lat="44.52955" lon="4.24547">
        <ele>410</ele>
        <time>2018-06-03T06:49:50.000Z</time>
      </trkpt>
      <trkpt lat="44.52958" lon="4.24545">
        <ele>410</ele>
        <time>2018-06-03T06:49:51.000Z</time>
      </trkpt>
      <trkpt lat="44.52962" lon="4.24543">
        <ele>410</ele>
        <time>2018-06-03T06:49:52.000Z</time>
      </trkpt>
      <trkpt lat="44.52965" lon="4.24542">
        <ele>410</ele>
        <time>2018-06-03T06:49:53.000Z</time>
      </trkpt>
      <trkpt lat="44.52968" lon="4.2454">
        <ele>410</ele>
        <time>2018-06-03T06:49:54.000Z</time>
      </trkpt>
      <trkpt lat="44.52971" lon="4.24538">
        <ele>410</ele>
        <time>2018-06-03T06:49:55.000Z</time>
      </trkpt>
      <trkpt lat="44.52974" lon="4.24535">
        <ele>410</ele>
        <time>2018-06-03T06:49:56.000Z</time>
      </trkpt>
      <trkpt lat="44.52977" lon="4.24533">
        <ele>410</ele>
        <time>2018-06-03T06:49:57.000Z</time>
      </trkpt>
      <trkpt lat="44.5298" lon="4.24531">
        <ele>410</ele>
        <time>2018-06-03T06:49:58.000Z</time>
      </trkpt>
      <trkpt lat="44.52983" lon="4.24529">
        <ele>410</ele>
        <time>2018-06-03T06:49:59.000Z</time>
      </trkpt>
      <trkpt lat="44.52986" lon="4.24527">
        <ele>409</ele>
        <time>2018-06-03T06:50:00.000Z</time>
      </trkpt>
      <trkpt lat="44.52989" lon="4.24525">
        <ele>409</ele>
        <time>2018-06-03T06:50:01.000Z</time>
      </trkpt>
      <trkpt lat="44.52992" lon="4.24522">
        <ele>409</ele>
        <time>2018-06-03T06:50:02.000Z</time>
      </trkpt>
      <trkpt lat="44.52995" lon="4.2452">
        <ele>408</ele>
        <time>2018-06-03T06:50:03.000Z</time>
      </trkpt>
      <trkpt lat="44.52999" lon="4.24518">
        <ele>408</ele>
        <time>2018-06-03T06:50:04.000Z</time>
      </trkpt>
      <trkpt lat="44.53002" lon="4.24518">
        <ele>414</ele>
        <time>2018-06-03T06:50:05.000Z</time>
      </trkpt>
      <trkpt lat="44.53005" lon="4.24516">
        <ele>413</ele>
        <time>2018-06-03T06:50:06.000Z</time>
      </trkpt>
      <trkpt lat="44.53008" lon="4.24514">
        <ele>413</ele>
        <time>2018-06-03T06:50:07.000Z</time>
      </trkpt>
      <trkpt lat="44.53011" lon="4.24513">
        <ele>413</ele>
        <time>2018-06-03T06:50:08.000Z</time>
      </trkpt>
      <trkpt lat="44.53015" lon="4.24511">
        <ele>414</ele>
        <time>2018-06-03T06:50:09.000Z</time>
      </trkpt>
      <trkpt lat="44.53018" lon="4.2451">
        <ele>415</ele>
        <time>2018-06-03T06:50:10.000Z</time>
      </trkpt>
      <trkpt lat="44.53021" lon="4.24509">
        <ele>415</ele>
        <time>2018-06-03T06:50:11.000Z</time>
      </trkpt>
      <trkpt lat="44.53025" lon="4.24508">
        <ele>416</ele>
        <time>2018-06-03T06:50:12.000Z</time>
      </trkpt>
      <trkpt lat="44.53028" lon="4.24508">
        <ele>417</ele>
        <time>2018-06-03T06:50:13.000Z</time>
      </trkpt>
      <trkpt lat="44.53032" lon="4.24507">
        <ele>417</ele>
        <time>2018-06-03T06:50:14.000Z</time>
      </trkpt>
      <trkpt lat="44.53036" lon="4.24507">
        <ele>418</ele>
        <time>2018-06-03T06:50:15.000Z</time>
      </trkpt>
      <trkpt lat="44.5304" lon="4.24506">
        <ele>418</ele>
        <time>2018-06-03T06:50:16.000Z</time>
      </trkpt>
      <trkpt lat="44.53043" lon="4.24505">
        <ele>419</ele>
        <time>2018-06-03T06:50:17.000Z</time>
      </trkpt>
      <trkpt lat="44.53047" lon="4.24505">
        <ele>419</ele>
        <time>2018-06-03T06:50:18.000Z</time>
      </trkpt>
      <trkpt lat="44.5305" lon="4.24504">
        <ele>419</ele>
        <time>2018-06-03T06:50:19.000Z</time>
      </trkpt>
      <trkpt lat="44.53054" lon="4.24503">
        <ele>419</ele>
        <time>2018-06-03T06:50:20.000Z</time>
      </trkpt>
      <trkpt lat="44.53057" lon="4.24502">
        <ele>420</ele>
        <time>2018-06-03T06:50:21.000Z</time>
      </trkpt>
      <trkpt lat="44.53061" lon="4.24501">
        <ele>420</ele>
        <time>2018-06-03T06:50:22.000Z</time>
      </trkpt>
      <trkpt lat="44.53064" lon="4.245">
        <ele>420</ele>
        <time>2018-06-03T06:50:23.000Z</time>
      </trkpt>
      <trkpt lat="44.53067" lon="4.24499">
        <ele>411</ele>
        <time>2018-06-03T06:50:24.000Z</time>
      </trkpt>
      <trkpt lat="44.5307" lon="4.24498">
        <ele>412</ele>
        <time>2018-06-03T06:50:25.000Z</time>
      </trkpt>
      <trkpt lat="44.53073" lon="4.24497">
        <ele>413</ele>
        <time>2018-06-03T06:50:26.000Z</time>
      </trkpt>
      <trkpt lat="44.53076" lon="4.24495">
        <ele>414</ele>
        <time>2018-06-03T06:50:27.000Z</time>
      </trkpt>
      <trkpt lat="44.5308" lon="4.24493">
        <ele>414</ele>
        <time>2018-06-03T06:50:28.000Z</time>
      </trkpt>
      <trkpt lat="44.53083" lon="4.24491">
        <ele>414</ele>
        <time>2018-06-03T06:50:29.000Z</time>
      </trkpt>
      <trkpt lat="44.53086" lon="4.24488">
        <ele>417</ele>
        <time>2018-06-03T06:50:30.000Z</time>
      </trkpt>
      <trkpt lat="44.53089" lon="4.24485">
        <ele>417</ele>
        <time>2018-06-03T06:50:31.000Z</time>
      </trkpt>
      <trkpt lat="44.53092" lon="4.24483">
        <ele>417</ele>
        <time>2018-06-03T06:50:32.000Z</time>
      </trkpt>
      <trkpt lat="44.53095" lon="4.2448">
        <ele>417</ele>
        <time>2018-06-03T06:50:33.000Z</time>
      </trkpt>
      <trkpt lat="44.53098" lon="4.24477">
        <ele>417</ele>
        <time>2018-06-03T06:50:34.000Z</time>
      </trkpt>
      <trkpt lat="44.53101" lon="4.24475">
        <ele>417</ele>
        <time>2018-06-03T06:50:35.000Z</time>
      </trkpt>
      <trkpt lat="44.53104" lon="4.24472">
        <ele>416</ele>
        <time>2018-06-03T06:50:36.000Z</time>
      </trkpt>
      <trkpt lat="44.53107" lon="4.24469">
        <ele>416</ele>
        <time>2018-06-03T06:50:37.000Z</time>
      </trkpt>
      <trkpt lat="44.5311" lon="4.24465">
        <ele>416</ele>
        <time>2018-06-03T06:50:38.000Z</time>
      </trkpt>
      <trkpt lat="44.53113" lon="4.24461">
        <ele>416</ele>
        <time>2018-06-03T06:50:39.000Z</time>
      </trkpt>
      <trkpt lat="44.53116" lon="4.24457">
        <ele>416</ele>
        <time>2018-06-03T06:50:40.000Z</time>
      </trkpt>
      <trkpt lat="44.53119" lon="4.24453">
        <ele>416</ele>
        <time>2018-06-03T06:50:41.000Z</time>
      </trkpt>
      <trkpt lat="44.53122" lon="4.24448">
        <ele>416</ele>
        <time>2018-06-03T06:50:42.000Z</time>
      </trkpt>
      <trkpt lat="44.53125" lon="4.24444">
        <ele>415</ele>
        <time>2018-06-03T06:50:43.000Z</time>
      </trkpt>
      <trkpt lat="44.53128" lon="4.24439">
        <ele>415</ele>
        <time>2018-06-03T06:50:44.000Z</time>
      </trkpt>
      <trkpt lat="44.53131" lon="4.24434">
        <ele>415</ele>
        <time>2018-06-03T06:50:45.000Z</time>
      </trkpt>
      <trkpt lat="44.53135" lon="4.2443">
        <ele>416</ele>
        <time>2018-06-03T06:50:46.000Z</time>
      </trkpt>
      <trkpt lat="44.53139" lon="4.24426">
        <ele>416</ele>
        <time>2018-06-03T06:50:47.000Z</time>
      </trkpt>
      <trkpt lat="44.53143" lon="4.24421">
        <ele>416</ele>
        <time>2018-06-03T06:50:48.000Z</time>
      </trkpt>
      <trkpt lat="44.53146" lon="4.24417">
        <ele>413</ele>
        <time>2018-06-03T06:50:49.000Z</time>
      </trkpt>
      <trkpt lat="44.5315" lon="4.24412">
        <ele>413</ele>
        <time>2018-06-03T06:50:50.000Z</time>
      </trkpt>
      <trkpt lat="44.53153" lon="4.24408">
        <ele>413</ele>
        <time>2018-06-03T06:50:51.000Z</time>
      </trkpt>
      <trkpt lat="44.53157" lon="4.24403">
        <ele>413</ele>
        <time>2018-06-03T06:50:52.000Z</time>
      </trkpt>
      <trkpt lat="44.5316" lon="4.24399">
        <ele>413</ele>
        <time>2018-06-03T06:50:53.000Z</time>
      </trkpt>
      <trkpt lat="44.53163" lon="4.24395">
        <ele>413</ele>
        <time>2018-06-03T06:50:54.000Z</time>
      </trkpt>
      <trkpt lat="44.53166" lon="4.24391">
        <ele>413</ele>
        <time>2018-06-03T06:50:55.000Z</time>
      </trkpt>
      <trkpt lat="44.53169" lon="4.24388">
        <ele>420</ele>
        <time>2018-06-03T06:50:56.000Z</time>
      </trkpt>
      <trkpt lat="44.53172" lon="4.24385">
        <ele>421</ele>
        <time>2018-06-03T06:50:57.000Z</time>
      </trkpt>
      <trkpt lat="44.53175" lon="4.24383">
        <ele>421</ele>
        <time>2018-06-03T06:50:58.000Z</time>
      </trkpt>
      <trkpt lat="44.53178" lon="4.24381">
        <ele>421</ele>
        <time>2018-06-03T06:50:59.000Z</time>
      </trkpt>
      <trkpt lat="44.5318" lon="4.2438">
        <ele>421</ele>
        <time>2018-06-03T06:51:00.000Z</time>
      </trkpt>
      <trkpt lat="44.53183" lon="4.24378">
        <ele>421</ele>
        <time>2018-06-03T06:51:01.000Z</time>
      </trkpt>
      <trkpt lat="44.53185" lon="4.24377">
        <ele>421</ele>
        <time>2018-06-03T06:51:02.000Z</time>
      </trkpt>
      <trkpt lat="44.53187" lon="4.24375">
        <ele>421</ele>
        <time>2018-06-03T06:51:03.000Z</time>
      </trkpt>
      <trkpt lat="44.5319" lon="4.24373">
        <ele>422</ele>
        <time>2018-06-03T06:51:04.000Z</time>
      </trkpt>
      <trkpt lat="44.53192" lon="4.24371">
        <ele>422</ele>
        <time>2018-06-03T06:51:05.000Z</time>
      </trkpt>
      <trkpt lat="44.53194" lon="4.24368">
        <ele>422</ele>
        <time>2018-06-03T06:51:06.000Z</time>
      </trkpt>
      <trkpt lat="44.53196" lon="4.24366">
        <ele>422</ele>
        <time>2018-06-03T06:51:07.000Z</time>
      </trkpt>
      <trkpt lat="44.53197" lon="4.24362">
        <ele>422</ele>
        <time>2018-06-03T06:51:08.000Z</time>
      </trkpt>
      <trkpt lat="44.53197" lon="4.24359">
        <ele>422</ele>
        <time>2018-06-03T06:51:09.000Z</time>
      </trkpt>
      <trkpt lat="44.53198" lon="4.24355">
        <ele>422</ele>
        <time>2018-06-03T06:51:10.000Z</time>
      </trkpt>
      <trkpt lat="44.53197" lon="4.24351">
        <ele>422</ele>
        <time>2018-06-03T06:51:11.000Z</time>
      </trkpt>
      <trkpt lat="44.53196" lon="4.24348">
        <ele>421</ele>
        <time>2018-06-03T06:51:12.000Z</time>
      </trkpt>
      <trkpt lat="44.53195" lon="4.24345">
        <ele>421</ele>
        <time>2018-06-03T06:51:13.000Z</time>
      </trkpt>
      <trkpt lat="44.53193" lon="4.24342">
        <ele>421</ele>
        <time>2018-06-03T06:51:14.000Z</time>
      </trkpt>
      <trkpt lat="44.53192" lon="4.24338">
        <ele>421</ele>
        <time>2018-06-03T06:51:15.000Z</time>
      </trkpt>
      <trkpt lat="44.5319" lon="4.24335">
        <ele>420</ele>
        <time>2018-06-03T06:51:16.000Z</time>
      </trkpt>
      <trkpt lat="44.53188" lon="4.24332">
        <ele>422</ele>
        <time>2018-06-03T06:51:17.000Z</time>
      </trkpt>
      <trkpt lat="44.53187" lon="4.24329">
        <ele>421</ele>
        <time>2018-06-03T06:51:18.000Z</time>
      </trkpt>
      <trkpt lat="44.53184" lon="4.24326">
        <ele>421</ele>
        <time>2018-06-03T06:51:19.000Z</time>
      </trkpt>
      <trkpt lat="44.53182" lon="4.24323">
        <ele>421</ele>
        <time>2018-06-03T06:51:20.000Z</time>
      </trkpt>
      <trkpt lat="44.5318" lon="4.2432">
        <ele>421</ele>
        <time>2018-06-03T06:51:21.000Z</time>
      </trkpt>
      <trkpt lat="44.53178" lon="4.24317">
        <ele>421</ele>
        <time>2018-06-03T06:51:22.000Z</time>
      </trkpt>
      <trkpt lat="44.53176" lon="4.24314">
        <ele>422</ele>
        <time>2018-06-03T06:51:23.000Z</time>
      </trkpt>
      <trkpt lat="44.53174" lon="4.24311">
        <ele>422</ele>
        <time>2018-06-03T06:51:24.000Z</time>
      </trkpt>
      <trkpt lat="44.53171" lon="4.24308">
        <ele>422</ele>
        <time>2018-06-03T06:51:25.000Z</time>
      </trkpt>
      <trkpt lat="44.53169" lon="4.24305">
        <ele>422</ele>
        <time>2018-06-03T06:51:26.000Z</time>
      </trkpt>
      <trkpt lat="44.53167" lon="4.24302">
        <ele>416</ele>
        <time>2018-06-03T06:51:27.000Z</time>
      </trkpt>
      <trkpt lat="44.53164" lon="4.24299">
        <ele>416</ele>
        <time>2018-06-03T06:51:28.000Z</time>
      </trkpt>
      <trkpt lat="44.53162" lon="4.24296">
        <ele>416</ele>
        <time>2018-06-03T06:51:29.000Z</time>
      </trkpt>
      <trkpt lat="44.5316" lon="4.24294">
        <ele>417</ele>
        <time>2018-06-03T06:51:30.000Z</time>
      </trkpt>
      <trkpt lat="44.53157" lon="4.24292">
        <ele>417</ele>
        <time>2018-06-03T06:51:31.000Z</time>
      </trkpt>
      <trkpt lat="44.53155" lon="4.24289">
        <ele>417</ele>
        <time>2018-06-03T06:51:32.000Z</time>
      </trkpt>
      <trkpt lat="44.53152" lon="4.24287">
        <ele>417</ele>
        <time>2018-06-03T06:51:33.000Z</time>
      </trkpt>
      <trkpt lat="44.5315" lon="4.24284">
        <ele>417</ele>
        <time>2018-06-03T06:51:34.000Z</time>
      </trkpt>
      <trkpt lat="44.53148" lon="4.24281">
        <ele>417</ele>
        <time>2018-06-03T06:51:35.000Z</time>
      </trkpt>
      <trkpt lat="44.53146" lon="4.24278">
        <ele>417</ele>
        <time>2018-06-03T06:51:36.000Z</time>
      </trkpt>
      <trkpt lat="44.53144" lon="4.24276">
        <ele>417</ele>
        <time>2018-06-03T06:51:37.000Z</time>
      </trkpt>
      <trkpt lat="44.53141" lon="4.24273">
        <ele>417</ele>
        <time>2018-06-03T06:51:38.000Z</time>
      </trkpt>
      <trkpt lat="44.53139" lon="4.2427">
        <ele>417</ele>
        <time>2018-06-03T06:51:39.000Z</time>
      </trkpt>
      <trkpt lat="44.53137" lon="4.24267">
        <ele>417</ele>
        <time>2018-06-03T06:51:40.000Z</time>
      </trkpt>
      <trkpt lat="44.53134" lon="4.24264">
        <ele>417</ele>
        <time>2018-06-03T06:51:41.000Z</time>
      </trkpt>
      <trkpt lat="44.53132" lon="4.24261">
        <ele>417</ele>
        <time>2018-06-03T06:51:42.000Z</time>
      </trkpt>
      <trkpt lat="44.5313" lon="4.24257">
        <ele>417</ele>
        <time>2018-06-03T06:51:43.000Z</time>
      </trkpt>
      <trkpt lat="44.53127" lon="4.24254">
        <ele>417</ele>
        <time>2018-06-03T06:51:44.000Z</time>
      </trkpt>
      <trkpt lat="44.53125" lon="4.2425">
        <ele>421</ele>
        <time>2018-06-03T06:51:45.000Z</time>
      </trkpt>
      <trkpt lat="44.53122" lon="4.24246">
        <ele>421</ele>
        <time>2018-06-03T06:51:46.000Z</time>
      </trkpt>
      <trkpt lat="44.5312" lon="4.24241">
        <ele>421</ele>
        <time>2018-06-03T06:51:47.000Z</time>
      </trkpt>
      <trkpt lat="44.53118" lon="4.24236">
        <ele>421</ele>
        <time>2018-06-03T06:51:48.000Z</time>
      </trkpt>
      <trkpt lat="44.53115" lon="4.24232">
        <ele>421</ele>
        <time>2018-06-03T06:51:49.000Z</time>
      </trkpt>
      <trkpt lat="44.53114" lon="4.24226">
        <ele>421</ele>
        <time>2018-06-03T06:51:50.000Z</time>
      </trkpt>
      <trkpt lat="44.53115" lon="4.24221">
        <ele>421</ele>
        <time>2018-06-03T06:51:51.000Z</time>
      </trkpt>
      <trkpt lat="44.53118" lon="4.24219">
        <ele>421</ele>
        <time>2018-06-03T06:51:52.000Z</time>
      </trkpt>
      <trkpt lat="44.5312" lon="4.24219">
        <ele>422</ele>
        <time>2018-06-03T06:51:53.000Z</time>
      </trkpt>
      <trkpt lat="44.53121" lon="4.24219">
        <ele>422</ele>
        <time>2018-06-03T06:51:54.000Z</time>
      </trkpt>
      <trkpt lat="44.53123" lon="4.24221">
        <ele>422</ele>
        <time>2018-06-03T06:51:55.000Z</time>
      </trkpt>
      <trkpt lat="44.53125" lon="4.24222">
        <ele>422</ele>
        <time>2018-06-03T06:51:56.000Z</time>
      </trkpt>
      <trkpt lat="44.53127" lon="4.24223">
        <ele>422</ele>
        <time>2018-06-03T06:51:57.000Z</time>
      </trkpt>
      <trkpt lat="44.53129" lon="4.24225">
        <ele>422</ele>
        <time>2018-06-03T06:51:58.000Z</time>
      </trkpt>
      <trkpt lat="44.53131" lon="4.24226">
        <ele>422</ele>
        <time>2018-06-03T06:51:59.000Z</time>
      </trkpt>
      <trkpt lat="44.53133" lon="4.24228">
        <ele>422</ele>
        <time>2018-06-03T06:52:00.000Z</time>
      </trkpt>
      <trkpt lat="44.53134" lon="4.24229">
        <ele>422</ele>
        <time>2018-06-03T06:52:01.000Z</time>
      </trkpt>
      <trkpt lat="44.53136" lon="4.2423">
        <ele>422</ele>
        <time>2018-06-03T06:52:02.000Z</time>
      </trkpt>
      <trkpt lat="44.53139" lon="4.24232">
        <ele>423</ele>
        <time>2018-06-03T06:52:03.000Z</time>
      </trkpt>
      <trkpt lat="44.53141" lon="4.24234">
        <ele>423</ele>
        <time>2018-06-03T06:52:04.000Z</time>
      </trkpt>
      <trkpt lat="44.53143" lon="4.24235">
        <ele>423</ele>
        <time>2018-06-03T06:52:05.000Z</time>
      </trkpt>
      <trkpt lat="44.53145" lon="4.24236">
        <ele>423</ele>
        <time>2018-06-03T06:52:06.000Z</time>
      </trkpt>
      <trkpt lat="44.53147" lon="4.24236">
        <ele>423</ele>
        <time>2018-06-03T06:52:07.000Z</time>
      </trkpt>
      <trkpt lat="44.53149" lon="4.24237">
        <ele>423</ele>
        <time>2018-06-03T06:52:08.000Z</time>
      </trkpt>
      <trkpt lat="44.53152" lon="4.24238">
        <ele>423</ele>
        <time>2018-06-03T06:52:09.000Z</time>
      </trkpt>
      <trkpt lat="44.53154" lon="4.24239">
        <ele>424</ele>
        <time>2018-06-03T06:52:10.000Z</time>
      </trkpt>
      <trkpt lat="44.53156" lon="4.2424">
        <ele>424</ele>
        <time>2018-06-03T06:52:11.000Z</time>
      </trkpt>
      <trkpt lat="44.53158" lon="4.2424">
        <ele>424</ele>
        <time>2018-06-03T06:52:12.000Z</time>
      </trkpt>
      <trkpt lat="44.5316" lon="4.24241">
        <ele>424</ele>
        <time>2018-06-03T06:52:13.000Z</time>
      </trkpt>
      <trkpt lat="44.53163" lon="4.24242">
        <ele>424</ele>
        <time>2018-06-03T06:52:14.000Z</time>
      </trkpt>
      <trkpt lat="44.53165" lon="4.24243">
        <ele>424</ele>
        <time>2018-06-03T06:52:15.000Z</time>
      </trkpt>
      <trkpt lat="44.53167" lon="4.24244">
        <ele>426</ele>
        <time>2018-06-03T06:52:16.000Z</time>
      </trkpt>
      <trkpt lat="44.53169" lon="4.24245">
        <ele>426</ele>
        <time>2018-06-03T06:52:17.000Z</time>
      </trkpt>
      <trkpt lat="44.53171" lon="4.24246">
        <ele>427</ele>
        <time>2018-06-03T06:52:18.000Z</time>
      </trkpt>
      <trkpt lat="44.53173" lon="4.24247">
        <ele>427</ele>
        <time>2018-06-03T06:52:19.000Z</time>
      </trkpt>
      <trkpt lat="44.53175" lon="4.24247">
        <ele>427</ele>
        <time>2018-06-03T06:52:20.000Z</time>
      </trkpt>
      <trkpt lat="44.53178" lon="4.24248">
        <ele>428</ele>
        <time>2018-06-03T06:52:21.000Z</time>
      </trkpt>
      <trkpt lat="44.5318" lon="4.24249">
        <ele>428</ele>
        <time>2018-06-03T06:52:22.000Z</time>
      </trkpt>
      <trkpt lat="44.53182" lon="4.24249">
        <ele>428</ele>
        <time>2018-06-03T06:52:23.000Z</time>
      </trkpt>
      <trkpt lat="44.53184" lon="4.2425">
        <ele>429</ele>
        <time>2018-06-03T06:52:24.000Z</time>
      </trkpt>
      <trkpt lat="44.53187" lon="4.2425">
        <ele>426</ele>
        <time>2018-06-03T06:52:25.000Z</time>
      </trkpt>
      <trkpt lat="44.53189" lon="4.2425">
        <ele>426</ele>
        <time>2018-06-03T06:52:26.000Z</time>
      </trkpt>
      <trkpt lat="44.53192" lon="4.2425">
        <ele>426</ele>
        <time>2018-06-03T06:52:27.000Z</time>
      </trkpt>
      <trkpt lat="44.53194" lon="4.2425">
        <ele>426</ele>
        <time>2018-06-03T06:52:28.000Z</time>
      </trkpt>
      <trkpt lat="44.53197" lon="4.2425">
        <ele>430</ele>
        <time>2018-06-03T06:52:29.000Z</time>
      </trkpt>
      <trkpt lat="44.53199" lon="4.2425">
        <ele>426</ele>
        <time>2018-06-03T06:52:30.000Z</time>
      </trkpt>
      <trkpt lat="44.53201" lon="4.2425">
        <ele>426</ele>
        <time>2018-06-03T06:52:31.000Z</time>
      </trkpt>
      <trkpt lat="44.53203" lon="4.24249">
        <ele>431</ele>
        <time>2018-06-03T06:52:32.000Z</time>
      </trkpt>
      <trkpt lat="44.53205" lon="4.24248">
        <ele>431</ele>
        <time>2018-06-03T06:52:33.000Z</time>
      </trkpt>
      <trkpt lat="44.53206" lon="4.24246">
        <ele>431</ele>
        <time>2018-06-03T06:52:34.000Z</time>
      </trkpt>
      <trkpt lat="44.53207" lon="4.24244">
        <ele>431</ele>
        <time>2018-06-03T06:52:35.000Z</time>
      </trkpt>
      <trkpt lat="44.53207" lon="4.24241">
        <ele>431</ele>
        <time>2018-06-03T06:52:36.000Z</time>
      </trkpt>
      <trkpt lat="44.53208" lon="4.24239">
        <ele>431</ele>
        <time>2018-06-03T06:52:37.000Z</time>
      </trkpt>
      <trkpt lat="44.53208" lon="4.24237">
        <ele>431</ele>
        <time>2018-06-03T06:52:38.000Z</time>
      </trkpt>
      <trkpt lat="44.53208" lon="4.24235">
        <ele>431</ele>
        <time>2018-06-03T06:52:39.000Z</time>
      </trkpt>
      <trkpt lat="44.53209" lon="4.24233">
        <ele>431</ele>
        <time>2018-06-03T06:52:40.000Z</time>
      </trkpt>
      <trkpt lat="44.53209" lon="4.24231">
        <ele>431</ele>
        <time>2018-06-03T06:52:41.000Z</time>
      </trkpt>
      <trkpt lat="44.5321" lon="4.24228">
        <ele>432</ele>
        <time>2018-06-03T06:52:42.000Z</time>
      </trkpt>
      <trkpt lat="44.53211" lon="4.24226">
        <ele>432</ele>
        <time>2018-06-03T06:52:43.000Z</time>
      </trkpt>
      <trkpt lat="44.53211" lon="4.24224">
        <ele>432</ele>
        <time>2018-06-03T06:52:44.000Z</time>
      </trkpt>
      <trkpt lat="44.53212" lon="4.24221">
        <ele>432</ele>
        <time>2018-06-03T06:52:45.000Z</time>
      </trkpt>
      <trkpt lat="44.53214" lon="4.24219">
        <ele>432</ele>
        <time>2018-06-03T06:52:46.000Z</time>
      </trkpt>
      <trkpt lat="44.53215" lon="4.24217">
        <ele>432</ele>
        <time>2018-06-03T06:52:47.000Z</time>
      </trkpt>
      <trkpt lat="44.53215" lon="4.24215">
        <ele>432</ele>
        <time>2018-06-03T06:52:48.000Z</time>
      </trkpt>
      <trkpt lat="44.53217" lon="4.24212">
        <ele>433</ele>
        <time>2018-06-03T06:52:49.000Z</time>
      </trkpt>
      <trkpt lat="44.53217" lon="4.2421">
        <ele>433</ele>
        <time>2018-06-03T06:52:50.000Z</time>
      </trkpt>
      <trkpt lat="44.53218" lon="4.24207">
        <ele>433</ele>
        <time>2018-06-03T06:52:51.000Z</time>
      </trkpt>
      <trkpt lat="44.53219" lon="4.24204">
        <ele>433</ele>
        <time>2018-06-03T06:52:52.000Z</time>
      </trkpt>
      <trkpt lat="44.5322" lon="4.24202">
        <ele>433</ele>
        <time>2018-06-03T06:52:53.000Z</time>
      </trkpt>
      <trkpt lat="44.53221" lon="4.24199">
        <ele>433</ele>
        <time>2018-06-03T06:52:54.000Z</time>
      </trkpt>
      <trkpt lat="44.53222" lon="4.24197">
        <ele>433</ele>
        <time>2018-06-03T06:52:55.000Z</time>
      </trkpt>
      <trkpt lat="44.53223" lon="4.24194">
        <ele>434</ele>
        <time>2018-06-03T06:52:56.000Z</time>
      </trkpt>
      <trkpt lat="44.53223" lon="4.24191">
        <ele>434</ele>
        <time>2018-06-03T06:52:57.000Z</time>
      </trkpt>
      <trkpt lat="44.53223" lon="4.24188">
        <ele>434</ele>
        <time>2018-06-03T06:52:58.000Z</time>
      </trkpt>
      <trkpt lat="44.53223" lon="4.24186">
        <ele>434</ele>
        <time>2018-06-03T06:52:59.000Z</time>
      </trkpt>
      <trkpt lat="44.53221" lon="4.24184">
        <ele>434</ele>
        <time>2018-06-03T06:53:00.000Z</time>
      </trkpt>
      <trkpt lat="44.53219" lon="4.24182">
        <ele>434</ele>
        <time>2018-06-03T06:53:01.000Z</time>
      </trkpt>
      <trkpt lat="44.53216" lon="4.2418">
        <ele>434</ele>
        <time>2018-06-03T06:53:02.000Z</time>
      </trkpt>
      <trkpt lat="44.53213" lon="4.24178">
        <ele>434</ele>
        <time>2018-06-03T06:53:03.000Z</time>
      </trkpt>
      <trkpt lat="44.53209" lon="4.24176">
        <ele>433</ele>
        <time>2018-06-03T06:53:04.000Z</time>
      </trkpt>
      <trkpt lat="44.53206" lon="4.24175">
        <ele>433</ele>
        <time>2018-06-03T06:53:05.000Z</time>
      </trkpt>
      <trkpt lat="44.53202" lon="4.24173">
        <ele>433</ele>
        <time>2018-06-03T06:53:06.000Z</time>
      </trkpt>
      <trkpt lat="44.53198" lon="4.24172">
        <ele>433</ele>
        <time>2018-06-03T06:53:07.000Z</time>
      </trkpt>
      <trkpt lat="44.53194" lon="4.24169">
        <ele>432</ele>
        <time>2018-06-03T06:53:08.000Z</time>
      </trkpt>
      <trkpt lat="44.53191" lon="4.24165">
        <ele>435</ele>
        <time>2018-06-03T06:53:09.000Z</time>
      </trkpt>
      <trkpt lat="44.53188" lon="4.24161">
        <ele>435</ele>
        <time>2018-06-03T06:53:10.000Z</time>
      </trkpt>
      <trkpt lat="44.53186" lon="4.24156">
        <ele>435</ele>
        <time>2018-06-03T06:53:11.000Z</time>
      </trkpt>
      <trkpt lat="44.53183" lon="4.24151">
        <ele>435</ele>
        <time>2018-06-03T06:53:12.000Z</time>
      </trkpt>
      <trkpt lat="44.5318" lon="4.24147">
        <ele>435</ele>
        <time>2018-06-03T06:53:13.000Z</time>
      </trkpt>
      <trkpt lat="44.53178" lon="4.24142">
        <ele>436</ele>
        <time>2018-06-03T06:53:14.000Z</time>
      </trkpt>
      <trkpt lat="44.53175" lon="4.24136">
        <ele>436</ele>
        <time>2018-06-03T06:53:15.000Z</time>
      </trkpt>
      <trkpt lat="44.53173" lon="4.2413">
        <ele>436</ele>
        <time>2018-06-03T06:53:16.000Z</time>
      </trkpt>
      <trkpt lat="44.5317" lon="4.24123">
        <ele>436</ele>
        <time>2018-06-03T06:53:17.000Z</time>
      </trkpt>
      <trkpt lat="44.53168" lon="4.24117">
        <ele>437</ele>
        <time>2018-06-03T06:53:18.000Z</time>
      </trkpt>
      <trkpt lat="44.53166" lon="4.24111">
        <ele>431</ele>
        <time>2018-06-03T06:53:19.000Z</time>
      </trkpt>
      <trkpt lat="44.53165" lon="4.24107">
        <ele>431</ele>
        <time>2018-06-03T06:53:20.000Z</time>
      </trkpt>
      <trkpt lat="44.53164" lon="4.24103">
        <ele>431</ele>
        <time>2018-06-03T06:53:21.000Z</time>
      </trkpt>
      <trkpt lat="44.53162" lon="4.24098">
        <ele>432</ele>
        <time>2018-06-03T06:53:22.000Z</time>
      </trkpt>
      <trkpt lat="44.5316" lon="4.24094">
        <ele>433</ele>
        <time>2018-06-03T06:53:23.000Z</time>
      </trkpt>
      <trkpt lat="44.53158" lon="4.24088">
        <ele>433</ele>
        <time>2018-06-03T06:53:24.000Z</time>
      </trkpt>
      <trkpt lat="44.53156" lon="4.24083">
        <ele>434</ele>
        <time>2018-06-03T06:53:25.000Z</time>
      </trkpt>
      <trkpt lat="44.53154" lon="4.24078">
        <ele>434</ele>
        <time>2018-06-03T06:53:26.000Z</time>
      </trkpt>
      <trkpt lat="44.53152" lon="4.24073">
        <ele>433</ele>
        <time>2018-06-03T06:53:27.000Z</time>
      </trkpt>
      <trkpt lat="44.53151" lon="4.24068">
        <ele>433</ele>
        <time>2018-06-03T06:53:28.000Z</time>
      </trkpt>
      <trkpt lat="44.5315" lon="4.24063">
        <ele>433</ele>
        <time>2018-06-03T06:53:29.000Z</time>
      </trkpt>
      <trkpt lat="44.5315" lon="4.24058">
        <ele>433</ele>
        <time>2018-06-03T06:53:30.000Z</time>
      </trkpt>
      <trkpt lat="44.5315" lon="4.24053">
        <ele>433</ele>
        <time>2018-06-03T06:53:31.000Z</time>
      </trkpt>
      <trkpt lat="44.5315" lon="4.24047">
        <ele>433</ele>
        <time>2018-06-03T06:53:32.000Z</time>
      </trkpt>
      <trkpt lat="44.5315" lon="4.24042">
        <ele>433</ele>
        <time>2018-06-03T06:53:33.000Z</time>
      </trkpt>
      <trkpt lat="44.5315" lon="4.24037">
        <ele>433</ele>
        <time>2018-06-03T06:53:34.000Z</time>
      </trkpt>
      <trkpt lat="44.5315" lon="4.24031">
        <ele>433</ele>
        <time>2018-06-03T06:53:35.000Z</time>
      </trkpt>
      <trkpt lat="44.5315" lon="4.24026">
        <ele>433</ele>
        <time>2018-06-03T06:53:36.000Z</time>
      </trkpt>
      <trkpt lat="44.5315" lon="4.24021">
        <ele>434</ele>
        <time>2018-06-03T06:53:37.000Z</time>
      </trkpt>
      <trkpt lat="44.53149" lon="4.24016">
        <ele>434</ele>
        <time>2018-06-03T06:53:38.000Z</time>
      </trkpt>
      <trkpt lat="44.53148" lon="4.24011">
        <ele>434</ele>
        <time>2018-06-03T06:53:39.000Z</time>
      </trkpt>
      <trkpt lat="44.53147" lon="4.24007">
        <ele>434</ele>
        <time>2018-06-03T06:53:40.000Z</time>
      </trkpt>
      <trkpt lat="44.53147" lon="4.24002">
        <ele>434</ele>
        <time>2018-06-03T06:53:41.000Z</time>
      </trkpt>
      <trkpt lat="44.53146" lon="4.23997">
        <ele>436</ele>
        <time>2018-06-03T06:53:42.000Z</time>
      </trkpt>
      <trkpt lat="44.53146" lon="4.23992">
        <ele>436</ele>
        <time>2018-06-03T06:53:43.000Z</time>
      </trkpt>
      <trkpt lat="44.53145" lon="4.23988">
        <ele>436</ele>
        <time>2018-06-03T06:53:44.000Z</time>
      </trkpt>
      <trkpt lat="44.53145" lon="4.23983">
        <ele>436</ele>
        <time>2018-06-03T06:53:45.000Z</time>
      </trkpt>
      <trkpt lat="44.53144" lon="4.23978">
        <ele>436</ele>
        <time>2018-06-03T06:53:46.000Z</time>
      </trkpt>
      <trkpt lat="44.53144" lon="4.23973">
        <ele>436</ele>
        <time>2018-06-03T06:53:47.000Z</time>
      </trkpt>
      <trkpt lat="44.53143" lon="4.23968">
        <ele>436</ele>
        <time>2018-06-03T06:53:48.000Z</time>
      </trkpt>
      <trkpt lat="44.53142" lon="4.23963">
        <ele>437</ele>
        <time>2018-06-03T06:53:49.000Z</time>
      </trkpt>
      <trkpt lat="44.5314" lon="4.23958">
        <ele>437</ele>
        <time>2018-06-03T06:53:50.000Z</time>
      </trkpt>
      <trkpt lat="44.53139" lon="4.23954">
        <ele>437</ele>
        <time>2018-06-03T06:53:51.000Z</time>
      </trkpt>
      <trkpt lat="44.53137" lon="4.2395">
        <ele>437</ele>
        <time>2018-06-03T06:53:52.000Z</time>
      </trkpt>
      <trkpt lat="44.53136" lon="4.23945">
        <ele>437</ele>
        <time>2018-06-03T06:53:53.000Z</time>
      </trkpt>
      <trkpt lat="44.53134" lon="4.23941">
        <ele>437</ele>
        <time>2018-06-03T06:53:54.000Z</time>
      </trkpt>
      <trkpt lat="44.53132" lon="4.23936">
        <ele>437</ele>
        <time>2018-06-03T06:53:55.000Z</time>
      </trkpt>
      <trkpt lat="44.5313" lon="4.23932">
        <ele>437</ele>
        <time>2018-06-03T06:53:56.000Z</time>
      </trkpt>
      <trkpt lat="44.53128" lon="4.23928">
        <ele>437</ele>
        <time>2018-06-03T06:53:57.000Z</time>
      </trkpt>
      <trkpt lat="44.53125" lon="4.23924">
        <ele>437</ele>
        <time>2018-06-03T06:53:58.000Z</time>
      </trkpt>
      <trkpt lat="44.53122" lon="4.2392">
        <ele>437</ele>
        <time>2018-06-03T06:53:59.000Z</time>
      </trkpt>
      <trkpt lat="44.53119" lon="4.23916">
        <ele>439</ele>
        <time>2018-06-03T06:54:00.000Z</time>
      </trkpt>
      <trkpt lat="44.53116" lon="4.23911">
        <ele>439</ele>
        <time>2018-06-03T06:54:01.000Z</time>
      </trkpt>
      <trkpt lat="44.53113" lon="4.23906">
        <ele>439</ele>
        <time>2018-06-03T06:54:02.000Z</time>
      </trkpt>
      <trkpt lat="44.5311" lon="4.239">
        <ele>438</ele>
        <time>2018-06-03T06:54:03.000Z</time>
      </trkpt>
      <trkpt lat="44.53108" lon="4.23895">
        <ele>439</ele>
        <time>2018-06-03T06:54:04.000Z</time>
      </trkpt>
      <trkpt lat="44.53105" lon="4.23889">
        <ele>439</ele>
        <time>2018-06-03T06:54:05.000Z</time>
      </trkpt>
      <trkpt lat="44.53103" lon="4.23883">
        <ele>439</ele>
        <time>2018-06-03T06:54:06.000Z</time>
      </trkpt>
      <trkpt lat="44.531" lon="4.23878">
        <ele>439</ele>
        <time>2018-06-03T06:54:07.000Z</time>
      </trkpt>
      <trkpt lat="44.53098" lon="4.23872">
        <ele>439</ele>
        <time>2018-06-03T06:54:08.000Z</time>
      </trkpt>
      <trkpt lat="44.53095" lon="4.23866">
        <ele>439</ele>
        <time>2018-06-03T06:54:09.000Z</time>
      </trkpt>
      <trkpt lat="44.53092" lon="4.2386">
        <ele>439</ele>
        <time>2018-06-03T06:54:10.000Z</time>
      </trkpt>
      <trkpt lat="44.5309" lon="4.23854">
        <ele>438</ele>
        <time>2018-06-03T06:54:11.000Z</time>
      </trkpt>
      <trkpt lat="44.53089" lon="4.23848">
        <ele>438</ele>
        <time>2018-06-03T06:54:12.000Z</time>
      </trkpt>
      <trkpt lat="44.53088" lon="4.23842">
        <ele>438</ele>
        <time>2018-06-03T06:54:13.000Z</time>
      </trkpt>
      <trkpt lat="44.53086" lon="4.23836">
        <ele>437</ele>
        <time>2018-06-03T06:54:14.000Z</time>
      </trkpt>
      <trkpt lat="44.53085" lon="4.23829">
        <ele>438</ele>
        <time>2018-06-03T06:54:15.000Z</time>
      </trkpt>
      <trkpt lat="44.53084" lon="4.23823">
        <ele>439</ele>
        <time>2018-06-03T06:54:16.000Z</time>
      </trkpt>
      <trkpt lat="44.53083" lon="4.23817">
        <ele>435</ele>
        <time>2018-06-03T06:54:17.000Z</time>
      </trkpt>
      <trkpt lat="44.53082" lon="4.2381">
        <ele>435</ele>
        <time>2018-06-03T06:54:18.000Z</time>
      </trkpt>
      <trkpt lat="44.53081" lon="4.23804">
        <ele>435</ele>
        <time>2018-06-03T06:54:19.000Z</time>
      </trkpt>
      <trkpt lat="44.5308" lon="4.23797">
        <ele>434</ele>
        <time>2018-06-03T06:54:20.000Z</time>
      </trkpt>
      <trkpt lat="44.53078" lon="4.23791">
        <ele>434</ele>
        <time>2018-06-03T06:54:21.000Z</time>
      </trkpt>
      <trkpt lat="44.53077" lon="4.23785">
        <ele>435</ele>
        <time>2018-06-03T06:54:22.000Z</time>
      </trkpt>
      <trkpt lat="44.53075" lon="4.23779">
        <ele>435</ele>
        <time>2018-06-03T06:54:23.000Z</time>
      </trkpt>
      <trkpt lat="44.53073" lon="4.23773">
        <ele>435</ele>
        <time>2018-06-03T06:54:24.000Z</time>
      </trkpt>
      <trkpt lat="44.5307" lon="4.23767">
        <ele>435</ele>
        <time>2018-06-03T06:54:25.000Z</time>
      </trkpt>
      <trkpt lat="44.53068" lon="4.23762">
        <ele>435</ele>
        <time>2018-06-03T06:54:26.000Z</time>
      </trkpt>
      <trkpt lat="44.53066" lon="4.23756">
        <ele>435</ele>
        <time>2018-06-03T06:54:27.000Z</time>
      </trkpt>
      <trkpt lat="44.53063" lon="4.23751">
        <ele>435</ele>
        <time>2018-06-03T06:54:28.000Z</time>
      </trkpt>
      <trkpt lat="44.5306" lon="4.23744">
        <ele>437</ele>
        <time>2018-06-03T06:54:29.000Z</time>
      </trkpt>
      <trkpt lat="44.53058" lon="4.23739">
        <ele>437</ele>
        <time>2018-06-03T06:54:30.000Z</time>
      </trkpt>
      <trkpt lat="44.53054" lon="4.23733">
        <ele>436</ele>
        <time>2018-06-03T06:54:31.000Z</time>
      </trkpt>
      <trkpt lat="44.53051" lon="4.23728">
        <ele>436</ele>
        <time>2018-06-03T06:54:32.000Z</time>
      </trkpt>
      <trkpt lat="44.53048" lon="4.23722">
        <ele>436</ele>
        <time>2018-06-03T06:54:33.000Z</time>
      </trkpt>
      <trkpt lat="44.53044" lon="4.23716">
        <ele>436</ele>
        <time>2018-06-03T06:54:34.000Z</time>
      </trkpt>
      <trkpt lat="44.53042" lon="4.23711">
        <ele>436</ele>
        <time>2018-06-03T06:54:35.000Z</time>
      </trkpt>
      <trkpt lat="44.53039" lon="4.23705">
        <ele>436</ele>
        <time>2018-06-03T06:54:36.000Z</time>
      </trkpt>
      <trkpt lat="44.53037" lon="4.23701">
        <ele>436</ele>
        <time>2018-06-03T06:54:37.000Z</time>
      </trkpt>
      <trkpt lat="44.53035" lon="4.23697">
        <ele>436</ele>
        <time>2018-06-03T06:54:38.000Z</time>
      </trkpt>
      <trkpt lat="44.53033" lon="4.23694">
        <ele>436</ele>
        <time>2018-06-03T06:54:39.000Z</time>
      </trkpt>
      <trkpt lat="44.53032" lon="4.23692">
        <ele>436</ele>
        <time>2018-06-03T06:54:40.000Z</time>
      </trkpt>
      <trkpt lat="44.53031" lon="4.2369">
        <ele>436</ele>
        <time>2018-06-03T06:54:41.000Z</time>
      </trkpt>
      <trkpt lat="44.53031" lon="4.23688">
        <ele>436</ele>
        <time>2018-06-03T06:54:42.000Z</time>
      </trkpt>
      <trkpt lat="44.53032" lon="4.23686">
        <ele>436</ele>
        <time>2018-06-03T06:54:43.000Z</time>
      </trkpt>
      <trkpt lat="44.53033" lon="4.23685">
        <ele>436</ele>
        <time>2018-06-03T06:54:44.000Z</time>
      </trkpt>
      <trkpt lat="44.53035" lon="4.23685">
        <ele>436</ele>
        <time>2018-06-03T06:54:45.000Z</time>
      </trkpt>
      <trkpt lat="44.53036" lon="4.23685">
        <ele>436</ele>
        <time>2018-06-03T06:54:46.000Z</time>
      </trkpt>
      <trkpt lat="44.53038" lon="4.23686">
        <ele>436</ele>
        <time>2018-06-03T06:54:47.000Z</time>
      </trkpt>
      <trkpt lat="44.5304" lon="4.23687">
        <ele>436</ele>
        <time>2018-06-03T06:54:48.000Z</time>
      </trkpt>
      <trkpt lat="44.53041" lon="4.23688">
        <ele>437</ele>
        <time>2018-06-03T06:54:49.000Z</time>
      </trkpt>
      <trkpt lat="44.53043" lon="4.23689">
        <ele>437</ele>
        <time>2018-06-03T06:54:50.000Z</time>
      </trkpt>
      <trkpt lat="44.53045" lon="4.2369">
        <ele>437</ele>
        <time>2018-06-03T06:54:51.000Z</time>
      </trkpt>
      <trkpt lat="44.53047" lon="4.23691">
        <ele>437</ele>
        <time>2018-06-03T06:54:52.000Z</time>
      </trkpt>
      <trkpt lat="44.53049" lon="4.23692">
        <ele>437</ele>
        <time>2018-06-03T06:54:53.000Z</time>
      </trkpt>
      <trkpt lat="44.53051" lon="4.23693">
        <ele>437</ele>
        <time>2018-06-03T06:54:54.000Z</time>
      </trkpt>
      <trkpt lat="44.53052" lon="4.23694">
        <ele>437</ele>
        <time>2018-06-03T06:54:55.000Z</time>
      </trkpt>
      <trkpt lat="44.53054" lon="4.23695">
        <ele>437</ele>
        <time>2018-06-03T06:54:56.000Z</time>
      </trkpt>
      <trkpt lat="44.53056" lon="4.23697">
        <ele>437</ele>
        <time>2018-06-03T06:54:57.000Z</time>
      </trkpt>
      <trkpt lat="44.53059" lon="4.23698">
        <ele>437</ele>
        <time>2018-06-03T06:54:58.000Z</time>
      </trkpt>
      <trkpt lat="44.53061" lon="4.237">
        <ele>437</ele>
        <time>2018-06-03T06:54:59.000Z</time>
      </trkpt>
      <trkpt lat="44.53063" lon="4.23702">
        <ele>437</ele>
        <time>2018-06-03T06:55:00.000Z</time>
      </trkpt>
      <trkpt lat="44.53065" lon="4.23703">
        <ele>437</ele>
        <time>2018-06-03T06:55:01.000Z</time>
      </trkpt>
      <trkpt lat="44.53067" lon="4.23704">
        <ele>438</ele>
        <time>2018-06-03T06:55:02.000Z</time>
      </trkpt>
      <trkpt lat="44.53069" lon="4.23705">
        <ele>438</ele>
        <time>2018-06-03T06:55:03.000Z</time>
      </trkpt>
      <trkpt lat="44.53071" lon="4.23706">
        <ele>438</ele>
        <time>2018-06-03T06:55:04.000Z</time>
      </trkpt>
      <trkpt lat="44.53073" lon="4.23707">
        <ele>438</ele>
        <time>2018-06-03T06:55:05.000Z</time>
      </trkpt>
      <trkpt lat="44.53075" lon="4.23709">
        <ele>438</ele>
        <time>2018-06-03T06:55:06.000Z</time>
      </trkpt>
      <trkpt lat="44.53077" lon="4.2371">
        <ele>438</ele>
        <time>2018-06-03T06:55:07.000Z</time>
      </trkpt>
      <trkpt lat="44.53079" lon="4.23712">
        <ele>438</ele>
        <time>2018-06-03T06:55:08.000Z</time>
      </trkpt>
      <trkpt lat="44.53081" lon="4.23713">
        <ele>438</ele>
        <time>2018-06-03T06:55:09.000Z</time>
      </trkpt>
      <trkpt lat="44.53083" lon="4.23714">
        <ele>438</ele>
        <time>2018-06-03T06:55:10.000Z</time>
      </trkpt>
      <trkpt lat="44.53085" lon="4.23716">
        <ele>444</ele>
        <time>2018-06-03T06:55:11.000Z</time>
      </trkpt>
      <trkpt lat="44.53087" lon="4.23717">
        <ele>444</ele>
        <time>2018-06-03T06:55:12.000Z</time>
      </trkpt>
      <trkpt lat="44.5309" lon="4.23719">
        <ele>444</ele>
        <time>2018-06-03T06:55:13.000Z</time>
      </trkpt>
      <trkpt lat="44.53092" lon="4.23721">
        <ele>444</ele>
        <time>2018-06-03T06:55:14.000Z</time>
      </trkpt>
      <trkpt lat="44.53094" lon="4.23722">
        <ele>444</ele>
        <time>2018-06-03T06:55:15.000Z</time>
      </trkpt>
      <trkpt lat="44.53096" lon="4.23723">
        <ele>444</ele>
        <time>2018-06-03T06:55:16.000Z</time>
      </trkpt>
      <trkpt lat="44.53098" lon="4.23724">
        <ele>444</ele>
        <time>2018-06-03T06:55:17.000Z</time>
      </trkpt>
      <trkpt lat="44.531" lon="4.23725">
        <ele>444</ele>
        <time>2018-06-03T06:55:18.000Z</time>
      </trkpt>
      <trkpt lat="44.53102" lon="4.23726">
        <ele>444</ele>
        <time>2018-06-03T06:55:19.000Z</time>
      </trkpt>
      <trkpt lat="44.53105" lon="4.23727">
        <ele>444</ele>
        <time>2018-06-03T06:55:20.000Z</time>
      </trkpt>
      <trkpt lat="44.53107" lon="4.23728">
        <ele>444</ele>
        <time>2018-06-03T06:55:21.000Z</time>
      </trkpt>
      <trkpt lat="44.5311" lon="4.23728">
        <ele>444</ele>
        <time>2018-06-03T06:55:22.000Z</time>
      </trkpt>
      <trkpt lat="44.53112" lon="4.23729">
        <ele>444</ele>
        <time>2018-06-03T06:55:23.000Z</time>
      </trkpt>
      <trkpt lat="44.53114" lon="4.23729">
        <ele>445</ele>
        <time>2018-06-03T06:55:24.000Z</time>
      </trkpt>
      <trkpt lat="44.53116" lon="4.2373">
        <ele>445</ele>
        <time>2018-06-03T06:55:25.000Z</time>
      </trkpt>
      <trkpt lat="44.53118" lon="4.23731">
        <ele>445</ele>
        <time>2018-06-03T06:55:26.000Z</time>
      </trkpt>
      <trkpt lat="44.5312" lon="4.23731">
        <ele>445</ele>
        <time>2018-06-03T06:55:27.000Z</time>
      </trkpt>
      <trkpt lat="44.53122" lon="4.23732">
        <ele>445</ele>
        <time>2018-06-03T06:55:28.000Z</time>
      </trkpt>
      <trkpt lat="44.53123" lon="4.23733">
        <ele>445</ele>
        <time>2018-06-03T06:55:29.000Z</time>
      </trkpt>
      <trkpt lat="44.53125" lon="4.23734">
        <ele>445</ele>
        <time>2018-06-03T06:55:30.000Z</time>
      </trkpt>
      <trkpt lat="44.53127" lon="4.23735">
        <ele>446</ele>
        <time>2018-06-03T06:55:31.000Z</time>
      </trkpt>
      <trkpt lat="44.53129" lon="4.23736">
        <ele>446</ele>
        <time>2018-06-03T06:55:32.000Z</time>
      </trkpt>
      <trkpt lat="44.53131" lon="4.23738">
        <ele>446</ele>
        <time>2018-06-03T06:55:33.000Z</time>
      </trkpt>
      <trkpt lat="44.53133" lon="4.23739">
        <ele>446</ele>
        <time>2018-06-03T06:55:34.000Z</time>
      </trkpt>
      <trkpt lat="44.53135" lon="4.2374">
        <ele>446</ele>
        <time>2018-06-03T06:55:35.000Z</time>
      </trkpt>
      <trkpt lat="44.53137" lon="4.23742">
        <ele>446</ele>
        <time>2018-06-03T06:55:36.000Z</time>
      </trkpt>
      <trkpt lat="44.53139" lon="4.23745">
        <ele>447</ele>
        <time>2018-06-03T06:55:37.000Z</time>
      </trkpt>
      <trkpt lat="44.53141" lon="4.23747">
        <ele>447</ele>
        <time>2018-06-03T06:55:38.000Z</time>
      </trkpt>
      <trkpt lat="44.53143" lon="4.23749">
        <ele>447</ele>
        <time>2018-06-03T06:55:39.000Z</time>
      </trkpt>
      <trkpt lat="44.53145" lon="4.23752">
        <ele>446</ele>
        <time>2018-06-03T06:55:40.000Z</time>
      </trkpt>
      <trkpt lat="44.53147" lon="4.23754">
        <ele>446</ele>
        <time>2018-06-03T06:55:41.000Z</time>
      </trkpt>
      <trkpt lat="44.53149" lon="4.23757">
        <ele>446</ele>
        <time>2018-06-03T06:55:42.000Z</time>
      </trkpt>
      <trkpt lat="44.53151" lon="4.23759">
        <ele>446</ele>
        <time>2018-06-03T06:55:43.000Z</time>
      </trkpt>
      <trkpt lat="44.53153" lon="4.23761">
        <ele>446</ele>
        <time>2018-06-03T06:55:44.000Z</time>
      </trkpt>
      <trkpt lat="44.53155" lon="4.23763">
        <ele>446</ele>
        <time>2018-06-03T06:55:45.000Z</time>
      </trkpt>
      <trkpt lat="44.53157" lon="4.23766">
        <ele>446</ele>
        <time>2018-06-03T06:55:46.000Z</time>
      </trkpt>
      <trkpt lat="44.53159" lon="4.23768">
        <ele>446</ele>
        <time>2018-06-03T06:55:47.000Z</time>
      </trkpt>
      <trkpt lat="44.5316" lon="4.23771">
        <ele>446</ele>
        <time>2018-06-03T06:55:48.000Z</time>
      </trkpt>
      <trkpt lat="44.53162" lon="4.23773">
        <ele>446</ele>
        <time>2018-06-03T06:55:49.000Z</time>
      </trkpt>
      <trkpt lat="44.53163" lon="4.23776">
        <ele>446</ele>
        <time>2018-06-03T06:55:50.000Z</time>
      </trkpt>
      <trkpt lat="44.53165" lon="4.23778">
        <ele>446</ele>
        <time>2018-06-03T06:55:51.000Z</time>
      </trkpt>
      <trkpt lat="44.53167" lon="4.23781">
        <ele>453</ele>
        <time>2018-06-03T06:55:52.000Z</time>
      </trkpt>
      <trkpt lat="44.53169" lon="4.23784">
        <ele>453</ele>
        <time>2018-06-03T06:55:53.000Z</time>
      </trkpt>
      <trkpt lat="44.53171" lon="4.23787">
        <ele>453</ele>
        <time>2018-06-03T06:55:54.000Z</time>
      </trkpt>
      <trkpt lat="44.53173" lon="4.2379">
        <ele>453</ele>
        <time>2018-06-03T06:55:55.000Z</time>
      </trkpt>
      <trkpt lat="44.53175" lon="4.23793">
        <ele>453</ele>
        <time>2018-06-03T06:55:56.000Z</time>
      </trkpt>
      <trkpt lat="44.53177" lon="4.23797">
        <ele>453</ele>
        <time>2018-06-03T06:55:57.000Z</time>
      </trkpt>
      <trkpt lat="44.5318" lon="4.238">
        <ele>453</ele>
        <time>2018-06-03T06:55:58.000Z</time>
      </trkpt>
      <trkpt lat="44.53182" lon="4.23803">
        <ele>453</ele>
        <time>2018-06-03T06:55:59.000Z</time>
      </trkpt>
      <trkpt lat="44.53184" lon="4.23806">
        <ele>453</ele>
        <time>2018-06-03T06:56:00.000Z</time>
      </trkpt>
      <trkpt lat="44.53187" lon="4.23809">
        <ele>453</ele>
        <time>2018-06-03T06:56:01.000Z</time>
      </trkpt>
      <trkpt lat="44.53189" lon="4.23812">
        <ele>453</ele>
        <time>2018-06-03T06:56:02.000Z</time>
      </trkpt>
      <trkpt lat="44.53191" lon="4.23815">
        <ele>453</ele>
        <time>2018-06-03T06:56:03.000Z</time>
      </trkpt>
      <trkpt lat="44.53193" lon="4.23817">
        <ele>453</ele>
        <time>2018-06-03T06:56:04.000Z</time>
      </trkpt>
      <trkpt lat="44.53196" lon="4.2382">
        <ele>453</ele>
        <time>2018-06-03T06:56:05.000Z</time>
      </trkpt>
      <trkpt lat="44.53198" lon="4.23823">
        <ele>453</ele>
        <time>2018-06-03T06:56:06.000Z</time>
      </trkpt>
      <trkpt lat="44.532" lon="4.23825">
        <ele>453</ele>
        <time>2018-06-03T06:56:07.000Z</time>
      </trkpt>
      <trkpt lat="44.53202" lon="4.23827">
        <ele>454</ele>
        <time>2018-06-03T06:56:08.000Z</time>
      </trkpt>
      <trkpt lat="44.53205" lon="4.2383">
        <ele>454</ele>
        <time>2018-06-03T06:56:09.000Z</time>
      </trkpt>
      <trkpt lat="44.53207" lon="4.23832">
        <ele>454</ele>
        <time>2018-06-03T06:56:10.000Z</time>
      </trkpt>
      <trkpt lat="44.53209" lon="4.23834">
        <ele>451</ele>
        <time>2018-06-03T06:56:11.000Z</time>
      </trkpt>
      <trkpt lat="44.53211" lon="4.23837">
        <ele>451</ele>
        <time>2018-06-03T06:56:12.000Z</time>
      </trkpt>
      <trkpt lat="44.53214" lon="4.23839">
        <ele>452</ele>
        <time>2018-06-03T06:56:13.000Z</time>
      </trkpt>
      <trkpt lat="44.53216" lon="4.23841">
        <ele>452</ele>
        <time>2018-06-03T06:56:14.000Z</time>
      </trkpt>
      <trkpt lat="44.53219" lon="4.23843">
        <ele>452</ele>
        <time>2018-06-03T06:56:15.000Z</time>
      </trkpt>
      <trkpt lat="44.53221" lon="4.23845">
        <ele>452</ele>
        <time>2018-06-03T06:56:16.000Z</time>
      </trkpt>
      <trkpt lat="44.53224" lon="4.23847">
        <ele>453</ele>
        <time>2018-06-03T06:56:17.000Z</time>
      </trkpt>
      <trkpt lat="44.53226" lon="4.23848">
        <ele>453</ele>
        <time>2018-06-03T06:56:18.000Z</time>
      </trkpt>
      <trkpt lat="44.53229" lon="4.23848">
        <ele>453</ele>
        <time>2018-06-03T06:56:19.000Z</time>
      </trkpt>
      <trkpt lat="44.53232" lon="4.23847">
        <ele>454</ele>
        <time>2018-06-03T06:56:20.000Z</time>
      </trkpt>
      <trkpt lat="44.53234" lon="4.23845">
        <ele>454</ele>
        <time>2018-06-03T06:56:21.000Z</time>
      </trkpt>
      <trkpt lat="44.53237" lon="4.23844">
        <ele>455</ele>
        <time>2018-06-03T06:56:22.000Z</time>
      </trkpt>
      <trkpt lat="44.53239" lon="4.23842">
        <ele>455</ele>
        <time>2018-06-03T06:56:23.000Z</time>
      </trkpt>
      <trkpt lat="44.53241" lon="4.2384">
        <ele>456</ele>
        <time>2018-06-03T06:56:24.000Z</time>
      </trkpt>
      <trkpt lat="44.53243" lon="4.23838">
        <ele>456</ele>
        <time>2018-06-03T06:56:25.000Z</time>
      </trkpt>
      <trkpt lat="44.53245" lon="4.23835">
        <ele>457</ele>
        <time>2018-06-03T06:56:26.000Z</time>
      </trkpt>
      <trkpt lat="44.53247" lon="4.23834">
        <ele>458</ele>
        <time>2018-06-03T06:56:27.000Z</time>
      </trkpt>
      <trkpt lat="44.53249" lon="4.23832">
        <ele>459</ele>
        <time>2018-06-03T06:56:28.000Z</time>
      </trkpt>
      <trkpt lat="44.53251" lon="4.2383">
        <ele>460</ele>
        <time>2018-06-03T06:56:29.000Z</time>
      </trkpt>
      <trkpt lat="44.53253" lon="4.23828">
        <ele>461</ele>
        <time>2018-06-03T06:56:30.000Z</time>
      </trkpt>
      <trkpt lat="44.53255" lon="4.23826">
        <ele>462</ele>
        <time>2018-06-03T06:56:31.000Z</time>
      </trkpt>
      <trkpt lat="44.53256" lon="4.23824">
        <ele>463</ele>
        <time>2018-06-03T06:56:32.000Z</time>
      </trkpt>
      <trkpt lat="44.53258" lon="4.23821">
        <ele>463</ele>
        <time>2018-06-03T06:56:33.000Z</time>
      </trkpt>
      <trkpt lat="44.53259" lon="4.23819">
        <ele>464</ele>
        <time>2018-06-03T06:56:34.000Z</time>
      </trkpt>
      <trkpt lat="44.5326" lon="4.23817">
        <ele>464</ele>
        <time>2018-06-03T06:56:35.000Z</time>
      </trkpt>
      <trkpt lat="44.53261" lon="4.23814">
        <ele>465</ele>
        <time>2018-06-03T06:56:36.000Z</time>
      </trkpt>
      <trkpt lat="44.53262" lon="4.23812">
        <ele>465</ele>
        <time>2018-06-03T06:56:37.000Z</time>
      </trkpt>
      <trkpt lat="44.53263" lon="4.2381">
        <ele>465</ele>
        <time>2018-06-03T06:56:38.000Z</time>
      </trkpt>
      <trkpt lat="44.53264" lon="4.23807">
        <ele>466</ele>
        <time>2018-06-03T06:56:39.000Z</time>
      </trkpt>
      <trkpt lat="44.53266" lon="4.23804">
        <ele>466</ele>
        <time>2018-06-03T06:56:40.000Z</time>
      </trkpt>
      <trkpt lat="44.53268" lon="4.238">
        <ele>467</ele>
        <time>2018-06-03T06:56:41.000Z</time>
      </trkpt>
      <trkpt lat="44.53269" lon="4.23797">
        <ele>467</ele>
        <time>2018-06-03T06:56:42.000Z</time>
      </trkpt>
      <trkpt lat="44.53271" lon="4.23795">
        <ele>467</ele>
        <time>2018-06-03T06:56:43.000Z</time>
      </trkpt>
      <trkpt lat="44.53272" lon="4.23792">
        <ele>468</ele>
        <time>2018-06-03T06:56:44.000Z</time>
      </trkpt>
      <trkpt lat="44.53273" lon="4.2379">
        <ele>468</ele>
        <time>2018-06-03T06:56:45.000Z</time>
      </trkpt>
      <trkpt lat="44.53274" lon="4.23787">
        <ele>468</ele>
        <time>2018-06-03T06:56:46.000Z</time>
      </trkpt>
      <trkpt lat="44.53275" lon="4.23784">
        <ele>468</ele>
        <time>2018-06-03T06:56:47.000Z</time>
      </trkpt>
      <trkpt lat="44.53276" lon="4.23782">
        <ele>468</ele>
        <time>2018-06-03T06:56:48.000Z</time>
      </trkpt>
      <trkpt lat="44.53277" lon="4.2378">
        <ele>468</ele>
        <time>2018-06-03T06:56:49.000Z</time>
      </trkpt>
      <trkpt lat="44.53278" lon="4.23778">
        <ele>469</ele>
        <time>2018-06-03T06:56:50.000Z</time>
      </trkpt>
      <trkpt lat="44.53278" lon="4.23775">
        <ele>469</ele>
        <time>2018-06-03T06:56:51.000Z</time>
      </trkpt>
      <trkpt lat="44.53279" lon="4.23773">
        <ele>469</ele>
        <time>2018-06-03T06:56:52.000Z</time>
      </trkpt>
      <trkpt lat="44.53279" lon="4.2377">
        <ele>469</ele>
        <time>2018-06-03T06:56:53.000Z</time>
      </trkpt>
      <trkpt lat="44.53278" lon="4.23768">
        <ele>469</ele>
        <time>2018-06-03T06:56:54.000Z</time>
      </trkpt>
      <trkpt lat="44.53277" lon="4.23766">
        <ele>469</ele>
        <time>2018-06-03T06:56:55.000Z</time>
      </trkpt>
      <trkpt lat="44.53277" lon="4.23763">
        <ele>469</ele>
        <time>2018-06-03T06:56:56.000Z</time>
      </trkpt>
      <trkpt lat="44.53276" lon="4.2376">
        <ele>469</ele>
        <time>2018-06-03T06:56:57.000Z</time>
      </trkpt>
      <trkpt lat="44.53276" lon="4.23757">
        <ele>469</ele>
        <time>2018-06-03T06:56:58.000Z</time>
      </trkpt>
      <trkpt lat="44.53275" lon="4.23755">
        <ele>469</ele>
        <time>2018-06-03T06:56:59.000Z</time>
      </trkpt>
      <trkpt lat="44.53275" lon="4.23752">
        <ele>469</ele>
        <time>2018-06-03T06:57:00.000Z</time>
      </trkpt>
      <trkpt lat="44.53275" lon="4.2375">
        <ele>474</ele>
        <time>2018-06-03T06:57:01.000Z</time>
      </trkpt>
      <trkpt lat="44.53274" lon="4.23747">
        <ele>474</ele>
        <time>2018-06-03T06:57:02.000Z</time>
      </trkpt>
      <trkpt lat="44.53274" lon="4.23744">
        <ele>474</ele>
        <time>2018-06-03T06:57:03.000Z</time>
      </trkpt>
      <trkpt lat="44.53274" lon="4.23742">
        <ele>474</ele>
        <time>2018-06-03T06:57:04.000Z</time>
      </trkpt>
      <trkpt lat="44.53274" lon="4.23739">
        <ele>474</ele>
        <time>2018-06-03T06:57:05.000Z</time>
      </trkpt>
      <trkpt lat="44.53273" lon="4.23736">
        <ele>474</ele>
        <time>2018-06-03T06:57:06.000Z</time>
      </trkpt>
      <trkpt lat="44.53273" lon="4.23734">
        <ele>474</ele>
        <time>2018-06-03T06:57:07.000Z</time>
      </trkpt>
      <trkpt lat="44.53273" lon="4.23731">
        <ele>474</ele>
        <time>2018-06-03T06:57:08.000Z</time>
      </trkpt>
      <trkpt lat="44.53273" lon="4.23728">
        <ele>475</ele>
        <time>2018-06-03T06:57:09.000Z</time>
      </trkpt>
      <trkpt lat="44.53273" lon="4.23726">
        <ele>475</ele>
        <time>2018-06-03T06:57:10.000Z</time>
      </trkpt>
      <trkpt lat="44.53273" lon="4.23723">
        <ele>475</ele>
        <time>2018-06-03T06:57:11.000Z</time>
      </trkpt>
      <trkpt lat="44.53273" lon="4.2372">
        <ele>475</ele>
        <time>2018-06-03T06:57:12.000Z</time>
      </trkpt>
      <trkpt lat="44.53273" lon="4.23718">
        <ele>475</ele>
        <time>2018-06-03T06:57:13.000Z</time>
      </trkpt>
      <trkpt lat="44.53273" lon="4.23715">
        <ele>476</ele>
        <time>2018-06-03T06:57:14.000Z</time>
      </trkpt>
      <trkpt lat="44.53274" lon="4.23713">
        <ele>476</ele>
        <time>2018-06-03T06:57:15.000Z</time>
      </trkpt>
      <trkpt lat="44.53275" lon="4.2371">
        <ele>476</ele>
        <time>2018-06-03T06:57:16.000Z</time>
      </trkpt>
      <trkpt lat="44.53276" lon="4.23708">
        <ele>476</ele>
        <time>2018-06-03T06:57:17.000Z</time>
      </trkpt>
      <trkpt lat="44.53277" lon="4.23706">
        <ele>477</ele>
        <time>2018-06-03T06:57:18.000Z</time>
      </trkpt>
      <trkpt lat="44.53279" lon="4.23704">
        <ele>477</ele>
        <time>2018-06-03T06:57:19.000Z</time>
      </trkpt>
      <trkpt lat="44.5328" lon="4.23702">
        <ele>477</ele>
        <time>2018-06-03T06:57:20.000Z</time>
      </trkpt>
      <trkpt lat="44.53281" lon="4.237">
        <ele>477</ele>
        <time>2018-06-03T06:57:21.000Z</time>
      </trkpt>
      <trkpt lat="44.53283" lon="4.23698">
        <ele>478</ele>
        <time>2018-06-03T06:57:22.000Z</time>
      </trkpt>
      <trkpt lat="44.53284" lon="4.23697">
        <ele>478</ele>
        <time>2018-06-03T06:57:23.000Z</time>
      </trkpt>
      <trkpt lat="44.53285" lon="4.23695">
        <ele>478</ele>
        <time>2018-06-03T06:57:24.000Z</time>
      </trkpt>
      <trkpt lat="44.53285" lon="4.23692">
        <ele>478</ele>
        <time>2018-06-03T06:57:25.000Z</time>
      </trkpt>
      <trkpt lat="44.53284" lon="4.2369">
        <ele>478</ele>
        <time>2018-06-03T06:57:26.000Z</time>
      </trkpt>
      <trkpt lat="44.53284" lon="4.23687">
        <ele>478</ele>
        <time>2018-06-03T06:57:27.000Z</time>
      </trkpt>
      <trkpt lat="44.53283" lon="4.23685">
        <ele>478</ele>
        <time>2018-06-03T06:57:28.000Z</time>
      </trkpt>
      <trkpt lat="44.53281" lon="4.23682">
        <ele>478</ele>
        <time>2018-06-03T06:57:29.000Z</time>
      </trkpt>
      <trkpt lat="44.53281" lon="4.23678">
        <ele>477</ele>
        <time>2018-06-03T06:57:30.000Z</time>
      </trkpt>
      <trkpt lat="44.5328" lon="4.23675">
        <ele>477</ele>
        <time>2018-06-03T06:57:31.000Z</time>
      </trkpt>
      <trkpt lat="44.53279" lon="4.23671">
        <ele>477</ele>
        <time>2018-06-03T06:57:32.000Z</time>
      </trkpt>
      <trkpt lat="44.53279" lon="4.23667">
        <ele>477</ele>
        <time>2018-06-03T06:57:33.000Z</time>
      </trkpt>
      <trkpt lat="44.53279" lon="4.23663">
        <ele>481</ele>
        <time>2018-06-03T06:57:34.000Z</time>
      </trkpt>
      <trkpt lat="44.53279" lon="4.23659">
        <ele>481</ele>
        <time>2018-06-03T06:57:35.000Z</time>
      </trkpt>
      <trkpt lat="44.5328" lon="4.23655">
        <ele>482</ele>
        <time>2018-06-03T06:57:36.000Z</time>
      </trkpt>
      <trkpt lat="44.5328" lon="4.23652">
        <ele>482</ele>
        <time>2018-06-03T06:57:37.000Z</time>
      </trkpt>
      <trkpt lat="44.53279" lon="4.23649">
        <ele>482</ele>
        <time>2018-06-03T06:57:38.000Z</time>
      </trkpt>
      <trkpt lat="44.53278" lon="4.23646">
        <ele>482</ele>
        <time>2018-06-03T06:57:39.000Z</time>
      </trkpt>
      <trkpt lat="44.53277" lon="4.23642">
        <ele>482</ele>
        <time>2018-06-03T06:57:40.000Z</time>
      </trkpt>
      <trkpt lat="44.53276" lon="4.23639">
        <ele>482</ele>
        <time>2018-06-03T06:57:41.000Z</time>
      </trkpt>
      <trkpt lat="44.53276" lon="4.23635">
        <ele>482</ele>
        <time>2018-06-03T06:57:42.000Z</time>
      </trkpt>
      <trkpt lat="44.53275" lon="4.23631">
        <ele>482</ele>
        <time>2018-06-03T06:57:43.000Z</time>
      </trkpt>
      <trkpt lat="44.53274" lon="4.23627">
        <ele>482</ele>
        <time>2018-06-03T06:57:44.000Z</time>
      </trkpt>
      <trkpt lat="44.53273" lon="4.23624">
        <ele>482</ele>
        <time>2018-06-03T06:57:45.000Z</time>
      </trkpt>
      <trkpt lat="44.53273" lon="4.2362">
        <ele>482</ele>
        <time>2018-06-03T06:57:46.000Z</time>
      </trkpt>
      <trkpt lat="44.53272" lon="4.23617">
        <ele>482</ele>
        <time>2018-06-03T06:57:47.000Z</time>
      </trkpt>
      <trkpt lat="44.53272" lon="4.23614">
        <ele>482</ele>
        <time>2018-06-03T06:57:48.000Z</time>
      </trkpt>
      <trkpt lat="44.53272" lon="4.23611">
        <ele>482</ele>
        <time>2018-06-03T06:57:49.000Z</time>
      </trkpt>
      <trkpt lat="44.53273" lon="4.23608">
        <ele>482</ele>
        <time>2018-06-03T06:57:50.000Z</time>
      </trkpt>
      <trkpt lat="44.53273" lon="4.23605">
        <ele>482</ele>
        <time>2018-06-03T06:57:51.000Z</time>
      </trkpt>
      <trkpt lat="44.53274" lon="4.23602">
        <ele>482</ele>
        <time>2018-06-03T06:57:52.000Z</time>
      </trkpt>
      <trkpt lat="44.53274" lon="4.23599">
        <ele>482</ele>
        <time>2018-06-03T06:57:53.000Z</time>
      </trkpt>
      <trkpt lat="44.53274" lon="4.23596">
        <ele>482</ele>
        <time>2018-06-03T06:57:54.000Z</time>
      </trkpt>
      <trkpt lat="44.53275" lon="4.23594">
        <ele>482</ele>
        <time>2018-06-03T06:57:55.000Z</time>
      </trkpt>
      <trkpt lat="44.53275" lon="4.23591">
        <ele>482</ele>
        <time>2018-06-03T06:57:56.000Z</time>
      </trkpt>
      <trkpt lat="44.53276" lon="4.23589">
        <ele>482</ele>
        <time>2018-06-03T06:57:57.000Z</time>
      </trkpt>
      <trkpt lat="44.53276" lon="4.23587">
        <ele>482</ele>
        <time>2018-06-03T06:57:58.000Z</time>
      </trkpt>
      <trkpt lat="44.53276" lon="4.23585">
        <ele>482</ele>
        <time>2018-06-03T06:57:59.000Z</time>
      </trkpt>
      <trkpt lat="44.53276" lon="4.23583">
        <ele>482</ele>
        <time>2018-06-03T06:58:00.000Z</time>
      </trkpt>
      <trkpt lat="44.53277" lon="4.2358">
        <ele>482</ele>
        <time>2018-06-03T06:58:01.000Z</time>
      </trkpt>
      <trkpt lat="44.53277" lon="4.23578">
        <ele>482</ele>
        <time>2018-06-03T06:58:02.000Z</time>
      </trkpt>
      <trkpt lat="44.53278" lon="4.23576">
        <ele>483</ele>
        <time>2018-06-03T06:58:03.000Z</time>
      </trkpt>
      <trkpt lat="44.53279" lon="4.23573">
        <ele>483</ele>
        <time>2018-06-03T06:58:04.000Z</time>
      </trkpt>
      <trkpt lat="44.5328" lon="4.2357">
        <ele>483</ele>
        <time>2018-06-03T06:58:05.000Z</time>
      </trkpt>
      <trkpt lat="44.53281" lon="4.23567">
        <ele>483</ele>
        <time>2018-06-03T06:58:06.000Z</time>
      </trkpt>
      <trkpt lat="44.53282" lon="4.23564">
        <ele>484</ele>
        <time>2018-06-03T06:58:07.000Z</time>
      </trkpt>
      <trkpt lat="44.53282" lon="4.23562">
        <ele>484</ele>
        <time>2018-06-03T06:58:08.000Z</time>
      </trkpt>
      <trkpt lat="44.53282" lon="4.2356">
        <ele>484</ele>
        <time>2018-06-03T06:58:09.000Z</time>
      </trkpt>
      <trkpt lat="44.53282" lon="4.23558">
        <ele>484</ele>
        <time>2018-06-03T06:58:10.000Z</time>
      </trkpt>
      <trkpt lat="44.53282" lon="4.23555">
        <ele>484</ele>
        <time>2018-06-03T06:58:11.000Z</time>
      </trkpt>
      <trkpt lat="44.53282" lon="4.23553">
        <ele>484</ele>
        <time>2018-06-03T06:58:12.000Z</time>
      </trkpt>
      <trkpt lat="44.53283" lon="4.23551">
        <ele>484</ele>
        <time>2018-06-03T06:58:13.000Z</time>
      </trkpt>
      <trkpt lat="44.53284" lon="4.23549">
        <ele>484</ele>
        <time>2018-06-03T06:58:14.000Z</time>
      </trkpt>
      <trkpt lat="44.53284" lon="4.23547">
        <ele>484</ele>
        <time>2018-06-03T06:58:15.000Z</time>
      </trkpt>
      <trkpt lat="44.53284" lon="4.23544">
        <ele>484</ele>
        <time>2018-06-03T06:58:16.000Z</time>
      </trkpt>
      <trkpt lat="44.53285" lon="4.23542">
        <ele>484</ele>
        <time>2018-06-03T06:58:17.000Z</time>
      </trkpt>
      <trkpt lat="44.53285" lon="4.2354">
        <ele>484</ele>
        <time>2018-06-03T06:58:18.000Z</time>
      </trkpt>
      <trkpt lat="44.53285" lon="4.23537">
        <ele>484</ele>
        <time>2018-06-03T06:58:19.000Z</time>
      </trkpt>
      <trkpt lat="44.53286" lon="4.23534">
        <ele>484</ele>
        <time>2018-06-03T06:58:20.000Z</time>
      </trkpt>
      <trkpt lat="44.53287" lon="4.23531">
        <ele>484</ele>
        <time>2018-06-03T06:58:21.000Z</time>
      </trkpt>
      <trkpt lat="44.53287" lon="4.23527">
        <ele>484</ele>
        <time>2018-06-03T06:58:22.000Z</time>
      </trkpt>
      <trkpt lat="44.53288" lon="4.23524">
        <ele>485</ele>
        <time>2018-06-03T06:58:23.000Z</time>
      </trkpt>
      <trkpt lat="44.53289" lon="4.2352">
        <ele>485</ele>
        <time>2018-06-03T06:58:24.000Z</time>
      </trkpt>
      <trkpt lat="44.5329" lon="4.23516">
        <ele>485</ele>
        <time>2018-06-03T06:58:25.000Z</time>
      </trkpt>
      <trkpt lat="44.53291" lon="4.23511">
        <ele>485</ele>
        <time>2018-06-03T06:58:26.000Z</time>
      </trkpt>
      <trkpt lat="44.53291" lon="4.23506">
        <ele>485</ele>
        <time>2018-06-03T06:58:27.000Z</time>
      </trkpt>
      <trkpt lat="44.53292" lon="4.23502">
        <ele>485</ele>
        <time>2018-06-03T06:58:28.000Z</time>
      </trkpt>
      <trkpt lat="44.53293" lon="4.23497">
        <ele>483</ele>
        <time>2018-06-03T06:58:29.000Z</time>
      </trkpt>
      <trkpt lat="44.53293" lon="4.23493">
        <ele>483</ele>
        <time>2018-06-03T06:58:30.000Z</time>
      </trkpt>
      <trkpt lat="44.53295" lon="4.23489">
        <ele>483</ele>
        <time>2018-06-03T06:58:31.000Z</time>
      </trkpt>
      <trkpt lat="44.53296" lon="4.23485">
        <ele>483</ele>
        <time>2018-06-03T06:58:32.000Z</time>
      </trkpt>
      <trkpt lat="44.53298" lon="4.2348">
        <ele>483</ele>
        <time>2018-06-03T06:58:33.000Z</time>
      </trkpt>
      <trkpt lat="44.533" lon="4.23476">
        <ele>484</ele>
        <time>2018-06-03T06:58:34.000Z</time>
      </trkpt>
      <trkpt lat="44.53302" lon="4.23472">
        <ele>484</ele>
        <time>2018-06-03T06:58:35.000Z</time>
      </trkpt>
      <trkpt lat="44.53303" lon="4.23468">
        <ele>484</ele>
        <time>2018-06-03T06:58:36.000Z</time>
      </trkpt>
      <trkpt lat="44.53305" lon="4.23464">
        <ele>484</ele>
        <time>2018-06-03T06:58:37.000Z</time>
      </trkpt>
      <trkpt lat="44.53306" lon="4.2346">
        <ele>484</ele>
        <time>2018-06-03T06:58:38.000Z</time>
      </trkpt>
      <trkpt lat="44.53308" lon="4.23456">
        <ele>484</ele>
        <time>2018-06-03T06:58:39.000Z</time>
      </trkpt>
      <trkpt lat="44.5331" lon="4.23452">
        <ele>484</ele>
        <time>2018-06-03T06:58:40.000Z</time>
      </trkpt>
      <trkpt lat="44.53312" lon="4.23448">
        <ele>484</ele>
        <time>2018-06-03T06:58:41.000Z</time>
      </trkpt>
      <trkpt lat="44.53313" lon="4.23444">
        <ele>484</ele>
        <time>2018-06-03T06:58:42.000Z</time>
      </trkpt>
      <trkpt lat="44.53313" lon="4.23441">
        <ele>484</ele>
        <time>2018-06-03T06:58:43.000Z</time>
      </trkpt>
      <trkpt lat="44.53313" lon="4.23436">
        <ele>484</ele>
        <time>2018-06-03T06:58:44.000Z</time>
      </trkpt>
      <trkpt lat="44.53313" lon="4.23432">
        <ele>484</ele>
        <time>2018-06-03T06:58:45.000Z</time>
      </trkpt>
      <trkpt lat="44.53312" lon="4.23426">
        <ele>484</ele>
        <time>2018-06-03T06:58:46.000Z</time>
      </trkpt>
      <trkpt lat="44.5331" lon="4.23422">
        <ele>484</ele>
        <time>2018-06-03T06:58:47.000Z</time>
      </trkpt>
      <trkpt lat="44.53309" lon="4.23417">
        <ele>484</ele>
        <time>2018-06-03T06:58:48.000Z</time>
      </trkpt>
      <trkpt lat="44.53307" lon="4.23413">
        <ele>482</ele>
        <time>2018-06-03T06:58:49.000Z</time>
      </trkpt>
      <trkpt lat="44.53306" lon="4.23409">
        <ele>482</ele>
        <time>2018-06-03T06:58:50.000Z</time>
      </trkpt>
      <trkpt lat="44.53307" lon="4.23406">
        <ele>482</ele>
        <time>2018-06-03T06:58:51.000Z</time>
      </trkpt>
      <trkpt lat="44.53307" lon="4.23402">
        <ele>481</ele>
        <time>2018-06-03T06:58:52.000Z</time>
      </trkpt>
      <trkpt lat="44.53308" lon="4.23398">
        <ele>481</ele>
        <time>2018-06-03T06:58:53.000Z</time>
      </trkpt>
      <trkpt lat="44.53307" lon="4.23394">
        <ele>481</ele>
        <time>2018-06-03T06:58:54.000Z</time>
      </trkpt>
      <trkpt lat="44.53307" lon="4.23389">
        <ele>481</ele>
        <time>2018-06-03T06:58:55.000Z</time>
      </trkpt>
      <trkpt lat="44.53307" lon="4.23384">
        <ele>481</ele>
        <time>2018-06-03T06:58:56.000Z</time>
      </trkpt>
      <trkpt lat="44.53306" lon="4.2338">
        <ele>480</ele>
        <time>2018-06-03T06:58:57.000Z</time>
      </trkpt>
      <trkpt lat="44.53305" lon="4.23376">
        <ele>480</ele>
        <time>2018-06-03T06:58:58.000Z</time>
      </trkpt>
      <trkpt lat="44.53304" lon="4.23372">
        <ele>480</ele>
        <time>2018-06-03T06:58:59.000Z</time>
      </trkpt>
      <trkpt lat="44.53303" lon="4.23368">
        <ele>480</ele>
        <time>2018-06-03T06:59:00.000Z</time>
      </trkpt>
      <trkpt lat="44.53302" lon="4.23364">
        <ele>480</ele>
        <time>2018-06-03T06:59:01.000Z</time>
      </trkpt>
      <trkpt lat="44.53302" lon="4.2336">
        <ele>480</ele>
        <time>2018-06-03T06:59:02.000Z</time>
      </trkpt>
      <trkpt lat="44.53302" lon="4.23356">
        <ele>480</ele>
        <time>2018-06-03T06:59:03.000Z</time>
      </trkpt>
      <trkpt lat="44.53303" lon="4.23352">
        <ele>480</ele>
        <time>2018-06-03T06:59:04.000Z</time>
      </trkpt>
      <trkpt lat="44.53305" lon="4.23349">
        <ele>480</ele>
        <time>2018-06-03T06:59:05.000Z</time>
      </trkpt>
      <trkpt lat="44.53306" lon="4.23345">
        <ele>480</ele>
        <time>2018-06-03T06:59:06.000Z</time>
      </trkpt>
      <trkpt lat="44.53307" lon="4.23342">
        <ele>480</ele>
        <time>2018-06-03T06:59:07.000Z</time>
      </trkpt>
      <trkpt lat="44.53309" lon="4.23338">
        <ele>480</ele>
        <time>2018-06-03T06:59:08.000Z</time>
      </trkpt>
      <trkpt lat="44.53311" lon="4.23335">
        <ele>481</ele>
        <time>2018-06-03T06:59:09.000Z</time>
      </trkpt>
      <trkpt lat="44.53314" lon="4.23332">
        <ele>477</ele>
        <time>2018-06-03T06:59:10.000Z</time>
      </trkpt>
      <trkpt lat="44.53317" lon="4.2333">
        <ele>477</ele>
        <time>2018-06-03T06:59:11.000Z</time>
      </trkpt>
      <trkpt lat="44.5332" lon="4.23327">
        <ele>478</ele>
        <time>2018-06-03T06:59:12.000Z</time>
      </trkpt>
      <trkpt lat="44.53323" lon="4.23324">
        <ele>478</ele>
        <time>2018-06-03T06:59:13.000Z</time>
      </trkpt>
      <trkpt lat="44.53327" lon="4.23321">
        <ele>478</ele>
        <time>2018-06-03T06:59:14.000Z</time>
      </trkpt>
      <trkpt lat="44.5333" lon="4.23319">
        <ele>478</ele>
        <time>2018-06-03T06:59:15.000Z</time>
      </trkpt>
      <trkpt lat="44.53334" lon="4.23316">
        <ele>481</ele>
        <time>2018-06-03T06:59:16.000Z</time>
      </trkpt>
      <trkpt lat="44.53338" lon="4.23313">
        <ele>481</ele>
        <time>2018-06-03T06:59:17.000Z</time>
      </trkpt>
      <trkpt lat="44.53342" lon="4.2331">
        <ele>481</ele>
        <time>2018-06-03T06:59:18.000Z</time>
      </trkpt>
      <trkpt lat="44.53347" lon="4.23308">
        <ele>481</ele>
        <time>2018-06-03T06:59:19.000Z</time>
      </trkpt>
      <trkpt lat="44.53351" lon="4.23306">
        <ele>480</ele>
        <time>2018-06-03T06:59:20.000Z</time>
      </trkpt>
      <trkpt lat="44.53356" lon="4.23304">
        <ele>480</ele>
        <time>2018-06-03T06:59:21.000Z</time>
      </trkpt>
      <trkpt lat="44.5336" lon="4.23301">
        <ele>480</ele>
        <time>2018-06-03T06:59:22.000Z</time>
      </trkpt>
      <trkpt lat="44.53365" lon="4.23299">
        <ele>480</ele>
        <time>2018-06-03T06:59:23.000Z</time>
      </trkpt>
      <trkpt lat="44.53369" lon="4.23296">
        <ele>480</ele>
        <time>2018-06-03T06:59:24.000Z</time>
      </trkpt>
      <trkpt lat="44.53373" lon="4.23294">
        <ele>480</ele>
        <time>2018-06-03T06:59:25.000Z</time>
      </trkpt>
      <trkpt lat="44.53377" lon="4.23292">
        <ele>480</ele>
        <time>2018-06-03T06:59:26.000Z</time>
      </trkpt>
      <trkpt lat="44.53382" lon="4.23289">
        <ele>480</ele>
        <time>2018-06-03T06:59:27.000Z</time>
      </trkpt>
      <trkpt lat="44.53387" lon="4.23288">
        <ele>480</ele>
        <time>2018-06-03T06:59:28.000Z</time>
      </trkpt>
      <trkpt lat="44.53391" lon="4.23287">
        <ele>480</ele>
        <time>2018-06-03T06:59:29.000Z</time>
      </trkpt>
      <trkpt lat="44.53395" lon="4.23286">
        <ele>480</ele>
        <time>2018-06-03T06:59:30.000Z</time>
      </trkpt>
      <trkpt lat="44.53399" lon="4.23284">
        <ele>480</ele>
        <time>2018-06-03T06:59:31.000Z</time>
      </trkpt>
      <trkpt lat="44.53402" lon="4.23282">
        <ele>480</ele>
        <time>2018-06-03T06:59:32.000Z</time>
      </trkpt>
      <trkpt lat="44.53406" lon="4.23281">
        <ele>480</ele>
        <time>2018-06-03T06:59:33.000Z</time>
      </trkpt>
      <trkpt lat="44.53409" lon="4.23281">
        <ele>480</ele>
        <time>2018-06-03T06:59:34.000Z</time>
      </trkpt>
      <trkpt lat="44.53413" lon="4.2328">
        <ele>480</ele>
        <time>2018-06-03T06:59:35.000Z</time>
      </trkpt>
      <trkpt lat="44.53417" lon="4.23278">
        <ele>484</ele>
        <time>2018-06-03T06:59:36.000Z</time>
      </trkpt>
      <trkpt lat="44.53421" lon="4.23276">
        <ele>483</ele>
        <time>2018-06-03T06:59:37.000Z</time>
      </trkpt>
      <trkpt lat="44.53425" lon="4.23275">
        <ele>483</ele>
        <time>2018-06-03T06:59:38.000Z</time>
      </trkpt>
      <trkpt lat="44.53429" lon="4.23273">
        <ele>483</ele>
        <time>2018-06-03T06:59:39.000Z</time>
      </trkpt>
      <trkpt lat="44.53433" lon="4.23272">
        <ele>483</ele>
        <time>2018-06-03T06:59:40.000Z</time>
      </trkpt>
      <trkpt lat="44.53437" lon="4.23271">
        <ele>484</ele>
        <time>2018-06-03T06:59:41.000Z</time>
      </trkpt>
      <trkpt lat="44.53441" lon="4.23271">
        <ele>484</ele>
        <time>2018-06-03T06:59:42.000Z</time>
      </trkpt>
      <trkpt lat="44.53445" lon="4.2327">
        <ele>484</ele>
        <time>2018-06-03T06:59:43.000Z</time>
      </trkpt>
      <trkpt lat="44.53448" lon="4.23269">
        <ele>484</ele>
        <time>2018-06-03T06:59:44.000Z</time>
      </trkpt>
      <trkpt lat="44.53452" lon="4.23268">
        <ele>485</ele>
        <time>2018-06-03T06:59:45.000Z</time>
      </trkpt>
      <trkpt lat="44.53456" lon="4.23267">
        <ele>485</ele>
        <time>2018-06-03T06:59:46.000Z</time>
      </trkpt>
      <trkpt lat="44.53459" lon="4.23267">
        <ele>485</ele>
        <time>2018-06-03T06:59:47.000Z</time>
      </trkpt>
      <trkpt lat="44.53463" lon="4.23267">
        <ele>485</ele>
        <time>2018-06-03T06:59:48.000Z</time>
      </trkpt>
      <trkpt lat="44.53467" lon="4.23267">
        <ele>485</ele>
        <time>2018-06-03T06:59:49.000Z</time>
      </trkpt>
      <trkpt lat="44.53471" lon="4.23267">
        <ele>485</ele>
        <time>2018-06-03T06:59:50.000Z</time>
      </trkpt>
      <trkpt lat="44.53473" lon="4.23266">
        <ele>485</ele>
        <time>2018-06-03T06:59:51.000Z</time>
      </trkpt>
      <trkpt lat="44.53475" lon="4.23266">
        <ele>485</ele>
        <time>2018-06-03T06:59:52.000Z</time>
      </trkpt>
      <trkpt lat="44.53477" lon="4.23266">
        <ele>485</ele>
        <time>2018-06-03T06:59:53.000Z</time>
      </trkpt>
      <trkpt lat="44.53479" lon="4.23265">
        <ele>485</ele>
        <time>2018-06-03T06:59:54.000Z</time>
      </trkpt>
      <trkpt lat="44.5348" lon="4.23265">
        <ele>485</ele>
        <time>2018-06-03T06:59:55.000Z</time>
      </trkpt>
      <trkpt lat="44.53482" lon="4.23265">
        <ele>485</ele>
        <time>2018-06-03T06:59:56.000Z</time>
      </trkpt>
      <trkpt lat="44.53484" lon="4.23265">
        <ele>485</ele>
        <time>2018-06-03T06:59:57.000Z</time>
      </trkpt>
      <trkpt lat="44.53487" lon="4.23264">
        <ele>485</ele>
        <time>2018-06-03T06:59:58.000Z</time>
      </trkpt>
      <trkpt lat="44.5349" lon="4.23264">
        <ele>485</ele>
        <time>2018-06-03T06:59:59.000Z</time>
      </trkpt>
      <trkpt lat="44.53493" lon="4.23264">
        <ele>485</ele>
        <time>2018-06-03T07:00:00.000Z</time>
      </trkpt>
      <trkpt lat="44.53495" lon="4.23264">
        <ele>485</ele>
        <time>2018-06-03T07:00:01.000Z</time>
      </trkpt>
      <trkpt lat="44.53497" lon="4.23263">
        <ele>485</ele>
        <time>2018-06-03T07:00:02.000Z</time>
      </trkpt>
      <trkpt lat="44.53499" lon="4.23262">
        <ele>485</ele>
        <time>2018-06-03T07:00:03.000Z</time>
      </trkpt>
      <trkpt lat="44.53501" lon="4.23261">
        <ele>488</ele>
        <time>2018-06-03T07:00:04.000Z</time>
      </trkpt>
      <trkpt lat="44.53504" lon="4.23261">
        <ele>488</ele>
        <time>2018-06-03T07:00:05.000Z</time>
      </trkpt>
      <trkpt lat="44.53506" lon="4.23259">
        <ele>488</ele>
        <time>2018-06-03T07:00:06.000Z</time>
      </trkpt>
      <trkpt lat="44.53509" lon="4.23258">
        <ele>489</ele>
        <time>2018-06-03T07:00:07.000Z</time>
      </trkpt>
      <trkpt lat="44.53511" lon="4.23257">
        <ele>489</ele>
        <time>2018-06-03T07:00:08.000Z</time>
      </trkpt>
      <trkpt lat="44.53514" lon="4.23256">
        <ele>490</ele>
        <time>2018-06-03T07:00:09.000Z</time>
      </trkpt>
      <trkpt lat="44.53517" lon="4.23255">
        <ele>490</ele>
        <time>2018-06-03T07:00:10.000Z</time>
      </trkpt>
      <trkpt lat="44.53519" lon="4.23254">
        <ele>491</ele>
        <time>2018-06-03T07:00:11.000Z</time>
      </trkpt>
      <trkpt lat="44.53522" lon="4.23252">
        <ele>491</ele>
        <time>2018-06-03T07:00:12.000Z</time>
      </trkpt>
      <trkpt lat="44.53524" lon="4.2325">
        <ele>491</ele>
        <time>2018-06-03T07:00:13.000Z</time>
      </trkpt>
      <trkpt lat="44.53526" lon="4.23248">
        <ele>485</ele>
        <time>2018-06-03T07:00:14.000Z</time>
      </trkpt>
      <trkpt lat="44.53529" lon="4.23246">
        <ele>485</ele>
        <time>2018-06-03T07:00:15.000Z</time>
      </trkpt>
      <trkpt lat="44.53531" lon="4.23245">
        <ele>485</ele>
        <time>2018-06-03T07:00:16.000Z</time>
      </trkpt>
      <trkpt lat="44.53533" lon="4.23243">
        <ele>485</ele>
        <time>2018-06-03T07:00:17.000Z</time>
      </trkpt>
      <trkpt lat="44.53536" lon="4.23241">
        <ele>485</ele>
        <time>2018-06-03T07:00:18.000Z</time>
      </trkpt>
      <trkpt lat="44.53538" lon="4.23239">
        <ele>485</ele>
        <time>2018-06-03T07:00:19.000Z</time>
      </trkpt>
      <trkpt lat="44.5354" lon="4.23237">
        <ele>486</ele>
        <time>2018-06-03T07:00:20.000Z</time>
      </trkpt>
      <trkpt lat="44.53542" lon="4.23235">
        <ele>486</ele>
        <time>2018-06-03T07:00:21.000Z</time>
      </trkpt>
      <trkpt lat="44.53544" lon="4.23233">
        <ele>486</ele>
        <time>2018-06-03T07:00:22.000Z</time>
      </trkpt>
      <trkpt lat="44.53547" lon="4.23231">
        <ele>486</ele>
        <time>2018-06-03T07:00:23.000Z</time>
      </trkpt>
      <trkpt lat="44.53549" lon="4.23229">
        <ele>486</ele>
        <time>2018-06-03T07:00:24.000Z</time>
      </trkpt>
      <trkpt lat="44.53551" lon="4.23227">
        <ele>486</ele>
        <time>2018-06-03T07:00:25.000Z</time>
      </trkpt>
      <trkpt lat="44.53553" lon="4.23225">
        <ele>486</ele>
        <time>2018-06-03T07:00:26.000Z</time>
      </trkpt>
      <trkpt lat="44.53555" lon="4.23223">
        <ele>486</ele>
        <time>2018-06-03T07:00:27.000Z</time>
      </trkpt>
      <trkpt lat="44.53558" lon="4.23221">
        <ele>486</ele>
        <time>2018-06-03T07:00:28.000Z</time>
      </trkpt>
      <trkpt lat="44.5356" lon="4.23219">
        <ele>486</ele>
        <time>2018-06-03T07:00:29.000Z</time>
      </trkpt>
      <trkpt lat="44.53562" lon="4.23217">
        <ele>486</ele>
        <time>2018-06-03T07:00:30.000Z</time>
      </trkpt>
      <trkpt lat="44.53564" lon="4.23215">
        <ele>486</ele>
        <time>2018-06-03T07:00:31.000Z</time>
      </trkpt>
      <trkpt lat="44.53567" lon="4.23213">
        <ele>486</ele>
        <time>2018-06-03T07:00:32.000Z</time>
      </trkpt>
      <trkpt lat="44.53568" lon="4.23211">
        <ele>486</ele>
        <time>2018-06-03T07:00:33.000Z</time>
      </trkpt>
      <trkpt lat="44.5357" lon="4.23209">
        <ele>486</ele>
        <time>2018-06-03T07:00:34.000Z</time>
      </trkpt>
      <trkpt lat="44.53572" lon="4.23206">
        <ele>486</ele>
        <time>2018-06-03T07:00:35.000Z</time>
      </trkpt>
      <trkpt lat="44.53574" lon="4.23204">
        <ele>486</ele>
        <time>2018-06-03T07:00:36.000Z</time>
      </trkpt>
      <trkpt lat="44.53576" lon="4.23202">
        <ele>486</ele>
        <time>2018-06-03T07:00:37.000Z</time>
      </trkpt>
      <trkpt lat="44.53578" lon="4.232">
        <ele>486</ele>
        <time>2018-06-03T07:00:38.000Z</time>
      </trkpt>
      <trkpt lat="44.5358" lon="4.23198">
        <ele>485</ele>
        <time>2018-06-03T07:00:39.000Z</time>
      </trkpt>
      <trkpt lat="44.53583" lon="4.23195">
        <ele>485</ele>
        <time>2018-06-03T07:00:40.000Z</time>
      </trkpt>
      <trkpt lat="44.53585" lon="4.23193">
        <ele>494</ele>
        <time>2018-06-03T07:00:41.000Z</time>
      </trkpt>
      <trkpt lat="44.53588" lon="4.23191">
        <ele>494</ele>
        <time>2018-06-03T07:00:42.000Z</time>
      </trkpt>
      <trkpt lat="44.5359" lon="4.23189">
        <ele>493</ele>
        <time>2018-06-03T07:00:43.000Z</time>
      </trkpt>
      <trkpt lat="44.53593" lon="4.23187">
        <ele>493</ele>
        <time>2018-06-03T07:00:44.000Z</time>
      </trkpt>
      <trkpt lat="44.53596" lon="4.23185">
        <ele>493</ele>
        <time>2018-06-03T07:00:45.000Z</time>
      </trkpt>
      <trkpt lat="44.53598" lon="4.23183">
        <ele>493</ele>
        <time>2018-06-03T07:00:46.000Z</time>
      </trkpt>
      <trkpt lat="44.53601" lon="4.2318">
        <ele>493</ele>
        <time>2018-06-03T07:00:47.000Z</time>
      </trkpt>
      <trkpt lat="44.53603" lon="4.23176">
        <ele>493</ele>
        <time>2018-06-03T07:00:48.000Z</time>
      </trkpt>
      <trkpt lat="44.53605" lon="4.23173">
        <ele>493</ele>
        <time>2018-06-03T07:00:49.000Z</time>
      </trkpt>
      <trkpt lat="44.53607" lon="4.23171">
        <ele>494</ele>
        <time>2018-06-03T07:00:50.000Z</time>
      </trkpt>
      <trkpt lat="44.5361" lon="4.23168">
        <ele>494</ele>
        <time>2018-06-03T07:00:51.000Z</time>
      </trkpt>
      <trkpt lat="44.53613" lon="4.23166">
        <ele>488</ele>
        <time>2018-06-03T07:00:52.000Z</time>
      </trkpt>
      <trkpt lat="44.53615" lon="4.23164">
        <ele>488</ele>
        <time>2018-06-03T07:00:53.000Z</time>
      </trkpt>
      <trkpt lat="44.53617" lon="4.23162">
        <ele>488</ele>
        <time>2018-06-03T07:00:54.000Z</time>
      </trkpt>
      <trkpt lat="44.53619" lon="4.2316">
        <ele>489</ele>
        <time>2018-06-03T07:00:55.000Z</time>
      </trkpt>
      <trkpt lat="44.53621" lon="4.23158">
        <ele>489</ele>
        <time>2018-06-03T07:00:56.000Z</time>
      </trkpt>
      <trkpt lat="44.53624" lon="4.23156">
        <ele>489</ele>
        <time>2018-06-03T07:00:57.000Z</time>
      </trkpt>
      <trkpt lat="44.53626" lon="4.23155">
        <ele>489</ele>
        <time>2018-06-03T07:00:58.000Z</time>
      </trkpt>
      <trkpt lat="44.53628" lon="4.23153">
        <ele>490</ele>
        <time>2018-06-03T07:00:59.000Z</time>
      </trkpt>
      <trkpt lat="44.5363" lon="4.23151">
        <ele>490</ele>
        <time>2018-06-03T07:01:00.000Z</time>
      </trkpt>
      <trkpt lat="44.53632" lon="4.23149">
        <ele>490</ele>
        <time>2018-06-03T07:01:01.000Z</time>
      </trkpt>
      <trkpt lat="44.53634" lon="4.23147">
        <ele>490</ele>
        <time>2018-06-03T07:01:02.000Z</time>
      </trkpt>
      <trkpt lat="44.53636" lon="4.23146">
        <ele>490</ele>
        <time>2018-06-03T07:01:03.000Z</time>
      </trkpt>
      <trkpt lat="44.53638" lon="4.23144">
        <ele>490</ele>
        <time>2018-06-03T07:01:04.000Z</time>
      </trkpt>
      <trkpt lat="44.5364" lon="4.23142">
        <ele>490</ele>
        <time>2018-06-03T07:01:05.000Z</time>
      </trkpt>
      <trkpt lat="44.53642" lon="4.23139">
        <ele>490</ele>
        <time>2018-06-03T07:01:06.000Z</time>
      </trkpt>
      <trkpt lat="44.53643" lon="4.23138">
        <ele>490</ele>
        <time>2018-06-03T07:01:07.000Z</time>
      </trkpt>
      <trkpt lat="44.53645" lon="4.23136">
        <ele>490</ele>
        <time>2018-06-03T07:01:08.000Z</time>
      </trkpt>
      <trkpt lat="44.53647" lon="4.23134">
        <ele>490</ele>
        <time>2018-06-03T07:01:09.000Z</time>
      </trkpt>
      <trkpt lat="44.53648" lon="4.23132">
        <ele>490</ele>
        <time>2018-06-03T07:01:10.000Z</time>
      </trkpt>
      <trkpt lat="44.5365" lon="4.2313">
        <ele>490</ele>
        <time>2018-06-03T07:01:11.000Z</time>
      </trkpt>
      <trkpt lat="44.53652" lon="4.23129">
        <ele>490</ele>
        <time>2018-06-03T07:01:12.000Z</time>
      </trkpt>
      <trkpt lat="44.53654" lon="4.23128">
        <ele>490</ele>
        <time>2018-06-03T07:01:13.000Z</time>
      </trkpt>
      <trkpt lat="44.53656" lon="4.23127">
        <ele>490</ele>
        <time>2018-06-03T07:01:14.000Z</time>
      </trkpt>
      <trkpt lat="44.53657" lon="4.23126">
        <ele>490</ele>
        <time>2018-06-03T07:01:15.000Z</time>
      </trkpt>
      <trkpt lat="44.53657" lon="4.23124">
        <ele>490</ele>
        <time>2018-06-03T07:01:16.000Z</time>
      </trkpt>
      <trkpt lat="44.53657" lon="4.23124">
        <ele>490</ele>
        <time>2018-06-03T07:01:17.000Z</time>
      </trkpt>
      <trkpt lat="44.53658" lon="4.23124">
        <ele>490</ele>
        <time>2018-06-03T07:01:18.000Z</time>
      </trkpt>
      <trkpt lat="44.53658" lon="4.23124">
        <ele>490</ele>
        <time>2018-06-03T07:01:19.000Z</time>
      </trkpt>
      <trkpt lat="44.53658" lon="4.23123">
        <ele>490</ele>
        <time>2018-06-03T07:01:20.000Z</time>
      </trkpt>
      <trkpt lat="44.53658" lon="4.23124">
        <ele>490</ele>
        <time>2018-06-03T07:01:21.000Z</time>
      </trkpt>
      <trkpt lat="44.53658" lon="4.23123">
        <ele>490</ele>
        <time>2018-06-03T07:01:22.000Z</time>
      </trkpt>
      <trkpt lat="44.53658" lon="4.23124">
        <ele>490</ele>
        <time>2018-06-03T07:01:23.000Z</time>
      </trkpt>
      <trkpt lat="44.53658" lon="4.23124">
        <ele>490</ele>
        <time>2018-06-03T07:01:24.000Z</time>
      </trkpt>
      <trkpt lat="44.53658" lon="4.23124">
        <ele>490</ele>
        <time>2018-06-03T07:01:25.000Z</time>
      </trkpt>
      <trkpt lat="44.53658" lon="4.23124">
        <ele>490</ele>
        <time>2018-06-03T07:01:26.000Z</time>
      </trkpt>
      <trkpt lat="44.53658" lon="4.23124">
        <ele>490</ele>
        <time>2018-06-03T07:01:27.000Z</time>
      </trkpt>
      <trkpt lat="44.53658" lon="4.23124">
        <ele>490</ele>
        <time>2018-06-03T07:01:28.000Z</time>
      </trkpt>
      <trkpt lat="44.53658" lon="4.23124">
        <ele>490</ele>
        <time>2018-06-03T07:01:29.000Z</time>
      </trkpt>
      <trkpt lat="44.53658" lon="4.23124">
        <ele>490</ele>
        <time>2018-06-03T07:01:30.000Z</time>
      </trkpt>
      <trkpt lat="44.53658" lon="4.23123">
        <ele>490</ele>
        <time>2018-06-03T07:01:31.000Z</time>
      </trkpt>
      <trkpt lat="44.53658" lon="4.23123">
        <ele>490</ele>
        <time>2018-06-03T07:01:32.000Z</time>
      </trkpt>
      <trkpt lat="44.53659" lon="4.23121">
        <ele>490</ele>
        <time>2018-06-03T07:01:33.000Z</time>
      </trkpt>
      <trkpt lat="44.53659" lon="4.2312">
        <ele>490</ele>
        <time>2018-06-03T07:01:34.000Z</time>
      </trkpt>
      <trkpt lat="44.5366" lon="4.23118">
        <ele>490</ele>
        <time>2018-06-03T07:01:35.000Z</time>
      </trkpt>
      <trkpt lat="44.53661" lon="4.23116">
        <ele>490</ele>
        <time>2018-06-03T07:01:36.000Z</time>
      </trkpt>
      <trkpt lat="44.53662" lon="4.23113">
        <ele>490</ele>
        <time>2018-06-03T07:01:37.000Z</time>
      </trkpt>
      <trkpt lat="44.53663" lon="4.23111">
        <ele>490</ele>
        <time>2018-06-03T07:01:38.000Z</time>
      </trkpt>
      <trkpt lat="44.53664" lon="4.23108">
        <ele>490</ele>
        <time>2018-06-03T07:01:39.000Z</time>
      </trkpt>
      <trkpt lat="44.53666" lon="4.23105">
        <ele>490</ele>
        <time>2018-06-03T07:01:40.000Z</time>
      </trkpt>
      <trkpt lat="44.53667" lon="4.23102">
        <ele>497</ele>
        <time>2018-06-03T07:01:41.000Z</time>
      </trkpt>
      <trkpt lat="44.53669" lon="4.231">
        <ele>496</ele>
        <time>2018-06-03T07:01:42.000Z</time>
      </trkpt>
      <trkpt lat="44.5367" lon="4.23097">
        <ele>496</ele>
        <time>2018-06-03T07:01:43.000Z</time>
      </trkpt>
      <trkpt lat="44.53672" lon="4.23095">
        <ele>495</ele>
        <time>2018-06-03T07:01:44.000Z</time>
      </trkpt>
      <trkpt lat="44.53673" lon="4.23093">
        <ele>495</ele>
        <time>2018-06-03T07:01:45.000Z</time>
      </trkpt>
      <trkpt lat="44.53675" lon="4.2309">
        <ele>495</ele>
        <time>2018-06-03T07:01:46.000Z</time>
      </trkpt>
      <trkpt lat="44.53676" lon="4.23088">
        <ele>495</ele>
        <time>2018-06-03T07:01:47.000Z</time>
      </trkpt>
      <trkpt lat="44.53678" lon="4.23086">
        <ele>495</ele>
        <time>2018-06-03T07:01:48.000Z</time>
      </trkpt>
      <trkpt lat="44.53679" lon="4.23084">
        <ele>495</ele>
        <time>2018-06-03T07:01:49.000Z</time>
      </trkpt>
      <trkpt lat="44.5368" lon="4.23081">
        <ele>494</ele>
        <time>2018-06-03T07:01:50.000Z</time>
      </trkpt>
      <trkpt lat="44.53682" lon="4.23079">
        <ele>495</ele>
        <time>2018-06-03T07:01:51.000Z</time>
      </trkpt>
      <trkpt lat="44.53683" lon="4.23077">
        <ele>495</ele>
        <time>2018-06-03T07:01:52.000Z</time>
      </trkpt>
      <trkpt lat="44.53684" lon="4.23074">
        <ele>495</ele>
        <time>2018-06-03T07:01:53.000Z</time>
      </trkpt>
      <trkpt lat="44.53686" lon="4.23072">
        <ele>496</ele>
        <time>2018-06-03T07:01:54.000Z</time>
      </trkpt>
      <trkpt lat="44.53688" lon="4.2307">
        <ele>496</ele>
        <time>2018-06-03T07:01:55.000Z</time>
      </trkpt>
      <trkpt lat="44.53689" lon="4.23068">
        <ele>496</ele>
        <time>2018-06-03T07:01:56.000Z</time>
      </trkpt>
      <trkpt lat="44.53691" lon="4.23066">
        <ele>497</ele>
        <time>2018-06-03T07:01:57.000Z</time>
      </trkpt>
      <trkpt lat="44.53693" lon="4.23064">
        <ele>497</ele>
        <time>2018-06-03T07:01:58.000Z</time>
      </trkpt>
      <trkpt lat="44.53694" lon="4.23061">
        <ele>497</ele>
        <time>2018-06-03T07:01:59.000Z</time>
      </trkpt>
      <trkpt lat="44.53695" lon="4.23059">
        <ele>497</ele>
        <time>2018-06-03T07:02:00.000Z</time>
      </trkpt>
      <trkpt lat="44.53697" lon="4.23057">
        <ele>497</ele>
        <time>2018-06-03T07:02:01.000Z</time>
      </trkpt>
      <trkpt lat="44.53698" lon="4.23055">
        <ele>498</ele>
        <time>2018-06-03T07:02:02.000Z</time>
      </trkpt>
      <trkpt lat="44.537" lon="4.23053">
        <ele>498</ele>
        <time>2018-06-03T07:02:03.000Z</time>
      </trkpt>
      <trkpt lat="44.53701" lon="4.23051">
        <ele>498</ele>
        <time>2018-06-03T07:02:04.000Z</time>
      </trkpt>
      <trkpt lat="44.53703" lon="4.23049">
        <ele>498</ele>
        <time>2018-06-03T07:02:05.000Z</time>
      </trkpt>
      <trkpt lat="44.53704" lon="4.23046">
        <ele>498</ele>
        <time>2018-06-03T07:02:06.000Z</time>
      </trkpt>
      <trkpt lat="44.53705" lon="4.23044">
        <ele>498</ele>
        <time>2018-06-03T07:02:07.000Z</time>
      </trkpt>
      <trkpt lat="44.53706" lon="4.23042">
        <ele>498</ele>
        <time>2018-06-03T07:02:08.000Z</time>
      </trkpt>
      <trkpt lat="44.53707" lon="4.2304">
        <ele>499</ele>
        <time>2018-06-03T07:02:09.000Z</time>
      </trkpt>
      <trkpt lat="44.53709" lon="4.23039">
        <ele>499</ele>
        <time>2018-06-03T07:02:10.000Z</time>
      </trkpt>
      <trkpt lat="44.5371" lon="4.23037">
        <ele>499</ele>
        <time>2018-06-03T07:02:11.000Z</time>
      </trkpt>
      <trkpt lat="44.53711" lon="4.23035">
        <ele>499</ele>
        <time>2018-06-03T07:02:12.000Z</time>
      </trkpt>
      <trkpt lat="44.53712" lon="4.23033">
        <ele>499</ele>
        <time>2018-06-03T07:02:13.000Z</time>
      </trkpt>
      <trkpt lat="44.53713" lon="4.23031">
        <ele>499</ele>
        <time>2018-06-03T07:02:14.000Z</time>
      </trkpt>
      <trkpt lat="44.53714" lon="4.23029">
        <ele>499</ele>
        <time>2018-06-03T07:02:15.000Z</time>
      </trkpt>
      <trkpt lat="44.53715" lon="4.23027">
        <ele>500</ele>
        <time>2018-06-03T07:02:16.000Z</time>
      </trkpt>
      <trkpt lat="44.53716" lon="4.23024">
        <ele>500</ele>
        <time>2018-06-03T07:02:17.000Z</time>
      </trkpt>
      <trkpt lat="44.53717" lon="4.23022">
        <ele>500</ele>
        <time>2018-06-03T07:02:18.000Z</time>
      </trkpt>
      <trkpt lat="44.53718" lon="4.2302">
        <ele>500</ele>
        <time>2018-06-03T07:02:19.000Z</time>
      </trkpt>
      <trkpt lat="44.53719" lon="4.23018">
        <ele>500</ele>
        <time>2018-06-03T07:02:20.000Z</time>
      </trkpt>
      <trkpt lat="44.53719" lon="4.23017">
        <ele>500</ele>
        <time>2018-06-03T07:02:21.000Z</time>
      </trkpt>
      <trkpt lat="44.5372" lon="4.23017">
        <ele>501</ele>
        <time>2018-06-03T07:02:22.000Z</time>
      </trkpt>
      <trkpt lat="44.5372" lon="4.23017">
        <ele>501</ele>
        <time>2018-06-03T07:02:23.000Z</time>
      </trkpt>
      <trkpt lat="44.5372" lon="4.23017">
        <ele>501</ele>
        <time>2018-06-03T07:02:24.000Z</time>
      </trkpt>
      <trkpt lat="44.5372" lon="4.23017">
        <ele>501</ele>
        <time>2018-06-03T07:02:25.000Z</time>
      </trkpt>
      <trkpt lat="44.5372" lon="4.23016">
        <ele>501</ele>
        <time>2018-06-03T07:02:26.000Z</time>
      </trkpt>
      <trkpt lat="44.53721" lon="4.23016">
        <ele>501</ele>
        <time>2018-06-03T07:02:27.000Z</time>
      </trkpt>
      <trkpt lat="44.53721" lon="4.23016">
        <ele>501</ele>
        <time>2018-06-03T07:02:28.000Z</time>
      </trkpt>
      <trkpt lat="44.53721" lon="4.23016">
        <ele>501</ele>
        <time>2018-06-03T07:02:29.000Z</time>
      </trkpt>
      <trkpt lat="44.53721" lon="4.23016">
        <ele>501</ele>
        <time>2018-06-03T07:02:30.000Z</time>
      </trkpt>
      <trkpt lat="44.53722" lon="4.23015">
        <ele>501</ele>
        <time>2018-06-03T07:02:31.000Z</time>
      </trkpt>
      <trkpt lat="44.53722" lon="4.23015">
        <ele>501</ele>
        <time>2018-06-03T07:02:32.000Z</time>
      </trkpt>
      <trkpt lat="44.53722" lon="4.23014">
        <ele>501</ele>
        <time>2018-06-03T07:02:33.000Z</time>
      </trkpt>
      <trkpt lat="44.53723" lon="4.23013">
        <ele>501</ele>
        <time>2018-06-03T07:02:34.000Z</time>
      </trkpt>
      <trkpt lat="44.53723" lon="4.23013">
        <ele>501</ele>
        <time>2018-06-03T07:02:35.000Z</time>
      </trkpt>
      <trkpt lat="44.53724" lon="4.23012">
        <ele>501</ele>
        <time>2018-06-03T07:02:36.000Z</time>
      </trkpt>
      <trkpt lat="44.53724" lon="4.2301">
        <ele>502</ele>
        <time>2018-06-03T07:02:37.000Z</time>
      </trkpt>
      <trkpt lat="44.53724" lon="4.23008">
        <ele>502</ele>
        <time>2018-06-03T07:02:38.000Z</time>
      </trkpt>
      <trkpt lat="44.53724" lon="4.23007">
        <ele>502</ele>
        <time>2018-06-03T07:02:39.000Z</time>
      </trkpt>
      <trkpt lat="44.53724" lon="4.23006">
        <ele>502</ele>
        <time>2018-06-03T07:02:40.000Z</time>
      </trkpt>
      <trkpt lat="44.53725" lon="4.23005">
        <ele>502</ele>
        <time>2018-06-03T07:02:41.000Z</time>
      </trkpt>
      <trkpt lat="44.53725" lon="4.23003">
        <ele>502</ele>
        <time>2018-06-03T07:02:42.000Z</time>
      </trkpt>
      <trkpt lat="44.53726" lon="4.23002">
        <ele>502</ele>
        <time>2018-06-03T07:02:43.000Z</time>
      </trkpt>
      <trkpt lat="44.53726" lon="4.23">
        <ele>503</ele>
        <time>2018-06-03T07:02:44.000Z</time>
      </trkpt>
      <trkpt lat="44.53726" lon="4.22999">
        <ele>503</ele>
        <time>2018-06-03T07:02:45.000Z</time>
      </trkpt>
      <trkpt lat="44.53726" lon="4.22998">
        <ele>503</ele>
        <time>2018-06-03T07:02:46.000Z</time>
      </trkpt>
      <trkpt lat="44.53726" lon="4.22997">
        <ele>503</ele>
        <time>2018-06-03T07:02:47.000Z</time>
      </trkpt>
      <trkpt lat="44.53726" lon="4.22995">
        <ele>503</ele>
        <time>2018-06-03T07:02:48.000Z</time>
      </trkpt>
      <trkpt lat="44.53726" lon="4.22994">
        <ele>503</ele>
        <time>2018-06-03T07:02:49.000Z</time>
      </trkpt>
      <trkpt lat="44.53726" lon="4.22994">
        <ele>503</ele>
        <time>2018-06-03T07:02:50.000Z</time>
      </trkpt>
      <trkpt lat="44.53726" lon="4.22994">
        <ele>503</ele>
        <time>2018-06-03T07:02:51.000Z</time>
      </trkpt>
      <trkpt lat="44.53726" lon="4.22994">
        <ele>503</ele>
        <time>2018-06-03T07:02:52.000Z</time>
      </trkpt>
      <trkpt lat="44.53727" lon="4.22992">
        <ele>503</ele>
        <time>2018-06-03T07:02:53.000Z</time>
      </trkpt>
      <trkpt lat="44.53727" lon="4.22991">
        <ele>503</ele>
        <time>2018-06-03T07:02:54.000Z</time>
      </trkpt>
      <trkpt lat="44.53727" lon="4.22989">
        <ele>503</ele>
        <time>2018-06-03T07:02:55.000Z</time>
      </trkpt>
      <trkpt lat="44.53726" lon="4.22986">
        <ele>503</ele>
        <time>2018-06-03T07:02:56.000Z</time>
      </trkpt>
      <trkpt lat="44.53726" lon="4.22983">
        <ele>503</ele>
        <time>2018-06-03T07:02:57.000Z</time>
      </trkpt>
      <trkpt lat="44.53724" lon="4.2298">
        <ele>503</ele>
        <time>2018-06-03T07:02:58.000Z</time>
      </trkpt>
      <trkpt lat="44.53723" lon="4.22977">
        <ele>503</ele>
        <time>2018-06-03T07:02:59.000Z</time>
      </trkpt>
      <trkpt lat="44.53722" lon="4.22975">
        <ele>503</ele>
        <time>2018-06-03T07:03:00.000Z</time>
      </trkpt>
      <trkpt lat="44.53722" lon="4.22973">
        <ele>502</ele>
        <time>2018-06-03T07:03:01.000Z</time>
      </trkpt>
      <trkpt lat="44.53721" lon="4.22971">
        <ele>502</ele>
        <time>2018-06-03T07:03:02.000Z</time>
      </trkpt>
      <trkpt lat="44.5372" lon="4.2297">
        <ele>502</ele>
        <time>2018-06-03T07:03:03.000Z</time>
      </trkpt>
      <trkpt lat="44.5372" lon="4.22968">
        <ele>502</ele>
        <time>2018-06-03T07:03:04.000Z</time>
      </trkpt>
      <trkpt lat="44.53719" lon="4.22966">
        <ele>502</ele>
        <time>2018-06-03T07:03:05.000Z</time>
      </trkpt>
      <trkpt lat="44.53719" lon="4.22964">
        <ele>502</ele>
        <time>2018-06-03T07:03:06.000Z</time>
      </trkpt>
      <trkpt lat="44.53718" lon="4.22962">
        <ele>502</ele>
        <time>2018-06-03T07:03:07.000Z</time>
      </trkpt>
      <trkpt lat="44.53717" lon="4.2296">
        <ele>502</ele>
        <time>2018-06-03T07:03:08.000Z</time>
      </trkpt>
      <trkpt lat="44.53716" lon="4.22957">
        <ele>502</ele>
        <time>2018-06-03T07:03:09.000Z</time>
      </trkpt>
      <trkpt lat="44.53715" lon="4.22955">
        <ele>502</ele>
        <time>2018-06-03T07:03:10.000Z</time>
      </trkpt>
      <trkpt lat="44.53714" lon="4.22953">
        <ele>502</ele>
        <time>2018-06-03T07:03:11.000Z</time>
      </trkpt>
      <trkpt lat="44.53713" lon="4.22952">
        <ele>502</ele>
        <time>2018-06-03T07:03:12.000Z</time>
      </trkpt>
      <trkpt lat="44.53713" lon="4.22952">
        <ele>502</ele>
        <time>2018-06-03T07:03:13.000Z</time>
      </trkpt>
      <trkpt lat="44.53713" lon="4.22952">
        <ele>502</ele>
        <time>2018-06-03T07:03:14.000Z</time>
      </trkpt>
      <trkpt lat="44.53713" lon="4.22951">
        <ele>502</ele>
        <time>2018-06-03T07:03:15.000Z</time>
      </trkpt>
      <trkpt lat="44.53712" lon="4.2295">
        <ele>502</ele>
        <time>2018-06-03T07:03:16.000Z</time>
      </trkpt>
      <trkpt lat="44.53712" lon="4.22949">
        <ele>502</ele>
        <time>2018-06-03T07:03:17.000Z</time>
      </trkpt>
      <trkpt lat="44.53711" lon="4.22948">
        <ele>502</ele>
        <time>2018-06-03T07:03:18.000Z</time>
      </trkpt>
      <trkpt lat="44.53711" lon="4.22947">
        <ele>502</ele>
        <time>2018-06-03T07:03:19.000Z</time>
      </trkpt>
      <trkpt lat="44.5371" lon="4.22946">
        <ele>502</ele>
        <time>2018-06-03T07:03:20.000Z</time>
      </trkpt>
      <trkpt lat="44.5371" lon="4.22944">
        <ele>501</ele>
        <time>2018-06-03T07:03:21.000Z</time>
      </trkpt>
      <trkpt lat="44.53709" lon="4.22943">
        <ele>501</ele>
        <time>2018-06-03T07:03:22.000Z</time>
      </trkpt>
      <trkpt lat="44.53709" lon="4.22942">
        <ele>502</ele>
        <time>2018-06-03T07:03:23.000Z</time>
      </trkpt>
      <trkpt lat="44.5371" lon="4.22941">
        <ele>502</ele>
        <time>2018-06-03T07:03:24.000Z</time>
      </trkpt>
      <trkpt lat="44.5371" lon="4.22939">
        <ele>502</ele>
        <time>2018-06-03T07:03:25.000Z</time>
      </trkpt>
      <trkpt lat="44.5371" lon="4.22938">
        <ele>502</ele>
        <time>2018-06-03T07:03:26.000Z</time>
      </trkpt>
      <trkpt lat="44.53711" lon="4.22937">
        <ele>502</ele>
        <time>2018-06-03T07:03:27.000Z</time>
      </trkpt>
      <trkpt lat="44.53712" lon="4.22936">
        <ele>502</ele>
        <time>2018-06-03T07:03:28.000Z</time>
      </trkpt>
      <trkpt lat="44.53712" lon="4.22935">
        <ele>502</ele>
        <time>2018-06-03T07:03:29.000Z</time>
      </trkpt>
      <trkpt lat="44.53712" lon="4.22935">
        <ele>502</ele>
        <time>2018-06-03T07:03:30.000Z</time>
      </trkpt>
      <trkpt lat="44.53712" lon="4.22935">
        <ele>502</ele>
        <time>2018-06-03T07:03:31.000Z</time>
      </trkpt>
      <trkpt lat="44.53712" lon="4.22936">
        <ele>502</ele>
        <time>2018-06-03T07:03:32.000Z</time>
      </trkpt>
      <trkpt lat="44.53712" lon="4.22936">
        <ele>502</ele>
        <time>2018-06-03T07:03:33.000Z</time>
      </trkpt>
      <trkpt lat="44.53713" lon="4.22935">
        <ele>502</ele>
        <time>2018-06-03T07:03:34.000Z</time>
      </trkpt>
      <trkpt lat="44.53714" lon="4.22934">
        <ele>502</ele>
        <time>2018-06-03T07:03:35.000Z</time>
      </trkpt>
      <trkpt lat="44.53714" lon="4.22933">
        <ele>503</ele>
        <time>2018-06-03T07:03:36.000Z</time>
      </trkpt>
      <trkpt lat="44.53715" lon="4.22932">
        <ele>503</ele>
        <time>2018-06-03T07:03:37.000Z</time>
      </trkpt>
      <trkpt lat="44.53715" lon="4.22932">
        <ele>503</ele>
        <time>2018-06-03T07:03:38.000Z</time>
      </trkpt>
      <trkpt lat="44.53715" lon="4.22932">
        <ele>503</ele>
        <time>2018-06-03T07:03:39.000Z</time>
      </trkpt>
      <trkpt lat="44.53715" lon="4.22932">
        <ele>503</ele>
        <time>2018-06-03T07:03:40.000Z</time>
      </trkpt>
      <trkpt lat="44.53714" lon="4.22932">
        <ele>503</ele>
        <time>2018-06-03T07:03:41.000Z</time>
      </trkpt>
      <trkpt lat="44.53714" lon="4.22932">
        <ele>503</ele>
        <time>2018-06-03T07:03:42.000Z</time>
      </trkpt>
      <trkpt lat="44.53714" lon="4.22931">
        <ele>503</ele>
        <time>2018-06-03T07:03:43.000Z</time>
      </trkpt>
      <trkpt lat="44.53714" lon="4.22931">
        <ele>503</ele>
        <time>2018-06-03T07:03:44.000Z</time>
      </trkpt>
      <trkpt lat="44.53715" lon="4.22931">
        <ele>503</ele>
        <time>2018-06-03T07:03:45.000Z</time>
      </trkpt>
      <trkpt lat="44.53716" lon="4.2293">
        <ele>503</ele>
        <time>2018-06-03T07:03:46.000Z</time>
      </trkpt>
      <trkpt lat="44.53717" lon="4.22929">
        <ele>503</ele>
        <time>2018-06-03T07:03:47.000Z</time>
      </trkpt>
      <trkpt lat="44.53718" lon="4.22928">
        <ele>503</ele>
        <time>2018-06-03T07:03:48.000Z</time>
      </trkpt>
      <trkpt lat="44.53718" lon="4.22927">
        <ele>504</ele>
        <time>2018-06-03T07:03:49.000Z</time>
      </trkpt>
      <trkpt lat="44.53719" lon="4.22926">
        <ele>504</ele>
        <time>2018-06-03T07:03:50.000Z</time>
      </trkpt>
      <trkpt lat="44.5372" lon="4.22925">
        <ele>504</ele>
        <time>2018-06-03T07:03:51.000Z</time>
      </trkpt>
      <trkpt lat="44.53721" lon="4.22924">
        <ele>504</ele>
        <time>2018-06-03T07:03:52.000Z</time>
      </trkpt>
      <trkpt lat="44.53721" lon="4.22922">
        <ele>504</ele>
        <time>2018-06-03T07:03:53.000Z</time>
      </trkpt>
      <trkpt lat="44.53721" lon="4.2292">
        <ele>504</ele>
        <time>2018-06-03T07:03:54.000Z</time>
      </trkpt>
      <trkpt lat="44.53722" lon="4.22919">
        <ele>505</ele>
        <time>2018-06-03T07:03:55.000Z</time>
      </trkpt>
      <trkpt lat="44.53722" lon="4.22917">
        <ele>505</ele>
        <time>2018-06-03T07:03:56.000Z</time>
      </trkpt>
      <trkpt lat="44.53722" lon="4.22916">
        <ele>507</ele>
        <time>2018-06-03T07:03:57.000Z</time>
      </trkpt>
      <trkpt lat="44.53722" lon="4.22915">
        <ele>507</ele>
        <time>2018-06-03T07:03:58.000Z</time>
      </trkpt>
      <trkpt lat="44.53722" lon="4.22915">
        <ele>507</ele>
        <time>2018-06-03T07:03:59.000Z</time>
      </trkpt>
      <trkpt lat="44.53722" lon="4.22915">
        <ele>507</ele>
        <time>2018-06-03T07:04:00.000Z</time>
      </trkpt>
      <trkpt lat="44.53722" lon="4.22914">
        <ele>508</ele>
        <time>2018-06-03T07:04:01.000Z</time>
      </trkpt>
      <trkpt lat="44.53722" lon="4.22912">
        <ele>508</ele>
        <time>2018-06-03T07:04:02.000Z</time>
      </trkpt>
      <trkpt lat="44.53723" lon="4.2291">
        <ele>508</ele>
        <time>2018-06-03T07:04:03.000Z</time>
      </trkpt>
      <trkpt lat="44.53724" lon="4.22908">
        <ele>508</ele>
        <time>2018-06-03T07:04:04.000Z</time>
      </trkpt>
      <trkpt lat="44.53725" lon="4.22905">
        <ele>508</ele>
        <time>2018-06-03T07:04:05.000Z</time>
      </trkpt>
      <trkpt lat="44.53726" lon="4.22903">
        <ele>508</ele>
        <time>2018-06-03T07:04:06.000Z</time>
      </trkpt>
      <trkpt lat="44.53727" lon="4.229">
        <ele>508</ele>
        <time>2018-06-03T07:04:07.000Z</time>
      </trkpt>
      <trkpt lat="44.53728" lon="4.22897">
        <ele>508</ele>
        <time>2018-06-03T07:04:08.000Z</time>
      </trkpt>
      <trkpt lat="44.53729" lon="4.22894">
        <ele>508</ele>
        <time>2018-06-03T07:04:09.000Z</time>
      </trkpt>
      <trkpt lat="44.5373" lon="4.22891">
        <ele>508</ele>
        <time>2018-06-03T07:04:10.000Z</time>
      </trkpt>
      <trkpt lat="44.53731" lon="4.22888">
        <ele>508</ele>
        <time>2018-06-03T07:04:11.000Z</time>
      </trkpt>
      <trkpt lat="44.53732" lon="4.22885">
        <ele>508</ele>
        <time>2018-06-03T07:04:12.000Z</time>
      </trkpt>
      <trkpt lat="44.53733" lon="4.22882">
        <ele>509</ele>
        <time>2018-06-03T07:04:13.000Z</time>
      </trkpt>
      <trkpt lat="44.53734" lon="4.22879">
        <ele>509</ele>
        <time>2018-06-03T07:04:14.000Z</time>
      </trkpt>
      <trkpt lat="44.53735" lon="4.22876">
        <ele>509</ele>
        <time>2018-06-03T07:04:15.000Z</time>
      </trkpt>
      <trkpt lat="44.53736" lon="4.22873">
        <ele>509</ele>
        <time>2018-06-03T07:04:16.000Z</time>
      </trkpt>
      <trkpt lat="44.53737" lon="4.2287">
        <ele>509</ele>
        <time>2018-06-03T07:04:17.000Z</time>
      </trkpt>
      <trkpt lat="44.53738" lon="4.22867">
        <ele>510</ele>
        <time>2018-06-03T07:04:18.000Z</time>
      </trkpt>
      <trkpt lat="44.53739" lon="4.22864">
        <ele>510</ele>
        <time>2018-06-03T07:04:19.000Z</time>
      </trkpt>
      <trkpt lat="44.5374" lon="4.22861">
        <ele>510</ele>
        <time>2018-06-03T07:04:20.000Z</time>
      </trkpt>
      <trkpt lat="44.53741" lon="4.22858">
        <ele>511</ele>
        <time>2018-06-03T07:04:21.000Z</time>
      </trkpt>
      <trkpt lat="44.53742" lon="4.22855">
        <ele>511</ele>
        <time>2018-06-03T07:04:22.000Z</time>
      </trkpt>
      <trkpt lat="44.53743" lon="4.22853">
        <ele>512</ele>
        <time>2018-06-03T07:04:23.000Z</time>
      </trkpt>
      <trkpt lat="44.53744" lon="4.2285">
        <ele>512</ele>
        <time>2018-06-03T07:04:24.000Z</time>
      </trkpt>
      <trkpt lat="44.53746" lon="4.22847">
        <ele>513</ele>
        <time>2018-06-03T07:04:25.000Z</time>
      </trkpt>
      <trkpt lat="44.53747" lon="4.22845">
        <ele>514</ele>
        <time>2018-06-03T07:04:26.000Z</time>
      </trkpt>
      <trkpt lat="44.53749" lon="4.22843">
        <ele>514</ele>
        <time>2018-06-03T07:04:27.000Z</time>
      </trkpt>
      <trkpt lat="44.53751" lon="4.22841">
        <ele>519</ele>
        <time>2018-06-03T07:04:28.000Z</time>
      </trkpt>
      <trkpt lat="44.53753" lon="4.22839">
        <ele>519</ele>
        <time>2018-06-03T07:04:29.000Z</time>
      </trkpt>
      <trkpt lat="44.53754" lon="4.22836">
        <ele>519</ele>
        <time>2018-06-03T07:04:30.000Z</time>
      </trkpt>
      <trkpt lat="44.53756" lon="4.22835">
        <ele>519</ele>
        <time>2018-06-03T07:04:31.000Z</time>
      </trkpt>
      <trkpt lat="44.53758" lon="4.22833">
        <ele>520</ele>
        <time>2018-06-03T07:04:32.000Z</time>
      </trkpt>
      <trkpt lat="44.5376" lon="4.22831">
        <ele>520</ele>
        <time>2018-06-03T07:04:33.000Z</time>
      </trkpt>
      <trkpt lat="44.53762" lon="4.22829">
        <ele>521</ele>
        <time>2018-06-03T07:04:34.000Z</time>
      </trkpt>
      <trkpt lat="44.53763" lon="4.22827">
        <ele>521</ele>
        <time>2018-06-03T07:04:35.000Z</time>
      </trkpt>
      <trkpt lat="44.53765" lon="4.22825">
        <ele>522</ele>
        <time>2018-06-03T07:04:36.000Z</time>
      </trkpt>
      <trkpt lat="44.53767" lon="4.22824">
        <ele>522</ele>
        <time>2018-06-03T07:04:37.000Z</time>
      </trkpt>
      <trkpt lat="44.53769" lon="4.22822">
        <ele>522</ele>
        <time>2018-06-03T07:04:38.000Z</time>
      </trkpt>
      <trkpt lat="44.53771" lon="4.22821">
        <ele>523</ele>
        <time>2018-06-03T07:04:39.000Z</time>
      </trkpt>
      <trkpt lat="44.53773" lon="4.2282">
        <ele>523</ele>
        <time>2018-06-03T07:04:40.000Z</time>
      </trkpt>
      <trkpt lat="44.53775" lon="4.22819">
        <ele>523</ele>
        <time>2018-06-03T07:04:41.000Z</time>
      </trkpt>
      <trkpt lat="44.53778" lon="4.22818">
        <ele>523</ele>
        <time>2018-06-03T07:04:42.000Z</time>
      </trkpt>
      <trkpt lat="44.5378" lon="4.22817">
        <ele>524</ele>
        <time>2018-06-03T07:04:43.000Z</time>
      </trkpt>
      <trkpt lat="44.53782" lon="4.22815">
        <ele>524</ele>
        <time>2018-06-03T07:04:44.000Z</time>
      </trkpt>
      <trkpt lat="44.53784" lon="4.22814">
        <ele>524</ele>
        <time>2018-06-03T07:04:45.000Z</time>
      </trkpt>
      <trkpt lat="44.53786" lon="4.22812">
        <ele>524</ele>
        <time>2018-06-03T07:04:46.000Z</time>
      </trkpt>
      <trkpt lat="44.53788" lon="4.22811">
        <ele>525</ele>
        <time>2018-06-03T07:04:47.000Z</time>
      </trkpt>
      <trkpt lat="44.5379" lon="4.22809">
        <ele>525</ele>
        <time>2018-06-03T07:04:48.000Z</time>
      </trkpt>
      <trkpt lat="44.53792" lon="4.22808">
        <ele>525</ele>
        <time>2018-06-03T07:04:49.000Z</time>
      </trkpt>
      <trkpt lat="44.53794" lon="4.22806">
        <ele>525</ele>
        <time>2018-06-03T07:04:50.000Z</time>
      </trkpt>
      <trkpt lat="44.53796" lon="4.22805">
        <ele>525</ele>
        <time>2018-06-03T07:04:51.000Z</time>
      </trkpt>
      <trkpt lat="44.53798" lon="4.22803">
        <ele>525</ele>
        <time>2018-06-03T07:04:52.000Z</time>
      </trkpt>
      <trkpt lat="44.538" lon="4.22802">
        <ele>525</ele>
        <time>2018-06-03T07:04:53.000Z</time>
      </trkpt>
      <trkpt lat="44.53802" lon="4.228">
        <ele>526</ele>
        <time>2018-06-03T07:04:54.000Z</time>
      </trkpt>
      <trkpt lat="44.53803" lon="4.22799">
        <ele>526</ele>
        <time>2018-06-03T07:04:55.000Z</time>
      </trkpt>
      <trkpt lat="44.53805" lon="4.22797">
        <ele>526</ele>
        <time>2018-06-03T07:04:56.000Z</time>
      </trkpt>
      <trkpt lat="44.53807" lon="4.22796">
        <ele>526</ele>
        <time>2018-06-03T07:04:57.000Z</time>
      </trkpt>
      <trkpt lat="44.53809" lon="4.22795">
        <ele>526</ele>
        <time>2018-06-03T07:04:58.000Z</time>
      </trkpt>
      <trkpt lat="44.5381" lon="4.22794">
        <ele>526</ele>
        <time>2018-06-03T07:04:59.000Z</time>
      </trkpt>
      <trkpt lat="44.53812" lon="4.22792">
        <ele>526</ele>
        <time>2018-06-03T07:05:00.000Z</time>
      </trkpt>
      <trkpt lat="44.53814" lon="4.22791">
        <ele>526</ele>
        <time>2018-06-03T07:05:01.000Z</time>
      </trkpt>
      <trkpt lat="44.53816" lon="4.22789">
        <ele>527</ele>
        <time>2018-06-03T07:05:02.000Z</time>
      </trkpt>
      <trkpt lat="44.53818" lon="4.22788">
        <ele>527</ele>
        <time>2018-06-03T07:05:03.000Z</time>
      </trkpt>
      <trkpt lat="44.5382" lon="4.22786">
        <ele>527</ele>
        <time>2018-06-03T07:05:04.000Z</time>
      </trkpt>
      <trkpt lat="44.53822" lon="4.22785">
        <ele>527</ele>
        <time>2018-06-03T07:05:05.000Z</time>
      </trkpt>
      <trkpt lat="44.53823" lon="4.22783">
        <ele>527</ele>
        <time>2018-06-03T07:05:06.000Z</time>
      </trkpt>
      <trkpt lat="44.53825" lon="4.22782">
        <ele>527</ele>
        <time>2018-06-03T07:05:07.000Z</time>
      </trkpt>
      <trkpt lat="44.53826" lon="4.2278">
        <ele>527</ele>
        <time>2018-06-03T07:05:08.000Z</time>
      </trkpt>
      <trkpt lat="44.53827" lon="4.22777">
        <ele>528</ele>
        <time>2018-06-03T07:05:09.000Z</time>
      </trkpt>
      <trkpt lat="44.53826" lon="4.22774">
        <ele>528</ele>
        <time>2018-06-03T07:05:10.000Z</time>
      </trkpt>
      <trkpt lat="44.53826" lon="4.22771">
        <ele>528</ele>
        <time>2018-06-03T07:05:11.000Z</time>
      </trkpt>
      <trkpt lat="44.53825" lon="4.22768">
        <ele>528</ele>
        <time>2018-06-03T07:05:12.000Z</time>
      </trkpt>
      <trkpt lat="44.53824" lon="4.22765">
        <ele>529</ele>
        <time>2018-06-03T07:05:13.000Z</time>
      </trkpt>
      <trkpt lat="44.53823" lon="4.22762">
        <ele>529</ele>
        <time>2018-06-03T07:05:14.000Z</time>
      </trkpt>
      <trkpt lat="44.53821" lon="4.22759">
        <ele>529</ele>
        <time>2018-06-03T07:05:15.000Z</time>
      </trkpt>
      <trkpt lat="44.5382" lon="4.22757">
        <ele>529</ele>
        <time>2018-06-03T07:05:16.000Z</time>
      </trkpt>
      <trkpt lat="44.53819" lon="4.22754">
        <ele>529</ele>
        <time>2018-06-03T07:05:17.000Z</time>
      </trkpt>
      <trkpt lat="44.53818" lon="4.22751">
        <ele>529</ele>
        <time>2018-06-03T07:05:18.000Z</time>
      </trkpt>
      <trkpt lat="44.53817" lon="4.22748">
        <ele>531</ele>
        <time>2018-06-03T07:05:19.000Z</time>
      </trkpt>
      <trkpt lat="44.53816" lon="4.22745">
        <ele>530</ele>
        <time>2018-06-03T07:05:20.000Z</time>
      </trkpt>
      <trkpt lat="44.53815" lon="4.22742">
        <ele>530</ele>
        <time>2018-06-03T07:05:21.000Z</time>
      </trkpt>
      <trkpt lat="44.53816" lon="4.22739">
        <ele>530</ele>
        <time>2018-06-03T07:05:22.000Z</time>
      </trkpt>
      <trkpt lat="44.53817" lon="4.22736">
        <ele>530</ele>
        <time>2018-06-03T07:05:23.000Z</time>
      </trkpt>
      <trkpt lat="44.53818" lon="4.22735">
        <ele>530</ele>
        <time>2018-06-03T07:05:24.000Z</time>
      </trkpt>
      <trkpt lat="44.5382" lon="4.22734">
        <ele>531</ele>
        <time>2018-06-03T07:05:25.000Z</time>
      </trkpt>
      <trkpt lat="44.53822" lon="4.22734">
        <ele>531</ele>
        <time>2018-06-03T07:05:26.000Z</time>
      </trkpt>
      <trkpt lat="44.53824" lon="4.22733">
        <ele>531</ele>
        <time>2018-06-03T07:05:27.000Z</time>
      </trkpt>
      <trkpt lat="44.53827" lon="4.22732">
        <ele>531</ele>
        <time>2018-06-03T07:05:28.000Z</time>
      </trkpt>
      <trkpt lat="44.53829" lon="4.22732">
        <ele>531</ele>
        <time>2018-06-03T07:05:29.000Z</time>
      </trkpt>
      <trkpt lat="44.53831" lon="4.22731">
        <ele>531</ele>
        <time>2018-06-03T07:05:30.000Z</time>
      </trkpt>
      <trkpt lat="44.53833" lon="4.2273">
        <ele>531</ele>
        <time>2018-06-03T07:05:31.000Z</time>
      </trkpt>
      <trkpt lat="44.53835" lon="4.22729">
        <ele>538</ele>
        <time>2018-06-03T07:05:32.000Z</time>
      </trkpt>
      <trkpt lat="44.53837" lon="4.22728">
        <ele>538</ele>
        <time>2018-06-03T07:05:33.000Z</time>
      </trkpt>
      <trkpt lat="44.53839" lon="4.22728">
        <ele>539</ele>
        <time>2018-06-03T07:05:34.000Z</time>
      </trkpt>
      <trkpt lat="44.53841" lon="4.22727">
        <ele>539</ele>
        <time>2018-06-03T07:05:35.000Z</time>
      </trkpt>
      <trkpt lat="44.53843" lon="4.22726">
        <ele>539</ele>
        <time>2018-06-03T07:05:36.000Z</time>
      </trkpt>
      <trkpt lat="44.53845" lon="4.22725">
        <ele>540</ele>
        <time>2018-06-03T07:05:37.000Z</time>
      </trkpt>
      <trkpt lat="44.53847" lon="4.22724">
        <ele>540</ele>
        <time>2018-06-03T07:05:38.000Z</time>
      </trkpt>
      <trkpt lat="44.53849" lon="4.22723">
        <ele>540</ele>
        <time>2018-06-03T07:05:39.000Z</time>
      </trkpt>
      <trkpt lat="44.5385" lon="4.22722">
        <ele>540</ele>
        <time>2018-06-03T07:05:40.000Z</time>
      </trkpt>
      <trkpt lat="44.53852" lon="4.22721">
        <ele>541</ele>
        <time>2018-06-03T07:05:41.000Z</time>
      </trkpt>
      <trkpt lat="44.53854" lon="4.22721">
        <ele>541</ele>
        <time>2018-06-03T07:05:42.000Z</time>
      </trkpt>
      <trkpt lat="44.53855" lon="4.2272">
        <ele>541</ele>
        <time>2018-06-03T07:05:43.000Z</time>
      </trkpt>
      <trkpt lat="44.53857" lon="4.2272">
        <ele>541</ele>
        <time>2018-06-03T07:05:44.000Z</time>
      </trkpt>
      <trkpt lat="44.53859" lon="4.22719">
        <ele>542</ele>
        <time>2018-06-03T07:05:45.000Z</time>
      </trkpt>
      <trkpt lat="44.53861" lon="4.22718">
        <ele>542</ele>
        <time>2018-06-03T07:05:46.000Z</time>
      </trkpt>
      <trkpt lat="44.53862" lon="4.22717">
        <ele>542</ele>
        <time>2018-06-03T07:05:47.000Z</time>
      </trkpt>
      <trkpt lat="44.53864" lon="4.22716">
        <ele>542</ele>
        <time>2018-06-03T07:05:48.000Z</time>
      </trkpt>
      <trkpt lat="44.53866" lon="4.22715">
        <ele>542</ele>
        <time>2018-06-03T07:05:49.000Z</time>
      </trkpt>
      <trkpt lat="44.53868" lon="4.22714">
        <ele>543</ele>
        <time>2018-06-03T07:05:50.000Z</time>
      </trkpt>
      <trkpt lat="44.53869" lon="4.22711">
        <ele>543</ele>
        <time>2018-06-03T07:05:51.000Z</time>
      </trkpt>
      <trkpt lat="44.5387" lon="4.22708">
        <ele>543</ele>
        <time>2018-06-03T07:05:52.000Z</time>
      </trkpt>
      <trkpt lat="44.5387" lon="4.22705">
        <ele>543</ele>
        <time>2018-06-03T07:05:53.000Z</time>
      </trkpt>
      <trkpt lat="44.53869" lon="4.22702">
        <ele>543</ele>
        <time>2018-06-03T07:05:54.000Z</time>
      </trkpt>
      <trkpt lat="44.53869" lon="4.22699">
        <ele>543</ele>
        <time>2018-06-03T07:05:55.000Z</time>
      </trkpt>
      <trkpt lat="44.53869" lon="4.22696">
        <ele>543</ele>
        <time>2018-06-03T07:05:56.000Z</time>
      </trkpt>
      <trkpt lat="44.53869" lon="4.22693">
        <ele>543</ele>
        <time>2018-06-03T07:05:57.000Z</time>
      </trkpt>
      <trkpt lat="44.53868" lon="4.22691">
        <ele>544</ele>
        <time>2018-06-03T07:05:58.000Z</time>
      </trkpt>
      <trkpt lat="44.53868" lon="4.22688">
        <ele>544</ele>
        <time>2018-06-03T07:05:59.000Z</time>
      </trkpt>
      <trkpt lat="44.53868" lon="4.22686">
        <ele>544</ele>
        <time>2018-06-03T07:06:00.000Z</time>
      </trkpt>
      <trkpt lat="44.53867" lon="4.22683">
        <ele>543</ele>
        <time>2018-06-03T07:06:01.000Z</time>
      </trkpt>
      <trkpt lat="44.53867" lon="4.2268">
        <ele>543</ele>
        <time>2018-06-03T07:06:02.000Z</time>
      </trkpt>
      <trkpt lat="44.53867" lon="4.22676">
        <ele>544</ele>
        <time>2018-06-03T07:06:03.000Z</time>
      </trkpt>
      <trkpt lat="44.53867" lon="4.22674">
        <ele>543</ele>
        <time>2018-06-03T07:06:04.000Z</time>
      </trkpt>
      <trkpt lat="44.53866" lon="4.22671">
        <ele>543</ele>
        <time>2018-06-03T07:06:05.000Z</time>
      </trkpt>
      <trkpt lat="44.53865" lon="4.22669">
        <ele>543</ele>
        <time>2018-06-03T07:06:06.000Z</time>
      </trkpt>
      <trkpt lat="44.53864" lon="4.22666">
        <ele>548</ele>
        <time>2018-06-03T07:06:07.000Z</time>
      </trkpt>
      <trkpt lat="44.53864" lon="4.22665">
        <ele>548</ele>
        <time>2018-06-03T07:06:08.000Z</time>
      </trkpt>
      <trkpt lat="44.53863" lon="4.22663">
        <ele>548</ele>
        <time>2018-06-03T07:06:09.000Z</time>
      </trkpt>
      <trkpt lat="44.53863" lon="4.2266">
        <ele>548</ele>
        <time>2018-06-03T07:06:10.000Z</time>
      </trkpt>
      <trkpt lat="44.53863" lon="4.22658">
        <ele>548</ele>
        <time>2018-06-03T07:06:11.000Z</time>
      </trkpt>
      <trkpt lat="44.53864" lon="4.22656">
        <ele>548</ele>
        <time>2018-06-03T07:06:12.000Z</time>
      </trkpt>
      <trkpt lat="44.53866" lon="4.22656">
        <ele>548</ele>
        <time>2018-06-03T07:06:13.000Z</time>
      </trkpt>
      <trkpt lat="44.53868" lon="4.22656">
        <ele>549</ele>
        <time>2018-06-03T07:06:14.000Z</time>
      </trkpt>
      <trkpt lat="44.53869" lon="4.22657">
        <ele>549</ele>
        <time>2018-06-03T07:06:15.000Z</time>
      </trkpt>
      <trkpt lat="44.53871" lon="4.22659">
        <ele>549</ele>
        <time>2018-06-03T07:06:16.000Z</time>
      </trkpt>
      <trkpt lat="44.53872" lon="4.2266">
        <ele>549</ele>
        <time>2018-06-03T07:06:17.000Z</time>
      </trkpt>
      <trkpt lat="44.53873" lon="4.22662">
        <ele>550</ele>
        <time>2018-06-03T07:06:18.000Z</time>
      </trkpt>
      <trkpt lat="44.53874" lon="4.22664">
        <ele>550</ele>
        <time>2018-06-03T07:06:19.000Z</time>
      </trkpt>
      <trkpt lat="44.53876" lon="4.22666">
        <ele>550</ele>
        <time>2018-06-03T07:06:20.000Z</time>
      </trkpt>
      <trkpt lat="44.53877" lon="4.22667">
        <ele>545</ele>
        <time>2018-06-03T07:06:21.000Z</time>
      </trkpt>
      <trkpt lat="44.53879" lon="4.22669">
        <ele>546</ele>
        <time>2018-06-03T07:06:22.000Z</time>
      </trkpt>
      <trkpt lat="44.53881" lon="4.2267">
        <ele>546</ele>
        <time>2018-06-03T07:06:23.000Z</time>
      </trkpt>
      <trkpt lat="44.53883" lon="4.22671">
        <ele>546</ele>
        <time>2018-06-03T07:06:24.000Z</time>
      </trkpt>
      <trkpt lat="44.53886" lon="4.22672">
        <ele>547</ele>
        <time>2018-06-03T07:06:25.000Z</time>
      </trkpt>
      <trkpt lat="44.53887" lon="4.22674">
        <ele>547</ele>
        <time>2018-06-03T07:06:26.000Z</time>
      </trkpt>
      <trkpt lat="44.53889" lon="4.22675">
        <ele>547</ele>
        <time>2018-06-03T07:06:27.000Z</time>
      </trkpt>
      <trkpt lat="44.5389" lon="4.22676">
        <ele>548</ele>
        <time>2018-06-03T07:06:28.000Z</time>
      </trkpt>
      <trkpt lat="44.53892" lon="4.22677">
        <ele>548</ele>
        <time>2018-06-03T07:06:29.000Z</time>
      </trkpt>
      <trkpt lat="44.53893" lon="4.22678">
        <ele>548</ele>
        <time>2018-06-03T07:06:30.000Z</time>
      </trkpt>
      <trkpt lat="44.53894" lon="4.22679">
        <ele>548</ele>
        <time>2018-06-03T07:06:31.000Z</time>
      </trkpt>
      <trkpt lat="44.53896" lon="4.22681">
        <ele>548</ele>
        <time>2018-06-03T07:06:32.000Z</time>
      </trkpt>
      <trkpt lat="44.53897" lon="4.22682">
        <ele>548</ele>
        <time>2018-06-03T07:06:33.000Z</time>
      </trkpt>
      <trkpt lat="44.53899" lon="4.22684">
        <ele>549</ele>
        <time>2018-06-03T07:06:34.000Z</time>
      </trkpt>
      <trkpt lat="44.539" lon="4.22686">
        <ele>549</ele>
        <time>2018-06-03T07:06:35.000Z</time>
      </trkpt>
      <trkpt lat="44.53902" lon="4.22687">
        <ele>549</ele>
        <time>2018-06-03T07:06:36.000Z</time>
      </trkpt>
      <trkpt lat="44.53904" lon="4.22689">
        <ele>549</ele>
        <time>2018-06-03T07:06:37.000Z</time>
      </trkpt>
      <trkpt lat="44.53905" lon="4.22691">
        <ele>549</ele>
        <time>2018-06-03T07:06:38.000Z</time>
      </trkpt>
      <trkpt lat="44.53907" lon="4.22692">
        <ele>548</ele>
        <time>2018-06-03T07:06:39.000Z</time>
      </trkpt>
      <trkpt lat="44.53909" lon="4.22694">
        <ele>548</ele>
        <time>2018-06-03T07:06:40.000Z</time>
      </trkpt>
      <trkpt lat="44.53911" lon="4.22696">
        <ele>548</ele>
        <time>2018-06-03T07:06:41.000Z</time>
      </trkpt>
      <trkpt lat="44.53912" lon="4.22698">
        <ele>548</ele>
        <time>2018-06-03T07:06:42.000Z</time>
      </trkpt>
      <trkpt lat="44.53914" lon="4.22701">
        <ele>548</ele>
        <time>2018-06-03T07:06:43.000Z</time>
      </trkpt>
      <trkpt lat="44.53916" lon="4.22703">
        <ele>548</ele>
        <time>2018-06-03T07:06:44.000Z</time>
      </trkpt>
      <trkpt lat="44.53917" lon="4.22705">
        <ele>561</ele>
        <time>2018-06-03T07:06:45.000Z</time>
      </trkpt>
      <trkpt lat="44.53918" lon="4.22707">
        <ele>561</ele>
        <time>2018-06-03T07:06:46.000Z</time>
      </trkpt>
      <trkpt lat="44.5392" lon="4.22708">
        <ele>561</ele>
        <time>2018-06-03T07:06:47.000Z</time>
      </trkpt>
      <trkpt lat="44.53921" lon="4.2271">
        <ele>561</ele>
        <time>2018-06-03T07:06:48.000Z</time>
      </trkpt>
      <trkpt lat="44.53922" lon="4.22712">
        <ele>561</ele>
        <time>2018-06-03T07:06:49.000Z</time>
      </trkpt>
      <trkpt lat="44.53923" lon="4.22713">
        <ele>561</ele>
        <time>2018-06-03T07:06:50.000Z</time>
      </trkpt>
      <trkpt lat="44.53924" lon="4.22715">
        <ele>560</ele>
        <time>2018-06-03T07:06:51.000Z</time>
      </trkpt>
      <trkpt lat="44.53926" lon="4.22716">
        <ele>560</ele>
        <time>2018-06-03T07:06:52.000Z</time>
      </trkpt>
      <trkpt lat="44.53927" lon="4.22718">
        <ele>560</ele>
        <time>2018-06-03T07:06:53.000Z</time>
      </trkpt>
      <trkpt lat="44.53928" lon="4.22719">
        <ele>560</ele>
        <time>2018-06-03T07:06:54.000Z</time>
      </trkpt>
      <trkpt lat="44.53929" lon="4.22721">
        <ele>560</ele>
        <time>2018-06-03T07:06:55.000Z</time>
      </trkpt>
      <trkpt lat="44.5393" lon="4.22722">
        <ele>560</ele>
        <time>2018-06-03T07:06:56.000Z</time>
      </trkpt>
      <trkpt lat="44.53931" lon="4.22724">
        <ele>560</ele>
        <time>2018-06-03T07:06:57.000Z</time>
      </trkpt>
      <trkpt lat="44.53932" lon="4.22726">
        <ele>560</ele>
        <time>2018-06-03T07:06:58.000Z</time>
      </trkpt>
      <trkpt lat="44.53934" lon="4.22727">
        <ele>560</ele>
        <time>2018-06-03T07:06:59.000Z</time>
      </trkpt>
      <trkpt lat="44.53935" lon="4.22729">
        <ele>560</ele>
        <time>2018-06-03T07:07:00.000Z</time>
      </trkpt>
      <trkpt lat="44.53936" lon="4.2273">
        <ele>560</ele>
        <time>2018-06-03T07:07:01.000Z</time>
      </trkpt>
      <trkpt lat="44.53938" lon="4.22731">
        <ele>560</ele>
        <time>2018-06-03T07:07:02.000Z</time>
      </trkpt>
      <trkpt lat="44.53938" lon="4.22732">
        <ele>560</ele>
        <time>2018-06-03T07:07:03.000Z</time>
      </trkpt>
      <trkpt lat="44.53939" lon="4.22733">
        <ele>560</ele>
        <time>2018-06-03T07:07:04.000Z</time>
      </trkpt>
      <trkpt lat="44.5394" lon="4.22734">
        <ele>560</ele>
        <time>2018-06-03T07:07:05.000Z</time>
      </trkpt>
      <trkpt lat="44.53941" lon="4.22735">
        <ele>560</ele>
        <time>2018-06-03T07:07:06.000Z</time>
      </trkpt>
      <trkpt lat="44.53943" lon="4.22738">
        <ele>560</ele>
        <time>2018-06-03T07:07:07.000Z</time>
      </trkpt>
      <trkpt lat="44.53943" lon="4.22739">
        <ele>560</ele>
        <time>2018-06-03T07:07:08.000Z</time>
      </trkpt>
      <trkpt lat="44.53945" lon="4.22741">
        <ele>561</ele>
        <time>2018-06-03T07:07:09.000Z</time>
      </trkpt>
      <trkpt lat="44.53946" lon="4.22743">
        <ele>561</ele>
        <time>2018-06-03T07:07:10.000Z</time>
      </trkpt>
      <trkpt lat="44.53948" lon="4.22745">
        <ele>561</ele>
        <time>2018-06-03T07:07:11.000Z</time>
      </trkpt>
      <trkpt lat="44.53949" lon="4.22746">
        <ele>561</ele>
        <time>2018-06-03T07:07:12.000Z</time>
      </trkpt>
      <trkpt lat="44.5395" lon="4.22748">
        <ele>562</ele>
        <time>2018-06-03T07:07:13.000Z</time>
      </trkpt>
      <trkpt lat="44.53951" lon="4.22751">
        <ele>556</ele>
        <time>2018-06-03T07:07:14.000Z</time>
      </trkpt>
      <trkpt lat="44.53953" lon="4.22753">
        <ele>556</ele>
        <time>2018-06-03T07:07:15.000Z</time>
      </trkpt>
      <trkpt lat="44.53954" lon="4.22755">
        <ele>556</ele>
        <time>2018-06-03T07:07:16.000Z</time>
      </trkpt>
      <trkpt lat="44.53956" lon="4.22758">
        <ele>556</ele>
        <time>2018-06-03T07:07:17.000Z</time>
      </trkpt>
      <trkpt lat="44.53958" lon="4.2276">
        <ele>557</ele>
        <time>2018-06-03T07:07:18.000Z</time>
      </trkpt>
      <trkpt lat="44.53961" lon="4.22763">
        <ele>557</ele>
        <time>2018-06-03T07:07:19.000Z</time>
      </trkpt>
      <trkpt lat="44.53963" lon="4.22765">
        <ele>557</ele>
        <time>2018-06-03T07:07:20.000Z</time>
      </trkpt>
      <trkpt lat="44.53965" lon="4.22768">
        <ele>558</ele>
        <time>2018-06-03T07:07:21.000Z</time>
      </trkpt>
      <trkpt lat="44.53967" lon="4.2277">
        <ele>558</ele>
        <time>2018-06-03T07:07:22.000Z</time>
      </trkpt>
      <trkpt lat="44.53969" lon="4.22773">
        <ele>558</ele>
        <time>2018-06-03T07:07:23.000Z</time>
      </trkpt>
      <trkpt lat="44.53971" lon="4.22775">
        <ele>558</ele>
        <time>2018-06-03T07:07:24.000Z</time>
      </trkpt>
      <trkpt lat="44.53973" lon="4.22778">
        <ele>558</ele>
        <time>2018-06-03T07:07:25.000Z</time>
      </trkpt>
      <trkpt lat="44.53975" lon="4.22781">
        <ele>558</ele>
        <time>2018-06-03T07:07:26.000Z</time>
      </trkpt>
      <trkpt lat="44.53976" lon="4.22783">
        <ele>558</ele>
        <time>2018-06-03T07:07:27.000Z</time>
      </trkpt>
      <trkpt lat="44.53978" lon="4.22786">
        <ele>558</ele>
        <time>2018-06-03T07:07:28.000Z</time>
      </trkpt>
      <trkpt lat="44.5398" lon="4.22789">
        <ele>558</ele>
        <time>2018-06-03T07:07:29.000Z</time>
      </trkpt>
      <trkpt lat="44.53982" lon="4.22792">
        <ele>558</ele>
        <time>2018-06-03T07:07:30.000Z</time>
      </trkpt>
      <trkpt lat="44.53983" lon="4.22794">
        <ele>557</ele>
        <time>2018-06-03T07:07:31.000Z</time>
      </trkpt>
      <trkpt lat="44.53985" lon="4.22797">
        <ele>557</ele>
        <time>2018-06-03T07:07:32.000Z</time>
      </trkpt>
      <trkpt lat="44.53987" lon="4.22799">
        <ele>557</ele>
        <time>2018-06-03T07:07:33.000Z</time>
      </trkpt>
      <trkpt lat="44.53988" lon="4.22802">
        <ele>557</ele>
        <time>2018-06-03T07:07:34.000Z</time>
      </trkpt>
      <trkpt lat="44.5399" lon="4.22805">
        <ele>557</ele>
        <time>2018-06-03T07:07:35.000Z</time>
      </trkpt>
      <trkpt lat="44.53992" lon="4.22808">
        <ele>557</ele>
        <time>2018-06-03T07:07:36.000Z</time>
      </trkpt>
      <trkpt lat="44.53994" lon="4.22811">
        <ele>557</ele>
        <time>2018-06-03T07:07:37.000Z</time>
      </trkpt>
      <trkpt lat="44.53996" lon="4.22815">
        <ele>557</ele>
        <time>2018-06-03T07:07:38.000Z</time>
      </trkpt>
      <trkpt lat="44.53998" lon="4.22818">
        <ele>557</ele>
        <time>2018-06-03T07:07:39.000Z</time>
      </trkpt>
      <trkpt lat="44.54" lon="4.2282">
        <ele>562</ele>
        <time>2018-06-03T07:07:40.000Z</time>
      </trkpt>
      <trkpt lat="44.54002" lon="4.22823">
        <ele>562</ele>
        <time>2018-06-03T07:07:41.000Z</time>
      </trkpt>
      <trkpt lat="44.54004" lon="4.22825">
        <ele>561</ele>
        <time>2018-06-03T07:07:42.000Z</time>
      </trkpt>
      <trkpt lat="44.54006" lon="4.22828">
        <ele>561</ele>
        <time>2018-06-03T07:07:43.000Z</time>
      </trkpt>
      <trkpt lat="44.54007" lon="4.22831">
        <ele>561</ele>
        <time>2018-06-03T07:07:44.000Z</time>
      </trkpt>
      <trkpt lat="44.54009" lon="4.22833">
        <ele>561</ele>
        <time>2018-06-03T07:07:45.000Z</time>
      </trkpt>
      <trkpt lat="44.54011" lon="4.22836">
        <ele>557</ele>
        <time>2018-06-03T07:07:46.000Z</time>
      </trkpt>
      <trkpt lat="44.54013" lon="4.22838">
        <ele>557</ele>
        <time>2018-06-03T07:07:47.000Z</time>
      </trkpt>
      <trkpt lat="44.54015" lon="4.22841">
        <ele>557</ele>
        <time>2018-06-03T07:07:48.000Z</time>
      </trkpt>
      <trkpt lat="44.54017" lon="4.22844">
        <ele>557</ele>
        <time>2018-06-03T07:07:49.000Z</time>
      </trkpt>
      <trkpt lat="44.54019" lon="4.22847">
        <ele>557</ele>
        <time>2018-06-03T07:07:50.000Z</time>
      </trkpt>
      <trkpt lat="44.54021" lon="4.22849">
        <ele>557</ele>
        <time>2018-06-03T07:07:51.000Z</time>
      </trkpt>
      <trkpt lat="44.54023" lon="4.22851">
        <ele>557</ele>
        <time>2018-06-03T07:07:52.000Z</time>
      </trkpt>
      <trkpt lat="44.54025" lon="4.22853">
        <ele>556</ele>
        <time>2018-06-03T07:07:53.000Z</time>
      </trkpt>
      <trkpt lat="44.54027" lon="4.22854">
        <ele>556</ele>
        <time>2018-06-03T07:07:54.000Z</time>
      </trkpt>
      <trkpt lat="44.54028" lon="4.22856">
        <ele>556</ele>
        <time>2018-06-03T07:07:55.000Z</time>
      </trkpt>
      <trkpt lat="44.54031" lon="4.22857">
        <ele>556</ele>
        <time>2018-06-03T07:07:56.000Z</time>
      </trkpt>
      <trkpt lat="44.54033" lon="4.22858">
        <ele>556</ele>
        <time>2018-06-03T07:07:57.000Z</time>
      </trkpt>
      <trkpt lat="44.54035" lon="4.22859">
        <ele>556</ele>
        <time>2018-06-03T07:07:58.000Z</time>
      </trkpt>
      <trkpt lat="44.54037" lon="4.22859">
        <ele>556</ele>
        <time>2018-06-03T07:07:59.000Z</time>
      </trkpt>
      <trkpt lat="44.54039" lon="4.22858">
        <ele>557</ele>
        <time>2018-06-03T07:08:00.000Z</time>
      </trkpt>
      <trkpt lat="44.54041" lon="4.22858">
        <ele>557</ele>
        <time>2018-06-03T07:08:01.000Z</time>
      </trkpt>
      <trkpt lat="44.54043" lon="4.22857">
        <ele>557</ele>
        <time>2018-06-03T07:08:02.000Z</time>
      </trkpt>
      <trkpt lat="44.54045" lon="4.22856">
        <ele>557</ele>
        <time>2018-06-03T07:08:03.000Z</time>
      </trkpt>
      <trkpt lat="44.54047" lon="4.22855">
        <ele>557</ele>
        <time>2018-06-03T07:08:04.000Z</time>
      </trkpt>
      <trkpt lat="44.5405" lon="4.22854">
        <ele>557</ele>
        <time>2018-06-03T07:08:05.000Z</time>
      </trkpt>
      <trkpt lat="44.54052" lon="4.22854">
        <ele>557</ele>
        <time>2018-06-03T07:08:06.000Z</time>
      </trkpt>
      <trkpt lat="44.54054" lon="4.22853">
        <ele>558</ele>
        <time>2018-06-03T07:08:07.000Z</time>
      </trkpt>
      <trkpt lat="44.54056" lon="4.22852">
        <ele>558</ele>
        <time>2018-06-03T07:08:08.000Z</time>
      </trkpt>
      <trkpt lat="44.54058" lon="4.22851">
        <ele>558</ele>
        <time>2018-06-03T07:08:09.000Z</time>
      </trkpt>
      <trkpt lat="44.5406" lon="4.2285">
        <ele>558</ele>
        <time>2018-06-03T07:08:10.000Z</time>
      </trkpt>
      <trkpt lat="44.54062" lon="4.22849">
        <ele>558</ele>
        <time>2018-06-03T07:08:11.000Z</time>
      </trkpt>
      <trkpt lat="44.54064" lon="4.22849">
        <ele>558</ele>
        <time>2018-06-03T07:08:12.000Z</time>
      </trkpt>
      <trkpt lat="44.54066" lon="4.22848">
        <ele>559</ele>
        <time>2018-06-03T07:08:13.000Z</time>
      </trkpt>
      <trkpt lat="44.54068" lon="4.22847">
        <ele>559</ele>
        <time>2018-06-03T07:08:14.000Z</time>
      </trkpt>
      <trkpt lat="44.5407" lon="4.22845">
        <ele>559</ele>
        <time>2018-06-03T07:08:15.000Z</time>
      </trkpt>
      <trkpt lat="44.54072" lon="4.22843">
        <ele>560</ele>
        <time>2018-06-03T07:08:16.000Z</time>
      </trkpt>
      <trkpt lat="44.54074" lon="4.22841">
        <ele>560</ele>
        <time>2018-06-03T07:08:17.000Z</time>
      </trkpt>
      <trkpt lat="44.54076" lon="4.22839">
        <ele>561</ele>
        <time>2018-06-03T07:08:18.000Z</time>
      </trkpt>
      <trkpt lat="44.54077" lon="4.22837">
        <ele>561</ele>
        <time>2018-06-03T07:08:19.000Z</time>
      </trkpt>
      <trkpt lat="44.54079" lon="4.22835">
        <ele>562</ele>
        <time>2018-06-03T07:08:20.000Z</time>
      </trkpt>
      <trkpt lat="44.54081" lon="4.22833">
        <ele>564</ele>
        <time>2018-06-03T07:08:21.000Z</time>
      </trkpt>
      <trkpt lat="44.54082" lon="4.2283">
        <ele>564</ele>
        <time>2018-06-03T07:08:22.000Z</time>
      </trkpt>
      <trkpt lat="44.54084" lon="4.22828">
        <ele>564</ele>
        <time>2018-06-03T07:08:23.000Z</time>
      </trkpt>
      <trkpt lat="44.54085" lon="4.22826">
        <ele>564</ele>
        <time>2018-06-03T07:08:24.000Z</time>
      </trkpt>
      <trkpt lat="44.54087" lon="4.22823">
        <ele>565</ele>
        <time>2018-06-03T07:08:25.000Z</time>
      </trkpt>
      <trkpt lat="44.54089" lon="4.22821">
        <ele>565</ele>
        <time>2018-06-03T07:08:26.000Z</time>
      </trkpt>
      <trkpt lat="44.5409" lon="4.22819">
        <ele>566</ele>
        <time>2018-06-03T07:08:27.000Z</time>
      </trkpt>
      <trkpt lat="44.54091" lon="4.22817">
        <ele>566</ele>
        <time>2018-06-03T07:08:28.000Z</time>
      </trkpt>
      <trkpt lat="44.54092" lon="4.22815">
        <ele>566</ele>
        <time>2018-06-03T07:08:29.000Z</time>
      </trkpt>
      <trkpt lat="44.54093" lon="4.22812">
        <ele>567</ele>
        <time>2018-06-03T07:08:30.000Z</time>
      </trkpt>
      <trkpt lat="44.54094" lon="4.22809">
        <ele>567</ele>
        <time>2018-06-03T07:08:31.000Z</time>
      </trkpt>
      <trkpt lat="44.54095" lon="4.22807">
        <ele>567</ele>
        <time>2018-06-03T07:08:32.000Z</time>
      </trkpt>
      <trkpt lat="44.54097" lon="4.22804">
        <ele>567</ele>
        <time>2018-06-03T07:08:33.000Z</time>
      </trkpt>
      <trkpt lat="44.54097" lon="4.22801">
        <ele>568</ele>
        <time>2018-06-03T07:08:34.000Z</time>
      </trkpt>
      <trkpt lat="44.54098" lon="4.22798">
        <ele>568</ele>
        <time>2018-06-03T07:08:35.000Z</time>
      </trkpt>
      <trkpt lat="44.54099" lon="4.22795">
        <ele>569</ele>
        <time>2018-06-03T07:08:36.000Z</time>
      </trkpt>
      <trkpt lat="44.54101" lon="4.22792">
        <ele>569</ele>
        <time>2018-06-03T07:08:37.000Z</time>
      </trkpt>
      <trkpt lat="44.54102" lon="4.22789">
        <ele>569</ele>
        <time>2018-06-03T07:08:38.000Z</time>
      </trkpt>
      <trkpt lat="44.54103" lon="4.22786">
        <ele>569</ele>
        <time>2018-06-03T07:08:39.000Z</time>
      </trkpt>
      <trkpt lat="44.54105" lon="4.22783">
        <ele>570</ele>
        <time>2018-06-03T07:08:40.000Z</time>
      </trkpt>
      <trkpt lat="44.54106" lon="4.2278">
        <ele>570</ele>
        <time>2018-06-03T07:08:41.000Z</time>
      </trkpt>
      <trkpt lat="44.54107" lon="4.22778">
        <ele>570</ele>
        <time>2018-06-03T07:08:42.000Z</time>
      </trkpt>
      <trkpt lat="44.54108" lon="4.22775">
        <ele>571</ele>
        <time>2018-06-03T07:08:43.000Z</time>
      </trkpt>
      <trkpt lat="44.54109" lon="4.22772">
        <ele>571</ele>
        <time>2018-06-03T07:08:44.000Z</time>
      </trkpt>
      <trkpt lat="44.5411" lon="4.22769">
        <ele>571</ele>
        <time>2018-06-03T07:08:45.000Z</time>
      </trkpt>
      <trkpt lat="44.54112" lon="4.22767">
        <ele>571</ele>
        <time>2018-06-03T07:08:46.000Z</time>
      </trkpt>
      <trkpt lat="44.54114" lon="4.22765">
        <ele>571</ele>
        <time>2018-06-03T07:08:47.000Z</time>
      </trkpt>
      <trkpt lat="44.54116" lon="4.22763">
        <ele>571</ele>
        <time>2018-06-03T07:08:48.000Z</time>
      </trkpt>
      <trkpt lat="44.54117" lon="4.2276">
        <ele>571</ele>
        <time>2018-06-03T07:08:49.000Z</time>
      </trkpt>
      <trkpt lat="44.54118" lon="4.22758">
        <ele>571</ele>
        <time>2018-06-03T07:08:50.000Z</time>
      </trkpt>
      <trkpt lat="44.54119" lon="4.22755">
        <ele>571</ele>
        <time>2018-06-03T07:08:51.000Z</time>
      </trkpt>
      <trkpt lat="44.54121" lon="4.22753">
        <ele>571</ele>
        <time>2018-06-03T07:08:52.000Z</time>
      </trkpt>
      <trkpt lat="44.54122" lon="4.2275">
        <ele>571</ele>
        <time>2018-06-03T07:08:53.000Z</time>
      </trkpt>
      <trkpt lat="44.54123" lon="4.22747">
        <ele>578</ele>
        <time>2018-06-03T07:08:54.000Z</time>
      </trkpt>
      <trkpt lat="44.54124" lon="4.22745">
        <ele>578</ele>
        <time>2018-06-03T07:08:55.000Z</time>
      </trkpt>
      <trkpt lat="44.54125" lon="4.22742">
        <ele>578</ele>
        <time>2018-06-03T07:08:56.000Z</time>
      </trkpt>
      <trkpt lat="44.54126" lon="4.22739">
        <ele>578</ele>
        <time>2018-06-03T07:08:57.000Z</time>
      </trkpt>
      <trkpt lat="44.54127" lon="4.22737">
        <ele>578</ele>
        <time>2018-06-03T07:08:58.000Z</time>
      </trkpt>
      <trkpt lat="44.54129" lon="4.22735">
        <ele>578</ele>
        <time>2018-06-03T07:08:59.000Z</time>
      </trkpt>
      <trkpt lat="44.5413" lon="4.22732">
        <ele>578</ele>
        <time>2018-06-03T07:09:00.000Z</time>
      </trkpt>
      <trkpt lat="44.54131" lon="4.2273">
        <ele>578</ele>
        <time>2018-06-03T07:09:01.000Z</time>
      </trkpt>
      <trkpt lat="44.54132" lon="4.22728">
        <ele>578</ele>
        <time>2018-06-03T07:09:02.000Z</time>
      </trkpt>
      <trkpt lat="44.54133" lon="4.22725">
        <ele>578</ele>
        <time>2018-06-03T07:09:03.000Z</time>
      </trkpt>
      <trkpt lat="44.54134" lon="4.22723">
        <ele>578</ele>
        <time>2018-06-03T07:09:04.000Z</time>
      </trkpt>
      <trkpt lat="44.54135" lon="4.22721">
        <ele>579</ele>
        <time>2018-06-03T07:09:05.000Z</time>
      </trkpt>
      <trkpt lat="44.54137" lon="4.22718">
        <ele>579</ele>
        <time>2018-06-03T07:09:06.000Z</time>
      </trkpt>
      <trkpt lat="44.54138" lon="4.22717">
        <ele>579</ele>
        <time>2018-06-03T07:09:07.000Z</time>
      </trkpt>
      <trkpt lat="44.5414" lon="4.22715">
        <ele>579</ele>
        <time>2018-06-03T07:09:08.000Z</time>
      </trkpt>
      <trkpt lat="44.54141" lon="4.22712">
        <ele>579</ele>
        <time>2018-06-03T07:09:09.000Z</time>
      </trkpt>
      <trkpt lat="44.54142" lon="4.2271">
        <ele>579</ele>
        <time>2018-06-03T07:09:10.000Z</time>
      </trkpt>
      <trkpt lat="44.54143" lon="4.22707">
        <ele>579</ele>
        <time>2018-06-03T07:09:11.000Z</time>
      </trkpt>
      <trkpt lat="44.54143" lon="4.22705">
        <ele>579</ele>
        <time>2018-06-03T07:09:12.000Z</time>
      </trkpt>
      <trkpt lat="44.54144" lon="4.22703">
        <ele>579</ele>
        <time>2018-06-03T07:09:13.000Z</time>
      </trkpt>
      <trkpt lat="44.54145" lon="4.227">
        <ele>579</ele>
        <time>2018-06-03T07:09:14.000Z</time>
      </trkpt>
      <trkpt lat="44.54146" lon="4.22698">
        <ele>580</ele>
        <time>2018-06-03T07:09:15.000Z</time>
      </trkpt>
      <trkpt lat="44.54146" lon="4.22696">
        <ele>580</ele>
        <time>2018-06-03T07:09:16.000Z</time>
      </trkpt>
      <trkpt lat="44.54147" lon="4.22694">
        <ele>580</ele>
        <time>2018-06-03T07:09:17.000Z</time>
      </trkpt>
      <trkpt lat="44.54148" lon="4.22691">
        <ele>580</ele>
        <time>2018-06-03T07:09:18.000Z</time>
      </trkpt>
      <trkpt lat="44.54148" lon="4.22689">
        <ele>580</ele>
        <time>2018-06-03T07:09:19.000Z</time>
      </trkpt>
      <trkpt lat="44.54149" lon="4.22687">
        <ele>580</ele>
        <time>2018-06-03T07:09:20.000Z</time>
      </trkpt>
      <trkpt lat="44.54149" lon="4.22685">
        <ele>580</ele>
        <time>2018-06-03T07:09:21.000Z</time>
      </trkpt>
      <trkpt lat="44.5415" lon="4.22683">
        <ele>580</ele>
        <time>2018-06-03T07:09:22.000Z</time>
      </trkpt>
      <trkpt lat="44.54151" lon="4.22681">
        <ele>580</ele>
        <time>2018-06-03T07:09:23.000Z</time>
      </trkpt>
      <trkpt lat="44.54152" lon="4.22679">
        <ele>580</ele>
        <time>2018-06-03T07:09:24.000Z</time>
      </trkpt>
      <trkpt lat="44.54152" lon="4.22676">
        <ele>580</ele>
        <time>2018-06-03T07:09:25.000Z</time>
      </trkpt>
      <trkpt lat="44.54153" lon="4.22674">
        <ele>580</ele>
        <time>2018-06-03T07:09:26.000Z</time>
      </trkpt>
      <trkpt lat="44.54154" lon="4.22672">
        <ele>580</ele>
        <time>2018-06-03T07:09:27.000Z</time>
      </trkpt>
      <trkpt lat="44.54155" lon="4.2267">
        <ele>580</ele>
        <time>2018-06-03T07:09:28.000Z</time>
      </trkpt>
      <trkpt lat="44.54156" lon="4.22668">
        <ele>580</ele>
        <time>2018-06-03T07:09:29.000Z</time>
      </trkpt>
      <trkpt lat="44.54156" lon="4.22666">
        <ele>584</ele>
        <time>2018-06-03T07:09:30.000Z</time>
      </trkpt>
      <trkpt lat="44.54157" lon="4.22664">
        <ele>584</ele>
        <time>2018-06-03T07:09:31.000Z</time>
      </trkpt>
      <trkpt lat="44.54158" lon="4.22662">
        <ele>584</ele>
        <time>2018-06-03T07:09:32.000Z</time>
      </trkpt>
      <trkpt lat="44.54159" lon="4.22661">
        <ele>584</ele>
        <time>2018-06-03T07:09:33.000Z</time>
      </trkpt>
      <trkpt lat="44.5416" lon="4.22659">
        <ele>584</ele>
        <time>2018-06-03T07:09:34.000Z</time>
      </trkpt>
      <trkpt lat="44.54162" lon="4.22657">
        <ele>585</ele>
        <time>2018-06-03T07:09:35.000Z</time>
      </trkpt>
      <trkpt lat="44.54163" lon="4.22654">
        <ele>585</ele>
        <time>2018-06-03T07:09:36.000Z</time>
      </trkpt>
      <trkpt lat="44.54164" lon="4.22652">
        <ele>586</ele>
        <time>2018-06-03T07:09:37.000Z</time>
      </trkpt>
      <trkpt lat="44.54165" lon="4.2265">
        <ele>586</ele>
        <time>2018-06-03T07:09:38.000Z</time>
      </trkpt>
      <trkpt lat="44.54166" lon="4.22649">
        <ele>586</ele>
        <time>2018-06-03T07:09:39.000Z</time>
      </trkpt>
      <trkpt lat="44.54167" lon="4.22648">
        <ele>585</ele>
        <time>2018-06-03T07:09:40.000Z</time>
      </trkpt>
      <trkpt lat="44.54168" lon="4.22646">
        <ele>585</ele>
        <time>2018-06-03T07:09:41.000Z</time>
      </trkpt>
      <trkpt lat="44.5417" lon="4.22645">
        <ele>585</ele>
        <time>2018-06-03T07:09:42.000Z</time>
      </trkpt>
      <trkpt lat="44.54171" lon="4.22643">
        <ele>586</ele>
        <time>2018-06-03T07:09:43.000Z</time>
      </trkpt>
      <trkpt lat="44.54172" lon="4.22642">
        <ele>586</ele>
        <time>2018-06-03T07:09:44.000Z</time>
      </trkpt>
      <trkpt lat="44.54174" lon="4.2264">
        <ele>586</ele>
        <time>2018-06-03T07:09:45.000Z</time>
      </trkpt>
      <trkpt lat="44.54175" lon="4.22638">
        <ele>586</ele>
        <time>2018-06-03T07:09:46.000Z</time>
      </trkpt>
      <trkpt lat="44.54177" lon="4.22636">
        <ele>587</ele>
        <time>2018-06-03T07:09:47.000Z</time>
      </trkpt>
      <trkpt lat="44.54178" lon="4.22635">
        <ele>587</ele>
        <time>2018-06-03T07:09:48.000Z</time>
      </trkpt>
      <trkpt lat="44.5418" lon="4.22633">
        <ele>587</ele>
        <time>2018-06-03T07:09:49.000Z</time>
      </trkpt>
      <trkpt lat="44.54181" lon="4.22631">
        <ele>587</ele>
        <time>2018-06-03T07:09:50.000Z</time>
      </trkpt>
      <trkpt lat="44.54183" lon="4.2263">
        <ele>588</ele>
        <time>2018-06-03T07:09:51.000Z</time>
      </trkpt>
      <trkpt lat="44.54184" lon="4.22628">
        <ele>588</ele>
        <time>2018-06-03T07:09:52.000Z</time>
      </trkpt>
      <trkpt lat="44.54186" lon="4.22627">
        <ele>588</ele>
        <time>2018-06-03T07:09:53.000Z</time>
      </trkpt>
      <trkpt lat="44.54188" lon="4.22625">
        <ele>588</ele>
        <time>2018-06-03T07:09:54.000Z</time>
      </trkpt>
      <trkpt lat="44.54189" lon="4.22624">
        <ele>588</ele>
        <time>2018-06-03T07:09:55.000Z</time>
      </trkpt>
      <trkpt lat="44.5419" lon="4.22622">
        <ele>589</ele>
        <time>2018-06-03T07:09:56.000Z</time>
      </trkpt>
      <trkpt lat="44.54191" lon="4.22621">
        <ele>589</ele>
        <time>2018-06-03T07:09:57.000Z</time>
      </trkpt>
      <trkpt lat="44.54192" lon="4.22619">
        <ele>589</ele>
        <time>2018-06-03T07:09:58.000Z</time>
      </trkpt>
      <trkpt lat="44.54193" lon="4.22618">
        <ele>589</ele>
        <time>2018-06-03T07:09:59.000Z</time>
      </trkpt>
      <trkpt lat="44.54194" lon="4.22616">
        <ele>589</ele>
        <time>2018-06-03T07:10:00.000Z</time>
      </trkpt>
      <trkpt lat="44.54195" lon="4.22615">
        <ele>589</ele>
        <time>2018-06-03T07:10:01.000Z</time>
      </trkpt>
      <trkpt lat="44.54197" lon="4.22613">
        <ele>589</ele>
        <time>2018-06-03T07:10:02.000Z</time>
      </trkpt>
      <trkpt lat="44.54198" lon="4.22612">
        <ele>589</ele>
        <time>2018-06-03T07:10:03.000Z</time>
      </trkpt>
      <trkpt lat="44.542" lon="4.22611">
        <ele>589</ele>
        <time>2018-06-03T07:10:04.000Z</time>
      </trkpt>
      <trkpt lat="44.54201" lon="4.2261">
        <ele>590</ele>
        <time>2018-06-03T07:10:05.000Z</time>
      </trkpt>
      <trkpt lat="44.54202" lon="4.2261">
        <ele>590</ele>
        <time>2018-06-03T07:10:06.000Z</time>
      </trkpt>
      <trkpt lat="44.54204" lon="4.22609">
        <ele>590</ele>
        <time>2018-06-03T07:10:07.000Z</time>
      </trkpt>
      <trkpt lat="44.54205" lon="4.22608">
        <ele>590</ele>
        <time>2018-06-03T07:10:08.000Z</time>
      </trkpt>
      <trkpt lat="44.54207" lon="4.22607">
        <ele>590</ele>
        <time>2018-06-03T07:10:09.000Z</time>
      </trkpt>
      <trkpt lat="44.54209" lon="4.22606">
        <ele>590</ele>
        <time>2018-06-03T07:10:10.000Z</time>
      </trkpt>
      <trkpt lat="44.5421" lon="4.22605">
        <ele>590</ele>
        <time>2018-06-03T07:10:11.000Z</time>
      </trkpt>
      <trkpt lat="44.54213" lon="4.22604">
        <ele>590</ele>
        <time>2018-06-03T07:10:12.000Z</time>
      </trkpt>
      <trkpt lat="44.54214" lon="4.22603">
        <ele>590</ele>
        <time>2018-06-03T07:10:13.000Z</time>
      </trkpt>
      <trkpt lat="44.54216" lon="4.22602">
        <ele>590</ele>
        <time>2018-06-03T07:10:14.000Z</time>
      </trkpt>
      <trkpt lat="44.54218" lon="4.22601">
        <ele>590</ele>
        <time>2018-06-03T07:10:15.000Z</time>
      </trkpt>
      <trkpt lat="44.5422" lon="4.226">
        <ele>590</ele>
        <time>2018-06-03T07:10:16.000Z</time>
      </trkpt>
      <trkpt lat="44.54222" lon="4.22599">
        <ele>590</ele>
        <time>2018-06-03T07:10:17.000Z</time>
      </trkpt>
      <trkpt lat="44.54223" lon="4.22598">
        <ele>591</ele>
        <time>2018-06-03T07:10:18.000Z</time>
      </trkpt>
      <trkpt lat="44.54225" lon="4.22597">
        <ele>591</ele>
        <time>2018-06-03T07:10:19.000Z</time>
      </trkpt>
      <trkpt lat="44.54226" lon="4.22596">
        <ele>591</ele>
        <time>2018-06-03T07:10:20.000Z</time>
      </trkpt>
      <trkpt lat="44.54228" lon="4.22595">
        <ele>591</ele>
        <time>2018-06-03T07:10:21.000Z</time>
      </trkpt>
      <trkpt lat="44.5423" lon="4.22594">
        <ele>591</ele>
        <time>2018-06-03T07:10:22.000Z</time>
      </trkpt>
      <trkpt lat="44.54231" lon="4.22593">
        <ele>591</ele>
        <time>2018-06-03T07:10:23.000Z</time>
      </trkpt>
      <trkpt lat="44.54233" lon="4.22592">
        <ele>592</ele>
        <time>2018-06-03T07:10:24.000Z</time>
      </trkpt>
      <trkpt lat="44.54235" lon="4.22591">
        <ele>592</ele>
        <time>2018-06-03T07:10:25.000Z</time>
      </trkpt>
      <trkpt lat="44.54236" lon="4.2259">
        <ele>592</ele>
        <time>2018-06-03T07:10:26.000Z</time>
      </trkpt>
      <trkpt lat="44.54238" lon="4.2259">
        <ele>592</ele>
        <time>2018-06-03T07:10:27.000Z</time>
      </trkpt>
      <trkpt lat="44.5424" lon="4.22589">
        <ele>593</ele>
        <time>2018-06-03T07:10:28.000Z</time>
      </trkpt>
      <trkpt lat="44.54242" lon="4.22588">
        <ele>593</ele>
        <time>2018-06-03T07:10:29.000Z</time>
      </trkpt>
      <trkpt lat="44.54243" lon="4.22588">
        <ele>593</ele>
        <time>2018-06-03T07:10:30.000Z</time>
      </trkpt>
      <trkpt lat="44.54245" lon="4.22587">
        <ele>594</ele>
        <time>2018-06-03T07:10:31.000Z</time>
      </trkpt>
      <trkpt lat="44.54247" lon="4.22587">
        <ele>594</ele>
        <time>2018-06-03T07:10:32.000Z</time>
      </trkpt>
      <trkpt lat="44.54249" lon="4.22586">
        <ele>594</ele>
        <time>2018-06-03T07:10:33.000Z</time>
      </trkpt>
      <trkpt lat="44.54251" lon="4.22586">
        <ele>595</ele>
        <time>2018-06-03T07:10:34.000Z</time>
      </trkpt>
      <trkpt lat="44.54253" lon="4.22586">
        <ele>594</ele>
        <time>2018-06-03T07:10:35.000Z</time>
      </trkpt>
      <trkpt lat="44.54255" lon="4.22587">
        <ele>594</ele>
        <time>2018-06-03T07:10:36.000Z</time>
      </trkpt>
      <trkpt lat="44.54257" lon="4.22586">
        <ele>594</ele>
        <time>2018-06-03T07:10:37.000Z</time>
      </trkpt>
      <trkpt lat="44.54259" lon="4.22586">
        <ele>594</ele>
        <time>2018-06-03T07:10:38.000Z</time>
      </trkpt>
      <trkpt lat="44.5426" lon="4.22586">
        <ele>594</ele>
        <time>2018-06-03T07:10:39.000Z</time>
      </trkpt>
      <trkpt lat="44.54262" lon="4.22586">
        <ele>594</ele>
        <time>2018-06-03T07:10:40.000Z</time>
      </trkpt>
      <trkpt lat="44.54264" lon="4.22586">
        <ele>594</ele>
        <time>2018-06-03T07:10:41.000Z</time>
      </trkpt>
      <trkpt lat="44.54266" lon="4.22586">
        <ele>594</ele>
        <time>2018-06-03T07:10:42.000Z</time>
      </trkpt>
      <trkpt lat="44.54268" lon="4.22586">
        <ele>593</ele>
        <time>2018-06-03T07:10:43.000Z</time>
      </trkpt>
      <trkpt lat="44.5427" lon="4.22585">
        <ele>593</ele>
        <time>2018-06-03T07:10:44.000Z</time>
      </trkpt>
      <trkpt lat="44.54272" lon="4.22585">
        <ele>593</ele>
        <time>2018-06-03T07:10:45.000Z</time>
      </trkpt>
      <trkpt lat="44.54273" lon="4.22585">
        <ele>593</ele>
        <time>2018-06-03T07:10:46.000Z</time>
      </trkpt>
      <trkpt lat="44.54275" lon="4.22584">
        <ele>593</ele>
        <time>2018-06-03T07:10:47.000Z</time>
      </trkpt>
      <trkpt lat="44.54276" lon="4.22584">
        <ele>593</ele>
        <time>2018-06-03T07:10:48.000Z</time>
      </trkpt>
      <trkpt lat="44.54278" lon="4.22584">
        <ele>593</ele>
        <time>2018-06-03T07:10:49.000Z</time>
      </trkpt>
      <trkpt lat="44.5428" lon="4.22584">
        <ele>593</ele>
        <time>2018-06-03T07:10:50.000Z</time>
      </trkpt>
      <trkpt lat="44.54282" lon="4.22584">
        <ele>593</ele>
        <time>2018-06-03T07:10:51.000Z</time>
      </trkpt>
      <trkpt lat="44.54284" lon="4.22584">
        <ele>593</ele>
        <time>2018-06-03T07:10:52.000Z</time>
      </trkpt>
      <trkpt lat="44.54285" lon="4.22584">
        <ele>593</ele>
        <time>2018-06-03T07:10:53.000Z</time>
      </trkpt>
      <trkpt lat="44.54287" lon="4.22584">
        <ele>593</ele>
        <time>2018-06-03T07:10:54.000Z</time>
      </trkpt>
      <trkpt lat="44.54288" lon="4.22585">
        <ele>593</ele>
        <time>2018-06-03T07:10:55.000Z</time>
      </trkpt>
      <trkpt lat="44.5429" lon="4.22585">
        <ele>593</ele>
        <time>2018-06-03T07:10:56.000Z</time>
      </trkpt>
      <trkpt lat="44.54291" lon="4.22586">
        <ele>594</ele>
        <time>2018-06-03T07:10:57.000Z</time>
      </trkpt>
      <trkpt lat="44.54293" lon="4.22586">
        <ele>594</ele>
        <time>2018-06-03T07:10:58.000Z</time>
      </trkpt>
      <trkpt lat="44.54295" lon="4.22587">
        <ele>594</ele>
        <time>2018-06-03T07:10:59.000Z</time>
      </trkpt>
      <trkpt lat="44.54296" lon="4.22588">
        <ele>594</ele>
        <time>2018-06-03T07:11:00.000Z</time>
      </trkpt>
      <trkpt lat="44.54298" lon="4.22589">
        <ele>594</ele>
        <time>2018-06-03T07:11:01.000Z</time>
      </trkpt>
      <trkpt lat="44.543" lon="4.2259">
        <ele>594</ele>
        <time>2018-06-03T07:11:02.000Z</time>
      </trkpt>
      <trkpt lat="44.54302" lon="4.22591">
        <ele>594</ele>
        <time>2018-06-03T07:11:03.000Z</time>
      </trkpt>
      <trkpt lat="44.54303" lon="4.22592">
        <ele>594</ele>
        <time>2018-06-03T07:11:04.000Z</time>
      </trkpt>
      <trkpt lat="44.54305" lon="4.22593">
        <ele>594</ele>
        <time>2018-06-03T07:11:05.000Z</time>
      </trkpt>
      <trkpt lat="44.54307" lon="4.22594">
        <ele>594</ele>
        <time>2018-06-03T07:11:06.000Z</time>
      </trkpt>
      <trkpt lat="44.54309" lon="4.22595">
        <ele>594</ele>
        <time>2018-06-03T07:11:07.000Z</time>
      </trkpt>
      <trkpt lat="44.54311" lon="4.22596">
        <ele>594</ele>
        <time>2018-06-03T07:11:08.000Z</time>
      </trkpt>
      <trkpt lat="44.54314" lon="4.22596">
        <ele>595</ele>
        <time>2018-06-03T07:11:09.000Z</time>
      </trkpt>
      <trkpt lat="44.54316" lon="4.22597">
        <ele>595</ele>
        <time>2018-06-03T07:11:10.000Z</time>
      </trkpt>
      <trkpt lat="44.54318" lon="4.22598">
        <ele>595</ele>
        <time>2018-06-03T07:11:11.000Z</time>
      </trkpt>
      <trkpt lat="44.5432" lon="4.22599">
        <ele>595</ele>
        <time>2018-06-03T07:11:12.000Z</time>
      </trkpt>
      <trkpt lat="44.54323" lon="4.226">
        <ele>595</ele>
        <time>2018-06-03T07:11:13.000Z</time>
      </trkpt>
      <trkpt lat="44.54325" lon="4.226">
        <ele>595</ele>
        <time>2018-06-03T07:11:14.000Z</time>
      </trkpt>
      <trkpt lat="44.54327" lon="4.22601">
        <ele>595</ele>
        <time>2018-06-03T07:11:15.000Z</time>
      </trkpt>
      <trkpt lat="44.54329" lon="4.226">
        <ele>595</ele>
        <time>2018-06-03T07:11:16.000Z</time>
      </trkpt>
      <trkpt lat="44.54331" lon="4.226">
        <ele>595</ele>
        <time>2018-06-03T07:11:17.000Z</time>
      </trkpt>
      <trkpt lat="44.54333" lon="4.22599">
        <ele>596</ele>
        <time>2018-06-03T07:11:18.000Z</time>
      </trkpt>
      <trkpt lat="44.54335" lon="4.22597">
        <ele>598</ele>
        <time>2018-06-03T07:11:19.000Z</time>
      </trkpt>
      <trkpt lat="44.54336" lon="4.22595">
        <ele>598</ele>
        <time>2018-06-03T07:11:20.000Z</time>
      </trkpt>
      <trkpt lat="44.54338" lon="4.22593">
        <ele>599</ele>
        <time>2018-06-03T07:11:21.000Z</time>
      </trkpt>
      <trkpt lat="44.54339" lon="4.2259">
        <ele>599</ele>
        <time>2018-06-03T07:11:22.000Z</time>
      </trkpt>
      <trkpt lat="44.5434" lon="4.22588">
        <ele>599</ele>
        <time>2018-06-03T07:11:23.000Z</time>
      </trkpt>
      <trkpt lat="44.54341" lon="4.22586">
        <ele>599</ele>
        <time>2018-06-03T07:11:24.000Z</time>
      </trkpt>
      <trkpt lat="44.54342" lon="4.22585">
        <ele>599</ele>
        <time>2018-06-03T07:11:25.000Z</time>
      </trkpt>
      <trkpt lat="44.54344" lon="4.22583">
        <ele>603</ele>
        <time>2018-06-03T07:11:26.000Z</time>
      </trkpt>
      <trkpt lat="44.54345" lon="4.22581">
        <ele>603</ele>
        <time>2018-06-03T07:11:27.000Z</time>
      </trkpt>
      <trkpt lat="44.54348" lon="4.2258">
        <ele>604</ele>
        <time>2018-06-03T07:11:28.000Z</time>
      </trkpt>
      <trkpt lat="44.5435" lon="4.22579">
        <ele>604</ele>
        <time>2018-06-03T07:11:29.000Z</time>
      </trkpt>
      <trkpt lat="44.54352" lon="4.22578">
        <ele>605</ele>
        <time>2018-06-03T07:11:30.000Z</time>
      </trkpt>
      <trkpt lat="44.54354" lon="4.22578">
        <ele>605</ele>
        <time>2018-06-03T07:11:31.000Z</time>
      </trkpt>
      <trkpt lat="44.54357" lon="4.22578">
        <ele>605</ele>
        <time>2018-06-03T07:11:32.000Z</time>
      </trkpt>
      <trkpt lat="44.5436" lon="4.22578">
        <ele>606</ele>
        <time>2018-06-03T07:11:33.000Z</time>
      </trkpt>
      <trkpt lat="44.54363" lon="4.22578">
        <ele>606</ele>
        <time>2018-06-03T07:11:34.000Z</time>
      </trkpt>
      <trkpt lat="44.54366" lon="4.22578">
        <ele>607</ele>
        <time>2018-06-03T07:11:35.000Z</time>
      </trkpt>
      <trkpt lat="44.54369" lon="4.22578">
        <ele>607</ele>
        <time>2018-06-03T07:11:36.000Z</time>
      </trkpt>
      <trkpt lat="44.54371" lon="4.22579">
        <ele>607</ele>
        <time>2018-06-03T07:11:37.000Z</time>
      </trkpt>
      <trkpt lat="44.54374" lon="4.2258">
        <ele>607</ele>
        <time>2018-06-03T07:11:38.000Z</time>
      </trkpt>
      <trkpt lat="44.54375" lon="4.22581">
        <ele>607</ele>
        <time>2018-06-03T07:11:39.000Z</time>
      </trkpt>
      <trkpt lat="44.54376" lon="4.22583">
        <ele>607</ele>
        <time>2018-06-03T07:11:40.000Z</time>
      </trkpt>
      <trkpt lat="44.54377" lon="4.22585">
        <ele>600</ele>
        <time>2018-06-03T07:11:41.000Z</time>
      </trkpt>
      <trkpt lat="44.54378" lon="4.22588">
        <ele>600</ele>
        <time>2018-06-03T07:11:42.000Z</time>
      </trkpt>
      <trkpt lat="44.54378" lon="4.22591">
        <ele>600</ele>
        <time>2018-06-03T07:11:43.000Z</time>
      </trkpt>
      <trkpt lat="44.54379" lon="4.22594">
        <ele>600</ele>
        <time>2018-06-03T07:11:44.000Z</time>
      </trkpt>
      <trkpt lat="44.54379" lon="4.22597">
        <ele>600</ele>
        <time>2018-06-03T07:11:45.000Z</time>
      </trkpt>
      <trkpt lat="44.54379" lon="4.226">
        <ele>600</ele>
        <time>2018-06-03T07:11:46.000Z</time>
      </trkpt>
      <trkpt lat="44.5438" lon="4.22603">
        <ele>599</ele>
        <time>2018-06-03T07:11:47.000Z</time>
      </trkpt>
      <trkpt lat="44.54381" lon="4.22606">
        <ele>599</ele>
        <time>2018-06-03T07:11:48.000Z</time>
      </trkpt>
      <trkpt lat="44.54382" lon="4.22609">
        <ele>599</ele>
        <time>2018-06-03T07:11:49.000Z</time>
      </trkpt>
      <trkpt lat="44.54384" lon="4.22612">
        <ele>599</ele>
        <time>2018-06-03T07:11:50.000Z</time>
      </trkpt>
      <trkpt lat="44.54386" lon="4.22614">
        <ele>599</ele>
        <time>2018-06-03T07:11:51.000Z</time>
      </trkpt>
      <trkpt lat="44.54388" lon="4.22616">
        <ele>599</ele>
        <time>2018-06-03T07:11:52.000Z</time>
      </trkpt>
      <trkpt lat="44.5439" lon="4.22618">
        <ele>599</ele>
        <time>2018-06-03T07:11:53.000Z</time>
      </trkpt>
      <trkpt lat="44.54392" lon="4.2262">
        <ele>599</ele>
        <time>2018-06-03T07:11:54.000Z</time>
      </trkpt>
      <trkpt lat="44.54394" lon="4.22622">
        <ele>599</ele>
        <time>2018-06-03T07:11:55.000Z</time>
      </trkpt>
      <trkpt lat="44.54396" lon="4.22623">
        <ele>599</ele>
        <time>2018-06-03T07:11:56.000Z</time>
      </trkpt>
      <trkpt lat="44.54398" lon="4.22625">
        <ele>599</ele>
        <time>2018-06-03T07:11:57.000Z</time>
      </trkpt>
      <trkpt lat="44.544" lon="4.22627">
        <ele>598</ele>
        <time>2018-06-03T07:11:58.000Z</time>
      </trkpt>
      <trkpt lat="44.54402" lon="4.22628">
        <ele>598</ele>
        <time>2018-06-03T07:11:59.000Z</time>
      </trkpt>
      <trkpt lat="44.54404" lon="4.2263">
        <ele>598</ele>
        <time>2018-06-03T07:12:00.000Z</time>
      </trkpt>
      <trkpt lat="44.54405" lon="4.22632">
        <ele>598</ele>
        <time>2018-06-03T07:12:01.000Z</time>
      </trkpt>
      <trkpt lat="44.54407" lon="4.22633">
        <ele>598</ele>
        <time>2018-06-03T07:12:02.000Z</time>
      </trkpt>
      <trkpt lat="44.54409" lon="4.22635">
        <ele>598</ele>
        <time>2018-06-03T07:12:03.000Z</time>
      </trkpt>
      <trkpt lat="44.54411" lon="4.22636">
        <ele>598</ele>
        <time>2018-06-03T07:12:04.000Z</time>
      </trkpt>
      <trkpt lat="44.54413" lon="4.22638">
        <ele>598</ele>
        <time>2018-06-03T07:12:05.000Z</time>
      </trkpt>
      <trkpt lat="44.54415" lon="4.22639">
        <ele>597</ele>
        <time>2018-06-03T07:12:06.000Z</time>
      </trkpt>
      <trkpt lat="44.54417" lon="4.22642">
        <ele>603</ele>
        <time>2018-06-03T07:12:07.000Z</time>
      </trkpt>
      <trkpt lat="44.5442" lon="4.22644">
        <ele>603</ele>
        <time>2018-06-03T07:12:08.000Z</time>
      </trkpt>
      <trkpt lat="44.54421" lon="4.22646">
        <ele>603</ele>
        <time>2018-06-03T07:12:09.000Z</time>
      </trkpt>
      <trkpt lat="44.54424" lon="4.22648">
        <ele>602</ele>
        <time>2018-06-03T07:12:10.000Z</time>
      </trkpt>
      <trkpt lat="44.54426" lon="4.2265">
        <ele>602</ele>
        <time>2018-06-03T07:12:11.000Z</time>
      </trkpt>
      <trkpt lat="44.54429" lon="4.22651">
        <ele>602</ele>
        <time>2018-06-03T07:12:12.000Z</time>
      </trkpt>
      <trkpt lat="44.54431" lon="4.22653">
        <ele>603</ele>
        <time>2018-06-03T07:12:13.000Z</time>
      </trkpt>
      <trkpt lat="44.54434" lon="4.22654">
        <ele>603</ele>
        <time>2018-06-03T07:12:14.000Z</time>
      </trkpt>
      <trkpt lat="44.54436" lon="4.22655">
        <ele>603</ele>
        <time>2018-06-03T07:12:15.000Z</time>
      </trkpt>
      <trkpt lat="44.54439" lon="4.22656">
        <ele>604</ele>
        <time>2018-06-03T07:12:16.000Z</time>
      </trkpt>
      <trkpt lat="44.54441" lon="4.22658">
        <ele>604</ele>
        <time>2018-06-03T07:12:17.000Z</time>
      </trkpt>
      <trkpt lat="44.54444" lon="4.22659">
        <ele>605</ele>
        <time>2018-06-03T07:12:18.000Z</time>
      </trkpt>
      <trkpt lat="44.54446" lon="4.22661">
        <ele>605</ele>
        <time>2018-06-03T07:12:19.000Z</time>
      </trkpt>
      <trkpt lat="44.54448" lon="4.22663">
        <ele>606</ele>
        <time>2018-06-03T07:12:20.000Z</time>
      </trkpt>
      <trkpt lat="44.5445" lon="4.22665">
        <ele>606</ele>
        <time>2018-06-03T07:12:21.000Z</time>
      </trkpt>
      <trkpt lat="44.54452" lon="4.22667">
        <ele>601</ele>
        <time>2018-06-03T07:12:22.000Z</time>
      </trkpt>
      <trkpt lat="44.54454" lon="4.2267">
        <ele>602</ele>
        <time>2018-06-03T07:12:23.000Z</time>
      </trkpt>
      <trkpt lat="44.54456" lon="4.22673">
        <ele>602</ele>
        <time>2018-06-03T07:12:24.000Z</time>
      </trkpt>
      <trkpt lat="44.54458" lon="4.22676">
        <ele>602</ele>
        <time>2018-06-03T07:12:25.000Z</time>
      </trkpt>
      <trkpt lat="44.5446" lon="4.22678">
        <ele>603</ele>
        <time>2018-06-03T07:12:26.000Z</time>
      </trkpt>
      <trkpt lat="44.54462" lon="4.22681">
        <ele>603</ele>
        <time>2018-06-03T07:12:27.000Z</time>
      </trkpt>
      <trkpt lat="44.54463" lon="4.22684">
        <ele>603</ele>
        <time>2018-06-03T07:12:28.000Z</time>
      </trkpt>
      <trkpt lat="44.54465" lon="4.22687">
        <ele>603</ele>
        <time>2018-06-03T07:12:29.000Z</time>
      </trkpt>
      <trkpt lat="44.54467" lon="4.2269">
        <ele>603</ele>
        <time>2018-06-03T07:12:30.000Z</time>
      </trkpt>
      <trkpt lat="44.54469" lon="4.22693">
        <ele>603</ele>
        <time>2018-06-03T07:12:31.000Z</time>
      </trkpt>
      <trkpt lat="44.54471" lon="4.22696">
        <ele>604</ele>
        <time>2018-06-03T07:12:32.000Z</time>
      </trkpt>
      <trkpt lat="44.54472" lon="4.22699">
        <ele>604</ele>
        <time>2018-06-03T07:12:33.000Z</time>
      </trkpt>
      <trkpt lat="44.54474" lon="4.22702">
        <ele>604</ele>
        <time>2018-06-03T07:12:34.000Z</time>
      </trkpt>
      <trkpt lat="44.54476" lon="4.22705">
        <ele>604</ele>
        <time>2018-06-03T07:12:35.000Z</time>
      </trkpt>
      <trkpt lat="44.54478" lon="4.22708">
        <ele>604</ele>
        <time>2018-06-03T07:12:36.000Z</time>
      </trkpt>
      <trkpt lat="44.5448" lon="4.22711">
        <ele>604</ele>
        <time>2018-06-03T07:12:37.000Z</time>
      </trkpt>
      <trkpt lat="44.54481" lon="4.22714">
        <ele>604</ele>
        <time>2018-06-03T07:12:38.000Z</time>
      </trkpt>
      <trkpt lat="44.54483" lon="4.22717">
        <ele>604</ele>
        <time>2018-06-03T07:12:39.000Z</time>
      </trkpt>
      <trkpt lat="44.54485" lon="4.2272">
        <ele>605</ele>
        <time>2018-06-03T07:12:40.000Z</time>
      </trkpt>
      <trkpt lat="44.54487" lon="4.22723">
        <ele>605</ele>
        <time>2018-06-03T07:12:41.000Z</time>
      </trkpt>
      <trkpt lat="44.54489" lon="4.22726">
        <ele>605</ele>
        <time>2018-06-03T07:12:42.000Z</time>
      </trkpt>
      <trkpt lat="44.5449" lon="4.22728">
        <ele>606</ele>
        <time>2018-06-03T07:12:43.000Z</time>
      </trkpt>
      <trkpt lat="44.54492" lon="4.22731">
        <ele>606</ele>
        <time>2018-06-03T07:12:44.000Z</time>
      </trkpt>
      <trkpt lat="44.54494" lon="4.22734">
        <ele>607</ele>
        <time>2018-06-03T07:12:45.000Z</time>
      </trkpt>
      <trkpt lat="44.54495" lon="4.22737">
        <ele>608</ele>
        <time>2018-06-03T07:12:46.000Z</time>
      </trkpt>
      <trkpt lat="44.54496" lon="4.2274">
        <ele>608</ele>
        <time>2018-06-03T07:12:47.000Z</time>
      </trkpt>
      <trkpt lat="44.54496" lon="4.22744">
        <ele>609</ele>
        <time>2018-06-03T07:12:48.000Z</time>
      </trkpt>
      <trkpt lat="44.54496" lon="4.22747">
        <ele>610</ele>
        <time>2018-06-03T07:12:49.000Z</time>
      </trkpt>
      <trkpt lat="44.54497" lon="4.2275">
        <ele>610</ele>
        <time>2018-06-03T07:12:50.000Z</time>
      </trkpt>
      <trkpt lat="44.54497" lon="4.22754">
        <ele>610</ele>
        <time>2018-06-03T07:12:51.000Z</time>
      </trkpt>
      <trkpt lat="44.54497" lon="4.22756">
        <ele>608</ele>
        <time>2018-06-03T07:12:52.000Z</time>
      </trkpt>
      <trkpt lat="44.54496" lon="4.22759">
        <ele>607</ele>
        <time>2018-06-03T07:12:53.000Z</time>
      </trkpt>
      <trkpt lat="44.54496" lon="4.22763">
        <ele>606</ele>
        <time>2018-06-03T07:12:54.000Z</time>
      </trkpt>
      <trkpt lat="44.54497" lon="4.22766">
        <ele>606</ele>
        <time>2018-06-03T07:12:55.000Z</time>
      </trkpt>
      <trkpt lat="44.54497" lon="4.2277">
        <ele>605</ele>
        <time>2018-06-03T07:12:56.000Z</time>
      </trkpt>
      <trkpt lat="44.54498" lon="4.22773">
        <ele>604</ele>
        <time>2018-06-03T07:12:57.000Z</time>
      </trkpt>
      <trkpt lat="44.54498" lon="4.22776">
        <ele>604</ele>
        <time>2018-06-03T07:12:58.000Z</time>
      </trkpt>
      <trkpt lat="44.54498" lon="4.22779">
        <ele>603</ele>
        <time>2018-06-03T07:12:59.000Z</time>
      </trkpt>
      <trkpt lat="44.54499" lon="4.22781">
        <ele>603</ele>
        <time>2018-06-03T07:13:00.000Z</time>
      </trkpt>
      <trkpt lat="44.54499" lon="4.22784">
        <ele>603</ele>
        <time>2018-06-03T07:13:01.000Z</time>
      </trkpt>
      <trkpt lat="44.54499" lon="4.22787">
        <ele>603</ele>
        <time>2018-06-03T07:13:02.000Z</time>
      </trkpt>
      <trkpt lat="44.54499" lon="4.2279">
        <ele>603</ele>
        <time>2018-06-03T07:13:03.000Z</time>
      </trkpt>
      <trkpt lat="44.545" lon="4.22793">
        <ele>603</ele>
        <time>2018-06-03T07:13:04.000Z</time>
      </trkpt>
      <trkpt lat="44.545" lon="4.22796">
        <ele>621</ele>
        <time>2018-06-03T07:13:05.000Z</time>
      </trkpt>
      <trkpt lat="44.54501" lon="4.22799">
        <ele>621</ele>
        <time>2018-06-03T07:13:06.000Z</time>
      </trkpt>
      <trkpt lat="44.54501" lon="4.22802">
        <ele>621</ele>
        <time>2018-06-03T07:13:07.000Z</time>
      </trkpt>
      <trkpt lat="44.54501" lon="4.22806">
        <ele>620</ele>
        <time>2018-06-03T07:13:08.000Z</time>
      </trkpt>
      <trkpt lat="44.54502" lon="4.2281">
        <ele>620</ele>
        <time>2018-06-03T07:13:09.000Z</time>
      </trkpt>
      <trkpt lat="44.54502" lon="4.22813">
        <ele>619</ele>
        <time>2018-06-03T07:13:10.000Z</time>
      </trkpt>
      <trkpt lat="44.54502" lon="4.22817">
        <ele>618</ele>
        <time>2018-06-03T07:13:11.000Z</time>
      </trkpt>
      <trkpt lat="44.54503" lon="4.22821">
        <ele>617</ele>
        <time>2018-06-03T07:13:12.000Z</time>
      </trkpt>
      <trkpt lat="44.54503" lon="4.22824">
        <ele>616</ele>
        <time>2018-06-03T07:13:13.000Z</time>
      </trkpt>
      <trkpt lat="44.54503" lon="4.22828">
        <ele>614</ele>
        <time>2018-06-03T07:13:14.000Z</time>
      </trkpt>
      <trkpt lat="44.54504" lon="4.22832">
        <ele>613</ele>
        <time>2018-06-03T07:13:15.000Z</time>
      </trkpt>
      <trkpt lat="44.54505" lon="4.22836">
        <ele>614</ele>
        <time>2018-06-03T07:13:16.000Z</time>
      </trkpt>
      <trkpt lat="44.54506" lon="4.22839">
        <ele>615</ele>
        <time>2018-06-03T07:13:17.000Z</time>
      </trkpt>
      <trkpt lat="44.54507" lon="4.22843">
        <ele>616</ele>
        <time>2018-06-03T07:13:18.000Z</time>
      </trkpt>
      <trkpt lat="44.54508" lon="4.22846">
        <ele>617</ele>
        <time>2018-06-03T07:13:19.000Z</time>
      </trkpt>
      <trkpt lat="44.54509" lon="4.22848">
        <ele>617</ele>
        <time>2018-06-03T07:13:20.000Z</time>
      </trkpt>
      <trkpt lat="44.5451" lon="4.2285">
        <ele>618</ele>
        <time>2018-06-03T07:13:21.000Z</time>
      </trkpt>
      <trkpt lat="44.54511" lon="4.22851">
        <ele>618</ele>
        <time>2018-06-03T07:13:22.000Z</time>
      </trkpt>
      <trkpt lat="44.54513" lon="4.22853">
        <ele>619</ele>
        <time>2018-06-03T07:13:23.000Z</time>
      </trkpt>
      <trkpt lat="44.54514" lon="4.22855">
        <ele>619</ele>
        <time>2018-06-03T07:13:24.000Z</time>
      </trkpt>
      <trkpt lat="44.54515" lon="4.22857">
        <ele>619</ele>
        <time>2018-06-03T07:13:25.000Z</time>
      </trkpt>
      <trkpt lat="44.54516" lon="4.22858">
        <ele>620</ele>
        <time>2018-06-03T07:13:26.000Z</time>
      </trkpt>
      <trkpt lat="44.54517" lon="4.2286">
        <ele>620</ele>
        <time>2018-06-03T07:13:27.000Z</time>
      </trkpt>
      <trkpt lat="44.54517" lon="4.22862">
        <ele>620</ele>
        <time>2018-06-03T07:13:28.000Z</time>
      </trkpt>
      <trkpt lat="44.54518" lon="4.22865">
        <ele>620</ele>
        <time>2018-06-03T07:13:29.000Z</time>
      </trkpt>
      <trkpt lat="44.54518" lon="4.22868">
        <ele>620</ele>
        <time>2018-06-03T07:13:30.000Z</time>
      </trkpt>
      <trkpt lat="44.54518" lon="4.22872">
        <ele>620</ele>
        <time>2018-06-03T07:13:31.000Z</time>
      </trkpt>
      <trkpt lat="44.54518" lon="4.22876">
        <ele>620</ele>
        <time>2018-06-03T07:13:32.000Z</time>
      </trkpt>
      <trkpt lat="44.54518" lon="4.22881">
        <ele>620</ele>
        <time>2018-06-03T07:13:33.000Z</time>
      </trkpt>
      <trkpt lat="44.54517" lon="4.22885">
        <ele>620</ele>
        <time>2018-06-03T07:13:34.000Z</time>
      </trkpt>
      <trkpt lat="44.54517" lon="4.22889">
        <ele>620</ele>
        <time>2018-06-03T07:13:35.000Z</time>
      </trkpt>
      <trkpt lat="44.54516" lon="4.22894">
        <ele>619</ele>
        <time>2018-06-03T07:13:36.000Z</time>
      </trkpt>
      <trkpt lat="44.54515" lon="4.22898">
        <ele>618</ele>
        <time>2018-06-03T07:13:37.000Z</time>
      </trkpt>
      <trkpt lat="44.54513" lon="4.22902">
        <ele>618</ele>
        <time>2018-06-03T07:13:38.000Z</time>
      </trkpt>
      <trkpt lat="44.54512" lon="4.22906">
        <ele>617</ele>
        <time>2018-06-03T07:13:39.000Z</time>
      </trkpt>
      <trkpt lat="44.54511" lon="4.22911">
        <ele>616</ele>
        <time>2018-06-03T07:13:40.000Z</time>
      </trkpt>
      <trkpt lat="44.54509" lon="4.22915">
        <ele>615</ele>
        <time>2018-06-03T07:13:41.000Z</time>
      </trkpt>
      <trkpt lat="44.54508" lon="4.2292">
        <ele>613</ele>
        <time>2018-06-03T07:13:42.000Z</time>
      </trkpt>
      <trkpt lat="44.54506" lon="4.22924">
        <ele>613</ele>
        <time>2018-06-03T07:13:43.000Z</time>
      </trkpt>
      <trkpt lat="44.54505" lon="4.22929">
        <ele>613</ele>
        <time>2018-06-03T07:13:44.000Z</time>
      </trkpt>
      <trkpt lat="44.54504" lon="4.22933">
        <ele>613</ele>
        <time>2018-06-03T07:13:45.000Z</time>
      </trkpt>
      <trkpt lat="44.54503" lon="4.22938">
        <ele>613</ele>
        <time>2018-06-03T07:13:46.000Z</time>
      </trkpt>
      <trkpt lat="44.54502" lon="4.22942">
        <ele>614</ele>
        <time>2018-06-03T07:13:47.000Z</time>
      </trkpt>
      <trkpt lat="44.545" lon="4.22945">
        <ele>614</ele>
        <time>2018-06-03T07:13:48.000Z</time>
      </trkpt>
      <trkpt lat="44.545" lon="4.22948">
        <ele>614</ele>
        <time>2018-06-03T07:13:49.000Z</time>
      </trkpt>
      <trkpt lat="44.545" lon="4.22951">
        <ele>602</ele>
        <time>2018-06-03T07:13:50.000Z</time>
      </trkpt>
      <trkpt lat="44.545" lon="4.22953">
        <ele>602</ele>
        <time>2018-06-03T07:13:51.000Z</time>
      </trkpt>
      <trkpt lat="44.545" lon="4.22957">
        <ele>613</ele>
        <time>2018-06-03T07:13:52.000Z</time>
      </trkpt>
      <trkpt lat="44.54501" lon="4.22962">
        <ele>613</ele>
        <time>2018-06-03T07:13:53.000Z</time>
      </trkpt>
      <trkpt lat="44.54502" lon="4.22967">
        <ele>613</ele>
        <time>2018-06-03T07:13:54.000Z</time>
      </trkpt>
      <trkpt lat="44.54503" lon="4.22973">
        <ele>613</ele>
        <time>2018-06-03T07:13:55.000Z</time>
      </trkpt>
      <trkpt lat="44.54504" lon="4.22977">
        <ele>612</ele>
        <time>2018-06-03T07:13:56.000Z</time>
      </trkpt>
      <trkpt lat="44.54505" lon="4.22982">
        <ele>612</ele>
        <time>2018-06-03T07:13:57.000Z</time>
      </trkpt>
      <trkpt lat="44.54506" lon="4.22987">
        <ele>611</ele>
        <time>2018-06-03T07:13:58.000Z</time>
      </trkpt>
      <trkpt lat="44.54508" lon="4.22992">
        <ele>611</ele>
        <time>2018-06-03T07:13:59.000Z</time>
      </trkpt>
      <trkpt lat="44.54511" lon="4.22996">
        <ele>611</ele>
        <time>2018-06-03T07:14:00.000Z</time>
      </trkpt>
      <trkpt lat="44.54513" lon="4.22999">
        <ele>611</ele>
        <time>2018-06-03T07:14:01.000Z</time>
      </trkpt>
      <trkpt lat="44.54515" lon="4.23001">
        <ele>605</ele>
        <time>2018-06-03T07:14:02.000Z</time>
      </trkpt>
      <trkpt lat="44.54517" lon="4.23003">
        <ele>605</ele>
        <time>2018-06-03T07:14:03.000Z</time>
      </trkpt>
      <trkpt lat="44.54519" lon="4.23003">
        <ele>605</ele>
        <time>2018-06-03T07:14:04.000Z</time>
      </trkpt>
      <trkpt lat="44.54521" lon="4.23004">
        <ele>605</ele>
        <time>2018-06-03T07:14:05.000Z</time>
      </trkpt>
      <trkpt lat="44.54523" lon="4.23005">
        <ele>605</ele>
        <time>2018-06-03T07:14:06.000Z</time>
      </trkpt>
      <trkpt lat="44.54524" lon="4.23006">
        <ele>605</ele>
        <time>2018-06-03T07:14:07.000Z</time>
      </trkpt>
      <trkpt lat="44.54525" lon="4.23006">
        <ele>605</ele>
        <time>2018-06-03T07:14:08.000Z</time>
      </trkpt>
      <trkpt lat="44.54525" lon="4.23007">
        <ele>605</ele>
        <time>2018-06-03T07:14:09.000Z</time>
      </trkpt>
      <trkpt lat="44.54525" lon="4.23007">
        <ele>605</ele>
        <time>2018-06-03T07:14:10.000Z</time>
      </trkpt>
      <trkpt lat="44.54525" lon="4.23008">
        <ele>605</ele>
        <time>2018-06-03T07:14:11.000Z</time>
      </trkpt>
      <trkpt lat="44.54525" lon="4.23009">
        <ele>604</ele>
        <time>2018-06-03T07:14:12.000Z</time>
      </trkpt>
      <trkpt lat="44.54525" lon="4.23009">
        <ele>604</ele>
        <time>2018-06-03T07:14:13.000Z</time>
      </trkpt>
      <trkpt lat="44.54525" lon="4.2301">
        <ele>604</ele>
        <time>2018-06-03T07:14:14.000Z</time>
      </trkpt>
      <trkpt lat="44.54525" lon="4.2301">
        <ele>604</ele>
        <time>2018-06-03T07:14:15.000Z</time>
      </trkpt>
      <trkpt lat="44.54525" lon="4.23011">
        <ele>604</ele>
        <time>2018-06-03T07:14:16.000Z</time>
      </trkpt>
      <trkpt lat="44.54525" lon="4.23011">
        <ele>604</ele>
        <time>2018-06-03T07:14:17.000Z</time>
      </trkpt>
      <trkpt lat="44.54526" lon="4.23012">
        <ele>604</ele>
        <time>2018-06-03T07:14:18.000Z</time>
      </trkpt>
      <trkpt lat="44.54526" lon="4.23012">
        <ele>604</ele>
        <time>2018-06-03T07:14:19.000Z</time>
      </trkpt>
      <trkpt lat="44.54526" lon="4.23013">
        <ele>604</ele>
        <time>2018-06-03T07:14:20.000Z</time>
      </trkpt>
      <trkpt lat="44.54526" lon="4.23013">
        <ele>604</ele>
        <time>2018-06-03T07:14:21.000Z</time>
      </trkpt>
      <trkpt lat="44.54526" lon="4.23013">
        <ele>604</ele>
        <time>2018-06-03T07:14:22.000Z</time>
      </trkpt>
      <trkpt lat="44.54526" lon="4.23014">
        <ele>604</ele>
        <time>2018-06-03T07:14:23.000Z</time>
      </trkpt>
      <trkpt lat="44.54526" lon="4.23014">
        <ele>604</ele>
        <time>2018-06-03T07:14:24.000Z</time>
      </trkpt>
      <trkpt lat="44.54526" lon="4.23014">
        <ele>604</ele>
        <time>2018-06-03T07:14:25.000Z</time>
      </trkpt>
      <trkpt lat="44.54526" lon="4.23015">
        <ele>604</ele>
        <time>2018-06-03T07:14:26.000Z</time>
      </trkpt>
      <trkpt lat="44.54526" lon="4.23015">
        <ele>604</ele>
        <time>2018-06-03T07:14:27.000Z</time>
      </trkpt>
      <trkpt lat="44.54526" lon="4.23015">
        <ele>604</ele>
        <time>2018-06-03T07:14:28.000Z</time>
      </trkpt>
      <trkpt lat="44.54526" lon="4.23015">
        <ele>604</ele>
        <time>2018-06-03T07:14:29.000Z</time>
      </trkpt>
      <trkpt lat="44.54526" lon="4.23016">
        <ele>604</ele>
        <time>2018-06-03T07:14:30.000Z</time>
      </trkpt>
      <trkpt lat="44.54526" lon="4.23016">
        <ele>604</ele>
        <time>2018-06-03T07:14:31.000Z</time>
      </trkpt>
      <trkpt lat="44.54526" lon="4.23016">
        <ele>604</ele>
        <time>2018-06-03T07:14:32.000Z</time>
      </trkpt>
      <trkpt lat="44.54526" lon="4.23017">
        <ele>604</ele>
        <time>2018-06-03T07:14:33.000Z</time>
      </trkpt>
      <trkpt lat="44.54526" lon="4.23017">
        <ele>604</ele>
        <time>2018-06-03T07:14:34.000Z</time>
      </trkpt>
      <trkpt lat="44.54526" lon="4.23017">
        <ele>604</ele>
        <time>2018-06-03T07:14:35.000Z</time>
      </trkpt>
      <trkpt lat="44.54526" lon="4.23018">
        <ele>604</ele>
        <time>2018-06-03T07:14:36.000Z</time>
      </trkpt>
      <trkpt lat="44.54526" lon="4.23018">
        <ele>604</ele>
        <time>2018-06-03T07:14:37.000Z</time>
      </trkpt>
      <trkpt lat="44.54527" lon="4.23018">
        <ele>604</ele>
        <time>2018-06-03T07:14:38.000Z</time>
      </trkpt>
      <trkpt lat="44.54527" lon="4.23019">
        <ele>604</ele>
        <time>2018-06-03T07:14:39.000Z</time>
      </trkpt>
      <trkpt lat="44.54527" lon="4.23019">
        <ele>604</ele>
        <time>2018-06-03T07:14:40.000Z</time>
      </trkpt>
      <trkpt lat="44.54527" lon="4.23019">
        <ele>604</ele>
        <time>2018-06-03T07:14:41.000Z</time>
      </trkpt>
      <trkpt lat="44.54527" lon="4.23019">
        <ele>604</ele>
        <time>2018-06-03T07:14:42.000Z</time>
      </trkpt>
      <trkpt lat="44.54527" lon="4.2302">
        <ele>604</ele>
        <time>2018-06-03T07:14:43.000Z</time>
      </trkpt>
      <trkpt lat="44.54527" lon="4.2302">
        <ele>604</ele>
        <time>2018-06-03T07:14:44.000Z</time>
      </trkpt>
      <trkpt lat="44.54527" lon="4.2302">
        <ele>604</ele>
        <time>2018-06-03T07:14:45.000Z</time>
      </trkpt>
      <trkpt lat="44.54527" lon="4.23021">
        <ele>603</ele>
        <time>2018-06-03T07:14:46.000Z</time>
      </trkpt>
      <trkpt lat="44.54527" lon="4.23021">
        <ele>603</ele>
        <time>2018-06-03T07:14:47.000Z</time>
      </trkpt>
      <trkpt lat="44.54527" lon="4.23021">
        <ele>603</ele>
        <time>2018-06-03T07:14:48.000Z</time>
      </trkpt>
      <trkpt lat="44.54527" lon="4.23021">
        <ele>603</ele>
        <time>2018-06-03T07:14:49.000Z</time>
      </trkpt>
      <trkpt lat="44.54527" lon="4.23022">
        <ele>603</ele>
        <time>2018-06-03T07:14:50.000Z</time>
      </trkpt>
      <trkpt lat="44.54527" lon="4.23022">
        <ele>603</ele>
        <time>2018-06-03T07:14:51.000Z</time>
      </trkpt>
      <trkpt lat="44.54527" lon="4.23022">
        <ele>603</ele>
        <time>2018-06-03T07:14:52.000Z</time>
      </trkpt>
      <trkpt lat="44.54527" lon="4.23023">
        <ele>603</ele>
        <time>2018-06-03T07:14:53.000Z</time>
      </trkpt>
      <trkpt lat="44.54527" lon="4.23023">
        <ele>603</ele>
        <time>2018-06-03T07:14:54.000Z</time>
      </trkpt>
      <trkpt lat="44.54527" lon="4.23023">
        <ele>603</ele>
        <time>2018-06-03T07:14:55.000Z</time>
      </trkpt>
      <trkpt lat="44.54526" lon="4.23023">
        <ele>603</ele>
        <time>2018-06-03T07:14:56.000Z</time>
      </trkpt>
      <trkpt lat="44.54526" lon="4.23024">
        <ele>603</ele>
        <time>2018-06-03T07:14:57.000Z</time>
      </trkpt>
      <trkpt lat="44.54526" lon="4.23024">
        <ele>603</ele>
        <time>2018-06-03T07:14:58.000Z</time>
      </trkpt>
      <trkpt lat="44.54526" lon="4.23024">
        <ele>603</ele>
        <time>2018-06-03T07:14:59.000Z</time>
      </trkpt>
      <trkpt lat="44.54526" lon="4.23024">
        <ele>603</ele>
        <time>2018-06-03T07:15:00.000Z</time>
      </trkpt>
      <trkpt lat="44.54526" lon="4.23024">
        <ele>603</ele>
        <time>2018-06-03T07:15:01.000Z</time>
      </trkpt>
      <trkpt lat="44.54526" lon="4.23025">
        <ele>603</ele>
        <time>2018-06-03T07:15:02.000Z</time>
      </trkpt>
      <trkpt lat="44.54526" lon="4.23025">
        <ele>603</ele>
        <time>2018-06-03T07:15:03.000Z</time>
      </trkpt>
      <trkpt lat="44.54526" lon="4.23025">
        <ele>603</ele>
        <time>2018-06-03T07:15:04.000Z</time>
      </trkpt>
      <trkpt lat="44.54526" lon="4.23025">
        <ele>603</ele>
        <time>2018-06-03T07:15:05.000Z</time>
      </trkpt>
      <trkpt lat="44.54526" lon="4.23025">
        <ele>603</ele>
        <time>2018-06-03T07:15:06.000Z</time>
      </trkpt>
      <trkpt lat="44.54526" lon="4.23025">
        <ele>603</ele>
        <time>2018-06-03T07:15:07.000Z</time>
      </trkpt>
      <trkpt lat="44.54526" lon="4.23025">
        <ele>603</ele>
        <time>2018-06-03T07:15:08.000Z</time>
      </trkpt>
      <trkpt lat="44.54526" lon="4.23025">
        <ele>603</ele>
        <time>2018-06-03T07:15:09.000Z</time>
      </trkpt>
      <trkpt lat="44.54525" lon="4.23025">
        <ele>603</ele>
        <time>2018-06-03T07:15:10.000Z</time>
      </trkpt>
      <trkpt lat="44.54525" lon="4.23025">
        <ele>603</ele>
        <time>2018-06-03T07:15:11.000Z</time>
      </trkpt>
      <trkpt lat="44.54525" lon="4.23025">
        <ele>603</ele>
        <time>2018-06-03T07:15:12.000Z</time>
      </trkpt>
      <trkpt lat="44.54525" lon="4.23025">
        <ele>603</ele>
        <time>2018-06-03T07:15:13.000Z</time>
      </trkpt>
      <trkpt lat="44.54525" lon="4.23025">
        <ele>603</ele>
        <time>2018-06-03T07:15:14.000Z</time>
      </trkpt>
      <trkpt lat="44.54525" lon="4.23025">
        <ele>603</ele>
        <time>2018-06-03T07:15:15.000Z</time>
      </trkpt>
      <trkpt lat="44.54525" lon="4.23025">
        <ele>603</ele>
        <time>2018-06-03T07:15:16.000Z</time>
      </trkpt>
      <trkpt lat="44.54525" lon="4.23025">
        <ele>603</ele>
        <time>2018-06-03T07:15:17.000Z</time>
      </trkpt>
      <trkpt lat="44.54525" lon="4.23025">
        <ele>603</ele>
        <time>2018-06-03T07:15:18.000Z</time>
      </trkpt>
      <trkpt lat="44.54525" lon="4.23025">
        <ele>603</ele>
        <time>2018-06-03T07:15:19.000Z</time>
      </trkpt>
      <trkpt lat="44.54525" lon="4.23025">
        <ele>603</ele>
        <time>2018-06-03T07:15:20.000Z</time>
      </trkpt>
      <trkpt lat="44.54525" lon="4.23025">
        <ele>603</ele>
        <time>2018-06-03T07:15:21.000Z</time>
      </trkpt>
      <trkpt lat="44.54525" lon="4.23025">
        <ele>603</ele>
        <time>2018-06-03T07:15:22.000Z</time>
      </trkpt>
      <trkpt lat="44.54525" lon="4.23025">
        <ele>603</ele>
        <time>2018-06-03T07:15:23.000Z</time>
      </trkpt>
      <trkpt lat="44.54525" lon="4.23025">
        <ele>603</ele>
        <time>2018-06-03T07:15:24.000Z</time>
      </trkpt>
      <trkpt lat="44.54525" lon="4.23025">
        <ele>603</ele>
        <time>2018-06-03T07:15:25.000Z</time>
      </trkpt>
      <trkpt lat="44.54525" lon="4.23026">
        <ele>603</ele>
        <time>2018-06-03T07:15:26.000Z</time>
      </trkpt>
      <trkpt lat="44.54525" lon="4.23026">
        <ele>603</ele>
        <time>2018-06-03T07:15:27.000Z</time>
      </trkpt>
      <trkpt lat="44.54525" lon="4.23026">
        <ele>603</ele>
        <time>2018-06-03T07:15:28.000Z</time>
      </trkpt>
      <trkpt lat="44.54525" lon="4.23026">
        <ele>603</ele>
        <time>2018-06-03T07:15:29.000Z</time>
      </trkpt>
      <trkpt lat="44.54525" lon="4.23026">
        <ele>603</ele>
        <time>2018-06-03T07:15:30.000Z</time>
      </trkpt>
      <trkpt lat="44.54525" lon="4.23026">
        <ele>603</ele>
        <time>2018-06-03T07:15:31.000Z</time>
      </trkpt>
      <trkpt lat="44.54525" lon="4.23026">
        <ele>603</ele>
        <time>2018-06-03T07:15:32.000Z</time>
      </trkpt>
      <trkpt lat="44.54524" lon="4.23026">
        <ele>603</ele>
        <time>2018-06-03T07:15:33.000Z</time>
      </trkpt>
      <trkpt lat="44.54524" lon="4.23026">
        <ele>603</ele>
        <time>2018-06-03T07:15:34.000Z</time>
      </trkpt>
      <trkpt lat="44.54524" lon="4.23026">
        <ele>603</ele>
        <time>2018-06-03T07:15:35.000Z</time>
      </trkpt>
      <trkpt lat="44.54524" lon="4.23026">
        <ele>603</ele>
        <time>2018-06-03T07:15:36.000Z</time>
      </trkpt>
      <trkpt lat="44.54524" lon="4.23026">
        <ele>603</ele>
        <time>2018-06-03T07:15:37.000Z</time>
      </trkpt>
      <trkpt lat="44.54524" lon="4.23026">
        <ele>603</ele>
        <time>2018-06-03T07:15:38.000Z</time>
      </trkpt>
      <trkpt lat="44.54524" lon="4.23026">
        <ele>603</ele>
        <time>2018-06-03T07:15:39.000Z</time>
      </trkpt>
      <trkpt lat="44.54524" lon="4.23027">
        <ele>603</ele>
        <time>2018-06-03T07:15:40.000Z</time>
      </trkpt>
      <trkpt lat="44.54524" lon="4.23027">
        <ele>603</ele>
        <time>2018-06-03T07:15:41.000Z</time>
      </trkpt>
      <trkpt lat="44.54524" lon="4.23027">
        <ele>603</ele>
        <time>2018-06-03T07:15:42.000Z</time>
      </trkpt>
      <trkpt lat="44.54524" lon="4.23027">
        <ele>603</ele>
        <time>2018-06-03T07:15:43.000Z</time>
      </trkpt>
      <trkpt lat="44.54524" lon="4.23027">
        <ele>603</ele>
        <time>2018-06-03T07:15:44.000Z</time>
      </trkpt>
      <trkpt lat="44.54524" lon="4.23027">
        <ele>603</ele>
        <time>2018-06-03T07:15:45.000Z</time>
      </trkpt>
      <trkpt lat="44.54524" lon="4.23027">
        <ele>603</ele>
        <time>2018-06-03T07:15:46.000Z</time>
      </trkpt>
      <trkpt lat="44.54524" lon="4.23027">
        <ele>603</ele>
        <time>2018-06-03T07:15:47.000Z</time>
      </trkpt>
      <trkpt lat="44.54524" lon="4.23027">
        <ele>603</ele>
        <time>2018-06-03T07:15:48.000Z</time>
      </trkpt>
      <trkpt lat="44.54524" lon="4.23027">
        <ele>603</ele>
        <time>2018-06-03T07:15:49.000Z</time>
      </trkpt>
      <trkpt lat="44.54523" lon="4.23027">
        <ele>603</ele>
        <time>2018-06-03T07:15:50.000Z</time>
      </trkpt>
      <trkpt lat="44.54523" lon="4.23027">
        <ele>603</ele>
        <time>2018-06-03T07:15:51.000Z</time>
      </trkpt>
      <trkpt lat="44.54523" lon="4.23027">
        <ele>603</ele>
        <time>2018-06-03T07:15:52.000Z</time>
      </trkpt>
      <trkpt lat="44.54523" lon="4.23027">
        <ele>603</ele>
        <time>2018-06-03T07:15:53.000Z</time>
      </trkpt>
      <trkpt lat="44.54523" lon="4.23027">
        <ele>603</ele>
        <time>2018-06-03T07:15:54.000Z</time>
      </trkpt>
      <trkpt lat="44.54523" lon="4.23027">
        <ele>603</ele>
        <time>2018-06-03T07:15:55.000Z</time>
      </trkpt>
      <trkpt lat="44.54523" lon="4.23027">
        <ele>603</ele>
        <time>2018-06-03T07:15:56.000Z</time>
      </trkpt>
      <trkpt lat="44.54523" lon="4.23026">
        <ele>603</ele>
        <time>2018-06-03T07:15:57.000Z</time>
      </trkpt>
      <trkpt lat="44.54523" lon="4.23026">
        <ele>603</ele>
        <time>2018-06-03T07:15:58.000Z</time>
      </trkpt>
      <trkpt lat="44.54523" lon="4.23026">
        <ele>603</ele>
        <time>2018-06-03T07:15:59.000Z</time>
      </trkpt>
      <trkpt lat="44.54523" lon="4.23026">
        <ele>603</ele>
        <time>2018-06-03T07:16:00.000Z</time>
      </trkpt>
      <trkpt lat="44.54523" lon="4.23026">
        <ele>603</ele>
        <time>2018-06-03T07:16:01.000Z</time>
      </trkpt>
      <trkpt lat="44.54523" lon="4.23026">
        <ele>603</ele>
        <time>2018-06-03T07:16:02.000Z</time>
      </trkpt>
      <trkpt lat="44.54523" lon="4.23026">
        <ele>603</ele>
        <time>2018-06-03T07:16:03.000Z</time>
      </trkpt>
      <trkpt lat="44.54523" lon="4.23026">
        <ele>603</ele>
        <time>2018-06-03T07:16:04.000Z</time>
      </trkpt>
      <trkpt lat="44.54523" lon="4.23026">
        <ele>603</ele>
        <time>2018-06-03T07:16:05.000Z</time>
      </trkpt>
      <trkpt lat="44.54523" lon="4.23025">
        <ele>603</ele>
        <time>2018-06-03T07:16:06.000Z</time>
      </trkpt>
      <trkpt lat="44.54523" lon="4.23025">
        <ele>603</ele>
        <time>2018-06-03T07:16:07.000Z</time>
      </trkpt>
      <trkpt lat="44.54523" lon="4.23025">
        <ele>603</ele>
        <time>2018-06-03T07:16:08.000Z</time>
      </trkpt>
      <trkpt lat="44.54523" lon="4.23025">
        <ele>603</ele>
        <time>2018-06-03T07:16:09.000Z</time>
      </trkpt>
      <trkpt lat="44.54523" lon="4.23025">
        <ele>603</ele>
        <time>2018-06-03T07:16:10.000Z</time>
      </trkpt>
      <trkpt lat="44.54523" lon="4.23025">
        <ele>603</ele>
        <time>2018-06-03T07:16:11.000Z</time>
      </trkpt>
      <trkpt lat="44.54523" lon="4.23024">
        <ele>603</ele>
        <time>2018-06-03T07:16:12.000Z</time>
      </trkpt>
      <trkpt lat="44.54523" lon="4.23024">
        <ele>603</ele>
        <time>2018-06-03T07:16:13.000Z</time>
      </trkpt>
      <trkpt lat="44.54523" lon="4.23024">
        <ele>603</ele>
        <time>2018-06-03T07:16:14.000Z</time>
      </trkpt>
      <trkpt lat="44.54523" lon="4.23024">
        <ele>603</ele>
        <time>2018-06-03T07:16:15.000Z</time>
      </trkpt>
      <trkpt lat="44.54523" lon="4.23024">
        <ele>603</ele>
        <time>2018-06-03T07:16:16.000Z</time>
      </trkpt>
      <trkpt lat="44.54522" lon="4.23023">
        <ele>603</ele>
        <time>2018-06-03T07:16:17.000Z</time>
      </trkpt>
      <trkpt lat="44.54522" lon="4.23023">
        <ele>603</ele>
        <time>2018-06-03T07:16:18.000Z</time>
      </trkpt>
      <trkpt lat="44.54522" lon="4.23023">
        <ele>603</ele>
        <time>2018-06-03T07:16:19.000Z</time>
      </trkpt>
      <trkpt lat="44.54522" lon="4.23023">
        <ele>603</ele>
        <time>2018-06-03T07:16:20.000Z</time>
      </trkpt>
      <trkpt lat="44.54522" lon="4.23023">
        <ele>603</ele>
        <time>2018-06-03T07:16:21.000Z</time>
      </trkpt>
      <trkpt lat="44.54522" lon="4.23022">
        <ele>603</ele>
        <time>2018-06-03T07:16:22.000Z</time>
      </trkpt>
      <trkpt lat="44.54522" lon="4.23022">
        <ele>603</ele>
        <time>2018-06-03T07:16:23.000Z</time>
      </trkpt>
      <trkpt lat="44.54522" lon="4.23022">
        <ele>603</ele>
        <time>2018-06-03T07:16:24.000Z</time>
      </trkpt>
      <trkpt lat="44.54522" lon="4.23022">
        <ele>603</ele>
        <time>2018-06-03T07:16:25.000Z</time>
      </trkpt>
      <trkpt lat="44.54522" lon="4.23022">
        <ele>603</ele>
        <time>2018-06-03T07:16:26.000Z</time>
      </trkpt>
      <trkpt lat="44.54522" lon="4.23021">
        <ele>603</ele>
        <time>2018-06-03T07:16:27.000Z</time>
      </trkpt>
      <trkpt lat="44.54521" lon="4.23021">
        <ele>603</ele>
        <time>2018-06-03T07:16:28.000Z</time>
      </trkpt>
      <trkpt lat="44.54521" lon="4.23021">
        <ele>604</ele>
        <time>2018-06-03T07:16:29.000Z</time>
      </trkpt>
      <trkpt lat="44.54521" lon="4.23021">
        <ele>604</ele>
        <time>2018-06-03T07:16:30.000Z</time>
      </trkpt>
      <trkpt lat="44.54521" lon="4.23021">
        <ele>604</ele>
        <time>2018-06-03T07:16:31.000Z</time>
      </trkpt>
      <trkpt lat="44.54521" lon="4.23021">
        <ele>604</ele>
        <time>2018-06-03T07:16:32.000Z</time>
      </trkpt>
      <trkpt lat="44.54521" lon="4.23021">
        <ele>604</ele>
        <time>2018-06-03T07:16:33.000Z</time>
      </trkpt>
      <trkpt lat="44.54521" lon="4.2302">
        <ele>604</ele>
        <time>2018-06-03T07:16:34.000Z</time>
      </trkpt>
      <trkpt lat="44.54521" lon="4.2302">
        <ele>604</ele>
        <time>2018-06-03T07:16:35.000Z</time>
      </trkpt>
      <trkpt lat="44.54521" lon="4.2302">
        <ele>604</ele>
        <time>2018-06-03T07:16:36.000Z</time>
      </trkpt>
      <trkpt lat="44.54521" lon="4.2302">
        <ele>604</ele>
        <time>2018-06-03T07:16:37.000Z</time>
      </trkpt>
      <trkpt lat="44.54521" lon="4.2302">
        <ele>604</ele>
        <time>2018-06-03T07:16:38.000Z</time>
      </trkpt>
      <trkpt lat="44.54521" lon="4.2302">
        <ele>604</ele>
        <time>2018-06-03T07:16:39.000Z</time>
      </trkpt>
      <trkpt lat="44.54521" lon="4.2302">
        <ele>604</ele>
        <time>2018-06-03T07:16:40.000Z</time>
      </trkpt>
      <trkpt lat="44.54521" lon="4.2302">
        <ele>604</ele>
        <time>2018-06-03T07:16:41.000Z</time>
      </trkpt>
      <trkpt lat="44.54521" lon="4.23019">
        <ele>604</ele>
        <time>2018-06-03T07:16:42.000Z</time>
      </trkpt>
      <trkpt lat="44.54521" lon="4.23019">
        <ele>604</ele>
        <time>2018-06-03T07:16:43.000Z</time>
      </trkpt>
      <trkpt lat="44.54521" lon="4.23019">
        <ele>604</ele>
        <time>2018-06-03T07:16:44.000Z</time>
      </trkpt>
      <trkpt lat="44.54521" lon="4.23019">
        <ele>604</ele>
        <time>2018-06-03T07:16:45.000Z</time>
      </trkpt>
      <trkpt lat="44.54521" lon="4.23019">
        <ele>604</ele>
        <time>2018-06-03T07:16:46.000Z</time>
      </trkpt>
      <trkpt lat="44.54521" lon="4.23019">
        <ele>604</ele>
        <time>2018-06-03T07:16:47.000Z</time>
      </trkpt>
      <trkpt lat="44.54521" lon="4.23019">
        <ele>604</ele>
        <time>2018-06-03T07:16:48.000Z</time>
      </trkpt>
      <trkpt lat="44.5452" lon="4.23019">
        <ele>604</ele>
        <time>2018-06-03T07:16:49.000Z</time>
      </trkpt>
      <trkpt lat="44.5452" lon="4.23019">
        <ele>604</ele>
        <time>2018-06-03T07:16:50.000Z</time>
      </trkpt>
      <trkpt lat="44.5452" lon="4.23019">
        <ele>604</ele>
        <time>2018-06-03T07:16:51.000Z</time>
      </trkpt>
      <trkpt lat="44.5452" lon="4.23019">
        <ele>604</ele>
        <time>2018-06-03T07:16:52.000Z</time>
      </trkpt>
      <trkpt lat="44.5452" lon="4.23019">
        <ele>604</ele>
        <time>2018-06-03T07:16:53.000Z</time>
      </trkpt>
      <trkpt lat="44.5452" lon="4.23019">
        <ele>604</ele>
        <time>2018-06-03T07:16:54.000Z</time>
      </trkpt>
      <trkpt lat="44.5452" lon="4.23019">
        <ele>604</ele>
        <time>2018-06-03T07:16:55.000Z</time>
      </trkpt>
      <trkpt lat="44.5452" lon="4.23019">
        <ele>604</ele>
        <time>2018-06-03T07:16:56.000Z</time>
      </trkpt>
      <trkpt lat="44.5452" lon="4.23019">
        <ele>604</ele>
        <time>2018-06-03T07:16:57.000Z</time>
      </trkpt>
      <trkpt lat="44.5452" lon="4.23019">
        <ele>604</ele>
        <time>2018-06-03T07:16:58.000Z</time>
      </trkpt>
      <trkpt lat="44.5452" lon="4.23019">
        <ele>604</ele>
        <time>2018-06-03T07:16:59.000Z</time>
      </trkpt>
      <trkpt lat="44.5452" lon="4.23019">
        <ele>604</ele>
        <time>2018-06-03T07:17:00.000Z</time>
      </trkpt>
      <trkpt lat="44.5452" lon="4.23019">
        <ele>604</ele>
        <time>2018-06-03T07:17:01.000Z</time>
      </trkpt>
      <trkpt lat="44.5452" lon="4.23019">
        <ele>604</ele>
        <time>2018-06-03T07:17:02.000Z</time>
      </trkpt>
      <trkpt lat="44.5452" lon="4.23019">
        <ele>604</ele>
        <time>2018-06-03T07:17:03.000Z</time>
      </trkpt>
      <trkpt lat="44.5452" lon="4.23019">
        <ele>604</ele>
        <time>2018-06-03T07:17:04.000Z</time>
      </trkpt>
      <trkpt lat="44.5452" lon="4.23019">
        <ele>604</ele>
        <time>2018-06-03T07:17:05.000Z</time>
      </trkpt>
      <trkpt lat="44.5452" lon="4.23019">
        <ele>604</ele>
        <time>2018-06-03T07:17:06.000Z</time>
      </trkpt>
      <trkpt lat="44.5452" lon="4.23019">
        <ele>604</ele>
        <time>2018-06-03T07:17:07.000Z</time>
      </trkpt>
      <trkpt lat="44.5452" lon="4.23019">
        <ele>604</ele>
        <time>2018-06-03T07:17:08.000Z</time>
      </trkpt>
      <trkpt lat="44.5452" lon="4.23019">
        <ele>604</ele>
        <time>2018-06-03T07:17:09.000Z</time>
      </trkpt>
      <trkpt lat="44.5452" lon="4.23019">
        <ele>604</ele>
        <time>2018-06-03T07:17:10.000Z</time>
      </trkpt>
      <trkpt lat="44.5452" lon="4.23019">
        <ele>604</ele>
        <time>2018-06-03T07:17:11.000Z</time>
      </trkpt>
      <trkpt lat="44.5452" lon="4.23019">
        <ele>604</ele>
        <time>2018-06-03T07:17:12.000Z</time>
      </trkpt>
      <trkpt lat="44.5452" lon="4.23019">
        <ele>604</ele>
        <time>2018-06-03T07:17:13.000Z</time>
      </trkpt>
      <trkpt lat="44.5452" lon="4.23019">
        <ele>604</ele>
        <time>2018-06-03T07:17:14.000Z</time>
      </trkpt>
      <trkpt lat="44.5452" lon="4.23019">
        <ele>604</ele>
        <time>2018-06-03T07:17:15.000Z</time>
      </trkpt>
      <trkpt lat="44.5452" lon="4.23019">
        <ele>604</ele>
        <time>2018-06-03T07:17:16.000Z</time>
      </trkpt>
      <trkpt lat="44.5452" lon="4.23018">
        <ele>604</ele>
        <time>2018-06-03T07:17:17.000Z</time>
      </trkpt>
      <trkpt lat="44.5452" lon="4.23018">
        <ele>604</ele>
        <time>2018-06-03T07:17:18.000Z</time>
      </trkpt>
      <trkpt lat="44.5452" lon="4.23018">
        <ele>604</ele>
        <time>2018-06-03T07:17:19.000Z</time>
      </trkpt>
      <trkpt lat="44.54519" lon="4.23018">
        <ele>604</ele>
        <time>2018-06-03T07:17:20.000Z</time>
      </trkpt>
      <trkpt lat="44.54519" lon="4.23018">
        <ele>604</ele>
        <time>2018-06-03T07:17:21.000Z</time>
      </trkpt>
      <trkpt lat="44.54519" lon="4.23018">
        <ele>604</ele>
        <time>2018-06-03T07:17:22.000Z</time>
      </trkpt>
      <trkpt lat="44.54519" lon="4.23018">
        <ele>604</ele>
        <time>2018-06-03T07:17:23.000Z</time>
      </trkpt>
      <trkpt lat="44.54519" lon="4.23018">
        <ele>604</ele>
        <time>2018-06-03T07:17:24.000Z</time>
      </trkpt>
      <trkpt lat="44.54519" lon="4.23018">
        <ele>604</ele>
        <time>2018-06-03T07:17:25.000Z</time>
      </trkpt>
      <trkpt lat="44.54519" lon="4.23018">
        <ele>604</ele>
        <time>2018-06-03T07:17:26.000Z</time>
      </trkpt>
      <trkpt lat="44.54519" lon="4.23018">
        <ele>604</ele>
        <time>2018-06-03T07:17:27.000Z</time>
      </trkpt>
      <trkpt lat="44.54519" lon="4.23018">
        <ele>604</ele>
        <time>2018-06-03T07:17:28.000Z</time>
      </trkpt>
      <trkpt lat="44.54519" lon="4.23018">
        <ele>604</ele>
        <time>2018-06-03T07:17:29.000Z</time>
      </trkpt>
      <trkpt lat="44.54519" lon="4.23018">
        <ele>604</ele>
        <time>2018-06-03T07:17:30.000Z</time>
      </trkpt>
      <trkpt lat="44.54519" lon="4.23018">
        <ele>604</ele>
        <time>2018-06-03T07:17:31.000Z</time>
      </trkpt>
      <trkpt lat="44.54519" lon="4.23018">
        <ele>604</ele>
        <time>2018-06-03T07:17:32.000Z</time>
      </trkpt>
      <trkpt lat="44.54519" lon="4.23018">
        <ele>604</ele>
        <time>2018-06-03T07:17:33.000Z</time>
      </trkpt>
      <trkpt lat="44.54518" lon="4.23018">
        <ele>604</ele>
        <time>2018-06-03T07:17:34.000Z</time>
      </trkpt>
      <trkpt lat="44.54518" lon="4.23018">
        <ele>604</ele>
        <time>2018-06-03T07:17:35.000Z</time>
      </trkpt>
      <trkpt lat="44.54518" lon="4.23018">
        <ele>604</ele>
        <time>2018-06-03T07:17:36.000Z</time>
      </trkpt>
      <trkpt lat="44.54518" lon="4.23018">
        <ele>604</ele>
        <time>2018-06-03T07:17:37.000Z</time>
      </trkpt>
      <trkpt lat="44.54518" lon="4.23018">
        <ele>604</ele>
        <time>2018-06-03T07:17:38.000Z</time>
      </trkpt>
      <trkpt lat="44.54518" lon="4.23018">
        <ele>604</ele>
        <time>2018-06-03T07:17:39.000Z</time>
      </trkpt>
      <trkpt lat="44.54518" lon="4.23018">
        <ele>604</ele>
        <time>2018-06-03T07:17:40.000Z</time>
      </trkpt>
      <trkpt lat="44.54518" lon="4.23018">
        <ele>604</ele>
        <time>2018-06-03T07:17:41.000Z</time>
      </trkpt>
      <trkpt lat="44.54518" lon="4.23018">
        <ele>604</ele>
        <time>2018-06-03T07:17:42.000Z</time>
      </trkpt>
      <trkpt lat="44.54518" lon="4.23018">
        <ele>604</ele>
        <time>2018-06-03T07:17:43.000Z</time>
      </trkpt>
      <trkpt lat="44.54518" lon="4.23018">
        <ele>604</ele>
        <time>2018-06-03T07:17:44.000Z</time>
      </trkpt>
      <trkpt lat="44.54518" lon="4.23018">
        <ele>604</ele>
        <time>2018-06-03T07:17:45.000Z</time>
      </trkpt>
      <trkpt lat="44.54517" lon="4.23018">
        <ele>604</ele>
        <time>2018-06-03T07:17:46.000Z</time>
      </trkpt>
      <trkpt lat="44.54517" lon="4.23018">
        <ele>604</ele>
        <time>2018-06-03T07:17:47.000Z</time>
      </trkpt>
      <trkpt lat="44.54517" lon="4.23018">
        <ele>604</ele>
        <time>2018-06-03T07:17:48.000Z</time>
      </trkpt>
      <trkpt lat="44.54517" lon="4.23018">
        <ele>604</ele>
        <time>2018-06-03T07:17:49.000Z</time>
      </trkpt>
      <trkpt lat="44.54517" lon="4.23018">
        <ele>604</ele>
        <time>2018-06-03T07:17:50.000Z</time>
      </trkpt>
      <trkpt lat="44.54517" lon="4.23018">
        <ele>604</ele>
        <time>2018-06-03T07:17:51.000Z</time>
      </trkpt>
      <trkpt lat="44.54517" lon="4.23018">
        <ele>604</ele>
        <time>2018-06-03T07:17:52.000Z</time>
      </trkpt>
      <trkpt lat="44.54517" lon="4.23018">
        <ele>604</ele>
        <time>2018-06-03T07:17:53.000Z</time>
      </trkpt>
      <trkpt lat="44.54517" lon="4.23018">
        <ele>604</ele>
        <time>2018-06-03T07:17:54.000Z</time>
      </trkpt>
      <trkpt lat="44.54517" lon="4.23018">
        <ele>604</ele>
        <time>2018-06-03T07:17:55.000Z</time>
      </trkpt>
      <trkpt lat="44.54517" lon="4.23018">
        <ele>604</ele>
        <time>2018-06-03T07:17:56.000Z</time>
      </trkpt>
      <trkpt lat="44.54516" lon="4.23018">
        <ele>604</ele>
        <time>2018-06-03T07:17:57.000Z</time>
      </trkpt>
      <trkpt lat="44.54516" lon="4.23018">
        <ele>604</ele>
        <time>2018-06-03T07:17:58.000Z</time>
      </trkpt>
      <trkpt lat="44.54516" lon="4.23018">
        <ele>604</ele>
        <time>2018-06-03T07:17:59.000Z</time>
      </trkpt>
      <trkpt lat="44.54516" lon="4.23018">
        <ele>604</ele>
        <time>2018-06-03T07:18:00.000Z</time>
      </trkpt>
      <trkpt lat="44.54516" lon="4.23018">
        <ele>604</ele>
        <time>2018-06-03T07:18:01.000Z</time>
      </trkpt>
      <trkpt lat="44.54516" lon="4.23018">
        <ele>604</ele>
        <time>2018-06-03T07:18:02.000Z</time>
      </trkpt>
      <trkpt lat="44.54516" lon="4.23018">
        <ele>604</ele>
        <time>2018-06-03T07:18:03.000Z</time>
      </trkpt>
      <trkpt lat="44.54516" lon="4.23018">
        <ele>604</ele>
        <time>2018-06-03T07:18:04.000Z</time>
      </trkpt>
      <trkpt lat="44.54516" lon="4.23018">
        <ele>604</ele>
        <time>2018-06-03T07:18:05.000Z</time>
      </trkpt>
      <trkpt lat="44.54516" lon="4.23018">
        <ele>604</ele>
        <time>2018-06-03T07:18:06.000Z</time>
      </trkpt>
      <trkpt lat="44.54516" lon="4.23018">
        <ele>604</ele>
        <time>2018-06-03T07:18:07.000Z</time>
      </trkpt>
      <trkpt lat="44.54516" lon="4.23018">
        <ele>604</ele>
        <time>2018-06-03T07:18:08.000Z</time>
      </trkpt>
      <trkpt lat="44.54516" lon="4.23018">
        <ele>604</ele>
        <time>2018-06-03T07:18:09.000Z</time>
      </trkpt>
      <trkpt lat="44.54516" lon="4.23018">
        <ele>604</ele>
        <time>2018-06-03T07:18:10.000Z</time>
      </trkpt>
      <trkpt lat="44.54516" lon="4.23018">
        <ele>604</ele>
        <time>2018-06-03T07:18:11.000Z</time>
      </trkpt>
      <trkpt lat="44.54516" lon="4.23018">
        <ele>604</ele>
        <time>2018-06-03T07:18:12.000Z</time>
      </trkpt>
      <trkpt lat="44.54516" lon="4.23018">
        <ele>604</ele>
        <time>2018-06-03T07:18:13.000Z</time>
      </trkpt>
      <trkpt lat="44.54515" lon="4.23018">
        <ele>604</ele>
        <time>2018-06-03T07:18:14.000Z</time>
      </trkpt>
      <trkpt lat="44.54515" lon="4.23018">
        <ele>604</ele>
        <time>2018-06-03T07:18:15.000Z</time>
      </trkpt>
      <trkpt lat="44.54515" lon="4.23018">
        <ele>604</ele>
        <time>2018-06-03T07:18:16.000Z</time>
      </trkpt>
      <trkpt lat="44.54515" lon="4.23018">
        <ele>604</ele>
        <time>2018-06-03T07:18:17.000Z</time>
      </trkpt>
      <trkpt lat="44.54515" lon="4.23018">
        <ele>604</ele>
        <time>2018-06-03T07:18:18.000Z</time>
      </trkpt>
      <trkpt lat="44.54515" lon="4.23018">
        <ele>604</ele>
        <time>2018-06-03T07:18:19.000Z</time>
      </trkpt>
      <trkpt lat="44.54515" lon="4.23018">
        <ele>604</ele>
        <time>2018-06-03T07:18:20.000Z</time>
      </trkpt>
      <trkpt lat="44.54515" lon="4.23018">
        <ele>604</ele>
        <time>2018-06-03T07:18:21.000Z</time>
      </trkpt>
      <trkpt lat="44.54515" lon="4.23018">
        <ele>604</ele>
        <time>2018-06-03T07:18:22.000Z</time>
      </trkpt>
      <trkpt lat="44.54515" lon="4.23018">
        <ele>604</ele>
        <time>2018-06-03T07:18:23.000Z</time>
      </trkpt>
      <trkpt lat="44.54515" lon="4.23018">
        <ele>604</ele>
        <time>2018-06-03T07:18:24.000Z</time>
      </trkpt>
      <trkpt lat="44.54514" lon="4.23018">
        <ele>604</ele>
        <time>2018-06-03T07:18:25.000Z</time>
      </trkpt>
      <trkpt lat="44.54514" lon="4.23018">
        <ele>604</ele>
        <time>2018-06-03T07:18:26.000Z</time>
      </trkpt>
      <trkpt lat="44.54514" lon="4.23018">
        <ele>604</ele>
        <time>2018-06-03T07:18:27.000Z</time>
      </trkpt>
      <trkpt lat="44.54514" lon="4.23018">
        <ele>604</ele>
        <time>2018-06-03T07:18:28.000Z</time>
      </trkpt>
      <trkpt lat="44.54514" lon="4.23019">
        <ele>604</ele>
        <time>2018-06-03T07:18:29.000Z</time>
      </trkpt>
      <trkpt lat="44.54514" lon="4.23019">
        <ele>604</ele>
        <time>2018-06-03T07:18:30.000Z</time>
      </trkpt>
      <trkpt lat="44.54514" lon="4.23019">
        <ele>604</ele>
        <time>2018-06-03T07:18:31.000Z</time>
      </trkpt>
      <trkpt lat="44.54514" lon="4.23019">
        <ele>604</ele>
        <time>2018-06-03T07:18:32.000Z</time>
      </trkpt>
      <trkpt lat="44.54514" lon="4.23019">
        <ele>604</ele>
        <time>2018-06-03T07:18:33.000Z</time>
      </trkpt>
      <trkpt lat="44.54514" lon="4.23019">
        <ele>604</ele>
        <time>2018-06-03T07:18:34.000Z</time>
      </trkpt>
      <trkpt lat="44.54514" lon="4.23019">
        <ele>604</ele>
        <time>2018-06-03T07:18:35.000Z</time>
      </trkpt>
      <trkpt lat="44.54514" lon="4.23019">
        <ele>604</ele>
        <time>2018-06-03T07:18:36.000Z</time>
      </trkpt>
      <trkpt lat="44.54514" lon="4.23019">
        <ele>604</ele>
        <time>2018-06-03T07:18:37.000Z</time>
      </trkpt>
      <trkpt lat="44.54514" lon="4.23019">
        <ele>604</ele>
        <time>2018-06-03T07:18:38.000Z</time>
      </trkpt>
      <trkpt lat="44.54514" lon="4.23019">
        <ele>604</ele>
        <time>2018-06-03T07:18:39.000Z</time>
      </trkpt>
      <trkpt lat="44.54514" lon="4.23019">
        <ele>604</ele>
        <time>2018-06-03T07:18:40.000Z</time>
      </trkpt>
      <trkpt lat="44.54514" lon="4.23019">
        <ele>604</ele>
        <time>2018-06-03T07:18:41.000Z</time>
      </trkpt>
      <trkpt lat="44.54514" lon="4.23019">
        <ele>604</ele>
        <time>2018-06-03T07:18:42.000Z</time>
      </trkpt>
      <trkpt lat="44.54514" lon="4.23019">
        <ele>604</ele>
        <time>2018-06-03T07:18:43.000Z</time>
      </trkpt>
      <trkpt lat="44.54514" lon="4.23019">
        <ele>604</ele>
        <time>2018-06-03T07:18:44.000Z</time>
      </trkpt>
      <trkpt lat="44.54514" lon="4.23019">
        <ele>604</ele>
        <time>2018-06-03T07:18:45.000Z</time>
      </trkpt>
      <trkpt lat="44.54514" lon="4.23019">
        <ele>604</ele>
        <time>2018-06-03T07:18:46.000Z</time>
      </trkpt>
      <trkpt lat="44.54515" lon="4.23019">
        <ele>604</ele>
        <time>2018-06-03T07:18:47.000Z</time>
      </trkpt>
      <trkpt lat="44.54515" lon="4.23019">
        <ele>604</ele>
        <time>2018-06-03T07:18:48.000Z</time>
      </trkpt>
      <trkpt lat="44.54515" lon="4.23019">
        <ele>604</ele>
        <time>2018-06-03T07:18:49.000Z</time>
      </trkpt>
      <trkpt lat="44.54515" lon="4.23019">
        <ele>604</ele>
        <time>2018-06-03T07:18:50.000Z</time>
      </trkpt>
      <trkpt lat="44.54516" lon="4.23019">
        <ele>604</ele>
        <time>2018-06-03T07:18:51.000Z</time>
      </trkpt>
      <trkpt lat="44.54516" lon="4.23019">
        <ele>604</ele>
        <time>2018-06-03T07:18:52.000Z</time>
      </trkpt>
      <trkpt lat="44.54516" lon="4.23019">
        <ele>604</ele>
        <time>2018-06-03T07:18:53.000Z</time>
      </trkpt>
      <trkpt lat="44.54516" lon="4.23019">
        <ele>604</ele>
        <time>2018-06-03T07:18:54.000Z</time>
      </trkpt>
      <trkpt lat="44.54517" lon="4.23019">
        <ele>604</ele>
        <time>2018-06-03T07:18:55.000Z</time>
      </trkpt>
      <trkpt lat="44.54517" lon="4.23019">
        <ele>604</ele>
        <time>2018-06-03T07:18:56.000Z</time>
      </trkpt>
      <trkpt lat="44.54517" lon="4.23018">
        <ele>604</ele>
        <time>2018-06-03T07:18:57.000Z</time>
      </trkpt>
      <trkpt lat="44.54518" lon="4.23018">
        <ele>604</ele>
        <time>2018-06-03T07:18:58.000Z</time>
      </trkpt>
      <trkpt lat="44.54518" lon="4.23018">
        <ele>604</ele>
        <time>2018-06-03T07:18:59.000Z</time>
      </trkpt>
      <trkpt lat="44.54518" lon="4.23018">
        <ele>604</ele>
        <time>2018-06-03T07:19:00.000Z</time>
      </trkpt>
      <trkpt lat="44.54518" lon="4.23018">
        <ele>604</ele>
        <time>2018-06-03T07:19:01.000Z</time>
      </trkpt>
      <trkpt lat="44.54519" lon="4.23018">
        <ele>604</ele>
        <time>2018-06-03T07:19:02.000Z</time>
      </trkpt>
      <trkpt lat="44.54519" lon="4.23018">
        <ele>604</ele>
        <time>2018-06-03T07:19:03.000Z</time>
      </trkpt>
      <trkpt lat="44.54519" lon="4.23018">
        <ele>604</ele>
        <time>2018-06-03T07:19:04.000Z</time>
      </trkpt>
      <trkpt lat="44.5452" lon="4.23018">
        <ele>604</ele>
        <time>2018-06-03T07:19:05.000Z</time>
      </trkpt>
      <trkpt lat="44.5452" lon="4.23018">
        <ele>604</ele>
        <time>2018-06-03T07:19:06.000Z</time>
      </trkpt>
      <trkpt lat="44.5452" lon="4.23018">
        <ele>604</ele>
        <time>2018-06-03T07:19:07.000Z</time>
      </trkpt>
      <trkpt lat="44.54521" lon="4.23018">
        <ele>604</ele>
        <time>2018-06-03T07:19:08.000Z</time>
      </trkpt>
      <trkpt lat="44.54521" lon="4.23018">
        <ele>604</ele>
        <time>2018-06-03T07:19:09.000Z</time>
      </trkpt>
      <trkpt lat="44.54521" lon="4.23018">
        <ele>604</ele>
        <time>2018-06-03T07:19:10.000Z</time>
      </trkpt>
      <trkpt lat="44.54521" lon="4.23018">
        <ele>604</ele>
        <time>2018-06-03T07:19:11.000Z</time>
      </trkpt>
      <trkpt lat="44.54522" lon="4.23018">
        <ele>604</ele>
        <time>2018-06-03T07:19:12.000Z</time>
      </trkpt>
      <trkpt lat="44.54522" lon="4.23018">
        <ele>604</ele>
        <time>2018-06-03T07:19:13.000Z</time>
      </trkpt>
      <trkpt lat="44.54522" lon="4.23018">
        <ele>604</ele>
        <time>2018-06-03T07:19:14.000Z</time>
      </trkpt>
      <trkpt lat="44.54522" lon="4.23018">
        <ele>604</ele>
        <time>2018-06-03T07:19:15.000Z</time>
      </trkpt>
      <trkpt lat="44.54523" lon="4.23018">
        <ele>604</ele>
        <time>2018-06-03T07:19:16.000Z</time>
      </trkpt>
      <trkpt lat="44.54523" lon="4.23018">
        <ele>604</ele>
        <time>2018-06-03T07:19:17.000Z</time>
      </trkpt>
      <trkpt lat="44.54523" lon="4.23019">
        <ele>604</ele>
        <time>2018-06-03T07:19:18.000Z</time>
      </trkpt>
      <trkpt lat="44.54523" lon="4.23019">
        <ele>604</ele>
        <time>2018-06-03T07:19:19.000Z</time>
      </trkpt>
      <trkpt lat="44.54523" lon="4.23019">
        <ele>604</ele>
        <time>2018-06-03T07:19:20.000Z</time>
      </trkpt>
      <trkpt lat="44.54523" lon="4.23019">
        <ele>604</ele>
        <time>2018-06-03T07:19:21.000Z</time>
      </trkpt>
      <trkpt lat="44.54524" lon="4.23019">
        <ele>604</ele>
        <time>2018-06-03T07:19:22.000Z</time>
      </trkpt>
      <trkpt lat="44.54524" lon="4.23019">
        <ele>604</ele>
        <time>2018-06-03T07:19:23.000Z</time>
      </trkpt>
      <trkpt lat="44.54524" lon="4.2302">
        <ele>604</ele>
        <time>2018-06-03T07:19:24.000Z</time>
      </trkpt>
      <trkpt lat="44.54524" lon="4.2302">
        <ele>604</ele>
        <time>2018-06-03T07:19:25.000Z</time>
      </trkpt>
      <trkpt lat="44.54524" lon="4.2302">
        <ele>604</ele>
        <time>2018-06-03T07:19:26.000Z</time>
      </trkpt>
      <trkpt lat="44.54524" lon="4.2302">
        <ele>604</ele>
        <time>2018-06-03T07:19:27.000Z</time>
      </trkpt>
      <trkpt lat="44.54525" lon="4.23019">
        <ele>604</ele>
        <time>2018-06-03T07:19:28.000Z</time>
      </trkpt>
      <trkpt lat="44.54525" lon="4.23019">
        <ele>604</ele>
        <time>2018-06-03T07:19:29.000Z</time>
      </trkpt>
      <trkpt lat="44.54525" lon="4.23019">
        <ele>604</ele>
        <time>2018-06-03T07:19:30.000Z</time>
      </trkpt>
      <trkpt lat="44.54525" lon="4.23019">
        <ele>604</ele>
        <time>2018-06-03T07:19:31.000Z</time>
      </trkpt>
      <trkpt lat="44.54525" lon="4.23019">
        <ele>604</ele>
        <time>2018-06-03T07:19:32.000Z</time>
      </trkpt>
      <trkpt lat="44.54525" lon="4.23019">
        <ele>604</ele>
        <time>2018-06-03T07:19:33.000Z</time>
      </trkpt>
      <trkpt lat="44.54526" lon="4.23019">
        <ele>604</ele>
        <time>2018-06-03T07:19:34.000Z</time>
      </trkpt>
      <trkpt lat="44.54527" lon="4.23018">
        <ele>604</ele>
        <time>2018-06-03T07:19:35.000Z</time>
      </trkpt>
      <trkpt lat="44.54528" lon="4.23017">
        <ele>604</ele>
        <time>2018-06-03T07:19:36.000Z</time>
      </trkpt>
      <trkpt lat="44.54529" lon="4.23016">
        <ele>604</ele>
        <time>2018-06-03T07:19:37.000Z</time>
      </trkpt>
      <trkpt lat="44.54531" lon="4.23015">
        <ele>604</ele>
        <time>2018-06-03T07:19:38.000Z</time>
      </trkpt>
      <trkpt lat="44.54532" lon="4.23015">
        <ele>604</ele>
        <time>2018-06-03T07:19:39.000Z</time>
      </trkpt>
      <trkpt lat="44.54533" lon="4.23014">
        <ele>604</ele>
        <time>2018-06-03T07:19:40.000Z</time>
      </trkpt>
      <trkpt lat="44.54534" lon="4.23013">
        <ele>604</ele>
        <time>2018-06-03T07:19:41.000Z</time>
      </trkpt>
      <trkpt lat="44.54535" lon="4.23012">
        <ele>604</ele>
        <time>2018-06-03T07:19:42.000Z</time>
      </trkpt>
      <trkpt lat="44.54537" lon="4.23011">
        <ele>604</ele>
        <time>2018-06-03T07:19:43.000Z</time>
      </trkpt>
      <trkpt lat="44.54539" lon="4.23009">
        <ele>604</ele>
        <time>2018-06-03T07:19:44.000Z</time>
      </trkpt>
      <trkpt lat="44.54541" lon="4.23008">
        <ele>605</ele>
        <time>2018-06-03T07:19:45.000Z</time>
      </trkpt>
      <trkpt lat="44.54543" lon="4.23006">
        <ele>605</ele>
        <time>2018-06-03T07:19:46.000Z</time>
      </trkpt>
      <trkpt lat="44.54546" lon="4.23005">
        <ele>605</ele>
        <time>2018-06-03T07:19:47.000Z</time>
      </trkpt>
      <trkpt lat="44.54549" lon="4.23005">
        <ele>605</ele>
        <time>2018-06-03T07:19:48.000Z</time>
      </trkpt>
      <trkpt lat="44.54553" lon="4.23006">
        <ele>605</ele>
        <time>2018-06-03T07:19:49.000Z</time>
      </trkpt>
      <trkpt lat="44.54556" lon="4.23007">
        <ele>606</ele>
        <time>2018-06-03T07:19:50.000Z</time>
      </trkpt>
      <trkpt lat="44.54562" lon="4.23007">
        <ele>606</ele>
        <time>2018-06-03T07:19:51.000Z</time>
      </trkpt>
      <trkpt lat="44.54567" lon="4.23008">
        <ele>607</ele>
        <time>2018-06-03T07:19:52.000Z</time>
      </trkpt>
      <trkpt lat="44.54573" lon="4.2301">
        <ele>608</ele>
        <time>2018-06-03T07:19:53.000Z</time>
      </trkpt>
      <trkpt lat="44.54579" lon="4.23011">
        <ele>609</ele>
        <time>2018-06-03T07:19:54.000Z</time>
      </trkpt>
      <trkpt lat="44.54586" lon="4.23012">
        <ele>609</ele>
        <time>2018-06-03T07:19:55.000Z</time>
      </trkpt>
      <trkpt lat="44.54594" lon="4.23013">
        <ele>608</ele>
        <time>2018-06-03T07:19:56.000Z</time>
      </trkpt>
      <trkpt lat="44.54602" lon="4.23014">
        <ele>607</ele>
        <time>2018-06-03T07:19:57.000Z</time>
      </trkpt>
      <trkpt lat="44.54609" lon="4.23014">
        <ele>606</ele>
        <time>2018-06-03T07:19:58.000Z</time>
      </trkpt>
      <trkpt lat="44.54617" lon="4.23013">
        <ele>606</ele>
        <time>2018-06-03T07:19:59.000Z</time>
      </trkpt>
      <trkpt lat="44.54624" lon="4.23012">
        <ele>606</ele>
        <time>2018-06-03T07:20:00.000Z</time>
      </trkpt>
      <trkpt lat="44.54632" lon="4.23012">
        <ele>605</ele>
        <time>2018-06-03T07:20:01.000Z</time>
      </trkpt>
      <trkpt lat="44.54639" lon="4.23012">
        <ele>606</ele>
        <time>2018-06-03T07:20:02.000Z</time>
      </trkpt>
      <trkpt lat="44.54646" lon="4.23012">
        <ele>606</ele>
        <time>2018-06-03T07:20:03.000Z</time>
      </trkpt>
      <trkpt lat="44.54654" lon="4.23013">
        <ele>606</ele>
        <time>2018-06-03T07:20:04.000Z</time>
      </trkpt>
      <trkpt lat="44.5466" lon="4.23013">
        <ele>606</ele>
        <time>2018-06-03T07:20:05.000Z</time>
      </trkpt>
      <trkpt lat="44.54667" lon="4.23013">
        <ele>607</ele>
        <time>2018-06-03T07:20:06.000Z</time>
      </trkpt>
      <trkpt lat="44.54672" lon="4.23013">
        <ele>606</ele>
        <time>2018-06-03T07:20:07.000Z</time>
      </trkpt>
      <trkpt lat="44.54678" lon="4.23014">
        <ele>605</ele>
        <time>2018-06-03T07:20:08.000Z</time>
      </trkpt>
      <trkpt lat="44.54684" lon="4.23015">
        <ele>605</ele>
        <time>2018-06-03T07:20:09.000Z</time>
      </trkpt>
      <trkpt lat="44.5469" lon="4.23017">
        <ele>604</ele>
        <time>2018-06-03T07:20:10.000Z</time>
      </trkpt>
      <trkpt lat="44.54694" lon="4.23021">
        <ele>604</ele>
        <time>2018-06-03T07:20:11.000Z</time>
      </trkpt>
      <trkpt lat="44.54697" lon="4.23027">
        <ele>603</ele>
        <time>2018-06-03T07:20:12.000Z</time>
      </trkpt>
      <trkpt lat="44.54698" lon="4.23033">
        <ele>603</ele>
        <time>2018-06-03T07:20:13.000Z</time>
      </trkpt>
      <trkpt lat="44.54698" lon="4.23039">
        <ele>602</ele>
        <time>2018-06-03T07:20:14.000Z</time>
      </trkpt>
      <trkpt lat="44.54695" lon="4.23045">
        <ele>602</ele>
        <time>2018-06-03T07:20:15.000Z</time>
      </trkpt>
      <trkpt lat="44.54691" lon="4.23051">
        <ele>601</ele>
        <time>2018-06-03T07:20:16.000Z</time>
      </trkpt>
      <trkpt lat="44.54687" lon="4.23058">
        <ele>601</ele>
        <time>2018-06-03T07:20:17.000Z</time>
      </trkpt>
      <trkpt lat="44.54682" lon="4.23066">
        <ele>600</ele>
        <time>2018-06-03T07:20:18.000Z</time>
      </trkpt>
      <trkpt lat="44.54678" lon="4.23074">
        <ele>599</ele>
        <time>2018-06-03T07:20:19.000Z</time>
      </trkpt>
      <trkpt lat="44.54672" lon="4.23082">
        <ele>598</ele>
        <time>2018-06-03T07:20:20.000Z</time>
      </trkpt>
      <trkpt lat="44.54667" lon="4.23091">
        <ele>595</ele>
        <time>2018-06-03T07:20:21.000Z</time>
      </trkpt>
      <trkpt lat="44.54661" lon="4.23099">
        <ele>593</ele>
        <time>2018-06-03T07:20:22.000Z</time>
      </trkpt>
      <trkpt lat="44.54655" lon="4.23108">
        <ele>592</ele>
        <time>2018-06-03T07:20:23.000Z</time>
      </trkpt>
      <trkpt lat="44.54649" lon="4.23116">
        <ele>591</ele>
        <time>2018-06-03T07:20:24.000Z</time>
      </trkpt>
      <trkpt lat="44.54643" lon="4.23123">
        <ele>590</ele>
        <time>2018-06-03T07:20:25.000Z</time>
      </trkpt>
      <trkpt lat="44.54636" lon="4.2313">
        <ele>590</ele>
        <time>2018-06-03T07:20:26.000Z</time>
      </trkpt>
      <trkpt lat="44.54629" lon="4.23136">
        <ele>589</ele>
        <time>2018-06-03T07:20:27.000Z</time>
      </trkpt>
      <trkpt lat="44.54622" lon="4.23141">
        <ele>589</ele>
        <time>2018-06-03T07:20:28.000Z</time>
      </trkpt>
      <trkpt lat="44.54614" lon="4.23145">
        <ele>588</ele>
        <time>2018-06-03T07:20:29.000Z</time>
      </trkpt>
      <trkpt lat="44.54606" lon="4.23149">
        <ele>587</ele>
        <time>2018-06-03T07:20:30.000Z</time>
      </trkpt>
      <trkpt lat="44.54598" lon="4.23153">
        <ele>586</ele>
        <time>2018-06-03T07:20:31.000Z</time>
      </trkpt>
      <trkpt lat="44.54591" lon="4.23157">
        <ele>585</ele>
        <time>2018-06-03T07:20:32.000Z</time>
      </trkpt>
      <trkpt lat="44.54584" lon="4.2316">
        <ele>584</ele>
        <time>2018-06-03T07:20:33.000Z</time>
      </trkpt>
      <trkpt lat="44.54578" lon="4.23164">
        <ele>583</ele>
        <time>2018-06-03T07:20:34.000Z</time>
      </trkpt>
      <trkpt lat="44.54571" lon="4.23168">
        <ele>579</ele>
        <time>2018-06-03T07:20:35.000Z</time>
      </trkpt>
      <trkpt lat="44.54564" lon="4.23172">
        <ele>577</ele>
        <time>2018-06-03T07:20:36.000Z</time>
      </trkpt>
      <trkpt lat="44.54556" lon="4.23176">
        <ele>576</ele>
        <time>2018-06-03T07:20:37.000Z</time>
      </trkpt>
      <trkpt lat="44.54548" lon="4.23179">
        <ele>575</ele>
        <time>2018-06-03T07:20:38.000Z</time>
      </trkpt>
      <trkpt lat="44.5454" lon="4.23181">
        <ele>575</ele>
        <time>2018-06-03T07:20:39.000Z</time>
      </trkpt>
      <trkpt lat="44.54532" lon="4.23182">
        <ele>575</ele>
        <time>2018-06-03T07:20:40.000Z</time>
      </trkpt>
      <trkpt lat="44.54523" lon="4.2318">
        <ele>574</ele>
        <time>2018-06-03T07:20:41.000Z</time>
      </trkpt>
      <trkpt lat="44.54515" lon="4.23178">
        <ele>575</ele>
        <time>2018-06-03T07:20:42.000Z</time>
      </trkpt>
      <trkpt lat="44.54506" lon="4.23174">
        <ele>575</ele>
        <time>2018-06-03T07:20:43.000Z</time>
      </trkpt>
      <trkpt lat="44.54498" lon="4.23171">
        <ele>574</ele>
        <time>2018-06-03T07:20:44.000Z</time>
      </trkpt>
      <trkpt lat="44.54489" lon="4.23167">
        <ele>572</ele>
        <time>2018-06-03T07:20:45.000Z</time>
      </trkpt>
      <trkpt lat="44.54481" lon="4.23164">
        <ele>576</ele>
        <time>2018-06-03T07:20:46.000Z</time>
      </trkpt>
      <trkpt lat="44.54472" lon="4.23161">
        <ele>576</ele>
        <time>2018-06-03T07:20:47.000Z</time>
      </trkpt>
      <trkpt lat="44.54465" lon="4.23158">
        <ele>576</ele>
        <time>2018-06-03T07:20:48.000Z</time>
      </trkpt>
      <trkpt lat="44.54457" lon="4.23157">
        <ele>575</ele>
        <time>2018-06-03T07:20:49.000Z</time>
      </trkpt>
      <trkpt lat="44.5445" lon="4.23155">
        <ele>574</ele>
        <time>2018-06-03T07:20:50.000Z</time>
      </trkpt>
      <trkpt lat="44.54442" lon="4.23152">
        <ele>574</ele>
        <time>2018-06-03T07:20:51.000Z</time>
      </trkpt>
      <trkpt lat="44.54435" lon="4.23148">
        <ele>573</ele>
        <time>2018-06-03T07:20:52.000Z</time>
      </trkpt>
      <trkpt lat="44.54429" lon="4.23143">
        <ele>573</ele>
        <time>2018-06-03T07:20:53.000Z</time>
      </trkpt>
      <trkpt lat="44.54424" lon="4.2314">
        <ele>573</ele>
        <time>2018-06-03T07:20:54.000Z</time>
      </trkpt>
      <trkpt lat="44.5442" lon="4.23139">
        <ele>573</ele>
        <time>2018-06-03T07:20:55.000Z</time>
      </trkpt>
      <trkpt lat="44.54417" lon="4.23141">
        <ele>573</ele>
        <time>2018-06-03T07:20:56.000Z</time>
      </trkpt>
      <trkpt lat="44.54417" lon="4.23143">
        <ele>572</ele>
        <time>2018-06-03T07:20:57.000Z</time>
      </trkpt>
      <trkpt lat="44.54418" lon="4.23146">
        <ele>572</ele>
        <time>2018-06-03T07:20:58.000Z</time>
      </trkpt>
      <trkpt lat="44.54419" lon="4.23147">
        <ele>571</ele>
        <time>2018-06-03T07:20:59.000Z</time>
      </trkpt>
      <trkpt lat="44.5442" lon="4.23146">
        <ele>572</ele>
        <time>2018-06-03T07:21:00.000Z</time>
      </trkpt>
      <trkpt lat="44.5442" lon="4.23147">
        <ele>572</ele>
        <time>2018-06-03T07:21:01.000Z</time>
      </trkpt>
      <trkpt lat="44.54421" lon="4.23146">
        <ele>572</ele>
        <time>2018-06-03T07:21:02.000Z</time>
      </trkpt>
      <trkpt lat="44.54421" lon="4.23146">
        <ele>572</ele>
        <time>2018-06-03T07:21:03.000Z</time>
      </trkpt>
      <trkpt lat="44.54421" lon="4.23146">
        <ele>572</ele>
        <time>2018-06-03T07:21:04.000Z</time>
      </trkpt>
      <trkpt lat="44.54421" lon="4.23146">
        <ele>572</ele>
        <time>2018-06-03T07:21:05.000Z</time>
      </trkpt>
      <trkpt lat="44.54421" lon="4.23146">
        <ele>572</ele>
        <time>2018-06-03T07:21:06.000Z</time>
      </trkpt>
      <trkpt lat="44.54422" lon="4.23146">
        <ele>572</ele>
        <time>2018-06-03T07:21:07.000Z</time>
      </trkpt>
      <trkpt lat="44.54422" lon="4.23145">
        <ele>572</ele>
        <time>2018-06-03T07:21:08.000Z</time>
      </trkpt>
      <trkpt lat="44.54422" lon="4.23145">
        <ele>572</ele>
        <time>2018-06-03T07:21:09.000Z</time>
      </trkpt>
      <trkpt lat="44.54422" lon="4.23145">
        <ele>572</ele>
        <time>2018-06-03T07:21:10.000Z</time>
      </trkpt>
      <trkpt lat="44.54422" lon="4.23145">
        <ele>572</ele>
        <time>2018-06-03T07:21:11.000Z</time>
      </trkpt>
      <trkpt lat="44.54422" lon="4.23145">
        <ele>572</ele>
        <time>2018-06-03T07:21:12.000Z</time>
      </trkpt>
      <trkpt lat="44.54422" lon="4.23145">
        <ele>572</ele>
        <time>2018-06-03T07:21:13.000Z</time>
      </trkpt>
      <trkpt lat="44.54422" lon="4.23145">
        <ele>572</ele>
        <time>2018-06-03T07:21:14.000Z</time>
      </trkpt>
      <trkpt lat="44.54422" lon="4.23144">
        <ele>572</ele>
        <time>2018-06-03T07:21:15.000Z</time>
      </trkpt>
      <trkpt lat="44.54423" lon="4.23144">
        <ele>572</ele>
        <time>2018-06-03T07:21:16.000Z</time>
      </trkpt>
      <trkpt lat="44.54423" lon="4.23144">
        <ele>572</ele>
        <time>2018-06-03T07:21:17.000Z</time>
      </trkpt>
      <trkpt lat="44.54423" lon="4.23144">
        <ele>572</ele>
        <time>2018-06-03T07:21:18.000Z</time>
      </trkpt>
      <trkpt lat="44.54423" lon="4.23144">
        <ele>572</ele>
        <time>2018-06-03T07:21:19.000Z</time>
      </trkpt>
      <trkpt lat="44.54423" lon="4.23144">
        <ele>572</ele>
        <time>2018-06-03T07:21:20.000Z</time>
      </trkpt>
      <trkpt lat="44.54423" lon="4.23144">
        <ele>572</ele>
        <time>2018-06-03T07:21:21.000Z</time>
      </trkpt>
      <trkpt lat="44.54423" lon="4.23144">
        <ele>572</ele>
        <time>2018-06-03T07:21:22.000Z</time>
      </trkpt>
      <trkpt lat="44.54423" lon="4.23144">
        <ele>572</ele>
        <time>2018-06-03T07:21:23.000Z</time>
      </trkpt>
      <trkpt lat="44.54423" lon="4.23143">
        <ele>572</ele>
        <time>2018-06-03T07:21:24.000Z</time>
      </trkpt>
      <trkpt lat="44.54423" lon="4.23143">
        <ele>572</ele>
        <time>2018-06-03T07:21:25.000Z</time>
      </trkpt>
      <trkpt lat="44.54423" lon="4.23143">
        <ele>572</ele>
        <time>2018-06-03T07:21:26.000Z</time>
      </trkpt>
      <trkpt lat="44.54423" lon="4.23143">
        <ele>572</ele>
        <time>2018-06-03T07:21:27.000Z</time>
      </trkpt>
      <trkpt lat="44.54423" lon="4.23143">
        <ele>572</ele>
        <time>2018-06-03T07:21:28.000Z</time>
      </trkpt>
      <trkpt lat="44.54423" lon="4.23143">
        <ele>572</ele>
        <time>2018-06-03T07:21:29.000Z</time>
      </trkpt>
      <trkpt lat="44.54423" lon="4.23143">
        <ele>573</ele>
        <time>2018-06-03T07:21:30.000Z</time>
      </trkpt>
      <trkpt lat="44.54423" lon="4.23143">
        <ele>573</ele>
        <time>2018-06-03T07:21:31.000Z</time>
      </trkpt>
      <trkpt lat="44.54423" lon="4.23143">
        <ele>573</ele>
        <time>2018-06-03T07:21:32.000Z</time>
      </trkpt>
      <trkpt lat="44.54423" lon="4.23143">
        <ele>573</ele>
        <time>2018-06-03T07:21:33.000Z</time>
      </trkpt>
      <trkpt lat="44.54423" lon="4.23144">
        <ele>572</ele>
        <time>2018-06-03T07:21:34.000Z</time>
      </trkpt>
      <trkpt lat="44.54424" lon="4.23144">
        <ele>572</ele>
        <time>2018-06-03T07:21:35.000Z</time>
      </trkpt>
      <trkpt lat="44.54425" lon="4.23145">
        <ele>572</ele>
        <time>2018-06-03T07:21:36.000Z</time>
      </trkpt>
      <trkpt lat="44.54426" lon="4.23147">
        <ele>572</ele>
        <time>2018-06-03T07:21:37.000Z</time>
      </trkpt>
      <trkpt lat="44.54428" lon="4.2315">
        <ele>572</ele>
        <time>2018-06-03T07:21:38.000Z</time>
      </trkpt>
      <trkpt lat="44.54431" lon="4.23155">
        <ele>571</ele>
        <time>2018-06-03T07:21:39.000Z</time>
      </trkpt>
      <trkpt lat="44.54434" lon="4.23159">
        <ele>571</ele>
        <time>2018-06-03T07:21:40.000Z</time>
      </trkpt>
      <trkpt lat="44.54437" lon="4.23164">
        <ele>571</ele>
        <time>2018-06-03T07:21:41.000Z</time>
      </trkpt>
      <trkpt lat="44.54442" lon="4.23169">
        <ele>565</ele>
        <time>2018-06-03T07:21:42.000Z</time>
      </trkpt>
      <trkpt lat="44.54446" lon="4.23174">
        <ele>565</ele>
        <time>2018-06-03T07:21:43.000Z</time>
      </trkpt>
      <trkpt lat="44.54451" lon="4.2318">
        <ele>565</ele>
        <time>2018-06-03T07:21:44.000Z</time>
      </trkpt>
      <trkpt lat="44.54456" lon="4.23186">
        <ele>565</ele>
        <time>2018-06-03T07:21:45.000Z</time>
      </trkpt>
      <trkpt lat="44.54461" lon="4.23191">
        <ele>565</ele>
        <time>2018-06-03T07:21:46.000Z</time>
      </trkpt>
      <trkpt lat="44.54466" lon="4.23197">
        <ele>565</ele>
        <time>2018-06-03T07:21:47.000Z</time>
      </trkpt>
      <trkpt lat="44.54469" lon="4.23203">
        <ele>565</ele>
        <time>2018-06-03T07:21:48.000Z</time>
      </trkpt>
      <trkpt lat="44.54472" lon="4.23211">
        <ele>564</ele>
        <time>2018-06-03T07:21:49.000Z</time>
      </trkpt>
      <trkpt lat="44.54475" lon="4.2322">
        <ele>564</ele>
        <time>2018-06-03T07:21:50.000Z</time>
      </trkpt>
      <trkpt lat="44.54477" lon="4.23228">
        <ele>564</ele>
        <time>2018-06-03T07:21:51.000Z</time>
      </trkpt>
      <trkpt lat="44.54477" lon="4.23236">
        <ele>563</ele>
        <time>2018-06-03T07:21:52.000Z</time>
      </trkpt>
      <trkpt lat="44.54475" lon="4.23242">
        <ele>563</ele>
        <time>2018-06-03T07:21:53.000Z</time>
      </trkpt>
      <trkpt lat="44.54472" lon="4.23248">
        <ele>562</ele>
        <time>2018-06-03T07:21:54.000Z</time>
      </trkpt>
      <trkpt lat="44.54468" lon="4.23256">
        <ele>556</ele>
        <time>2018-06-03T07:21:55.000Z</time>
      </trkpt>
      <trkpt lat="44.54465" lon="4.23264">
        <ele>555</ele>
        <time>2018-06-03T07:21:56.000Z</time>
      </trkpt>
      <trkpt lat="44.54461" lon="4.23273">
        <ele>554</ele>
        <time>2018-06-03T07:21:57.000Z</time>
      </trkpt>
      <trkpt lat="44.54457" lon="4.23282">
        <ele>554</ele>
        <time>2018-06-03T07:21:58.000Z</time>
      </trkpt>
      <trkpt lat="44.54453" lon="4.23291">
        <ele>553</ele>
        <time>2018-06-03T07:21:59.000Z</time>
      </trkpt>
      <trkpt lat="44.54449" lon="4.233">
        <ele>552</ele>
        <time>2018-06-03T07:22:00.000Z</time>
      </trkpt>
      <trkpt lat="44.54444" lon="4.23309">
        <ele>552</ele>
        <time>2018-06-03T07:22:01.000Z</time>
      </trkpt>
      <trkpt lat="44.54439" lon="4.23317">
        <ele>551</ele>
        <time>2018-06-03T07:22:02.000Z</time>
      </trkpt>
      <trkpt lat="44.54435" lon="4.23325">
        <ele>550</ele>
        <time>2018-06-03T07:22:03.000Z</time>
      </trkpt>
      <trkpt lat="44.54431" lon="4.2333">
        <ele>549</ele>
        <time>2018-06-03T07:22:04.000Z</time>
      </trkpt>
      <trkpt lat="44.54427" lon="4.23333">
        <ele>548</ele>
        <time>2018-06-03T07:22:05.000Z</time>
      </trkpt>
      <trkpt lat="44.54424" lon="4.23334">
        <ele>546</ele>
        <time>2018-06-03T07:22:06.000Z</time>
      </trkpt>
      <trkpt lat="44.5442" lon="4.23334">
        <ele>546</ele>
        <time>2018-06-03T07:22:07.000Z</time>
      </trkpt>
      <trkpt lat="44.54415" lon="4.23334">
        <ele>546</ele>
        <time>2018-06-03T07:22:08.000Z</time>
      </trkpt>
      <trkpt lat="44.5441" lon="4.23334">
        <ele>545</ele>
        <time>2018-06-03T07:22:09.000Z</time>
      </trkpt>
      <trkpt lat="44.54407" lon="4.23335">
        <ele>544</ele>
        <time>2018-06-03T07:22:10.000Z</time>
      </trkpt>
      <trkpt lat="44.54407" lon="4.23336">
        <ele>544</ele>
        <time>2018-06-03T07:22:11.000Z</time>
      </trkpt>
      <trkpt lat="44.54406" lon="4.23336">
        <ele>544</ele>
        <time>2018-06-03T07:22:12.000Z</time>
      </trkpt>
      <trkpt lat="44.54406" lon="4.23336">
        <ele>544</ele>
        <time>2018-06-03T07:22:13.000Z</time>
      </trkpt>
      <trkpt lat="44.54406" lon="4.23336">
        <ele>544</ele>
        <time>2018-06-03T07:22:14.000Z</time>
      </trkpt>
      <trkpt lat="44.54406" lon="4.23336">
        <ele>544</ele>
        <time>2018-06-03T07:22:15.000Z</time>
      </trkpt>
      <trkpt lat="44.54405" lon="4.23336">
        <ele>544</ele>
        <time>2018-06-03T07:22:16.000Z</time>
      </trkpt>
      <trkpt lat="44.54404" lon="4.23337">
        <ele>543</ele>
        <time>2018-06-03T07:22:17.000Z</time>
      </trkpt>
      <trkpt lat="44.54402" lon="4.23339">
        <ele>543</ele>
        <time>2018-06-03T07:22:18.000Z</time>
      </trkpt>
      <trkpt lat="44.54399" lon="4.23343">
        <ele>543</ele>
        <time>2018-06-03T07:22:19.000Z</time>
      </trkpt>
      <trkpt lat="44.54396" lon="4.23347">
        <ele>542</ele>
        <time>2018-06-03T07:22:20.000Z</time>
      </trkpt>
      <trkpt lat="44.54391" lon="4.23352">
        <ele>542</ele>
        <time>2018-06-03T07:22:21.000Z</time>
      </trkpt>
      <trkpt lat="44.54387" lon="4.23357">
        <ele>541</ele>
        <time>2018-06-03T07:22:22.000Z</time>
      </trkpt>
      <trkpt lat="44.54383" lon="4.23364">
        <ele>541</ele>
        <time>2018-06-03T07:22:23.000Z</time>
      </trkpt>
      <trkpt lat="44.54378" lon="4.23371">
        <ele>540</ele>
        <time>2018-06-03T07:22:24.000Z</time>
      </trkpt>
      <trkpt lat="44.54373" lon="4.23377">
        <ele>540</ele>
        <time>2018-06-03T07:22:25.000Z</time>
      </trkpt>
      <trkpt lat="44.54369" lon="4.23382">
        <ele>540</ele>
        <time>2018-06-03T07:22:26.000Z</time>
      </trkpt>
      <trkpt lat="44.54365" lon="4.23385">
        <ele>539</ele>
        <time>2018-06-03T07:22:27.000Z</time>
      </trkpt>
      <trkpt lat="44.5436" lon="4.23387">
        <ele>539</ele>
        <time>2018-06-03T07:22:28.000Z</time>
      </trkpt>
      <trkpt lat="44.54357" lon="4.23384">
        <ele>539</ele>
        <time>2018-06-03T07:22:29.000Z</time>
      </trkpt>
      <trkpt lat="44.54355" lon="4.2338">
        <ele>539</ele>
        <time>2018-06-03T07:22:30.000Z</time>
      </trkpt>
      <trkpt lat="44.54352" lon="4.23374">
        <ele>539</ele>
        <time>2018-06-03T07:22:31.000Z</time>
      </trkpt>
      <trkpt lat="44.5435" lon="4.23367">
        <ele>539</ele>
        <time>2018-06-03T07:22:32.000Z</time>
      </trkpt>
      <trkpt lat="44.54347" lon="4.23362">
        <ele>539</ele>
        <time>2018-06-03T07:22:33.000Z</time>
      </trkpt>
      <trkpt lat="44.54343" lon="4.23359">
        <ele>539</ele>
        <time>2018-06-03T07:22:34.000Z</time>
      </trkpt>
      <trkpt lat="44.54339" lon="4.2336">
        <ele>539</ele>
        <time>2018-06-03T07:22:35.000Z</time>
      </trkpt>
      <trkpt lat="44.54335" lon="4.23362">
        <ele>539</ele>
        <time>2018-06-03T07:22:36.000Z</time>
      </trkpt>
      <trkpt lat="44.5433" lon="4.23366">
        <ele>533</ele>
        <time>2018-06-03T07:22:37.000Z</time>
      </trkpt>
      <trkpt lat="44.54325" lon="4.2337">
        <ele>533</ele>
        <time>2018-06-03T07:22:38.000Z</time>
      </trkpt>
      <trkpt lat="44.54318" lon="4.23373">
        <ele>533</ele>
        <time>2018-06-03T07:22:39.000Z</time>
      </trkpt>
      <trkpt lat="44.54312" lon="4.23378">
        <ele>532</ele>
        <time>2018-06-03T07:22:40.000Z</time>
      </trkpt>
      <trkpt lat="44.54305" lon="4.23382">
        <ele>532</ele>
        <time>2018-06-03T07:22:41.000Z</time>
      </trkpt>
      <trkpt lat="44.54298" lon="4.23385">
        <ele>532</ele>
        <time>2018-06-03T07:22:42.000Z</time>
      </trkpt>
      <trkpt lat="44.54291" lon="4.23388">
        <ele>531</ele>
        <time>2018-06-03T07:22:43.000Z</time>
      </trkpt>
      <trkpt lat="44.54285" lon="4.23391">
        <ele>531</ele>
        <time>2018-06-03T07:22:44.000Z</time>
      </trkpt>
      <trkpt lat="44.54281" lon="4.23394">
        <ele>531</ele>
        <time>2018-06-03T07:22:45.000Z</time>
      </trkpt>
      <trkpt lat="44.54278" lon="4.23397">
        <ele>530</ele>
        <time>2018-06-03T07:22:46.000Z</time>
      </trkpt>
      <trkpt lat="44.54274" lon="4.23402">
        <ele>530</ele>
        <time>2018-06-03T07:22:47.000Z</time>
      </trkpt>
      <trkpt lat="44.54271" lon="4.23407">
        <ele>529</ele>
        <time>2018-06-03T07:22:48.000Z</time>
      </trkpt>
      <trkpt lat="44.54268" lon="4.23413">
        <ele>529</ele>
        <time>2018-06-03T07:22:49.000Z</time>
      </trkpt>
      <trkpt lat="44.54264" lon="4.23419">
        <ele>527</ele>
        <time>2018-06-03T07:22:50.000Z</time>
      </trkpt>
      <trkpt lat="44.5426" lon="4.23425">
        <ele>527</ele>
        <time>2018-06-03T07:22:51.000Z</time>
      </trkpt>
      <trkpt lat="44.54256" lon="4.23432">
        <ele>527</ele>
        <time>2018-06-03T07:22:52.000Z</time>
      </trkpt>
      <trkpt lat="44.54253" lon="4.2344">
        <ele>527</ele>
        <time>2018-06-03T07:22:53.000Z</time>
      </trkpt>
      <trkpt lat="44.54251" lon="4.23449">
        <ele>527</ele>
        <time>2018-06-03T07:22:54.000Z</time>
      </trkpt>
      <trkpt lat="44.54249" lon="4.23458">
        <ele>524</ele>
        <time>2018-06-03T07:22:55.000Z</time>
      </trkpt>
      <trkpt lat="44.54247" lon="4.23467">
        <ele>524</ele>
        <time>2018-06-03T07:22:56.000Z</time>
      </trkpt>
      <trkpt lat="44.54245" lon="4.23476">
        <ele>523</ele>
        <time>2018-06-03T07:22:57.000Z</time>
      </trkpt>
      <trkpt lat="44.54244" lon="4.23485">
        <ele>523</ele>
        <time>2018-06-03T07:22:58.000Z</time>
      </trkpt>
      <trkpt lat="44.54242" lon="4.23494">
        <ele>523</ele>
        <time>2018-06-03T07:22:59.000Z</time>
      </trkpt>
      <trkpt lat="44.5424" lon="4.23503">
        <ele>521</ele>
        <time>2018-06-03T07:23:00.000Z</time>
      </trkpt>
      <trkpt lat="44.54238" lon="4.23512">
        <ele>521</ele>
        <time>2018-06-03T07:23:01.000Z</time>
      </trkpt>
      <trkpt lat="44.54237" lon="4.23521">
        <ele>521</ele>
        <time>2018-06-03T07:23:02.000Z</time>
      </trkpt>
      <trkpt lat="44.54238" lon="4.23529">
        <ele>521</ele>
        <time>2018-06-03T07:23:03.000Z</time>
      </trkpt>
      <trkpt lat="44.54237" lon="4.23538">
        <ele>521</ele>
        <time>2018-06-03T07:23:04.000Z</time>
      </trkpt>
      <trkpt lat="44.54236" lon="4.23547">
        <ele>521</ele>
        <time>2018-06-03T07:23:05.000Z</time>
      </trkpt>
      <trkpt lat="44.54234" lon="4.23556">
        <ele>521</ele>
        <time>2018-06-03T07:23:06.000Z</time>
      </trkpt>
      <trkpt lat="44.54233" lon="4.23565">
        <ele>521</ele>
        <time>2018-06-03T07:23:07.000Z</time>
      </trkpt>
      <trkpt lat="44.54231" lon="4.23575">
        <ele>521</ele>
        <time>2018-06-03T07:23:08.000Z</time>
      </trkpt>
      <trkpt lat="44.54229" lon="4.23585">
        <ele>519</ele>
        <time>2018-06-03T07:23:09.000Z</time>
      </trkpt>
      <trkpt lat="44.54228" lon="4.23596">
        <ele>518</ele>
        <time>2018-06-03T07:23:10.000Z</time>
      </trkpt>
      <trkpt lat="44.54227" lon="4.23607">
        <ele>518</ele>
        <time>2018-06-03T07:23:11.000Z</time>
      </trkpt>
      <trkpt lat="44.54228" lon="4.23617">
        <ele>517</ele>
        <time>2018-06-03T07:23:12.000Z</time>
      </trkpt>
      <trkpt lat="44.54228" lon="4.23626">
        <ele>517</ele>
        <time>2018-06-03T07:23:13.000Z</time>
      </trkpt>
      <trkpt lat="44.54227" lon="4.23634">
        <ele>517</ele>
        <time>2018-06-03T07:23:14.000Z</time>
      </trkpt>
      <trkpt lat="44.54226" lon="4.23641">
        <ele>516</ele>
        <time>2018-06-03T07:23:15.000Z</time>
      </trkpt>
      <trkpt lat="44.54223" lon="4.23648">
        <ele>516</ele>
        <time>2018-06-03T07:23:16.000Z</time>
      </trkpt>
      <trkpt lat="44.5422" lon="4.23655">
        <ele>516</ele>
        <time>2018-06-03T07:23:17.000Z</time>
      </trkpt>
      <trkpt lat="44.54218" lon="4.23663">
        <ele>516</ele>
        <time>2018-06-03T07:23:18.000Z</time>
      </trkpt>
      <trkpt lat="44.54217" lon="4.23671">
        <ele>512</ele>
        <time>2018-06-03T07:23:19.000Z</time>
      </trkpt>
      <trkpt lat="44.54218" lon="4.23679">
        <ele>512</ele>
        <time>2018-06-03T07:23:20.000Z</time>
      </trkpt>
      <trkpt lat="44.54219" lon="4.23687">
        <ele>512</ele>
        <time>2018-06-03T07:23:21.000Z</time>
      </trkpt>
      <trkpt lat="44.54221" lon="4.23696">
        <ele>512</ele>
        <time>2018-06-03T07:23:22.000Z</time>
      </trkpt>
      <trkpt lat="44.54223" lon="4.23704">
        <ele>511</ele>
        <time>2018-06-03T07:23:23.000Z</time>
      </trkpt>
      <trkpt lat="44.54225" lon="4.23712">
        <ele>511</ele>
        <time>2018-06-03T07:23:24.000Z</time>
      </trkpt>
      <trkpt lat="44.54228" lon="4.2372">
        <ele>511</ele>
        <time>2018-06-03T07:23:25.000Z</time>
      </trkpt>
      <trkpt lat="44.5423" lon="4.23728">
        <ele>511</ele>
        <time>2018-06-03T07:23:26.000Z</time>
      </trkpt>
      <trkpt lat="44.54233" lon="4.23735">
        <ele>510</ele>
        <time>2018-06-03T07:23:27.000Z</time>
      </trkpt>
      <trkpt lat="44.54234" lon="4.23742">
        <ele>510</ele>
        <time>2018-06-03T07:23:28.000Z</time>
      </trkpt>
      <trkpt lat="44.54236" lon="4.23749">
        <ele>510</ele>
        <time>2018-06-03T07:23:29.000Z</time>
      </trkpt>
      <trkpt lat="44.54237" lon="4.23756">
        <ele>508</ele>
        <time>2018-06-03T07:23:30.000Z</time>
      </trkpt>
      <trkpt lat="44.54238" lon="4.23763">
        <ele>507</ele>
        <time>2018-06-03T07:23:31.000Z</time>
      </trkpt>
      <trkpt lat="44.54239" lon="4.23768">
        <ele>507</ele>
        <time>2018-06-03T07:23:32.000Z</time>
      </trkpt>
      <trkpt lat="44.54239" lon="4.23775">
        <ele>506</ele>
        <time>2018-06-03T07:23:33.000Z</time>
      </trkpt>
      <trkpt lat="44.54241" lon="4.23781">
        <ele>506</ele>
        <time>2018-06-03T07:23:34.000Z</time>
      </trkpt>
      <trkpt lat="44.54242" lon="4.23786">
        <ele>505</ele>
        <time>2018-06-03T07:23:35.000Z</time>
      </trkpt>
      <trkpt lat="44.54243" lon="4.2379">
        <ele>505</ele>
        <time>2018-06-03T07:23:36.000Z</time>
      </trkpt>
      <trkpt lat="44.54244" lon="4.23795">
        <ele>505</ele>
        <time>2018-06-03T07:23:37.000Z</time>
      </trkpt>
      <trkpt lat="44.54244" lon="4.23799">
        <ele>504</ele>
        <time>2018-06-03T07:23:38.000Z</time>
      </trkpt>
      <trkpt lat="44.54243" lon="4.23803">
        <ele>504</ele>
        <time>2018-06-03T07:23:39.000Z</time>
      </trkpt>
      <trkpt lat="44.54242" lon="4.23806">
        <ele>504</ele>
        <time>2018-06-03T07:23:40.000Z</time>
      </trkpt>
      <trkpt lat="44.54239" lon="4.23808">
        <ele>504</ele>
        <time>2018-06-03T07:23:41.000Z</time>
      </trkpt>
      <trkpt lat="44.54237" lon="4.2381">
        <ele>504</ele>
        <time>2018-06-03T07:23:42.000Z</time>
      </trkpt>
      <trkpt lat="44.54234" lon="4.23811">
        <ele>504</ele>
        <time>2018-06-03T07:23:43.000Z</time>
      </trkpt>
      <trkpt lat="44.54232" lon="4.23811">
        <ele>504</ele>
        <time>2018-06-03T07:23:44.000Z</time>
      </trkpt>
      <trkpt lat="44.5423" lon="4.2381">
        <ele>504</ele>
        <time>2018-06-03T07:23:45.000Z</time>
      </trkpt>
      <trkpt lat="44.54229" lon="4.23809">
        <ele>504</ele>
        <time>2018-06-03T07:23:46.000Z</time>
      </trkpt>
      <trkpt lat="44.54227" lon="4.23809">
        <ele>504</ele>
        <time>2018-06-03T07:23:47.000Z</time>
      </trkpt>
      <trkpt lat="44.54226" lon="4.23809">
        <ele>504</ele>
        <time>2018-06-03T07:23:48.000Z</time>
      </trkpt>
      <trkpt lat="44.54225" lon="4.2381">
        <ele>504</ele>
        <time>2018-06-03T07:23:49.000Z</time>
      </trkpt>
      <trkpt lat="44.54225" lon="4.23811">
        <ele>504</ele>
        <time>2018-06-03T07:23:50.000Z</time>
      </trkpt>
      <trkpt lat="44.54224" lon="4.23811">
        <ele>504</ele>
        <time>2018-06-03T07:23:51.000Z</time>
      </trkpt>
      <trkpt lat="44.54224" lon="4.23812">
        <ele>504</ele>
        <time>2018-06-03T07:23:52.000Z</time>
      </trkpt>
      <trkpt lat="44.54223" lon="4.23813">
        <ele>504</ele>
        <time>2018-06-03T07:23:53.000Z</time>
      </trkpt>
      <trkpt lat="44.54223" lon="4.23813">
        <ele>504</ele>
        <time>2018-06-03T07:23:54.000Z</time>
      </trkpt>
      <trkpt lat="44.54222" lon="4.23814">
        <ele>504</ele>
        <time>2018-06-03T07:23:55.000Z</time>
      </trkpt>
      <trkpt lat="44.54221" lon="4.23816">
        <ele>504</ele>
        <time>2018-06-03T07:23:56.000Z</time>
      </trkpt>
      <trkpt lat="44.5422" lon="4.23818">
        <ele>504</ele>
        <time>2018-06-03T07:23:57.000Z</time>
      </trkpt>
      <trkpt lat="44.5422" lon="4.23821">
        <ele>504</ele>
        <time>2018-06-03T07:23:58.000Z</time>
      </trkpt>
      <trkpt lat="44.5422" lon="4.23823">
        <ele>504</ele>
        <time>2018-06-03T07:23:59.000Z</time>
      </trkpt>
      <trkpt lat="44.5422" lon="4.23824">
        <ele>504</ele>
        <time>2018-06-03T07:24:00.000Z</time>
      </trkpt>
      <trkpt lat="44.54219" lon="4.23827">
        <ele>503</ele>
        <time>2018-06-03T07:24:01.000Z</time>
      </trkpt>
      <trkpt lat="44.54218" lon="4.23829">
        <ele>503</ele>
        <time>2018-06-03T07:24:02.000Z</time>
      </trkpt>
      <trkpt lat="44.54217" lon="4.23831">
        <ele>503</ele>
        <time>2018-06-03T07:24:03.000Z</time>
      </trkpt>
      <trkpt lat="44.54217" lon="4.23833">
        <ele>503</ele>
        <time>2018-06-03T07:24:04.000Z</time>
      </trkpt>
      <trkpt lat="44.54216" lon="4.23834">
        <ele>499</ele>
        <time>2018-06-03T07:24:05.000Z</time>
      </trkpt>
      <trkpt lat="44.54216" lon="4.23836">
        <ele>499</ele>
        <time>2018-06-03T07:24:06.000Z</time>
      </trkpt>
      <trkpt lat="44.54215" lon="4.23838">
        <ele>499</ele>
        <time>2018-06-03T07:24:07.000Z</time>
      </trkpt>
      <trkpt lat="44.54214" lon="4.23841">
        <ele>499</ele>
        <time>2018-06-03T07:24:08.000Z</time>
      </trkpt>
      <trkpt lat="44.54213" lon="4.23844">
        <ele>499</ele>
        <time>2018-06-03T07:24:09.000Z</time>
      </trkpt>
      <trkpt lat="44.54212" lon="4.23847">
        <ele>499</ele>
        <time>2018-06-03T07:24:10.000Z</time>
      </trkpt>
      <trkpt lat="44.54212" lon="4.2385">
        <ele>499</ele>
        <time>2018-06-03T07:24:11.000Z</time>
      </trkpt>
      <trkpt lat="44.54212" lon="4.23854">
        <ele>498</ele>
        <time>2018-06-03T07:24:12.000Z</time>
      </trkpt>
      <trkpt lat="44.54211" lon="4.23858">
        <ele>498</ele>
        <time>2018-06-03T07:24:13.000Z</time>
      </trkpt>
      <trkpt lat="44.5421" lon="4.23863">
        <ele>498</ele>
        <time>2018-06-03T07:24:14.000Z</time>
      </trkpt>
      <trkpt lat="44.54209" lon="4.23869">
        <ele>498</ele>
        <time>2018-06-03T07:24:15.000Z</time>
      </trkpt>
      <trkpt lat="44.54208" lon="4.23875">
        <ele>497</ele>
        <time>2018-06-03T07:24:16.000Z</time>
      </trkpt>
      <trkpt lat="44.54208" lon="4.23882">
        <ele>497</ele>
        <time>2018-06-03T07:24:17.000Z</time>
      </trkpt>
      <trkpt lat="44.54207" lon="4.23889">
        <ele>497</ele>
        <time>2018-06-03T07:24:18.000Z</time>
      </trkpt>
      <trkpt lat="44.54207" lon="4.23896">
        <ele>497</ele>
        <time>2018-06-03T07:24:19.000Z</time>
      </trkpt>
      <trkpt lat="44.54206" lon="4.23903">
        <ele>496</ele>
        <time>2018-06-03T07:24:20.000Z</time>
      </trkpt>
      <trkpt lat="44.54204" lon="4.2391">
        <ele>496</ele>
        <time>2018-06-03T07:24:21.000Z</time>
      </trkpt>
      <trkpt lat="44.54202" lon="4.23915">
        <ele>496</ele>
        <time>2018-06-03T07:24:22.000Z</time>
      </trkpt>
      <trkpt lat="44.54199" lon="4.23919">
        <ele>493</ele>
        <time>2018-06-03T07:24:23.000Z</time>
      </trkpt>
      <trkpt lat="44.54196" lon="4.23922">
        <ele>493</ele>
        <time>2018-06-03T07:24:24.000Z</time>
      </trkpt>
      <trkpt lat="44.54194" lon="4.23925">
        <ele>493</ele>
        <time>2018-06-03T07:24:25.000Z</time>
      </trkpt>
      <trkpt lat="44.54191" lon="4.23928">
        <ele>493</ele>
        <time>2018-06-03T07:24:26.000Z</time>
      </trkpt>
      <trkpt lat="44.54187" lon="4.2393">
        <ele>493</ele>
        <time>2018-06-03T07:24:27.000Z</time>
      </trkpt>
      <trkpt lat="44.54182" lon="4.23932">
        <ele>493</ele>
        <time>2018-06-03T07:24:28.000Z</time>
      </trkpt>
      <trkpt lat="44.54178" lon="4.23935">
        <ele>493</ele>
        <time>2018-06-03T07:24:29.000Z</time>
      </trkpt>
      <trkpt lat="44.54174" lon="4.23939">
        <ele>493</ele>
        <time>2018-06-03T07:24:30.000Z</time>
      </trkpt>
      <trkpt lat="44.5417" lon="4.23943">
        <ele>493</ele>
        <time>2018-06-03T07:24:31.000Z</time>
      </trkpt>
      <trkpt lat="44.54167" lon="4.23947">
        <ele>493</ele>
        <time>2018-06-03T07:24:32.000Z</time>
      </trkpt>
      <trkpt lat="44.54165" lon="4.23951">
        <ele>494</ele>
        <time>2018-06-03T07:24:33.000Z</time>
      </trkpt>
      <trkpt lat="44.54163" lon="4.23956">
        <ele>494</ele>
        <time>2018-06-03T07:24:34.000Z</time>
      </trkpt>
      <trkpt lat="44.54163" lon="4.23961">
        <ele>493</ele>
        <time>2018-06-03T07:24:35.000Z</time>
      </trkpt>
      <trkpt lat="44.54163" lon="4.23965">
        <ele>493</ele>
        <time>2018-06-03T07:24:36.000Z</time>
      </trkpt>
      <trkpt lat="44.54163" lon="4.23969">
        <ele>493</ele>
        <time>2018-06-03T07:24:37.000Z</time>
      </trkpt>
      <trkpt lat="44.54164" lon="4.23972">
        <ele>493</ele>
        <time>2018-06-03T07:24:38.000Z</time>
      </trkpt>
      <trkpt lat="44.54164" lon="4.23975">
        <ele>493</ele>
        <time>2018-06-03T07:24:39.000Z</time>
      </trkpt>
      <trkpt lat="44.54165" lon="4.23978">
        <ele>493</ele>
        <time>2018-06-03T07:24:40.000Z</time>
      </trkpt>
      <trkpt lat="44.54166" lon="4.23982">
        <ele>492</ele>
        <time>2018-06-03T07:24:41.000Z</time>
      </trkpt>
      <trkpt lat="44.54168" lon="4.23984">
        <ele>491</ele>
        <time>2018-06-03T07:24:42.000Z</time>
      </trkpt>
      <trkpt lat="44.54169" lon="4.23985">
        <ele>491</ele>
        <time>2018-06-03T07:24:43.000Z</time>
      </trkpt>
      <trkpt lat="44.5417" lon="4.23987">
        <ele>491</ele>
        <time>2018-06-03T07:24:44.000Z</time>
      </trkpt>
      <trkpt lat="44.54171" lon="4.2399">
        <ele>491</ele>
        <time>2018-06-03T07:24:45.000Z</time>
      </trkpt>
      <trkpt lat="44.54172" lon="4.23993">
        <ele>491</ele>
        <time>2018-06-03T07:24:46.000Z</time>
      </trkpt>
      <trkpt lat="44.54173" lon="4.23996">
        <ele>491</ele>
        <time>2018-06-03T07:24:47.000Z</time>
      </trkpt>
      <trkpt lat="44.54175" lon="4.23998">
        <ele>491</ele>
        <time>2018-06-03T07:24:48.000Z</time>
      </trkpt>
      <trkpt lat="44.54176" lon="4.24">
        <ele>491</ele>
        <time>2018-06-03T07:24:49.000Z</time>
      </trkpt>
      <trkpt lat="44.54178" lon="4.24001">
        <ele>491</ele>
        <time>2018-06-03T07:24:50.000Z</time>
      </trkpt>
      <trkpt lat="44.54179" lon="4.24001">
        <ele>491</ele>
        <time>2018-06-03T07:24:51.000Z</time>
      </trkpt>
      <trkpt lat="44.54179" lon="4.24001">
        <ele>491</ele>
        <time>2018-06-03T07:24:52.000Z</time>
      </trkpt>
      <trkpt lat="44.54179" lon="4.24001">
        <ele>491</ele>
        <time>2018-06-03T07:24:53.000Z</time>
      </trkpt>
      <trkpt lat="44.54179" lon="4.24001">
        <ele>491</ele>
        <time>2018-06-03T07:24:54.000Z</time>
      </trkpt>
      <trkpt lat="44.5418" lon="4.24002">
        <ele>491</ele>
        <time>2018-06-03T07:24:55.000Z</time>
      </trkpt>
      <trkpt lat="44.5418" lon="4.24002">
        <ele>491</ele>
        <time>2018-06-03T07:24:56.000Z</time>
      </trkpt>
      <trkpt lat="44.54179" lon="4.24003">
        <ele>491</ele>
        <time>2018-06-03T07:24:57.000Z</time>
      </trkpt>
      <trkpt lat="44.54179" lon="4.24004">
        <ele>491</ele>
        <time>2018-06-03T07:24:58.000Z</time>
      </trkpt>
      <trkpt lat="44.54179" lon="4.24006">
        <ele>491</ele>
        <time>2018-06-03T07:24:59.000Z</time>
      </trkpt>
      <trkpt lat="44.54179" lon="4.24007">
        <ele>491</ele>
        <time>2018-06-03T07:25:00.000Z</time>
      </trkpt>
      <trkpt lat="44.54179" lon="4.24007">
        <ele>491</ele>
        <time>2018-06-03T07:25:01.000Z</time>
      </trkpt>
      <trkpt lat="44.54179" lon="4.24007">
        <ele>491</ele>
        <time>2018-06-03T07:25:02.000Z</time>
      </trkpt>
      <trkpt lat="44.54179" lon="4.24008">
        <ele>491</ele>
        <time>2018-06-03T07:25:03.000Z</time>
      </trkpt>
      <trkpt lat="44.54179" lon="4.24008">
        <ele>491</ele>
        <time>2018-06-03T07:25:04.000Z</time>
      </trkpt>
      <trkpt lat="44.54179" lon="4.2401">
        <ele>491</ele>
        <time>2018-06-03T07:25:05.000Z</time>
      </trkpt>
      <trkpt lat="44.5418" lon="4.24013">
        <ele>491</ele>
        <time>2018-06-03T07:25:06.000Z</time>
      </trkpt>
      <trkpt lat="44.5418" lon="4.24015">
        <ele>492</ele>
        <time>2018-06-03T07:25:07.000Z</time>
      </trkpt>
      <trkpt lat="44.5418" lon="4.24018">
        <ele>492</ele>
        <time>2018-06-03T07:25:08.000Z</time>
      </trkpt>
      <trkpt lat="44.54181" lon="4.24022">
        <ele>492</ele>
        <time>2018-06-03T07:25:09.000Z</time>
      </trkpt>
      <trkpt lat="44.54182" lon="4.24026">
        <ele>492</ele>
        <time>2018-06-03T07:25:10.000Z</time>
      </trkpt>
      <trkpt lat="44.54183" lon="4.24028">
        <ele>492</ele>
        <time>2018-06-03T07:25:11.000Z</time>
      </trkpt>
      <trkpt lat="44.54183" lon="4.24031">
        <ele>492</ele>
        <time>2018-06-03T07:25:12.000Z</time>
      </trkpt>
      <trkpt lat="44.54183" lon="4.24034">
        <ele>492</ele>
        <time>2018-06-03T07:25:13.000Z</time>
      </trkpt>
      <trkpt lat="44.54183" lon="4.24036">
        <ele>492</ele>
        <time>2018-06-03T07:25:14.000Z</time>
      </trkpt>
      <trkpt lat="44.54185" lon="4.24038">
        <ele>492</ele>
        <time>2018-06-03T07:25:15.000Z</time>
      </trkpt>
      <trkpt lat="44.54185" lon="4.2404">
        <ele>492</ele>
        <time>2018-06-03T07:25:16.000Z</time>
      </trkpt>
      <trkpt lat="44.54186" lon="4.24041">
        <ele>492</ele>
        <time>2018-06-03T07:25:17.000Z</time>
      </trkpt>
      <trkpt lat="44.54188" lon="4.24043">
        <ele>492</ele>
        <time>2018-06-03T07:25:18.000Z</time>
      </trkpt>
      <trkpt lat="44.54189" lon="4.24045">
        <ele>492</ele>
        <time>2018-06-03T07:25:19.000Z</time>
      </trkpt>
      <trkpt lat="44.5419" lon="4.24048">
        <ele>493</ele>
        <time>2018-06-03T07:25:20.000Z</time>
      </trkpt>
      <trkpt lat="44.54191" lon="4.24051">
        <ele>493</ele>
        <time>2018-06-03T07:25:21.000Z</time>
      </trkpt>
      <trkpt lat="44.54192" lon="4.24054">
        <ele>493</ele>
        <time>2018-06-03T07:25:22.000Z</time>
      </trkpt>
      <trkpt lat="44.54194" lon="4.24057">
        <ele>493</ele>
        <time>2018-06-03T07:25:23.000Z</time>
      </trkpt>
      <trkpt lat="44.54195" lon="4.24059">
        <ele>493</ele>
        <time>2018-06-03T07:25:24.000Z</time>
      </trkpt>
      <trkpt lat="44.54197" lon="4.24062">
        <ele>493</ele>
        <time>2018-06-03T07:25:25.000Z</time>
      </trkpt>
      <trkpt lat="44.54199" lon="4.24064">
        <ele>493</ele>
        <time>2018-06-03T07:25:26.000Z</time>
      </trkpt>
      <trkpt lat="44.54201" lon="4.24067">
        <ele>493</ele>
        <time>2018-06-03T07:25:27.000Z</time>
      </trkpt>
      <trkpt lat="44.54204" lon="4.24069">
        <ele>493</ele>
        <time>2018-06-03T07:25:28.000Z</time>
      </trkpt>
      <trkpt lat="44.54207" lon="4.2407">
        <ele>493</ele>
        <time>2018-06-03T07:25:29.000Z</time>
      </trkpt>
      <trkpt lat="44.54209" lon="4.24072">
        <ele>493</ele>
        <time>2018-06-03T07:25:30.000Z</time>
      </trkpt>
      <trkpt lat="44.54212" lon="4.24073">
        <ele>493</ele>
        <time>2018-06-03T07:25:31.000Z</time>
      </trkpt>
      <trkpt lat="44.54214" lon="4.24073">
        <ele>493</ele>
        <time>2018-06-03T07:25:32.000Z</time>
      </trkpt>
      <trkpt lat="44.54217" lon="4.24072">
        <ele>493</ele>
        <time>2018-06-03T07:25:33.000Z</time>
      </trkpt>
      <trkpt lat="44.54221" lon="4.24072">
        <ele>493</ele>
        <time>2018-06-03T07:25:34.000Z</time>
      </trkpt>
      <trkpt lat="44.54224" lon="4.24071">
        <ele>493</ele>
        <time>2018-06-03T07:25:35.000Z</time>
      </trkpt>
      <trkpt lat="44.54227" lon="4.24071">
        <ele>493</ele>
        <time>2018-06-03T07:25:36.000Z</time>
      </trkpt>
      <trkpt lat="44.54229" lon="4.24071">
        <ele>493</ele>
        <time>2018-06-03T07:25:37.000Z</time>
      </trkpt>
      <trkpt lat="44.54232" lon="4.2407">
        <ele>493</ele>
        <time>2018-06-03T07:25:38.000Z</time>
      </trkpt>
      <trkpt lat="44.54234" lon="4.24069">
        <ele>493</ele>
        <time>2018-06-03T07:25:39.000Z</time>
      </trkpt>
      <trkpt lat="44.54236" lon="4.24069">
        <ele>493</ele>
        <time>2018-06-03T07:25:40.000Z</time>
      </trkpt>
      <trkpt lat="44.54238" lon="4.24069">
        <ele>493</ele>
        <time>2018-06-03T07:25:41.000Z</time>
      </trkpt>
      <trkpt lat="44.54241" lon="4.24069">
        <ele>493</ele>
        <time>2018-06-03T07:25:42.000Z</time>
      </trkpt>
      <trkpt lat="44.54243" lon="4.24068">
        <ele>493</ele>
        <time>2018-06-03T07:25:43.000Z</time>
      </trkpt>
      <trkpt lat="44.54245" lon="4.24067">
        <ele>493</ele>
        <time>2018-06-03T07:25:44.000Z</time>
      </trkpt>
      <trkpt lat="44.54247" lon="4.24066">
        <ele>493</ele>
        <time>2018-06-03T07:25:45.000Z</time>
      </trkpt>
      <trkpt lat="44.54249" lon="4.24067">
        <ele>493</ele>
        <time>2018-06-03T07:25:46.000Z</time>
      </trkpt>
      <trkpt lat="44.54252" lon="4.24066">
        <ele>491</ele>
        <time>2018-06-03T07:25:47.000Z</time>
      </trkpt>
      <trkpt lat="44.54254" lon="4.24066">
        <ele>491</ele>
        <time>2018-06-03T07:25:48.000Z</time>
      </trkpt>
      <trkpt lat="44.54256" lon="4.24066">
        <ele>491</ele>
        <time>2018-06-03T07:25:49.000Z</time>
      </trkpt>
      <trkpt lat="44.54258" lon="4.24066">
        <ele>491</ele>
        <time>2018-06-03T07:25:50.000Z</time>
      </trkpt>
      <trkpt lat="44.54261" lon="4.24067">
        <ele>491</ele>
        <time>2018-06-03T07:25:51.000Z</time>
      </trkpt>
      <trkpt lat="44.54263" lon="4.24068">
        <ele>491</ele>
        <time>2018-06-03T07:25:52.000Z</time>
      </trkpt>
      <trkpt lat="44.54265" lon="4.24069">
        <ele>490</ele>
        <time>2018-06-03T07:25:53.000Z</time>
      </trkpt>
      <trkpt lat="44.54268" lon="4.2407">
        <ele>490</ele>
        <time>2018-06-03T07:25:54.000Z</time>
      </trkpt>
      <trkpt lat="44.54271" lon="4.2407">
        <ele>490</ele>
        <time>2018-06-03T07:25:55.000Z</time>
      </trkpt>
      <trkpt lat="44.54274" lon="4.24071">
        <ele>490</ele>
        <time>2018-06-03T07:25:56.000Z</time>
      </trkpt>
      <trkpt lat="44.54276" lon="4.24071">
        <ele>490</ele>
        <time>2018-06-03T07:25:57.000Z</time>
      </trkpt>
      <trkpt lat="44.54279" lon="4.24072">
        <ele>490</ele>
        <time>2018-06-03T07:25:58.000Z</time>
      </trkpt>
      <trkpt lat="44.54282" lon="4.24072">
        <ele>490</ele>
        <time>2018-06-03T07:25:59.000Z</time>
      </trkpt>
      <trkpt lat="44.54285" lon="4.24073">
        <ele>490</ele>
        <time>2018-06-03T07:26:00.000Z</time>
      </trkpt>
      <trkpt lat="44.54287" lon="4.24073">
        <ele>490</ele>
        <time>2018-06-03T07:26:01.000Z</time>
      </trkpt>
      <trkpt lat="44.5429" lon="4.24073">
        <ele>490</ele>
        <time>2018-06-03T07:26:02.000Z</time>
      </trkpt>
      <trkpt lat="44.54292" lon="4.24073">
        <ele>490</ele>
        <time>2018-06-03T07:26:03.000Z</time>
      </trkpt>
      <trkpt lat="44.54295" lon="4.24073">
        <ele>490</ele>
        <time>2018-06-03T07:26:04.000Z</time>
      </trkpt>
      <trkpt lat="44.54298" lon="4.24074">
        <ele>490</ele>
        <time>2018-06-03T07:26:05.000Z</time>
      </trkpt>
      <trkpt lat="44.543" lon="4.24075">
        <ele>490</ele>
        <time>2018-06-03T07:26:06.000Z</time>
      </trkpt>
      <trkpt lat="44.54303" lon="4.24076">
        <ele>490</ele>
        <time>2018-06-03T07:26:07.000Z</time>
      </trkpt>
      <trkpt lat="44.54305" lon="4.24076">
        <ele>490</ele>
        <time>2018-06-03T07:26:08.000Z</time>
      </trkpt>
      <trkpt lat="44.54308" lon="4.24077">
        <ele>490</ele>
        <time>2018-06-03T07:26:09.000Z</time>
      </trkpt>
      <trkpt lat="44.5431" lon="4.24079">
        <ele>491</ele>
        <time>2018-06-03T07:26:10.000Z</time>
      </trkpt>
      <trkpt lat="44.54313" lon="4.24081">
        <ele>491</ele>
        <time>2018-06-03T07:26:11.000Z</time>
      </trkpt>
      <trkpt lat="44.54315" lon="4.24083">
        <ele>491</ele>
        <time>2018-06-03T07:26:12.000Z</time>
      </trkpt>
      <trkpt lat="44.54317" lon="4.24085">
        <ele>497</ele>
        <time>2018-06-03T07:26:13.000Z</time>
      </trkpt>
      <trkpt lat="44.54319" lon="4.24088">
        <ele>497</ele>
        <time>2018-06-03T07:26:14.000Z</time>
      </trkpt>
      <trkpt lat="44.54321" lon="4.2409">
        <ele>497</ele>
        <time>2018-06-03T07:26:15.000Z</time>
      </trkpt>
      <trkpt lat="44.54323" lon="4.24094">
        <ele>497</ele>
        <time>2018-06-03T07:26:16.000Z</time>
      </trkpt>
      <trkpt lat="44.54324" lon="4.24097">
        <ele>497</ele>
        <time>2018-06-03T07:26:17.000Z</time>
      </trkpt>
      <trkpt lat="44.54325" lon="4.241">
        <ele>497</ele>
        <time>2018-06-03T07:26:18.000Z</time>
      </trkpt>
      <trkpt lat="44.54326" lon="4.24103">
        <ele>498</ele>
        <time>2018-06-03T07:26:19.000Z</time>
      </trkpt>
      <trkpt lat="44.54328" lon="4.24106">
        <ele>498</ele>
        <time>2018-06-03T07:26:20.000Z</time>
      </trkpt>
      <trkpt lat="44.54329" lon="4.24108">
        <ele>498</ele>
        <time>2018-06-03T07:26:21.000Z</time>
      </trkpt>
      <trkpt lat="44.54331" lon="4.2411">
        <ele>498</ele>
        <time>2018-06-03T07:26:22.000Z</time>
      </trkpt>
      <trkpt lat="44.54333" lon="4.24112">
        <ele>499</ele>
        <time>2018-06-03T07:26:23.000Z</time>
      </trkpt>
      <trkpt lat="44.54335" lon="4.24113">
        <ele>500</ele>
        <time>2018-06-03T07:26:24.000Z</time>
      </trkpt>
      <trkpt lat="44.54337" lon="4.24114">
        <ele>500</ele>
        <time>2018-06-03T07:26:25.000Z</time>
      </trkpt>
      <trkpt lat="44.54339" lon="4.24116">
        <ele>501</ele>
        <time>2018-06-03T07:26:26.000Z</time>
      </trkpt>
      <trkpt lat="44.54341" lon="4.24117">
        <ele>501</ele>
        <time>2018-06-03T07:26:27.000Z</time>
      </trkpt>
      <trkpt lat="44.54343" lon="4.24117">
        <ele>501</ele>
        <time>2018-06-03T07:26:28.000Z</time>
      </trkpt>
      <trkpt lat="44.54345" lon="4.24117">
        <ele>501</ele>
        <time>2018-06-03T07:26:29.000Z</time>
      </trkpt>
      <trkpt lat="44.54348" lon="4.24117">
        <ele>501</ele>
        <time>2018-06-03T07:26:30.000Z</time>
      </trkpt>
      <trkpt lat="44.54351" lon="4.24117">
        <ele>501</ele>
        <time>2018-06-03T07:26:31.000Z</time>
      </trkpt>
      <trkpt lat="44.54354" lon="4.24117">
        <ele>501</ele>
        <time>2018-06-03T07:26:32.000Z</time>
      </trkpt>
      <trkpt lat="44.54357" lon="4.24118">
        <ele>501</ele>
        <time>2018-06-03T07:26:33.000Z</time>
      </trkpt>
      <trkpt lat="44.54359" lon="4.24118">
        <ele>501</ele>
        <time>2018-06-03T07:26:34.000Z</time>
      </trkpt>
      <trkpt lat="44.54362" lon="4.24117">
        <ele>501</ele>
        <time>2018-06-03T07:26:35.000Z</time>
      </trkpt>
      <trkpt lat="44.54365" lon="4.24117">
        <ele>501</ele>
        <time>2018-06-03T07:26:36.000Z</time>
      </trkpt>
      <trkpt lat="44.54368" lon="4.24117">
        <ele>501</ele>
        <time>2018-06-03T07:26:37.000Z</time>
      </trkpt>
      <trkpt lat="44.5437" lon="4.24117">
        <ele>501</ele>
        <time>2018-06-03T07:26:38.000Z</time>
      </trkpt>
      <trkpt lat="44.54372" lon="4.24118">
        <ele>501</ele>
        <time>2018-06-03T07:26:39.000Z</time>
      </trkpt>
      <trkpt lat="44.54375" lon="4.24118">
        <ele>501</ele>
        <time>2018-06-03T07:26:40.000Z</time>
      </trkpt>
      <trkpt lat="44.54377" lon="4.24119">
        <ele>502</ele>
        <time>2018-06-03T07:26:41.000Z</time>
      </trkpt>
      <trkpt lat="44.54379" lon="4.2412">
        <ele>502</ele>
        <time>2018-06-03T07:26:42.000Z</time>
      </trkpt>
      <trkpt lat="44.54382" lon="4.2412">
        <ele>502</ele>
        <time>2018-06-03T07:26:43.000Z</time>
      </trkpt>
      <trkpt lat="44.54384" lon="4.24119">
        <ele>502</ele>
        <time>2018-06-03T07:26:44.000Z</time>
      </trkpt>
      <trkpt lat="44.54386" lon="4.24119">
        <ele>502</ele>
        <time>2018-06-03T07:26:45.000Z</time>
      </trkpt>
      <trkpt lat="44.54389" lon="4.24119">
        <ele>502</ele>
        <time>2018-06-03T07:26:46.000Z</time>
      </trkpt>
      <trkpt lat="44.54391" lon="4.2412">
        <ele>502</ele>
        <time>2018-06-03T07:26:47.000Z</time>
      </trkpt>
      <trkpt lat="44.54394" lon="4.2412">
        <ele>502</ele>
        <time>2018-06-03T07:26:48.000Z</time>
      </trkpt>
      <trkpt lat="44.54396" lon="4.24121">
        <ele>502</ele>
        <time>2018-06-03T07:26:49.000Z</time>
      </trkpt>
      <trkpt lat="44.54398" lon="4.24121">
        <ele>502</ele>
        <time>2018-06-03T07:26:50.000Z</time>
      </trkpt>
      <trkpt lat="44.54401" lon="4.24122">
        <ele>502</ele>
        <time>2018-06-03T07:26:51.000Z</time>
      </trkpt>
      <trkpt lat="44.54403" lon="4.24122">
        <ele>502</ele>
        <time>2018-06-03T07:26:52.000Z</time>
      </trkpt>
      <trkpt lat="44.54406" lon="4.24123">
        <ele>502</ele>
        <time>2018-06-03T07:26:53.000Z</time>
      </trkpt>
      <trkpt lat="44.54408" lon="4.24124">
        <ele>502</ele>
        <time>2018-06-03T07:26:54.000Z</time>
      </trkpt>
      <trkpt lat="44.54411" lon="4.24125">
        <ele>502</ele>
        <time>2018-06-03T07:26:55.000Z</time>
      </trkpt>
      <trkpt lat="44.54414" lon="4.24127">
        <ele>502</ele>
        <time>2018-06-03T07:26:56.000Z</time>
      </trkpt>
      <trkpt lat="44.54417" lon="4.24128">
        <ele>503</ele>
        <time>2018-06-03T07:26:57.000Z</time>
      </trkpt>
      <trkpt lat="44.5442" lon="4.2413">
        <ele>503</ele>
        <time>2018-06-03T07:26:58.000Z</time>
      </trkpt>
      <trkpt lat="44.54422" lon="4.24132">
        <ele>503</ele>
        <time>2018-06-03T07:26:59.000Z</time>
      </trkpt>
      <trkpt lat="44.54425" lon="4.24133">
        <ele>503</ele>
        <time>2018-06-03T07:27:00.000Z</time>
      </trkpt>
      <trkpt lat="44.54428" lon="4.24135">
        <ele>503</ele>
        <time>2018-06-03T07:27:01.000Z</time>
      </trkpt>
      <trkpt lat="44.5443" lon="4.24137">
        <ele>503</ele>
        <time>2018-06-03T07:27:02.000Z</time>
      </trkpt>
      <trkpt lat="44.54433" lon="4.24137">
        <ele>503</ele>
        <time>2018-06-03T07:27:03.000Z</time>
      </trkpt>
      <trkpt lat="44.54435" lon="4.24138">
        <ele>503</ele>
        <time>2018-06-03T07:27:04.000Z</time>
      </trkpt>
      <trkpt lat="44.54437" lon="4.24139">
        <ele>504</ele>
        <time>2018-06-03T07:27:05.000Z</time>
      </trkpt>
      <trkpt lat="44.54439" lon="4.2414">
        <ele>504</ele>
        <time>2018-06-03T07:27:06.000Z</time>
      </trkpt>
      <trkpt lat="44.54441" lon="4.2414">
        <ele>504</ele>
        <time>2018-06-03T07:27:07.000Z</time>
      </trkpt>
      <trkpt lat="44.54443" lon="4.24141">
        <ele>504</ele>
        <time>2018-06-03T07:27:08.000Z</time>
      </trkpt>
      <trkpt lat="44.54445" lon="4.24141">
        <ele>504</ele>
        <time>2018-06-03T07:27:09.000Z</time>
      </trkpt>
      <trkpt lat="44.54447" lon="4.24142">
        <ele>504</ele>
        <time>2018-06-03T07:27:10.000Z</time>
      </trkpt>
      <trkpt lat="44.54449" lon="4.24142">
        <ele>504</ele>
        <time>2018-06-03T07:27:11.000Z</time>
      </trkpt>
      <trkpt lat="44.54452" lon="4.24144">
        <ele>504</ele>
        <time>2018-06-03T07:27:12.000Z</time>
      </trkpt>
      <trkpt lat="44.54454" lon="4.24145">
        <ele>504</ele>
        <time>2018-06-03T07:27:13.000Z</time>
      </trkpt>
      <trkpt lat="44.54456" lon="4.24146">
        <ele>504</ele>
        <time>2018-06-03T07:27:14.000Z</time>
      </trkpt>
      <trkpt lat="44.54457" lon="4.24147">
        <ele>504</ele>
        <time>2018-06-03T07:27:15.000Z</time>
      </trkpt>
      <trkpt lat="44.54459" lon="4.24149">
        <ele>504</ele>
        <time>2018-06-03T07:27:16.000Z</time>
      </trkpt>
      <trkpt lat="44.54461" lon="4.24151">
        <ele>504</ele>
        <time>2018-06-03T07:27:17.000Z</time>
      </trkpt>
      <trkpt lat="44.54463" lon="4.24153">
        <ele>504</ele>
        <time>2018-06-03T07:27:18.000Z</time>
      </trkpt>
      <trkpt lat="44.54466" lon="4.24154">
        <ele>504</ele>
        <time>2018-06-03T07:27:19.000Z</time>
      </trkpt>
      <trkpt lat="44.54468" lon="4.24155">
        <ele>505</ele>
        <time>2018-06-03T07:27:20.000Z</time>
      </trkpt>
      <trkpt lat="44.5447" lon="4.24156">
        <ele>505</ele>
        <time>2018-06-03T07:27:21.000Z</time>
      </trkpt>
      <trkpt lat="44.54472" lon="4.24157">
        <ele>505</ele>
        <time>2018-06-03T07:27:22.000Z</time>
      </trkpt>
      <trkpt lat="44.54474" lon="4.24159">
        <ele>505</ele>
        <time>2018-06-03T07:27:23.000Z</time>
      </trkpt>
      <trkpt lat="44.54477" lon="4.24161">
        <ele>505</ele>
        <time>2018-06-03T07:27:24.000Z</time>
      </trkpt>
      <trkpt lat="44.54479" lon="4.24163">
        <ele>506</ele>
        <time>2018-06-03T07:27:25.000Z</time>
      </trkpt>
      <trkpt lat="44.5448" lon="4.24166">
        <ele>506</ele>
        <time>2018-06-03T07:27:26.000Z</time>
      </trkpt>
      <trkpt lat="44.54482" lon="4.24169">
        <ele>512</ele>
        <time>2018-06-03T07:27:27.000Z</time>
      </trkpt>
      <trkpt lat="44.54484" lon="4.24172">
        <ele>512</ele>
        <time>2018-06-03T07:27:28.000Z</time>
      </trkpt>
      <trkpt lat="44.54486" lon="4.24174">
        <ele>512</ele>
        <time>2018-06-03T07:27:29.000Z</time>
      </trkpt>
      <trkpt lat="44.54489" lon="4.24176">
        <ele>512</ele>
        <time>2018-06-03T07:27:30.000Z</time>
      </trkpt>
      <trkpt lat="44.54491" lon="4.24178">
        <ele>512</ele>
        <time>2018-06-03T07:27:31.000Z</time>
      </trkpt>
      <trkpt lat="44.54493" lon="4.2418">
        <ele>512</ele>
        <time>2018-06-03T07:27:32.000Z</time>
      </trkpt>
      <trkpt lat="44.54496" lon="4.24182">
        <ele>512</ele>
        <time>2018-06-03T07:27:33.000Z</time>
      </trkpt>
      <trkpt lat="44.54498" lon="4.24184">
        <ele>512</ele>
        <time>2018-06-03T07:27:34.000Z</time>
      </trkpt>
      <trkpt lat="44.54501" lon="4.24186">
        <ele>511</ele>
        <time>2018-06-03T07:27:35.000Z</time>
      </trkpt>
      <trkpt lat="44.54503" lon="4.24189">
        <ele>511</ele>
        <time>2018-06-03T07:27:36.000Z</time>
      </trkpt>
      <trkpt lat="44.54506" lon="4.24191">
        <ele>512</ele>
        <time>2018-06-03T07:27:37.000Z</time>
      </trkpt>
      <trkpt lat="44.54508" lon="4.24194">
        <ele>512</ele>
        <time>2018-06-03T07:27:38.000Z</time>
      </trkpt>
      <trkpt lat="44.54511" lon="4.24197">
        <ele>512</ele>
        <time>2018-06-03T07:27:39.000Z</time>
      </trkpt>
      <trkpt lat="44.54514" lon="4.24198">
        <ele>512</ele>
        <time>2018-06-03T07:27:40.000Z</time>
      </trkpt>
      <trkpt lat="44.54516" lon="4.24201">
        <ele>512</ele>
        <time>2018-06-03T07:27:41.000Z</time>
      </trkpt>
      <trkpt lat="44.54518" lon="4.24203">
        <ele>512</ele>
        <time>2018-06-03T07:27:42.000Z</time>
      </trkpt>
      <trkpt lat="44.54521" lon="4.24205">
        <ele>512</ele>
        <time>2018-06-03T07:27:43.000Z</time>
      </trkpt>
      <trkpt lat="44.54523" lon="4.24207">
        <ele>512</ele>
        <time>2018-06-03T07:27:44.000Z</time>
      </trkpt>
      <trkpt lat="44.54525" lon="4.24209">
        <ele>512</ele>
        <time>2018-06-03T07:27:45.000Z</time>
      </trkpt>
      <trkpt lat="44.54528" lon="4.24211">
        <ele>512</ele>
        <time>2018-06-03T07:27:46.000Z</time>
      </trkpt>
      <trkpt lat="44.5453" lon="4.24213">
        <ele>512</ele>
        <time>2018-06-03T07:27:47.000Z</time>
      </trkpt>
      <trkpt lat="44.54532" lon="4.24215">
        <ele>512</ele>
        <time>2018-06-03T07:27:48.000Z</time>
      </trkpt>
      <trkpt lat="44.54535" lon="4.24218">
        <ele>512</ele>
        <time>2018-06-03T07:27:49.000Z</time>
      </trkpt>
      <trkpt lat="44.54537" lon="4.2422">
        <ele>512</ele>
        <time>2018-06-03T07:27:50.000Z</time>
      </trkpt>
      <trkpt lat="44.5454" lon="4.24222">
        <ele>512</ele>
        <time>2018-06-03T07:27:51.000Z</time>
      </trkpt>
      <trkpt lat="44.54542" lon="4.24225">
        <ele>512</ele>
        <time>2018-06-03T07:27:52.000Z</time>
      </trkpt>
      <trkpt lat="44.54544" lon="4.24228">
        <ele>512</ele>
        <time>2018-06-03T07:27:53.000Z</time>
      </trkpt>
      <trkpt lat="44.54547" lon="4.24231">
        <ele>512</ele>
        <time>2018-06-03T07:27:54.000Z</time>
      </trkpt>
      <trkpt lat="44.5455" lon="4.24234">
        <ele>512</ele>
        <time>2018-06-03T07:27:55.000Z</time>
      </trkpt>
      <trkpt lat="44.54553" lon="4.24236">
        <ele>512</ele>
        <time>2018-06-03T07:27:56.000Z</time>
      </trkpt>
      <trkpt lat="44.54557" lon="4.2424">
        <ele>512</ele>
        <time>2018-06-03T07:27:57.000Z</time>
      </trkpt>
      <trkpt lat="44.5456" lon="4.24245">
        <ele>512</ele>
        <time>2018-06-03T07:27:58.000Z</time>
      </trkpt>
      <trkpt lat="44.54564" lon="4.2425">
        <ele>514</ele>
        <time>2018-06-03T07:27:59.000Z</time>
      </trkpt>
      <trkpt lat="44.54567" lon="4.24256">
        <ele>514</ele>
        <time>2018-06-03T07:28:00.000Z</time>
      </trkpt>
      <trkpt lat="44.54571" lon="4.24262">
        <ele>514</ele>
        <time>2018-06-03T07:28:01.000Z</time>
      </trkpt>
      <trkpt lat="44.54575" lon="4.24267">
        <ele>514</ele>
        <time>2018-06-03T07:28:02.000Z</time>
      </trkpt>
      <trkpt lat="44.54578" lon="4.24272">
        <ele>514</ele>
        <time>2018-06-03T07:28:03.000Z</time>
      </trkpt>
      <trkpt lat="44.54581" lon="4.24277">
        <ele>514</ele>
        <time>2018-06-03T07:28:04.000Z</time>
      </trkpt>
      <trkpt lat="44.54583" lon="4.24283">
        <ele>514</ele>
        <time>2018-06-03T07:28:05.000Z</time>
      </trkpt>
      <trkpt lat="44.54584" lon="4.24292">
        <ele>511</ele>
        <time>2018-06-03T07:28:06.000Z</time>
      </trkpt>
      <trkpt lat="44.54585" lon="4.24299">
        <ele>511</ele>
        <time>2018-06-03T07:28:07.000Z</time>
      </trkpt>
      <trkpt lat="44.54586" lon="4.24308">
        <ele>511</ele>
        <time>2018-06-03T07:28:08.000Z</time>
      </trkpt>
      <trkpt lat="44.54586" lon="4.24315">
        <ele>511</ele>
        <time>2018-06-03T07:28:09.000Z</time>
      </trkpt>
      <trkpt lat="44.54586" lon="4.24324">
        <ele>511</ele>
        <time>2018-06-03T07:28:10.000Z</time>
      </trkpt>
      <trkpt lat="44.54587" lon="4.24332">
        <ele>512</ele>
        <time>2018-06-03T07:28:11.000Z</time>
      </trkpt>
      <trkpt lat="44.54589" lon="4.2434">
        <ele>511</ele>
        <time>2018-06-03T07:28:12.000Z</time>
      </trkpt>
      <trkpt lat="44.54591" lon="4.24348">
        <ele>510</ele>
        <time>2018-06-03T07:28:13.000Z</time>
      </trkpt>
      <trkpt lat="44.54592" lon="4.24355">
        <ele>510</ele>
        <time>2018-06-03T07:28:14.000Z</time>
      </trkpt>
      <trkpt lat="44.54594" lon="4.24363">
        <ele>510</ele>
        <time>2018-06-03T07:28:15.000Z</time>
      </trkpt>
      <trkpt lat="44.54596" lon="4.24372">
        <ele>509</ele>
        <time>2018-06-03T07:28:16.000Z</time>
      </trkpt>
      <trkpt lat="44.54598" lon="4.2438">
        <ele>509</ele>
        <time>2018-06-03T07:28:17.000Z</time>
      </trkpt>
      <trkpt lat="44.54599" lon="4.2439">
        <ele>509</ele>
        <time>2018-06-03T07:28:18.000Z</time>
      </trkpt>
      <trkpt lat="44.546" lon="4.24399">
        <ele>510</ele>
        <time>2018-06-03T07:28:19.000Z</time>
      </trkpt>
      <trkpt lat="44.54602" lon="4.24407">
        <ele>510</ele>
        <time>2018-06-03T07:28:20.000Z</time>
      </trkpt>
      <trkpt lat="44.54604" lon="4.24412">
        <ele>510</ele>
        <time>2018-06-03T07:28:21.000Z</time>
      </trkpt>
      <trkpt lat="44.54606" lon="4.24418">
        <ele>508</ele>
        <time>2018-06-03T07:28:22.000Z</time>
      </trkpt>
      <trkpt lat="44.54609" lon="4.24424">
        <ele>508</ele>
        <time>2018-06-03T07:28:23.000Z</time>
      </trkpt>
      <trkpt lat="44.54611" lon="4.2443">
        <ele>508</ele>
        <time>2018-06-03T07:28:24.000Z</time>
      </trkpt>
      <trkpt lat="44.54613" lon="4.24435">
        <ele>507</ele>
        <time>2018-06-03T07:28:25.000Z</time>
      </trkpt>
      <trkpt lat="44.54615" lon="4.24442">
        <ele>507</ele>
        <time>2018-06-03T07:28:26.000Z</time>
      </trkpt>
      <trkpt lat="44.54616" lon="4.24449">
        <ele>507</ele>
        <time>2018-06-03T07:28:27.000Z</time>
      </trkpt>
      <trkpt lat="44.54617" lon="4.24455">
        <ele>506</ele>
        <time>2018-06-03T07:28:28.000Z</time>
      </trkpt>
      <trkpt lat="44.54619" lon="4.24461">
        <ele>506</ele>
        <time>2018-06-03T07:28:29.000Z</time>
      </trkpt>
      <trkpt lat="44.54621" lon="4.24469">
        <ele>506</ele>
        <time>2018-06-03T07:28:30.000Z</time>
      </trkpt>
      <trkpt lat="44.54622" lon="4.24476">
        <ele>506</ele>
        <time>2018-06-03T07:28:31.000Z</time>
      </trkpt>
      <trkpt lat="44.54625" lon="4.24485">
        <ele>505</ele>
        <time>2018-06-03T07:28:32.000Z</time>
      </trkpt>
      <trkpt lat="44.54628" lon="4.24492">
        <ele>505</ele>
        <time>2018-06-03T07:28:33.000Z</time>
      </trkpt>
      <trkpt lat="44.54631" lon="4.245">
        <ele>505</ele>
        <time>2018-06-03T07:28:34.000Z</time>
      </trkpt>
      <trkpt lat="44.54634" lon="4.24509">
        <ele>503</ele>
        <time>2018-06-03T07:28:35.000Z</time>
      </trkpt>
      <trkpt lat="44.54636" lon="4.24517">
        <ele>502</ele>
        <time>2018-06-03T07:28:36.000Z</time>
      </trkpt>
      <trkpt lat="44.54637" lon="4.24526">
        <ele>502</ele>
        <time>2018-06-03T07:28:37.000Z</time>
      </trkpt>
      <trkpt lat="44.54637" lon="4.24535">
        <ele>502</ele>
        <time>2018-06-03T07:28:38.000Z</time>
      </trkpt>
      <trkpt lat="44.54636" lon="4.24544">
        <ele>502</ele>
        <time>2018-06-03T07:28:39.000Z</time>
      </trkpt>
      <trkpt lat="44.54636" lon="4.24551">
        <ele>502</ele>
        <time>2018-06-03T07:28:40.000Z</time>
      </trkpt>
      <trkpt lat="44.54635" lon="4.24559">
        <ele>502</ele>
        <time>2018-06-03T07:28:41.000Z</time>
      </trkpt>
      <trkpt lat="44.54636" lon="4.24568">
        <ele>501</ele>
        <time>2018-06-03T07:28:42.000Z</time>
      </trkpt>
      <trkpt lat="44.54636" lon="4.24575">
        <ele>501</ele>
        <time>2018-06-03T07:28:43.000Z</time>
      </trkpt>
      <trkpt lat="44.54637" lon="4.24583">
        <ele>501</ele>
        <time>2018-06-03T07:28:44.000Z</time>
      </trkpt>
      <trkpt lat="44.54637" lon="4.24592">
        <ele>498</ele>
        <time>2018-06-03T07:28:45.000Z</time>
      </trkpt>
      <trkpt lat="44.54637" lon="4.246">
        <ele>498</ele>
        <time>2018-06-03T07:28:46.000Z</time>
      </trkpt>
      <trkpt lat="44.54638" lon="4.24609">
        <ele>498</ele>
        <time>2018-06-03T07:28:47.000Z</time>
      </trkpt>
      <trkpt lat="44.54638" lon="4.24617">
        <ele>498</ele>
        <time>2018-06-03T07:28:48.000Z</time>
      </trkpt>
      <trkpt lat="44.54638" lon="4.24625">
        <ele>498</ele>
        <time>2018-06-03T07:28:49.000Z</time>
      </trkpt>
      <trkpt lat="44.54637" lon="4.24634">
        <ele>498</ele>
        <time>2018-06-03T07:28:50.000Z</time>
      </trkpt>
      <trkpt lat="44.54636" lon="4.24644">
        <ele>497</ele>
        <time>2018-06-03T07:28:51.000Z</time>
      </trkpt>
      <trkpt lat="44.54635" lon="4.24653">
        <ele>497</ele>
        <time>2018-06-03T07:28:52.000Z</time>
      </trkpt>
      <trkpt lat="44.54634" lon="4.24661">
        <ele>497</ele>
        <time>2018-06-03T07:28:53.000Z</time>
      </trkpt>
      <trkpt lat="44.54633" lon="4.2467">
        <ele>494</ele>
        <time>2018-06-03T07:28:54.000Z</time>
      </trkpt>
      <trkpt lat="44.54631" lon="4.24678">
        <ele>494</ele>
        <time>2018-06-03T07:28:55.000Z</time>
      </trkpt>
      <trkpt lat="44.5463" lon="4.24686">
        <ele>495</ele>
        <time>2018-06-03T07:28:56.000Z</time>
      </trkpt>
      <trkpt lat="44.54631" lon="4.24693">
        <ele>494</ele>
        <time>2018-06-03T07:28:57.000Z</time>
      </trkpt>
      <trkpt lat="44.5463" lon="4.24702">
        <ele>494</ele>
        <time>2018-06-03T07:28:58.000Z</time>
      </trkpt>
      <trkpt lat="44.54629" lon="4.24711">
        <ele>494</ele>
        <time>2018-06-03T07:28:59.000Z</time>
      </trkpt>
      <trkpt lat="44.54628" lon="4.2472">
        <ele>494</ele>
        <time>2018-06-03T07:29:00.000Z</time>
      </trkpt>
      <trkpt lat="44.54625" lon="4.24729">
        <ele>494</ele>
        <time>2018-06-03T07:29:01.000Z</time>
      </trkpt>
      <trkpt lat="44.54623" lon="4.24738">
        <ele>495</ele>
        <time>2018-06-03T07:29:02.000Z</time>
      </trkpt>
      <trkpt lat="44.5462" lon="4.24746">
        <ele>495</ele>
        <time>2018-06-03T07:29:03.000Z</time>
      </trkpt>
      <trkpt lat="44.54618" lon="4.24754">
        <ele>493</ele>
        <time>2018-06-03T07:29:04.000Z</time>
      </trkpt>
      <trkpt lat="44.54616" lon="4.24763">
        <ele>493</ele>
        <time>2018-06-03T07:29:05.000Z</time>
      </trkpt>
      <trkpt lat="44.54614" lon="4.24772">
        <ele>493</ele>
        <time>2018-06-03T07:29:06.000Z</time>
      </trkpt>
      <trkpt lat="44.54612" lon="4.24781">
        <ele>493</ele>
        <time>2018-06-03T07:29:07.000Z</time>
      </trkpt>
      <trkpt lat="44.54612" lon="4.24789">
        <ele>493</ele>
        <time>2018-06-03T07:29:08.000Z</time>
      </trkpt>
      <trkpt lat="44.54611" lon="4.24797">
        <ele>493</ele>
        <time>2018-06-03T07:29:09.000Z</time>
      </trkpt>
      <trkpt lat="44.54611" lon="4.24805">
        <ele>493</ele>
        <time>2018-06-03T07:29:10.000Z</time>
      </trkpt>
      <trkpt lat="44.54612" lon="4.24813">
        <ele>493</ele>
        <time>2018-06-03T07:29:11.000Z</time>
      </trkpt>
      <trkpt lat="44.54612" lon="4.2482">
        <ele>493</ele>
        <time>2018-06-03T07:29:12.000Z</time>
      </trkpt>
      <trkpt lat="44.54613" lon="4.24828">
        <ele>493</ele>
        <time>2018-06-03T07:29:13.000Z</time>
      </trkpt>
      <trkpt lat="44.54614" lon="4.24836">
        <ele>492</ele>
        <time>2018-06-03T07:29:14.000Z</time>
      </trkpt>
      <trkpt lat="44.54614" lon="4.24843">
        <ele>492</ele>
        <time>2018-06-03T07:29:15.000Z</time>
      </trkpt>
      <trkpt lat="44.54615" lon="4.2485">
        <ele>492</ele>
        <time>2018-06-03T07:29:16.000Z</time>
      </trkpt>
      <trkpt lat="44.54616" lon="4.24857">
        <ele>492</ele>
        <time>2018-06-03T07:29:17.000Z</time>
      </trkpt>
      <trkpt lat="44.54616" lon="4.24864">
        <ele>492</ele>
        <time>2018-06-03T07:29:18.000Z</time>
      </trkpt>
      <trkpt lat="44.54617" lon="4.24872">
        <ele>492</ele>
        <time>2018-06-03T07:29:19.000Z</time>
      </trkpt>
      <trkpt lat="44.54617" lon="4.2488">
        <ele>492</ele>
        <time>2018-06-03T07:29:20.000Z</time>
      </trkpt>
      <trkpt lat="44.54617" lon="4.24887">
        <ele>492</ele>
        <time>2018-06-03T07:29:21.000Z</time>
      </trkpt>
      <trkpt lat="44.54617" lon="4.24894">
        <ele>492</ele>
        <time>2018-06-03T07:29:22.000Z</time>
      </trkpt>
      <trkpt lat="44.54618" lon="4.24902">
        <ele>492</ele>
        <time>2018-06-03T07:29:23.000Z</time>
      </trkpt>
      <trkpt lat="44.54618" lon="4.24909">
        <ele>492</ele>
        <time>2018-06-03T07:29:24.000Z</time>
      </trkpt>
      <trkpt lat="44.54618" lon="4.24915">
        <ele>492</ele>
        <time>2018-06-03T07:29:25.000Z</time>
      </trkpt>
      <trkpt lat="44.54619" lon="4.24921">
        <ele>493</ele>
        <time>2018-06-03T07:29:26.000Z</time>
      </trkpt>
      <trkpt lat="44.54619" lon="4.24927">
        <ele>493</ele>
        <time>2018-06-03T07:29:27.000Z</time>
      </trkpt>
      <trkpt lat="44.5462" lon="4.24933">
        <ele>493</ele>
        <time>2018-06-03T07:29:28.000Z</time>
      </trkpt>
      <trkpt lat="44.54621" lon="4.24937">
        <ele>493</ele>
        <time>2018-06-03T07:29:29.000Z</time>
      </trkpt>
      <trkpt lat="44.54622" lon="4.24942">
        <ele>493</ele>
        <time>2018-06-03T07:29:30.000Z</time>
      </trkpt>
      <trkpt lat="44.54623" lon="4.24944">
        <ele>493</ele>
        <time>2018-06-03T07:29:31.000Z</time>
      </trkpt>
      <trkpt lat="44.54625" lon="4.24944">
        <ele>493</ele>
        <time>2018-06-03T07:29:32.000Z</time>
      </trkpt>
      <trkpt lat="44.54628" lon="4.24943">
        <ele>492</ele>
        <time>2018-06-03T07:29:33.000Z</time>
      </trkpt>
      <trkpt lat="44.54631" lon="4.2494">
        <ele>492</ele>
        <time>2018-06-03T07:29:34.000Z</time>
      </trkpt>
      <trkpt lat="44.54633" lon="4.24934">
        <ele>491</ele>
        <time>2018-06-03T07:29:35.000Z</time>
      </trkpt>
      <trkpt lat="44.54636" lon="4.24929">
        <ele>491</ele>
        <time>2018-06-03T07:29:36.000Z</time>
      </trkpt>
      <trkpt lat="44.54639" lon="4.24926">
        <ele>490</ele>
        <time>2018-06-03T07:29:37.000Z</time>
      </trkpt>
      <trkpt lat="44.54642" lon="4.24925">
        <ele>489</ele>
        <time>2018-06-03T07:29:38.000Z</time>
      </trkpt>
      <trkpt lat="44.54645" lon="4.24924">
        <ele>489</ele>
        <time>2018-06-03T07:29:39.000Z</time>
      </trkpt>
      <trkpt lat="44.54649" lon="4.24925">
        <ele>488</ele>
        <time>2018-06-03T07:29:40.000Z</time>
      </trkpt>
      <trkpt lat="44.54653" lon="4.24928">
        <ele>488</ele>
        <time>2018-06-03T07:29:41.000Z</time>
      </trkpt>
      <trkpt lat="44.54656" lon="4.2493">
        <ele>487</ele>
        <time>2018-06-03T07:29:42.000Z</time>
      </trkpt>
      <trkpt lat="44.54659" lon="4.24933">
        <ele>487</ele>
        <time>2018-06-03T07:29:43.000Z</time>
      </trkpt>
      <trkpt lat="44.54661" lon="4.24935">
        <ele>487</ele>
        <time>2018-06-03T07:29:44.000Z</time>
      </trkpt>
      <trkpt lat="44.54664" lon="4.24937">
        <ele>487</ele>
        <time>2018-06-03T07:29:45.000Z</time>
      </trkpt>
      <trkpt lat="44.54667" lon="4.24938">
        <ele>487</ele>
        <time>2018-06-03T07:29:46.000Z</time>
      </trkpt>
      <trkpt lat="44.5467" lon="4.24937">
        <ele>478</ele>
        <time>2018-06-03T07:29:47.000Z</time>
      </trkpt>
      <trkpt lat="44.54674" lon="4.24937">
        <ele>478</ele>
        <time>2018-06-03T07:29:48.000Z</time>
      </trkpt>
      <trkpt lat="44.54678" lon="4.24935">
        <ele>477</ele>
        <time>2018-06-03T07:29:49.000Z</time>
      </trkpt>
      <trkpt lat="44.54682" lon="4.24932">
        <ele>477</ele>
        <time>2018-06-03T07:29:50.000Z</time>
      </trkpt>
      <trkpt lat="44.54685" lon="4.2493">
        <ele>477</ele>
        <time>2018-06-03T07:29:51.000Z</time>
      </trkpt>
      <trkpt lat="44.54687" lon="4.24929">
        <ele>477</ele>
        <time>2018-06-03T07:29:52.000Z</time>
      </trkpt>
      <trkpt lat="44.54689" lon="4.24929">
        <ele>476</ele>
        <time>2018-06-03T07:29:53.000Z</time>
      </trkpt>
      <trkpt lat="44.54692" lon="4.2493">
        <ele>476</ele>
        <time>2018-06-03T07:29:54.000Z</time>
      </trkpt>
      <trkpt lat="44.54695" lon="4.2493">
        <ele>476</ele>
        <time>2018-06-03T07:29:55.000Z</time>
      </trkpt>
      <trkpt lat="44.54699" lon="4.24929">
        <ele>475</ele>
        <time>2018-06-03T07:29:56.000Z</time>
      </trkpt>
      <trkpt lat="44.54703" lon="4.24927">
        <ele>474</ele>
        <time>2018-06-03T07:29:57.000Z</time>
      </trkpt>
      <trkpt lat="44.54709" lon="4.24927">
        <ele>473</ele>
        <time>2018-06-03T07:29:58.000Z</time>
      </trkpt>
      <trkpt lat="44.54714" lon="4.24925">
        <ele>473</ele>
        <time>2018-06-03T07:29:59.000Z</time>
      </trkpt>
      <trkpt lat="44.54718" lon="4.24925">
        <ele>472</ele>
        <time>2018-06-03T07:30:00.000Z</time>
      </trkpt>
      <trkpt lat="44.5472" lon="4.24927">
        <ele>472</ele>
        <time>2018-06-03T07:30:01.000Z</time>
      </trkpt>
      <trkpt lat="44.54721" lon="4.24931">
        <ele>472</ele>
        <time>2018-06-03T07:30:02.000Z</time>
      </trkpt>
      <trkpt lat="44.54724" lon="4.24933">
        <ele>471</ele>
        <time>2018-06-03T07:30:03.000Z</time>
      </trkpt>
      <trkpt lat="44.54726" lon="4.24936">
        <ele>471</ele>
        <time>2018-06-03T07:30:04.000Z</time>
      </trkpt>
      <trkpt lat="44.54728" lon="4.24939">
        <ele>471</ele>
        <time>2018-06-03T07:30:05.000Z</time>
      </trkpt>
      <trkpt lat="44.5473" lon="4.24943">
        <ele>471</ele>
        <time>2018-06-03T07:30:06.000Z</time>
      </trkpt>
      <trkpt lat="44.54732" lon="4.24947">
        <ele>471</ele>
        <time>2018-06-03T07:30:07.000Z</time>
      </trkpt>
      <trkpt lat="44.54734" lon="4.24952">
        <ele>471</ele>
        <time>2018-06-03T07:30:08.000Z</time>
      </trkpt>
      <trkpt lat="44.54734" lon="4.24957">
        <ele>471</ele>
        <time>2018-06-03T07:30:09.000Z</time>
      </trkpt>
      <trkpt lat="44.54735" lon="4.24962">
        <ele>471</ele>
        <time>2018-06-03T07:30:10.000Z</time>
      </trkpt>
      <trkpt lat="44.54737" lon="4.24969">
        <ele>471</ele>
        <time>2018-06-03T07:30:11.000Z</time>
      </trkpt>
      <trkpt lat="44.54739" lon="4.24975">
        <ele>470</ele>
        <time>2018-06-03T07:30:12.000Z</time>
      </trkpt>
      <trkpt lat="44.5474" lon="4.24983">
        <ele>470</ele>
        <time>2018-06-03T07:30:13.000Z</time>
      </trkpt>
      <trkpt lat="44.54741" lon="4.2499">
        <ele>469</ele>
        <time>2018-06-03T07:30:14.000Z</time>
      </trkpt>
      <trkpt lat="44.54741" lon="4.24996">
        <ele>468</ele>
        <time>2018-06-03T07:30:15.000Z</time>
      </trkpt>
      <trkpt lat="44.54743" lon="4.25001">
        <ele>467</ele>
        <time>2018-06-03T07:30:16.000Z</time>
      </trkpt>
      <trkpt lat="44.54745" lon="4.25005">
        <ele>467</ele>
        <time>2018-06-03T07:30:17.000Z</time>
      </trkpt>
      <trkpt lat="44.54749" lon="4.25006">
        <ele>467</ele>
        <time>2018-06-03T07:30:18.000Z</time>
      </trkpt>
      <trkpt lat="44.54753" lon="4.25007">
        <ele>462</ele>
        <time>2018-06-03T07:30:19.000Z</time>
      </trkpt>
      <trkpt lat="44.54756" lon="4.25006">
        <ele>462</ele>
        <time>2018-06-03T07:30:20.000Z</time>
      </trkpt>
      <trkpt lat="44.54758" lon="4.25003">
        <ele>461</ele>
        <time>2018-06-03T07:30:21.000Z</time>
      </trkpt>
      <trkpt lat="44.5476" lon="4.24999">
        <ele>461</ele>
        <time>2018-06-03T07:30:22.000Z</time>
      </trkpt>
      <trkpt lat="44.54761" lon="4.24995">
        <ele>461</ele>
        <time>2018-06-03T07:30:23.000Z</time>
      </trkpt>
      <trkpt lat="44.54763" lon="4.24992">
        <ele>460</ele>
        <time>2018-06-03T07:30:24.000Z</time>
      </trkpt>
      <trkpt lat="44.54763" lon="4.24988">
        <ele>459</ele>
        <time>2018-06-03T07:30:25.000Z</time>
      </trkpt>
      <trkpt lat="44.54764" lon="4.24985">
        <ele>459</ele>
        <time>2018-06-03T07:30:26.000Z</time>
      </trkpt>
      <trkpt lat="44.54764" lon="4.24981">
        <ele>458</ele>
        <time>2018-06-03T07:30:27.000Z</time>
      </trkpt>
      <trkpt lat="44.54764" lon="4.24977">
        <ele>458</ele>
        <time>2018-06-03T07:30:28.000Z</time>
      </trkpt>
      <trkpt lat="44.54766" lon="4.24973">
        <ele>457</ele>
        <time>2018-06-03T07:30:29.000Z</time>
      </trkpt>
      <trkpt lat="44.54769" lon="4.2497">
        <ele>457</ele>
        <time>2018-06-03T07:30:30.000Z</time>
      </trkpt>
      <trkpt lat="44.54772" lon="4.24968">
        <ele>456</ele>
        <time>2018-06-03T07:30:31.000Z</time>
      </trkpt>
      <trkpt lat="44.54773" lon="4.24966">
        <ele>456</ele>
        <time>2018-06-03T07:30:32.000Z</time>
      </trkpt>
      <trkpt lat="44.54774" lon="4.24963">
        <ele>456</ele>
        <time>2018-06-03T07:30:33.000Z</time>
      </trkpt>
      <trkpt lat="44.54774" lon="4.2496">
        <ele>456</ele>
        <time>2018-06-03T07:30:34.000Z</time>
      </trkpt>
      <trkpt lat="44.54774" lon="4.24956">
        <ele>456</ele>
        <time>2018-06-03T07:30:35.000Z</time>
      </trkpt>
      <trkpt lat="44.54776" lon="4.24953">
        <ele>455</ele>
        <time>2018-06-03T07:30:36.000Z</time>
      </trkpt>
      <trkpt lat="44.54779" lon="4.24951">
        <ele>455</ele>
        <time>2018-06-03T07:30:37.000Z</time>
      </trkpt>
      <trkpt lat="44.54781" lon="4.24948">
        <ele>455</ele>
        <time>2018-06-03T07:30:38.000Z</time>
      </trkpt>
      <trkpt lat="44.54783" lon="4.24945">
        <ele>454</ele>
        <time>2018-06-03T07:30:39.000Z</time>
      </trkpt>
      <trkpt lat="44.54786" lon="4.24944">
        <ele>454</ele>
        <time>2018-06-03T07:30:40.000Z</time>
      </trkpt>
      <trkpt lat="44.54789" lon="4.24944">
        <ele>454</ele>
        <time>2018-06-03T07:30:41.000Z</time>
      </trkpt>
      <trkpt lat="44.54791" lon="4.24944">
        <ele>453</ele>
        <time>2018-06-03T07:30:42.000Z</time>
      </trkpt>
      <trkpt lat="44.54793" lon="4.24944">
        <ele>453</ele>
        <time>2018-06-03T07:30:43.000Z</time>
      </trkpt>
      <trkpt lat="44.54795" lon="4.24944">
        <ele>453</ele>
        <time>2018-06-03T07:30:44.000Z</time>
      </trkpt>
      <trkpt lat="44.54796" lon="4.24943">
        <ele>452</ele>
        <time>2018-06-03T07:30:45.000Z</time>
      </trkpt>
      <trkpt lat="44.54797" lon="4.24941">
        <ele>452</ele>
        <time>2018-06-03T07:30:46.000Z</time>
      </trkpt>
      <trkpt lat="44.54798" lon="4.24938">
        <ele>452</ele>
        <time>2018-06-03T07:30:47.000Z</time>
      </trkpt>
      <trkpt lat="44.54798" lon="4.24936">
        <ele>452</ele>
        <time>2018-06-03T07:30:48.000Z</time>
      </trkpt>
      <trkpt lat="44.54797" lon="4.24934">
        <ele>452</ele>
        <time>2018-06-03T07:30:49.000Z</time>
      </trkpt>
      <trkpt lat="44.54797" lon="4.24932">
        <ele>452</ele>
        <time>2018-06-03T07:30:50.000Z</time>
      </trkpt>
      <trkpt lat="44.54797" lon="4.2493">
        <ele>452</ele>
        <time>2018-06-03T07:30:51.000Z</time>
      </trkpt>
      <trkpt lat="44.54799" lon="4.2493">
        <ele>452</ele>
        <time>2018-06-03T07:30:52.000Z</time>
      </trkpt>
      <trkpt lat="44.548" lon="4.24929">
        <ele>451</ele>
        <time>2018-06-03T07:30:53.000Z</time>
      </trkpt>
      <trkpt lat="44.548" lon="4.2493">
        <ele>451</ele>
        <time>2018-06-03T07:30:54.000Z</time>
      </trkpt>
      <trkpt lat="44.54801" lon="4.24931">
        <ele>451</ele>
        <time>2018-06-03T07:30:55.000Z</time>
      </trkpt>
      <trkpt lat="44.54801" lon="4.24933">
        <ele>451</ele>
        <time>2018-06-03T07:30:56.000Z</time>
      </trkpt>
      <trkpt lat="44.54803" lon="4.24935">
        <ele>451</ele>
        <time>2018-06-03T07:30:57.000Z</time>
      </trkpt>
      <trkpt lat="44.54804" lon="4.24938">
        <ele>451</ele>
        <time>2018-06-03T07:30:58.000Z</time>
      </trkpt>
      <trkpt lat="44.54806" lon="4.24941">
        <ele>451</ele>
        <time>2018-06-03T07:30:59.000Z</time>
      </trkpt>
      <trkpt lat="44.54808" lon="4.24943">
        <ele>451</ele>
        <time>2018-06-03T07:31:00.000Z</time>
      </trkpt>
      <trkpt lat="44.5481" lon="4.24947">
        <ele>451</ele>
        <time>2018-06-03T07:31:01.000Z</time>
      </trkpt>
      <trkpt lat="44.54812" lon="4.24949">
        <ele>450</ele>
        <time>2018-06-03T07:31:02.000Z</time>
      </trkpt>
      <trkpt lat="44.54814" lon="4.2495">
        <ele>450</ele>
        <time>2018-06-03T07:31:03.000Z</time>
      </trkpt>
      <trkpt lat="44.54816" lon="4.2495">
        <ele>450</ele>
        <time>2018-06-03T07:31:04.000Z</time>
      </trkpt>
      <trkpt lat="44.54816" lon="4.24948">
        <ele>450</ele>
        <time>2018-06-03T07:31:05.000Z</time>
      </trkpt>
      <trkpt lat="44.54816" lon="4.24946">
        <ele>450</ele>
        <time>2018-06-03T07:31:06.000Z</time>
      </trkpt>
      <trkpt lat="44.54816" lon="4.24942">
        <ele>449</ele>
        <time>2018-06-03T07:31:07.000Z</time>
      </trkpt>
      <trkpt lat="44.54815" lon="4.24938">
        <ele>449</ele>
        <time>2018-06-03T07:31:08.000Z</time>
      </trkpt>
      <trkpt lat="44.54814" lon="4.24934">
        <ele>449</ele>
        <time>2018-06-03T07:31:09.000Z</time>
      </trkpt>
      <trkpt lat="44.54814" lon="4.2493">
        <ele>448</ele>
        <time>2018-06-03T07:31:10.000Z</time>
      </trkpt>
      <trkpt lat="44.54814" lon="4.24926">
        <ele>448</ele>
        <time>2018-06-03T07:31:11.000Z</time>
      </trkpt>
      <trkpt lat="44.54814" lon="4.24923">
        <ele>447</ele>
        <time>2018-06-03T07:31:12.000Z</time>
      </trkpt>
      <trkpt lat="44.54815" lon="4.24919">
        <ele>447</ele>
        <time>2018-06-03T07:31:13.000Z</time>
      </trkpt>
      <trkpt lat="44.54816" lon="4.24916">
        <ele>444</ele>
        <time>2018-06-03T07:31:14.000Z</time>
      </trkpt>
      <trkpt lat="44.54819" lon="4.24916">
        <ele>443</ele>
        <time>2018-06-03T07:31:15.000Z</time>
      </trkpt>
      <trkpt lat="44.54821" lon="4.24918">
        <ele>445</ele>
        <time>2018-06-03T07:31:16.000Z</time>
      </trkpt>
      <trkpt lat="44.54823" lon="4.24921">
        <ele>444</ele>
        <time>2018-06-03T07:31:17.000Z</time>
      </trkpt>
      <trkpt lat="44.54826" lon="4.24924">
        <ele>444</ele>
        <time>2018-06-03T07:31:18.000Z</time>
      </trkpt>
      <trkpt lat="44.54829" lon="4.24926">
        <ele>444</ele>
        <time>2018-06-03T07:31:19.000Z</time>
      </trkpt>
      <trkpt lat="44.54832" lon="4.24929">
        <ele>444</ele>
        <time>2018-06-03T07:31:20.000Z</time>
      </trkpt>
      <trkpt lat="44.54835" lon="4.24933">
        <ele>433</ele>
        <time>2018-06-03T07:31:21.000Z</time>
      </trkpt>
      <trkpt lat="44.54837" lon="4.24938">
        <ele>432</ele>
        <time>2018-06-03T07:31:22.000Z</time>
      </trkpt>
      <trkpt lat="44.54839" lon="4.24943">
        <ele>432</ele>
        <time>2018-06-03T07:31:23.000Z</time>
      </trkpt>
      <trkpt lat="44.54841" lon="4.24946">
        <ele>431</ele>
        <time>2018-06-03T07:31:24.000Z</time>
      </trkpt>
      <trkpt lat="44.54843" lon="4.24949">
        <ele>431</ele>
        <time>2018-06-03T07:31:25.000Z</time>
      </trkpt>
      <trkpt lat="44.54845" lon="4.24952">
        <ele>431</ele>
        <time>2018-06-03T07:31:26.000Z</time>
      </trkpt>
      <trkpt lat="44.54847" lon="4.24954">
        <ele>430</ele>
        <time>2018-06-03T07:31:27.000Z</time>
      </trkpt>
      <trkpt lat="44.54849" lon="4.24958">
        <ele>430</ele>
        <time>2018-06-03T07:31:28.000Z</time>
      </trkpt>
      <trkpt lat="44.54851" lon="4.24962">
        <ele>430</ele>
        <time>2018-06-03T07:31:29.000Z</time>
      </trkpt>
      <trkpt lat="44.54852" lon="4.24967">
        <ele>430</ele>
        <time>2018-06-03T07:31:30.000Z</time>
      </trkpt>
      <trkpt lat="44.54855" lon="4.24971">
        <ele>430</ele>
        <time>2018-06-03T07:31:31.000Z</time>
      </trkpt>
      <trkpt lat="44.54857" lon="4.24975">
        <ele>430</ele>
        <time>2018-06-03T07:31:32.000Z</time>
      </trkpt>
      <trkpt lat="44.54858" lon="4.24979">
        <ele>431</ele>
        <time>2018-06-03T07:31:33.000Z</time>
      </trkpt>
      <trkpt lat="44.5486" lon="4.24983">
        <ele>430</ele>
        <time>2018-06-03T07:31:34.000Z</time>
      </trkpt>
      <trkpt lat="44.54861" lon="4.24984">
        <ele>430</ele>
        <time>2018-06-03T07:31:35.000Z</time>
      </trkpt>
      <trkpt lat="44.54863" lon="4.24984">
        <ele>430</ele>
        <time>2018-06-03T07:31:36.000Z</time>
      </trkpt>
      <trkpt lat="44.54864" lon="4.24982">
        <ele>429</ele>
        <time>2018-06-03T07:31:37.000Z</time>
      </trkpt>
      <trkpt lat="44.54865" lon="4.24979">
        <ele>429</ele>
        <time>2018-06-03T07:31:38.000Z</time>
      </trkpt>
      <trkpt lat="44.54865" lon="4.24975">
        <ele>428</ele>
        <time>2018-06-03T07:31:39.000Z</time>
      </trkpt>
      <trkpt lat="44.54865" lon="4.24971">
        <ele>428</ele>
        <time>2018-06-03T07:31:40.000Z</time>
      </trkpt>
      <trkpt lat="44.54866" lon="4.24968">
        <ele>428</ele>
        <time>2018-06-03T07:31:41.000Z</time>
      </trkpt>
      <trkpt lat="44.54866" lon="4.24965">
        <ele>428</ele>
        <time>2018-06-03T07:31:42.000Z</time>
      </trkpt>
      <trkpt lat="44.54867" lon="4.24962">
        <ele>427</ele>
        <time>2018-06-03T07:31:43.000Z</time>
      </trkpt>
      <trkpt lat="44.54868" lon="4.24959">
        <ele>427</ele>
        <time>2018-06-03T07:31:44.000Z</time>
      </trkpt>
      <trkpt lat="44.54869" lon="4.24955">
        <ele>427</ele>
        <time>2018-06-03T07:31:45.000Z</time>
      </trkpt>
      <trkpt lat="44.5487" lon="4.24951">
        <ele>426</ele>
        <time>2018-06-03T07:31:46.000Z</time>
      </trkpt>
      <trkpt lat="44.54871" lon="4.24948">
        <ele>426</ele>
        <time>2018-06-03T07:31:47.000Z</time>
      </trkpt>
      <trkpt lat="44.54871" lon="4.24943">
        <ele>426</ele>
        <time>2018-06-03T07:31:48.000Z</time>
      </trkpt>
      <trkpt lat="44.5487" lon="4.24937">
        <ele>426</ele>
        <time>2018-06-03T07:31:49.000Z</time>
      </trkpt>
      <trkpt lat="44.54869" lon="4.24931">
        <ele>426</ele>
        <time>2018-06-03T07:31:50.000Z</time>
      </trkpt>
      <trkpt lat="44.54869" lon="4.24925">
        <ele>427</ele>
        <time>2018-06-03T07:31:51.000Z</time>
      </trkpt>
      <trkpt lat="44.54868" lon="4.2492">
        <ele>427</ele>
        <time>2018-06-03T07:31:52.000Z</time>
      </trkpt>
      <trkpt lat="44.54868" lon="4.24916">
        <ele>422</ele>
        <time>2018-06-03T07:31:53.000Z</time>
      </trkpt>
      <trkpt lat="44.54867" lon="4.2491">
        <ele>422</ele>
        <time>2018-06-03T07:31:54.000Z</time>
      </trkpt>
      <trkpt lat="44.54866" lon="4.24905">
        <ele>422</ele>
        <time>2018-06-03T07:31:55.000Z</time>
      </trkpt>
      <trkpt lat="44.54865" lon="4.249">
        <ele>422</ele>
        <time>2018-06-03T07:31:56.000Z</time>
      </trkpt>
      <trkpt lat="44.54864" lon="4.24894">
        <ele>422</ele>
        <time>2018-06-03T07:31:57.000Z</time>
      </trkpt>
      <trkpt lat="44.54863" lon="4.24891">
        <ele>422</ele>
        <time>2018-06-03T07:31:58.000Z</time>
      </trkpt>
      <trkpt lat="44.54863" lon="4.24889">
        <ele>421</ele>
        <time>2018-06-03T07:31:59.000Z</time>
      </trkpt>
      <trkpt lat="44.54864" lon="4.24887">
        <ele>421</ele>
        <time>2018-06-03T07:32:00.000Z</time>
      </trkpt>
      <trkpt lat="44.54865" lon="4.24886">
        <ele>421</ele>
        <time>2018-06-03T07:32:01.000Z</time>
      </trkpt>
      <trkpt lat="44.54867" lon="4.24886">
        <ele>420</ele>
        <time>2018-06-03T07:32:02.000Z</time>
      </trkpt>
      <trkpt lat="44.5487" lon="4.24886">
        <ele>420</ele>
        <time>2018-06-03T07:32:03.000Z</time>
      </trkpt>
      <trkpt lat="44.54872" lon="4.24887">
        <ele>419</ele>
        <time>2018-06-03T07:32:04.000Z</time>
      </trkpt>
      <trkpt lat="44.54874" lon="4.24888">
        <ele>419</ele>
        <time>2018-06-03T07:32:05.000Z</time>
      </trkpt>
      <trkpt lat="44.54875" lon="4.2489">
        <ele>419</ele>
        <time>2018-06-03T07:32:06.000Z</time>
      </trkpt>
      <trkpt lat="44.54878" lon="4.24894">
        <ele>419</ele>
        <time>2018-06-03T07:32:07.000Z</time>
      </trkpt>
      <trkpt lat="44.54881" lon="4.24897">
        <ele>418</ele>
        <time>2018-06-03T07:32:08.000Z</time>
      </trkpt>
      <trkpt lat="44.54884" lon="4.249">
        <ele>417</ele>
        <time>2018-06-03T07:32:09.000Z</time>
      </trkpt>
      <trkpt lat="44.54887" lon="4.24903">
        <ele>417</ele>
        <time>2018-06-03T07:32:10.000Z</time>
      </trkpt>
      <trkpt lat="44.54891" lon="4.24906">
        <ele>416</ele>
        <time>2018-06-03T07:32:11.000Z</time>
      </trkpt>
      <trkpt lat="44.54894" lon="4.24909">
        <ele>415</ele>
        <time>2018-06-03T07:32:12.000Z</time>
      </trkpt>
      <trkpt lat="44.54898" lon="4.24911">
        <ele>414</ele>
        <time>2018-06-03T07:32:13.000Z</time>
      </trkpt>
      <trkpt lat="44.54902" lon="4.24911">
        <ele>413</ele>
        <time>2018-06-03T07:32:14.000Z</time>
      </trkpt>
      <trkpt lat="44.54906" lon="4.24912">
        <ele>412</ele>
        <time>2018-06-03T07:32:15.000Z</time>
      </trkpt>
      <trkpt lat="44.54909" lon="4.24913">
        <ele>411</ele>
        <time>2018-06-03T07:32:16.000Z</time>
      </trkpt>
      <trkpt lat="44.54913" lon="4.24915">
        <ele>410</ele>
        <time>2018-06-03T07:32:17.000Z</time>
      </trkpt>
      <trkpt lat="44.54916" lon="4.24917">
        <ele>409</ele>
        <time>2018-06-03T07:32:18.000Z</time>
      </trkpt>
      <trkpt lat="44.54919" lon="4.24919">
        <ele>406</ele>
        <time>2018-06-03T07:32:19.000Z</time>
      </trkpt>
      <trkpt lat="44.54922" lon="4.24921">
        <ele>405</ele>
        <time>2018-06-03T07:32:20.000Z</time>
      </trkpt>
      <trkpt lat="44.54924" lon="4.24924">
        <ele>403</ele>
        <time>2018-06-03T07:32:21.000Z</time>
      </trkpt>
      <trkpt lat="44.54926" lon="4.24927">
        <ele>402</ele>
        <time>2018-06-03T07:32:22.000Z</time>
      </trkpt>
      <trkpt lat="44.54928" lon="4.24932">
        <ele>401</ele>
        <time>2018-06-03T07:32:23.000Z</time>
      </trkpt>
      <trkpt lat="44.5493" lon="4.24934">
        <ele>400</ele>
        <time>2018-06-03T07:32:24.000Z</time>
      </trkpt>
      <trkpt lat="44.54933" lon="4.24935">
        <ele>399</ele>
        <time>2018-06-03T07:32:25.000Z</time>
      </trkpt>
      <trkpt lat="44.54935" lon="4.24934">
        <ele>399</ele>
        <time>2018-06-03T07:32:26.000Z</time>
      </trkpt>
      <trkpt lat="44.54937" lon="4.24932">
        <ele>399</ele>
        <time>2018-06-03T07:32:27.000Z</time>
      </trkpt>
      <trkpt lat="44.54939" lon="4.24929">
        <ele>399</ele>
        <time>2018-06-03T07:32:28.000Z</time>
      </trkpt>
      <trkpt lat="44.54941" lon="4.24924">
        <ele>398</ele>
        <time>2018-06-03T07:32:29.000Z</time>
      </trkpt>
      <trkpt lat="44.54942" lon="4.2492">
        <ele>398</ele>
        <time>2018-06-03T07:32:30.000Z</time>
      </trkpt>
      <trkpt lat="44.54942" lon="4.24916">
        <ele>395</ele>
        <time>2018-06-03T07:32:31.000Z</time>
      </trkpt>
      <trkpt lat="44.54943" lon="4.24912">
        <ele>395</ele>
        <time>2018-06-03T07:32:32.000Z</time>
      </trkpt>
      <trkpt lat="44.54944" lon="4.24907">
        <ele>394</ele>
        <time>2018-06-03T07:32:33.000Z</time>
      </trkpt>
      <trkpt lat="44.54943" lon="4.24904">
        <ele>394</ele>
        <time>2018-06-03T07:32:34.000Z</time>
      </trkpt>
      <trkpt lat="44.54942" lon="4.24901">
        <ele>394</ele>
        <time>2018-06-03T07:32:35.000Z</time>
      </trkpt>
      <trkpt lat="44.5494" lon="4.24898">
        <ele>394</ele>
        <time>2018-06-03T07:32:36.000Z</time>
      </trkpt>
      <trkpt lat="44.54937" lon="4.24894">
        <ele>394</ele>
        <time>2018-06-03T07:32:37.000Z</time>
      </trkpt>
      <trkpt lat="44.54934" lon="4.2489">
        <ele>394</ele>
        <time>2018-06-03T07:32:38.000Z</time>
      </trkpt>
      <trkpt lat="44.5493" lon="4.24886">
        <ele>394</ele>
        <time>2018-06-03T07:32:39.000Z</time>
      </trkpt>
      <trkpt lat="44.54927" lon="4.24881">
        <ele>394</ele>
        <time>2018-06-03T07:32:40.000Z</time>
      </trkpt>
      <trkpt lat="44.54923" lon="4.24877">
        <ele>394</ele>
        <time>2018-06-03T07:32:41.000Z</time>
      </trkpt>
      <trkpt lat="44.5492" lon="4.24872">
        <ele>393</ele>
        <time>2018-06-03T07:32:42.000Z</time>
      </trkpt>
      <trkpt lat="44.54918" lon="4.24868">
        <ele>393</ele>
        <time>2018-06-03T07:32:43.000Z</time>
      </trkpt>
      <trkpt lat="44.54918" lon="4.24865">
        <ele>393</ele>
        <time>2018-06-03T07:32:44.000Z</time>
      </trkpt>
      <trkpt lat="44.54919" lon="4.24864">
        <ele>393</ele>
        <time>2018-06-03T07:32:45.000Z</time>
      </trkpt>
      <trkpt lat="44.54921" lon="4.24864">
        <ele>393</ele>
        <time>2018-06-03T07:32:46.000Z</time>
      </trkpt>
      <trkpt lat="44.54923" lon="4.24864">
        <ele>393</ele>
        <time>2018-06-03T07:32:47.000Z</time>
      </trkpt>
      <trkpt lat="44.54926" lon="4.24866">
        <ele>392</ele>
        <time>2018-06-03T07:32:48.000Z</time>
      </trkpt>
      <trkpt lat="44.54928" lon="4.24867">
        <ele>392</ele>
        <time>2018-06-03T07:32:49.000Z</time>
      </trkpt>
      <trkpt lat="44.54929" lon="4.24867">
        <ele>392</ele>
        <time>2018-06-03T07:32:50.000Z</time>
      </trkpt>
      <trkpt lat="44.54932" lon="4.24866">
        <ele>392</ele>
        <time>2018-06-03T07:32:51.000Z</time>
      </trkpt>
      <trkpt lat="44.54935" lon="4.24864">
        <ele>392</ele>
        <time>2018-06-03T07:32:52.000Z</time>
      </trkpt>
      <trkpt lat="44.54938" lon="4.24863">
        <ele>391</ele>
        <time>2018-06-03T07:32:53.000Z</time>
      </trkpt>
      <trkpt lat="44.54943" lon="4.24862">
        <ele>390</ele>
        <time>2018-06-03T07:32:54.000Z</time>
      </trkpt>
      <trkpt lat="44.54947" lon="4.2486">
        <ele>390</ele>
        <time>2018-06-03T07:32:55.000Z</time>
      </trkpt>
      <trkpt lat="44.54952" lon="4.24858">
        <ele>389</ele>
        <time>2018-06-03T07:32:56.000Z</time>
      </trkpt>
      <trkpt lat="44.54958" lon="4.24857">
        <ele>388</ele>
        <time>2018-06-03T07:32:57.000Z</time>
      </trkpt>
      <trkpt lat="44.54963" lon="4.24855">
        <ele>387</ele>
        <time>2018-06-03T07:32:58.000Z</time>
      </trkpt>
      <trkpt lat="44.54968" lon="4.24855">
        <ele>386</ele>
        <time>2018-06-03T07:32:59.000Z</time>
      </trkpt>
      <trkpt lat="44.54972" lon="4.24855">
        <ele>385</ele>
        <time>2018-06-03T07:33:00.000Z</time>
      </trkpt>
      <trkpt lat="44.54978" lon="4.24856">
        <ele>384</ele>
        <time>2018-06-03T07:33:01.000Z</time>
      </trkpt>
      <trkpt lat="44.54983" lon="4.24856">
        <ele>383</ele>
        <time>2018-06-03T07:33:02.000Z</time>
      </trkpt>
      <trkpt lat="44.54989" lon="4.24857">
        <ele>382</ele>
        <time>2018-06-03T07:33:03.000Z</time>
      </trkpt>
      <trkpt lat="44.54994" lon="4.24858">
        <ele>381</ele>
        <time>2018-06-03T07:33:04.000Z</time>
      </trkpt>
      <trkpt lat="44.54999" lon="4.24859">
        <ele>381</ele>
        <time>2018-06-03T07:33:05.000Z</time>
      </trkpt>
      <trkpt lat="44.55004" lon="4.24861">
        <ele>365</ele>
        <time>2018-06-03T07:33:06.000Z</time>
      </trkpt>
      <trkpt lat="44.55007" lon="4.24864">
        <ele>364</ele>
        <time>2018-06-03T07:33:07.000Z</time>
      </trkpt>
      <trkpt lat="44.55009" lon="4.24868">
        <ele>364</ele>
        <time>2018-06-03T07:33:08.000Z</time>
      </trkpt>
      <trkpt lat="44.55011" lon="4.24871">
        <ele>364</ele>
        <time>2018-06-03T07:33:09.000Z</time>
      </trkpt>
      <trkpt lat="44.55014" lon="4.24871">
        <ele>364</ele>
        <time>2018-06-03T07:33:10.000Z</time>
      </trkpt>
      <trkpt lat="44.55015" lon="4.2487">
        <ele>364</ele>
        <time>2018-06-03T07:33:11.000Z</time>
      </trkpt>
      <trkpt lat="44.55017" lon="4.24867">
        <ele>363</ele>
        <time>2018-06-03T07:33:12.000Z</time>
      </trkpt>
      <trkpt lat="44.55018" lon="4.24863">
        <ele>363</ele>
        <time>2018-06-03T07:33:13.000Z</time>
      </trkpt>
      <trkpt lat="44.55018" lon="4.24858">
        <ele>363</ele>
        <time>2018-06-03T07:33:14.000Z</time>
      </trkpt>
      <trkpt lat="44.55018" lon="4.24853">
        <ele>363</ele>
        <time>2018-06-03T07:33:15.000Z</time>
      </trkpt>
      <trkpt lat="44.55017" lon="4.24847">
        <ele>364</ele>
        <time>2018-06-03T07:33:16.000Z</time>
      </trkpt>
      <trkpt lat="44.55015" lon="4.24842">
        <ele>365</ele>
        <time>2018-06-03T07:33:17.000Z</time>
      </trkpt>
      <trkpt lat="44.55012" lon="4.24837">
        <ele>366</ele>
        <time>2018-06-03T07:33:18.000Z</time>
      </trkpt>
      <trkpt lat="44.55009" lon="4.24833">
        <ele>366</ele>
        <time>2018-06-03T07:33:19.000Z</time>
      </trkpt>
      <trkpt lat="44.55005" lon="4.2483">
        <ele>367</ele>
        <time>2018-06-03T07:33:20.000Z</time>
      </trkpt>
      <trkpt lat="44.55001" lon="4.24829">
        <ele>368</ele>
        <time>2018-06-03T07:33:21.000Z</time>
      </trkpt>
      <trkpt lat="44.54996" lon="4.24827">
        <ele>373</ele>
        <time>2018-06-03T07:33:22.000Z</time>
      </trkpt>
      <trkpt lat="44.54991" lon="4.24825">
        <ele>375</ele>
        <time>2018-06-03T07:33:23.000Z</time>
      </trkpt>
      <trkpt lat="44.54986" lon="4.24824">
        <ele>376</ele>
        <time>2018-06-03T07:33:24.000Z</time>
      </trkpt>
      <trkpt lat="44.54981" lon="4.24823">
        <ele>378</ele>
        <time>2018-06-03T07:33:25.000Z</time>
      </trkpt>
      <trkpt lat="44.54976" lon="4.24821">
        <ele>379</ele>
        <time>2018-06-03T07:33:26.000Z</time>
      </trkpt>
      <trkpt lat="44.54972" lon="4.24818">
        <ele>380</ele>
        <time>2018-06-03T07:33:27.000Z</time>
      </trkpt>
      <trkpt lat="44.54967" lon="4.24816">
        <ele>381</ele>
        <time>2018-06-03T07:33:28.000Z</time>
      </trkpt>
      <trkpt lat="44.54964" lon="4.24813">
        <ele>382</ele>
        <time>2018-06-03T07:33:29.000Z</time>
      </trkpt>
      <trkpt lat="44.5496" lon="4.24811">
        <ele>382</ele>
        <time>2018-06-03T07:33:30.000Z</time>
      </trkpt>
      <trkpt lat="44.54958" lon="4.2481">
        <ele>383</ele>
        <time>2018-06-03T07:33:31.000Z</time>
      </trkpt>
      <trkpt lat="44.54956" lon="4.24808">
        <ele>383</ele>
        <time>2018-06-03T07:33:32.000Z</time>
      </trkpt>
      <trkpt lat="44.54955" lon="4.24807">
        <ele>383</ele>
        <time>2018-06-03T07:33:33.000Z</time>
      </trkpt>
      <trkpt lat="44.54954" lon="4.24805">
        <ele>384</ele>
        <time>2018-06-03T07:33:34.000Z</time>
      </trkpt>
      <trkpt lat="44.54954" lon="4.24804">
        <ele>384</ele>
        <time>2018-06-03T07:33:35.000Z</time>
      </trkpt>
      <trkpt lat="44.54953" lon="4.24804">
        <ele>384</ele>
        <time>2018-06-03T07:33:36.000Z</time>
      </trkpt>
      <trkpt lat="44.54953" lon="4.24803">
        <ele>384</ele>
        <time>2018-06-03T07:33:37.000Z</time>
      </trkpt>
      <trkpt lat="44.54953" lon="4.24802">
        <ele>384</ele>
        <time>2018-06-03T07:33:38.000Z</time>
      </trkpt>
      <trkpt lat="44.54953" lon="4.24802">
        <ele>384</ele>
        <time>2018-06-03T07:33:39.000Z</time>
      </trkpt>
      <trkpt lat="44.54953" lon="4.24801">
        <ele>384</ele>
        <time>2018-06-03T07:33:40.000Z</time>
      </trkpt>
      <trkpt lat="44.54953" lon="4.24799">
        <ele>384</ele>
        <time>2018-06-03T07:33:41.000Z</time>
      </trkpt>
      <trkpt lat="44.54953" lon="4.24798">
        <ele>384</ele>
        <time>2018-06-03T07:33:42.000Z</time>
      </trkpt>
      <trkpt lat="44.54953" lon="4.24797">
        <ele>384</ele>
        <time>2018-06-03T07:33:43.000Z</time>
      </trkpt>
      <trkpt lat="44.54953" lon="4.24797">
        <ele>384</ele>
        <time>2018-06-03T07:33:44.000Z</time>
      </trkpt>
      <trkpt lat="44.54953" lon="4.24797">
        <ele>384</ele>
        <time>2018-06-03T07:33:45.000Z</time>
      </trkpt>
      <trkpt lat="44.54954" lon="4.24797">
        <ele>384</ele>
        <time>2018-06-03T07:33:46.000Z</time>
      </trkpt>
      <trkpt lat="44.54954" lon="4.24796">
        <ele>384</ele>
        <time>2018-06-03T07:33:47.000Z</time>
      </trkpt>
      <trkpt lat="44.54955" lon="4.24795">
        <ele>383</ele>
        <time>2018-06-03T07:33:48.000Z</time>
      </trkpt>
      <trkpt lat="44.54955" lon="4.24794">
        <ele>383</ele>
        <time>2018-06-03T07:33:49.000Z</time>
      </trkpt>
      <trkpt lat="44.54955" lon="4.24793">
        <ele>383</ele>
        <time>2018-06-03T07:33:50.000Z</time>
      </trkpt>
      <trkpt lat="44.54956" lon="4.24792">
        <ele>383</ele>
        <time>2018-06-03T07:33:51.000Z</time>
      </trkpt>
      <trkpt lat="44.54957" lon="4.24791">
        <ele>383</ele>
        <time>2018-06-03T07:33:52.000Z</time>
      </trkpt>
      <trkpt lat="44.54958" lon="4.2479">
        <ele>383</ele>
        <time>2018-06-03T07:33:53.000Z</time>
      </trkpt>
      <trkpt lat="44.54959" lon="4.24787">
        <ele>383</ele>
        <time>2018-06-03T07:33:54.000Z</time>
      </trkpt>
      <trkpt lat="44.5496" lon="4.24785">
        <ele>382</ele>
        <time>2018-06-03T07:33:55.000Z</time>
      </trkpt>
      <trkpt lat="44.54962" lon="4.24783">
        <ele>382</ele>
        <time>2018-06-03T07:33:56.000Z</time>
      </trkpt>
      <trkpt lat="44.54964" lon="4.24779">
        <ele>382</ele>
        <time>2018-06-03T07:33:57.000Z</time>
      </trkpt>
      <trkpt lat="44.54966" lon="4.24776">
        <ele>381</ele>
        <time>2018-06-03T07:33:58.000Z</time>
      </trkpt>
      <trkpt lat="44.54969" lon="4.24772">
        <ele>380</ele>
        <time>2018-06-03T07:33:59.000Z</time>
      </trkpt>
      <trkpt lat="44.54972" lon="4.24769">
        <ele>379</ele>
        <time>2018-06-03T07:34:00.000Z</time>
      </trkpt>
      <trkpt lat="44.54975" lon="4.24765">
        <ele>378</ele>
        <time>2018-06-03T07:34:01.000Z</time>
      </trkpt>
      <trkpt lat="44.54978" lon="4.24761">
        <ele>377</ele>
        <time>2018-06-03T07:34:02.000Z</time>
      </trkpt>
      <trkpt lat="44.54981" lon="4.24758">
        <ele>376</ele>
        <time>2018-06-03T07:34:03.000Z</time>
      </trkpt>
      <trkpt lat="44.54985" lon="4.24753">
        <ele>374</ele>
        <time>2018-06-03T07:34:04.000Z</time>
      </trkpt>
      <trkpt lat="44.54989" lon="4.2475">
        <ele>374</ele>
        <time>2018-06-03T07:34:05.000Z</time>
      </trkpt>
      <trkpt lat="44.54992" lon="4.24746">
        <ele>372</ele>
        <time>2018-06-03T07:34:06.000Z</time>
      </trkpt>
      <trkpt lat="44.54996" lon="4.24742">
        <ele>372</ele>
        <time>2018-06-03T07:34:07.000Z</time>
      </trkpt>
      <trkpt lat="44.55" lon="4.24738">
        <ele>374</ele>
        <time>2018-06-03T07:34:08.000Z</time>
      </trkpt>
      <trkpt lat="44.55003" lon="4.24733">
        <ele>362</ele>
        <time>2018-06-03T07:34:09.000Z</time>
      </trkpt>
      <trkpt lat="44.55006" lon="4.24727">
        <ele>361</ele>
        <time>2018-06-03T07:34:10.000Z</time>
      </trkpt>
      <trkpt lat="44.55008" lon="4.2472">
        <ele>361</ele>
        <time>2018-06-03T07:34:11.000Z</time>
      </trkpt>
      <trkpt lat="44.5501" lon="4.24713">
        <ele>361</ele>
        <time>2018-06-03T07:34:12.000Z</time>
      </trkpt>
      <trkpt lat="44.55011" lon="4.24706">
        <ele>361</ele>
        <time>2018-06-03T07:34:13.000Z</time>
      </trkpt>
      <trkpt lat="44.55013" lon="4.24699">
        <ele>362</ele>
        <time>2018-06-03T07:34:14.000Z</time>
      </trkpt>
      <trkpt lat="44.55016" lon="4.2469">
        <ele>363</ele>
        <time>2018-06-03T07:34:15.000Z</time>
      </trkpt>
      <trkpt lat="44.55018" lon="4.24682">
        <ele>363</ele>
        <time>2018-06-03T07:34:16.000Z</time>
      </trkpt>
      <trkpt lat="44.5502" lon="4.24674">
        <ele>364</ele>
        <time>2018-06-03T07:34:17.000Z</time>
      </trkpt>
      <trkpt lat="44.55023" lon="4.24666">
        <ele>364</ele>
        <time>2018-06-03T07:34:18.000Z</time>
      </trkpt>
      <trkpt lat="44.55025" lon="4.24659">
        <ele>363</ele>
        <time>2018-06-03T07:34:19.000Z</time>
      </trkpt>
      <trkpt lat="44.55027" lon="4.24652">
        <ele>362</ele>
        <time>2018-06-03T07:34:20.000Z</time>
      </trkpt>
      <trkpt lat="44.55029" lon="4.24645">
        <ele>361</ele>
        <time>2018-06-03T07:34:21.000Z</time>
      </trkpt>
      <trkpt lat="44.55031" lon="4.24639">
        <ele>360</ele>
        <time>2018-06-03T07:34:22.000Z</time>
      </trkpt>
      <trkpt lat="44.55034" lon="4.24632">
        <ele>359</ele>
        <time>2018-06-03T07:34:23.000Z</time>
      </trkpt>
      <trkpt lat="44.55037" lon="4.24626">
        <ele>359</ele>
        <time>2018-06-03T07:34:24.000Z</time>
      </trkpt>
      <trkpt lat="44.55038" lon="4.2462">
        <ele>358</ele>
        <time>2018-06-03T07:34:25.000Z</time>
      </trkpt>
      <trkpt lat="44.5504" lon="4.24616">
        <ele>358</ele>
        <time>2018-06-03T07:34:26.000Z</time>
      </trkpt>
      <trkpt lat="44.55042" lon="4.24613">
        <ele>358</ele>
        <time>2018-06-03T07:34:27.000Z</time>
      </trkpt>
      <trkpt lat="44.55043" lon="4.2461">
        <ele>358</ele>
        <time>2018-06-03T07:34:28.000Z</time>
      </trkpt>
      <trkpt lat="44.55044" lon="4.24608">
        <ele>357</ele>
        <time>2018-06-03T07:34:29.000Z</time>
      </trkpt>
      <trkpt lat="44.55045" lon="4.24606">
        <ele>357</ele>
        <time>2018-06-03T07:34:30.000Z</time>
      </trkpt>
      <trkpt lat="44.55046" lon="4.24605">
        <ele>357</ele>
        <time>2018-06-03T07:34:31.000Z</time>
      </trkpt>
      <trkpt lat="44.55046" lon="4.24604">
        <ele>357</ele>
        <time>2018-06-03T07:34:32.000Z</time>
      </trkpt>
      <trkpt lat="44.55047" lon="4.24603">
        <ele>357</ele>
        <time>2018-06-03T07:34:33.000Z</time>
      </trkpt>
      <trkpt lat="44.55049" lon="4.24603">
        <ele>356</ele>
        <time>2018-06-03T07:34:34.000Z</time>
      </trkpt>
      <trkpt lat="44.55049" lon="4.24604">
        <ele>356</ele>
        <time>2018-06-03T07:34:35.000Z</time>
      </trkpt>
      <trkpt lat="44.5505" lon="4.24606">
        <ele>356</ele>
        <time>2018-06-03T07:34:36.000Z</time>
      </trkpt>
      <trkpt lat="44.55051" lon="4.24609">
        <ele>356</ele>
        <time>2018-06-03T07:34:37.000Z</time>
      </trkpt>
      <trkpt lat="44.55051" lon="4.24612">
        <ele>356</ele>
        <time>2018-06-03T07:34:38.000Z</time>
      </trkpt>
      <trkpt lat="44.55051" lon="4.24618">
        <ele>356</ele>
        <time>2018-06-03T07:34:39.000Z</time>
      </trkpt>
      <trkpt lat="44.55051" lon="4.24624">
        <ele>357</ele>
        <time>2018-06-03T07:34:40.000Z</time>
      </trkpt>
      <trkpt lat="44.55051" lon="4.24629">
        <ele>357</ele>
        <time>2018-06-03T07:34:41.000Z</time>
      </trkpt>
      <trkpt lat="44.5505" lon="4.24634">
        <ele>357</ele>
        <time>2018-06-03T07:34:42.000Z</time>
      </trkpt>
      <trkpt lat="44.5505" lon="4.24638">
        <ele>357</ele>
        <time>2018-06-03T07:34:43.000Z</time>
      </trkpt>
      <trkpt lat="44.5505" lon="4.24642">
        <ele>357</ele>
        <time>2018-06-03T07:34:44.000Z</time>
      </trkpt>
      <trkpt lat="44.55051" lon="4.24643">
        <ele>357</ele>
        <time>2018-06-03T07:34:45.000Z</time>
      </trkpt>
      <trkpt lat="44.55052" lon="4.24641">
        <ele>356</ele>
        <time>2018-06-03T07:34:46.000Z</time>
      </trkpt>
      <trkpt lat="44.55053" lon="4.24639">
        <ele>356</ele>
        <time>2018-06-03T07:34:47.000Z</time>
      </trkpt>
      <trkpt lat="44.55054" lon="4.24636">
        <ele>356</ele>
        <time>2018-06-03T07:34:48.000Z</time>
      </trkpt>
      <trkpt lat="44.55056" lon="4.24631">
        <ele>356</ele>
        <time>2018-06-03T07:34:49.000Z</time>
      </trkpt>
      <trkpt lat="44.55057" lon="4.24625">
        <ele>356</ele>
        <time>2018-06-03T07:34:50.000Z</time>
      </trkpt>
      <trkpt lat="44.55059" lon="4.24618">
        <ele>355</ele>
        <time>2018-06-03T07:34:51.000Z</time>
      </trkpt>
      <trkpt lat="44.5506" lon="4.24611">
        <ele>355</ele>
        <time>2018-06-03T07:34:52.000Z</time>
      </trkpt>
      <trkpt lat="44.55061" lon="4.24604">
        <ele>354</ele>
        <time>2018-06-03T07:34:53.000Z</time>
      </trkpt>
      <trkpt lat="44.55062" lon="4.24597">
        <ele>353</ele>
        <time>2018-06-03T07:34:54.000Z</time>
      </trkpt>
      <trkpt lat="44.55064" lon="4.24591">
        <ele>352</ele>
        <time>2018-06-03T07:34:55.000Z</time>
      </trkpt>
      <trkpt lat="44.55066" lon="4.24584">
        <ele>352</ele>
        <time>2018-06-03T07:34:56.000Z</time>
      </trkpt>
      <trkpt lat="44.55068" lon="4.24579">
        <ele>351</ele>
        <time>2018-06-03T07:34:57.000Z</time>
      </trkpt>
      <trkpt lat="44.55068" lon="4.24574">
        <ele>351</ele>
        <time>2018-06-03T07:34:58.000Z</time>
      </trkpt>
      <trkpt lat="44.55068" lon="4.24568">
        <ele>352</ele>
        <time>2018-06-03T07:34:59.000Z</time>
      </trkpt>
      <trkpt lat="44.55066" lon="4.24563">
        <ele>353</ele>
        <time>2018-06-03T07:35:00.000Z</time>
      </trkpt>
      <trkpt lat="44.55065" lon="4.2456">
        <ele>353</ele>
        <time>2018-06-03T07:35:01.000Z</time>
      </trkpt>
      <trkpt lat="44.55065" lon="4.24558">
        <ele>353</ele>
        <time>2018-06-03T07:35:02.000Z</time>
      </trkpt>
      <trkpt lat="44.55065" lon="4.24557">
        <ele>353</ele>
        <time>2018-06-03T07:35:03.000Z</time>
      </trkpt>
      <trkpt lat="44.55065" lon="4.24556">
        <ele>353</ele>
        <time>2018-06-03T07:35:04.000Z</time>
      </trkpt>
      <trkpt lat="44.55065" lon="4.24556">
        <ele>353</ele>
        <time>2018-06-03T07:35:05.000Z</time>
      </trkpt>
      <trkpt lat="44.55065" lon="4.24555">
        <ele>353</ele>
        <time>2018-06-03T07:35:06.000Z</time>
      </trkpt>
      <trkpt lat="44.55065" lon="4.24553">
        <ele>353</ele>
        <time>2018-06-03T07:35:07.000Z</time>
      </trkpt>
      <trkpt lat="44.55066" lon="4.24552">
        <ele>353</ele>
        <time>2018-06-03T07:35:08.000Z</time>
      </trkpt>
      <trkpt lat="44.55066" lon="4.24552">
        <ele>353</ele>
        <time>2018-06-03T07:35:09.000Z</time>
      </trkpt>
      <trkpt lat="44.55066" lon="4.24551">
        <ele>354</ele>
        <time>2018-06-03T07:35:10.000Z</time>
      </trkpt>
      <trkpt lat="44.55066" lon="4.24551">
        <ele>354</ele>
        <time>2018-06-03T07:35:11.000Z</time>
      </trkpt>
      <trkpt lat="44.55066" lon="4.2455">
        <ele>354</ele>
        <time>2018-06-03T07:35:12.000Z</time>
      </trkpt>
      <trkpt lat="44.55066" lon="4.2455">
        <ele>354</ele>
        <time>2018-06-03T07:35:13.000Z</time>
      </trkpt>
      <trkpt lat="44.55066" lon="4.2455">
        <ele>354</ele>
        <time>2018-06-03T07:35:14.000Z</time>
      </trkpt>
      <trkpt lat="44.55066" lon="4.24549">
        <ele>354</ele>
        <time>2018-06-03T07:35:15.000Z</time>
      </trkpt>
      <trkpt lat="44.55066" lon="4.24549">
        <ele>354</ele>
        <time>2018-06-03T07:35:16.000Z</time>
      </trkpt>
      <trkpt lat="44.55066" lon="4.24548">
        <ele>354</ele>
        <time>2018-06-03T07:35:17.000Z</time>
      </trkpt>
      <trkpt lat="44.55067" lon="4.24548">
        <ele>354</ele>
        <time>2018-06-03T07:35:18.000Z</time>
      </trkpt>
      <trkpt lat="44.55067" lon="4.24548">
        <ele>354</ele>
        <time>2018-06-03T07:35:19.000Z</time>
      </trkpt>
      <trkpt lat="44.55067" lon="4.24548">
        <ele>354</ele>
        <time>2018-06-03T07:35:20.000Z</time>
      </trkpt>
      <trkpt lat="44.55067" lon="4.24547">
        <ele>354</ele>
        <time>2018-06-03T07:35:21.000Z</time>
      </trkpt>
      <trkpt lat="44.55067" lon="4.24547">
        <ele>354</ele>
        <time>2018-06-03T07:35:22.000Z</time>
      </trkpt>
      <trkpt lat="44.55067" lon="4.24546">
        <ele>354</ele>
        <time>2018-06-03T07:35:23.000Z</time>
      </trkpt>
      <trkpt lat="44.55067" lon="4.24546">
        <ele>354</ele>
        <time>2018-06-03T07:35:24.000Z</time>
      </trkpt>
      <trkpt lat="44.55067" lon="4.24545">
        <ele>354</ele>
        <time>2018-06-03T07:35:25.000Z</time>
      </trkpt>
      <trkpt lat="44.55067" lon="4.24545">
        <ele>354</ele>
        <time>2018-06-03T07:35:26.000Z</time>
      </trkpt>
      <trkpt lat="44.55067" lon="4.24544">
        <ele>354</ele>
        <time>2018-06-03T07:35:27.000Z</time>
      </trkpt>
      <trkpt lat="44.55067" lon="4.24544">
        <ele>354</ele>
        <time>2018-06-03T07:35:28.000Z</time>
      </trkpt>
      <trkpt lat="44.55067" lon="4.24544">
        <ele>354</ele>
        <time>2018-06-03T07:35:29.000Z</time>
      </trkpt>
      <trkpt lat="44.55067" lon="4.24544">
        <ele>354</ele>
        <time>2018-06-03T07:35:30.000Z</time>
      </trkpt>
      <trkpt lat="44.55067" lon="4.24544">
        <ele>354</ele>
        <time>2018-06-03T07:35:31.000Z</time>
      </trkpt>
      <trkpt lat="44.55067" lon="4.24544">
        <ele>354</ele>
        <time>2018-06-03T07:35:32.000Z</time>
      </trkpt>
      <trkpt lat="44.55067" lon="4.24544">
        <ele>354</ele>
        <time>2018-06-03T07:35:33.000Z</time>
      </trkpt>
      <trkpt lat="44.55067" lon="4.24543">
        <ele>354</ele>
        <time>2018-06-03T07:35:34.000Z</time>
      </trkpt>
      <trkpt lat="44.55067" lon="4.24543">
        <ele>354</ele>
        <time>2018-06-03T07:35:35.000Z</time>
      </trkpt>
      <trkpt lat="44.55067" lon="4.24543">
        <ele>354</ele>
        <time>2018-06-03T07:35:36.000Z</time>
      </trkpt>
      <trkpt lat="44.55067" lon="4.24543">
        <ele>354</ele>
        <time>2018-06-03T07:35:37.000Z</time>
      </trkpt>
      <trkpt lat="44.55067" lon="4.24543">
        <ele>354</ele>
        <time>2018-06-03T07:35:38.000Z</time>
      </trkpt>
      <trkpt lat="44.55067" lon="4.24543">
        <ele>354</ele>
        <time>2018-06-03T07:35:39.000Z</time>
      </trkpt>
      <trkpt lat="44.55067" lon="4.24543">
        <ele>354</ele>
        <time>2018-06-03T07:35:40.000Z</time>
      </trkpt>
      <trkpt lat="44.55067" lon="4.24543">
        <ele>354</ele>
        <time>2018-06-03T07:35:41.000Z</time>
      </trkpt>
      <trkpt lat="44.55067" lon="4.24543">
        <ele>354</ele>
        <time>2018-06-03T07:35:42.000Z</time>
      </trkpt>
      <trkpt lat="44.55067" lon="4.24543">
        <ele>354</ele>
        <time>2018-06-03T07:35:43.000Z</time>
      </trkpt>
      <trkpt lat="44.55067" lon="4.24543">
        <ele>354</ele>
        <time>2018-06-03T07:35:44.000Z</time>
      </trkpt>
      <trkpt lat="44.55067" lon="4.24543">
        <ele>354</ele>
        <time>2018-06-03T07:35:45.000Z</time>
      </trkpt>
      <trkpt lat="44.55067" lon="4.24544">
        <ele>354</ele>
        <time>2018-06-03T07:35:46.000Z</time>
      </trkpt>
      <trkpt lat="44.55066" lon="4.24544">
        <ele>354</ele>
        <time>2018-06-03T07:35:47.000Z</time>
      </trkpt>
      <trkpt lat="44.55067" lon="4.24544">
        <ele>354</ele>
        <time>2018-06-03T07:35:48.000Z</time>
      </trkpt>
      <trkpt lat="44.55067" lon="4.24544">
        <ele>354</ele>
        <time>2018-06-03T07:35:49.000Z</time>
      </trkpt>
      <trkpt lat="44.55067" lon="4.24544">
        <ele>354</ele>
        <time>2018-06-03T07:35:50.000Z</time>
      </trkpt>
      <trkpt lat="44.55067" lon="4.24544">
        <ele>354</ele>
        <time>2018-06-03T07:35:51.000Z</time>
      </trkpt>
      <trkpt lat="44.55067" lon="4.24544">
        <ele>354</ele>
        <time>2018-06-03T07:35:52.000Z</time>
      </trkpt>
      <trkpt lat="44.55067" lon="4.24544">
        <ele>354</ele>
        <time>2018-06-03T07:35:53.000Z</time>
      </trkpt>
      <trkpt lat="44.55067" lon="4.24544">
        <ele>354</ele>
        <time>2018-06-03T07:35:54.000Z</time>
      </trkpt>
      <trkpt lat="44.55067" lon="4.24544">
        <ele>354</ele>
        <time>2018-06-03T07:35:55.000Z</time>
      </trkpt>
      <trkpt lat="44.55067" lon="4.24544">
        <ele>354</ele>
        <time>2018-06-03T07:35:56.000Z</time>
      </trkpt>
      <trkpt lat="44.55067" lon="4.24545">
        <ele>354</ele>
        <time>2018-06-03T07:35:57.000Z</time>
      </trkpt>
      <trkpt lat="44.55067" lon="4.24545">
        <ele>354</ele>
        <time>2018-06-03T07:35:58.000Z</time>
      </trkpt>
      <trkpt lat="44.55067" lon="4.24545">
        <ele>354</ele>
        <time>2018-06-03T07:35:59.000Z</time>
      </trkpt>
      <trkpt lat="44.55067" lon="4.24545">
        <ele>354</ele>
        <time>2018-06-03T07:36:00.000Z</time>
      </trkpt>
      <trkpt lat="44.55067" lon="4.24545">
        <ele>354</ele>
        <time>2018-06-03T07:36:01.000Z</time>
      </trkpt>
      <trkpt lat="44.55066" lon="4.24545">
        <ele>354</ele>
        <time>2018-06-03T07:36:02.000Z</time>
      </trkpt>
      <trkpt lat="44.55066" lon="4.24545">
        <ele>354</ele>
        <time>2018-06-03T07:36:03.000Z</time>
      </trkpt>
      <trkpt lat="44.55066" lon="4.24545">
        <ele>354</ele>
        <time>2018-06-03T07:36:04.000Z</time>
      </trkpt>
      <trkpt lat="44.55066" lon="4.24546">
        <ele>354</ele>
        <time>2018-06-03T07:36:05.000Z</time>
      </trkpt>
      <trkpt lat="44.55066" lon="4.24546">
        <ele>354</ele>
        <time>2018-06-03T07:36:06.000Z</time>
      </trkpt>
      <trkpt lat="44.55066" lon="4.24546">
        <ele>354</ele>
        <time>2018-06-03T07:36:07.000Z</time>
      </trkpt>
      <trkpt lat="44.55066" lon="4.24546">
        <ele>354</ele>
        <time>2018-06-03T07:36:08.000Z</time>
      </trkpt>
      <trkpt lat="44.55066" lon="4.24546">
        <ele>354</ele>
        <time>2018-06-03T07:36:09.000Z</time>
      </trkpt>
      <trkpt lat="44.55066" lon="4.24546">
        <ele>354</ele>
        <time>2018-06-03T07:36:10.000Z</time>
      </trkpt>
      <trkpt lat="44.55066" lon="4.24546">
        <ele>354</ele>
        <time>2018-06-03T07:36:11.000Z</time>
      </trkpt>
      <trkpt lat="44.55066" lon="4.24546">
        <ele>354</ele>
        <time>2018-06-03T07:36:12.000Z</time>
      </trkpt>
      <trkpt lat="44.55066" lon="4.24545">
        <ele>354</ele>
        <time>2018-06-03T07:36:13.000Z</time>
      </trkpt>
      <trkpt lat="44.55067" lon="4.24545">
        <ele>354</ele>
        <time>2018-06-03T07:36:14.000Z</time>
      </trkpt>
      <trkpt lat="44.55067" lon="4.24544">
        <ele>354</ele>
        <time>2018-06-03T07:36:15.000Z</time>
      </trkpt>
      <trkpt lat="44.55068" lon="4.24543">
        <ele>353</ele>
        <time>2018-06-03T07:36:16.000Z</time>
      </trkpt>
      <trkpt lat="44.55068" lon="4.24543">
        <ele>353</ele>
        <time>2018-06-03T07:36:17.000Z</time>
      </trkpt>
      <trkpt lat="44.55068" lon="4.24543">
        <ele>353</ele>
        <time>2018-06-03T07:36:18.000Z</time>
      </trkpt>
      <trkpt lat="44.55068" lon="4.24543">
        <ele>353</ele>
        <time>2018-06-03T07:36:19.000Z</time>
      </trkpt>
      <trkpt lat="44.55068" lon="4.24542">
        <ele>353</ele>
        <time>2018-06-03T07:36:20.000Z</time>
      </trkpt>
      <trkpt lat="44.55068" lon="4.24542">
        <ele>353</ele>
        <time>2018-06-03T07:36:21.000Z</time>
      </trkpt>
      <trkpt lat="44.55068" lon="4.24542">
        <ele>353</ele>
        <time>2018-06-03T07:36:22.000Z</time>
      </trkpt>
      <trkpt lat="44.55068" lon="4.24542">
        <ele>353</ele>
        <time>2018-06-03T07:36:23.000Z</time>
      </trkpt>
      <trkpt lat="44.55068" lon="4.24541">
        <ele>353</ele>
        <time>2018-06-03T07:36:24.000Z</time>
      </trkpt>
      <trkpt lat="44.55068" lon="4.24541">
        <ele>353</ele>
        <time>2018-06-03T07:36:25.000Z</time>
      </trkpt>
      <trkpt lat="44.55068" lon="4.24541">
        <ele>353</ele>
        <time>2018-06-03T07:36:26.000Z</time>
      </trkpt>
      <trkpt lat="44.55068" lon="4.24541">
        <ele>353</ele>
        <time>2018-06-03T07:36:27.000Z</time>
      </trkpt>
      <trkpt lat="44.55068" lon="4.24541">
        <ele>353</ele>
        <time>2018-06-03T07:36:28.000Z</time>
      </trkpt>
      <trkpt lat="44.55068" lon="4.2454">
        <ele>353</ele>
        <time>2018-06-03T07:36:29.000Z</time>
      </trkpt>
      <trkpt lat="44.55068" lon="4.2454">
        <ele>353</ele>
        <time>2018-06-03T07:36:30.000Z</time>
      </trkpt>
      <trkpt lat="44.55068" lon="4.2454">
        <ele>353</ele>
        <time>2018-06-03T07:36:31.000Z</time>
      </trkpt>
      <trkpt lat="44.55068" lon="4.2454">
        <ele>353</ele>
        <time>2018-06-03T07:36:32.000Z</time>
      </trkpt>
      <trkpt lat="44.55068" lon="4.24539">
        <ele>353</ele>
        <time>2018-06-03T07:36:33.000Z</time>
      </trkpt>
      <trkpt lat="44.55068" lon="4.24539">
        <ele>353</ele>
        <time>2018-06-03T07:36:34.000Z</time>
      </trkpt>
      <trkpt lat="44.55068" lon="4.24539">
        <ele>353</ele>
        <time>2018-06-03T07:36:35.000Z</time>
      </trkpt>
      <trkpt lat="44.55068" lon="4.24537">
        <ele>353</ele>
        <time>2018-06-03T07:36:36.000Z</time>
      </trkpt>
      <trkpt lat="44.55068" lon="4.24537">
        <ele>353</ele>
        <time>2018-06-03T07:36:37.000Z</time>
      </trkpt>
      <trkpt lat="44.55067" lon="4.24537">
        <ele>353</ele>
        <time>2018-06-03T07:36:38.000Z</time>
      </trkpt>
      <trkpt lat="44.55066" lon="4.24538">
        <ele>354</ele>
        <time>2018-06-03T07:36:39.000Z</time>
      </trkpt>
      <trkpt lat="44.55066" lon="4.24537">
        <ele>354</ele>
        <time>2018-06-03T07:36:40.000Z</time>
      </trkpt>
      <trkpt lat="44.55066" lon="4.24535">
        <ele>354</ele>
        <time>2018-06-03T07:36:41.000Z</time>
      </trkpt>
      <trkpt lat="44.55065" lon="4.24534">
        <ele>354</ele>
        <time>2018-06-03T07:36:42.000Z</time>
      </trkpt>
      <trkpt lat="44.55065" lon="4.24533">
        <ele>354</ele>
        <time>2018-06-03T07:36:43.000Z</time>
      </trkpt>
      <trkpt lat="44.55065" lon="4.24532">
        <ele>354</ele>
        <time>2018-06-03T07:36:44.000Z</time>
      </trkpt>
      <trkpt lat="44.55065" lon="4.2453">
        <ele>353</ele>
        <time>2018-06-03T07:36:45.000Z</time>
      </trkpt>
      <trkpt lat="44.55064" lon="4.24528">
        <ele>353</ele>
        <time>2018-06-03T07:36:46.000Z</time>
      </trkpt>
      <trkpt lat="44.55064" lon="4.24526">
        <ele>353</ele>
        <time>2018-06-03T07:36:47.000Z</time>
      </trkpt>
      <trkpt lat="44.55063" lon="4.24525">
        <ele>353</ele>
        <time>2018-06-03T07:36:48.000Z</time>
      </trkpt>
      <trkpt lat="44.55062" lon="4.24524">
        <ele>353</ele>
        <time>2018-06-03T07:36:49.000Z</time>
      </trkpt>
      <trkpt lat="44.55062" lon="4.24523">
        <ele>353</ele>
        <time>2018-06-03T07:36:50.000Z</time>
      </trkpt>
      <trkpt lat="44.55061" lon="4.24522">
        <ele>354</ele>
        <time>2018-06-03T07:36:51.000Z</time>
      </trkpt>
      <trkpt lat="44.55061" lon="4.24521">
        <ele>354</ele>
        <time>2018-06-03T07:36:52.000Z</time>
      </trkpt>
      <trkpt lat="44.5506" lon="4.2452">
        <ele>354</ele>
        <time>2018-06-03T07:36:53.000Z</time>
      </trkpt>
      <trkpt lat="44.55059" lon="4.24519">
        <ele>354</ele>
        <time>2018-06-03T07:36:54.000Z</time>
      </trkpt>
      <trkpt lat="44.55059" lon="4.24518">
        <ele>354</ele>
        <time>2018-06-03T07:36:55.000Z</time>
      </trkpt>
      <trkpt lat="44.55058" lon="4.24518">
        <ele>354</ele>
        <time>2018-06-03T07:36:56.000Z</time>
      </trkpt>
      <trkpt lat="44.55058" lon="4.24517">
        <ele>354</ele>
        <time>2018-06-03T07:36:57.000Z</time>
      </trkpt>
      <trkpt lat="44.55058" lon="4.24517">
        <ele>354</ele>
        <time>2018-06-03T07:36:58.000Z</time>
      </trkpt>
      <trkpt lat="44.55057" lon="4.24517">
        <ele>354</ele>
        <time>2018-06-03T07:36:59.000Z</time>
      </trkpt>
      <trkpt lat="44.55057" lon="4.24516">
        <ele>354</ele>
        <time>2018-06-03T07:37:00.000Z</time>
      </trkpt>
      <trkpt lat="44.55056" lon="4.24515">
        <ele>354</ele>
        <time>2018-06-03T07:37:01.000Z</time>
      </trkpt>
      <trkpt lat="44.55056" lon="4.24515">
        <ele>354</ele>
        <time>2018-06-03T07:37:02.000Z</time>
      </trkpt>
      <trkpt lat="44.55055" lon="4.24514">
        <ele>354</ele>
        <time>2018-06-03T07:37:03.000Z</time>
      </trkpt>
      <trkpt lat="44.55055" lon="4.24513">
        <ele>354</ele>
        <time>2018-06-03T07:37:04.000Z</time>
      </trkpt>
      <trkpt lat="44.55055" lon="4.24512">
        <ele>354</ele>
        <time>2018-06-03T07:37:05.000Z</time>
      </trkpt>
      <trkpt lat="44.55054" lon="4.24511">
        <ele>354</ele>
        <time>2018-06-03T07:37:06.000Z</time>
      </trkpt>
      <trkpt lat="44.55053" lon="4.2451">
        <ele>355</ele>
        <time>2018-06-03T07:37:07.000Z</time>
      </trkpt>
      <trkpt lat="44.55053" lon="4.2451">
        <ele>355</ele>
        <time>2018-06-03T07:37:08.000Z</time>
      </trkpt>
      <trkpt lat="44.55052" lon="4.24508">
        <ele>355</ele>
        <time>2018-06-03T07:37:09.000Z</time>
      </trkpt>
      <trkpt lat="44.55052" lon="4.24507">
        <ele>355</ele>
        <time>2018-06-03T07:37:10.000Z</time>
      </trkpt>
      <trkpt lat="44.55053" lon="4.24506">
        <ele>355</ele>
        <time>2018-06-03T07:37:11.000Z</time>
      </trkpt>
      <trkpt lat="44.55053" lon="4.24505">
        <ele>354</ele>
        <time>2018-06-03T07:37:12.000Z</time>
      </trkpt>
      <trkpt lat="44.55054" lon="4.24504">
        <ele>354</ele>
        <time>2018-06-03T07:37:13.000Z</time>
      </trkpt>
      <trkpt lat="44.55054" lon="4.24503">
        <ele>354</ele>
        <time>2018-06-03T07:37:14.000Z</time>
      </trkpt>
      <trkpt lat="44.55055" lon="4.24503">
        <ele>354</ele>
        <time>2018-06-03T07:37:15.000Z</time>
      </trkpt>
      <trkpt lat="44.55056" lon="4.24502">
        <ele>354</ele>
        <time>2018-06-03T07:37:16.000Z</time>
      </trkpt>
      <trkpt lat="44.55057" lon="4.24501">
        <ele>353</ele>
        <time>2018-06-03T07:37:17.000Z</time>
      </trkpt>
      <trkpt lat="44.55058" lon="4.245">
        <ele>353</ele>
        <time>2018-06-03T07:37:18.000Z</time>
      </trkpt>
      <trkpt lat="44.55058" lon="4.24499">
        <ele>355</ele>
        <time>2018-06-03T07:37:19.000Z</time>
      </trkpt>
      <trkpt lat="44.55059" lon="4.24498">
        <ele>355</ele>
        <time>2018-06-03T07:37:20.000Z</time>
      </trkpt>
      <trkpt lat="44.5506" lon="4.24497">
        <ele>355</ele>
        <time>2018-06-03T07:37:21.000Z</time>
      </trkpt>
      <trkpt lat="44.55061" lon="4.24496">
        <ele>355</ele>
        <time>2018-06-03T07:37:22.000Z</time>
      </trkpt>
      <trkpt lat="44.55062" lon="4.24495">
        <ele>354</ele>
        <time>2018-06-03T07:37:23.000Z</time>
      </trkpt>
      <trkpt lat="44.55063" lon="4.24494">
        <ele>354</ele>
        <time>2018-06-03T07:37:24.000Z</time>
      </trkpt>
      <trkpt lat="44.55064" lon="4.24494">
        <ele>354</ele>
        <time>2018-06-03T07:37:25.000Z</time>
      </trkpt>
      <trkpt lat="44.55064" lon="4.24493">
        <ele>354</ele>
        <time>2018-06-03T07:37:26.000Z</time>
      </trkpt>
      <trkpt lat="44.55065" lon="4.24492">
        <ele>353</ele>
        <time>2018-06-03T07:37:27.000Z</time>
      </trkpt>
      <trkpt lat="44.55066" lon="4.24491">
        <ele>353</ele>
        <time>2018-06-03T07:37:28.000Z</time>
      </trkpt>
      <trkpt lat="44.55066" lon="4.2449">
        <ele>353</ele>
        <time>2018-06-03T07:37:29.000Z</time>
      </trkpt>
      <trkpt lat="44.55066" lon="4.2449">
        <ele>353</ele>
        <time>2018-06-03T07:37:30.000Z</time>
      </trkpt>
      <trkpt lat="44.55066" lon="4.2449">
        <ele>353</ele>
        <time>2018-06-03T07:37:31.000Z</time>
      </trkpt>
      <trkpt lat="44.55067" lon="4.24489">
        <ele>353</ele>
        <time>2018-06-03T07:37:32.000Z</time>
      </trkpt>
      <trkpt lat="44.55067" lon="4.24489">
        <ele>353</ele>
        <time>2018-06-03T07:37:33.000Z</time>
      </trkpt>
      <trkpt lat="44.55067" lon="4.24489">
        <ele>353</ele>
        <time>2018-06-03T07:37:34.000Z</time>
      </trkpt>
      <trkpt lat="44.55068" lon="4.24488">
        <ele>353</ele>
        <time>2018-06-03T07:37:35.000Z</time>
      </trkpt>
      <trkpt lat="44.55069" lon="4.24488">
        <ele>353</ele>
        <time>2018-06-03T07:37:36.000Z</time>
      </trkpt>
      <trkpt lat="44.5507" lon="4.24486">
        <ele>353</ele>
        <time>2018-06-03T07:37:37.000Z</time>
      </trkpt>
      <trkpt lat="44.55072" lon="4.24485">
        <ele>353</ele>
        <time>2018-06-03T07:37:38.000Z</time>
      </trkpt>
      <trkpt lat="44.55074" lon="4.24484">
        <ele>353</ele>
        <time>2018-06-03T07:37:39.000Z</time>
      </trkpt>
      <trkpt lat="44.55075" lon="4.24483">
        <ele>353</ele>
        <time>2018-06-03T07:37:40.000Z</time>
      </trkpt>
      <trkpt lat="44.55077" lon="4.24482">
        <ele>353</ele>
        <time>2018-06-03T07:37:41.000Z</time>
      </trkpt>
      <trkpt lat="44.55079" lon="4.24482">
        <ele>352</ele>
        <time>2018-06-03T07:37:42.000Z</time>
      </trkpt>
      <trkpt lat="44.55081" lon="4.24482">
        <ele>352</ele>
        <time>2018-06-03T07:37:43.000Z</time>
      </trkpt>
      <trkpt lat="44.55083" lon="4.24482">
        <ele>352</ele>
        <time>2018-06-03T07:37:44.000Z</time>
      </trkpt>
      <trkpt lat="44.55085" lon="4.24482">
        <ele>349</ele>
        <time>2018-06-03T07:37:45.000Z</time>
      </trkpt>
      <trkpt lat="44.55086" lon="4.24482">
        <ele>349</ele>
        <time>2018-06-03T07:37:46.000Z</time>
      </trkpt>
      <trkpt lat="44.55087" lon="4.24481">
        <ele>349</ele>
        <time>2018-06-03T07:37:47.000Z</time>
      </trkpt>
      <trkpt lat="44.55089" lon="4.24481">
        <ele>350</ele>
        <time>2018-06-03T07:37:48.000Z</time>
      </trkpt>
      <trkpt lat="44.5509" lon="4.2448">
        <ele>350</ele>
        <time>2018-06-03T07:37:49.000Z</time>
      </trkpt>
      <trkpt lat="44.5509" lon="4.2448">
        <ele>350</ele>
        <time>2018-06-03T07:37:50.000Z</time>
      </trkpt>
      <trkpt lat="44.55091" lon="4.2448">
        <ele>350</ele>
        <time>2018-06-03T07:37:51.000Z</time>
      </trkpt>
      <trkpt lat="44.55091" lon="4.2448">
        <ele>350</ele>
        <time>2018-06-03T07:37:52.000Z</time>
      </trkpt>
      <trkpt lat="44.55091" lon="4.2448">
        <ele>350</ele>
        <time>2018-06-03T07:37:53.000Z</time>
      </trkpt>
      <trkpt lat="44.55091" lon="4.2448">
        <ele>350</ele>
        <time>2018-06-03T07:37:54.000Z</time>
      </trkpt>
      <trkpt lat="44.55091" lon="4.2448">
        <ele>350</ele>
        <time>2018-06-03T07:37:55.000Z</time>
      </trkpt>
      <trkpt lat="44.55092" lon="4.2448">
        <ele>350</ele>
        <time>2018-06-03T07:37:56.000Z</time>
      </trkpt>
      <trkpt lat="44.55092" lon="4.2448">
        <ele>350</ele>
        <time>2018-06-03T07:37:57.000Z</time>
      </trkpt>
      <trkpt lat="44.55093" lon="4.24481">
        <ele>350</ele>
        <time>2018-06-03T07:37:58.000Z</time>
      </trkpt>
      <trkpt lat="44.55094" lon="4.24481">
        <ele>350</ele>
        <time>2018-06-03T07:37:59.000Z</time>
      </trkpt>
      <trkpt lat="44.55094" lon="4.24481">
        <ele>350</ele>
        <time>2018-06-03T07:38:00.000Z</time>
      </trkpt>
      <trkpt lat="44.55095" lon="4.24481">
        <ele>350</ele>
        <time>2018-06-03T07:38:01.000Z</time>
      </trkpt>
      <trkpt lat="44.55095" lon="4.24481">
        <ele>350</ele>
        <time>2018-06-03T07:38:02.000Z</time>
      </trkpt>
      <trkpt lat="44.55095" lon="4.24481">
        <ele>350</ele>
        <time>2018-06-03T07:38:03.000Z</time>
      </trkpt>
      <trkpt lat="44.55095" lon="4.24481">
        <ele>350</ele>
        <time>2018-06-03T07:38:04.000Z</time>
      </trkpt>
      <trkpt lat="44.55095" lon="4.24481">
        <ele>350</ele>
        <time>2018-06-03T07:38:05.000Z</time>
      </trkpt>
      <trkpt lat="44.55095" lon="4.24481">
        <ele>350</ele>
        <time>2018-06-03T07:38:06.000Z</time>
      </trkpt>
      <trkpt lat="44.55095" lon="4.24482">
        <ele>350</ele>
        <time>2018-06-03T07:38:07.000Z</time>
      </trkpt>
      <trkpt lat="44.55095" lon="4.24482">
        <ele>350</ele>
        <time>2018-06-03T07:38:08.000Z</time>
      </trkpt>
      <trkpt lat="44.55095" lon="4.24482">
        <ele>350</ele>
        <time>2018-06-03T07:38:09.000Z</time>
      </trkpt>
      <trkpt lat="44.55095" lon="4.24482">
        <ele>350</ele>
        <time>2018-06-03T07:38:10.000Z</time>
      </trkpt>
      <trkpt lat="44.55095" lon="4.24482">
        <ele>350</ele>
        <time>2018-06-03T07:38:11.000Z</time>
      </trkpt>
      <trkpt lat="44.55095" lon="4.24482">
        <ele>350</ele>
        <time>2018-06-03T07:38:12.000Z</time>
      </trkpt>
      <trkpt lat="44.55095" lon="4.24482">
        <ele>350</ele>
        <time>2018-06-03T07:38:13.000Z</time>
      </trkpt>
      <trkpt lat="44.55096" lon="4.24483">
        <ele>350</ele>
        <time>2018-06-03T07:38:14.000Z</time>
      </trkpt>
      <trkpt lat="44.55096" lon="4.24483">
        <ele>350</ele>
        <time>2018-06-03T07:38:15.000Z</time>
      </trkpt>
      <trkpt lat="44.55098" lon="4.24484">
        <ele>350</ele>
        <time>2018-06-03T07:38:16.000Z</time>
      </trkpt>
      <trkpt lat="44.55098" lon="4.24484">
        <ele>350</ele>
        <time>2018-06-03T07:38:17.000Z</time>
      </trkpt>
      <trkpt lat="44.55099" lon="4.24484">
        <ele>350</ele>
        <time>2018-06-03T07:38:18.000Z</time>
      </trkpt>
      <trkpt lat="44.551" lon="4.24484">
        <ele>351</ele>
        <time>2018-06-03T07:38:19.000Z</time>
      </trkpt>
      <trkpt lat="44.55101" lon="4.24484">
        <ele>351</ele>
        <time>2018-06-03T07:38:20.000Z</time>
      </trkpt>
      <trkpt lat="44.55102" lon="4.24485">
        <ele>351</ele>
        <time>2018-06-03T07:38:21.000Z</time>
      </trkpt>
      <trkpt lat="44.55103" lon="4.24486">
        <ele>351</ele>
        <time>2018-06-03T07:38:22.000Z</time>
      </trkpt>
      <trkpt lat="44.55104" lon="4.24486">
        <ele>351</ele>
        <time>2018-06-03T07:38:23.000Z</time>
      </trkpt>
      <trkpt lat="44.55104" lon="4.24487">
        <ele>351</ele>
        <time>2018-06-03T07:38:24.000Z</time>
      </trkpt>
      <trkpt lat="44.55105" lon="4.24488">
        <ele>351</ele>
        <time>2018-06-03T07:38:25.000Z</time>
      </trkpt>
      <trkpt lat="44.55106" lon="4.24489">
        <ele>351</ele>
        <time>2018-06-03T07:38:26.000Z</time>
      </trkpt>
      <trkpt lat="44.55107" lon="4.24489">
        <ele>351</ele>
        <time>2018-06-03T07:38:27.000Z</time>
      </trkpt>
      <trkpt lat="44.55108" lon="4.24488">
        <ele>352</ele>
        <time>2018-06-03T07:38:28.000Z</time>
      </trkpt>
      <trkpt lat="44.55109" lon="4.24488">
        <ele>352</ele>
        <time>2018-06-03T07:38:29.000Z</time>
      </trkpt>
      <trkpt lat="44.55109" lon="4.24487">
        <ele>352</ele>
        <time>2018-06-03T07:38:30.000Z</time>
      </trkpt>
      <trkpt lat="44.5511" lon="4.24486">
        <ele>352</ele>
        <time>2018-06-03T07:38:31.000Z</time>
      </trkpt>
      <trkpt lat="44.5511" lon="4.24485">
        <ele>352</ele>
        <time>2018-06-03T07:38:32.000Z</time>
      </trkpt>
      <trkpt lat="44.5511" lon="4.24484">
        <ele>352</ele>
        <time>2018-06-03T07:38:33.000Z</time>
      </trkpt>
      <trkpt lat="44.5511" lon="4.24482">
        <ele>352</ele>
        <time>2018-06-03T07:38:34.000Z</time>
      </trkpt>
      <trkpt lat="44.5511" lon="4.24481">
        <ele>352</ele>
        <time>2018-06-03T07:38:35.000Z</time>
      </trkpt>
      <trkpt lat="44.55111" lon="4.2448">
        <ele>352</ele>
        <time>2018-06-03T07:38:36.000Z</time>
      </trkpt>
      <trkpt lat="44.55111" lon="4.24478">
        <ele>353</ele>
        <time>2018-06-03T07:38:37.000Z</time>
      </trkpt>
      <trkpt lat="44.55112" lon="4.24477">
        <ele>353</ele>
        <time>2018-06-03T07:38:38.000Z</time>
      </trkpt>
      <trkpt lat="44.55112" lon="4.24476">
        <ele>353</ele>
        <time>2018-06-03T07:38:39.000Z</time>
      </trkpt>
      <trkpt lat="44.55112" lon="4.24475">
        <ele>353</ele>
        <time>2018-06-03T07:38:40.000Z</time>
      </trkpt>
      <trkpt lat="44.55113" lon="4.24474">
        <ele>353</ele>
        <time>2018-06-03T07:38:41.000Z</time>
      </trkpt>
      <trkpt lat="44.55113" lon="4.24472">
        <ele>353</ele>
        <time>2018-06-03T07:38:42.000Z</time>
      </trkpt>
      <trkpt lat="44.55113" lon="4.24471">
        <ele>353</ele>
        <time>2018-06-03T07:38:43.000Z</time>
      </trkpt>
      <trkpt lat="44.55114" lon="4.2447">
        <ele>353</ele>
        <time>2018-06-03T07:38:44.000Z</time>
      </trkpt>
      <trkpt lat="44.55114" lon="4.24469">
        <ele>353</ele>
        <time>2018-06-03T07:38:45.000Z</time>
      </trkpt>
      <trkpt lat="44.55114" lon="4.24468">
        <ele>353</ele>
        <time>2018-06-03T07:38:46.000Z</time>
      </trkpt>
      <trkpt lat="44.55115" lon="4.24468">
        <ele>353</ele>
        <time>2018-06-03T07:38:47.000Z</time>
      </trkpt>
      <trkpt lat="44.55115" lon="4.24467">
        <ele>353</ele>
        <time>2018-06-03T07:38:48.000Z</time>
      </trkpt>
      <trkpt lat="44.55115" lon="4.24466">
        <ele>353</ele>
        <time>2018-06-03T07:38:49.000Z</time>
      </trkpt>
      <trkpt lat="44.55116" lon="4.24466">
        <ele>353</ele>
        <time>2018-06-03T07:38:50.000Z</time>
      </trkpt>
      <trkpt lat="44.55116" lon="4.24465">
        <ele>353</ele>
        <time>2018-06-03T07:38:51.000Z</time>
      </trkpt>
      <trkpt lat="44.55116" lon="4.24464">
        <ele>353</ele>
        <time>2018-06-03T07:38:52.000Z</time>
      </trkpt>
      <trkpt lat="44.55117" lon="4.24464">
        <ele>353</ele>
        <time>2018-06-03T07:38:53.000Z</time>
      </trkpt>
      <trkpt lat="44.55117" lon="4.24463">
        <ele>353</ele>
        <time>2018-06-03T07:38:54.000Z</time>
      </trkpt>
      <trkpt lat="44.55118" lon="4.24462">
        <ele>354</ele>
        <time>2018-06-03T07:38:55.000Z</time>
      </trkpt>
      <trkpt lat="44.55118" lon="4.24462">
        <ele>354</ele>
        <time>2018-06-03T07:38:56.000Z</time>
      </trkpt>
      <trkpt lat="44.55119" lon="4.24461">
        <ele>354</ele>
        <time>2018-06-03T07:38:57.000Z</time>
      </trkpt>
      <trkpt lat="44.55119" lon="4.24461">
        <ele>354</ele>
        <time>2018-06-03T07:38:58.000Z</time>
      </trkpt>
      <trkpt lat="44.55119" lon="4.2446">
        <ele>354</ele>
        <time>2018-06-03T07:38:59.000Z</time>
      </trkpt>
      <trkpt lat="44.55119" lon="4.2446">
        <ele>354</ele>
        <time>2018-06-03T07:39:00.000Z</time>
      </trkpt>
      <trkpt lat="44.55119" lon="4.2446">
        <ele>354</ele>
        <time>2018-06-03T07:39:01.000Z</time>
      </trkpt>
      <trkpt lat="44.55119" lon="4.2446">
        <ele>354</ele>
        <time>2018-06-03T07:39:02.000Z</time>
      </trkpt>
      <trkpt lat="44.55119" lon="4.2446">
        <ele>354</ele>
        <time>2018-06-03T07:39:03.000Z</time>
      </trkpt>
      <trkpt lat="44.55119" lon="4.2446">
        <ele>354</ele>
        <time>2018-06-03T07:39:04.000Z</time>
      </trkpt>
      <trkpt lat="44.55119" lon="4.24459">
        <ele>354</ele>
        <time>2018-06-03T07:39:05.000Z</time>
      </trkpt>
      <trkpt lat="44.55119" lon="4.24459">
        <ele>354</ele>
        <time>2018-06-03T07:39:06.000Z</time>
      </trkpt>
      <trkpt lat="44.55119" lon="4.24459">
        <ele>354</ele>
        <time>2018-06-03T07:39:07.000Z</time>
      </trkpt>
      <trkpt lat="44.5512" lon="4.24459">
        <ele>354</ele>
        <time>2018-06-03T07:39:08.000Z</time>
      </trkpt>
      <trkpt lat="44.5512" lon="4.24458">
        <ele>354</ele>
        <time>2018-06-03T07:39:09.000Z</time>
      </trkpt>
      <trkpt lat="44.5512" lon="4.24458">
        <ele>354</ele>
        <time>2018-06-03T07:39:10.000Z</time>
      </trkpt>
      <trkpt lat="44.5512" lon="4.24458">
        <ele>354</ele>
        <time>2018-06-03T07:39:11.000Z</time>
      </trkpt>
      <trkpt lat="44.5512" lon="4.24458">
        <ele>354</ele>
        <time>2018-06-03T07:39:12.000Z</time>
      </trkpt>
      <trkpt lat="44.5512" lon="4.24458">
        <ele>354</ele>
        <time>2018-06-03T07:39:13.000Z</time>
      </trkpt>
      <trkpt lat="44.5512" lon="4.24458">
        <ele>354</ele>
        <time>2018-06-03T07:39:14.000Z</time>
      </trkpt>
      <trkpt lat="44.5512" lon="4.24458">
        <ele>354</ele>
        <time>2018-06-03T07:39:15.000Z</time>
      </trkpt>
      <trkpt lat="44.5512" lon="4.24458">
        <ele>354</ele>
        <time>2018-06-03T07:39:16.000Z</time>
      </trkpt>
      <trkpt lat="44.5512" lon="4.24458">
        <ele>354</ele>
        <time>2018-06-03T07:39:17.000Z</time>
      </trkpt>
      <trkpt lat="44.5512" lon="4.24458">
        <ele>354</ele>
        <time>2018-06-03T07:39:18.000Z</time>
      </trkpt>
      <trkpt lat="44.5512" lon="4.24458">
        <ele>354</ele>
        <time>2018-06-03T07:39:19.000Z</time>
      </trkpt>
      <trkpt lat="44.5512" lon="4.24458">
        <ele>354</ele>
        <time>2018-06-03T07:39:20.000Z</time>
      </trkpt>
      <trkpt lat="44.55121" lon="4.24458">
        <ele>354</ele>
        <time>2018-06-03T07:39:21.000Z</time>
      </trkpt>
      <trkpt lat="44.55121" lon="4.24456">
        <ele>354</ele>
        <time>2018-06-03T07:39:22.000Z</time>
      </trkpt>
      <trkpt lat="44.55121" lon="4.24454">
        <ele>354</ele>
        <time>2018-06-03T07:39:23.000Z</time>
      </trkpt>
      <trkpt lat="44.55122" lon="4.24452">
        <ele>354</ele>
        <time>2018-06-03T07:39:24.000Z</time>
      </trkpt>
      <trkpt lat="44.55123" lon="4.24449">
        <ele>354</ele>
        <time>2018-06-03T07:39:25.000Z</time>
      </trkpt>
      <trkpt lat="44.55125" lon="4.24447">
        <ele>354</ele>
        <time>2018-06-03T07:39:26.000Z</time>
      </trkpt>
      <trkpt lat="44.55126" lon="4.24445">
        <ele>354</ele>
        <time>2018-06-03T07:39:27.000Z</time>
      </trkpt>
      <trkpt lat="44.55128" lon="4.24444">
        <ele>354</ele>
        <time>2018-06-03T07:39:28.000Z</time>
      </trkpt>
      <trkpt lat="44.5513" lon="4.24445">
        <ele>355</ele>
        <time>2018-06-03T07:39:29.000Z</time>
      </trkpt>
      <trkpt lat="44.55131" lon="4.24445">
        <ele>355</ele>
        <time>2018-06-03T07:39:30.000Z</time>
      </trkpt>
      <trkpt lat="44.55131" lon="4.24444">
        <ele>355</ele>
        <time>2018-06-03T07:39:31.000Z</time>
      </trkpt>
      <trkpt lat="44.55132" lon="4.24444">
        <ele>355</ele>
        <time>2018-06-03T07:39:32.000Z</time>
      </trkpt>
      <trkpt lat="44.55133" lon="4.24442">
        <ele>355</ele>
        <time>2018-06-03T07:39:33.000Z</time>
      </trkpt>
      <trkpt lat="44.55133" lon="4.24441">
        <ele>355</ele>
        <time>2018-06-03T07:39:34.000Z</time>
      </trkpt>
      <trkpt lat="44.55135" lon="4.2444">
        <ele>355</ele>
        <time>2018-06-03T07:39:35.000Z</time>
      </trkpt>
      <trkpt lat="44.55137" lon="4.24441">
        <ele>355</ele>
        <time>2018-06-03T07:39:36.000Z</time>
      </trkpt>
      <trkpt lat="44.55139" lon="4.2444">
        <ele>355</ele>
        <time>2018-06-03T07:39:37.000Z</time>
      </trkpt>
      <trkpt lat="44.55142" lon="4.2444">
        <ele>355</ele>
        <time>2018-06-03T07:39:38.000Z</time>
      </trkpt>
      <trkpt lat="44.55144" lon="4.24439">
        <ele>356</ele>
        <time>2018-06-03T07:39:39.000Z</time>
      </trkpt>
      <trkpt lat="44.55145" lon="4.24439">
        <ele>356</ele>
        <time>2018-06-03T07:39:40.000Z</time>
      </trkpt>
      <trkpt lat="44.55147" lon="4.24438">
        <ele>356</ele>
        <time>2018-06-03T07:39:41.000Z</time>
      </trkpt>
      <trkpt lat="44.55149" lon="4.24438">
        <ele>356</ele>
        <time>2018-06-03T07:39:42.000Z</time>
      </trkpt>
      <trkpt lat="44.5515" lon="4.24437">
        <ele>356</ele>
        <time>2018-06-03T07:39:43.000Z</time>
      </trkpt>
      <trkpt lat="44.55152" lon="4.24436">
        <ele>356</ele>
        <time>2018-06-03T07:39:44.000Z</time>
      </trkpt>
      <trkpt lat="44.55155" lon="4.24436">
        <ele>356</ele>
        <time>2018-06-03T07:39:45.000Z</time>
      </trkpt>
      <trkpt lat="44.55157" lon="4.24435">
        <ele>356</ele>
        <time>2018-06-03T07:39:46.000Z</time>
      </trkpt>
      <trkpt lat="44.5516" lon="4.24434">
        <ele>357</ele>
        <time>2018-06-03T07:39:47.000Z</time>
      </trkpt>
      <trkpt lat="44.55162" lon="4.24433">
        <ele>357</ele>
        <time>2018-06-03T07:39:48.000Z</time>
      </trkpt>
      <trkpt lat="44.55164" lon="4.24432">
        <ele>357</ele>
        <time>2018-06-03T07:39:49.000Z</time>
      </trkpt>
      <trkpt lat="44.55165" lon="4.24431">
        <ele>357</ele>
        <time>2018-06-03T07:39:50.000Z</time>
      </trkpt>
      <trkpt lat="44.55167" lon="4.24431">
        <ele>365</ele>
        <time>2018-06-03T07:39:51.000Z</time>
      </trkpt>
      <trkpt lat="44.5517" lon="4.24432">
        <ele>366</ele>
        <time>2018-06-03T07:39:52.000Z</time>
      </trkpt>
      <trkpt lat="44.55172" lon="4.24433">
        <ele>366</ele>
        <time>2018-06-03T07:39:53.000Z</time>
      </trkpt>
      <trkpt lat="44.55173" lon="4.24434">
        <ele>367</ele>
        <time>2018-06-03T07:39:54.000Z</time>
      </trkpt>
      <trkpt lat="44.55173" lon="4.24434">
        <ele>367</ele>
        <time>2018-06-03T07:39:55.000Z</time>
      </trkpt>
      <trkpt lat="44.55174" lon="4.24434">
        <ele>367</ele>
        <time>2018-06-03T07:39:56.000Z</time>
      </trkpt>
      <trkpt lat="44.55174" lon="4.24434">
        <ele>367</ele>
        <time>2018-06-03T07:39:57.000Z</time>
      </trkpt>
      <trkpt lat="44.55174" lon="4.24434">
        <ele>367</ele>
        <time>2018-06-03T07:39:58.000Z</time>
      </trkpt>
      <trkpt lat="44.55174" lon="4.24433">
        <ele>367</ele>
        <time>2018-06-03T07:39:59.000Z</time>
      </trkpt>
      <trkpt lat="44.55175" lon="4.24433">
        <ele>367</ele>
        <time>2018-06-03T07:40:00.000Z</time>
      </trkpt>
      <trkpt lat="44.55176" lon="4.24433">
        <ele>367</ele>
        <time>2018-06-03T07:40:01.000Z</time>
      </trkpt>
      <trkpt lat="44.55177" lon="4.24432">
        <ele>367</ele>
        <time>2018-06-03T07:40:02.000Z</time>
      </trkpt>
      <trkpt lat="44.55178" lon="4.24431">
        <ele>367</ele>
        <time>2018-06-03T07:40:03.000Z</time>
      </trkpt>
      <trkpt lat="44.55179" lon="4.24431">
        <ele>367</ele>
        <time>2018-06-03T07:40:04.000Z</time>
      </trkpt>
      <trkpt lat="44.5518" lon="4.2443">
        <ele>367</ele>
        <time>2018-06-03T07:40:05.000Z</time>
      </trkpt>
      <trkpt lat="44.55181" lon="4.2443">
        <ele>367</ele>
        <time>2018-06-03T07:40:06.000Z</time>
      </trkpt>
      <trkpt lat="44.55181" lon="4.24429">
        <ele>367</ele>
        <time>2018-06-03T07:40:07.000Z</time>
      </trkpt>
      <trkpt lat="44.55181" lon="4.24429">
        <ele>367</ele>
        <time>2018-06-03T07:40:08.000Z</time>
      </trkpt>
      <trkpt lat="44.55181" lon="4.24429">
        <ele>367</ele>
        <time>2018-06-03T07:40:09.000Z</time>
      </trkpt>
      <trkpt lat="44.55181" lon="4.24429">
        <ele>367</ele>
        <time>2018-06-03T07:40:10.000Z</time>
      </trkpt>
      <trkpt lat="44.55181" lon="4.24429">
        <ele>367</ele>
        <time>2018-06-03T07:40:11.000Z</time>
      </trkpt>
      <trkpt lat="44.55181" lon="4.24429">
        <ele>367</ele>
        <time>2018-06-03T07:40:12.000Z</time>
      </trkpt>
      <trkpt lat="44.55181" lon="4.24429">
        <ele>367</ele>
        <time>2018-06-03T07:40:13.000Z</time>
      </trkpt>
      <trkpt lat="44.55181" lon="4.24429">
        <ele>367</ele>
        <time>2018-06-03T07:40:14.000Z</time>
      </trkpt>
      <trkpt lat="44.55181" lon="4.24429">
        <ele>367</ele>
        <time>2018-06-03T07:40:15.000Z</time>
      </trkpt>
      <trkpt lat="44.55181" lon="4.24429">
        <ele>367</ele>
        <time>2018-06-03T07:40:16.000Z</time>
      </trkpt>
      <trkpt lat="44.55181" lon="4.24428">
        <ele>367</ele>
        <time>2018-06-03T07:40:17.000Z</time>
      </trkpt>
      <trkpt lat="44.55182" lon="4.24427">
        <ele>367</ele>
        <time>2018-06-03T07:40:18.000Z</time>
      </trkpt>
      <trkpt lat="44.55183" lon="4.24426">
        <ele>367</ele>
        <time>2018-06-03T07:40:19.000Z</time>
      </trkpt>
      <trkpt lat="44.55184" lon="4.24425">
        <ele>367</ele>
        <time>2018-06-03T07:40:20.000Z</time>
      </trkpt>
      <trkpt lat="44.55186" lon="4.24424">
        <ele>368</ele>
        <time>2018-06-03T07:40:21.000Z</time>
      </trkpt>
      <trkpt lat="44.55187" lon="4.24424">
        <ele>368</ele>
        <time>2018-06-03T07:40:22.000Z</time>
      </trkpt>
      <trkpt lat="44.55188" lon="4.24423">
        <ele>368</ele>
        <time>2018-06-03T07:40:23.000Z</time>
      </trkpt>
      <trkpt lat="44.55189" lon="4.24422">
        <ele>369</ele>
        <time>2018-06-03T07:40:24.000Z</time>
      </trkpt>
      <trkpt lat="44.5519" lon="4.24421">
        <ele>369</ele>
        <time>2018-06-03T07:40:25.000Z</time>
      </trkpt>
      <trkpt lat="44.55192" lon="4.2442">
        <ele>369</ele>
        <time>2018-06-03T07:40:26.000Z</time>
      </trkpt>
      <trkpt lat="44.55193" lon="4.24419">
        <ele>369</ele>
        <time>2018-06-03T07:40:27.000Z</time>
      </trkpt>
      <trkpt lat="44.55194" lon="4.24417">
        <ele>370</ele>
        <time>2018-06-03T07:40:28.000Z</time>
      </trkpt>
      <trkpt lat="44.55196" lon="4.24415">
        <ele>364</ele>
        <time>2018-06-03T07:40:29.000Z</time>
      </trkpt>
      <trkpt lat="44.55198" lon="4.24413">
        <ele>364</ele>
        <time>2018-06-03T07:40:30.000Z</time>
      </trkpt>
      <trkpt lat="44.55199" lon="4.24411">
        <ele>364</ele>
        <time>2018-06-03T07:40:31.000Z</time>
      </trkpt>
      <trkpt lat="44.55201" lon="4.24409">
        <ele>365</ele>
        <time>2018-06-03T07:40:32.000Z</time>
      </trkpt>
      <trkpt lat="44.55202" lon="4.24407">
        <ele>365</ele>
        <time>2018-06-03T07:40:33.000Z</time>
      </trkpt>
      <trkpt lat="44.55204" lon="4.24405">
        <ele>365</ele>
        <time>2018-06-03T07:40:34.000Z</time>
      </trkpt>
      <trkpt lat="44.55205" lon="4.24404">
        <ele>365</ele>
        <time>2018-06-03T07:40:35.000Z</time>
      </trkpt>
      <trkpt lat="44.55207" lon="4.24402">
        <ele>365</ele>
        <time>2018-06-03T07:40:36.000Z</time>
      </trkpt>
      <trkpt lat="44.55209" lon="4.244">
        <ele>366</ele>
        <time>2018-06-03T07:40:37.000Z</time>
      </trkpt>
      <trkpt lat="44.5521" lon="4.24399">
        <ele>366</ele>
        <time>2018-06-03T07:40:38.000Z</time>
      </trkpt>
      <trkpt lat="44.55211" lon="4.24397">
        <ele>366</ele>
        <time>2018-06-03T07:40:39.000Z</time>
      </trkpt>
      <trkpt lat="44.55212" lon="4.24396">
        <ele>366</ele>
        <time>2018-06-03T07:40:40.000Z</time>
      </trkpt>
      <trkpt lat="44.55214" lon="4.24394">
        <ele>366</ele>
        <time>2018-06-03T07:40:41.000Z</time>
      </trkpt>
      <trkpt lat="44.55215" lon="4.24393">
        <ele>366</ele>
        <time>2018-06-03T07:40:42.000Z</time>
      </trkpt>
      <trkpt lat="44.55217" lon="4.24391">
        <ele>366</ele>
        <time>2018-06-03T07:40:43.000Z</time>
      </trkpt>
      <trkpt lat="44.55218" lon="4.2439">
        <ele>366</ele>
        <time>2018-06-03T07:40:44.000Z</time>
      </trkpt>
      <trkpt lat="44.55219" lon="4.24389">
        <ele>366</ele>
        <time>2018-06-03T07:40:45.000Z</time>
      </trkpt>
      <trkpt lat="44.55221" lon="4.24387">
        <ele>366</ele>
        <time>2018-06-03T07:40:46.000Z</time>
      </trkpt>
      <trkpt lat="44.55222" lon="4.24385">
        <ele>366</ele>
        <time>2018-06-03T07:40:47.000Z</time>
      </trkpt>
      <trkpt lat="44.55224" lon="4.24384">
        <ele>366</ele>
        <time>2018-06-03T07:40:48.000Z</time>
      </trkpt>
      <trkpt lat="44.55225" lon="4.24382">
        <ele>366</ele>
        <time>2018-06-03T07:40:49.000Z</time>
      </trkpt>
      <trkpt lat="44.55227" lon="4.24381">
        <ele>366</ele>
        <time>2018-06-03T07:40:50.000Z</time>
      </trkpt>
      <trkpt lat="44.55228" lon="4.24379">
        <ele>366</ele>
        <time>2018-06-03T07:40:51.000Z</time>
      </trkpt>
      <trkpt lat="44.5523" lon="4.24378">
        <ele>365</ele>
        <time>2018-06-03T07:40:52.000Z</time>
      </trkpt>
      <trkpt lat="44.55231" lon="4.24376">
        <ele>365</ele>
        <time>2018-06-03T07:40:53.000Z</time>
      </trkpt>
      <trkpt lat="44.55233" lon="4.24374">
        <ele>365</ele>
        <time>2018-06-03T07:40:54.000Z</time>
      </trkpt>
      <trkpt lat="44.55234" lon="4.24372">
        <ele>365</ele>
        <time>2018-06-03T07:40:55.000Z</time>
      </trkpt>
      <trkpt lat="44.55236" lon="4.24371">
        <ele>364</ele>
        <time>2018-06-03T07:40:56.000Z</time>
      </trkpt>
      <trkpt lat="44.55237" lon="4.24369">
        <ele>364</ele>
        <time>2018-06-03T07:40:57.000Z</time>
      </trkpt>
      <trkpt lat="44.55239" lon="4.24368">
        <ele>364</ele>
        <time>2018-06-03T07:40:58.000Z</time>
      </trkpt>
      <trkpt lat="44.55241" lon="4.24367">
        <ele>364</ele>
        <time>2018-06-03T07:40:59.000Z</time>
      </trkpt>
      <trkpt lat="44.55243" lon="4.24366">
        <ele>364</ele>
        <time>2018-06-03T07:41:00.000Z</time>
      </trkpt>
      <trkpt lat="44.55245" lon="4.24365">
        <ele>364</ele>
        <time>2018-06-03T07:41:01.000Z</time>
      </trkpt>
      <trkpt lat="44.55248" lon="4.24365">
        <ele>363</ele>
        <time>2018-06-03T07:41:02.000Z</time>
      </trkpt>
      <trkpt lat="44.5525" lon="4.24365">
        <ele>364</ele>
        <time>2018-06-03T07:41:03.000Z</time>
      </trkpt>
      <trkpt lat="44.55252" lon="4.24365">
        <ele>369</ele>
        <time>2018-06-03T07:41:04.000Z</time>
      </trkpt>
      <trkpt lat="44.55254" lon="4.24365">
        <ele>369</ele>
        <time>2018-06-03T07:41:05.000Z</time>
      </trkpt>
      <trkpt lat="44.55256" lon="4.24364">
        <ele>369</ele>
        <time>2018-06-03T07:41:06.000Z</time>
      </trkpt>
      <trkpt lat="44.55258" lon="4.24364">
        <ele>369</ele>
        <time>2018-06-03T07:41:07.000Z</time>
      </trkpt>
      <trkpt lat="44.5526" lon="4.24364">
        <ele>369</ele>
        <time>2018-06-03T07:41:08.000Z</time>
      </trkpt>
      <trkpt lat="44.55263" lon="4.24363">
        <ele>369</ele>
        <time>2018-06-03T07:41:09.000Z</time>
      </trkpt>
      <trkpt lat="44.55265" lon="4.24362">
        <ele>369</ele>
        <time>2018-06-03T07:41:10.000Z</time>
      </trkpt>
      <trkpt lat="44.55267" lon="4.24361">
        <ele>369</ele>
        <time>2018-06-03T07:41:11.000Z</time>
      </trkpt>
      <trkpt lat="44.5527" lon="4.2436">
        <ele>369</ele>
        <time>2018-06-03T07:41:12.000Z</time>
      </trkpt>
      <trkpt lat="44.55272" lon="4.2436">
        <ele>369</ele>
        <time>2018-06-03T07:41:13.000Z</time>
      </trkpt>
      <trkpt lat="44.55274" lon="4.24359">
        <ele>369</ele>
        <time>2018-06-03T07:41:14.000Z</time>
      </trkpt>
      <trkpt lat="44.55276" lon="4.24359">
        <ele>369</ele>
        <time>2018-06-03T07:41:15.000Z</time>
      </trkpt>
      <trkpt lat="44.55279" lon="4.24359">
        <ele>370</ele>
        <time>2018-06-03T07:41:16.000Z</time>
      </trkpt>
      <trkpt lat="44.55282" lon="4.24359">
        <ele>370</ele>
        <time>2018-06-03T07:41:17.000Z</time>
      </trkpt>
      <trkpt lat="44.55284" lon="4.24359">
        <ele>370</ele>
        <time>2018-06-03T07:41:18.000Z</time>
      </trkpt>
      <trkpt lat="44.55287" lon="4.24358">
        <ele>370</ele>
        <time>2018-06-03T07:41:19.000Z</time>
      </trkpt>
      <trkpt lat="44.55289" lon="4.24358">
        <ele>370</ele>
        <time>2018-06-03T07:41:20.000Z</time>
      </trkpt>
      <trkpt lat="44.55292" lon="4.24358">
        <ele>371</ele>
        <time>2018-06-03T07:41:21.000Z</time>
      </trkpt>
      <trkpt lat="44.55295" lon="4.24358">
        <ele>371</ele>
        <time>2018-06-03T07:41:22.000Z</time>
      </trkpt>
      <trkpt lat="44.55298" lon="4.24358">
        <ele>371</ele>
        <time>2018-06-03T07:41:23.000Z</time>
      </trkpt>
      <trkpt lat="44.55301" lon="4.24359">
        <ele>371</ele>
        <time>2018-06-03T07:41:24.000Z</time>
      </trkpt>
      <trkpt lat="44.55304" lon="4.24359">
        <ele>371</ele>
        <time>2018-06-03T07:41:25.000Z</time>
      </trkpt>
      <trkpt lat="44.55306" lon="4.2436">
        <ele>372</ele>
        <time>2018-06-03T07:41:26.000Z</time>
      </trkpt>
      <trkpt lat="44.55309" lon="4.2436">
        <ele>372</ele>
        <time>2018-06-03T07:41:27.000Z</time>
      </trkpt>
      <trkpt lat="44.55311" lon="4.24361">
        <ele>372</ele>
        <time>2018-06-03T07:41:28.000Z</time>
      </trkpt>
      <trkpt lat="44.55314" lon="4.24362">
        <ele>372</ele>
        <time>2018-06-03T07:41:29.000Z</time>
      </trkpt>
      <trkpt lat="44.55316" lon="4.24363">
        <ele>372</ele>
        <time>2018-06-03T07:41:30.000Z</time>
      </trkpt>
      <trkpt lat="44.55319" lon="4.24363">
        <ele>372</ele>
        <time>2018-06-03T07:41:31.000Z</time>
      </trkpt>
      <trkpt lat="44.55321" lon="4.24365">
        <ele>373</ele>
        <time>2018-06-03T07:41:32.000Z</time>
      </trkpt>
      <trkpt lat="44.55324" lon="4.24366">
        <ele>373</ele>
        <time>2018-06-03T07:41:33.000Z</time>
      </trkpt>
      <trkpt lat="44.55326" lon="4.24367">
        <ele>373</ele>
        <time>2018-06-03T07:41:34.000Z</time>
      </trkpt>
      <trkpt lat="44.55328" lon="4.24368">
        <ele>374</ele>
        <time>2018-06-03T07:41:35.000Z</time>
      </trkpt>
      <trkpt lat="44.55331" lon="4.24368">
        <ele>374</ele>
        <time>2018-06-03T07:41:36.000Z</time>
      </trkpt>
      <trkpt lat="44.55333" lon="4.24369">
        <ele>374</ele>
        <time>2018-06-03T07:41:37.000Z</time>
      </trkpt>
      <trkpt lat="44.55336" lon="4.24369">
        <ele>383</ele>
        <time>2018-06-03T07:41:38.000Z</time>
      </trkpt>
      <trkpt lat="44.55338" lon="4.24368">
        <ele>383</ele>
        <time>2018-06-03T07:41:39.000Z</time>
      </trkpt>
      <trkpt lat="44.55341" lon="4.24368">
        <ele>383</ele>
        <time>2018-06-03T07:41:40.000Z</time>
      </trkpt>
      <trkpt lat="44.55344" lon="4.24367">
        <ele>383</ele>
        <time>2018-06-03T07:41:41.000Z</time>
      </trkpt>
      <trkpt lat="44.55346" lon="4.24367">
        <ele>383</ele>
        <time>2018-06-03T07:41:42.000Z</time>
      </trkpt>
      <trkpt lat="44.55349" lon="4.24367">
        <ele>383</ele>
        <time>2018-06-03T07:41:43.000Z</time>
      </trkpt>
      <trkpt lat="44.55352" lon="4.24367">
        <ele>384</ele>
        <time>2018-06-03T07:41:44.000Z</time>
      </trkpt>
      <trkpt lat="44.55354" lon="4.24367">
        <ele>384</ele>
        <time>2018-06-03T07:41:45.000Z</time>
      </trkpt>
      <trkpt lat="44.55357" lon="4.24367">
        <ele>384</ele>
        <time>2018-06-03T07:41:46.000Z</time>
      </trkpt>
      <trkpt lat="44.55359" lon="4.24367">
        <ele>385</ele>
        <time>2018-06-03T07:41:47.000Z</time>
      </trkpt>
      <trkpt lat="44.55361" lon="4.24367">
        <ele>385</ele>
        <time>2018-06-03T07:41:48.000Z</time>
      </trkpt>
      <trkpt lat="44.55364" lon="4.24366">
        <ele>385</ele>
        <time>2018-06-03T07:41:49.000Z</time>
      </trkpt>
      <trkpt lat="44.55366" lon="4.24365">
        <ele>385</ele>
        <time>2018-06-03T07:41:50.000Z</time>
      </trkpt>
      <trkpt lat="44.55368" lon="4.24364">
        <ele>385</ele>
        <time>2018-06-03T07:41:51.000Z</time>
      </trkpt>
      <trkpt lat="44.55371" lon="4.24364">
        <ele>385</ele>
        <time>2018-06-03T07:41:52.000Z</time>
      </trkpt>
      <trkpt lat="44.55373" lon="4.24363">
        <ele>385</ele>
        <time>2018-06-03T07:41:53.000Z</time>
      </trkpt>
      <trkpt lat="44.55375" lon="4.24363">
        <ele>386</ele>
        <time>2018-06-03T07:41:54.000Z</time>
      </trkpt>
      <trkpt lat="44.55377" lon="4.24362">
        <ele>386</ele>
        <time>2018-06-03T07:41:55.000Z</time>
      </trkpt>
      <trkpt lat="44.55379" lon="4.24362">
        <ele>386</ele>
        <time>2018-06-03T07:41:56.000Z</time>
      </trkpt>
      <trkpt lat="44.55381" lon="4.24362">
        <ele>386</ele>
        <time>2018-06-03T07:41:57.000Z</time>
      </trkpt>
      <trkpt lat="44.55383" lon="4.24361">
        <ele>386</ele>
        <time>2018-06-03T07:41:58.000Z</time>
      </trkpt>
      <trkpt lat="44.55384" lon="4.24361">
        <ele>386</ele>
        <time>2018-06-03T07:41:59.000Z</time>
      </trkpt>
      <trkpt lat="44.55385" lon="4.24361">
        <ele>386</ele>
        <time>2018-06-03T07:42:00.000Z</time>
      </trkpt>
      <trkpt lat="44.55387" lon="4.2436">
        <ele>386</ele>
        <time>2018-06-03T07:42:01.000Z</time>
      </trkpt>
      <trkpt lat="44.55388" lon="4.2436">
        <ele>386</ele>
        <time>2018-06-03T07:42:02.000Z</time>
      </trkpt>
      <trkpt lat="44.55389" lon="4.2436">
        <ele>386</ele>
        <time>2018-06-03T07:42:03.000Z</time>
      </trkpt>
      <trkpt lat="44.55391" lon="4.24359">
        <ele>386</ele>
        <time>2018-06-03T07:42:04.000Z</time>
      </trkpt>
      <trkpt lat="44.55392" lon="4.24358">
        <ele>386</ele>
        <time>2018-06-03T07:42:05.000Z</time>
      </trkpt>
      <trkpt lat="44.55393" lon="4.24358">
        <ele>386</ele>
        <time>2018-06-03T07:42:06.000Z</time>
      </trkpt>
      <trkpt lat="44.55394" lon="4.24357">
        <ele>386</ele>
        <time>2018-06-03T07:42:07.000Z</time>
      </trkpt>
      <trkpt lat="44.55395" lon="4.24355">
        <ele>386</ele>
        <time>2018-06-03T07:42:08.000Z</time>
      </trkpt>
      <trkpt lat="44.55397" lon="4.24354">
        <ele>386</ele>
        <time>2018-06-03T07:42:09.000Z</time>
      </trkpt>
      <trkpt lat="44.55398" lon="4.24354">
        <ele>386</ele>
        <time>2018-06-03T07:42:10.000Z</time>
      </trkpt>
      <trkpt lat="44.554" lon="4.24352">
        <ele>386</ele>
        <time>2018-06-03T07:42:11.000Z</time>
      </trkpt>
      <trkpt lat="44.554" lon="4.24351">
        <ele>385</ele>
        <time>2018-06-03T07:42:12.000Z</time>
      </trkpt>
      <trkpt lat="44.55402" lon="4.24349">
        <ele>385</ele>
        <time>2018-06-03T07:42:13.000Z</time>
      </trkpt>
      <trkpt lat="44.55403" lon="4.24348">
        <ele>385</ele>
        <time>2018-06-03T07:42:14.000Z</time>
      </trkpt>
      <trkpt lat="44.55404" lon="4.24347">
        <ele>385</ele>
        <time>2018-06-03T07:42:15.000Z</time>
      </trkpt>
      <trkpt lat="44.55406" lon="4.24347">
        <ele>385</ele>
        <time>2018-06-03T07:42:16.000Z</time>
      </trkpt>
      <trkpt lat="44.55407" lon="4.24346">
        <ele>384</ele>
        <time>2018-06-03T07:42:17.000Z</time>
      </trkpt>
      <trkpt lat="44.55408" lon="4.24345">
        <ele>384</ele>
        <time>2018-06-03T07:42:18.000Z</time>
      </trkpt>
      <trkpt lat="44.55409" lon="4.24344">
        <ele>384</ele>
        <time>2018-06-03T07:42:19.000Z</time>
      </trkpt>
      <trkpt lat="44.55411" lon="4.24343">
        <ele>384</ele>
        <time>2018-06-03T07:42:20.000Z</time>
      </trkpt>
      <trkpt lat="44.55413" lon="4.24342">
        <ele>383</ele>
        <time>2018-06-03T07:42:21.000Z</time>
      </trkpt>
      <trkpt lat="44.55415" lon="4.24342">
        <ele>383</ele>
        <time>2018-06-03T07:42:22.000Z</time>
      </trkpt>
      <trkpt lat="44.55416" lon="4.24341">
        <ele>383</ele>
        <time>2018-06-03T07:42:23.000Z</time>
      </trkpt>
      <trkpt lat="44.55418" lon="4.2434">
        <ele>387</ele>
        <time>2018-06-03T07:42:24.000Z</time>
      </trkpt>
      <trkpt lat="44.55419" lon="4.24339">
        <ele>387</ele>
        <time>2018-06-03T07:42:25.000Z</time>
      </trkpt>
      <trkpt lat="44.5542" lon="4.24338">
        <ele>387</ele>
        <time>2018-06-03T07:42:26.000Z</time>
      </trkpt>
      <trkpt lat="44.55422" lon="4.24336">
        <ele>387</ele>
        <time>2018-06-03T07:42:27.000Z</time>
      </trkpt>
      <trkpt lat="44.55423" lon="4.24334">
        <ele>387</ele>
        <time>2018-06-03T07:42:28.000Z</time>
      </trkpt>
      <trkpt lat="44.55424" lon="4.24332">
        <ele>382</ele>
        <time>2018-06-03T07:42:29.000Z</time>
      </trkpt>
      <trkpt lat="44.55425" lon="4.24331">
        <ele>383</ele>
        <time>2018-06-03T07:42:30.000Z</time>
      </trkpt>
      <trkpt lat="44.55426" lon="4.2433">
        <ele>383</ele>
        <time>2018-06-03T07:42:31.000Z</time>
      </trkpt>
      <trkpt lat="44.55427" lon="4.24328">
        <ele>383</ele>
        <time>2018-06-03T07:42:32.000Z</time>
      </trkpt>
      <trkpt lat="44.55428" lon="4.24326">
        <ele>383</ele>
        <time>2018-06-03T07:42:33.000Z</time>
      </trkpt>
      <trkpt lat="44.55429" lon="4.24325">
        <ele>383</ele>
        <time>2018-06-03T07:42:34.000Z</time>
      </trkpt>
      <trkpt lat="44.5543" lon="4.24324">
        <ele>384</ele>
        <time>2018-06-03T07:42:35.000Z</time>
      </trkpt>
      <trkpt lat="44.55431" lon="4.24323">
        <ele>384</ele>
        <time>2018-06-03T07:42:36.000Z</time>
      </trkpt>
      <trkpt lat="44.55432" lon="4.24322">
        <ele>384</ele>
        <time>2018-06-03T07:42:37.000Z</time>
      </trkpt>
      <trkpt lat="44.55434" lon="4.24321">
        <ele>384</ele>
        <time>2018-06-03T07:42:38.000Z</time>
      </trkpt>
      <trkpt lat="44.55435" lon="4.2432">
        <ele>384</ele>
        <time>2018-06-03T07:42:39.000Z</time>
      </trkpt>
      <trkpt lat="44.55436" lon="4.24319">
        <ele>384</ele>
        <time>2018-06-03T07:42:40.000Z</time>
      </trkpt>
      <trkpt lat="44.55437" lon="4.24318">
        <ele>385</ele>
        <time>2018-06-03T07:42:41.000Z</time>
      </trkpt>
      <trkpt lat="44.55438" lon="4.24317">
        <ele>385</ele>
        <time>2018-06-03T07:42:42.000Z</time>
      </trkpt>
      <trkpt lat="44.5544" lon="4.24316">
        <ele>385</ele>
        <time>2018-06-03T07:42:43.000Z</time>
      </trkpt>
      <trkpt lat="44.55441" lon="4.24315">
        <ele>385</ele>
        <time>2018-06-03T07:42:44.000Z</time>
      </trkpt>
      <trkpt lat="44.55442" lon="4.24314">
        <ele>385</ele>
        <time>2018-06-03T07:42:45.000Z</time>
      </trkpt>
      <trkpt lat="44.55443" lon="4.24313">
        <ele>385</ele>
        <time>2018-06-03T07:42:46.000Z</time>
      </trkpt>
      <trkpt lat="44.55444" lon="4.24312">
        <ele>385</ele>
        <time>2018-06-03T07:42:47.000Z</time>
      </trkpt>
      <trkpt lat="44.55445" lon="4.24311">
        <ele>385</ele>
        <time>2018-06-03T07:42:48.000Z</time>
      </trkpt>
      <trkpt lat="44.55446" lon="4.2431">
        <ele>386</ele>
        <time>2018-06-03T07:42:49.000Z</time>
      </trkpt>
      <trkpt lat="44.55448" lon="4.24309">
        <ele>386</ele>
        <time>2018-06-03T07:42:50.000Z</time>
      </trkpt>
      <trkpt lat="44.55449" lon="4.24309">
        <ele>386</ele>
        <time>2018-06-03T07:42:51.000Z</time>
      </trkpt>
      <trkpt lat="44.55451" lon="4.24308">
        <ele>386</ele>
        <time>2018-06-03T07:42:52.000Z</time>
      </trkpt>
      <trkpt lat="44.55452" lon="4.24306">
        <ele>386</ele>
        <time>2018-06-03T07:42:53.000Z</time>
      </trkpt>
      <trkpt lat="44.55453" lon="4.24305">
        <ele>386</ele>
        <time>2018-06-03T07:42:54.000Z</time>
      </trkpt>
      <trkpt lat="44.55455" lon="4.24303">
        <ele>386</ele>
        <time>2018-06-03T07:42:55.000Z</time>
      </trkpt>
      <trkpt lat="44.55457" lon="4.24302">
        <ele>387</ele>
        <time>2018-06-03T07:42:56.000Z</time>
      </trkpt>
      <trkpt lat="44.55458" lon="4.24301">
        <ele>387</ele>
        <time>2018-06-03T07:42:57.000Z</time>
      </trkpt>
      <trkpt lat="44.55459" lon="4.24301">
        <ele>387</ele>
        <time>2018-06-03T07:42:58.000Z</time>
      </trkpt>
      <trkpt lat="44.5546" lon="4.243">
        <ele>387</ele>
        <time>2018-06-03T07:42:59.000Z</time>
      </trkpt>
      <trkpt lat="44.55462" lon="4.243">
        <ele>387</ele>
        <time>2018-06-03T07:43:00.000Z</time>
      </trkpt>
      <trkpt lat="44.55463" lon="4.24299">
        <ele>387</ele>
        <time>2018-06-03T07:43:01.000Z</time>
      </trkpt>
      <trkpt lat="44.55465" lon="4.24297">
        <ele>387</ele>
        <time>2018-06-03T07:43:02.000Z</time>
      </trkpt>
      <trkpt lat="44.55467" lon="4.24297">
        <ele>388</ele>
        <time>2018-06-03T07:43:03.000Z</time>
      </trkpt>
      <trkpt lat="44.55469" lon="4.24296">
        <ele>388</ele>
        <time>2018-06-03T07:43:04.000Z</time>
      </trkpt>
      <trkpt lat="44.5547" lon="4.24295">
        <ele>388</ele>
        <time>2018-06-03T07:43:05.000Z</time>
      </trkpt>
      <trkpt lat="44.55472" lon="4.24294">
        <ele>388</ele>
        <time>2018-06-03T07:43:06.000Z</time>
      </trkpt>
      <trkpt lat="44.55473" lon="4.24293">
        <ele>388</ele>
        <time>2018-06-03T07:43:07.000Z</time>
      </trkpt>
      <trkpt lat="44.55475" lon="4.24292">
        <ele>388</ele>
        <time>2018-06-03T07:43:08.000Z</time>
      </trkpt>
      <trkpt lat="44.55476" lon="4.24291">
        <ele>388</ele>
        <time>2018-06-03T07:43:09.000Z</time>
      </trkpt>
      <trkpt lat="44.55478" lon="4.2429">
        <ele>388</ele>
        <time>2018-06-03T07:43:10.000Z</time>
      </trkpt>
      <trkpt lat="44.55479" lon="4.2429">
        <ele>388</ele>
        <time>2018-06-03T07:43:11.000Z</time>
      </trkpt>
      <trkpt lat="44.55481" lon="4.24288">
        <ele>388</ele>
        <time>2018-06-03T07:43:12.000Z</time>
      </trkpt>
      <trkpt lat="44.55483" lon="4.24287">
        <ele>388</ele>
        <time>2018-06-03T07:43:13.000Z</time>
      </trkpt>
      <trkpt lat="44.55485" lon="4.24285">
        <ele>388</ele>
        <time>2018-06-03T07:43:14.000Z</time>
      </trkpt>
      <trkpt lat="44.55487" lon="4.24283">
        <ele>388</ele>
        <time>2018-06-03T07:43:15.000Z</time>
      </trkpt>
      <trkpt lat="44.55489" lon="4.24281">
        <ele>388</ele>
        <time>2018-06-03T07:43:16.000Z</time>
      </trkpt>
      <trkpt lat="44.55491" lon="4.2428">
        <ele>388</ele>
        <time>2018-06-03T07:43:17.000Z</time>
      </trkpt>
      <trkpt lat="44.55492" lon="4.24278">
        <ele>388</ele>
        <time>2018-06-03T07:43:18.000Z</time>
      </trkpt>
      <trkpt lat="44.55494" lon="4.24277">
        <ele>388</ele>
        <time>2018-06-03T07:43:19.000Z</time>
      </trkpt>
      <trkpt lat="44.55496" lon="4.24275">
        <ele>388</ele>
        <time>2018-06-03T07:43:20.000Z</time>
      </trkpt>
      <trkpt lat="44.55497" lon="4.24273">
        <ele>388</ele>
        <time>2018-06-03T07:43:21.000Z</time>
      </trkpt>
      <trkpt lat="44.55499" lon="4.24271">
        <ele>388</ele>
        <time>2018-06-03T07:43:22.000Z</time>
      </trkpt>
      <trkpt lat="44.55501" lon="4.24269">
        <ele>395</ele>
        <time>2018-06-03T07:43:23.000Z</time>
      </trkpt>
      <trkpt lat="44.55503" lon="4.24267">
        <ele>395</ele>
        <time>2018-06-03T07:43:24.000Z</time>
      </trkpt>
      <trkpt lat="44.55504" lon="4.24265">
        <ele>394</ele>
        <time>2018-06-03T07:43:25.000Z</time>
      </trkpt>
      <trkpt lat="44.55506" lon="4.24264">
        <ele>394</ele>
        <time>2018-06-03T07:43:26.000Z</time>
      </trkpt>
      <trkpt lat="44.55508" lon="4.24262">
        <ele>394</ele>
        <time>2018-06-03T07:43:27.000Z</time>
      </trkpt>
      <trkpt lat="44.5551" lon="4.24262">
        <ele>394</ele>
        <time>2018-06-03T07:43:28.000Z</time>
      </trkpt>
      <trkpt lat="44.55511" lon="4.24261">
        <ele>394</ele>
        <time>2018-06-03T07:43:29.000Z</time>
      </trkpt>
      <trkpt lat="44.55513" lon="4.2426">
        <ele>394</ele>
        <time>2018-06-03T07:43:30.000Z</time>
      </trkpt>
      <trkpt lat="44.55515" lon="4.24259">
        <ele>394</ele>
        <time>2018-06-03T07:43:31.000Z</time>
      </trkpt>
      <trkpt lat="44.55517" lon="4.24258">
        <ele>395</ele>
        <time>2018-06-03T07:43:32.000Z</time>
      </trkpt>
      <trkpt lat="44.55519" lon="4.24257">
        <ele>395</ele>
        <time>2018-06-03T07:43:33.000Z</time>
      </trkpt>
      <trkpt lat="44.55521" lon="4.24256">
        <ele>395</ele>
        <time>2018-06-03T07:43:34.000Z</time>
      </trkpt>
      <trkpt lat="44.55523" lon="4.24255">
        <ele>396</ele>
        <time>2018-06-03T07:43:35.000Z</time>
      </trkpt>
      <trkpt lat="44.55526" lon="4.24254">
        <ele>396</ele>
        <time>2018-06-03T07:43:36.000Z</time>
      </trkpt>
      <trkpt lat="44.55528" lon="4.24254">
        <ele>396</ele>
        <time>2018-06-03T07:43:37.000Z</time>
      </trkpt>
      <trkpt lat="44.5553" lon="4.24253">
        <ele>396</ele>
        <time>2018-06-03T07:43:38.000Z</time>
      </trkpt>
      <trkpt lat="44.55531" lon="4.24253">
        <ele>397</ele>
        <time>2018-06-03T07:43:39.000Z</time>
      </trkpt>
      <trkpt lat="44.55533" lon="4.24252">
        <ele>397</ele>
        <time>2018-06-03T07:43:40.000Z</time>
      </trkpt>
      <trkpt lat="44.55535" lon="4.24253">
        <ele>397</ele>
        <time>2018-06-03T07:43:41.000Z</time>
      </trkpt>
      <trkpt lat="44.55537" lon="4.24253">
        <ele>397</ele>
        <time>2018-06-03T07:43:42.000Z</time>
      </trkpt>
      <trkpt lat="44.55539" lon="4.24254">
        <ele>397</ele>
        <time>2018-06-03T07:43:43.000Z</time>
      </trkpt>
      <trkpt lat="44.5554" lon="4.24254">
        <ele>397</ele>
        <time>2018-06-03T07:43:44.000Z</time>
      </trkpt>
      <trkpt lat="44.55542" lon="4.24254">
        <ele>398</ele>
        <time>2018-06-03T07:43:45.000Z</time>
      </trkpt>
      <trkpt lat="44.55544" lon="4.24254">
        <ele>398</ele>
        <time>2018-06-03T07:43:46.000Z</time>
      </trkpt>
      <trkpt lat="44.55545" lon="4.24255">
        <ele>398</ele>
        <time>2018-06-03T07:43:47.000Z</time>
      </trkpt>
      <trkpt lat="44.55546" lon="4.24256">
        <ele>398</ele>
        <time>2018-06-03T07:43:48.000Z</time>
      </trkpt>
      <trkpt lat="44.55547" lon="4.24257">
        <ele>398</ele>
        <time>2018-06-03T07:43:49.000Z</time>
      </trkpt>
      <trkpt lat="44.55548" lon="4.24259">
        <ele>398</ele>
        <time>2018-06-03T07:43:50.000Z</time>
      </trkpt>
      <trkpt lat="44.55549" lon="4.2426">
        <ele>398</ele>
        <time>2018-06-03T07:43:51.000Z</time>
      </trkpt>
      <trkpt lat="44.55549" lon="4.24262">
        <ele>398</ele>
        <time>2018-06-03T07:43:52.000Z</time>
      </trkpt>
      <trkpt lat="44.55549" lon="4.24263">
        <ele>398</ele>
        <time>2018-06-03T07:43:53.000Z</time>
      </trkpt>
      <trkpt lat="44.55548" lon="4.24264">
        <ele>398</ele>
        <time>2018-06-03T07:43:54.000Z</time>
      </trkpt>
      <trkpt lat="44.55547" lon="4.24266">
        <ele>399</ele>
        <time>2018-06-03T07:43:55.000Z</time>
      </trkpt>
      <trkpt lat="44.55546" lon="4.24267">
        <ele>399</ele>
        <time>2018-06-03T07:43:56.000Z</time>
      </trkpt>
      <trkpt lat="44.55545" lon="4.24267">
        <ele>399</ele>
        <time>2018-06-03T07:43:57.000Z</time>
      </trkpt>
      <trkpt lat="44.55544" lon="4.24268">
        <ele>399</ele>
        <time>2018-06-03T07:43:58.000Z</time>
      </trkpt>
      <trkpt lat="44.55544" lon="4.24268">
        <ele>399</ele>
        <time>2018-06-03T07:43:59.000Z</time>
      </trkpt>
      <trkpt lat="44.55543" lon="4.24269">
        <ele>399</ele>
        <time>2018-06-03T07:44:00.000Z</time>
      </trkpt>
      <trkpt lat="44.55543" lon="4.2427">
        <ele>399</ele>
        <time>2018-06-03T07:44:01.000Z</time>
      </trkpt>
      <trkpt lat="44.55542" lon="4.24271">
        <ele>399</ele>
        <time>2018-06-03T07:44:02.000Z</time>
      </trkpt>
      <trkpt lat="44.55541" lon="4.24271">
        <ele>399</ele>
        <time>2018-06-03T07:44:03.000Z</time>
      </trkpt>
      <trkpt lat="44.5554" lon="4.24272">
        <ele>399</ele>
        <time>2018-06-03T07:44:04.000Z</time>
      </trkpt>
      <trkpt lat="44.5554" lon="4.24274">
        <ele>399</ele>
        <time>2018-06-03T07:44:05.000Z</time>
      </trkpt>
      <trkpt lat="44.55539" lon="4.24275">
        <ele>399</ele>
        <time>2018-06-03T07:44:06.000Z</time>
      </trkpt>
      <trkpt lat="44.55538" lon="4.24277">
        <ele>399</ele>
        <time>2018-06-03T07:44:07.000Z</time>
      </trkpt>
      <trkpt lat="44.55537" lon="4.24279">
        <ele>399</ele>
        <time>2018-06-03T07:44:08.000Z</time>
      </trkpt>
      <trkpt lat="44.55536" lon="4.24281">
        <ele>399</ele>
        <time>2018-06-03T07:44:09.000Z</time>
      </trkpt>
      <trkpt lat="44.55535" lon="4.24282">
        <ele>399</ele>
        <time>2018-06-03T07:44:10.000Z</time>
      </trkpt>
      <trkpt lat="44.55534" lon="4.24284">
        <ele>399</ele>
        <time>2018-06-03T07:44:11.000Z</time>
      </trkpt>
      <trkpt lat="44.55533" lon="4.24285">
        <ele>400</ele>
        <time>2018-06-03T07:44:12.000Z</time>
      </trkpt>
      <trkpt lat="44.55532" lon="4.24287">
        <ele>400</ele>
        <time>2018-06-03T07:44:13.000Z</time>
      </trkpt>
      <trkpt lat="44.55531" lon="4.24288">
        <ele>400</ele>
        <time>2018-06-03T07:44:14.000Z</time>
      </trkpt>
      <trkpt lat="44.55532" lon="4.24289">
        <ele>400</ele>
        <time>2018-06-03T07:44:15.000Z</time>
      </trkpt>
      <trkpt lat="44.55532" lon="4.2429">
        <ele>400</ele>
        <time>2018-06-03T07:44:16.000Z</time>
      </trkpt>
      <trkpt lat="44.55532" lon="4.24291">
        <ele>400</ele>
        <time>2018-06-03T07:44:17.000Z</time>
      </trkpt>
      <trkpt lat="44.55532" lon="4.24291">
        <ele>400</ele>
        <time>2018-06-03T07:44:18.000Z</time>
      </trkpt>
      <trkpt lat="44.55533" lon="4.24291">
        <ele>400</ele>
        <time>2018-06-03T07:44:19.000Z</time>
      </trkpt>
      <trkpt lat="44.55533" lon="4.24291">
        <ele>400</ele>
        <time>2018-06-03T07:44:20.000Z</time>
      </trkpt>
      <trkpt lat="44.55534" lon="4.24291">
        <ele>400</ele>
        <time>2018-06-03T07:44:21.000Z</time>
      </trkpt>
      <trkpt lat="44.55535" lon="4.24291">
        <ele>400</ele>
        <time>2018-06-03T07:44:22.000Z</time>
      </trkpt>
      <trkpt lat="44.55535" lon="4.24291">
        <ele>400</ele>
        <time>2018-06-03T07:44:23.000Z</time>
      </trkpt>
      <trkpt lat="44.55536" lon="4.24291">
        <ele>400</ele>
        <time>2018-06-03T07:44:24.000Z</time>
      </trkpt>
      <trkpt lat="44.55537" lon="4.24291">
        <ele>400</ele>
        <time>2018-06-03T07:44:25.000Z</time>
      </trkpt>
      <trkpt lat="44.55538" lon="4.24291">
        <ele>400</ele>
        <time>2018-06-03T07:44:26.000Z</time>
      </trkpt>
      <trkpt lat="44.55539" lon="4.24291">
        <ele>400</ele>
        <time>2018-06-03T07:44:27.000Z</time>
      </trkpt>
      <trkpt lat="44.55541" lon="4.24291">
        <ele>400</ele>
        <time>2018-06-03T07:44:28.000Z</time>
      </trkpt>
      <trkpt lat="44.55542" lon="4.24291">
        <ele>400</ele>
        <time>2018-06-03T07:44:29.000Z</time>
      </trkpt>
      <trkpt lat="44.55543" lon="4.24291">
        <ele>400</ele>
        <time>2018-06-03T07:44:30.000Z</time>
      </trkpt>
      <trkpt lat="44.55544" lon="4.24291">
        <ele>401</ele>
        <time>2018-06-03T07:44:31.000Z</time>
      </trkpt>
      <trkpt lat="44.55545" lon="4.24291">
        <ele>401</ele>
        <time>2018-06-03T07:44:32.000Z</time>
      </trkpt>
      <trkpt lat="44.55546" lon="4.24291">
        <ele>401</ele>
        <time>2018-06-03T07:44:33.000Z</time>
      </trkpt>
      <trkpt lat="44.55547" lon="4.24291">
        <ele>401</ele>
        <time>2018-06-03T07:44:34.000Z</time>
      </trkpt>
      <trkpt lat="44.55549" lon="4.24291">
        <ele>401</ele>
        <time>2018-06-03T07:44:35.000Z</time>
      </trkpt>
      <trkpt lat="44.5555" lon="4.24292">
        <ele>401</ele>
        <time>2018-06-03T07:44:36.000Z</time>
      </trkpt>
      <trkpt lat="44.55552" lon="4.24292">
        <ele>401</ele>
        <time>2018-06-03T07:44:37.000Z</time>
      </trkpt>
      <trkpt lat="44.55553" lon="4.24292">
        <ele>401</ele>
        <time>2018-06-03T07:44:38.000Z</time>
      </trkpt>
      <trkpt lat="44.55554" lon="4.24292">
        <ele>401</ele>
        <time>2018-06-03T07:44:39.000Z</time>
      </trkpt>
      <trkpt lat="44.55555" lon="4.24292">
        <ele>401</ele>
        <time>2018-06-03T07:44:40.000Z</time>
      </trkpt>
      <trkpt lat="44.55556" lon="4.24291">
        <ele>401</ele>
        <time>2018-06-03T07:44:41.000Z</time>
      </trkpt>
      <trkpt lat="44.55558" lon="4.24292">
        <ele>401</ele>
        <time>2018-06-03T07:44:42.000Z</time>
      </trkpt>
      <trkpt lat="44.55559" lon="4.24292">
        <ele>401</ele>
        <time>2018-06-03T07:44:43.000Z</time>
      </trkpt>
      <trkpt lat="44.5556" lon="4.24293">
        <ele>401</ele>
        <time>2018-06-03T07:44:44.000Z</time>
      </trkpt>
      <trkpt lat="44.55562" lon="4.24295">
        <ele>401</ele>
        <time>2018-06-03T07:44:45.000Z</time>
      </trkpt>
      <trkpt lat="44.55563" lon="4.24296">
        <ele>401</ele>
        <time>2018-06-03T07:44:46.000Z</time>
      </trkpt>
      <trkpt lat="44.55565" lon="4.24298">
        <ele>402</ele>
        <time>2018-06-03T07:44:47.000Z</time>
      </trkpt>
      <trkpt lat="44.55566" lon="4.243">
        <ele>402</ele>
        <time>2018-06-03T07:44:48.000Z</time>
      </trkpt>
      <trkpt lat="44.55568" lon="4.24302">
        <ele>402</ele>
        <time>2018-06-03T07:44:49.000Z</time>
      </trkpt>
      <trkpt lat="44.55569" lon="4.24304">
        <ele>402</ele>
        <time>2018-06-03T07:44:50.000Z</time>
      </trkpt>
      <trkpt lat="44.5557" lon="4.24306">
        <ele>403</ele>
        <time>2018-06-03T07:44:51.000Z</time>
      </trkpt>
      <trkpt lat="44.55571" lon="4.24307">
        <ele>403</ele>
        <time>2018-06-03T07:44:52.000Z</time>
      </trkpt>
      <trkpt lat="44.55572" lon="4.24309">
        <ele>403</ele>
        <time>2018-06-03T07:44:53.000Z</time>
      </trkpt>
      <trkpt lat="44.55573" lon="4.24311">
        <ele>403</ele>
        <time>2018-06-03T07:44:54.000Z</time>
      </trkpt>
      <trkpt lat="44.55574" lon="4.24312">
        <ele>404</ele>
        <time>2018-06-03T07:44:55.000Z</time>
      </trkpt>
      <trkpt lat="44.55575" lon="4.24314">
        <ele>404</ele>
        <time>2018-06-03T07:44:56.000Z</time>
      </trkpt>
      <trkpt lat="44.55576" lon="4.24317">
        <ele>404</ele>
        <time>2018-06-03T07:44:57.000Z</time>
      </trkpt>
      <trkpt lat="44.55576" lon="4.2432">
        <ele>405</ele>
        <time>2018-06-03T07:44:58.000Z</time>
      </trkpt>
      <trkpt lat="44.55577" lon="4.24322">
        <ele>405</ele>
        <time>2018-06-03T07:44:59.000Z</time>
      </trkpt>
      <trkpt lat="44.55578" lon="4.24325">
        <ele>406</ele>
        <time>2018-06-03T07:45:00.000Z</time>
      </trkpt>
      <trkpt lat="44.55579" lon="4.24327">
        <ele>406</ele>
        <time>2018-06-03T07:45:01.000Z</time>
      </trkpt>
      <trkpt lat="44.55579" lon="4.24329">
        <ele>406</ele>
        <time>2018-06-03T07:45:02.000Z</time>
      </trkpt>
      <trkpt lat="44.5558" lon="4.24332">
        <ele>407</ele>
        <time>2018-06-03T07:45:03.000Z</time>
      </trkpt>
      <trkpt lat="44.55581" lon="4.24334">
        <ele>409</ele>
        <time>2018-06-03T07:45:04.000Z</time>
      </trkpt>
      <trkpt lat="44.55583" lon="4.24336">
        <ele>409</ele>
        <time>2018-06-03T07:45:05.000Z</time>
      </trkpt>
      <trkpt lat="44.55584" lon="4.24337">
        <ele>410</ele>
        <time>2018-06-03T07:45:06.000Z</time>
      </trkpt>
      <trkpt lat="44.55585" lon="4.24338">
        <ele>411</ele>
        <time>2018-06-03T07:45:07.000Z</time>
      </trkpt>
      <trkpt lat="44.55587" lon="4.24338">
        <ele>412</ele>
        <time>2018-06-03T07:45:08.000Z</time>
      </trkpt>
      <trkpt lat="44.55589" lon="4.24339">
        <ele>413</ele>
        <time>2018-06-03T07:45:09.000Z</time>
      </trkpt>
      <trkpt lat="44.5559" lon="4.2434">
        <ele>414</ele>
        <time>2018-06-03T07:45:10.000Z</time>
      </trkpt>
      <trkpt lat="44.55592" lon="4.2434">
        <ele>415</ele>
        <time>2018-06-03T07:45:11.000Z</time>
      </trkpt>
      <trkpt lat="44.55595" lon="4.24341">
        <ele>416</ele>
        <time>2018-06-03T07:45:12.000Z</time>
      </trkpt>
      <trkpt lat="44.55597" lon="4.24341">
        <ele>417</ele>
        <time>2018-06-03T07:45:13.000Z</time>
      </trkpt>
      <trkpt lat="44.55599" lon="4.24342">
        <ele>417</ele>
        <time>2018-06-03T07:45:14.000Z</time>
      </trkpt>
      <trkpt lat="44.55601" lon="4.24343">
        <ele>418</ele>
        <time>2018-06-03T07:45:15.000Z</time>
      </trkpt>
      <trkpt lat="44.55603" lon="4.24344">
        <ele>419</ele>
        <time>2018-06-03T07:45:16.000Z</time>
      </trkpt>
      <trkpt lat="44.55604" lon="4.24345">
        <ele>419</ele>
        <time>2018-06-03T07:45:17.000Z</time>
      </trkpt>
      <trkpt lat="44.55606" lon="4.24347">
        <ele>420</ele>
        <time>2018-06-03T07:45:18.000Z</time>
      </trkpt>
      <trkpt lat="44.55607" lon="4.24349">
        <ele>421</ele>
        <time>2018-06-03T07:45:19.000Z</time>
      </trkpt>
      <trkpt lat="44.55609" lon="4.24351">
        <ele>421</ele>
        <time>2018-06-03T07:45:20.000Z</time>
      </trkpt>
      <trkpt lat="44.5561" lon="4.24353">
        <ele>422</ele>
        <time>2018-06-03T07:45:21.000Z</time>
      </trkpt>
      <trkpt lat="44.55611" lon="4.24356">
        <ele>423</ele>
        <time>2018-06-03T07:45:22.000Z</time>
      </trkpt>
      <trkpt lat="44.55612" lon="4.24358">
        <ele>423</ele>
        <time>2018-06-03T07:45:23.000Z</time>
      </trkpt>
      <trkpt lat="44.55613" lon="4.24361">
        <ele>424</ele>
        <time>2018-06-03T07:45:24.000Z</time>
      </trkpt>
      <trkpt lat="44.55614" lon="4.24363">
        <ele>424</ele>
        <time>2018-06-03T07:45:25.000Z</time>
      </trkpt>
      <trkpt lat="44.55615" lon="4.24365">
        <ele>424</ele>
        <time>2018-06-03T07:45:26.000Z</time>
      </trkpt>
      <trkpt lat="44.55617" lon="4.24366">
        <ele>425</ele>
        <time>2018-06-03T07:45:27.000Z</time>
      </trkpt>
      <trkpt lat="44.55619" lon="4.24367">
        <ele>425</ele>
        <time>2018-06-03T07:45:28.000Z</time>
      </trkpt>
      <trkpt lat="44.5562" lon="4.24367">
        <ele>425</ele>
        <time>2018-06-03T07:45:29.000Z</time>
      </trkpt>
      <trkpt lat="44.55622" lon="4.24367">
        <ele>425</ele>
        <time>2018-06-03T07:45:30.000Z</time>
      </trkpt>
      <trkpt lat="44.55623" lon="4.24366">
        <ele>425</ele>
        <time>2018-06-03T07:45:31.000Z</time>
      </trkpt>
      <trkpt lat="44.55625" lon="4.24364">
        <ele>425</ele>
        <time>2018-06-03T07:45:32.000Z</time>
      </trkpt>
      <trkpt lat="44.55626" lon="4.24363">
        <ele>425</ele>
        <time>2018-06-03T07:45:33.000Z</time>
      </trkpt>
      <trkpt lat="44.55627" lon="4.24361">
        <ele>425</ele>
        <time>2018-06-03T07:45:34.000Z</time>
      </trkpt>
      <trkpt lat="44.55629" lon="4.2436">
        <ele>425</ele>
        <time>2018-06-03T07:45:35.000Z</time>
      </trkpt>
      <trkpt lat="44.5563" lon="4.24359">
        <ele>425</ele>
        <time>2018-06-03T07:45:36.000Z</time>
      </trkpt>
      <trkpt lat="44.55631" lon="4.24357">
        <ele>425</ele>
        <time>2018-06-03T07:45:37.000Z</time>
      </trkpt>
      <trkpt lat="44.55632" lon="4.24356">
        <ele>425</ele>
        <time>2018-06-03T07:45:38.000Z</time>
      </trkpt>
      <trkpt lat="44.55633" lon="4.24354">
        <ele>424</ele>
        <time>2018-06-03T07:45:39.000Z</time>
      </trkpt>
      <trkpt lat="44.55635" lon="4.24352">
        <ele>424</ele>
        <time>2018-06-03T07:45:40.000Z</time>
      </trkpt>
      <trkpt lat="44.55636" lon="4.24351">
        <ele>424</ele>
        <time>2018-06-03T07:45:41.000Z</time>
      </trkpt>
      <trkpt lat="44.55638" lon="4.24349">
        <ele>424</ele>
        <time>2018-06-03T07:45:42.000Z</time>
      </trkpt>
      <trkpt lat="44.55639" lon="4.24348">
        <ele>424</ele>
        <time>2018-06-03T07:45:43.000Z</time>
      </trkpt>
      <trkpt lat="44.5564" lon="4.24346">
        <ele>424</ele>
        <time>2018-06-03T07:45:44.000Z</time>
      </trkpt>
      <trkpt lat="44.55641" lon="4.24345">
        <ele>424</ele>
        <time>2018-06-03T07:45:45.000Z</time>
      </trkpt>
      <trkpt lat="44.55642" lon="4.24343">
        <ele>424</ele>
        <time>2018-06-03T07:45:46.000Z</time>
      </trkpt>
      <trkpt lat="44.55643" lon="4.24342">
        <ele>424</ele>
        <time>2018-06-03T07:45:47.000Z</time>
      </trkpt>
      <trkpt lat="44.55644" lon="4.2434">
        <ele>424</ele>
        <time>2018-06-03T07:45:48.000Z</time>
      </trkpt>
      <trkpt lat="44.55646" lon="4.24339">
        <ele>423</ele>
        <time>2018-06-03T07:45:49.000Z</time>
      </trkpt>
      <trkpt lat="44.55647" lon="4.24337">
        <ele>423</ele>
        <time>2018-06-03T07:45:50.000Z</time>
      </trkpt>
      <trkpt lat="44.55649" lon="4.24335">
        <ele>423</ele>
        <time>2018-06-03T07:45:51.000Z</time>
      </trkpt>
      <trkpt lat="44.5565" lon="4.24333">
        <ele>415</ele>
        <time>2018-06-03T07:45:52.000Z</time>
      </trkpt>
      <trkpt lat="44.55652" lon="4.24331">
        <ele>416</ele>
        <time>2018-06-03T07:45:53.000Z</time>
      </trkpt>
      <trkpt lat="44.55654" lon="4.24329">
        <ele>416</ele>
        <time>2018-06-03T07:45:54.000Z</time>
      </trkpt>
      <trkpt lat="44.55655" lon="4.24329">
        <ele>416</ele>
        <time>2018-06-03T07:45:55.000Z</time>
      </trkpt>
      <trkpt lat="44.55657" lon="4.24328">
        <ele>417</ele>
        <time>2018-06-03T07:45:56.000Z</time>
      </trkpt>
      <trkpt lat="44.55658" lon="4.24327">
        <ele>417</ele>
        <time>2018-06-03T07:45:57.000Z</time>
      </trkpt>
      <trkpt lat="44.5566" lon="4.24325">
        <ele>417</ele>
        <time>2018-06-03T07:45:58.000Z</time>
      </trkpt>
      <trkpt lat="44.55661" lon="4.24324">
        <ele>417</ele>
        <time>2018-06-03T07:45:59.000Z</time>
      </trkpt>
      <trkpt lat="44.55663" lon="4.24323">
        <ele>417</ele>
        <time>2018-06-03T07:46:00.000Z</time>
      </trkpt>
      <trkpt lat="44.55664" lon="4.24322">
        <ele>417</ele>
        <time>2018-06-03T07:46:01.000Z</time>
      </trkpt>
      <trkpt lat="44.55666" lon="4.24321">
        <ele>416</ele>
        <time>2018-06-03T07:46:02.000Z</time>
      </trkpt>
      <trkpt lat="44.55667" lon="4.2432">
        <ele>421</ele>
        <time>2018-06-03T07:46:03.000Z</time>
      </trkpt>
      <trkpt lat="44.55669" lon="4.24319">
        <ele>421</ele>
        <time>2018-06-03T07:46:04.000Z</time>
      </trkpt>
      <trkpt lat="44.5567" lon="4.24317">
        <ele>421</ele>
        <time>2018-06-03T07:46:05.000Z</time>
      </trkpt>
      <trkpt lat="44.55671" lon="4.24316">
        <ele>421</ele>
        <time>2018-06-03T07:46:06.000Z</time>
      </trkpt>
      <trkpt lat="44.55673" lon="4.24315">
        <ele>421</ele>
        <time>2018-06-03T07:46:07.000Z</time>
      </trkpt>
      <trkpt lat="44.55674" lon="4.24313">
        <ele>421</ele>
        <time>2018-06-03T07:46:08.000Z</time>
      </trkpt>
      <trkpt lat="44.55676" lon="4.24311">
        <ele>421</ele>
        <time>2018-06-03T07:46:09.000Z</time>
      </trkpt>
      <trkpt lat="44.55677" lon="4.24309">
        <ele>421</ele>
        <time>2018-06-03T07:46:10.000Z</time>
      </trkpt>
      <trkpt lat="44.55679" lon="4.24307">
        <ele>421</ele>
        <time>2018-06-03T07:46:11.000Z</time>
      </trkpt>
      <trkpt lat="44.5568" lon="4.24305">
        <ele>420</ele>
        <time>2018-06-03T07:46:12.000Z</time>
      </trkpt>
      <trkpt lat="44.55681" lon="4.24303">
        <ele>420</ele>
        <time>2018-06-03T07:46:13.000Z</time>
      </trkpt>
      <trkpt lat="44.55682" lon="4.24301">
        <ele>420</ele>
        <time>2018-06-03T07:46:14.000Z</time>
      </trkpt>
      <trkpt lat="44.55684" lon="4.24299">
        <ele>420</ele>
        <time>2018-06-03T07:46:15.000Z</time>
      </trkpt>
      <trkpt lat="44.55685" lon="4.24297">
        <ele>420</ele>
        <time>2018-06-03T07:46:16.000Z</time>
      </trkpt>
      <trkpt lat="44.55686" lon="4.24297">
        <ele>420</ele>
        <time>2018-06-03T07:46:17.000Z</time>
      </trkpt>
      <trkpt lat="44.55687" lon="4.24296">
        <ele>420</ele>
        <time>2018-06-03T07:46:18.000Z</time>
      </trkpt>
      <trkpt lat="44.55689" lon="4.24294">
        <ele>420</ele>
        <time>2018-06-03T07:46:19.000Z</time>
      </trkpt>
      <trkpt lat="44.55691" lon="4.24294">
        <ele>420</ele>
        <time>2018-06-03T07:46:20.000Z</time>
      </trkpt>
      <trkpt lat="44.55692" lon="4.24293">
        <ele>420</ele>
        <time>2018-06-03T07:46:21.000Z</time>
      </trkpt>
      <trkpt lat="44.55694" lon="4.24293">
        <ele>420</ele>
        <time>2018-06-03T07:46:22.000Z</time>
      </trkpt>
      <trkpt lat="44.55696" lon="4.24292">
        <ele>420</ele>
        <time>2018-06-03T07:46:23.000Z</time>
      </trkpt>
      <trkpt lat="44.55698" lon="4.24291">
        <ele>420</ele>
        <time>2018-06-03T07:46:24.000Z</time>
      </trkpt>
      <trkpt lat="44.557" lon="4.2429">
        <ele>421</ele>
        <time>2018-06-03T07:46:25.000Z</time>
      </trkpt>
      <trkpt lat="44.55702" lon="4.2429">
        <ele>421</ele>
        <time>2018-06-03T07:46:26.000Z</time>
      </trkpt>
      <trkpt lat="44.55704" lon="4.2429">
        <ele>421</ele>
        <time>2018-06-03T07:46:27.000Z</time>
      </trkpt>
      <trkpt lat="44.55706" lon="4.2429">
        <ele>421</ele>
        <time>2018-06-03T07:46:28.000Z</time>
      </trkpt>
      <trkpt lat="44.55709" lon="4.2429">
        <ele>421</ele>
        <time>2018-06-03T07:46:29.000Z</time>
      </trkpt>
      <trkpt lat="44.55711" lon="4.24291">
        <ele>421</ele>
        <time>2018-06-03T07:46:30.000Z</time>
      </trkpt>
      <trkpt lat="44.55712" lon="4.24291">
        <ele>421</ele>
        <time>2018-06-03T07:46:31.000Z</time>
      </trkpt>
      <trkpt lat="44.55714" lon="4.24291">
        <ele>422</ele>
        <time>2018-06-03T07:46:32.000Z</time>
      </trkpt>
      <trkpt lat="44.55716" lon="4.24292">
        <ele>422</ele>
        <time>2018-06-03T07:46:33.000Z</time>
      </trkpt>
      <trkpt lat="44.55718" lon="4.24291">
        <ele>422</ele>
        <time>2018-06-03T07:46:34.000Z</time>
      </trkpt>
      <trkpt lat="44.5572" lon="4.24292">
        <ele>422</ele>
        <time>2018-06-03T07:46:35.000Z</time>
      </trkpt>
      <trkpt lat="44.55722" lon="4.24291">
        <ele>422</ele>
        <time>2018-06-03T07:46:36.000Z</time>
      </trkpt>
      <trkpt lat="44.55724" lon="4.24291">
        <ele>422</ele>
        <time>2018-06-03T07:46:37.000Z</time>
      </trkpt>
      <trkpt lat="44.55726" lon="4.24291">
        <ele>422</ele>
        <time>2018-06-03T07:46:38.000Z</time>
      </trkpt>
      <trkpt lat="44.55728" lon="4.2429">
        <ele>422</ele>
        <time>2018-06-03T07:46:39.000Z</time>
      </trkpt>
      <trkpt lat="44.5573" lon="4.2429">
        <ele>423</ele>
        <time>2018-06-03T07:46:40.000Z</time>
      </trkpt>
      <trkpt lat="44.55732" lon="4.2429">
        <ele>423</ele>
        <time>2018-06-03T07:46:41.000Z</time>
      </trkpt>
      <trkpt lat="44.55734" lon="4.2429">
        <ele>423</ele>
        <time>2018-06-03T07:46:42.000Z</time>
      </trkpt>
      <trkpt lat="44.55736" lon="4.2429">
        <ele>423</ele>
        <time>2018-06-03T07:46:43.000Z</time>
      </trkpt>
      <trkpt lat="44.55738" lon="4.2429">
        <ele>423</ele>
        <time>2018-06-03T07:46:44.000Z</time>
      </trkpt>
      <trkpt lat="44.5574" lon="4.2429">
        <ele>423</ele>
        <time>2018-06-03T07:46:45.000Z</time>
      </trkpt>
      <trkpt lat="44.55742" lon="4.2429">
        <ele>423</ele>
        <time>2018-06-03T07:46:46.000Z</time>
      </trkpt>
      <trkpt lat="44.55744" lon="4.2429">
        <ele>423</ele>
        <time>2018-06-03T07:46:47.000Z</time>
      </trkpt>
      <trkpt lat="44.55745" lon="4.24289">
        <ele>423</ele>
        <time>2018-06-03T07:46:48.000Z</time>
      </trkpt>
      <trkpt lat="44.55748" lon="4.2429">
        <ele>423</ele>
        <time>2018-06-03T07:46:49.000Z</time>
      </trkpt>
      <trkpt lat="44.5575" lon="4.2429">
        <ele>423</ele>
        <time>2018-06-03T07:46:50.000Z</time>
      </trkpt>
      <trkpt lat="44.55752" lon="4.2429">
        <ele>426</ele>
        <time>2018-06-03T07:46:51.000Z</time>
      </trkpt>
      <trkpt lat="44.55754" lon="4.2429">
        <ele>426</ele>
        <time>2018-06-03T07:46:52.000Z</time>
      </trkpt>
      <trkpt lat="44.55756" lon="4.24291">
        <ele>426</ele>
        <time>2018-06-03T07:46:53.000Z</time>
      </trkpt>
      <trkpt lat="44.55758" lon="4.24292">
        <ele>426</ele>
        <time>2018-06-03T07:46:54.000Z</time>
      </trkpt>
      <trkpt lat="44.5576" lon="4.24294">
        <ele>426</ele>
        <time>2018-06-03T07:46:55.000Z</time>
      </trkpt>
      <trkpt lat="44.55762" lon="4.24295">
        <ele>426</ele>
        <time>2018-06-03T07:46:56.000Z</time>
      </trkpt>
      <trkpt lat="44.55764" lon="4.24296">
        <ele>426</ele>
        <time>2018-06-03T07:46:57.000Z</time>
      </trkpt>
      <trkpt lat="44.55766" lon="4.24297">
        <ele>426</ele>
        <time>2018-06-03T07:46:58.000Z</time>
      </trkpt>
      <trkpt lat="44.55768" lon="4.24297">
        <ele>426</ele>
        <time>2018-06-03T07:46:59.000Z</time>
      </trkpt>
      <trkpt lat="44.5577" lon="4.24298">
        <ele>426</ele>
        <time>2018-06-03T07:47:00.000Z</time>
      </trkpt>
      <trkpt lat="44.55772" lon="4.24298">
        <ele>426</ele>
        <time>2018-06-03T07:47:01.000Z</time>
      </trkpt>
      <trkpt lat="44.55774" lon="4.243">
        <ele>426</ele>
        <time>2018-06-03T07:47:02.000Z</time>
      </trkpt>
      <trkpt lat="44.55776" lon="4.24302">
        <ele>426</ele>
        <time>2018-06-03T07:47:03.000Z</time>
      </trkpt>
      <trkpt lat="44.55777" lon="4.24304">
        <ele>427</ele>
        <time>2018-06-03T07:47:04.000Z</time>
      </trkpt>
      <trkpt lat="44.55779" lon="4.24306">
        <ele>427</ele>
        <time>2018-06-03T07:47:05.000Z</time>
      </trkpt>
      <trkpt lat="44.55781" lon="4.24309">
        <ele>427</ele>
        <time>2018-06-03T07:47:06.000Z</time>
      </trkpt>
      <trkpt lat="44.55782" lon="4.24311">
        <ele>427</ele>
        <time>2018-06-03T07:47:07.000Z</time>
      </trkpt>
      <trkpt lat="44.55784" lon="4.24313">
        <ele>427</ele>
        <time>2018-06-03T07:47:08.000Z</time>
      </trkpt>
      <trkpt lat="44.55786" lon="4.24315">
        <ele>427</ele>
        <time>2018-06-03T07:47:09.000Z</time>
      </trkpt>
      <trkpt lat="44.55787" lon="4.24318">
        <ele>427</ele>
        <time>2018-06-03T07:47:10.000Z</time>
      </trkpt>
      <trkpt lat="44.55788" lon="4.2432">
        <ele>427</ele>
        <time>2018-06-03T07:47:11.000Z</time>
      </trkpt>
      <trkpt lat="44.5579" lon="4.24323">
        <ele>427</ele>
        <time>2018-06-03T07:47:12.000Z</time>
      </trkpt>
      <trkpt lat="44.55791" lon="4.24326">
        <ele>427</ele>
        <time>2018-06-03T07:47:13.000Z</time>
      </trkpt>
      <trkpt lat="44.55792" lon="4.24328">
        <ele>427</ele>
        <time>2018-06-03T07:47:14.000Z</time>
      </trkpt>
      <trkpt lat="44.55794" lon="4.24331">
        <ele>427</ele>
        <time>2018-06-03T07:47:15.000Z</time>
      </trkpt>
      <trkpt lat="44.55795" lon="4.24333">
        <ele>427</ele>
        <time>2018-06-03T07:47:16.000Z</time>
      </trkpt>
      <trkpt lat="44.55796" lon="4.24336">
        <ele>437</ele>
        <time>2018-06-03T07:47:17.000Z</time>
      </trkpt>
      <trkpt lat="44.55796" lon="4.24337">
        <ele>437</ele>
        <time>2018-06-03T07:47:18.000Z</time>
      </trkpt>
      <trkpt lat="44.55797" lon="4.24339">
        <ele>437</ele>
        <time>2018-06-03T07:47:19.000Z</time>
      </trkpt>
      <trkpt lat="44.55798" lon="4.2434">
        <ele>437</ele>
        <time>2018-06-03T07:47:20.000Z</time>
      </trkpt>
      <trkpt lat="44.55798" lon="4.24343">
        <ele>437</ele>
        <time>2018-06-03T07:47:21.000Z</time>
      </trkpt>
      <trkpt lat="44.55799" lon="4.24345">
        <ele>437</ele>
        <time>2018-06-03T07:47:22.000Z</time>
      </trkpt>
      <trkpt lat="44.558" lon="4.24347">
        <ele>437</ele>
        <time>2018-06-03T07:47:23.000Z</time>
      </trkpt>
      <trkpt lat="44.55801" lon="4.24348">
        <ele>437</ele>
        <time>2018-06-03T07:47:24.000Z</time>
      </trkpt>
      <trkpt lat="44.55802" lon="4.24351">
        <ele>437</ele>
        <time>2018-06-03T07:47:25.000Z</time>
      </trkpt>
      <trkpt lat="44.55804" lon="4.24352">
        <ele>437</ele>
        <time>2018-06-03T07:47:26.000Z</time>
      </trkpt>
      <trkpt lat="44.55806" lon="4.24354">
        <ele>437</ele>
        <time>2018-06-03T07:47:27.000Z</time>
      </trkpt>
      <trkpt lat="44.55807" lon="4.24356">
        <ele>437</ele>
        <time>2018-06-03T07:47:28.000Z</time>
      </trkpt>
      <trkpt lat="44.55808" lon="4.24358">
        <ele>437</ele>
        <time>2018-06-03T07:47:29.000Z</time>
      </trkpt>
      <trkpt lat="44.5581" lon="4.24359">
        <ele>438</ele>
        <time>2018-06-03T07:47:30.000Z</time>
      </trkpt>
      <trkpt lat="44.55811" lon="4.24361">
        <ele>438</ele>
        <time>2018-06-03T07:47:31.000Z</time>
      </trkpt>
      <trkpt lat="44.55812" lon="4.24362">
        <ele>438</ele>
        <time>2018-06-03T07:47:32.000Z</time>
      </trkpt>
      <trkpt lat="44.55813" lon="4.24364">
        <ele>438</ele>
        <time>2018-06-03T07:47:33.000Z</time>
      </trkpt>
      <trkpt lat="44.55815" lon="4.24366">
        <ele>438</ele>
        <time>2018-06-03T07:47:34.000Z</time>
      </trkpt>
      <trkpt lat="44.55816" lon="4.24368">
        <ele>438</ele>
        <time>2018-06-03T07:47:35.000Z</time>
      </trkpt>
      <trkpt lat="44.55817" lon="4.2437">
        <ele>438</ele>
        <time>2018-06-03T07:47:36.000Z</time>
      </trkpt>
      <trkpt lat="44.55819" lon="4.24371">
        <ele>439</ele>
        <time>2018-06-03T07:47:37.000Z</time>
      </trkpt>
      <trkpt lat="44.5582" lon="4.24373">
        <ele>439</ele>
        <time>2018-06-03T07:47:38.000Z</time>
      </trkpt>
      <trkpt lat="44.55822" lon="4.24375">
        <ele>439</ele>
        <time>2018-06-03T07:47:39.000Z</time>
      </trkpt>
      <trkpt lat="44.55823" lon="4.24376">
        <ele>439</ele>
        <time>2018-06-03T07:47:40.000Z</time>
      </trkpt>
      <trkpt lat="44.55824" lon="4.24376">
        <ele>439</ele>
        <time>2018-06-03T07:47:41.000Z</time>
      </trkpt>
      <trkpt lat="44.55825" lon="4.24377">
        <ele>439</ele>
        <time>2018-06-03T07:47:42.000Z</time>
      </trkpt>
      <trkpt lat="44.55827" lon="4.24378">
        <ele>439</ele>
        <time>2018-06-03T07:47:43.000Z</time>
      </trkpt>
      <trkpt lat="44.55828" lon="4.24378">
        <ele>439</ele>
        <time>2018-06-03T07:47:44.000Z</time>
      </trkpt>
      <trkpt lat="44.5583" lon="4.2438">
        <ele>439</ele>
        <time>2018-06-03T07:47:45.000Z</time>
      </trkpt>
      <trkpt lat="44.55831" lon="4.24382">
        <ele>440</ele>
        <time>2018-06-03T07:47:46.000Z</time>
      </trkpt>
      <trkpt lat="44.55833" lon="4.24384">
        <ele>440</ele>
        <time>2018-06-03T07:47:47.000Z</time>
      </trkpt>
      <trkpt lat="44.55835" lon="4.24386">
        <ele>431</ele>
        <time>2018-06-03T07:47:48.000Z</time>
      </trkpt>
      <trkpt lat="44.55836" lon="4.24388">
        <ele>432</ele>
        <time>2018-06-03T07:47:49.000Z</time>
      </trkpt>
      <trkpt lat="44.55838" lon="4.2439">
        <ele>432</ele>
        <time>2018-06-03T07:47:50.000Z</time>
      </trkpt>
      <trkpt lat="44.55839" lon="4.24392">
        <ele>432</ele>
        <time>2018-06-03T07:47:51.000Z</time>
      </trkpt>
      <trkpt lat="44.55841" lon="4.24394">
        <ele>433</ele>
        <time>2018-06-03T07:47:52.000Z</time>
      </trkpt>
      <trkpt lat="44.55842" lon="4.24397">
        <ele>433</ele>
        <time>2018-06-03T07:47:53.000Z</time>
      </trkpt>
      <trkpt lat="44.55843" lon="4.24399">
        <ele>433</ele>
        <time>2018-06-03T07:47:54.000Z</time>
      </trkpt>
      <trkpt lat="44.55844" lon="4.24401">
        <ele>434</ele>
        <time>2018-06-03T07:47:55.000Z</time>
      </trkpt>
      <trkpt lat="44.55845" lon="4.24402">
        <ele>434</ele>
        <time>2018-06-03T07:47:56.000Z</time>
      </trkpt>
      <trkpt lat="44.55845" lon="4.24402">
        <ele>434</ele>
        <time>2018-06-03T07:47:57.000Z</time>
      </trkpt>
      <trkpt lat="44.55846" lon="4.24403">
        <ele>434</ele>
        <time>2018-06-03T07:47:58.000Z</time>
      </trkpt>
      <trkpt lat="44.55846" lon="4.24404">
        <ele>434</ele>
        <time>2018-06-03T07:47:59.000Z</time>
      </trkpt>
      <trkpt lat="44.55846" lon="4.24405">
        <ele>434</ele>
        <time>2018-06-03T07:48:00.000Z</time>
      </trkpt>
      <trkpt lat="44.55847" lon="4.24405">
        <ele>434</ele>
        <time>2018-06-03T07:48:01.000Z</time>
      </trkpt>
      <trkpt lat="44.55847" lon="4.24406">
        <ele>434</ele>
        <time>2018-06-03T07:48:02.000Z</time>
      </trkpt>
      <trkpt lat="44.55847" lon="4.24406">
        <ele>434</ele>
        <time>2018-06-03T07:48:03.000Z</time>
      </trkpt>
      <trkpt lat="44.55847" lon="4.24407">
        <ele>434</ele>
        <time>2018-06-03T07:48:04.000Z</time>
      </trkpt>
      <trkpt lat="44.55848" lon="4.24408">
        <ele>435</ele>
        <time>2018-06-03T07:48:05.000Z</time>
      </trkpt>
      <trkpt lat="44.55848" lon="4.24408">
        <ele>435</ele>
        <time>2018-06-03T07:48:06.000Z</time>
      </trkpt>
      <trkpt lat="44.55848" lon="4.24409">
        <ele>435</ele>
        <time>2018-06-03T07:48:07.000Z</time>
      </trkpt>
      <trkpt lat="44.55848" lon="4.24409">
        <ele>435</ele>
        <time>2018-06-03T07:48:08.000Z</time>
      </trkpt>
      <trkpt lat="44.55848" lon="4.2441">
        <ele>435</ele>
        <time>2018-06-03T07:48:09.000Z</time>
      </trkpt>
      <trkpt lat="44.55849" lon="4.24411">
        <ele>435</ele>
        <time>2018-06-03T07:48:10.000Z</time>
      </trkpt>
      <trkpt lat="44.55849" lon="4.24411">
        <ele>435</ele>
        <time>2018-06-03T07:48:11.000Z</time>
      </trkpt>
      <trkpt lat="44.55849" lon="4.24412">
        <ele>435</ele>
        <time>2018-06-03T07:48:12.000Z</time>
      </trkpt>
      <trkpt lat="44.55849" lon="4.24412">
        <ele>435</ele>
        <time>2018-06-03T07:48:13.000Z</time>
      </trkpt>
      <trkpt lat="44.55849" lon="4.24413">
        <ele>435</ele>
        <time>2018-06-03T07:48:14.000Z</time>
      </trkpt>
      <trkpt lat="44.55849" lon="4.24413">
        <ele>435</ele>
        <time>2018-06-03T07:48:15.000Z</time>
      </trkpt>
      <trkpt lat="44.5585" lon="4.24414">
        <ele>435</ele>
        <time>2018-06-03T07:48:16.000Z</time>
      </trkpt>
      <trkpt lat="44.5585" lon="4.24414">
        <ele>435</ele>
        <time>2018-06-03T07:48:17.000Z</time>
      </trkpt>
      <trkpt lat="44.5585" lon="4.24415">
        <ele>435</ele>
        <time>2018-06-03T07:48:18.000Z</time>
      </trkpt>
      <trkpt lat="44.5585" lon="4.24415">
        <ele>435</ele>
        <time>2018-06-03T07:48:19.000Z</time>
      </trkpt>
      <trkpt lat="44.5585" lon="4.24416">
        <ele>435</ele>
        <time>2018-06-03T07:48:20.000Z</time>
      </trkpt>
      <trkpt lat="44.5585" lon="4.24416">
        <ele>435</ele>
        <time>2018-06-03T07:48:21.000Z</time>
      </trkpt>
      <trkpt lat="44.5585" lon="4.24417">
        <ele>435</ele>
        <time>2018-06-03T07:48:22.000Z</time>
      </trkpt>
      <trkpt lat="44.5585" lon="4.24417">
        <ele>440</ele>
        <time>2018-06-03T07:48:23.000Z</time>
      </trkpt>
      <trkpt lat="44.55851" lon="4.24417">
        <ele>440</ele>
        <time>2018-06-03T07:48:24.000Z</time>
      </trkpt>
      <trkpt lat="44.55851" lon="4.24418">
        <ele>440</ele>
        <time>2018-06-03T07:48:25.000Z</time>
      </trkpt>
      <trkpt lat="44.5585" lon="4.24418">
        <ele>440</ele>
        <time>2018-06-03T07:48:26.000Z</time>
      </trkpt>
      <trkpt lat="44.5585" lon="4.24419">
        <ele>440</ele>
        <time>2018-06-03T07:48:27.000Z</time>
      </trkpt>
      <trkpt lat="44.55851" lon="4.24419">
        <ele>440</ele>
        <time>2018-06-03T07:48:28.000Z</time>
      </trkpt>
      <trkpt lat="44.55851" lon="4.24419">
        <ele>440</ele>
        <time>2018-06-03T07:48:29.000Z</time>
      </trkpt>
      <trkpt lat="44.55851" lon="4.24419">
        <ele>440</ele>
        <time>2018-06-03T07:48:30.000Z</time>
      </trkpt>
      <trkpt lat="44.55851" lon="4.2442">
        <ele>440</ele>
        <time>2018-06-03T07:48:31.000Z</time>
      </trkpt>
      <trkpt lat="44.55851" lon="4.24421">
        <ele>440</ele>
        <time>2018-06-03T07:48:32.000Z</time>
      </trkpt>
      <trkpt lat="44.55852" lon="4.24422">
        <ele>440</ele>
        <time>2018-06-03T07:48:33.000Z</time>
      </trkpt>
      <trkpt lat="44.55852" lon="4.24424">
        <ele>440</ele>
        <time>2018-06-03T07:48:34.000Z</time>
      </trkpt>
      <trkpt lat="44.55853" lon="4.24426">
        <ele>440</ele>
        <time>2018-06-03T07:48:35.000Z</time>
      </trkpt>
      <trkpt lat="44.55855" lon="4.24429">
        <ele>440</ele>
        <time>2018-06-03T07:48:36.000Z</time>
      </trkpt>
      <trkpt lat="44.55855" lon="4.24432">
        <ele>440</ele>
        <time>2018-06-03T07:48:37.000Z</time>
      </trkpt>
      <trkpt lat="44.55856" lon="4.24434">
        <ele>440</ele>
        <time>2018-06-03T07:48:38.000Z</time>
      </trkpt>
      <trkpt lat="44.55857" lon="4.24437">
        <ele>440</ele>
        <time>2018-06-03T07:48:39.000Z</time>
      </trkpt>
      <trkpt lat="44.55857" lon="4.24441">
        <ele>440</ele>
        <time>2018-06-03T07:48:40.000Z</time>
      </trkpt>
      <trkpt lat="44.55856" lon="4.24445">
        <ele>440</ele>
        <time>2018-06-03T07:48:41.000Z</time>
      </trkpt>
      <trkpt lat="44.55856" lon="4.2445">
        <ele>440</ele>
        <time>2018-06-03T07:48:42.000Z</time>
      </trkpt>
      <trkpt lat="44.55856" lon="4.24455">
        <ele>441</ele>
        <time>2018-06-03T07:48:43.000Z</time>
      </trkpt>
      <trkpt lat="44.55855" lon="4.2446">
        <ele>441</ele>
        <time>2018-06-03T07:48:44.000Z</time>
      </trkpt>
      <trkpt lat="44.55855" lon="4.24465">
        <ele>442</ele>
        <time>2018-06-03T07:48:45.000Z</time>
      </trkpt>
      <trkpt lat="44.55854" lon="4.2447">
        <ele>443</ele>
        <time>2018-06-03T07:48:46.000Z</time>
      </trkpt>
      <trkpt lat="44.55854" lon="4.24475">
        <ele>444</ele>
        <time>2018-06-03T07:48:47.000Z</time>
      </trkpt>
      <trkpt lat="44.55853" lon="4.2448">
        <ele>444</ele>
        <time>2018-06-03T07:48:48.000Z</time>
      </trkpt>
      <trkpt lat="44.55853" lon="4.24485">
        <ele>445</ele>
        <time>2018-06-03T07:48:49.000Z</time>
      </trkpt>
      <trkpt lat="44.55852" lon="4.2449">
        <ele>446</ele>
        <time>2018-06-03T07:48:50.000Z</time>
      </trkpt>
      <trkpt lat="44.55852" lon="4.24495">
        <ele>447</ele>
        <time>2018-06-03T07:48:51.000Z</time>
      </trkpt>
      <trkpt lat="44.55851" lon="4.24499">
        <ele>448</ele>
        <time>2018-06-03T07:48:52.000Z</time>
      </trkpt>
      <trkpt lat="44.5585" lon="4.24504">
        <ele>454</ele>
        <time>2018-06-03T07:48:53.000Z</time>
      </trkpt>
      <trkpt lat="44.5585" lon="4.24508">
        <ele>454</ele>
        <time>2018-06-03T07:48:54.000Z</time>
      </trkpt>
      <trkpt lat="44.5585" lon="4.24513">
        <ele>454</ele>
        <time>2018-06-03T07:48:55.000Z</time>
      </trkpt>
      <trkpt lat="44.5585" lon="4.24519">
        <ele>454</ele>
        <time>2018-06-03T07:48:56.000Z</time>
      </trkpt>
      <trkpt lat="44.55851" lon="4.24524">
        <ele>454</ele>
        <time>2018-06-03T07:48:57.000Z</time>
      </trkpt>
      <trkpt lat="44.55852" lon="4.24528">
        <ele>454</ele>
        <time>2018-06-03T07:48:58.000Z</time>
      </trkpt>
      <trkpt lat="44.55854" lon="4.24531">
        <ele>454</ele>
        <time>2018-06-03T07:48:59.000Z</time>
      </trkpt>
      <trkpt lat="44.55857" lon="4.24534">
        <ele>454</ele>
        <time>2018-06-03T07:49:00.000Z</time>
      </trkpt>
      <trkpt lat="44.55859" lon="4.24536">
        <ele>454</ele>
        <time>2018-06-03T07:49:01.000Z</time>
      </trkpt>
      <trkpt lat="44.55861" lon="4.24538">
        <ele>454</ele>
        <time>2018-06-03T07:49:02.000Z</time>
      </trkpt>
      <trkpt lat="44.55864" lon="4.2454">
        <ele>453</ele>
        <time>2018-06-03T07:49:03.000Z</time>
      </trkpt>
      <trkpt lat="44.55866" lon="4.24541">
        <ele>453</ele>
        <time>2018-06-03T07:49:04.000Z</time>
      </trkpt>
      <trkpt lat="44.55868" lon="4.24543">
        <ele>453</ele>
        <time>2018-06-03T07:49:05.000Z</time>
      </trkpt>
      <trkpt lat="44.5587" lon="4.24545">
        <ele>453</ele>
        <time>2018-06-03T07:49:06.000Z</time>
      </trkpt>
      <trkpt lat="44.55872" lon="4.24546">
        <ele>453</ele>
        <time>2018-06-03T07:49:07.000Z</time>
      </trkpt>
      <trkpt lat="44.55874" lon="4.24547">
        <ele>453</ele>
        <time>2018-06-03T07:49:08.000Z</time>
      </trkpt>
      <trkpt lat="44.55876" lon="4.24548">
        <ele>452</ele>
        <time>2018-06-03T07:49:09.000Z</time>
      </trkpt>
      <trkpt lat="44.55878" lon="4.24548">
        <ele>452</ele>
        <time>2018-06-03T07:49:10.000Z</time>
      </trkpt>
      <trkpt lat="44.5588" lon="4.24549">
        <ele>452</ele>
        <time>2018-06-03T07:49:11.000Z</time>
      </trkpt>
      <trkpt lat="44.55882" lon="4.2455">
        <ele>452</ele>
        <time>2018-06-03T07:49:12.000Z</time>
      </trkpt>
      <trkpt lat="44.55884" lon="4.24551">
        <ele>452</ele>
        <time>2018-06-03T07:49:13.000Z</time>
      </trkpt>
      <trkpt lat="44.55886" lon="4.24551">
        <ele>451</ele>
        <time>2018-06-03T07:49:14.000Z</time>
      </trkpt>
      <trkpt lat="44.55887" lon="4.24552">
        <ele>451</ele>
        <time>2018-06-03T07:49:15.000Z</time>
      </trkpt>
      <trkpt lat="44.55889" lon="4.24554">
        <ele>451</ele>
        <time>2018-06-03T07:49:16.000Z</time>
      </trkpt>
      <trkpt lat="44.55891" lon="4.24555">
        <ele>451</ele>
        <time>2018-06-03T07:49:17.000Z</time>
      </trkpt>
      <trkpt lat="44.55893" lon="4.24556">
        <ele>451</ele>
        <time>2018-06-03T07:49:18.000Z</time>
      </trkpt>
      <trkpt lat="44.55895" lon="4.24557">
        <ele>451</ele>
        <time>2018-06-03T07:49:19.000Z</time>
      </trkpt>
      <trkpt lat="44.55896" lon="4.24558">
        <ele>451</ele>
        <time>2018-06-03T07:49:20.000Z</time>
      </trkpt>
      <trkpt lat="44.55897" lon="4.2456">
        <ele>451</ele>
        <time>2018-06-03T07:49:21.000Z</time>
      </trkpt>
      <trkpt lat="44.55899" lon="4.24561">
        <ele>451</ele>
        <time>2018-06-03T07:49:22.000Z</time>
      </trkpt>
      <trkpt lat="44.559" lon="4.24563">
        <ele>451</ele>
        <time>2018-06-03T07:49:23.000Z</time>
      </trkpt>
      <trkpt lat="44.55902" lon="4.24565">
        <ele>451</ele>
        <time>2018-06-03T07:49:24.000Z</time>
      </trkpt>
      <trkpt lat="44.55904" lon="4.24566">
        <ele>451</ele>
        <time>2018-06-03T07:49:25.000Z</time>
      </trkpt>
      <trkpt lat="44.55905" lon="4.24568">
        <ele>451</ele>
        <time>2018-06-03T07:49:26.000Z</time>
      </trkpt>
      <trkpt lat="44.55907" lon="4.24571">
        <ele>451</ele>
        <time>2018-06-03T07:49:27.000Z</time>
      </trkpt>
      <trkpt lat="44.55909" lon="4.24573">
        <ele>451</ele>
        <time>2018-06-03T07:49:28.000Z</time>
      </trkpt>
      <trkpt lat="44.5591" lon="4.24576">
        <ele>451</ele>
        <time>2018-06-03T07:49:29.000Z</time>
      </trkpt>
      <trkpt lat="44.55912" lon="4.24579">
        <ele>450</ele>
        <time>2018-06-03T07:49:30.000Z</time>
      </trkpt>
      <trkpt lat="44.55913" lon="4.24582">
        <ele>450</ele>
        <time>2018-06-03T07:49:31.000Z</time>
      </trkpt>
      <trkpt lat="44.55914" lon="4.24585">
        <ele>452</ele>
        <time>2018-06-03T07:49:32.000Z</time>
      </trkpt>
      <trkpt lat="44.55915" lon="4.24587">
        <ele>453</ele>
        <time>2018-06-03T07:49:33.000Z</time>
      </trkpt>
      <trkpt lat="44.55917" lon="4.2459">
        <ele>449</ele>
        <time>2018-06-03T07:49:34.000Z</time>
      </trkpt>
      <trkpt lat="44.55917" lon="4.24593">
        <ele>448</ele>
        <time>2018-06-03T07:49:35.000Z</time>
      </trkpt>
      <trkpt lat="44.55918" lon="4.24595">
        <ele>448</ele>
        <time>2018-06-03T07:49:36.000Z</time>
      </trkpt>
      <trkpt lat="44.55919" lon="4.24598">
        <ele>448</ele>
        <time>2018-06-03T07:49:37.000Z</time>
      </trkpt>
      <trkpt lat="44.5592" lon="4.24601">
        <ele>447</ele>
        <time>2018-06-03T07:49:38.000Z</time>
      </trkpt>
      <trkpt lat="44.55921" lon="4.24603">
        <ele>447</ele>
        <time>2018-06-03T07:49:39.000Z</time>
      </trkpt>
      <trkpt lat="44.55923" lon="4.24606">
        <ele>447</ele>
        <time>2018-06-03T07:49:40.000Z</time>
      </trkpt>
      <trkpt lat="44.55925" lon="4.2461">
        <ele>447</ele>
        <time>2018-06-03T07:49:41.000Z</time>
      </trkpt>
      <trkpt lat="44.55926" lon="4.24613">
        <ele>447</ele>
        <time>2018-06-03T07:49:42.000Z</time>
      </trkpt>
      <trkpt lat="44.55927" lon="4.24615">
        <ele>447</ele>
        <time>2018-06-03T07:49:43.000Z</time>
      </trkpt>
      <trkpt lat="44.55929" lon="4.24618">
        <ele>447</ele>
        <time>2018-06-03T07:49:44.000Z</time>
      </trkpt>
      <trkpt lat="44.5593" lon="4.24621">
        <ele>447</ele>
        <time>2018-06-03T07:49:45.000Z</time>
      </trkpt>
      <trkpt lat="44.55931" lon="4.24624">
        <ele>447</ele>
        <time>2018-06-03T07:49:46.000Z</time>
      </trkpt>
      <trkpt lat="44.55932" lon="4.24628">
        <ele>447</ele>
        <time>2018-06-03T07:49:47.000Z</time>
      </trkpt>
      <trkpt lat="44.55933" lon="4.24632">
        <ele>447</ele>
        <time>2018-06-03T07:49:48.000Z</time>
      </trkpt>
      <trkpt lat="44.55934" lon="4.24635">
        <ele>448</ele>
        <time>2018-06-03T07:49:49.000Z</time>
      </trkpt>
      <trkpt lat="44.55934" lon="4.24639">
        <ele>448</ele>
        <time>2018-06-03T07:49:50.000Z</time>
      </trkpt>
      <trkpt lat="44.55935" lon="4.24642">
        <ele>449</ele>
        <time>2018-06-03T07:49:51.000Z</time>
      </trkpt>
      <trkpt lat="44.55935" lon="4.24646">
        <ele>449</ele>
        <time>2018-06-03T07:49:52.000Z</time>
      </trkpt>
      <trkpt lat="44.55936" lon="4.2465">
        <ele>450</ele>
        <time>2018-06-03T07:49:53.000Z</time>
      </trkpt>
      <trkpt lat="44.55937" lon="4.24655">
        <ele>450</ele>
        <time>2018-06-03T07:49:54.000Z</time>
      </trkpt>
      <trkpt lat="44.55938" lon="4.2466">
        <ele>450</ele>
        <time>2018-06-03T07:49:55.000Z</time>
      </trkpt>
      <trkpt lat="44.55939" lon="4.24665">
        <ele>451</ele>
        <time>2018-06-03T07:49:56.000Z</time>
      </trkpt>
      <trkpt lat="44.55939" lon="4.24671">
        <ele>455</ele>
        <time>2018-06-03T07:49:57.000Z</time>
      </trkpt>
      <trkpt lat="44.55939" lon="4.24677">
        <ele>455</ele>
        <time>2018-06-03T07:49:58.000Z</time>
      </trkpt>
      <trkpt lat="44.55938" lon="4.24684">
        <ele>455</ele>
        <time>2018-06-03T07:49:59.000Z</time>
      </trkpt>
      <trkpt lat="44.55936" lon="4.24691">
        <ele>455</ele>
        <time>2018-06-03T07:50:00.000Z</time>
      </trkpt>
      <trkpt lat="44.55934" lon="4.24697">
        <ele>456</ele>
        <time>2018-06-03T07:50:01.000Z</time>
      </trkpt>
      <trkpt lat="44.55933" lon="4.24704">
        <ele>456</ele>
        <time>2018-06-03T07:50:02.000Z</time>
      </trkpt>
      <trkpt lat="44.55933" lon="4.2471">
        <ele>456</ele>
        <time>2018-06-03T07:50:03.000Z</time>
      </trkpt>
      <trkpt lat="44.55935" lon="4.24715">
        <ele>456</ele>
        <time>2018-06-03T07:50:04.000Z</time>
      </trkpt>
      <trkpt lat="44.55938" lon="4.24718">
        <ele>456</ele>
        <time>2018-06-03T07:50:05.000Z</time>
      </trkpt>
      <trkpt lat="44.55941" lon="4.24721">
        <ele>456</ele>
        <time>2018-06-03T07:50:06.000Z</time>
      </trkpt>
      <trkpt lat="44.55944" lon="4.24722">
        <ele>455</ele>
        <time>2018-06-03T07:50:07.000Z</time>
      </trkpt>
      <trkpt lat="44.55948" lon="4.24723">
        <ele>455</ele>
        <time>2018-06-03T07:50:08.000Z</time>
      </trkpt>
      <trkpt lat="44.55952" lon="4.24724">
        <ele>454</ele>
        <time>2018-06-03T07:50:09.000Z</time>
      </trkpt>
      <trkpt lat="44.55956" lon="4.24726">
        <ele>454</ele>
        <time>2018-06-03T07:50:10.000Z</time>
      </trkpt>
      <trkpt lat="44.5596" lon="4.24727">
        <ele>453</ele>
        <time>2018-06-03T07:50:11.000Z</time>
      </trkpt>
      <trkpt lat="44.55963" lon="4.24729">
        <ele>453</ele>
        <time>2018-06-03T07:50:12.000Z</time>
      </trkpt>
      <trkpt lat="44.55967" lon="4.24733">
        <ele>452</ele>
        <time>2018-06-03T07:50:13.000Z</time>
      </trkpt>
      <trkpt lat="44.55969" lon="4.24738">
        <ele>452</ele>
        <time>2018-06-03T07:50:14.000Z</time>
      </trkpt>
      <trkpt lat="44.55972" lon="4.24742">
        <ele>452</ele>
        <time>2018-06-03T07:50:15.000Z</time>
      </trkpt>
      <trkpt lat="44.55975" lon="4.24747">
        <ele>451</ele>
        <time>2018-06-03T07:50:16.000Z</time>
      </trkpt>
      <trkpt lat="44.55977" lon="4.24752">
        <ele>453</ele>
        <time>2018-06-03T07:50:17.000Z</time>
      </trkpt>
      <trkpt lat="44.5598" lon="4.24756">
        <ele>453</ele>
        <time>2018-06-03T07:50:18.000Z</time>
      </trkpt>
      <trkpt lat="44.55983" lon="4.2476">
        <ele>453</ele>
        <time>2018-06-03T07:50:19.000Z</time>
      </trkpt>
      <trkpt lat="44.55985" lon="4.24764">
        <ele>453</ele>
        <time>2018-06-03T07:50:20.000Z</time>
      </trkpt>
      <trkpt lat="44.55988" lon="4.24768">
        <ele>453</ele>
        <time>2018-06-03T07:50:21.000Z</time>
      </trkpt>
      <trkpt lat="44.55991" lon="4.24772">
        <ele>453</ele>
        <time>2018-06-03T07:50:22.000Z</time>
      </trkpt>
      <trkpt lat="44.55994" lon="4.24775">
        <ele>453</ele>
        <time>2018-06-03T07:50:23.000Z</time>
      </trkpt>
      <trkpt lat="44.55998" lon="4.24777">
        <ele>453</ele>
        <time>2018-06-03T07:50:24.000Z</time>
      </trkpt>
      <trkpt lat="44.56001" lon="4.24779">
        <ele>448</ele>
        <time>2018-06-03T07:50:25.000Z</time>
      </trkpt>
      <trkpt lat="44.56004" lon="4.24783">
        <ele>448</ele>
        <time>2018-06-03T07:50:26.000Z</time>
      </trkpt>
      <trkpt lat="44.56007" lon="4.24786">
        <ele>448</ele>
        <time>2018-06-03T07:50:27.000Z</time>
      </trkpt>
      <trkpt lat="44.56011" lon="4.2479">
        <ele>448</ele>
        <time>2018-06-03T07:50:28.000Z</time>
      </trkpt>
      <trkpt lat="44.56015" lon="4.24793">
        <ele>448</ele>
        <time>2018-06-03T07:50:29.000Z</time>
      </trkpt>
      <trkpt lat="44.56019" lon="4.24796">
        <ele>448</ele>
        <time>2018-06-03T07:50:30.000Z</time>
      </trkpt>
      <trkpt lat="44.56023" lon="4.24798">
        <ele>448</ele>
        <time>2018-06-03T07:50:31.000Z</time>
      </trkpt>
      <trkpt lat="44.56028" lon="4.248">
        <ele>448</ele>
        <time>2018-06-03T07:50:32.000Z</time>
      </trkpt>
      <trkpt lat="44.56033" lon="4.24802">
        <ele>448</ele>
        <time>2018-06-03T07:50:33.000Z</time>
      </trkpt>
      <trkpt lat="44.56039" lon="4.24803">
        <ele>448</ele>
        <time>2018-06-03T07:50:34.000Z</time>
      </trkpt>
      <trkpt lat="44.56044" lon="4.24803">
        <ele>448</ele>
        <time>2018-06-03T07:50:35.000Z</time>
      </trkpt>
      <trkpt lat="44.5605" lon="4.24803">
        <ele>448</ele>
        <time>2018-06-03T07:50:36.000Z</time>
      </trkpt>
      <trkpt lat="44.56056" lon="4.24803">
        <ele>448</ele>
        <time>2018-06-03T07:50:37.000Z</time>
      </trkpt>
      <trkpt lat="44.56062" lon="4.24802">
        <ele>448</ele>
        <time>2018-06-03T07:50:38.000Z</time>
      </trkpt>
      <trkpt lat="44.56069" lon="4.24802">
        <ele>448</ele>
        <time>2018-06-03T07:50:39.000Z</time>
      </trkpt>
      <trkpt lat="44.56075" lon="4.24801">
        <ele>448</ele>
        <time>2018-06-03T07:50:40.000Z</time>
      </trkpt>
      <trkpt lat="44.56081" lon="4.24801">
        <ele>448</ele>
        <time>2018-06-03T07:50:41.000Z</time>
      </trkpt>
      <trkpt lat="44.56086" lon="4.248">
        <ele>447</ele>
        <time>2018-06-03T07:50:42.000Z</time>
      </trkpt>
      <trkpt lat="44.56092" lon="4.24798">
        <ele>447</ele>
        <time>2018-06-03T07:50:43.000Z</time>
      </trkpt>
      <trkpt lat="44.56099" lon="4.24797">
        <ele>447</ele>
        <time>2018-06-03T07:50:44.000Z</time>
      </trkpt>
      <trkpt lat="44.56105" lon="4.24795">
        <ele>447</ele>
        <time>2018-06-03T07:50:45.000Z</time>
      </trkpt>
      <trkpt lat="44.56111" lon="4.24795">
        <ele>447</ele>
        <time>2018-06-03T07:50:46.000Z</time>
      </trkpt>
      <trkpt lat="44.56118" lon="4.24795">
        <ele>446</ele>
        <time>2018-06-03T07:50:47.000Z</time>
      </trkpt>
      <trkpt lat="44.56124" lon="4.24796">
        <ele>446</ele>
        <time>2018-06-03T07:50:48.000Z</time>
      </trkpt>
      <trkpt lat="44.5613" lon="4.24796">
        <ele>446</ele>
        <time>2018-06-03T07:50:49.000Z</time>
      </trkpt>
      <trkpt lat="44.56136" lon="4.24795">
        <ele>446</ele>
        <time>2018-06-03T07:50:50.000Z</time>
      </trkpt>
      <trkpt lat="44.56142" lon="4.24793">
        <ele>446</ele>
        <time>2018-06-03T07:50:51.000Z</time>
      </trkpt>
      <trkpt lat="44.56148" lon="4.24791">
        <ele>446</ele>
        <time>2018-06-03T07:50:52.000Z</time>
      </trkpt>
      <trkpt lat="44.56155" lon="4.24789">
        <ele>446</ele>
        <time>2018-06-03T07:50:53.000Z</time>
      </trkpt>
      <trkpt lat="44.56163" lon="4.24787">
        <ele>446</ele>
        <time>2018-06-03T07:50:54.000Z</time>
      </trkpt>
      <trkpt lat="44.5617" lon="4.24785">
        <ele>446</ele>
        <time>2018-06-03T07:50:55.000Z</time>
      </trkpt>
      <trkpt lat="44.56178" lon="4.24783">
        <ele>446</ele>
        <time>2018-06-03T07:50:56.000Z</time>
      </trkpt>
      <trkpt lat="44.56185" lon="4.24782">
        <ele>446</ele>
        <time>2018-06-03T07:50:57.000Z</time>
      </trkpt>
      <trkpt lat="44.56192" lon="4.24781">
        <ele>446</ele>
        <time>2018-06-03T07:50:58.000Z</time>
      </trkpt>
      <trkpt lat="44.56198" lon="4.24782">
        <ele>446</ele>
        <time>2018-06-03T07:50:59.000Z</time>
      </trkpt>
      <trkpt lat="44.56203" lon="4.24786">
        <ele>446</ele>
        <time>2018-06-03T07:51:00.000Z</time>
      </trkpt>
      <trkpt lat="44.56207" lon="4.24791">
        <ele>446</ele>
        <time>2018-06-03T07:51:01.000Z</time>
      </trkpt>
      <trkpt lat="44.56209" lon="4.24798">
        <ele>445</ele>
        <time>2018-06-03T07:51:02.000Z</time>
      </trkpt>
      <trkpt lat="44.56211" lon="4.24804">
        <ele>445</ele>
        <time>2018-06-03T07:51:03.000Z</time>
      </trkpt>
      <trkpt lat="44.56212" lon="4.2481">
        <ele>445</ele>
        <time>2018-06-03T07:51:04.000Z</time>
      </trkpt>
      <trkpt lat="44.56214" lon="4.24815">
        <ele>445</ele>
        <time>2018-06-03T07:51:05.000Z</time>
      </trkpt>
      <trkpt lat="44.56215" lon="4.24821">
        <ele>445</ele>
        <time>2018-06-03T07:51:06.000Z</time>
      </trkpt>
      <trkpt lat="44.56217" lon="4.24827">
        <ele>445</ele>
        <time>2018-06-03T07:51:07.000Z</time>
      </trkpt>
      <trkpt lat="44.56218" lon="4.24832">
        <ele>445</ele>
        <time>2018-06-03T07:51:08.000Z</time>
      </trkpt>
      <trkpt lat="44.56221" lon="4.24836">
        <ele>440</ele>
        <time>2018-06-03T07:51:09.000Z</time>
      </trkpt>
      <trkpt lat="44.56223" lon="4.24839">
        <ele>440</ele>
        <time>2018-06-03T07:51:10.000Z</time>
      </trkpt>
      <trkpt lat="44.56226" lon="4.24842">
        <ele>441</ele>
        <time>2018-06-03T07:51:11.000Z</time>
      </trkpt>
      <trkpt lat="44.56229" lon="4.24844">
        <ele>441</ele>
        <time>2018-06-03T07:51:12.000Z</time>
      </trkpt>
      <trkpt lat="44.56232" lon="4.24845">
        <ele>441</ele>
        <time>2018-06-03T07:51:13.000Z</time>
      </trkpt>
      <trkpt lat="44.56235" lon="4.24846">
        <ele>441</ele>
        <time>2018-06-03T07:51:14.000Z</time>
      </trkpt>
      <trkpt lat="44.56238" lon="4.24847">
        <ele>442</ele>
        <time>2018-06-03T07:51:15.000Z</time>
      </trkpt>
      <trkpt lat="44.5624" lon="4.24847">
        <ele>442</ele>
        <time>2018-06-03T07:51:16.000Z</time>
      </trkpt>
      <trkpt lat="44.56242" lon="4.24847">
        <ele>442</ele>
        <time>2018-06-03T07:51:17.000Z</time>
      </trkpt>
      <trkpt lat="44.56242" lon="4.24846">
        <ele>443</ele>
        <time>2018-06-03T07:51:18.000Z</time>
      </trkpt>
      <trkpt lat="44.56241" lon="4.24844">
        <ele>443</ele>
        <time>2018-06-03T07:51:19.000Z</time>
      </trkpt>
      <trkpt lat="44.5624" lon="4.24845">
        <ele>442</ele>
        <time>2018-06-03T07:51:20.000Z</time>
      </trkpt>
      <trkpt lat="44.56237" lon="4.24845">
        <ele>442</ele>
        <time>2018-06-03T07:51:21.000Z</time>
      </trkpt>
      <trkpt lat="44.56234" lon="4.24845">
        <ele>441</ele>
        <time>2018-06-03T07:51:22.000Z</time>
      </trkpt>
      <trkpt lat="44.56231" lon="4.24845">
        <ele>441</ele>
        <time>2018-06-03T07:51:23.000Z</time>
      </trkpt>
      <trkpt lat="44.56227" lon="4.24844">
        <ele>441</ele>
        <time>2018-06-03T07:51:24.000Z</time>
      </trkpt>
      <trkpt lat="44.56224" lon="4.24841">
        <ele>440</ele>
        <time>2018-06-03T07:51:25.000Z</time>
      </trkpt>
      <trkpt lat="44.56221" lon="4.24837">
        <ele>440</ele>
        <time>2018-06-03T07:51:26.000Z</time>
      </trkpt>
      <trkpt lat="44.56219" lon="4.24832">
        <ele>445</ele>
        <time>2018-06-03T07:51:27.000Z</time>
      </trkpt>
      <trkpt lat="44.56217" lon="4.24826">
        <ele>445</ele>
        <time>2018-06-03T07:51:28.000Z</time>
      </trkpt>
      <trkpt lat="44.56215" lon="4.2482">
        <ele>445</ele>
        <time>2018-06-03T07:51:29.000Z</time>
      </trkpt>
      <trkpt lat="44.56214" lon="4.24814">
        <ele>445</ele>
        <time>2018-06-03T07:51:30.000Z</time>
      </trkpt>
      <trkpt lat="44.56212" lon="4.24807">
        <ele>445</ele>
        <time>2018-06-03T07:51:31.000Z</time>
      </trkpt>
      <trkpt lat="44.5621" lon="4.24801">
        <ele>445</ele>
        <time>2018-06-03T07:51:32.000Z</time>
      </trkpt>
      <trkpt lat="44.56208" lon="4.24794">
        <ele>446</ele>
        <time>2018-06-03T07:51:33.000Z</time>
      </trkpt>
      <trkpt lat="44.56205" lon="4.24789">
        <ele>446</ele>
        <time>2018-06-03T07:51:34.000Z</time>
      </trkpt>
      <trkpt lat="44.56203" lon="4.24784">
        <ele>446</ele>
        <time>2018-06-03T07:51:35.000Z</time>
      </trkpt>
      <trkpt lat="44.56201" lon="4.24778">
        <ele>446</ele>
        <time>2018-06-03T07:51:36.000Z</time>
      </trkpt>
      <trkpt lat="44.562" lon="4.24773">
        <ele>447</ele>
        <time>2018-06-03T07:51:37.000Z</time>
      </trkpt>
      <trkpt lat="44.562" lon="4.24768">
        <ele>447</ele>
        <time>2018-06-03T07:51:38.000Z</time>
      </trkpt>
      <trkpt lat="44.56199" lon="4.24763">
        <ele>447</ele>
        <time>2018-06-03T07:51:39.000Z</time>
      </trkpt>
      <trkpt lat="44.56199" lon="4.24759">
        <ele>447</ele>
        <time>2018-06-03T07:51:40.000Z</time>
      </trkpt>
      <trkpt lat="44.56199" lon="4.24753">
        <ele>447</ele>
        <time>2018-06-03T07:51:41.000Z</time>
      </trkpt>
      <trkpt lat="44.562" lon="4.24747">
        <ele>450</ele>
        <time>2018-06-03T07:51:42.000Z</time>
      </trkpt>
      <trkpt lat="44.56201" lon="4.24741">
        <ele>450</ele>
        <time>2018-06-03T07:51:43.000Z</time>
      </trkpt>
      <trkpt lat="44.56202" lon="4.24735">
        <ele>450</ele>
        <time>2018-06-03T07:51:44.000Z</time>
      </trkpt>
      <trkpt lat="44.56204" lon="4.24729">
        <ele>450</ele>
        <time>2018-06-03T07:51:45.000Z</time>
      </trkpt>
      <trkpt lat="44.56206" lon="4.24722">
        <ele>450</ele>
        <time>2018-06-03T07:51:46.000Z</time>
      </trkpt>
      <trkpt lat="44.56206" lon="4.24715">
        <ele>450</ele>
        <time>2018-06-03T07:51:47.000Z</time>
      </trkpt>
      <trkpt lat="44.56208" lon="4.24708">
        <ele>450</ele>
        <time>2018-06-03T07:51:48.000Z</time>
      </trkpt>
      <trkpt lat="44.56209" lon="4.24702">
        <ele>449</ele>
        <time>2018-06-03T07:51:49.000Z</time>
      </trkpt>
      <trkpt lat="44.56211" lon="4.24695">
        <ele>449</ele>
        <time>2018-06-03T07:51:50.000Z</time>
      </trkpt>
      <trkpt lat="44.56214" lon="4.24686">
        <ele>449</ele>
        <time>2018-06-03T07:51:51.000Z</time>
      </trkpt>
      <trkpt lat="44.56216" lon="4.24677">
        <ele>449</ele>
        <time>2018-06-03T07:51:52.000Z</time>
      </trkpt>
      <trkpt lat="44.56218" lon="4.24668">
        <ele>448</ele>
        <time>2018-06-03T07:51:53.000Z</time>
      </trkpt>
      <trkpt lat="44.56219" lon="4.24659">
        <ele>447</ele>
        <time>2018-06-03T07:51:54.000Z</time>
      </trkpt>
      <trkpt lat="44.5622" lon="4.24649">
        <ele>446</ele>
        <time>2018-06-03T07:51:55.000Z</time>
      </trkpt>
      <trkpt lat="44.56221" lon="4.24641">
        <ele>446</ele>
        <time>2018-06-03T07:51:56.000Z</time>
      </trkpt>
      <trkpt lat="44.56223" lon="4.24633">
        <ele>446</ele>
        <time>2018-06-03T07:51:57.000Z</time>
      </trkpt>
      <trkpt lat="44.56225" lon="4.24623">
        <ele>445</ele>
        <time>2018-06-03T07:51:58.000Z</time>
      </trkpt>
      <trkpt lat="44.56226" lon="4.24612">
        <ele>445</ele>
        <time>2018-06-03T07:51:59.000Z</time>
      </trkpt>
      <trkpt lat="44.56227" lon="4.246">
        <ele>444</ele>
        <time>2018-06-03T07:52:00.000Z</time>
      </trkpt>
      <trkpt lat="44.56226" lon="4.24588">
        <ele>443</ele>
        <time>2018-06-03T07:52:01.000Z</time>
      </trkpt>
      <trkpt lat="44.56225" lon="4.24577">
        <ele>440</ele>
        <time>2018-06-03T07:52:02.000Z</time>
      </trkpt>
      <trkpt lat="44.56226" lon="4.24567">
        <ele>440</ele>
        <time>2018-06-03T07:52:03.000Z</time>
      </trkpt>
      <trkpt lat="44.56226" lon="4.24557">
        <ele>440</ele>
        <time>2018-06-03T07:52:04.000Z</time>
      </trkpt>
      <trkpt lat="44.56226" lon="4.24548">
        <ele>439</ele>
        <time>2018-06-03T07:52:05.000Z</time>
      </trkpt>
      <trkpt lat="44.56226" lon="4.24539">
        <ele>439</ele>
        <time>2018-06-03T07:52:06.000Z</time>
      </trkpt>
      <trkpt lat="44.56225" lon="4.24531">
        <ele>438</ele>
        <time>2018-06-03T07:52:07.000Z</time>
      </trkpt>
      <trkpt lat="44.56225" lon="4.24523">
        <ele>438</ele>
        <time>2018-06-03T07:52:08.000Z</time>
      </trkpt>
      <trkpt lat="44.56225" lon="4.24514">
        <ele>437</ele>
        <time>2018-06-03T07:52:09.000Z</time>
      </trkpt>
      <trkpt lat="44.56226" lon="4.24504">
        <ele>436</ele>
        <time>2018-06-03T07:52:10.000Z</time>
      </trkpt>
      <trkpt lat="44.56226" lon="4.24496">
        <ele>432</ele>
        <time>2018-06-03T07:52:11.000Z</time>
      </trkpt>
      <trkpt lat="44.56225" lon="4.24488">
        <ele>433</ele>
        <time>2018-06-03T07:52:12.000Z</time>
      </trkpt>
      <trkpt lat="44.56224" lon="4.2448">
        <ele>433</ele>
        <time>2018-06-03T07:52:13.000Z</time>
      </trkpt>
      <trkpt lat="44.56225" lon="4.24471">
        <ele>433</ele>
        <time>2018-06-03T07:52:14.000Z</time>
      </trkpt>
      <trkpt lat="44.56226" lon="4.24462">
        <ele>433</ele>
        <time>2018-06-03T07:52:15.000Z</time>
      </trkpt>
      <trkpt lat="44.56227" lon="4.24453">
        <ele>432</ele>
        <time>2018-06-03T07:52:16.000Z</time>
      </trkpt>
      <trkpt lat="44.56228" lon="4.24443">
        <ele>431</ele>
        <time>2018-06-03T07:52:17.000Z</time>
      </trkpt>
      <trkpt lat="44.56228" lon="4.24433">
        <ele>430</ele>
        <time>2018-06-03T07:52:18.000Z</time>
      </trkpt>
      <trkpt lat="44.56228" lon="4.24423">
        <ele>429</ele>
        <time>2018-06-03T07:52:19.000Z</time>
      </trkpt>
      <trkpt lat="44.56228" lon="4.24413">
        <ele>427</ele>
        <time>2018-06-03T07:52:20.000Z</time>
      </trkpt>
      <trkpt lat="44.56226" lon="4.24404">
        <ele>428</ele>
        <time>2018-06-03T07:52:21.000Z</time>
      </trkpt>
      <trkpt lat="44.56223" lon="4.24396">
        <ele>429</ele>
        <time>2018-06-03T07:52:22.000Z</time>
      </trkpt>
      <trkpt lat="44.56222" lon="4.24388">
        <ele>430</ele>
        <time>2018-06-03T07:52:23.000Z</time>
      </trkpt>
      <trkpt lat="44.56222" lon="4.24381">
        <ele>430</ele>
        <time>2018-06-03T07:52:24.000Z</time>
      </trkpt>
      <trkpt lat="44.56223" lon="4.24376">
        <ele>429</ele>
        <time>2018-06-03T07:52:25.000Z</time>
      </trkpt>
      <trkpt lat="44.56227" lon="4.24371">
        <ele>429</ele>
        <time>2018-06-03T07:52:26.000Z</time>
      </trkpt>
      <trkpt lat="44.5623" lon="4.24366">
        <ele>428</ele>
        <time>2018-06-03T07:52:27.000Z</time>
      </trkpt>
      <trkpt lat="44.56234" lon="4.24358">
        <ele>427</ele>
        <time>2018-06-03T07:52:28.000Z</time>
      </trkpt>
      <trkpt lat="44.56236" lon="4.2435">
        <ele>426</ele>
        <time>2018-06-03T07:52:29.000Z</time>
      </trkpt>
      <trkpt lat="44.5624" lon="4.24341">
        <ele>424</ele>
        <time>2018-06-03T07:52:30.000Z</time>
      </trkpt>
      <trkpt lat="44.56243" lon="4.24332">
        <ele>422</ele>
        <time>2018-06-03T07:52:31.000Z</time>
      </trkpt>
      <trkpt lat="44.56247" lon="4.24325">
        <ele>423</ele>
        <time>2018-06-03T07:52:32.000Z</time>
      </trkpt>
      <trkpt lat="44.56252" lon="4.24318">
        <ele>417</ele>
        <time>2018-06-03T07:52:33.000Z</time>
      </trkpt>
      <trkpt lat="44.56257" lon="4.24312">
        <ele>417</ele>
        <time>2018-06-03T07:52:34.000Z</time>
      </trkpt>
      <trkpt lat="44.56261" lon="4.24307">
        <ele>417</ele>
        <time>2018-06-03T07:52:35.000Z</time>
      </trkpt>
      <trkpt lat="44.56266" lon="4.24302">
        <ele>417</ele>
        <time>2018-06-03T07:52:36.000Z</time>
      </trkpt>
      <trkpt lat="44.5627" lon="4.24297">
        <ele>416</ele>
        <time>2018-06-03T07:52:37.000Z</time>
      </trkpt>
      <trkpt lat="44.56274" lon="4.24292">
        <ele>416</ele>
        <time>2018-06-03T07:52:38.000Z</time>
      </trkpt>
      <trkpt lat="44.56279" lon="4.24287">
        <ele>416</ele>
        <time>2018-06-03T07:52:39.000Z</time>
      </trkpt>
      <trkpt lat="44.56283" lon="4.24281">
        <ele>416</ele>
        <time>2018-06-03T07:52:40.000Z</time>
      </trkpt>
      <trkpt lat="44.56287" lon="4.24275">
        <ele>416</ele>
        <time>2018-06-03T07:52:41.000Z</time>
      </trkpt>
      <trkpt lat="44.56291" lon="4.24269">
        <ele>415</ele>
        <time>2018-06-03T07:52:42.000Z</time>
      </trkpt>
      <trkpt lat="44.56295" lon="4.24264">
        <ele>415</ele>
        <time>2018-06-03T07:52:43.000Z</time>
      </trkpt>
      <trkpt lat="44.56297" lon="4.24258">
        <ele>414</ele>
        <time>2018-06-03T07:52:44.000Z</time>
      </trkpt>
      <trkpt lat="44.56298" lon="4.24252">
        <ele>414</ele>
        <time>2018-06-03T07:52:45.000Z</time>
      </trkpt>
      <trkpt lat="44.56301" lon="4.24246">
        <ele>411</ele>
        <time>2018-06-03T07:52:46.000Z</time>
      </trkpt>
      <trkpt lat="44.56304" lon="4.24239">
        <ele>411</ele>
        <time>2018-06-03T07:52:47.000Z</time>
      </trkpt>
      <trkpt lat="44.56307" lon="4.24232">
        <ele>411</ele>
        <time>2018-06-03T07:52:48.000Z</time>
      </trkpt>
      <trkpt lat="44.5631" lon="4.24223">
        <ele>410</ele>
        <time>2018-06-03T07:52:49.000Z</time>
      </trkpt>
      <trkpt lat="44.56313" lon="4.24215">
        <ele>410</ele>
        <time>2018-06-03T07:52:50.000Z</time>
      </trkpt>
      <trkpt lat="44.56316" lon="4.24206">
        <ele>409</ele>
        <time>2018-06-03T07:52:51.000Z</time>
      </trkpt>
      <trkpt lat="44.56318" lon="4.24198">
        <ele>409</ele>
        <time>2018-06-03T07:52:52.000Z</time>
      </trkpt>
      <trkpt lat="44.56319" lon="4.2419">
        <ele>408</ele>
        <time>2018-06-03T07:52:53.000Z</time>
      </trkpt>
      <trkpt lat="44.5632" lon="4.24183">
        <ele>407</ele>
        <time>2018-06-03T07:52:54.000Z</time>
      </trkpt>
      <trkpt lat="44.5632" lon="4.24176">
        <ele>406</ele>
        <time>2018-06-03T07:52:55.000Z</time>
      </trkpt>
      <trkpt lat="44.56319" lon="4.2417">
        <ele>405</ele>
        <time>2018-06-03T07:52:56.000Z</time>
      </trkpt>
      <trkpt lat="44.56318" lon="4.24164">
        <ele>401</ele>
        <time>2018-06-03T07:52:57.000Z</time>
      </trkpt>
      <trkpt lat="44.56316" lon="4.24158">
        <ele>401</ele>
        <time>2018-06-03T07:52:58.000Z</time>
      </trkpt>
      <trkpt lat="44.56315" lon="4.2415">
        <ele>401</ele>
        <time>2018-06-03T07:52:59.000Z</time>
      </trkpt>
      <trkpt lat="44.56314" lon="4.24143">
        <ele>401</ele>
        <time>2018-06-03T07:53:00.000Z</time>
      </trkpt>
      <trkpt lat="44.56313" lon="4.24134">
        <ele>400</ele>
        <time>2018-06-03T07:53:01.000Z</time>
      </trkpt>
      <trkpt lat="44.56311" lon="4.24127">
        <ele>400</ele>
        <time>2018-06-03T07:53:02.000Z</time>
      </trkpt>
      <trkpt lat="44.56309" lon="4.24121">
        <ele>399</ele>
        <time>2018-06-03T07:53:03.000Z</time>
      </trkpt>
      <trkpt lat="44.56305" lon="4.24116">
        <ele>399</ele>
        <time>2018-06-03T07:53:04.000Z</time>
      </trkpt>
      <trkpt lat="44.56301" lon="4.24111">
        <ele>399</ele>
        <time>2018-06-03T07:53:05.000Z</time>
      </trkpt>
      <trkpt lat="44.56296" lon="4.24107">
        <ele>399</ele>
        <time>2018-06-03T07:53:06.000Z</time>
      </trkpt>
      <trkpt lat="44.56293" lon="4.24103">
        <ele>399</ele>
        <time>2018-06-03T07:53:07.000Z</time>
      </trkpt>
      <trkpt lat="44.56289" lon="4.24099">
        <ele>399</ele>
        <time>2018-06-03T07:53:08.000Z</time>
      </trkpt>
      <trkpt lat="44.56286" lon="4.24094">
        <ele>399</ele>
        <time>2018-06-03T07:53:09.000Z</time>
      </trkpt>
      <trkpt lat="44.56282" lon="4.2409">
        <ele>399</ele>
        <time>2018-06-03T07:53:10.000Z</time>
      </trkpt>
      <trkpt lat="44.5628" lon="4.24085">
        <ele>398</ele>
        <time>2018-06-03T07:53:11.000Z</time>
      </trkpt>
      <trkpt lat="44.56278" lon="4.2408">
        <ele>393</ele>
        <time>2018-06-03T07:53:12.000Z</time>
      </trkpt>
      <trkpt lat="44.56276" lon="4.24075">
        <ele>393</ele>
        <time>2018-06-03T07:53:13.000Z</time>
      </trkpt>
      <trkpt lat="44.56275" lon="4.2407">
        <ele>393</ele>
        <time>2018-06-03T07:53:14.000Z</time>
      </trkpt>
      <trkpt lat="44.56273" lon="4.24064">
        <ele>393</ele>
        <time>2018-06-03T07:53:15.000Z</time>
      </trkpt>
      <trkpt lat="44.56273" lon="4.24057">
        <ele>392</ele>
        <time>2018-06-03T07:53:16.000Z</time>
      </trkpt>
      <trkpt lat="44.56273" lon="4.24052">
        <ele>392</ele>
        <time>2018-06-03T07:53:17.000Z</time>
      </trkpt>
      <trkpt lat="44.56273" lon="4.24048">
        <ele>392</ele>
        <time>2018-06-03T07:53:18.000Z</time>
      </trkpt>
      <trkpt lat="44.56274" lon="4.24044">
        <ele>392</ele>
        <time>2018-06-03T07:53:19.000Z</time>
      </trkpt>
      <trkpt lat="44.56274" lon="4.2404">
        <ele>392</ele>
        <time>2018-06-03T07:53:20.000Z</time>
      </trkpt>
      <trkpt lat="44.56274" lon="4.24036">
        <ele>392</ele>
        <time>2018-06-03T07:53:21.000Z</time>
      </trkpt>
      <trkpt lat="44.56275" lon="4.24033">
        <ele>391</ele>
        <time>2018-06-03T07:53:22.000Z</time>
      </trkpt>
      <trkpt lat="44.56274" lon="4.2403">
        <ele>391</ele>
        <time>2018-06-03T07:53:23.000Z</time>
      </trkpt>
      <trkpt lat="44.56274" lon="4.24027">
        <ele>391</ele>
        <time>2018-06-03T07:53:24.000Z</time>
      </trkpt>
      <trkpt lat="44.56274" lon="4.24024">
        <ele>391</ele>
        <time>2018-06-03T07:53:25.000Z</time>
      </trkpt>
      <trkpt lat="44.56274" lon="4.24021">
        <ele>391</ele>
        <time>2018-06-03T07:53:26.000Z</time>
      </trkpt>
      <trkpt lat="44.56274" lon="4.24017">
        <ele>391</ele>
        <time>2018-06-03T07:53:27.000Z</time>
      </trkpt>
      <trkpt lat="44.56274" lon="4.24014">
        <ele>391</ele>
        <time>2018-06-03T07:53:28.000Z</time>
      </trkpt>
      <trkpt lat="44.56274" lon="4.24011">
        <ele>391</ele>
        <time>2018-06-03T07:53:29.000Z</time>
      </trkpt>
      <trkpt lat="44.56273" lon="4.24008">
        <ele>391</ele>
        <time>2018-06-03T07:53:30.000Z</time>
      </trkpt>
      <trkpt lat="44.56273" lon="4.24005">
        <ele>390</ele>
        <time>2018-06-03T07:53:31.000Z</time>
      </trkpt>
      <trkpt lat="44.56272" lon="4.24002">
        <ele>390</ele>
        <time>2018-06-03T07:53:32.000Z</time>
      </trkpt>
      <trkpt lat="44.56272" lon="4.23999">
        <ele>391</ele>
        <time>2018-06-03T07:53:33.000Z</time>
      </trkpt>
      <trkpt lat="44.56271" lon="4.23996">
        <ele>391</ele>
        <time>2018-06-03T07:53:34.000Z</time>
      </trkpt>
      <trkpt lat="44.56271" lon="4.23993">
        <ele>391</ele>
        <time>2018-06-03T07:53:35.000Z</time>
      </trkpt>
      <trkpt lat="44.5627" lon="4.2399">
        <ele>391</ele>
        <time>2018-06-03T07:53:36.000Z</time>
      </trkpt>
      <trkpt lat="44.5627" lon="4.23987">
        <ele>391</ele>
        <time>2018-06-03T07:53:37.000Z</time>
      </trkpt>
      <trkpt lat="44.56269" lon="4.23985">
        <ele>391</ele>
        <time>2018-06-03T07:53:38.000Z</time>
      </trkpt>
      <trkpt lat="44.56269" lon="4.23982">
        <ele>391</ele>
        <time>2018-06-03T07:53:39.000Z</time>
      </trkpt>
      <trkpt lat="44.56268" lon="4.2398">
        <ele>391</ele>
        <time>2018-06-03T07:53:40.000Z</time>
      </trkpt>
      <trkpt lat="44.56268" lon="4.23977">
        <ele>391</ele>
        <time>2018-06-03T07:53:41.000Z</time>
      </trkpt>
      <trkpt lat="44.56267" lon="4.23974">
        <ele>392</ele>
        <time>2018-06-03T07:53:42.000Z</time>
      </trkpt>
      <trkpt lat="44.56266" lon="4.23971">
        <ele>392</ele>
        <time>2018-06-03T07:53:43.000Z</time>
      </trkpt>
      <trkpt lat="44.56266" lon="4.23968">
        <ele>392</ele>
        <time>2018-06-03T07:53:44.000Z</time>
      </trkpt>
      <trkpt lat="44.56265" lon="4.23965">
        <ele>392</ele>
        <time>2018-06-03T07:53:45.000Z</time>
      </trkpt>
      <trkpt lat="44.56265" lon="4.23962">
        <ele>392</ele>
        <time>2018-06-03T07:53:46.000Z</time>
      </trkpt>
      <trkpt lat="44.56264" lon="4.2396">
        <ele>392</ele>
        <time>2018-06-03T07:53:47.000Z</time>
      </trkpt>
      <trkpt lat="44.56263" lon="4.23957">
        <ele>392</ele>
        <time>2018-06-03T07:53:48.000Z</time>
      </trkpt>
      <trkpt lat="44.56263" lon="4.23953">
        <ele>392</ele>
        <time>2018-06-03T07:53:49.000Z</time>
      </trkpt>
      <trkpt lat="44.56262" lon="4.2395">
        <ele>392</ele>
        <time>2018-06-03T07:53:50.000Z</time>
      </trkpt>
      <trkpt lat="44.56262" lon="4.23947">
        <ele>392</ele>
        <time>2018-06-03T07:53:51.000Z</time>
      </trkpt>
      <trkpt lat="44.56262" lon="4.23943">
        <ele>392</ele>
        <time>2018-06-03T07:53:52.000Z</time>
      </trkpt>
      <trkpt lat="44.56262" lon="4.2394">
        <ele>392</ele>
        <time>2018-06-03T07:53:53.000Z</time>
      </trkpt>
      <trkpt lat="44.56261" lon="4.23937">
        <ele>392</ele>
        <time>2018-06-03T07:53:54.000Z</time>
      </trkpt>
      <trkpt lat="44.56261" lon="4.23934">
        <ele>392</ele>
        <time>2018-06-03T07:53:55.000Z</time>
      </trkpt>
      <trkpt lat="44.5626" lon="4.23931">
        <ele>392</ele>
        <time>2018-06-03T07:53:56.000Z</time>
      </trkpt>
      <trkpt lat="44.56259" lon="4.23928">
        <ele>392</ele>
        <time>2018-06-03T07:53:57.000Z</time>
      </trkpt>
      <trkpt lat="44.56259" lon="4.23925">
        <ele>392</ele>
        <time>2018-06-03T07:53:58.000Z</time>
      </trkpt>
      <trkpt lat="44.56258" lon="4.23923">
        <ele>392</ele>
        <time>2018-06-03T07:53:59.000Z</time>
      </trkpt>
      <trkpt lat="44.56257" lon="4.2392">
        <ele>392</ele>
        <time>2018-06-03T07:54:00.000Z</time>
      </trkpt>
      <trkpt lat="44.56257" lon="4.23917">
        <ele>392</ele>
        <time>2018-06-03T07:54:01.000Z</time>
      </trkpt>
      <trkpt lat="44.56256" lon="4.23914">
        <ele>393</ele>
        <time>2018-06-03T07:54:02.000Z</time>
      </trkpt>
      <trkpt lat="44.56255" lon="4.23912">
        <ele>393</ele>
        <time>2018-06-03T07:54:03.000Z</time>
      </trkpt>
      <trkpt lat="44.56255" lon="4.23909">
        <ele>393</ele>
        <time>2018-06-03T07:54:04.000Z</time>
      </trkpt>
      <trkpt lat="44.56254" lon="4.23907">
        <ele>393</ele>
        <time>2018-06-03T07:54:05.000Z</time>
      </trkpt>
      <trkpt lat="44.56253" lon="4.23905">
        <ele>394</ele>
        <time>2018-06-03T07:54:06.000Z</time>
      </trkpt>
      <trkpt lat="44.56253" lon="4.23903">
        <ele>394</ele>
        <time>2018-06-03T07:54:07.000Z</time>
      </trkpt>
      <trkpt lat="44.56252" lon="4.23901">
        <ele>394</ele>
        <time>2018-06-03T07:54:08.000Z</time>
      </trkpt>
      <trkpt lat="44.56251" lon="4.23899">
        <ele>394</ele>
        <time>2018-06-03T07:54:09.000Z</time>
      </trkpt>
      <trkpt lat="44.56251" lon="4.23897">
        <ele>395</ele>
        <time>2018-06-03T07:54:10.000Z</time>
      </trkpt>
      <trkpt lat="44.5625" lon="4.23895">
        <ele>392</ele>
        <time>2018-06-03T07:54:11.000Z</time>
      </trkpt>
      <trkpt lat="44.56249" lon="4.23894">
        <ele>390</ele>
        <time>2018-06-03T07:54:12.000Z</time>
      </trkpt>
      <trkpt lat="44.56249" lon="4.23892">
        <ele>390</ele>
        <time>2018-06-03T07:54:13.000Z</time>
      </trkpt>
      <trkpt lat="44.56249" lon="4.2389">
        <ele>390</ele>
        <time>2018-06-03T07:54:14.000Z</time>
      </trkpt>
      <trkpt lat="44.56248" lon="4.23888">
        <ele>390</ele>
        <time>2018-06-03T07:54:15.000Z</time>
      </trkpt>
      <trkpt lat="44.56247" lon="4.23887">
        <ele>390</ele>
        <time>2018-06-03T07:54:16.000Z</time>
      </trkpt>
      <trkpt lat="44.56247" lon="4.23885">
        <ele>390</ele>
        <time>2018-06-03T07:54:17.000Z</time>
      </trkpt>
      <trkpt lat="44.56246" lon="4.23883">
        <ele>391</ele>
        <time>2018-06-03T07:54:18.000Z</time>
      </trkpt>
      <trkpt lat="44.56246" lon="4.23881">
        <ele>391</ele>
        <time>2018-06-03T07:54:19.000Z</time>
      </trkpt>
      <trkpt lat="44.56245" lon="4.2388">
        <ele>391</ele>
        <time>2018-06-03T07:54:20.000Z</time>
      </trkpt>
      <trkpt lat="44.56245" lon="4.23878">
        <ele>391</ele>
        <time>2018-06-03T07:54:21.000Z</time>
      </trkpt>
      <trkpt lat="44.56244" lon="4.23876">
        <ele>391</ele>
        <time>2018-06-03T07:54:22.000Z</time>
      </trkpt>
      <trkpt lat="44.56243" lon="4.23874">
        <ele>391</ele>
        <time>2018-06-03T07:54:23.000Z</time>
      </trkpt>
      <trkpt lat="44.56243" lon="4.23872">
        <ele>391</ele>
        <time>2018-06-03T07:54:24.000Z</time>
      </trkpt>
      <trkpt lat="44.56242" lon="4.2387">
        <ele>391</ele>
        <time>2018-06-03T07:54:25.000Z</time>
      </trkpt>
      <trkpt lat="44.56242" lon="4.23868">
        <ele>391</ele>
        <time>2018-06-03T07:54:26.000Z</time>
      </trkpt>
      <trkpt lat="44.56242" lon="4.23867">
        <ele>391</ele>
        <time>2018-06-03T07:54:27.000Z</time>
      </trkpt>
      <trkpt lat="44.56241" lon="4.23865">
        <ele>391</ele>
        <time>2018-06-03T07:54:28.000Z</time>
      </trkpt>
      <trkpt lat="44.5624" lon="4.23863">
        <ele>391</ele>
        <time>2018-06-03T07:54:29.000Z</time>
      </trkpt>
      <trkpt lat="44.5624" lon="4.23861">
        <ele>391</ele>
        <time>2018-06-03T07:54:30.000Z</time>
      </trkpt>
      <trkpt lat="44.56239" lon="4.23859">
        <ele>391</ele>
        <time>2018-06-03T07:54:31.000Z</time>
      </trkpt>
      <trkpt lat="44.56238" lon="4.23857">
        <ele>392</ele>
        <time>2018-06-03T07:54:32.000Z</time>
      </trkpt>
      <trkpt lat="44.56237" lon="4.23855">
        <ele>392</ele>
        <time>2018-06-03T07:54:33.000Z</time>
      </trkpt>
      <trkpt lat="44.56237" lon="4.23854">
        <ele>392</ele>
        <time>2018-06-03T07:54:34.000Z</time>
      </trkpt>
      <trkpt lat="44.56237" lon="4.23852">
        <ele>392</ele>
        <time>2018-06-03T07:54:35.000Z</time>
      </trkpt>
      <trkpt lat="44.56237" lon="4.2385">
        <ele>392</ele>
        <time>2018-06-03T07:54:36.000Z</time>
      </trkpt>
      <trkpt lat="44.56238" lon="4.2385">
        <ele>392</ele>
        <time>2018-06-03T07:54:37.000Z</time>
      </trkpt>
      <trkpt lat="44.56239" lon="4.23849">
        <ele>392</ele>
        <time>2018-06-03T07:54:38.000Z</time>
      </trkpt>
      <trkpt lat="44.56241" lon="4.23849">
        <ele>392</ele>
        <time>2018-06-03T07:54:39.000Z</time>
      </trkpt>
      <trkpt lat="44.56242" lon="4.2385">
        <ele>393</ele>
        <time>2018-06-03T07:54:40.000Z</time>
      </trkpt>
      <trkpt lat="44.56243" lon="4.23851">
        <ele>392</ele>
        <time>2018-06-03T07:54:41.000Z</time>
      </trkpt>
      <trkpt lat="44.56245" lon="4.23852">
        <ele>392</ele>
        <time>2018-06-03T07:54:42.000Z</time>
      </trkpt>
      <trkpt lat="44.56246" lon="4.23853">
        <ele>392</ele>
        <time>2018-06-03T07:54:43.000Z</time>
      </trkpt>
      <trkpt lat="44.56248" lon="4.23854">
        <ele>392</ele>
        <time>2018-06-03T07:54:44.000Z</time>
      </trkpt>
      <trkpt lat="44.56249" lon="4.23855">
        <ele>392</ele>
        <time>2018-06-03T07:54:45.000Z</time>
      </trkpt>
      <trkpt lat="44.56251" lon="4.23855">
        <ele>397</ele>
        <time>2018-06-03T07:54:46.000Z</time>
      </trkpt>
      <trkpt lat="44.56252" lon="4.23856">
        <ele>397</ele>
        <time>2018-06-03T07:54:47.000Z</time>
      </trkpt>
      <trkpt lat="44.56254" lon="4.23857">
        <ele>397</ele>
        <time>2018-06-03T07:54:48.000Z</time>
      </trkpt>
      <trkpt lat="44.56255" lon="4.23858">
        <ele>397</ele>
        <time>2018-06-03T07:54:49.000Z</time>
      </trkpt>
      <trkpt lat="44.56256" lon="4.23859">
        <ele>397</ele>
        <time>2018-06-03T07:54:50.000Z</time>
      </trkpt>
      <trkpt lat="44.56258" lon="4.23861">
        <ele>397</ele>
        <time>2018-06-03T07:54:51.000Z</time>
      </trkpt>
      <trkpt lat="44.5626" lon="4.23862">
        <ele>397</ele>
        <time>2018-06-03T07:54:52.000Z</time>
      </trkpt>
      <trkpt lat="44.56261" lon="4.23863">
        <ele>397</ele>
        <time>2018-06-03T07:54:53.000Z</time>
      </trkpt>
      <trkpt lat="44.56262" lon="4.23864">
        <ele>397</ele>
        <time>2018-06-03T07:54:54.000Z</time>
      </trkpt>
      <trkpt lat="44.56264" lon="4.23865">
        <ele>397</ele>
        <time>2018-06-03T07:54:55.000Z</time>
      </trkpt>
      <trkpt lat="44.56266" lon="4.23866">
        <ele>397</ele>
        <time>2018-06-03T07:54:56.000Z</time>
      </trkpt>
      <trkpt lat="44.56267" lon="4.23867">
        <ele>397</ele>
        <time>2018-06-03T07:54:57.000Z</time>
      </trkpt>
      <trkpt lat="44.56269" lon="4.23867">
        <ele>397</ele>
        <time>2018-06-03T07:54:58.000Z</time>
      </trkpt>
      <trkpt lat="44.56271" lon="4.23868">
        <ele>397</ele>
        <time>2018-06-03T07:54:59.000Z</time>
      </trkpt>
      <trkpt lat="44.56273" lon="4.23869">
        <ele>397</ele>
        <time>2018-06-03T07:55:00.000Z</time>
      </trkpt>
      <trkpt lat="44.56275" lon="4.23869">
        <ele>397</ele>
        <time>2018-06-03T07:55:01.000Z</time>
      </trkpt>
      <trkpt lat="44.56277" lon="4.23869">
        <ele>397</ele>
        <time>2018-06-03T07:55:02.000Z</time>
      </trkpt>
      <trkpt lat="44.56279" lon="4.2387">
        <ele>397</ele>
        <time>2018-06-03T07:55:03.000Z</time>
      </trkpt>
      <trkpt lat="44.56282" lon="4.23871">
        <ele>397</ele>
        <time>2018-06-03T07:55:04.000Z</time>
      </trkpt>
      <trkpt lat="44.56284" lon="4.23872">
        <ele>397</ele>
        <time>2018-06-03T07:55:05.000Z</time>
      </trkpt>
      <trkpt lat="44.56287" lon="4.23873">
        <ele>398</ele>
        <time>2018-06-03T07:55:06.000Z</time>
      </trkpt>
      <trkpt lat="44.56291" lon="4.23874">
        <ele>398</ele>
        <time>2018-06-03T07:55:07.000Z</time>
      </trkpt>
      <trkpt lat="44.56294" lon="4.23875">
        <ele>398</ele>
        <time>2018-06-03T07:55:08.000Z</time>
      </trkpt>
      <trkpt lat="44.56297" lon="4.23877">
        <ele>398</ele>
        <time>2018-06-03T07:55:09.000Z</time>
      </trkpt>
      <trkpt lat="44.563" lon="4.23878">
        <ele>398</ele>
        <time>2018-06-03T07:55:10.000Z</time>
      </trkpt>
      <trkpt lat="44.56303" lon="4.23879">
        <ele>398</ele>
        <time>2018-06-03T07:55:11.000Z</time>
      </trkpt>
      <trkpt lat="44.56306" lon="4.23881">
        <ele>398</ele>
        <time>2018-06-03T07:55:12.000Z</time>
      </trkpt>
      <trkpt lat="44.5631" lon="4.23882">
        <ele>399</ele>
        <time>2018-06-03T07:55:13.000Z</time>
      </trkpt>
      <trkpt lat="44.56314" lon="4.23884">
        <ele>399</ele>
        <time>2018-06-03T07:55:14.000Z</time>
      </trkpt>
      <trkpt lat="44.56317" lon="4.23886">
        <ele>399</ele>
        <time>2018-06-03T07:55:15.000Z</time>
      </trkpt>
      <trkpt lat="44.56321" lon="4.23887">
        <ele>399</ele>
        <time>2018-06-03T07:55:16.000Z</time>
      </trkpt>
      <trkpt lat="44.56324" lon="4.23889">
        <ele>399</ele>
        <time>2018-06-03T07:55:17.000Z</time>
      </trkpt>
      <trkpt lat="44.56328" lon="4.23891">
        <ele>399</ele>
        <time>2018-06-03T07:55:18.000Z</time>
      </trkpt>
      <trkpt lat="44.56331" lon="4.23893">
        <ele>399</ele>
        <time>2018-06-03T07:55:19.000Z</time>
      </trkpt>
      <trkpt lat="44.56335" lon="4.23896">
        <ele>404</ele>
        <time>2018-06-03T07:55:20.000Z</time>
      </trkpt>
      <trkpt lat="44.56338" lon="4.23898">
        <ele>404</ele>
        <time>2018-06-03T07:55:21.000Z</time>
      </trkpt>
      <trkpt lat="44.56342" lon="4.23901">
        <ele>404</ele>
        <time>2018-06-03T07:55:22.000Z</time>
      </trkpt>
      <trkpt lat="44.56346" lon="4.23903">
        <ele>404</ele>
        <time>2018-06-03T07:55:23.000Z</time>
      </trkpt>
      <trkpt lat="44.56349" lon="4.23906">
        <ele>404</ele>
        <time>2018-06-03T07:55:24.000Z</time>
      </trkpt>
      <trkpt lat="44.56352" lon="4.23909">
        <ele>405</ele>
        <time>2018-06-03T07:55:25.000Z</time>
      </trkpt>
      <trkpt lat="44.56355" lon="4.23912">
        <ele>405</ele>
        <time>2018-06-03T07:55:26.000Z</time>
      </trkpt>
      <trkpt lat="44.56357" lon="4.23915">
        <ele>405</ele>
        <time>2018-06-03T07:55:27.000Z</time>
      </trkpt>
      <trkpt lat="44.56359" lon="4.23916">
        <ele>405</ele>
        <time>2018-06-03T07:55:28.000Z</time>
      </trkpt>
      <trkpt lat="44.5636" lon="4.23917">
        <ele>402</ele>
        <time>2018-06-03T07:55:29.000Z</time>
      </trkpt>
      <trkpt lat="44.56361" lon="4.23918">
        <ele>403</ele>
        <time>2018-06-03T07:55:30.000Z</time>
      </trkpt>
      <trkpt lat="44.56363" lon="4.23919">
        <ele>403</ele>
        <time>2018-06-03T07:55:31.000Z</time>
      </trkpt>
      <trkpt lat="44.56364" lon="4.23917">
        <ele>403</ele>
        <time>2018-06-03T07:55:32.000Z</time>
      </trkpt>
      <trkpt lat="44.56364" lon="4.23915">
        <ele>406</ele>
        <time>2018-06-03T07:55:33.000Z</time>
      </trkpt>
      <trkpt lat="44.56362" lon="4.23914">
        <ele>406</ele>
        <time>2018-06-03T07:55:34.000Z</time>
      </trkpt>
      <trkpt lat="44.5636" lon="4.23914">
        <ele>405</ele>
        <time>2018-06-03T07:55:35.000Z</time>
      </trkpt>
      <trkpt lat="44.56359" lon="4.23916">
        <ele>405</ele>
        <time>2018-06-03T07:55:36.000Z</time>
      </trkpt>
      <trkpt lat="44.56359" lon="4.23918">
        <ele>402</ele>
        <time>2018-06-03T07:55:37.000Z</time>
      </trkpt>
      <trkpt lat="44.56359" lon="4.23919">
        <ele>402</ele>
        <time>2018-06-03T07:55:38.000Z</time>
      </trkpt>
      <trkpt lat="44.56359" lon="4.23919">
        <ele>402</ele>
        <time>2018-06-03T07:55:39.000Z</time>
      </trkpt>
      <trkpt lat="44.56359" lon="4.23919">
        <ele>402</ele>
        <time>2018-06-03T07:55:40.000Z</time>
      </trkpt>
      <trkpt lat="44.56359" lon="4.23919">
        <ele>402</ele>
        <time>2018-06-03T07:55:41.000Z</time>
      </trkpt>
      <trkpt lat="44.56359" lon="4.23919">
        <ele>402</ele>
        <time>2018-06-03T07:55:42.000Z</time>
      </trkpt>
      <trkpt lat="44.56359" lon="4.2392">
        <ele>402</ele>
        <time>2018-06-03T07:55:43.000Z</time>
      </trkpt>
      <trkpt lat="44.56359" lon="4.2392">
        <ele>402</ele>
        <time>2018-06-03T07:55:44.000Z</time>
      </trkpt>
      <trkpt lat="44.56359" lon="4.2392">
        <ele>402</ele>
        <time>2018-06-03T07:55:45.000Z</time>
      </trkpt>
      <trkpt lat="44.56359" lon="4.2392">
        <ele>402</ele>
        <time>2018-06-03T07:55:46.000Z</time>
      </trkpt>
      <trkpt lat="44.56359" lon="4.2392">
        <ele>402</ele>
        <time>2018-06-03T07:55:47.000Z</time>
      </trkpt>
      <trkpt lat="44.56358" lon="4.2392">
        <ele>402</ele>
        <time>2018-06-03T07:55:48.000Z</time>
      </trkpt>
      <trkpt lat="44.56358" lon="4.2392">
        <ele>402</ele>
        <time>2018-06-03T07:55:49.000Z</time>
      </trkpt>
      <trkpt lat="44.56358" lon="4.2392">
        <ele>402</ele>
        <time>2018-06-03T07:55:50.000Z</time>
      </trkpt>
      <trkpt lat="44.56359" lon="4.23921">
        <ele>402</ele>
        <time>2018-06-03T07:55:51.000Z</time>
      </trkpt>
      <trkpt lat="44.56359" lon="4.23921">
        <ele>402</ele>
        <time>2018-06-03T07:55:52.000Z</time>
      </trkpt>
      <trkpt lat="44.5636" lon="4.23922">
        <ele>402</ele>
        <time>2018-06-03T07:55:53.000Z</time>
      </trkpt>
      <trkpt lat="44.56361" lon="4.23922">
        <ele>402</ele>
        <time>2018-06-03T07:55:54.000Z</time>
      </trkpt>
      <trkpt lat="44.56362" lon="4.23922">
        <ele>403</ele>
        <time>2018-06-03T07:55:55.000Z</time>
      </trkpt>
      <trkpt lat="44.56363" lon="4.2392">
        <ele>403</ele>
        <time>2018-06-03T07:55:56.000Z</time>
      </trkpt>
      <trkpt lat="44.56364" lon="4.23917">
        <ele>403</ele>
        <time>2018-06-03T07:55:57.000Z</time>
      </trkpt>
      <trkpt lat="44.56365" lon="4.23914">
        <ele>406</ele>
        <time>2018-06-03T07:55:58.000Z</time>
      </trkpt>
      <trkpt lat="44.56364" lon="4.23911">
        <ele>406</ele>
        <time>2018-06-03T07:55:59.000Z</time>
      </trkpt>
      <trkpt lat="44.56363" lon="4.23908">
        <ele>406</ele>
        <time>2018-06-03T07:56:00.000Z</time>
      </trkpt>
      <trkpt lat="44.56361" lon="4.23905">
        <ele>406</ele>
        <time>2018-06-03T07:56:01.000Z</time>
      </trkpt>
      <trkpt lat="44.5636" lon="4.23903">
        <ele>406</ele>
        <time>2018-06-03T07:56:02.000Z</time>
      </trkpt>
      <trkpt lat="44.56358" lon="4.23901">
        <ele>405</ele>
        <time>2018-06-03T07:56:03.000Z</time>
      </trkpt>
      <trkpt lat="44.56357" lon="4.23898">
        <ele>405</ele>
        <time>2018-06-03T07:56:04.000Z</time>
      </trkpt>
      <trkpt lat="44.56355" lon="4.23896">
        <ele>405</ele>
        <time>2018-06-03T07:56:05.000Z</time>
      </trkpt>
      <trkpt lat="44.56354" lon="4.23894">
        <ele>405</ele>
        <time>2018-06-03T07:56:06.000Z</time>
      </trkpt>
      <trkpt lat="44.56352" lon="4.23892">
        <ele>405</ele>
        <time>2018-06-03T07:56:07.000Z</time>
      </trkpt>
      <trkpt lat="44.56351" lon="4.23889">
        <ele>405</ele>
        <time>2018-06-03T07:56:08.000Z</time>
      </trkpt>
      <trkpt lat="44.5635" lon="4.23886">
        <ele>406</ele>
        <time>2018-06-03T07:56:09.000Z</time>
      </trkpt>
      <trkpt lat="44.5635" lon="4.23883">
        <ele>406</ele>
        <time>2018-06-03T07:56:10.000Z</time>
      </trkpt>
      <trkpt lat="44.5635" lon="4.2388">
        <ele>406</ele>
        <time>2018-06-03T07:56:11.000Z</time>
      </trkpt>
      <trkpt lat="44.56351" lon="4.23877">
        <ele>406</ele>
        <time>2018-06-03T07:56:12.000Z</time>
      </trkpt>
      <trkpt lat="44.56352" lon="4.23874">
        <ele>406</ele>
        <time>2018-06-03T07:56:13.000Z</time>
      </trkpt>
      <trkpt lat="44.56353" lon="4.23872">
        <ele>406</ele>
        <time>2018-06-03T07:56:14.000Z</time>
      </trkpt>
      <trkpt lat="44.56355" lon="4.2387">
        <ele>406</ele>
        <time>2018-06-03T07:56:15.000Z</time>
      </trkpt>
      <trkpt lat="44.56357" lon="4.23868">
        <ele>406</ele>
        <time>2018-06-03T07:56:16.000Z</time>
      </trkpt>
      <trkpt lat="44.56359" lon="4.23867">
        <ele>406</ele>
        <time>2018-06-03T07:56:17.000Z</time>
      </trkpt>
      <trkpt lat="44.56361" lon="4.23866">
        <ele>406</ele>
        <time>2018-06-03T07:56:18.000Z</time>
      </trkpt>
      <trkpt lat="44.56363" lon="4.23866">
        <ele>407</ele>
        <time>2018-06-03T07:56:19.000Z</time>
      </trkpt>
      <trkpt lat="44.56366" lon="4.23865">
        <ele>407</ele>
        <time>2018-06-03T07:56:20.000Z</time>
      </trkpt>
      <trkpt lat="44.56368" lon="4.23864">
        <ele>407</ele>
        <time>2018-06-03T07:56:21.000Z</time>
      </trkpt>
      <trkpt lat="44.56371" lon="4.23864">
        <ele>407</ele>
        <time>2018-06-03T07:56:22.000Z</time>
      </trkpt>
      <trkpt lat="44.56373" lon="4.23863">
        <ele>407</ele>
        <time>2018-06-03T07:56:23.000Z</time>
      </trkpt>
      <trkpt lat="44.56375" lon="4.23862">
        <ele>407</ele>
        <time>2018-06-03T07:56:24.000Z</time>
      </trkpt>
      <trkpt lat="44.56378" lon="4.23862">
        <ele>408</ele>
        <time>2018-06-03T07:56:25.000Z</time>
      </trkpt>
      <trkpt lat="44.5638" lon="4.23861">
        <ele>408</ele>
        <time>2018-06-03T07:56:26.000Z</time>
      </trkpt>
      <trkpt lat="44.56382" lon="4.23859">
        <ele>408</ele>
        <time>2018-06-03T07:56:27.000Z</time>
      </trkpt>
      <trkpt lat="44.56384" lon="4.23858">
        <ele>408</ele>
        <time>2018-06-03T07:56:28.000Z</time>
      </trkpt>
      <trkpt lat="44.56387" lon="4.23857">
        <ele>408</ele>
        <time>2018-06-03T07:56:29.000Z</time>
      </trkpt>
      <trkpt lat="44.56389" lon="4.23855">
        <ele>409</ele>
        <time>2018-06-03T07:56:30.000Z</time>
      </trkpt>
      <trkpt lat="44.56391" lon="4.23854">
        <ele>409</ele>
        <time>2018-06-03T07:56:31.000Z</time>
      </trkpt>
      <trkpt lat="44.56393" lon="4.23853">
        <ele>409</ele>
        <time>2018-06-03T07:56:32.000Z</time>
      </trkpt>
      <trkpt lat="44.56395" lon="4.23852">
        <ele>409</ele>
        <time>2018-06-03T07:56:33.000Z</time>
      </trkpt>
      <trkpt lat="44.56397" lon="4.23851">
        <ele>409</ele>
        <time>2018-06-03T07:56:34.000Z</time>
      </trkpt>
      <trkpt lat="44.56398" lon="4.23849">
        <ele>410</ele>
        <time>2018-06-03T07:56:35.000Z</time>
      </trkpt>
      <trkpt lat="44.564" lon="4.23848">
        <ele>410</ele>
        <time>2018-06-03T07:56:36.000Z</time>
      </trkpt>
      <trkpt lat="44.56402" lon="4.23846">
        <ele>410</ele>
        <time>2018-06-03T07:56:37.000Z</time>
      </trkpt>
      <trkpt lat="44.56403" lon="4.23845">
        <ele>411</ele>
        <time>2018-06-03T07:56:38.000Z</time>
      </trkpt>
      <trkpt lat="44.56405" lon="4.23843">
        <ele>411</ele>
        <time>2018-06-03T07:56:39.000Z</time>
      </trkpt>
      <trkpt lat="44.56407" lon="4.23841">
        <ele>411</ele>
        <time>2018-06-03T07:56:40.000Z</time>
      </trkpt>
      <trkpt lat="44.56409" lon="4.23839">
        <ele>412</ele>
        <time>2018-06-03T07:56:41.000Z</time>
      </trkpt>
      <trkpt lat="44.56411" lon="4.23837">
        <ele>412</ele>
        <time>2018-06-03T07:56:42.000Z</time>
      </trkpt>
      <trkpt lat="44.56413" lon="4.23836">
        <ele>413</ele>
        <time>2018-06-03T07:56:43.000Z</time>
      </trkpt>
      <trkpt lat="44.56415" lon="4.23834">
        <ele>413</ele>
        <time>2018-06-03T07:56:44.000Z</time>
      </trkpt>
      <trkpt lat="44.56417" lon="4.23833">
        <ele>414</ele>
        <time>2018-06-03T07:56:45.000Z</time>
      </trkpt>
      <trkpt lat="44.56419" lon="4.23831">
        <ele>415</ele>
        <time>2018-06-03T07:56:46.000Z</time>
      </trkpt>
      <trkpt lat="44.5642" lon="4.2383">
        <ele>415</ele>
        <time>2018-06-03T07:56:47.000Z</time>
      </trkpt>
      <trkpt lat="44.56422" lon="4.23829">
        <ele>415</ele>
        <time>2018-06-03T07:56:48.000Z</time>
      </trkpt>
      <trkpt lat="44.56423" lon="4.23828">
        <ele>415</ele>
        <time>2018-06-03T07:56:49.000Z</time>
      </trkpt>
      <trkpt lat="44.56425" lon="4.23827">
        <ele>416</ele>
        <time>2018-06-03T07:56:50.000Z</time>
      </trkpt>
      <trkpt lat="44.56427" lon="4.23826">
        <ele>416</ele>
        <time>2018-06-03T07:56:51.000Z</time>
      </trkpt>
      <trkpt lat="44.56429" lon="4.23825">
        <ele>416</ele>
        <time>2018-06-03T07:56:52.000Z</time>
      </trkpt>
      <trkpt lat="44.56431" lon="4.23824">
        <ele>416</ele>
        <time>2018-06-03T07:56:53.000Z</time>
      </trkpt>
      <trkpt lat="44.56433" lon="4.23824">
        <ele>417</ele>
        <time>2018-06-03T07:56:54.000Z</time>
      </trkpt>
      <trkpt lat="44.56435" lon="4.23823">
        <ele>417</ele>
        <time>2018-06-03T07:56:55.000Z</time>
      </trkpt>
      <trkpt lat="44.56437" lon="4.23822">
        <ele>417</ele>
        <time>2018-06-03T07:56:56.000Z</time>
      </trkpt>
      <trkpt lat="44.56439" lon="4.23821">
        <ele>417</ele>
        <time>2018-06-03T07:56:57.000Z</time>
      </trkpt>
      <trkpt lat="44.56441" lon="4.2382">
        <ele>418</ele>
        <time>2018-06-03T07:56:58.000Z</time>
      </trkpt>
      <trkpt lat="44.56444" lon="4.2382">
        <ele>418</ele>
        <time>2018-06-03T07:56:59.000Z</time>
      </trkpt>
      <trkpt lat="44.56446" lon="4.23819">
        <ele>418</ele>
        <time>2018-06-03T07:57:00.000Z</time>
      </trkpt>
      <trkpt lat="44.56448" lon="4.23819">
        <ele>418</ele>
        <time>2018-06-03T07:57:01.000Z</time>
      </trkpt>
      <trkpt lat="44.5645" lon="4.23818">
        <ele>418</ele>
        <time>2018-06-03T07:57:02.000Z</time>
      </trkpt>
      <trkpt lat="44.56452" lon="4.23817">
        <ele>419</ele>
        <time>2018-06-03T07:57:03.000Z</time>
      </trkpt>
      <trkpt lat="44.56454" lon="4.23815">
        <ele>419</ele>
        <time>2018-06-03T07:57:04.000Z</time>
      </trkpt>
      <trkpt lat="44.56456" lon="4.23814">
        <ele>419</ele>
        <time>2018-06-03T07:57:05.000Z</time>
      </trkpt>
      <trkpt lat="44.56459" lon="4.23813">
        <ele>419</ele>
        <time>2018-06-03T07:57:06.000Z</time>
      </trkpt>
      <trkpt lat="44.56461" lon="4.23812">
        <ele>419</ele>
        <time>2018-06-03T07:57:07.000Z</time>
      </trkpt>
      <trkpt lat="44.56464" lon="4.2381">
        <ele>420</ele>
        <time>2018-06-03T07:57:08.000Z</time>
      </trkpt>
      <trkpt lat="44.56466" lon="4.23809">
        <ele>420</ele>
        <time>2018-06-03T07:57:09.000Z</time>
      </trkpt>
      <trkpt lat="44.56468" lon="4.23808">
        <ele>420</ele>
        <time>2018-06-03T07:57:10.000Z</time>
      </trkpt>
      <trkpt lat="44.5647" lon="4.23806">
        <ele>420</ele>
        <time>2018-06-03T07:57:11.000Z</time>
      </trkpt>
      <trkpt lat="44.56472" lon="4.23805">
        <ele>420</ele>
        <time>2018-06-03T07:57:12.000Z</time>
      </trkpt>
      <trkpt lat="44.56474" lon="4.23804">
        <ele>420</ele>
        <time>2018-06-03T07:57:13.000Z</time>
      </trkpt>
      <trkpt lat="44.56476" lon="4.23802">
        <ele>420</ele>
        <time>2018-06-03T07:57:14.000Z</time>
      </trkpt>
      <trkpt lat="44.56479" lon="4.23801">
        <ele>420</ele>
        <time>2018-06-03T07:57:15.000Z</time>
      </trkpt>
      <trkpt lat="44.56481" lon="4.23799">
        <ele>420</ele>
        <time>2018-06-03T07:57:16.000Z</time>
      </trkpt>
      <trkpt lat="44.56483" lon="4.23798">
        <ele>421</ele>
        <time>2018-06-03T07:57:17.000Z</time>
      </trkpt>
      <trkpt lat="44.56486" lon="4.23797">
        <ele>421</ele>
        <time>2018-06-03T07:57:18.000Z</time>
      </trkpt>
      <trkpt lat="44.56488" lon="4.23796">
        <ele>421</ele>
        <time>2018-06-03T07:57:19.000Z</time>
      </trkpt>
      <trkpt lat="44.56491" lon="4.23795">
        <ele>421</ele>
        <time>2018-06-03T07:57:20.000Z</time>
      </trkpt>
      <trkpt lat="44.56493" lon="4.23795">
        <ele>421</ele>
        <time>2018-06-03T07:57:21.000Z</time>
      </trkpt>
      <trkpt lat="44.56496" lon="4.23794">
        <ele>421</ele>
        <time>2018-06-03T07:57:22.000Z</time>
      </trkpt>
      <trkpt lat="44.56499" lon="4.23795">
        <ele>421</ele>
        <time>2018-06-03T07:57:23.000Z</time>
      </trkpt>
      <trkpt lat="44.56502" lon="4.23795">
        <ele>429</ele>
        <time>2018-06-03T07:57:24.000Z</time>
      </trkpt>
      <trkpt lat="44.56505" lon="4.23796">
        <ele>429</ele>
        <time>2018-06-03T07:57:25.000Z</time>
      </trkpt>
      <trkpt lat="44.56508" lon="4.23796">
        <ele>429</ele>
        <time>2018-06-03T07:57:26.000Z</time>
      </trkpt>
      <trkpt lat="44.56511" lon="4.23796">
        <ele>429</ele>
        <time>2018-06-03T07:57:27.000Z</time>
      </trkpt>
      <trkpt lat="44.56514" lon="4.23797">
        <ele>429</ele>
        <time>2018-06-03T07:57:28.000Z</time>
      </trkpt>
      <trkpt lat="44.56518" lon="4.23796">
        <ele>429</ele>
        <time>2018-06-03T07:57:29.000Z</time>
      </trkpt>
      <trkpt lat="44.56522" lon="4.23795">
        <ele>430</ele>
        <time>2018-06-03T07:57:30.000Z</time>
      </trkpt>
      <trkpt lat="44.56525" lon="4.23793">
        <ele>430</ele>
        <time>2018-06-03T07:57:31.000Z</time>
      </trkpt>
      <trkpt lat="44.56528" lon="4.2379">
        <ele>430</ele>
        <time>2018-06-03T07:57:32.000Z</time>
      </trkpt>
      <trkpt lat="44.56531" lon="4.23787">
        <ele>430</ele>
        <time>2018-06-03T07:57:33.000Z</time>
      </trkpt>
      <trkpt lat="44.56533" lon="4.23783">
        <ele>430</ele>
        <time>2018-06-03T07:57:34.000Z</time>
      </trkpt>
      <trkpt lat="44.56534" lon="4.2378">
        <ele>430</ele>
        <time>2018-06-03T07:57:35.000Z</time>
      </trkpt>
      <trkpt lat="44.56535" lon="4.23777">
        <ele>430</ele>
        <time>2018-06-03T07:57:36.000Z</time>
      </trkpt>
      <trkpt lat="44.56537" lon="4.23773">
        <ele>430</ele>
        <time>2018-06-03T07:57:37.000Z</time>
      </trkpt>
      <trkpt lat="44.56538" lon="4.2377">
        <ele>430</ele>
        <time>2018-06-03T07:57:38.000Z</time>
      </trkpt>
      <trkpt lat="44.56539" lon="4.23768">
        <ele>430</ele>
        <time>2018-06-03T07:57:39.000Z</time>
      </trkpt>
      <trkpt lat="44.5654" lon="4.23765">
        <ele>430</ele>
        <time>2018-06-03T07:57:40.000Z</time>
      </trkpt>
      <trkpt lat="44.5654" lon="4.23761">
        <ele>430</ele>
        <time>2018-06-03T07:57:41.000Z</time>
      </trkpt>
      <trkpt lat="44.56541" lon="4.23758">
        <ele>430</ele>
        <time>2018-06-03T07:57:42.000Z</time>
      </trkpt>
      <trkpt lat="44.56542" lon="4.23754">
        <ele>430</ele>
        <time>2018-06-03T07:57:43.000Z</time>
      </trkpt>
      <trkpt lat="44.56542" lon="4.2375">
        <ele>430</ele>
        <time>2018-06-03T07:57:44.000Z</time>
      </trkpt>
      <trkpt lat="44.56542" lon="4.23746">
        <ele>428</ele>
        <time>2018-06-03T07:57:45.000Z</time>
      </trkpt>
      <trkpt lat="44.56542" lon="4.23742">
        <ele>428</ele>
        <time>2018-06-03T07:57:46.000Z</time>
      </trkpt>
      <trkpt lat="44.56542" lon="4.23738">
        <ele>428</ele>
        <time>2018-06-03T07:57:47.000Z</time>
      </trkpt>
      <trkpt lat="44.56541" lon="4.23734">
        <ele>428</ele>
        <time>2018-06-03T07:57:48.000Z</time>
      </trkpt>
      <trkpt lat="44.56541" lon="4.2373">
        <ele>428</ele>
        <time>2018-06-03T07:57:49.000Z</time>
      </trkpt>
      <trkpt lat="44.5654" lon="4.23726">
        <ele>428</ele>
        <time>2018-06-03T07:57:50.000Z</time>
      </trkpt>
      <trkpt lat="44.56539" lon="4.23723">
        <ele>428</ele>
        <time>2018-06-03T07:57:51.000Z</time>
      </trkpt>
      <trkpt lat="44.56538" lon="4.23719">
        <ele>428</ele>
        <time>2018-06-03T07:57:52.000Z</time>
      </trkpt>
      <trkpt lat="44.56538" lon="4.23715">
        <ele>428</ele>
        <time>2018-06-03T07:57:53.000Z</time>
      </trkpt>
      <trkpt lat="44.56539" lon="4.23711">
        <ele>428</ele>
        <time>2018-06-03T07:57:54.000Z</time>
      </trkpt>
      <trkpt lat="44.5654" lon="4.23708">
        <ele>428</ele>
        <time>2018-06-03T07:57:55.000Z</time>
      </trkpt>
      <trkpt lat="44.56542" lon="4.23705">
        <ele>428</ele>
        <time>2018-06-03T07:57:56.000Z</time>
      </trkpt>
      <trkpt lat="44.56544" lon="4.23704">
        <ele>428</ele>
        <time>2018-06-03T07:57:57.000Z</time>
      </trkpt>
      <trkpt lat="44.56546" lon="4.23702">
        <ele>428</ele>
        <time>2018-06-03T07:57:58.000Z</time>
      </trkpt>
      <trkpt lat="44.56548" lon="4.23701">
        <ele>428</ele>
        <time>2018-06-03T07:57:59.000Z</time>
      </trkpt>
      <trkpt lat="44.5655" lon="4.237">
        <ele>429</ele>
        <time>2018-06-03T07:58:00.000Z</time>
      </trkpt>
      <trkpt lat="44.56553" lon="4.23699">
        <ele>429</ele>
        <time>2018-06-03T07:58:01.000Z</time>
      </trkpt>
      <trkpt lat="44.56555" lon="4.23699">
        <ele>429</ele>
        <time>2018-06-03T07:58:02.000Z</time>
      </trkpt>
      <trkpt lat="44.56558" lon="4.23701">
        <ele>429</ele>
        <time>2018-06-03T07:58:03.000Z</time>
      </trkpt>
      <trkpt lat="44.5656" lon="4.23702">
        <ele>429</ele>
        <time>2018-06-03T07:58:04.000Z</time>
      </trkpt>
      <trkpt lat="44.56562" lon="4.23705">
        <ele>430</ele>
        <time>2018-06-03T07:58:05.000Z</time>
      </trkpt>
      <trkpt lat="44.56564" lon="4.23708">
        <ele>430</ele>
        <time>2018-06-03T07:58:06.000Z</time>
      </trkpt>
      <trkpt lat="44.56567" lon="4.23711">
        <ele>430</ele>
        <time>2018-06-03T07:58:07.000Z</time>
      </trkpt>
      <trkpt lat="44.56569" lon="4.23714">
        <ele>430</ele>
        <time>2018-06-03T07:58:08.000Z</time>
      </trkpt>
      <trkpt lat="44.56571" lon="4.23718">
        <ele>430</ele>
        <time>2018-06-03T07:58:09.000Z</time>
      </trkpt>
      <trkpt lat="44.56573" lon="4.23722">
        <ele>431</ele>
        <time>2018-06-03T07:58:10.000Z</time>
      </trkpt>
      <trkpt lat="44.56576" lon="4.23726">
        <ele>431</ele>
        <time>2018-06-03T07:58:11.000Z</time>
      </trkpt>
      <trkpt lat="44.56578" lon="4.2373">
        <ele>432</ele>
        <time>2018-06-03T07:58:12.000Z</time>
      </trkpt>
      <trkpt lat="44.56581" lon="4.23733">
        <ele>432</ele>
        <time>2018-06-03T07:58:13.000Z</time>
      </trkpt>
      <trkpt lat="44.56583" lon="4.23737">
        <ele>433</ele>
        <time>2018-06-03T07:58:14.000Z</time>
      </trkpt>
      <trkpt lat="44.56586" lon="4.23741">
        <ele>436</ele>
        <time>2018-06-03T07:58:15.000Z</time>
      </trkpt>
      <trkpt lat="44.56588" lon="4.23745">
        <ele>436</ele>
        <time>2018-06-03T07:58:16.000Z</time>
      </trkpt>
      <trkpt lat="44.56591" lon="4.23749">
        <ele>436</ele>
        <time>2018-06-03T07:58:17.000Z</time>
      </trkpt>
      <trkpt lat="44.56593" lon="4.23753">
        <ele>437</ele>
        <time>2018-06-03T07:58:18.000Z</time>
      </trkpt>
      <trkpt lat="44.56595" lon="4.23757">
        <ele>438</ele>
        <time>2018-06-03T07:58:19.000Z</time>
      </trkpt>
      <trkpt lat="44.56597" lon="4.23761">
        <ele>438</ele>
        <time>2018-06-03T07:58:20.000Z</time>
      </trkpt>
      <trkpt lat="44.56599" lon="4.23765">
        <ele>439</ele>
        <time>2018-06-03T07:58:21.000Z</time>
      </trkpt>
      <trkpt lat="44.56601" lon="4.23769">
        <ele>439</ele>
        <time>2018-06-03T07:58:22.000Z</time>
      </trkpt>
      <trkpt lat="44.56603" lon="4.23773">
        <ele>439</ele>
        <time>2018-06-03T07:58:23.000Z</time>
      </trkpt>
      <trkpt lat="44.56605" lon="4.23778">
        <ele>439</ele>
        <time>2018-06-03T07:58:24.000Z</time>
      </trkpt>
      <trkpt lat="44.56607" lon="4.23782">
        <ele>440</ele>
        <time>2018-06-03T07:58:25.000Z</time>
      </trkpt>
      <trkpt lat="44.56609" lon="4.23787">
        <ele>440</ele>
        <time>2018-06-03T07:58:26.000Z</time>
      </trkpt>
      <trkpt lat="44.56611" lon="4.23791">
        <ele>440</ele>
        <time>2018-06-03T07:58:27.000Z</time>
      </trkpt>
      <trkpt lat="44.56613" lon="4.23796">
        <ele>440</ele>
        <time>2018-06-03T07:58:28.000Z</time>
      </trkpt>
      <trkpt lat="44.56615" lon="4.238">
        <ele>440</ele>
        <time>2018-06-03T07:58:29.000Z</time>
      </trkpt>
      <trkpt lat="44.56618" lon="4.23805">
        <ele>441</ele>
        <time>2018-06-03T07:58:30.000Z</time>
      </trkpt>
      <trkpt lat="44.5662" lon="4.23809">
        <ele>441</ele>
        <time>2018-06-03T07:58:31.000Z</time>
      </trkpt>
      <trkpt lat="44.56623" lon="4.23813">
        <ele>441</ele>
        <time>2018-06-03T07:58:32.000Z</time>
      </trkpt>
      <trkpt lat="44.56626" lon="4.23817">
        <ele>441</ele>
        <time>2018-06-03T07:58:33.000Z</time>
      </trkpt>
      <trkpt lat="44.56629" lon="4.2382">
        <ele>441</ele>
        <time>2018-06-03T07:58:34.000Z</time>
      </trkpt>
      <trkpt lat="44.56632" lon="4.23823">
        <ele>442</ele>
        <time>2018-06-03T07:58:35.000Z</time>
      </trkpt>
      <trkpt lat="44.56635" lon="4.23825">
        <ele>442</ele>
        <time>2018-06-03T07:58:36.000Z</time>
      </trkpt>
      <trkpt lat="44.56638" lon="4.23828">
        <ele>442</ele>
        <time>2018-06-03T07:58:37.000Z</time>
      </trkpt>
      <trkpt lat="44.56641" lon="4.2383">
        <ele>442</ele>
        <time>2018-06-03T07:58:38.000Z</time>
      </trkpt>
      <trkpt lat="44.56644" lon="4.23832">
        <ele>443</ele>
        <time>2018-06-03T07:58:39.000Z</time>
      </trkpt>
      <trkpt lat="44.56647" lon="4.23833">
        <ele>443</ele>
        <time>2018-06-03T07:58:40.000Z</time>
      </trkpt>
      <trkpt lat="44.5665" lon="4.23835">
        <ele>445</ele>
        <time>2018-06-03T07:58:41.000Z</time>
      </trkpt>
      <trkpt lat="44.56653" lon="4.23836">
        <ele>445</ele>
        <time>2018-06-03T07:58:42.000Z</time>
      </trkpt>
      <trkpt lat="44.56655" lon="4.23838">
        <ele>445</ele>
        <time>2018-06-03T07:58:43.000Z</time>
      </trkpt>
      <trkpt lat="44.56658" lon="4.23839">
        <ele>445</ele>
        <time>2018-06-03T07:58:44.000Z</time>
      </trkpt>
      <trkpt lat="44.5666" lon="4.2384">
        <ele>445</ele>
        <time>2018-06-03T07:58:45.000Z</time>
      </trkpt>
      <trkpt lat="44.56663" lon="4.23841">
        <ele>445</ele>
        <time>2018-06-03T07:58:46.000Z</time>
      </trkpt>
      <trkpt lat="44.56665" lon="4.23842">
        <ele>445</ele>
        <time>2018-06-03T07:58:47.000Z</time>
      </trkpt>
      <trkpt lat="44.56668" lon="4.23844">
        <ele>448</ele>
        <time>2018-06-03T07:58:48.000Z</time>
      </trkpt>
      <trkpt lat="44.5667" lon="4.23845">
        <ele>448</ele>
        <time>2018-06-03T07:58:49.000Z</time>
      </trkpt>
      <trkpt lat="44.56672" lon="4.23846">
        <ele>448</ele>
        <time>2018-06-03T07:58:50.000Z</time>
      </trkpt>
      <trkpt lat="44.56675" lon="4.23846">
        <ele>449</ele>
        <time>2018-06-03T07:58:51.000Z</time>
      </trkpt>
      <trkpt lat="44.56677" lon="4.23846">
        <ele>449</ele>
        <time>2018-06-03T07:58:52.000Z</time>
      </trkpt>
      <trkpt lat="44.5668" lon="4.23847">
        <ele>449</ele>
        <time>2018-06-03T07:58:53.000Z</time>
      </trkpt>
      <trkpt lat="44.56682" lon="4.23846">
        <ele>449</ele>
        <time>2018-06-03T07:58:54.000Z</time>
      </trkpt>
      <trkpt lat="44.56685" lon="4.23846">
        <ele>449</ele>
        <time>2018-06-03T07:58:55.000Z</time>
      </trkpt>
      <trkpt lat="44.56688" lon="4.23845">
        <ele>450</ele>
        <time>2018-06-03T07:58:56.000Z</time>
      </trkpt>
      <trkpt lat="44.56691" lon="4.23844">
        <ele>450</ele>
        <time>2018-06-03T07:58:57.000Z</time>
      </trkpt>
      <trkpt lat="44.56693" lon="4.23844">
        <ele>450</ele>
        <time>2018-06-03T07:58:58.000Z</time>
      </trkpt>
      <trkpt lat="44.56696" lon="4.23843">
        <ele>450</ele>
        <time>2018-06-03T07:58:59.000Z</time>
      </trkpt>
      <trkpt lat="44.56698" lon="4.23843">
        <ele>451</ele>
        <time>2018-06-03T07:59:00.000Z</time>
      </trkpt>
      <trkpt lat="44.56701" lon="4.23842">
        <ele>451</ele>
        <time>2018-06-03T07:59:01.000Z</time>
      </trkpt>
      <trkpt lat="44.56703" lon="4.23841">
        <ele>451</ele>
        <time>2018-06-03T07:59:02.000Z</time>
      </trkpt>
      <trkpt lat="44.56706" lon="4.2384">
        <ele>451</ele>
        <time>2018-06-03T07:59:03.000Z</time>
      </trkpt>
      <trkpt lat="44.56708" lon="4.23839">
        <ele>451</ele>
        <time>2018-06-03T07:59:04.000Z</time>
      </trkpt>
      <trkpt lat="44.56711" lon="4.23838">
        <ele>451</ele>
        <time>2018-06-03T07:59:05.000Z</time>
      </trkpt>
      <trkpt lat="44.56713" lon="4.23837">
        <ele>452</ele>
        <time>2018-06-03T07:59:06.000Z</time>
      </trkpt>
      <trkpt lat="44.56716" lon="4.23835">
        <ele>452</ele>
        <time>2018-06-03T07:59:07.000Z</time>
      </trkpt>
      <trkpt lat="44.56719" lon="4.23834">
        <ele>452</ele>
        <time>2018-06-03T07:59:08.000Z</time>
      </trkpt>
      <trkpt lat="44.56721" lon="4.23832">
        <ele>448</ele>
        <time>2018-06-03T07:59:09.000Z</time>
      </trkpt>
      <trkpt lat="44.56724" lon="4.23831">
        <ele>448</ele>
        <time>2018-06-03T07:59:10.000Z</time>
      </trkpt>
      <trkpt lat="44.56726" lon="4.2383">
        <ele>448</ele>
        <time>2018-06-03T07:59:11.000Z</time>
      </trkpt>
      <trkpt lat="44.56729" lon="4.23829">
        <ele>449</ele>
        <time>2018-06-03T07:59:12.000Z</time>
      </trkpt>
      <trkpt lat="44.56732" lon="4.23828">
        <ele>449</ele>
        <time>2018-06-03T07:59:13.000Z</time>
      </trkpt>
      <trkpt lat="44.56734" lon="4.23827">
        <ele>449</ele>
        <time>2018-06-03T07:59:14.000Z</time>
      </trkpt>
      <trkpt lat="44.56737" lon="4.23826">
        <ele>450</ele>
        <time>2018-06-03T07:59:15.000Z</time>
      </trkpt>
      <trkpt lat="44.5674" lon="4.23826">
        <ele>450</ele>
        <time>2018-06-03T07:59:16.000Z</time>
      </trkpt>
      <trkpt lat="44.56743" lon="4.23826">
        <ele>451</ele>
        <time>2018-06-03T07:59:17.000Z</time>
      </trkpt>
      <trkpt lat="44.56745" lon="4.23827">
        <ele>451</ele>
        <time>2018-06-03T07:59:18.000Z</time>
      </trkpt>
      <trkpt lat="44.56748" lon="4.23829">
        <ele>452</ele>
        <time>2018-06-03T07:59:19.000Z</time>
      </trkpt>
      <trkpt lat="44.5675" lon="4.2383">
        <ele>453</ele>
        <time>2018-06-03T07:59:20.000Z</time>
      </trkpt>
      <trkpt lat="44.56753" lon="4.23831">
        <ele>453</ele>
        <time>2018-06-03T07:59:21.000Z</time>
      </trkpt>
      <trkpt lat="44.56755" lon="4.23832">
        <ele>453</ele>
        <time>2018-06-03T07:59:22.000Z</time>
      </trkpt>
      <trkpt lat="44.56758" lon="4.23834">
        <ele>455</ele>
        <time>2018-06-03T07:59:23.000Z</time>
      </trkpt>
      <trkpt lat="44.5676" lon="4.23836">
        <ele>456</ele>
        <time>2018-06-03T07:59:24.000Z</time>
      </trkpt>
      <trkpt lat="44.56763" lon="4.23838">
        <ele>456</ele>
        <time>2018-06-03T07:59:25.000Z</time>
      </trkpt>
      <trkpt lat="44.56765" lon="4.2384">
        <ele>456</ele>
        <time>2018-06-03T07:59:26.000Z</time>
      </trkpt>
      <trkpt lat="44.56768" lon="4.23841">
        <ele>456</ele>
        <time>2018-06-03T07:59:27.000Z</time>
      </trkpt>
      <trkpt lat="44.5677" lon="4.23841">
        <ele>457</ele>
        <time>2018-06-03T07:59:28.000Z</time>
      </trkpt>
      <trkpt lat="44.56772" lon="4.23843">
        <ele>457</ele>
        <time>2018-06-03T07:59:29.000Z</time>
      </trkpt>
      <trkpt lat="44.56775" lon="4.23844">
        <ele>457</ele>
        <time>2018-06-03T07:59:30.000Z</time>
      </trkpt>
      <trkpt lat="44.56778" lon="4.23845">
        <ele>457</ele>
        <time>2018-06-03T07:59:31.000Z</time>
      </trkpt>
      <trkpt lat="44.56781" lon="4.23845">
        <ele>457</ele>
        <time>2018-06-03T07:59:32.000Z</time>
      </trkpt>
      <trkpt lat="44.56784" lon="4.23845">
        <ele>457</ele>
        <time>2018-06-03T07:59:33.000Z</time>
      </trkpt>
      <trkpt lat="44.56786" lon="4.23846">
        <ele>457</ele>
        <time>2018-06-03T07:59:34.000Z</time>
      </trkpt>
      <trkpt lat="44.56788" lon="4.23846">
        <ele>457</ele>
        <time>2018-06-03T07:59:35.000Z</time>
      </trkpt>
      <trkpt lat="44.56791" lon="4.23846">
        <ele>457</ele>
        <time>2018-06-03T07:59:36.000Z</time>
      </trkpt>
      <trkpt lat="44.56793" lon="4.23846">
        <ele>457</ele>
        <time>2018-06-03T07:59:37.000Z</time>
      </trkpt>
      <trkpt lat="44.56795" lon="4.23846">
        <ele>457</ele>
        <time>2018-06-03T07:59:38.000Z</time>
      </trkpt>
      <trkpt lat="44.56798" lon="4.23847">
        <ele>458</ele>
        <time>2018-06-03T07:59:39.000Z</time>
      </trkpt>
      <trkpt lat="44.568" lon="4.23847">
        <ele>458</ele>
        <time>2018-06-03T07:59:40.000Z</time>
      </trkpt>
      <trkpt lat="44.56802" lon="4.23848">
        <ele>458</ele>
        <time>2018-06-03T07:59:41.000Z</time>
      </trkpt>
      <trkpt lat="44.56805" lon="4.23848">
        <ele>458</ele>
        <time>2018-06-03T07:59:42.000Z</time>
      </trkpt>
      <trkpt lat="44.56807" lon="4.23849">
        <ele>458</ele>
        <time>2018-06-03T07:59:43.000Z</time>
      </trkpt>
      <trkpt lat="44.56809" lon="4.23849">
        <ele>458</ele>
        <time>2018-06-03T07:59:44.000Z</time>
      </trkpt>
      <trkpt lat="44.56811" lon="4.2385">
        <ele>457</ele>
        <time>2018-06-03T07:59:45.000Z</time>
      </trkpt>
      <trkpt lat="44.56813" lon="4.23851">
        <ele>458</ele>
        <time>2018-06-03T07:59:46.000Z</time>
      </trkpt>
      <trkpt lat="44.56815" lon="4.23852">
        <ele>458</ele>
        <time>2018-06-03T07:59:47.000Z</time>
      </trkpt>
      <trkpt lat="44.56817" lon="4.23853">
        <ele>458</ele>
        <time>2018-06-03T07:59:48.000Z</time>
      </trkpt>
      <trkpt lat="44.56819" lon="4.23855">
        <ele>458</ele>
        <time>2018-06-03T07:59:49.000Z</time>
      </trkpt>
      <trkpt lat="44.5682" lon="4.23857">
        <ele>458</ele>
        <time>2018-06-03T07:59:50.000Z</time>
      </trkpt>
      <trkpt lat="44.56822" lon="4.23858">
        <ele>458</ele>
        <time>2018-06-03T07:59:51.000Z</time>
      </trkpt>
      <trkpt lat="44.56824" lon="4.23859">
        <ele>458</ele>
        <time>2018-06-03T07:59:52.000Z</time>
      </trkpt>
      <trkpt lat="44.56826" lon="4.2386">
        <ele>458</ele>
        <time>2018-06-03T07:59:53.000Z</time>
      </trkpt>
      <trkpt lat="44.56828" lon="4.23861">
        <ele>458</ele>
        <time>2018-06-03T07:59:54.000Z</time>
      </trkpt>
      <trkpt lat="44.5683" lon="4.23863">
        <ele>458</ele>
        <time>2018-06-03T07:59:55.000Z</time>
      </trkpt>
      <trkpt lat="44.56832" lon="4.23865">
        <ele>458</ele>
        <time>2018-06-03T07:59:56.000Z</time>
      </trkpt>
      <trkpt lat="44.56833" lon="4.23868">
        <ele>459</ele>
        <time>2018-06-03T07:59:57.000Z</time>
      </trkpt>
      <trkpt lat="44.56835" lon="4.23872">
        <ele>457</ele>
        <time>2018-06-03T07:59:58.000Z</time>
      </trkpt>
      <trkpt lat="44.56836" lon="4.23876">
        <ele>458</ele>
        <time>2018-06-03T07:59:59.000Z</time>
      </trkpt>
      <trkpt lat="44.56837" lon="4.2388">
        <ele>458</ele>
        <time>2018-06-03T08:00:00.000Z</time>
      </trkpt>
      <trkpt lat="44.56838" lon="4.23884">
        <ele>458</ele>
        <time>2018-06-03T08:00:01.000Z</time>
      </trkpt>
      <trkpt lat="44.56839" lon="4.23888">
        <ele>459</ele>
        <time>2018-06-03T08:00:02.000Z</time>
      </trkpt>
      <trkpt lat="44.56839" lon="4.23892">
        <ele>459</ele>
        <time>2018-06-03T08:00:03.000Z</time>
      </trkpt>
      <trkpt lat="44.5684" lon="4.23895">
        <ele>460</ele>
        <time>2018-06-03T08:00:04.000Z</time>
      </trkpt>
      <trkpt lat="44.56841" lon="4.23897">
        <ele>460</ele>
        <time>2018-06-03T08:00:05.000Z</time>
      </trkpt>
      <trkpt lat="44.56842" lon="4.23901">
        <ele>461</ele>
        <time>2018-06-03T08:00:06.000Z</time>
      </trkpt>
      <trkpt lat="44.56844" lon="4.23906">
        <ele>461</ele>
        <time>2018-06-03T08:00:07.000Z</time>
      </trkpt>
      <trkpt lat="44.56845" lon="4.2391">
        <ele>461</ele>
        <time>2018-06-03T08:00:08.000Z</time>
      </trkpt>
      <trkpt lat="44.56847" lon="4.23915">
        <ele>462</ele>
        <time>2018-06-03T08:00:09.000Z</time>
      </trkpt>
      <trkpt lat="44.56848" lon="4.2392">
        <ele>464</ele>
        <time>2018-06-03T08:00:10.000Z</time>
      </trkpt>
      <trkpt lat="44.5685" lon="4.23924">
        <ele>464</ele>
        <time>2018-06-03T08:00:11.000Z</time>
      </trkpt>
      <trkpt lat="44.56852" lon="4.23927">
        <ele>464</ele>
        <time>2018-06-03T08:00:12.000Z</time>
      </trkpt>
      <trkpt lat="44.56855" lon="4.2393">
        <ele>463</ele>
        <time>2018-06-03T08:00:13.000Z</time>
      </trkpt>
      <trkpt lat="44.56857" lon="4.23933">
        <ele>463</ele>
        <time>2018-06-03T08:00:14.000Z</time>
      </trkpt>
      <trkpt lat="44.5686" lon="4.23937">
        <ele>463</ele>
        <time>2018-06-03T08:00:15.000Z</time>
      </trkpt>
      <trkpt lat="44.56862" lon="4.23941">
        <ele>463</ele>
        <time>2018-06-03T08:00:16.000Z</time>
      </trkpt>
      <trkpt lat="44.56864" lon="4.23945">
        <ele>463</ele>
        <time>2018-06-03T08:00:17.000Z</time>
      </trkpt>
      <trkpt lat="44.56867" lon="4.23948">
        <ele>463</ele>
        <time>2018-06-03T08:00:18.000Z</time>
      </trkpt>
      <trkpt lat="44.56869" lon="4.23952">
        <ele>463</ele>
        <time>2018-06-03T08:00:19.000Z</time>
      </trkpt>
      <trkpt lat="44.56872" lon="4.23956">
        <ele>463</ele>
        <time>2018-06-03T08:00:20.000Z</time>
      </trkpt>
      <trkpt lat="44.56874" lon="4.23959">
        <ele>463</ele>
        <time>2018-06-03T08:00:21.000Z</time>
      </trkpt>
      <trkpt lat="44.56876" lon="4.23962">
        <ele>463</ele>
        <time>2018-06-03T08:00:22.000Z</time>
      </trkpt>
      <trkpt lat="44.56878" lon="4.23966">
        <ele>463</ele>
        <time>2018-06-03T08:00:23.000Z</time>
      </trkpt>
      <trkpt lat="44.5688" lon="4.23971">
        <ele>463</ele>
        <time>2018-06-03T08:00:24.000Z</time>
      </trkpt>
      <trkpt lat="44.56883" lon="4.23975">
        <ele>463</ele>
        <time>2018-06-03T08:00:25.000Z</time>
      </trkpt>
      <trkpt lat="44.56885" lon="4.23979">
        <ele>463</ele>
        <time>2018-06-03T08:00:26.000Z</time>
      </trkpt>
      <trkpt lat="44.56888" lon="4.23983">
        <ele>464</ele>
        <time>2018-06-03T08:00:27.000Z</time>
      </trkpt>
      <trkpt lat="44.56891" lon="4.23988">
        <ele>464</ele>
        <time>2018-06-03T08:00:28.000Z</time>
      </trkpt>
      <trkpt lat="44.56894" lon="4.23991">
        <ele>464</ele>
        <time>2018-06-03T08:00:29.000Z</time>
      </trkpt>
      <trkpt lat="44.56897" lon="4.23994">
        <ele>464</ele>
        <time>2018-06-03T08:00:30.000Z</time>
      </trkpt>
      <trkpt lat="44.56901" lon="4.23998">
        <ele>464</ele>
        <time>2018-06-03T08:00:31.000Z</time>
      </trkpt>
      <trkpt lat="44.56904" lon="4.24001">
        <ele>463</ele>
        <time>2018-06-03T08:00:32.000Z</time>
      </trkpt>
      <trkpt lat="44.56908" lon="4.24004">
        <ele>464</ele>
        <time>2018-06-03T08:00:33.000Z</time>
      </trkpt>
      <trkpt lat="44.56912" lon="4.24007">
        <ele>464</ele>
        <time>2018-06-03T08:00:34.000Z</time>
      </trkpt>
      <trkpt lat="44.56916" lon="4.24011">
        <ele>464</ele>
        <time>2018-06-03T08:00:35.000Z</time>
      </trkpt>
      <trkpt lat="44.56919" lon="4.24016">
        <ele>467</ele>
        <time>2018-06-03T08:00:36.000Z</time>
      </trkpt>
      <trkpt lat="44.56922" lon="4.24022">
        <ele>467</ele>
        <time>2018-06-03T08:00:37.000Z</time>
      </trkpt>
      <trkpt lat="44.56925" lon="4.24027">
        <ele>467</ele>
        <time>2018-06-03T08:00:38.000Z</time>
      </trkpt>
      <trkpt lat="44.56929" lon="4.24031">
        <ele>467</ele>
        <time>2018-06-03T08:00:39.000Z</time>
      </trkpt>
      <trkpt lat="44.56933" lon="4.24034">
        <ele>467</ele>
        <time>2018-06-03T08:00:40.000Z</time>
      </trkpt>
      <trkpt lat="44.56937" lon="4.24034">
        <ele>468</ele>
        <time>2018-06-03T08:00:41.000Z</time>
      </trkpt>
      <trkpt lat="44.56942" lon="4.24034">
        <ele>468</ele>
        <time>2018-06-03T08:00:42.000Z</time>
      </trkpt>
      <trkpt lat="44.56946" lon="4.24032">
        <ele>468</ele>
        <time>2018-06-03T08:00:43.000Z</time>
      </trkpt>
      <trkpt lat="44.5695" lon="4.24031">
        <ele>468</ele>
        <time>2018-06-03T08:00:44.000Z</time>
      </trkpt>
      <trkpt lat="44.56955" lon="4.24029">
        <ele>468</ele>
        <time>2018-06-03T08:00:45.000Z</time>
      </trkpt>
      <trkpt lat="44.56959" lon="4.24027">
        <ele>468</ele>
        <time>2018-06-03T08:00:46.000Z</time>
      </trkpt>
      <trkpt lat="44.56963" lon="4.24026">
        <ele>469</ele>
        <time>2018-06-03T08:00:47.000Z</time>
      </trkpt>
      <trkpt lat="44.56967" lon="4.24023">
        <ele>469</ele>
        <time>2018-06-03T08:00:48.000Z</time>
      </trkpt>
      <trkpt lat="44.56971" lon="4.24022">
        <ele>469</ele>
        <time>2018-06-03T08:00:49.000Z</time>
      </trkpt>
      <trkpt lat="44.56975" lon="4.24018">
        <ele>469</ele>
        <time>2018-06-03T08:00:50.000Z</time>
      </trkpt>
      <trkpt lat="44.56979" lon="4.24015">
        <ele>469</ele>
        <time>2018-06-03T08:00:51.000Z</time>
      </trkpt>
      <trkpt lat="44.56983" lon="4.2401">
        <ele>469</ele>
        <time>2018-06-03T08:00:52.000Z</time>
      </trkpt>
      <trkpt lat="44.56987" lon="4.24005">
        <ele>468</ele>
        <time>2018-06-03T08:00:53.000Z</time>
      </trkpt>
      <trkpt lat="44.56991" lon="4.24">
        <ele>466</ele>
        <time>2018-06-03T08:00:54.000Z</time>
      </trkpt>
      <trkpt lat="44.56995" lon="4.23994">
        <ele>467</ele>
        <time>2018-06-03T08:00:55.000Z</time>
      </trkpt>
      <trkpt lat="44.56998" lon="4.23989">
        <ele>466</ele>
        <time>2018-06-03T08:00:56.000Z</time>
      </trkpt>
      <trkpt lat="44.57002" lon="4.23983">
        <ele>468</ele>
        <time>2018-06-03T08:00:57.000Z</time>
      </trkpt>
      <trkpt lat="44.57006" lon="4.23977">
        <ele>468</ele>
        <time>2018-06-03T08:00:58.000Z</time>
      </trkpt>
      <trkpt lat="44.5701" lon="4.23971">
        <ele>468</ele>
        <time>2018-06-03T08:00:59.000Z</time>
      </trkpt>
      <trkpt lat="44.57014" lon="4.23965">
        <ele>467</ele>
        <time>2018-06-03T08:01:00.000Z</time>
      </trkpt>
      <trkpt lat="44.57018" lon="4.23959">
        <ele>467</ele>
        <time>2018-06-03T08:01:01.000Z</time>
      </trkpt>
      <trkpt lat="44.57021" lon="4.23952">
        <ele>467</ele>
        <time>2018-06-03T08:01:02.000Z</time>
      </trkpt>
      <trkpt lat="44.57024" lon="4.23945">
        <ele>466</ele>
        <time>2018-06-03T08:01:03.000Z</time>
      </trkpt>
      <trkpt lat="44.57027" lon="4.23937">
        <ele>466</ele>
        <time>2018-06-03T08:01:04.000Z</time>
      </trkpt>
      <trkpt lat="44.57029" lon="4.23929">
        <ele>465</ele>
        <time>2018-06-03T08:01:05.000Z</time>
      </trkpt>
      <trkpt lat="44.57029" lon="4.23921">
        <ele>465</ele>
        <time>2018-06-03T08:01:06.000Z</time>
      </trkpt>
      <trkpt lat="44.5703" lon="4.23912">
        <ele>459</ele>
        <time>2018-06-03T08:01:07.000Z</time>
      </trkpt>
      <trkpt lat="44.5703" lon="4.23904">
        <ele>459</ele>
        <time>2018-06-03T08:01:08.000Z</time>
      </trkpt>
      <trkpt lat="44.57031" lon="4.23895">
        <ele>459</ele>
        <time>2018-06-03T08:01:09.000Z</time>
      </trkpt>
      <trkpt lat="44.57034" lon="4.23887">
        <ele>459</ele>
        <time>2018-06-03T08:01:10.000Z</time>
      </trkpt>
      <trkpt lat="44.57037" lon="4.2388">
        <ele>459</ele>
        <time>2018-06-03T08:01:11.000Z</time>
      </trkpt>
      <trkpt lat="44.57042" lon="4.23874">
        <ele>459</ele>
        <time>2018-06-03T08:01:12.000Z</time>
      </trkpt>
      <trkpt lat="44.57047" lon="4.23869">
        <ele>459</ele>
        <time>2018-06-03T08:01:13.000Z</time>
      </trkpt>
      <trkpt lat="44.57052" lon="4.23864">
        <ele>459</ele>
        <time>2018-06-03T08:01:14.000Z</time>
      </trkpt>
      <trkpt lat="44.57056" lon="4.23859">
        <ele>459</ele>
        <time>2018-06-03T08:01:15.000Z</time>
      </trkpt>
      <trkpt lat="44.57061" lon="4.23854">
        <ele>459</ele>
        <time>2018-06-03T08:01:16.000Z</time>
      </trkpt>
      <trkpt lat="44.57065" lon="4.23849">
        <ele>459</ele>
        <time>2018-06-03T08:01:17.000Z</time>
      </trkpt>
      <trkpt lat="44.5707" lon="4.23844">
        <ele>459</ele>
        <time>2018-06-03T08:01:18.000Z</time>
      </trkpt>
      <trkpt lat="44.57074" lon="4.23839">
        <ele>459</ele>
        <time>2018-06-03T08:01:19.000Z</time>
      </trkpt>
      <trkpt lat="44.57078" lon="4.23833">
        <ele>457</ele>
        <time>2018-06-03T08:01:20.000Z</time>
      </trkpt>
      <trkpt lat="44.57082" lon="4.23827">
        <ele>457</ele>
        <time>2018-06-03T08:01:21.000Z</time>
      </trkpt>
      <trkpt lat="44.57085" lon="4.2382">
        <ele>457</ele>
        <time>2018-06-03T08:01:22.000Z</time>
      </trkpt>
      <trkpt lat="44.57089" lon="4.23813">
        <ele>457</ele>
        <time>2018-06-03T08:01:23.000Z</time>
      </trkpt>
      <trkpt lat="44.57092" lon="4.23806">
        <ele>456</ele>
        <time>2018-06-03T08:01:24.000Z</time>
      </trkpt>
      <trkpt lat="44.57096" lon="4.23799">
        <ele>455</ele>
        <time>2018-06-03T08:01:25.000Z</time>
      </trkpt>
      <trkpt lat="44.571" lon="4.23793">
        <ele>455</ele>
        <time>2018-06-03T08:01:26.000Z</time>
      </trkpt>
      <trkpt lat="44.57105" lon="4.23787">
        <ele>454</ele>
        <time>2018-06-03T08:01:27.000Z</time>
      </trkpt>
      <trkpt lat="44.5711" lon="4.23782">
        <ele>454</ele>
        <time>2018-06-03T08:01:28.000Z</time>
      </trkpt>
      <trkpt lat="44.57115" lon="4.23778">
        <ele>454</ele>
        <time>2018-06-03T08:01:29.000Z</time>
      </trkpt>
      <trkpt lat="44.57121" lon="4.23775">
        <ele>454</ele>
        <time>2018-06-03T08:01:30.000Z</time>
      </trkpt>
      <trkpt lat="44.57127" lon="4.23772">
        <ele>454</ele>
        <time>2018-06-03T08:01:31.000Z</time>
      </trkpt>
      <trkpt lat="44.57133" lon="4.2377">
        <ele>454</ele>
        <time>2018-06-03T08:01:32.000Z</time>
      </trkpt>
      <trkpt lat="44.5714" lon="4.23768">
        <ele>454</ele>
        <time>2018-06-03T08:01:33.000Z</time>
      </trkpt>
      <trkpt lat="44.57146" lon="4.23767">
        <ele>453</ele>
        <time>2018-06-03T08:01:34.000Z</time>
      </trkpt>
      <trkpt lat="44.57153" lon="4.23768">
        <ele>453</ele>
        <time>2018-06-03T08:01:35.000Z</time>
      </trkpt>
      <trkpt lat="44.5716" lon="4.2377">
        <ele>453</ele>
        <time>2018-06-03T08:01:36.000Z</time>
      </trkpt>
      <trkpt lat="44.57167" lon="4.23773">
        <ele>454</ele>
        <time>2018-06-03T08:01:37.000Z</time>
      </trkpt>
      <trkpt lat="44.57174" lon="4.23778">
        <ele>455</ele>
        <time>2018-06-03T08:01:38.000Z</time>
      </trkpt>
      <trkpt lat="44.57181" lon="4.23783">
        <ele>456</ele>
        <time>2018-06-03T08:01:39.000Z</time>
      </trkpt>
      <trkpt lat="44.57188" lon="4.23789">
        <ele>456</ele>
        <time>2018-06-03T08:01:40.000Z</time>
      </trkpt>
      <trkpt lat="44.57195" lon="4.23794">
        <ele>457</ele>
        <time>2018-06-03T08:01:41.000Z</time>
      </trkpt>
      <trkpt lat="44.57202" lon="4.23799">
        <ele>457</ele>
        <time>2018-06-03T08:01:42.000Z</time>
      </trkpt>
      <trkpt lat="44.5721" lon="4.23803">
        <ele>457</ele>
        <time>2018-06-03T08:01:43.000Z</time>
      </trkpt>
      <trkpt lat="44.57217" lon="4.23806">
        <ele>457</ele>
        <time>2018-06-03T08:01:44.000Z</time>
      </trkpt>
      <trkpt lat="44.57223" lon="4.23807">
        <ele>457</ele>
        <time>2018-06-03T08:01:45.000Z</time>
      </trkpt>
      <trkpt lat="44.57227" lon="4.23806">
        <ele>457</ele>
        <time>2018-06-03T08:01:46.000Z</time>
      </trkpt>
      <trkpt lat="44.5723" lon="4.23803">
        <ele>457</ele>
        <time>2018-06-03T08:01:47.000Z</time>
      </trkpt>
      <trkpt lat="44.57235" lon="4.238">
        <ele>456</ele>
        <time>2018-06-03T08:01:48.000Z</time>
      </trkpt>
      <trkpt lat="44.57239" lon="4.23796">
        <ele>456</ele>
        <time>2018-06-03T08:01:49.000Z</time>
      </trkpt>
      <trkpt lat="44.57242" lon="4.2379">
        <ele>455</ele>
        <time>2018-06-03T08:01:50.000Z</time>
      </trkpt>
      <trkpt lat="44.57243" lon="4.23783">
        <ele>455</ele>
        <time>2018-06-03T08:01:51.000Z</time>
      </trkpt>
      <trkpt lat="44.57243" lon="4.23775">
        <ele>454</ele>
        <time>2018-06-03T08:01:52.000Z</time>
      </trkpt>
      <trkpt lat="44.57242" lon="4.23767">
        <ele>453</ele>
        <time>2018-06-03T08:01:53.000Z</time>
      </trkpt>
      <trkpt lat="44.57241" lon="4.23759">
        <ele>452</ele>
        <time>2018-06-03T08:01:54.000Z</time>
      </trkpt>
      <trkpt lat="44.5724" lon="4.23751">
        <ele>451</ele>
        <time>2018-06-03T08:01:55.000Z</time>
      </trkpt>
      <trkpt lat="44.5724" lon="4.23743">
        <ele>449</ele>
        <time>2018-06-03T08:01:56.000Z</time>
      </trkpt>
      <trkpt lat="44.57239" lon="4.23735">
        <ele>449</ele>
        <time>2018-06-03T08:01:57.000Z</time>
      </trkpt>
      <trkpt lat="44.57239" lon="4.23728">
        <ele>449</ele>
        <time>2018-06-03T08:01:58.000Z</time>
      </trkpt>
      <trkpt lat="44.57238" lon="4.23722">
        <ele>449</ele>
        <time>2018-06-03T08:01:59.000Z</time>
      </trkpt>
      <trkpt lat="44.57238" lon="4.23716">
        <ele>449</ele>
        <time>2018-06-03T08:02:00.000Z</time>
      </trkpt>
      <trkpt lat="44.57237" lon="4.23712">
        <ele>450</ele>
        <time>2018-06-03T08:02:01.000Z</time>
      </trkpt>
      <trkpt lat="44.57237" lon="4.23707">
        <ele>450</ele>
        <time>2018-06-03T08:02:02.000Z</time>
      </trkpt>
      <trkpt lat="44.57236" lon="4.23703">
        <ele>450</ele>
        <time>2018-06-03T08:02:03.000Z</time>
      </trkpt>
      <trkpt lat="44.57236" lon="4.23699">
        <ele>450</ele>
        <time>2018-06-03T08:02:04.000Z</time>
      </trkpt>
      <trkpt lat="44.57236" lon="4.23695">
        <ele>450</ele>
        <time>2018-06-03T08:02:05.000Z</time>
      </trkpt>
      <trkpt lat="44.57236" lon="4.23691">
        <ele>450</ele>
        <time>2018-06-03T08:02:06.000Z</time>
      </trkpt>
      <trkpt lat="44.57236" lon="4.23687">
        <ele>450</ele>
        <time>2018-06-03T08:02:07.000Z</time>
      </trkpt>
      <trkpt lat="44.57236" lon="4.23683">
        <ele>451</ele>
        <time>2018-06-03T08:02:08.000Z</time>
      </trkpt>
      <trkpt lat="44.57237" lon="4.23679">
        <ele>451</ele>
        <time>2018-06-03T08:02:09.000Z</time>
      </trkpt>
      <trkpt lat="44.57237" lon="4.23675">
        <ele>451</ele>
        <time>2018-06-03T08:02:10.000Z</time>
      </trkpt>
      <trkpt lat="44.57237" lon="4.23671">
        <ele>451</ele>
        <time>2018-06-03T08:02:11.000Z</time>
      </trkpt>
      <trkpt lat="44.57237" lon="4.23667">
        <ele>451</ele>
        <time>2018-06-03T08:02:12.000Z</time>
      </trkpt>
      <trkpt lat="44.57237" lon="4.23663">
        <ele>452</ele>
        <time>2018-06-03T08:02:13.000Z</time>
      </trkpt>
      <trkpt lat="44.57238" lon="4.2366">
        <ele>452</ele>
        <time>2018-06-03T08:02:14.000Z</time>
      </trkpt>
      <trkpt lat="44.57238" lon="4.23656">
        <ele>452</ele>
        <time>2018-06-03T08:02:15.000Z</time>
      </trkpt>
      <trkpt lat="44.57238" lon="4.23652">
        <ele>452</ele>
        <time>2018-06-03T08:02:16.000Z</time>
      </trkpt>
      <trkpt lat="44.57239" lon="4.23649">
        <ele>452</ele>
        <time>2018-06-03T08:02:17.000Z</time>
      </trkpt>
      <trkpt lat="44.5724" lon="4.23645">
        <ele>452</ele>
        <time>2018-06-03T08:02:18.000Z</time>
      </trkpt>
      <trkpt lat="44.57241" lon="4.23641">
        <ele>452</ele>
        <time>2018-06-03T08:02:19.000Z</time>
      </trkpt>
      <trkpt lat="44.57241" lon="4.23637">
        <ele>452</ele>
        <time>2018-06-03T08:02:20.000Z</time>
      </trkpt>
      <trkpt lat="44.57241" lon="4.23633">
        <ele>452</ele>
        <time>2018-06-03T08:02:21.000Z</time>
      </trkpt>
      <trkpt lat="44.57242" lon="4.23628">
        <ele>453</ele>
        <time>2018-06-03T08:02:22.000Z</time>
      </trkpt>
      <trkpt lat="44.57242" lon="4.23623">
        <ele>453</ele>
        <time>2018-06-03T08:02:23.000Z</time>
      </trkpt>
      <trkpt lat="44.57241" lon="4.23617">
        <ele>453</ele>
        <time>2018-06-03T08:02:24.000Z</time>
      </trkpt>
      <trkpt lat="44.57241" lon="4.23612">
        <ele>453</ele>
        <time>2018-06-03T08:02:25.000Z</time>
      </trkpt>
      <trkpt lat="44.57241" lon="4.23607">
        <ele>454</ele>
        <time>2018-06-03T08:02:26.000Z</time>
      </trkpt>
      <trkpt lat="44.5724" lon="4.23602">
        <ele>454</ele>
        <time>2018-06-03T08:02:27.000Z</time>
      </trkpt>
      <trkpt lat="44.5724" lon="4.23597">
        <ele>455</ele>
        <time>2018-06-03T08:02:28.000Z</time>
      </trkpt>
      <trkpt lat="44.5724" lon="4.23592">
        <ele>456</ele>
        <time>2018-06-03T08:02:29.000Z</time>
      </trkpt>
      <trkpt lat="44.57239" lon="4.23586">
        <ele>456</ele>
        <time>2018-06-03T08:02:30.000Z</time>
      </trkpt>
      <trkpt lat="44.57239" lon="4.23581">
        <ele>457</ele>
        <time>2018-06-03T08:02:31.000Z</time>
      </trkpt>
      <trkpt lat="44.57239" lon="4.23575">
        <ele>457</ele>
        <time>2018-06-03T08:02:32.000Z</time>
      </trkpt>
      <trkpt lat="44.57238" lon="4.2357">
        <ele>456</ele>
        <time>2018-06-03T08:02:33.000Z</time>
      </trkpt>
      <trkpt lat="44.57238" lon="4.23564">
        <ele>456</ele>
        <time>2018-06-03T08:02:34.000Z</time>
      </trkpt>
      <trkpt lat="44.57238" lon="4.23559">
        <ele>456</ele>
        <time>2018-06-03T08:02:35.000Z</time>
      </trkpt>
      <trkpt lat="44.57238" lon="4.23553">
        <ele>456</ele>
        <time>2018-06-03T08:02:36.000Z</time>
      </trkpt>
      <trkpt lat="44.57237" lon="4.23547">
        <ele>456</ele>
        <time>2018-06-03T08:02:37.000Z</time>
      </trkpt>
      <trkpt lat="44.57237" lon="4.23542">
        <ele>456</ele>
        <time>2018-06-03T08:02:38.000Z</time>
      </trkpt>
      <trkpt lat="44.57237" lon="4.23536">
        <ele>456</ele>
        <time>2018-06-03T08:02:39.000Z</time>
      </trkpt>
      <trkpt lat="44.57236" lon="4.23531">
        <ele>456</ele>
        <time>2018-06-03T08:02:40.000Z</time>
      </trkpt>
      <trkpt lat="44.57236" lon="4.23525">
        <ele>456</ele>
        <time>2018-06-03T08:02:41.000Z</time>
      </trkpt>
      <trkpt lat="44.57236" lon="4.23519">
        <ele>457</ele>
        <time>2018-06-03T08:02:42.000Z</time>
      </trkpt>
      <trkpt lat="44.57236" lon="4.23513">
        <ele>457</ele>
        <time>2018-06-03T08:02:43.000Z</time>
      </trkpt>
      <trkpt lat="44.57236" lon="4.23508">
        <ele>458</ele>
        <time>2018-06-03T08:02:44.000Z</time>
      </trkpt>
      <trkpt lat="44.57237" lon="4.23502">
        <ele>458</ele>
        <time>2018-06-03T08:02:45.000Z</time>
      </trkpt>
      <trkpt lat="44.57237" lon="4.23496">
        <ele>458</ele>
        <time>2018-06-03T08:02:46.000Z</time>
      </trkpt>
      <trkpt lat="44.57237" lon="4.2349">
        <ele>458</ele>
        <time>2018-06-03T08:02:47.000Z</time>
      </trkpt>
      <trkpt lat="44.57238" lon="4.23484">
        <ele>457</ele>
        <time>2018-06-03T08:02:48.000Z</time>
      </trkpt>
      <trkpt lat="44.57239" lon="4.23478">
        <ele>457</ele>
        <time>2018-06-03T08:02:49.000Z</time>
      </trkpt>
      <trkpt lat="44.57239" lon="4.23472">
        <ele>457</ele>
        <time>2018-06-03T08:02:50.000Z</time>
      </trkpt>
      <trkpt lat="44.5724" lon="4.23466">
        <ele>457</ele>
        <time>2018-06-03T08:02:51.000Z</time>
      </trkpt>
      <trkpt lat="44.57241" lon="4.2346">
        <ele>457</ele>
        <time>2018-06-03T08:02:52.000Z</time>
      </trkpt>
      <trkpt lat="44.57243" lon="4.23454">
        <ele>457</ele>
        <time>2018-06-03T08:02:53.000Z</time>
      </trkpt>
      <trkpt lat="44.57244" lon="4.23448">
        <ele>457</ele>
        <time>2018-06-03T08:02:54.000Z</time>
      </trkpt>
      <trkpt lat="44.57245" lon="4.23442">
        <ele>457</ele>
        <time>2018-06-03T08:02:55.000Z</time>
      </trkpt>
      <trkpt lat="44.57246" lon="4.23436">
        <ele>457</ele>
        <time>2018-06-03T08:02:56.000Z</time>
      </trkpt>
      <trkpt lat="44.57248" lon="4.2343">
        <ele>457</ele>
        <time>2018-06-03T08:02:57.000Z</time>
      </trkpt>
      <trkpt lat="44.57249" lon="4.23424">
        <ele>458</ele>
        <time>2018-06-03T08:02:58.000Z</time>
      </trkpt>
      <trkpt lat="44.57251" lon="4.23418">
        <ele>459</ele>
        <time>2018-06-03T08:02:59.000Z</time>
      </trkpt>
      <trkpt lat="44.57252" lon="4.23411">
        <ele>460</ele>
        <time>2018-06-03T08:03:00.000Z</time>
      </trkpt>
      <trkpt lat="44.57254" lon="4.23405">
        <ele>461</ele>
        <time>2018-06-03T08:03:01.000Z</time>
      </trkpt>
      <trkpt lat="44.57256" lon="4.23399">
        <ele>462</ele>
        <time>2018-06-03T08:03:02.000Z</time>
      </trkpt>
      <trkpt lat="44.57257" lon="4.23392">
        <ele>462</ele>
        <time>2018-06-03T08:03:03.000Z</time>
      </trkpt>
      <trkpt lat="44.57259" lon="4.23386">
        <ele>462</ele>
        <time>2018-06-03T08:03:04.000Z</time>
      </trkpt>
      <trkpt lat="44.57261" lon="4.2338">
        <ele>463</ele>
        <time>2018-06-03T08:03:05.000Z</time>
      </trkpt>
      <trkpt lat="44.57262" lon="4.23373">
        <ele>463</ele>
        <time>2018-06-03T08:03:06.000Z</time>
      </trkpt>
      <trkpt lat="44.57264" lon="4.23367">
        <ele>463</ele>
        <time>2018-06-03T08:03:07.000Z</time>
      </trkpt>
      <trkpt lat="44.57266" lon="4.2336">
        <ele>462</ele>
        <time>2018-06-03T08:03:08.000Z</time>
      </trkpt>
      <trkpt lat="44.57268" lon="4.23354">
        <ele>462</ele>
        <time>2018-06-03T08:03:09.000Z</time>
      </trkpt>
      <trkpt lat="44.5727" lon="4.23347">
        <ele>462</ele>
        <time>2018-06-03T08:03:10.000Z</time>
      </trkpt>
      <trkpt lat="44.57271" lon="4.23341">
        <ele>462</ele>
        <time>2018-06-03T08:03:11.000Z</time>
      </trkpt>
      <trkpt lat="44.57273" lon="4.23334">
        <ele>462</ele>
        <time>2018-06-03T08:03:12.000Z</time>
      </trkpt>
      <trkpt lat="44.57274" lon="4.23327">
        <ele>462</ele>
        <time>2018-06-03T08:03:13.000Z</time>
      </trkpt>
      <trkpt lat="44.57275" lon="4.2332">
        <ele>462</ele>
        <time>2018-06-03T08:03:14.000Z</time>
      </trkpt>
      <trkpt lat="44.57276" lon="4.23313">
        <ele>462</ele>
        <time>2018-06-03T08:03:15.000Z</time>
      </trkpt>
      <trkpt lat="44.57277" lon="4.23307">
        <ele>462</ele>
        <time>2018-06-03T08:03:16.000Z</time>
      </trkpt>
      <trkpt lat="44.57277" lon="4.233">
        <ele>462</ele>
        <time>2018-06-03T08:03:17.000Z</time>
      </trkpt>
      <trkpt lat="44.57278" lon="4.23293">
        <ele>462</ele>
        <time>2018-06-03T08:03:18.000Z</time>
      </trkpt>
      <trkpt lat="44.57279" lon="4.23286">
        <ele>462</ele>
        <time>2018-06-03T08:03:19.000Z</time>
      </trkpt>
      <trkpt lat="44.57279" lon="4.2328">
        <ele>462</ele>
        <time>2018-06-03T08:03:20.000Z</time>
      </trkpt>
      <trkpt lat="44.57281" lon="4.23274">
        <ele>462</ele>
        <time>2018-06-03T08:03:21.000Z</time>
      </trkpt>
      <trkpt lat="44.57282" lon="4.23268">
        <ele>462</ele>
        <time>2018-06-03T08:03:22.000Z</time>
      </trkpt>
      <trkpt lat="44.57283" lon="4.23262">
        <ele>462</ele>
        <time>2018-06-03T08:03:23.000Z</time>
      </trkpt>
      <trkpt lat="44.57285" lon="4.23257">
        <ele>462</ele>
        <time>2018-06-03T08:03:24.000Z</time>
      </trkpt>
      <trkpt lat="44.57286" lon="4.23252">
        <ele>463</ele>
        <time>2018-06-03T08:03:25.000Z</time>
      </trkpt>
      <trkpt lat="44.57288" lon="4.23247">
        <ele>463</ele>
        <time>2018-06-03T08:03:26.000Z</time>
      </trkpt>
      <trkpt lat="44.5729" lon="4.23242">
        <ele>463</ele>
        <time>2018-06-03T08:03:27.000Z</time>
      </trkpt>
      <trkpt lat="44.57291" lon="4.23238">
        <ele>464</ele>
        <time>2018-06-03T08:03:28.000Z</time>
      </trkpt>
      <trkpt lat="44.57293" lon="4.23234">
        <ele>464</ele>
        <time>2018-06-03T08:03:29.000Z</time>
      </trkpt>
      <trkpt lat="44.57295" lon="4.2323">
        <ele>464</ele>
        <time>2018-06-03T08:03:30.000Z</time>
      </trkpt>
      <trkpt lat="44.57297" lon="4.23226">
        <ele>464</ele>
        <time>2018-06-03T08:03:31.000Z</time>
      </trkpt>
      <trkpt lat="44.57299" lon="4.23222">
        <ele>464</ele>
        <time>2018-06-03T08:03:32.000Z</time>
      </trkpt>
      <trkpt lat="44.57301" lon="4.23218">
        <ele>465</ele>
        <time>2018-06-03T08:03:33.000Z</time>
      </trkpt>
      <trkpt lat="44.57303" lon="4.23213">
        <ele>465</ele>
        <time>2018-06-03T08:03:34.000Z</time>
      </trkpt>
      <trkpt lat="44.57305" lon="4.23209">
        <ele>465</ele>
        <time>2018-06-03T08:03:35.000Z</time>
      </trkpt>
      <trkpt lat="44.57307" lon="4.23205">
        <ele>465</ele>
        <time>2018-06-03T08:03:36.000Z</time>
      </trkpt>
      <trkpt lat="44.57309" lon="4.23201">
        <ele>465</ele>
        <time>2018-06-03T08:03:37.000Z</time>
      </trkpt>
      <trkpt lat="44.57311" lon="4.23197">
        <ele>465</ele>
        <time>2018-06-03T08:03:38.000Z</time>
      </trkpt>
      <trkpt lat="44.57312" lon="4.23192">
        <ele>466</ele>
        <time>2018-06-03T08:03:39.000Z</time>
      </trkpt>
      <trkpt lat="44.57314" lon="4.23188">
        <ele>466</ele>
        <time>2018-06-03T08:03:40.000Z</time>
      </trkpt>
      <trkpt lat="44.57316" lon="4.23184">
        <ele>466</ele>
        <time>2018-06-03T08:03:41.000Z</time>
      </trkpt>
      <trkpt lat="44.57317" lon="4.23179">
        <ele>467</ele>
        <time>2018-06-03T08:03:42.000Z</time>
      </trkpt>
      <trkpt lat="44.57318" lon="4.23175">
        <ele>467</ele>
        <time>2018-06-03T08:03:43.000Z</time>
      </trkpt>
      <trkpt lat="44.57319" lon="4.2317">
        <ele>467</ele>
        <time>2018-06-03T08:03:44.000Z</time>
      </trkpt>
      <trkpt lat="44.5732" lon="4.23165">
        <ele>469</ele>
        <time>2018-06-03T08:03:45.000Z</time>
      </trkpt>
      <trkpt lat="44.57321" lon="4.2316">
        <ele>469</ele>
        <time>2018-06-03T08:03:46.000Z</time>
      </trkpt>
      <trkpt lat="44.57321" lon="4.23156">
        <ele>469</ele>
        <time>2018-06-03T08:03:47.000Z</time>
      </trkpt>
      <trkpt lat="44.57322" lon="4.23151">
        <ele>469</ele>
        <time>2018-06-03T08:03:48.000Z</time>
      </trkpt>
      <trkpt lat="44.57323" lon="4.23146">
        <ele>469</ele>
        <time>2018-06-03T08:03:49.000Z</time>
      </trkpt>
      <trkpt lat="44.57323" lon="4.23141">
        <ele>469</ele>
        <time>2018-06-03T08:03:50.000Z</time>
      </trkpt>
      <trkpt lat="44.57324" lon="4.23137">
        <ele>469</ele>
        <time>2018-06-03T08:03:51.000Z</time>
      </trkpt>
      <trkpt lat="44.57325" lon="4.23132">
        <ele>469</ele>
        <time>2018-06-03T08:03:52.000Z</time>
      </trkpt>
      <trkpt lat="44.57326" lon="4.23128">
        <ele>469</ele>
        <time>2018-06-03T08:03:53.000Z</time>
      </trkpt>
      <trkpt lat="44.57327" lon="4.23123">
        <ele>470</ele>
        <time>2018-06-03T08:03:54.000Z</time>
      </trkpt>
      <trkpt lat="44.57327" lon="4.23119">
        <ele>470</ele>
        <time>2018-06-03T08:03:55.000Z</time>
      </trkpt>
      <trkpt lat="44.57328" lon="4.23114">
        <ele>470</ele>
        <time>2018-06-03T08:03:56.000Z</time>
      </trkpt>
      <trkpt lat="44.57329" lon="4.2311">
        <ele>471</ele>
        <time>2018-06-03T08:03:57.000Z</time>
      </trkpt>
      <trkpt lat="44.5733" lon="4.23106">
        <ele>471</ele>
        <time>2018-06-03T08:03:58.000Z</time>
      </trkpt>
      <trkpt lat="44.57331" lon="4.23102">
        <ele>472</ele>
        <time>2018-06-03T08:03:59.000Z</time>
      </trkpt>
      <trkpt lat="44.57331" lon="4.23098">
        <ele>473</ele>
        <time>2018-06-03T08:04:00.000Z</time>
      </trkpt>
      <trkpt lat="44.57332" lon="4.23094">
        <ele>474</ele>
        <time>2018-06-03T08:04:01.000Z</time>
      </trkpt>
      <trkpt lat="44.57333" lon="4.2309">
        <ele>475</ele>
        <time>2018-06-03T08:04:02.000Z</time>
      </trkpt>
      <trkpt lat="44.57334" lon="4.23086">
        <ele>478</ele>
        <time>2018-06-03T08:04:03.000Z</time>
      </trkpt>
      <trkpt lat="44.57335" lon="4.23081">
        <ele>478</ele>
        <time>2018-06-03T08:04:04.000Z</time>
      </trkpt>
      <trkpt lat="44.57336" lon="4.23077">
        <ele>480</ele>
        <time>2018-06-03T08:04:05.000Z</time>
      </trkpt>
      <trkpt lat="44.57337" lon="4.23073">
        <ele>481</ele>
        <time>2018-06-03T08:04:06.000Z</time>
      </trkpt>
      <trkpt lat="44.57338" lon="4.23069">
        <ele>483</ele>
        <time>2018-06-03T08:04:07.000Z</time>
      </trkpt>
      <trkpt lat="44.57339" lon="4.23065">
        <ele>483</ele>
        <time>2018-06-03T08:04:08.000Z</time>
      </trkpt>
      <trkpt lat="44.5734" lon="4.2306">
        <ele>484</ele>
        <time>2018-06-03T08:04:09.000Z</time>
      </trkpt>
      <trkpt lat="44.57341" lon="4.23056">
        <ele>485</ele>
        <time>2018-06-03T08:04:10.000Z</time>
      </trkpt>
      <trkpt lat="44.57342" lon="4.23052">
        <ele>485</ele>
        <time>2018-06-03T08:04:11.000Z</time>
      </trkpt>
      <trkpt lat="44.57344" lon="4.23048">
        <ele>486</ele>
        <time>2018-06-03T08:04:12.000Z</time>
      </trkpt>
      <trkpt lat="44.57344" lon="4.23043">
        <ele>486</ele>
        <time>2018-06-03T08:04:13.000Z</time>
      </trkpt>
      <trkpt lat="44.57346" lon="4.23038">
        <ele>486</ele>
        <time>2018-06-03T08:04:14.000Z</time>
      </trkpt>
      <trkpt lat="44.57346" lon="4.23034">
        <ele>486</ele>
        <time>2018-06-03T08:04:15.000Z</time>
      </trkpt>
      <trkpt lat="44.57347" lon="4.23028">
        <ele>486</ele>
        <time>2018-06-03T08:04:16.000Z</time>
      </trkpt>
      <trkpt lat="44.57347" lon="4.23023">
        <ele>486</ele>
        <time>2018-06-03T08:04:17.000Z</time>
      </trkpt>
      <trkpt lat="44.57347" lon="4.23018">
        <ele>485</ele>
        <time>2018-06-03T08:04:18.000Z</time>
      </trkpt>
      <trkpt lat="44.57347" lon="4.23014">
        <ele>485</ele>
        <time>2018-06-03T08:04:19.000Z</time>
      </trkpt>
      <trkpt lat="44.57346" lon="4.23009">
        <ele>484</ele>
        <time>2018-06-03T08:04:20.000Z</time>
      </trkpt>
      <trkpt lat="44.57346" lon="4.23006">
        <ele>484</ele>
        <time>2018-06-03T08:04:21.000Z</time>
      </trkpt>
      <trkpt lat="44.57345" lon="4.23002">
        <ele>483</ele>
        <time>2018-06-03T08:04:22.000Z</time>
      </trkpt>
      <trkpt lat="44.57345" lon="4.22998">
        <ele>484</ele>
        <time>2018-06-03T08:04:23.000Z</time>
      </trkpt>
      <trkpt lat="44.57346" lon="4.22996">
        <ele>485</ele>
        <time>2018-06-03T08:04:24.000Z</time>
      </trkpt>
      <trkpt lat="44.57348" lon="4.22995">
        <ele>485</ele>
        <time>2018-06-03T08:04:25.000Z</time>
      </trkpt>
      <trkpt lat="44.57349" lon="4.22996">
        <ele>486</ele>
        <time>2018-06-03T08:04:26.000Z</time>
      </trkpt>
      <trkpt lat="44.5735" lon="4.22998">
        <ele>486</ele>
        <time>2018-06-03T08:04:27.000Z</time>
      </trkpt>
      <trkpt lat="44.57351" lon="4.23001">
        <ele>485</ele>
        <time>2018-06-03T08:04:28.000Z</time>
      </trkpt>
      <trkpt lat="44.57351" lon="4.23004">
        <ele>485</ele>
        <time>2018-06-03T08:04:29.000Z</time>
      </trkpt>
      <trkpt lat="44.57352" lon="4.23007">
        <ele>485</ele>
        <time>2018-06-03T08:04:30.000Z</time>
      </trkpt>
      <trkpt lat="44.57352" lon="4.2301">
        <ele>485</ele>
        <time>2018-06-03T08:04:31.000Z</time>
      </trkpt>
      <trkpt lat="44.57353" lon="4.23013">
        <ele>486</ele>
        <time>2018-06-03T08:04:32.000Z</time>
      </trkpt>
      <trkpt lat="44.57354" lon="4.23016">
        <ele>486</ele>
        <time>2018-06-03T08:04:33.000Z</time>
      </trkpt>
      <trkpt lat="44.57355" lon="4.23019">
        <ele>486</ele>
        <time>2018-06-03T08:04:34.000Z</time>
      </trkpt>
      <trkpt lat="44.57356" lon="4.23023">
        <ele>487</ele>
        <time>2018-06-03T08:04:35.000Z</time>
      </trkpt>
      <trkpt lat="44.57357" lon="4.23026">
        <ele>487</ele>
        <time>2018-06-03T08:04:36.000Z</time>
      </trkpt>
      <trkpt lat="44.57358" lon="4.2303">
        <ele>487</ele>
        <time>2018-06-03T08:04:37.000Z</time>
      </trkpt>
      <trkpt lat="44.57359" lon="4.23033">
        <ele>488</ele>
        <time>2018-06-03T08:04:38.000Z</time>
      </trkpt>
      <trkpt lat="44.5736" lon="4.23036">
        <ele>488</ele>
        <time>2018-06-03T08:04:39.000Z</time>
      </trkpt>
      <trkpt lat="44.57361" lon="4.23039">
        <ele>488</ele>
        <time>2018-06-03T08:04:40.000Z</time>
      </trkpt>
      <trkpt lat="44.57362" lon="4.23043">
        <ele>488</ele>
        <time>2018-06-03T08:04:41.000Z</time>
      </trkpt>
      <trkpt lat="44.57363" lon="4.23046">
        <ele>488</ele>
        <time>2018-06-03T08:04:42.000Z</time>
      </trkpt>
      <trkpt lat="44.57364" lon="4.23049">
        <ele>488</ele>
        <time>2018-06-03T08:04:43.000Z</time>
      </trkpt>
      <trkpt lat="44.57364" lon="4.23052">
        <ele>488</ele>
        <time>2018-06-03T08:04:44.000Z</time>
      </trkpt>
      <trkpt lat="44.57364" lon="4.23056">
        <ele>488</ele>
        <time>2018-06-03T08:04:45.000Z</time>
      </trkpt>
      <trkpt lat="44.57364" lon="4.23059">
        <ele>488</ele>
        <time>2018-06-03T08:04:46.000Z</time>
      </trkpt>
      <trkpt lat="44.57364" lon="4.23062">
        <ele>488</ele>
        <time>2018-06-03T08:04:47.000Z</time>
      </trkpt>
      <trkpt lat="44.57364" lon="4.23065">
        <ele>488</ele>
        <time>2018-06-03T08:04:48.000Z</time>
      </trkpt>
      <trkpt lat="44.57364" lon="4.23069">
        <ele>487</ele>
        <time>2018-06-03T08:04:49.000Z</time>
      </trkpt>
      <trkpt lat="44.57364" lon="4.23072">
        <ele>487</ele>
        <time>2018-06-03T08:04:50.000Z</time>
      </trkpt>
      <trkpt lat="44.57365" lon="4.23075">
        <ele>487</ele>
        <time>2018-06-03T08:04:51.000Z</time>
      </trkpt>
      <trkpt lat="44.57366" lon="4.23078">
        <ele>488</ele>
        <time>2018-06-03T08:04:52.000Z</time>
      </trkpt>
      <trkpt lat="44.57366" lon="4.23081">
        <ele>488</ele>
        <time>2018-06-03T08:04:53.000Z</time>
      </trkpt>
      <trkpt lat="44.57367" lon="4.23084">
        <ele>485</ele>
        <time>2018-06-03T08:04:54.000Z</time>
      </trkpt>
      <trkpt lat="44.57369" lon="4.23087">
        <ele>485</ele>
        <time>2018-06-03T08:04:55.000Z</time>
      </trkpt>
      <trkpt lat="44.5737" lon="4.2309">
        <ele>485</ele>
        <time>2018-06-03T08:04:56.000Z</time>
      </trkpt>
      <trkpt lat="44.57371" lon="4.23092">
        <ele>486</ele>
        <time>2018-06-03T08:04:57.000Z</time>
      </trkpt>
      <trkpt lat="44.57373" lon="4.23095">
        <ele>486</ele>
        <time>2018-06-03T08:04:58.000Z</time>
      </trkpt>
      <trkpt lat="44.57374" lon="4.23097">
        <ele>486</ele>
        <time>2018-06-03T08:04:59.000Z</time>
      </trkpt>
      <trkpt lat="44.57376" lon="4.23099">
        <ele>487</ele>
        <time>2018-06-03T08:05:00.000Z</time>
      </trkpt>
      <trkpt lat="44.57378" lon="4.231">
        <ele>487</ele>
        <time>2018-06-03T08:05:01.000Z</time>
      </trkpt>
      <trkpt lat="44.5738" lon="4.23102">
        <ele>487</ele>
        <time>2018-06-03T08:05:02.000Z</time>
      </trkpt>
      <trkpt lat="44.57382" lon="4.23104">
        <ele>487</ele>
        <time>2018-06-03T08:05:03.000Z</time>
      </trkpt>
      <trkpt lat="44.57384" lon="4.23106">
        <ele>487</ele>
        <time>2018-06-03T08:05:04.000Z</time>
      </trkpt>
      <trkpt lat="44.57385" lon="4.23109">
        <ele>488</ele>
        <time>2018-06-03T08:05:05.000Z</time>
      </trkpt>
      <trkpt lat="44.57387" lon="4.23111">
        <ele>488</ele>
        <time>2018-06-03T08:05:06.000Z</time>
      </trkpt>
      <trkpt lat="44.57389" lon="4.23113">
        <ele>488</ele>
        <time>2018-06-03T08:05:07.000Z</time>
      </trkpt>
      <trkpt lat="44.57391" lon="4.23115">
        <ele>488</ele>
        <time>2018-06-03T08:05:08.000Z</time>
      </trkpt>
      <trkpt lat="44.57392" lon="4.23118">
        <ele>488</ele>
        <time>2018-06-03T08:05:09.000Z</time>
      </trkpt>
      <trkpt lat="44.57394" lon="4.2312">
        <ele>488</ele>
        <time>2018-06-03T08:05:10.000Z</time>
      </trkpt>
      <trkpt lat="44.57396" lon="4.23122">
        <ele>488</ele>
        <time>2018-06-03T08:05:11.000Z</time>
      </trkpt>
      <trkpt lat="44.57397" lon="4.23124">
        <ele>488</ele>
        <time>2018-06-03T08:05:12.000Z</time>
      </trkpt>
      <trkpt lat="44.57399" lon="4.23127">
        <ele>488</ele>
        <time>2018-06-03T08:05:13.000Z</time>
      </trkpt>
      <trkpt lat="44.57401" lon="4.23129">
        <ele>488</ele>
        <time>2018-06-03T08:05:14.000Z</time>
      </trkpt>
      <trkpt lat="44.57402" lon="4.23131">
        <ele>488</ele>
        <time>2018-06-03T08:05:15.000Z</time>
      </trkpt>
      <trkpt lat="44.57404" lon="4.23134">
        <ele>488</ele>
        <time>2018-06-03T08:05:16.000Z</time>
      </trkpt>
      <trkpt lat="44.57405" lon="4.23136">
        <ele>488</ele>
        <time>2018-06-03T08:05:17.000Z</time>
      </trkpt>
      <trkpt lat="44.57407" lon="4.23138">
        <ele>488</ele>
        <time>2018-06-03T08:05:18.000Z</time>
      </trkpt>
      <trkpt lat="44.57409" lon="4.23139">
        <ele>488</ele>
        <time>2018-06-03T08:05:19.000Z</time>
      </trkpt>
      <trkpt lat="44.57411" lon="4.23141">
        <ele>488</ele>
        <time>2018-06-03T08:05:20.000Z</time>
      </trkpt>
      <trkpt lat="44.57412" lon="4.23143">
        <ele>488</ele>
        <time>2018-06-03T08:05:21.000Z</time>
      </trkpt>
      <trkpt lat="44.57414" lon="4.23144">
        <ele>488</ele>
        <time>2018-06-03T08:05:22.000Z</time>
      </trkpt>
      <trkpt lat="44.57416" lon="4.23146">
        <ele>489</ele>
        <time>2018-06-03T08:05:23.000Z</time>
      </trkpt>
      <trkpt lat="44.57418" lon="4.23148">
        <ele>501</ele>
        <time>2018-06-03T08:05:24.000Z</time>
      </trkpt>
      <trkpt lat="44.5742" lon="4.23149">
        <ele>501</ele>
        <time>2018-06-03T08:05:25.000Z</time>
      </trkpt>
      <trkpt lat="44.57422" lon="4.23151">
        <ele>500</ele>
        <time>2018-06-03T08:05:26.000Z</time>
      </trkpt>
      <trkpt lat="44.57424" lon="4.23153">
        <ele>500</ele>
        <time>2018-06-03T08:05:27.000Z</time>
      </trkpt>
      <trkpt lat="44.57425" lon="4.23155">
        <ele>500</ele>
        <time>2018-06-03T08:05:28.000Z</time>
      </trkpt>
      <trkpt lat="44.57427" lon="4.23157">
        <ele>500</ele>
        <time>2018-06-03T08:05:29.000Z</time>
      </trkpt>
      <trkpt lat="44.57429" lon="4.23159">
        <ele>500</ele>
        <time>2018-06-03T08:05:30.000Z</time>
      </trkpt>
      <trkpt lat="44.57431" lon="4.2316">
        <ele>501</ele>
        <time>2018-06-03T08:05:31.000Z</time>
      </trkpt>
      <trkpt lat="44.57433" lon="4.23161">
        <ele>501</ele>
        <time>2018-06-03T08:05:32.000Z</time>
      </trkpt>
      <trkpt lat="44.57435" lon="4.23162">
        <ele>502</ele>
        <time>2018-06-03T08:05:33.000Z</time>
      </trkpt>
      <trkpt lat="44.57437" lon="4.23163">
        <ele>503</ele>
        <time>2018-06-03T08:05:34.000Z</time>
      </trkpt>
      <trkpt lat="44.57439" lon="4.23165">
        <ele>503</ele>
        <time>2018-06-03T08:05:35.000Z</time>
      </trkpt>
      <trkpt lat="44.57441" lon="4.23167">
        <ele>500</ele>
        <time>2018-06-03T08:05:36.000Z</time>
      </trkpt>
      <trkpt lat="44.57443" lon="4.2317">
        <ele>500</ele>
        <time>2018-06-03T08:05:37.000Z</time>
      </trkpt>
      <trkpt lat="44.57444" lon="4.23173">
        <ele>501</ele>
        <time>2018-06-03T08:05:38.000Z</time>
      </trkpt>
      <trkpt lat="44.57444" lon="4.23177">
        <ele>501</ele>
        <time>2018-06-03T08:05:39.000Z</time>
      </trkpt>
      <trkpt lat="44.57444" lon="4.2318">
        <ele>501</ele>
        <time>2018-06-03T08:05:40.000Z</time>
      </trkpt>
      <trkpt lat="44.57443" lon="4.23182">
        <ele>501</ele>
        <time>2018-06-03T08:05:41.000Z</time>
      </trkpt>
      <trkpt lat="44.57443" lon="4.23184">
        <ele>501</ele>
        <time>2018-06-03T08:05:42.000Z</time>
      </trkpt>
      <trkpt lat="44.57442" lon="4.23186">
        <ele>501</ele>
        <time>2018-06-03T08:05:43.000Z</time>
      </trkpt>
      <trkpt lat="44.57441" lon="4.23188">
        <ele>501</ele>
        <time>2018-06-03T08:05:44.000Z</time>
      </trkpt>
      <trkpt lat="44.5744" lon="4.23189">
        <ele>501</ele>
        <time>2018-06-03T08:05:45.000Z</time>
      </trkpt>
      <trkpt lat="44.57439" lon="4.23192">
        <ele>501</ele>
        <time>2018-06-03T08:05:46.000Z</time>
      </trkpt>
      <trkpt lat="44.57438" lon="4.23195">
        <ele>501</ele>
        <time>2018-06-03T08:05:47.000Z</time>
      </trkpt>
      <trkpt lat="44.57438" lon="4.23199">
        <ele>501</ele>
        <time>2018-06-03T08:05:48.000Z</time>
      </trkpt>
      <trkpt lat="44.57437" lon="4.23202">
        <ele>501</ele>
        <time>2018-06-03T08:05:49.000Z</time>
      </trkpt>
      <trkpt lat="44.57436" lon="4.23205">
        <ele>501</ele>
        <time>2018-06-03T08:05:50.000Z</time>
      </trkpt>
      <trkpt lat="44.57436" lon="4.23208">
        <ele>500</ele>
        <time>2018-06-03T08:05:51.000Z</time>
      </trkpt>
      <trkpt lat="44.57435" lon="4.23212">
        <ele>500</ele>
        <time>2018-06-03T08:05:52.000Z</time>
      </trkpt>
      <trkpt lat="44.57435" lon="4.23215">
        <ele>500</ele>
        <time>2018-06-03T08:05:53.000Z</time>
      </trkpt>
      <trkpt lat="44.57435" lon="4.23218">
        <ele>500</ele>
        <time>2018-06-03T08:05:54.000Z</time>
      </trkpt>
      <trkpt lat="44.57436" lon="4.23221">
        <ele>500</ele>
        <time>2018-06-03T08:05:55.000Z</time>
      </trkpt>
      <trkpt lat="44.57436" lon="4.23225">
        <ele>500</ele>
        <time>2018-06-03T08:05:56.000Z</time>
      </trkpt>
      <trkpt lat="44.57437" lon="4.23228">
        <ele>499</ele>
        <time>2018-06-03T08:05:57.000Z</time>
      </trkpt>
      <trkpt lat="44.57438" lon="4.23231">
        <ele>499</ele>
        <time>2018-06-03T08:05:58.000Z</time>
      </trkpt>
      <trkpt lat="44.57439" lon="4.23235">
        <ele>499</ele>
        <time>2018-06-03T08:05:59.000Z</time>
      </trkpt>
      <trkpt lat="44.5744" lon="4.23237">
        <ele>499</ele>
        <time>2018-06-03T08:06:00.000Z</time>
      </trkpt>
      <trkpt lat="44.57441" lon="4.2324">
        <ele>499</ele>
        <time>2018-06-03T08:06:01.000Z</time>
      </trkpt>
      <trkpt lat="44.57442" lon="4.23242">
        <ele>499</ele>
        <time>2018-06-03T08:06:02.000Z</time>
      </trkpt>
      <trkpt lat="44.57443" lon="4.23244">
        <ele>500</ele>
        <time>2018-06-03T08:06:03.000Z</time>
      </trkpt>
      <trkpt lat="44.57445" lon="4.23246">
        <ele>500</ele>
        <time>2018-06-03T08:06:04.000Z</time>
      </trkpt>
      <trkpt lat="44.57446" lon="4.23249">
        <ele>500</ele>
        <time>2018-06-03T08:06:05.000Z</time>
      </trkpt>
      <trkpt lat="44.57448" lon="4.23252">
        <ele>499</ele>
        <time>2018-06-03T08:06:06.000Z</time>
      </trkpt>
      <trkpt lat="44.57449" lon="4.23255">
        <ele>499</ele>
        <time>2018-06-03T08:06:07.000Z</time>
      </trkpt>
      <trkpt lat="44.5745" lon="4.23257">
        <ele>500</ele>
        <time>2018-06-03T08:06:08.000Z</time>
      </trkpt>
      <trkpt lat="44.57451" lon="4.2326">
        <ele>500</ele>
        <time>2018-06-03T08:06:09.000Z</time>
      </trkpt>
      <trkpt lat="44.57452" lon="4.23264">
        <ele>500</ele>
        <time>2018-06-03T08:06:10.000Z</time>
      </trkpt>
      <trkpt lat="44.57453" lon="4.23267">
        <ele>500</ele>
        <time>2018-06-03T08:06:11.000Z</time>
      </trkpt>
      <trkpt lat="44.57454" lon="4.2327">
        <ele>501</ele>
        <time>2018-06-03T08:06:12.000Z</time>
      </trkpt>
      <trkpt lat="44.57456" lon="4.23273">
        <ele>501</ele>
        <time>2018-06-03T08:06:13.000Z</time>
      </trkpt>
      <trkpt lat="44.57457" lon="4.23275">
        <ele>501</ele>
        <time>2018-06-03T08:06:14.000Z</time>
      </trkpt>
      <trkpt lat="44.57459" lon="4.23277">
        <ele>501</ele>
        <time>2018-06-03T08:06:15.000Z</time>
      </trkpt>
      <trkpt lat="44.5746" lon="4.2328">
        <ele>502</ele>
        <time>2018-06-03T08:06:16.000Z</time>
      </trkpt>
      <trkpt lat="44.57462" lon="4.23282">
        <ele>502</ele>
        <time>2018-06-03T08:06:17.000Z</time>
      </trkpt>
      <trkpt lat="44.57463" lon="4.23284">
        <ele>502</ele>
        <time>2018-06-03T08:06:18.000Z</time>
      </trkpt>
      <trkpt lat="44.57465" lon="4.23287">
        <ele>502</ele>
        <time>2018-06-03T08:06:19.000Z</time>
      </trkpt>
      <trkpt lat="44.57466" lon="4.23289">
        <ele>502</ele>
        <time>2018-06-03T08:06:20.000Z</time>
      </trkpt>
      <trkpt lat="44.57468" lon="4.23292">
        <ele>502</ele>
        <time>2018-06-03T08:06:21.000Z</time>
      </trkpt>
      <trkpt lat="44.5747" lon="4.23295">
        <ele>503</ele>
        <time>2018-06-03T08:06:22.000Z</time>
      </trkpt>
      <trkpt lat="44.57471" lon="4.23298">
        <ele>503</ele>
        <time>2018-06-03T08:06:23.000Z</time>
      </trkpt>
      <trkpt lat="44.57473" lon="4.23301">
        <ele>503</ele>
        <time>2018-06-03T08:06:24.000Z</time>
      </trkpt>
      <trkpt lat="44.57474" lon="4.23304">
        <ele>503</ele>
        <time>2018-06-03T08:06:25.000Z</time>
      </trkpt>
      <trkpt lat="44.57475" lon="4.23308">
        <ele>504</ele>
        <time>2018-06-03T08:06:26.000Z</time>
      </trkpt>
      <trkpt lat="44.57476" lon="4.23311">
        <ele>504</ele>
        <time>2018-06-03T08:06:27.000Z</time>
      </trkpt>
      <trkpt lat="44.57477" lon="4.23314">
        <ele>504</ele>
        <time>2018-06-03T08:06:28.000Z</time>
      </trkpt>
      <trkpt lat="44.57478" lon="4.23317">
        <ele>504</ele>
        <time>2018-06-03T08:06:29.000Z</time>
      </trkpt>
      <trkpt lat="44.5748" lon="4.23319">
        <ele>505</ele>
        <time>2018-06-03T08:06:30.000Z</time>
      </trkpt>
      <trkpt lat="44.57481" lon="4.23322">
        <ele>505</ele>
        <time>2018-06-03T08:06:31.000Z</time>
      </trkpt>
      <trkpt lat="44.57482" lon="4.23324">
        <ele>506</ele>
        <time>2018-06-03T08:06:32.000Z</time>
      </trkpt>
      <trkpt lat="44.57484" lon="4.23327">
        <ele>506</ele>
        <time>2018-06-03T08:06:33.000Z</time>
      </trkpt>
      <trkpt lat="44.57486" lon="4.23329">
        <ele>507</ele>
        <time>2018-06-03T08:06:34.000Z</time>
      </trkpt>
      <trkpt lat="44.57487" lon="4.23332">
        <ele>507</ele>
        <time>2018-06-03T08:06:35.000Z</time>
      </trkpt>
      <trkpt lat="44.57489" lon="4.23334">
        <ele>506</ele>
        <time>2018-06-03T08:06:36.000Z</time>
      </trkpt>
      <trkpt lat="44.5749" lon="4.23336">
        <ele>507</ele>
        <time>2018-06-03T08:06:37.000Z</time>
      </trkpt>
      <trkpt lat="44.57492" lon="4.23339">
        <ele>507</ele>
        <time>2018-06-03T08:06:38.000Z</time>
      </trkpt>
      <trkpt lat="44.57494" lon="4.23341">
        <ele>507</ele>
        <time>2018-06-03T08:06:39.000Z</time>
      </trkpt>
      <trkpt lat="44.57495" lon="4.23344">
        <ele>506</ele>
        <time>2018-06-03T08:06:40.000Z</time>
      </trkpt>
      <trkpt lat="44.57496" lon="4.23347">
        <ele>505</ele>
        <time>2018-06-03T08:06:41.000Z</time>
      </trkpt>
      <trkpt lat="44.57498" lon="4.2335">
        <ele>505</ele>
        <time>2018-06-03T08:06:42.000Z</time>
      </trkpt>
      <trkpt lat="44.57499" lon="4.23353">
        <ele>504</ele>
        <time>2018-06-03T08:06:43.000Z</time>
      </trkpt>
      <trkpt lat="44.575" lon="4.23356">
        <ele>514</ele>
        <time>2018-06-03T08:06:44.000Z</time>
      </trkpt>
      <trkpt lat="44.57502" lon="4.23359">
        <ele>514</ele>
        <time>2018-06-03T08:06:45.000Z</time>
      </trkpt>
      <trkpt lat="44.57503" lon="4.23361">
        <ele>514</ele>
        <time>2018-06-03T08:06:46.000Z</time>
      </trkpt>
      <trkpt lat="44.57504" lon="4.23364">
        <ele>513</ele>
        <time>2018-06-03T08:06:47.000Z</time>
      </trkpt>
      <trkpt lat="44.57505" lon="4.23367">
        <ele>513</ele>
        <time>2018-06-03T08:06:48.000Z</time>
      </trkpt>
      <trkpt lat="44.57506" lon="4.23371">
        <ele>513</ele>
        <time>2018-06-03T08:06:49.000Z</time>
      </trkpt>
      <trkpt lat="44.57508" lon="4.23373">
        <ele>513</ele>
        <time>2018-06-03T08:06:50.000Z</time>
      </trkpt>
      <trkpt lat="44.57509" lon="4.23376">
        <ele>513</ele>
        <time>2018-06-03T08:06:51.000Z</time>
      </trkpt>
      <trkpt lat="44.5751" lon="4.23379">
        <ele>513</ele>
        <time>2018-06-03T08:06:52.000Z</time>
      </trkpt>
      <trkpt lat="44.57511" lon="4.23382">
        <ele>512</ele>
        <time>2018-06-03T08:06:53.000Z</time>
      </trkpt>
      <trkpt lat="44.57512" lon="4.23385">
        <ele>512</ele>
        <time>2018-06-03T08:06:54.000Z</time>
      </trkpt>
      <trkpt lat="44.57513" lon="4.23388">
        <ele>512</ele>
        <time>2018-06-03T08:06:55.000Z</time>
      </trkpt>
      <trkpt lat="44.57515" lon="4.23391">
        <ele>512</ele>
        <time>2018-06-03T08:06:56.000Z</time>
      </trkpt>
      <trkpt lat="44.57516" lon="4.23393">
        <ele>511</ele>
        <time>2018-06-03T08:06:57.000Z</time>
      </trkpt>
      <trkpt lat="44.57518" lon="4.23396">
        <ele>511</ele>
        <time>2018-06-03T08:06:58.000Z</time>
      </trkpt>
      <trkpt lat="44.5752" lon="4.23398">
        <ele>511</ele>
        <time>2018-06-03T08:06:59.000Z</time>
      </trkpt>
      <trkpt lat="44.57522" lon="4.23399">
        <ele>511</ele>
        <time>2018-06-03T08:07:00.000Z</time>
      </trkpt>
      <trkpt lat="44.57524" lon="4.23398">
        <ele>512</ele>
        <time>2018-06-03T08:07:01.000Z</time>
      </trkpt>
      <trkpt lat="44.57525" lon="4.23396">
        <ele>512</ele>
        <time>2018-06-03T08:07:02.000Z</time>
      </trkpt>
      <trkpt lat="44.57526" lon="4.23394">
        <ele>513</ele>
        <time>2018-06-03T08:07:03.000Z</time>
      </trkpt>
      <trkpt lat="44.57525" lon="4.23391">
        <ele>513</ele>
        <time>2018-06-03T08:07:04.000Z</time>
      </trkpt>
      <trkpt lat="44.57524" lon="4.23388">
        <ele>513</ele>
        <time>2018-06-03T08:07:05.000Z</time>
      </trkpt>
      <trkpt lat="44.57523" lon="4.23386">
        <ele>513</ele>
        <time>2018-06-03T08:07:06.000Z</time>
      </trkpt>
      <trkpt lat="44.57522" lon="4.23384">
        <ele>513</ele>
        <time>2018-06-03T08:07:07.000Z</time>
      </trkpt>
      <trkpt lat="44.57521" lon="4.23381">
        <ele>513</ele>
        <time>2018-06-03T08:07:08.000Z</time>
      </trkpt>
      <trkpt lat="44.57521" lon="4.23378">
        <ele>514</ele>
        <time>2018-06-03T08:07:09.000Z</time>
      </trkpt>
      <trkpt lat="44.57521" lon="4.23375">
        <ele>514</ele>
        <time>2018-06-03T08:07:10.000Z</time>
      </trkpt>
      <trkpt lat="44.57521" lon="4.23372">
        <ele>514</ele>
        <time>2018-06-03T08:07:11.000Z</time>
      </trkpt>
      <trkpt lat="44.57521" lon="4.23369">
        <ele>514</ele>
        <time>2018-06-03T08:07:12.000Z</time>
      </trkpt>
      <trkpt lat="44.57522" lon="4.23366">
        <ele>515</ele>
        <time>2018-06-03T08:07:13.000Z</time>
      </trkpt>
      <trkpt lat="44.57522" lon="4.23362">
        <ele>515</ele>
        <time>2018-06-03T08:07:14.000Z</time>
      </trkpt>
      <trkpt lat="44.57522" lon="4.23359">
        <ele>515</ele>
        <time>2018-06-03T08:07:15.000Z</time>
      </trkpt>
      <trkpt lat="44.57522" lon="4.23356">
        <ele>515</ele>
        <time>2018-06-03T08:07:16.000Z</time>
      </trkpt>
      <trkpt lat="44.57522" lon="4.23353">
        <ele>515</ele>
        <time>2018-06-03T08:07:17.000Z</time>
      </trkpt>
      <trkpt lat="44.57522" lon="4.2335">
        <ele>515</ele>
        <time>2018-06-03T08:07:18.000Z</time>
      </trkpt>
      <trkpt lat="44.57521" lon="4.23346">
        <ele>515</ele>
        <time>2018-06-03T08:07:19.000Z</time>
      </trkpt>
      <trkpt lat="44.57521" lon="4.23343">
        <ele>515</ele>
        <time>2018-06-03T08:07:20.000Z</time>
      </trkpt>
      <trkpt lat="44.57521" lon="4.2334">
        <ele>515</ele>
        <time>2018-06-03T08:07:21.000Z</time>
      </trkpt>
      <trkpt lat="44.57521" lon="4.23337">
        <ele>515</ele>
        <time>2018-06-03T08:07:22.000Z</time>
      </trkpt>
      <trkpt lat="44.5752" lon="4.23333">
        <ele>520</ele>
        <time>2018-06-03T08:07:23.000Z</time>
      </trkpt>
      <trkpt lat="44.57519" lon="4.2333">
        <ele>520</ele>
        <time>2018-06-03T08:07:24.000Z</time>
      </trkpt>
      <trkpt lat="44.57519" lon="4.23327">
        <ele>520</ele>
        <time>2018-06-03T08:07:25.000Z</time>
      </trkpt>
      <trkpt lat="44.57518" lon="4.23324">
        <ele>520</ele>
        <time>2018-06-03T08:07:26.000Z</time>
      </trkpt>
      <trkpt lat="44.57517" lon="4.23321">
        <ele>521</ele>
        <time>2018-06-03T08:07:27.000Z</time>
      </trkpt>
      <trkpt lat="44.57517" lon="4.23318">
        <ele>521</ele>
        <time>2018-06-03T08:07:28.000Z</time>
      </trkpt>
      <trkpt lat="44.57516" lon="4.23315">
        <ele>521</ele>
        <time>2018-06-03T08:07:29.000Z</time>
      </trkpt>
      <trkpt lat="44.57516" lon="4.23311">
        <ele>522</ele>
        <time>2018-06-03T08:07:30.000Z</time>
      </trkpt>
      <trkpt lat="44.57516" lon="4.23308">
        <ele>522</ele>
        <time>2018-06-03T08:07:31.000Z</time>
      </trkpt>
      <trkpt lat="44.57516" lon="4.23305">
        <ele>523</ele>
        <time>2018-06-03T08:07:32.000Z</time>
      </trkpt>
      <trkpt lat="44.57516" lon="4.23301">
        <ele>523</ele>
        <time>2018-06-03T08:07:33.000Z</time>
      </trkpt>
      <trkpt lat="44.57516" lon="4.23298">
        <ele>523</ele>
        <time>2018-06-03T08:07:34.000Z</time>
      </trkpt>
      <trkpt lat="44.57516" lon="4.23295">
        <ele>523</ele>
        <time>2018-06-03T08:07:35.000Z</time>
      </trkpt>
      <trkpt lat="44.57515" lon="4.23292">
        <ele>523</ele>
        <time>2018-06-03T08:07:36.000Z</time>
      </trkpt>
      <trkpt lat="44.57515" lon="4.23288">
        <ele>524</ele>
        <time>2018-06-03T08:07:37.000Z</time>
      </trkpt>
      <trkpt lat="44.57515" lon="4.23284">
        <ele>524</ele>
        <time>2018-06-03T08:07:38.000Z</time>
      </trkpt>
      <trkpt lat="44.57514" lon="4.23281">
        <ele>524</ele>
        <time>2018-06-03T08:07:39.000Z</time>
      </trkpt>
      <trkpt lat="44.57514" lon="4.23278">
        <ele>523</ele>
        <time>2018-06-03T08:07:40.000Z</time>
      </trkpt>
      <trkpt lat="44.57513" lon="4.23274">
        <ele>523</ele>
        <time>2018-06-03T08:07:41.000Z</time>
      </trkpt>
      <trkpt lat="44.57513" lon="4.23271">
        <ele>523</ele>
        <time>2018-06-03T08:07:42.000Z</time>
      </trkpt>
      <trkpt lat="44.57512" lon="4.23268">
        <ele>522</ele>
        <time>2018-06-03T08:07:43.000Z</time>
      </trkpt>
      <trkpt lat="44.57512" lon="4.23265">
        <ele>522</ele>
        <time>2018-06-03T08:07:44.000Z</time>
      </trkpt>
      <trkpt lat="44.57512" lon="4.23262">
        <ele>522</ele>
        <time>2018-06-03T08:07:45.000Z</time>
      </trkpt>
      <trkpt lat="44.57511" lon="4.23259">
        <ele>521</ele>
        <time>2018-06-03T08:07:46.000Z</time>
      </trkpt>
      <trkpt lat="44.57512" lon="4.23256">
        <ele>521</ele>
        <time>2018-06-03T08:07:47.000Z</time>
      </trkpt>
      <trkpt lat="44.57512" lon="4.23252">
        <ele>521</ele>
        <time>2018-06-03T08:07:48.000Z</time>
      </trkpt>
      <trkpt lat="44.57513" lon="4.23249">
        <ele>523</ele>
        <time>2018-06-03T08:07:49.000Z</time>
      </trkpt>
      <trkpt lat="44.57513" lon="4.23246">
        <ele>524</ele>
        <time>2018-06-03T08:07:50.000Z</time>
      </trkpt>
      <trkpt lat="44.57514" lon="4.23243">
        <ele>525</ele>
        <time>2018-06-03T08:07:51.000Z</time>
      </trkpt>
      <trkpt lat="44.57514" lon="4.2324">
        <ele>525</ele>
        <time>2018-06-03T08:07:52.000Z</time>
      </trkpt>
      <trkpt lat="44.57515" lon="4.23238">
        <ele>526</ele>
        <time>2018-06-03T08:07:53.000Z</time>
      </trkpt>
      <trkpt lat="44.57516" lon="4.23235">
        <ele>527</ele>
        <time>2018-06-03T08:07:54.000Z</time>
      </trkpt>
      <trkpt lat="44.57517" lon="4.23232">
        <ele>528</ele>
        <time>2018-06-03T08:07:55.000Z</time>
      </trkpt>
      <trkpt lat="44.57518" lon="4.23229">
        <ele>528</ele>
        <time>2018-06-03T08:07:56.000Z</time>
      </trkpt>
      <trkpt lat="44.57519" lon="4.23227">
        <ele>529</ele>
        <time>2018-06-03T08:07:57.000Z</time>
      </trkpt>
      <trkpt lat="44.5752" lon="4.23224">
        <ele>529</ele>
        <time>2018-06-03T08:07:58.000Z</time>
      </trkpt>
      <trkpt lat="44.57521" lon="4.2322">
        <ele>530</ele>
        <time>2018-06-03T08:07:59.000Z</time>
      </trkpt>
      <trkpt lat="44.57522" lon="4.23217">
        <ele>530</ele>
        <time>2018-06-03T08:08:00.000Z</time>
      </trkpt>
      <trkpt lat="44.57523" lon="4.23214">
        <ele>531</ele>
        <time>2018-06-03T08:08:01.000Z</time>
      </trkpt>
      <trkpt lat="44.57524" lon="4.23211">
        <ele>531</ele>
        <time>2018-06-03T08:08:02.000Z</time>
      </trkpt>
      <trkpt lat="44.57525" lon="4.23208">
        <ele>531</ele>
        <time>2018-06-03T08:08:03.000Z</time>
      </trkpt>
      <trkpt lat="44.57526" lon="4.23205">
        <ele>532</ele>
        <time>2018-06-03T08:08:04.000Z</time>
      </trkpt>
      <trkpt lat="44.57527" lon="4.23203">
        <ele>532</ele>
        <time>2018-06-03T08:08:05.000Z</time>
      </trkpt>
      <trkpt lat="44.57528" lon="4.232">
        <ele>532</ele>
        <time>2018-06-03T08:08:06.000Z</time>
      </trkpt>
      <trkpt lat="44.57528" lon="4.23197">
        <ele>532</ele>
        <time>2018-06-03T08:08:07.000Z</time>
      </trkpt>
      <trkpt lat="44.57529" lon="4.23194">
        <ele>532</ele>
        <time>2018-06-03T08:08:08.000Z</time>
      </trkpt>
      <trkpt lat="44.5753" lon="4.23191">
        <ele>532</ele>
        <time>2018-06-03T08:08:09.000Z</time>
      </trkpt>
      <trkpt lat="44.5753" lon="4.23188">
        <ele>532</ele>
        <time>2018-06-03T08:08:10.000Z</time>
      </trkpt>
      <trkpt lat="44.57531" lon="4.23185">
        <ele>532</ele>
        <time>2018-06-03T08:08:11.000Z</time>
      </trkpt>
      <trkpt lat="44.57532" lon="4.23182">
        <ele>533</ele>
        <time>2018-06-03T08:08:12.000Z</time>
      </trkpt>
      <trkpt lat="44.57533" lon="4.23179">
        <ele>533</ele>
        <time>2018-06-03T08:08:13.000Z</time>
      </trkpt>
      <trkpt lat="44.57534" lon="4.23176">
        <ele>533</ele>
        <time>2018-06-03T08:08:14.000Z</time>
      </trkpt>
      <trkpt lat="44.57534" lon="4.23172">
        <ele>533</ele>
        <time>2018-06-03T08:08:15.000Z</time>
      </trkpt>
      <trkpt lat="44.57535" lon="4.23169">
        <ele>534</ele>
        <time>2018-06-03T08:08:16.000Z</time>
      </trkpt>
      <trkpt lat="44.57536" lon="4.23166">
        <ele>538</ele>
        <time>2018-06-03T08:08:17.000Z</time>
      </trkpt>
      <trkpt lat="44.57537" lon="4.23163">
        <ele>539</ele>
        <time>2018-06-03T08:08:18.000Z</time>
      </trkpt>
      <trkpt lat="44.57537" lon="4.23159">
        <ele>539</ele>
        <time>2018-06-03T08:08:19.000Z</time>
      </trkpt>
      <trkpt lat="44.57537" lon="4.23156">
        <ele>539</ele>
        <time>2018-06-03T08:08:20.000Z</time>
      </trkpt>
      <trkpt lat="44.57536" lon="4.23153">
        <ele>539</ele>
        <time>2018-06-03T08:08:21.000Z</time>
      </trkpt>
      <trkpt lat="44.57535" lon="4.23151">
        <ele>539</ele>
        <time>2018-06-03T08:08:22.000Z</time>
      </trkpt>
      <trkpt lat="44.57533" lon="4.23149">
        <ele>538</ele>
        <time>2018-06-03T08:08:23.000Z</time>
      </trkpt>
      <trkpt lat="44.57531" lon="4.23147">
        <ele>538</ele>
        <time>2018-06-03T08:08:24.000Z</time>
      </trkpt>
      <trkpt lat="44.57529" lon="4.23145">
        <ele>538</ele>
        <time>2018-06-03T08:08:25.000Z</time>
      </trkpt>
      <trkpt lat="44.57527" lon="4.23144">
        <ele>537</ele>
        <time>2018-06-03T08:08:26.000Z</time>
      </trkpt>
      <trkpt lat="44.57525" lon="4.23142">
        <ele>537</ele>
        <time>2018-06-03T08:08:27.000Z</time>
      </trkpt>
      <trkpt lat="44.57523" lon="4.2314">
        <ele>537</ele>
        <time>2018-06-03T08:08:28.000Z</time>
      </trkpt>
      <trkpt lat="44.57521" lon="4.23138">
        <ele>537</ele>
        <time>2018-06-03T08:08:29.000Z</time>
      </trkpt>
      <trkpt lat="44.57519" lon="4.23136">
        <ele>537</ele>
        <time>2018-06-03T08:08:30.000Z</time>
      </trkpt>
      <trkpt lat="44.57517" lon="4.23134">
        <ele>537</ele>
        <time>2018-06-03T08:08:31.000Z</time>
      </trkpt>
      <trkpt lat="44.57515" lon="4.23131">
        <ele>537</ele>
        <time>2018-06-03T08:08:32.000Z</time>
      </trkpt>
      <trkpt lat="44.57513" lon="4.23128">
        <ele>537</ele>
        <time>2018-06-03T08:08:33.000Z</time>
      </trkpt>
      <trkpt lat="44.57512" lon="4.23125">
        <ele>537</ele>
        <time>2018-06-03T08:08:34.000Z</time>
      </trkpt>
      <trkpt lat="44.57511" lon="4.23123">
        <ele>537</ele>
        <time>2018-06-03T08:08:35.000Z</time>
      </trkpt>
      <trkpt lat="44.5751" lon="4.2312">
        <ele>537</ele>
        <time>2018-06-03T08:08:36.000Z</time>
      </trkpt>
      <trkpt lat="44.57509" lon="4.23117">
        <ele>537</ele>
        <time>2018-06-03T08:08:37.000Z</time>
      </trkpt>
      <trkpt lat="44.57508" lon="4.23114">
        <ele>537</ele>
        <time>2018-06-03T08:08:38.000Z</time>
      </trkpt>
      <trkpt lat="44.57507" lon="4.23111">
        <ele>537</ele>
        <time>2018-06-03T08:08:39.000Z</time>
      </trkpt>
      <trkpt lat="44.57507" lon="4.23108">
        <ele>537</ele>
        <time>2018-06-03T08:08:40.000Z</time>
      </trkpt>
      <trkpt lat="44.57506" lon="4.23105">
        <ele>537</ele>
        <time>2018-06-03T08:08:41.000Z</time>
      </trkpt>
      <trkpt lat="44.57506" lon="4.23102">
        <ele>536</ele>
        <time>2018-06-03T08:08:42.000Z</time>
      </trkpt>
      <trkpt lat="44.57505" lon="4.23099">
        <ele>536</ele>
        <time>2018-06-03T08:08:43.000Z</time>
      </trkpt>
      <trkpt lat="44.57505" lon="4.23095">
        <ele>536</ele>
        <time>2018-06-03T08:08:44.000Z</time>
      </trkpt>
      <trkpt lat="44.57505" lon="4.23092">
        <ele>535</ele>
        <time>2018-06-03T08:08:45.000Z</time>
      </trkpt>
      <trkpt lat="44.57504" lon="4.23089">
        <ele>534</ele>
        <time>2018-06-03T08:08:46.000Z</time>
      </trkpt>
      <trkpt lat="44.57504" lon="4.23085">
        <ele>534</ele>
        <time>2018-06-03T08:08:47.000Z</time>
      </trkpt>
      <trkpt lat="44.57505" lon="4.23082">
        <ele>535</ele>
        <time>2018-06-03T08:08:48.000Z</time>
      </trkpt>
      <trkpt lat="44.57505" lon="4.23079">
        <ele>536</ele>
        <time>2018-06-03T08:08:49.000Z</time>
      </trkpt>
      <trkpt lat="44.57505" lon="4.23075">
        <ele>537</ele>
        <time>2018-06-03T08:08:50.000Z</time>
      </trkpt>
      <trkpt lat="44.57505" lon="4.23072">
        <ele>539</ele>
        <time>2018-06-03T08:08:51.000Z</time>
      </trkpt>
      <trkpt lat="44.57506" lon="4.23068">
        <ele>540</ele>
        <time>2018-06-03T08:08:52.000Z</time>
      </trkpt>
      <trkpt lat="44.57506" lon="4.23065">
        <ele>541</ele>
        <time>2018-06-03T08:08:53.000Z</time>
      </trkpt>
      <trkpt lat="44.57507" lon="4.23061">
        <ele>542</ele>
        <time>2018-06-03T08:08:54.000Z</time>
      </trkpt>
      <trkpt lat="44.57508" lon="4.23057">
        <ele>542</ele>
        <time>2018-06-03T08:08:55.000Z</time>
      </trkpt>
      <trkpt lat="44.57508" lon="4.23054">
        <ele>543</ele>
        <time>2018-06-03T08:08:56.000Z</time>
      </trkpt>
      <trkpt lat="44.57509" lon="4.2305">
        <ele>543</ele>
        <time>2018-06-03T08:08:57.000Z</time>
      </trkpt>
      <trkpt lat="44.57509" lon="4.23047">
        <ele>544</ele>
        <time>2018-06-03T08:08:58.000Z</time>
      </trkpt>
      <trkpt lat="44.5751" lon="4.23043">
        <ele>544</ele>
        <time>2018-06-03T08:08:59.000Z</time>
      </trkpt>
      <trkpt lat="44.5751" lon="4.23039">
        <ele>544</ele>
        <time>2018-06-03T08:09:00.000Z</time>
      </trkpt>
      <trkpt lat="44.57511" lon="4.23035">
        <ele>544</ele>
        <time>2018-06-03T08:09:01.000Z</time>
      </trkpt>
      <trkpt lat="44.57511" lon="4.23032">
        <ele>544</ele>
        <time>2018-06-03T08:09:02.000Z</time>
      </trkpt>
      <trkpt lat="44.57512" lon="4.23028">
        <ele>544</ele>
        <time>2018-06-03T08:09:03.000Z</time>
      </trkpt>
      <trkpt lat="44.57512" lon="4.23025">
        <ele>543</ele>
        <time>2018-06-03T08:09:04.000Z</time>
      </trkpt>
      <trkpt lat="44.57513" lon="4.23021">
        <ele>543</ele>
        <time>2018-06-03T08:09:05.000Z</time>
      </trkpt>
      <trkpt lat="44.57513" lon="4.23018">
        <ele>543</ele>
        <time>2018-06-03T08:09:06.000Z</time>
      </trkpt>
      <trkpt lat="44.57513" lon="4.23014">
        <ele>542</ele>
        <time>2018-06-03T08:09:07.000Z</time>
      </trkpt>
      <trkpt lat="44.57513" lon="4.23011">
        <ele>542</ele>
        <time>2018-06-03T08:09:08.000Z</time>
      </trkpt>
      <trkpt lat="44.57514" lon="4.23008">
        <ele>541</ele>
        <time>2018-06-03T08:09:09.000Z</time>
      </trkpt>
      <trkpt lat="44.57514" lon="4.23005">
        <ele>541</ele>
        <time>2018-06-03T08:09:10.000Z</time>
      </trkpt>
      <trkpt lat="44.57514" lon="4.23002">
        <ele>540</ele>
        <time>2018-06-03T08:09:11.000Z</time>
      </trkpt>
      <trkpt lat="44.57514" lon="4.22998">
        <ele>542</ele>
        <time>2018-06-03T08:09:12.000Z</time>
      </trkpt>
      <trkpt lat="44.57515" lon="4.22996">
        <ele>542</ele>
        <time>2018-06-03T08:09:13.000Z</time>
      </trkpt>
      <trkpt lat="44.57515" lon="4.22993">
        <ele>543</ele>
        <time>2018-06-03T08:09:14.000Z</time>
      </trkpt>
      <trkpt lat="44.57516" lon="4.2299">
        <ele>543</ele>
        <time>2018-06-03T08:09:15.000Z</time>
      </trkpt>
      <trkpt lat="44.57517" lon="4.22987">
        <ele>544</ele>
        <time>2018-06-03T08:09:16.000Z</time>
      </trkpt>
      <trkpt lat="44.57517" lon="4.22984">
        <ele>545</ele>
        <time>2018-06-03T08:09:17.000Z</time>
      </trkpt>
      <trkpt lat="44.57517" lon="4.22981">
        <ele>545</ele>
        <time>2018-06-03T08:09:18.000Z</time>
      </trkpt>
      <trkpt lat="44.57518" lon="4.22978">
        <ele>546</ele>
        <time>2018-06-03T08:09:19.000Z</time>
      </trkpt>
      <trkpt lat="44.57518" lon="4.22975">
        <ele>546</ele>
        <time>2018-06-03T08:09:20.000Z</time>
      </trkpt>
      <trkpt lat="44.57519" lon="4.22972">
        <ele>547</ele>
        <time>2018-06-03T08:09:21.000Z</time>
      </trkpt>
      <trkpt lat="44.5752" lon="4.22969">
        <ele>547</ele>
        <time>2018-06-03T08:09:22.000Z</time>
      </trkpt>
      <trkpt lat="44.5752" lon="4.22966">
        <ele>547</ele>
        <time>2018-06-03T08:09:23.000Z</time>
      </trkpt>
      <trkpt lat="44.5752" lon="4.22963">
        <ele>548</ele>
        <time>2018-06-03T08:09:24.000Z</time>
      </trkpt>
      <trkpt lat="44.57521" lon="4.22961">
        <ele>548</ele>
        <time>2018-06-03T08:09:25.000Z</time>
      </trkpt>
      <trkpt lat="44.57521" lon="4.22958">
        <ele>548</ele>
        <time>2018-06-03T08:09:26.000Z</time>
      </trkpt>
      <trkpt lat="44.57521" lon="4.22956">
        <ele>548</ele>
        <time>2018-06-03T08:09:27.000Z</time>
      </trkpt>
      <trkpt lat="44.57522" lon="4.22953">
        <ele>548</ele>
        <time>2018-06-03T08:09:28.000Z</time>
      </trkpt>
      <trkpt lat="44.57522" lon="4.2295">
        <ele>548</ele>
        <time>2018-06-03T08:09:29.000Z</time>
      </trkpt>
      <trkpt lat="44.57523" lon="4.22947">
        <ele>548</ele>
        <time>2018-06-03T08:09:30.000Z</time>
      </trkpt>
      <trkpt lat="44.57523" lon="4.22945">
        <ele>548</ele>
        <time>2018-06-03T08:09:31.000Z</time>
      </trkpt>
      <trkpt lat="44.57523" lon="4.22942">
        <ele>548</ele>
        <time>2018-06-03T08:09:32.000Z</time>
      </trkpt>
      <trkpt lat="44.57524" lon="4.22939">
        <ele>548</ele>
        <time>2018-06-03T08:09:33.000Z</time>
      </trkpt>
      <trkpt lat="44.57524" lon="4.22936">
        <ele>547</ele>
        <time>2018-06-03T08:09:34.000Z</time>
      </trkpt>
      <trkpt lat="44.57525" lon="4.22934">
        <ele>547</ele>
        <time>2018-06-03T08:09:35.000Z</time>
      </trkpt>
      <trkpt lat="44.57525" lon="4.22931">
        <ele>547</ele>
        <time>2018-06-03T08:09:36.000Z</time>
      </trkpt>
      <trkpt lat="44.57525" lon="4.22928">
        <ele>547</ele>
        <time>2018-06-03T08:09:37.000Z</time>
      </trkpt>
      <trkpt lat="44.57525" lon="4.22925">
        <ele>547</ele>
        <time>2018-06-03T08:09:38.000Z</time>
      </trkpt>
      <trkpt lat="44.57526" lon="4.22922">
        <ele>547</ele>
        <time>2018-06-03T08:09:39.000Z</time>
      </trkpt>
      <trkpt lat="44.57526" lon="4.22919">
        <ele>547</ele>
        <time>2018-06-03T08:09:40.000Z</time>
      </trkpt>
      <trkpt lat="44.57526" lon="4.22916">
        <ele>545</ele>
        <time>2018-06-03T08:09:41.000Z</time>
      </trkpt>
      <trkpt lat="44.57527" lon="4.22913">
        <ele>545</ele>
        <time>2018-06-03T08:09:42.000Z</time>
      </trkpt>
      <trkpt lat="44.57527" lon="4.22909">
        <ele>545</ele>
        <time>2018-06-03T08:09:43.000Z</time>
      </trkpt>
      <trkpt lat="44.57527" lon="4.22906">
        <ele>545</ele>
        <time>2018-06-03T08:09:44.000Z</time>
      </trkpt>
      <trkpt lat="44.57528" lon="4.22903">
        <ele>545</ele>
        <time>2018-06-03T08:09:45.000Z</time>
      </trkpt>
      <trkpt lat="44.57528" lon="4.22901">
        <ele>545</ele>
        <time>2018-06-03T08:09:46.000Z</time>
      </trkpt>
      <trkpt lat="44.57529" lon="4.22898">
        <ele>546</ele>
        <time>2018-06-03T08:09:47.000Z</time>
      </trkpt>
      <trkpt lat="44.5753" lon="4.22895">
        <ele>546</ele>
        <time>2018-06-03T08:09:48.000Z</time>
      </trkpt>
      <trkpt lat="44.5753" lon="4.22893">
        <ele>546</ele>
        <time>2018-06-03T08:09:49.000Z</time>
      </trkpt>
      <trkpt lat="44.57531" lon="4.2289">
        <ele>546</ele>
        <time>2018-06-03T08:09:50.000Z</time>
      </trkpt>
      <trkpt lat="44.57531" lon="4.22887">
        <ele>546</ele>
        <time>2018-06-03T08:09:51.000Z</time>
      </trkpt>
      <trkpt lat="44.5753" lon="4.22885">
        <ele>546</ele>
        <time>2018-06-03T08:09:52.000Z</time>
      </trkpt>
      <trkpt lat="44.57529" lon="4.22883">
        <ele>546</ele>
        <time>2018-06-03T08:09:53.000Z</time>
      </trkpt>
      <trkpt lat="44.57527" lon="4.22881">
        <ele>545</ele>
        <time>2018-06-03T08:09:54.000Z</time>
      </trkpt>
      <trkpt lat="44.57526" lon="4.22879">
        <ele>545</ele>
        <time>2018-06-03T08:09:55.000Z</time>
      </trkpt>
      <trkpt lat="44.57524" lon="4.22877">
        <ele>545</ele>
        <time>2018-06-03T08:09:56.000Z</time>
      </trkpt>
      <trkpt lat="44.57579" lon="4.23065">
        <ele>556</ele>
      </trkpt>
      <trkpt lat="44.57625" lon="4.23089">
        <ele>576</ele>
      </trkpt>
      <trkpt lat="44.57656" lon="4.23233">
        <ele>567</ele>
      </trkpt>
      <trkpt lat="44.57749" lon="4.23258">
        <ele>573</ele>
      </trkpt>
      <trkpt lat="44.57798" lon="4.23203">
        <ele>585</ele>
      </trkpt>
      <trkpt lat="44.57828" lon="4.23134">
        <ele>597</ele>
      </trkpt>
      <trkpt lat="44.57844" lon="4.231">
        <ele>599</ele>
      </trkpt>
      <trkpt lat="44.57871" lon="4.23089">
        <ele>599</ele>
      </trkpt>
      <trkpt lat="44.57911" lon="4.23095">
        <ele>601</ele>
      </trkpt>
      <trkpt lat="44.57906" lon="4.23177">
        <ele>598</ele>
      </trkpt>
      <trkpt lat="44.57903" lon="4.23226">
        <ele>594</ele>
      </trkpt>
      <trkpt lat="44.57937" lon="4.23216">
        <ele>609</ele>
      </trkpt>
      <trkpt lat="44.57967" lon="4.23149">
        <ele>615</ele>
      </trkpt>
      <trkpt lat="44.58009" lon="4.23108">
        <ele>627</ele>
      </trkpt>
      <trkpt lat="44.58018" lon="4.2317">
        <ele>630</ele>
      </trkpt>
      <trkpt lat="44.58027" lon="4.23226">
        <ele>631</ele>
      </trkpt>
      <trkpt lat="44.58021" lon="4.23299">
        <ele>630</ele>
      </trkpt>
      <trkpt lat="44.58058" lon="4.23331">
        <ele>636</ele>
      </trkpt>
      <trkpt lat="44.58165" lon="4.23404">
        <ele>660</ele>
      </trkpt>
      <trkpt lat="44.58129" lon="4.23333">
        <ele>658</ele>
      </trkpt>
      <trkpt lat="44.58141" lon="4.23275">
        <ele>660</ele>
      </trkpt>
      <trkpt lat="44.58173" lon="4.23363">
        <ele>677</ele>
      </trkpt>
      <trkpt lat="44.58225" lon="4.23425">
        <ele>681</ele>
      </trkpt>
      <trkpt lat="44.5823" lon="4.23575">
        <ele>683</ele>
      </trkpt>
      <trkpt lat="44.58181" lon="4.23672">
        <ele>691</ele>
      </trkpt>
      <trkpt lat="44.58055" lon="4.23781">
        <ele>675</ele>
      </trkpt>
      <trkpt lat="44.58113" lon="4.23886">
        <ele>683</ele>
      </trkpt>
      <trkpt lat="44.58223" lon="4.23951">
        <ele>696</ele>
      </trkpt>
      <trkpt lat="44.58323" lon="4.24069">
        <ele>685</ele>
      </trkpt>
      <trkpt lat="44.58393" lon="4.24054">
        <ele>690</ele>
      </trkpt>
      <trkpt lat="44.58463" lon="4.24004">
        <ele>697</ele>
      </trkpt>
      <trkpt lat="44.58459" lon="4.24122">
        <ele>697</ele>
      </trkpt>
      <trkpt lat="44.58417" lon="4.24228">
        <ele>706</ele>
      </trkpt>
      <trkpt lat="44.58379" lon="4.24348">
        <ele>712</ele>
      </trkpt>
      <trkpt lat="44.58334" lon="4.24468">
        <ele>729</ele>
      </trkpt>
      <trkpt lat="44.58305" lon="4.24552">
        <ele>718</ele>
      </trkpt>
      <trkpt lat="44.58342" lon="4.24644">
        <ele>747</ele>
      </trkpt>
      <trkpt lat="44.58229" lon="4.24749">
        <ele>735</ele>
      </trkpt>
      <trkpt lat="44.58418" lon="4.24813">
        <ele>755</ele>
      </trkpt>
      <trkpt lat="44.58516" lon="4.24843">
        <ele>758</ele>
      </trkpt>
      <trkpt lat="44.5857" lon="4.24867">
        <ele>761</ele>
      </trkpt>
      <trkpt lat="44.58564" lon="4.2503">
        <ele>750</ele>
      </trkpt>
      <trkpt lat="44.58594" lon="4.2512">
        <ele>756</ele>
      </trkpt>
      <trkpt lat="44.58646" lon="4.25067">
        <ele>760</ele>
      </trkpt>
      <trkpt lat="44.5868" lon="4.24923">
        <ele>763</ele>
      </trkpt>
      <trkpt lat="44.58724" lon="4.24863">
        <ele>765</ele>
      </trkpt>
      <trkpt lat="44.58804" lon="4.24773">
        <ele>759</ele>
      </trkpt>
      <trkpt lat="44.58813" lon="4.24605">
        <ele>765</ele>
      </trkpt>
      <trkpt lat="44.58822" lon="4.24479">
        <ele>766</ele>
      </trkpt>
      <trkpt lat="44.58805" lon="4.24404">
        <ele>769</ele>
      </trkpt>
      <trkpt lat="44.58836" lon="4.24313">
        <ele>760</ele>
      </trkpt>
      <trkpt lat="44.58859" lon="4.2426">
        <ele>762</ele>
      </trkpt>
      <trkpt lat="44.58862" lon="4.2417">
        <ele>765</ele>
      </trkpt>
      <trkpt lat="44.58894" lon="4.24037">
        <ele>775</ele>
      </trkpt>
      <trkpt lat="44.58943" lon="4.23998">
        <ele>764</ele>
      </trkpt>
      <trkpt lat="44.58994" lon="4.23885">
        <ele>771</ele>
      </trkpt>
      <trkpt lat="44.59034" lon="4.2383">
        <ele>777</ele>
      </trkpt>
      <trkpt lat="44.59096" lon="4.2386">
        <ele>763</ele>
      </trkpt>
      <trkpt lat="44.59157" lon="4.23826">
        <ele>772</ele>
      </trkpt>
      <trkpt lat="44.59174" lon="4.23843">
        <ele>775</ele>
      </trkpt>
      <trkpt lat="44.59147" lon="4.24047">
        <ele>747</ele>
      </trkpt>
      <trkpt lat="44.59186" lon="4.24107">
        <ele>756</ele>
      </trkpt>
      <trkpt lat="44.59272" lon="4.24159">
        <ele>765</ele>
      </trkpt>
      <trkpt lat="44.59344" lon="4.24176">
        <ele>758</ele>
      </trkpt>
      <trkpt lat="44.59396" lon="4.24146">
        <ele>770</ele>
      </trkpt>
      <trkpt lat="44.59429" lon="4.24144">
        <ele>765</ele>
      </trkpt>
      <trkpt lat="44.59516" lon="4.24094">
        <ele>768</ele>
      </trkpt>
      <trkpt lat="44.59562" lon="4.24109">
        <ele>761</ele>
      </trkpt>
      <trkpt lat="44.59649" lon="4.24069">
        <ele>756</ele>
      </trkpt>
      <trkpt lat="44.59709" lon="4.23978">
        <ele>748</ele>
      </trkpt>
      <trkpt lat="44.59715" lon="4.23892">
        <ele>762</ele>
      </trkpt>
      <trkpt lat="44.59771" lon="4.23899">
        <ele>750</ele>
      </trkpt>
      <trkpt lat="44.5983" lon="4.23894">
        <ele>749</ele>
      </trkpt>
      <trkpt lat="44.59865" lon="4.23892">
        <ele>746</ele>
      </trkpt>
      <trkpt lat="44.59882" lon="4.23849">
        <ele>752</ele>
      </trkpt>
      <trkpt lat="44.59938" lon="4.23821">
        <ele>762</ele>
      </trkpt>
      <trkpt lat="44.59996" lon="4.23772">
        <ele>767</ele>
      </trkpt>
      <trkpt lat="44.60031" lon="4.23727">
        <ele>763</ele>
      </trkpt>
      <trkpt lat="44.60037" lon="4.23663">
        <ele>766</ele>
      </trkpt>
      <trkpt lat="44.60011" lon="4.236">
        <ele>769</ele>
      </trkpt>
      <trkpt lat="44.5997" lon="4.23538">
        <ele>786</ele>
      </trkpt>
      <trkpt lat="44.5997" lon="4.23521">
        <ele>786</ele>
      </trkpt>
      <trkpt lat="44.60005" lon="4.23504">
        <ele>773</ele>
      </trkpt>
      <trkpt lat="44.6003" lon="4.23461">
        <ele>782</ele>
      </trkpt>
      <trkpt lat="44.60059" lon="4.23439">
        <ele>784</ele>
      </trkpt>
      <trkpt lat="44.60121" lon="4.23549">
        <ele>775</ele>
      </trkpt>
      <trkpt lat="44.60218" lon="4.2362">
        <ele>781</ele>
      </trkpt>
      <trkpt lat="44.603" lon="4.23755">
        <ele>774</ele>
      </trkpt>
      <trkpt lat="44.60351" lon="4.23854">
        <ele>777</ele>
      </trkpt>
      <trkpt lat="44.60435" lon="4.23884">
        <ele>787</ele>
      </trkpt>
      <trkpt lat="44.60517" lon="4.2395">
        <ele>781</ele>
      </trkpt>
      <trkpt lat="44.6056" lon="4.2407">
        <ele>769</ele>
      </trkpt>
      <trkpt lat="44.60623" lon="4.24147">
        <ele>770</ele>
      </trkpt>
      <trkpt lat="44.6067" lon="4.24192">
        <ele>770</ele>
      </trkpt>
      <trkpt lat="44.60641" lon="4.24087">
        <ele>773</ele>
      </trkpt>
      <trkpt lat="44.60636" lon="4.23976">
        <ele>778</ele>
      </trkpt>
      <trkpt lat="44.60621" lon="4.2389">
        <ele>781</ele>
      </trkpt>
      <trkpt lat="44.60577" lon="4.23838">
        <ele>792</ele>
      </trkpt>
      <trkpt lat="44.60552" lon="4.23787">
        <ele>798</ele>
      </trkpt>
      <trkpt lat="44.60523" lon="4.23695">
        <ele>802</ele>
      </trkpt>
      <trkpt lat="44.60464" lon="4.23609">
        <ele>818</ele>
      </trkpt>
      <trkpt lat="44.60418" lon="4.23491">
        <ele>824</ele>
      </trkpt>
      <trkpt lat="44.60355" lon="4.23377">
        <ele>834</ele>
      </trkpt>
      <trkpt lat="44.60291" lon="4.23315">
        <ele>850</ele>
      </trkpt>
      <trkpt lat="44.60294" lon="4.23163">
        <ele>855</ele>
      </trkpt>
      <trkpt lat="44.60294" lon="4.23056">
        <ele>867</ele>
      </trkpt>
      <trkpt lat="44.60349" lon="4.22944">
        <ele>856</ele>
      </trkpt>
      <trkpt lat="44.60361" lon="4.2282">
        <ele>880</ele>
      </trkpt>
      <trkpt lat="44.6041" lon="4.22745">
        <ele>887</ele>
      </trkpt>
      <trkpt lat="44.60437" lon="4.22708">
        <ele>885</ele>
      </trkpt>
      <trkpt lat="44.60492" lon="4.22674">
        <ele>881</ele>
      </trkpt>
      <trkpt lat="44.60537" lon="4.22519">
        <ele>883</ele>
      </trkpt>
      <trkpt lat="44.60399" lon="4.22416">
        <ele>903</ele>
      </trkpt>
      <trkpt lat="44.60285" lon="4.22365">
        <ele>917</ele>
      </trkpt>
      <trkpt lat="44.60176" lon="4.22324">
        <ele>932</ele>
      </trkpt>
      <trkpt lat="44.6015" lon="4.22268">
        <ele>943</ele>
      </trkpt>
      <trkpt lat="44.60113" lon="4.22211">
        <ele>936</ele>
      </trkpt>
      <trkpt lat="44.60063" lon="4.22161">
        <ele>957</ele>
      </trkpt>
      <trkpt lat="44.60058" lon="4.22093">
        <ele>962</ele>
      </trkpt>
      <trkpt lat="44.60049" lon="4.2205">
        <ele>977</ele>
      </trkpt>
      <trkpt lat="44.60116" lon="4.22007">
        <ele>952</ele>
      </trkpt>
      <trkpt lat="44.60168" lon="4.21966">
        <ele>939</ele>
      </trkpt>
      <trkpt lat="44.60138" lon="4.21865">
        <ele>976</ele>
      </trkpt>
      <trkpt lat="44.60107" lon="4.21775">
        <ele>994</ele>
      </trkpt>
      <trkpt lat="44.60156" lon="4.21718">
        <ele>997</ele>
      </trkpt>
      <trkpt lat="44.60198" lon="4.21686">
        <ele>978</ele>
      </trkpt>
      <trkpt lat="44.60231" lon="4.21592">
        <ele>986</ele>
      </trkpt>
      <trkpt lat="44.60164" lon="4.21549">
        <ele>1010</ele>
      </trkpt>
      <trkpt lat="44.60109" lon="4.21476">
        <ele>1006</ele>
      </trkpt>
      <trkpt lat="44.60072" lon="4.21407">
        <ele>1024</ele>
      </trkpt>
      <trkpt lat="44.60057" lon="4.21377">
        <ele>1035</ele>
      </trkpt>
      <trkpt lat="44.60066" lon="4.21272">
        <ele>1037</ele>
      </trkpt>
      <trkpt lat="44.60085" lon="4.21156">
        <ele>1026</ele>
      </trkpt>
      <trkpt lat="44.60088" lon="4.21062">
        <ele>1032</ele>
      </trkpt>
      <trkpt lat="44.60123" lon="4.20937">
        <ele>1041</ele>
      </trkpt>
      <trkpt lat="44.60141" lon="4.2086">
        <ele>1050</ele>
      </trkpt>
      <trkpt lat="44.60155" lon="4.20789">
        <ele>1062</ele>
      </trkpt>
      <trkpt lat="44.60208" lon="4.20723">
        <ele>1054</ele>
      </trkpt>
      <trkpt lat="44.60231" lon="4.20611">
        <ele>1062</ele>
      </trkpt>
      <trkpt lat="44.60228" lon="4.20506">
        <ele>1066</ele>
      </trkpt>
      <trkpt lat="44.60225" lon="4.20397">
        <ele>1078</ele>
      </trkpt>
      <trkpt lat="44.60184" lon="4.20555">
        <ele>1078</ele>
      </trkpt>
      <trkpt lat="44.60175" lon="4.20671">
        <ele>1071</ele>
      </trkpt>
      <trkpt lat="44.60129" lon="4.20723">
        <ele>1079</ele>
      </trkpt>
      <trkpt lat="44.60077" lon="4.20843">
        <ele>1073</ele>
      </trkpt>
      <trkpt lat="44.60046" lon="4.20918">
        <ele>1065</ele>
      </trkpt>
      <trkpt lat="44.60007" lon="4.20948">
        <ele>1067</ele>
      </trkpt>
      <trkpt lat="44.59981" lon="4.20982">
        <ele>1061</ele>
      </trkpt>
      <trkpt lat="44.5996" lon="4.21164">
        <ele>1073</ele>
      </trkpt>
      <trkpt lat="44.59935" lon="4.21172">
        <ele>1082</ele>
      </trkpt>
      <trkpt lat="44.59917" lon="4.21293">
        <ele>1101</ele>
      </trkpt>
      <trkpt lat="44.59871" lon="4.21326">
        <ele>1125</ele>
      </trkpt>
      <trkpt lat="44.59853" lon="4.21366">
        <ele>1142</ele>
      </trkpt>
      <trkpt lat="44.59809" lon="4.21366">
        <ele>1148</ele>
      </trkpt>
      <trkpt lat="44.59775" lon="4.21525">
        <ele>1189</ele>
      </trkpt>
      <trkpt lat="44.5972" lon="4.2159">
        <ele>1193</ele>
      </trkpt>
      <trkpt lat="44.59709" lon="4.2165">
        <ele>1193</ele>
      </trkpt>
      <trkpt lat="44.59683" lon="4.21699">
        <ele>1193</ele>
      </trkpt>
      <trkpt lat="44.59569" lon="4.21712">
        <ele>1174</ele>
      </trkpt>
      <trkpt lat="44.59506" lon="4.21718">
        <ele>1171</ele>
      </trkpt>
      <trkpt lat="44.5944" lon="4.21708">
        <ele>1169</ele>
      </trkpt>
      <trkpt lat="44.59364" lon="4.21748">
        <ele>1168</ele>
      </trkpt>
      <trkpt lat="44.59321" lon="4.21748">
        <ele>1166</ele>
      </trkpt>
      <trkpt lat="44.5926" lon="4.21701">
        <ele>1162</ele>
      </trkpt>
      <trkpt lat="44.59187" lon="4.21675">
        <ele>1157</ele>
      </trkpt>
      <trkpt lat="44.59133" lon="4.21742">
        <ele>1140</ele>
      </trkpt>
      <trkpt lat="44.59096" lon="4.21832">
        <ele>1131</ele>
      </trkpt>
      <trkpt lat="44.59046" lon="4.21872">
        <ele>1118</ele>
      </trkpt>
      <trkpt lat="44.58875" lon="4.21904">
        <ele>1091</ele>
      </trkpt>
      <trkpt lat="44.58852" lon="4.21906">
        <ele>1090</ele>
      </trkpt>
      <trkpt lat="44.58818" lon="4.22114">
        <ele>1079</ele>
      </trkpt>
      <trkpt lat="44.58852" lon="4.22232">
        <ele>1058</ele>
      </trkpt>
      <trkpt lat="44.58832" lon="4.22386">
        <ele>1041</ele>
      </trkpt>
      <trkpt lat="44.58782" lon="4.22504">
        <ele>1018</ele>
      </trkpt>
      <trkpt lat="44.58741" lon="4.22616">
        <ele>1007</ele>
      </trkpt>
      <trkpt lat="44.58712" lon="4.22697">
        <ele>998</ele>
      </trkpt>
      <trkpt lat="44.58732" lon="4.22805">
        <ele>985</ele>
      </trkpt>
      <trkpt lat="44.58736" lon="4.22901">
        <ele>959</ele>
      </trkpt>
      <trkpt lat="44.58733" lon="4.22991">
        <ele>941</ele>
      </trkpt>
      <trkpt lat="44.58701" lon="4.22998">
        <ele>937</ele>
      </trkpt>
      <trkpt lat="44.58609" lon="4.2292">
        <ele>913</ele>
      </trkpt>
      <trkpt lat="44.58564" lon="4.22908">
        <ele>893</ele>
      </trkpt>
      <trkpt lat="44.58562" lon="4.22847">
        <ele>896</ele>
      </trkpt>
      <trkpt lat="44.58538" lon="4.22751">
        <ele>891</ele>
      </trkpt>
      <trkpt lat="44.58513" lon="4.22659">
        <ele>888</ele>
      </trkpt>
      <trkpt lat="44.58444" lon="4.22674">
        <ele>844</ele>
      </trkpt>
      <trkpt lat="44.58395" lon="4.22571">
        <ele>833</ele>
      </trkpt>
      <trkpt lat="44.58345" lon="4.22459">
        <ele>836</ele>
      </trkpt>
      <trkpt lat="44.58244" lon="4.2244">
        <ele>808</ele>
      </trkpt>
      <trkpt lat="44.58134" lon="4.22427">
        <ele>790</ele>
      </trkpt>
      <trkpt lat="44.58074" lon="4.22416">
        <ele>787</ele>
      </trkpt>
      <trkpt lat="44.58018" lon="4.22395">
        <ele>775</ele>
      </trkpt>
      <trkpt lat="44.57952" lon="4.2233">
        <ele>751</ele>
      </trkpt>
      <trkpt lat="44.57906" lon="4.22303">
        <ele>729</ele>
      </trkpt>
      <trkpt lat="44.5785" lon="4.22216">
        <ele>716</ele>
      </trkpt>
      <trkpt lat="44.57789" lon="4.22173">
        <ele>696</ele>
      </trkpt>
      <trkpt lat="44.57758" lon="4.22208">
        <ele>692</ele>
      </trkpt>
      <trkpt lat="44.57718" lon="4.22238">
        <ele>670</ele>
      </trkpt>
      <trkpt lat="44.57689" lon="4.22319">
        <ele>654</ele>
      </trkpt>
      <trkpt lat="44.57679" lon="4.22296">
        <ele>656</ele>
      </trkpt>
      <trkpt lat="44.57677" lon="4.22188">
        <ele>662</ele>
      </trkpt>
      <trkpt lat="44.57705" lon="4.22118">
        <ele>664</ele>
      </trkpt>
      <trkpt lat="44.5772" lon="4.22032">
        <ele>660</ele>
      </trkpt>
      <trkpt lat="44.57734" lon="4.21963">
        <ele>657</ele>
      </trkpt>
      <trkpt lat="44.57799" lon="4.21952">
        <ele>661</ele>
      </trkpt>
      <trkpt lat="44.57859" lon="4.21961">
        <ele>666</ele>
      </trkpt>
      <trkpt lat="44.5789" lon="4.21974">
        <ele>670</ele>
      </trkpt>
      <trkpt lat="44.57926" lon="4.21802">
        <ele>663</ele>
      </trkpt>
      <trkpt lat="44.57966" lon="4.21688">
        <ele>651</ele>
      </trkpt>
      <trkpt lat="44.57986" lon="4.21637">
        <ele>639</ele>
      </trkpt>
      <trkpt lat="44.58055" lon="4.21594">
        <ele>657</ele>
      </trkpt>
      <trkpt lat="44.58059" lon="4.21465">
        <ele>644</ele>
      </trkpt>
      <trkpt lat="44.58065" lon="4.21405">
        <ele>641</ele>
      </trkpt>
      <trkpt lat="44.58106" lon="4.21327">
        <ele>644</ele>
      </trkpt>
      <trkpt lat="44.58155" lon="4.21272">
        <ele>649</ele>
      </trkpt>
      <trkpt lat="44.58168" lon="4.21231">
        <ele>661</ele>
      </trkpt>
      <trkpt lat="44.58139" lon="4.2119">
        <ele>639</ele>
      </trkpt>
      <trkpt lat="44.58151" lon="4.21134">
        <ele>639</ele>
      </trkpt>
      <trkpt lat="44.58163" lon="4.21091">
        <ele>641</ele>
      </trkpt>
      <trkpt lat="44.58155" lon="4.21029">
        <ele>640</ele>
      </trkpt>
      <trkpt lat="44.58148" lon="4.20963">
        <ele>648</ele>
      </trkpt>
      <trkpt lat="44.58113" lon="4.20971">
        <ele>647</ele>
      </trkpt>
      <trkpt lat="44.58088" lon="4.21038">
        <ele>637</ele>
      </trkpt>
      <trkpt lat="44.58032" lon="4.21072">
        <ele>636</ele>
      </trkpt>
      <trkpt lat="44.57935" lon="4.21104">
        <ele>619</ele>
      </trkpt>
      <trkpt lat="44.57882" lon="4.21104">
        <ele>606</ele>
      </trkpt>
      <trkpt lat="44.57865" lon="4.20971">
        <ele>622</ele>
      </trkpt>
      <trkpt lat="44.57842" lon="4.20915">
        <ele>612</ele>
      </trkpt>
      <trkpt lat="44.57822" lon="4.20894">
        <ele>595</ele>
      </trkpt>
      <trkpt lat="44.57804" lon="4.20838">
        <ele>592</ele>
      </trkpt>
      <trkpt lat="44.57781" lon="4.20789">
        <ele>583</ele>
      </trkpt>
      <trkpt lat="44.5775" lon="4.20778">
        <ele>578</ele>
      </trkpt>
      <trkpt lat="44.577" lon="4.2077">
        <ele>565</ele>
      </trkpt>
      <trkpt lat="44.57657" lon="4.2083">
        <ele>553</ele>
      </trkpt>
      <trkpt lat="44.57623" lon="4.20879">
        <ele>540</ele>
      </trkpt>
      <trkpt lat="44.57601" lon="4.20911">
        <ele>535</ele>
      </trkpt>
      <trkpt lat="44.57573" lon="4.20896">
        <ele>526</ele>
      </trkpt>
      <trkpt lat="44.57575" lon="4.20984">
        <ele>512</ele>
      </trkpt>
      <trkpt lat="44.57547" lon="4.20963">
        <ele>509</ele>
      </trkpt>
      <trkpt lat="44.57538" lon="4.20997">
        <ele>505</ele>
      </trkpt>
      <trkpt lat="44.5751" lon="4.20969">
        <ele>503</ele>
      </trkpt>
      <trkpt lat="44.5751" lon="4.21027">
        <ele>494</ele>
      </trkpt>
      <trkpt lat="44.57498" lon="4.21016">
        <ele>485</ele>
      </trkpt>
      <trkpt lat="44.5748" lon="4.20965">
        <ele>489</ele>
      </trkpt>
      <trkpt lat="44.57474" lon="4.21051">
        <ele>483</ele>
      </trkpt>
      <trkpt lat="44.57397" lon="4.21037">
        <ele>472</ele>
      </trkpt>
      <trkpt lat="44.57337" lon="4.21042">
        <ele>470</ele>
      </trkpt>
      <trkpt lat="44.57322" lon="4.21078">
        <ele>471</ele>
      </trkpt>
      <trkpt lat="44.57296" lon="4.2107">
        <ele>467</ele>
      </trkpt>
      <trkpt lat="44.57262" lon="4.21033">
        <ele>463</ele>
      </trkpt>
      <trkpt lat="44.57227" lon="4.21048">
        <ele>460</ele>
      </trkpt>
      <trkpt lat="44.57204" lon="4.21033">
        <ele>458</ele>
      </trkpt>
      <trkpt lat="44.57215" lon="4.21162">
        <ele>469</ele>
      </trkpt>
      <trkpt lat="44.57189" lon="4.21181">
        <ele>470</ele>
      </trkpt>
      <trkpt lat="44.57174" lon="4.21148">
        <ele>467</ele>
      </trkpt>
      <trkpt lat="44.5717" lon="4.21189">
        <ele>470</ele>
      </trkpt>
      <trkpt lat="44.57147" lon="4.21147">
        <ele>470</ele>
      </trkpt>
      <trkpt lat="44.57113" lon="4.21209">
        <ele>477</ele>
      </trkpt>
      <trkpt lat="44.5707" lon="4.21286">
        <ele>478</ele>
      </trkpt>
      <trkpt lat="44.57014" lon="4.21378">
        <ele>485</ele>
      </trkpt>
      <trkpt lat="44.56972" lon="4.21405">
        <ele>486</ele>
      </trkpt>
      <trkpt lat="44.56959" lon="4.21341">
        <ele>480</ele>
      </trkpt>
      <trkpt lat="44.56897" lon="4.21322">
        <ele>470</ele>
      </trkpt>
      <trkpt lat="44.5685" lon="4.21328">
        <ele>470</ele>
      </trkpt>
      <trkpt lat="44.56798" lon="4.21343">
        <ele>478</ele>
      </trkpt>
      <trkpt lat="44.56693" lon="4.21472">
        <ele>482</ele>
      </trkpt>
      <trkpt lat="44.56681" lon="4.21535">
        <ele>478</ele>
      </trkpt>
      <trkpt lat="44.56659" lon="4.2158">
        <ele>488</ele>
      </trkpt>
      <trkpt lat="44.56613" lon="4.21606">
        <ele>491</ele>
      </trkpt>
      <trkpt lat="44.56534" lon="4.21664">
        <ele>501</ele>
      </trkpt>
      <trkpt lat="44.56457" lon="4.21677">
        <ele>491</ele>
      </trkpt>
      <trkpt lat="44.56379" lon="4.21657">
        <ele>480</ele>
      </trkpt>
      <trkpt lat="44.56344" lon="4.21565">
        <ele>482</ele>
      </trkpt>
      <trkpt lat="44.56266" lon="4.21535">
        <ele>471</ele>
      </trkpt>
      <trkpt lat="44.56253" lon="4.21559">
        <ele>467</ele>
      </trkpt>
      <trkpt lat="44.56269" lon="4.21595">
        <ele>461</ele>
      </trkpt>
      <trkpt lat="44.56209" lon="4.21695">
        <ele>439</ele>
      </trkpt>
      <trkpt lat="44.56227" lon="4.2172">
        <ele>439</ele>
      </trkpt>
      <trkpt lat="44.56219" lon="4.21811">
        <ele>432</ele>
      </trkpt>
      <trkpt lat="44.56242" lon="4.21899">
        <ele>429</ele>
      </trkpt>
      <trkpt lat="44.56224" lon="4.21992">
        <ele>428</ele>
      </trkpt>
      <trkpt lat="44.56195" lon="4.22053">
        <ele>431</ele>
      </trkpt>
      <trkpt lat="44.56146" lon="4.22097">
        <ele>449</ele>
      </trkpt>
      <trkpt lat="44.56159" lon="4.22182">
        <ele>450</ele>
      </trkpt>
      <trkpt lat="44.56113" lon="4.22226">
        <ele>457</ele>
      </trkpt>
      <trkpt lat="44.56112" lon="4.22251">
        <ele>463</ele>
      </trkpt>
      <trkpt lat="44.56177" lon="4.22289">
        <ele>451</ele>
      </trkpt>
      <trkpt lat="44.56233" lon="4.22365">
        <ele>455</ele>
      </trkpt>
      <trkpt lat="44.56234" lon="4.2239">
        <ele>456</ele>
      </trkpt>
      <trkpt lat="44.56209" lon="4.22379">
        <ele>459</ele>
      </trkpt>
      <trkpt lat="44.56139" lon="4.22327">
        <ele>467</ele>
      </trkpt>
      <trkpt lat="44.56104" lon="4.22329">
        <ele>472</ele>
      </trkpt>
      <trkpt lat="44.56058" lon="4.2231">
        <ele>477</ele>
      </trkpt>
      <trkpt lat="44.56043" lon="4.22308">
        <ele>478</ele>
      </trkpt>
      <trkpt lat="44.56066" lon="4.22362">
        <ele>491</ele>
      </trkpt>
      <trkpt lat="44.56118" lon="4.2239">
        <ele>482</ele>
      </trkpt>
      <trkpt lat="44.56147" lon="4.2243">
        <ele>483</ele>
      </trkpt>
      <trkpt lat="44.56131" lon="4.22486">
        <ele>486</ele>
      </trkpt>
      <trkpt lat="44.56115" lon="4.22415">
        <ele>485</ele>
      </trkpt>
      <trkpt lat="44.5605" lon="4.22413">
        <ele>498</ele>
      </trkpt>
      <trkpt lat="44.56089" lon="4.2246">
        <ele>492</ele>
      </trkpt>
      <trkpt lat="44.56055" lon="4.22634">
        <ele>504</ele>
      </trkpt>
      <trkpt lat="44.55997" lon="4.22611">
        <ele>505</ele>
      </trkpt>
      <trkpt lat="44.55931" lon="4.22525">
        <ele>515</ele>
      </trkpt>
      <trkpt lat="44.55885" lon="4.22484">
        <ele>522</ele>
      </trkpt>
      <trkpt lat="44.55859" lon="4.22512">
        <ele>519</ele>
      </trkpt>
      <trkpt lat="44.55841" lon="4.2257">
        <ele>514</ele>
      </trkpt>
      <trkpt lat="44.5579" lon="4.22619">
        <ele>521</ele>
      </trkpt>
      <trkpt lat="44.55772" lon="4.22701">
        <ele>510</ele>
      </trkpt>
      <trkpt lat="44.55741" lon="4.22827">
        <ele>505</ele>
      </trkpt>
      <trkpt lat="44.55708" lon="4.22915">
        <ele>502</ele>
      </trkpt>
      <trkpt lat="44.55666" lon="4.23041">
        <ele>495</ele>
      </trkpt>
      <trkpt lat="44.55627" lon="4.23009">
        <ele>495</ele>
      </trkpt>
      <trkpt lat="44.55602" lon="4.22944">
        <ele>500</ele>
      </trkpt>
      <trkpt lat="44.55567" lon="4.22901">
        <ele>488</ele>
      </trkpt>
      <trkpt lat="44.55551" lon="4.22915">
        <ele>483</ele>
      </trkpt>
      <trkpt lat="44.55542" lon="4.22887">
        <ele>481</ele>
      </trkpt>
      <trkpt lat="44.55524" lon="4.22889">
        <ele>476</ele>
      </trkpt>
      <trkpt lat="44.55509" lon="4.22851">
        <ele>472</ele>
      </trkpt>
      <trkpt lat="44.55507" lon="4.2284">
        <ele>469</ele>
      </trkpt>
      <trkpt lat="44.55494" lon="4.22846">
        <ele>455</ele>
      </trkpt>
      <trkpt lat="44.55469" lon="4.22793">
        <ele>453</ele>
      </trkpt>
      <trkpt lat="44.55447" lon="4.22718">
        <ele>462</ele>
      </trkpt>
      <trkpt lat="44.55419" lon="4.22725">
        <ele>455</ele>
      </trkpt>
      <trkpt lat="44.55407" lon="4.22733">
        <ele>439</ele>
      </trkpt>
      <trkpt lat="44.55428" lon="4.22746">
        <ele>450</ele>
      </trkpt>
      <trkpt lat="44.55441" lon="4.2281">
        <ele>445</ele>
      </trkpt>
      <trkpt lat="44.55456" lon="4.22841">
        <ele>444</ele>
      </trkpt>
      <trkpt lat="44.55432" lon="4.22896">
        <ele>436</ele>
      </trkpt>
      <trkpt lat="44.55421" lon="4.22947">
        <ele>433</ele>
      </trkpt>
      <trkpt lat="44.55428" lon="4.23019">
        <ele>429</ele>
      </trkpt>
      <trkpt lat="44.55427" lon="4.23071">
        <ele>426</ele>
      </trkpt>
      <trkpt lat="44.55437" lon="4.23114">
        <ele>429</ele>
      </trkpt>
      <trkpt lat="44.55413" lon="4.23126">
        <ele>413</ele>
      </trkpt>
      <trkpt lat="44.55369" lon="4.23174">
        <ele>410</ele>
      </trkpt>
      <trkpt lat="44.55368" lon="4.23284">
        <ele>412</ele>
      </trkpt>
      <trkpt lat="44.55331" lon="4.2335">
        <ele>400</ele>
      </trkpt>
      <trkpt lat="44.55314" lon="4.23434">
        <ele>401</ele>
      </trkpt>
      <trkpt lat="44.55286" lon="4.23534">
        <ele>398</ele>
      </trkpt>
      <trkpt lat="44.55269" lon="4.23665">
        <ele>391</ele>
      </trkpt>
      <trkpt lat="44.55243" lon="4.23773">
        <ele>380</ele>
      </trkpt>
      <trkpt lat="44.55251" lon="4.23917">
        <ele>373</ele>
      </trkpt>
      <trkpt lat="44.55315" lon="4.24029">
        <ele>381</ele>
      </trkpt>
      <trkpt lat="44.55341" lon="4.24123">
        <ele>376</ele>
      </trkpt>
      <trkpt lat="44.55301" lon="4.24204">
        <ele>366</ele>
      </trkpt>
      <trkpt lat="44.55273" lon="4.24235">
        <ele>362</ele>
      </trkpt>
      <trkpt lat="44.55269" lon="4.24273">
        <ele>358</ele>
      </trkpt>
      <trkpt lat="44.55313" lon="4.24288">
        <ele>361</ele>
      </trkpt>
      <trkpt lat="44.55313" lon="4.2431">
        <ele>361</ele>
      </trkpt>
      <trkpt lat="44.55258" lon="4.24335">
        <ele>360</ele>
      </trkpt>
      <trkpt lat="44.55223" lon="4.24344">
        <ele>362</ele>
      </trkpt>
      <trkpt lat="44.552" lon="4.24395">
        <ele>364</ele>
      </trkpt>
      <trkpt lat="44.55161" lon="4.24437">
        <ele>357</ele>
      </trkpt>
      <trkpt lat="44.55122" lon="4.24448">
        <ele>354</ele>
      </trkpt>
      <trkpt lat="44.55133" lon="4.24502">
        <ele>357</ele>
      </trkpt>
      <trkpt lat="44.55153" lon="4.24539">
        <ele>359</ele>
      </trkpt>
      <trkpt lat="44.55132" lon="4.2461">
        <ele>359</ele>
      </trkpt>
      <trkpt lat="44.55138" lon="4.24683">
        <ele>362</ele>
      </trkpt>
      <trkpt lat="44.55129" lon="4.24761">
        <ele>359</ele>
      </trkpt>
      <trkpt lat="44.55168" lon="4.24852">
        <ele>371</ele>
      </trkpt>
      <trkpt lat="44.55175" lon="4.24946">
        <ele>365</ele>
      </trkpt>
      <trkpt lat="44.55145" lon="4.25067">
        <ele>348</ele>
      </trkpt>
      <trkpt lat="44.55155" lon="4.25158">
        <ele>340</ele>
      </trkpt>
      <trkpt lat="44.55197" lon="4.25171">
        <ele>346</ele>
      </trkpt>
      <trkpt lat="44.55217" lon="4.25179">
        <ele>348</ele>
      </trkpt>
      <trkpt lat="44.55262" lon="4.25157">
        <ele>351</ele>
      </trkpt>
      <trkpt lat="44.55306" lon="4.25166">
        <ele>356</ele>
      </trkpt>
      <trkpt lat="44.55324" lon="4.25187">
        <ele>358</ele>
      </trkpt>
      <trkpt lat="44.55376" lon="4.25141">
        <ele>363</ele>
      </trkpt>
      <trkpt lat="44.55426" lon="4.25127">
        <ele>369</ele>
      </trkpt>
      <trkpt lat="44.55428" lon="4.25103">
        <ele>366</ele>
      </trkpt>
      <trkpt lat="44.55376" lon="4.25091">
        <ele>362</ele>
      </trkpt>
      <trkpt lat="44.55319" lon="4.25082">
        <ele>366</ele>
      </trkpt>
      <trkpt lat="44.55283" lon="4.25074">
        <ele>368</ele>
      </trkpt>
      <trkpt lat="44.55419" lon="4.25021">
        <ele>375</ele>
      </trkpt>
      <trkpt lat="44.55488" lon="4.24962">
        <ele>392</ele>
      </trkpt>
      <trkpt lat="44.55519" lon="4.25002">
        <ele>380</ele>
      </trkpt>
      <trkpt lat="44.55591" lon="4.24991">
        <ele>400</ele>
      </trkpt>
      <trkpt lat="44.55625" lon="4.25018">
        <ele>396</ele>
      </trkpt>
      <trkpt lat="44.55644" lon="4.25077">
        <ele>392</ele>
      </trkpt>
      <trkpt lat="44.55784" lon="4.25156">
        <ele>406</ele>
      </trkpt>
      <trkpt lat="44.55913" lon="4.25134">
        <ele>414</ele>
      </trkpt>
      <trkpt lat="44.55971" lon="4.25033">
        <ele>421</ele>
      </trkpt>
      <trkpt lat="44.56023" lon="4.25025">
        <ele>415</ele>
      </trkpt>
      <trkpt lat="44.56027" lon="4.25051">
        <ele>414</ele>
      </trkpt>
      <trkpt lat="44.55976" lon="4.25112">
        <ele>417</ele>
      </trkpt>
      <trkpt lat="44.55953" lon="4.25182">
        <ele>428</ele>
      </trkpt>
      <trkpt lat="44.55873" lon="4.25194">
        <ele>419</ele>
      </trkpt>
      <trkpt lat="44.55767" lon="4.25244">
        <ele>406</ele>
      </trkpt>
      <trkpt lat="44.55765" lon="4.25385">
        <ele>432</ele>
      </trkpt>
      <trkpt lat="44.55629" lon="4.25289">
        <ele>419</ele>
      </trkpt>
      <trkpt lat="44.55539" lon="4.25352">
        <ele>430</ele>
      </trkpt>
      <trkpt lat="44.5553" lon="4.25428">
        <ele>430</ele>
      </trkpt>
      <trkpt lat="44.55571" lon="4.25561">
        <ele>445</ele>
      </trkpt>
      <trkpt lat="44.55542" lon="4.25621">
        <ele>450</ele>
      </trkpt>
      <trkpt lat="44.55537" lon="4.25669">
        <ele>462</ele>
      </trkpt>
      <trkpt lat="44.55408" lon="4.25791">
        <ele>454</ele>
      </trkpt>
      <trkpt lat="44.55346" lon="4.25929">
        <ele>455</ele>
      </trkpt>
      <trkpt lat="44.55327" lon="4.26156">
        <ele>452</ele>
      </trkpt>
      <trkpt lat="44.55251" lon="4.25935">
        <ele>446</ele>
      </trkpt>
      <trkpt lat="44.55197" lon="4.25888">
        <ele>436</ele>
      </trkpt>
      <trkpt lat="44.55243" lon="4.25828">
        <ele>438</ele>
      </trkpt>
      <trkpt lat="44.55275" lon="4.25753">
        <ele>438</ele>
      </trkpt>
      <trkpt lat="44.55266" lon="4.25686">
        <ele>423</ele>
      </trkpt>
      <trkpt lat="44.55367" lon="4.25648">
        <ele>420</ele>
      </trkpt>
      <trkpt lat="44.55372" lon="4.25525">
        <ele>401</ele>
      </trkpt>
      <trkpt lat="44.55337" lon="4.2548">
        <ele>395</ele>
      </trkpt>
      <trkpt lat="44.55314" lon="4.25412">
        <ele>386</ele>
      </trkpt>
      <trkpt lat="44.55281" lon="4.25343">
        <ele>382</ele>
      </trkpt>
      <trkpt lat="44.55269" lon="4.25311">
        <ele>375</ele>
      </trkpt>
      <trkpt lat="44.55239" lon="4.25352">
        <ele>375</ele>
      </trkpt>
      <trkpt lat="44.55252" lon="4.25416">
        <ele>381</ele>
      </trkpt>
      <trkpt lat="44.55219" lon="4.25365">
        <ele>371</ele>
      </trkpt>
      <trkpt lat="44.55199" lon="4.25395">
        <ele>368</ele>
      </trkpt>
      <trkpt lat="44.55177" lon="4.25328">
        <ele>362</ele>
      </trkpt>
      <trkpt lat="44.55151" lon="4.25292">
        <ele>346</ele>
      </trkpt>
      <trkpt lat="44.55136" lon="4.25255">
        <ele>344</ele>
      </trkpt>
      <trkpt lat="44.55116" lon="4.25313">
        <ele>343</ele>
      </trkpt>
      <trkpt lat="44.55104" lon="4.25354">
        <ele>344</ele>
      </trkpt>
      <trkpt lat="44.55135" lon="4.25414">
        <ele>349</ele>
      </trkpt>
      <trkpt lat="44.55089" lon="4.25435">
        <ele>345</ele>
      </trkpt>
      <trkpt lat="44.55051" lon="4.25523">
        <ele>338</ele>
      </trkpt>
      <trkpt lat="44.55061" lon="4.2557">
        <ele>342</ele>
      </trkpt>
      <trkpt lat="44.55038" lon="4.25594">
        <ele>344</ele>
      </trkpt>
      <trkpt lat="44.54864" lon="4.25817">
        <ele>342</ele>
      </trkpt>
      <trkpt lat="44.54844" lon="4.25922">
        <ele>346</ele>
      </trkpt>
      <trkpt lat="44.54893" lon="4.25987">
        <ele>357</ele>
      </trkpt>
      <trkpt lat="44.5483" lon="4.26034">
        <ele>340</ele>
      </trkpt>
      <trkpt lat="44.54829" lon="4.26165">
        <ele>358</ele>
      </trkpt>
      <trkpt lat="44.54769" lon="4.26248">
        <ele>360</ele>
      </trkpt>
      <trkpt lat="44.54697" lon="4.26285">
        <ele>354</ele>
      </trkpt>
      <trkpt lat="44.54648" lon="4.26375">
        <ele>357</ele>
      </trkpt>
      <trkpt lat="44.54604" lon="4.2645">
        <ele>371</ele>
      </trkpt>
      <trkpt lat="44.54535" lon="4.266">
        <ele>370</ele>
      </trkpt>
      <trkpt lat="44.54467" lon="4.26709">
        <ele>357</ele>
      </trkpt>
      <trkpt lat="44.54416" lon="4.26797">
        <ele>350</ele>
      </trkpt>
      <trkpt lat="44.54373" lon="4.269">
        <ele>353</ele>
      </trkpt>
      <trkpt lat="44.54461" lon="4.26957">
        <ele>368</ele>
      </trkpt>
      <trkpt lat="44.54555" lon="4.27066">
        <ele>377</ele>
      </trkpt>
      <trkpt lat="44.5447" lon="4.26856">
        <ele>383</ele>
      </trkpt>
      <trkpt lat="44.54503" lon="4.26826">
        <ele>395</ele>
      </trkpt>
      <trkpt lat="44.5472" lon="4.27044">
        <ele>406</ele>
      </trkpt>
      <trkpt lat="44.54892" lon="4.27169">
        <ele>413</ele>
      </trkpt>
      <trkpt lat="44.5498" lon="4.27328">
        <ele>414</ele>
      </trkpt>
      <trkpt lat="44.55005" lon="4.27465">
        <ele>417</ele>
      </trkpt>
      <trkpt lat="44.55097" lon="4.27585">
        <ele>415</ele>
      </trkpt>
      <trkpt lat="44.55164" lon="4.27611">
        <ele>415</ele>
      </trkpt>
      <trkpt lat="44.55185" lon="4.27589">
        <ele>419</ele>
      </trkpt>
      <trkpt lat="44.55229" lon="4.27716">
        <ele>415</ele>
      </trkpt>
      <trkpt lat="44.55248" lon="4.27802">
        <ele>413</ele>
      </trkpt>
      <trkpt lat="44.55236" lon="4.27877">
        <ele>410</ele>
      </trkpt>
      <trkpt lat="44.55217" lon="4.27982">
        <ele>411</ele>
      </trkpt>
      <trkpt lat="44.552" lon="4.28029">
        <ele>416</ele>
      </trkpt>
      <trkpt lat="44.55159" lon="4.28015">
        <ele>413</ele>
      </trkpt>
      <trkpt lat="44.55112" lon="4.27994">
        <ele>405</ele>
      </trkpt>
      <trkpt lat="44.55064" lon="4.27953">
        <ele>402</ele>
      </trkpt>
      <trkpt lat="44.55049" lon="4.27934">
        <ele>400</ele>
      </trkpt>
      <trkpt lat="44.55041" lon="4.27951">
        <ele>402</ele>
      </trkpt>
      <trkpt lat="44.55056" lon="4.2797">
        <ele>403</ele>
      </trkpt>
      <trkpt lat="44.55096" lon="4.27999">
        <ele>406</ele>
      </trkpt>
      <trkpt lat="44.5509" lon="4.28009">
        <ele>411</ele>
      </trkpt>
      <trkpt lat="44.5506" lon="4.28004">
        <ele>416</ele>
      </trkpt>
      <trkpt lat="44.55094" lon="4.28032">
        <ele>415</ele>
      </trkpt>
      <trkpt lat="44.55118" lon="4.2804">
        <ele>416</ele>
      </trkpt>
      <trkpt lat="44.55079" lon="4.28049">
        <ele>422</ele>
      </trkpt>
      <trkpt lat="44.55047" lon="4.28046">
        <ele>422</ele>
      </trkpt>
      <trkpt lat="44.55027" lon="4.28033">
        <ele>421</ele>
      </trkpt>
      <trkpt lat="44.5494" lon="4.28009">
        <ele>425</ele>
      </trkpt>
      <trkpt lat="44.5483" lon="4.27997">
        <ele>421</ele>
      </trkpt>
      <trkpt lat="44.54905" lon="4.28022">
        <ele>429</ele>
      </trkpt>
      <trkpt lat="44.54974" lon="4.28056">
        <ele>431</ele>
      </trkpt>
      <trkpt lat="44.5502" lon="4.28121">
        <ele>435</ele>
      </trkpt>
      <trkpt lat="44.5494" lon="4.28142">
        <ele>441</ele>
      </trkpt>
      <trkpt lat="44.54881" lon="4.2814">
        <ele>447</ele>
      </trkpt>
      <trkpt lat="44.54819" lon="4.28147">
        <ele>452</ele>
      </trkpt>
      <trkpt lat="44.54787" lon="4.28168">
        <ele>452</ele>
      </trkpt>
      <trkpt lat="44.54752" lon="4.28192">
        <ele>452</ele>
      </trkpt>
      <trkpt lat="44.54676" lon="4.28147">
        <ele>457</ele>
      </trkpt>
      <trkpt lat="44.54578" lon="4.28108">
        <ele>444</ele>
      </trkpt>
      <trkpt lat="44.54513" lon="4.28121">
        <ele>439</ele>
      </trkpt>
      <trkpt lat="44.54606" lon="4.28438">
        <ele>427</ele>
      </trkpt>
      <trkpt lat="44.54633" lon="4.28489">
        <ele>420</ele>
      </trkpt>
      <trkpt lat="44.54794" lon="4.28328">
        <ele>428</ele>
      </trkpt>
      <trkpt lat="44.54948" lon="4.28221">
        <ele>433</ele>
      </trkpt>
      <trkpt lat="44.54993" lon="4.28236">
        <ele>429</ele>
      </trkpt>
      <trkpt lat="44.5495" lon="4.28311">
        <ele>413</ele>
      </trkpt>
      <trkpt lat="44.54885" lon="4.28318">
        <ele>417</ele>
      </trkpt>
      <trkpt lat="44.54835" lon="4.28358">
        <ele>402</ele>
      </trkpt>
      <trkpt lat="44.54749" lon="4.2847">
        <ele>400</ele>
      </trkpt>
      <trkpt lat="44.54745" lon="4.28494">
        <ele>390</ele>
      </trkpt>
      <trkpt lat="44.54729" lon="4.28564">
        <ele>378</ele>
      </trkpt>
      <trkpt lat="44.54814" lon="4.28483">
        <ele>378</ele>
      </trkpt>
      <trkpt lat="44.54729" lon="4.28635">
        <ele>359</ele>
      </trkpt>
      <trkpt lat="44.54656" lon="4.2874">
        <ele>341</ele>
      </trkpt>
      <trkpt lat="44.54603" lon="4.28815">
        <ele>322</ele>
      </trkpt>
      <trkpt lat="44.54529" lon="4.28856">
        <ele>307</ele>
      </trkpt>
      <trkpt lat="44.5447" lon="4.28904">
        <ele>305</ele>
      </trkpt>
      <trkpt lat="44.54427" lon="4.28969">
        <ele>282</ele>
      </trkpt>
      <trkpt lat="44.54367" lon="4.29027">
        <ele>266</ele>
      </trkpt>
      <trkpt lat="44.54298" lon="4.29009">
        <ele>260</ele>
      </trkpt>
      <trkpt lat="44.54253" lon="4.28992">
        <ele>261</ele>
      </trkpt>
      <trkpt lat="44.54271" lon="4.29034">
        <ele>254</ele>
      </trkpt>
      <trkpt lat="44.54305" lon="4.2908">
        <ele>254</ele>
      </trkpt>
      <trkpt lat="44.54275" lon="4.29077">
        <ele>249</ele>
      </trkpt>
      <trkpt lat="44.5425" lon="4.29125">
        <ele>230</ele>
      </trkpt>
      <trkpt lat="44.54185" lon="4.29074">
        <ele>234</ele>
      </trkpt>
      <trkpt lat="44.54149" lon="4.29082">
        <ele>227</ele>
      </trkpt>
      <trkpt lat="44.54127" lon="4.29052">
        <ele>227</ele>
      </trkpt>
      <trkpt lat="44.54092" lon="4.29176">
        <ele>209</ele>
      </trkpt>
      <trkpt lat="44.54064" lon="4.29209">
        <ele>211</ele>
      </trkpt>
      <trkpt lat="44.53911" lon="4.29185">
        <ele>203</ele>
      </trkpt>
      <trkpt lat="44.53797" lon="4.29323">
        <ele>206</ele>
      </trkpt>
      <trkpt lat="44.53676" lon="4.2953">
        <ele>212</ele>
      </trkpt>
      <trkpt lat="44.53648" lon="4.29551">
        <ele>206</ele>
      </trkpt>
      <trkpt lat="44.53606" lon="4.29579">
        <ele>202</ele>
      </trkpt>
      <trkpt lat="44.5343" lon="4.29585">
        <ele>203</ele>
      </trkpt>
      <trkpt lat="44.53326" lon="4.29594">
        <ele>206</ele>
      </trkpt>
      <trkpt lat="44.53244" lon="4.29623">
        <ele>202</ele>
      </trkpt>
      <trkpt lat="44.5316" lon="4.29625">
        <ele>191</ele>
      </trkpt>
      <trkpt lat="44.53137" lon="4.29621">
        <ele>191</ele>
      </trkpt>
      <trkpt lat="44.53111" lon="4.29599">
        <ele>189</ele>
      </trkpt>
      <trkpt lat="44.53088" lon="4.29524">
        <ele>188</ele>
      </trkpt>
      <trkpt lat="44.53068" lon="4.29478">
        <ele>195</ele>
      </trkpt>
      <trkpt lat="44.53038" lon="4.29476">
        <ele>197</ele>
      </trkpt>
      <trkpt lat="44.52997" lon="4.29509">
        <ele>193</ele>
      </trkpt>
      <trkpt lat="44.53083" lon="4.29365">
        <ele>209</ele>
      </trkpt>
      <trkpt lat="44.53078" lon="4.29314">
        <ele>210</ele>
      </trkpt>
      <trkpt lat="44.53" lon="4.29147">
        <ele>227</ele>
      </trkpt>
      <trkpt lat="44.52976" lon="4.2904">
        <ele>228</ele>
      </trkpt>
      <trkpt lat="44.52986" lon="4.28933">
        <ele>237</ele>
      </trkpt>
      <trkpt lat="44.53043" lon="4.28785">
        <ele>230</ele>
      </trkpt>
      <trkpt lat="44.53027" lon="4.28692">
        <ele>233</ele>
      </trkpt>
      <trkpt lat="44.53015" lon="4.28554">
        <ele>237</ele>
      </trkpt>
      <trkpt lat="44.53074" lon="4.28394">
        <ele>251</ele>
      </trkpt>
      <trkpt lat="44.53119" lon="4.28331">
        <ele>265</ele>
      </trkpt>
      <trkpt lat="44.53219" lon="4.28314">
        <ele>258</ele>
      </trkpt>
      <trkpt lat="44.53126" lon="4.28301">
        <ele>268</ele>
      </trkpt>
      <trkpt lat="44.53043" lon="4.28366">
        <ele>266</ele>
      </trkpt>
      <trkpt lat="44.52971" lon="4.28457">
        <ele>277</ele>
      </trkpt>
      <trkpt lat="44.52907" lon="4.2862">
        <ele>287</ele>
      </trkpt>
      <trkpt lat="44.52924" lon="4.28756">
        <ele>285</ele>
      </trkpt>
      <trkpt lat="44.52934" lon="4.28781">
        <ele>276</ele>
      </trkpt>
      <trkpt lat="44.52876" lon="4.28862">
        <ele>282</ele>
      </trkpt>
      <trkpt lat="44.52851" lon="4.28955">
        <ele>277</ele>
      </trkpt>
      <trkpt lat="44.52828" lon="4.29056">
        <ele>286</ele>
      </trkpt>
      <trkpt lat="44.52828" lon="4.29145">
        <ele>289</ele>
      </trkpt>
      <trkpt lat="44.52838" lon="4.29227">
        <ele>289</ele>
      </trkpt>
      <trkpt lat="44.52786" lon="4.2923">
        <ele>291</ele>
      </trkpt>
      <trkpt lat="44.52799" lon="4.29046">
        <ele>286</ele>
      </trkpt>
      <trkpt lat="44.52715" lon="4.29021">
        <ele>280</ele>
      </trkpt>
      <trkpt lat="44.52648" lon="4.28983">
        <ele>272</ele>
      </trkpt>
      <trkpt lat="44.52612" lon="4.28897">
        <ele>269</ele>
      </trkpt>
      <trkpt lat="44.52597" lon="4.28875">
        <ele>270</ele>
      </trkpt>
      <trkpt lat="44.52527" lon="4.28917">
        <ele>268</ele>
      </trkpt>
      <trkpt lat="44.52464" lon="4.28993">
        <ele>268</ele>
      </trkpt>
      <trkpt lat="44.52414" lon="4.29032">
        <ele>267</ele>
      </trkpt>
      <trkpt lat="44.52403" lon="4.29089">
        <ele>262</ele>
      </trkpt>
      <trkpt lat="44.52389" lon="4.29105">
        <ele>261</ele>
      </trkpt>
      <trkpt lat="44.52336" lon="4.29099">
        <ele>264</ele>
      </trkpt>
      <trkpt lat="44.52267" lon="4.29029">
        <ele>267</ele>
      </trkpt>
      <trkpt lat="44.5225" lon="4.29">
        <ele>271</ele>
      </trkpt>
      <trkpt lat="44.52208" lon="4.28993">
        <ele>272</ele>
      </trkpt>
      <trkpt lat="44.52206" lon="4.28965">
        <ele>273</ele>
      </trkpt>
      <trkpt lat="44.52172" lon="4.28926">
        <ele>274</ele>
      </trkpt>
      <trkpt lat="44.52182" lon="4.28872">
        <ele>277</ele>
      </trkpt>
      <trkpt lat="44.52238" lon="4.28834">
        <ele>279</ele>
      </trkpt>
      <trkpt lat="44.52274" lon="4.28736">
        <ele>285</ele>
      </trkpt>
      <trkpt lat="44.52322" lon="4.28652">
        <ele>290</ele>
      </trkpt>
      <trkpt lat="44.52347" lon="4.28584">
        <ele>291</ele>
      </trkpt>
      <trkpt lat="44.52287" lon="4.28554">
        <ele>293</ele>
      </trkpt>
      <trkpt lat="44.5225" lon="4.28546">
        <ele>293</ele>
      </trkpt>
      <trkpt lat="44.52239" lon="4.2856">
        <ele>289</ele>
      </trkpt>
      <trkpt lat="44.52225" lon="4.28549">
        <ele>288</ele>
      </trkpt>
      <trkpt lat="44.52236" lon="4.28514">
        <ele>290</ele>
      </trkpt>
      <trkpt lat="44.52246" lon="4.28385">
        <ele>289</ele>
      </trkpt>
      <trkpt lat="44.52265" lon="4.28339">
        <ele>294</ele>
      </trkpt>
      <trkpt lat="44.52286" lon="4.28334">
        <ele>296</ele>
      </trkpt>
      <trkpt lat="44.52377" lon="4.2826">
        <ele>298</ele>
      </trkpt>
      <trkpt lat="44.52421" lon="4.28247">
        <ele>297</ele>
      </trkpt>
      <trkpt lat="44.52394" lon="4.28157">
        <ele>298</ele>
      </trkpt>
      <trkpt lat="44.52387" lon="4.28152">
        <ele>298</ele>
      </trkpt>
      <trkpt lat="44.52349" lon="4.28184">
        <ele>297</ele>
      </trkpt>
      <trkpt lat="44.52321" lon="4.28187">
        <ele>297</ele>
      </trkpt>
      <trkpt lat="44.52251" lon="4.28232">
        <ele>296</ele>
      </trkpt>
      <trkpt lat="44.5222" lon="4.28257">
        <ele>291</ele>
      </trkpt>
      <trkpt lat="44.52188" lon="4.2824">
        <ele>295</ele>
      </trkpt>
      <trkpt lat="44.52162" lon="4.2821">
        <ele>295</ele>
      </trkpt>
      <trkpt lat="44.52125" lon="4.28141">
        <ele>301</ele>
      </trkpt>
      <trkpt lat="44.52168" lon="4.2807">
        <ele>308</ele>
      </trkpt>
      <trkpt lat="44.522" lon="4.28036">
        <ele>307</ele>
      </trkpt>
      <trkpt lat="44.52218" lon="4.27996">
        <ele>306</ele>
      </trkpt>
      <trkpt lat="44.52264" lon="4.27957">
        <ele>309</ele>
      </trkpt>
      <trkpt lat="44.52405" lon="4.27943">
        <ele>312</ele>
      </trkpt>
      <trkpt lat="44.52432" lon="4.27908">
        <ele>314</ele>
      </trkpt>
      <trkpt lat="44.52401" lon="4.27831">
        <ele>314</ele>
      </trkpt>
      <trkpt lat="44.52445" lon="4.27777">
        <ele>317</ele>
      </trkpt>
      <trkpt lat="44.52443" lon="4.27748">
        <ele>316</ele>
      </trkpt>
      <trkpt lat="44.5238" lon="4.27594">
        <ele>306</ele>
      </trkpt>
      <trkpt lat="44.524" lon="4.27577">
        <ele>305</ele>
      </trkpt>
      <trkpt lat="44.52402" lon="4.27557">
        <ele>304</ele>
      </trkpt>
      <trkpt lat="44.52392" lon="4.27549">
        <ele>304</ele>
      </trkpt>
      <trkpt lat="44.52385" lon="4.27505">
        <ele>303</ele>
      </trkpt>
      <trkpt lat="44.52398" lon="4.27474">
        <ele>303</ele>
      </trkpt>
      <trkpt lat="44.52408" lon="4.27469">
        <ele>303</ele>
      </trkpt>
      <trkpt lat="44.52405" lon="4.27433">
        <ele>304</ele>
      </trkpt>
      <trkpt lat="44.52394" lon="4.27444">
        <ele>303</ele>
      </trkpt>
      <trkpt lat="44.52378" lon="4.27446">
        <ele>302</ele>
      </trkpt>
      <trkpt lat="44.52367" lon="4.27455">
        <ele>301</ele>
      </trkpt>
      <trkpt lat="44.52349" lon="4.27455">
        <ele>300</ele>
      </trkpt>
      <trkpt lat="44.5233" lon="4.2746">
        <ele>298</ele>
      </trkpt>
      <trkpt lat="44.52325" lon="4.27463">
        <ele>298</ele>
      </trkpt>
      <trkpt lat="44.52314" lon="4.27452">
        <ele>298</ele>
      </trkpt>
      <trkpt lat="44.52309" lon="4.27445">
        <ele>298</ele>
      </trkpt>
      <trkpt lat="44.52285" lon="4.27463">
        <ele>298</ele>
      </trkpt>
      <trkpt lat="44.52269" lon="4.27468">
        <ele>298</ele>
      </trkpt>
      <trkpt lat="44.52264" lon="4.27452">
        <ele>299</ele>
      </trkpt>
      <trkpt lat="44.52238" lon="4.27418">
        <ele>302</ele>
      </trkpt>
      <trkpt lat="44.52224" lon="4.27412">
        <ele>303</ele>
      </trkpt>
      <trkpt lat="44.52218" lon="4.27413">
        <ele>303</ele>
      </trkpt>
      <trkpt lat="44.52207" lon="4.27401">
        <ele>303</ele>
      </trkpt>
      <trkpt lat="44.52185" lon="4.27378">
        <ele>302</ele>
      </trkpt>
      <trkpt lat="44.52164" lon="4.27361">
        <ele>302</ele>
      </trkpt>
      <trkpt lat="44.5212" lon="4.27324">
        <ele>302</ele>
      </trkpt>
      <trkpt lat="44.52112" lon="4.27316">
        <ele>302</ele>
      </trkpt>
      <trkpt lat="44.5214" lon="4.27266">
        <ele>303</ele>
      </trkpt>
      <trkpt lat="44.52155" lon="4.27254">
        <ele>303</ele>
      </trkpt>
      <trkpt lat="44.52207" lon="4.27229">
        <ele>308</ele>
      </trkpt>
      <trkpt lat="44.52243" lon="4.2717">
        <ele>314</ele>
      </trkpt>
      <trkpt lat="44.5228" lon="4.27128">
        <ele>324</ele>
      </trkpt>
      <trkpt lat="44.52294" lon="4.27061">
        <ele>330</ele>
      </trkpt>
      <trkpt lat="44.52307" lon="4.2703">
        <ele>332</ele>
      </trkpt>
      <trkpt lat="44.52395" lon="4.26983">
        <ele>343</ele>
      </trkpt>
      <trkpt lat="44.52428" lon="4.26953">
        <ele>350</ele>
      </trkpt>
      <trkpt lat="44.52439" lon="4.26936">
        <ele>351</ele>
      </trkpt>
      <trkpt lat="44.52474" lon="4.26928">
        <ele>353</ele>
      </trkpt>
      <trkpt lat="44.52496" lon="4.2693">
        <ele>355</ele>
      </trkpt>
      <trkpt lat="44.52515" lon="4.26919">
        <ele>356</ele>
      </trkpt>
      <trkpt lat="44.52524" lon="4.26895">
        <ele>357</ele>
      </trkpt>
      <trkpt lat="44.52547" lon="4.26874">
        <ele>358</ele>
      </trkpt>
      <trkpt lat="44.52562" lon="4.26858">
        <ele>358</ele>
      </trkpt>
      <trkpt lat="44.52622" lon="4.26838">
        <ele>361</ele>
      </trkpt>
      <trkpt lat="44.52635" lon="4.26838">
        <ele>361</ele>
      </trkpt>
      <trkpt lat="44.52664" lon="4.26816">
        <ele>362</ele>
      </trkpt>
      <trkpt lat="44.52706" lon="4.26809">
        <ele>366</ele>
      </trkpt>
      <trkpt lat="44.52733" lon="4.26795">
        <ele>367</ele>
      </trkpt>
      <trkpt lat="44.52736" lon="4.26786">
        <ele>367</ele>
      </trkpt>
      <trkpt lat="44.52714" lon="4.26759">
        <ele>367</ele>
      </trkpt>
      <trkpt lat="44.52698" lon="4.26747">
        <ele>369</ele>
      </trkpt>
      <trkpt lat="44.52689" lon="4.26712">
        <ele>369</ele>
      </trkpt>
      <trkpt lat="44.52686" lon="4.26681">
        <ele>369</ele>
      </trkpt>
      <trkpt lat="44.52683" lon="4.26653">
        <ele>369</ele>
      </trkpt>
      <trkpt lat="44.52683" lon="4.26627">
        <ele>369</ele>
      </trkpt>
      <trkpt lat="44.52685" lon="4.26607">
        <ele>368</ele>
      </trkpt>
      <trkpt lat="44.52697" lon="4.26588">
        <ele>369</ele>
      </trkpt>
      <trkpt lat="44.52723" lon="4.26559">
        <ele>369</ele>
      </trkpt>
      <trkpt lat="44.52734" lon="4.26547">
        <ele>369</ele>
      </trkpt>
      <trkpt lat="44.52752" lon="4.26522">
        <ele>374</ele>
      </trkpt>
      <trkpt lat="44.52785" lon="4.26475">
        <ele>374</ele>
      </trkpt>
      <trkpt lat="44.52819" lon="4.26421">
        <ele>376</ele>
      </trkpt>
      <trkpt lat="44.52855" lon="4.26419">
        <ele>377</ele>
      </trkpt>
      <trkpt lat="44.5285" lon="4.26352">
        <ele>375</ele>
      </trkpt>
      <trkpt lat="44.52812" lon="4.26327">
        <ele>371</ele>
      </trkpt>
      <trkpt lat="44.52847" lon="4.26271">
        <ele>376</ele>
      </trkpt>
      <trkpt lat="44.52842" lon="4.26245">
        <ele>379</ele>
      </trkpt>
      <trkpt lat="44.52851" lon="4.262">
        <ele>384</ele>
      </trkpt>
      <trkpt lat="44.52871" lon="4.2617">
        <ele>386</ele>
      </trkpt>
      <trkpt lat="44.52871" lon="4.26116">
        <ele>396</ele>
      </trkpt>
      <trkpt lat="44.52811" lon="4.26093">
        <ele>398</ele>
      </trkpt>
      <trkpt lat="44.52803" lon="4.26061">
        <ele>403</ele>
      </trkpt>
      <trkpt lat="44.52804" lon="4.26025">
        <ele>404</ele>
      </trkpt>
      <trkpt lat="44.52832" lon="4.26008">
        <ele>407</ele>
      </trkpt>
      <trkpt lat="44.52856" lon="4.26012">
        <ele>406</ele>
      </trkpt>
      <trkpt lat="44.52868" lon="4.25984">
        <ele>405</ele>
      </trkpt>
      <trkpt lat="44.52877" lon="4.2593">
        <ele>404</ele>
      </trkpt>
      <trkpt lat="44.52898" lon="4.25919">
        <ele>405</ele>
      </trkpt>
      <trkpt lat="44.529" lon="4.25848">
        <ele>404</ele>
      </trkpt>
      <trkpt lat="44.52891" lon="4.25817">
        <ele>405</ele>
      </trkpt>
      <trkpt lat="44.52919" lon="4.25807">
        <ele>406</ele>
      </trkpt>
      <trkpt lat="44.52944" lon="4.25751">
        <ele>408</ele>
      </trkpt>
      <trkpt lat="44.52953" lon="4.25699">
        <ele>413</ele>
      </trkpt>
      <trkpt lat="44.52949" lon="4.25644">
        <ele>416</ele>
      </trkpt>
      <trkpt lat="44.52952" lon="4.25542">
        <ele>419</ele>
      </trkpt>
      <trkpt lat="44.52951" lon="4.25492">
        <ele>422</ele>
      </trkpt>
      <trkpt lat="44.52966" lon="4.25417">
        <ele>422</ele>
      </trkpt>
      <trkpt lat="44.52997" lon="4.25347">
        <ele>433</ele>
      </trkpt>
      <trkpt lat="44.53054" lon="4.25269">
        <ele>434</ele>
      </trkpt>
      <trkpt lat="44.53088" lon="4.25161">
        <ele>440</ele>
      </trkpt>
      <trkpt lat="44.53119" lon="4.25027">
        <ele>445</ele>
      </trkpt>
      <trkpt lat="44.5311" lon="4.24996">
        <ele>445</ele>
      </trkpt>
      <trkpt lat="44.53024" lon="4.25129">
        <ele>444</ele>
      </trkpt>
      <trkpt lat="44.52959" lon="4.25219">
        <ele>442</ele>
      </trkpt>
      <trkpt lat="44.5292" lon="4.25238">
        <ele>439</ele>
      </trkpt>
      <trkpt lat="44.52892" lon="4.25226">
        <ele>433</ele>
      </trkpt>
      <trkpt lat="44.52827" lon="4.25208">
        <ele>422</ele>
      </trkpt>
      <trkpt lat="44.52791" lon="4.25215">
        <ele>421</ele>
      </trkpt>
      <trkpt lat="44.52787" lon="4.25244">
        <ele>420</ele>
      </trkpt>
      <trkpt lat="44.52751" lon="4.25261">
        <ele>415</ele>
      </trkpt>
      <trkpt lat="44.52731" lon="4.25243">
        <ele>412</ele>
      </trkpt>
      <trkpt lat="44.52689" lon="4.25187">
        <ele>409</ele>
      </trkpt>
      <trkpt lat="44.52663" lon="4.25186">
        <ele>398</ele>
      </trkpt>
      <trkpt lat="44.52658" lon="4.25206">
        <ele>396</ele>
      </trkpt>
      <trkpt lat="44.52633" lon="4.25199">
        <ele>393</ele>
      </trkpt>
      <trkpt lat="44.52609" lon="4.25134">
        <ele>384</ele>
      </trkpt>
      <trkpt lat="44.52633" lon="4.25068">
        <ele>377</ele>
      </trkpt>
      <trkpt lat="44.52659" lon="4.25039">
        <ele>377</ele>
      </trkpt>
      <trkpt lat="44.52776" lon="4.25035">
        <ele>396</ele>
      </trkpt>
      <trkpt lat="44.52878" lon="4.25035">
        <ele>405</ele>
      </trkpt>
      <trkpt lat="44.52954" lon="4.24993">
        <ele>407</ele>
      </trkpt>
      <trkpt lat="44.52966" lon="4.24924">
        <ele>407</ele>
      </trkpt>
      <trkpt lat="44.52884" lon="4.24813">
        <ele>402</ele>
      </trkpt>
      <trkpt lat="44.52842" lon="4.24744">
        <ele>398</ele>
      </trkpt>
      <trkpt lat="44.52859" lon="4.2469">
        <ele>404</ele>
      </trkpt>
      <trkpt lat="44.52872" lon="4.24641">
        <ele>404</ele>
      </trkpt>
      <trkpt lat="44.52877" lon="4.24583">
        <ele>396</ele>
      </trkpt>
      <trkpt lat="44.53012" lon="4.24536">
        <ele>419</ele>
      </trkpt>
      <trkpt lat="44.53145" lon="4.24431">
        <ele>416</ele>
      </trkpt>
      <trkpt lat="44.53206" lon="4.24349">
        <ele>422</ele>
      </trkpt>
      <trkpt lat="44.5311" lon="4.24221">
        <ele>421</ele>
      </trkpt>
      <trkpt lat="44.5316" lon="4.24236">
        <ele>424</ele>
      </trkpt>
      <trkpt lat="44.53209" lon="4.24259">
        <ele>427</ele>
      </trkpt>
      <trkpt lat="44.53237" lon="4.2418">
        <ele>436</ele>
      </trkpt>
      <trkpt lat="44.53166" lon="4.24135">
        <ele>429</ele>
      </trkpt>
      <trkpt lat="44.53143" lon="4.24036">
        <ele>433</ele>
      </trkpt>
      <trkpt lat="44.5312" lon="4.23924">
        <ele>436</ele>
      </trkpt>
      <trkpt lat="44.53067" lon="4.23809">
        <ele>434</ele>
      </trkpt>
      <trkpt lat="44.53027" lon="4.23697">
        <ele>435</ele>
      </trkpt>
      <trkpt lat="44.53019" lon="4.23663">
        <ele>438</ele>
      </trkpt>
      <trkpt lat="44.53214" lon="4.23847">
        <ele>451</ele>
      </trkpt>
      <trkpt lat="44.53287" lon="4.23796">
        <ele>468</ele>
      </trkpt>
      <trkpt lat="44.53272" lon="4.2371">
        <ele>476</ele>
      </trkpt>
      <trkpt lat="44.53273" lon="4.23637">
        <ele>482</ele>
      </trkpt>
      <trkpt lat="44.53279" lon="4.23504">
        <ele>482</ele>
      </trkpt>
      <trkpt lat="44.53322" lon="4.23431">
        <ele>485</ele>
      </trkpt>
      <trkpt lat="44.53304" lon="4.23341">
        <ele>480</ele>
      </trkpt>
      <trkpt lat="44.534" lon="4.23271">
        <ele>479</ele>
      </trkpt>
      <trkpt lat="44.53484" lon="4.2325">
        <ele>479</ele>
      </trkpt>
      <trkpt lat="44.53587" lon="4.23183">
        <ele>492</ele>
      </trkpt>
      <trkpt lat="44.53683" lon="4.23061">
        <ele>496</ele>
      </trkpt>
      <trkpt lat="44.53721" lon="4.22986">
        <ele>502</ele>
      </trkpt>
      <trkpt lat="44.53705" lon="4.22924">
        <ele>501</ele>
      </trkpt>
      <trkpt lat="44.53772" lon="4.22797">
        <ele>524</ele>
      </trkpt>
      <trkpt lat="44.53838" lon="4.22776">
        <ele>535</ele>
      </trkpt>
      <trkpt lat="44.53822" lon="4.22722">
        <ele>531</ele>
      </trkpt>
      <trkpt lat="44.53874" lon="4.22724">
        <ele>543</ele>
      </trkpt>
      <trkpt lat="44.5387" lon="4.22647">
        <ele>550</ele>
      </trkpt>
      <trkpt lat="44.54043" lon="4.22874">
        <ele>556</ele>
      </trkpt>
      <trkpt lat="44.54112" lon="4.22801">
        <ele>567</ele>
      </trkpt>
      <trkpt lat="44.54185" lon="4.22598">
        <ele>591</ele>
      </trkpt>
      <trkpt lat="44.54313" lon="4.2258">
        <ele>602</ele>
      </trkpt>
      <trkpt lat="44.54341" lon="4.22602">
        <ele>598</ele>
      </trkpt>
      <trkpt lat="44.54379" lon="4.22561">
        <ele>608</ele>
      </trkpt>
      <trkpt lat="44.54391" lon="4.22598">
        <ele>601</ele>
      </trkpt>
      <trkpt lat="44.54439" lon="4.22673">
        <ele>599</ele>
      </trkpt>
      <trkpt lat="44.54484" lon="4.22733">
        <ele>605</ele>
      </trkpt>
      <trkpt lat="44.54501" lon="4.2284">
        <ele>614</ele>
      </trkpt>
      <trkpt lat="44.54523" lon="4.22879">
        <ele>621</ele>
      </trkpt>
      <trkpt lat="44.54493" lon="4.22971">
        <ele>601</ele>
      </trkpt>
      <trkpt lat="44.5453" lon="4.23007">
        <ele>604</ele>
      </trkpt>
      <trkpt lat="44.54577" lon="4.23003">
        <ele>610</ele>
      </trkpt>
      <trkpt lat="44.54707" lon="4.2301">
        <ele>604</ele>
      </trkpt>
      <trkpt lat="44.5471" lon="4.2304">
        <ele>602</ele>
      </trkpt>
      <trkpt lat="44.54744" lon="4.23028">
        <ele>603</ele>
      </trkpt>
      <trkpt lat="44.54831" lon="4.23011">
        <ele>595</ele>
      </trkpt>
      <trkpt lat="44.54833" lon="4.2309">
        <ele>583</ele>
      </trkpt>
      <trkpt lat="44.54816" lon="4.23139">
        <ele>578</ele>
      </trkpt>
      <trkpt lat="44.54813" lon="4.23163">
        <ele>576</ele>
      </trkpt>
      <trkpt lat="44.54886" lon="4.23137">
        <ele>560</ele>
      </trkpt>
      <trkpt lat="44.54969" lon="4.23084">
        <ele>534</ele>
      </trkpt>
      <trkpt lat="44.54984" lon="4.23004">
        <ele>536</ele>
      </trkpt>
      <trkpt lat="44.55013" lon="4.22931">
        <ele>524</ele>
      </trkpt>
      <trkpt lat="44.55053" lon="4.22901">
        <ele>516</ele>
      </trkpt>
      <trkpt lat="44.55058" lon="4.22937">
        <ele>509</ele>
      </trkpt>
      <trkpt lat="44.55076" lon="4.2288">
        <ele>513</ele>
      </trkpt>
      <trkpt lat="44.55092" lon="4.22905">
        <ele>491</ele>
      </trkpt>
      <trkpt lat="44.55096" lon="4.22888">
        <ele>487</ele>
      </trkpt>
      <trkpt lat="44.55111" lon="4.22917">
        <ele>482</ele>
      </trkpt>
      <trkpt lat="44.55118" lon="4.22831">
        <ele>488</ele>
      </trkpt>
      <trkpt lat="44.5512" lon="4.22813">
        <ele>487</ele>
      </trkpt>
      <trkpt lat="44.55159" lon="4.22808">
        <ele>479</ele>
      </trkpt>
      <trkpt lat="44.55186" lon="4.22777">
        <ele>462</ele>
      </trkpt>
      <trkpt lat="44.55191" lon="4.22812">
        <ele>460</ele>
      </trkpt>
      <trkpt lat="44.55226" lon="4.22795">
        <ele>455</ele>
      </trkpt>
      <trkpt lat="44.55221" lon="4.22837">
        <ele>451</ele>
      </trkpt>
      <trkpt lat="44.55258" lon="4.22804">
        <ele>440</ele>
      </trkpt>
      <trkpt lat="44.55267" lon="4.22831">
        <ele>441</ele>
      </trkpt>
      <trkpt lat="44.55294" lon="4.22788">
        <ele>435</ele>
      </trkpt>
      <trkpt lat="44.55289" lon="4.22715">
        <ele>436</ele>
      </trkpt>
      <trkpt lat="44.55289" lon="4.22671">
        <ele>437</ele>
      </trkpt>
      <trkpt lat="44.55297" lon="4.22623">
        <ele>444</ele>
      </trkpt>
      <trkpt lat="44.55319" lon="4.22612">
        <ele>445</ele>
      </trkpt>
      <trkpt lat="44.55376" lon="4.22689">
        <ele>440</ele>
      </trkpt>
      <trkpt lat="44.55403" lon="4.22715">
        <ele>441</ele>
      </trkpt>
      <trkpt lat="44.55421" lon="4.22723">
        <ele>456</ele>
      </trkpt>
    </trkseg>
  </trk>
  <trk>
    <name><![CDATA[20180807221000-MJqCB]]></name>
    <trkseg>
      <trkpt lat="44.52846" lon="4.29223">
        <ele>288</ele>
      </trkpt>
      <trkpt lat="44.5279" lon="4.29229">
        <ele>291</ele>
      </trkpt>
      <trkpt lat="44.5279" lon="4.29171">
        <ele>290</ele>
      </trkpt>
      <trkpt lat="44.52803" lon="4.29051">
        <ele>286</ele>
      </trkpt>
      <trkpt lat="44.52714" lon="4.29019">
        <ele>280</ele>
      </trkpt>
      <trkpt lat="44.52636" lon="4.28965">
        <ele>271</ele>
      </trkpt>
      <trkpt lat="44.52598" lon="4.28869">
        <ele>271</ele>
      </trkpt>
      <trkpt lat="44.5253" lon="4.28909">
        <ele>272</ele>
      </trkpt>
      <trkpt lat="44.52475" lon="4.28989">
        <ele>267</ele>
      </trkpt>
      <trkpt lat="44.52423" lon="4.29036">
        <ele>265</ele>
      </trkpt>
      <trkpt lat="44.52416" lon="4.29092">
        <ele>262</ele>
      </trkpt>
      <trkpt lat="44.52357" lon="4.29107">
        <ele>262</ele>
      </trkpt>
      <trkpt lat="44.52289" lon="4.29053">
        <ele>266</ele>
      </trkpt>
      <trkpt lat="44.52259" lon="4.2901">
        <ele>269</ele>
      </trkpt>
      <trkpt lat="44.52217" lon="4.28996">
        <ele>272</ele>
      </trkpt>
      <trkpt lat="44.52212" lon="4.28966">
        <ele>273</ele>
      </trkpt>
      <trkpt lat="44.52175" lon="4.28926">
        <ele>274</ele>
      </trkpt>
      <trkpt lat="44.52185" lon="4.28865">
        <ele>277</ele>
      </trkpt>
      <trkpt lat="44.52234" lon="4.28844">
        <ele>279</ele>
      </trkpt>
    </trkseg>
  </trk>
  <trk>
    <name><![CDATA[20180807221000-MJqCB]]></name>
    <trkseg>
      <trkpt lat="44.52835" lon="4.29234">
        <ele>290</ele>
        <time>2018-06-03T06:11:44.000Z</time>
      </trkpt>
      <trkpt lat="44.52835" lon="4.29235">
        <ele>290</ele>
        <time>2018-06-03T06:11:45.000Z</time>
      </trkpt>
      <trkpt lat="44.52835" lon="4.29235">
        <ele>290</ele>
        <time>2018-06-03T06:11:46.000Z</time>
      </trkpt>
      <trkpt lat="44.52835" lon="4.29235">
        <ele>290</ele>
        <time>2018-06-03T06:11:47.000Z</time>
      </trkpt>
      <trkpt lat="44.52835" lon="4.29235">
        <ele>290</ele>
        <time>2018-06-03T06:11:48.000Z</time>
      </trkpt>
      <trkpt lat="44.52835" lon="4.29235">
        <ele>290</ele>
        <time>2018-06-03T06:11:49.000Z</time>
      </trkpt>
      <trkpt lat="44.52835" lon="4.29235">
        <ele>290</ele>
        <time>2018-06-03T06:11:50.000Z</time>
      </trkpt>
      <trkpt lat="44.52835" lon="4.29235">
        <ele>290</ele>
        <time>2018-06-03T06:11:51.000Z</time>
      </trkpt>
      <trkpt lat="44.52835" lon="4.29235">
        <ele>290</ele>
        <time>2018-06-03T06:11:52.000Z</time>
      </trkpt>
      <trkpt lat="44.52835" lon="4.29235">
        <ele>290</ele>
        <time>2018-06-03T06:11:53.000Z</time>
      </trkpt>
      <trkpt lat="44.52835" lon="4.29235">
        <ele>290</ele>
        <time>2018-06-03T06:11:54.000Z</time>
      </trkpt>
      <trkpt lat="44.52835" lon="4.29234">
        <ele>290</ele>
        <time>2018-06-03T06:11:55.000Z</time>
      </trkpt>
      <trkpt lat="44.52835" lon="4.29234">
        <ele>290</ele>
        <time>2018-06-03T06:11:56.000Z</time>
      </trkpt>
      <trkpt lat="44.52835" lon="4.29234">
        <ele>290</ele>
        <time>2018-06-03T06:11:57.000Z</time>
      </trkpt>
      <trkpt lat="44.52835" lon="4.29234">
        <ele>290</ele>
        <time>2018-06-03T06:11:58.000Z</time>
      </trkpt>
      <trkpt lat="44.52835" lon="4.29234">
        <ele>290</ele>
        <time>2018-06-03T06:11:59.000Z</time>
      </trkpt>
      <trkpt lat="44.52835" lon="4.29234">
        <ele>290</ele>
        <time>2018-06-03T06:12:00.000Z</time>
      </trkpt>
      <trkpt lat="44.52835" lon="4.29234">
        <ele>290</ele>
        <time>2018-06-03T06:12:01.000Z</time>
      </trkpt>
      <trkpt lat="44.52834" lon="4.29233">
        <ele>290</ele>
        <time>2018-06-03T06:12:02.000Z</time>
      </trkpt>
      <trkpt lat="44.52833" lon="4.29232">
        <ele>293</ele>
        <time>2018-06-03T06:12:03.000Z</time>
      </trkpt>
      <trkpt lat="44.52831" lon="4.29233">
        <ele>293</ele>
        <time>2018-06-03T06:12:04.000Z</time>
      </trkpt>
      <trkpt lat="44.52829" lon="4.29233">
        <ele>293</ele>
        <time>2018-06-03T06:12:05.000Z</time>
      </trkpt>
      <trkpt lat="44.52825" lon="4.29234">
        <ele>293</ele>
        <time>2018-06-03T06:12:06.000Z</time>
      </trkpt>
      <trkpt lat="44.52821" lon="4.29235">
        <ele>293</ele>
        <time>2018-06-03T06:12:07.000Z</time>
      </trkpt>
      <trkpt lat="44.52817" lon="4.29236">
        <ele>293</ele>
        <time>2018-06-03T06:12:08.000Z</time>
      </trkpt>
      <trkpt lat="44.52812" lon="4.29237">
        <ele>292</ele>
        <time>2018-06-03T06:12:09.000Z</time>
      </trkpt>
      <trkpt lat="44.52807" lon="4.29238">
        <ele>292</ele>
        <time>2018-06-03T06:12:10.000Z</time>
      </trkpt>
      <trkpt lat="44.52803" lon="4.29239">
        <ele>292</ele>
        <time>2018-06-03T06:12:11.000Z</time>
      </trkpt>
      <trkpt lat="44.52798" lon="4.29239">
        <ele>292</ele>
        <time>2018-06-03T06:12:12.000Z</time>
      </trkpt>
      <trkpt lat="44.52794" lon="4.29239">
        <ele>291</ele>
        <time>2018-06-03T06:12:13.000Z</time>
      </trkpt>
      <trkpt lat="44.52791" lon="4.29239">
        <ele>291</ele>
        <time>2018-06-03T06:12:14.000Z</time>
      </trkpt>
      <trkpt lat="44.52789" lon="4.29239">
        <ele>291</ele>
        <time>2018-06-03T06:12:15.000Z</time>
      </trkpt>
      <trkpt lat="44.52787" lon="4.29239">
        <ele>291</ele>
        <time>2018-06-03T06:12:16.000Z</time>
      </trkpt>
      <trkpt lat="44.52787" lon="4.29239">
        <ele>291</ele>
        <time>2018-06-03T06:12:17.000Z</time>
      </trkpt>
      <trkpt lat="44.52786" lon="4.29239">
        <ele>291</ele>
        <time>2018-06-03T06:12:18.000Z</time>
      </trkpt>
      <trkpt lat="44.52785" lon="4.29239">
        <ele>291</ele>
        <time>2018-06-03T06:12:19.000Z</time>
      </trkpt>
      <trkpt lat="44.52785" lon="4.29238">
        <ele>291</ele>
        <time>2018-06-03T06:12:20.000Z</time>
      </trkpt>
      <trkpt lat="44.52785" lon="4.29238">
        <ele>291</ele>
        <time>2018-06-03T06:12:21.000Z</time>
      </trkpt>
      <trkpt lat="44.52784" lon="4.29238">
        <ele>291</ele>
        <time>2018-06-03T06:12:22.000Z</time>
      </trkpt>
      <trkpt lat="44.52784" lon="4.29238">
        <ele>291</ele>
        <time>2018-06-03T06:12:23.000Z</time>
      </trkpt>
      <trkpt lat="44.52784" lon="4.29238">
        <ele>291</ele>
        <time>2018-06-03T06:12:24.000Z</time>
      </trkpt>
      <trkpt lat="44.52784" lon="4.29238">
        <ele>291</ele>
        <time>2018-06-03T06:12:25.000Z</time>
      </trkpt>
      <trkpt lat="44.52783" lon="4.29237">
        <ele>291</ele>
        <time>2018-06-03T06:12:26.000Z</time>
      </trkpt>
      <trkpt lat="44.52782" lon="4.29235">
        <ele>291</ele>
        <time>2018-06-03T06:12:27.000Z</time>
      </trkpt>
      <trkpt lat="44.52781" lon="4.29232">
        <ele>291</ele>
        <time>2018-06-03T06:12:28.000Z</time>
      </trkpt>
      <trkpt lat="44.5278" lon="4.29228">
        <ele>291</ele>
        <time>2018-06-03T06:12:29.000Z</time>
      </trkpt>
      <trkpt lat="44.52779" lon="4.29223">
        <ele>291</ele>
        <time>2018-06-03T06:12:30.000Z</time>
      </trkpt>
      <trkpt lat="44.52778" lon="4.29219">
        <ele>291</ele>
        <time>2018-06-03T06:12:31.000Z</time>
      </trkpt>
      <trkpt lat="44.52778" lon="4.29215">
        <ele>291</ele>
        <time>2018-06-03T06:12:32.000Z</time>
      </trkpt>
      <trkpt lat="44.52778" lon="4.2921">
        <ele>290</ele>
        <time>2018-06-03T06:12:33.000Z</time>
      </trkpt>
      <trkpt lat="44.52779" lon="4.29205">
        <ele>290</ele>
        <time>2018-06-03T06:12:34.000Z</time>
      </trkpt>
      <trkpt lat="44.52779" lon="4.292">
        <ele>290</ele>
        <time>2018-06-03T06:12:35.000Z</time>
      </trkpt>
      <trkpt lat="44.5278" lon="4.29194">
        <ele>290</ele>
        <time>2018-06-03T06:12:36.000Z</time>
      </trkpt>
      <trkpt lat="44.52781" lon="4.29189">
        <ele>290</ele>
        <time>2018-06-03T06:12:37.000Z</time>
      </trkpt>
      <trkpt lat="44.52782" lon="4.29183">
        <ele>290</ele>
        <time>2018-06-03T06:12:38.000Z</time>
      </trkpt>
      <trkpt lat="44.52783" lon="4.29177">
        <ele>290</ele>
        <time>2018-06-03T06:12:39.000Z</time>
      </trkpt>
      <trkpt lat="44.52784" lon="4.29171">
        <ele>290</ele>
        <time>2018-06-03T06:12:40.000Z</time>
      </trkpt>
      <trkpt lat="44.52785" lon="4.29165">
        <ele>288</ele>
        <time>2018-06-03T06:12:41.000Z</time>
      </trkpt>
      <trkpt lat="44.52786" lon="4.29158">
        <ele>288</ele>
        <time>2018-06-03T06:12:42.000Z</time>
      </trkpt>
      <trkpt lat="44.52788" lon="4.29151">
        <ele>288</ele>
        <time>2018-06-03T06:12:43.000Z</time>
      </trkpt>
      <trkpt lat="44.52789" lon="4.29144">
        <ele>288</ele>
        <time>2018-06-03T06:12:44.000Z</time>
      </trkpt>
      <trkpt lat="44.5279" lon="4.29137">
        <ele>288</ele>
        <time>2018-06-03T06:12:45.000Z</time>
      </trkpt>
      <trkpt lat="44.52792" lon="4.2913">
        <ele>288</ele>
        <time>2018-06-03T06:12:46.000Z</time>
      </trkpt>
      <trkpt lat="44.52793" lon="4.29123">
        <ele>288</ele>
        <time>2018-06-03T06:12:47.000Z</time>
      </trkpt>
      <trkpt lat="44.52795" lon="4.29116">
        <ele>287</ele>
        <time>2018-06-03T06:12:48.000Z</time>
      </trkpt>
      <trkpt lat="44.52796" lon="4.29109">
        <ele>287</ele>
        <time>2018-06-03T06:12:49.000Z</time>
      </trkpt>
      <trkpt lat="44.52797" lon="4.29102">
        <ele>287</ele>
        <time>2018-06-03T06:12:50.000Z</time>
      </trkpt>
      <trkpt lat="44.52798" lon="4.29095">
        <ele>287</ele>
        <time>2018-06-03T06:12:51.000Z</time>
      </trkpt>
      <trkpt lat="44.52799" lon="4.29088">
        <ele>287</ele>
        <time>2018-06-03T06:12:52.000Z</time>
      </trkpt>
      <trkpt lat="44.528" lon="4.29081">
        <ele>286</ele>
        <time>2018-06-03T06:12:53.000Z</time>
      </trkpt>
      <trkpt lat="44.52801" lon="4.29073">
        <ele>286</ele>
        <time>2018-06-03T06:12:54.000Z</time>
      </trkpt>
      <trkpt lat="44.52802" lon="4.29067">
        <ele>286</ele>
        <time>2018-06-03T06:12:55.000Z</time>
      </trkpt>
      <trkpt lat="44.52801" lon="4.2906">
        <ele>286</ele>
        <time>2018-06-03T06:12:56.000Z</time>
      </trkpt>
      <trkpt lat="44.52797" lon="4.29056">
        <ele>286</ele>
        <time>2018-06-03T06:12:57.000Z</time>
      </trkpt>
      <trkpt lat="44.52793" lon="4.29052">
        <ele>286</ele>
        <time>2018-06-03T06:12:58.000Z</time>
      </trkpt>
      <trkpt lat="44.52786" lon="4.2905">
        <ele>285</ele>
        <time>2018-06-03T06:12:59.000Z</time>
      </trkpt>
      <trkpt lat="44.52779" lon="4.29047">
        <ele>285</ele>
        <time>2018-06-03T06:13:00.000Z</time>
      </trkpt>
      <trkpt lat="44.52772" lon="4.29044">
        <ele>285</ele>
        <time>2018-06-03T06:13:01.000Z</time>
      </trkpt>
      <trkpt lat="44.52763" lon="4.29041">
        <ele>285</ele>
        <time>2018-06-03T06:13:02.000Z</time>
      </trkpt>
      <trkpt lat="44.52755" lon="4.29038">
        <ele>285</ele>
        <time>2018-06-03T06:13:03.000Z</time>
      </trkpt>
      <trkpt lat="44.52745" lon="4.29036">
        <ele>281</ele>
        <time>2018-06-03T06:13:04.000Z</time>
      </trkpt>
      <trkpt lat="44.52736" lon="4.29034">
        <ele>281</ele>
        <time>2018-06-03T06:13:05.000Z</time>
      </trkpt>
      <trkpt lat="44.52726" lon="4.29031">
        <ele>281</ele>
        <time>2018-06-03T06:13:06.000Z</time>
      </trkpt>
      <trkpt lat="44.52717" lon="4.29027">
        <ele>280</ele>
        <time>2018-06-03T06:13:07.000Z</time>
      </trkpt>
      <trkpt lat="44.52707" lon="4.29023">
        <ele>280</ele>
        <time>2018-06-03T06:13:08.000Z</time>
      </trkpt>
      <trkpt lat="44.52698" lon="4.2902">
        <ele>279</ele>
        <time>2018-06-03T06:13:09.000Z</time>
      </trkpt>
      <trkpt lat="44.5269" lon="4.29017">
        <ele>279</ele>
        <time>2018-06-03T06:13:10.000Z</time>
      </trkpt>
      <trkpt lat="44.52683" lon="4.29013">
        <ele>278</ele>
        <time>2018-06-03T06:13:11.000Z</time>
      </trkpt>
      <trkpt lat="44.52675" lon="4.2901">
        <ele>278</ele>
        <time>2018-06-03T06:13:12.000Z</time>
      </trkpt>
      <trkpt lat="44.52667" lon="4.29005">
        <ele>277</ele>
        <time>2018-06-03T06:13:13.000Z</time>
      </trkpt>
      <trkpt lat="44.5266" lon="4.29001">
        <ele>275</ele>
        <time>2018-06-03T06:13:14.000Z</time>
      </trkpt>
      <trkpt lat="44.52654" lon="4.28996">
        <ele>273</ele>
        <time>2018-06-03T06:13:15.000Z</time>
      </trkpt>
      <trkpt lat="44.52647" lon="4.2899">
        <ele>272</ele>
        <time>2018-06-03T06:13:16.000Z</time>
      </trkpt>
      <trkpt lat="44.52642" lon="4.28984">
        <ele>272</ele>
        <time>2018-06-03T06:13:17.000Z</time>
      </trkpt>
      <trkpt lat="44.52636" lon="4.28978">
        <ele>271</ele>
        <time>2018-06-03T06:13:18.000Z</time>
      </trkpt>
      <trkpt lat="44.52631" lon="4.28973">
        <ele>271</ele>
        <time>2018-06-03T06:13:19.000Z</time>
      </trkpt>
      <trkpt lat="44.52628" lon="4.28966">
        <ele>270</ele>
        <time>2018-06-03T06:13:20.000Z</time>
      </trkpt>
      <trkpt lat="44.52625" lon="4.28958">
        <ele>270</ele>
        <time>2018-06-03T06:13:21.000Z</time>
      </trkpt>
      <trkpt lat="44.52624" lon="4.28948">
        <ele>270</ele>
        <time>2018-06-03T06:13:22.000Z</time>
      </trkpt>
      <trkpt lat="44.52623" lon="4.28938">
        <ele>270</ele>
        <time>2018-06-03T06:13:23.000Z</time>
      </trkpt>
      <trkpt lat="44.52621" lon="4.28927">
        <ele>269</ele>
        <time>2018-06-03T06:13:24.000Z</time>
      </trkpt>
      <trkpt lat="44.5262" lon="4.28917">
        <ele>269</ele>
        <time>2018-06-03T06:13:25.000Z</time>
      </trkpt>
      <trkpt lat="44.52618" lon="4.28907">
        <ele>270</ele>
        <time>2018-06-03T06:13:26.000Z</time>
      </trkpt>
      <trkpt lat="44.52615" lon="4.28898">
        <ele>270</ele>
        <time>2018-06-03T06:13:27.000Z</time>
      </trkpt>
      <trkpt lat="44.52611" lon="4.28891">
        <ele>270</ele>
        <time>2018-06-03T06:13:28.000Z</time>
      </trkpt>
      <trkpt lat="44.52607" lon="4.28885">
        <ele>270</ele>
        <time>2018-06-03T06:13:29.000Z</time>
      </trkpt>
      <trkpt lat="44.52603" lon="4.28881">
        <ele>270</ele>
        <time>2018-06-03T06:13:30.000Z</time>
      </trkpt>
      <trkpt lat="44.52599" lon="4.28879">
        <ele>270</ele>
        <time>2018-06-03T06:13:31.000Z</time>
      </trkpt>
      <trkpt lat="44.52595" lon="4.28882">
        <ele>270</ele>
        <time>2018-06-03T06:13:32.000Z</time>
      </trkpt>
      <trkpt lat="44.52591" lon="4.28886">
        <ele>269</ele>
        <time>2018-06-03T06:13:33.000Z</time>
      </trkpt>
      <trkpt lat="44.52587" lon="4.2889">
        <ele>269</ele>
        <time>2018-06-03T06:13:34.000Z</time>
      </trkpt>
      <trkpt lat="44.52582" lon="4.28893">
        <ele>270</ele>
        <time>2018-06-03T06:13:35.000Z</time>
      </trkpt>
      <trkpt lat="44.52577" lon="4.28896">
        <ele>270</ele>
        <time>2018-06-03T06:13:36.000Z</time>
      </trkpt>
      <trkpt lat="44.52572" lon="4.28898">
        <ele>270</ele>
        <time>2018-06-03T06:13:37.000Z</time>
      </trkpt>
      <trkpt lat="44.52566" lon="4.28899">
        <ele>270</ele>
        <time>2018-06-03T06:13:38.000Z</time>
      </trkpt>
      <trkpt lat="44.52561" lon="4.28902">
        <ele>271</ele>
        <time>2018-06-03T06:13:39.000Z</time>
      </trkpt>
      <trkpt lat="44.52556" lon="4.28905">
        <ele>271</ele>
        <time>2018-06-03T06:13:40.000Z</time>
      </trkpt>
      <trkpt lat="44.52551" lon="4.28907">
        <ele>271</ele>
        <time>2018-06-03T06:13:41.000Z</time>
      </trkpt>
      <trkpt lat="44.52546" lon="4.28911">
        <ele>271</ele>
        <time>2018-06-03T06:13:42.000Z</time>
      </trkpt>
      <trkpt lat="44.52541" lon="4.28915">
        <ele>272</ele>
        <time>2018-06-03T06:13:43.000Z</time>
      </trkpt>
      <trkpt lat="44.52536" lon="4.28919">
        <ele>268</ele>
        <time>2018-06-03T06:13:44.000Z</time>
      </trkpt>
      <trkpt lat="44.52531" lon="4.28923">
        <ele>268</ele>
        <time>2018-06-03T06:13:45.000Z</time>
      </trkpt>
      <trkpt lat="44.52526" lon="4.28927">
        <ele>268</ele>
        <time>2018-06-03T06:13:46.000Z</time>
      </trkpt>
      <trkpt lat="44.52522" lon="4.28932">
        <ele>268</ele>
        <time>2018-06-03T06:13:47.000Z</time>
      </trkpt>
      <trkpt lat="44.52518" lon="4.28938">
        <ele>268</ele>
        <time>2018-06-03T06:13:48.000Z</time>
      </trkpt>
      <trkpt lat="44.52513" lon="4.28943">
        <ele>268</ele>
        <time>2018-06-03T06:13:49.000Z</time>
      </trkpt>
      <trkpt lat="44.52509" lon="4.28949">
        <ele>268</ele>
        <time>2018-06-03T06:13:50.000Z</time>
      </trkpt>
      <trkpt lat="44.52505" lon="4.28954">
        <ele>267</ele>
        <time>2018-06-03T06:13:51.000Z</time>
      </trkpt>
      <trkpt lat="44.52501" lon="4.2896">
        <ele>267</ele>
        <time>2018-06-03T06:13:52.000Z</time>
      </trkpt>
      <trkpt lat="44.52498" lon="4.28965">
        <ele>268</ele>
        <time>2018-06-03T06:13:53.000Z</time>
      </trkpt>
      <trkpt lat="44.52495" lon="4.28971">
        <ele>268</ele>
        <time>2018-06-03T06:13:54.000Z</time>
      </trkpt>
      <trkpt lat="44.52491" lon="4.28978">
        <ele>267</ele>
        <time>2018-06-03T06:13:55.000Z</time>
      </trkpt>
      <trkpt lat="44.52487" lon="4.28985">
        <ele>267</ele>
        <time>2018-06-03T06:13:56.000Z</time>
      </trkpt>
      <trkpt lat="44.52483" lon="4.28991">
        <ele>266</ele>
        <time>2018-06-03T06:13:57.000Z</time>
      </trkpt>
      <trkpt lat="44.52479" lon="4.28997">
        <ele>267</ele>
        <time>2018-06-03T06:13:58.000Z</time>
      </trkpt>
      <trkpt lat="44.52474" lon="4.29004">
        <ele>264</ele>
        <time>2018-06-03T06:13:59.000Z</time>
      </trkpt>
      <trkpt lat="44.52469" lon="4.29011">
        <ele>264</ele>
        <time>2018-06-03T06:14:00.000Z</time>
      </trkpt>
      <trkpt lat="44.52464" lon="4.29018">
        <ele>264</ele>
        <time>2018-06-03T06:14:01.000Z</time>
      </trkpt>
      <trkpt lat="44.52459" lon="4.29022">
        <ele>264</ele>
        <time>2018-06-03T06:14:02.000Z</time>
      </trkpt>
      <trkpt lat="44.52453" lon="4.29025">
        <ele>264</ele>
        <time>2018-06-03T06:14:03.000Z</time>
      </trkpt>
      <trkpt lat="44.52447" lon="4.29029">
        <ele>264</ele>
        <time>2018-06-03T06:14:04.000Z</time>
      </trkpt>
      <trkpt lat="44.52442" lon="4.29033">
        <ele>264</ele>
        <time>2018-06-03T06:14:05.000Z</time>
      </trkpt>
      <trkpt lat="44.52436" lon="4.29036">
        <ele>264</ele>
        <time>2018-06-03T06:14:06.000Z</time>
      </trkpt>
      <trkpt lat="44.52431" lon="4.29038">
        <ele>264</ele>
        <time>2018-06-03T06:14:07.000Z</time>
      </trkpt>
      <trkpt lat="44.52426" lon="4.2904">
        <ele>264</ele>
        <time>2018-06-03T06:14:08.000Z</time>
      </trkpt>
      <trkpt lat="44.52423" lon="4.29042">
        <ele>264</ele>
        <time>2018-06-03T06:14:09.000Z</time>
      </trkpt>
      <trkpt lat="44.52421" lon="4.29044">
        <ele>264</ele>
        <time>2018-06-03T06:14:10.000Z</time>
      </trkpt>
      <trkpt lat="44.5242" lon="4.29046">
        <ele>264</ele>
        <time>2018-06-03T06:14:11.000Z</time>
      </trkpt>
      <trkpt lat="44.52419" lon="4.29048">
        <ele>264</ele>
        <time>2018-06-03T06:14:12.000Z</time>
      </trkpt>
      <trkpt lat="44.52419" lon="4.2905">
        <ele>264</ele>
        <time>2018-06-03T06:14:13.000Z</time>
      </trkpt>
      <trkpt lat="44.52419" lon="4.29052">
        <ele>264</ele>
        <time>2018-06-03T06:14:14.000Z</time>
      </trkpt>
      <trkpt lat="44.52418" lon="4.29057">
        <ele>264</ele>
        <time>2018-06-03T06:14:15.000Z</time>
      </trkpt>
      <trkpt lat="44.52417" lon="4.29062">
        <ele>264</ele>
        <time>2018-06-03T06:14:16.000Z</time>
      </trkpt>
      <trkpt lat="44.52416" lon="4.29068">
        <ele>265</ele>
        <time>2018-06-03T06:14:17.000Z</time>
      </trkpt>
      <trkpt lat="44.52416" lon="4.29074">
        <ele>264</ele>
        <time>2018-06-03T06:14:18.000Z</time>
      </trkpt>
      <trkpt lat="44.52415" lon="4.2908">
        <ele>264</ele>
        <time>2018-06-03T06:14:19.000Z</time>
      </trkpt>
      <trkpt lat="44.52413" lon="4.29086">
        <ele>263</ele>
        <time>2018-06-03T06:14:20.000Z</time>
      </trkpt>
      <trkpt lat="44.52412" lon="4.29091">
        <ele>262</ele>
        <time>2018-06-03T06:14:21.000Z</time>
      </trkpt>
      <trkpt lat="44.5241" lon="4.29095">
        <ele>262</ele>
        <time>2018-06-03T06:14:22.000Z</time>
      </trkpt>
      <trkpt lat="44.52408" lon="4.29097">
        <ele>262</ele>
        <time>2018-06-03T06:14:23.000Z</time>
      </trkpt>
      <trkpt lat="44.52406" lon="4.29098">
        <ele>261</ele>
        <time>2018-06-03T06:14:24.000Z</time>
      </trkpt>
      <trkpt lat="44.52404" lon="4.29098">
        <ele>261</ele>
        <time>2018-06-03T06:14:25.000Z</time>
      </trkpt>
      <trkpt lat="44.52402" lon="4.29097">
        <ele>261</ele>
        <time>2018-06-03T06:14:26.000Z</time>
      </trkpt>
      <trkpt lat="44.524" lon="4.29097">
        <ele>261</ele>
        <time>2018-06-03T06:14:27.000Z</time>
      </trkpt>
      <trkpt lat="44.52399" lon="4.29098">
        <ele>261</ele>
        <time>2018-06-03T06:14:28.000Z</time>
      </trkpt>
      <trkpt lat="44.52398" lon="4.29098">
        <ele>261</ele>
        <time>2018-06-03T06:14:29.000Z</time>
      </trkpt>
      <trkpt lat="44.52397" lon="4.29099">
        <ele>261</ele>
        <time>2018-06-03T06:14:30.000Z</time>
      </trkpt>
      <trkpt lat="44.52396" lon="4.29099">
        <ele>261</ele>
        <time>2018-06-03T06:14:31.000Z</time>
      </trkpt>
      <trkpt lat="44.52395" lon="4.29099">
        <ele>261</ele>
        <time>2018-06-03T06:14:32.000Z</time>
      </trkpt>
      <trkpt lat="44.52395" lon="4.291">
        <ele>261</ele>
        <time>2018-06-03T06:14:33.000Z</time>
      </trkpt>
      <trkpt lat="44.52393" lon="4.291">
        <ele>261</ele>
        <time>2018-06-03T06:14:34.000Z</time>
      </trkpt>
      <trkpt lat="44.52392" lon="4.29101">
        <ele>261</ele>
        <time>2018-06-03T06:14:35.000Z</time>
      </trkpt>
      <trkpt lat="44.52391" lon="4.29101">
        <ele>261</ele>
        <time>2018-06-03T06:14:36.000Z</time>
      </trkpt>
      <trkpt lat="44.52389" lon="4.29101">
        <ele>261</ele>
        <time>2018-06-03T06:14:37.000Z</time>
      </trkpt>
      <trkpt lat="44.52388" lon="4.29102">
        <ele>261</ele>
        <time>2018-06-03T06:14:38.000Z</time>
      </trkpt>
      <trkpt lat="44.52388" lon="4.29103">
        <ele>261</ele>
        <time>2018-06-03T06:14:39.000Z</time>
      </trkpt>
      <trkpt lat="44.52387" lon="4.29103">
        <ele>261</ele>
        <time>2018-06-03T06:14:40.000Z</time>
      </trkpt>
      <trkpt lat="44.52386" lon="4.29103">
        <ele>261</ele>
        <time>2018-06-03T06:14:41.000Z</time>
      </trkpt>
      <trkpt lat="44.52386" lon="4.29104">
        <ele>261</ele>
        <time>2018-06-03T06:14:42.000Z</time>
      </trkpt>
      <trkpt lat="44.52385" lon="4.29104">
        <ele>261</ele>
        <time>2018-06-03T06:14:43.000Z</time>
      </trkpt>
      <trkpt lat="44.52384" lon="4.29104">
        <ele>261</ele>
        <time>2018-06-03T06:14:44.000Z</time>
      </trkpt>
      <trkpt lat="44.52384" lon="4.29104">
        <ele>261</ele>
        <time>2018-06-03T06:14:45.000Z</time>
      </trkpt>
      <trkpt lat="44.52384" lon="4.29104">
        <ele>261</ele>
        <time>2018-06-03T06:14:46.000Z</time>
      </trkpt>
      <trkpt lat="44.52384" lon="4.29104">
        <ele>261</ele>
        <time>2018-06-03T06:14:47.000Z</time>
      </trkpt>
      <trkpt lat="44.52383" lon="4.29104">
        <ele>261</ele>
        <time>2018-06-03T06:14:48.000Z</time>
      </trkpt>
      <trkpt lat="44.52382" lon="4.29105">
        <ele>261</ele>
        <time>2018-06-03T06:14:49.000Z</time>
      </trkpt>
      <trkpt lat="44.52381" lon="4.29105">
        <ele>261</ele>
        <time>2018-06-03T06:14:50.000Z</time>
      </trkpt>
      <trkpt lat="44.52379" lon="4.29105">
        <ele>261</ele>
        <time>2018-06-03T06:14:51.000Z</time>
      </trkpt>
      <trkpt lat="44.52378" lon="4.29105">
        <ele>261</ele>
        <time>2018-06-03T06:14:52.000Z</time>
      </trkpt>
      <trkpt lat="44.52377" lon="4.29105">
        <ele>261</ele>
        <time>2018-06-03T06:14:53.000Z</time>
      </trkpt>
      <trkpt lat="44.52376" lon="4.29105">
        <ele>261</ele>
        <time>2018-06-03T06:14:54.000Z</time>
      </trkpt>
      <trkpt lat="44.52375" lon="4.29105">
        <ele>261</ele>
        <time>2018-06-03T06:14:55.000Z</time>
      </trkpt>
      <trkpt lat="44.52374" lon="4.29106">
        <ele>261</ele>
        <time>2018-06-03T06:14:56.000Z</time>
      </trkpt>
      <trkpt lat="44.52372" lon="4.29106">
        <ele>261</ele>
        <time>2018-06-03T06:14:57.000Z</time>
      </trkpt>
      <trkpt lat="44.5237" lon="4.29105">
        <ele>261</ele>
        <time>2018-06-03T06:14:58.000Z</time>
      </trkpt>
      <trkpt lat="44.52368" lon="4.29105">
        <ele>261</ele>
        <time>2018-06-03T06:14:59.000Z</time>
      </trkpt>
      <trkpt lat="44.52366" lon="4.29105">
        <ele>261</ele>
        <time>2018-06-03T06:15:00.000Z</time>
      </trkpt>
      <trkpt lat="44.52364" lon="4.29104">
        <ele>262</ele>
        <time>2018-06-03T06:15:01.000Z</time>
      </trkpt>
      <trkpt lat="44.52362" lon="4.29104">
        <ele>262</ele>
        <time>2018-06-03T06:15:02.000Z</time>
      </trkpt>
      <trkpt lat="44.52359" lon="4.29104">
        <ele>262</ele>
        <time>2018-06-03T06:15:03.000Z</time>
      </trkpt>
      <trkpt lat="44.52357" lon="4.29105">
        <ele>262</ele>
        <time>2018-06-03T06:15:04.000Z</time>
      </trkpt>
      <trkpt lat="44.52355" lon="4.29106">
        <ele>262</ele>
        <time>2018-06-03T06:15:05.000Z</time>
      </trkpt>
      <trkpt lat="44.52352" lon="4.29105">
        <ele>262</ele>
        <time>2018-06-03T06:15:06.000Z</time>
      </trkpt>
      <trkpt lat="44.5235" lon="4.29103">
        <ele>262</ele>
        <time>2018-06-03T06:15:07.000Z</time>
      </trkpt>
      <trkpt lat="44.52348" lon="4.29102">
        <ele>263</ele>
        <time>2018-06-03T06:15:08.000Z</time>
      </trkpt>
      <trkpt lat="44.52345" lon="4.291">
        <ele>263</ele>
        <time>2018-06-03T06:15:09.000Z</time>
      </trkpt>
      <trkpt lat="44.52343" lon="4.29098">
        <ele>263</ele>
        <time>2018-06-03T06:15:10.000Z</time>
      </trkpt>
      <trkpt lat="44.52341" lon="4.29096">
        <ele>264</ele>
        <time>2018-06-03T06:15:11.000Z</time>
      </trkpt>
      <trkpt lat="44.52339" lon="4.29094">
        <ele>264</ele>
        <time>2018-06-03T06:15:12.000Z</time>
      </trkpt>
      <trkpt lat="44.52338" lon="4.29092">
        <ele>265</ele>
        <time>2018-06-03T06:15:13.000Z</time>
      </trkpt>
      <trkpt lat="44.52336" lon="4.29091">
        <ele>265</ele>
        <time>2018-06-03T06:15:14.000Z</time>
      </trkpt>
      <trkpt lat="44.52334" lon="4.29089">
        <ele>266</ele>
        <time>2018-06-03T06:15:15.000Z</time>
      </trkpt>
      <trkpt lat="44.52332" lon="4.29088">
        <ele>265</ele>
        <time>2018-06-03T06:15:16.000Z</time>
      </trkpt>
      <trkpt lat="44.52331" lon="4.29088">
        <ele>265</ele>
        <time>2018-06-03T06:15:17.000Z</time>
      </trkpt>
      <trkpt lat="44.52331" lon="4.29087">
        <ele>265</ele>
        <time>2018-06-03T06:15:18.000Z</time>
      </trkpt>
      <trkpt lat="44.5233" lon="4.29087">
        <ele>265</ele>
        <time>2018-06-03T06:15:19.000Z</time>
      </trkpt>
      <trkpt lat="44.5233" lon="4.29087">
        <ele>265</ele>
        <time>2018-06-03T06:15:20.000Z</time>
      </trkpt>
      <trkpt lat="44.52329" lon="4.29086">
        <ele>265</ele>
        <time>2018-06-03T06:15:21.000Z</time>
      </trkpt>
      <trkpt lat="44.52329" lon="4.29086">
        <ele>265</ele>
        <time>2018-06-03T06:15:22.000Z</time>
      </trkpt>
      <trkpt lat="44.52328" lon="4.29086">
        <ele>265</ele>
        <time>2018-06-03T06:15:23.000Z</time>
      </trkpt>
      <trkpt lat="44.52328" lon="4.29085">
        <ele>265</ele>
        <time>2018-06-03T06:15:24.000Z</time>
      </trkpt>
      <trkpt lat="44.52327" lon="4.29084">
        <ele>265</ele>
        <time>2018-06-03T06:15:25.000Z</time>
      </trkpt>
      <trkpt lat="44.52326" lon="4.29083">
        <ele>267</ele>
        <time>2018-06-03T06:15:26.000Z</time>
      </trkpt>
      <trkpt lat="44.52325" lon="4.29082">
        <ele>267</ele>
        <time>2018-06-03T06:15:27.000Z</time>
      </trkpt>
      <trkpt lat="44.52324" lon="4.29082">
        <ele>267</ele>
        <time>2018-06-03T06:15:28.000Z</time>
      </trkpt>
      <trkpt lat="44.52323" lon="4.29081">
        <ele>267</ele>
        <time>2018-06-03T06:15:29.000Z</time>
      </trkpt>
      <trkpt lat="44.52321" lon="4.29079">
        <ele>267</ele>
        <time>2018-06-03T06:15:30.000Z</time>
      </trkpt>
      <trkpt lat="44.5232" lon="4.29078">
        <ele>267</ele>
        <time>2018-06-03T06:15:31.000Z</time>
      </trkpt>
      <trkpt lat="44.52318" lon="4.29077">
        <ele>267</ele>
        <time>2018-06-03T06:15:32.000Z</time>
      </trkpt>
      <trkpt lat="44.52316" lon="4.29076">
        <ele>267</ele>
        <time>2018-06-03T06:15:33.000Z</time>
      </trkpt>
      <trkpt lat="44.52314" lon="4.29074">
        <ele>267</ele>
        <time>2018-06-03T06:15:34.000Z</time>
      </trkpt>
      <trkpt lat="44.52312" lon="4.29072">
        <ele>267</ele>
        <time>2018-06-03T06:15:35.000Z</time>
      </trkpt>
      <trkpt lat="44.52309" lon="4.2907">
        <ele>267</ele>
        <time>2018-06-03T06:15:36.000Z</time>
      </trkpt>
      <trkpt lat="44.52305" lon="4.29068">
        <ele>266</ele>
        <time>2018-06-03T06:15:37.000Z</time>
      </trkpt>
      <trkpt lat="44.52302" lon="4.29067">
        <ele>266</ele>
        <time>2018-06-03T06:15:38.000Z</time>
      </trkpt>
      <trkpt lat="44.52299" lon="4.29065">
        <ele>266</ele>
        <time>2018-06-03T06:15:39.000Z</time>
      </trkpt>
      <trkpt lat="44.52296" lon="4.29063">
        <ele>266</ele>
        <time>2018-06-03T06:15:40.000Z</time>
      </trkpt>
      <trkpt lat="44.52293" lon="4.29061">
        <ele>266</ele>
        <time>2018-06-03T06:15:41.000Z</time>
      </trkpt>
      <trkpt lat="44.5229" lon="4.29059">
        <ele>266</ele>
        <time>2018-06-03T06:15:42.000Z</time>
      </trkpt>
      <trkpt lat="44.52288" lon="4.29057">
        <ele>266</ele>
        <time>2018-06-03T06:15:43.000Z</time>
      </trkpt>
      <trkpt lat="44.52285" lon="4.29054">
        <ele>266</ele>
        <time>2018-06-03T06:15:44.000Z</time>
      </trkpt>
      <trkpt lat="44.52283" lon="4.29052">
        <ele>266</ele>
        <time>2018-06-03T06:15:45.000Z</time>
      </trkpt>
      <trkpt lat="44.52281" lon="4.2905">
        <ele>266</ele>
        <time>2018-06-03T06:15:46.000Z</time>
      </trkpt>
      <trkpt lat="44.52279" lon="4.29047">
        <ele>266</ele>
        <time>2018-06-03T06:15:47.000Z</time>
      </trkpt>
      <trkpt lat="44.52277" lon="4.29045">
        <ele>266</ele>
        <time>2018-06-03T06:15:48.000Z</time>
      </trkpt>
      <trkpt lat="44.52275" lon="4.29043">
        <ele>267</ele>
        <time>2018-06-03T06:15:49.000Z</time>
      </trkpt>
      <trkpt lat="44.52274" lon="4.29041">
        <ele>267</ele>
        <time>2018-06-03T06:15:50.000Z</time>
      </trkpt>
      <trkpt lat="44.52274" lon="4.29039">
        <ele>267</ele>
        <time>2018-06-03T06:15:51.000Z</time>
      </trkpt>
      <trkpt lat="44.52273" lon="4.29035">
        <ele>267</ele>
        <time>2018-06-03T06:15:52.000Z</time>
      </trkpt>
      <trkpt lat="44.52272" lon="4.29031">
        <ele>267</ele>
        <time>2018-06-03T06:15:53.000Z</time>
      </trkpt>
      <trkpt lat="44.52271" lon="4.29029">
        <ele>267</ele>
        <time>2018-06-03T06:15:54.000Z</time>
      </trkpt>
      <trkpt lat="44.5227" lon="4.29026">
        <ele>268</ele>
        <time>2018-06-03T06:15:55.000Z</time>
      </trkpt>
      <trkpt lat="44.52269" lon="4.29025">
        <ele>268</ele>
        <time>2018-06-03T06:15:56.000Z</time>
      </trkpt>
      <trkpt lat="44.52267" lon="4.29023">
        <ele>268</ele>
        <time>2018-06-03T06:15:57.000Z</time>
      </trkpt>
      <trkpt lat="44.52265" lon="4.29021">
        <ele>268</ele>
        <time>2018-06-03T06:15:58.000Z</time>
      </trkpt>
      <trkpt lat="44.52263" lon="4.29018">
        <ele>268</ele>
        <time>2018-06-03T06:15:59.000Z</time>
      </trkpt>
      <trkpt lat="44.52262" lon="4.29016">
        <ele>269</ele>
        <time>2018-06-03T06:16:00.000Z</time>
      </trkpt>
      <trkpt lat="44.5226" lon="4.29015">
        <ele>269</ele>
        <time>2018-06-03T06:16:01.000Z</time>
      </trkpt>
      <trkpt lat="44.52259" lon="4.29015">
        <ele>269</ele>
        <time>2018-06-03T06:16:02.000Z</time>
      </trkpt>
      <trkpt lat="44.52258" lon="4.29015">
        <ele>269</ele>
        <time>2018-06-03T06:16:03.000Z</time>
      </trkpt>
      <trkpt lat="44.52255" lon="4.29015">
        <ele>269</ele>
        <time>2018-06-03T06:16:04.000Z</time>
      </trkpt>
      <trkpt lat="44.52253" lon="4.29015">
        <ele>269</ele>
        <time>2018-06-03T06:16:05.000Z</time>
      </trkpt>
      <trkpt lat="44.5225" lon="4.29014">
        <ele>268</ele>
        <time>2018-06-03T06:16:06.000Z</time>
      </trkpt>
      <trkpt lat="44.52247" lon="4.29013">
        <ele>268</ele>
        <time>2018-06-03T06:16:07.000Z</time>
      </trkpt>
      <trkpt lat="44.52244" lon="4.29012">
        <ele>268</ele>
        <time>2018-06-03T06:16:08.000Z</time>
      </trkpt>
      <trkpt lat="44.52241" lon="4.29011">
        <ele>268</ele>
        <time>2018-06-03T06:16:09.000Z</time>
      </trkpt>
      <trkpt lat="44.52237" lon="4.2901">
        <ele>267</ele>
        <time>2018-06-03T06:16:10.000Z</time>
      </trkpt>
      <trkpt lat="44.52234" lon="4.29008">
        <ele>267</ele>
        <time>2018-06-03T06:16:11.000Z</time>
      </trkpt>
      <trkpt lat="44.5223" lon="4.29007">
        <ele>267</ele>
        <time>2018-06-03T06:16:12.000Z</time>
      </trkpt>
      <trkpt lat="44.52227" lon="4.29006">
        <ele>266</ele>
        <time>2018-06-03T06:16:13.000Z</time>
      </trkpt>
      <trkpt lat="44.52223" lon="4.29005">
        <ele>266</ele>
        <time>2018-06-03T06:16:14.000Z</time>
      </trkpt>
      <trkpt lat="44.5222" lon="4.29005">
        <ele>266</ele>
        <time>2018-06-03T06:16:15.000Z</time>
      </trkpt>
      <trkpt lat="44.52217" lon="4.29004">
        <ele>266</ele>
        <time>2018-06-03T06:16:16.000Z</time>
      </trkpt>
      <trkpt lat="44.52215" lon="4.29002">
        <ele>266</ele>
        <time>2018-06-03T06:16:17.000Z</time>
      </trkpt>
      <trkpt lat="44.52214" lon="4.28999">
        <ele>272</ele>
        <time>2018-06-03T06:16:18.000Z</time>
      </trkpt>
      <trkpt lat="44.52213" lon="4.28996">
        <ele>272</ele>
        <time>2018-06-03T06:16:19.000Z</time>
      </trkpt>
      <trkpt lat="44.52213" lon="4.28993">
        <ele>272</ele>
        <time>2018-06-03T06:16:20.000Z</time>
      </trkpt>
      <trkpt lat="44.52213" lon="4.2899">
        <ele>272</ele>
        <time>2018-06-03T06:16:21.000Z</time>
      </trkpt>
      <trkpt lat="44.52213" lon="4.28987">
        <ele>272</ele>
        <time>2018-06-03T06:16:22.000Z</time>
      </trkpt>
      <trkpt lat="44.52212" lon="4.28983">
        <ele>272</ele>
        <time>2018-06-03T06:16:23.000Z</time>
      </trkpt>
      <trkpt lat="44.52212" lon="4.2898">
        <ele>272</ele>
        <time>2018-06-03T06:16:24.000Z</time>
      </trkpt>
      <trkpt lat="44.52213" lon="4.28977">
        <ele>272</ele>
        <time>2018-06-03T06:16:25.000Z</time>
      </trkpt>
      <trkpt lat="44.52213" lon="4.28974">
        <ele>272</ele>
        <time>2018-06-03T06:16:26.000Z</time>
      </trkpt>
      <trkpt lat="44.52212" lon="4.28971">
        <ele>272</ele>
        <time>2018-06-03T06:16:27.000Z</time>
      </trkpt>
      <trkpt lat="44.52212" lon="4.28969">
        <ele>273</ele>
        <time>2018-06-03T06:16:28.000Z</time>
      </trkpt>
      <trkpt lat="44.52211" lon="4.28968">
        <ele>273</ele>
        <time>2018-06-03T06:16:29.000Z</time>
      </trkpt>
      <trkpt lat="44.52209" lon="4.28966">
        <ele>273</ele>
        <time>2018-06-03T06:16:30.000Z</time>
      </trkpt>
      <trkpt lat="44.52207" lon="4.28964">
        <ele>273</ele>
        <time>2018-06-03T06:16:31.000Z</time>
      </trkpt>
      <trkpt lat="44.52206" lon="4.28963">
        <ele>273</ele>
        <time>2018-06-03T06:16:32.000Z</time>
      </trkpt>
      <trkpt lat="44.52204" lon="4.28961">
        <ele>273</ele>
        <time>2018-06-03T06:16:33.000Z</time>
      </trkpt>
      <trkpt lat="44.52203" lon="4.28959">
        <ele>273</ele>
        <time>2018-06-03T06:16:34.000Z</time>
      </trkpt>
      <trkpt lat="44.52201" lon="4.28957">
        <ele>273</ele>
        <time>2018-06-03T06:16:35.000Z</time>
      </trkpt>
      <trkpt lat="44.52199" lon="4.28955">
        <ele>273</ele>
        <time>2018-06-03T06:16:36.000Z</time>
      </trkpt>
      <trkpt lat="44.52198" lon="4.28952">
        <ele>273</ele>
        <time>2018-06-03T06:16:37.000Z</time>
      </trkpt>
      <trkpt lat="44.52196" lon="4.2895">
        <ele>273</ele>
        <time>2018-06-03T06:16:38.000Z</time>
      </trkpt>
      <trkpt lat="44.52194" lon="4.28948">
        <ele>273</ele>
        <time>2018-06-03T06:16:39.000Z</time>
      </trkpt>
      <trkpt lat="44.52193" lon="4.28946">
        <ele>273</ele>
        <time>2018-06-03T06:16:40.000Z</time>
      </trkpt>
      <trkpt lat="44.52191" lon="4.28944">
        <ele>273</ele>
        <time>2018-06-03T06:16:41.000Z</time>
      </trkpt>
      <trkpt lat="44.5219" lon="4.28942">
        <ele>273</ele>
        <time>2018-06-03T06:16:42.000Z</time>
      </trkpt>
      <trkpt lat="44.52188" lon="4.28941">
        <ele>273</ele>
        <time>2018-06-03T06:16:43.000Z</time>
      </trkpt>
      <trkpt lat="44.52186" lon="4.2894">
        <ele>273</ele>
        <time>2018-06-03T06:16:44.000Z</time>
      </trkpt>
      <trkpt lat="44.52184" lon="4.28939">
        <ele>274</ele>
        <time>2018-06-03T06:16:45.000Z</time>
      </trkpt>
      <trkpt lat="44.52182" lon="4.28937">
        <ele>274</ele>
        <time>2018-06-03T06:16:46.000Z</time>
      </trkpt>
      <trkpt lat="44.52181" lon="4.28935">
        <ele>274</ele>
        <time>2018-06-03T06:16:47.000Z</time>
      </trkpt>
      <trkpt lat="44.52179" lon="4.28933">
        <ele>274</ele>
        <time>2018-06-03T06:16:48.000Z</time>
      </trkpt>
      <trkpt lat="44.52178" lon="4.2893">
        <ele>274</ele>
        <time>2018-06-03T06:16:49.000Z</time>
      </trkpt>
      <trkpt lat="44.52177" lon="4.28926">
        <ele>274</ele>
        <time>2018-06-03T06:16:50.000Z</time>
      </trkpt>
      <trkpt lat="44.52177" lon="4.28924">
        <ele>274</ele>
        <time>2018-06-03T06:16:51.000Z</time>
      </trkpt>
      <trkpt lat="44.52177" lon="4.28922">
        <ele>274</ele>
        <time>2018-06-03T06:16:52.000Z</time>
      </trkpt>
      <trkpt lat="44.52178" lon="4.28919">
        <ele>274</ele>
        <time>2018-06-03T06:16:53.000Z</time>
      </trkpt>
      <trkpt lat="44.52178" lon="4.28916">
        <ele>276</ele>
        <time>2018-06-03T06:16:54.000Z</time>
      </trkpt>
      <trkpt lat="44.52179" lon="4.28913">
        <ele>276</ele>
        <time>2018-06-03T06:16:55.000Z</time>
      </trkpt>
      <trkpt lat="44.52179" lon="4.28911">
        <ele>276</ele>
        <time>2018-06-03T06:16:56.000Z</time>
      </trkpt>
      <trkpt lat="44.52179" lon="4.28908">
        <ele>276</ele>
        <time>2018-06-03T06:16:57.000Z</time>
      </trkpt>
      <trkpt lat="44.5218" lon="4.28905">
        <ele>276</ele>
        <time>2018-06-03T06:16:58.000Z</time>
      </trkpt>
      <trkpt lat="44.5218" lon="4.28901">
        <ele>276</ele>
        <time>2018-06-03T06:16:59.000Z</time>
      </trkpt>
      <trkpt lat="44.52181" lon="4.28898">
        <ele>276</ele>
        <time>2018-06-03T06:17:00.000Z</time>
      </trkpt>
      <trkpt lat="44.52181" lon="4.28895">
        <ele>277</ele>
        <time>2018-06-03T06:17:01.000Z</time>
      </trkpt>
      <trkpt lat="44.52182" lon="4.28892">
        <ele>277</ele>
        <time>2018-06-03T06:17:02.000Z</time>
      </trkpt>
      <trkpt lat="44.52182" lon="4.28889">
        <ele>277</ele>
        <time>2018-06-03T06:17:03.000Z</time>
      </trkpt>
      <trkpt lat="44.52183" lon="4.28886">
        <ele>277</ele>
        <time>2018-06-03T06:17:04.000Z</time>
      </trkpt>
      <trkpt lat="44.52184" lon="4.28883">
        <ele>277</ele>
        <time>2018-06-03T06:17:05.000Z</time>
      </trkpt>
      <trkpt lat="44.52185" lon="4.28881">
        <ele>277</ele>
        <time>2018-06-03T06:17:06.000Z</time>
      </trkpt>
      <trkpt lat="44.52185" lon="4.28878">
        <ele>277</ele>
        <time>2018-06-03T06:17:07.000Z</time>
      </trkpt>
      <trkpt lat="44.52185" lon="4.28875">
        <ele>277</ele>
        <time>2018-06-03T06:17:08.000Z</time>
      </trkpt>
      <trkpt lat="44.52187" lon="4.28872">
        <ele>277</ele>
        <time>2018-06-03T06:17:09.000Z</time>
      </trkpt>
      <trkpt lat="44.52189" lon="4.2887">
        <ele>277</ele>
        <time>2018-06-03T06:17:10.000Z</time>
      </trkpt>
      <trkpt lat="44.52191" lon="4.28868">
        <ele>277</ele>
        <time>2018-06-03T06:17:11.000Z</time>
      </trkpt>
      <trkpt lat="44.52193" lon="4.28867">
        <ele>277</ele>
        <time>2018-06-03T06:17:12.000Z</time>
      </trkpt>
      <trkpt lat="44.52196" lon="4.28865">
        <ele>277</ele>
        <time>2018-06-03T06:17:13.000Z</time>
      </trkpt>
      <trkpt lat="44.52198" lon="4.28865">
        <ele>277</ele>
        <time>2018-06-03T06:17:14.000Z</time>
      </trkpt>
      <trkpt lat="44.52201" lon="4.28865">
        <ele>277</ele>
        <time>2018-06-03T06:17:15.000Z</time>
      </trkpt>
      <trkpt lat="44.52204" lon="4.28864">
        <ele>277</ele>
        <time>2018-06-03T06:17:16.000Z</time>
      </trkpt>
      <trkpt lat="44.52206" lon="4.28862">
        <ele>278</ele>
        <time>2018-06-03T06:17:17.000Z</time>
      </trkpt>
      <trkpt lat="44.52209" lon="4.28861">
        <ele>278</ele>
        <time>2018-06-03T06:17:18.000Z</time>
      </trkpt>
      <trkpt lat="44.52211" lon="4.28859">
        <ele>278</ele>
        <time>2018-06-03T06:17:19.000Z</time>
      </trkpt>
      <trkpt lat="44.52214" lon="4.28857">
        <ele>278</ele>
        <time>2018-06-03T06:17:20.000Z</time>
      </trkpt>
      <trkpt lat="44.52217" lon="4.28855">
        <ele>278</ele>
        <time>2018-06-03T06:17:21.000Z</time>
      </trkpt>
      <trkpt lat="44.5222" lon="4.28853">
        <ele>278</ele>
        <time>2018-06-03T06:17:22.000Z</time>
      </trkpt>
      <trkpt lat="44.52224" lon="4.28851">
        <ele>278</ele>
        <time>2018-06-03T06:17:23.000Z</time>
      </trkpt>
      <trkpt lat="44.52227" lon="4.28847">
        <ele>278</ele>
        <time>2018-06-03T06:17:24.000Z</time>
      </trkpt>
      <trkpt lat="44.5223" lon="4.28843">
        <ele>278</ele>
        <time>2018-06-03T06:17:25.000Z</time>
      </trkpt>
      <trkpt lat="44.52232" lon="4.28839">
        <ele>279</ele>
        <time>2018-06-03T06:17:26.000Z</time>
      </trkpt>
      <trkpt lat="44.52235" lon="4.28834">
        <ele>279</ele>
        <time>2018-06-03T06:17:27.000Z</time>
      </trkpt>
      <trkpt lat="44.52238" lon="4.2883">
        <ele>279</ele>
        <time>2018-06-03T06:17:28.000Z</time>
      </trkpt>
      <trkpt lat="44.5224" lon="4.28825">
        <ele>279</ele>
        <time>2018-06-03T06:17:29.000Z</time>
      </trkpt>
      <trkpt lat="44.52242" lon="4.28821">
        <ele>279</ele>
        <time>2018-06-03T06:17:30.000Z</time>
      </trkpt>
      <trkpt lat="44.52245" lon="4.28816">
        <ele>279</ele>
        <time>2018-06-03T06:17:31.000Z</time>
      </trkpt>
      <trkpt lat="44.52247" lon="4.28811">
        <ele>279</ele>
        <time>2018-06-03T06:17:32.000Z</time>
      </trkpt>
      <trkpt lat="44.52248" lon="4.28806">
        <ele>279</ele>
        <time>2018-06-03T06:17:33.000Z</time>
      </trkpt>
      <trkpt lat="44.5225" lon="4.28801">
        <ele>279</ele>
        <time>2018-06-03T06:17:34.000Z</time>
      </trkpt>
      <trkpt lat="44.52252" lon="4.28796">
        <ele>282</ele>
        <time>2018-06-03T06:17:35.000Z</time>
      </trkpt>
      <trkpt lat="44.52253" lon="4.28791">
        <ele>282</ele>
        <time>2018-06-03T06:17:36.000Z</time>
      </trkpt>
      <trkpt lat="44.52254" lon="4.28786">
        <ele>282</ele>
        <time>2018-06-03T06:17:37.000Z</time>
      </trkpt>
      <trkpt lat="44.52256" lon="4.28781">
        <ele>282</ele>
        <time>2018-06-03T06:17:38.000Z</time>
      </trkpt>
      <trkpt lat="44.52257" lon="4.28776">
        <ele>282</ele>
        <time>2018-06-03T06:17:39.000Z</time>
      </trkpt>
      <trkpt lat="44.52259" lon="4.28771">
        <ele>282</ele>
        <time>2018-06-03T06:17:40.000Z</time>
      </trkpt>
      <trkpt lat="44.5226" lon="4.28766">
        <ele>283</ele>
        <time>2018-06-03T06:17:41.000Z</time>
      </trkpt>
      <trkpt lat="44.52261" lon="4.28761">
        <ele>283</ele>
        <time>2018-06-03T06:17:42.000Z</time>
      </trkpt>
      <trkpt lat="44.52263" lon="4.28756">
        <ele>283</ele>
        <time>2018-06-03T06:17:43.000Z</time>
      </trkpt>
      <trkpt lat="44.52264" lon="4.28752">
        <ele>283</ele>
        <time>2018-06-03T06:17:44.000Z</time>
      </trkpt>
      <trkpt lat="44.52266" lon="4.28747">
        <ele>285</ele>
        <time>2018-06-03T06:17:45.000Z</time>
      </trkpt>
      <trkpt lat="44.52268" lon="4.28743">
        <ele>285</ele>
        <time>2018-06-03T06:17:46.000Z</time>
      </trkpt>
      <trkpt lat="44.5227" lon="4.28738">
        <ele>285</ele>
        <time>2018-06-03T06:17:47.000Z</time>
      </trkpt>
      <trkpt lat="44.52272" lon="4.28734">
        <ele>285</ele>
        <time>2018-06-03T06:17:48.000Z</time>
      </trkpt>
      <trkpt lat="44.52275" lon="4.28731">
        <ele>285</ele>
        <time>2018-06-03T06:17:49.000Z</time>
      </trkpt>
      <trkpt lat="44.52278" lon="4.28728">
        <ele>286</ele>
        <time>2018-06-03T06:17:50.000Z</time>
      </trkpt>
      <trkpt lat="44.5228" lon="4.28725">
        <ele>286</ele>
        <time>2018-06-03T06:17:51.000Z</time>
      </trkpt>
      <trkpt lat="44.52283" lon="4.28722">
        <ele>286</ele>
        <time>2018-06-03T06:17:52.000Z</time>
      </trkpt>
      <trkpt lat="44.52286" lon="4.2872">
        <ele>286</ele>
        <time>2018-06-03T06:17:53.000Z</time>
      </trkpt>
      <trkpt lat="44.52288" lon="4.28717">
        <ele>286</ele>
        <time>2018-06-03T06:17:54.000Z</time>
      </trkpt>
      <trkpt lat="44.52291" lon="4.28714">
        <ele>286</ele>
        <time>2018-06-03T06:17:55.000Z</time>
      </trkpt>
      <trkpt lat="44.52293" lon="4.2871">
        <ele>286</ele>
        <time>2018-06-03T06:17:56.000Z</time>
      </trkpt>
      <trkpt lat="44.52295" lon="4.28706">
        <ele>286</ele>
        <time>2018-06-03T06:17:57.000Z</time>
      </trkpt>
      <trkpt lat="44.52296" lon="4.28702">
        <ele>286</ele>
        <time>2018-06-03T06:17:58.000Z</time>
      </trkpt>
      <trkpt lat="44.52298" lon="4.28699">
        <ele>287</ele>
        <time>2018-06-03T06:17:59.000Z</time>
      </trkpt>
      <trkpt lat="44.52299" lon="4.28695">
        <ele>287</ele>
        <time>2018-06-03T06:18:00.000Z</time>
      </trkpt>
      <trkpt lat="44.523" lon="4.28692">
        <ele>287</ele>
        <time>2018-06-03T06:18:01.000Z</time>
      </trkpt>
      <trkpt lat="44.52301" lon="4.28688">
        <ele>287</ele>
        <time>2018-06-03T06:18:02.000Z</time>
      </trkpt>
      <trkpt lat="44.52303" lon="4.28684">
        <ele>287</ele>
        <time>2018-06-03T06:18:03.000Z</time>
      </trkpt>
      <trkpt lat="44.52304" lon="4.28681">
        <ele>287</ele>
        <time>2018-06-03T06:18:04.000Z</time>
      </trkpt>
      <trkpt lat="44.52305" lon="4.28677">
        <ele>287</ele>
        <time>2018-06-03T06:18:05.000Z</time>
      </trkpt>
      <trkpt lat="44.52307" lon="4.28673">
        <ele>287</ele>
        <time>2018-06-03T06:18:06.000Z</time>
      </trkpt>
      <trkpt lat="44.52308" lon="4.2867">
        <ele>287</ele>
        <time>2018-06-03T06:18:07.000Z</time>
      </trkpt>
      <trkpt lat="44.5231" lon="4.28666">
        <ele>290</ele>
        <time>2018-06-03T06:18:08.000Z</time>
      </trkpt>
      <trkpt lat="44.52312" lon="4.28662">
        <ele>290</ele>
        <time>2018-06-03T06:18:09.000Z</time>
      </trkpt>
      <trkpt lat="44.52313" lon="4.28659">
        <ele>290</ele>
        <time>2018-06-03T06:18:10.000Z</time>
      </trkpt>
      <trkpt lat="44.52315" lon="4.28655">
        <ele>290</ele>
        <time>2018-06-03T06:18:11.000Z</time>
      </trkpt>
      <trkpt lat="44.52317" lon="4.28651">
        <ele>290</ele>
        <time>2018-06-03T06:18:12.000Z</time>
      </trkpt>
      <trkpt lat="44.52319" lon="4.28648">
        <ele>290</ele>
        <time>2018-06-03T06:18:13.000Z</time>
      </trkpt>
      <trkpt lat="44.52321" lon="4.28644">
        <ele>290</ele>
        <time>2018-06-03T06:18:14.000Z</time>
      </trkpt>
      <trkpt lat="44.52323" lon="4.28641">
        <ele>290</ele>
        <time>2018-06-03T06:18:15.000Z</time>
      </trkpt>
      <trkpt lat="44.52325" lon="4.28637">
        <ele>290</ele>
        <time>2018-06-03T06:18:16.000Z</time>
      </trkpt>
      <trkpt lat="44.52327" lon="4.28634">
        <ele>290</ele>
        <time>2018-06-03T06:18:17.000Z</time>
      </trkpt>
      <trkpt lat="44.52329" lon="4.2863">
        <ele>290</ele>
        <time>2018-06-03T06:18:18.000Z</time>
      </trkpt>
      <trkpt lat="44.52331" lon="4.28626">
        <ele>290</ele>
        <time>2018-06-03T06:18:19.000Z</time>
      </trkpt>
      <trkpt lat="44.52332" lon="4.28622">
        <ele>290</ele>
        <time>2018-06-03T06:18:20.000Z</time>
      </trkpt>
      <trkpt lat="44.52334" lon="4.28618">
        <ele>290</ele>
        <time>2018-06-03T06:18:21.000Z</time>
      </trkpt>
      <trkpt lat="44.52335" lon="4.28614">
        <ele>290</ele>
        <time>2018-06-03T06:18:22.000Z</time>
      </trkpt>
      <trkpt lat="44.52337" lon="4.2861">
        <ele>290</ele>
        <time>2018-06-03T06:18:23.000Z</time>
      </trkpt>
      <trkpt lat="44.52338" lon="4.28606">
        <ele>291</ele>
        <time>2018-06-03T06:18:24.000Z</time>
      </trkpt>
      <trkpt lat="44.5234" lon="4.28602">
        <ele>291</ele>
        <time>2018-06-03T06:18:25.000Z</time>
      </trkpt>
      <trkpt lat="44.52341" lon="4.28598">
        <ele>291</ele>
        <time>2018-06-03T06:18:26.000Z</time>
      </trkpt>
      <trkpt lat="44.52342" lon="4.28594">
        <ele>291</ele>
        <time>2018-06-03T06:18:27.000Z</time>
      </trkpt>
      <trkpt lat="44.52343" lon="4.2859">
        <ele>291</ele>
        <time>2018-06-03T06:18:28.000Z</time>
      </trkpt>
      <trkpt lat="44.52343" lon="4.28586">
        <ele>291</ele>
        <time>2018-06-03T06:18:29.000Z</time>
      </trkpt>
      <trkpt lat="44.52342" lon="4.28583">
        <ele>292</ele>
        <time>2018-06-03T06:18:30.000Z</time>
      </trkpt>
      <trkpt lat="44.52339" lon="4.28581">
        <ele>292</ele>
        <time>2018-06-03T06:18:31.000Z</time>
      </trkpt>
      <trkpt lat="44.52336" lon="4.28579">
        <ele>292</ele>
        <time>2018-06-03T06:18:32.000Z</time>
      </trkpt>
      <trkpt lat="44.52333" lon="4.28578">
        <ele>292</ele>
        <time>2018-06-03T06:18:33.000Z</time>
      </trkpt>
      <trkpt lat="44.5233" lon="4.28576">
        <ele>292</ele>
        <time>2018-06-03T06:18:34.000Z</time>
      </trkpt>
      <trkpt lat="44.52327" lon="4.28575">
        <ele>292</ele>
        <time>2018-06-03T06:18:35.000Z</time>
      </trkpt>
      <trkpt lat="44.52324" lon="4.28573">
        <ele>293</ele>
        <time>2018-06-03T06:18:36.000Z</time>
      </trkpt>
      <trkpt lat="44.5232" lon="4.28571">
        <ele>293</ele>
        <time>2018-06-03T06:18:37.000Z</time>
      </trkpt>
      <trkpt lat="44.52317" lon="4.28569">
        <ele>293</ele>
        <time>2018-06-03T06:18:38.000Z</time>
      </trkpt>
      <trkpt lat="44.52314" lon="4.28568">
        <ele>293</ele>
        <time>2018-06-03T06:18:39.000Z</time>
      </trkpt>
      <trkpt lat="44.52311" lon="4.28566">
        <ele>293</ele>
        <time>2018-06-03T06:18:40.000Z</time>
      </trkpt>
      <trkpt lat="44.52308" lon="4.28564">
        <ele>293</ele>
        <time>2018-06-03T06:18:41.000Z</time>
      </trkpt>
      <trkpt lat="44.52305" lon="4.28562">
        <ele>293</ele>
        <time>2018-06-03T06:18:42.000Z</time>
      </trkpt>
      <trkpt lat="44.52302" lon="4.2856">
        <ele>293</ele>
        <time>2018-06-03T06:18:43.000Z</time>
      </trkpt>
      <trkpt lat="44.52298" lon="4.28558">
        <ele>293</ele>
        <time>2018-06-03T06:18:44.000Z</time>
      </trkpt>
      <trkpt lat="44.52295" lon="4.28556">
        <ele>293</ele>
        <time>2018-06-03T06:18:45.000Z</time>
      </trkpt>
      <trkpt lat="44.52292" lon="4.28554">
        <ele>293</ele>
        <time>2018-06-03T06:18:46.000Z</time>
      </trkpt>
      <trkpt lat="44.52288" lon="4.28552">
        <ele>293</ele>
        <time>2018-06-03T06:18:47.000Z</time>
      </trkpt>
      <trkpt lat="44.52285" lon="4.28551">
        <ele>293</ele>
        <time>2018-06-03T06:18:48.000Z</time>
      </trkpt>
      <trkpt lat="44.52281" lon="4.28551">
        <ele>293</ele>
        <time>2018-06-03T06:18:49.000Z</time>
      </trkpt>
      <trkpt lat="44.52277" lon="4.2855">
        <ele>293</ele>
        <time>2018-06-03T06:18:50.000Z</time>
      </trkpt>
      <trkpt lat="44.52273" lon="4.28549">
        <ele>293</ele>
        <time>2018-06-03T06:18:51.000Z</time>
      </trkpt>
      <trkpt lat="44.52268" lon="4.28548">
        <ele>293</ele>
        <time>2018-06-03T06:18:52.000Z</time>
      </trkpt>
      <trkpt lat="44.52264" lon="4.28546">
        <ele>293</ele>
        <time>2018-06-03T06:18:53.000Z</time>
      </trkpt>
      <trkpt lat="44.5226" lon="4.28545">
        <ele>293</ele>
        <time>2018-06-03T06:18:54.000Z</time>
      </trkpt>
      <trkpt lat="44.52256" lon="4.28544">
        <ele>293</ele>
        <time>2018-06-03T06:18:55.000Z</time>
      </trkpt>
      <trkpt lat="44.52252" lon="4.28543">
        <ele>293</ele>
        <time>2018-06-03T06:18:56.000Z</time>
      </trkpt>
      <trkpt lat="44.52249" lon="4.28544">
        <ele>289</ele>
        <time>2018-06-03T06:18:57.000Z</time>
      </trkpt>
      <trkpt lat="44.52246" lon="4.28547">
        <ele>289</ele>
        <time>2018-06-03T06:18:58.000Z</time>
      </trkpt>
      <trkpt lat="44.52245" lon="4.28552">
        <ele>289</ele>
        <time>2018-06-03T06:18:59.000Z</time>
      </trkpt>
      <trkpt lat="44.52242" lon="4.28556">
        <ele>289</ele>
        <time>2018-06-03T06:19:00.000Z</time>
      </trkpt>
      <trkpt lat="44.52239" lon="4.28556">
        <ele>289</ele>
        <time>2018-06-03T06:19:01.000Z</time>
      </trkpt>
      <trkpt lat="44.52236" lon="4.28554">
        <ele>289</ele>
        <time>2018-06-03T06:19:02.000Z</time>
      </trkpt>
      <trkpt lat="44.52232" lon="4.28551">
        <ele>289</ele>
        <time>2018-06-03T06:19:03.000Z</time>
      </trkpt>
      <trkpt lat="44.5223" lon="4.28549">
        <ele>289</ele>
        <time>2018-06-03T06:19:04.000Z</time>
      </trkpt>
      <trkpt lat="44.52229" lon="4.28547">
        <ele>288</ele>
        <time>2018-06-03T06:19:05.000Z</time>
      </trkpt>
      <trkpt lat="44.52229" lon="4.28546">
        <ele>288</ele>
        <time>2018-06-03T06:19:06.000Z</time>
      </trkpt>
      <trkpt lat="44.5223" lon="4.28545">
        <ele>288</ele>
        <time>2018-06-03T06:19:07.000Z</time>
      </trkpt>
      <trkpt lat="44.5223" lon="4.28542">
        <ele>288</ele>
        <time>2018-06-03T06:19:08.000Z</time>
      </trkpt>
      <trkpt lat="44.52231" lon="4.2854">
        <ele>289</ele>
        <time>2018-06-03T06:19:09.000Z</time>
      </trkpt>
      <trkpt lat="44.52232" lon="4.28536">
        <ele>289</ele>
        <time>2018-06-03T06:19:10.000Z</time>
      </trkpt>
      <trkpt lat="44.52234" lon="4.28531">
        <ele>289</ele>
        <time>2018-06-03T06:19:11.000Z</time>
      </trkpt>
      <trkpt lat="44.52235" lon="4.28527">
        <ele>289</ele>
        <time>2018-06-03T06:19:12.000Z</time>
      </trkpt>
      <trkpt lat="44.52237" lon="4.28522">
        <ele>289</ele>
        <time>2018-06-03T06:19:13.000Z</time>
      </trkpt>
      <trkpt lat="44.52238" lon="4.28518">
        <ele>290</ele>
        <time>2018-06-03T06:19:14.000Z</time>
      </trkpt>
      <trkpt lat="44.52238" lon="4.28513">
        <ele>290</ele>
        <time>2018-06-03T06:19:15.000Z</time>
      </trkpt>
      <trkpt lat="44.52237" lon="4.28507">
        <ele>290</ele>
        <time>2018-06-03T06:19:16.000Z</time>
      </trkpt>
      <trkpt lat="44.52236" lon="4.28501">
        <ele>290</ele>
        <time>2018-06-03T06:19:17.000Z</time>
      </trkpt>
      <trkpt lat="44.52236" lon="4.28494">
        <ele>290</ele>
        <time>2018-06-03T06:19:18.000Z</time>
      </trkpt>
      <trkpt lat="44.52237" lon="4.28487">
        <ele>290</ele>
        <time>2018-06-03T06:19:19.000Z</time>
      </trkpt>
      <trkpt lat="44.52237" lon="4.2848">
        <ele>289</ele>
        <time>2018-06-03T06:19:20.000Z</time>
      </trkpt>
      <trkpt lat="44.52238" lon="4.28472">
        <ele>289</ele>
        <time>2018-06-03T06:19:21.000Z</time>
      </trkpt>
      <trkpt lat="44.52239" lon="4.28465">
        <ele>289</ele>
        <time>2018-06-03T06:19:22.000Z</time>
      </trkpt>
      <trkpt lat="44.5224" lon="4.28457">
        <ele>289</ele>
        <time>2018-06-03T06:19:23.000Z</time>
      </trkpt>
      <trkpt lat="44.5224" lon="4.28451">
        <ele>289</ele>
        <time>2018-06-03T06:19:24.000Z</time>
      </trkpt>
      <trkpt lat="44.52241" lon="4.28447">
        <ele>289</ele>
        <time>2018-06-03T06:19:25.000Z</time>
      </trkpt>
      <trkpt lat="44.52241" lon="4.28442">
        <ele>289</ele>
        <time>2018-06-03T06:19:26.000Z</time>
      </trkpt>
      <trkpt lat="44.52241" lon="4.28438">
        <ele>289</ele>
        <time>2018-06-03T06:19:27.000Z</time>
      </trkpt>
      <trkpt lat="44.52241" lon="4.28433">
        <ele>290</ele>
        <time>2018-06-03T06:19:28.000Z</time>
      </trkpt>
      <trkpt lat="44.52242" lon="4.28428">
        <ele>290</ele>
        <time>2018-06-03T06:19:29.000Z</time>
      </trkpt>
      <trkpt lat="44.52243" lon="4.28423">
        <ele>291</ele>
        <time>2018-06-03T06:19:30.000Z</time>
      </trkpt>
      <trkpt lat="44.52244" lon="4.28419">
        <ele>291</ele>
        <time>2018-06-03T06:19:31.000Z</time>
      </trkpt>
      <trkpt lat="44.52245" lon="4.28414">
        <ele>292</ele>
        <time>2018-06-03T06:19:32.000Z</time>
      </trkpt>
      <trkpt lat="44.52246" lon="4.28409">
        <ele>291</ele>
        <time>2018-06-03T06:19:33.000Z</time>
      </trkpt>
      <trkpt lat="44.52246" lon="4.28404">
        <ele>290</ele>
        <time>2018-06-03T06:19:34.000Z</time>
      </trkpt>
      <trkpt lat="44.52247" lon="4.28399">
        <ele>290</ele>
        <time>2018-06-03T06:19:35.000Z</time>
      </trkpt>
      <trkpt lat="44.52248" lon="4.28394">
        <ele>290</ele>
        <time>2018-06-03T06:19:36.000Z</time>
      </trkpt>
      <trkpt lat="44.52249" lon="4.2839">
        <ele>289</ele>
        <time>2018-06-03T06:19:37.000Z</time>
      </trkpt>
      <trkpt lat="44.5225" lon="4.28385">
        <ele>289</ele>
        <time>2018-06-03T06:19:38.000Z</time>
      </trkpt>
      <trkpt lat="44.52251" lon="4.2838">
        <ele>295</ele>
        <time>2018-06-03T06:19:39.000Z</time>
      </trkpt>
      <trkpt lat="44.52252" lon="4.28376">
        <ele>295</ele>
        <time>2018-06-03T06:19:40.000Z</time>
      </trkpt>
      <trkpt lat="44.52254" lon="4.28372">
        <ele>295</ele>
        <time>2018-06-03T06:19:41.000Z</time>
      </trkpt>
      <trkpt lat="44.52255" lon="4.28367">
        <ele>295</ele>
        <time>2018-06-03T06:19:42.000Z</time>
      </trkpt>
      <trkpt lat="44.52257" lon="4.28363">
        <ele>295</ele>
        <time>2018-06-03T06:19:43.000Z</time>
      </trkpt>
      <trkpt lat="44.52259" lon="4.28359">
        <ele>295</ele>
        <time>2018-06-03T06:19:44.000Z</time>
      </trkpt>
      <trkpt lat="44.5226" lon="4.28355">
        <ele>294</ele>
        <time>2018-06-03T06:19:45.000Z</time>
      </trkpt>
      <trkpt lat="44.52262" lon="4.28351">
        <ele>294</ele>
        <time>2018-06-03T06:19:46.000Z</time>
      </trkpt>
      <trkpt lat="44.52263" lon="4.28347">
        <ele>294</ele>
        <time>2018-06-03T06:19:47.000Z</time>
      </trkpt>
      <trkpt lat="44.52265" lon="4.28343">
        <ele>294</ele>
        <time>2018-06-03T06:19:48.000Z</time>
      </trkpt>
      <trkpt lat="44.52268" lon="4.2834">
        <ele>294</ele>
        <time>2018-06-03T06:19:49.000Z</time>
      </trkpt>
      <trkpt lat="44.5227" lon="4.28339">
        <ele>295</ele>
        <time>2018-06-03T06:19:50.000Z</time>
      </trkpt>
      <trkpt lat="44.52273" lon="4.28338">
        <ele>295</ele>
        <time>2018-06-03T06:19:51.000Z</time>
      </trkpt>
      <trkpt lat="44.52275" lon="4.28337">
        <ele>295</ele>
        <time>2018-06-03T06:19:52.000Z</time>
      </trkpt>
      <trkpt lat="44.52278" lon="4.28337">
        <ele>295</ele>
        <time>2018-06-03T06:19:53.000Z</time>
      </trkpt>
      <trkpt lat="44.5228" lon="4.28336">
        <ele>296</ele>
        <time>2018-06-03T06:19:54.000Z</time>
      </trkpt>
      <trkpt lat="44.52282" lon="4.28334">
        <ele>296</ele>
        <time>2018-06-03T06:19:55.000Z</time>
      </trkpt>
      <trkpt lat="44.52285" lon="4.28332">
        <ele>296</ele>
        <time>2018-06-03T06:19:56.000Z</time>
      </trkpt>
      <trkpt lat="44.52288" lon="4.28329">
        <ele>296</ele>
        <time>2018-06-03T06:19:57.000Z</time>
      </trkpt>
      <trkpt lat="44.5229" lon="4.28326">
        <ele>296</ele>
        <time>2018-06-03T06:19:58.000Z</time>
      </trkpt>
      <trkpt lat="44.52293" lon="4.28323">
        <ele>296</ele>
        <time>2018-06-03T06:19:59.000Z</time>
      </trkpt>
      <trkpt lat="44.52296" lon="4.28321">
        <ele>297</ele>
        <time>2018-06-03T06:20:00.000Z</time>
      </trkpt>
      <trkpt lat="44.523" lon="4.28318">
        <ele>297</ele>
        <time>2018-06-03T06:20:01.000Z</time>
      </trkpt>
      <trkpt lat="44.52303" lon="4.28316">
        <ele>297</ele>
        <time>2018-06-03T06:20:02.000Z</time>
      </trkpt>
      <trkpt lat="44.52306" lon="4.28314">
        <ele>297</ele>
        <time>2018-06-03T06:20:03.000Z</time>
      </trkpt>
      <trkpt lat="44.52309" lon="4.28311">
        <ele>297</ele>
        <time>2018-06-03T06:20:04.000Z</time>
      </trkpt>
      <trkpt lat="44.52312" lon="4.28308">
        <ele>298</ele>
        <time>2018-06-03T06:20:05.000Z</time>
      </trkpt>
      <trkpt lat="44.52315" lon="4.28305">
        <ele>298</ele>
        <time>2018-06-03T06:20:06.000Z</time>
      </trkpt>
      <trkpt lat="44.52319" lon="4.28301">
        <ele>298</ele>
        <time>2018-06-03T06:20:07.000Z</time>
      </trkpt>
      <trkpt lat="44.52322" lon="4.28298">
        <ele>297</ele>
        <time>2018-06-03T06:20:08.000Z</time>
      </trkpt>
      <trkpt lat="44.52326" lon="4.28295">
        <ele>297</ele>
        <time>2018-06-03T06:20:09.000Z</time>
      </trkpt>
      <trkpt lat="44.52331" lon="4.28292">
        <ele>297</ele>
        <time>2018-06-03T06:20:10.000Z</time>
      </trkpt>
      <trkpt lat="44.52335" lon="4.28289">
        <ele>299</ele>
        <time>2018-06-03T06:20:11.000Z</time>
      </trkpt>
      <trkpt lat="44.52339" lon="4.28287">
        <ele>299</ele>
        <time>2018-06-03T06:20:12.000Z</time>
      </trkpt>
      <trkpt lat="44.52344" lon="4.28283">
        <ele>299</ele>
        <time>2018-06-03T06:20:13.000Z</time>
      </trkpt>
      <trkpt lat="44.52348" lon="4.2828">
        <ele>298</ele>
        <time>2018-06-03T06:20:14.000Z</time>
      </trkpt>
      <trkpt lat="44.52352" lon="4.28278">
        <ele>298</ele>
        <time>2018-06-03T06:20:15.000Z</time>
      </trkpt>
      <trkpt lat="44.52356" lon="4.28275">
        <ele>298</ele>
        <time>2018-06-03T06:20:16.000Z</time>
      </trkpt>
      <trkpt lat="44.5236" lon="4.28272">
        <ele>298</ele>
        <time>2018-06-03T06:20:17.000Z</time>
      </trkpt>
      <trkpt lat="44.52364" lon="4.28269">
        <ele>298</ele>
        <time>2018-06-03T06:20:18.000Z</time>
      </trkpt>
      <trkpt lat="44.52368" lon="4.28265">
        <ele>298</ele>
        <time>2018-06-03T06:20:19.000Z</time>
      </trkpt>
      <trkpt lat="44.52372" lon="4.28262">
        <ele>298</ele>
        <time>2018-06-03T06:20:20.000Z</time>
      </trkpt>
      <trkpt lat="44.52376" lon="4.2826">
        <ele>298</ele>
        <time>2018-06-03T06:20:21.000Z</time>
      </trkpt>
      <trkpt lat="44.5238" lon="4.28257">
        <ele>298</ele>
        <time>2018-06-03T06:20:22.000Z</time>
      </trkpt>
      <trkpt lat="44.52385" lon="4.28256">
        <ele>298</ele>
        <time>2018-06-03T06:20:23.000Z</time>
      </trkpt>
      <trkpt lat="44.52389" lon="4.28255">
        <ele>298</ele>
        <time>2018-06-03T06:20:24.000Z</time>
      </trkpt>
      <trkpt lat="44.52393" lon="4.28255">
        <ele>298</ele>
        <time>2018-06-03T06:20:25.000Z</time>
      </trkpt>
      <trkpt lat="44.52397" lon="4.28255">
        <ele>298</ele>
        <time>2018-06-03T06:20:26.000Z</time>
      </trkpt>
      <trkpt lat="44.52402" lon="4.28254">
        <ele>298</ele>
        <time>2018-06-03T06:20:27.000Z</time>
      </trkpt>
      <trkpt lat="44.52406" lon="4.28252">
        <ele>298</ele>
        <time>2018-06-03T06:20:28.000Z</time>
      </trkpt>
      <trkpt lat="44.5241" lon="4.2825">
        <ele>297</ele>
        <time>2018-06-03T06:20:29.000Z</time>
      </trkpt>
      <trkpt lat="44.52413" lon="4.28248">
        <ele>297</ele>
        <time>2018-06-03T06:20:30.000Z</time>
      </trkpt>
      <trkpt lat="44.52417" lon="4.28245">
        <ele>297</ele>
        <time>2018-06-03T06:20:31.000Z</time>
      </trkpt>
      <trkpt lat="44.52419" lon="4.28242">
        <ele>298</ele>
        <time>2018-06-03T06:20:32.000Z</time>
      </trkpt>
      <trkpt lat="44.5242" lon="4.28237">
        <ele>298</ele>
        <time>2018-06-03T06:20:33.000Z</time>
      </trkpt>
      <trkpt lat="44.52419" lon="4.28232">
        <ele>298</ele>
        <time>2018-06-03T06:20:34.000Z</time>
      </trkpt>
      <trkpt lat="44.52417" lon="4.28226">
        <ele>298</ele>
        <time>2018-06-03T06:20:35.000Z</time>
      </trkpt>
      <trkpt lat="44.52415" lon="4.28219">
        <ele>297</ele>
        <time>2018-06-03T06:20:36.000Z</time>
      </trkpt>
      <trkpt lat="44.52413" lon="4.28211">
        <ele>297</ele>
        <time>2018-06-03T06:20:37.000Z</time>
      </trkpt>
      <trkpt lat="44.52411" lon="4.28203">
        <ele>296</ele>
        <time>2018-06-03T06:20:38.000Z</time>
      </trkpt>
      <trkpt lat="44.52409" lon="4.28195">
        <ele>296</ele>
        <time>2018-06-03T06:20:39.000Z</time>
      </trkpt>
      <trkpt lat="44.52406" lon="4.28186">
        <ele>296</ele>
        <time>2018-06-03T06:20:40.000Z</time>
      </trkpt>
      <trkpt lat="44.52404" lon="4.28177">
        <ele>296</ele>
        <time>2018-06-03T06:20:41.000Z</time>
      </trkpt>
      <trkpt lat="44.52401" lon="4.28169">
        <ele>296</ele>
        <time>2018-06-03T06:20:42.000Z</time>
      </trkpt>
      <trkpt lat="44.52399" lon="4.28161">
        <ele>297</ele>
        <time>2018-06-03T06:20:43.000Z</time>
      </trkpt>
      <trkpt lat="44.52397" lon="4.28155">
        <ele>298</ele>
        <time>2018-06-03T06:20:44.000Z</time>
      </trkpt>
      <trkpt lat="44.52394" lon="4.28152">
        <ele>298</ele>
        <time>2018-06-03T06:20:45.000Z</time>
      </trkpt>
      <trkpt lat="44.5239" lon="4.2815">
        <ele>298</ele>
        <time>2018-06-03T06:20:46.000Z</time>
      </trkpt>
      <trkpt lat="44.52385" lon="4.28151">
        <ele>298</ele>
        <time>2018-06-03T06:20:47.000Z</time>
      </trkpt>
      <trkpt lat="44.52381" lon="4.28153">
        <ele>298</ele>
        <time>2018-06-03T06:20:48.000Z</time>
      </trkpt>
      <trkpt lat="44.52377" lon="4.28157">
        <ele>298</ele>
        <time>2018-06-03T06:20:49.000Z</time>
      </trkpt>
      <trkpt lat="44.52374" lon="4.28161">
        <ele>298</ele>
        <time>2018-06-03T06:20:50.000Z</time>
      </trkpt>
      <trkpt lat="44.5237" lon="4.28165">
        <ele>298</ele>
        <time>2018-06-03T06:20:51.000Z</time>
      </trkpt>
      <trkpt lat="44.52366" lon="4.2817">
        <ele>297</ele>
        <time>2018-06-03T06:20:52.000Z</time>
      </trkpt>
      <trkpt lat="44.52362" lon="4.28173">
        <ele>297</ele>
        <time>2018-06-03T06:20:53.000Z</time>
      </trkpt>
      <trkpt lat="44.52357" lon="4.28176">
        <ele>297</ele>
        <time>2018-06-03T06:20:54.000Z</time>
      </trkpt>
      <trkpt lat="44.52352" lon="4.28179">
        <ele>297</ele>
        <time>2018-06-03T06:20:55.000Z</time>
      </trkpt>
      <trkpt lat="44.52347" lon="4.28181">
        <ele>297</ele>
        <time>2018-06-03T06:20:56.000Z</time>
      </trkpt>
      <trkpt lat="44.52342" lon="4.28183">
        <ele>297</ele>
        <time>2018-06-03T06:20:57.000Z</time>
      </trkpt>
      <trkpt lat="44.52337" lon="4.28185">
        <ele>297</ele>
        <time>2018-06-03T06:20:58.000Z</time>
      </trkpt>
      <trkpt lat="44.52331" lon="4.28187">
        <ele>297</ele>
        <time>2018-06-03T06:20:59.000Z</time>
      </trkpt>
      <trkpt lat="44.52326" lon="4.28189">
        <ele>297</ele>
        <time>2018-06-03T06:21:00.000Z</time>
      </trkpt>
      <trkpt lat="44.5232" lon="4.28192">
        <ele>297</ele>
        <time>2018-06-03T06:21:01.000Z</time>
      </trkpt>
      <trkpt lat="44.52315" lon="4.28195">
        <ele>297</ele>
        <time>2018-06-03T06:21:02.000Z</time>
      </trkpt>
      <trkpt lat="44.5231" lon="4.28198">
        <ele>297</ele>
        <time>2018-06-03T06:21:03.000Z</time>
      </trkpt>
      <trkpt lat="44.52305" lon="4.28201">
        <ele>297</ele>
        <time>2018-06-03T06:21:04.000Z</time>
      </trkpt>
      <trkpt lat="44.523" lon="4.28205">
        <ele>297</ele>
        <time>2018-06-03T06:21:05.000Z</time>
      </trkpt>
      <trkpt lat="44.52294" lon="4.28208">
        <ele>297</ele>
        <time>2018-06-03T06:21:06.000Z</time>
      </trkpt>
      <trkpt lat="44.52288" lon="4.28212">
        <ele>297</ele>
        <time>2018-06-03T06:21:07.000Z</time>
      </trkpt>
      <trkpt lat="44.52282" lon="4.28217">
        <ele>297</ele>
        <time>2018-06-03T06:21:08.000Z</time>
      </trkpt>
      <trkpt lat="44.52276" lon="4.28221">
        <ele>297</ele>
        <time>2018-06-03T06:21:09.000Z</time>
      </trkpt>
      <trkpt lat="44.5227" lon="4.28226">
        <ele>297</ele>
        <time>2018-06-03T06:21:10.000Z</time>
      </trkpt>
      <trkpt lat="44.52264" lon="4.28231">
        <ele>296</ele>
        <time>2018-06-03T06:21:11.000Z</time>
      </trkpt>
      <trkpt lat="44.52258" lon="4.28236">
        <ele>296</ele>
        <time>2018-06-03T06:21:12.000Z</time>
      </trkpt>
      <trkpt lat="44.52252" lon="4.28241">
        <ele>295</ele>
        <time>2018-06-03T06:21:13.000Z</time>
      </trkpt>
      <trkpt lat="44.52247" lon="4.28245">
        <ele>295</ele>
        <time>2018-06-03T06:21:14.000Z</time>
      </trkpt>
      <trkpt lat="44.52241" lon="4.28247">
        <ele>295</ele>
        <time>2018-06-03T06:21:15.000Z</time>
      </trkpt>
      <trkpt lat="44.52236" lon="4.28248">
        <ele>295</ele>
        <time>2018-06-03T06:21:16.000Z</time>
      </trkpt>
      <trkpt lat="44.52232" lon="4.28249">
        <ele>295</ele>
        <time>2018-06-03T06:21:17.000Z</time>
      </trkpt>
      <trkpt lat="44.52228" lon="4.28249">
        <ele>296</ele>
        <time>2018-06-03T06:21:18.000Z</time>
      </trkpt>
      <trkpt lat="44.52223" lon="4.28249">
        <ele>296</ele>
        <time>2018-06-03T06:21:19.000Z</time>
      </trkpt>
      <trkpt lat="44.52219" lon="4.28249">
        <ele>296</ele>
        <time>2018-06-03T06:21:20.000Z</time>
      </trkpt>
      <trkpt lat="44.52214" lon="4.28248">
        <ele>296</ele>
        <time>2018-06-03T06:21:21.000Z</time>
      </trkpt>
      <trkpt lat="44.5221" lon="4.28248">
        <ele>296</ele>
        <time>2018-06-03T06:21:22.000Z</time>
      </trkpt>
      <trkpt lat="44.52205" lon="4.28247">
        <ele>295</ele>
        <time>2018-06-03T06:21:23.000Z</time>
      </trkpt>
      <trkpt lat="44.522" lon="4.28245">
        <ele>295</ele>
        <time>2018-06-03T06:21:24.000Z</time>
      </trkpt>
      <trkpt lat="44.52195" lon="4.28241">
        <ele>295</ele>
        <time>2018-06-03T06:21:25.000Z</time>
      </trkpt>
      <trkpt lat="44.52192" lon="4.28238">
        <ele>295</ele>
        <time>2018-06-03T06:21:26.000Z</time>
      </trkpt>
      <trkpt lat="44.52188" lon="4.28235">
        <ele>295</ele>
        <time>2018-06-03T06:21:27.000Z</time>
      </trkpt>
      <trkpt lat="44.52185" lon="4.28233">
        <ele>295</ele>
        <time>2018-06-03T06:21:28.000Z</time>
      </trkpt>
      <trkpt lat="44.52182" lon="4.28231">
        <ele>295</ele>
        <time>2018-06-03T06:21:29.000Z</time>
      </trkpt>
      <trkpt lat="44.52178" lon="4.28228">
        <ele>295</ele>
        <time>2018-06-03T06:21:30.000Z</time>
      </trkpt>
      <trkpt lat="44.52175" lon="4.28225">
        <ele>295</ele>
        <time>2018-06-03T06:21:31.000Z</time>
      </trkpt>
      <trkpt lat="44.52172" lon="4.28221">
        <ele>296</ele>
        <time>2018-06-03T06:21:32.000Z</time>
      </trkpt>
      <trkpt lat="44.52169" lon="4.28216">
        <ele>296</ele>
        <time>2018-06-03T06:21:33.000Z</time>
      </trkpt>
      <trkpt lat="44.52166" lon="4.28212">
        <ele>295</ele>
        <time>2018-06-03T06:21:34.000Z</time>
      </trkpt>
      <trkpt lat="44.52164" lon="4.28207">
        <ele>296</ele>
        <time>2018-06-03T06:21:35.000Z</time>
      </trkpt>
      <trkpt lat="44.52161" lon="4.28202">
        <ele>296</ele>
        <time>2018-06-03T06:21:36.000Z</time>
      </trkpt>
      <trkpt lat="44.52159" lon="4.28197">
        <ele>296</ele>
        <time>2018-06-03T06:21:37.000Z</time>
      </trkpt>
      <trkpt lat="44.52156" lon="4.28192">
        <ele>297</ele>
        <time>2018-06-03T06:21:38.000Z</time>
      </trkpt>
      <trkpt lat="44.52154" lon="4.28188">
        <ele>297</ele>
        <time>2018-06-03T06:21:39.000Z</time>
      </trkpt>
      <trkpt lat="44.52152" lon="4.28184">
        <ele>297</ele>
        <time>2018-06-03T06:21:40.000Z</time>
      </trkpt>
      <trkpt lat="44.5215" lon="4.28181">
        <ele>297</ele>
        <time>2018-06-03T06:21:41.000Z</time>
      </trkpt>
      <trkpt lat="44.52148" lon="4.28178">
        <ele>298</ele>
        <time>2018-06-03T06:21:42.000Z</time>
      </trkpt>
      <trkpt lat="44.52146" lon="4.28174">
        <ele>298</ele>
        <time>2018-06-03T06:21:43.000Z</time>
      </trkpt>
      <trkpt lat="44.52144" lon="4.2817">
        <ele>297</ele>
        <time>2018-06-03T06:21:44.000Z</time>
      </trkpt>
      <trkpt lat="44.52141" lon="4.28167">
        <ele>297</ele>
        <time>2018-06-03T06:21:45.000Z</time>
      </trkpt>
      <trkpt lat="44.52139" lon="4.28164">
        <ele>301</ele>
        <time>2018-06-03T06:21:46.000Z</time>
      </trkpt>
      <trkpt lat="44.52137" lon="4.2816">
        <ele>301</ele>
        <time>2018-06-03T06:21:47.000Z</time>
      </trkpt>
      <trkpt lat="44.52135" lon="4.28157">
        <ele>301</ele>
        <time>2018-06-03T06:21:48.000Z</time>
      </trkpt>
      <trkpt lat="44.52132" lon="4.28154">
        <ele>301</ele>
        <time>2018-06-03T06:21:49.000Z</time>
      </trkpt>
      <trkpt lat="44.5213" lon="4.28151">
        <ele>301</ele>
        <time>2018-06-03T06:21:50.000Z</time>
      </trkpt>
      <trkpt lat="44.52127" lon="4.28149">
        <ele>301</ele>
        <time>2018-06-03T06:21:51.000Z</time>
      </trkpt>
      <trkpt lat="44.52125" lon="4.28146">
        <ele>301</ele>
        <time>2018-06-03T06:21:52.000Z</time>
      </trkpt>
      <trkpt lat="44.52124" lon="4.28142">
        <ele>301</ele>
        <time>2018-06-03T06:21:53.000Z</time>
      </trkpt>
      <trkpt lat="44.52124" lon="4.28138">
        <ele>302</ele>
        <time>2018-06-03T06:21:54.000Z</time>
      </trkpt>
      <trkpt lat="44.52124" lon="4.28135">
        <ele>302</ele>
        <time>2018-06-03T06:21:55.000Z</time>
      </trkpt>
      <trkpt lat="44.52125" lon="4.28132">
        <ele>302</ele>
        <time>2018-06-03T06:21:56.000Z</time>
      </trkpt>
      <trkpt lat="44.52127" lon="4.28129">
        <ele>302</ele>
        <time>2018-06-03T06:21:57.000Z</time>
      </trkpt>
      <trkpt lat="44.52129" lon="4.28126">
        <ele>302</ele>
        <time>2018-06-03T06:21:58.000Z</time>
      </trkpt>
      <trkpt lat="44.52131" lon="4.28123">
        <ele>302</ele>
        <time>2018-06-03T06:21:59.000Z</time>
      </trkpt>
      <trkpt lat="44.52132" lon="4.2812">
        <ele>302</ele>
        <time>2018-06-03T06:22:00.000Z</time>
      </trkpt>
      <trkpt lat="44.52133" lon="4.28117">
        <ele>303</ele>
        <time>2018-06-03T06:22:01.000Z</time>
      </trkpt>
      <trkpt lat="44.52134" lon="4.28114">
        <ele>303</ele>
        <time>2018-06-03T06:22:02.000Z</time>
      </trkpt>
      <trkpt lat="44.52135" lon="4.28112">
        <ele>303</ele>
        <time>2018-06-03T06:22:03.000Z</time>
      </trkpt>
      <trkpt lat="44.52137" lon="4.28109">
        <ele>303</ele>
        <time>2018-06-03T06:22:04.000Z</time>
      </trkpt>
      <trkpt lat="44.52138" lon="4.28107">
        <ele>303</ele>
        <time>2018-06-03T06:22:05.000Z</time>
      </trkpt>
      <trkpt lat="44.52139" lon="4.28104">
        <ele>303</ele>
        <time>2018-06-03T06:22:06.000Z</time>
      </trkpt>
      <trkpt lat="44.5214" lon="4.28101">
        <ele>304</ele>
        <time>2018-06-03T06:22:07.000Z</time>
      </trkpt>
      <trkpt lat="44.52142" lon="4.28099">
        <ele>304</ele>
        <time>2018-06-03T06:22:08.000Z</time>
      </trkpt>
      <trkpt lat="44.52143" lon="4.28097">
        <ele>304</ele>
        <time>2018-06-03T06:22:09.000Z</time>
      </trkpt>
      <trkpt lat="44.52145" lon="4.28094">
        <ele>304</ele>
        <time>2018-06-03T06:22:10.000Z</time>
      </trkpt>
      <trkpt lat="44.52146" lon="4.28091">
        <ele>304</ele>
        <time>2018-06-03T06:22:11.000Z</time>
      </trkpt>
      <trkpt lat="44.52148" lon="4.28089">
        <ele>305</ele>
        <time>2018-06-03T06:22:12.000Z</time>
      </trkpt>
      <trkpt lat="44.5215" lon="4.28086">
        <ele>305</ele>
        <time>2018-06-03T06:22:13.000Z</time>
      </trkpt>
      <trkpt lat="44.52151" lon="4.28083">
        <ele>306</ele>
        <time>2018-06-03T06:22:14.000Z</time>
      </trkpt>
      <trkpt lat="44.52153" lon="4.28081">
        <ele>306</ele>
        <time>2018-06-03T06:22:15.000Z</time>
      </trkpt>
      <trkpt lat="44.52154" lon="4.28079">
        <ele>306</ele>
        <time>2018-06-03T06:22:16.000Z</time>
      </trkpt>
      <trkpt lat="44.52156" lon="4.28077">
        <ele>306</ele>
        <time>2018-06-03T06:22:17.000Z</time>
      </trkpt>
      <trkpt lat="44.52158" lon="4.28075">
        <ele>306</ele>
        <time>2018-06-03T06:22:18.000Z</time>
      </trkpt>
      <trkpt lat="44.5216" lon="4.28073">
        <ele>306</ele>
        <time>2018-06-03T06:22:19.000Z</time>
      </trkpt>
      <trkpt lat="44.52162" lon="4.28069">
        <ele>306</ele>
        <time>2018-06-03T06:22:20.000Z</time>
      </trkpt>
      <trkpt lat="44.52164" lon="4.28066">
        <ele>306</ele>
        <time>2018-06-03T06:22:21.000Z</time>
      </trkpt>
      <trkpt lat="44.52166" lon="4.28063">
        <ele>306</ele>
        <time>2018-06-03T06:22:22.000Z</time>
      </trkpt>
      <trkpt lat="44.52168" lon="4.28059">
        <ele>307</ele>
        <time>2018-06-03T06:22:23.000Z</time>
      </trkpt>
      <trkpt lat="44.5217" lon="4.28056">
        <ele>307</ele>
        <time>2018-06-03T06:22:24.000Z</time>
      </trkpt>
      <trkpt lat="44.52172" lon="4.28053">
        <ele>307</ele>
        <time>2018-06-03T06:22:25.000Z</time>
      </trkpt>
      <trkpt lat="44.52175" lon="4.2805">
        <ele>307</ele>
        <time>2018-06-03T06:22:26.000Z</time>
      </trkpt>
      <trkpt lat="44.52177" lon="4.28048">
        <ele>307</ele>
        <time>2018-06-03T06:22:27.000Z</time>
      </trkpt>
      <trkpt lat="44.5218" lon="4.28046">
        <ele>307</ele>
        <time>2018-06-03T06:22:28.000Z</time>
      </trkpt>
      <trkpt lat="44.52182" lon="4.28043">
        <ele>307</ele>
        <time>2018-06-03T06:22:29.000Z</time>
      </trkpt>
      <trkpt lat="44.52184" lon="4.2804">
        <ele>307</ele>
        <time>2018-06-03T06:22:30.000Z</time>
      </trkpt>
      <trkpt lat="44.52186" lon="4.28037">
        <ele>307</ele>
        <time>2018-06-03T06:22:31.000Z</time>
      </trkpt>
      <trkpt lat="44.52189" lon="4.28034">
        <ele>307</ele>
        <time>2018-06-03T06:22:32.000Z</time>
      </trkpt>
      <trkpt lat="44.52191" lon="4.2803">
        <ele>307</ele>
        <time>2018-06-03T06:22:33.000Z</time>
      </trkpt>
      <trkpt lat="44.52193" lon="4.28027">
        <ele>307</ele>
        <time>2018-06-03T06:22:34.000Z</time>
      </trkpt>
      <trkpt lat="44.52194" lon="4.28024">
        <ele>307</ele>
        <time>2018-06-03T06:22:35.000Z</time>
      </trkpt>
      <trkpt lat="44.52195" lon="4.28021">
        <ele>307</ele>
        <time>2018-06-03T06:22:36.000Z</time>
      </trkpt>
      <trkpt lat="44.52197" lon="4.28018">
        <ele>307</ele>
        <time>2018-06-03T06:22:37.000Z</time>
      </trkpt>
      <trkpt lat="44.52198" lon="4.28015">
        <ele>307</ele>
        <time>2018-06-03T06:22:38.000Z</time>
      </trkpt>
      <trkpt lat="44.522" lon="4.28012">
        <ele>307</ele>
        <time>2018-06-03T06:22:39.000Z</time>
      </trkpt>
      <trkpt lat="44.52202" lon="4.2801">
        <ele>307</ele>
        <time>2018-06-03T06:22:40.000Z</time>
      </trkpt>
      <trkpt lat="44.52204" lon="4.28007">
        <ele>307</ele>
        <time>2018-06-03T06:22:41.000Z</time>
      </trkpt>
      <trkpt lat="44.52207" lon="4.28004">
        <ele>307</ele>
        <time>2018-06-03T06:22:42.000Z</time>
      </trkpt>
      <trkpt lat="44.52209" lon="4.28001">
        <ele>307</ele>
        <time>2018-06-03T06:22:43.000Z</time>
      </trkpt>
      <trkpt lat="44.52211" lon="4.27997">
        <ele>306</ele>
        <time>2018-06-03T06:22:44.000Z</time>
      </trkpt>
      <trkpt lat="44.52214" lon="4.27993">
        <ele>306</ele>
        <time>2018-06-03T06:22:45.000Z</time>
      </trkpt>
      <trkpt lat="44.52216" lon="4.2799">
        <ele>306</ele>
        <time>2018-06-03T06:22:46.000Z</time>
      </trkpt>
      <trkpt lat="44.52219" lon="4.27986">
        <ele>306</ele>
        <time>2018-06-03T06:22:47.000Z</time>
      </trkpt>
      <trkpt lat="44.52222" lon="4.27982">
        <ele>306</ele>
        <time>2018-06-03T06:22:48.000Z</time>
      </trkpt>
      <trkpt lat="44.52225" lon="4.27979">
        <ele>306</ele>
        <time>2018-06-03T06:22:49.000Z</time>
      </trkpt>
      <trkpt lat="44.52228" lon="4.27976">
        <ele>306</ele>
        <time>2018-06-03T06:22:50.000Z</time>
      </trkpt>
      <trkpt lat="44.52231" lon="4.27973">
        <ele>306</ele>
        <time>2018-06-03T06:22:51.000Z</time>
      </trkpt>
      <trkpt lat="44.52234" lon="4.27971">
        <ele>306</ele>
        <time>2018-06-03T06:22:52.000Z</time>
      </trkpt>
      <trkpt lat="44.52237" lon="4.27969">
        <ele>306</ele>
        <time>2018-06-03T06:22:53.000Z</time>
      </trkpt>
      <trkpt lat="44.52241" lon="4.27967">
        <ele>306</ele>
        <time>2018-06-03T06:22:54.000Z</time>
      </trkpt>
      <trkpt lat="44.52244" lon="4.27965">
        <ele>306</ele>
        <time>2018-06-03T06:22:55.000Z</time>
      </trkpt>
      <trkpt lat="44.52247" lon="4.27964">
        <ele>306</ele>
        <time>2018-06-03T06:22:56.000Z</time>
      </trkpt>
      <trkpt lat="44.5225" lon="4.27963">
        <ele>308</ele>
        <time>2018-06-03T06:22:57.000Z</time>
      </trkpt>
      <trkpt lat="44.52254" lon="4.27962">
        <ele>308</ele>
        <time>2018-06-03T06:22:58.000Z</time>
      </trkpt>
      <trkpt lat="44.52257" lon="4.27961">
        <ele>309</ele>
        <time>2018-06-03T06:22:59.000Z</time>
      </trkpt>
      <trkpt lat="44.5226" lon="4.2796">
        <ele>309</ele>
        <time>2018-06-03T06:23:00.000Z</time>
      </trkpt>
      <trkpt lat="44.52264" lon="4.27959">
        <ele>309</ele>
        <time>2018-06-03T06:23:01.000Z</time>
      </trkpt>
      <trkpt lat="44.52267" lon="4.27958">
        <ele>309</ele>
        <time>2018-06-03T06:23:02.000Z</time>
      </trkpt>
      <trkpt lat="44.52271" lon="4.27957">
        <ele>309</ele>
        <time>2018-06-03T06:23:03.000Z</time>
      </trkpt>
      <trkpt lat="44.52274" lon="4.27955">
        <ele>309</ele>
        <time>2018-06-03T06:23:04.000Z</time>
      </trkpt>
      <trkpt lat="44.52278" lon="4.27954">
        <ele>309</ele>
        <time>2018-06-03T06:23:05.000Z</time>
      </trkpt>
      <trkpt lat="44.52281" lon="4.27954">
        <ele>309</ele>
        <time>2018-06-03T06:23:06.000Z</time>
      </trkpt>
      <trkpt lat="44.52285" lon="4.27953">
        <ele>309</ele>
        <time>2018-06-03T06:23:07.000Z</time>
      </trkpt>
      <trkpt lat="44.52289" lon="4.27953">
        <ele>309</ele>
        <time>2018-06-03T06:23:08.000Z</time>
      </trkpt>
      <trkpt lat="44.52292" lon="4.27953">
        <ele>310</ele>
        <time>2018-06-03T06:23:09.000Z</time>
      </trkpt>
      <trkpt lat="44.52296" lon="4.27953">
        <ele>310</ele>
        <time>2018-06-03T06:23:10.000Z</time>
      </trkpt>
      <trkpt lat="44.523" lon="4.27952">
        <ele>310</ele>
        <time>2018-06-03T06:23:11.000Z</time>
      </trkpt>
      <trkpt lat="44.52304" lon="4.27952">
        <ele>310</ele>
        <time>2018-06-03T06:23:12.000Z</time>
      </trkpt>
      <trkpt lat="44.52308" lon="4.27952">
        <ele>310</ele>
        <time>2018-06-03T06:23:13.000Z</time>
      </trkpt>
      <trkpt lat="44.52312" lon="4.27952">
        <ele>310</ele>
        <time>2018-06-03T06:23:14.000Z</time>
      </trkpt>
      <trkpt lat="44.52317" lon="4.27952">
        <ele>311</ele>
        <time>2018-06-03T06:23:15.000Z</time>
      </trkpt>
      <trkpt lat="44.52321" lon="4.27952">
        <ele>311</ele>
        <time>2018-06-03T06:23:16.000Z</time>
      </trkpt>
      <trkpt lat="44.52325" lon="4.27952">
        <ele>311</ele>
        <time>2018-06-03T06:23:17.000Z</time>
      </trkpt>
      <trkpt lat="44.52329" lon="4.27951">
        <ele>311</ele>
        <time>2018-06-03T06:23:18.000Z</time>
      </trkpt>
      <trkpt lat="44.52334" lon="4.2795">
        <ele>312</ele>
        <time>2018-06-03T06:23:19.000Z</time>
      </trkpt>
      <trkpt lat="44.52338" lon="4.2795">
        <ele>312</ele>
        <time>2018-06-03T06:23:20.000Z</time>
      </trkpt>
      <trkpt lat="44.52342" lon="4.2795">
        <ele>312</ele>
        <time>2018-06-03T06:23:21.000Z</time>
      </trkpt>
      <trkpt lat="44.52346" lon="4.27949">
        <ele>312</ele>
        <time>2018-06-03T06:23:22.000Z</time>
      </trkpt>
      <trkpt lat="44.5235" lon="4.27948">
        <ele>312</ele>
        <time>2018-06-03T06:23:23.000Z</time>
      </trkpt>
      <trkpt lat="44.52354" lon="4.27948">
        <ele>312</ele>
        <time>2018-06-03T06:23:24.000Z</time>
      </trkpt>
      <trkpt lat="44.52358" lon="4.27947">
        <ele>312</ele>
        <time>2018-06-03T06:23:25.000Z</time>
      </trkpt>
      <trkpt lat="44.52362" lon="4.27947">
        <ele>312</ele>
        <time>2018-06-03T06:23:26.000Z</time>
      </trkpt>
      <trkpt lat="44.52367" lon="4.27946">
        <ele>312</ele>
        <time>2018-06-03T06:23:27.000Z</time>
      </trkpt>
      <trkpt lat="44.52371" lon="4.27946">
        <ele>312</ele>
        <time>2018-06-03T06:23:28.000Z</time>
      </trkpt>
      <trkpt lat="44.52375" lon="4.27945">
        <ele>312</ele>
        <time>2018-06-03T06:23:29.000Z</time>
      </trkpt>
      <trkpt lat="44.52379" lon="4.27944">
        <ele>312</ele>
        <time>2018-06-03T06:23:30.000Z</time>
      </trkpt>
      <trkpt lat="44.52384" lon="4.27944">
        <ele>312</ele>
        <time>2018-06-03T06:23:31.000Z</time>
      </trkpt>
      <trkpt lat="44.52388" lon="4.27944">
        <ele>312</ele>
        <time>2018-06-03T06:23:32.000Z</time>
      </trkpt>
      <trkpt lat="44.52393" lon="4.27944">
        <ele>312</ele>
        <time>2018-06-03T06:23:33.000Z</time>
      </trkpt>
      <trkpt lat="44.52399" lon="4.27942">
        <ele>312</ele>
        <time>2018-06-03T06:23:34.000Z</time>
      </trkpt>
      <trkpt lat="44.52404" lon="4.27939">
        <ele>312</ele>
        <time>2018-06-03T06:23:35.000Z</time>
      </trkpt>
      <trkpt lat="44.52408" lon="4.27935">
        <ele>312</ele>
        <time>2018-06-03T06:23:36.000Z</time>
      </trkpt>
      <trkpt lat="44.52412" lon="4.2793">
        <ele>312</ele>
        <time>2018-06-03T06:23:37.000Z</time>
      </trkpt>
      <trkpt lat="44.52417" lon="4.27926">
        <ele>312</ele>
        <time>2018-06-03T06:23:38.000Z</time>
      </trkpt>
      <trkpt lat="44.52421" lon="4.27921">
        <ele>312</ele>
        <time>2018-06-03T06:23:39.000Z</time>
      </trkpt>
      <trkpt lat="44.52425" lon="4.27918">
        <ele>312</ele>
        <time>2018-06-03T06:23:40.000Z</time>
      </trkpt>
      <trkpt lat="44.52428" lon="4.27914">
        <ele>314</ele>
        <time>2018-06-03T06:23:41.000Z</time>
      </trkpt>
      <trkpt lat="44.52429" lon="4.27909">
        <ele>314</ele>
        <time>2018-06-03T06:23:42.000Z</time>
      </trkpt>
      <trkpt lat="44.52429" lon="4.27905">
        <ele>314</ele>
        <time>2018-06-03T06:23:43.000Z</time>
      </trkpt>
      <trkpt lat="44.52427" lon="4.279">
        <ele>314</ele>
        <time>2018-06-03T06:23:44.000Z</time>
      </trkpt>
      <trkpt lat="44.52425" lon="4.27896">
        <ele>314</ele>
        <time>2018-06-03T06:23:45.000Z</time>
      </trkpt>
      <trkpt lat="44.52423" lon="4.27892">
        <ele>314</ele>
        <time>2018-06-03T06:23:46.000Z</time>
      </trkpt>
      <trkpt lat="44.5242" lon="4.27887">
        <ele>314</ele>
        <time>2018-06-03T06:23:47.000Z</time>
      </trkpt>
      <trkpt lat="44.52419" lon="4.27883">
        <ele>314</ele>
        <time>2018-06-03T06:23:48.000Z</time>
      </trkpt>
      <trkpt lat="44.52417" lon="4.27878">
        <ele>314</ele>
        <time>2018-06-03T06:23:49.000Z</time>
      </trkpt>
      <trkpt lat="44.52414" lon="4.27873">
        <ele>314</ele>
        <time>2018-06-03T06:23:50.000Z</time>
      </trkpt>
      <trkpt lat="44.52412" lon="4.27868">
        <ele>314</ele>
        <time>2018-06-03T06:23:51.000Z</time>
      </trkpt>
      <trkpt lat="44.5241" lon="4.27864">
        <ele>314</ele>
        <time>2018-06-03T06:23:52.000Z</time>
      </trkpt>
      <trkpt lat="44.52409" lon="4.27858">
        <ele>314</ele>
        <time>2018-06-03T06:23:53.000Z</time>
      </trkpt>
      <trkpt lat="44.52407" lon="4.27853">
        <ele>314</ele>
        <time>2018-06-03T06:23:54.000Z</time>
      </trkpt>
      <trkpt lat="44.52405" lon="4.27848">
        <ele>314</ele>
        <time>2018-06-03T06:23:55.000Z</time>
      </trkpt>
      <trkpt lat="44.52403" lon="4.27843">
        <ele>314</ele>
        <time>2018-06-03T06:23:56.000Z</time>
      </trkpt>
      <trkpt lat="44.52403" lon="4.27837">
        <ele>314</ele>
        <time>2018-06-03T06:23:57.000Z</time>
      </trkpt>
      <trkpt lat="44.52403" lon="4.27832">
        <ele>314</ele>
        <time>2018-06-03T06:23:58.000Z</time>
      </trkpt>
      <trkpt lat="44.52404" lon="4.27828">
        <ele>314</ele>
        <time>2018-06-03T06:23:59.000Z</time>
      </trkpt>
      <trkpt lat="44.52407" lon="4.27824">
        <ele>314</ele>
        <time>2018-06-03T06:24:00.000Z</time>
      </trkpt>
      <trkpt lat="44.52409" lon="4.27821">
        <ele>314</ele>
        <time>2018-06-03T06:24:01.000Z</time>
      </trkpt>
      <trkpt lat="44.52412" lon="4.27817">
        <ele>314</ele>
        <time>2018-06-03T06:24:02.000Z</time>
      </trkpt>
      <trkpt lat="44.52414" lon="4.27814">
        <ele>314</ele>
        <time>2018-06-03T06:24:03.000Z</time>
      </trkpt>
      <trkpt lat="44.52417" lon="4.2781">
        <ele>316</ele>
        <time>2018-06-03T06:24:04.000Z</time>
      </trkpt>
      <trkpt lat="44.5242" lon="4.27807">
        <ele>316</ele>
        <time>2018-06-03T06:24:05.000Z</time>
      </trkpt>
      <trkpt lat="44.52423" lon="4.27804">
        <ele>316</ele>
        <time>2018-06-03T06:24:06.000Z</time>
      </trkpt>
      <trkpt lat="44.52426" lon="4.278">
        <ele>316</ele>
        <time>2018-06-03T06:24:07.000Z</time>
      </trkpt>
      <trkpt lat="44.52429" lon="4.27797">
        <ele>316</ele>
        <time>2018-06-03T06:24:08.000Z</time>
      </trkpt>
      <trkpt lat="44.52432" lon="4.27794">
        <ele>316</ele>
        <time>2018-06-03T06:24:09.000Z</time>
      </trkpt>
      <trkpt lat="44.52434" lon="4.2779">
        <ele>316</ele>
        <time>2018-06-03T06:24:10.000Z</time>
      </trkpt>
      <trkpt lat="44.52437" lon="4.27785">
        <ele>316</ele>
        <time>2018-06-03T06:24:11.000Z</time>
      </trkpt>
      <trkpt lat="44.52438" lon="4.2778">
        <ele>316</ele>
        <time>2018-06-03T06:24:12.000Z</time>
      </trkpt>
      <trkpt lat="44.52439" lon="4.27775">
        <ele>316</ele>
        <time>2018-06-03T06:24:13.000Z</time>
      </trkpt>
      <trkpt lat="44.5244" lon="4.27769">
        <ele>316</ele>
        <time>2018-06-03T06:24:14.000Z</time>
      </trkpt>
      <trkpt lat="44.5244" lon="4.27762">
        <ele>316</ele>
        <time>2018-06-03T06:24:15.000Z</time>
      </trkpt>
      <trkpt lat="44.5244" lon="4.27756">
        <ele>316</ele>
        <time>2018-06-03T06:24:16.000Z</time>
      </trkpt>
      <trkpt lat="44.5244" lon="4.2775">
        <ele>316</ele>
        <time>2018-06-03T06:24:17.000Z</time>
      </trkpt>
      <trkpt lat="44.52438" lon="4.27745">
        <ele>316</ele>
        <time>2018-06-03T06:24:18.000Z</time>
      </trkpt>
      <trkpt lat="44.52436" lon="4.2774">
        <ele>316</ele>
        <time>2018-06-03T06:24:19.000Z</time>
      </trkpt>
      <trkpt lat="44.52434" lon="4.27735">
        <ele>316</ele>
        <time>2018-06-03T06:24:20.000Z</time>
      </trkpt>
      <trkpt lat="44.52433" lon="4.2773">
        <ele>316</ele>
        <time>2018-06-03T06:24:21.000Z</time>
      </trkpt>
      <trkpt lat="44.52431" lon="4.27724">
        <ele>316</ele>
        <time>2018-06-03T06:24:22.000Z</time>
      </trkpt>
      <trkpt lat="44.5243" lon="4.27718">
        <ele>316</ele>
        <time>2018-06-03T06:24:23.000Z</time>
      </trkpt>
      <trkpt lat="44.52428" lon="4.27712">
        <ele>316</ele>
        <time>2018-06-03T06:24:24.000Z</time>
      </trkpt>
      <trkpt lat="44.52425" lon="4.27706">
        <ele>316</ele>
        <time>2018-06-03T06:24:25.000Z</time>
      </trkpt>
      <trkpt lat="44.52422" lon="4.277">
        <ele>316</ele>
        <time>2018-06-03T06:24:26.000Z</time>
      </trkpt>
      <trkpt lat="44.5242" lon="4.27693">
        <ele>315</ele>
        <time>2018-06-03T06:24:27.000Z</time>
      </trkpt>
      <trkpt lat="44.52419" lon="4.27686">
        <ele>315</ele>
        <time>2018-06-03T06:24:28.000Z</time>
      </trkpt>
      <trkpt lat="44.52417" lon="4.27679">
        <ele>312</ele>
        <time>2018-06-03T06:24:29.000Z</time>
      </trkpt>
      <trkpt lat="44.52414" lon="4.27672">
        <ele>313</ele>
        <time>2018-06-03T06:24:30.000Z</time>
      </trkpt>
      <trkpt lat="44.52411" lon="4.27664">
        <ele>312</ele>
        <time>2018-06-03T06:24:31.000Z</time>
      </trkpt>
      <trkpt lat="44.52408" lon="4.27656">
        <ele>310</ele>
        <time>2018-06-03T06:24:32.000Z</time>
      </trkpt>
      <trkpt lat="44.52405" lon="4.2765">
        <ele>310</ele>
        <time>2018-06-03T06:24:33.000Z</time>
      </trkpt>
      <trkpt lat="44.52403" lon="4.27645">
        <ele>309</ele>
        <time>2018-06-03T06:24:34.000Z</time>
      </trkpt>
      <trkpt lat="44.52401" lon="4.27639">
        <ele>309</ele>
        <time>2018-06-03T06:24:35.000Z</time>
      </trkpt>
      <trkpt lat="44.52398" lon="4.27632">
        <ele>308</ele>
        <time>2018-06-03T06:24:36.000Z</time>
      </trkpt>
      <trkpt lat="44.52396" lon="4.27624">
        <ele>308</ele>
        <time>2018-06-03T06:24:37.000Z</time>
      </trkpt>
      <trkpt lat="44.52393" lon="4.27615">
        <ele>307</ele>
        <time>2018-06-03T06:24:38.000Z</time>
      </trkpt>
      <trkpt lat="44.52391" lon="4.27607">
        <ele>307</ele>
        <time>2018-06-03T06:24:39.000Z</time>
      </trkpt>
      <trkpt lat="44.52387" lon="4.276">
        <ele>307</ele>
        <time>2018-06-03T06:24:40.000Z</time>
      </trkpt>
      <trkpt lat="44.52386" lon="4.27595">
        <ele>307</ele>
        <time>2018-06-03T06:24:41.000Z</time>
      </trkpt>
      <trkpt lat="44.52386" lon="4.27591">
        <ele>307</ele>
        <time>2018-06-03T06:24:42.000Z</time>
      </trkpt>
      <trkpt lat="44.52389" lon="4.27588">
        <ele>307</ele>
        <time>2018-06-03T06:24:43.000Z</time>
      </trkpt>
      <trkpt lat="44.52392" lon="4.27586">
        <ele>307</ele>
        <time>2018-06-03T06:24:44.000Z</time>
      </trkpt>
      <trkpt lat="44.52396" lon="4.27585">
        <ele>307</ele>
        <time>2018-06-03T06:24:45.000Z</time>
      </trkpt>
      <trkpt lat="44.52398" lon="4.27584">
        <ele>307</ele>
        <time>2018-06-03T06:24:46.000Z</time>
      </trkpt>
      <trkpt lat="44.52401" lon="4.27582">
        <ele>305</ele>
        <time>2018-06-03T06:24:47.000Z</time>
      </trkpt>
      <trkpt lat="44.52403" lon="4.27579">
        <ele>306</ele>
        <time>2018-06-03T06:24:48.000Z</time>
      </trkpt>
      <trkpt lat="44.52404" lon="4.27576">
        <ele>306</ele>
        <time>2018-06-03T06:24:49.000Z</time>
      </trkpt>
      <trkpt lat="44.52404" lon="4.27572">
        <ele>305</ele>
        <time>2018-06-03T06:24:50.000Z</time>
      </trkpt>
      <trkpt lat="44.52404" lon="4.27567">
        <ele>305</ele>
        <time>2018-06-03T06:24:51.000Z</time>
      </trkpt>
      <trkpt lat="44.52404" lon="4.27563">
        <ele>305</ele>
        <time>2018-06-03T06:24:52.000Z</time>
      </trkpt>
      <trkpt lat="44.52403" lon="4.27558">
        <ele>304</ele>
        <time>2018-06-03T06:24:53.000Z</time>
      </trkpt>
      <trkpt lat="44.52401" lon="4.27554">
        <ele>304</ele>
        <time>2018-06-03T06:24:54.000Z</time>
      </trkpt>
      <trkpt lat="44.52399" lon="4.27552">
        <ele>304</ele>
        <time>2018-06-03T06:24:55.000Z</time>
      </trkpt>
      <trkpt lat="44.52396" lon="4.27551">
        <ele>304</ele>
        <time>2018-06-03T06:24:56.000Z</time>
      </trkpt>
      <trkpt lat="44.52394" lon="4.27549">
        <ele>304</ele>
        <time>2018-06-03T06:24:57.000Z</time>
      </trkpt>
      <trkpt lat="44.52392" lon="4.27546">
        <ele>303</ele>
        <time>2018-06-03T06:24:58.000Z</time>
      </trkpt>
      <trkpt lat="44.52392" lon="4.27543">
        <ele>303</ele>
        <time>2018-06-03T06:24:59.000Z</time>
      </trkpt>
      <trkpt lat="44.52392" lon="4.27541">
        <ele>303</ele>
        <time>2018-06-03T06:25:00.000Z</time>
      </trkpt>
      <trkpt lat="44.52392" lon="4.27539">
        <ele>303</ele>
        <time>2018-06-03T06:25:01.000Z</time>
      </trkpt>
      <trkpt lat="44.52392" lon="4.27536">
        <ele>303</ele>
        <time>2018-06-03T06:25:02.000Z</time>
      </trkpt>
      <trkpt lat="44.52391" lon="4.27534">
        <ele>303</ele>
        <time>2018-06-03T06:25:03.000Z</time>
      </trkpt>
      <trkpt lat="44.52391" lon="4.27531">
        <ele>303</ele>
        <time>2018-06-03T06:25:04.000Z</time>
      </trkpt>
      <trkpt lat="44.5239" lon="4.27528">
        <ele>303</ele>
        <time>2018-06-03T06:25:05.000Z</time>
      </trkpt>
      <trkpt lat="44.5239" lon="4.27525">
        <ele>303</ele>
        <time>2018-06-03T06:25:06.000Z</time>
      </trkpt>
      <trkpt lat="44.52389" lon="4.27523">
        <ele>303</ele>
        <time>2018-06-03T06:25:07.000Z</time>
      </trkpt>
      <trkpt lat="44.52388" lon="4.2752">
        <ele>303</ele>
        <time>2018-06-03T06:25:08.000Z</time>
      </trkpt>
      <trkpt lat="44.52388" lon="4.27518">
        <ele>303</ele>
        <time>2018-06-03T06:25:09.000Z</time>
      </trkpt>
      <trkpt lat="44.52388" lon="4.27515">
        <ele>303</ele>
        <time>2018-06-03T06:25:10.000Z</time>
      </trkpt>
      <trkpt lat="44.52388" lon="4.27512">
        <ele>303</ele>
        <time>2018-06-03T06:25:11.000Z</time>
      </trkpt>
      <trkpt lat="44.52387" lon="4.27509">
        <ele>303</ele>
        <time>2018-06-03T06:25:12.000Z</time>
      </trkpt>
      <trkpt lat="44.52387" lon="4.27507">
        <ele>303</ele>
        <time>2018-06-03T06:25:13.000Z</time>
      </trkpt>
      <trkpt lat="44.52387" lon="4.27504">
        <ele>303</ele>
        <time>2018-06-03T06:25:14.000Z</time>
      </trkpt>
      <trkpt lat="44.52386" lon="4.27501">
        <ele>303</ele>
        <time>2018-06-03T06:25:15.000Z</time>
      </trkpt>
      <trkpt lat="44.52387" lon="4.27498">
        <ele>303</ele>
        <time>2018-06-03T06:25:16.000Z</time>
      </trkpt>
      <trkpt lat="44.52388" lon="4.27495">
        <ele>303</ele>
        <time>2018-06-03T06:25:17.000Z</time>
      </trkpt>
      <trkpt lat="44.52389" lon="4.27492">
        <ele>303</ele>
        <time>2018-06-03T06:25:18.000Z</time>
      </trkpt>
      <trkpt lat="44.5239" lon="4.2749">
        <ele>303</ele>
        <time>2018-06-03T06:25:19.000Z</time>
      </trkpt>
      <trkpt lat="44.52392" lon="4.27488">
        <ele>303</ele>
        <time>2018-06-03T06:25:20.000Z</time>
      </trkpt>
      <trkpt lat="44.52393" lon="4.27485">
        <ele>303</ele>
        <time>2018-06-03T06:25:21.000Z</time>
      </trkpt>
      <trkpt lat="44.52395" lon="4.27484">
        <ele>303</ele>
        <time>2018-06-03T06:25:22.000Z</time>
      </trkpt>
      <trkpt lat="44.52397" lon="4.27482">
        <ele>303</ele>
        <time>2018-06-03T06:25:23.000Z</time>
      </trkpt>
      <trkpt lat="44.52398" lon="4.2748">
        <ele>303</ele>
        <time>2018-06-03T06:25:24.000Z</time>
      </trkpt>
      <trkpt lat="44.524" lon="4.27478">
        <ele>303</ele>
        <time>2018-06-03T06:25:25.000Z</time>
      </trkpt>
      <trkpt lat="44.52402" lon="4.27476">
        <ele>303</ele>
        <time>2018-06-03T06:25:26.000Z</time>
      </trkpt>
      <trkpt lat="44.52402" lon="4.27473">
        <ele>303</ele>
        <time>2018-06-03T06:25:27.000Z</time>
      </trkpt>
      <trkpt lat="44.52403" lon="4.27471">
        <ele>303</ele>
        <time>2018-06-03T06:25:28.000Z</time>
      </trkpt>
      <trkpt lat="44.52403" lon="4.27469">
        <ele>303</ele>
        <time>2018-06-03T06:25:29.000Z</time>
      </trkpt>
      <trkpt lat="44.52404" lon="4.27467">
        <ele>303</ele>
        <time>2018-06-03T06:25:30.000Z</time>
      </trkpt>
      <trkpt lat="44.52404" lon="4.27465">
        <ele>303</ele>
        <time>2018-06-03T06:25:31.000Z</time>
      </trkpt>
      <trkpt lat="44.52404" lon="4.27463">
        <ele>303</ele>
        <time>2018-06-03T06:25:32.000Z</time>
      </trkpt>
      <trkpt lat="44.52405" lon="4.27461">
        <ele>303</ele>
        <time>2018-06-03T06:25:33.000Z</time>
      </trkpt>
      <trkpt lat="44.52405" lon="4.27458">
        <ele>303</ele>
        <time>2018-06-03T06:25:34.000Z</time>
      </trkpt>
      <trkpt lat="44.52405" lon="4.27456">
        <ele>303</ele>
        <time>2018-06-03T06:25:35.000Z</time>
      </trkpt>
      <trkpt lat="44.52405" lon="4.27453">
        <ele>303</ele>
        <time>2018-06-03T06:25:36.000Z</time>
      </trkpt>
      <trkpt lat="44.52405" lon="4.27449">
        <ele>303</ele>
        <time>2018-06-03T06:25:37.000Z</time>
      </trkpt>
      <trkpt lat="44.52405" lon="4.27446">
        <ele>304</ele>
        <time>2018-06-03T06:25:38.000Z</time>
      </trkpt>
      <trkpt lat="44.52405" lon="4.27443">
        <ele>304</ele>
        <time>2018-06-03T06:25:39.000Z</time>
      </trkpt>
      <trkpt lat="44.52404" lon="4.27439">
        <ele>304</ele>
        <time>2018-06-03T06:25:40.000Z</time>
      </trkpt>
      <trkpt lat="44.52403" lon="4.27437">
        <ele>304</ele>
        <time>2018-06-03T06:25:41.000Z</time>
      </trkpt>
      <trkpt lat="44.52403" lon="4.27437">
        <ele>304</ele>
        <time>2018-06-03T06:25:42.000Z</time>
      </trkpt>
      <trkpt lat="44.52402" lon="4.27437">
        <ele>304</ele>
        <time>2018-06-03T06:25:43.000Z</time>
      </trkpt>
      <trkpt lat="44.524" lon="4.27439">
        <ele>304</ele>
        <time>2018-06-03T06:25:44.000Z</time>
      </trkpt>
      <trkpt lat="44.52398" lon="4.2744">
        <ele>303</ele>
        <time>2018-06-03T06:25:45.000Z</time>
      </trkpt>
      <trkpt lat="44.52395" lon="4.27441">
        <ele>303</ele>
        <time>2018-06-03T06:25:46.000Z</time>
      </trkpt>
      <trkpt lat="44.52391" lon="4.27442">
        <ele>303</ele>
        <time>2018-06-03T06:25:47.000Z</time>
      </trkpt>
      <trkpt lat="44.52387" lon="4.27443">
        <ele>303</ele>
        <time>2018-06-03T06:25:48.000Z</time>
      </trkpt>
      <trkpt lat="44.52383" lon="4.27444">
        <ele>302</ele>
        <time>2018-06-03T06:25:49.000Z</time>
      </trkpt>
      <trkpt lat="44.52378" lon="4.27444">
        <ele>302</ele>
        <time>2018-06-03T06:25:50.000Z</time>
      </trkpt>
      <trkpt lat="44.52375" lon="4.27444">
        <ele>302</ele>
        <time>2018-06-03T06:25:51.000Z</time>
      </trkpt>
      <trkpt lat="44.52373" lon="4.27447">
        <ele>302</ele>
        <time>2018-06-03T06:25:52.000Z</time>
      </trkpt>
      <trkpt lat="44.5237" lon="4.27449">
        <ele>302</ele>
        <time>2018-06-03T06:25:53.000Z</time>
      </trkpt>
      <trkpt lat="44.52367" lon="4.27452">
        <ele>301</ele>
        <time>2018-06-03T06:25:54.000Z</time>
      </trkpt>
      <trkpt lat="44.52363" lon="4.27453">
        <ele>301</ele>
        <time>2018-06-03T06:25:55.000Z</time>
      </trkpt>
      <trkpt lat="44.52359" lon="4.27454">
        <ele>301</ele>
        <time>2018-06-03T06:25:56.000Z</time>
      </trkpt>
      <trkpt lat="44.52353" lon="4.27454">
        <ele>301</ele>
        <time>2018-06-03T06:25:57.000Z</time>
      </trkpt>
      <trkpt lat="44.52347" lon="4.27454">
        <ele>300</ele>
        <time>2018-06-03T06:25:58.000Z</time>
      </trkpt>
      <trkpt lat="44.52342" lon="4.27455">
        <ele>300</ele>
        <time>2018-06-03T06:25:59.000Z</time>
      </trkpt>
      <trkpt lat="44.52336" lon="4.27456">
        <ele>300</ele>
        <time>2018-06-03T06:26:00.000Z</time>
      </trkpt>
      <trkpt lat="44.52332" lon="4.27458">
        <ele>298</ele>
        <time>2018-06-03T06:26:01.000Z</time>
      </trkpt>
      <trkpt lat="44.52328" lon="4.27459">
        <ele>298</ele>
        <time>2018-06-03T06:26:02.000Z</time>
      </trkpt>
      <trkpt lat="44.52324" lon="4.27458">
        <ele>298</ele>
        <time>2018-06-03T06:26:03.000Z</time>
      </trkpt>
      <trkpt lat="44.52322" lon="4.27456">
        <ele>298</ele>
        <time>2018-06-03T06:26:04.000Z</time>
      </trkpt>
      <trkpt lat="44.5232" lon="4.27453">
        <ele>298</ele>
        <time>2018-06-03T06:26:05.000Z</time>
      </trkpt>
      <trkpt lat="44.52318" lon="4.27449">
        <ele>298</ele>
        <time>2018-06-03T06:26:06.000Z</time>
      </trkpt>
      <trkpt lat="44.52316" lon="4.27445">
        <ele>298</ele>
        <time>2018-06-03T06:26:07.000Z</time>
      </trkpt>
      <trkpt lat="44.52313" lon="4.27443">
        <ele>298</ele>
        <time>2018-06-03T06:26:08.000Z</time>
      </trkpt>
      <trkpt lat="44.52311" lon="4.27441">
        <ele>298</ele>
        <time>2018-06-03T06:26:09.000Z</time>
      </trkpt>
      <trkpt lat="44.52308" lon="4.27442">
        <ele>298</ele>
        <time>2018-06-03T06:26:10.000Z</time>
      </trkpt>
      <trkpt lat="44.52305" lon="4.27444">
        <ele>298</ele>
        <time>2018-06-03T06:26:11.000Z</time>
      </trkpt>
      <trkpt lat="44.52302" lon="4.27446">
        <ele>298</ele>
        <time>2018-06-03T06:26:12.000Z</time>
      </trkpt>
      <trkpt lat="44.523" lon="4.27448">
        <ele>298</ele>
        <time>2018-06-03T06:26:13.000Z</time>
      </trkpt>
      <trkpt lat="44.52298" lon="4.27449">
        <ele>298</ele>
        <time>2018-06-03T06:26:14.000Z</time>
      </trkpt>
      <trkpt lat="44.52296" lon="4.2745">
        <ele>298</ele>
        <time>2018-06-03T06:26:15.000Z</time>
      </trkpt>
      <trkpt lat="44.52294" lon="4.27451">
        <ele>298</ele>
        <time>2018-06-03T06:26:16.000Z</time>
      </trkpt>
      <trkpt lat="44.52293" lon="4.27453">
        <ele>298</ele>
        <time>2018-06-03T06:26:17.000Z</time>
      </trkpt>
      <trkpt lat="44.52291" lon="4.27456">
        <ele>298</ele>
        <time>2018-06-03T06:26:18.000Z</time>
      </trkpt>
      <trkpt lat="44.52289" lon="4.27458">
        <ele>298</ele>
        <time>2018-06-03T06:26:19.000Z</time>
      </trkpt>
      <trkpt lat="44.52287" lon="4.2746">
        <ele>298</ele>
        <time>2018-06-03T06:26:20.000Z</time>
      </trkpt>
      <trkpt lat="44.52285" lon="4.27461">
        <ele>298</ele>
        <time>2018-06-03T06:26:21.000Z</time>
      </trkpt>
      <trkpt lat="44.52283" lon="4.27461">
        <ele>298</ele>
        <time>2018-06-03T06:26:22.000Z</time>
      </trkpt>
      <trkpt lat="44.52281" lon="4.27462">
        <ele>298</ele>
        <time>2018-06-03T06:26:23.000Z</time>
      </trkpt>
      <trkpt lat="44.52279" lon="4.27463">
        <ele>298</ele>
        <time>2018-06-03T06:26:24.000Z</time>
      </trkpt>
      <trkpt lat="44.52277" lon="4.27463">
        <ele>298</ele>
        <time>2018-06-03T06:26:25.000Z</time>
      </trkpt>
      <trkpt lat="44.52275" lon="4.27463">
        <ele>298</ele>
        <time>2018-06-03T06:26:26.000Z</time>
      </trkpt>
      <trkpt lat="44.52273" lon="4.27463">
        <ele>298</ele>
        <time>2018-06-03T06:26:27.000Z</time>
      </trkpt>
      <trkpt lat="44.52271" lon="4.27463">
        <ele>298</ele>
        <time>2018-06-03T06:26:28.000Z</time>
      </trkpt>
      <trkpt lat="44.5227" lon="4.27462">
        <ele>298</ele>
        <time>2018-06-03T06:26:29.000Z</time>
      </trkpt>
      <trkpt lat="44.52269" lon="4.27461">
        <ele>298</ele>
        <time>2018-06-03T06:26:30.000Z</time>
      </trkpt>
      <trkpt lat="44.52269" lon="4.2746">
        <ele>298</ele>
        <time>2018-06-03T06:26:31.000Z</time>
      </trkpt>
      <trkpt lat="44.52269" lon="4.27459">
        <ele>299</ele>
        <time>2018-06-03T06:26:32.000Z</time>
      </trkpt>
      <trkpt lat="44.52268" lon="4.27458">
        <ele>299</ele>
        <time>2018-06-03T06:26:33.000Z</time>
      </trkpt>
      <trkpt lat="44.52267" lon="4.27456">
        <ele>299</ele>
        <time>2018-06-03T06:26:34.000Z</time>
      </trkpt>
      <trkpt lat="44.52266" lon="4.27454">
        <ele>299</ele>
        <time>2018-06-03T06:26:35.000Z</time>
      </trkpt>
      <trkpt lat="44.52265" lon="4.27452">
        <ele>299</ele>
        <time>2018-06-03T06:26:36.000Z</time>
      </trkpt>
      <trkpt lat="44.52264" lon="4.27451">
        <ele>299</ele>
        <time>2018-06-03T06:26:37.000Z</time>
      </trkpt>
      <trkpt lat="44.52263" lon="4.27449">
        <ele>299</ele>
        <time>2018-06-03T06:26:38.000Z</time>
      </trkpt>
      <trkpt lat="44.52261" lon="4.27447">
        <ele>299</ele>
        <time>2018-06-03T06:26:39.000Z</time>
      </trkpt>
      <trkpt lat="44.52259" lon="4.27446">
        <ele>299</ele>
        <time>2018-06-03T06:26:40.000Z</time>
      </trkpt>
      <trkpt lat="44.52258" lon="4.27446">
        <ele>299</ele>
        <time>2018-06-03T06:26:41.000Z</time>
      </trkpt>
      <trkpt lat="44.52257" lon="4.27445">
        <ele>300</ele>
        <time>2018-06-03T06:26:42.000Z</time>
      </trkpt>
      <trkpt lat="44.52255" lon="4.27444">
        <ele>300</ele>
        <time>2018-06-03T06:26:43.000Z</time>
      </trkpt>
      <trkpt lat="44.52253" lon="4.27442">
        <ele>300</ele>
        <time>2018-06-03T06:26:44.000Z</time>
      </trkpt>
      <trkpt lat="44.52251" lon="4.27439">
        <ele>300</ele>
        <time>2018-06-03T06:26:45.000Z</time>
      </trkpt>
      <trkpt lat="44.52249" lon="4.27436">
        <ele>301</ele>
        <time>2018-06-03T06:26:46.000Z</time>
      </trkpt>
      <trkpt lat="44.52247" lon="4.27433">
        <ele>301</ele>
        <time>2018-06-03T06:26:47.000Z</time>
      </trkpt>
      <trkpt lat="44.52246" lon="4.27431">
        <ele>301</ele>
        <time>2018-06-03T06:26:48.000Z</time>
      </trkpt>
      <trkpt lat="44.52244" lon="4.27429">
        <ele>301</ele>
        <time>2018-06-03T06:26:49.000Z</time>
      </trkpt>
      <trkpt lat="44.52242" lon="4.27427">
        <ele>301</ele>
        <time>2018-06-03T06:26:50.000Z</time>
      </trkpt>
      <trkpt lat="44.5224" lon="4.27425">
        <ele>301</ele>
        <time>2018-06-03T06:26:51.000Z</time>
      </trkpt>
      <trkpt lat="44.52238" lon="4.27422">
        <ele>301</ele>
        <time>2018-06-03T06:26:52.000Z</time>
      </trkpt>
      <trkpt lat="44.52235" lon="4.27418">
        <ele>301</ele>
        <time>2018-06-03T06:26:53.000Z</time>
      </trkpt>
      <trkpt lat="44.52233" lon="4.27417">
        <ele>303</ele>
        <time>2018-06-03T06:26:54.000Z</time>
      </trkpt>
      <trkpt lat="44.5223" lon="4.27416">
        <ele>303</ele>
        <time>2018-06-03T06:26:55.000Z</time>
      </trkpt>
      <trkpt lat="44.52227" lon="4.27415">
        <ele>303</ele>
        <time>2018-06-03T06:26:56.000Z</time>
      </trkpt>
      <trkpt lat="44.52225" lon="4.27415">
        <ele>303</ele>
        <time>2018-06-03T06:26:57.000Z</time>
      </trkpt>
      <trkpt lat="44.52222" lon="4.27416">
        <ele>303</ele>
        <time>2018-06-03T06:26:58.000Z</time>
      </trkpt>
      <trkpt lat="44.5222" lon="4.27417">
        <ele>301</ele>
        <time>2018-06-03T06:26:59.000Z</time>
      </trkpt>
      <trkpt lat="44.52217" lon="4.27417">
        <ele>301</ele>
        <time>2018-06-03T06:27:00.000Z</time>
      </trkpt>
      <trkpt lat="44.52215" lon="4.27415">
        <ele>303</ele>
        <time>2018-06-03T06:27:01.000Z</time>
      </trkpt>
      <trkpt lat="44.52213" lon="4.27411">
        <ele>303</ele>
        <time>2018-06-03T06:27:02.000Z</time>
      </trkpt>
      <trkpt lat="44.5221" lon="4.27408">
        <ele>303</ele>
        <time>2018-06-03T06:27:03.000Z</time>
      </trkpt>
      <trkpt lat="44.52207" lon="4.27404">
        <ele>303</ele>
        <time>2018-06-03T06:27:04.000Z</time>
      </trkpt>
      <trkpt lat="44.52204" lon="4.27401">
        <ele>303</ele>
        <time>2018-06-03T06:27:05.000Z</time>
      </trkpt>
      <trkpt lat="44.52202" lon="4.27398">
        <ele>303</ele>
        <time>2018-06-03T06:27:06.000Z</time>
      </trkpt>
      <trkpt lat="44.522" lon="4.27396">
        <ele>303</ele>
        <time>2018-06-03T06:27:07.000Z</time>
      </trkpt>
      <trkpt lat="44.52198" lon="4.27394">
        <ele>303</ele>
        <time>2018-06-03T06:27:08.000Z</time>
      </trkpt>
      <trkpt lat="44.52196" lon="4.27392">
        <ele>303</ele>
        <time>2018-06-03T06:27:09.000Z</time>
      </trkpt>
      <trkpt lat="44.52193" lon="4.2739">
        <ele>303</ele>
        <time>2018-06-03T06:27:10.000Z</time>
      </trkpt>
      <trkpt lat="44.5219" lon="4.27388">
        <ele>303</ele>
        <time>2018-06-03T06:27:11.000Z</time>
      </trkpt>
      <trkpt lat="44.52187" lon="4.27385">
        <ele>302</ele>
        <time>2018-06-03T06:27:12.000Z</time>
      </trkpt>
      <trkpt lat="44.52183" lon="4.27382">
        <ele>302</ele>
        <time>2018-06-03T06:27:13.000Z</time>
      </trkpt>
      <trkpt lat="44.52179" lon="4.27379">
        <ele>302</ele>
        <time>2018-06-03T06:27:14.000Z</time>
      </trkpt>
      <trkpt lat="44.52175" lon="4.27375">
        <ele>302</ele>
        <time>2018-06-03T06:27:15.000Z</time>
      </trkpt>
      <trkpt lat="44.52172" lon="4.27372">
        <ele>302</ele>
        <time>2018-06-03T06:27:16.000Z</time>
      </trkpt>
      <trkpt lat="44.5217" lon="4.2737">
        <ele>302</ele>
        <time>2018-06-03T06:27:17.000Z</time>
      </trkpt>
      <trkpt lat="44.52167" lon="4.27368">
        <ele>302</ele>
        <time>2018-06-03T06:27:18.000Z</time>
      </trkpt>
      <trkpt lat="44.52164" lon="4.27365">
        <ele>303</ele>
        <time>2018-06-03T06:27:19.000Z</time>
      </trkpt>
      <trkpt lat="44.52162" lon="4.27362">
        <ele>302</ele>
        <time>2018-06-03T06:27:20.000Z</time>
      </trkpt>
      <trkpt lat="44.52158" lon="4.27359">
        <ele>302</ele>
        <time>2018-06-03T06:27:21.000Z</time>
      </trkpt>
      <trkpt lat="44.52156" lon="4.27357">
        <ele>302</ele>
        <time>2018-06-03T06:27:22.000Z</time>
      </trkpt>
      <trkpt lat="44.52153" lon="4.27355">
        <ele>302</ele>
        <time>2018-06-03T06:27:23.000Z</time>
      </trkpt>
      <trkpt lat="44.52151" lon="4.27353">
        <ele>302</ele>
        <time>2018-06-03T06:27:24.000Z</time>
      </trkpt>
      <trkpt lat="44.52149" lon="4.27351">
        <ele>302</ele>
        <time>2018-06-03T06:27:25.000Z</time>
      </trkpt>
      <trkpt lat="44.52146" lon="4.27348">
        <ele>302</ele>
        <time>2018-06-03T06:27:26.000Z</time>
      </trkpt>
      <trkpt lat="44.52142" lon="4.27345">
        <ele>302</ele>
        <time>2018-06-03T06:27:27.000Z</time>
      </trkpt>
      <trkpt lat="44.52138" lon="4.27343">
        <ele>302</ele>
        <time>2018-06-03T06:27:28.000Z</time>
      </trkpt>
      <trkpt lat="44.52134" lon="4.27339">
        <ele>302</ele>
        <time>2018-06-03T06:27:29.000Z</time>
      </trkpt>
      <trkpt lat="44.5213" lon="4.27336">
        <ele>303</ele>
        <time>2018-06-03T06:27:30.000Z</time>
      </trkpt>
      <trkpt lat="44.52127" lon="4.27334">
        <ele>303</ele>
        <time>2018-06-03T06:27:31.000Z</time>
      </trkpt>
      <trkpt lat="44.52123" lon="4.27332">
        <ele>302</ele>
        <time>2018-06-03T06:27:32.000Z</time>
      </trkpt>
      <trkpt lat="44.52119" lon="4.27329">
        <ele>302</ele>
        <time>2018-06-03T06:27:33.000Z</time>
      </trkpt>
      <trkpt lat="44.52116" lon="4.27326">
        <ele>302</ele>
        <time>2018-06-03T06:27:34.000Z</time>
      </trkpt>
      <trkpt lat="44.52113" lon="4.27323">
        <ele>302</ele>
        <time>2018-06-03T06:27:35.000Z</time>
      </trkpt>
      <trkpt lat="44.52111" lon="4.27318">
        <ele>302</ele>
        <time>2018-06-03T06:27:36.000Z</time>
      </trkpt>
      <trkpt lat="44.52111" lon="4.27314">
        <ele>302</ele>
        <time>2018-06-03T06:27:37.000Z</time>
      </trkpt>
      <trkpt lat="44.52112" lon="4.27311">
        <ele>302</ele>
        <time>2018-06-03T06:27:38.000Z</time>
      </trkpt>
      <trkpt lat="44.52113" lon="4.27306">
        <ele>302</ele>
        <time>2018-06-03T06:27:39.000Z</time>
      </trkpt>
      <trkpt lat="44.52115" lon="4.27301">
        <ele>302</ele>
        <time>2018-06-03T06:27:40.000Z</time>
      </trkpt>
      <trkpt lat="44.52117" lon="4.27297">
        <ele>302</ele>
        <time>2018-06-03T06:27:41.000Z</time>
      </trkpt>
      <trkpt lat="44.52119" lon="4.27293">
        <ele>302</ele>
        <time>2018-06-03T06:27:42.000Z</time>
      </trkpt>
      <trkpt lat="44.52122" lon="4.27289">
        <ele>302</ele>
        <time>2018-06-03T06:27:43.000Z</time>
      </trkpt>
      <trkpt lat="44.52124" lon="4.27285">
        <ele>302</ele>
        <time>2018-06-03T06:27:44.000Z</time>
      </trkpt>
      <trkpt lat="44.52126" lon="4.27281">
        <ele>302</ele>
        <time>2018-06-03T06:27:45.000Z</time>
      </trkpt>
      <trkpt lat="44.52128" lon="4.27278">
        <ele>302</ele>
        <time>2018-06-03T06:27:46.000Z</time>
      </trkpt>
      <trkpt lat="44.5213" lon="4.27276">
        <ele>302</ele>
        <time>2018-06-03T06:27:47.000Z</time>
      </trkpt>
      <trkpt lat="44.52132" lon="4.27273">
        <ele>302</ele>
        <time>2018-06-03T06:27:48.000Z</time>
      </trkpt>
      <trkpt lat="44.52134" lon="4.27269">
        <ele>303</ele>
        <time>2018-06-03T06:27:49.000Z</time>
      </trkpt>
      <trkpt lat="44.52137" lon="4.27266">
        <ele>303</ele>
        <time>2018-06-03T06:27:50.000Z</time>
      </trkpt>
      <trkpt lat="44.52139" lon="4.27263">
        <ele>303</ele>
        <time>2018-06-03T06:27:51.000Z</time>
      </trkpt>
      <trkpt lat="44.52141" lon="4.27261">
        <ele>303</ele>
        <time>2018-06-03T06:27:52.000Z</time>
      </trkpt>
      <trkpt lat="44.52144" lon="4.27258">
        <ele>303</ele>
        <time>2018-06-03T06:27:53.000Z</time>
      </trkpt>
      <trkpt lat="44.52146" lon="4.27255">
        <ele>303</ele>
        <time>2018-06-03T06:27:54.000Z</time>
      </trkpt>
      <trkpt lat="44.5215" lon="4.27254">
        <ele>303</ele>
        <time>2018-06-03T06:27:55.000Z</time>
      </trkpt>
      <trkpt lat="44.52152" lon="4.27253">
        <ele>303</ele>
        <time>2018-06-03T06:27:56.000Z</time>
      </trkpt>
      <trkpt lat="44.52155" lon="4.27252">
        <ele>303</ele>
        <time>2018-06-03T06:27:57.000Z</time>
      </trkpt>
      <trkpt lat="44.52158" lon="4.27251">
        <ele>303</ele>
        <time>2018-06-03T06:27:58.000Z</time>
      </trkpt>
      <trkpt lat="44.52162" lon="4.2725">
        <ele>304</ele>
        <time>2018-06-03T06:27:59.000Z</time>
      </trkpt>
      <trkpt lat="44.52166" lon="4.27249">
        <ele>304</ele>
        <time>2018-06-03T06:28:00.000Z</time>
      </trkpt>
      <trkpt lat="44.5217" lon="4.27248">
        <ele>305</ele>
        <time>2018-06-03T06:28:01.000Z</time>
      </trkpt>
      <trkpt lat="44.52174" lon="4.27247">
        <ele>305</ele>
        <time>2018-06-03T06:28:02.000Z</time>
      </trkpt>
      <trkpt lat="44.52178" lon="4.27245">
        <ele>306</ele>
        <time>2018-06-03T06:28:03.000Z</time>
      </trkpt>
      <trkpt lat="44.52182" lon="4.27242">
        <ele>306</ele>
        <time>2018-06-03T06:28:04.000Z</time>
      </trkpt>
      <trkpt lat="44.52186" lon="4.27239">
        <ele>307</ele>
        <time>2018-06-03T06:28:05.000Z</time>
      </trkpt>
      <trkpt lat="44.5219" lon="4.27237">
        <ele>307</ele>
        <time>2018-06-03T06:28:06.000Z</time>
      </trkpt>
      <trkpt lat="44.52194" lon="4.27234">
        <ele>307</ele>
        <time>2018-06-03T06:28:07.000Z</time>
      </trkpt>
      <trkpt lat="44.52197" lon="4.27231">
        <ele>307</ele>
        <time>2018-06-03T06:28:08.000Z</time>
      </trkpt>
      <trkpt lat="44.522" lon="4.27228">
        <ele>308</ele>
        <time>2018-06-03T06:28:09.000Z</time>
      </trkpt>
      <trkpt lat="44.52203" lon="4.27225">
        <ele>308</ele>
        <time>2018-06-03T06:28:10.000Z</time>
      </trkpt>
      <trkpt lat="44.52206" lon="4.27222">
        <ele>308</ele>
        <time>2018-06-03T06:28:11.000Z</time>
      </trkpt>
      <trkpt lat="44.52209" lon="4.27219">
        <ele>308</ele>
        <time>2018-06-03T06:28:12.000Z</time>
      </trkpt>
      <trkpt lat="44.52212" lon="4.27217">
        <ele>308</ele>
        <time>2018-06-03T06:28:13.000Z</time>
      </trkpt>
      <trkpt lat="44.52215" lon="4.27214">
        <ele>309</ele>
        <time>2018-06-03T06:28:14.000Z</time>
      </trkpt>
      <trkpt lat="44.52217" lon="4.27211">
        <ele>309</ele>
        <time>2018-06-03T06:28:15.000Z</time>
      </trkpt>
      <trkpt lat="44.52219" lon="4.27209">
        <ele>309</ele>
        <time>2018-06-03T06:28:16.000Z</time>
      </trkpt>
      <trkpt lat="44.52221" lon="4.27206">
        <ele>309</ele>
        <time>2018-06-03T06:28:17.000Z</time>
      </trkpt>
      <trkpt lat="44.52223" lon="4.27203">
        <ele>309</ele>
        <time>2018-06-03T06:28:18.000Z</time>
      </trkpt>
      <trkpt lat="44.52225" lon="4.272">
        <ele>310</ele>
        <time>2018-06-03T06:28:19.000Z</time>
      </trkpt>
      <trkpt lat="44.52227" lon="4.27198">
        <ele>310</ele>
        <time>2018-06-03T06:28:20.000Z</time>
      </trkpt>
      <trkpt lat="44.52229" lon="4.27195">
        <ele>310</ele>
        <time>2018-06-03T06:28:21.000Z</time>
      </trkpt>
      <trkpt lat="44.5223" lon="4.27193">
        <ele>310</ele>
        <time>2018-06-03T06:28:22.000Z</time>
      </trkpt>
      <trkpt lat="44.52231" lon="4.2719">
        <ele>311</ele>
        <time>2018-06-03T06:28:23.000Z</time>
      </trkpt>
      <trkpt lat="44.52233" lon="4.27188">
        <ele>311</ele>
        <time>2018-06-03T06:28:24.000Z</time>
      </trkpt>
      <trkpt lat="44.52234" lon="4.27185">
        <ele>311</ele>
        <time>2018-06-03T06:28:25.000Z</time>
      </trkpt>
      <trkpt lat="44.52235" lon="4.27183">
        <ele>312</ele>
        <time>2018-06-03T06:28:26.000Z</time>
      </trkpt>
      <trkpt lat="44.52235" lon="4.2718">
        <ele>312</ele>
        <time>2018-06-03T06:28:27.000Z</time>
      </trkpt>
      <trkpt lat="44.52236" lon="4.27177">
        <ele>312</ele>
        <time>2018-06-03T06:28:28.000Z</time>
      </trkpt>
      <trkpt lat="44.52237" lon="4.27175">
        <ele>313</ele>
        <time>2018-06-03T06:28:29.000Z</time>
      </trkpt>
      <trkpt lat="44.52238" lon="4.27172">
        <ele>313</ele>
        <time>2018-06-03T06:28:30.000Z</time>
      </trkpt>
      <trkpt lat="44.52239" lon="4.2717">
        <ele>313</ele>
        <time>2018-06-03T06:28:31.000Z</time>
      </trkpt>
      <trkpt lat="44.52241" lon="4.27168">
        <ele>314</ele>
        <time>2018-06-03T06:28:32.000Z</time>
      </trkpt>
      <trkpt lat="44.52242" lon="4.27167">
        <ele>316</ele>
        <time>2018-06-03T06:28:33.000Z</time>
      </trkpt>
      <trkpt lat="44.52243" lon="4.27165">
        <ele>316</ele>
        <time>2018-06-03T06:28:34.000Z</time>
      </trkpt>
      <trkpt lat="44.52244" lon="4.27163">
        <ele>316</ele>
        <time>2018-06-03T06:28:35.000Z</time>
      </trkpt>
      <trkpt lat="44.52246" lon="4.27161">
        <ele>316</ele>
        <time>2018-06-03T06:28:36.000Z</time>
      </trkpt>
      <trkpt lat="44.52247" lon="4.2716">
        <ele>316</ele>
        <time>2018-06-03T06:28:37.000Z</time>
      </trkpt>
      <trkpt lat="44.52248" lon="4.27159">
        <ele>316</ele>
        <time>2018-06-03T06:28:38.000Z</time>
      </trkpt>
      <trkpt lat="44.5225" lon="4.27158">
        <ele>316</ele>
        <time>2018-06-03T06:28:39.000Z</time>
      </trkpt>
      <trkpt lat="44.52252" lon="4.27157">
        <ele>319</ele>
        <time>2018-06-03T06:28:40.000Z</time>
      </trkpt>
      <trkpt lat="44.52253" lon="4.27156">
        <ele>319</ele>
        <time>2018-06-03T06:28:41.000Z</time>
      </trkpt>
      <trkpt lat="44.52255" lon="4.27155">
        <ele>320</ele>
        <time>2018-06-03T06:28:42.000Z</time>
      </trkpt>
      <trkpt lat="44.52256" lon="4.27153">
        <ele>320</ele>
        <time>2018-06-03T06:28:43.000Z</time>
      </trkpt>
      <trkpt lat="44.52258" lon="4.27151">
        <ele>320</ele>
        <time>2018-06-03T06:28:44.000Z</time>
      </trkpt>
      <trkpt lat="44.52259" lon="4.2715">
        <ele>321</ele>
        <time>2018-06-03T06:28:45.000Z</time>
      </trkpt>
      <trkpt lat="44.5226" lon="4.27148">
        <ele>321</ele>
        <time>2018-06-03T06:28:46.000Z</time>
      </trkpt>
      <trkpt lat="44.52262" lon="4.27146">
        <ele>321</ele>
        <time>2018-06-03T06:28:47.000Z</time>
      </trkpt>
      <trkpt lat="44.52263" lon="4.27145">
        <ele>322</ele>
        <time>2018-06-03T06:28:48.000Z</time>
      </trkpt>
      <trkpt lat="44.52265" lon="4.27144">
        <ele>322</ele>
        <time>2018-06-03T06:28:49.000Z</time>
      </trkpt>
      <trkpt lat="44.52266" lon="4.27143">
        <ele>322</ele>
        <time>2018-06-03T06:28:50.000Z</time>
      </trkpt>
      <trkpt lat="44.52268" lon="4.27141">
        <ele>323</ele>
        <time>2018-06-03T06:28:51.000Z</time>
      </trkpt>
      <trkpt lat="44.5227" lon="4.27139">
        <ele>323</ele>
        <time>2018-06-03T06:28:52.000Z</time>
      </trkpt>
      <trkpt lat="44.52271" lon="4.27137">
        <ele>323</ele>
        <time>2018-06-03T06:28:53.000Z</time>
      </trkpt>
      <trkpt lat="44.52272" lon="4.27135">
        <ele>323</ele>
        <time>2018-06-03T06:28:54.000Z</time>
      </trkpt>
      <trkpt lat="44.52273" lon="4.27132">
        <ele>324</ele>
        <time>2018-06-03T06:28:55.000Z</time>
      </trkpt>
      <trkpt lat="44.52275" lon="4.2713">
        <ele>324</ele>
        <time>2018-06-03T06:28:56.000Z</time>
      </trkpt>
      <trkpt lat="44.52276" lon="4.27127">
        <ele>324</ele>
        <time>2018-06-03T06:28:57.000Z</time>
      </trkpt>
      <trkpt lat="44.52277" lon="4.27125">
        <ele>324</ele>
        <time>2018-06-03T06:28:58.000Z</time>
      </trkpt>
      <trkpt lat="44.52279" lon="4.27123">
        <ele>324</ele>
        <time>2018-06-03T06:28:59.000Z</time>
      </trkpt>
      <trkpt lat="44.5228" lon="4.2712">
        <ele>325</ele>
        <time>2018-06-03T06:29:00.000Z</time>
      </trkpt>
      <trkpt lat="44.52281" lon="4.27118">
        <ele>325</ele>
        <time>2018-06-03T06:29:01.000Z</time>
      </trkpt>
      <trkpt lat="44.52282" lon="4.27115">
        <ele>325</ele>
        <time>2018-06-03T06:29:02.000Z</time>
      </trkpt>
      <trkpt lat="44.52282" lon="4.27112">
        <ele>325</ele>
        <time>2018-06-03T06:29:03.000Z</time>
      </trkpt>
      <trkpt lat="44.52283" lon="4.27109">
        <ele>325</ele>
        <time>2018-06-03T06:29:04.000Z</time>
      </trkpt>
      <trkpt lat="44.52284" lon="4.27106">
        <ele>325</ele>
        <time>2018-06-03T06:29:05.000Z</time>
      </trkpt>
      <trkpt lat="44.52284" lon="4.27103">
        <ele>326</ele>
        <time>2018-06-03T06:29:06.000Z</time>
      </trkpt>
      <trkpt lat="44.52285" lon="4.271">
        <ele>326</ele>
        <time>2018-06-03T06:29:07.000Z</time>
      </trkpt>
      <trkpt lat="44.52286" lon="4.27097">
        <ele>326</ele>
        <time>2018-06-03T06:29:08.000Z</time>
      </trkpt>
      <trkpt lat="44.52286" lon="4.27094">
        <ele>326</ele>
        <time>2018-06-03T06:29:09.000Z</time>
      </trkpt>
      <trkpt lat="44.52287" lon="4.27091">
        <ele>326</ele>
        <time>2018-06-03T06:29:10.000Z</time>
      </trkpt>
      <trkpt lat="44.52286" lon="4.27087">
        <ele>326</ele>
        <time>2018-06-03T06:29:11.000Z</time>
      </trkpt>
      <trkpt lat="44.52286" lon="4.27083">
        <ele>330</ele>
        <time>2018-06-03T06:29:12.000Z</time>
      </trkpt>
      <trkpt lat="44.52286" lon="4.27078">
        <ele>330</ele>
        <time>2018-06-03T06:29:13.000Z</time>
      </trkpt>
      <trkpt lat="44.52287" lon="4.27074">
        <ele>330</ele>
        <time>2018-06-03T06:29:14.000Z</time>
      </trkpt>
      <trkpt lat="44.52288" lon="4.27069">
        <ele>330</ele>
        <time>2018-06-03T06:29:15.000Z</time>
      </trkpt>
      <trkpt lat="44.52289" lon="4.27064">
        <ele>330</ele>
        <time>2018-06-03T06:29:16.000Z</time>
      </trkpt>
      <trkpt lat="44.5229" lon="4.27059">
        <ele>330</ele>
        <time>2018-06-03T06:29:17.000Z</time>
      </trkpt>
      <trkpt lat="44.52292" lon="4.27055">
        <ele>330</ele>
        <time>2018-06-03T06:29:18.000Z</time>
      </trkpt>
      <trkpt lat="44.52294" lon="4.2705">
        <ele>331</ele>
        <time>2018-06-03T06:29:19.000Z</time>
      </trkpt>
      <trkpt lat="44.52297" lon="4.27047">
        <ele>331</ele>
        <time>2018-06-03T06:29:20.000Z</time>
      </trkpt>
      <trkpt lat="44.523" lon="4.27044">
        <ele>331</ele>
        <time>2018-06-03T06:29:21.000Z</time>
      </trkpt>
      <trkpt lat="44.52302" lon="4.27041">
        <ele>331</ele>
        <time>2018-06-03T06:29:22.000Z</time>
      </trkpt>
      <trkpt lat="44.52305" lon="4.27039">
        <ele>331</ele>
        <time>2018-06-03T06:29:23.000Z</time>
      </trkpt>
      <trkpt lat="44.52307" lon="4.27037">
        <ele>331</ele>
        <time>2018-06-03T06:29:24.000Z</time>
      </trkpt>
      <trkpt lat="44.5231" lon="4.27035">
        <ele>332</ele>
        <time>2018-06-03T06:29:25.000Z</time>
      </trkpt>
      <trkpt lat="44.52312" lon="4.27033">
        <ele>332</ele>
        <time>2018-06-03T06:29:26.000Z</time>
      </trkpt>
      <trkpt lat="44.52315" lon="4.27031">
        <ele>332</ele>
        <time>2018-06-03T06:29:27.000Z</time>
      </trkpt>
      <trkpt lat="44.52318" lon="4.2703">
        <ele>332</ele>
        <time>2018-06-03T06:29:28.000Z</time>
      </trkpt>
      <trkpt lat="44.5232" lon="4.27028">
        <ele>332</ele>
        <time>2018-06-03T06:29:29.000Z</time>
      </trkpt>
      <trkpt lat="44.52323" lon="4.27027">
        <ele>332</ele>
        <time>2018-06-03T06:29:30.000Z</time>
      </trkpt>
      <trkpt lat="44.52325" lon="4.27024">
        <ele>333</ele>
        <time>2018-06-03T06:29:31.000Z</time>
      </trkpt>
      <trkpt lat="44.52327" lon="4.27022">
        <ele>333</ele>
        <time>2018-06-03T06:29:32.000Z</time>
      </trkpt>
      <trkpt lat="44.5233" lon="4.27021">
        <ele>333</ele>
        <time>2018-06-03T06:29:33.000Z</time>
      </trkpt>
      <trkpt lat="44.52333" lon="4.2702">
        <ele>333</ele>
        <time>2018-06-03T06:29:34.000Z</time>
      </trkpt>
      <trkpt lat="44.52335" lon="4.27018">
        <ele>337</ele>
        <time>2018-06-03T06:29:35.000Z</time>
      </trkpt>
      <trkpt lat="44.52337" lon="4.27017">
        <ele>337</ele>
        <time>2018-06-03T06:29:36.000Z</time>
      </trkpt>
      <trkpt lat="44.5234" lon="4.27015">
        <ele>337</ele>
        <time>2018-06-03T06:29:37.000Z</time>
      </trkpt>
      <trkpt lat="44.52342" lon="4.27013">
        <ele>337</ele>
        <time>2018-06-03T06:29:38.000Z</time>
      </trkpt>
      <trkpt lat="44.52344" lon="4.27012">
        <ele>337</ele>
        <time>2018-06-03T06:29:39.000Z</time>
      </trkpt>
      <trkpt lat="44.52346" lon="4.2701">
        <ele>337</ele>
        <time>2018-06-03T06:29:40.000Z</time>
      </trkpt>
      <trkpt lat="44.52348" lon="4.27009">
        <ele>337</ele>
        <time>2018-06-03T06:29:41.000Z</time>
      </trkpt>
      <trkpt lat="44.52351" lon="4.27007">
        <ele>337</ele>
        <time>2018-06-03T06:29:42.000Z</time>
      </trkpt>
      <trkpt lat="44.52353" lon="4.27006">
        <ele>338</ele>
        <time>2018-06-03T06:29:43.000Z</time>
      </trkpt>
      <trkpt lat="44.52355" lon="4.27004">
        <ele>338</ele>
        <time>2018-06-03T06:29:44.000Z</time>
      </trkpt>
      <trkpt lat="44.52357" lon="4.27003">
        <ele>338</ele>
        <time>2018-06-03T06:29:45.000Z</time>
      </trkpt>
      <trkpt lat="44.52359" lon="4.27001">
        <ele>338</ele>
        <time>2018-06-03T06:29:46.000Z</time>
      </trkpt>
      <trkpt lat="44.52361" lon="4.27">
        <ele>340</ele>
        <time>2018-06-03T06:29:47.000Z</time>
      </trkpt>
      <trkpt lat="44.52364" lon="4.26998">
        <ele>341</ele>
        <time>2018-06-03T06:29:48.000Z</time>
      </trkpt>
      <trkpt lat="44.52366" lon="4.26996">
        <ele>341</ele>
        <time>2018-06-03T06:29:49.000Z</time>
      </trkpt>
      <trkpt lat="44.52367" lon="4.26994">
        <ele>341</ele>
        <time>2018-06-03T06:29:50.000Z</time>
      </trkpt>
      <trkpt lat="44.52369" lon="4.26993">
        <ele>341</ele>
        <time>2018-06-03T06:29:51.000Z</time>
      </trkpt>
      <trkpt lat="44.52371" lon="4.26991">
        <ele>342</ele>
        <time>2018-06-03T06:29:52.000Z</time>
      </trkpt>
      <trkpt lat="44.52373" lon="4.2699">
        <ele>342</ele>
        <time>2018-06-03T06:29:53.000Z</time>
      </trkpt>
      <trkpt lat="44.52375" lon="4.26988">
        <ele>342</ele>
        <time>2018-06-03T06:29:54.000Z</time>
      </trkpt>
      <trkpt lat="44.52377" lon="4.26987">
        <ele>342</ele>
        <time>2018-06-03T06:29:55.000Z</time>
      </trkpt>
      <trkpt lat="44.52379" lon="4.26986">
        <ele>342</ele>
        <time>2018-06-03T06:29:56.000Z</time>
      </trkpt>
      <trkpt lat="44.52381" lon="4.26985">
        <ele>342</ele>
        <time>2018-06-03T06:29:57.000Z</time>
      </trkpt>
      <trkpt lat="44.52383" lon="4.26984">
        <ele>343</ele>
        <time>2018-06-03T06:29:58.000Z</time>
      </trkpt>
      <trkpt lat="44.52385" lon="4.26984">
        <ele>343</ele>
        <time>2018-06-03T06:29:59.000Z</time>
      </trkpt>
      <trkpt lat="44.52387" lon="4.26983">
        <ele>343</ele>
        <time>2018-06-03T06:30:00.000Z</time>
      </trkpt>
      <trkpt lat="44.52389" lon="4.26982">
        <ele>343</ele>
        <time>2018-06-03T06:30:01.000Z</time>
      </trkpt>
      <trkpt lat="44.52391" lon="4.26981">
        <ele>343</ele>
        <time>2018-06-03T06:30:02.000Z</time>
      </trkpt>
      <trkpt lat="44.52393" lon="4.2698">
        <ele>343</ele>
        <time>2018-06-03T06:30:03.000Z</time>
      </trkpt>
      <trkpt lat="44.52394" lon="4.26978">
        <ele>343</ele>
        <time>2018-06-03T06:30:04.000Z</time>
      </trkpt>
      <trkpt lat="44.52396" lon="4.26977">
        <ele>343</ele>
        <time>2018-06-03T06:30:05.000Z</time>
      </trkpt>
      <trkpt lat="44.52397" lon="4.26976">
        <ele>344</ele>
        <time>2018-06-03T06:30:06.000Z</time>
      </trkpt>
      <trkpt lat="44.52399" lon="4.26975">
        <ele>344</ele>
        <time>2018-06-03T06:30:07.000Z</time>
      </trkpt>
      <trkpt lat="44.52401" lon="4.26974">
        <ele>344</ele>
        <time>2018-06-03T06:30:08.000Z</time>
      </trkpt>
      <trkpt lat="44.52403" lon="4.26973">
        <ele>344</ele>
        <time>2018-06-03T06:30:09.000Z</time>
      </trkpt>
      <trkpt lat="44.52404" lon="4.26973">
        <ele>344</ele>
        <time>2018-06-03T06:30:10.000Z</time>
      </trkpt>
      <trkpt lat="44.52406" lon="4.26972">
        <ele>344</ele>
        <time>2018-06-03T06:30:11.000Z</time>
      </trkpt>
      <trkpt lat="44.52408" lon="4.26972">
        <ele>344</ele>
        <time>2018-06-03T06:30:12.000Z</time>
      </trkpt>
      <trkpt lat="44.5241" lon="4.26971">
        <ele>344</ele>
        <time>2018-06-03T06:30:13.000Z</time>
      </trkpt>
      <trkpt lat="44.52411" lon="4.2697">
        <ele>344</ele>
        <time>2018-06-03T06:30:14.000Z</time>
      </trkpt>
      <trkpt lat="44.52412" lon="4.26968">
        <ele>344</ele>
        <time>2018-06-03T06:30:15.000Z</time>
      </trkpt>
      <trkpt lat="44.52414" lon="4.26966">
        <ele>344</ele>
        <time>2018-06-03T06:30:16.000Z</time>
      </trkpt>
      <trkpt lat="44.52414" lon="4.26964">
        <ele>344</ele>
        <time>2018-06-03T06:30:17.000Z</time>
      </trkpt>
      <trkpt lat="44.52415" lon="4.26962">
        <ele>344</ele>
        <time>2018-06-03T06:30:18.000Z</time>
      </trkpt>
      <trkpt lat="44.52417" lon="4.2696">
        <ele>344</ele>
        <time>2018-06-03T06:30:19.000Z</time>
      </trkpt>
      <trkpt lat="44.52418" lon="4.26958">
        <ele>350</ele>
        <time>2018-06-03T06:30:20.000Z</time>
      </trkpt>
      <trkpt lat="44.52419" lon="4.26957">
        <ele>350</ele>
        <time>2018-06-03T06:30:21.000Z</time>
      </trkpt>
      <trkpt lat="44.52421" lon="4.26955">
        <ele>350</ele>
        <time>2018-06-03T06:30:22.000Z</time>
      </trkpt>
      <trkpt lat="44.52422" lon="4.26954">
        <ele>350</ele>
        <time>2018-06-03T06:30:23.000Z</time>
      </trkpt>
      <trkpt lat="44.52423" lon="4.26953">
        <ele>350</ele>
        <time>2018-06-03T06:30:24.000Z</time>
      </trkpt>
      <trkpt lat="44.52425" lon="4.26951">
        <ele>350</ele>
        <time>2018-06-03T06:30:25.000Z</time>
      </trkpt>
      <trkpt lat="44.52426" lon="4.2695">
        <ele>350</ele>
        <time>2018-06-03T06:30:26.000Z</time>
      </trkpt>
      <trkpt lat="44.52427" lon="4.26948">
        <ele>350</ele>
        <time>2018-06-03T06:30:27.000Z</time>
      </trkpt>
      <trkpt lat="44.52428" lon="4.26946">
        <ele>351</ele>
        <time>2018-06-03T06:30:28.000Z</time>
      </trkpt>
      <trkpt lat="44.52429" lon="4.26944">
        <ele>351</ele>
        <time>2018-06-03T06:30:29.000Z</time>
      </trkpt>
      <trkpt lat="44.5243" lon="4.26942">
        <ele>351</ele>
        <time>2018-06-03T06:30:30.000Z</time>
      </trkpt>
      <trkpt lat="44.52431" lon="4.2694">
        <ele>351</ele>
        <time>2018-06-03T06:30:31.000Z</time>
      </trkpt>
      <trkpt lat="44.52432" lon="4.26939">
        <ele>351</ele>
        <time>2018-06-03T06:30:32.000Z</time>
      </trkpt>
      <trkpt lat="44.52434" lon="4.26937">
        <ele>351</ele>
        <time>2018-06-03T06:30:33.000Z</time>
      </trkpt>
      <trkpt lat="44.52435" lon="4.26936">
        <ele>351</ele>
        <time>2018-06-03T06:30:34.000Z</time>
      </trkpt>
      <trkpt lat="44.52437" lon="4.26934">
        <ele>351</ele>
        <time>2018-06-03T06:30:35.000Z</time>
      </trkpt>
      <trkpt lat="44.52438" lon="4.26933">
        <ele>351</ele>
        <time>2018-06-03T06:30:36.000Z</time>
      </trkpt>
      <trkpt lat="44.5244" lon="4.26932">
        <ele>351</ele>
        <time>2018-06-03T06:30:37.000Z</time>
      </trkpt>
      <trkpt lat="44.52441" lon="4.26931">
        <ele>351</ele>
        <time>2018-06-03T06:30:38.000Z</time>
      </trkpt>
      <trkpt lat="44.52443" lon="4.2693">
        <ele>351</ele>
        <time>2018-06-03T06:30:39.000Z</time>
      </trkpt>
      <trkpt lat="44.52445" lon="4.26929">
        <ele>351</ele>
        <time>2018-06-03T06:30:40.000Z</time>
      </trkpt>
      <trkpt lat="44.52447" lon="4.26929">
        <ele>351</ele>
        <time>2018-06-03T06:30:41.000Z</time>
      </trkpt>
      <trkpt lat="44.52449" lon="4.26928">
        <ele>351</ele>
        <time>2018-06-03T06:30:42.000Z</time>
      </trkpt>
      <trkpt lat="44.52452" lon="4.26928">
        <ele>352</ele>
        <time>2018-06-03T06:30:43.000Z</time>
      </trkpt>
      <trkpt lat="44.52453" lon="4.26928">
        <ele>352</ele>
        <time>2018-06-03T06:30:44.000Z</time>
      </trkpt>
      <trkpt lat="44.52455" lon="4.26927">
        <ele>352</ele>
        <time>2018-06-03T06:30:45.000Z</time>
      </trkpt>
      <trkpt lat="44.52457" lon="4.26927">
        <ele>352</ele>
        <time>2018-06-03T06:30:46.000Z</time>
      </trkpt>
      <trkpt lat="44.52459" lon="4.26926">
        <ele>352</ele>
        <time>2018-06-03T06:30:47.000Z</time>
      </trkpt>
      <trkpt lat="44.52461" lon="4.26926">
        <ele>352</ele>
        <time>2018-06-03T06:30:48.000Z</time>
      </trkpt>
      <trkpt lat="44.52463" lon="4.26925">
        <ele>352</ele>
        <time>2018-06-03T06:30:49.000Z</time>
      </trkpt>
      <trkpt lat="44.52465" lon="4.26924">
        <ele>352</ele>
        <time>2018-06-03T06:30:50.000Z</time>
      </trkpt>
      <trkpt lat="44.52467" lon="4.26925">
        <ele>353</ele>
        <time>2018-06-03T06:30:51.000Z</time>
      </trkpt>
      <trkpt lat="44.52469" lon="4.26925">
        <ele>353</ele>
        <time>2018-06-03T06:30:52.000Z</time>
      </trkpt>
      <trkpt lat="44.52471" lon="4.26925">
        <ele>353</ele>
        <time>2018-06-03T06:30:53.000Z</time>
      </trkpt>
      <trkpt lat="44.52473" lon="4.26925">
        <ele>353</ele>
        <time>2018-06-03T06:30:54.000Z</time>
      </trkpt>
      <trkpt lat="44.52475" lon="4.26926">
        <ele>353</ele>
        <time>2018-06-03T06:30:55.000Z</time>
      </trkpt>
      <trkpt lat="44.52477" lon="4.26926">
        <ele>353</ele>
        <time>2018-06-03T06:30:56.000Z</time>
      </trkpt>
      <trkpt lat="44.52479" lon="4.26927">
        <ele>353</ele>
        <time>2018-06-03T06:30:57.000Z</time>
      </trkpt>
      <trkpt lat="44.52481" lon="4.26928">
        <ele>354</ele>
        <time>2018-06-03T06:30:58.000Z</time>
      </trkpt>
      <trkpt lat="44.52483" lon="4.26929">
        <ele>354</ele>
        <time>2018-06-03T06:30:59.000Z</time>
      </trkpt>
      <trkpt lat="44.52485" lon="4.26929">
        <ele>354</ele>
        <time>2018-06-03T06:31:00.000Z</time>
      </trkpt>
      <trkpt lat="44.52488" lon="4.26929">
        <ele>354</ele>
        <time>2018-06-03T06:31:01.000Z</time>
      </trkpt>
      <trkpt lat="44.5249" lon="4.26929">
        <ele>354</ele>
        <time>2018-06-03T06:31:02.000Z</time>
      </trkpt>
      <trkpt lat="44.52492" lon="4.26928">
        <ele>354</ele>
        <time>2018-06-03T06:31:03.000Z</time>
      </trkpt>
      <trkpt lat="44.52493" lon="4.26928">
        <ele>355</ele>
        <time>2018-06-03T06:31:04.000Z</time>
      </trkpt>
      <trkpt lat="44.52495" lon="4.26927">
        <ele>355</ele>
        <time>2018-06-03T06:31:05.000Z</time>
      </trkpt>
      <trkpt lat="44.52497" lon="4.26927">
        <ele>355</ele>
        <time>2018-06-03T06:31:06.000Z</time>
      </trkpt>
      <trkpt lat="44.52499" lon="4.26926">
        <ele>355</ele>
        <time>2018-06-03T06:31:07.000Z</time>
      </trkpt>
      <trkpt lat="44.525" lon="4.26924">
        <ele>356</ele>
        <time>2018-06-03T06:31:08.000Z</time>
      </trkpt>
      <trkpt lat="44.52502" lon="4.26923">
        <ele>357</ele>
        <time>2018-06-03T06:31:09.000Z</time>
      </trkpt>
      <trkpt lat="44.52504" lon="4.26922">
        <ele>357</ele>
        <time>2018-06-03T06:31:10.000Z</time>
      </trkpt>
      <trkpt lat="44.52505" lon="4.26921">
        <ele>357</ele>
        <time>2018-06-03T06:31:11.000Z</time>
      </trkpt>
      <trkpt lat="44.52507" lon="4.26919">
        <ele>357</ele>
        <time>2018-06-03T06:31:12.000Z</time>
      </trkpt>
      <trkpt lat="44.52509" lon="4.26918">
        <ele>356</ele>
        <time>2018-06-03T06:31:13.000Z</time>
      </trkpt>
      <trkpt lat="44.52511" lon="4.26917">
        <ele>357</ele>
        <time>2018-06-03T06:31:14.000Z</time>
      </trkpt>
      <trkpt lat="44.52512" lon="4.26914">
        <ele>357</ele>
        <time>2018-06-03T06:31:15.000Z</time>
      </trkpt>
      <trkpt lat="44.52514" lon="4.26911">
        <ele>357</ele>
        <time>2018-06-03T06:31:16.000Z</time>
      </trkpt>
      <trkpt lat="44.52515" lon="4.26909">
        <ele>357</ele>
        <time>2018-06-03T06:31:17.000Z</time>
      </trkpt>
      <trkpt lat="44.52516" lon="4.26906">
        <ele>357</ele>
        <time>2018-06-03T06:31:18.000Z</time>
      </trkpt>
      <trkpt lat="44.52516" lon="4.26904">
        <ele>357</ele>
        <time>2018-06-03T06:31:19.000Z</time>
      </trkpt>
      <trkpt lat="44.52517" lon="4.26902">
        <ele>357</ele>
        <time>2018-06-03T06:31:20.000Z</time>
      </trkpt>
      <trkpt lat="44.52518" lon="4.269">
        <ele>357</ele>
        <time>2018-06-03T06:31:21.000Z</time>
      </trkpt>
      <trkpt lat="44.52519" lon="4.26897">
        <ele>357</ele>
        <time>2018-06-03T06:31:22.000Z</time>
      </trkpt>
      <trkpt lat="44.5252" lon="4.26895">
        <ele>357</ele>
        <time>2018-06-03T06:31:23.000Z</time>
      </trkpt>
      <trkpt lat="44.52522" lon="4.26893">
        <ele>357</ele>
        <time>2018-06-03T06:31:24.000Z</time>
      </trkpt>
      <trkpt lat="44.52523" lon="4.26892">
        <ele>357</ele>
        <time>2018-06-03T06:31:25.000Z</time>
      </trkpt>
      <trkpt lat="44.52523" lon="4.26891">
        <ele>357</ele>
        <time>2018-06-03T06:31:26.000Z</time>
      </trkpt>
      <trkpt lat="44.52523" lon="4.26891">
        <ele>357</ele>
        <time>2018-06-03T06:31:27.000Z</time>
      </trkpt>
      <trkpt lat="44.52523" lon="4.26891">
        <ele>357</ele>
        <time>2018-06-03T06:31:28.000Z</time>
      </trkpt>
      <trkpt lat="44.52523" lon="4.26891">
        <ele>357</ele>
        <time>2018-06-03T06:31:29.000Z</time>
      </trkpt>
      <trkpt lat="44.52523" lon="4.26891">
        <ele>357</ele>
        <time>2018-06-03T06:31:30.000Z</time>
      </trkpt>
      <trkpt lat="44.52523" lon="4.26891">
        <ele>357</ele>
        <time>2018-06-03T06:31:31.000Z</time>
      </trkpt>
      <trkpt lat="44.52523" lon="4.26891">
        <ele>357</ele>
        <time>2018-06-03T06:31:32.000Z</time>
      </trkpt>
      <trkpt lat="44.52523" lon="4.26891">
        <ele>357</ele>
        <time>2018-06-03T06:31:33.000Z</time>
      </trkpt>
      <trkpt lat="44.52523" lon="4.26891">
        <ele>357</ele>
        <time>2018-06-03T06:31:34.000Z</time>
      </trkpt>
      <trkpt lat="44.52523" lon="4.26891">
        <ele>357</ele>
        <time>2018-06-03T06:31:35.000Z</time>
      </trkpt>
      <trkpt lat="44.52523" lon="4.26891">
        <ele>357</ele>
        <time>2018-06-03T06:31:36.000Z</time>
      </trkpt>
      <trkpt lat="44.52523" lon="4.26891">
        <ele>357</ele>
        <time>2018-06-03T06:31:37.000Z</time>
      </trkpt>
      <trkpt lat="44.52523" lon="4.26891">
        <ele>357</ele>
        <time>2018-06-03T06:31:38.000Z</time>
      </trkpt>
      <trkpt lat="44.52523" lon="4.26891">
        <ele>357</ele>
        <time>2018-06-03T06:31:39.000Z</time>
      </trkpt>
      <trkpt lat="44.52523" lon="4.26892">
        <ele>357</ele>
        <time>2018-06-03T06:31:40.000Z</time>
      </trkpt>
      <trkpt lat="44.52524" lon="4.26891">
        <ele>357</ele>
        <time>2018-06-03T06:31:41.000Z</time>
      </trkpt>
      <trkpt lat="44.52525" lon="4.2689">
        <ele>357</ele>
        <time>2018-06-03T06:31:42.000Z</time>
      </trkpt>
      <trkpt lat="44.52526" lon="4.26889">
        <ele>358</ele>
        <time>2018-06-03T06:31:43.000Z</time>
      </trkpt>
      <trkpt lat="44.52528" lon="4.26887">
        <ele>358</ele>
        <time>2018-06-03T06:31:44.000Z</time>
      </trkpt>
      <trkpt lat="44.5253" lon="4.26885">
        <ele>358</ele>
        <time>2018-06-03T06:31:45.000Z</time>
      </trkpt>
      <trkpt lat="44.52532" lon="4.26883">
        <ele>358</ele>
        <time>2018-06-03T06:31:46.000Z</time>
      </trkpt>
      <trkpt lat="44.52534" lon="4.26881">
        <ele>358</ele>
        <time>2018-06-03T06:31:47.000Z</time>
      </trkpt>
      <trkpt lat="44.52536" lon="4.26879">
        <ele>358</ele>
        <time>2018-06-03T06:31:48.000Z</time>
      </trkpt>
      <trkpt lat="44.52539" lon="4.26877">
        <ele>358</ele>
        <time>2018-06-03T06:31:49.000Z</time>
      </trkpt>
      <trkpt lat="44.52541" lon="4.26875">
        <ele>358</ele>
        <time>2018-06-03T06:31:50.000Z</time>
      </trkpt>
      <trkpt lat="44.52543" lon="4.26873">
        <ele>358</ele>
        <time>2018-06-03T06:31:51.000Z</time>
      </trkpt>
      <trkpt lat="44.52545" lon="4.26871">
        <ele>358</ele>
        <time>2018-06-03T06:31:52.000Z</time>
      </trkpt>
      <trkpt lat="44.52547" lon="4.26869">
        <ele>358</ele>
        <time>2018-06-03T06:31:53.000Z</time>
      </trkpt>
      <trkpt lat="44.5255" lon="4.26867">
        <ele>358</ele>
        <time>2018-06-03T06:31:54.000Z</time>
      </trkpt>
      <trkpt lat="44.52552" lon="4.26865">
        <ele>358</ele>
        <time>2018-06-03T06:31:55.000Z</time>
      </trkpt>
      <trkpt lat="44.52554" lon="4.26863">
        <ele>358</ele>
        <time>2018-06-03T06:31:56.000Z</time>
      </trkpt>
      <trkpt lat="44.52555" lon="4.26861">
        <ele>358</ele>
        <time>2018-06-03T06:31:57.000Z</time>
      </trkpt>
      <trkpt lat="44.52557" lon="4.26858">
        <ele>358</ele>
        <time>2018-06-03T06:31:58.000Z</time>
      </trkpt>
      <trkpt lat="44.52559" lon="4.26856">
        <ele>358</ele>
        <time>2018-06-03T06:31:59.000Z</time>
      </trkpt>
      <trkpt lat="44.52561" lon="4.26855">
        <ele>358</ele>
        <time>2018-06-03T06:32:00.000Z</time>
      </trkpt>
      <trkpt lat="44.52564" lon="4.26854">
        <ele>358</ele>
        <time>2018-06-03T06:32:01.000Z</time>
      </trkpt>
      <trkpt lat="44.52567" lon="4.26853">
        <ele>358</ele>
        <time>2018-06-03T06:32:02.000Z</time>
      </trkpt>
      <trkpt lat="44.52569" lon="4.26853">
        <ele>359</ele>
        <time>2018-06-03T06:32:03.000Z</time>
      </trkpt>
      <trkpt lat="44.52572" lon="4.26852">
        <ele>359</ele>
        <time>2018-06-03T06:32:04.000Z</time>
      </trkpt>
      <trkpt lat="44.52575" lon="4.26852">
        <ele>359</ele>
        <time>2018-06-03T06:32:05.000Z</time>
      </trkpt>
      <trkpt lat="44.52577" lon="4.26852">
        <ele>359</ele>
        <time>2018-06-03T06:32:06.000Z</time>
      </trkpt>
      <trkpt lat="44.5258" lon="4.26851">
        <ele>359</ele>
        <time>2018-06-03T06:32:07.000Z</time>
      </trkpt>
      <trkpt lat="44.52582" lon="4.2685">
        <ele>359</ele>
        <time>2018-06-03T06:32:08.000Z</time>
      </trkpt>
      <trkpt lat="44.52585" lon="4.2685">
        <ele>360</ele>
        <time>2018-06-03T06:32:09.000Z</time>
      </trkpt>
      <trkpt lat="44.52588" lon="4.26849">
        <ele>360</ele>
        <time>2018-06-03T06:32:10.000Z</time>
      </trkpt>
      <trkpt lat="44.5259" lon="4.26849">
        <ele>360</ele>
        <time>2018-06-03T06:32:11.000Z</time>
      </trkpt>
      <trkpt lat="44.52593" lon="4.26848">
        <ele>360</ele>
        <time>2018-06-03T06:32:12.000Z</time>
      </trkpt>
      <trkpt lat="44.52595" lon="4.26846">
        <ele>360</ele>
        <time>2018-06-03T06:32:13.000Z</time>
      </trkpt>
      <trkpt lat="44.52598" lon="4.26844">
        <ele>360</ele>
        <time>2018-06-03T06:32:14.000Z</time>
      </trkpt>
      <trkpt lat="44.526" lon="4.26842">
        <ele>360</ele>
        <time>2018-06-03T06:32:15.000Z</time>
      </trkpt>
      <trkpt lat="44.52602" lon="4.26841">
        <ele>360</ele>
        <time>2018-06-03T06:32:16.000Z</time>
      </trkpt>
      <trkpt lat="44.52604" lon="4.2684">
        <ele>360</ele>
        <time>2018-06-03T06:32:17.000Z</time>
      </trkpt>
      <trkpt lat="44.52606" lon="4.26839">
        <ele>360</ele>
        <time>2018-06-03T06:32:18.000Z</time>
      </trkpt>
      <trkpt lat="44.52609" lon="4.26837">
        <ele>360</ele>
        <time>2018-06-03T06:32:19.000Z</time>
      </trkpt>
      <trkpt lat="44.52611" lon="4.26837">
        <ele>360</ele>
        <time>2018-06-03T06:32:20.000Z</time>
      </trkpt>
      <trkpt lat="44.52613" lon="4.26836">
        <ele>360</ele>
        <time>2018-06-03T06:32:21.000Z</time>
      </trkpt>
      <trkpt lat="44.52615" lon="4.26836">
        <ele>361</ele>
        <time>2018-06-03T06:32:22.000Z</time>
      </trkpt>
      <trkpt lat="44.52618" lon="4.26836">
        <ele>361</ele>
        <time>2018-06-03T06:32:23.000Z</time>
      </trkpt>
      <trkpt lat="44.5262" lon="4.26835">
        <ele>361</ele>
        <time>2018-06-03T06:32:24.000Z</time>
      </trkpt>
      <trkpt lat="44.52622" lon="4.26835">
        <ele>361</ele>
        <time>2018-06-03T06:32:25.000Z</time>
      </trkpt>
      <trkpt lat="44.52625" lon="4.26834">
        <ele>361</ele>
        <time>2018-06-03T06:32:26.000Z</time>
      </trkpt>
      <trkpt lat="44.52627" lon="4.26834">
        <ele>361</ele>
        <time>2018-06-03T06:32:27.000Z</time>
      </trkpt>
      <trkpt lat="44.5263" lon="4.26833">
        <ele>361</ele>
        <time>2018-06-03T06:32:28.000Z</time>
      </trkpt>
      <trkpt lat="44.52632" lon="4.26832">
        <ele>361</ele>
        <time>2018-06-03T06:32:29.000Z</time>
      </trkpt>
      <trkpt lat="44.52635" lon="4.26831">
        <ele>362</ele>
        <time>2018-06-03T06:32:30.000Z</time>
      </trkpt>
      <trkpt lat="44.52637" lon="4.26828">
        <ele>362</ele>
        <time>2018-06-03T06:32:31.000Z</time>
      </trkpt>
      <trkpt lat="44.52639" lon="4.26826">
        <ele>362</ele>
        <time>2018-06-03T06:32:32.000Z</time>
      </trkpt>
      <trkpt lat="44.52641" lon="4.26825">
        <ele>362</ele>
        <time>2018-06-03T06:32:33.000Z</time>
      </trkpt>
      <trkpt lat="44.52643" lon="4.26823">
        <ele>362</ele>
        <time>2018-06-03T06:32:34.000Z</time>
      </trkpt>
      <trkpt lat="44.52645" lon="4.26821">
        <ele>362</ele>
        <time>2018-06-03T06:32:35.000Z</time>
      </trkpt>
      <trkpt lat="44.52647" lon="4.2682">
        <ele>362</ele>
        <time>2018-06-03T06:32:36.000Z</time>
      </trkpt>
      <trkpt lat="44.5265" lon="4.26819">
        <ele>362</ele>
        <time>2018-06-03T06:32:37.000Z</time>
      </trkpt>
      <trkpt lat="44.52652" lon="4.26818">
        <ele>362</ele>
        <time>2018-06-03T06:32:38.000Z</time>
      </trkpt>
      <trkpt lat="44.52654" lon="4.26817">
        <ele>362</ele>
        <time>2018-06-03T06:32:39.000Z</time>
      </trkpt>
      <trkpt lat="44.52656" lon="4.26815">
        <ele>362</ele>
        <time>2018-06-03T06:32:40.000Z</time>
      </trkpt>
      <trkpt lat="44.52659" lon="4.26814">
        <ele>362</ele>
        <time>2018-06-03T06:32:41.000Z</time>
      </trkpt>
      <trkpt lat="44.52661" lon="4.26813">
        <ele>362</ele>
        <time>2018-06-03T06:32:42.000Z</time>
      </trkpt>
      <trkpt lat="44.52663" lon="4.26813">
        <ele>362</ele>
        <time>2018-06-03T06:32:43.000Z</time>
      </trkpt>
      <trkpt lat="44.52666" lon="4.26812">
        <ele>362</ele>
        <time>2018-06-03T06:32:44.000Z</time>
      </trkpt>
      <trkpt lat="44.52669" lon="4.26812">
        <ele>365</ele>
        <time>2018-06-03T06:32:45.000Z</time>
      </trkpt>
      <trkpt lat="44.52671" lon="4.26811">
        <ele>365</ele>
        <time>2018-06-03T06:32:46.000Z</time>
      </trkpt>
      <trkpt lat="44.52674" lon="4.26811">
        <ele>365</ele>
        <time>2018-06-03T06:32:47.000Z</time>
      </trkpt>
      <trkpt lat="44.52676" lon="4.26811">
        <ele>365</ele>
        <time>2018-06-03T06:32:48.000Z</time>
      </trkpt>
      <trkpt lat="44.52679" lon="4.26812">
        <ele>365</ele>
        <time>2018-06-03T06:32:49.000Z</time>
      </trkpt>
      <trkpt lat="44.52682" lon="4.26812">
        <ele>365</ele>
        <time>2018-06-03T06:32:50.000Z</time>
      </trkpt>
      <trkpt lat="44.52685" lon="4.26812">
        <ele>365</ele>
        <time>2018-06-03T06:32:51.000Z</time>
      </trkpt>
      <trkpt lat="44.52688" lon="4.26811">
        <ele>365</ele>
        <time>2018-06-03T06:32:52.000Z</time>
      </trkpt>
      <trkpt lat="44.5269" lon="4.26811">
        <ele>366</ele>
        <time>2018-06-03T06:32:53.000Z</time>
      </trkpt>
      <trkpt lat="44.52693" lon="4.2681">
        <ele>366</ele>
        <time>2018-06-03T06:32:54.000Z</time>
      </trkpt>
      <trkpt lat="44.52695" lon="4.2681">
        <ele>366</ele>
        <time>2018-06-03T06:32:55.000Z</time>
      </trkpt>
      <trkpt lat="44.52698" lon="4.26809">
        <ele>366</ele>
        <time>2018-06-03T06:32:56.000Z</time>
      </trkpt>
      <trkpt lat="44.527" lon="4.26808">
        <ele>366</ele>
        <time>2018-06-03T06:32:57.000Z</time>
      </trkpt>
      <trkpt lat="44.52703" lon="4.26806">
        <ele>366</ele>
        <time>2018-06-03T06:32:58.000Z</time>
      </trkpt>
      <trkpt lat="44.52706" lon="4.26805">
        <ele>366</ele>
        <time>2018-06-03T06:32:59.000Z</time>
      </trkpt>
      <trkpt lat="44.52708" lon="4.26804">
        <ele>366</ele>
        <time>2018-06-03T06:33:00.000Z</time>
      </trkpt>
      <trkpt lat="44.52711" lon="4.26803">
        <ele>366</ele>
        <time>2018-06-03T06:33:01.000Z</time>
      </trkpt>
      <trkpt lat="44.52714" lon="4.26802">
        <ele>366</ele>
        <time>2018-06-03T06:33:02.000Z</time>
      </trkpt>
      <trkpt lat="44.52716" lon="4.26801">
        <ele>366</ele>
        <time>2018-06-03T06:33:03.000Z</time>
      </trkpt>
      <trkpt lat="44.52719" lon="4.26801">
        <ele>366</ele>
        <time>2018-06-03T06:33:04.000Z</time>
      </trkpt>
      <trkpt lat="44.52721" lon="4.268">
        <ele>367</ele>
        <time>2018-06-03T06:33:05.000Z</time>
      </trkpt>
      <trkpt lat="44.52724" lon="4.26799">
        <ele>367</ele>
        <time>2018-06-03T06:33:06.000Z</time>
      </trkpt>
      <trkpt lat="44.52726" lon="4.26798">
        <ele>367</ele>
        <time>2018-06-03T06:33:07.000Z</time>
      </trkpt>
      <trkpt lat="44.52729" lon="4.26797">
        <ele>367</ele>
        <time>2018-06-03T06:33:08.000Z</time>
      </trkpt>
      <trkpt lat="44.52731" lon="4.26795">
        <ele>367</ele>
        <time>2018-06-03T06:33:09.000Z</time>
      </trkpt>
      <trkpt lat="44.52733" lon="4.26792">
        <ele>367</ele>
        <time>2018-06-03T06:33:10.000Z</time>
      </trkpt>
      <trkpt lat="44.52734" lon="4.26789">
        <ele>367</ele>
        <time>2018-06-03T06:33:11.000Z</time>
      </trkpt>
      <trkpt lat="44.52734" lon="4.26786">
        <ele>367</ele>
        <time>2018-06-03T06:33:12.000Z</time>
      </trkpt>
      <trkpt lat="44.52732" lon="4.26784">
        <ele>367</ele>
        <time>2018-06-03T06:33:13.000Z</time>
      </trkpt>
      <trkpt lat="44.52731" lon="4.26782">
        <ele>367</ele>
        <time>2018-06-03T06:33:14.000Z</time>
      </trkpt>
      <trkpt lat="44.52729" lon="4.26779">
        <ele>367</ele>
        <time>2018-06-03T06:33:15.000Z</time>
      </trkpt>
      <trkpt lat="44.52728" lon="4.26776">
        <ele>367</ele>
        <time>2018-06-03T06:33:16.000Z</time>
      </trkpt>
      <trkpt lat="44.52726" lon="4.26774">
        <ele>367</ele>
        <time>2018-06-03T06:33:17.000Z</time>
      </trkpt>
      <trkpt lat="44.52724" lon="4.26771">
        <ele>367</ele>
        <time>2018-06-03T06:33:18.000Z</time>
      </trkpt>
      <trkpt lat="44.52723" lon="4.26769">
        <ele>367</ele>
        <time>2018-06-03T06:33:19.000Z</time>
      </trkpt>
      <trkpt lat="44.52722" lon="4.26767">
        <ele>367</ele>
        <time>2018-06-03T06:33:20.000Z</time>
      </trkpt>
      <trkpt lat="44.5272" lon="4.26764">
        <ele>367</ele>
        <time>2018-06-03T06:33:21.000Z</time>
      </trkpt>
      <trkpt lat="44.52719" lon="4.26762">
        <ele>367</ele>
        <time>2018-06-03T06:33:22.000Z</time>
      </trkpt>
      <trkpt lat="44.52717" lon="4.2676">
        <ele>367</ele>
        <time>2018-06-03T06:33:23.000Z</time>
      </trkpt>
      <trkpt lat="44.52715" lon="4.26758">
        <ele>367</ele>
        <time>2018-06-03T06:33:24.000Z</time>
      </trkpt>
      <trkpt lat="44.52713" lon="4.26756">
        <ele>367</ele>
        <time>2018-06-03T06:33:25.000Z</time>
      </trkpt>
      <trkpt lat="44.52711" lon="4.26754">
        <ele>367</ele>
        <time>2018-06-03T06:33:26.000Z</time>
      </trkpt>
      <trkpt lat="44.52708" lon="4.26752">
        <ele>367</ele>
        <time>2018-06-03T06:33:27.000Z</time>
      </trkpt>
      <trkpt lat="44.52706" lon="4.26751">
        <ele>367</ele>
        <time>2018-06-03T06:33:28.000Z</time>
      </trkpt>
      <trkpt lat="44.52703" lon="4.26749">
        <ele>369</ele>
        <time>2018-06-03T06:33:29.000Z</time>
      </trkpt>
      <trkpt lat="44.52701" lon="4.26746">
        <ele>369</ele>
        <time>2018-06-03T06:33:30.000Z</time>
      </trkpt>
      <trkpt lat="44.52699" lon="4.26743">
        <ele>369</ele>
        <time>2018-06-03T06:33:31.000Z</time>
      </trkpt>
      <trkpt lat="44.52698" lon="4.26739">
        <ele>369</ele>
        <time>2018-06-03T06:33:32.000Z</time>
      </trkpt>
      <trkpt lat="44.52696" lon="4.26736">
        <ele>369</ele>
        <time>2018-06-03T06:33:33.000Z</time>
      </trkpt>
      <trkpt lat="44.52695" lon="4.26733">
        <ele>369</ele>
        <time>2018-06-03T06:33:34.000Z</time>
      </trkpt>
      <trkpt lat="44.52694" lon="4.26729">
        <ele>369</ele>
        <time>2018-06-03T06:33:35.000Z</time>
      </trkpt>
      <trkpt lat="44.52693" lon="4.26725">
        <ele>369</ele>
        <time>2018-06-03T06:33:36.000Z</time>
      </trkpt>
      <trkpt lat="44.52693" lon="4.26721">
        <ele>369</ele>
        <time>2018-06-03T06:33:37.000Z</time>
      </trkpt>
      <trkpt lat="44.52692" lon="4.26717">
        <ele>369</ele>
        <time>2018-06-03T06:33:38.000Z</time>
      </trkpt>
      <trkpt lat="44.5269" lon="4.26712">
        <ele>369</ele>
        <time>2018-06-03T06:33:39.000Z</time>
      </trkpt>
      <trkpt lat="44.52689" lon="4.26708">
        <ele>369</ele>
        <time>2018-06-03T06:33:40.000Z</time>
      </trkpt>
      <trkpt lat="44.52689" lon="4.26704">
        <ele>369</ele>
        <time>2018-06-03T06:33:41.000Z</time>
      </trkpt>
      <trkpt lat="44.52689" lon="4.267">
        <ele>369</ele>
        <time>2018-06-03T06:33:42.000Z</time>
      </trkpt>
      <trkpt lat="44.52689" lon="4.26696">
        <ele>369</ele>
        <time>2018-06-03T06:33:43.000Z</time>
      </trkpt>
      <trkpt lat="44.52689" lon="4.26692">
        <ele>369</ele>
        <time>2018-06-03T06:33:44.000Z</time>
      </trkpt>
      <trkpt lat="44.52689" lon="4.26688">
        <ele>369</ele>
        <time>2018-06-03T06:33:45.000Z</time>
      </trkpt>
      <trkpt lat="44.52688" lon="4.26684">
        <ele>369</ele>
        <time>2018-06-03T06:33:46.000Z</time>
      </trkpt>
      <trkpt lat="44.52688" lon="4.26681">
        <ele>369</ele>
        <time>2018-06-03T06:33:47.000Z</time>
      </trkpt>
      <trkpt lat="44.52687" lon="4.26678">
        <ele>369</ele>
        <time>2018-06-03T06:33:48.000Z</time>
      </trkpt>
      <trkpt lat="44.52687" lon="4.26674">
        <ele>369</ele>
        <time>2018-06-03T06:33:49.000Z</time>
      </trkpt>
      <trkpt lat="44.52686" lon="4.2667">
        <ele>369</ele>
        <time>2018-06-03T06:33:50.000Z</time>
      </trkpt>
      <trkpt lat="44.52686" lon="4.26666">
        <ele>369</ele>
        <time>2018-06-03T06:33:51.000Z</time>
      </trkpt>
      <trkpt lat="44.52686" lon="4.26662">
        <ele>369</ele>
        <time>2018-06-03T06:33:52.000Z</time>
      </trkpt>
      <trkpt lat="44.52684" lon="4.26658">
        <ele>369</ele>
        <time>2018-06-03T06:33:53.000Z</time>
      </trkpt>
      <trkpt lat="44.52684" lon="4.26654">
        <ele>369</ele>
        <time>2018-06-03T06:33:54.000Z</time>
      </trkpt>
      <trkpt lat="44.52684" lon="4.2665">
        <ele>369</ele>
        <time>2018-06-03T06:33:55.000Z</time>
      </trkpt>
      <trkpt lat="44.52684" lon="4.26645">
        <ele>369</ele>
        <time>2018-06-03T06:33:56.000Z</time>
      </trkpt>
      <trkpt lat="44.52684" lon="4.26641">
        <ele>369</ele>
        <time>2018-06-03T06:33:57.000Z</time>
      </trkpt>
      <trkpt lat="44.52684" lon="4.26637">
        <ele>369</ele>
        <time>2018-06-03T06:33:58.000Z</time>
      </trkpt>
      <trkpt lat="44.52684" lon="4.26632">
        <ele>369</ele>
        <time>2018-06-03T06:33:59.000Z</time>
      </trkpt>
      <trkpt lat="44.52684" lon="4.26628">
        <ele>369</ele>
        <time>2018-06-03T06:34:00.000Z</time>
      </trkpt>
      <trkpt lat="44.52684" lon="4.26624">
        <ele>369</ele>
        <time>2018-06-03T06:34:01.000Z</time>
      </trkpt>
      <trkpt lat="44.52685" lon="4.2662">
        <ele>369</ele>
        <time>2018-06-03T06:34:02.000Z</time>
      </trkpt>
      <trkpt lat="44.52687" lon="4.26616">
        <ele>369</ele>
        <time>2018-06-03T06:34:03.000Z</time>
      </trkpt>
      <trkpt lat="44.52688" lon="4.26611">
        <ele>369</ele>
        <time>2018-06-03T06:34:04.000Z</time>
      </trkpt>
      <trkpt lat="44.52689" lon="4.26606">
        <ele>369</ele>
        <time>2018-06-03T06:34:05.000Z</time>
      </trkpt>
      <trkpt lat="44.5269" lon="4.26601">
        <ele>368</ele>
        <time>2018-06-03T06:34:06.000Z</time>
      </trkpt>
      <trkpt lat="44.52691" lon="4.26598">
        <ele>368</ele>
        <time>2018-06-03T06:34:07.000Z</time>
      </trkpt>
      <trkpt lat="44.52693" lon="4.26596">
        <ele>368</ele>
        <time>2018-06-03T06:34:08.000Z</time>
      </trkpt>
      <trkpt lat="44.52695" lon="4.26594">
        <ele>369</ele>
        <time>2018-06-03T06:34:09.000Z</time>
      </trkpt>
      <trkpt lat="44.52697" lon="4.26592">
        <ele>369</ele>
        <time>2018-06-03T06:34:10.000Z</time>
      </trkpt>
      <trkpt lat="44.527" lon="4.26589">
        <ele>369</ele>
        <time>2018-06-03T06:34:11.000Z</time>
      </trkpt>
      <trkpt lat="44.52702" lon="4.26587">
        <ele>369</ele>
        <time>2018-06-03T06:34:12.000Z</time>
      </trkpt>
      <trkpt lat="44.52705" lon="4.26584">
        <ele>369</ele>
        <time>2018-06-03T06:34:13.000Z</time>
      </trkpt>
      <trkpt lat="44.52707" lon="4.26581">
        <ele>368</ele>
        <time>2018-06-03T06:34:14.000Z</time>
      </trkpt>
      <trkpt lat="44.52709" lon="4.26578">
        <ele>368</ele>
        <time>2018-06-03T06:34:15.000Z</time>
      </trkpt>
      <trkpt lat="44.52712" lon="4.26575">
        <ele>369</ele>
        <time>2018-06-03T06:34:16.000Z</time>
      </trkpt>
      <trkpt lat="44.52714" lon="4.26572">
        <ele>369</ele>
        <time>2018-06-03T06:34:17.000Z</time>
      </trkpt>
      <trkpt lat="44.52716" lon="4.26569">
        <ele>369</ele>
        <time>2018-06-03T06:34:18.000Z</time>
      </trkpt>
      <trkpt lat="44.52718" lon="4.26567">
        <ele>369</ele>
        <time>2018-06-03T06:34:19.000Z</time>
      </trkpt>
      <trkpt lat="44.5272" lon="4.26565">
        <ele>369</ele>
        <time>2018-06-03T06:34:20.000Z</time>
      </trkpt>
      <trkpt lat="44.52722" lon="4.26564">
        <ele>369</ele>
        <time>2018-06-03T06:34:21.000Z</time>
      </trkpt>
      <trkpt lat="44.52724" lon="4.26561">
        <ele>369</ele>
        <time>2018-06-03T06:34:22.000Z</time>
      </trkpt>
      <trkpt lat="44.52726" lon="4.26558">
        <ele>369</ele>
        <time>2018-06-03T06:34:23.000Z</time>
      </trkpt>
      <trkpt lat="44.52729" lon="4.26556">
        <ele>370</ele>
        <time>2018-06-03T06:34:24.000Z</time>
      </trkpt>
      <trkpt lat="44.52732" lon="4.26553">
        <ele>370</ele>
        <time>2018-06-03T06:34:25.000Z</time>
      </trkpt>
      <trkpt lat="44.52733" lon="4.26552">
        <ele>370</ele>
        <time>2018-06-03T06:34:26.000Z</time>
      </trkpt>
      <trkpt lat="44.52735" lon="4.2655">
        <ele>370</ele>
        <time>2018-06-03T06:34:27.000Z</time>
      </trkpt>
      <trkpt lat="44.52735" lon="4.26547">
        <ele>370</ele>
        <time>2018-06-03T06:34:28.000Z</time>
      </trkpt>
      <trkpt lat="44.52736" lon="4.26544">
        <ele>369</ele>
        <time>2018-06-03T06:34:29.000Z</time>
      </trkpt>
      <trkpt lat="44.52737" lon="4.26542">
        <ele>369</ele>
        <time>2018-06-03T06:34:30.000Z</time>
      </trkpt>
      <trkpt lat="44.52739" lon="4.2654">
        <ele>370</ele>
        <time>2018-06-03T06:34:31.000Z</time>
      </trkpt>
      <trkpt lat="44.5274" lon="4.26538">
        <ele>370</ele>
        <time>2018-06-03T06:34:32.000Z</time>
      </trkpt>
      <trkpt lat="44.52741" lon="4.26536">
        <ele>370</ele>
        <time>2018-06-03T06:34:33.000Z</time>
      </trkpt>
      <trkpt lat="44.52742" lon="4.26533">
        <ele>370</ele>
        <time>2018-06-03T06:34:34.000Z</time>
      </trkpt>
      <trkpt lat="44.52744" lon="4.2653">
        <ele>370</ele>
        <time>2018-06-03T06:34:35.000Z</time>
      </trkpt>
      <trkpt lat="44.52745" lon="4.26528">
        <ele>370</ele>
        <time>2018-06-03T06:34:36.000Z</time>
      </trkpt>
      <trkpt lat="44.52747" lon="4.26526">
        <ele>370</ele>
        <time>2018-06-03T06:34:37.000Z</time>
      </trkpt>
      <trkpt lat="44.52749" lon="4.26524">
        <ele>370</ele>
        <time>2018-06-03T06:34:38.000Z</time>
      </trkpt>
      <trkpt lat="44.5275" lon="4.26522">
        <ele>374</ele>
        <time>2018-06-03T06:34:39.000Z</time>
      </trkpt>
      <trkpt lat="44.52751" lon="4.26519">
        <ele>374</ele>
        <time>2018-06-03T06:34:40.000Z</time>
      </trkpt>
      <trkpt lat="44.52753" lon="4.26516">
        <ele>374</ele>
        <time>2018-06-03T06:34:41.000Z</time>
      </trkpt>
      <trkpt lat="44.52754" lon="4.26514">
        <ele>374</ele>
        <time>2018-06-03T06:34:42.000Z</time>
      </trkpt>
      <trkpt lat="44.52756" lon="4.26511">
        <ele>374</ele>
        <time>2018-06-03T06:34:43.000Z</time>
      </trkpt>
      <trkpt lat="44.52758" lon="4.26508">
        <ele>374</ele>
        <time>2018-06-03T06:34:44.000Z</time>
      </trkpt>
      <trkpt lat="44.5276" lon="4.26506">
        <ele>374</ele>
        <time>2018-06-03T06:34:45.000Z</time>
      </trkpt>
      <trkpt lat="44.52761" lon="4.26503">
        <ele>374</ele>
        <time>2018-06-03T06:34:46.000Z</time>
      </trkpt>
      <trkpt lat="44.52763" lon="4.265">
        <ele>374</ele>
        <time>2018-06-03T06:34:47.000Z</time>
      </trkpt>
      <trkpt lat="44.52765" lon="4.26497">
        <ele>374</ele>
        <time>2018-06-03T06:34:48.000Z</time>
      </trkpt>
      <trkpt lat="44.52767" lon="4.26494">
        <ele>374</ele>
        <time>2018-06-03T06:34:49.000Z</time>
      </trkpt>
      <trkpt lat="44.52769" lon="4.26491">
        <ele>374</ele>
        <time>2018-06-03T06:34:50.000Z</time>
      </trkpt>
      <trkpt lat="44.52772" lon="4.26488">
        <ele>374</ele>
        <time>2018-06-03T06:34:51.000Z</time>
      </trkpt>
      <trkpt lat="44.52774" lon="4.26485">
        <ele>374</ele>
        <time>2018-06-03T06:34:52.000Z</time>
      </trkpt>
      <trkpt lat="44.52775" lon="4.26483">
        <ele>374</ele>
        <time>2018-06-03T06:34:53.000Z</time>
      </trkpt>
      <trkpt lat="44.52777" lon="4.2648">
        <ele>374</ele>
        <time>2018-06-03T06:34:54.000Z</time>
      </trkpt>
      <trkpt lat="44.52779" lon="4.26478">
        <ele>374</ele>
        <time>2018-06-03T06:34:55.000Z</time>
      </trkpt>
      <trkpt lat="44.52781" lon="4.26475">
        <ele>374</ele>
        <time>2018-06-03T06:34:56.000Z</time>
      </trkpt>
      <trkpt lat="44.52783" lon="4.26474">
        <ele>374</ele>
        <time>2018-06-03T06:34:57.000Z</time>
      </trkpt>
      <trkpt lat="44.52784" lon="4.26473">
        <ele>374</ele>
        <time>2018-06-03T06:34:58.000Z</time>
      </trkpt>
      <trkpt lat="44.52786" lon="4.26471">
        <ele>374</ele>
        <time>2018-06-03T06:34:59.000Z</time>
      </trkpt>
      <trkpt lat="44.52788" lon="4.2647">
        <ele>374</ele>
        <time>2018-06-03T06:35:00.000Z</time>
      </trkpt>
      <trkpt lat="44.5279" lon="4.26469">
        <ele>374</ele>
        <time>2018-06-03T06:35:01.000Z</time>
      </trkpt>
      <trkpt lat="44.52792" lon="4.26467">
        <ele>374</ele>
        <time>2018-06-03T06:35:02.000Z</time>
      </trkpt>
      <trkpt lat="44.52794" lon="4.26465">
        <ele>374</ele>
        <time>2018-06-03T06:35:03.000Z</time>
      </trkpt>
      <trkpt lat="44.52795" lon="4.26462">
        <ele>374</ele>
        <time>2018-06-03T06:35:04.000Z</time>
      </trkpt>
      <trkpt lat="44.52796" lon="4.26459">
        <ele>374</ele>
        <time>2018-06-03T06:35:05.000Z</time>
      </trkpt>
      <trkpt lat="44.52798" lon="4.26457">
        <ele>375</ele>
        <time>2018-06-03T06:35:06.000Z</time>
      </trkpt>
      <trkpt lat="44.528" lon="4.26455">
        <ele>375</ele>
        <time>2018-06-03T06:35:07.000Z</time>
      </trkpt>
      <trkpt lat="44.52802" lon="4.26453">
        <ele>375</ele>
        <time>2018-06-03T06:35:08.000Z</time>
      </trkpt>
      <trkpt lat="44.52804" lon="4.26451">
        <ele>375</ele>
        <time>2018-06-03T06:35:09.000Z</time>
      </trkpt>
      <trkpt lat="44.52806" lon="4.26449">
        <ele>375</ele>
        <time>2018-06-03T06:35:10.000Z</time>
      </trkpt>
      <trkpt lat="44.52808" lon="4.26448">
        <ele>375</ele>
        <time>2018-06-03T06:35:11.000Z</time>
      </trkpt>
      <trkpt lat="44.5281" lon="4.26446">
        <ele>375</ele>
        <time>2018-06-03T06:35:12.000Z</time>
      </trkpt>
      <trkpt lat="44.52812" lon="4.26445">
        <ele>375</ele>
        <time>2018-06-03T06:35:13.000Z</time>
      </trkpt>
      <trkpt lat="44.52814" lon="4.26443">
        <ele>375</ele>
        <time>2018-06-03T06:35:14.000Z</time>
      </trkpt>
      <trkpt lat="44.52815" lon="4.2644">
        <ele>375</ele>
        <time>2018-06-03T06:35:15.000Z</time>
      </trkpt>
      <trkpt lat="44.52816" lon="4.26437">
        <ele>375</ele>
        <time>2018-06-03T06:35:16.000Z</time>
      </trkpt>
      <trkpt lat="44.52819" lon="4.26435">
        <ele>376</ele>
        <time>2018-06-03T06:35:17.000Z</time>
      </trkpt>
      <trkpt lat="44.52822" lon="4.26433">
        <ele>376</ele>
        <time>2018-06-03T06:35:18.000Z</time>
      </trkpt>
      <trkpt lat="44.52825" lon="4.26433">
        <ele>376</ele>
        <time>2018-06-03T06:35:19.000Z</time>
      </trkpt>
      <trkpt lat="44.52828" lon="4.26432">
        <ele>376</ele>
        <time>2018-06-03T06:35:20.000Z</time>
      </trkpt>
      <trkpt lat="44.52831" lon="4.26431">
        <ele>376</ele>
        <time>2018-06-03T06:35:21.000Z</time>
      </trkpt>
      <trkpt lat="44.52834" lon="4.26429">
        <ele>378</ele>
        <time>2018-06-03T06:35:22.000Z</time>
      </trkpt>
      <trkpt lat="44.52837" lon="4.26428">
        <ele>378</ele>
        <time>2018-06-03T06:35:23.000Z</time>
      </trkpt>
      <trkpt lat="44.5284" lon="4.26426">
        <ele>378</ele>
        <time>2018-06-03T06:35:24.000Z</time>
      </trkpt>
      <trkpt lat="44.52842" lon="4.26423">
        <ele>378</ele>
        <time>2018-06-03T06:35:25.000Z</time>
      </trkpt>
      <trkpt lat="44.52843" lon="4.26421">
        <ele>378</ele>
        <time>2018-06-03T06:35:26.000Z</time>
      </trkpt>
      <trkpt lat="44.52843" lon="4.26419">
        <ele>378</ele>
        <time>2018-06-03T06:35:27.000Z</time>
      </trkpt>
      <trkpt lat="44.52843" lon="4.26417">
        <ele>378</ele>
        <time>2018-06-03T06:35:28.000Z</time>
      </trkpt>
      <trkpt lat="44.52843" lon="4.26415">
        <ele>377</ele>
        <time>2018-06-03T06:35:29.000Z</time>
      </trkpt>
      <trkpt lat="44.52843" lon="4.26412">
        <ele>377</ele>
        <time>2018-06-03T06:35:30.000Z</time>
      </trkpt>
      <trkpt lat="44.52843" lon="4.26409">
        <ele>377</ele>
        <time>2018-06-03T06:35:31.000Z</time>
      </trkpt>
      <trkpt lat="44.52843" lon="4.26407">
        <ele>377</ele>
        <time>2018-06-03T06:35:32.000Z</time>
      </trkpt>
      <trkpt lat="44.52843" lon="4.26404">
        <ele>377</ele>
        <time>2018-06-03T06:35:33.000Z</time>
      </trkpt>
      <trkpt lat="44.52843" lon="4.26401">
        <ele>377</ele>
        <time>2018-06-03T06:35:34.000Z</time>
      </trkpt>
      <trkpt lat="44.52844" lon="4.26399">
        <ele>377</ele>
        <time>2018-06-03T06:35:35.000Z</time>
      </trkpt>
      <trkpt lat="44.52845" lon="4.26396">
        <ele>376</ele>
        <time>2018-06-03T06:35:36.000Z</time>
      </trkpt>
      <trkpt lat="44.52845" lon="4.26393">
        <ele>376</ele>
        <time>2018-06-03T06:35:37.000Z</time>
      </trkpt>
      <trkpt lat="44.52846" lon="4.2639">
        <ele>376</ele>
        <time>2018-06-03T06:35:38.000Z</time>
      </trkpt>
      <trkpt lat="44.52846" lon="4.26388">
        <ele>376</ele>
        <time>2018-06-03T06:35:39.000Z</time>
      </trkpt>
      <trkpt lat="44.52846" lon="4.26385">
        <ele>376</ele>
        <time>2018-06-03T06:35:40.000Z</time>
      </trkpt>
      <trkpt lat="44.52845" lon="4.26382">
        <ele>376</ele>
        <time>2018-06-03T06:35:41.000Z</time>
      </trkpt>
      <trkpt lat="44.52845" lon="4.26379">
        <ele>376</ele>
        <time>2018-06-03T06:35:42.000Z</time>
      </trkpt>
      <trkpt lat="44.52845" lon="4.26377">
        <ele>376</ele>
        <time>2018-06-03T06:35:43.000Z</time>
      </trkpt>
      <trkpt lat="44.52844" lon="4.26374">
        <ele>376</ele>
        <time>2018-06-03T06:35:44.000Z</time>
      </trkpt>
      <trkpt lat="44.52843" lon="4.26371">
        <ele>376</ele>
        <time>2018-06-03T06:35:45.000Z</time>
      </trkpt>
      <trkpt lat="44.52843" lon="4.26369">
        <ele>376</ele>
        <time>2018-06-03T06:35:46.000Z</time>
      </trkpt>
      <trkpt lat="44.52842" lon="4.26366">
        <ele>376</ele>
        <time>2018-06-03T06:35:47.000Z</time>
      </trkpt>
      <trkpt lat="44.52841" lon="4.26363">
        <ele>376</ele>
        <time>2018-06-03T06:35:48.000Z</time>
      </trkpt>
      <trkpt lat="44.52839" lon="4.26362">
        <ele>376</ele>
        <time>2018-06-03T06:35:49.000Z</time>
      </trkpt>
      <trkpt lat="44.52837" lon="4.26362">
        <ele>376</ele>
        <time>2018-06-03T06:35:50.000Z</time>
      </trkpt>
      <trkpt lat="44.52836" lon="4.26363">
        <ele>376</ele>
        <time>2018-06-03T06:35:51.000Z</time>
      </trkpt>
      <trkpt lat="44.52834" lon="4.26364">
        <ele>376</ele>
        <time>2018-06-03T06:35:52.000Z</time>
      </trkpt>
      <trkpt lat="44.52832" lon="4.26363">
        <ele>372</ele>
        <time>2018-06-03T06:35:53.000Z</time>
      </trkpt>
      <trkpt lat="44.5283" lon="4.2636">
        <ele>372</ele>
        <time>2018-06-03T06:35:54.000Z</time>
      </trkpt>
      <trkpt lat="44.52828" lon="4.26357">
        <ele>372</ele>
        <time>2018-06-03T06:35:55.000Z</time>
      </trkpt>
      <trkpt lat="44.52826" lon="4.26355">
        <ele>372</ele>
        <time>2018-06-03T06:35:56.000Z</time>
      </trkpt>
      <trkpt lat="44.52825" lon="4.26353">
        <ele>372</ele>
        <time>2018-06-03T06:35:57.000Z</time>
      </trkpt>
      <trkpt lat="44.52822" lon="4.26351">
        <ele>372</ele>
        <time>2018-06-03T06:35:58.000Z</time>
      </trkpt>
      <trkpt lat="44.5282" lon="4.26347">
        <ele>372</ele>
        <time>2018-06-03T06:35:59.000Z</time>
      </trkpt>
      <trkpt lat="44.52819" lon="4.26344">
        <ele>372</ele>
        <time>2018-06-03T06:36:00.000Z</time>
      </trkpt>
      <trkpt lat="44.52817" lon="4.2634">
        <ele>372</ele>
        <time>2018-06-03T06:36:01.000Z</time>
      </trkpt>
      <trkpt lat="44.52817" lon="4.26338">
        <ele>372</ele>
        <time>2018-06-03T06:36:02.000Z</time>
      </trkpt>
      <trkpt lat="44.52816" lon="4.26335">
        <ele>372</ele>
        <time>2018-06-03T06:36:03.000Z</time>
      </trkpt>
      <trkpt lat="44.52816" lon="4.26331">
        <ele>372</ele>
        <time>2018-06-03T06:36:04.000Z</time>
      </trkpt>
      <trkpt lat="44.52817" lon="4.26329">
        <ele>372</ele>
        <time>2018-06-03T06:36:05.000Z</time>
      </trkpt>
      <trkpt lat="44.52818" lon="4.26326">
        <ele>372</ele>
        <time>2018-06-03T06:36:06.000Z</time>
      </trkpt>
      <trkpt lat="44.5282" lon="4.26325">
        <ele>372</ele>
        <time>2018-06-03T06:36:07.000Z</time>
      </trkpt>
      <trkpt lat="44.52823" lon="4.26323">
        <ele>372</ele>
        <time>2018-06-03T06:36:08.000Z</time>
      </trkpt>
      <trkpt lat="44.52826" lon="4.26321">
        <ele>372</ele>
        <time>2018-06-03T06:36:09.000Z</time>
      </trkpt>
      <trkpt lat="44.52829" lon="4.26319">
        <ele>373</ele>
        <time>2018-06-03T06:36:10.000Z</time>
      </trkpt>
      <trkpt lat="44.52832" lon="4.26317">
        <ele>372</ele>
        <time>2018-06-03T06:36:11.000Z</time>
      </trkpt>
      <trkpt lat="44.52835" lon="4.26315">
        <ele>376</ele>
        <time>2018-06-03T06:36:12.000Z</time>
      </trkpt>
      <trkpt lat="44.52839" lon="4.26313">
        <ele>376</ele>
        <time>2018-06-03T06:36:13.000Z</time>
      </trkpt>
      <trkpt lat="44.52842" lon="4.26311">
        <ele>376</ele>
        <time>2018-06-03T06:36:14.000Z</time>
      </trkpt>
      <trkpt lat="44.52845" lon="4.26309">
        <ele>376</ele>
        <time>2018-06-03T06:36:15.000Z</time>
      </trkpt>
      <trkpt lat="44.52847" lon="4.26306">
        <ele>376</ele>
        <time>2018-06-03T06:36:16.000Z</time>
      </trkpt>
      <trkpt lat="44.52847" lon="4.26301">
        <ele>376</ele>
        <time>2018-06-03T06:36:17.000Z</time>
      </trkpt>
      <trkpt lat="44.52847" lon="4.26296">
        <ele>376</ele>
        <time>2018-06-03T06:36:18.000Z</time>
      </trkpt>
      <trkpt lat="44.52848" lon="4.26293">
        <ele>376</ele>
        <time>2018-06-03T06:36:19.000Z</time>
      </trkpt>
      <trkpt lat="44.52849" lon="4.2629">
        <ele>376</ele>
        <time>2018-06-03T06:36:20.000Z</time>
      </trkpt>
      <trkpt lat="44.5285" lon="4.26287">
        <ele>376</ele>
        <time>2018-06-03T06:36:21.000Z</time>
      </trkpt>
      <trkpt lat="44.52851" lon="4.26285">
        <ele>376</ele>
        <time>2018-06-03T06:36:22.000Z</time>
      </trkpt>
      <trkpt lat="44.52853" lon="4.26283">
        <ele>376</ele>
        <time>2018-06-03T06:36:23.000Z</time>
      </trkpt>
      <trkpt lat="44.52855" lon="4.26281">
        <ele>376</ele>
        <time>2018-06-03T06:36:24.000Z</time>
      </trkpt>
      <trkpt lat="44.52855" lon="4.26278">
        <ele>376</ele>
        <time>2018-06-03T06:36:25.000Z</time>
      </trkpt>
      <trkpt lat="44.52855" lon="4.26274">
        <ele>376</ele>
        <time>2018-06-03T06:36:26.000Z</time>
      </trkpt>
      <trkpt lat="44.52855" lon="4.2627">
        <ele>377</ele>
        <time>2018-06-03T06:36:27.000Z</time>
      </trkpt>
      <trkpt lat="44.52855" lon="4.26266">
        <ele>377</ele>
        <time>2018-06-03T06:36:28.000Z</time>
      </trkpt>
      <trkpt lat="44.52854" lon="4.26262">
        <ele>377</ele>
        <time>2018-06-03T06:36:29.000Z</time>
      </trkpt>
      <trkpt lat="44.52853" lon="4.26257">
        <ele>377</ele>
        <time>2018-06-03T06:36:30.000Z</time>
      </trkpt>
      <trkpt lat="44.52852" lon="4.26253">
        <ele>376</ele>
        <time>2018-06-03T06:36:31.000Z</time>
      </trkpt>
      <trkpt lat="44.5285" lon="4.26249">
        <ele>380</ele>
        <time>2018-06-03T06:36:32.000Z</time>
      </trkpt>
      <trkpt lat="44.5285" lon="4.26244">
        <ele>380</ele>
        <time>2018-06-03T06:36:33.000Z</time>
      </trkpt>
      <trkpt lat="44.52849" lon="4.2624">
        <ele>380</ele>
        <time>2018-06-03T06:36:34.000Z</time>
      </trkpt>
      <trkpt lat="44.52849" lon="4.26235">
        <ele>381</ele>
        <time>2018-06-03T06:36:35.000Z</time>
      </trkpt>
      <trkpt lat="44.52849" lon="4.26231">
        <ele>381</ele>
        <time>2018-06-03T06:36:36.000Z</time>
      </trkpt>
      <trkpt lat="44.52851" lon="4.26226">
        <ele>382</ele>
        <time>2018-06-03T06:36:37.000Z</time>
      </trkpt>
      <trkpt lat="44.52853" lon="4.26223">
        <ele>382</ele>
        <time>2018-06-03T06:36:38.000Z</time>
      </trkpt>
      <trkpt lat="44.52855" lon="4.2622">
        <ele>382</ele>
        <time>2018-06-03T06:36:39.000Z</time>
      </trkpt>
      <trkpt lat="44.52856" lon="4.26216">
        <ele>383</ele>
        <time>2018-06-03T06:36:40.000Z</time>
      </trkpt>
      <trkpt lat="44.52858" lon="4.26214">
        <ele>383</ele>
        <time>2018-06-03T06:36:41.000Z</time>
      </trkpt>
      <trkpt lat="44.52858" lon="4.26211">
        <ele>383</ele>
        <time>2018-06-03T06:36:42.000Z</time>
      </trkpt>
      <trkpt lat="44.5286" lon="4.26209">
        <ele>383</ele>
        <time>2018-06-03T06:36:43.000Z</time>
      </trkpt>
      <trkpt lat="44.52861" lon="4.26207">
        <ele>384</ele>
        <time>2018-06-03T06:36:44.000Z</time>
      </trkpt>
      <trkpt lat="44.52863" lon="4.26205">
        <ele>384</ele>
        <time>2018-06-03T06:36:45.000Z</time>
      </trkpt>
      <trkpt lat="44.52864" lon="4.26203">
        <ele>384</ele>
        <time>2018-06-03T06:36:46.000Z</time>
      </trkpt>
      <trkpt lat="44.52865" lon="4.26201">
        <ele>384</ele>
        <time>2018-06-03T06:36:47.000Z</time>
      </trkpt>
      <trkpt lat="44.52866" lon="4.26198">
        <ele>384</ele>
        <time>2018-06-03T06:36:48.000Z</time>
      </trkpt>
      <trkpt lat="44.52868" lon="4.26196">
        <ele>384</ele>
        <time>2018-06-03T06:36:49.000Z</time>
      </trkpt>
      <trkpt lat="44.52868" lon="4.26194">
        <ele>385</ele>
        <time>2018-06-03T06:36:50.000Z</time>
      </trkpt>
      <trkpt lat="44.52869" lon="4.26192">
        <ele>385</ele>
        <time>2018-06-03T06:36:51.000Z</time>
      </trkpt>
      <trkpt lat="44.5287" lon="4.2619">
        <ele>385</ele>
        <time>2018-06-03T06:36:52.000Z</time>
      </trkpt>
      <trkpt lat="44.52871" lon="4.26188">
        <ele>385</ele>
        <time>2018-06-03T06:36:53.000Z</time>
      </trkpt>
      <trkpt lat="44.52871" lon="4.26186">
        <ele>385</ele>
        <time>2018-06-03T06:36:54.000Z</time>
      </trkpt>
      <trkpt lat="44.52872" lon="4.26184">
        <ele>385</ele>
        <time>2018-06-03T06:36:55.000Z</time>
      </trkpt>
      <trkpt lat="44.52872" lon="4.26181">
        <ele>385</ele>
        <time>2018-06-03T06:36:56.000Z</time>
      </trkpt>
      <trkpt lat="44.52873" lon="4.2618">
        <ele>385</ele>
        <time>2018-06-03T06:36:57.000Z</time>
      </trkpt>
      <trkpt lat="44.52873" lon="4.26178">
        <ele>385</ele>
        <time>2018-06-03T06:36:58.000Z</time>
      </trkpt>
      <trkpt lat="44.52874" lon="4.26176">
        <ele>385</ele>
        <time>2018-06-03T06:36:59.000Z</time>
      </trkpt>
      <trkpt lat="44.52874" lon="4.26174">
        <ele>386</ele>
        <time>2018-06-03T06:37:00.000Z</time>
      </trkpt>
      <trkpt lat="44.52874" lon="4.26172">
        <ele>386</ele>
        <time>2018-06-03T06:37:01.000Z</time>
      </trkpt>
      <trkpt lat="44.52875" lon="4.2617">
        <ele>386</ele>
        <time>2018-06-03T06:37:02.000Z</time>
      </trkpt>
      <trkpt lat="44.52876" lon="4.26168">
        <ele>386</ele>
        <time>2018-06-03T06:37:03.000Z</time>
      </trkpt>
      <trkpt lat="44.52876" lon="4.26166">
        <ele>393</ele>
        <time>2018-06-03T06:37:04.000Z</time>
      </trkpt>
      <trkpt lat="44.52876" lon="4.26164">
        <ele>393</ele>
        <time>2018-06-03T06:37:05.000Z</time>
      </trkpt>
      <trkpt lat="44.52875" lon="4.26161">
        <ele>393</ele>
        <time>2018-06-03T06:37:06.000Z</time>
      </trkpt>
      <trkpt lat="44.52875" lon="4.26159">
        <ele>393</ele>
        <time>2018-06-03T06:37:07.000Z</time>
      </trkpt>
      <trkpt lat="44.52875" lon="4.26156">
        <ele>394</ele>
        <time>2018-06-03T06:37:08.000Z</time>
      </trkpt>
      <trkpt lat="44.52875" lon="4.26154">
        <ele>394</ele>
        <time>2018-06-03T06:37:09.000Z</time>
      </trkpt>
      <trkpt lat="44.52874" lon="4.26152">
        <ele>394</ele>
        <time>2018-06-03T06:37:10.000Z</time>
      </trkpt>
      <trkpt lat="44.52874" lon="4.2615">
        <ele>394</ele>
        <time>2018-06-03T06:37:11.000Z</time>
      </trkpt>
      <trkpt lat="44.52873" lon="4.26148">
        <ele>394</ele>
        <time>2018-06-03T06:37:12.000Z</time>
      </trkpt>
      <trkpt lat="44.52873" lon="4.26146">
        <ele>394</ele>
        <time>2018-06-03T06:37:13.000Z</time>
      </trkpt>
      <trkpt lat="44.52873" lon="4.26144">
        <ele>394</ele>
        <time>2018-06-03T06:37:14.000Z</time>
      </trkpt>
      <trkpt lat="44.52873" lon="4.26142">
        <ele>394</ele>
        <time>2018-06-03T06:37:15.000Z</time>
      </trkpt>
      <trkpt lat="44.52874" lon="4.2614">
        <ele>395</ele>
        <time>2018-06-03T06:37:16.000Z</time>
      </trkpt>
      <trkpt lat="44.52874" lon="4.26138">
        <ele>395</ele>
        <time>2018-06-03T06:37:17.000Z</time>
      </trkpt>
      <trkpt lat="44.52874" lon="4.26136">
        <ele>395</ele>
        <time>2018-06-03T06:37:18.000Z</time>
      </trkpt>
      <trkpt lat="44.52875" lon="4.26134">
        <ele>395</ele>
        <time>2018-06-03T06:37:19.000Z</time>
      </trkpt>
      <trkpt lat="44.52875" lon="4.26132">
        <ele>395</ele>
        <time>2018-06-03T06:37:20.000Z</time>
      </trkpt>
      <trkpt lat="44.52876" lon="4.2613">
        <ele>395</ele>
        <time>2018-06-03T06:37:21.000Z</time>
      </trkpt>
      <trkpt lat="44.52876" lon="4.26127">
        <ele>396</ele>
        <time>2018-06-03T06:37:22.000Z</time>
      </trkpt>
      <trkpt lat="44.52876" lon="4.26125">
        <ele>396</ele>
        <time>2018-06-03T06:37:23.000Z</time>
      </trkpt>
      <trkpt lat="44.52877" lon="4.26123">
        <ele>396</ele>
        <time>2018-06-03T06:37:24.000Z</time>
      </trkpt>
      <trkpt lat="44.52877" lon="4.26121">
        <ele>396</ele>
        <time>2018-06-03T06:37:25.000Z</time>
      </trkpt>
      <trkpt lat="44.52878" lon="4.26119">
        <ele>396</ele>
        <time>2018-06-03T06:37:26.000Z</time>
      </trkpt>
      <trkpt lat="44.52878" lon="4.26117">
        <ele>396</ele>
        <time>2018-06-03T06:37:27.000Z</time>
      </trkpt>
      <trkpt lat="44.52877" lon="4.26115">
        <ele>397</ele>
        <time>2018-06-03T06:37:28.000Z</time>
      </trkpt>
      <trkpt lat="44.52877" lon="4.26113">
        <ele>397</ele>
        <time>2018-06-03T06:37:29.000Z</time>
      </trkpt>
      <trkpt lat="44.52876" lon="4.26113">
        <ele>397</ele>
        <time>2018-06-03T06:37:30.000Z</time>
      </trkpt>
      <trkpt lat="44.52874" lon="4.26113">
        <ele>397</ele>
        <time>2018-06-03T06:37:31.000Z</time>
      </trkpt>
      <trkpt lat="44.52872" lon="4.26113">
        <ele>397</ele>
        <time>2018-06-03T06:37:32.000Z</time>
      </trkpt>
      <trkpt lat="44.52871" lon="4.26113">
        <ele>397</ele>
        <time>2018-06-03T06:37:33.000Z</time>
      </trkpt>
      <trkpt lat="44.52869" lon="4.26113">
        <ele>397</ele>
        <time>2018-06-03T06:37:34.000Z</time>
      </trkpt>
      <trkpt lat="44.52866" lon="4.26113">
        <ele>397</ele>
        <time>2018-06-03T06:37:35.000Z</time>
      </trkpt>
      <trkpt lat="44.52864" lon="4.26112">
        <ele>397</ele>
        <time>2018-06-03T06:37:36.000Z</time>
      </trkpt>
      <trkpt lat="44.52862" lon="4.26111">
        <ele>397</ele>
        <time>2018-06-03T06:37:37.000Z</time>
      </trkpt>
      <trkpt lat="44.52859" lon="4.26111">
        <ele>397</ele>
        <time>2018-06-03T06:37:38.000Z</time>
      </trkpt>
      <trkpt lat="44.52857" lon="4.2611">
        <ele>397</ele>
        <time>2018-06-03T06:37:39.000Z</time>
      </trkpt>
      <trkpt lat="44.52855" lon="4.26109">
        <ele>398</ele>
        <time>2018-06-03T06:37:40.000Z</time>
      </trkpt>
      <trkpt lat="44.52853" lon="4.26108">
        <ele>398</ele>
        <time>2018-06-03T06:37:41.000Z</time>
      </trkpt>
      <trkpt lat="44.5285" lon="4.26107">
        <ele>398</ele>
        <time>2018-06-03T06:37:42.000Z</time>
      </trkpt>
      <trkpt lat="44.52848" lon="4.26107">
        <ele>398</ele>
        <time>2018-06-03T06:37:43.000Z</time>
      </trkpt>
      <trkpt lat="44.52845" lon="4.26107">
        <ele>398</ele>
        <time>2018-06-03T06:37:44.000Z</time>
      </trkpt>
      <trkpt lat="44.52842" lon="4.26107">
        <ele>398</ele>
        <time>2018-06-03T06:37:45.000Z</time>
      </trkpt>
      <trkpt lat="44.5284" lon="4.26106">
        <ele>399</ele>
        <time>2018-06-03T06:37:46.000Z</time>
      </trkpt>
      <trkpt lat="44.52837" lon="4.26105">
        <ele>399</ele>
        <time>2018-06-03T06:37:47.000Z</time>
      </trkpt>
      <trkpt lat="44.52835" lon="4.26105">
        <ele>399</ele>
        <time>2018-06-03T06:37:48.000Z</time>
      </trkpt>
      <trkpt lat="44.52833" lon="4.26104">
        <ele>398</ele>
        <time>2018-06-03T06:37:49.000Z</time>
      </trkpt>
      <trkpt lat="44.52831" lon="4.26104">
        <ele>398</ele>
        <time>2018-06-03T06:37:50.000Z</time>
      </trkpt>
      <trkpt lat="44.5283" lon="4.26103">
        <ele>398</ele>
        <time>2018-06-03T06:37:51.000Z</time>
      </trkpt>
      <trkpt lat="44.52828" lon="4.26102">
        <ele>398</ele>
        <time>2018-06-03T06:37:52.000Z</time>
      </trkpt>
      <trkpt lat="44.52827" lon="4.26101">
        <ele>398</ele>
        <time>2018-06-03T06:37:53.000Z</time>
      </trkpt>
      <trkpt lat="44.52825" lon="4.261">
        <ele>398</ele>
        <time>2018-06-03T06:37:54.000Z</time>
      </trkpt>
      <trkpt lat="44.52823" lon="4.26099">
        <ele>399</ele>
        <time>2018-06-03T06:37:55.000Z</time>
      </trkpt>
      <trkpt lat="44.52821" lon="4.26098">
        <ele>399</ele>
        <time>2018-06-03T06:37:56.000Z</time>
      </trkpt>
      <trkpt lat="44.5282" lon="4.26096">
        <ele>399</ele>
        <time>2018-06-03T06:37:57.000Z</time>
      </trkpt>
      <trkpt lat="44.52818" lon="4.26094">
        <ele>399</ele>
        <time>2018-06-03T06:37:58.000Z</time>
      </trkpt>
      <trkpt lat="44.52817" lon="4.26093">
        <ele>399</ele>
        <time>2018-06-03T06:37:59.000Z</time>
      </trkpt>
      <trkpt lat="44.52816" lon="4.26091">
        <ele>399</ele>
        <time>2018-06-03T06:38:00.000Z</time>
      </trkpt>
      <trkpt lat="44.52815" lon="4.2609">
        <ele>399</ele>
        <time>2018-06-03T06:38:01.000Z</time>
      </trkpt>
      <trkpt lat="44.52814" lon="4.26089">
        <ele>399</ele>
        <time>2018-06-03T06:38:02.000Z</time>
      </trkpt>
      <trkpt lat="44.52813" lon="4.26087">
        <ele>399</ele>
        <time>2018-06-03T06:38:03.000Z</time>
      </trkpt>
      <trkpt lat="44.52813" lon="4.26085">
        <ele>399</ele>
        <time>2018-06-03T06:38:04.000Z</time>
      </trkpt>
      <trkpt lat="44.52812" lon="4.26084">
        <ele>399</ele>
        <time>2018-06-03T06:38:05.000Z</time>
      </trkpt>
      <trkpt lat="44.52811" lon="4.26081">
        <ele>404</ele>
        <time>2018-06-03T06:38:06.000Z</time>
      </trkpt>
      <trkpt lat="44.5281" lon="4.26079">
        <ele>404</ele>
        <time>2018-06-03T06:38:07.000Z</time>
      </trkpt>
      <trkpt lat="44.5281" lon="4.26077">
        <ele>404</ele>
        <time>2018-06-03T06:38:08.000Z</time>
      </trkpt>
      <trkpt lat="44.5281" lon="4.26075">
        <ele>404</ele>
        <time>2018-06-03T06:38:09.000Z</time>
      </trkpt>
      <trkpt lat="44.5281" lon="4.26073">
        <ele>404</ele>
        <time>2018-06-03T06:38:10.000Z</time>
      </trkpt>
      <trkpt lat="44.52809" lon="4.26071">
        <ele>404</ele>
        <time>2018-06-03T06:38:11.000Z</time>
      </trkpt>
      <trkpt lat="44.52808" lon="4.26069">
        <ele>404</ele>
        <time>2018-06-03T06:38:12.000Z</time>
      </trkpt>
      <trkpt lat="44.52807" lon="4.26067">
        <ele>404</ele>
        <time>2018-06-03T06:38:13.000Z</time>
      </trkpt>
      <trkpt lat="44.52806" lon="4.26064">
        <ele>404</ele>
        <time>2018-06-03T06:38:14.000Z</time>
      </trkpt>
      <trkpt lat="44.52805" lon="4.26062">
        <ele>404</ele>
        <time>2018-06-03T06:38:15.000Z</time>
      </trkpt>
      <trkpt lat="44.52804" lon="4.2606">
        <ele>404</ele>
        <time>2018-06-03T06:38:16.000Z</time>
      </trkpt>
      <trkpt lat="44.52804" lon="4.26059">
        <ele>404</ele>
        <time>2018-06-03T06:38:17.000Z</time>
      </trkpt>
      <trkpt lat="44.52803" lon="4.26057">
        <ele>404</ele>
        <time>2018-06-03T06:38:18.000Z</time>
      </trkpt>
      <trkpt lat="44.52803" lon="4.26055">
        <ele>404</ele>
        <time>2018-06-03T06:38:19.000Z</time>
      </trkpt>
      <trkpt lat="44.52802" lon="4.26052">
        <ele>404</ele>
        <time>2018-06-03T06:38:20.000Z</time>
      </trkpt>
      <trkpt lat="44.52802" lon="4.26051">
        <ele>404</ele>
        <time>2018-06-03T06:38:21.000Z</time>
      </trkpt>
      <trkpt lat="44.52802" lon="4.26048">
        <ele>404</ele>
        <time>2018-06-03T06:38:22.000Z</time>
      </trkpt>
      <trkpt lat="44.52801" lon="4.26046">
        <ele>404</ele>
        <time>2018-06-03T06:38:23.000Z</time>
      </trkpt>
      <trkpt lat="44.52801" lon="4.26044">
        <ele>404</ele>
        <time>2018-06-03T06:38:24.000Z</time>
      </trkpt>
      <trkpt lat="44.52801" lon="4.26042">
        <ele>404</ele>
        <time>2018-06-03T06:38:25.000Z</time>
      </trkpt>
      <trkpt lat="44.52802" lon="4.2604">
        <ele>404</ele>
        <time>2018-06-03T06:38:26.000Z</time>
      </trkpt>
      <trkpt lat="44.52803" lon="4.26037">
        <ele>404</ele>
        <time>2018-06-03T06:38:27.000Z</time>
      </trkpt>
      <trkpt lat="44.52805" lon="4.26035">
        <ele>404</ele>
        <time>2018-06-03T06:38:28.000Z</time>
      </trkpt>
      <trkpt lat="44.52807" lon="4.26033">
        <ele>404</ele>
        <time>2018-06-03T06:38:29.000Z</time>
      </trkpt>
      <trkpt lat="44.52809" lon="4.26031">
        <ele>404</ele>
        <time>2018-06-03T06:38:30.000Z</time>
      </trkpt>
      <trkpt lat="44.52811" lon="4.26029">
        <ele>404</ele>
        <time>2018-06-03T06:38:31.000Z</time>
      </trkpt>
      <trkpt lat="44.52813" lon="4.26027">
        <ele>405</ele>
        <time>2018-06-03T06:38:32.000Z</time>
      </trkpt>
      <trkpt lat="44.52815" lon="4.26025">
        <ele>405</ele>
        <time>2018-06-03T06:38:33.000Z</time>
      </trkpt>
      <trkpt lat="44.52817" lon="4.26023">
        <ele>405</ele>
        <time>2018-06-03T06:38:34.000Z</time>
      </trkpt>
      <trkpt lat="44.5282" lon="4.26021">
        <ele>405</ele>
        <time>2018-06-03T06:38:35.000Z</time>
      </trkpt>
      <trkpt lat="44.52822" lon="4.26019">
        <ele>405</ele>
        <time>2018-06-03T06:38:36.000Z</time>
      </trkpt>
      <trkpt lat="44.52824" lon="4.26018">
        <ele>406</ele>
        <time>2018-06-03T06:38:37.000Z</time>
      </trkpt>
      <trkpt lat="44.52826" lon="4.26017">
        <ele>406</ele>
        <time>2018-06-03T06:38:38.000Z</time>
      </trkpt>
      <trkpt lat="44.52828" lon="4.26015">
        <ele>406</ele>
        <time>2018-06-03T06:38:39.000Z</time>
      </trkpt>
      <trkpt lat="44.5283" lon="4.26014">
        <ele>406</ele>
        <time>2018-06-03T06:38:40.000Z</time>
      </trkpt>
      <trkpt lat="44.52832" lon="4.26014">
        <ele>406</ele>
        <time>2018-06-03T06:38:41.000Z</time>
      </trkpt>
      <trkpt lat="44.52834" lon="4.26014">
        <ele>406</ele>
        <time>2018-06-03T06:38:42.000Z</time>
      </trkpt>
      <trkpt lat="44.52837" lon="4.26015">
        <ele>406</ele>
        <time>2018-06-03T06:38:43.000Z</time>
      </trkpt>
      <trkpt lat="44.52839" lon="4.26015">
        <ele>406</ele>
        <time>2018-06-03T06:38:44.000Z</time>
      </trkpt>
      <trkpt lat="44.52842" lon="4.26017">
        <ele>406</ele>
        <time>2018-06-03T06:38:45.000Z</time>
      </trkpt>
      <trkpt lat="44.52844" lon="4.26017">
        <ele>406</ele>
        <time>2018-06-03T06:38:46.000Z</time>
      </trkpt>
      <trkpt lat="44.52847" lon="4.26018">
        <ele>406</ele>
        <time>2018-06-03T06:38:47.000Z</time>
      </trkpt>
      <trkpt lat="44.5285" lon="4.26019">
        <ele>406</ele>
        <time>2018-06-03T06:38:48.000Z</time>
      </trkpt>
      <trkpt lat="44.52853" lon="4.2602">
        <ele>405</ele>
        <time>2018-06-03T06:38:49.000Z</time>
      </trkpt>
      <trkpt lat="44.52856" lon="4.26019">
        <ele>405</ele>
        <time>2018-06-03T06:38:50.000Z</time>
      </trkpt>
      <trkpt lat="44.52859" lon="4.26018">
        <ele>405</ele>
        <time>2018-06-03T06:38:51.000Z</time>
      </trkpt>
      <trkpt lat="44.52861" lon="4.26015">
        <ele>405</ele>
        <time>2018-06-03T06:38:52.000Z</time>
      </trkpt>
      <trkpt lat="44.52862" lon="4.26012">
        <ele>405</ele>
        <time>2018-06-03T06:38:53.000Z</time>
      </trkpt>
      <trkpt lat="44.52862" lon="4.26008">
        <ele>405</ele>
        <time>2018-06-03T06:38:54.000Z</time>
      </trkpt>
      <trkpt lat="44.52863" lon="4.26004">
        <ele>405</ele>
        <time>2018-06-03T06:38:55.000Z</time>
      </trkpt>
      <trkpt lat="44.52863" lon="4.26001">
        <ele>405</ele>
        <time>2018-06-03T06:38:56.000Z</time>
      </trkpt>
      <trkpt lat="44.52863" lon="4.25997">
        <ele>406</ele>
        <time>2018-06-03T06:38:57.000Z</time>
      </trkpt>
      <trkpt lat="44.52864" lon="4.25993">
        <ele>406</ele>
        <time>2018-06-03T06:38:58.000Z</time>
      </trkpt>
      <trkpt lat="44.52864" lon="4.2599">
        <ele>405</ele>
        <time>2018-06-03T06:38:59.000Z</time>
      </trkpt>
      <trkpt lat="44.52865" lon="4.25987">
        <ele>405</ele>
        <time>2018-06-03T06:39:00.000Z</time>
      </trkpt>
      <trkpt lat="44.52866" lon="4.25984">
        <ele>405</ele>
        <time>2018-06-03T06:39:01.000Z</time>
      </trkpt>
      <trkpt lat="44.52866" lon="4.2598">
        <ele>405</ele>
        <time>2018-06-03T06:39:02.000Z</time>
      </trkpt>
      <trkpt lat="44.52867" lon="4.25977">
        <ele>405</ele>
        <time>2018-06-03T06:39:03.000Z</time>
      </trkpt>
      <trkpt lat="44.52868" lon="4.25973">
        <ele>405</ele>
        <time>2018-06-03T06:39:04.000Z</time>
      </trkpt>
      <trkpt lat="44.52868" lon="4.2597">
        <ele>405</ele>
        <time>2018-06-03T06:39:05.000Z</time>
      </trkpt>
      <trkpt lat="44.52869" lon="4.25966">
        <ele>405</ele>
        <time>2018-06-03T06:39:06.000Z</time>
      </trkpt>
      <trkpt lat="44.52869" lon="4.25963">
        <ele>405</ele>
        <time>2018-06-03T06:39:07.000Z</time>
      </trkpt>
      <trkpt lat="44.5287" lon="4.25959">
        <ele>405</ele>
        <time>2018-06-03T06:39:08.000Z</time>
      </trkpt>
      <trkpt lat="44.52871" lon="4.25955">
        <ele>405</ele>
        <time>2018-06-03T06:39:09.000Z</time>
      </trkpt>
      <trkpt lat="44.52872" lon="4.25951">
        <ele>405</ele>
        <time>2018-06-03T06:39:10.000Z</time>
      </trkpt>
      <trkpt lat="44.52874" lon="4.25946">
        <ele>405</ele>
        <time>2018-06-03T06:39:11.000Z</time>
      </trkpt>
      <trkpt lat="44.52875" lon="4.25941">
        <ele>404</ele>
        <time>2018-06-03T06:39:12.000Z</time>
      </trkpt>
      <trkpt lat="44.52877" lon="4.25937">
        <ele>404</ele>
        <time>2018-06-03T06:39:13.000Z</time>
      </trkpt>
      <trkpt lat="44.52879" lon="4.25936">
        <ele>404</ele>
        <time>2018-06-03T06:39:14.000Z</time>
      </trkpt>
      <trkpt lat="44.52882" lon="4.25935">
        <ele>405</ele>
        <time>2018-06-03T06:39:15.000Z</time>
      </trkpt>
      <trkpt lat="44.52887" lon="4.25933">
        <ele>405</ele>
        <time>2018-06-03T06:39:16.000Z</time>
      </trkpt>
      <trkpt lat="44.52891" lon="4.2593">
        <ele>405</ele>
        <time>2018-06-03T06:39:17.000Z</time>
      </trkpt>
      <trkpt lat="44.52893" lon="4.25925">
        <ele>405</ele>
        <time>2018-06-03T06:39:18.000Z</time>
      </trkpt>
      <trkpt lat="44.52894" lon="4.2592">
        <ele>405</ele>
        <time>2018-06-03T06:39:19.000Z</time>
      </trkpt>
      <trkpt lat="44.52894" lon="4.25915">
        <ele>404</ele>
        <time>2018-06-03T06:39:20.000Z</time>
      </trkpt>
      <trkpt lat="44.52895" lon="4.25908">
        <ele>404</ele>
        <time>2018-06-03T06:39:21.000Z</time>
      </trkpt>
      <trkpt lat="44.52894" lon="4.25902">
        <ele>404</ele>
        <time>2018-06-03T06:39:22.000Z</time>
      </trkpt>
      <trkpt lat="44.52895" lon="4.25895">
        <ele>404</ele>
        <time>2018-06-03T06:39:23.000Z</time>
      </trkpt>
      <trkpt lat="44.52895" lon="4.2589">
        <ele>403</ele>
        <time>2018-06-03T06:39:24.000Z</time>
      </trkpt>
      <trkpt lat="44.52896" lon="4.25884">
        <ele>403</ele>
        <time>2018-06-03T06:39:25.000Z</time>
      </trkpt>
      <trkpt lat="44.52896" lon="4.25878">
        <ele>403</ele>
        <time>2018-06-03T06:39:26.000Z</time>
      </trkpt>
      <trkpt lat="44.52896" lon="4.25872">
        <ele>403</ele>
        <time>2018-06-03T06:39:27.000Z</time>
      </trkpt>
      <trkpt lat="44.52896" lon="4.25866">
        <ele>403</ele>
        <time>2018-06-03T06:39:28.000Z</time>
      </trkpt>
      <trkpt lat="44.52896" lon="4.2586">
        <ele>403</ele>
        <time>2018-06-03T06:39:29.000Z</time>
      </trkpt>
      <trkpt lat="44.52895" lon="4.25854">
        <ele>404</ele>
        <time>2018-06-03T06:39:30.000Z</time>
      </trkpt>
      <trkpt lat="44.52894" lon="4.25848">
        <ele>404</ele>
        <time>2018-06-03T06:39:31.000Z</time>
      </trkpt>
      <trkpt lat="44.52892" lon="4.25843">
        <ele>404</ele>
        <time>2018-06-03T06:39:32.000Z</time>
      </trkpt>
      <trkpt lat="44.52891" lon="4.25837">
        <ele>404</ele>
        <time>2018-06-03T06:39:33.000Z</time>
      </trkpt>
      <trkpt lat="44.5289" lon="4.25833">
        <ele>405</ele>
        <time>2018-06-03T06:39:34.000Z</time>
      </trkpt>
      <trkpt lat="44.52891" lon="4.2583">
        <ele>405</ele>
        <time>2018-06-03T06:39:35.000Z</time>
      </trkpt>
      <trkpt lat="44.52893" lon="4.25827">
        <ele>405</ele>
        <time>2018-06-03T06:39:36.000Z</time>
      </trkpt>
      <trkpt lat="44.52894" lon="4.25827">
        <ele>405</ele>
        <time>2018-06-03T06:39:37.000Z</time>
      </trkpt>
      <trkpt lat="44.52896" lon="4.25827">
        <ele>405</ele>
        <time>2018-06-03T06:39:38.000Z</time>
      </trkpt>
      <trkpt lat="44.52899" lon="4.25826">
        <ele>405</ele>
        <time>2018-06-03T06:39:39.000Z</time>
      </trkpt>
      <trkpt lat="44.52902" lon="4.25825">
        <ele>405</ele>
        <time>2018-06-03T06:39:40.000Z</time>
      </trkpt>
      <trkpt lat="44.52905" lon="4.25823">
        <ele>405</ele>
        <time>2018-06-03T06:39:41.000Z</time>
      </trkpt>
      <trkpt lat="44.52908" lon="4.25821">
        <ele>406</ele>
        <time>2018-06-03T06:39:42.000Z</time>
      </trkpt>
      <trkpt lat="44.52911" lon="4.25819">
        <ele>406</ele>
        <time>2018-06-03T06:39:43.000Z</time>
      </trkpt>
      <trkpt lat="44.52915" lon="4.25816">
        <ele>406</ele>
        <time>2018-06-03T06:39:44.000Z</time>
      </trkpt>
      <trkpt lat="44.52918" lon="4.25814">
        <ele>406</ele>
        <time>2018-06-03T06:39:45.000Z</time>
      </trkpt>
      <trkpt lat="44.52921" lon="4.2581">
        <ele>406</ele>
        <time>2018-06-03T06:39:46.000Z</time>
      </trkpt>
      <trkpt lat="44.52923" lon="4.25805">
        <ele>406</ele>
        <time>2018-06-03T06:39:47.000Z</time>
      </trkpt>
      <trkpt lat="44.52924" lon="4.258">
        <ele>406</ele>
        <time>2018-06-03T06:39:48.000Z</time>
      </trkpt>
      <trkpt lat="44.52925" lon="4.25796">
        <ele>406</ele>
        <time>2018-06-03T06:39:49.000Z</time>
      </trkpt>
      <trkpt lat="44.52925" lon="4.25793">
        <ele>406</ele>
        <time>2018-06-03T06:39:50.000Z</time>
      </trkpt>
      <trkpt lat="44.52926" lon="4.2579">
        <ele>407</ele>
        <time>2018-06-03T06:39:51.000Z</time>
      </trkpt>
      <trkpt lat="44.52927" lon="4.25787">
        <ele>407</ele>
        <time>2018-06-03T06:39:52.000Z</time>
      </trkpt>
      <trkpt lat="44.52928" lon="4.25784">
        <ele>407</ele>
        <time>2018-06-03T06:39:53.000Z</time>
      </trkpt>
      <trkpt lat="44.52929" lon="4.25781">
        <ele>407</ele>
        <time>2018-06-03T06:39:54.000Z</time>
      </trkpt>
      <trkpt lat="44.5293" lon="4.25778">
        <ele>407</ele>
        <time>2018-06-03T06:39:55.000Z</time>
      </trkpt>
      <trkpt lat="44.5293" lon="4.25775">
        <ele>408</ele>
        <time>2018-06-03T06:39:56.000Z</time>
      </trkpt>
      <trkpt lat="44.52931" lon="4.25772">
        <ele>408</ele>
        <time>2018-06-03T06:39:57.000Z</time>
      </trkpt>
      <trkpt lat="44.52931" lon="4.2577">
        <ele>408</ele>
        <time>2018-06-03T06:39:58.000Z</time>
      </trkpt>
      <trkpt lat="44.52932" lon="4.25768">
        <ele>408</ele>
        <time>2018-06-03T06:39:59.000Z</time>
      </trkpt>
      <trkpt lat="44.52934" lon="4.25765">
        <ele>408</ele>
        <time>2018-06-03T06:40:00.000Z</time>
      </trkpt>
      <trkpt lat="44.52935" lon="4.25762">
        <ele>408</ele>
        <time>2018-06-03T06:40:01.000Z</time>
      </trkpt>
      <trkpt lat="44.52936" lon="4.25759">
        <ele>409</ele>
        <time>2018-06-03T06:40:02.000Z</time>
      </trkpt>
      <trkpt lat="44.52938" lon="4.25756">
        <ele>409</ele>
        <time>2018-06-03T06:40:03.000Z</time>
      </trkpt>
      <trkpt lat="44.5294" lon="4.25754">
        <ele>408</ele>
        <time>2018-06-03T06:40:04.000Z</time>
      </trkpt>
      <trkpt lat="44.52941" lon="4.25751">
        <ele>408</ele>
        <time>2018-06-03T06:40:05.000Z</time>
      </trkpt>
      <trkpt lat="44.52943" lon="4.25748">
        <ele>412</ele>
        <time>2018-06-03T06:40:06.000Z</time>
      </trkpt>
      <trkpt lat="44.52944" lon="4.25745">
        <ele>412</ele>
        <time>2018-06-03T06:40:07.000Z</time>
      </trkpt>
      <trkpt lat="44.52945" lon="4.25742">
        <ele>412</ele>
        <time>2018-06-03T06:40:08.000Z</time>
      </trkpt>
      <trkpt lat="44.52947" lon="4.25739">
        <ele>412</ele>
        <time>2018-06-03T06:40:09.000Z</time>
      </trkpt>
      <trkpt lat="44.52947" lon="4.25736">
        <ele>412</ele>
        <time>2018-06-03T06:40:10.000Z</time>
      </trkpt>
      <trkpt lat="44.52947" lon="4.25733">
        <ele>412</ele>
        <time>2018-06-03T06:40:11.000Z</time>
      </trkpt>
      <trkpt lat="44.52948" lon="4.25731">
        <ele>412</ele>
        <time>2018-06-03T06:40:12.000Z</time>
      </trkpt>
      <trkpt lat="44.52948" lon="4.25728">
        <ele>412</ele>
        <time>2018-06-03T06:40:13.000Z</time>
      </trkpt>
      <trkpt lat="44.52948" lon="4.25726">
        <ele>412</ele>
        <time>2018-06-03T06:40:14.000Z</time>
      </trkpt>
      <trkpt lat="44.52948" lon="4.25723">
        <ele>412</ele>
        <time>2018-06-03T06:40:15.000Z</time>
      </trkpt>
      <trkpt lat="44.52948" lon="4.2572">
        <ele>412</ele>
        <time>2018-06-03T06:40:16.000Z</time>
      </trkpt>
      <trkpt lat="44.52948" lon="4.25718">
        <ele>412</ele>
        <time>2018-06-03T06:40:17.000Z</time>
      </trkpt>
      <trkpt lat="44.52947" lon="4.25715">
        <ele>412</ele>
        <time>2018-06-03T06:40:18.000Z</time>
      </trkpt>
      <trkpt lat="44.52947" lon="4.25713">
        <ele>413</ele>
        <time>2018-06-03T06:40:19.000Z</time>
      </trkpt>
      <trkpt lat="44.52947" lon="4.2571">
        <ele>413</ele>
        <time>2018-06-03T06:40:20.000Z</time>
      </trkpt>
      <trkpt lat="44.52947" lon="4.25707">
        <ele>413</ele>
        <time>2018-06-03T06:40:21.000Z</time>
      </trkpt>
      <trkpt lat="44.52946" lon="4.25704">
        <ele>413</ele>
        <time>2018-06-03T06:40:22.000Z</time>
      </trkpt>
      <trkpt lat="44.52945" lon="4.25701">
        <ele>413</ele>
        <time>2018-06-03T06:40:23.000Z</time>
      </trkpt>
      <trkpt lat="44.52945" lon="4.25697">
        <ele>413</ele>
        <time>2018-06-03T06:40:24.000Z</time>
      </trkpt>
      <trkpt lat="44.52945" lon="4.25695">
        <ele>413</ele>
        <time>2018-06-03T06:40:25.000Z</time>
      </trkpt>
      <trkpt lat="44.52944" lon="4.25693">
        <ele>413</ele>
        <time>2018-06-03T06:40:26.000Z</time>
      </trkpt>
      <trkpt lat="44.52944" lon="4.2569">
        <ele>413</ele>
        <time>2018-06-03T06:40:27.000Z</time>
      </trkpt>
      <trkpt lat="44.52944" lon="4.25687">
        <ele>414</ele>
        <time>2018-06-03T06:40:28.000Z</time>
      </trkpt>
      <trkpt lat="44.52943" lon="4.25684">
        <ele>414</ele>
        <time>2018-06-03T06:40:29.000Z</time>
      </trkpt>
      <trkpt lat="44.52943" lon="4.25681">
        <ele>414</ele>
        <time>2018-06-03T06:40:30.000Z</time>
      </trkpt>
      <trkpt lat="44.52942" lon="4.25678">
        <ele>414</ele>
        <time>2018-06-03T06:40:31.000Z</time>
      </trkpt>
      <trkpt lat="44.52942" lon="4.25675">
        <ele>414</ele>
        <time>2018-06-03T06:40:32.000Z</time>
      </trkpt>
      <trkpt lat="44.52942" lon="4.25671">
        <ele>414</ele>
        <time>2018-06-03T06:40:33.000Z</time>
      </trkpt>
      <trkpt lat="44.52942" lon="4.25667">
        <ele>414</ele>
        <time>2018-06-03T06:40:34.000Z</time>
      </trkpt>
      <trkpt lat="44.52942" lon="4.25664">
        <ele>417</ele>
        <time>2018-06-03T06:40:35.000Z</time>
      </trkpt>
      <trkpt lat="44.52943" lon="4.25661">
        <ele>417</ele>
        <time>2018-06-03T06:40:36.000Z</time>
      </trkpt>
      <trkpt lat="44.52943" lon="4.25658">
        <ele>417</ele>
        <time>2018-06-03T06:40:37.000Z</time>
      </trkpt>
      <trkpt lat="44.52944" lon="4.25655">
        <ele>417</ele>
        <time>2018-06-03T06:40:38.000Z</time>
      </trkpt>
      <trkpt lat="44.52944" lon="4.25652">
        <ele>417</ele>
        <time>2018-06-03T06:40:39.000Z</time>
      </trkpt>
      <trkpt lat="44.52945" lon="4.25649">
        <ele>417</ele>
        <time>2018-06-03T06:40:40.000Z</time>
      </trkpt>
      <trkpt lat="44.52945" lon="4.25646">
        <ele>417</ele>
        <time>2018-06-03T06:40:41.000Z</time>
      </trkpt>
      <trkpt lat="44.52946" lon="4.25643">
        <ele>417</ele>
        <time>2018-06-03T06:40:42.000Z</time>
      </trkpt>
      <trkpt lat="44.52946" lon="4.2564">
        <ele>417</ele>
        <time>2018-06-03T06:40:43.000Z</time>
      </trkpt>
      <trkpt lat="44.52946" lon="4.25636">
        <ele>417</ele>
        <time>2018-06-03T06:40:44.000Z</time>
      </trkpt>
      <trkpt lat="44.52946" lon="4.25633">
        <ele>417</ele>
        <time>2018-06-03T06:40:45.000Z</time>
      </trkpt>
      <trkpt lat="44.52947" lon="4.25629">
        <ele>417</ele>
        <time>2018-06-03T06:40:46.000Z</time>
      </trkpt>
      <trkpt lat="44.52947" lon="4.25626">
        <ele>417</ele>
        <time>2018-06-03T06:40:47.000Z</time>
      </trkpt>
      <trkpt lat="44.52948" lon="4.25622">
        <ele>417</ele>
        <time>2018-06-03T06:40:48.000Z</time>
      </trkpt>
      <trkpt lat="44.52948" lon="4.25618">
        <ele>417</ele>
        <time>2018-06-03T06:40:49.000Z</time>
      </trkpt>
      <trkpt lat="44.52948" lon="4.25614">
        <ele>417</ele>
        <time>2018-06-03T06:40:50.000Z</time>
      </trkpt>
      <trkpt lat="44.52949" lon="4.2561">
        <ele>417</ele>
        <time>2018-06-03T06:40:51.000Z</time>
      </trkpt>
      <trkpt lat="44.52949" lon="4.25606">
        <ele>417</ele>
        <time>2018-06-03T06:40:52.000Z</time>
      </trkpt>
      <trkpt lat="44.52949" lon="4.25603">
        <ele>417</ele>
        <time>2018-06-03T06:40:53.000Z</time>
      </trkpt>
      <trkpt lat="44.52949" lon="4.25599">
        <ele>417</ele>
        <time>2018-06-03T06:40:54.000Z</time>
      </trkpt>
      <trkpt lat="44.52949" lon="4.25595">
        <ele>418</ele>
        <time>2018-06-03T06:40:55.000Z</time>
      </trkpt>
      <trkpt lat="44.52949" lon="4.25591">
        <ele>418</ele>
        <time>2018-06-03T06:40:56.000Z</time>
      </trkpt>
      <trkpt lat="44.52949" lon="4.25588">
        <ele>418</ele>
        <time>2018-06-03T06:40:57.000Z</time>
      </trkpt>
      <trkpt lat="44.52949" lon="4.25585">
        <ele>418</ele>
        <time>2018-06-03T06:40:58.000Z</time>
      </trkpt>
      <trkpt lat="44.52949" lon="4.25581">
        <ele>419</ele>
        <time>2018-06-03T06:40:59.000Z</time>
      </trkpt>
      <trkpt lat="44.52949" lon="4.25577">
        <ele>419</ele>
        <time>2018-06-03T06:41:00.000Z</time>
      </trkpt>
      <trkpt lat="44.52949" lon="4.25573">
        <ele>419</ele>
        <time>2018-06-03T06:41:01.000Z</time>
      </trkpt>
      <trkpt lat="44.52948" lon="4.2557">
        <ele>420</ele>
        <time>2018-06-03T06:41:02.000Z</time>
      </trkpt>
      <trkpt lat="44.52948" lon="4.25566">
        <ele>419</ele>
        <time>2018-06-03T06:41:03.000Z</time>
      </trkpt>
      <trkpt lat="44.52948" lon="4.25563">
        <ele>419</ele>
        <time>2018-06-03T06:41:04.000Z</time>
      </trkpt>
      <trkpt lat="44.52948" lon="4.25559">
        <ele>420</ele>
        <time>2018-06-03T06:41:05.000Z</time>
      </trkpt>
      <trkpt lat="44.52948" lon="4.25555">
        <ele>420</ele>
        <time>2018-06-03T06:41:06.000Z</time>
      </trkpt>
      <trkpt lat="44.52948" lon="4.25552">
        <ele>420</ele>
        <time>2018-06-03T06:41:07.000Z</time>
      </trkpt>
      <trkpt lat="44.52948" lon="4.25549">
        <ele>420</ele>
        <time>2018-06-03T06:41:08.000Z</time>
      </trkpt>
      <trkpt lat="44.52948" lon="4.25545">
        <ele>420</ele>
        <time>2018-06-03T06:41:09.000Z</time>
      </trkpt>
      <trkpt lat="44.52947" lon="4.25541">
        <ele>420</ele>
        <time>2018-06-03T06:41:10.000Z</time>
      </trkpt>
      <trkpt lat="44.52947" lon="4.25538">
        <ele>420</ele>
        <time>2018-06-03T06:41:11.000Z</time>
      </trkpt>
      <trkpt lat="44.52947" lon="4.25535">
        <ele>420</ele>
        <time>2018-06-03T06:41:12.000Z</time>
      </trkpt>
      <trkpt lat="44.52946" lon="4.25532">
        <ele>420</ele>
        <time>2018-06-03T06:41:13.000Z</time>
      </trkpt>
      <trkpt lat="44.52946" lon="4.25529">
        <ele>420</ele>
        <time>2018-06-03T06:41:14.000Z</time>
      </trkpt>
      <trkpt lat="44.52946" lon="4.25526">
        <ele>420</ele>
        <time>2018-06-03T06:41:15.000Z</time>
      </trkpt>
      <trkpt lat="44.52946" lon="4.25523">
        <ele>420</ele>
        <time>2018-06-03T06:41:16.000Z</time>
      </trkpt>
      <trkpt lat="44.52946" lon="4.25521">
        <ele>420</ele>
        <time>2018-06-03T06:41:17.000Z</time>
      </trkpt>
      <trkpt lat="44.52946" lon="4.25518">
        <ele>420</ele>
        <time>2018-06-03T06:41:18.000Z</time>
      </trkpt>
      <trkpt lat="44.52946" lon="4.25515">
        <ele>420</ele>
        <time>2018-06-03T06:41:19.000Z</time>
      </trkpt>
      <trkpt lat="44.52946" lon="4.25512">
        <ele>420</ele>
        <time>2018-06-03T06:41:20.000Z</time>
      </trkpt>
      <trkpt lat="44.52946" lon="4.25509">
        <ele>420</ele>
        <time>2018-06-03T06:41:21.000Z</time>
      </trkpt>
      <trkpt lat="44.52945" lon="4.25507">
        <ele>421</ele>
        <time>2018-06-03T06:41:22.000Z</time>
      </trkpt>
      <trkpt lat="44.52945" lon="4.25504">
        <ele>421</ele>
        <time>2018-06-03T06:41:23.000Z</time>
      </trkpt>
      <trkpt lat="44.52945" lon="4.25501">
        <ele>421</ele>
        <time>2018-06-03T06:41:24.000Z</time>
      </trkpt>
      <trkpt lat="44.52945" lon="4.25498">
        <ele>422</ele>
        <time>2018-06-03T06:41:25.000Z</time>
      </trkpt>
      <trkpt lat="44.52945" lon="4.25496">
        <ele>422</ele>
        <time>2018-06-03T06:41:26.000Z</time>
      </trkpt>
      <trkpt lat="44.52945" lon="4.25493">
        <ele>422</ele>
        <time>2018-06-03T06:41:27.000Z</time>
      </trkpt>
      <trkpt lat="44.52945" lon="4.2549">
        <ele>422</ele>
        <time>2018-06-03T06:41:28.000Z</time>
      </trkpt>
      <trkpt lat="44.52945" lon="4.25488">
        <ele>422</ele>
        <time>2018-06-03T06:41:29.000Z</time>
      </trkpt>
      <trkpt lat="44.52946" lon="4.25485">
        <ele>422</ele>
        <time>2018-06-03T06:41:30.000Z</time>
      </trkpt>
      <trkpt lat="44.52947" lon="4.25481">
        <ele>422</ele>
        <time>2018-06-03T06:41:31.000Z</time>
      </trkpt>
      <trkpt lat="44.52948" lon="4.25479">
        <ele>422</ele>
        <time>2018-06-03T06:41:32.000Z</time>
      </trkpt>
      <trkpt lat="44.52949" lon="4.25476">
        <ele>422</ele>
        <time>2018-06-03T06:41:33.000Z</time>
      </trkpt>
      <trkpt lat="44.52949" lon="4.25473">
        <ele>422</ele>
        <time>2018-06-03T06:41:34.000Z</time>
      </trkpt>
      <trkpt lat="44.5295" lon="4.25469">
        <ele>422</ele>
        <time>2018-06-03T06:41:35.000Z</time>
      </trkpt>
      <trkpt lat="44.5295" lon="4.25466">
        <ele>422</ele>
        <time>2018-06-03T06:41:36.000Z</time>
      </trkpt>
      <trkpt lat="44.52951" lon="4.25462">
        <ele>422</ele>
        <time>2018-06-03T06:41:37.000Z</time>
      </trkpt>
      <trkpt lat="44.52951" lon="4.25459">
        <ele>422</ele>
        <time>2018-06-03T06:41:38.000Z</time>
      </trkpt>
      <trkpt lat="44.52952" lon="4.25456">
        <ele>422</ele>
        <time>2018-06-03T06:41:39.000Z</time>
      </trkpt>
      <trkpt lat="44.52953" lon="4.25452">
        <ele>422</ele>
        <time>2018-06-03T06:41:40.000Z</time>
      </trkpt>
      <trkpt lat="44.52955" lon="4.25449">
        <ele>422</ele>
        <time>2018-06-03T06:41:41.000Z</time>
      </trkpt>
      <trkpt lat="44.52956" lon="4.25445">
        <ele>422</ele>
        <time>2018-06-03T06:41:42.000Z</time>
      </trkpt>
      <trkpt lat="44.52957" lon="4.25442">
        <ele>422</ele>
        <time>2018-06-03T06:41:43.000Z</time>
      </trkpt>
      <trkpt lat="44.52958" lon="4.25438">
        <ele>422</ele>
        <time>2018-06-03T06:41:44.000Z</time>
      </trkpt>
      <trkpt lat="44.52959" lon="4.25435">
        <ele>422</ele>
        <time>2018-06-03T06:41:45.000Z</time>
      </trkpt>
      <trkpt lat="44.5296" lon="4.25432">
        <ele>422</ele>
        <time>2018-06-03T06:41:46.000Z</time>
      </trkpt>
      <trkpt lat="44.5296" lon="4.25428">
        <ele>423</ele>
        <time>2018-06-03T06:41:47.000Z</time>
      </trkpt>
      <trkpt lat="44.5296" lon="4.25424">
        <ele>423</ele>
        <time>2018-06-03T06:41:48.000Z</time>
      </trkpt>
      <trkpt lat="44.52961" lon="4.25421">
        <ele>423</ele>
        <time>2018-06-03T06:41:49.000Z</time>
      </trkpt>
      <trkpt lat="44.52961" lon="4.25416">
        <ele>428</ele>
        <time>2018-06-03T06:41:50.000Z</time>
      </trkpt>
      <trkpt lat="44.52963" lon="4.25412">
        <ele>428</ele>
        <time>2018-06-03T06:41:51.000Z</time>
      </trkpt>
      <trkpt lat="44.52965" lon="4.25409">
        <ele>428</ele>
        <time>2018-06-03T06:41:52.000Z</time>
      </trkpt>
      <trkpt lat="44.52966" lon="4.25405">
        <ele>428</ele>
        <time>2018-06-03T06:41:53.000Z</time>
      </trkpt>
      <trkpt lat="44.52967" lon="4.25402">
        <ele>428</ele>
        <time>2018-06-03T06:41:54.000Z</time>
      </trkpt>
      <trkpt lat="44.52969" lon="4.25398">
        <ele>428</ele>
        <time>2018-06-03T06:41:55.000Z</time>
      </trkpt>
      <trkpt lat="44.5297" lon="4.25395">
        <ele>428</ele>
        <time>2018-06-03T06:41:56.000Z</time>
      </trkpt>
      <trkpt lat="44.52972" lon="4.25391">
        <ele>428</ele>
        <time>2018-06-03T06:41:57.000Z</time>
      </trkpt>
      <trkpt lat="44.52974" lon="4.25388">
        <ele>428</ele>
        <time>2018-06-03T06:41:58.000Z</time>
      </trkpt>
      <trkpt lat="44.52975" lon="4.25384">
        <ele>429</ele>
        <time>2018-06-03T06:41:59.000Z</time>
      </trkpt>
      <trkpt lat="44.52977" lon="4.25381">
        <ele>429</ele>
        <time>2018-06-03T06:42:00.000Z</time>
      </trkpt>
      <trkpt lat="44.52979" lon="4.25378">
        <ele>429</ele>
        <time>2018-06-03T06:42:01.000Z</time>
      </trkpt>
      <trkpt lat="44.5298" lon="4.25375">
        <ele>430</ele>
        <time>2018-06-03T06:42:02.000Z</time>
      </trkpt>
      <trkpt lat="44.52982" lon="4.25372">
        <ele>430</ele>
        <time>2018-06-03T06:42:03.000Z</time>
      </trkpt>
      <trkpt lat="44.52984" lon="4.25369">
        <ele>430</ele>
        <time>2018-06-03T06:42:04.000Z</time>
      </trkpt>
      <trkpt lat="44.52986" lon="4.25365">
        <ele>431</ele>
        <time>2018-06-03T06:42:05.000Z</time>
      </trkpt>
      <trkpt lat="44.52987" lon="4.25362">
        <ele>431</ele>
        <time>2018-06-03T06:42:06.000Z</time>
      </trkpt>
      <trkpt lat="44.52989" lon="4.25358">
        <ele>431</ele>
        <time>2018-06-03T06:42:07.000Z</time>
      </trkpt>
      <trkpt lat="44.5299" lon="4.25355">
        <ele>432</ele>
        <time>2018-06-03T06:42:08.000Z</time>
      </trkpt>
      <trkpt lat="44.52992" lon="4.25352">
        <ele>432</ele>
        <time>2018-06-03T06:42:09.000Z</time>
      </trkpt>
      <trkpt lat="44.52994" lon="4.25349">
        <ele>433</ele>
        <time>2018-06-03T06:42:10.000Z</time>
      </trkpt>
      <trkpt lat="44.52995" lon="4.25346">
        <ele>433</ele>
        <time>2018-06-03T06:42:11.000Z</time>
      </trkpt>
      <trkpt lat="44.52997" lon="4.25343">
        <ele>434</ele>
        <time>2018-06-03T06:42:12.000Z</time>
      </trkpt>
      <trkpt lat="44.52998" lon="4.25339">
        <ele>435</ele>
        <time>2018-06-03T06:42:13.000Z</time>
      </trkpt>
      <trkpt lat="44.53" lon="4.25336">
        <ele>434</ele>
        <time>2018-06-03T06:42:14.000Z</time>
      </trkpt>
      <trkpt lat="44.53002" lon="4.25333">
        <ele>436</ele>
        <time>2018-06-03T06:42:15.000Z</time>
      </trkpt>
      <trkpt lat="44.53005" lon="4.25331">
        <ele>435</ele>
        <time>2018-06-03T06:42:16.000Z</time>
      </trkpt>
      <trkpt lat="44.53007" lon="4.25328">
        <ele>435</ele>
        <time>2018-06-03T06:42:17.000Z</time>
      </trkpt>
      <trkpt lat="44.53008" lon="4.25325">
        <ele>435</ele>
        <time>2018-06-03T06:42:18.000Z</time>
      </trkpt>
      <trkpt lat="44.5301" lon="4.25323">
        <ele>435</ele>
        <time>2018-06-03T06:42:19.000Z</time>
      </trkpt>
      <trkpt lat="44.53012" lon="4.2532">
        <ele>435</ele>
        <time>2018-06-03T06:42:20.000Z</time>
      </trkpt>
      <trkpt lat="44.53014" lon="4.25317">
        <ele>434</ele>
        <time>2018-06-03T06:42:21.000Z</time>
      </trkpt>
      <trkpt lat="44.53015" lon="4.25315">
        <ele>434</ele>
        <time>2018-06-03T06:42:22.000Z</time>
      </trkpt>
      <trkpt lat="44.53017" lon="4.25312">
        <ele>434</ele>
        <time>2018-06-03T06:42:23.000Z</time>
      </trkpt>
      <trkpt lat="44.53019" lon="4.2531">
        <ele>434</ele>
        <time>2018-06-03T06:42:24.000Z</time>
      </trkpt>
      <trkpt lat="44.53021" lon="4.25308">
        <ele>434</ele>
        <time>2018-06-03T06:42:25.000Z</time>
      </trkpt>
      <trkpt lat="44.53023" lon="4.25306">
        <ele>434</ele>
        <time>2018-06-03T06:42:26.000Z</time>
      </trkpt>
      <trkpt lat="44.53025" lon="4.25303">
        <ele>434</ele>
        <time>2018-06-03T06:42:27.000Z</time>
      </trkpt>
      <trkpt lat="44.53027" lon="4.25301">
        <ele>434</ele>
        <time>2018-06-03T06:42:28.000Z</time>
      </trkpt>
      <trkpt lat="44.53029" lon="4.25298">
        <ele>434</ele>
        <time>2018-06-03T06:42:29.000Z</time>
      </trkpt>
      <trkpt lat="44.5303" lon="4.25296">
        <ele>434</ele>
        <time>2018-06-03T06:42:30.000Z</time>
      </trkpt>
      <trkpt lat="44.53032" lon="4.25293">
        <ele>434</ele>
        <time>2018-06-03T06:42:31.000Z</time>
      </trkpt>
      <trkpt lat="44.53033" lon="4.25291">
        <ele>434</ele>
        <time>2018-06-03T06:42:32.000Z</time>
      </trkpt>
      <trkpt lat="44.53035" lon="4.25288">
        <ele>434</ele>
        <time>2018-06-03T06:42:33.000Z</time>
      </trkpt>
      <trkpt lat="44.53037" lon="4.25285">
        <ele>434</ele>
        <time>2018-06-03T06:42:34.000Z</time>
      </trkpt>
      <trkpt lat="44.53038" lon="4.25283">
        <ele>434</ele>
        <time>2018-06-03T06:42:35.000Z</time>
      </trkpt>
      <trkpt lat="44.5304" lon="4.2528">
        <ele>434</ele>
        <time>2018-06-03T06:42:36.000Z</time>
      </trkpt>
      <trkpt lat="44.53042" lon="4.25278">
        <ele>434</ele>
        <time>2018-06-03T06:42:37.000Z</time>
      </trkpt>
      <trkpt lat="44.53043" lon="4.25275">
        <ele>434</ele>
        <time>2018-06-03T06:42:38.000Z</time>
      </trkpt>
      <trkpt lat="44.53045" lon="4.25273">
        <ele>434</ele>
        <time>2018-06-03T06:42:39.000Z</time>
      </trkpt>
      <trkpt lat="44.53046" lon="4.2527">
        <ele>434</ele>
        <time>2018-06-03T06:42:40.000Z</time>
      </trkpt>
      <trkpt lat="44.53048" lon="4.25268">
        <ele>434</ele>
        <time>2018-06-03T06:42:41.000Z</time>
      </trkpt>
      <trkpt lat="44.53049" lon="4.25265">
        <ele>434</ele>
        <time>2018-06-03T06:42:42.000Z</time>
      </trkpt>
      <trkpt lat="44.5305" lon="4.25262">
        <ele>434</ele>
        <time>2018-06-03T06:42:43.000Z</time>
      </trkpt>
      <trkpt lat="44.53052" lon="4.25259">
        <ele>434</ele>
        <time>2018-06-03T06:42:44.000Z</time>
      </trkpt>
      <trkpt lat="44.53053" lon="4.25256">
        <ele>434</ele>
        <time>2018-06-03T06:42:45.000Z</time>
      </trkpt>
      <trkpt lat="44.53054" lon="4.25254">
        <ele>434</ele>
        <time>2018-06-03T06:42:46.000Z</time>
      </trkpt>
      <trkpt lat="44.53055" lon="4.25251">
        <ele>434</ele>
        <time>2018-06-03T06:42:47.000Z</time>
      </trkpt>
      <trkpt lat="44.53056" lon="4.25248">
        <ele>439</ele>
        <time>2018-06-03T06:42:48.000Z</time>
      </trkpt>
      <trkpt lat="44.53058" lon="4.25245">
        <ele>439</ele>
        <time>2018-06-03T06:42:49.000Z</time>
      </trkpt>
      <trkpt lat="44.53059" lon="4.25242">
        <ele>439</ele>
        <time>2018-06-03T06:42:50.000Z</time>
      </trkpt>
      <trkpt lat="44.5306" lon="4.25239">
        <ele>439</ele>
        <time>2018-06-03T06:42:51.000Z</time>
      </trkpt>
      <trkpt lat="44.53061" lon="4.25237">
        <ele>439</ele>
        <time>2018-06-03T06:42:52.000Z</time>
      </trkpt>
      <trkpt lat="44.53062" lon="4.25234">
        <ele>439</ele>
        <time>2018-06-03T06:42:53.000Z</time>
      </trkpt>
      <trkpt lat="44.53063" lon="4.25231">
        <ele>439</ele>
        <time>2018-06-03T06:42:54.000Z</time>
      </trkpt>
      <trkpt lat="44.53064" lon="4.25228">
        <ele>439</ele>
        <time>2018-06-03T06:42:55.000Z</time>
      </trkpt>
      <trkpt lat="44.53065" lon="4.25225">
        <ele>439</ele>
        <time>2018-06-03T06:42:56.000Z</time>
      </trkpt>
      <trkpt lat="44.53066" lon="4.25223">
        <ele>439</ele>
        <time>2018-06-03T06:42:57.000Z</time>
      </trkpt>
      <trkpt lat="44.53067" lon="4.2522">
        <ele>440</ele>
        <time>2018-06-03T06:42:58.000Z</time>
      </trkpt>
      <trkpt lat="44.53068" lon="4.25218">
        <ele>440</ele>
        <time>2018-06-03T06:42:59.000Z</time>
      </trkpt>
      <trkpt lat="44.53069" lon="4.25215">
        <ele>440</ele>
        <time>2018-06-03T06:43:00.000Z</time>
      </trkpt>
      <trkpt lat="44.5307" lon="4.25212">
        <ele>440</ele>
        <time>2018-06-03T06:43:01.000Z</time>
      </trkpt>
      <trkpt lat="44.53071" lon="4.2521">
        <ele>440</ele>
        <time>2018-06-03T06:43:02.000Z</time>
      </trkpt>
      <trkpt lat="44.53072" lon="4.25207">
        <ele>440</ele>
        <time>2018-06-03T06:43:03.000Z</time>
      </trkpt>
      <trkpt lat="44.53073" lon="4.25205">
        <ele>440</ele>
        <time>2018-06-03T06:43:04.000Z</time>
      </trkpt>
      <trkpt lat="44.53074" lon="4.25202">
        <ele>441</ele>
        <time>2018-06-03T06:43:05.000Z</time>
      </trkpt>
      <trkpt lat="44.53075" lon="4.25199">
        <ele>441</ele>
        <time>2018-06-03T06:43:06.000Z</time>
      </trkpt>
      <trkpt lat="44.53076" lon="4.25197">
        <ele>441</ele>
        <time>2018-06-03T06:43:07.000Z</time>
      </trkpt>
      <trkpt lat="44.53077" lon="4.25194">
        <ele>441</ele>
        <time>2018-06-03T06:43:08.000Z</time>
      </trkpt>
      <trkpt lat="44.53077" lon="4.25192">
        <ele>441</ele>
        <time>2018-06-03T06:43:09.000Z</time>
      </trkpt>
      <trkpt lat="44.53078" lon="4.25189">
        <ele>441</ele>
        <time>2018-06-03T06:43:10.000Z</time>
      </trkpt>
      <trkpt lat="44.53079" lon="4.25186">
        <ele>441</ele>
        <time>2018-06-03T06:43:11.000Z</time>
      </trkpt>
      <trkpt lat="44.5308" lon="4.25182">
        <ele>441</ele>
        <time>2018-06-03T06:43:12.000Z</time>
      </trkpt>
      <trkpt lat="44.53081" lon="4.25179">
        <ele>442</ele>
        <time>2018-06-03T06:43:13.000Z</time>
      </trkpt>
      <trkpt lat="44.53082" lon="4.25176">
        <ele>442</ele>
        <time>2018-06-03T06:43:14.000Z</time>
      </trkpt>
      <trkpt lat="44.53083" lon="4.25172">
        <ele>442</ele>
        <time>2018-06-03T06:43:15.000Z</time>
      </trkpt>
      <trkpt lat="44.53084" lon="4.25169">
        <ele>440</ele>
        <time>2018-06-03T06:43:16.000Z</time>
      </trkpt>
      <trkpt lat="44.53084" lon="4.25165">
        <ele>442</ele>
        <time>2018-06-03T06:43:17.000Z</time>
      </trkpt>
      <trkpt lat="44.53085" lon="4.25162">
        <ele>441</ele>
        <time>2018-06-03T06:43:18.000Z</time>
      </trkpt>
      <trkpt lat="44.53086" lon="4.25158">
        <ele>440</ele>
        <time>2018-06-03T06:43:19.000Z</time>
      </trkpt>
      <trkpt lat="44.53087" lon="4.25154">
        <ele>440</ele>
        <time>2018-06-03T06:43:20.000Z</time>
      </trkpt>
      <trkpt lat="44.53087" lon="4.2515">
        <ele>440</ele>
        <time>2018-06-03T06:43:21.000Z</time>
      </trkpt>
      <trkpt lat="44.53088" lon="4.25147">
        <ele>439</ele>
        <time>2018-06-03T06:43:22.000Z</time>
      </trkpt>
      <trkpt lat="44.53089" lon="4.25143">
        <ele>439</ele>
        <time>2018-06-03T06:43:23.000Z</time>
      </trkpt>
      <trkpt lat="44.53089" lon="4.2514">
        <ele>439</ele>
        <time>2018-06-03T06:43:24.000Z</time>
      </trkpt>
      <trkpt lat="44.5309" lon="4.25137">
        <ele>439</ele>
        <time>2018-06-03T06:43:25.000Z</time>
      </trkpt>
      <trkpt lat="44.53091" lon="4.25134">
        <ele>439</ele>
        <time>2018-06-03T06:43:26.000Z</time>
      </trkpt>
      <trkpt lat="44.53091" lon="4.25132">
        <ele>439</ele>
        <time>2018-06-03T06:43:27.000Z</time>
      </trkpt>
      <trkpt lat="44.53092" lon="4.25129">
        <ele>439</ele>
        <time>2018-06-03T06:43:28.000Z</time>
      </trkpt>
      <trkpt lat="44.53093" lon="4.25125">
        <ele>440</ele>
        <time>2018-06-03T06:43:29.000Z</time>
      </trkpt>
      <trkpt lat="44.53094" lon="4.25122">
        <ele>440</ele>
        <time>2018-06-03T06:43:30.000Z</time>
      </trkpt>
      <trkpt lat="44.53095" lon="4.25119">
        <ele>440</ele>
        <time>2018-06-03T06:43:31.000Z</time>
      </trkpt>
      <trkpt lat="44.53096" lon="4.25116">
        <ele>440</ele>
        <time>2018-06-03T06:43:32.000Z</time>
      </trkpt>
      <trkpt lat="44.53096" lon="4.25113">
        <ele>441</ele>
        <time>2018-06-03T06:43:33.000Z</time>
      </trkpt>
      <trkpt lat="44.53097" lon="4.25109">
        <ele>441</ele>
        <time>2018-06-03T06:43:34.000Z</time>
      </trkpt>
      <trkpt lat="44.53098" lon="4.25105">
        <ele>441</ele>
        <time>2018-06-03T06:43:35.000Z</time>
      </trkpt>
      <trkpt lat="44.53099" lon="4.25102">
        <ele>442</ele>
        <time>2018-06-03T06:43:36.000Z</time>
      </trkpt>
      <trkpt lat="44.53101" lon="4.25099">
        <ele>442</ele>
        <time>2018-06-03T06:43:37.000Z</time>
      </trkpt>
      <trkpt lat="44.53103" lon="4.25096">
        <ele>442</ele>
        <time>2018-06-03T06:43:38.000Z</time>
      </trkpt>
      <trkpt lat="44.53103" lon="4.25093">
        <ele>442</ele>
        <time>2018-06-03T06:43:39.000Z</time>
      </trkpt>
      <trkpt lat="44.53104" lon="4.2509">
        <ele>442</ele>
        <time>2018-06-03T06:43:40.000Z</time>
      </trkpt>
      <trkpt lat="44.53105" lon="4.25087">
        <ele>442</ele>
        <time>2018-06-03T06:43:41.000Z</time>
      </trkpt>
      <trkpt lat="44.53106" lon="4.25084">
        <ele>442</ele>
        <time>2018-06-03T06:43:42.000Z</time>
      </trkpt>
      <trkpt lat="44.53107" lon="4.25081">
        <ele>446</ele>
        <time>2018-06-03T06:43:43.000Z</time>
      </trkpt>
      <trkpt lat="44.53108" lon="4.25077">
        <ele>446</ele>
        <time>2018-06-03T06:43:44.000Z</time>
      </trkpt>
      <trkpt lat="44.53109" lon="4.25074">
        <ele>446</ele>
        <time>2018-06-03T06:43:45.000Z</time>
      </trkpt>
      <trkpt lat="44.53109" lon="4.2507">
        <ele>446</ele>
        <time>2018-06-03T06:43:46.000Z</time>
      </trkpt>
      <trkpt lat="44.5311" lon="4.25067">
        <ele>446</ele>
        <time>2018-06-03T06:43:47.000Z</time>
      </trkpt>
      <trkpt lat="44.53111" lon="4.25063">
        <ele>445</ele>
        <time>2018-06-03T06:43:48.000Z</time>
      </trkpt>
      <trkpt lat="44.53111" lon="4.25059">
        <ele>445</ele>
        <time>2018-06-03T06:43:49.000Z</time>
      </trkpt>
      <trkpt lat="44.53111" lon="4.25056">
        <ele>445</ele>
        <time>2018-06-03T06:43:50.000Z</time>
      </trkpt>
      <trkpt lat="44.53112" lon="4.25053">
        <ele>445</ele>
        <time>2018-06-03T06:43:51.000Z</time>
      </trkpt>
      <trkpt lat="44.53112" lon="4.25049">
        <ele>445</ele>
        <time>2018-06-03T06:43:52.000Z</time>
      </trkpt>
      <trkpt lat="44.53112" lon="4.25045">
        <ele>445</ele>
        <time>2018-06-03T06:43:53.000Z</time>
      </trkpt>
      <trkpt lat="44.53111" lon="4.25041">
        <ele>445</ele>
        <time>2018-06-03T06:43:54.000Z</time>
      </trkpt>
      <trkpt lat="44.53111" lon="4.25036">
        <ele>445</ele>
        <time>2018-06-03T06:43:55.000Z</time>
      </trkpt>
      <trkpt lat="44.53111" lon="4.25032">
        <ele>445</ele>
        <time>2018-06-03T06:43:56.000Z</time>
      </trkpt>
      <trkpt lat="44.5311" lon="4.25027">
        <ele>445</ele>
        <time>2018-06-03T06:43:57.000Z</time>
      </trkpt>
      <trkpt lat="44.53108" lon="4.25023">
        <ele>445</ele>
        <time>2018-06-03T06:43:58.000Z</time>
      </trkpt>
      <trkpt lat="44.53105" lon="4.25021">
        <ele>445</ele>
        <time>2018-06-03T06:43:59.000Z</time>
      </trkpt>
      <trkpt lat="44.53103" lon="4.25022">
        <ele>445</ele>
        <time>2018-06-03T06:44:00.000Z</time>
      </trkpt>
      <trkpt lat="44.531" lon="4.25023">
        <ele>445</ele>
        <time>2018-06-03T06:44:01.000Z</time>
      </trkpt>
      <trkpt lat="44.53098" lon="4.25026">
        <ele>445</ele>
        <time>2018-06-03T06:44:02.000Z</time>
      </trkpt>
      <trkpt lat="44.53095" lon="4.25028">
        <ele>445</ele>
        <time>2018-06-03T06:44:03.000Z</time>
      </trkpt>
      <trkpt lat="44.53093" lon="4.25031">
        <ele>445</ele>
        <time>2018-06-03T06:44:04.000Z</time>
      </trkpt>
      <trkpt lat="44.5309" lon="4.25035">
        <ele>445</ele>
        <time>2018-06-03T06:44:05.000Z</time>
      </trkpt>
      <trkpt lat="44.53088" lon="4.25038">
        <ele>445</ele>
        <time>2018-06-03T06:44:06.000Z</time>
      </trkpt>
      <trkpt lat="44.53085" lon="4.25042">
        <ele>446</ele>
        <time>2018-06-03T06:44:07.000Z</time>
      </trkpt>
      <trkpt lat="44.53082" lon="4.25046">
        <ele>442</ele>
        <time>2018-06-03T06:44:08.000Z</time>
      </trkpt>
      <trkpt lat="44.53079" lon="4.2505">
        <ele>443</ele>
        <time>2018-06-03T06:44:09.000Z</time>
      </trkpt>
      <trkpt lat="44.53077" lon="4.25055">
        <ele>443</ele>
        <time>2018-06-03T06:44:10.000Z</time>
      </trkpt>
      <trkpt lat="44.53074" lon="4.2506">
        <ele>444</ele>
        <time>2018-06-03T06:44:11.000Z</time>
      </trkpt>
      <trkpt lat="44.53072" lon="4.25065">
        <ele>444</ele>
        <time>2018-06-03T06:44:12.000Z</time>
      </trkpt>
      <trkpt lat="44.53069" lon="4.25069">
        <ele>444</ele>
        <time>2018-06-03T06:44:13.000Z</time>
      </trkpt>
      <trkpt lat="44.53066" lon="4.25074">
        <ele>444</ele>
        <time>2018-06-03T06:44:14.000Z</time>
      </trkpt>
      <trkpt lat="44.53064" lon="4.25079">
        <ele>444</ele>
        <time>2018-06-03T06:44:15.000Z</time>
      </trkpt>
      <trkpt lat="44.53061" lon="4.25084">
        <ele>446</ele>
        <time>2018-06-03T06:44:16.000Z</time>
      </trkpt>
      <trkpt lat="44.53059" lon="4.25089">
        <ele>446</ele>
        <time>2018-06-03T06:44:17.000Z</time>
      </trkpt>
      <trkpt lat="44.53056" lon="4.25093">
        <ele>446</ele>
        <time>2018-06-03T06:44:18.000Z</time>
      </trkpt>
      <trkpt lat="44.53052" lon="4.25098">
        <ele>445</ele>
        <time>2018-06-03T06:44:19.000Z</time>
      </trkpt>
      <trkpt lat="44.53048" lon="4.25102">
        <ele>445</ele>
        <time>2018-06-03T06:44:20.000Z</time>
      </trkpt>
      <trkpt lat="44.53044" lon="4.25107">
        <ele>444</ele>
        <time>2018-06-03T06:44:21.000Z</time>
      </trkpt>
      <trkpt lat="44.5304" lon="4.25112">
        <ele>444</ele>
        <time>2018-06-03T06:44:22.000Z</time>
      </trkpt>
      <trkpt lat="44.53037" lon="4.25118">
        <ele>444</ele>
        <time>2018-06-03T06:44:23.000Z</time>
      </trkpt>
      <trkpt lat="44.53033" lon="4.25123">
        <ele>444</ele>
        <time>2018-06-03T06:44:24.000Z</time>
      </trkpt>
      <trkpt lat="44.5303" lon="4.25128">
        <ele>444</ele>
        <time>2018-06-03T06:44:25.000Z</time>
      </trkpt>
      <trkpt lat="44.53027" lon="4.25133">
        <ele>444</ele>
        <time>2018-06-03T06:44:26.000Z</time>
      </trkpt>
      <trkpt lat="44.53024" lon="4.25138">
        <ele>444</ele>
        <time>2018-06-03T06:44:27.000Z</time>
      </trkpt>
      <trkpt lat="44.5302" lon="4.25143">
        <ele>444</ele>
        <time>2018-06-03T06:44:28.000Z</time>
      </trkpt>
      <trkpt lat="44.53016" lon="4.25147">
        <ele>444</ele>
        <time>2018-06-03T06:44:29.000Z</time>
      </trkpt>
      <trkpt lat="44.53012" lon="4.25151">
        <ele>445</ele>
        <time>2018-06-03T06:44:30.000Z</time>
      </trkpt>
      <trkpt lat="44.53008" lon="4.25157">
        <ele>445</ele>
        <time>2018-06-03T06:44:31.000Z</time>
      </trkpt>
      <trkpt lat="44.53005" lon="4.25163">
        <ele>445</ele>
        <time>2018-06-03T06:44:32.000Z</time>
      </trkpt>
      <trkpt lat="44.53002" lon="4.25168">
        <ele>446</ele>
        <time>2018-06-03T06:44:33.000Z</time>
      </trkpt>
      <trkpt lat="44.52999" lon="4.25174">
        <ele>445</ele>
        <time>2018-06-03T06:44:34.000Z</time>
      </trkpt>
      <trkpt lat="44.52995" lon="4.25179">
        <ele>444</ele>
        <time>2018-06-03T06:44:35.000Z</time>
      </trkpt>
      <trkpt lat="44.52991" lon="4.25184">
        <ele>444</ele>
        <time>2018-06-03T06:44:36.000Z</time>
      </trkpt>
      <trkpt lat="44.52986" lon="4.25189">
        <ele>443</ele>
        <time>2018-06-03T06:44:37.000Z</time>
      </trkpt>
      <trkpt lat="44.52981" lon="4.25194">
        <ele>443</ele>
        <time>2018-06-03T06:44:38.000Z</time>
      </trkpt>
      <trkpt lat="44.52975" lon="4.25199">
        <ele>442</ele>
        <time>2018-06-03T06:44:39.000Z</time>
      </trkpt>
      <trkpt lat="44.5297" lon="4.25204">
        <ele>442</ele>
        <time>2018-06-03T06:44:40.000Z</time>
      </trkpt>
      <trkpt lat="44.52965" lon="4.25209">
        <ele>442</ele>
        <time>2018-06-03T06:44:41.000Z</time>
      </trkpt>
      <trkpt lat="44.5296" lon="4.25213">
        <ele>442</ele>
        <time>2018-06-03T06:44:42.000Z</time>
      </trkpt>
      <trkpt lat="44.52956" lon="4.25217">
        <ele>441</ele>
        <time>2018-06-03T06:44:43.000Z</time>
      </trkpt>
      <trkpt lat="44.52952" lon="4.25221">
        <ele>441</ele>
        <time>2018-06-03T06:44:44.000Z</time>
      </trkpt>
      <trkpt lat="44.52948" lon="4.25224">
        <ele>441</ele>
        <time>2018-06-03T06:44:45.000Z</time>
      </trkpt>
      <trkpt lat="44.52946" lon="4.25225">
        <ele>441</ele>
        <time>2018-06-03T06:44:46.000Z</time>
      </trkpt>
      <trkpt lat="44.52943" lon="4.25226">
        <ele>441</ele>
        <time>2018-06-03T06:44:47.000Z</time>
      </trkpt>
      <trkpt lat="44.52938" lon="4.25227">
        <ele>440</ele>
        <time>2018-06-03T06:44:48.000Z</time>
      </trkpt>
      <trkpt lat="44.52934" lon="4.25229">
        <ele>440</ele>
        <time>2018-06-03T06:44:49.000Z</time>
      </trkpt>
      <trkpt lat="44.52929" lon="4.25231">
        <ele>440</ele>
        <time>2018-06-03T06:44:50.000Z</time>
      </trkpt>
      <trkpt lat="44.52924" lon="4.25234">
        <ele>440</ele>
        <time>2018-06-03T06:44:51.000Z</time>
      </trkpt>
      <trkpt lat="44.52919" lon="4.25235">
        <ele>439</ele>
        <time>2018-06-03T06:44:52.000Z</time>
      </trkpt>
      <trkpt lat="44.52915" lon="4.25233">
        <ele>435</ele>
        <time>2018-06-03T06:44:53.000Z</time>
      </trkpt>
      <trkpt lat="44.5291" lon="4.25229">
        <ele>434</ele>
        <time>2018-06-03T06:44:54.000Z</time>
      </trkpt>
      <trkpt lat="44.52906" lon="4.25226">
        <ele>434</ele>
        <time>2018-06-03T06:44:55.000Z</time>
      </trkpt>
      <trkpt lat="44.52901" lon="4.25224">
        <ele>433</ele>
        <time>2018-06-03T06:44:56.000Z</time>
      </trkpt>
      <trkpt lat="44.52895" lon="4.25223">
        <ele>433</ele>
        <time>2018-06-03T06:44:57.000Z</time>
      </trkpt>
      <trkpt lat="44.52888" lon="4.25224">
        <ele>432</ele>
        <time>2018-06-03T06:44:58.000Z</time>
      </trkpt>
      <trkpt lat="44.52881" lon="4.25225">
        <ele>432</ele>
        <time>2018-06-03T06:44:59.000Z</time>
      </trkpt>
      <trkpt lat="44.52875" lon="4.25224">
        <ele>431</ele>
        <time>2018-06-03T06:45:00.000Z</time>
      </trkpt>
      <trkpt lat="44.52868" lon="4.25223">
        <ele>431</ele>
        <time>2018-06-03T06:45:01.000Z</time>
      </trkpt>
      <trkpt lat="44.52861" lon="4.25221">
        <ele>430</ele>
        <time>2018-06-03T06:45:02.000Z</time>
      </trkpt>
      <trkpt lat="44.52855" lon="4.25219">
        <ele>430</ele>
        <time>2018-06-03T06:45:03.000Z</time>
      </trkpt>
      <trkpt lat="44.52849" lon="4.25218">
        <ele>429</ele>
        <time>2018-06-03T06:45:04.000Z</time>
      </trkpt>
      <trkpt lat="44.52842" lon="4.25218">
        <ele>429</ele>
        <time>2018-06-03T06:45:05.000Z</time>
      </trkpt>
      <trkpt lat="44.52835" lon="4.25217">
        <ele>429</ele>
        <time>2018-06-03T06:45:06.000Z</time>
      </trkpt>
      <trkpt lat="44.52828" lon="4.25217">
        <ele>422</ele>
        <time>2018-06-03T06:45:07.000Z</time>
      </trkpt>
      <trkpt lat="44.52821" lon="4.25217">
        <ele>422</ele>
        <time>2018-06-03T06:45:08.000Z</time>
      </trkpt>
      <trkpt lat="44.52814" lon="4.25218">
        <ele>422</ele>
        <time>2018-06-03T06:45:09.000Z</time>
      </trkpt>
      <trkpt lat="44.52808" lon="4.25219">
        <ele>422</ele>
        <time>2018-06-03T06:45:10.000Z</time>
      </trkpt>
      <trkpt lat="44.52803" lon="4.25218">
        <ele>422</ele>
        <time>2018-06-03T06:45:11.000Z</time>
      </trkpt>
      <trkpt lat="44.52799" lon="4.2522">
        <ele>421</ele>
        <time>2018-06-03T06:45:12.000Z</time>
      </trkpt>
      <trkpt lat="44.52796" lon="4.25221">
        <ele>421</ele>
        <time>2018-06-03T06:45:13.000Z</time>
      </trkpt>
      <trkpt lat="44.52795" lon="4.25224">
        <ele>421</ele>
        <time>2018-06-03T06:45:14.000Z</time>
      </trkpt>
      <trkpt lat="44.52795" lon="4.25228">
        <ele>421</ele>
        <time>2018-06-03T06:45:15.000Z</time>
      </trkpt>
      <trkpt lat="44.52794" lon="4.25233">
        <ele>421</ele>
        <time>2018-06-03T06:45:16.000Z</time>
      </trkpt>
      <trkpt lat="44.52794" lon="4.25238">
        <ele>421</ele>
        <time>2018-06-03T06:45:17.000Z</time>
      </trkpt>
      <trkpt lat="44.52793" lon="4.25242">
        <ele>421</ele>
        <time>2018-06-03T06:45:18.000Z</time>
      </trkpt>
      <trkpt lat="44.52792" lon="4.25245">
        <ele>421</ele>
        <time>2018-06-03T06:45:19.000Z</time>
      </trkpt>
      <trkpt lat="44.52789" lon="4.25248">
        <ele>420</ele>
        <time>2018-06-03T06:45:20.000Z</time>
      </trkpt>
      <trkpt lat="44.52786" lon="4.2525">
        <ele>420</ele>
        <time>2018-06-03T06:45:21.000Z</time>
      </trkpt>
      <trkpt lat="44.52782" lon="4.2525">
        <ele>418</ele>
        <time>2018-06-03T06:45:22.000Z</time>
      </trkpt>
      <trkpt lat="44.52777" lon="4.25249">
        <ele>419</ele>
        <time>2018-06-03T06:45:23.000Z</time>
      </trkpt>
      <trkpt lat="44.52773" lon="4.25248">
        <ele>419</ele>
        <time>2018-06-03T06:45:24.000Z</time>
      </trkpt>
      <trkpt lat="44.52768" lon="4.25247">
        <ele>418</ele>
        <time>2018-06-03T06:45:25.000Z</time>
      </trkpt>
      <trkpt lat="44.52763" lon="4.25246">
        <ele>418</ele>
        <time>2018-06-03T06:45:26.000Z</time>
      </trkpt>
      <trkpt lat="44.52759" lon="4.25247">
        <ele>417</ele>
        <time>2018-06-03T06:45:27.000Z</time>
      </trkpt>
      <trkpt lat="44.52756" lon="4.2525">
        <ele>415</ele>
        <time>2018-06-03T06:45:28.000Z</time>
      </trkpt>
      <trkpt lat="44.52752" lon="4.25252">
        <ele>415</ele>
        <time>2018-06-03T06:45:29.000Z</time>
      </trkpt>
      <trkpt lat="44.52749" lon="4.25251">
        <ele>414</ele>
        <time>2018-06-03T06:45:30.000Z</time>
      </trkpt>
      <trkpt lat="44.52747" lon="4.25247">
        <ele>414</ele>
        <time>2018-06-03T06:45:31.000Z</time>
      </trkpt>
      <trkpt lat="44.52745" lon="4.25244">
        <ele>414</ele>
        <time>2018-06-03T06:45:32.000Z</time>
      </trkpt>
      <trkpt lat="44.52742" lon="4.2524">
        <ele>413</ele>
        <time>2018-06-03T06:45:33.000Z</time>
      </trkpt>
      <trkpt lat="44.52739" lon="4.25236">
        <ele>413</ele>
        <time>2018-06-03T06:45:34.000Z</time>
      </trkpt>
      <trkpt lat="44.52735" lon="4.25232">
        <ele>412</ele>
        <time>2018-06-03T06:45:35.000Z</time>
      </trkpt>
      <trkpt lat="44.52732" lon="4.25229">
        <ele>412</ele>
        <time>2018-06-03T06:45:36.000Z</time>
      </trkpt>
      <trkpt lat="44.52728" lon="4.25224">
        <ele>412</ele>
        <time>2018-06-03T06:45:37.000Z</time>
      </trkpt>
      <trkpt lat="44.52723" lon="4.25221">
        <ele>411</ele>
        <time>2018-06-03T06:45:38.000Z</time>
      </trkpt>
      <trkpt lat="44.52719" lon="4.25217">
        <ele>411</ele>
        <time>2018-06-03T06:45:39.000Z</time>
      </trkpt>
      <trkpt lat="44.52714" lon="4.25213">
        <ele>411</ele>
        <time>2018-06-03T06:45:40.000Z</time>
      </trkpt>
      <trkpt lat="44.5271" lon="4.25209">
        <ele>410</ele>
        <time>2018-06-03T06:45:41.000Z</time>
      </trkpt>
      <trkpt lat="44.52707" lon="4.25204">
        <ele>410</ele>
        <time>2018-06-03T06:45:42.000Z</time>
      </trkpt>
      <trkpt lat="44.52703" lon="4.25199">
        <ele>410</ele>
        <time>2018-06-03T06:45:43.000Z</time>
      </trkpt>
      <trkpt lat="44.527" lon="4.25195">
        <ele>410</ele>
        <time>2018-06-03T06:45:44.000Z</time>
      </trkpt>
      <trkpt lat="44.52696" lon="4.25191">
        <ele>409</ele>
        <time>2018-06-03T06:45:45.000Z</time>
      </trkpt>
      <trkpt lat="44.52692" lon="4.25186">
        <ele>409</ele>
        <time>2018-06-03T06:45:46.000Z</time>
      </trkpt>
      <trkpt lat="44.52688" lon="4.25184">
        <ele>409</ele>
        <time>2018-06-03T06:45:47.000Z</time>
      </trkpt>
      <trkpt lat="44.52685" lon="4.25184">
        <ele>408</ele>
        <time>2018-06-03T06:45:48.000Z</time>
      </trkpt>
      <trkpt lat="44.52683" lon="4.25185">
        <ele>408</ele>
        <time>2018-06-03T06:45:49.000Z</time>
      </trkpt>
      <trkpt lat="44.52682" lon="4.25186">
        <ele>408</ele>
        <time>2018-06-03T06:45:50.000Z</time>
      </trkpt>
      <trkpt lat="44.52682" lon="4.25187">
        <ele>408</ele>
        <time>2018-06-03T06:45:51.000Z</time>
      </trkpt>
      <trkpt lat="44.52682" lon="4.25189">
        <ele>408</ele>
        <time>2018-06-03T06:45:52.000Z</time>
      </trkpt>
      <trkpt lat="44.52679" lon="4.25191">
        <ele>408</ele>
        <time>2018-06-03T06:45:53.000Z</time>
      </trkpt>
      <trkpt lat="44.52677" lon="4.25192">
        <ele>408</ele>
        <time>2018-06-03T06:45:54.000Z</time>
      </trkpt>
      <trkpt lat="44.52675" lon="4.25192">
        <ele>408</ele>
        <time>2018-06-03T06:45:55.000Z</time>
      </trkpt>
      <trkpt lat="44.52673" lon="4.2519">
        <ele>408</ele>
        <time>2018-06-03T06:45:56.000Z</time>
      </trkpt>
      <trkpt lat="44.52671" lon="4.25189">
        <ele>408</ele>
        <time>2018-06-03T06:45:57.000Z</time>
      </trkpt>
      <trkpt lat="44.52669" lon="4.25189">
        <ele>408</ele>
        <time>2018-06-03T06:45:58.000Z</time>
      </trkpt>
      <trkpt lat="44.52667" lon="4.25191">
        <ele>397</ele>
        <time>2018-06-03T06:45:59.000Z</time>
      </trkpt>
      <trkpt lat="44.52665" lon="4.25195">
        <ele>397</ele>
        <time>2018-06-03T06:46:00.000Z</time>
      </trkpt>
      <trkpt lat="44.52664" lon="4.25199">
        <ele>396</ele>
        <time>2018-06-03T06:46:01.000Z</time>
      </trkpt>
      <trkpt lat="44.52663" lon="4.25203">
        <ele>396</ele>
        <time>2018-06-03T06:46:02.000Z</time>
      </trkpt>
      <trkpt lat="44.52664" lon="4.25206">
        <ele>396</ele>
        <time>2018-06-03T06:46:03.000Z</time>
      </trkpt>
      <trkpt lat="44.52664" lon="4.25209">
        <ele>396</ele>
        <time>2018-06-03T06:46:04.000Z</time>
      </trkpt>
      <trkpt lat="44.52664" lon="4.25212">
        <ele>396</ele>
        <time>2018-06-03T06:46:05.000Z</time>
      </trkpt>
      <trkpt lat="44.52663" lon="4.25214">
        <ele>396</ele>
        <time>2018-06-03T06:46:06.000Z</time>
      </trkpt>
      <trkpt lat="44.52659" lon="4.25214">
        <ele>396</ele>
        <time>2018-06-03T06:46:07.000Z</time>
      </trkpt>
      <trkpt lat="44.52655" lon="4.25211">
        <ele>395</ele>
        <time>2018-06-03T06:46:08.000Z</time>
      </trkpt>
      <trkpt lat="44.52651" lon="4.25206">
        <ele>395</ele>
        <time>2018-06-03T06:46:09.000Z</time>
      </trkpt>
      <trkpt lat="44.52647" lon="4.25204">
        <ele>395</ele>
        <time>2018-06-03T06:46:10.000Z</time>
      </trkpt>
      <trkpt lat="44.52642" lon="4.25201">
        <ele>394</ele>
        <time>2018-06-03T06:46:11.000Z</time>
      </trkpt>
      <trkpt lat="44.52638" lon="4.25198">
        <ele>393</ele>
        <time>2018-06-03T06:46:12.000Z</time>
      </trkpt>
      <trkpt lat="44.52633" lon="4.25193">
        <ele>393</ele>
        <time>2018-06-03T06:46:13.000Z</time>
      </trkpt>
      <trkpt lat="44.52629" lon="4.25188">
        <ele>392</ele>
        <time>2018-06-03T06:46:14.000Z</time>
      </trkpt>
      <trkpt lat="44.52625" lon="4.25182">
        <ele>391</ele>
        <time>2018-06-03T06:46:15.000Z</time>
      </trkpt>
      <trkpt lat="44.52622" lon="4.25175">
        <ele>391</ele>
        <time>2018-06-03T06:46:16.000Z</time>
      </trkpt>
      <trkpt lat="44.5262" lon="4.25168">
        <ele>390</ele>
        <time>2018-06-03T06:46:17.000Z</time>
      </trkpt>
      <trkpt lat="44.52619" lon="4.25161">
        <ele>386</ele>
        <time>2018-06-03T06:46:18.000Z</time>
      </trkpt>
      <trkpt lat="44.52617" lon="4.25153">
        <ele>386</ele>
        <time>2018-06-03T06:46:19.000Z</time>
      </trkpt>
      <trkpt lat="44.52615" lon="4.25145">
        <ele>385</ele>
        <time>2018-06-03T06:46:20.000Z</time>
      </trkpt>
      <trkpt lat="44.52614" lon="4.25136">
        <ele>385</ele>
        <time>2018-06-03T06:46:21.000Z</time>
      </trkpt>
      <trkpt lat="44.52614" lon="4.25129">
        <ele>384</ele>
        <time>2018-06-03T06:46:22.000Z</time>
      </trkpt>
      <trkpt lat="44.52614" lon="4.25122">
        <ele>384</ele>
        <time>2018-06-03T06:46:23.000Z</time>
      </trkpt>
      <trkpt lat="44.52615" lon="4.25116">
        <ele>384</ele>
        <time>2018-06-03T06:46:24.000Z</time>
      </trkpt>
      <trkpt lat="44.52615" lon="4.25109">
        <ele>383</ele>
        <time>2018-06-03T06:46:25.000Z</time>
      </trkpt>
      <trkpt lat="44.52617" lon="4.25103">
        <ele>383</ele>
        <time>2018-06-03T06:46:26.000Z</time>
      </trkpt>
      <trkpt lat="44.52619" lon="4.25098">
        <ele>383</ele>
        <time>2018-06-03T06:46:27.000Z</time>
      </trkpt>
      <trkpt lat="44.52622" lon="4.25093">
        <ele>384</ele>
        <time>2018-06-03T06:46:28.000Z</time>
      </trkpt>
      <trkpt lat="44.52625" lon="4.25089">
        <ele>384</ele>
        <time>2018-06-03T06:46:29.000Z</time>
      </trkpt>
      <trkpt lat="44.52628" lon="4.25084">
        <ele>385</ele>
        <time>2018-06-03T06:46:30.000Z</time>
      </trkpt>
      <trkpt lat="44.52631" lon="4.25079">
        <ele>378</ele>
        <time>2018-06-03T06:46:31.000Z</time>
      </trkpt>
      <trkpt lat="44.52636" lon="4.25076">
        <ele>379</ele>
        <time>2018-06-03T06:46:32.000Z</time>
      </trkpt>
      <trkpt lat="44.5264" lon="4.25072">
        <ele>379</ele>
        <time>2018-06-03T06:46:33.000Z</time>
      </trkpt>
      <trkpt lat="44.52644" lon="4.25068">
        <ele>380</ele>
        <time>2018-06-03T06:46:34.000Z</time>
      </trkpt>
      <trkpt lat="44.52647" lon="4.25065">
        <ele>380</ele>
        <time>2018-06-03T06:46:35.000Z</time>
      </trkpt>
      <trkpt lat="44.52649" lon="4.25063">
        <ele>380</ele>
        <time>2018-06-03T06:46:36.000Z</time>
      </trkpt>
      <trkpt lat="44.5265" lon="4.25063">
        <ele>380</ele>
        <time>2018-06-03T06:46:37.000Z</time>
      </trkpt>
      <trkpt lat="44.52649" lon="4.25063">
        <ele>380</ele>
        <time>2018-06-03T06:46:38.000Z</time>
      </trkpt>
      <trkpt lat="44.52649" lon="4.25061">
        <ele>380</ele>
        <time>2018-06-03T06:46:39.000Z</time>
      </trkpt>
      <trkpt lat="44.5265" lon="4.25059">
        <ele>379</ele>
        <time>2018-06-03T06:46:40.000Z</time>
      </trkpt>
      <trkpt lat="44.52652" lon="4.25056">
        <ele>379</ele>
        <time>2018-06-03T06:46:41.000Z</time>
      </trkpt>
      <trkpt lat="44.52654" lon="4.25054">
        <ele>379</ele>
        <time>2018-06-03T06:46:42.000Z</time>
      </trkpt>
      <trkpt lat="44.52656" lon="4.2505">
        <ele>379</ele>
        <time>2018-06-03T06:46:43.000Z</time>
      </trkpt>
      <trkpt lat="44.52659" lon="4.25047">
        <ele>378</ele>
        <time>2018-06-03T06:46:44.000Z</time>
      </trkpt>
      <trkpt lat="44.52662" lon="4.25044">
        <ele>378</ele>
        <time>2018-06-03T06:46:45.000Z</time>
      </trkpt>
      <trkpt lat="44.52666" lon="4.25043">
        <ele>378</ele>
        <time>2018-06-03T06:46:46.000Z</time>
      </trkpt>
      <trkpt lat="44.52669" lon="4.25042">
        <ele>388</ele>
        <time>2018-06-03T06:46:47.000Z</time>
      </trkpt>
      <trkpt lat="44.52673" lon="4.25042">
        <ele>388</ele>
        <time>2018-06-03T06:46:48.000Z</time>
      </trkpt>
      <trkpt lat="44.52677" lon="4.25041">
        <ele>388</ele>
        <time>2018-06-03T06:46:49.000Z</time>
      </trkpt>
      <trkpt lat="44.52681" lon="4.25041">
        <ele>388</ele>
        <time>2018-06-03T06:46:50.000Z</time>
      </trkpt>
      <trkpt lat="44.52686" lon="4.25041">
        <ele>388</ele>
        <time>2018-06-03T06:46:51.000Z</time>
      </trkpt>
      <trkpt lat="44.5269" lon="4.25041">
        <ele>389</ele>
        <time>2018-06-03T06:46:52.000Z</time>
      </trkpt>
      <trkpt lat="44.52694" lon="4.25041">
        <ele>389</ele>
        <time>2018-06-03T06:46:53.000Z</time>
      </trkpt>
      <trkpt lat="44.52699" lon="4.25041">
        <ele>389</ele>
        <time>2018-06-03T06:46:54.000Z</time>
      </trkpt>
      <trkpt lat="44.52704" lon="4.2504">
        <ele>389</ele>
        <time>2018-06-03T06:46:55.000Z</time>
      </trkpt>
      <trkpt lat="44.52708" lon="4.25039">
        <ele>389</ele>
        <time>2018-06-03T06:46:56.000Z</time>
      </trkpt>
      <trkpt lat="44.52713" lon="4.25039">
        <ele>390</ele>
        <time>2018-06-03T06:46:57.000Z</time>
      </trkpt>
      <trkpt lat="44.52717" lon="4.25038">
        <ele>390</ele>
        <time>2018-06-03T06:46:58.000Z</time>
      </trkpt>
      <trkpt lat="44.52722" lon="4.25037">
        <ele>390</ele>
        <time>2018-06-03T06:46:59.000Z</time>
      </trkpt>
      <trkpt lat="44.52726" lon="4.25036">
        <ele>390</ele>
        <time>2018-06-03T06:47:00.000Z</time>
      </trkpt>
      <trkpt lat="44.52731" lon="4.25034">
        <ele>390</ele>
        <time>2018-06-03T06:47:01.000Z</time>
      </trkpt>
      <trkpt lat="44.52736" lon="4.25032">
        <ele>389</ele>
        <time>2018-06-03T06:47:02.000Z</time>
      </trkpt>
      <trkpt lat="44.52741" lon="4.2503">
        <ele>389</ele>
        <time>2018-06-03T06:47:03.000Z</time>
      </trkpt>
      <trkpt lat="44.52746" lon="4.25029">
        <ele>389</ele>
        <time>2018-06-03T06:47:04.000Z</time>
      </trkpt>
      <trkpt lat="44.52751" lon="4.25029">
        <ele>393</ele>
        <time>2018-06-03T06:47:05.000Z</time>
      </trkpt>
      <trkpt lat="44.52756" lon="4.25028">
        <ele>393</ele>
        <time>2018-06-03T06:47:06.000Z</time>
      </trkpt>
      <trkpt lat="44.52761" lon="4.25028">
        <ele>394</ele>
        <time>2018-06-03T06:47:07.000Z</time>
      </trkpt>
      <trkpt lat="44.52766" lon="4.25028">
        <ele>394</ele>
        <time>2018-06-03T06:47:08.000Z</time>
      </trkpt>
      <trkpt lat="44.52771" lon="4.25028">
        <ele>394</ele>
        <time>2018-06-03T06:47:09.000Z</time>
      </trkpt>
      <trkpt lat="44.52775" lon="4.25028">
        <ele>395</ele>
        <time>2018-06-03T06:47:10.000Z</time>
      </trkpt>
      <trkpt lat="44.5278" lon="4.25028">
        <ele>395</ele>
        <time>2018-06-03T06:47:11.000Z</time>
      </trkpt>
      <trkpt lat="44.52785" lon="4.25029">
        <ele>396</ele>
        <time>2018-06-03T06:47:12.000Z</time>
      </trkpt>
      <trkpt lat="44.52789" lon="4.2503">
        <ele>396</ele>
        <time>2018-06-03T06:47:13.000Z</time>
      </trkpt>
      <trkpt lat="44.52792" lon="4.2503">
        <ele>396</ele>
        <time>2018-06-03T06:47:14.000Z</time>
      </trkpt>
      <trkpt lat="44.52796" lon="4.25031">
        <ele>396</ele>
        <time>2018-06-03T06:47:15.000Z</time>
      </trkpt>
      <trkpt lat="44.528" lon="4.25032">
        <ele>397</ele>
        <time>2018-06-03T06:47:16.000Z</time>
      </trkpt>
      <trkpt lat="44.52804" lon="4.25032">
        <ele>397</ele>
        <time>2018-06-03T06:47:17.000Z</time>
      </trkpt>
      <trkpt lat="44.52809" lon="4.25033">
        <ele>397</ele>
        <time>2018-06-03T06:47:18.000Z</time>
      </trkpt>
      <trkpt lat="44.52813" lon="4.25033">
        <ele>397</ele>
        <time>2018-06-03T06:47:19.000Z</time>
      </trkpt>
      <trkpt lat="44.52817" lon="4.25032">
        <ele>397</ele>
        <time>2018-06-03T06:47:20.000Z</time>
      </trkpt>
      <trkpt lat="44.52821" lon="4.25032">
        <ele>397</ele>
        <time>2018-06-03T06:47:21.000Z</time>
      </trkpt>
      <trkpt lat="44.52826" lon="4.25031">
        <ele>397</ele>
        <time>2018-06-03T06:47:22.000Z</time>
      </trkpt>
      <trkpt lat="44.5283" lon="4.25031">
        <ele>397</ele>
        <time>2018-06-03T06:47:23.000Z</time>
      </trkpt>
      <trkpt lat="44.52834" lon="4.25031">
        <ele>402</ele>
        <time>2018-06-03T06:47:24.000Z</time>
      </trkpt>
      <trkpt lat="44.52838" lon="4.25031">
        <ele>402</ele>
        <time>2018-06-03T06:47:25.000Z</time>
      </trkpt>
      <trkpt lat="44.52842" lon="4.2503">
        <ele>402</ele>
        <time>2018-06-03T06:47:26.000Z</time>
      </trkpt>
      <trkpt lat="44.52847" lon="4.2503">
        <ele>402</ele>
        <time>2018-06-03T06:47:27.000Z</time>
      </trkpt>
      <trkpt lat="44.52851" lon="4.25029">
        <ele>402</ele>
        <time>2018-06-03T06:47:28.000Z</time>
      </trkpt>
      <trkpt lat="44.52855" lon="4.25029">
        <ele>403</ele>
        <time>2018-06-03T06:47:29.000Z</time>
      </trkpt>
      <trkpt lat="44.5286" lon="4.25028">
        <ele>403</ele>
        <time>2018-06-03T06:47:30.000Z</time>
      </trkpt>
      <trkpt lat="44.52864" lon="4.25028">
        <ele>403</ele>
        <time>2018-06-03T06:47:31.000Z</time>
      </trkpt>
      <trkpt lat="44.52869" lon="4.25028">
        <ele>404</ele>
        <time>2018-06-03T06:47:32.000Z</time>
      </trkpt>
      <trkpt lat="44.52873" lon="4.25027">
        <ele>404</ele>
        <time>2018-06-03T06:47:33.000Z</time>
      </trkpt>
      <trkpt lat="44.52877" lon="4.25026">
        <ele>404</ele>
        <time>2018-06-03T06:47:34.000Z</time>
      </trkpt>
      <trkpt lat="44.52881" lon="4.25025">
        <ele>404</ele>
        <time>2018-06-03T06:47:35.000Z</time>
      </trkpt>
      <trkpt lat="44.52885" lon="4.25023">
        <ele>404</ele>
        <time>2018-06-03T06:47:36.000Z</time>
      </trkpt>
      <trkpt lat="44.5289" lon="4.25022">
        <ele>404</ele>
        <time>2018-06-03T06:47:37.000Z</time>
      </trkpt>
      <trkpt lat="44.52895" lon="4.25021">
        <ele>404</ele>
        <time>2018-06-03T06:47:38.000Z</time>
      </trkpt>
      <trkpt lat="44.52899" lon="4.25019">
        <ele>404</ele>
        <time>2018-06-03T06:47:39.000Z</time>
      </trkpt>
      <trkpt lat="44.52904" lon="4.25017">
        <ele>403</ele>
        <time>2018-06-03T06:47:40.000Z</time>
      </trkpt>
      <trkpt lat="44.52909" lon="4.25015">
        <ele>403</ele>
        <time>2018-06-03T06:47:41.000Z</time>
      </trkpt>
      <trkpt lat="44.52913" lon="4.25013">
        <ele>402</ele>
        <time>2018-06-03T06:47:42.000Z</time>
      </trkpt>
      <trkpt lat="44.52918" lon="4.25011">
        <ele>407</ele>
        <time>2018-06-03T06:47:43.000Z</time>
      </trkpt>
      <trkpt lat="44.52922" lon="4.25008">
        <ele>406</ele>
        <time>2018-06-03T06:47:44.000Z</time>
      </trkpt>
      <trkpt lat="44.52926" lon="4.25005">
        <ele>407</ele>
        <time>2018-06-03T06:47:45.000Z</time>
      </trkpt>
      <trkpt lat="44.5293" lon="4.25003">
        <ele>408</ele>
        <time>2018-06-03T06:47:46.000Z</time>
      </trkpt>
      <trkpt lat="44.52934" lon="4.25001">
        <ele>410</ele>
        <time>2018-06-03T06:47:47.000Z</time>
      </trkpt>
      <trkpt lat="44.52938" lon="4.24998">
        <ele>404</ele>
        <time>2018-06-03T06:47:48.000Z</time>
      </trkpt>
      <trkpt lat="44.52942" lon="4.24996">
        <ele>405</ele>
        <time>2018-06-03T06:47:49.000Z</time>
      </trkpt>
      <trkpt lat="44.52945" lon="4.24993">
        <ele>406</ele>
        <time>2018-06-03T06:47:50.000Z</time>
      </trkpt>
      <trkpt lat="44.52949" lon="4.24989">
        <ele>406</ele>
        <time>2018-06-03T06:47:51.000Z</time>
      </trkpt>
      <trkpt lat="44.52952" lon="4.24984">
        <ele>407</ele>
        <time>2018-06-03T06:47:52.000Z</time>
      </trkpt>
      <trkpt lat="44.52955" lon="4.24979">
        <ele>407</ele>
        <time>2018-06-03T06:47:53.000Z</time>
      </trkpt>
      <trkpt lat="44.52958" lon="4.24973">
        <ele>408</ele>
        <time>2018-06-03T06:47:54.000Z</time>
      </trkpt>
      <trkpt lat="44.52962" lon="4.24967">
        <ele>408</ele>
        <time>2018-06-03T06:47:55.000Z</time>
      </trkpt>
      <trkpt lat="44.52965" lon="4.24961">
        <ele>408</ele>
        <time>2018-06-03T06:47:56.000Z</time>
      </trkpt>
      <trkpt lat="44.52968" lon="4.24955">
        <ele>408</ele>
        <time>2018-06-03T06:47:57.000Z</time>
      </trkpt>
      <trkpt lat="44.52971" lon="4.24948">
        <ele>408</ele>
        <time>2018-06-03T06:47:58.000Z</time>
      </trkpt>
      <trkpt lat="44.52972" lon="4.24941">
        <ele>408</ele>
        <time>2018-06-03T06:47:59.000Z</time>
      </trkpt>
      <trkpt lat="44.52971" lon="4.24934">
        <ele>408</ele>
        <time>2018-06-03T06:48:00.000Z</time>
      </trkpt>
      <trkpt lat="44.5297" lon="4.24928">
        <ele>407</ele>
        <time>2018-06-03T06:48:01.000Z</time>
      </trkpt>
      <trkpt lat="44.52967" lon="4.24922">
        <ele>407</ele>
        <time>2018-06-03T06:48:02.000Z</time>
      </trkpt>
      <trkpt lat="44.52963" lon="4.24917">
        <ele>409</ele>
        <time>2018-06-03T06:48:03.000Z</time>
      </trkpt>
      <trkpt lat="44.52958" lon="4.24912">
        <ele>408</ele>
        <time>2018-06-03T06:48:04.000Z</time>
      </trkpt>
      <trkpt lat="44.52953" lon="4.24907">
        <ele>407</ele>
        <time>2018-06-03T06:48:05.000Z</time>
      </trkpt>
      <trkpt lat="44.52948" lon="4.24903">
        <ele>406</ele>
        <time>2018-06-03T06:48:06.000Z</time>
      </trkpt>
      <trkpt lat="44.52943" lon="4.24898">
        <ele>406</ele>
        <time>2018-06-03T06:48:07.000Z</time>
      </trkpt>
      <trkpt lat="44.52939" lon="4.24892">
        <ele>406</ele>
        <time>2018-06-03T06:48:08.000Z</time>
      </trkpt>
      <trkpt lat="44.52935" lon="4.24886">
        <ele>406</ele>
        <time>2018-06-03T06:48:09.000Z</time>
      </trkpt>
      <trkpt lat="44.52931" lon="4.24881">
        <ele>407</ele>
        <time>2018-06-03T06:48:10.000Z</time>
      </trkpt>
      <trkpt lat="44.52927" lon="4.24875">
        <ele>407</ele>
        <time>2018-06-03T06:48:11.000Z</time>
      </trkpt>
      <trkpt lat="44.52923" lon="4.2487">
        <ele>407</ele>
        <time>2018-06-03T06:48:12.000Z</time>
      </trkpt>
      <trkpt lat="44.52919" lon="4.24864">
        <ele>408</ele>
        <time>2018-06-03T06:48:13.000Z</time>
      </trkpt>
      <trkpt lat="44.52914" lon="4.24857">
        <ele>397</ele>
        <time>2018-06-03T06:48:14.000Z</time>
      </trkpt>
      <trkpt lat="44.5291" lon="4.24851">
        <ele>398</ele>
        <time>2018-06-03T06:48:15.000Z</time>
      </trkpt>
      <trkpt lat="44.52906" lon="4.24843">
        <ele>399</ele>
        <time>2018-06-03T06:48:16.000Z</time>
      </trkpt>
      <trkpt lat="44.52902" lon="4.24836">
        <ele>399</ele>
        <time>2018-06-03T06:48:17.000Z</time>
      </trkpt>
      <trkpt lat="44.52898" lon="4.24828">
        <ele>403</ele>
        <time>2018-06-03T06:48:18.000Z</time>
      </trkpt>
      <trkpt lat="44.52893" lon="4.24819">
        <ele>403</ele>
        <time>2018-06-03T06:48:19.000Z</time>
      </trkpt>
      <trkpt lat="44.52889" lon="4.24811">
        <ele>402</ele>
        <time>2018-06-03T06:48:20.000Z</time>
      </trkpt>
      <trkpt lat="44.52884" lon="4.24803">
        <ele>402</ele>
        <time>2018-06-03T06:48:21.000Z</time>
      </trkpt>
      <trkpt lat="44.5288" lon="4.24796">
        <ele>402</ele>
        <time>2018-06-03T06:48:22.000Z</time>
      </trkpt>
      <trkpt lat="44.52875" lon="4.24789">
        <ele>402</ele>
        <time>2018-06-03T06:48:23.000Z</time>
      </trkpt>
      <trkpt lat="44.5287" lon="4.24782">
        <ele>401</ele>
        <time>2018-06-03T06:48:24.000Z</time>
      </trkpt>
      <trkpt lat="44.52866" lon="4.24776">
        <ele>401</ele>
        <time>2018-06-03T06:48:25.000Z</time>
      </trkpt>
      <trkpt lat="44.52862" lon="4.24771">
        <ele>400</ele>
        <time>2018-06-03T06:48:26.000Z</time>
      </trkpt>
      <trkpt lat="44.52858" lon="4.24765">
        <ele>400</ele>
        <time>2018-06-03T06:48:27.000Z</time>
      </trkpt>
      <trkpt lat="44.52854" lon="4.2476">
        <ele>399</ele>
        <time>2018-06-03T06:48:28.000Z</time>
      </trkpt>
      <trkpt lat="44.5285" lon="4.24755">
        <ele>398</ele>
        <time>2018-06-03T06:48:29.000Z</time>
      </trkpt>
      <trkpt lat="44.52848" lon="4.24749">
        <ele>400</ele>
        <time>2018-06-03T06:48:30.000Z</time>
      </trkpt>
      <trkpt lat="44.52847" lon="4.24743">
        <ele>400</ele>
        <time>2018-06-03T06:48:31.000Z</time>
      </trkpt>
      <trkpt lat="44.52846" lon="4.24738">
        <ele>400</ele>
        <time>2018-06-03T06:48:32.000Z</time>
      </trkpt>
      <trkpt lat="44.52846" lon="4.24733">
        <ele>401</ele>
        <time>2018-06-03T06:48:33.000Z</time>
      </trkpt>
      <trkpt lat="44.52846" lon="4.24728">
        <ele>401</ele>
        <time>2018-06-03T06:48:34.000Z</time>
      </trkpt>
      <trkpt lat="44.52847" lon="4.24724">
        <ele>402</ele>
        <time>2018-06-03T06:48:35.000Z</time>
      </trkpt>
      <trkpt lat="44.52848" lon="4.24721">
        <ele>402</ele>
        <time>2018-06-03T06:48:36.000Z</time>
      </trkpt>
      <trkpt lat="44.5285" lon="4.2472">
        <ele>403</ele>
        <time>2018-06-03T06:48:37.000Z</time>
      </trkpt>
      <trkpt lat="44.52852" lon="4.24719">
        <ele>403</ele>
        <time>2018-06-03T06:48:38.000Z</time>
      </trkpt>
      <trkpt lat="44.52853" lon="4.24718">
        <ele>403</ele>
        <time>2018-06-03T06:48:39.000Z</time>
      </trkpt>
      <trkpt lat="44.52855" lon="4.24716">
        <ele>403</ele>
        <time>2018-06-03T06:48:40.000Z</time>
      </trkpt>
      <trkpt lat="44.52857" lon="4.24713">
        <ele>404</ele>
        <time>2018-06-03T06:48:41.000Z</time>
      </trkpt>
      <trkpt lat="44.52859" lon="4.2471">
        <ele>404</ele>
        <time>2018-06-03T06:48:42.000Z</time>
      </trkpt>
      <trkpt lat="44.52861" lon="4.24707">
        <ele>404</ele>
        <time>2018-06-03T06:48:43.000Z</time>
      </trkpt>
      <trkpt lat="44.52863" lon="4.24703">
        <ele>405</ele>
        <time>2018-06-03T06:48:44.000Z</time>
      </trkpt>
      <trkpt lat="44.52864" lon="4.24699">
        <ele>405</ele>
        <time>2018-06-03T06:48:45.000Z</time>
      </trkpt>
      <trkpt lat="44.52866" lon="4.24695">
        <ele>405</ele>
        <time>2018-06-03T06:48:46.000Z</time>
      </trkpt>
      <trkpt lat="44.52867" lon="4.24692">
        <ele>405</ele>
        <time>2018-06-03T06:48:47.000Z</time>
      </trkpt>
      <trkpt lat="44.52868" lon="4.24688">
        <ele>405</ele>
        <time>2018-06-03T06:48:48.000Z</time>
      </trkpt>
      <trkpt lat="44.52869" lon="4.24685">
        <ele>405</ele>
        <time>2018-06-03T06:48:49.000Z</time>
      </trkpt>
      <trkpt lat="44.5287" lon="4.24681">
        <ele>406</ele>
        <time>2018-06-03T06:48:50.000Z</time>
      </trkpt>
      <trkpt lat="44.52872" lon="4.24678">
        <ele>406</ele>
        <time>2018-06-03T06:48:51.000Z</time>
      </trkpt>
      <trkpt lat="44.52873" lon="4.24675">
        <ele>406</ele>
        <time>2018-06-03T06:48:52.000Z</time>
      </trkpt>
      <trkpt lat="44.52874" lon="4.24672">
        <ele>406</ele>
        <time>2018-06-03T06:48:53.000Z</time>
      </trkpt>
      <trkpt lat="44.52876" lon="4.24668">
        <ele>407</ele>
        <time>2018-06-03T06:48:54.000Z</time>
      </trkpt>
      <trkpt lat="44.52877" lon="4.24665">
        <ele>405</ele>
        <time>2018-06-03T06:48:55.000Z</time>
      </trkpt>
      <trkpt lat="44.52878" lon="4.24662">
        <ele>405</ele>
        <time>2018-06-03T06:48:56.000Z</time>
      </trkpt>
      <trkpt lat="44.52878" lon="4.24659">
        <ele>406</ele>
        <time>2018-06-03T06:48:57.000Z</time>
      </trkpt>
      <trkpt lat="44.52879" lon="4.24656">
        <ele>406</ele>
        <time>2018-06-03T06:48:58.000Z</time>
      </trkpt>
      <trkpt lat="44.52879" lon="4.24654">
        <ele>406</ele>
        <time>2018-06-03T06:48:59.000Z</time>
      </trkpt>
      <trkpt lat="44.5288" lon="4.2465">
        <ele>406</ele>
        <time>2018-06-03T06:49:00.000Z</time>
      </trkpt>
      <trkpt lat="44.5288" lon="4.24647">
        <ele>405</ele>
        <time>2018-06-03T06:49:01.000Z</time>
      </trkpt>
      <trkpt lat="44.5288" lon="4.24644">
        <ele>405</ele>
        <time>2018-06-03T06:49:02.000Z</time>
      </trkpt>
      <trkpt lat="44.5288" lon="4.24641">
        <ele>405</ele>
        <time>2018-06-03T06:49:03.000Z</time>
      </trkpt>
      <trkpt lat="44.5288" lon="4.24637">
        <ele>405</ele>
        <time>2018-06-03T06:49:04.000Z</time>
      </trkpt>
      <trkpt lat="44.5288" lon="4.24634">
        <ele>405</ele>
        <time>2018-06-03T06:49:05.000Z</time>
      </trkpt>
      <trkpt lat="44.5288" lon="4.2463">
        <ele>404</ele>
        <time>2018-06-03T06:49:06.000Z</time>
      </trkpt>
      <trkpt lat="44.5288" lon="4.24627">
        <ele>404</ele>
        <time>2018-06-03T06:49:07.000Z</time>
      </trkpt>
      <trkpt lat="44.5288" lon="4.24624">
        <ele>404</ele>
        <time>2018-06-03T06:49:08.000Z</time>
      </trkpt>
      <trkpt lat="44.5288" lon="4.2462">
        <ele>404</ele>
        <time>2018-06-03T06:49:09.000Z</time>
      </trkpt>
      <trkpt lat="44.5288" lon="4.24617">
        <ele>404</ele>
        <time>2018-06-03T06:49:10.000Z</time>
      </trkpt>
      <trkpt lat="44.52879" lon="4.24615">
        <ele>404</ele>
        <time>2018-06-03T06:49:11.000Z</time>
      </trkpt>
      <trkpt lat="44.52879" lon="4.24612">
        <ele>404</ele>
        <time>2018-06-03T06:49:12.000Z</time>
      </trkpt>
      <trkpt lat="44.52879" lon="4.24609">
        <ele>404</ele>
        <time>2018-06-03T06:49:13.000Z</time>
      </trkpt>
      <trkpt lat="44.52879" lon="4.24606">
        <ele>404</ele>
        <time>2018-06-03T06:49:14.000Z</time>
      </trkpt>
      <trkpt lat="44.5288" lon="4.24603">
        <ele>404</ele>
        <time>2018-06-03T06:49:15.000Z</time>
      </trkpt>
      <trkpt lat="44.5288" lon="4.246">
        <ele>404</ele>
        <time>2018-06-03T06:49:16.000Z</time>
      </trkpt>
      <trkpt lat="44.52881" lon="4.24598">
        <ele>404</ele>
        <time>2018-06-03T06:49:17.000Z</time>
      </trkpt>
      <trkpt lat="44.52882" lon="4.24595">
        <ele>404</ele>
        <time>2018-06-03T06:49:18.000Z</time>
      </trkpt>
      <trkpt lat="44.52883" lon="4.24593">
        <ele>404</ele>
        <time>2018-06-03T06:49:19.000Z</time>
      </trkpt>
      <trkpt lat="44.52884" lon="4.2459">
        <ele>404</ele>
        <time>2018-06-03T06:49:20.000Z</time>
      </trkpt>
      <trkpt lat="44.52886" lon="4.24588">
        <ele>405</ele>
        <time>2018-06-03T06:49:21.000Z</time>
      </trkpt>
      <trkpt lat="44.52888" lon="4.24586">
        <ele>405</ele>
        <time>2018-06-03T06:49:22.000Z</time>
      </trkpt>
      <trkpt lat="44.5289" lon="4.24584">
        <ele>406</ele>
        <time>2018-06-03T06:49:23.000Z</time>
      </trkpt>
      <trkpt lat="44.52892" lon="4.24583">
        <ele>400</ele>
        <time>2018-06-03T06:49:24.000Z</time>
      </trkpt>
      <trkpt lat="44.52894" lon="4.24581">
        <ele>401</ele>
        <time>2018-06-03T06:49:25.000Z</time>
      </trkpt>
      <trkpt lat="44.52897" lon="4.2458">
        <ele>402</ele>
        <time>2018-06-03T06:49:26.000Z</time>
      </trkpt>
      <trkpt lat="44.52899" lon="4.24579">
        <ele>403</ele>
        <time>2018-06-03T06:49:27.000Z</time>
      </trkpt>
      <trkpt lat="44.529" lon="4.24578">
        <ele>403</ele>
        <time>2018-06-03T06:49:28.000Z</time>
      </trkpt>
      <trkpt lat="44.52902" lon="4.24576">
        <ele>404</ele>
        <time>2018-06-03T06:49:29.000Z</time>
      </trkpt>
      <trkpt lat="44.52904" lon="4.24575">
        <ele>404</ele>
        <time>2018-06-03T06:49:30.000Z</time>
      </trkpt>
      <trkpt lat="44.52906" lon="4.24574">
        <ele>405</ele>
        <time>2018-06-03T06:49:31.000Z</time>
      </trkpt>
      <trkpt lat="44.52908" lon="4.24573">
        <ele>405</ele>
        <time>2018-06-03T06:49:32.000Z</time>
      </trkpt>
      <trkpt lat="44.5291" lon="4.24572">
        <ele>405</ele>
        <time>2018-06-03T06:49:33.000Z</time>
      </trkpt>
      <trkpt lat="44.52913" lon="4.24571">
        <ele>405</ele>
        <time>2018-06-03T06:49:34.000Z</time>
      </trkpt>
      <trkpt lat="44.52915" lon="4.24569">
        <ele>405</ele>
        <time>2018-06-03T06:49:35.000Z</time>
      </trkpt>
      <trkpt lat="44.52917" lon="4.24568">
        <ele>404</ele>
        <time>2018-06-03T06:49:36.000Z</time>
      </trkpt>
      <trkpt lat="44.52919" lon="4.24566">
        <ele>411</ele>
        <time>2018-06-03T06:49:37.000Z</time>
      </trkpt>
      <trkpt lat="44.52921" lon="4.24565">
        <ele>411</ele>
        <time>2018-06-03T06:49:38.000Z</time>
      </trkpt>
      <trkpt lat="44.52923" lon="4.24563">
        <ele>411</ele>
        <time>2018-06-03T06:49:39.000Z</time>
      </trkpt>
      <trkpt lat="44.52926" lon="4.24562">
        <ele>410</ele>
        <time>2018-06-03T06:49:40.000Z</time>
      </trkpt>
      <trkpt lat="44.52928" lon="4.24559">
        <ele>410</ele>
        <time>2018-06-03T06:49:41.000Z</time>
      </trkpt>
      <trkpt lat="44.52931" lon="4.24557">
        <ele>410</ele>
        <time>2018-06-03T06:49:42.000Z</time>
      </trkpt>
      <trkpt lat="44.52933" lon="4.24556">
        <ele>410</ele>
        <time>2018-06-03T06:49:43.000Z</time>
      </trkpt>
      <trkpt lat="44.52936" lon="4.24555">
        <ele>410</ele>
        <time>2018-06-03T06:49:44.000Z</time>
      </trkpt>
      <trkpt lat="44.52939" lon="4.24554">
        <ele>410</ele>
        <time>2018-06-03T06:49:45.000Z</time>
      </trkpt>
      <trkpt lat="44.52942" lon="4.24552">
        <ele>410</ele>
        <time>2018-06-03T06:49:46.000Z</time>
      </trkpt>
      <trkpt lat="44.52945" lon="4.24551">
        <ele>410</ele>
        <time>2018-06-03T06:49:47.000Z</time>
      </trkpt>
      <trkpt lat="44.52949" lon="4.2455">
        <ele>410</ele>
        <time>2018-06-03T06:49:48.000Z</time>
      </trkpt>
      <trkpt lat="44.52952" lon="4.24549">
        <ele>410</ele>
        <time>2018-06-03T06:49:49.000Z</time>
      </trkpt>
      <trkpt lat="44.52955" lon="4.24547">
        <ele>410</ele>
        <time>2018-06-03T06:49:50.000Z</time>
      </trkpt>
      <trkpt lat="44.52958" lon="4.24545">
        <ele>410</ele>
        <time>2018-06-03T06:49:51.000Z</time>
      </trkpt>
      <trkpt lat="44.52962" lon="4.24543">
        <ele>410</ele>
        <time>2018-06-03T06:49:52.000Z</time>
      </trkpt>
      <trkpt lat="44.52965" lon="4.24542">
        <ele>410</ele>
        <time>2018-06-03T06:49:53.000Z</time>
      </trkpt>
      <trkpt lat="44.52968" lon="4.2454">
        <ele>410</ele>
        <time>2018-06-03T06:49:54.000Z</time>
      </trkpt>
      <trkpt lat="44.52971" lon="4.24538">
        <ele>410</ele>
        <time>2018-06-03T06:49:55.000Z</time>
      </trkpt>
      <trkpt lat="44.52974" lon="4.24535">
        <ele>410</ele>
        <time>2018-06-03T06:49:56.000Z</time>
      </trkpt>
      <trkpt lat="44.52977" lon="4.24533">
        <ele>410</ele>
        <time>2018-06-03T06:49:57.000Z</time>
      </trkpt>
      <trkpt lat="44.5298" lon="4.24531">
        <ele>410</ele>
        <time>2018-06-03T06:49:58.000Z</time>
      </trkpt>
      <trkpt lat="44.52983" lon="4.24529">
        <ele>410</ele>
        <time>2018-06-03T06:49:59.000Z</time>
      </trkpt>
      <trkpt lat="44.52986" lon="4.24527">
        <ele>409</ele>
        <time>2018-06-03T06:50:00.000Z</time>
      </trkpt>
      <trkpt lat="44.52989" lon="4.24525">
        <ele>409</ele>
        <time>2018-06-03T06:50:01.000Z</time>
      </trkpt>
      <trkpt lat="44.52992" lon="4.24522">
        <ele>409</ele>
        <time>2018-06-03T06:50:02.000Z</time>
      </trkpt>
      <trkpt lat="44.52995" lon="4.2452">
        <ele>408</ele>
        <time>2018-06-03T06:50:03.000Z</time>
      </trkpt>
      <trkpt lat="44.52999" lon="4.24518">
        <ele>408</ele>
        <time>2018-06-03T06:50:04.000Z</time>
      </trkpt>
      <trkpt lat="44.53002" lon="4.24518">
        <ele>414</ele>
        <time>2018-06-03T06:50:05.000Z</time>
      </trkpt>
      <trkpt lat="44.53005" lon="4.24516">
        <ele>413</ele>
        <time>2018-06-03T06:50:06.000Z</time>
      </trkpt>
      <trkpt lat="44.53008" lon="4.24514">
        <ele>413</ele>
        <time>2018-06-03T06:50:07.000Z</time>
      </trkpt>
      <trkpt lat="44.53011" lon="4.24513">
        <ele>413</ele>
        <time>2018-06-03T06:50:08.000Z</time>
      </trkpt>
      <trkpt lat="44.53015" lon="4.24511">
        <ele>414</ele>
        <time>2018-06-03T06:50:09.000Z</time>
      </trkpt>
      <trkpt lat="44.53018" lon="4.2451">
        <ele>415</ele>
        <time>2018-06-03T06:50:10.000Z</time>
      </trkpt>
      <trkpt lat="44.53021" lon="4.24509">
        <ele>415</ele>
        <time>2018-06-03T06:50:11.000Z</time>
      </trkpt>
      <trkpt lat="44.53025" lon="4.24508">
        <ele>416</ele>
        <time>2018-06-03T06:50:12.000Z</time>
      </trkpt>
      <trkpt lat="44.53028" lon="4.24508">
        <ele>417</ele>
        <time>2018-06-03T06:50:13.000Z</time>
      </trkpt>
      <trkpt lat="44.53032" lon="4.24507">
        <ele>417</ele>
        <time>2018-06-03T06:50:14.000Z</time>
      </trkpt>
      <trkpt lat="44.53036" lon="4.24507">
        <ele>418</ele>
        <time>2018-06-03T06:50:15.000Z</time>
      </trkpt>
      <trkpt lat="44.5304" lon="4.24506">
        <ele>418</ele>
        <time>2018-06-03T06:50:16.000Z</time>
      </trkpt>
      <trkpt lat="44.53043" lon="4.24505">
        <ele>419</ele>
        <time>2018-06-03T06:50:17.000Z</time>
      </trkpt>
      <trkpt lat="44.53047" lon="4.24505">
        <ele>419</ele>
        <time>2018-06-03T06:50:18.000Z</time>
      </trkpt>
      <trkpt lat="44.5305" lon="4.24504">
        <ele>419</ele>
        <time>2018-06-03T06:50:19.000Z</time>
      </trkpt>
      <trkpt lat="44.53054" lon="4.24503">
        <ele>419</ele>
        <time>2018-06-03T06:50:20.000Z</time>
      </trkpt>
      <trkpt lat="44.53057" lon="4.24502">
        <ele>420</ele>
        <time>2018-06-03T06:50:21.000Z</time>
      </trkpt>
      <trkpt lat="44.53061" lon="4.24501">
        <ele>420</ele>
        <time>2018-06-03T06:50:22.000Z</time>
      </trkpt>
      <trkpt lat="44.53064" lon="4.245">
        <ele>420</ele>
        <time>2018-06-03T06:50:23.000Z</time>
      </trkpt>
      <trkpt lat="44.53067" lon="4.24499">
        <ele>411</ele>
        <time>2018-06-03T06:50:24.000Z</time>
      </trkpt>
      <trkpt lat="44.5307" lon="4.24498">
        <ele>412</ele>
        <time>2018-06-03T06:50:25.000Z</time>
      </trkpt>
      <trkpt lat="44.53073" lon="4.24497">
        <ele>413</ele>
        <time>2018-06-03T06:50:26.000Z</time>
      </trkpt>
      <trkpt lat="44.53076" lon="4.24495">
        <ele>414</ele>
        <time>2018-06-03T06:50:27.000Z</time>
      </trkpt>
      <trkpt lat="44.5308" lon="4.24493">
        <ele>414</ele>
        <time>2018-06-03T06:50:28.000Z</time>
      </trkpt>
      <trkpt lat="44.53083" lon="4.24491">
        <ele>414</ele>
        <time>2018-06-03T06:50:29.000Z</time>
      </trkpt>
      <trkpt lat="44.53086" lon="4.24488">
        <ele>417</ele>
        <time>2018-06-03T06:50:30.000Z</time>
      </trkpt>
      <trkpt lat="44.53089" lon="4.24485">
        <ele>417</ele>
        <time>2018-06-03T06:50:31.000Z</time>
      </trkpt>
      <trkpt lat="44.53092" lon="4.24483">
        <ele>417</ele>
        <time>2018-06-03T06:50:32.000Z</time>
      </trkpt>
      <trkpt lat="44.53095" lon="4.2448">
        <ele>417</ele>
        <time>2018-06-03T06:50:33.000Z</time>
      </trkpt>
      <trkpt lat="44.53098" lon="4.24477">
        <ele>417</ele>
        <time>2018-06-03T06:50:34.000Z</time>
      </trkpt>
      <trkpt lat="44.53101" lon="4.24475">
        <ele>417</ele>
        <time>2018-06-03T06:50:35.000Z</time>
      </trkpt>
      <trkpt lat="44.53104" lon="4.24472">
        <ele>416</ele>
        <time>2018-06-03T06:50:36.000Z</time>
      </trkpt>
      <trkpt lat="44.53107" lon="4.24469">
        <ele>416</ele>
        <time>2018-06-03T06:50:37.000Z</time>
      </trkpt>
      <trkpt lat="44.5311" lon="4.24465">
        <ele>416</ele>
        <time>2018-06-03T06:50:38.000Z</time>
      </trkpt>
      <trkpt lat="44.53113" lon="4.24461">
        <ele>416</ele>
        <time>2018-06-03T06:50:39.000Z</time>
      </trkpt>
      <trkpt lat="44.53116" lon="4.24457">
        <ele>416</ele>
        <time>2018-06-03T06:50:40.000Z</time>
      </trkpt>
      <trkpt lat="44.53119" lon="4.24453">
        <ele>416</ele>
        <time>2018-06-03T06:50:41.000Z</time>
      </trkpt>
      <trkpt lat="44.53122" lon="4.24448">
        <ele>416</ele>
        <time>2018-06-03T06:50:42.000Z</time>
      </trkpt>
      <trkpt lat="44.53125" lon="4.24444">
        <ele>415</ele>
        <time>2018-06-03T06:50:43.000Z</time>
      </trkpt>
      <trkpt lat="44.53128" lon="4.24439">
        <ele>415</ele>
        <time>2018-06-03T06:50:44.000Z</time>
      </trkpt>
      <trkpt lat="44.53131" lon="4.24434">
        <ele>415</ele>
        <time>2018-06-03T06:50:45.000Z</time>
      </trkpt>
      <trkpt lat="44.53135" lon="4.2443">
        <ele>416</ele>
        <time>2018-06-03T06:50:46.000Z</time>
      </trkpt>
      <trkpt lat="44.53139" lon="4.24426">
        <ele>416</ele>
        <time>2018-06-03T06:50:47.000Z</time>
      </trkpt>
      <trkpt lat="44.53143" lon="4.24421">
        <ele>416</ele>
        <time>2018-06-03T06:50:48.000Z</time>
      </trkpt>
      <trkpt lat="44.53146" lon="4.24417">
        <ele>413</ele>
        <time>2018-06-03T06:50:49.000Z</time>
      </trkpt>
      <trkpt lat="44.5315" lon="4.24412">
        <ele>413</ele>
        <time>2018-06-03T06:50:50.000Z</time>
      </trkpt>
      <trkpt lat="44.53153" lon="4.24408">
        <ele>413</ele>
        <time>2018-06-03T06:50:51.000Z</time>
      </trkpt>
      <trkpt lat="44.53157" lon="4.24403">
        <ele>413</ele>
        <time>2018-06-03T06:50:52.000Z</time>
      </trkpt>
      <trkpt lat="44.5316" lon="4.24399">
        <ele>413</ele>
        <time>2018-06-03T06:50:53.000Z</time>
      </trkpt>
      <trkpt lat="44.53163" lon="4.24395">
        <ele>413</ele>
        <time>2018-06-03T06:50:54.000Z</time>
      </trkpt>
      <trkpt lat="44.53166" lon="4.24391">
        <ele>413</ele>
        <time>2018-06-03T06:50:55.000Z</time>
      </trkpt>
      <trkpt lat="44.53169" lon="4.24388">
        <ele>420</ele>
        <time>2018-06-03T06:50:56.000Z</time>
      </trkpt>
      <trkpt lat="44.53172" lon="4.24385">
        <ele>421</ele>
        <time>2018-06-03T06:50:57.000Z</time>
      </trkpt>
      <trkpt lat="44.53175" lon="4.24383">
        <ele>421</ele>
        <time>2018-06-03T06:50:58.000Z</time>
      </trkpt>
      <trkpt lat="44.53178" lon="4.24381">
        <ele>421</ele>
        <time>2018-06-03T06:50:59.000Z</time>
      </trkpt>
      <trkpt lat="44.5318" lon="4.2438">
        <ele>421</ele>
        <time>2018-06-03T06:51:00.000Z</time>
      </trkpt>
      <trkpt lat="44.53183" lon="4.24378">
        <ele>421</ele>
        <time>2018-06-03T06:51:01.000Z</time>
      </trkpt>
      <trkpt lat="44.53185" lon="4.24377">
        <ele>421</ele>
        <time>2018-06-03T06:51:02.000Z</time>
      </trkpt>
      <trkpt lat="44.53187" lon="4.24375">
        <ele>421</ele>
        <time>2018-06-03T06:51:03.000Z</time>
      </trkpt>
      <trkpt lat="44.5319" lon="4.24373">
        <ele>422</ele>
        <time>2018-06-03T06:51:04.000Z</time>
      </trkpt>
      <trkpt lat="44.53192" lon="4.24371">
        <ele>422</ele>
        <time>2018-06-03T06:51:05.000Z</time>
      </trkpt>
      <trkpt lat="44.53194" lon="4.24368">
        <ele>422</ele>
        <time>2018-06-03T06:51:06.000Z</time>
      </trkpt>
      <trkpt lat="44.53196" lon="4.24366">
        <ele>422</ele>
        <time>2018-06-03T06:51:07.000Z</time>
      </trkpt>
      <trkpt lat="44.53197" lon="4.24362">
        <ele>422</ele>
        <time>2018-06-03T06:51:08.000Z</time>
      </trkpt>
      <trkpt lat="44.53197" lon="4.24359">
        <ele>422</ele>
        <time>2018-06-03T06:51:09.000Z</time>
      </trkpt>
      <trkpt lat="44.53198" lon="4.24355">
        <ele>422</ele>
        <time>2018-06-03T06:51:10.000Z</time>
      </trkpt>
      <trkpt lat="44.53197" lon="4.24351">
        <ele>422</ele>
        <time>2018-06-03T06:51:11.000Z</time>
      </trkpt>
      <trkpt lat="44.53196" lon="4.24348">
        <ele>421</ele>
        <time>2018-06-03T06:51:12.000Z</time>
      </trkpt>
      <trkpt lat="44.53195" lon="4.24345">
        <ele>421</ele>
        <time>2018-06-03T06:51:13.000Z</time>
      </trkpt>
      <trkpt lat="44.53193" lon="4.24342">
        <ele>421</ele>
        <time>2018-06-03T06:51:14.000Z</time>
      </trkpt>
      <trkpt lat="44.53192" lon="4.24338">
        <ele>421</ele>
        <time>2018-06-03T06:51:15.000Z</time>
      </trkpt>
      <trkpt lat="44.5319" lon="4.24335">
        <ele>420</ele>
        <time>2018-06-03T06:51:16.000Z</time>
      </trkpt>
      <trkpt lat="44.53188" lon="4.24332">
        <ele>422</ele>
        <time>2018-06-03T06:51:17.000Z</time>
      </trkpt>
      <trkpt lat="44.53187" lon="4.24329">
        <ele>421</ele>
        <time>2018-06-03T06:51:18.000Z</time>
      </trkpt>
      <trkpt lat="44.53184" lon="4.24326">
        <ele>421</ele>
        <time>2018-06-03T06:51:19.000Z</time>
      </trkpt>
      <trkpt lat="44.53182" lon="4.24323">
        <ele>421</ele>
        <time>2018-06-03T06:51:20.000Z</time>
      </trkpt>
      <trkpt lat="44.5318" lon="4.2432">
        <ele>421</ele>
        <time>2018-06-03T06:51:21.000Z</time>
      </trkpt>
      <trkpt lat="44.53178" lon="4.24317">
        <ele>421</ele>
        <time>2018-06-03T06:51:22.000Z</time>
      </trkpt>
      <trkpt lat="44.53176" lon="4.24314">
        <ele>422</ele>
        <time>2018-06-03T06:51:23.000Z</time>
      </trkpt>
      <trkpt lat="44.53174" lon="4.24311">
        <ele>422</ele>
        <time>2018-06-03T06:51:24.000Z</time>
      </trkpt>
      <trkpt lat="44.53171" lon="4.24308">
        <ele>422</ele>
        <time>2018-06-03T06:51:25.000Z</time>
      </trkpt>
      <trkpt lat="44.53169" lon="4.24305">
        <ele>422</ele>
        <time>2018-06-03T06:51:26.000Z</time>
      </trkpt>
      <trkpt lat="44.53167" lon="4.24302">
        <ele>416</ele>
        <time>2018-06-03T06:51:27.000Z</time>
      </trkpt>
      <trkpt lat="44.53164" lon="4.24299">
        <ele>416</ele>
        <time>2018-06-03T06:51:28.000Z</time>
      </trkpt>
      <trkpt lat="44.53162" lon="4.24296">
        <ele>416</ele>
        <time>2018-06-03T06:51:29.000Z</time>
      </trkpt>
      <trkpt lat="44.5316" lon="4.24294">
        <ele>417</ele>
        <time>2018-06-03T06:51:30.000Z</time>
      </trkpt>
      <trkpt lat="44.53157" lon="4.24292">
        <ele>417</ele>
        <time>2018-06-03T06:51:31.000Z</time>
      </trkpt>
      <trkpt lat="44.53155" lon="4.24289">
        <ele>417</ele>
        <time>2018-06-03T06:51:32.000Z</time>
      </trkpt>
      <trkpt lat="44.53152" lon="4.24287">
        <ele>417</ele>
        <time>2018-06-03T06:51:33.000Z</time>
      </trkpt>
      <trkpt lat="44.5315" lon="4.24284">
        <ele>417</ele>
        <time>2018-06-03T06:51:34.000Z</time>
      </trkpt>
      <trkpt lat="44.53148" lon="4.24281">
        <ele>417</ele>
        <time>2018-06-03T06:51:35.000Z</time>
      </trkpt>
      <trkpt lat="44.53146" lon="4.24278">
        <ele>417</ele>
        <time>2018-06-03T06:51:36.000Z</time>
      </trkpt>
      <trkpt lat="44.53144" lon="4.24276">
        <ele>417</ele>
        <time>2018-06-03T06:51:37.000Z</time>
      </trkpt>
      <trkpt lat="44.53141" lon="4.24273">
        <ele>417</ele>
        <time>2018-06-03T06:51:38.000Z</time>
      </trkpt>
      <trkpt lat="44.53139" lon="4.2427">
        <ele>417</ele>
        <time>2018-06-03T06:51:39.000Z</time>
      </trkpt>
      <trkpt lat="44.53137" lon="4.24267">
        <ele>417</ele>
        <time>2018-06-03T06:51:40.000Z</time>
      </trkpt>
      <trkpt lat="44.53134" lon="4.24264">
        <ele>417</ele>
        <time>2018-06-03T06:51:41.000Z</time>
      </trkpt>
      <trkpt lat="44.53132" lon="4.24261">
        <ele>417</ele>
        <time>2018-06-03T06:51:42.000Z</time>
      </trkpt>
      <trkpt lat="44.5313" lon="4.24257">
        <ele>417</ele>
        <time>2018-06-03T06:51:43.000Z</time>
      </trkpt>
      <trkpt lat="44.53127" lon="4.24254">
        <ele>417</ele>
        <time>2018-06-03T06:51:44.000Z</time>
      </trkpt>
      <trkpt lat="44.53125" lon="4.2425">
        <ele>421</ele>
        <time>2018-06-03T06:51:45.000Z</time>
      </trkpt>
      <trkpt lat="44.53122" lon="4.24246">
        <ele>421</ele>
        <time>2018-06-03T06:51:46.000Z</time>
      </trkpt>
      <trkpt lat="44.5312" lon="4.24241">
        <ele>421</ele>
        <time>2018-06-03T06:51:47.000Z</time>
      </trkpt>
      <trkpt lat="44.53118" lon="4.24236">
        <ele>421</ele>
        <time>2018-06-03T06:51:48.000Z</time>
      </trkpt>
      <trkpt lat="44.53115" lon="4.24232">
        <ele>421</ele>
        <time>2018-06-03T06:51:49.000Z</time>
      </trkpt>
      <trkpt lat="44.53114" lon="4.24226">
        <ele>421</ele>
        <time>2018-06-03T06:51:50.000Z</time>
      </trkpt>
      <trkpt lat="44.53115" lon="4.24221">
        <ele>421</ele>
        <time>2018-06-03T06:51:51.000Z</time>
      </trkpt>
      <trkpt lat="44.53118" lon="4.24219">
        <ele>421</ele>
        <time>2018-06-03T06:51:52.000Z</time>
      </trkpt>
      <trkpt lat="44.5312" lon="4.24219">
        <ele>422</ele>
        <time>2018-06-03T06:51:53.000Z</time>
      </trkpt>
      <trkpt lat="44.53121" lon="4.24219">
        <ele>422</ele>
        <time>2018-06-03T06:51:54.000Z</time>
      </trkpt>
      <trkpt lat="44.53123" lon="4.24221">
        <ele>422</ele>
        <time>2018-06-03T06:51:55.000Z</time>
      </trkpt>
      <trkpt lat="44.53125" lon="4.24222">
        <ele>422</ele>
        <time>2018-06-03T06:51:56.000Z</time>
      </trkpt>
      <trkpt lat="44.53127" lon="4.24223">
        <ele>422</ele>
        <time>2018-06-03T06:51:57.000Z</time>
      </trkpt>
      <trkpt lat="44.53129" lon="4.24225">
        <ele>422</ele>
        <time>2018-06-03T06:51:58.000Z</time>
      </trkpt>
      <trkpt lat="44.53131" lon="4.24226">
        <ele>422</ele>
        <time>2018-06-03T06:51:59.000Z</time>
      </trkpt>
      <trkpt lat="44.53133" lon="4.24228">
        <ele>422</ele>
        <time>2018-06-03T06:52:00.000Z</time>
      </trkpt>
      <trkpt lat="44.53134" lon="4.24229">
        <ele>422</ele>
        <time>2018-06-03T06:52:01.000Z</time>
      </trkpt>
      <trkpt lat="44.53136" lon="4.2423">
        <ele>422</ele>
        <time>2018-06-03T06:52:02.000Z</time>
      </trkpt>
      <trkpt lat="44.53139" lon="4.24232">
        <ele>423</ele>
        <time>2018-06-03T06:52:03.000Z</time>
      </trkpt>
      <trkpt lat="44.53141" lon="4.24234">
        <ele>423</ele>
        <time>2018-06-03T06:52:04.000Z</time>
      </trkpt>
      <trkpt lat="44.53143" lon="4.24235">
        <ele>423</ele>
        <time>2018-06-03T06:52:05.000Z</time>
      </trkpt>
      <trkpt lat="44.53145" lon="4.24236">
        <ele>423</ele>
        <time>2018-06-03T06:52:06.000Z</time>
      </trkpt>
      <trkpt lat="44.53147" lon="4.24236">
        <ele>423</ele>
        <time>2018-06-03T06:52:07.000Z</time>
      </trkpt>
      <trkpt lat="44.53149" lon="4.24237">
        <ele>423</ele>
        <time>2018-06-03T06:52:08.000Z</time>
      </trkpt>
      <trkpt lat="44.53152" lon="4.24238">
        <ele>423</ele>
        <time>2018-06-03T06:52:09.000Z</time>
      </trkpt>
      <trkpt lat="44.53154" lon="4.24239">
        <ele>424</ele>
        <time>2018-06-03T06:52:10.000Z</time>
      </trkpt>
      <trkpt lat="44.53156" lon="4.2424">
        <ele>424</ele>
        <time>2018-06-03T06:52:11.000Z</time>
      </trkpt>
      <trkpt lat="44.53158" lon="4.2424">
        <ele>424</ele>
        <time>2018-06-03T06:52:12.000Z</time>
      </trkpt>
      <trkpt lat="44.5316" lon="4.24241">
        <ele>424</ele>
        <time>2018-06-03T06:52:13.000Z</time>
      </trkpt>
      <trkpt lat="44.53163" lon="4.24242">
        <ele>424</ele>
        <time>2018-06-03T06:52:14.000Z</time>
      </trkpt>
      <trkpt lat="44.53165" lon="4.24243">
        <ele>424</ele>
        <time>2018-06-03T06:52:15.000Z</time>
      </trkpt>
      <trkpt lat="44.53167" lon="4.24244">
        <ele>426</ele>
        <time>2018-06-03T06:52:16.000Z</time>
      </trkpt>
      <trkpt lat="44.53169" lon="4.24245">
        <ele>426</ele>
        <time>2018-06-03T06:52:17.000Z</time>
      </trkpt>
      <trkpt lat="44.53171" lon="4.24246">
        <ele>427</ele>
        <time>2018-06-03T06:52:18.000Z</time>
      </trkpt>
      <trkpt lat="44.53173" lon="4.24247">
        <ele>427</ele>
        <time>2018-06-03T06:52:19.000Z</time>
      </trkpt>
      <trkpt lat="44.53175" lon="4.24247">
        <ele>427</ele>
        <time>2018-06-03T06:52:20.000Z</time>
      </trkpt>
      <trkpt lat="44.53178" lon="4.24248">
        <ele>428</ele>
        <time>2018-06-03T06:52:21.000Z</time>
      </trkpt>
      <trkpt lat="44.5318" lon="4.24249">
        <ele>428</ele>
        <time>2018-06-03T06:52:22.000Z</time>
      </trkpt>
      <trkpt lat="44.53182" lon="4.24249">
        <ele>428</ele>
        <time>2018-06-03T06:52:23.000Z</time>
      </trkpt>
      <trkpt lat="44.53184" lon="4.2425">
        <ele>429</ele>
        <time>2018-06-03T06:52:24.000Z</time>
      </trkpt>
      <trkpt lat="44.53187" lon="4.2425">
        <ele>426</ele>
        <time>2018-06-03T06:52:25.000Z</time>
      </trkpt>
      <trkpt lat="44.53189" lon="4.2425">
        <ele>426</ele>
        <time>2018-06-03T06:52:26.000Z</time>
      </trkpt>
      <trkpt lat="44.53192" lon="4.2425">
        <ele>426</ele>
        <time>2018-06-03T06:52:27.000Z</time>
      </trkpt>
      <trkpt lat="44.53194" lon="4.2425">
        <ele>426</ele>
        <time>2018-06-03T06:52:28.000Z</time>
      </trkpt>
      <trkpt lat="44.53197" lon="4.2425">
        <ele>430</ele>
        <time>2018-06-03T06:52:29.000Z</time>
      </trkpt>
      <trkpt lat="44.53199" lon="4.2425">
        <ele>426</ele>
        <time>2018-06-03T06:52:30.000Z</time>
      </trkpt>
      <trkpt lat="44.53201" lon="4.2425">
        <ele>426</ele>
        <time>2018-06-03T06:52:31.000Z</time>
      </trkpt>
      <trkpt lat="44.53203" lon="4.24249">
        <ele>431</ele>
        <time>2018-06-03T06:52:32.000Z</time>
      </trkpt>
      <trkpt lat="44.53205" lon="4.24248">
        <ele>431</ele>
        <time>2018-06-03T06:52:33.000Z</time>
      </trkpt>
      <trkpt lat="44.53206" lon="4.24246">
        <ele>431</ele>
        <time>2018-06-03T06:52:34.000Z</time>
      </trkpt>
      <trkpt lat="44.53207" lon="4.24244">
        <ele>431</ele>
        <time>2018-06-03T06:52:35.000Z</time>
      </trkpt>
      <trkpt lat="44.53207" lon="4.24241">
        <ele>431</ele>
        <time>2018-06-03T06:52:36.000Z</time>
      </trkpt>
      <trkpt lat="44.53208" lon="4.24239">
        <ele>431</ele>
        <time>2018-06-03T06:52:37.000Z</time>
      </trkpt>
      <trkpt lat="44.53208" lon="4.24237">
        <ele>431</ele>
        <time>2018-06-03T06:52:38.000Z</time>
      </trkpt>
      <trkpt lat="44.53208" lon="4.24235">
        <ele>431</ele>
        <time>2018-06-03T06:52:39.000Z</time>
      </trkpt>
      <trkpt lat="44.53209" lon="4.24233">
        <ele>431</ele>
        <time>2018-06-03T06:52:40.000Z</time>
      </trkpt>
      <trkpt lat="44.53209" lon="4.24231">
        <ele>431</ele>
        <time>2018-06-03T06:52:41.000Z</time>
      </trkpt>
      <trkpt lat="44.5321" lon="4.24228">
        <ele>432</ele>
        <time>2018-06-03T06:52:42.000Z</time>
      </trkpt>
      <trkpt lat="44.53211" lon="4.24226">
        <ele>432</ele>
        <time>2018-06-03T06:52:43.000Z</time>
      </trkpt>
      <trkpt lat="44.53211" lon="4.24224">
        <ele>432</ele>
        <time>2018-06-03T06:52:44.000Z</time>
      </trkpt>
      <trkpt lat="44.53212" lon="4.24221">
        <ele>432</ele>
        <time>2018-06-03T06:52:45.000Z</time>
      </trkpt>
      <trkpt lat="44.53214" lon="4.24219">
        <ele>432</ele>
        <time>2018-06-03T06:52:46.000Z</time>
      </trkpt>
      <trkpt lat="44.53215" lon="4.24217">
        <ele>432</ele>
        <time>2018-06-03T06:52:47.000Z</time>
      </trkpt>
      <trkpt lat="44.53215" lon="4.24215">
        <ele>432</ele>
        <time>2018-06-03T06:52:48.000Z</time>
      </trkpt>
      <trkpt lat="44.53217" lon="4.24212">
        <ele>433</ele>
        <time>2018-06-03T06:52:49.000Z</time>
      </trkpt>
      <trkpt lat="44.53217" lon="4.2421">
        <ele>433</ele>
        <time>2018-06-03T06:52:50.000Z</time>
      </trkpt>
      <trkpt lat="44.53218" lon="4.24207">
        <ele>433</ele>
        <time>2018-06-03T06:52:51.000Z</time>
      </trkpt>
      <trkpt lat="44.53219" lon="4.24204">
        <ele>433</ele>
        <time>2018-06-03T06:52:52.000Z</time>
      </trkpt>
      <trkpt lat="44.5322" lon="4.24202">
        <ele>433</ele>
        <time>2018-06-03T06:52:53.000Z</time>
      </trkpt>
      <trkpt lat="44.53221" lon="4.24199">
        <ele>433</ele>
        <time>2018-06-03T06:52:54.000Z</time>
      </trkpt>
      <trkpt lat="44.53222" lon="4.24197">
        <ele>433</ele>
        <time>2018-06-03T06:52:55.000Z</time>
      </trkpt>
      <trkpt lat="44.53223" lon="4.24194">
        <ele>434</ele>
        <time>2018-06-03T06:52:56.000Z</time>
      </trkpt>
      <trkpt lat="44.53223" lon="4.24191">
        <ele>434</ele>
        <time>2018-06-03T06:52:57.000Z</time>
      </trkpt>
      <trkpt lat="44.53223" lon="4.24188">
        <ele>434</ele>
        <time>2018-06-03T06:52:58.000Z</time>
      </trkpt>
      <trkpt lat="44.53223" lon="4.24186">
        <ele>434</ele>
        <time>2018-06-03T06:52:59.000Z</time>
      </trkpt>
      <trkpt lat="44.53221" lon="4.24184">
        <ele>434</ele>
        <time>2018-06-03T06:53:00.000Z</time>
      </trkpt>
      <trkpt lat="44.53219" lon="4.24182">
        <ele>434</ele>
        <time>2018-06-03T06:53:01.000Z</time>
      </trkpt>
      <trkpt lat="44.53216" lon="4.2418">
        <ele>434</ele>
        <time>2018-06-03T06:53:02.000Z</time>
      </trkpt>
      <trkpt lat="44.53213" lon="4.24178">
        <ele>434</ele>
        <time>2018-06-03T06:53:03.000Z</time>
      </trkpt>
      <trkpt lat="44.53209" lon="4.24176">
        <ele>433</ele>
        <time>2018-06-03T06:53:04.000Z</time>
      </trkpt>
      <trkpt lat="44.53206" lon="4.24175">
        <ele>433</ele>
        <time>2018-06-03T06:53:05.000Z</time>
      </trkpt>
      <trkpt lat="44.53202" lon="4.24173">
        <ele>433</ele>
        <time>2018-06-03T06:53:06.000Z</time>
      </trkpt>
      <trkpt lat="44.53198" lon="4.24172">
        <ele>433</ele>
        <time>2018-06-03T06:53:07.000Z</time>
      </trkpt>
      <trkpt lat="44.53194" lon="4.24169">
        <ele>432</ele>
        <time>2018-06-03T06:53:08.000Z</time>
      </trkpt>
      <trkpt lat="44.53191" lon="4.24165">
        <ele>435</ele>
        <time>2018-06-03T06:53:09.000Z</time>
      </trkpt>
      <trkpt lat="44.53188" lon="4.24161">
        <ele>435</ele>
        <time>2018-06-03T06:53:10.000Z</time>
      </trkpt>
      <trkpt lat="44.53186" lon="4.24156">
        <ele>435</ele>
        <time>2018-06-03T06:53:11.000Z</time>
      </trkpt>
      <trkpt lat="44.53183" lon="4.24151">
        <ele>435</ele>
        <time>2018-06-03T06:53:12.000Z</time>
      </trkpt>
      <trkpt lat="44.5318" lon="4.24147">
        <ele>435</ele>
        <time>2018-06-03T06:53:13.000Z</time>
      </trkpt>
      <trkpt lat="44.53178" lon="4.24142">
        <ele>436</ele>
        <time>2018-06-03T06:53:14.000Z</time>
      </trkpt>
      <trkpt lat="44.53175" lon="4.24136">
        <ele>436</ele>
        <time>2018-06-03T06:53:15.000Z</time>
      </trkpt>
      <trkpt lat="44.53173" lon="4.2413">
        <ele>436</ele>
        <time>2018-06-03T06:53:16.000Z</time>
      </trkpt>
      <trkpt lat="44.5317" lon="4.24123">
        <ele>436</ele>
        <time>2018-06-03T06:53:17.000Z</time>
      </trkpt>
      <trkpt lat="44.53168" lon="4.24117">
        <ele>437</ele>
        <time>2018-06-03T06:53:18.000Z</time>
      </trkpt>
      <trkpt lat="44.53166" lon="4.24111">
        <ele>431</ele>
        <time>2018-06-03T06:53:19.000Z</time>
      </trkpt>
      <trkpt lat="44.53165" lon="4.24107">
        <ele>431</ele>
        <time>2018-06-03T06:53:20.000Z</time>
      </trkpt>
      <trkpt lat="44.53164" lon="4.24103">
        <ele>431</ele>
        <time>2018-06-03T06:53:21.000Z</time>
      </trkpt>
      <trkpt lat="44.53162" lon="4.24098">
        <ele>432</ele>
        <time>2018-06-03T06:53:22.000Z</time>
      </trkpt>
      <trkpt lat="44.5316" lon="4.24094">
        <ele>433</ele>
        <time>2018-06-03T06:53:23.000Z</time>
      </trkpt>
      <trkpt lat="44.53158" lon="4.24088">
        <ele>433</ele>
        <time>2018-06-03T06:53:24.000Z</time>
      </trkpt>
      <trkpt lat="44.53156" lon="4.24083">
        <ele>434</ele>
        <time>2018-06-03T06:53:25.000Z</time>
      </trkpt>
      <trkpt lat="44.53154" lon="4.24078">
        <ele>434</ele>
        <time>2018-06-03T06:53:26.000Z</time>
      </trkpt>
      <trkpt lat="44.53152" lon="4.24073">
        <ele>433</ele>
        <time>2018-06-03T06:53:27.000Z</time>
      </trkpt>
      <trkpt lat="44.53151" lon="4.24068">
        <ele>433</ele>
        <time>2018-06-03T06:53:28.000Z</time>
      </trkpt>
      <trkpt lat="44.5315" lon="4.24063">
        <ele>433</ele>
        <time>2018-06-03T06:53:29.000Z</time>
      </trkpt>
      <trkpt lat="44.5315" lon="4.24058">
        <ele>433</ele>
        <time>2018-06-03T06:53:30.000Z</time>
      </trkpt>
      <trkpt lat="44.5315" lon="4.24053">
        <ele>433</ele>
        <time>2018-06-03T06:53:31.000Z</time>
      </trkpt>
      <trkpt lat="44.5315" lon="4.24047">
        <ele>433</ele>
        <time>2018-06-03T06:53:32.000Z</time>
      </trkpt>
      <trkpt lat="44.5315" lon="4.24042">
        <ele>433</ele>
        <time>2018-06-03T06:53:33.000Z</time>
      </trkpt>
      <trkpt lat="44.5315" lon="4.24037">
        <ele>433</ele>
        <time>2018-06-03T06:53:34.000Z</time>
      </trkpt>
      <trkpt lat="44.5315" lon="4.24031">
        <ele>433</ele>
        <time>2018-06-03T06:53:35.000Z</time>
      </trkpt>
      <trkpt lat="44.5315" lon="4.24026">
        <ele>433</ele>
        <time>2018-06-03T06:53:36.000Z</time>
      </trkpt>
      <trkpt lat="44.5315" lon="4.24021">
        <ele>434</ele>
        <time>2018-06-03T06:53:37.000Z</time>
      </trkpt>
      <trkpt lat="44.53149" lon="4.24016">
        <ele>434</ele>
        <time>2018-06-03T06:53:38.000Z</time>
      </trkpt>
      <trkpt lat="44.53148" lon="4.24011">
        <ele>434</ele>
        <time>2018-06-03T06:53:39.000Z</time>
      </trkpt>
      <trkpt lat="44.53147" lon="4.24007">
        <ele>434</ele>
        <time>2018-06-03T06:53:40.000Z</time>
      </trkpt>
      <trkpt lat="44.53147" lon="4.24002">
        <ele>434</ele>
        <time>2018-06-03T06:53:41.000Z</time>
      </trkpt>
      <trkpt lat="44.53146" lon="4.23997">
        <ele>436</ele>
        <time>2018-06-03T06:53:42.000Z</time>
      </trkpt>
      <trkpt lat="44.53146" lon="4.23992">
        <ele>436</ele>
        <time>2018-06-03T06:53:43.000Z</time>
      </trkpt>
      <trkpt lat="44.53145" lon="4.23988">
        <ele>436</ele>
        <time>2018-06-03T06:53:44.000Z</time>
      </trkpt>
      <trkpt lat="44.53145" lon="4.23983">
        <ele>436</ele>
        <time>2018-06-03T06:53:45.000Z</time>
      </trkpt>
      <trkpt lat="44.53144" lon="4.23978">
        <ele>436</ele>
        <time>2018-06-03T06:53:46.000Z</time>
      </trkpt>
      <trkpt lat="44.53144" lon="4.23973">
        <ele>436</ele>
        <time>2018-06-03T06:53:47.000Z</time>
      </trkpt>
      <trkpt lat="44.53143" lon="4.23968">
        <ele>436</ele>
        <time>2018-06-03T06:53:48.000Z</time>
      </trkpt>
      <trkpt lat="44.53142" lon="4.23963">
        <ele>437</ele>
        <time>2018-06-03T06:53:49.000Z</time>
      </trkpt>
      <trkpt lat="44.5314" lon="4.23958">
        <ele>437</ele>
        <time>2018-06-03T06:53:50.000Z</time>
      </trkpt>
      <trkpt lat="44.53139" lon="4.23954">
        <ele>437</ele>
        <time>2018-06-03T06:53:51.000Z</time>
      </trkpt>
      <trkpt lat="44.53137" lon="4.2395">
        <ele>437</ele>
        <time>2018-06-03T06:53:52.000Z</time>
      </trkpt>
      <trkpt lat="44.53136" lon="4.23945">
        <ele>437</ele>
        <time>2018-06-03T06:53:53.000Z</time>
      </trkpt>
      <trkpt lat="44.53134" lon="4.23941">
        <ele>437</ele>
        <time>2018-06-03T06:53:54.000Z</time>
      </trkpt>
      <trkpt lat="44.53132" lon="4.23936">
        <ele>437</ele>
        <time>2018-06-03T06:53:55.000Z</time>
      </trkpt>
      <trkpt lat="44.5313" lon="4.23932">
        <ele>437</ele>
        <time>2018-06-03T06:53:56.000Z</time>
      </trkpt>
      <trkpt lat="44.53128" lon="4.23928">
        <ele>437</ele>
        <time>2018-06-03T06:53:57.000Z</time>
      </trkpt>
      <trkpt lat="44.53125" lon="4.23924">
        <ele>437</ele>
        <time>2018-06-03T06:53:58.000Z</time>
      </trkpt>
      <trkpt lat="44.53122" lon="4.2392">
        <ele>437</ele>
        <time>2018-06-03T06:53:59.000Z</time>
      </trkpt>
      <trkpt lat="44.53119" lon="4.23916">
        <ele>439</ele>
        <time>2018-06-03T06:54:00.000Z</time>
      </trkpt>
      <trkpt lat="44.53116" lon="4.23911">
        <ele>439</ele>
        <time>2018-06-03T06:54:01.000Z</time>
      </trkpt>
      <trkpt lat="44.53113" lon="4.23906">
        <ele>439</ele>
        <time>2018-06-03T06:54:02.000Z</time>
      </trkpt>
      <trkpt lat="44.5311" lon="4.239">
        <ele>438</ele>
        <time>2018-06-03T06:54:03.000Z</time>
      </trkpt>
      <trkpt lat="44.53108" lon="4.23895">
        <ele>439</ele>
        <time>2018-06-03T06:54:04.000Z</time>
      </trkpt>
      <trkpt lat="44.53105" lon="4.23889">
        <ele>439</ele>
        <time>2018-06-03T06:54:05.000Z</time>
      </trkpt>
      <trkpt lat="44.53103" lon="4.23883">
        <ele>439</ele>
        <time>2018-06-03T06:54:06.000Z</time>
      </trkpt>
      <trkpt lat="44.531" lon="4.23878">
        <ele>439</ele>
        <time>2018-06-03T06:54:07.000Z</time>
      </trkpt>
      <trkpt lat="44.53098" lon="4.23872">
        <ele>439</ele>
        <time>2018-06-03T06:54:08.000Z</time>
      </trkpt>
      <trkpt lat="44.53095" lon="4.23866">
        <ele>439</ele>
        <time>2018-06-03T06:54:09.000Z</time>
      </trkpt>
      <trkpt lat="44.53092" lon="4.2386">
        <ele>439</ele>
        <time>2018-06-03T06:54:10.000Z</time>
      </trkpt>
      <trkpt lat="44.5309" lon="4.23854">
        <ele>438</ele>
        <time>2018-06-03T06:54:11.000Z</time>
      </trkpt>
      <trkpt lat="44.53089" lon="4.23848">
        <ele>438</ele>
        <time>2018-06-03T06:54:12.000Z</time>
      </trkpt>
      <trkpt lat="44.53088" lon="4.23842">
        <ele>438</ele>
        <time>2018-06-03T06:54:13.000Z</time>
      </trkpt>
      <trkpt lat="44.53086" lon="4.23836">
        <ele>437</ele>
        <time>2018-06-03T06:54:14.000Z</time>
      </trkpt>
      <trkpt lat="44.53085" lon="4.23829">
        <ele>438</ele>
        <time>2018-06-03T06:54:15.000Z</time>
      </trkpt>
      <trkpt lat="44.53084" lon="4.23823">
        <ele>439</ele>
        <time>2018-06-03T06:54:16.000Z</time>
      </trkpt>
      <trkpt lat="44.53083" lon="4.23817">
        <ele>435</ele>
        <time>2018-06-03T06:54:17.000Z</time>
      </trkpt>
      <trkpt lat="44.53082" lon="4.2381">
        <ele>435</ele>
        <time>2018-06-03T06:54:18.000Z</time>
      </trkpt>
      <trkpt lat="44.53081" lon="4.23804">
        <ele>435</ele>
        <time>2018-06-03T06:54:19.000Z</time>
      </trkpt>
      <trkpt lat="44.5308" lon="4.23797">
        <ele>434</ele>
        <time>2018-06-03T06:54:20.000Z</time>
      </trkpt>
      <trkpt lat="44.53078" lon="4.23791">
        <ele>434</ele>
        <time>2018-06-03T06:54:21.000Z</time>
      </trkpt>
      <trkpt lat="44.53077" lon="4.23785">
        <ele>435</ele>
        <time>2018-06-03T06:54:22.000Z</time>
      </trkpt>
      <trkpt lat="44.53075" lon="4.23779">
        <ele>435</ele>
        <time>2018-06-03T06:54:23.000Z</time>
      </trkpt>
      <trkpt lat="44.53073" lon="4.23773">
        <ele>435</ele>
        <time>2018-06-03T06:54:24.000Z</time>
      </trkpt>
      <trkpt lat="44.5307" lon="4.23767">
        <ele>435</ele>
        <time>2018-06-03T06:54:25.000Z</time>
      </trkpt>
      <trkpt lat="44.53068" lon="4.23762">
        <ele>435</ele>
        <time>2018-06-03T06:54:26.000Z</time>
      </trkpt>
      <trkpt lat="44.53066" lon="4.23756">
        <ele>435</ele>
        <time>2018-06-03T06:54:27.000Z</time>
      </trkpt>
      <trkpt lat="44.53063" lon="4.23751">
        <ele>435</ele>
        <time>2018-06-03T06:54:28.000Z</time>
      </trkpt>
      <trkpt lat="44.5306" lon="4.23744">
        <ele>437</ele>
        <time>2018-06-03T06:54:29.000Z</time>
      </trkpt>
      <trkpt lat="44.53058" lon="4.23739">
        <ele>437</ele>
        <time>2018-06-03T06:54:30.000Z</time>
      </trkpt>
      <trkpt lat="44.53054" lon="4.23733">
        <ele>436</ele>
        <time>2018-06-03T06:54:31.000Z</time>
      </trkpt>
      <trkpt lat="44.53051" lon="4.23728">
        <ele>436</ele>
        <time>2018-06-03T06:54:32.000Z</time>
      </trkpt>
      <trkpt lat="44.53048" lon="4.23722">
        <ele>436</ele>
        <time>2018-06-03T06:54:33.000Z</time>
      </trkpt>
      <trkpt lat="44.53044" lon="4.23716">
        <ele>436</ele>
        <time>2018-06-03T06:54:34.000Z</time>
      </trkpt>
      <trkpt lat="44.53042" lon="4.23711">
        <ele>436</ele>
        <time>2018-06-03T06:54:35.000Z</time>
      </trkpt>
      <trkpt lat="44.53039" lon="4.23705">
        <ele>436</ele>
        <time>2018-06-03T06:54:36.000Z</time>
      </trkpt>
      <trkpt lat="44.53037" lon="4.23701">
        <ele>436</ele>
        <time>2018-06-03T06:54:37.000Z</time>
      </trkpt>
      <trkpt lat="44.53035" lon="4.23697">
        <ele>436</ele>
        <time>2018-06-03T06:54:38.000Z</time>
      </trkpt>
      <trkpt lat="44.53033" lon="4.23694">
        <ele>436</ele>
        <time>2018-06-03T06:54:39.000Z</time>
      </trkpt>
      <trkpt lat="44.53032" lon="4.23692">
        <ele>436</ele>
        <time>2018-06-03T06:54:40.000Z</time>
      </trkpt>
      <trkpt lat="44.53031" lon="4.2369">
        <ele>436</ele>
        <time>2018-06-03T06:54:41.000Z</time>
      </trkpt>
      <trkpt lat="44.53031" lon="4.23688">
        <ele>436</ele>
        <time>2018-06-03T06:54:42.000Z</time>
      </trkpt>
      <trkpt lat="44.53032" lon="4.23686">
        <ele>436</ele>
        <time>2018-06-03T06:54:43.000Z</time>
      </trkpt>
      <trkpt lat="44.53033" lon="4.23685">
        <ele>436</ele>
        <time>2018-06-03T06:54:44.000Z</time>
      </trkpt>
      <trkpt lat="44.53035" lon="4.23685">
        <ele>436</ele>
        <time>2018-06-03T06:54:45.000Z</time>
      </trkpt>
      <trkpt lat="44.53036" lon="4.23685">
        <ele>436</ele>
        <time>2018-06-03T06:54:46.000Z</time>
      </trkpt>
      <trkpt lat="44.53038" lon="4.23686">
        <ele>436</ele>
        <time>2018-06-03T06:54:47.000Z</time>
      </trkpt>
      <trkpt lat="44.5304" lon="4.23687">
        <ele>436</ele>
        <time>2018-06-03T06:54:48.000Z</time>
      </trkpt>
      <trkpt lat="44.53041" lon="4.23688">
        <ele>437</ele>
        <time>2018-06-03T06:54:49.000Z</time>
      </trkpt>
      <trkpt lat="44.53043" lon="4.23689">
        <ele>437</ele>
        <time>2018-06-03T06:54:50.000Z</time>
      </trkpt>
      <trkpt lat="44.53045" lon="4.2369">
        <ele>437</ele>
        <time>2018-06-03T06:54:51.000Z</time>
      </trkpt>
      <trkpt lat="44.53047" lon="4.23691">
        <ele>437</ele>
        <time>2018-06-03T06:54:52.000Z</time>
      </trkpt>
      <trkpt lat="44.53049" lon="4.23692">
        <ele>437</ele>
        <time>2018-06-03T06:54:53.000Z</time>
      </trkpt>
      <trkpt lat="44.53051" lon="4.23693">
        <ele>437</ele>
        <time>2018-06-03T06:54:54.000Z</time>
      </trkpt>
      <trkpt lat="44.53052" lon="4.23694">
        <ele>437</ele>
        <time>2018-06-03T06:54:55.000Z</time>
      </trkpt>
      <trkpt lat="44.53054" lon="4.23695">
        <ele>437</ele>
        <time>2018-06-03T06:54:56.000Z</time>
      </trkpt>
      <trkpt lat="44.53056" lon="4.23697">
        <ele>437</ele>
        <time>2018-06-03T06:54:57.000Z</time>
      </trkpt>
      <trkpt lat="44.53059" lon="4.23698">
        <ele>437</ele>
        <time>2018-06-03T06:54:58.000Z</time>
      </trkpt>
      <trkpt lat="44.53061" lon="4.237">
        <ele>437</ele>
        <time>2018-06-03T06:54:59.000Z</time>
      </trkpt>
      <trkpt lat="44.53063" lon="4.23702">
        <ele>437</ele>
        <time>2018-06-03T06:55:00.000Z</time>
      </trkpt>
      <trkpt lat="44.53065" lon="4.23703">
        <ele>437</ele>
        <time>2018-06-03T06:55:01.000Z</time>
      </trkpt>
      <trkpt lat="44.53067" lon="4.23704">
        <ele>438</ele>
        <time>2018-06-03T06:55:02.000Z</time>
      </trkpt>
      <trkpt lat="44.53069" lon="4.23705">
        <ele>438</ele>
        <time>2018-06-03T06:55:03.000Z</time>
      </trkpt>
      <trkpt lat="44.53071" lon="4.23706">
        <ele>438</ele>
        <time>2018-06-03T06:55:04.000Z</time>
      </trkpt>
      <trkpt lat="44.53073" lon="4.23707">
        <ele>438</ele>
        <time>2018-06-03T06:55:05.000Z</time>
      </trkpt>
      <trkpt lat="44.53075" lon="4.23709">
        <ele>438</ele>
        <time>2018-06-03T06:55:06.000Z</time>
      </trkpt>
      <trkpt lat="44.53077" lon="4.2371">
        <ele>438</ele>
        <time>2018-06-03T06:55:07.000Z</time>
      </trkpt>
      <trkpt lat="44.53079" lon="4.23712">
        <ele>438</ele>
        <time>2018-06-03T06:55:08.000Z</time>
      </trkpt>
      <trkpt lat="44.53081" lon="4.23713">
        <ele>438</ele>
        <time>2018-06-03T06:55:09.000Z</time>
      </trkpt>
      <trkpt lat="44.53083" lon="4.23714">
        <ele>438</ele>
        <time>2018-06-03T06:55:10.000Z</time>
      </trkpt>
      <trkpt lat="44.53085" lon="4.23716">
        <ele>444</ele>
        <time>2018-06-03T06:55:11.000Z</time>
      </trkpt>
      <trkpt lat="44.53087" lon="4.23717">
        <ele>444</ele>
        <time>2018-06-03T06:55:12.000Z</time>
      </trkpt>
      <trkpt lat="44.5309" lon="4.23719">
        <ele>444</ele>
        <time>2018-06-03T06:55:13.000Z</time>
      </trkpt>
      <trkpt lat="44.53092" lon="4.23721">
        <ele>444</ele>
        <time>2018-06-03T06:55:14.000Z</time>
      </trkpt>
      <trkpt lat="44.53094" lon="4.23722">
        <ele>444</ele>
        <time>2018-06-03T06:55:15.000Z</time>
      </trkpt>
      <trkpt lat="44.53096" lon="4.23723">
        <ele>444</ele>
        <time>2018-06-03T06:55:16.000Z</time>
      </trkpt>
      <trkpt lat="44.53098" lon="4.23724">
        <ele>444</ele>
        <time>2018-06-03T06:55:17.000Z</time>
      </trkpt>
      <trkpt lat="44.531" lon="4.23725">
        <ele>444</ele>
        <time>2018-06-03T06:55:18.000Z</time>
      </trkpt>
      <trkpt lat="44.53102" lon="4.23726">
        <ele>444</ele>
        <time>2018-06-03T06:55:19.000Z</time>
      </trkpt>
      <trkpt lat="44.53105" lon="4.23727">
        <ele>444</ele>
        <time>2018-06-03T06:55:20.000Z</time>
      </trkpt>
      <trkpt lat="44.53107" lon="4.23728">
        <ele>444</ele>
        <time>2018-06-03T06:55:21.000Z</time>
      </trkpt>
      <trkpt lat="44.5311" lon="4.23728">
        <ele>444</ele>
        <time>2018-06-03T06:55:22.000Z</time>
      </trkpt>
      <trkpt lat="44.53112" lon="4.23729">
        <ele>444</ele>
        <time>2018-06-03T06:55:23.000Z</time>
      </trkpt>
      <trkpt lat="44.53114" lon="4.23729">
        <ele>445</ele>
        <time>2018-06-03T06:55:24.000Z</time>
      </trkpt>
      <trkpt lat="44.53116" lon="4.2373">
        <ele>445</ele>
        <time>2018-06-03T06:55:25.000Z</time>
      </trkpt>
      <trkpt lat="44.53118" lon="4.23731">
        <ele>445</ele>
        <time>2018-06-03T06:55:26.000Z</time>
      </trkpt>
      <trkpt lat="44.5312" lon="4.23731">
        <ele>445</ele>
        <time>2018-06-03T06:55:27.000Z</time>
      </trkpt>
      <trkpt lat="44.53122" lon="4.23732">
        <ele>445</ele>
        <time>2018-06-03T06:55:28.000Z</time>
      </trkpt>
      <trkpt lat="44.53123" lon="4.23733">
        <ele>445</ele>
        <time>2018-06-03T06:55:29.000Z</time>
      </trkpt>
      <trkpt lat="44.53125" lon="4.23734">
        <ele>445</ele>
        <time>2018-06-03T06:55:30.000Z</time>
      </trkpt>
      <trkpt lat="44.53127" lon="4.23735">
        <ele>446</ele>
        <time>2018-06-03T06:55:31.000Z</time>
      </trkpt>
      <trkpt lat="44.53129" lon="4.23736">
        <ele>446</ele>
        <time>2018-06-03T06:55:32.000Z</time>
      </trkpt>
      <trkpt lat="44.53131" lon="4.23738">
        <ele>446</ele>
        <time>2018-06-03T06:55:33.000Z</time>
      </trkpt>
      <trkpt lat="44.53133" lon="4.23739">
        <ele>446</ele>
        <time>2018-06-03T06:55:34.000Z</time>
      </trkpt>
      <trkpt lat="44.53135" lon="4.2374">
        <ele>446</ele>
        <time>2018-06-03T06:55:35.000Z</time>
      </trkpt>
      <trkpt lat="44.53137" lon="4.23742">
        <ele>446</ele>
        <time>2018-06-03T06:55:36.000Z</time>
      </trkpt>
      <trkpt lat="44.53139" lon="4.23745">
        <ele>447</ele>
        <time>2018-06-03T06:55:37.000Z</time>
      </trkpt>
      <trkpt lat="44.53141" lon="4.23747">
        <ele>447</ele>
        <time>2018-06-03T06:55:38.000Z</time>
      </trkpt>
      <trkpt lat="44.53143" lon="4.23749">
        <ele>447</ele>
        <time>2018-06-03T06:55:39.000Z</time>
      </trkpt>
      <trkpt lat="44.53145" lon="4.23752">
        <ele>446</ele>
        <time>2018-06-03T06:55:40.000Z</time>
      </trkpt>
      <trkpt lat="44.53147" lon="4.23754">
        <ele>446</ele>
        <time>2018-06-03T06:55:41.000Z</time>
      </trkpt>
      <trkpt lat="44.53149" lon="4.23757">
        <ele>446</ele>
        <time>2018-06-03T06:55:42.000Z</time>
      </trkpt>
      <trkpt lat="44.53151" lon="4.23759">
        <ele>446</ele>
        <time>2018-06-03T06:55:43.000Z</time>
      </trkpt>
      <trkpt lat="44.53153" lon="4.23761">
        <ele>446</ele>
        <time>2018-06-03T06:55:44.000Z</time>
      </trkpt>
      <trkpt lat="44.53155" lon="4.23763">
        <ele>446</ele>
        <time>2018-06-03T06:55:45.000Z</time>
      </trkpt>
      <trkpt lat="44.53157" lon="4.23766">
        <ele>446</ele>
        <time>2018-06-03T06:55:46.000Z</time>
      </trkpt>
      <trkpt lat="44.53159" lon="4.23768">
        <ele>446</ele>
        <time>2018-06-03T06:55:47.000Z</time>
      </trkpt>
      <trkpt lat="44.5316" lon="4.23771">
        <ele>446</ele>
        <time>2018-06-03T06:55:48.000Z</time>
      </trkpt>
      <trkpt lat="44.53162" lon="4.23773">
        <ele>446</ele>
        <time>2018-06-03T06:55:49.000Z</time>
      </trkpt>
      <trkpt lat="44.53163" lon="4.23776">
        <ele>446</ele>
        <time>2018-06-03T06:55:50.000Z</time>
      </trkpt>
      <trkpt lat="44.53165" lon="4.23778">
        <ele>446</ele>
        <time>2018-06-03T06:55:51.000Z</time>
      </trkpt>
      <trkpt lat="44.53167" lon="4.23781">
        <ele>453</ele>
        <time>2018-06-03T06:55:52.000Z</time>
      </trkpt>
      <trkpt lat="44.53169" lon="4.23784">
        <ele>453</ele>
        <time>2018-06-03T06:55:53.000Z</time>
      </trkpt>
      <trkpt lat="44.53171" lon="4.23787">
        <ele>453</ele>
        <time>2018-06-03T06:55:54.000Z</time>
      </trkpt>
      <trkpt lat="44.53173" lon="4.2379">
        <ele>453</ele>
        <time>2018-06-03T06:55:55.000Z</time>
      </trkpt>
      <trkpt lat="44.53175" lon="4.23793">
        <ele>453</ele>
        <time>2018-06-03T06:55:56.000Z</time>
      </trkpt>
      <trkpt lat="44.53177" lon="4.23797">
        <ele>453</ele>
        <time>2018-06-03T06:55:57.000Z</time>
      </trkpt>
      <trkpt lat="44.5318" lon="4.238">
        <ele>453</ele>
        <time>2018-06-03T06:55:58.000Z</time>
      </trkpt>
      <trkpt lat="44.53182" lon="4.23803">
        <ele>453</ele>
        <time>2018-06-03T06:55:59.000Z</time>
      </trkpt>
      <trkpt lat="44.53184" lon="4.23806">
        <ele>453</ele>
        <time>2018-06-03T06:56:00.000Z</time>
      </trkpt>
      <trkpt lat="44.53187" lon="4.23809">
        <ele>453</ele>
        <time>2018-06-03T06:56:01.000Z</time>
      </trkpt>
      <trkpt lat="44.53189" lon="4.23812">
        <ele>453</ele>
        <time>2018-06-03T06:56:02.000Z</time>
      </trkpt>
      <trkpt lat="44.53191" lon="4.23815">
        <ele>453</ele>
        <time>2018-06-03T06:56:03.000Z</time>
      </trkpt>
      <trkpt lat="44.53193" lon="4.23817">
        <ele>453</ele>
        <time>2018-06-03T06:56:04.000Z</time>
      </trkpt>
      <trkpt lat="44.53196" lon="4.2382">
        <ele>453</ele>
        <time>2018-06-03T06:56:05.000Z</time>
      </trkpt>
      <trkpt lat="44.53198" lon="4.23823">
        <ele>453</ele>
        <time>2018-06-03T06:56:06.000Z</time>
      </trkpt>
      <trkpt lat="44.532" lon="4.23825">
        <ele>453</ele>
        <time>2018-06-03T06:56:07.000Z</time>
      </trkpt>
      <trkpt lat="44.53202" lon="4.23827">
        <ele>454</ele>
        <time>2018-06-03T06:56:08.000Z</time>
      </trkpt>
      <trkpt lat="44.53205" lon="4.2383">
        <ele>454</ele>
        <time>2018-06-03T06:56:09.000Z</time>
      </trkpt>
      <trkpt lat="44.53207" lon="4.23832">
        <ele>454</ele>
        <time>2018-06-03T06:56:10.000Z</time>
      </trkpt>
      <trkpt lat="44.53209" lon="4.23834">
        <ele>451</ele>
        <time>2018-06-03T06:56:11.000Z</time>
      </trkpt>
      <trkpt lat="44.53211" lon="4.23837">
        <ele>451</ele>
        <time>2018-06-03T06:56:12.000Z</time>
      </trkpt>
      <trkpt lat="44.53214" lon="4.23839">
        <ele>452</ele>
        <time>2018-06-03T06:56:13.000Z</time>
      </trkpt>
      <trkpt lat="44.53216" lon="4.23841">
        <ele>452</ele>
        <time>2018-06-03T06:56:14.000Z</time>
      </trkpt>
      <trkpt lat="44.53219" lon="4.23843">
        <ele>452</ele>
        <time>2018-06-03T06:56:15.000Z</time>
      </trkpt>
      <trkpt lat="44.53221" lon="4.23845">
        <ele>452</ele>
        <time>2018-06-03T06:56:16.000Z</time>
      </trkpt>
      <trkpt lat="44.53224" lon="4.23847">
        <ele>453</ele>
        <time>2018-06-03T06:56:17.000Z</time>
      </trkpt>
      <trkpt lat="44.53226" lon="4.23848">
        <ele>453</ele>
        <time>2018-06-03T06:56:18.000Z</time>
      </trkpt>
      <trkpt lat="44.53229" lon="4.23848">
        <ele>453</ele>
        <time>2018-06-03T06:56:19.000Z</time>
      </trkpt>
      <trkpt lat="44.53232" lon="4.23847">
        <ele>454</ele>
        <time>2018-06-03T06:56:20.000Z</time>
      </trkpt>
      <trkpt lat="44.53234" lon="4.23845">
        <ele>454</ele>
        <time>2018-06-03T06:56:21.000Z</time>
      </trkpt>
      <trkpt lat="44.53237" lon="4.23844">
        <ele>455</ele>
        <time>2018-06-03T06:56:22.000Z</time>
      </trkpt>
      <trkpt lat="44.53239" lon="4.23842">
        <ele>455</ele>
        <time>2018-06-03T06:56:23.000Z</time>
      </trkpt>
      <trkpt lat="44.53241" lon="4.2384">
        <ele>456</ele>
        <time>2018-06-03T06:56:24.000Z</time>
      </trkpt>
      <trkpt lat="44.53243" lon="4.23838">
        <ele>456</ele>
        <time>2018-06-03T06:56:25.000Z</time>
      </trkpt>
      <trkpt lat="44.53245" lon="4.23835">
        <ele>457</ele>
        <time>2018-06-03T06:56:26.000Z</time>
      </trkpt>
      <trkpt lat="44.53247" lon="4.23834">
        <ele>458</ele>
        <time>2018-06-03T06:56:27.000Z</time>
      </trkpt>
      <trkpt lat="44.53249" lon="4.23832">
        <ele>459</ele>
        <time>2018-06-03T06:56:28.000Z</time>
      </trkpt>
      <trkpt lat="44.53251" lon="4.2383">
        <ele>460</ele>
        <time>2018-06-03T06:56:29.000Z</time>
      </trkpt>
      <trkpt lat="44.53253" lon="4.23828">
        <ele>461</ele>
        <time>2018-06-03T06:56:30.000Z</time>
      </trkpt>
      <trkpt lat="44.53255" lon="4.23826">
        <ele>462</ele>
        <time>2018-06-03T06:56:31.000Z</time>
      </trkpt>
      <trkpt lat="44.53256" lon="4.23824">
        <ele>463</ele>
        <time>2018-06-03T06:56:32.000Z</time>
      </trkpt>
      <trkpt lat="44.53258" lon="4.23821">
        <ele>463</ele>
        <time>2018-06-03T06:56:33.000Z</time>
      </trkpt>
      <trkpt lat="44.53259" lon="4.23819">
        <ele>464</ele>
        <time>2018-06-03T06:56:34.000Z</time>
      </trkpt>
      <trkpt lat="44.5326" lon="4.23817">
        <ele>464</ele>
        <time>2018-06-03T06:56:35.000Z</time>
      </trkpt>
      <trkpt lat="44.53261" lon="4.23814">
        <ele>465</ele>
        <time>2018-06-03T06:56:36.000Z</time>
      </trkpt>
      <trkpt lat="44.53262" lon="4.23812">
        <ele>465</ele>
        <time>2018-06-03T06:56:37.000Z</time>
      </trkpt>
      <trkpt lat="44.53263" lon="4.2381">
        <ele>465</ele>
        <time>2018-06-03T06:56:38.000Z</time>
      </trkpt>
      <trkpt lat="44.53264" lon="4.23807">
        <ele>466</ele>
        <time>2018-06-03T06:56:39.000Z</time>
      </trkpt>
      <trkpt lat="44.53266" lon="4.23804">
        <ele>466</ele>
        <time>2018-06-03T06:56:40.000Z</time>
      </trkpt>
      <trkpt lat="44.53268" lon="4.238">
        <ele>467</ele>
        <time>2018-06-03T06:56:41.000Z</time>
      </trkpt>
      <trkpt lat="44.53269" lon="4.23797">
        <ele>467</ele>
        <time>2018-06-03T06:56:42.000Z</time>
      </trkpt>
      <trkpt lat="44.53271" lon="4.23795">
        <ele>467</ele>
        <time>2018-06-03T06:56:43.000Z</time>
      </trkpt>
      <trkpt lat="44.53272" lon="4.23792">
        <ele>468</ele>
        <time>2018-06-03T06:56:44.000Z</time>
      </trkpt>
      <trkpt lat="44.53273" lon="4.2379">
        <ele>468</ele>
        <time>2018-06-03T06:56:45.000Z</time>
      </trkpt>
      <trkpt lat="44.53274" lon="4.23787">
        <ele>468</ele>
        <time>2018-06-03T06:56:46.000Z</time>
      </trkpt>
      <trkpt lat="44.53275" lon="4.23784">
        <ele>468</ele>
        <time>2018-06-03T06:56:47.000Z</time>
      </trkpt>
      <trkpt lat="44.53276" lon="4.23782">
        <ele>468</ele>
        <time>2018-06-03T06:56:48.000Z</time>
      </trkpt>
      <trkpt lat="44.53277" lon="4.2378">
        <ele>468</ele>
        <time>2018-06-03T06:56:49.000Z</time>
      </trkpt>
      <trkpt lat="44.53278" lon="4.23778">
        <ele>469</ele>
        <time>2018-06-03T06:56:50.000Z</time>
      </trkpt>
      <trkpt lat="44.53278" lon="4.23775">
        <ele>469</ele>
        <time>2018-06-03T06:56:51.000Z</time>
      </trkpt>
      <trkpt lat="44.53279" lon="4.23773">
        <ele>469</ele>
        <time>2018-06-03T06:56:52.000Z</time>
      </trkpt>
      <trkpt lat="44.53279" lon="4.2377">
        <ele>469</ele>
        <time>2018-06-03T06:56:53.000Z</time>
      </trkpt>
      <trkpt lat="44.53278" lon="4.23768">
        <ele>469</ele>
        <time>2018-06-03T06:56:54.000Z</time>
      </trkpt>
      <trkpt lat="44.53277" lon="4.23766">
        <ele>469</ele>
        <time>2018-06-03T06:56:55.000Z</time>
      </trkpt>
      <trkpt lat="44.53277" lon="4.23763">
        <ele>469</ele>
        <time>2018-06-03T06:56:56.000Z</time>
      </trkpt>
      <trkpt lat="44.53276" lon="4.2376">
        <ele>469</ele>
        <time>2018-06-03T06:56:57.000Z</time>
      </trkpt>
      <trkpt lat="44.53276" lon="4.23757">
        <ele>469</ele>
        <time>2018-06-03T06:56:58.000Z</time>
      </trkpt>
      <trkpt lat="44.53275" lon="4.23755">
        <ele>469</ele>
        <time>2018-06-03T06:56:59.000Z</time>
      </trkpt>
      <trkpt lat="44.53275" lon="4.23752">
        <ele>469</ele>
        <time>2018-06-03T06:57:00.000Z</time>
      </trkpt>
      <trkpt lat="44.53275" lon="4.2375">
        <ele>474</ele>
        <time>2018-06-03T06:57:01.000Z</time>
      </trkpt>
      <trkpt lat="44.53274" lon="4.23747">
        <ele>474</ele>
        <time>2018-06-03T06:57:02.000Z</time>
      </trkpt>
      <trkpt lat="44.53274" lon="4.23744">
        <ele>474</ele>
        <time>2018-06-03T06:57:03.000Z</time>
      </trkpt>
      <trkpt lat="44.53274" lon="4.23742">
        <ele>474</ele>
        <time>2018-06-03T06:57:04.000Z</time>
      </trkpt>
      <trkpt lat="44.53274" lon="4.23739">
        <ele>474</ele>
        <time>2018-06-03T06:57:05.000Z</time>
      </trkpt>
      <trkpt lat="44.53273" lon="4.23736">
        <ele>474</ele>
        <time>2018-06-03T06:57:06.000Z</time>
      </trkpt>
      <trkpt lat="44.53273" lon="4.23734">
        <ele>474</ele>
        <time>2018-06-03T06:57:07.000Z</time>
      </trkpt>
      <trkpt lat="44.53273" lon="4.23731">
        <ele>474</ele>
        <time>2018-06-03T06:57:08.000Z</time>
      </trkpt>
      <trkpt lat="44.53273" lon="4.23728">
        <ele>475</ele>
        <time>2018-06-03T06:57:09.000Z</time>
      </trkpt>
      <trkpt lat="44.53273" lon="4.23726">
        <ele>475</ele>
        <time>2018-06-03T06:57:10.000Z</time>
      </trkpt>
      <trkpt lat="44.53273" lon="4.23723">
        <ele>475</ele>
        <time>2018-06-03T06:57:11.000Z</time>
      </trkpt>
      <trkpt lat="44.53273" lon="4.2372">
        <ele>475</ele>
        <time>2018-06-03T06:57:12.000Z</time>
      </trkpt>
      <trkpt lat="44.53273" lon="4.23718">
        <ele>475</ele>
        <time>2018-06-03T06:57:13.000Z</time>
      </trkpt>
      <trkpt lat="44.53273" lon="4.23715">
        <ele>476</ele>
        <time>2018-06-03T06:57:14.000Z</time>
      </trkpt>
      <trkpt lat="44.53274" lon="4.23713">
        <ele>476</ele>
        <time>2018-06-03T06:57:15.000Z</time>
      </trkpt>
      <trkpt lat="44.53275" lon="4.2371">
        <ele>476</ele>
        <time>2018-06-03T06:57:16.000Z</time>
      </trkpt>
      <trkpt lat="44.53276" lon="4.23708">
        <ele>476</ele>
        <time>2018-06-03T06:57:17.000Z</time>
      </trkpt>
      <trkpt lat="44.53277" lon="4.23706">
        <ele>477</ele>
        <time>2018-06-03T06:57:18.000Z</time>
      </trkpt>
      <trkpt lat="44.53279" lon="4.23704">
        <ele>477</ele>
        <time>2018-06-03T06:57:19.000Z</time>
      </trkpt>
      <trkpt lat="44.5328" lon="4.23702">
        <ele>477</ele>
        <time>2018-06-03T06:57:20.000Z</time>
      </trkpt>
      <trkpt lat="44.53281" lon="4.237">
        <ele>477</ele>
        <time>2018-06-03T06:57:21.000Z</time>
      </trkpt>
      <trkpt lat="44.53283" lon="4.23698">
        <ele>478</ele>
        <time>2018-06-03T06:57:22.000Z</time>
      </trkpt>
      <trkpt lat="44.53284" lon="4.23697">
        <ele>478</ele>
        <time>2018-06-03T06:57:23.000Z</time>
      </trkpt>
      <trkpt lat="44.53285" lon="4.23695">
        <ele>478</ele>
        <time>2018-06-03T06:57:24.000Z</time>
      </trkpt>
      <trkpt lat="44.53285" lon="4.23692">
        <ele>478</ele>
        <time>2018-06-03T06:57:25.000Z</time>
      </trkpt>
      <trkpt lat="44.53284" lon="4.2369">
        <ele>478</ele>
        <time>2018-06-03T06:57:26.000Z</time>
      </trkpt>
      <trkpt lat="44.53284" lon="4.23687">
        <ele>478</ele>
        <time>2018-06-03T06:57:27.000Z</time>
      </trkpt>
      <trkpt lat="44.53283" lon="4.23685">
        <ele>478</ele>
        <time>2018-06-03T06:57:28.000Z</time>
      </trkpt>
      <trkpt lat="44.53281" lon="4.23682">
        <ele>478</ele>
        <time>2018-06-03T06:57:29.000Z</time>
      </trkpt>
      <trkpt lat="44.53281" lon="4.23678">
        <ele>477</ele>
        <time>2018-06-03T06:57:30.000Z</time>
      </trkpt>
      <trkpt lat="44.5328" lon="4.23675">
        <ele>477</ele>
        <time>2018-06-03T06:57:31.000Z</time>
      </trkpt>
      <trkpt lat="44.53279" lon="4.23671">
        <ele>477</ele>
        <time>2018-06-03T06:57:32.000Z</time>
      </trkpt>
      <trkpt lat="44.53279" lon="4.23667">
        <ele>477</ele>
        <time>2018-06-03T06:57:33.000Z</time>
      </trkpt>
      <trkpt lat="44.53279" lon="4.23663">
        <ele>481</ele>
        <time>2018-06-03T06:57:34.000Z</time>
      </trkpt>
      <trkpt lat="44.53279" lon="4.23659">
        <ele>481</ele>
        <time>2018-06-03T06:57:35.000Z</time>
      </trkpt>
      <trkpt lat="44.5328" lon="4.23655">
        <ele>482</ele>
        <time>2018-06-03T06:57:36.000Z</time>
      </trkpt>
      <trkpt lat="44.5328" lon="4.23652">
        <ele>482</ele>
        <time>2018-06-03T06:57:37.000Z</time>
      </trkpt>
      <trkpt lat="44.53279" lon="4.23649">
        <ele>482</ele>
        <time>2018-06-03T06:57:38.000Z</time>
      </trkpt>
      <trkpt lat="44.53278" lon="4.23646">
        <ele>482</ele>
        <time>2018-06-03T06:57:39.000Z</time>
      </trkpt>
      <trkpt lat="44.53277" lon="4.23642">
        <ele>482</ele>
        <time>2018-06-03T06:57:40.000Z</time>
      </trkpt>
      <trkpt lat="44.53276" lon="4.23639">
        <ele>482</ele>
        <time>2018-06-03T06:57:41.000Z</time>
      </trkpt>
      <trkpt lat="44.53276" lon="4.23635">
        <ele>482</ele>
        <time>2018-06-03T06:57:42.000Z</time>
      </trkpt>
      <trkpt lat="44.53275" lon="4.23631">
        <ele>482</ele>
        <time>2018-06-03T06:57:43.000Z</time>
      </trkpt>
      <trkpt lat="44.53274" lon="4.23627">
        <ele>482</ele>
        <time>2018-06-03T06:57:44.000Z</time>
      </trkpt>
      <trkpt lat="44.53273" lon="4.23624">
        <ele>482</ele>
        <time>2018-06-03T06:57:45.000Z</time>
      </trkpt>
      <trkpt lat="44.53273" lon="4.2362">
        <ele>482</ele>
        <time>2018-06-03T06:57:46.000Z</time>
      </trkpt>
      <trkpt lat="44.53272" lon="4.23617">
        <ele>482</ele>
        <time>2018-06-03T06:57:47.000Z</time>
      </trkpt>
      <trkpt lat="44.53272" lon="4.23614">
        <ele>482</ele>
        <time>2018-06-03T06:57:48.000Z</time>
      </trkpt>
      <trkpt lat="44.53272" lon="4.23611">
        <ele>482</ele>
        <time>2018-06-03T06:57:49.000Z</time>
      </trkpt>
      <trkpt lat="44.53273" lon="4.23608">
        <ele>482</ele>
        <time>2018-06-03T06:57:50.000Z</time>
      </trkpt>
      <trkpt lat="44.53273" lon="4.23605">
        <ele>482</ele>
        <time>2018-06-03T06:57:51.000Z</time>
      </trkpt>
      <trkpt lat="44.53274" lon="4.23602">
        <ele>482</ele>
        <time>2018-06-03T06:57:52.000Z</time>
      </trkpt>
      <trkpt lat="44.53274" lon="4.23599">
        <ele>482</ele>
        <time>2018-06-03T06:57:53.000Z</time>
      </trkpt>
      <trkpt lat="44.53274" lon="4.23596">
        <ele>482</ele>
        <time>2018-06-03T06:57:54.000Z</time>
      </trkpt>
      <trkpt lat="44.53275" lon="4.23594">
        <ele>482</ele>
        <time>2018-06-03T06:57:55.000Z</time>
      </trkpt>
      <trkpt lat="44.53275" lon="4.23591">
        <ele>482</ele>
        <time>2018-06-03T06:57:56.000Z</time>
      </trkpt>
      <trkpt lat="44.53276" lon="4.23589">
        <ele>482</ele>
        <time>2018-06-03T06:57:57.000Z</time>
      </trkpt>
      <trkpt lat="44.53276" lon="4.23587">
        <ele>482</ele>
        <time>2018-06-03T06:57:58.000Z</time>
      </trkpt>
      <trkpt lat="44.53276" lon="4.23585">
        <ele>482</ele>
        <time>2018-06-03T06:57:59.000Z</time>
      </trkpt>
      <trkpt lat="44.53276" lon="4.23583">
        <ele>482</ele>
        <time>2018-06-03T06:58:00.000Z</time>
      </trkpt>
      <trkpt lat="44.53277" lon="4.2358">
        <ele>482</ele>
        <time>2018-06-03T06:58:01.000Z</time>
      </trkpt>
      <trkpt lat="44.53277" lon="4.23578">
        <ele>482</ele>
        <time>2018-06-03T06:58:02.000Z</time>
      </trkpt>
      <trkpt lat="44.53278" lon="4.23576">
        <ele>483</ele>
        <time>2018-06-03T06:58:03.000Z</time>
      </trkpt>
      <trkpt lat="44.53279" lon="4.23573">
        <ele>483</ele>
        <time>2018-06-03T06:58:04.000Z</time>
      </trkpt>
      <trkpt lat="44.5328" lon="4.2357">
        <ele>483</ele>
        <time>2018-06-03T06:58:05.000Z</time>
      </trkpt>
      <trkpt lat="44.53281" lon="4.23567">
        <ele>483</ele>
        <time>2018-06-03T06:58:06.000Z</time>
      </trkpt>
      <trkpt lat="44.53282" lon="4.23564">
        <ele>484</ele>
        <time>2018-06-03T06:58:07.000Z</time>
      </trkpt>
      <trkpt lat="44.53282" lon="4.23562">
        <ele>484</ele>
        <time>2018-06-03T06:58:08.000Z</time>
      </trkpt>
      <trkpt lat="44.53282" lon="4.2356">
        <ele>484</ele>
        <time>2018-06-03T06:58:09.000Z</time>
      </trkpt>
      <trkpt lat="44.53282" lon="4.23558">
        <ele>484</ele>
        <time>2018-06-03T06:58:10.000Z</time>
      </trkpt>
      <trkpt lat="44.53282" lon="4.23555">
        <ele>484</ele>
        <time>2018-06-03T06:58:11.000Z</time>
      </trkpt>
      <trkpt lat="44.53282" lon="4.23553">
        <ele>484</ele>
        <time>2018-06-03T06:58:12.000Z</time>
      </trkpt>
      <trkpt lat="44.53283" lon="4.23551">
        <ele>484</ele>
        <time>2018-06-03T06:58:13.000Z</time>
      </trkpt>
      <trkpt lat="44.53284" lon="4.23549">
        <ele>484</ele>
        <time>2018-06-03T06:58:14.000Z</time>
      </trkpt>
      <trkpt lat="44.53284" lon="4.23547">
        <ele>484</ele>
        <time>2018-06-03T06:58:15.000Z</time>
      </trkpt>
      <trkpt lat="44.53284" lon="4.23544">
        <ele>484</ele>
        <time>2018-06-03T06:58:16.000Z</time>
      </trkpt>
      <trkpt lat="44.53285" lon="4.23542">
        <ele>484</ele>
        <time>2018-06-03T06:58:17.000Z</time>
      </trkpt>
      <trkpt lat="44.53285" lon="4.2354">
        <ele>484</ele>
        <time>2018-06-03T06:58:18.000Z</time>
      </trkpt>
      <trkpt lat="44.53285" lon="4.23537">
        <ele>484</ele>
        <time>2018-06-03T06:58:19.000Z</time>
      </trkpt>
      <trkpt lat="44.53286" lon="4.23534">
        <ele>484</ele>
        <time>2018-06-03T06:58:20.000Z</time>
      </trkpt>
      <trkpt lat="44.53287" lon="4.23531">
        <ele>484</ele>
        <time>2018-06-03T06:58:21.000Z</time>
      </trkpt>
      <trkpt lat="44.53287" lon="4.23527">
        <ele>484</ele>
        <time>2018-06-03T06:58:22.000Z</time>
      </trkpt>
      <trkpt lat="44.53288" lon="4.23524">
        <ele>485</ele>
        <time>2018-06-03T06:58:23.000Z</time>
      </trkpt>
      <trkpt lat="44.53289" lon="4.2352">
        <ele>485</ele>
        <time>2018-06-03T06:58:24.000Z</time>
      </trkpt>
      <trkpt lat="44.5329" lon="4.23516">
        <ele>485</ele>
        <time>2018-06-03T06:58:25.000Z</time>
      </trkpt>
      <trkpt lat="44.53291" lon="4.23511">
        <ele>485</ele>
        <time>2018-06-03T06:58:26.000Z</time>
      </trkpt>
      <trkpt lat="44.53291" lon="4.23506">
        <ele>485</ele>
        <time>2018-06-03T06:58:27.000Z</time>
      </trkpt>
      <trkpt lat="44.53292" lon="4.23502">
        <ele>485</ele>
        <time>2018-06-03T06:58:28.000Z</time>
      </trkpt>
      <trkpt lat="44.53293" lon="4.23497">
        <ele>483</ele>
        <time>2018-06-03T06:58:29.000Z</time>
      </trkpt>
      <trkpt lat="44.53293" lon="4.23493">
        <ele>483</ele>
        <time>2018-06-03T06:58:30.000Z</time>
      </trkpt>
      <trkpt lat="44.53295" lon="4.23489">
        <ele>483</ele>
        <time>2018-06-03T06:58:31.000Z</time>
      </trkpt>
      <trkpt lat="44.53296" lon="4.23485">
        <ele>483</ele>
        <time>2018-06-03T06:58:32.000Z</time>
      </trkpt>
      <trkpt lat="44.53298" lon="4.2348">
        <ele>483</ele>
        <time>2018-06-03T06:58:33.000Z</time>
      </trkpt>
      <trkpt lat="44.533" lon="4.23476">
        <ele>484</ele>
        <time>2018-06-03T06:58:34.000Z</time>
      </trkpt>
      <trkpt lat="44.53302" lon="4.23472">
        <ele>484</ele>
        <time>2018-06-03T06:58:35.000Z</time>
      </trkpt>
      <trkpt lat="44.53303" lon="4.23468">
        <ele>484</ele>
        <time>2018-06-03T06:58:36.000Z</time>
      </trkpt>
      <trkpt lat="44.53305" lon="4.23464">
        <ele>484</ele>
        <time>2018-06-03T06:58:37.000Z</time>
      </trkpt>
      <trkpt lat="44.53306" lon="4.2346">
        <ele>484</ele>
        <time>2018-06-03T06:58:38.000Z</time>
      </trkpt>
      <trkpt lat="44.53308" lon="4.23456">
        <ele>484</ele>
        <time>2018-06-03T06:58:39.000Z</time>
      </trkpt>
      <trkpt lat="44.5331" lon="4.23452">
        <ele>484</ele>
        <time>2018-06-03T06:58:40.000Z</time>
      </trkpt>
      <trkpt lat="44.53312" lon="4.23448">
        <ele>484</ele>
        <time>2018-06-03T06:58:41.000Z</time>
      </trkpt>
      <trkpt lat="44.53313" lon="4.23444">
        <ele>484</ele>
        <time>2018-06-03T06:58:42.000Z</time>
      </trkpt>
      <trkpt lat="44.53313" lon="4.23441">
        <ele>484</ele>
        <time>2018-06-03T06:58:43.000Z</time>
      </trkpt>
      <trkpt lat="44.53313" lon="4.23436">
        <ele>484</ele>
        <time>2018-06-03T06:58:44.000Z</time>
      </trkpt>
      <trkpt lat="44.53313" lon="4.23432">
        <ele>484</ele>
        <time>2018-06-03T06:58:45.000Z</time>
      </trkpt>
      <trkpt lat="44.53312" lon="4.23426">
        <ele>484</ele>
        <time>2018-06-03T06:58:46.000Z</time>
      </trkpt>
      <trkpt lat="44.5331" lon="4.23422">
        <ele>484</ele>
        <time>2018-06-03T06:58:47.000Z</time>
      </trkpt>
      <trkpt lat="44.53309" lon="4.23417">
        <ele>484</ele>
        <time>2018-06-03T06:58:48.000Z</time>
      </trkpt>
      <trkpt lat="44.53307" lon="4.23413">
        <ele>482</ele>
        <time>2018-06-03T06:58:49.000Z</time>
      </trkpt>
      <trkpt lat="44.53306" lon="4.23409">
        <ele>482</ele>
        <time>2018-06-03T06:58:50.000Z</time>
      </trkpt>
      <trkpt lat="44.53307" lon="4.23406">
        <ele>482</ele>
        <time>2018-06-03T06:58:51.000Z</time>
      </trkpt>
      <trkpt lat="44.53307" lon="4.23402">
        <ele>481</ele>
        <time>2018-06-03T06:58:52.000Z</time>
      </trkpt>
      <trkpt lat="44.53308" lon="4.23398">
        <ele>481</ele>
        <time>2018-06-03T06:58:53.000Z</time>
      </trkpt>
      <trkpt lat="44.53307" lon="4.23394">
        <ele>481</ele>
        <time>2018-06-03T06:58:54.000Z</time>
      </trkpt>
      <trkpt lat="44.53307" lon="4.23389">
        <ele>481</ele>
        <time>2018-06-03T06:58:55.000Z</time>
      </trkpt>
      <trkpt lat="44.53307" lon="4.23384">
        <ele>481</ele>
        <time>2018-06-03T06:58:56.000Z</time>
      </trkpt>
      <trkpt lat="44.53306" lon="4.2338">
        <ele>480</ele>
        <time>2018-06-03T06:58:57.000Z</time>
      </trkpt>
      <trkpt lat="44.53305" lon="4.23376">
        <ele>480</ele>
        <time>2018-06-03T06:58:58.000Z</time>
      </trkpt>
      <trkpt lat="44.53304" lon="4.23372">
        <ele>480</ele>
        <time>2018-06-03T06:58:59.000Z</time>
      </trkpt>
      <trkpt lat="44.53303" lon="4.23368">
        <ele>480</ele>
        <time>2018-06-03T06:59:00.000Z</time>
      </trkpt>
      <trkpt lat="44.53302" lon="4.23364">
        <ele>480</ele>
        <time>2018-06-03T06:59:01.000Z</time>
      </trkpt>
      <trkpt lat="44.53302" lon="4.2336">
        <ele>480</ele>
        <time>2018-06-03T06:59:02.000Z</time>
      </trkpt>
      <trkpt lat="44.53302" lon="4.23356">
        <ele>480</ele>
        <time>2018-06-03T06:59:03.000Z</time>
      </trkpt>
      <trkpt lat="44.53303" lon="4.23352">
        <ele>480</ele>
        <time>2018-06-03T06:59:04.000Z</time>
      </trkpt>
      <trkpt lat="44.53305" lon="4.23349">
        <ele>480</ele>
        <time>2018-06-03T06:59:05.000Z</time>
      </trkpt>
      <trkpt lat="44.53306" lon="4.23345">
        <ele>480</ele>
        <time>2018-06-03T06:59:06.000Z</time>
      </trkpt>
      <trkpt lat="44.53307" lon="4.23342">
        <ele>480</ele>
        <time>2018-06-03T06:59:07.000Z</time>
      </trkpt>
      <trkpt lat="44.53309" lon="4.23338">
        <ele>480</ele>
        <time>2018-06-03T06:59:08.000Z</time>
      </trkpt>
      <trkpt lat="44.53311" lon="4.23335">
        <ele>481</ele>
        <time>2018-06-03T06:59:09.000Z</time>
      </trkpt>
      <trkpt lat="44.53314" lon="4.23332">
        <ele>477</ele>
        <time>2018-06-03T06:59:10.000Z</time>
      </trkpt>
      <trkpt lat="44.53317" lon="4.2333">
        <ele>477</ele>
        <time>2018-06-03T06:59:11.000Z</time>
      </trkpt>
      <trkpt lat="44.5332" lon="4.23327">
        <ele>478</ele>
        <time>2018-06-03T06:59:12.000Z</time>
      </trkpt>
      <trkpt lat="44.53323" lon="4.23324">
        <ele>478</ele>
        <time>2018-06-03T06:59:13.000Z</time>
      </trkpt>
      <trkpt lat="44.53327" lon="4.23321">
        <ele>478</ele>
        <time>2018-06-03T06:59:14.000Z</time>
      </trkpt>
      <trkpt lat="44.5333" lon="4.23319">
        <ele>478</ele>
        <time>2018-06-03T06:59:15.000Z</time>
      </trkpt>
      <trkpt lat="44.53334" lon="4.23316">
        <ele>481</ele>
        <time>2018-06-03T06:59:16.000Z</time>
      </trkpt>
      <trkpt lat="44.53338" lon="4.23313">
        <ele>481</ele>
        <time>2018-06-03T06:59:17.000Z</time>
      </trkpt>
      <trkpt lat="44.53342" lon="4.2331">
        <ele>481</ele>
        <time>2018-06-03T06:59:18.000Z</time>
      </trkpt>
      <trkpt lat="44.53347" lon="4.23308">
        <ele>481</ele>
        <time>2018-06-03T06:59:19.000Z</time>
      </trkpt>
      <trkpt lat="44.53351" lon="4.23306">
        <ele>480</ele>
        <time>2018-06-03T06:59:20.000Z</time>
      </trkpt>
      <trkpt lat="44.53356" lon="4.23304">
        <ele>480</ele>
        <time>2018-06-03T06:59:21.000Z</time>
      </trkpt>
      <trkpt lat="44.5336" lon="4.23301">
        <ele>480</ele>
        <time>2018-06-03T06:59:22.000Z</time>
      </trkpt>
      <trkpt lat="44.53365" lon="4.23299">
        <ele>480</ele>
        <time>2018-06-03T06:59:23.000Z</time>
      </trkpt>
      <trkpt lat="44.53369" lon="4.23296">
        <ele>480</ele>
        <time>2018-06-03T06:59:24.000Z</time>
      </trkpt>
      <trkpt lat="44.53373" lon="4.23294">
        <ele>480</ele>
        <time>2018-06-03T06:59:25.000Z</time>
      </trkpt>
      <trkpt lat="44.53377" lon="4.23292">
        <ele>480</ele>
        <time>2018-06-03T06:59:26.000Z</time>
      </trkpt>
      <trkpt lat="44.53382" lon="4.23289">
        <ele>480</ele>
        <time>2018-06-03T06:59:27.000Z</time>
      </trkpt>
      <trkpt lat="44.53387" lon="4.23288">
        <ele>480</ele>
        <time>2018-06-03T06:59:28.000Z</time>
      </trkpt>
      <trkpt lat="44.53391" lon="4.23287">
        <ele>480</ele>
        <time>2018-06-03T06:59:29.000Z</time>
      </trkpt>
      <trkpt lat="44.53395" lon="4.23286">
        <ele>480</ele>
        <time>2018-06-03T06:59:30.000Z</time>
      </trkpt>
      <trkpt lat="44.53399" lon="4.23284">
        <ele>480</ele>
        <time>2018-06-03T06:59:31.000Z</time>
      </trkpt>
      <trkpt lat="44.53402" lon="4.23282">
        <ele>480</ele>
        <time>2018-06-03T06:59:32.000Z</time>
      </trkpt>
      <trkpt lat="44.53406" lon="4.23281">
        <ele>480</ele>
        <time>2018-06-03T06:59:33.000Z</time>
      </trkpt>
      <trkpt lat="44.53409" lon="4.23281">
        <ele>480</ele>
        <time>2018-06-03T06:59:34.000Z</time>
      </trkpt>
      <trkpt lat="44.53413" lon="4.2328">
        <ele>480</ele>
        <time>2018-06-03T06:59:35.000Z</time>
      </trkpt>
      <trkpt lat="44.53417" lon="4.23278">
        <ele>484</ele>
        <time>2018-06-03T06:59:36.000Z</time>
      </trkpt>
      <trkpt lat="44.53421" lon="4.23276">
        <ele>483</ele>
        <time>2018-06-03T06:59:37.000Z</time>
      </trkpt>
      <trkpt lat="44.53425" lon="4.23275">
        <ele>483</ele>
        <time>2018-06-03T06:59:38.000Z</time>
      </trkpt>
      <trkpt lat="44.53429" lon="4.23273">
        <ele>483</ele>
        <time>2018-06-03T06:59:39.000Z</time>
      </trkpt>
      <trkpt lat="44.53433" lon="4.23272">
        <ele>483</ele>
        <time>2018-06-03T06:59:40.000Z</time>
      </trkpt>
      <trkpt lat="44.53437" lon="4.23271">
        <ele>484</ele>
        <time>2018-06-03T06:59:41.000Z</time>
      </trkpt>
      <trkpt lat="44.53441" lon="4.23271">
        <ele>484</ele>
        <time>2018-06-03T06:59:42.000Z</time>
      </trkpt>
      <trkpt lat="44.53445" lon="4.2327">
        <ele>484</ele>
        <time>2018-06-03T06:59:43.000Z</time>
      </trkpt>
      <trkpt lat="44.53448" lon="4.23269">
        <ele>484</ele>
        <time>2018-06-03T06:59:44.000Z</time>
      </trkpt>
      <trkpt lat="44.53452" lon="4.23268">
        <ele>485</ele>
        <time>2018-06-03T06:59:45.000Z</time>
      </trkpt>
      <trkpt lat="44.53456" lon="4.23267">
        <ele>485</ele>
        <time>2018-06-03T06:59:46.000Z</time>
      </trkpt>
      <trkpt lat="44.53459" lon="4.23267">
        <ele>485</ele>
        <time>2018-06-03T06:59:47.000Z</time>
      </trkpt>
      <trkpt lat="44.53463" lon="4.23267">
        <ele>485</ele>
        <time>2018-06-03T06:59:48.000Z</time>
      </trkpt>
      <trkpt lat="44.53467" lon="4.23267">
        <ele>485</ele>
        <time>2018-06-03T06:59:49.000Z</time>
      </trkpt>
      <trkpt lat="44.53471" lon="4.23267">
        <ele>485</ele>
        <time>2018-06-03T06:59:50.000Z</time>
      </trkpt>
      <trkpt lat="44.53473" lon="4.23266">
        <ele>485</ele>
        <time>2018-06-03T06:59:51.000Z</time>
      </trkpt>
      <trkpt lat="44.53475" lon="4.23266">
        <ele>485</ele>
        <time>2018-06-03T06:59:52.000Z</time>
      </trkpt>
      <trkpt lat="44.53477" lon="4.23266">
        <ele>485</ele>
        <time>2018-06-03T06:59:53.000Z</time>
      </trkpt>
      <trkpt lat="44.53479" lon="4.23265">
        <ele>485</ele>
        <time>2018-06-03T06:59:54.000Z</time>
      </trkpt>
      <trkpt lat="44.5348" lon="4.23265">
        <ele>485</ele>
        <time>2018-06-03T06:59:55.000Z</time>
      </trkpt>
      <trkpt lat="44.53482" lon="4.23265">
        <ele>485</ele>
        <time>2018-06-03T06:59:56.000Z</time>
      </trkpt>
      <trkpt lat="44.53484" lon="4.23265">
        <ele>485</ele>
        <time>2018-06-03T06:59:57.000Z</time>
      </trkpt>
      <trkpt lat="44.53487" lon="4.23264">
        <ele>485</ele>
        <time>2018-06-03T06:59:58.000Z</time>
      </trkpt>
      <trkpt lat="44.5349" lon="4.23264">
        <ele>485</ele>
        <time>2018-06-03T06:59:59.000Z</time>
      </trkpt>
      <trkpt lat="44.53493" lon="4.23264">
        <ele>485</ele>
        <time>2018-06-03T07:00:00.000Z</time>
      </trkpt>
      <trkpt lat="44.53495" lon="4.23264">
        <ele>485</ele>
        <time>2018-06-03T07:00:01.000Z</time>
      </trkpt>
      <trkpt lat="44.53497" lon="4.23263">
        <ele>485</ele>
        <time>2018-06-03T07:00:02.000Z</time>
      </trkpt>
      <trkpt lat="44.53499" lon="4.23262">
        <ele>485</ele>
        <time>2018-06-03T07:00:03.000Z</time>
      </trkpt>
      <trkpt lat="44.53501" lon="4.23261">
        <ele>488</ele>
        <time>2018-06-03T07:00:04.000Z</time>
      </trkpt>
      <trkpt lat="44.53504" lon="4.23261">
        <ele>488</ele>
        <time>2018-06-03T07:00:05.000Z</time>
      </trkpt>
      <trkpt lat="44.53506" lon="4.23259">
        <ele>488</ele>
        <time>2018-06-03T07:00:06.000Z</time>
      </trkpt>
      <trkpt lat="44.53509" lon="4.23258">
        <ele>489</ele>
        <time>2018-06-03T07:00:07.000Z</time>
      </trkpt>
      <trkpt lat="44.53511" lon="4.23257">
        <ele>489</ele>
        <time>2018-06-03T07:00:08.000Z</time>
      </trkpt>
      <trkpt lat="44.53514" lon="4.23256">
        <ele>490</ele>
        <time>2018-06-03T07:00:09.000Z</time>
      </trkpt>
      <trkpt lat="44.53517" lon="4.23255">
        <ele>490</ele>
        <time>2018-06-03T07:00:10.000Z</time>
      </trkpt>
      <trkpt lat="44.53519" lon="4.23254">
        <ele>491</ele>
        <time>2018-06-03T07:00:11.000Z</time>
      </trkpt>
      <trkpt lat="44.53522" lon="4.23252">
        <ele>491</ele>
        <time>2018-06-03T07:00:12.000Z</time>
      </trkpt>
      <trkpt lat="44.53524" lon="4.2325">
        <ele>491</ele>
        <time>2018-06-03T07:00:13.000Z</time>
      </trkpt>
      <trkpt lat="44.53526" lon="4.23248">
        <ele>485</ele>
        <time>2018-06-03T07:00:14.000Z</time>
      </trkpt>
      <trkpt lat="44.53529" lon="4.23246">
        <ele>485</ele>
        <time>2018-06-03T07:00:15.000Z</time>
      </trkpt>
      <trkpt lat="44.53531" lon="4.23245">
        <ele>485</ele>
        <time>2018-06-03T07:00:16.000Z</time>
      </trkpt>
      <trkpt lat="44.53533" lon="4.23243">
        <ele>485</ele>
        <time>2018-06-03T07:00:17.000Z</time>
      </trkpt>
      <trkpt lat="44.53536" lon="4.23241">
        <ele>485</ele>
        <time>2018-06-03T07:00:18.000Z</time>
      </trkpt>
      <trkpt lat="44.53538" lon="4.23239">
        <ele>485</ele>
        <time>2018-06-03T07:00:19.000Z</time>
      </trkpt>
      <trkpt lat="44.5354" lon="4.23237">
        <ele>486</ele>
        <time>2018-06-03T07:00:20.000Z</time>
      </trkpt>
      <trkpt lat="44.53542" lon="4.23235">
        <ele>486</ele>
        <time>2018-06-03T07:00:21.000Z</time>
      </trkpt>
      <trkpt lat="44.53544" lon="4.23233">
        <ele>486</ele>
        <time>2018-06-03T07:00:22.000Z</time>
      </trkpt>
      <trkpt lat="44.53547" lon="4.23231">
        <ele>486</ele>
        <time>2018-06-03T07:00:23.000Z</time>
      </trkpt>
      <trkpt lat="44.53549" lon="4.23229">
        <ele>486</ele>
        <time>2018-06-03T07:00:24.000Z</time>
      </trkpt>
      <trkpt lat="44.53551" lon="4.23227">
        <ele>486</ele>
        <time>2018-06-03T07:00:25.000Z</time>
      </trkpt>
      <trkpt lat="44.53553" lon="4.23225">
        <ele>486</ele>
        <time>2018-06-03T07:00:26.000Z</time>
      </trkpt>
      <trkpt lat="44.53555" lon="4.23223">
        <ele>486</ele>
        <time>2018-06-03T07:00:27.000Z</time>
      </trkpt>
      <trkpt lat="44.53558" lon="4.23221">
        <ele>486</ele>
        <time>2018-06-03T07:00:28.000Z</time>
      </trkpt>
      <trkpt lat="44.5356" lon="4.23219">
        <ele>486</ele>
        <time>2018-06-03T07:00:29.000Z</time>
      </trkpt>
      <trkpt lat="44.53562" lon="4.23217">
        <ele>486</ele>
        <time>2018-06-03T07:00:30.000Z</time>
      </trkpt>
      <trkpt lat="44.53564" lon="4.23215">
        <ele>486</ele>
        <time>2018-06-03T07:00:31.000Z</time>
      </trkpt>
      <trkpt lat="44.53567" lon="4.23213">
        <ele>486</ele>
        <time>2018-06-03T07:00:32.000Z</time>
      </trkpt>
      <trkpt lat="44.53568" lon="4.23211">
        <ele>486</ele>
        <time>2018-06-03T07:00:33.000Z</time>
      </trkpt>
      <trkpt lat="44.5357" lon="4.23209">
        <ele>486</ele>
        <time>2018-06-03T07:00:34.000Z</time>
      </trkpt>
      <trkpt lat="44.53572" lon="4.23206">
        <ele>486</ele>
        <time>2018-06-03T07:00:35.000Z</time>
      </trkpt>
      <trkpt lat="44.53574" lon="4.23204">
        <ele>486</ele>
        <time>2018-06-03T07:00:36.000Z</time>
      </trkpt>
      <trkpt lat="44.53576" lon="4.23202">
        <ele>486</ele>
        <time>2018-06-03T07:00:37.000Z</time>
      </trkpt>
      <trkpt lat="44.53578" lon="4.232">
        <ele>486</ele>
        <time>2018-06-03T07:00:38.000Z</time>
      </trkpt>
      <trkpt lat="44.5358" lon="4.23198">
        <ele>485</ele>
        <time>2018-06-03T07:00:39.000Z</time>
      </trkpt>
      <trkpt lat="44.53583" lon="4.23195">
        <ele>485</ele>
        <time>2018-06-03T07:00:40.000Z</time>
      </trkpt>
      <trkpt lat="44.53585" lon="4.23193">
        <ele>494</ele>
        <time>2018-06-03T07:00:41.000Z</time>
      </trkpt>
      <trkpt lat="44.53588" lon="4.23191">
        <ele>494</ele>
        <time>2018-06-03T07:00:42.000Z</time>
      </trkpt>
      <trkpt lat="44.5359" lon="4.23189">
        <ele>493</ele>
        <time>2018-06-03T07:00:43.000Z</time>
      </trkpt>
      <trkpt lat="44.53593" lon="4.23187">
        <ele>493</ele>
        <time>2018-06-03T07:00:44.000Z</time>
      </trkpt>
      <trkpt lat="44.53596" lon="4.23185">
        <ele>493</ele>
        <time>2018-06-03T07:00:45.000Z</time>
      </trkpt>
      <trkpt lat="44.53598" lon="4.23183">
        <ele>493</ele>
        <time>2018-06-03T07:00:46.000Z</time>
      </trkpt>
      <trkpt lat="44.53601" lon="4.2318">
        <ele>493</ele>
        <time>2018-06-03T07:00:47.000Z</time>
      </trkpt>
      <trkpt lat="44.53603" lon="4.23176">
        <ele>493</ele>
        <time>2018-06-03T07:00:48.000Z</time>
      </trkpt>
      <trkpt lat="44.53605" lon="4.23173">
        <ele>493</ele>
        <time>2018-06-03T07:00:49.000Z</time>
      </trkpt>
      <trkpt lat="44.53607" lon="4.23171">
        <ele>494</ele>
        <time>2018-06-03T07:00:50.000Z</time>
      </trkpt>
      <trkpt lat="44.5361" lon="4.23168">
        <ele>494</ele>
        <time>2018-06-03T07:00:51.000Z</time>
      </trkpt>
      <trkpt lat="44.53613" lon="4.23166">
        <ele>488</ele>
        <time>2018-06-03T07:00:52.000Z</time>
      </trkpt>
      <trkpt lat="44.53615" lon="4.23164">
        <ele>488</ele>
        <time>2018-06-03T07:00:53.000Z</time>
      </trkpt>
      <trkpt lat="44.53617" lon="4.23162">
        <ele>488</ele>
        <time>2018-06-03T07:00:54.000Z</time>
      </trkpt>
      <trkpt lat="44.53619" lon="4.2316">
        <ele>489</ele>
        <time>2018-06-03T07:00:55.000Z</time>
      </trkpt>
      <trkpt lat="44.53621" lon="4.23158">
        <ele>489</ele>
        <time>2018-06-03T07:00:56.000Z</time>
      </trkpt>
      <trkpt lat="44.53624" lon="4.23156">
        <ele>489</ele>
        <time>2018-06-03T07:00:57.000Z</time>
      </trkpt>
      <trkpt lat="44.53626" lon="4.23155">
        <ele>489</ele>
        <time>2018-06-03T07:00:58.000Z</time>
      </trkpt>
      <trkpt lat="44.53628" lon="4.23153">
        <ele>490</ele>
        <time>2018-06-03T07:00:59.000Z</time>
      </trkpt>
      <trkpt lat="44.5363" lon="4.23151">
        <ele>490</ele>
        <time>2018-06-03T07:01:00.000Z</time>
      </trkpt>
      <trkpt lat="44.53632" lon="4.23149">
        <ele>490</ele>
        <time>2018-06-03T07:01:01.000Z</time>
      </trkpt>
      <trkpt lat="44.53634" lon="4.23147">
        <ele>490</ele>
        <time>2018-06-03T07:01:02.000Z</time>
      </trkpt>
      <trkpt lat="44.53636" lon="4.23146">
        <ele>490</ele>
        <time>2018-06-03T07:01:03.000Z</time>
      </trkpt>
      <trkpt lat="44.53638" lon="4.23144">
        <ele>490</ele>
        <time>2018-06-03T07:01:04.000Z</time>
      </trkpt>
      <trkpt lat="44.5364" lon="4.23142">
        <ele>490</ele>
        <time>2018-06-03T07:01:05.000Z</time>
      </trkpt>
      <trkpt lat="44.53642" lon="4.23139">
        <ele>490</ele>
        <time>2018-06-03T07:01:06.000Z</time>
      </trkpt>
      <trkpt lat="44.53643" lon="4.23138">
        <ele>490</ele>
        <time>2018-06-03T07:01:07.000Z</time>
      </trkpt>
      <trkpt lat="44.53645" lon="4.23136">
        <ele>490</ele>
        <time>2018-06-03T07:01:08.000Z</time>
      </trkpt>
      <trkpt lat="44.53647" lon="4.23134">
        <ele>490</ele>
        <time>2018-06-03T07:01:09.000Z</time>
      </trkpt>
      <trkpt lat="44.53648" lon="4.23132">
        <ele>490</ele>
        <time>2018-06-03T07:01:10.000Z</time>
      </trkpt>
      <trkpt lat="44.5365" lon="4.2313">
        <ele>490</ele>
        <time>2018-06-03T07:01:11.000Z</time>
      </trkpt>
      <trkpt lat="44.53652" lon="4.23129">
        <ele>490</ele>
        <time>2018-06-03T07:01:12.000Z</time>
      </trkpt>
      <trkpt lat="44.53654" lon="4.23128">
        <ele>490</ele>
        <time>2018-06-03T07:01:13.000Z</time>
      </trkpt>
      <trkpt lat="44.53656" lon="4.23127">
        <ele>490</ele>
        <time>2018-06-03T07:01:14.000Z</time>
      </trkpt>
      <trkpt lat="44.53657" lon="4.23126">
        <ele>490</ele>
        <time>2018-06-03T07:01:15.000Z</time>
      </trkpt>
      <trkpt lat="44.53657" lon="4.23124">
        <ele>490</ele>
        <time>2018-06-03T07:01:16.000Z</time>
      </trkpt>
      <trkpt lat="44.53657" lon="4.23124">
        <ele>490</ele>
        <time>2018-06-03T07:01:17.000Z</time>
      </trkpt>
      <trkpt lat="44.53658" lon="4.23124">
        <ele>490</ele>
        <time>2018-06-03T07:01:18.000Z</time>
      </trkpt>
      <trkpt lat="44.53658" lon="4.23124">
        <ele>490</ele>
        <time>2018-06-03T07:01:19.000Z</time>
      </trkpt>
      <trkpt lat="44.53658" lon="4.23123">
        <ele>490</ele>
        <time>2018-06-03T07:01:20.000Z</time>
      </trkpt>
      <trkpt lat="44.53658" lon="4.23124">
        <ele>490</ele>
        <time>2018-06-03T07:01:21.000Z</time>
      </trkpt>
      <trkpt lat="44.53658" lon="4.23123">
        <ele>490</ele>
        <time>2018-06-03T07:01:22.000Z</time>
      </trkpt>
      <trkpt lat="44.53658" lon="4.23124">
        <ele>490</ele>
        <time>2018-06-03T07:01:23.000Z</time>
      </trkpt>
      <trkpt lat="44.53658" lon="4.23124">
        <ele>490</ele>
        <time>2018-06-03T07:01:24.000Z</time>
      </trkpt>
      <trkpt lat="44.53658" lon="4.23124">
        <ele>490</ele>
        <time>2018-06-03T07:01:25.000Z</time>
      </trkpt>
      <trkpt lat="44.53658" lon="4.23124">
        <ele>490</ele>
        <time>2018-06-03T07:01:26.000Z</time>
      </trkpt>
      <trkpt lat="44.53658" lon="4.23124">
        <ele>490</ele>
        <time>2018-06-03T07:01:27.000Z</time>
      </trkpt>
      <trkpt lat="44.53658" lon="4.23124">
        <ele>490</ele>
        <time>2018-06-03T07:01:28.000Z</time>
      </trkpt>
      <trkpt lat="44.53658" lon="4.23124">
        <ele>490</ele>
        <time>2018-06-03T07:01:29.000Z</time>
      </trkpt>
      <trkpt lat="44.53658" lon="4.23124">
        <ele>490</ele>
        <time>2018-06-03T07:01:30.000Z</time>
      </trkpt>
      <trkpt lat="44.53658" lon="4.23123">
        <ele>490</ele>
        <time>2018-06-03T07:01:31.000Z</time>
      </trkpt>
      <trkpt lat="44.53658" lon="4.23123">
        <ele>490</ele>
        <time>2018-06-03T07:01:32.000Z</time>
      </trkpt>
      <trkpt lat="44.53659" lon="4.23121">
        <ele>490</ele>
        <time>2018-06-03T07:01:33.000Z</time>
      </trkpt>
      <trkpt lat="44.53659" lon="4.2312">
        <ele>490</ele>
        <time>2018-06-03T07:01:34.000Z</time>
      </trkpt>
      <trkpt lat="44.5366" lon="4.23118">
        <ele>490</ele>
        <time>2018-06-03T07:01:35.000Z</time>
      </trkpt>
      <trkpt lat="44.53661" lon="4.23116">
        <ele>490</ele>
        <time>2018-06-03T07:01:36.000Z</time>
      </trkpt>
      <trkpt lat="44.53662" lon="4.23113">
        <ele>490</ele>
        <time>2018-06-03T07:01:37.000Z</time>
      </trkpt>
      <trkpt lat="44.53663" lon="4.23111">
        <ele>490</ele>
        <time>2018-06-03T07:01:38.000Z</time>
      </trkpt>
      <trkpt lat="44.53664" lon="4.23108">
        <ele>490</ele>
        <time>2018-06-03T07:01:39.000Z</time>
      </trkpt>
      <trkpt lat="44.53666" lon="4.23105">
        <ele>490</ele>
        <time>2018-06-03T07:01:40.000Z</time>
      </trkpt>
      <trkpt lat="44.53667" lon="4.23102">
        <ele>497</ele>
        <time>2018-06-03T07:01:41.000Z</time>
      </trkpt>
      <trkpt lat="44.53669" lon="4.231">
        <ele>496</ele>
        <time>2018-06-03T07:01:42.000Z</time>
      </trkpt>
      <trkpt lat="44.5367" lon="4.23097">
        <ele>496</ele>
        <time>2018-06-03T07:01:43.000Z</time>
      </trkpt>
      <trkpt lat="44.53672" lon="4.23095">
        <ele>495</ele>
        <time>2018-06-03T07:01:44.000Z</time>
      </trkpt>
      <trkpt lat="44.53673" lon="4.23093">
        <ele>495</ele>
        <time>2018-06-03T07:01:45.000Z</time>
      </trkpt>
      <trkpt lat="44.53675" lon="4.2309">
        <ele>495</ele>
        <time>2018-06-03T07:01:46.000Z</time>
      </trkpt>
      <trkpt lat="44.53676" lon="4.23088">
        <ele>495</ele>
        <time>2018-06-03T07:01:47.000Z</time>
      </trkpt>
      <trkpt lat="44.53678" lon="4.23086">
        <ele>495</ele>
        <time>2018-06-03T07:01:48.000Z</time>
      </trkpt>
      <trkpt lat="44.53679" lon="4.23084">
        <ele>495</ele>
        <time>2018-06-03T07:01:49.000Z</time>
      </trkpt>
      <trkpt lat="44.5368" lon="4.23081">
        <ele>494</ele>
        <time>2018-06-03T07:01:50.000Z</time>
      </trkpt>
      <trkpt lat="44.53682" lon="4.23079">
        <ele>495</ele>
        <time>2018-06-03T07:01:51.000Z</time>
      </trkpt>
      <trkpt lat="44.53683" lon="4.23077">
        <ele>495</ele>
        <time>2018-06-03T07:01:52.000Z</time>
      </trkpt>
      <trkpt lat="44.53684" lon="4.23074">
        <ele>495</ele>
        <time>2018-06-03T07:01:53.000Z</time>
      </trkpt>
      <trkpt lat="44.53686" lon="4.23072">
        <ele>496</ele>
        <time>2018-06-03T07:01:54.000Z</time>
      </trkpt>
      <trkpt lat="44.53688" lon="4.2307">
        <ele>496</ele>
        <time>2018-06-03T07:01:55.000Z</time>
      </trkpt>
      <trkpt lat="44.53689" lon="4.23068">
        <ele>496</ele>
        <time>2018-06-03T07:01:56.000Z</time>
      </trkpt>
      <trkpt lat="44.53691" lon="4.23066">
        <ele>497</ele>
        <time>2018-06-03T07:01:57.000Z</time>
      </trkpt>
      <trkpt lat="44.53693" lon="4.23064">
        <ele>497</ele>
        <time>2018-06-03T07:01:58.000Z</time>
      </trkpt>
      <trkpt lat="44.53694" lon="4.23061">
        <ele>497</ele>
        <time>2018-06-03T07:01:59.000Z</time>
      </trkpt>
      <trkpt lat="44.53695" lon="4.23059">
        <ele>497</ele>
        <time>2018-06-03T07:02:00.000Z</time>
      </trkpt>
      <trkpt lat="44.53697" lon="4.23057">
        <ele>497</ele>
        <time>2018-06-03T07:02:01.000Z</time>
      </trkpt>
      <trkpt lat="44.53698" lon="4.23055">
        <ele>498</ele>
        <time>2018-06-03T07:02:02.000Z</time>
      </trkpt>
      <trkpt lat="44.537" lon="4.23053">
        <ele>498</ele>
        <time>2018-06-03T07:02:03.000Z</time>
      </trkpt>
      <trkpt lat="44.53701" lon="4.23051">
        <ele>498</ele>
        <time>2018-06-03T07:02:04.000Z</time>
      </trkpt>
      <trkpt lat="44.53703" lon="4.23049">
        <ele>498</ele>
        <time>2018-06-03T07:02:05.000Z</time>
      </trkpt>
      <trkpt lat="44.53704" lon="4.23046">
        <ele>498</ele>
        <time>2018-06-03T07:02:06.000Z</time>
      </trkpt>
      <trkpt lat="44.53705" lon="4.23044">
        <ele>498</ele>
        <time>2018-06-03T07:02:07.000Z</time>
      </trkpt>
      <trkpt lat="44.53706" lon="4.23042">
        <ele>498</ele>
        <time>2018-06-03T07:02:08.000Z</time>
      </trkpt>
      <trkpt lat="44.53707" lon="4.2304">
        <ele>499</ele>
        <time>2018-06-03T07:02:09.000Z</time>
      </trkpt>
      <trkpt lat="44.53709" lon="4.23039">
        <ele>499</ele>
        <time>2018-06-03T07:02:10.000Z</time>
      </trkpt>
      <trkpt lat="44.5371" lon="4.23037">
        <ele>499</ele>
        <time>2018-06-03T07:02:11.000Z</time>
      </trkpt>
      <trkpt lat="44.53711" lon="4.23035">
        <ele>499</ele>
        <time>2018-06-03T07:02:12.000Z</time>
      </trkpt>
      <trkpt lat="44.53712" lon="4.23033">
        <ele>499</ele>
        <time>2018-06-03T07:02:13.000Z</time>
      </trkpt>
      <trkpt lat="44.53713" lon="4.23031">
        <ele>499</ele>
        <time>2018-06-03T07:02:14.000Z</time>
      </trkpt>
      <trkpt lat="44.53714" lon="4.23029">
        <ele>499</ele>
        <time>2018-06-03T07:02:15.000Z</time>
      </trkpt>
      <trkpt lat="44.53715" lon="4.23027">
        <ele>500</ele>
        <time>2018-06-03T07:02:16.000Z</time>
      </trkpt>
      <trkpt lat="44.53716" lon="4.23024">
        <ele>500</ele>
        <time>2018-06-03T07:02:17.000Z</time>
      </trkpt>
      <trkpt lat="44.53717" lon="4.23022">
        <ele>500</ele>
        <time>2018-06-03T07:02:18.000Z</time>
      </trkpt>
      <trkpt lat="44.53718" lon="4.2302">
        <ele>500</ele>
        <time>2018-06-03T07:02:19.000Z</time>
      </trkpt>
      <trkpt lat="44.53719" lon="4.23018">
        <ele>500</ele>
        <time>2018-06-03T07:02:20.000Z</time>
      </trkpt>
      <trkpt lat="44.53719" lon="4.23017">
        <ele>500</ele>
        <time>2018-06-03T07:02:21.000Z</time>
      </trkpt>
      <trkpt lat="44.5372" lon="4.23017">
        <ele>501</ele>
        <time>2018-06-03T07:02:22.000Z</time>
      </trkpt>
      <trkpt lat="44.5372" lon="4.23017">
        <ele>501</ele>
        <time>2018-06-03T07:02:23.000Z</time>
      </trkpt>
      <trkpt lat="44.5372" lon="4.23017">
        <ele>501</ele>
        <time>2018-06-03T07:02:24.000Z</time>
      </trkpt>
      <trkpt lat="44.5372" lon="4.23017">
        <ele>501</ele>
        <time>2018-06-03T07:02:25.000Z</time>
      </trkpt>
      <trkpt lat="44.5372" lon="4.23016">
        <ele>501</ele>
        <time>2018-06-03T07:02:26.000Z</time>
      </trkpt>
      <trkpt lat="44.53721" lon="4.23016">
        <ele>501</ele>
        <time>2018-06-03T07:02:27.000Z</time>
      </trkpt>
      <trkpt lat="44.53721" lon="4.23016">
        <ele>501</ele>
        <time>2018-06-03T07:02:28.000Z</time>
      </trkpt>
      <trkpt lat="44.53721" lon="4.23016">
        <ele>501</ele>
        <time>2018-06-03T07:02:29.000Z</time>
      </trkpt>
      <trkpt lat="44.53721" lon="4.23016">
        <ele>501</ele>
        <time>2018-06-03T07:02:30.000Z</time>
      </trkpt>
      <trkpt lat="44.53722" lon="4.23015">
        <ele>501</ele>
        <time>2018-06-03T07:02:31.000Z</time>
      </trkpt>
      <trkpt lat="44.53722" lon="4.23015">
        <ele>501</ele>
        <time>2018-06-03T07:02:32.000Z</time>
      </trkpt>
      <trkpt lat="44.53722" lon="4.23014">
        <ele>501</ele>
        <time>2018-06-03T07:02:33.000Z</time>
      </trkpt>
      <trkpt lat="44.53723" lon="4.23013">
        <ele>501</ele>
        <time>2018-06-03T07:02:34.000Z</time>
      </trkpt>
      <trkpt lat="44.53723" lon="4.23013">
        <ele>501</ele>
        <time>2018-06-03T07:02:35.000Z</time>
      </trkpt>
      <trkpt lat="44.53724" lon="4.23012">
        <ele>501</ele>
        <time>2018-06-03T07:02:36.000Z</time>
      </trkpt>
      <trkpt lat="44.53724" lon="4.2301">
        <ele>502</ele>
        <time>2018-06-03T07:02:37.000Z</time>
      </trkpt>
      <trkpt lat="44.53724" lon="4.23008">
        <ele>502</ele>
        <time>2018-06-03T07:02:38.000Z</time>
      </trkpt>
      <trkpt lat="44.53724" lon="4.23007">
        <ele>502</ele>
        <time>2018-06-03T07:02:39.000Z</time>
      </trkpt>
      <trkpt lat="44.53724" lon="4.23006">
        <ele>502</ele>
        <time>2018-06-03T07:02:40.000Z</time>
      </trkpt>
      <trkpt lat="44.53725" lon="4.23005">
        <ele>502</ele>
        <time>2018-06-03T07:02:41.000Z</time>
      </trkpt>
      <trkpt lat="44.53725" lon="4.23003">
        <ele>502</ele>
        <time>2018-06-03T07:02:42.000Z</time>
      </trkpt>
      <trkpt lat="44.53726" lon="4.23002">
        <ele>502</ele>
        <time>2018-06-03T07:02:43.000Z</time>
      </trkpt>
      <trkpt lat="44.53726" lon="4.23">
        <ele>503</ele>
        <time>2018-06-03T07:02:44.000Z</time>
      </trkpt>
      <trkpt lat="44.53726" lon="4.22999">
        <ele>503</ele>
        <time>2018-06-03T07:02:45.000Z</time>
      </trkpt>
      <trkpt lat="44.53726" lon="4.22998">
        <ele>503</ele>
        <time>2018-06-03T07:02:46.000Z</time>
      </trkpt>
      <trkpt lat="44.53726" lon="4.22997">
        <ele>503</ele>
        <time>2018-06-03T07:02:47.000Z</time>
      </trkpt>
      <trkpt lat="44.53726" lon="4.22995">
        <ele>503</ele>
        <time>2018-06-03T07:02:48.000Z</time>
      </trkpt>
      <trkpt lat="44.53726" lon="4.22994">
        <ele>503</ele>
        <time>2018-06-03T07:02:49.000Z</time>
      </trkpt>
      <trkpt lat="44.53726" lon="4.22994">
        <ele>503</ele>
        <time>2018-06-03T07:02:50.000Z</time>
      </trkpt>
      <trkpt lat="44.53726" lon="4.22994">
        <ele>503</ele>
        <time>2018-06-03T07:02:51.000Z</time>
      </trkpt>
      <trkpt lat="44.53726" lon="4.22994">
        <ele>503</ele>
        <time>2018-06-03T07:02:52.000Z</time>
      </trkpt>
      <trkpt lat="44.53727" lon="4.22992">
        <ele>503</ele>
        <time>2018-06-03T07:02:53.000Z</time>
      </trkpt>
      <trkpt lat="44.53727" lon="4.22991">
        <ele>503</ele>
        <time>2018-06-03T07:02:54.000Z</time>
      </trkpt>
      <trkpt lat="44.53727" lon="4.22989">
        <ele>503</ele>
        <time>2018-06-03T07:02:55.000Z</time>
      </trkpt>
      <trkpt lat="44.53726" lon="4.22986">
        <ele>503</ele>
        <time>2018-06-03T07:02:56.000Z</time>
      </trkpt>
      <trkpt lat="44.53726" lon="4.22983">
        <ele>503</ele>
        <time>2018-06-03T07:02:57.000Z</time>
      </trkpt>
      <trkpt lat="44.53724" lon="4.2298">
        <ele>503</ele>
        <time>2018-06-03T07:02:58.000Z</time>
      </trkpt>
      <trkpt lat="44.53723" lon="4.22977">
        <ele>503</ele>
        <time>2018-06-03T07:02:59.000Z</time>
      </trkpt>
      <trkpt lat="44.53722" lon="4.22975">
        <ele>503</ele>
        <time>2018-06-03T07:03:00.000Z</time>
      </trkpt>
      <trkpt lat="44.53722" lon="4.22973">
        <ele>502</ele>
        <time>2018-06-03T07:03:01.000Z</time>
      </trkpt>
      <trkpt lat="44.53721" lon="4.22971">
        <ele>502</ele>
        <time>2018-06-03T07:03:02.000Z</time>
      </trkpt>
      <trkpt lat="44.5372" lon="4.2297">
        <ele>502</ele>
        <time>2018-06-03T07:03:03.000Z</time>
      </trkpt>
      <trkpt lat="44.5372" lon="4.22968">
        <ele>502</ele>
        <time>2018-06-03T07:03:04.000Z</time>
      </trkpt>
      <trkpt lat="44.53719" lon="4.22966">
        <ele>502</ele>
        <time>2018-06-03T07:03:05.000Z</time>
      </trkpt>
      <trkpt lat="44.53719" lon="4.22964">
        <ele>502</ele>
        <time>2018-06-03T07:03:06.000Z</time>
      </trkpt>
      <trkpt lat="44.53718" lon="4.22962">
        <ele>502</ele>
        <time>2018-06-03T07:03:07.000Z</time>
      </trkpt>
      <trkpt lat="44.53717" lon="4.2296">
        <ele>502</ele>
        <time>2018-06-03T07:03:08.000Z</time>
      </trkpt>
      <trkpt lat="44.53716" lon="4.22957">
        <ele>502</ele>
        <time>2018-06-03T07:03:09.000Z</time>
      </trkpt>
      <trkpt lat="44.53715" lon="4.22955">
        <ele>502</ele>
        <time>2018-06-03T07:03:10.000Z</time>
      </trkpt>
      <trkpt lat="44.53714" lon="4.22953">
        <ele>502</ele>
        <time>2018-06-03T07:03:11.000Z</time>
      </trkpt>
      <trkpt lat="44.53713" lon="4.22952">
        <ele>502</ele>
        <time>2018-06-03T07:03:12.000Z</time>
      </trkpt>
      <trkpt lat="44.53713" lon="4.22952">
        <ele>502</ele>
        <time>2018-06-03T07:03:13.000Z</time>
      </trkpt>
      <trkpt lat="44.53713" lon="4.22952">
        <ele>502</ele>
        <time>2018-06-03T07:03:14.000Z</time>
      </trkpt>
      <trkpt lat="44.53713" lon="4.22951">
        <ele>502</ele>
        <time>2018-06-03T07:03:15.000Z</time>
      </trkpt>
      <trkpt lat="44.53712" lon="4.2295">
        <ele>502</ele>
        <time>2018-06-03T07:03:16.000Z</time>
      </trkpt>
      <trkpt lat="44.53712" lon="4.22949">
        <ele>502</ele>
        <time>2018-06-03T07:03:17.000Z</time>
      </trkpt>
      <trkpt lat="44.53711" lon="4.22948">
        <ele>502</ele>
        <time>2018-06-03T07:03:18.000Z</time>
      </trkpt>
      <trkpt lat="44.53711" lon="4.22947">
        <ele>502</ele>
        <time>2018-06-03T07:03:19.000Z</time>
      </trkpt>
      <trkpt lat="44.5371" lon="4.22946">
        <ele>502</ele>
        <time>2018-06-03T07:03:20.000Z</time>
      </trkpt>
      <trkpt lat="44.5371" lon="4.22944">
        <ele>501</ele>
        <time>2018-06-03T07:03:21.000Z</time>
      </trkpt>
      <trkpt lat="44.53709" lon="4.22943">
        <ele>501</ele>
        <time>2018-06-03T07:03:22.000Z</time>
      </trkpt>
      <trkpt lat="44.53709" lon="4.22942">
        <ele>502</ele>
        <time>2018-06-03T07:03:23.000Z</time>
      </trkpt>
      <trkpt lat="44.5371" lon="4.22941">
        <ele>502</ele>
        <time>2018-06-03T07:03:24.000Z</time>
      </trkpt>
      <trkpt lat="44.5371" lon="4.22939">
        <ele>502</ele>
        <time>2018-06-03T07:03:25.000Z</time>
      </trkpt>
      <trkpt lat="44.5371" lon="4.22938">
        <ele>502</ele>
        <time>2018-06-03T07:03:26.000Z</time>
      </trkpt>
      <trkpt lat="44.53711" lon="4.22937">
        <ele>502</ele>
        <time>2018-06-03T07:03:27.000Z</time>
      </trkpt>
      <trkpt lat="44.53712" lon="4.22936">
        <ele>502</ele>
        <time>2018-06-03T07:03:28.000Z</time>
      </trkpt>
      <trkpt lat="44.53712" lon="4.22935">
        <ele>502</ele>
        <time>2018-06-03T07:03:29.000Z</time>
      </trkpt>
      <trkpt lat="44.53712" lon="4.22935">
        <ele>502</ele>
        <time>2018-06-03T07:03:30.000Z</time>
      </trkpt>
      <trkpt lat="44.53712" lon="4.22935">
        <ele>502</ele>
        <time>2018-06-03T07:03:31.000Z</time>
      </trkpt>
      <trkpt lat="44.53712" lon="4.22936">
        <ele>502</ele>
        <time>2018-06-03T07:03:32.000Z</time>
      </trkpt>
      <trkpt lat="44.53712" lon="4.22936">
        <ele>502</ele>
        <time>2018-06-03T07:03:33.000Z</time>
      </trkpt>
      <trkpt lat="44.53713" lon="4.22935">
        <ele>502</ele>
        <time>2018-06-03T07:03:34.000Z</time>
      </trkpt>
      <trkpt lat="44.53714" lon="4.22934">
        <ele>502</ele>
        <time>2018-06-03T07:03:35.000Z</time>
      </trkpt>
      <trkpt lat="44.53714" lon="4.22933">
        <ele>503</ele>
        <time>2018-06-03T07:03:36.000Z</time>
      </trkpt>
      <trkpt lat="44.53715" lon="4.22932">
        <ele>503</ele>
        <time>2018-06-03T07:03:37.000Z</time>
      </trkpt>
      <trkpt lat="44.53715" lon="4.22932">
        <ele>503</ele>
        <time>2018-06-03T07:03:38.000Z</time>
      </trkpt>
      <trkpt lat="44.53715" lon="4.22932">
        <ele>503</ele>
        <time>2018-06-03T07:03:39.000Z</time>
      </trkpt>
      <trkpt lat="44.53715" lon="4.22932">
        <ele>503</ele>
        <time>2018-06-03T07:03:40.000Z</time>
      </trkpt>
      <trkpt lat="44.53714" lon="4.22932">
        <ele>503</ele>
        <time>2018-06-03T07:03:41.000Z</time>
      </trkpt>
      <trkpt lat="44.53714" lon="4.22932">
        <ele>503</ele>
        <time>2018-06-03T07:03:42.000Z</time>
      </trkpt>
      <trkpt lat="44.53714" lon="4.22931">
        <ele>503</ele>
        <time>2018-06-03T07:03:43.000Z</time>
      </trkpt>
      <trkpt lat="44.53714" lon="4.22931">
        <ele>503</ele>
        <time>2018-06-03T07:03:44.000Z</time>
      </trkpt>
      <trkpt lat="44.53715" lon="4.22931">
        <ele>503</ele>
        <time>2018-06-03T07:03:45.000Z</time>
      </trkpt>
      <trkpt lat="44.53716" lon="4.2293">
        <ele>503</ele>
        <time>2018-06-03T07:03:46.000Z</time>
      </trkpt>
      <trkpt lat="44.53717" lon="4.22929">
        <ele>503</ele>
        <time>2018-06-03T07:03:47.000Z</time>
      </trkpt>
      <trkpt lat="44.53718" lon="4.22928">
        <ele>503</ele>
        <time>2018-06-03T07:03:48.000Z</time>
      </trkpt>
      <trkpt lat="44.53718" lon="4.22927">
        <ele>504</ele>
        <time>2018-06-03T07:03:49.000Z</time>
      </trkpt>
      <trkpt lat="44.53719" lon="4.22926">
        <ele>504</ele>
        <time>2018-06-03T07:03:50.000Z</time>
      </trkpt>
      <trkpt lat="44.5372" lon="4.22925">
        <ele>504</ele>
        <time>2018-06-03T07:03:51.000Z</time>
      </trkpt>
      <trkpt lat="44.53721" lon="4.22924">
        <ele>504</ele>
        <time>2018-06-03T07:03:52.000Z</time>
      </trkpt>
      <trkpt lat="44.53721" lon="4.22922">
        <ele>504</ele>
        <time>2018-06-03T07:03:53.000Z</time>
      </trkpt>
      <trkpt lat="44.53721" lon="4.2292">
        <ele>504</ele>
        <time>2018-06-03T07:03:54.000Z</time>
      </trkpt>
      <trkpt lat="44.53722" lon="4.22919">
        <ele>505</ele>
        <time>2018-06-03T07:03:55.000Z</time>
      </trkpt>
      <trkpt lat="44.53722" lon="4.22917">
        <ele>505</ele>
        <time>2018-06-03T07:03:56.000Z</time>
      </trkpt>
      <trkpt lat="44.53722" lon="4.22916">
        <ele>507</ele>
        <time>2018-06-03T07:03:57.000Z</time>
      </trkpt>
      <trkpt lat="44.53722" lon="4.22915">
        <ele>507</ele>
        <time>2018-06-03T07:03:58.000Z</time>
      </trkpt>
      <trkpt lat="44.53722" lon="4.22915">
        <ele>507</ele>
        <time>2018-06-03T07:03:59.000Z</time>
      </trkpt>
      <trkpt lat="44.53722" lon="4.22915">
        <ele>507</ele>
        <time>2018-06-03T07:04:00.000Z</time>
      </trkpt>
      <trkpt lat="44.53722" lon="4.22914">
        <ele>508</ele>
        <time>2018-06-03T07:04:01.000Z</time>
      </trkpt>
      <trkpt lat="44.53722" lon="4.22912">
        <ele>508</ele>
        <time>2018-06-03T07:04:02.000Z</time>
      </trkpt>
      <trkpt lat="44.53723" lon="4.2291">
        <ele>508</ele>
        <time>2018-06-03T07:04:03.000Z</time>
      </trkpt>
      <trkpt lat="44.53724" lon="4.22908">
        <ele>508</ele>
        <time>2018-06-03T07:04:04.000Z</time>
      </trkpt>
      <trkpt lat="44.53725" lon="4.22905">
        <ele>508</ele>
        <time>2018-06-03T07:04:05.000Z</time>
      </trkpt>
      <trkpt lat="44.53726" lon="4.22903">
        <ele>508</ele>
        <time>2018-06-03T07:04:06.000Z</time>
      </trkpt>
      <trkpt lat="44.53727" lon="4.229">
        <ele>508</ele>
        <time>2018-06-03T07:04:07.000Z</time>
      </trkpt>
      <trkpt lat="44.53728" lon="4.22897">
        <ele>508</ele>
        <time>2018-06-03T07:04:08.000Z</time>
      </trkpt>
      <trkpt lat="44.53729" lon="4.22894">
        <ele>508</ele>
        <time>2018-06-03T07:04:09.000Z</time>
      </trkpt>
      <trkpt lat="44.5373" lon="4.22891">
        <ele>508</ele>
        <time>2018-06-03T07:04:10.000Z</time>
      </trkpt>
      <trkpt lat="44.53731" lon="4.22888">
        <ele>508</ele>
        <time>2018-06-03T07:04:11.000Z</time>
      </trkpt>
      <trkpt lat="44.53732" lon="4.22885">
        <ele>508</ele>
        <time>2018-06-03T07:04:12.000Z</time>
      </trkpt>
      <trkpt lat="44.53733" lon="4.22882">
        <ele>509</ele>
        <time>2018-06-03T07:04:13.000Z</time>
      </trkpt>
      <trkpt lat="44.53734" lon="4.22879">
        <ele>509</ele>
        <time>2018-06-03T07:04:14.000Z</time>
      </trkpt>
      <trkpt lat="44.53735" lon="4.22876">
        <ele>509</ele>
        <time>2018-06-03T07:04:15.000Z</time>
      </trkpt>
      <trkpt lat="44.53736" lon="4.22873">
        <ele>509</ele>
        <time>2018-06-03T07:04:16.000Z</time>
      </trkpt>
      <trkpt lat="44.53737" lon="4.2287">
        <ele>509</ele>
        <time>2018-06-03T07:04:17.000Z</time>
      </trkpt>
      <trkpt lat="44.53738" lon="4.22867">
        <ele>510</ele>
        <time>2018-06-03T07:04:18.000Z</time>
      </trkpt>
      <trkpt lat="44.53739" lon="4.22864">
        <ele>510</ele>
        <time>2018-06-03T07:04:19.000Z</time>
      </trkpt>
      <trkpt lat="44.5374" lon="4.22861">
        <ele>510</ele>
        <time>2018-06-03T07:04:20.000Z</time>
      </trkpt>
      <trkpt lat="44.53741" lon="4.22858">
        <ele>511</ele>
        <time>2018-06-03T07:04:21.000Z</time>
      </trkpt>
      <trkpt lat="44.53742" lon="4.22855">
        <ele>511</ele>
        <time>2018-06-03T07:04:22.000Z</time>
      </trkpt>
      <trkpt lat="44.53743" lon="4.22853">
        <ele>512</ele>
        <time>2018-06-03T07:04:23.000Z</time>
      </trkpt>
      <trkpt lat="44.53744" lon="4.2285">
        <ele>512</ele>
        <time>2018-06-03T07:04:24.000Z</time>
      </trkpt>
      <trkpt lat="44.53746" lon="4.22847">
        <ele>513</ele>
        <time>2018-06-03T07:04:25.000Z</time>
      </trkpt>
      <trkpt lat="44.53747" lon="4.22845">
        <ele>514</ele>
        <time>2018-06-03T07:04:26.000Z</time>
      </trkpt>
      <trkpt lat="44.53749" lon="4.22843">
        <ele>514</ele>
        <time>2018-06-03T07:04:27.000Z</time>
      </trkpt>
      <trkpt lat="44.53751" lon="4.22841">
        <ele>519</ele>
        <time>2018-06-03T07:04:28.000Z</time>
      </trkpt>
      <trkpt lat="44.53753" lon="4.22839">
        <ele>519</ele>
        <time>2018-06-03T07:04:29.000Z</time>
      </trkpt>
      <trkpt lat="44.53754" lon="4.22836">
        <ele>519</ele>
        <time>2018-06-03T07:04:30.000Z</time>
      </trkpt>
      <trkpt lat="44.53756" lon="4.22835">
        <ele>519</ele>
        <time>2018-06-03T07:04:31.000Z</time>
      </trkpt>
      <trkpt lat="44.53758" lon="4.22833">
        <ele>520</ele>
        <time>2018-06-03T07:04:32.000Z</time>
      </trkpt>
      <trkpt lat="44.5376" lon="4.22831">
        <ele>520</ele>
        <time>2018-06-03T07:04:33.000Z</time>
      </trkpt>
      <trkpt lat="44.53762" lon="4.22829">
        <ele>521</ele>
        <time>2018-06-03T07:04:34.000Z</time>
      </trkpt>
      <trkpt lat="44.53763" lon="4.22827">
        <ele>521</ele>
        <time>2018-06-03T07:04:35.000Z</time>
      </trkpt>
      <trkpt lat="44.53765" lon="4.22825">
        <ele>522</ele>
        <time>2018-06-03T07:04:36.000Z</time>
      </trkpt>
      <trkpt lat="44.53767" lon="4.22824">
        <ele>522</ele>
        <time>2018-06-03T07:04:37.000Z</time>
      </trkpt>
      <trkpt lat="44.53769" lon="4.22822">
        <ele>522</ele>
        <time>2018-06-03T07:04:38.000Z</time>
      </trkpt>
      <trkpt lat="44.53771" lon="4.22821">
        <ele>523</ele>
        <time>2018-06-03T07:04:39.000Z</time>
      </trkpt>
      <trkpt lat="44.53773" lon="4.2282">
        <ele>523</ele>
        <time>2018-06-03T07:04:40.000Z</time>
      </trkpt>
      <trkpt lat="44.53775" lon="4.22819">
        <ele>523</ele>
        <time>2018-06-03T07:04:41.000Z</time>
      </trkpt>
      <trkpt lat="44.53778" lon="4.22818">
        <ele>523</ele>
        <time>2018-06-03T07:04:42.000Z</time>
      </trkpt>
      <trkpt lat="44.5378" lon="4.22817">
        <ele>524</ele>
        <time>2018-06-03T07:04:43.000Z</time>
      </trkpt>
      <trkpt lat="44.53782" lon="4.22815">
        <ele>524</ele>
        <time>2018-06-03T07:04:44.000Z</time>
      </trkpt>
      <trkpt lat="44.53784" lon="4.22814">
        <ele>524</ele>
        <time>2018-06-03T07:04:45.000Z</time>
      </trkpt>
      <trkpt lat="44.53786" lon="4.22812">
        <ele>524</ele>
        <time>2018-06-03T07:04:46.000Z</time>
      </trkpt>
      <trkpt lat="44.53788" lon="4.22811">
        <ele>525</ele>
        <time>2018-06-03T07:04:47.000Z</time>
      </trkpt>
      <trkpt lat="44.5379" lon="4.22809">
        <ele>525</ele>
        <time>2018-06-03T07:04:48.000Z</time>
      </trkpt>
      <trkpt lat="44.53792" lon="4.22808">
        <ele>525</ele>
        <time>2018-06-03T07:04:49.000Z</time>
      </trkpt>
      <trkpt lat="44.53794" lon="4.22806">
        <ele>525</ele>
        <time>2018-06-03T07:04:50.000Z</time>
      </trkpt>
      <trkpt lat="44.53796" lon="4.22805">
        <ele>525</ele>
        <time>2018-06-03T07:04:51.000Z</time>
      </trkpt>
      <trkpt lat="44.53798" lon="4.22803">
        <ele>525</ele>
        <time>2018-06-03T07:04:52.000Z</time>
      </trkpt>
      <trkpt lat="44.538" lon="4.22802">
        <ele>525</ele>
        <time>2018-06-03T07:04:53.000Z</time>
      </trkpt>
      <trkpt lat="44.53802" lon="4.228">
        <ele>526</ele>
        <time>2018-06-03T07:04:54.000Z</time>
      </trkpt>
      <trkpt lat="44.53803" lon="4.22799">
        <ele>526</ele>
        <time>2018-06-03T07:04:55.000Z</time>
      </trkpt>
      <trkpt lat="44.53805" lon="4.22797">
        <ele>526</ele>
        <time>2018-06-03T07:04:56.000Z</time>
      </trkpt>
      <trkpt lat="44.53807" lon="4.22796">
        <ele>526</ele>
        <time>2018-06-03T07:04:57.000Z</time>
      </trkpt>
      <trkpt lat="44.53809" lon="4.22795">
        <ele>526</ele>
        <time>2018-06-03T07:04:58.000Z</time>
      </trkpt>
      <trkpt lat="44.5381" lon="4.22794">
        <ele>526</ele>
        <time>2018-06-03T07:04:59.000Z</time>
      </trkpt>
      <trkpt lat="44.53812" lon="4.22792">
        <ele>526</ele>
        <time>2018-06-03T07:05:00.000Z</time>
      </trkpt>
      <trkpt lat="44.53814" lon="4.22791">
        <ele>526</ele>
        <time>2018-06-03T07:05:01.000Z</time>
      </trkpt>
      <trkpt lat="44.53816" lon="4.22789">
        <ele>527</ele>
        <time>2018-06-03T07:05:02.000Z</time>
      </trkpt>
      <trkpt lat="44.53818" lon="4.22788">
        <ele>527</ele>
        <time>2018-06-03T07:05:03.000Z</time>
      </trkpt>
      <trkpt lat="44.5382" lon="4.22786">
        <ele>527</ele>
        <time>2018-06-03T07:05:04.000Z</time>
      </trkpt>
      <trkpt lat="44.53822" lon="4.22785">
        <ele>527</ele>
        <time>2018-06-03T07:05:05.000Z</time>
      </trkpt>
      <trkpt lat="44.53823" lon="4.22783">
        <ele>527</ele>
        <time>2018-06-03T07:05:06.000Z</time>
      </trkpt>
      <trkpt lat="44.53825" lon="4.22782">
        <ele>527</ele>
        <time>2018-06-03T07:05:07.000Z</time>
      </trkpt>
      <trkpt lat="44.53826" lon="4.2278">
        <ele>527</ele>
        <time>2018-06-03T07:05:08.000Z</time>
      </trkpt>
      <trkpt lat="44.53827" lon="4.22777">
        <ele>528</ele>
        <time>2018-06-03T07:05:09.000Z</time>
      </trkpt>
      <trkpt lat="44.53826" lon="4.22774">
        <ele>528</ele>
        <time>2018-06-03T07:05:10.000Z</time>
      </trkpt>
      <trkpt lat="44.53826" lon="4.22771">
        <ele>528</ele>
        <time>2018-06-03T07:05:11.000Z</time>
      </trkpt>
      <trkpt lat="44.53825" lon="4.22768">
        <ele>528</ele>
        <time>2018-06-03T07:05:12.000Z</time>
      </trkpt>
      <trkpt lat="44.53824" lon="4.22765">
        <ele>529</ele>
        <time>2018-06-03T07:05:13.000Z</time>
      </trkpt>
      <trkpt lat="44.53823" lon="4.22762">
        <ele>529</ele>
        <time>2018-06-03T07:05:14.000Z</time>
      </trkpt>
      <trkpt lat="44.53821" lon="4.22759">
        <ele>529</ele>
        <time>2018-06-03T07:05:15.000Z</time>
      </trkpt>
      <trkpt lat="44.5382" lon="4.22757">
        <ele>529</ele>
        <time>2018-06-03T07:05:16.000Z</time>
      </trkpt>
      <trkpt lat="44.53819" lon="4.22754">
        <ele>529</ele>
        <time>2018-06-03T07:05:17.000Z</time>
      </trkpt>
      <trkpt lat="44.53818" lon="4.22751">
        <ele>529</ele>
        <time>2018-06-03T07:05:18.000Z</time>
      </trkpt>
      <trkpt lat="44.53817" lon="4.22748">
        <ele>531</ele>
        <time>2018-06-03T07:05:19.000Z</time>
      </trkpt>
      <trkpt lat="44.53816" lon="4.22745">
        <ele>530</ele>
        <time>2018-06-03T07:05:20.000Z</time>
      </trkpt>
      <trkpt lat="44.53815" lon="4.22742">
        <ele>530</ele>
        <time>2018-06-03T07:05:21.000Z</time>
      </trkpt>
      <trkpt lat="44.53816" lon="4.22739">
        <ele>530</ele>
        <time>2018-06-03T07:05:22.000Z</time>
      </trkpt>
      <trkpt lat="44.53817" lon="4.22736">
        <ele>530</ele>
        <time>2018-06-03T07:05:23.000Z</time>
      </trkpt>
      <trkpt lat="44.53818" lon="4.22735">
        <ele>530</ele>
        <time>2018-06-03T07:05:24.000Z</time>
      </trkpt>
      <trkpt lat="44.5382" lon="4.22734">
        <ele>531</ele>
        <time>2018-06-03T07:05:25.000Z</time>
      </trkpt>
      <trkpt lat="44.53822" lon="4.22734">
        <ele>531</ele>
        <time>2018-06-03T07:05:26.000Z</time>
      </trkpt>
      <trkpt lat="44.53824" lon="4.22733">
        <ele>531</ele>
        <time>2018-06-03T07:05:27.000Z</time>
      </trkpt>
      <trkpt lat="44.53827" lon="4.22732">
        <ele>531</ele>
        <time>2018-06-03T07:05:28.000Z</time>
      </trkpt>
      <trkpt lat="44.53829" lon="4.22732">
        <ele>531</ele>
        <time>2018-06-03T07:05:29.000Z</time>
      </trkpt>
      <trkpt lat="44.53831" lon="4.22731">
        <ele>531</ele>
        <time>2018-06-03T07:05:30.000Z</time>
      </trkpt>
      <trkpt lat="44.53833" lon="4.2273">
        <ele>531</ele>
        <time>2018-06-03T07:05:31.000Z</time>
      </trkpt>
      <trkpt lat="44.53835" lon="4.22729">
        <ele>538</ele>
        <time>2018-06-03T07:05:32.000Z</time>
      </trkpt>
      <trkpt lat="44.53837" lon="4.22728">
        <ele>538</ele>
        <time>2018-06-03T07:05:33.000Z</time>
      </trkpt>
      <trkpt lat="44.53839" lon="4.22728">
        <ele>539</ele>
        <time>2018-06-03T07:05:34.000Z</time>
      </trkpt>
      <trkpt lat="44.53841" lon="4.22727">
        <ele>539</ele>
        <time>2018-06-03T07:05:35.000Z</time>
      </trkpt>
      <trkpt lat="44.53843" lon="4.22726">
        <ele>539</ele>
        <time>2018-06-03T07:05:36.000Z</time>
      </trkpt>
      <trkpt lat="44.53845" lon="4.22725">
        <ele>540</ele>
        <time>2018-06-03T07:05:37.000Z</time>
      </trkpt>
      <trkpt lat="44.53847" lon="4.22724">
        <ele>540</ele>
        <time>2018-06-03T07:05:38.000Z</time>
      </trkpt>
      <trkpt lat="44.53849" lon="4.22723">
        <ele>540</ele>
        <time>2018-06-03T07:05:39.000Z</time>
      </trkpt>
      <trkpt lat="44.5385" lon="4.22722">
        <ele>540</ele>
        <time>2018-06-03T07:05:40.000Z</time>
      </trkpt>
      <trkpt lat="44.53852" lon="4.22721">
        <ele>541</ele>
        <time>2018-06-03T07:05:41.000Z</time>
      </trkpt>
      <trkpt lat="44.53854" lon="4.22721">
        <ele>541</ele>
        <time>2018-06-03T07:05:42.000Z</time>
      </trkpt>
      <trkpt lat="44.53855" lon="4.2272">
        <ele>541</ele>
        <time>2018-06-03T07:05:43.000Z</time>
      </trkpt>
      <trkpt lat="44.53857" lon="4.2272">
        <ele>541</ele>
        <time>2018-06-03T07:05:44.000Z</time>
      </trkpt>
      <trkpt lat="44.53859" lon="4.22719">
        <ele>542</ele>
        <time>2018-06-03T07:05:45.000Z</time>
      </trkpt>
      <trkpt lat="44.53861" lon="4.22718">
        <ele>542</ele>
        <time>2018-06-03T07:05:46.000Z</time>
      </trkpt>
      <trkpt lat="44.53862" lon="4.22717">
        <ele>542</ele>
        <time>2018-06-03T07:05:47.000Z</time>
      </trkpt>
      <trkpt lat="44.53864" lon="4.22716">
        <ele>542</ele>
        <time>2018-06-03T07:05:48.000Z</time>
      </trkpt>
      <trkpt lat="44.53866" lon="4.22715">
        <ele>542</ele>
        <time>2018-06-03T07:05:49.000Z</time>
      </trkpt>
      <trkpt lat="44.53868" lon="4.22714">
        <ele>543</ele>
        <time>2018-06-03T07:05:50.000Z</time>
      </trkpt>
      <trkpt lat="44.53869" lon="4.22711">
        <ele>543</ele>
        <time>2018-06-03T07:05:51.000Z</time>
      </trkpt>
      <trkpt lat="44.5387" lon="4.22708">
        <ele>543</ele>
        <time>2018-06-03T07:05:52.000Z</time>
      </trkpt>
      <trkpt lat="44.5387" lon="4.22705">
        <ele>543</ele>
        <time>2018-06-03T07:05:53.000Z</time>
      </trkpt>
      <trkpt lat="44.53869" lon="4.22702">
        <ele>543</ele>
        <time>2018-06-03T07:05:54.000Z</time>
      </trkpt>
      <trkpt lat="44.53869" lon="4.22699">
        <ele>543</ele>
        <time>2018-06-03T07:05:55.000Z</time>
      </trkpt>
      <trkpt lat="44.53869" lon="4.22696">
        <ele>543</ele>
        <time>2018-06-03T07:05:56.000Z</time>
      </trkpt>
      <trkpt lat="44.53869" lon="4.22693">
        <ele>543</ele>
        <time>2018-06-03T07:05:57.000Z</time>
      </trkpt>
      <trkpt lat="44.53868" lon="4.22691">
        <ele>544</ele>
        <time>2018-06-03T07:05:58.000Z</time>
      </trkpt>
      <trkpt lat="44.53868" lon="4.22688">
        <ele>544</ele>
        <time>2018-06-03T07:05:59.000Z</time>
      </trkpt>
      <trkpt lat="44.53868" lon="4.22686">
        <ele>544</ele>
        <time>2018-06-03T07:06:00.000Z</time>
      </trkpt>
      <trkpt lat="44.53867" lon="4.22683">
        <ele>543</ele>
        <time>2018-06-03T07:06:01.000Z</time>
      </trkpt>
      <trkpt lat="44.53867" lon="4.2268">
        <ele>543</ele>
        <time>2018-06-03T07:06:02.000Z</time>
      </trkpt>
      <trkpt lat="44.53867" lon="4.22676">
        <ele>544</ele>
        <time>2018-06-03T07:06:03.000Z</time>
      </trkpt>
      <trkpt lat="44.53867" lon="4.22674">
        <ele>543</ele>
        <time>2018-06-03T07:06:04.000Z</time>
      </trkpt>
      <trkpt lat="44.53866" lon="4.22671">
        <ele>543</ele>
        <time>2018-06-03T07:06:05.000Z</time>
      </trkpt>
      <trkpt lat="44.53865" lon="4.22669">
        <ele>543</ele>
        <time>2018-06-03T07:06:06.000Z</time>
      </trkpt>
      <trkpt lat="44.53864" lon="4.22666">
        <ele>548</ele>
        <time>2018-06-03T07:06:07.000Z</time>
      </trkpt>
      <trkpt lat="44.53864" lon="4.22665">
        <ele>548</ele>
        <time>2018-06-03T07:06:08.000Z</time>
      </trkpt>
      <trkpt lat="44.53863" lon="4.22663">
        <ele>548</ele>
        <time>2018-06-03T07:06:09.000Z</time>
      </trkpt>
      <trkpt lat="44.53863" lon="4.2266">
        <ele>548</ele>
        <time>2018-06-03T07:06:10.000Z</time>
      </trkpt>
      <trkpt lat="44.53863" lon="4.22658">
        <ele>548</ele>
        <time>2018-06-03T07:06:11.000Z</time>
      </trkpt>
      <trkpt lat="44.53864" lon="4.22656">
        <ele>548</ele>
        <time>2018-06-03T07:06:12.000Z</time>
      </trkpt>
      <trkpt lat="44.53866" lon="4.22656">
        <ele>548</ele>
        <time>2018-06-03T07:06:13.000Z</time>
      </trkpt>
      <trkpt lat="44.53868" lon="4.22656">
        <ele>549</ele>
        <time>2018-06-03T07:06:14.000Z</time>
      </trkpt>
      <trkpt lat="44.53869" lon="4.22657">
        <ele>549</ele>
        <time>2018-06-03T07:06:15.000Z</time>
      </trkpt>
      <trkpt lat="44.53871" lon="4.22659">
        <ele>549</ele>
        <time>2018-06-03T07:06:16.000Z</time>
      </trkpt>
      <trkpt lat="44.53872" lon="4.2266">
        <ele>549</ele>
        <time>2018-06-03T07:06:17.000Z</time>
      </trkpt>
      <trkpt lat="44.53873" lon="4.22662">
        <ele>550</ele>
        <time>2018-06-03T07:06:18.000Z</time>
      </trkpt>
      <trkpt lat="44.53874" lon="4.22664">
        <ele>550</ele>
        <time>2018-06-03T07:06:19.000Z</time>
      </trkpt>
      <trkpt lat="44.53876" lon="4.22666">
        <ele>550</ele>
        <time>2018-06-03T07:06:20.000Z</time>
      </trkpt>
      <trkpt lat="44.53877" lon="4.22667">
        <ele>545</ele>
        <time>2018-06-03T07:06:21.000Z</time>
      </trkpt>
      <trkpt lat="44.53879" lon="4.22669">
        <ele>546</ele>
        <time>2018-06-03T07:06:22.000Z</time>
      </trkpt>
      <trkpt lat="44.53881" lon="4.2267">
        <ele>546</ele>
        <time>2018-06-03T07:06:23.000Z</time>
      </trkpt>
      <trkpt lat="44.53883" lon="4.22671">
        <ele>546</ele>
        <time>2018-06-03T07:06:24.000Z</time>
      </trkpt>
      <trkpt lat="44.53886" lon="4.22672">
        <ele>547</ele>
        <time>2018-06-03T07:06:25.000Z</time>
      </trkpt>
      <trkpt lat="44.53887" lon="4.22674">
        <ele>547</ele>
        <time>2018-06-03T07:06:26.000Z</time>
      </trkpt>
      <trkpt lat="44.53889" lon="4.22675">
        <ele>547</ele>
        <time>2018-06-03T07:06:27.000Z</time>
      </trkpt>
      <trkpt lat="44.5389" lon="4.22676">
        <ele>548</ele>
        <time>2018-06-03T07:06:28.000Z</time>
      </trkpt>
      <trkpt lat="44.53892" lon="4.22677">
        <ele>548</ele>
        <time>2018-06-03T07:06:29.000Z</time>
      </trkpt>
      <trkpt lat="44.53893" lon="4.22678">
        <ele>548</ele>
        <time>2018-06-03T07:06:30.000Z</time>
      </trkpt>
      <trkpt lat="44.53894" lon="4.22679">
        <ele>548</ele>
        <time>2018-06-03T07:06:31.000Z</time>
      </trkpt>
      <trkpt lat="44.53896" lon="4.22681">
        <ele>548</ele>
        <time>2018-06-03T07:06:32.000Z</time>
      </trkpt>
      <trkpt lat="44.53897" lon="4.22682">
        <ele>548</ele>
        <time>2018-06-03T07:06:33.000Z</time>
      </trkpt>
      <trkpt lat="44.53899" lon="4.22684">
        <ele>549</ele>
        <time>2018-06-03T07:06:34.000Z</time>
      </trkpt>
      <trkpt lat="44.539" lon="4.22686">
        <ele>549</ele>
        <time>2018-06-03T07:06:35.000Z</time>
      </trkpt>
      <trkpt lat="44.53902" lon="4.22687">
        <ele>549</ele>
        <time>2018-06-03T07:06:36.000Z</time>
      </trkpt>
      <trkpt lat="44.53904" lon="4.22689">
        <ele>549</ele>
        <time>2018-06-03T07:06:37.000Z</time>
      </trkpt>
      <trkpt lat="44.53905" lon="4.22691">
        <ele>549</ele>
        <time>2018-06-03T07:06:38.000Z</time>
      </trkpt>
      <trkpt lat="44.53907" lon="4.22692">
        <ele>548</ele>
        <time>2018-06-03T07:06:39.000Z</time>
      </trkpt>
      <trkpt lat="44.53909" lon="4.22694">
        <ele>548</ele>
        <time>2018-06-03T07:06:40.000Z</time>
      </trkpt>
      <trkpt lat="44.53911" lon="4.22696">
        <ele>548</ele>
        <time>2018-06-03T07:06:41.000Z</time>
      </trkpt>
      <trkpt lat="44.53912" lon="4.22698">
        <ele>548</ele>
        <time>2018-06-03T07:06:42.000Z</time>
      </trkpt>
      <trkpt lat="44.53914" lon="4.22701">
        <ele>548</ele>
        <time>2018-06-03T07:06:43.000Z</time>
      </trkpt>
      <trkpt lat="44.53916" lon="4.22703">
        <ele>548</ele>
        <time>2018-06-03T07:06:44.000Z</time>
      </trkpt>
      <trkpt lat="44.53917" lon="4.22705">
        <ele>561</ele>
        <time>2018-06-03T07:06:45.000Z</time>
      </trkpt>
      <trkpt lat="44.53918" lon="4.22707">
        <ele>561</ele>
        <time>2018-06-03T07:06:46.000Z</time>
      </trkpt>
      <trkpt lat="44.5392" lon="4.22708">
        <ele>561</ele>
        <time>2018-06-03T07:06:47.000Z</time>
      </trkpt>
      <trkpt lat="44.53921" lon="4.2271">
        <ele>561</ele>
        <time>2018-06-03T07:06:48.000Z</time>
      </trkpt>
      <trkpt lat="44.53922" lon="4.22712">
        <ele>561</ele>
        <time>2018-06-03T07:06:49.000Z</time>
      </trkpt>
      <trkpt lat="44.53923" lon="4.22713">
        <ele>561</ele>
        <time>2018-06-03T07:06:50.000Z</time>
      </trkpt>
      <trkpt lat="44.53924" lon="4.22715">
        <ele>560</ele>
        <time>2018-06-03T07:06:51.000Z</time>
      </trkpt>
      <trkpt lat="44.53926" lon="4.22716">
        <ele>560</ele>
        <time>2018-06-03T07:06:52.000Z</time>
      </trkpt>
      <trkpt lat="44.53927" lon="4.22718">
        <ele>560</ele>
        <time>2018-06-03T07:06:53.000Z</time>
      </trkpt>
      <trkpt lat="44.53928" lon="4.22719">
        <ele>560</ele>
        <time>2018-06-03T07:06:54.000Z</time>
      </trkpt>
      <trkpt lat="44.53929" lon="4.22721">
        <ele>560</ele>
        <time>2018-06-03T07:06:55.000Z</time>
      </trkpt>
      <trkpt lat="44.5393" lon="4.22722">
        <ele>560</ele>
        <time>2018-06-03T07:06:56.000Z</time>
      </trkpt>
      <trkpt lat="44.53931" lon="4.22724">
        <ele>560</ele>
        <time>2018-06-03T07:06:57.000Z</time>
      </trkpt>
      <trkpt lat="44.53932" lon="4.22726">
        <ele>560</ele>
        <time>2018-06-03T07:06:58.000Z</time>
      </trkpt>
      <trkpt lat="44.53934" lon="4.22727">
        <ele>560</ele>
        <time>2018-06-03T07:06:59.000Z</time>
      </trkpt>
      <trkpt lat="44.53935" lon="4.22729">
        <ele>560</ele>
        <time>2018-06-03T07:07:00.000Z</time>
      </trkpt>
      <trkpt lat="44.53936" lon="4.2273">
        <ele>560</ele>
        <time>2018-06-03T07:07:01.000Z</time>
      </trkpt>
      <trkpt lat="44.53938" lon="4.22731">
        <ele>560</ele>
        <time>2018-06-03T07:07:02.000Z</time>
      </trkpt>
      <trkpt lat="44.53938" lon="4.22732">
        <ele>560</ele>
        <time>2018-06-03T07:07:03.000Z</time>
      </trkpt>
      <trkpt lat="44.53939" lon="4.22733">
        <ele>560</ele>
        <time>2018-06-03T07:07:04.000Z</time>
      </trkpt>
      <trkpt lat="44.5394" lon="4.22734">
        <ele>560</ele>
        <time>2018-06-03T07:07:05.000Z</time>
      </trkpt>
      <trkpt lat="44.53941" lon="4.22735">
        <ele>560</ele>
        <time>2018-06-03T07:07:06.000Z</time>
      </trkpt>
      <trkpt lat="44.53943" lon="4.22738">
        <ele>560</ele>
        <time>2018-06-03T07:07:07.000Z</time>
      </trkpt>
      <trkpt lat="44.53943" lon="4.22739">
        <ele>560</ele>
        <time>2018-06-03T07:07:08.000Z</time>
      </trkpt>
      <trkpt lat="44.53945" lon="4.22741">
        <ele>561</ele>
        <time>2018-06-03T07:07:09.000Z</time>
      </trkpt>
      <trkpt lat="44.53946" lon="4.22743">
        <ele>561</ele>
        <time>2018-06-03T07:07:10.000Z</time>
      </trkpt>
      <trkpt lat="44.53948" lon="4.22745">
        <ele>561</ele>
        <time>2018-06-03T07:07:11.000Z</time>
      </trkpt>
      <trkpt lat="44.53949" lon="4.22746">
        <ele>561</ele>
        <time>2018-06-03T07:07:12.000Z</time>
      </trkpt>
      <trkpt lat="44.5395" lon="4.22748">
        <ele>562</ele>
        <time>2018-06-03T07:07:13.000Z</time>
      </trkpt>
      <trkpt lat="44.53951" lon="4.22751">
        <ele>556</ele>
        <time>2018-06-03T07:07:14.000Z</time>
      </trkpt>
      <trkpt lat="44.53953" lon="4.22753">
        <ele>556</ele>
        <time>2018-06-03T07:07:15.000Z</time>
      </trkpt>
      <trkpt lat="44.53954" lon="4.22755">
        <ele>556</ele>
        <time>2018-06-03T07:07:16.000Z</time>
      </trkpt>
      <trkpt lat="44.53956" lon="4.22758">
        <ele>556</ele>
        <time>2018-06-03T07:07:17.000Z</time>
      </trkpt>
      <trkpt lat="44.53958" lon="4.2276">
        <ele>557</ele>
        <time>2018-06-03T07:07:18.000Z</time>
      </trkpt>
      <trkpt lat="44.53961" lon="4.22763">
        <ele>557</ele>
        <time>2018-06-03T07:07:19.000Z</time>
      </trkpt>
      <trkpt lat="44.53963" lon="4.22765">
        <ele>557</ele>
        <time>2018-06-03T07:07:20.000Z</time>
      </trkpt>
      <trkpt lat="44.53965" lon="4.22768">
        <ele>558</ele>
        <time>2018-06-03T07:07:21.000Z</time>
      </trkpt>
      <trkpt lat="44.53967" lon="4.2277">
        <ele>558</ele>
        <time>2018-06-03T07:07:22.000Z</time>
      </trkpt>
      <trkpt lat="44.53969" lon="4.22773">
        <ele>558</ele>
        <time>2018-06-03T07:07:23.000Z</time>
      </trkpt>
      <trkpt lat="44.53971" lon="4.22775">
        <ele>558</ele>
        <time>2018-06-03T07:07:24.000Z</time>
      </trkpt>
      <trkpt lat="44.53973" lon="4.22778">
        <ele>558</ele>
        <time>2018-06-03T07:07:25.000Z</time>
      </trkpt>
      <trkpt lat="44.53975" lon="4.22781">
        <ele>558</ele>
        <time>2018-06-03T07:07:26.000Z</time>
      </trkpt>
      <trkpt lat="44.53976" lon="4.22783">
        <ele>558</ele>
        <time>2018-06-03T07:07:27.000Z</time>
      </trkpt>
      <trkpt lat="44.53978" lon="4.22786">
        <ele>558</ele>
        <time>2018-06-03T07:07:28.000Z</time>
      </trkpt>
      <trkpt lat="44.5398" lon="4.22789">
        <ele>558</ele>
        <time>2018-06-03T07:07:29.000Z</time>
      </trkpt>
      <trkpt lat="44.53982" lon="4.22792">
        <ele>558</ele>
        <time>2018-06-03T07:07:30.000Z</time>
      </trkpt>
      <trkpt lat="44.53983" lon="4.22794">
        <ele>557</ele>
        <time>2018-06-03T07:07:31.000Z</time>
      </trkpt>
      <trkpt lat="44.53985" lon="4.22797">
        <ele>557</ele>
        <time>2018-06-03T07:07:32.000Z</time>
      </trkpt>
      <trkpt lat="44.53987" lon="4.22799">
        <ele>557</ele>
        <time>2018-06-03T07:07:33.000Z</time>
      </trkpt>
      <trkpt lat="44.53988" lon="4.22802">
        <ele>557</ele>
        <time>2018-06-03T07:07:34.000Z</time>
      </trkpt>
      <trkpt lat="44.5399" lon="4.22805">
        <ele>557</ele>
        <time>2018-06-03T07:07:35.000Z</time>
      </trkpt>
      <trkpt lat="44.53992" lon="4.22808">
        <ele>557</ele>
        <time>2018-06-03T07:07:36.000Z</time>
      </trkpt>
      <trkpt lat="44.53994" lon="4.22811">
        <ele>557</ele>
        <time>2018-06-03T07:07:37.000Z</time>
      </trkpt>
      <trkpt lat="44.53996" lon="4.22815">
        <ele>557</ele>
        <time>2018-06-03T07:07:38.000Z</time>
      </trkpt>
      <trkpt lat="44.53998" lon="4.22818">
        <ele>557</ele>
        <time>2018-06-03T07:07:39.000Z</time>
      </trkpt>
      <trkpt lat="44.54" lon="4.2282">
        <ele>562</ele>
        <time>2018-06-03T07:07:40.000Z</time>
      </trkpt>
      <trkpt lat="44.54002" lon="4.22823">
        <ele>562</ele>
        <time>2018-06-03T07:07:41.000Z</time>
      </trkpt>
      <trkpt lat="44.54004" lon="4.22825">
        <ele>561</ele>
        <time>2018-06-03T07:07:42.000Z</time>
      </trkpt>
      <trkpt lat="44.54006" lon="4.22828">
        <ele>561</ele>
        <time>2018-06-03T07:07:43.000Z</time>
      </trkpt>
      <trkpt lat="44.54007" lon="4.22831">
        <ele>561</ele>
        <time>2018-06-03T07:07:44.000Z</time>
      </trkpt>
      <trkpt lat="44.54009" lon="4.22833">
        <ele>561</ele>
        <time>2018-06-03T07:07:45.000Z</time>
      </trkpt>
      <trkpt lat="44.54011" lon="4.22836">
        <ele>557</ele>
        <time>2018-06-03T07:07:46.000Z</time>
      </trkpt>
      <trkpt lat="44.54013" lon="4.22838">
        <ele>557</ele>
        <time>2018-06-03T07:07:47.000Z</time>
      </trkpt>
      <trkpt lat="44.54015" lon="4.22841">
        <ele>557</ele>
        <time>2018-06-03T07:07:48.000Z</time>
      </trkpt>
      <trkpt lat="44.54017" lon="4.22844">
        <ele>557</ele>
        <time>2018-06-03T07:07:49.000Z</time>
      </trkpt>
      <trkpt lat="44.54019" lon="4.22847">
        <ele>557</ele>
        <time>2018-06-03T07:07:50.000Z</time>
      </trkpt>
      <trkpt lat="44.54021" lon="4.22849">
        <ele>557</ele>
        <time>2018-06-03T07:07:51.000Z</time>
      </trkpt>
      <trkpt lat="44.54023" lon="4.22851">
        <ele>557</ele>
        <time>2018-06-03T07:07:52.000Z</time>
      </trkpt>
      <trkpt lat="44.54025" lon="4.22853">
        <ele>556</ele>
        <time>2018-06-03T07:07:53.000Z</time>
      </trkpt>
      <trkpt lat="44.54027" lon="4.22854">
        <ele>556</ele>
        <time>2018-06-03T07:07:54.000Z</time>
      </trkpt>
      <trkpt lat="44.54028" lon="4.22856">
        <ele>556</ele>
        <time>2018-06-03T07:07:55.000Z</time>
      </trkpt>
      <trkpt lat="44.54031" lon="4.22857">
        <ele>556</ele>
        <time>2018-06-03T07:07:56.000Z</time>
      </trkpt>
      <trkpt lat="44.54033" lon="4.22858">
        <ele>556</ele>
        <time>2018-06-03T07:07:57.000Z</time>
      </trkpt>
      <trkpt lat="44.54035" lon="4.22859">
        <ele>556</ele>
        <time>2018-06-03T07:07:58.000Z</time>
      </trkpt>
      <trkpt lat="44.54037" lon="4.22859">
        <ele>556</ele>
        <time>2018-06-03T07:07:59.000Z</time>
      </trkpt>
      <trkpt lat="44.54039" lon="4.22858">
        <ele>557</ele>
        <time>2018-06-03T07:08:00.000Z</time>
      </trkpt>
      <trkpt lat="44.54041" lon="4.22858">
        <ele>557</ele>
        <time>2018-06-03T07:08:01.000Z</time>
      </trkpt>
      <trkpt lat="44.54043" lon="4.22857">
        <ele>557</ele>
        <time>2018-06-03T07:08:02.000Z</time>
      </trkpt>
      <trkpt lat="44.54045" lon="4.22856">
        <ele>557</ele>
        <time>2018-06-03T07:08:03.000Z</time>
      </trkpt>
      <trkpt lat="44.54047" lon="4.22855">
        <ele>557</ele>
        <time>2018-06-03T07:08:04.000Z</time>
      </trkpt>
      <trkpt lat="44.5405" lon="4.22854">
        <ele>557</ele>
        <time>2018-06-03T07:08:05.000Z</time>
      </trkpt>
      <trkpt lat="44.54052" lon="4.22854">
        <ele>557</ele>
        <time>2018-06-03T07:08:06.000Z</time>
      </trkpt>
      <trkpt lat="44.54054" lon="4.22853">
        <ele>558</ele>
        <time>2018-06-03T07:08:07.000Z</time>
      </trkpt>
      <trkpt lat="44.54056" lon="4.22852">
        <ele>558</ele>
        <time>2018-06-03T07:08:08.000Z</time>
      </trkpt>
      <trkpt lat="44.54058" lon="4.22851">
        <ele>558</ele>
        <time>2018-06-03T07:08:09.000Z</time>
      </trkpt>
      <trkpt lat="44.5406" lon="4.2285">
        <ele>558</ele>
        <time>2018-06-03T07:08:10.000Z</time>
      </trkpt>
      <trkpt lat="44.54062" lon="4.22849">
        <ele>558</ele>
        <time>2018-06-03T07:08:11.000Z</time>
      </trkpt>
      <trkpt lat="44.54064" lon="4.22849">
        <ele>558</ele>
        <time>2018-06-03T07:08:12.000Z</time>
      </trkpt>
      <trkpt lat="44.54066" lon="4.22848">
        <ele>559</ele>
        <time>2018-06-03T07:08:13.000Z</time>
      </trkpt>
      <trkpt lat="44.54068" lon="4.22847">
        <ele>559</ele>
        <time>2018-06-03T07:08:14.000Z</time>
      </trkpt>
      <trkpt lat="44.5407" lon="4.22845">
        <ele>559</ele>
        <time>2018-06-03T07:08:15.000Z</time>
      </trkpt>
      <trkpt lat="44.54072" lon="4.22843">
        <ele>560</ele>
        <time>2018-06-03T07:08:16.000Z</time>
      </trkpt>
      <trkpt lat="44.54074" lon="4.22841">
        <ele>560</ele>
        <time>2018-06-03T07:08:17.000Z</time>
      </trkpt>
      <trkpt lat="44.54076" lon="4.22839">
        <ele>561</ele>
        <time>2018-06-03T07:08:18.000Z</time>
      </trkpt>
      <trkpt lat="44.54077" lon="4.22837">
        <ele>561</ele>
        <time>2018-06-03T07:08:19.000Z</time>
      </trkpt>
      <trkpt lat="44.54079" lon="4.22835">
        <ele>562</ele>
        <time>2018-06-03T07:08:20.000Z</time>
      </trkpt>
      <trkpt lat="44.54081" lon="4.22833">
        <ele>564</ele>
        <time>2018-06-03T07:08:21.000Z</time>
      </trkpt>
      <trkpt lat="44.54082" lon="4.2283">
        <ele>564</ele>
        <time>2018-06-03T07:08:22.000Z</time>
      </trkpt>
      <trkpt lat="44.54084" lon="4.22828">
        <ele>564</ele>
        <time>2018-06-03T07:08:23.000Z</time>
      </trkpt>
      <trkpt lat="44.54085" lon="4.22826">
        <ele>564</ele>
        <time>2018-06-03T07:08:24.000Z</time>
      </trkpt>
      <trkpt lat="44.54087" lon="4.22823">
        <ele>565</ele>
        <time>2018-06-03T07:08:25.000Z</time>
      </trkpt>
      <trkpt lat="44.54089" lon="4.22821">
        <ele>565</ele>
        <time>2018-06-03T07:08:26.000Z</time>
      </trkpt>
      <trkpt lat="44.5409" lon="4.22819">
        <ele>566</ele>
        <time>2018-06-03T07:08:27.000Z</time>
      </trkpt>
      <trkpt lat="44.54091" lon="4.22817">
        <ele>566</ele>
        <time>2018-06-03T07:08:28.000Z</time>
      </trkpt>
      <trkpt lat="44.54092" lon="4.22815">
        <ele>566</ele>
        <time>2018-06-03T07:08:29.000Z</time>
      </trkpt>
      <trkpt lat="44.54093" lon="4.22812">
        <ele>567</ele>
        <time>2018-06-03T07:08:30.000Z</time>
      </trkpt>
      <trkpt lat="44.54094" lon="4.22809">
        <ele>567</ele>
        <time>2018-06-03T07:08:31.000Z</time>
      </trkpt>
      <trkpt lat="44.54095" lon="4.22807">
        <ele>567</ele>
        <time>2018-06-03T07:08:32.000Z</time>
      </trkpt>
      <trkpt lat="44.54097" lon="4.22804">
        <ele>567</ele>
        <time>2018-06-03T07:08:33.000Z</time>
      </trkpt>
      <trkpt lat="44.54097" lon="4.22801">
        <ele>568</ele>
        <time>2018-06-03T07:08:34.000Z</time>
      </trkpt>
      <trkpt lat="44.54098" lon="4.22798">
        <ele>568</ele>
        <time>2018-06-03T07:08:35.000Z</time>
      </trkpt>
      <trkpt lat="44.54099" lon="4.22795">
        <ele>569</ele>
        <time>2018-06-03T07:08:36.000Z</time>
      </trkpt>
      <trkpt lat="44.54101" lon="4.22792">
        <ele>569</ele>
        <time>2018-06-03T07:08:37.000Z</time>
      </trkpt>
      <trkpt lat="44.54102" lon="4.22789">
        <ele>569</ele>
        <time>2018-06-03T07:08:38.000Z</time>
      </trkpt>
      <trkpt lat="44.54103" lon="4.22786">
        <ele>569</ele>
        <time>2018-06-03T07:08:39.000Z</time>
      </trkpt>
      <trkpt lat="44.54105" lon="4.22783">
        <ele>570</ele>
        <time>2018-06-03T07:08:40.000Z</time>
      </trkpt>
      <trkpt lat="44.54106" lon="4.2278">
        <ele>570</ele>
        <time>2018-06-03T07:08:41.000Z</time>
      </trkpt>
      <trkpt lat="44.54107" lon="4.22778">
        <ele>570</ele>
        <time>2018-06-03T07:08:42.000Z</time>
      </trkpt>
      <trkpt lat="44.54108" lon="4.22775">
        <ele>571</ele>
        <time>2018-06-03T07:08:43.000Z</time>
      </trkpt>
      <trkpt lat="44.54109" lon="4.22772">
        <ele>571</ele>
        <time>2018-06-03T07:08:44.000Z</time>
      </trkpt>
      <trkpt lat="44.5411" lon="4.22769">
        <ele>571</ele>
        <time>2018-06-03T07:08:45.000Z</time>
      </trkpt>
      <trkpt lat="44.54112" lon="4.22767">
        <ele>571</ele>
        <time>2018-06-03T07:08:46.000Z</time>
      </trkpt>
      <trkpt lat="44.54114" lon="4.22765">
        <ele>571</ele>
        <time>2018-06-03T07:08:47.000Z</time>
      </trkpt>
      <trkpt lat="44.54116" lon="4.22763">
        <ele>571</ele>
        <time>2018-06-03T07:08:48.000Z</time>
      </trkpt>
      <trkpt lat="44.54117" lon="4.2276">
        <ele>571</ele>
        <time>2018-06-03T07:08:49.000Z</time>
      </trkpt>
      <trkpt lat="44.54118" lon="4.22758">
        <ele>571</ele>
        <time>2018-06-03T07:08:50.000Z</time>
      </trkpt>
      <trkpt lat="44.54119" lon="4.22755">
        <ele>571</ele>
        <time>2018-06-03T07:08:51.000Z</time>
      </trkpt>
      <trkpt lat="44.54121" lon="4.22753">
        <ele>571</ele>
        <time>2018-06-03T07:08:52.000Z</time>
      </trkpt>
      <trkpt lat="44.54122" lon="4.2275">
        <ele>571</ele>
        <time>2018-06-03T07:08:53.000Z</time>
      </trkpt>
      <trkpt lat="44.54123" lon="4.22747">
        <ele>578</ele>
        <time>2018-06-03T07:08:54.000Z</time>
      </trkpt>
      <trkpt lat="44.54124" lon="4.22745">
        <ele>578</ele>
        <time>2018-06-03T07:08:55.000Z</time>
      </trkpt>
      <trkpt lat="44.54125" lon="4.22742">
        <ele>578</ele>
        <time>2018-06-03T07:08:56.000Z</time>
      </trkpt>
      <trkpt lat="44.54126" lon="4.22739">
        <ele>578</ele>
        <time>2018-06-03T07:08:57.000Z</time>
      </trkpt>
      <trkpt lat="44.54127" lon="4.22737">
        <ele>578</ele>
        <time>2018-06-03T07:08:58.000Z</time>
      </trkpt>
      <trkpt lat="44.54129" lon="4.22735">
        <ele>578</ele>
        <time>2018-06-03T07:08:59.000Z</time>
      </trkpt>
      <trkpt lat="44.5413" lon="4.22732">
        <ele>578</ele>
        <time>2018-06-03T07:09:00.000Z</time>
      </trkpt>
      <trkpt lat="44.54131" lon="4.2273">
        <ele>578</ele>
        <time>2018-06-03T07:09:01.000Z</time>
      </trkpt>
      <trkpt lat="44.54132" lon="4.22728">
        <ele>578</ele>
        <time>2018-06-03T07:09:02.000Z</time>
      </trkpt>
      <trkpt lat="44.54133" lon="4.22725">
        <ele>578</ele>
        <time>2018-06-03T07:09:03.000Z</time>
      </trkpt>
      <trkpt lat="44.54134" lon="4.22723">
        <ele>578</ele>
        <time>2018-06-03T07:09:04.000Z</time>
      </trkpt>
      <trkpt lat="44.54135" lon="4.22721">
        <ele>579</ele>
        <time>2018-06-03T07:09:05.000Z</time>
      </trkpt>
      <trkpt lat="44.54137" lon="4.22718">
        <ele>579</ele>
        <time>2018-06-03T07:09:06.000Z</time>
      </trkpt>
      <trkpt lat="44.54138" lon="4.22717">
        <ele>579</ele>
        <time>2018-06-03T07:09:07.000Z</time>
      </trkpt>
      <trkpt lat="44.5414" lon="4.22715">
        <ele>579</ele>
        <time>2018-06-03T07:09:08.000Z</time>
      </trkpt>
      <trkpt lat="44.54141" lon="4.22712">
        <ele>579</ele>
        <time>2018-06-03T07:09:09.000Z</time>
      </trkpt>
      <trkpt lat="44.54142" lon="4.2271">
        <ele>579</ele>
        <time>2018-06-03T07:09:10.000Z</time>
      </trkpt>
      <trkpt lat="44.54143" lon="4.22707">
        <ele>579</ele>
        <time>2018-06-03T07:09:11.000Z</time>
      </trkpt>
      <trkpt lat="44.54143" lon="4.22705">
        <ele>579</ele>
        <time>2018-06-03T07:09:12.000Z</time>
      </trkpt>
      <trkpt lat="44.54144" lon="4.22703">
        <ele>579</ele>
        <time>2018-06-03T07:09:13.000Z</time>
      </trkpt>
      <trkpt lat="44.54145" lon="4.227">
        <ele>579</ele>
        <time>2018-06-03T07:09:14.000Z</time>
      </trkpt>
      <trkpt lat="44.54146" lon="4.22698">
        <ele>580</ele>
        <time>2018-06-03T07:09:15.000Z</time>
      </trkpt>
      <trkpt lat="44.54146" lon="4.22696">
        <ele>580</ele>
        <time>2018-06-03T07:09:16.000Z</time>
      </trkpt>
      <trkpt lat="44.54147" lon="4.22694">
        <ele>580</ele>
        <time>2018-06-03T07:09:17.000Z</time>
      </trkpt>
      <trkpt lat="44.54148" lon="4.22691">
        <ele>580</ele>
        <time>2018-06-03T07:09:18.000Z</time>
      </trkpt>
      <trkpt lat="44.54148" lon="4.22689">
        <ele>580</ele>
        <time>2018-06-03T07:09:19.000Z</time>
      </trkpt>
      <trkpt lat="44.54149" lon="4.22687">
        <ele>580</ele>
        <time>2018-06-03T07:09:20.000Z</time>
      </trkpt>
      <trkpt lat="44.54149" lon="4.22685">
        <ele>580</ele>
        <time>2018-06-03T07:09:21.000Z</time>
      </trkpt>
      <trkpt lat="44.5415" lon="4.22683">
        <ele>580</ele>
        <time>2018-06-03T07:09:22.000Z</time>
      </trkpt>
      <trkpt lat="44.54151" lon="4.22681">
        <ele>580</ele>
        <time>2018-06-03T07:09:23.000Z</time>
      </trkpt>
      <trkpt lat="44.54152" lon="4.22679">
        <ele>580</ele>
        <time>2018-06-03T07:09:24.000Z</time>
      </trkpt>
      <trkpt lat="44.54152" lon="4.22676">
        <ele>580</ele>
        <time>2018-06-03T07:09:25.000Z</time>
      </trkpt>
      <trkpt lat="44.54153" lon="4.22674">
        <ele>580</ele>
        <time>2018-06-03T07:09:26.000Z</time>
      </trkpt>
      <trkpt lat="44.54154" lon="4.22672">
        <ele>580</ele>
        <time>2018-06-03T07:09:27.000Z</time>
      </trkpt>
      <trkpt lat="44.54155" lon="4.2267">
        <ele>580</ele>
        <time>2018-06-03T07:09:28.000Z</time>
      </trkpt>
      <trkpt lat="44.54156" lon="4.22668">
        <ele>580</ele>
        <time>2018-06-03T07:09:29.000Z</time>
      </trkpt>
      <trkpt lat="44.54156" lon="4.22666">
        <ele>584</ele>
        <time>2018-06-03T07:09:30.000Z</time>
      </trkpt>
      <trkpt lat="44.54157" lon="4.22664">
        <ele>584</ele>
        <time>2018-06-03T07:09:31.000Z</time>
      </trkpt>
      <trkpt lat="44.54158" lon="4.22662">
        <ele>584</ele>
        <time>2018-06-03T07:09:32.000Z</time>
      </trkpt>
      <trkpt lat="44.54159" lon="4.22661">
        <ele>584</ele>
        <time>2018-06-03T07:09:33.000Z</time>
      </trkpt>
      <trkpt lat="44.5416" lon="4.22659">
        <ele>584</ele>
        <time>2018-06-03T07:09:34.000Z</time>
      </trkpt>
      <trkpt lat="44.54162" lon="4.22657">
        <ele>585</ele>
        <time>2018-06-03T07:09:35.000Z</time>
      </trkpt>
      <trkpt lat="44.54163" lon="4.22654">
        <ele>585</ele>
        <time>2018-06-03T07:09:36.000Z</time>
      </trkpt>
      <trkpt lat="44.54164" lon="4.22652">
        <ele>586</ele>
        <time>2018-06-03T07:09:37.000Z</time>
      </trkpt>
      <trkpt lat="44.54165" lon="4.2265">
        <ele>586</ele>
        <time>2018-06-03T07:09:38.000Z</time>
      </trkpt>
      <trkpt lat="44.54166" lon="4.22649">
        <ele>586</ele>
        <time>2018-06-03T07:09:39.000Z</time>
      </trkpt>
      <trkpt lat="44.54167" lon="4.22648">
        <ele>585</ele>
        <time>2018-06-03T07:09:40.000Z</time>
      </trkpt>
      <trkpt lat="44.54168" lon="4.22646">
        <ele>585</ele>
        <time>2018-06-03T07:09:41.000Z</time>
      </trkpt>
      <trkpt lat="44.5417" lon="4.22645">
        <ele>585</ele>
        <time>2018-06-03T07:09:42.000Z</time>
      </trkpt>
      <trkpt lat="44.54171" lon="4.22643">
        <ele>586</ele>
        <time>2018-06-03T07:09:43.000Z</time>
      </trkpt>
      <trkpt lat="44.54172" lon="4.22642">
        <ele>586</ele>
        <time>2018-06-03T07:09:44.000Z</time>
      </trkpt>
      <trkpt lat="44.54174" lon="4.2264">
        <ele>586</ele>
        <time>2018-06-03T07:09:45.000Z</time>
      </trkpt>
      <trkpt lat="44.54175" lon="4.22638">
        <ele>586</ele>
        <time>2018-06-03T07:09:46.000Z</time>
      </trkpt>
      <trkpt lat="44.54177" lon="4.22636">
        <ele>587</ele>
        <time>2018-06-03T07:09:47.000Z</time>
      </trkpt>
      <trkpt lat="44.54178" lon="4.22635">
        <ele>587</ele>
        <time>2018-06-03T07:09:48.000Z</time>
      </trkpt>
      <trkpt lat="44.5418" lon="4.22633">
        <ele>587</ele>
        <time>2018-06-03T07:09:49.000Z</time>
      </trkpt>
      <trkpt lat="44.54181" lon="4.22631">
        <ele>587</ele>
        <time>2018-06-03T07:09:50.000Z</time>
      </trkpt>
      <trkpt lat="44.54183" lon="4.2263">
        <ele>588</ele>
        <time>2018-06-03T07:09:51.000Z</time>
      </trkpt>
      <trkpt lat="44.54184" lon="4.22628">
        <ele>588</ele>
        <time>2018-06-03T07:09:52.000Z</time>
      </trkpt>
      <trkpt lat="44.54186" lon="4.22627">
        <ele>588</ele>
        <time>2018-06-03T07:09:53.000Z</time>
      </trkpt>
      <trkpt lat="44.54188" lon="4.22625">
        <ele>588</ele>
        <time>2018-06-03T07:09:54.000Z</time>
      </trkpt>
      <trkpt lat="44.54189" lon="4.22624">
        <ele>588</ele>
        <time>2018-06-03T07:09:55.000Z</time>
      </trkpt>
      <trkpt lat="44.5419" lon="4.22622">
        <ele>589</ele>
        <time>2018-06-03T07:09:56.000Z</time>
      </trkpt>
      <trkpt lat="44.54191" lon="4.22621">
        <ele>589</ele>
        <time>2018-06-03T07:09:57.000Z</time>
      </trkpt>
      <trkpt lat="44.54192" lon="4.22619">
        <ele>589</ele>
        <time>2018-06-03T07:09:58.000Z</time>
      </trkpt>
      <trkpt lat="44.54193" lon="4.22618">
        <ele>589</ele>
        <time>2018-06-03T07:09:59.000Z</time>
      </trkpt>
      <trkpt lat="44.54194" lon="4.22616">
        <ele>589</ele>
        <time>2018-06-03T07:10:00.000Z</time>
      </trkpt>
      <trkpt lat="44.54195" lon="4.22615">
        <ele>589</ele>
        <time>2018-06-03T07:10:01.000Z</time>
      </trkpt>
      <trkpt lat="44.54197" lon="4.22613">
        <ele>589</ele>
        <time>2018-06-03T07:10:02.000Z</time>
      </trkpt>
      <trkpt lat="44.54198" lon="4.22612">
        <ele>589</ele>
        <time>2018-06-03T07:10:03.000Z</time>
      </trkpt>
      <trkpt lat="44.542" lon="4.22611">
        <ele>589</ele>
        <time>2018-06-03T07:10:04.000Z</time>
      </trkpt>
      <trkpt lat="44.54201" lon="4.2261">
        <ele>590</ele>
        <time>2018-06-03T07:10:05.000Z</time>
      </trkpt>
      <trkpt lat="44.54202" lon="4.2261">
        <ele>590</ele>
        <time>2018-06-03T07:10:06.000Z</time>
      </trkpt>
      <trkpt lat="44.54204" lon="4.22609">
        <ele>590</ele>
        <time>2018-06-03T07:10:07.000Z</time>
      </trkpt>
      <trkpt lat="44.54205" lon="4.22608">
        <ele>590</ele>
        <time>2018-06-03T07:10:08.000Z</time>
      </trkpt>
      <trkpt lat="44.54207" lon="4.22607">
        <ele>590</ele>
        <time>2018-06-03T07:10:09.000Z</time>
      </trkpt>
      <trkpt lat="44.54209" lon="4.22606">
        <ele>590</ele>
        <time>2018-06-03T07:10:10.000Z</time>
      </trkpt>
      <trkpt lat="44.5421" lon="4.22605">
        <ele>590</ele>
        <time>2018-06-03T07:10:11.000Z</time>
      </trkpt>
      <trkpt lat="44.54213" lon="4.22604">
        <ele>590</ele>
        <time>2018-06-03T07:10:12.000Z</time>
      </trkpt>
      <trkpt lat="44.54214" lon="4.22603">
        <ele>590</ele>
        <time>2018-06-03T07:10:13.000Z</time>
      </trkpt>
      <trkpt lat="44.54216" lon="4.22602">
        <ele>590</ele>
        <time>2018-06-03T07:10:14.000Z</time>
      </trkpt>
      <trkpt lat="44.54218" lon="4.22601">
        <ele>590</ele>
        <time>2018-06-03T07:10:15.000Z</time>
      </trkpt>
      <trkpt lat="44.5422" lon="4.226">
        <ele>590</ele>
        <time>2018-06-03T07:10:16.000Z</time>
      </trkpt>
      <trkpt lat="44.54222" lon="4.22599">
        <ele>590</ele>
        <time>2018-06-03T07:10:17.000Z</time>
      </trkpt>
      <trkpt lat="44.54223" lon="4.22598">
        <ele>591</ele>
        <time>2018-06-03T07:10:18.000Z</time>
      </trkpt>
      <trkpt lat="44.54225" lon="4.22597">
        <ele>591</ele>
        <time>2018-06-03T07:10:19.000Z</time>
      </trkpt>
      <trkpt lat="44.54226" lon="4.22596">
        <ele>591</ele>
        <time>2018-06-03T07:10:20.000Z</time>
      </trkpt>
      <trkpt lat="44.54228" lon="4.22595">
        <ele>591</ele>
        <time>2018-06-03T07:10:21.000Z</time>
      </trkpt>
      <trkpt lat="44.5423" lon="4.22594">
        <ele>591</ele>
        <time>2018-06-03T07:10:22.000Z</time>
      </trkpt>
      <trkpt lat="44.54231" lon="4.22593">
        <ele>591</ele>
        <time>2018-06-03T07:10:23.000Z</time>
      </trkpt>
      <trkpt lat="44.54233" lon="4.22592">
        <ele>592</ele>
        <time>2018-06-03T07:10:24.000Z</time>
      </trkpt>
      <trkpt lat="44.54235" lon="4.22591">
        <ele>592</ele>
        <time>2018-06-03T07:10:25.000Z</time>
      </trkpt>
      <trkpt lat="44.54236" lon="4.2259">
        <ele>592</ele>
        <time>2018-06-03T07:10:26.000Z</time>
      </trkpt>
      <trkpt lat="44.54238" lon="4.2259">
        <ele>592</ele>
        <time>2018-06-03T07:10:27.000Z</time>
      </trkpt>
      <trkpt lat="44.5424" lon="4.22589">
        <ele>593</ele>
        <time>2018-06-03T07:10:28.000Z</time>
      </trkpt>
      <trkpt lat="44.54242" lon="4.22588">
        <ele>593</ele>
        <time>2018-06-03T07:10:29.000Z</time>
      </trkpt>
      <trkpt lat="44.54243" lon="4.22588">
        <ele>593</ele>
        <time>2018-06-03T07:10:30.000Z</time>
      </trkpt>
      <trkpt lat="44.54245" lon="4.22587">
        <ele>594</ele>
        <time>2018-06-03T07:10:31.000Z</time>
      </trkpt>
      <trkpt lat="44.54247" lon="4.22587">
        <ele>594</ele>
        <time>2018-06-03T07:10:32.000Z</time>
      </trkpt>
      <trkpt lat="44.54249" lon="4.22586">
        <ele>594</ele>
        <time>2018-06-03T07:10:33.000Z</time>
      </trkpt>
      <trkpt lat="44.54251" lon="4.22586">
        <ele>595</ele>
        <time>2018-06-03T07:10:34.000Z</time>
      </trkpt>
      <trkpt lat="44.54253" lon="4.22586">
        <ele>594</ele>
        <time>2018-06-03T07:10:35.000Z</time>
      </trkpt>
      <trkpt lat="44.54255" lon="4.22587">
        <ele>594</ele>
        <time>2018-06-03T07:10:36.000Z</time>
      </trkpt>
      <trkpt lat="44.54257" lon="4.22586">
        <ele>594</ele>
        <time>2018-06-03T07:10:37.000Z</time>
      </trkpt>
      <trkpt lat="44.54259" lon="4.22586">
        <ele>594</ele>
        <time>2018-06-03T07:10:38.000Z</time>
      </trkpt>
      <trkpt lat="44.5426" lon="4.22586">
        <ele>594</ele>
        <time>2018-06-03T07:10:39.000Z</time>
      </trkpt>
      <trkpt lat="44.54262" lon="4.22586">
        <ele>594</ele>
        <time>2018-06-03T07:10:40.000Z</time>
      </trkpt>
      <trkpt lat="44.54264" lon="4.22586">
        <ele>594</ele>
        <time>2018-06-03T07:10:41.000Z</time>
      </trkpt>
      <trkpt lat="44.54266" lon="4.22586">
        <ele>594</ele>
        <time>2018-06-03T07:10:42.000Z</time>
      </trkpt>
      <trkpt lat="44.54268" lon="4.22586">
        <ele>593</ele>
        <time>2018-06-03T07:10:43.000Z</time>
      </trkpt>
      <trkpt lat="44.5427" lon="4.22585">
        <ele>593</ele>
        <time>2018-06-03T07:10:44.000Z</time>
      </trkpt>
      <trkpt lat="44.54272" lon="4.22585">
        <ele>593</ele>
        <time>2018-06-03T07:10:45.000Z</time>
      </trkpt>
      <trkpt lat="44.54273" lon="4.22585">
        <ele>593</ele>
        <time>2018-06-03T07:10:46.000Z</time>
      </trkpt>
      <trkpt lat="44.54275" lon="4.22584">
        <ele>593</ele>
        <time>2018-06-03T07:10:47.000Z</time>
      </trkpt>
      <trkpt lat="44.54276" lon="4.22584">
        <ele>593</ele>
        <time>2018-06-03T07:10:48.000Z</time>
      </trkpt>
      <trkpt lat="44.54278" lon="4.22584">
        <ele>593</ele>
        <time>2018-06-03T07:10:49.000Z</time>
      </trkpt>
      <trkpt lat="44.5428" lon="4.22584">
        <ele>593</ele>
        <time>2018-06-03T07:10:50.000Z</time>
      </trkpt>
      <trkpt lat="44.54282" lon="4.22584">
        <ele>593</ele>
        <time>2018-06-03T07:10:51.000Z</time>
      </trkpt>
      <trkpt lat="44.54284" lon="4.22584">
        <ele>593</ele>
        <time>2018-06-03T07:10:52.000Z</time>
      </trkpt>
      <trkpt lat="44.54285" lon="4.22584">
        <ele>593</ele>
        <time>2018-06-03T07:10:53.000Z</time>
      </trkpt>
      <trkpt lat="44.54287" lon="4.22584">
        <ele>593</ele>
        <time>2018-06-03T07:10:54.000Z</time>
      </trkpt>
      <trkpt lat="44.54288" lon="4.22585">
        <ele>593</ele>
        <time>2018-06-03T07:10:55.000Z</time>
      </trkpt>
      <trkpt lat="44.5429" lon="4.22585">
        <ele>593</ele>
        <time>2018-06-03T07:10:56.000Z</time>
      </trkpt>
      <trkpt lat="44.54291" lon="4.22586">
        <ele>594</ele>
        <time>2018-06-03T07:10:57.000Z</time>
      </trkpt>
      <trkpt lat="44.54293" lon="4.22586">
        <ele>594</ele>
        <time>2018-06-03T07:10:58.000Z</time>
      </trkpt>
      <trkpt lat="44.54295" lon="4.22587">
        <ele>594</ele>
        <time>2018-06-03T07:10:59.000Z</time>
      </trkpt>
      <trkpt lat="44.54296" lon="4.22588">
        <ele>594</ele>
        <time>2018-06-03T07:11:00.000Z</time>
      </trkpt>
      <trkpt lat="44.54298" lon="4.22589">
        <ele>594</ele>
        <time>2018-06-03T07:11:01.000Z</time>
      </trkpt>
      <trkpt lat="44.543" lon="4.2259">
        <ele>594</ele>
        <time>2018-06-03T07:11:02.000Z</time>
      </trkpt>
      <trkpt lat="44.54302" lon="4.22591">
        <ele>594</ele>
        <time>2018-06-03T07:11:03.000Z</time>
      </trkpt>
      <trkpt lat="44.54303" lon="4.22592">
        <ele>594</ele>
        <time>2018-06-03T07:11:04.000Z</time>
      </trkpt>
      <trkpt lat="44.54305" lon="4.22593">
        <ele>594</ele>
        <time>2018-06-03T07:11:05.000Z</time>
      </trkpt>
      <trkpt lat="44.54307" lon="4.22594">
        <ele>594</ele>
        <time>2018-06-03T07:11:06.000Z</time>
      </trkpt>
      <trkpt lat="44.54309" lon="4.22595">
        <ele>594</ele>
        <time>2018-06-03T07:11:07.000Z</time>
      </trkpt>
      <trkpt lat="44.54311" lon="4.22596">
        <ele>594</ele>
        <time>2018-06-03T07:11:08.000Z</time>
      </trkpt>
      <trkpt lat="44.54314" lon="4.22596">
        <ele>595</ele>
        <time>2018-06-03T07:11:09.000Z</time>
      </trkpt>
      <trkpt lat="44.54316" lon="4.22597">
        <ele>595</ele>
        <time>2018-06-03T07:11:10.000Z</time>
      </trkpt>
      <trkpt lat="44.54318" lon="4.22598">
        <ele>595</ele>
        <time>2018-06-03T07:11:11.000Z</time>
      </trkpt>
      <trkpt lat="44.5432" lon="4.22599">
        <ele>595</ele>
        <time>2018-06-03T07:11:12.000Z</time>
      </trkpt>
      <trkpt lat="44.54323" lon="4.226">
        <ele>595</ele>
        <time>2018-06-03T07:11:13.000Z</time>
      </trkpt>
      <trkpt lat="44.54325" lon="4.226">
        <ele>595</ele>
        <time>2018-06-03T07:11:14.000Z</time>
      </trkpt>
      <trkpt lat="44.54327" lon="4.22601">
        <ele>595</ele>
        <time>2018-06-03T07:11:15.000Z</time>
      </trkpt>
      <trkpt lat="44.54329" lon="4.226">
        <ele>595</ele>
        <time>2018-06-03T07:11:16.000Z</time>
      </trkpt>
      <trkpt lat="44.54331" lon="4.226">
        <ele>595</ele>
        <time>2018-06-03T07:11:17.000Z</time>
      </trkpt>
      <trkpt lat="44.54333" lon="4.22599">
        <ele>596</ele>
        <time>2018-06-03T07:11:18.000Z</time>
      </trkpt>
      <trkpt lat="44.54335" lon="4.22597">
        <ele>598</ele>
        <time>2018-06-03T07:11:19.000Z</time>
      </trkpt>
      <trkpt lat="44.54336" lon="4.22595">
        <ele>598</ele>
        <time>2018-06-03T07:11:20.000Z</time>
      </trkpt>
      <trkpt lat="44.54338" lon="4.22593">
        <ele>599</ele>
        <time>2018-06-03T07:11:21.000Z</time>
      </trkpt>
      <trkpt lat="44.54339" lon="4.2259">
        <ele>599</ele>
        <time>2018-06-03T07:11:22.000Z</time>
      </trkpt>
      <trkpt lat="44.5434" lon="4.22588">
        <ele>599</ele>
        <time>2018-06-03T07:11:23.000Z</time>
      </trkpt>
      <trkpt lat="44.54341" lon="4.22586">
        <ele>599</ele>
        <time>2018-06-03T07:11:24.000Z</time>
      </trkpt>
      <trkpt lat="44.54342" lon="4.22585">
        <ele>599</ele>
        <time>2018-06-03T07:11:25.000Z</time>
      </trkpt>
      <trkpt lat="44.54344" lon="4.22583">
        <ele>603</ele>
        <time>2018-06-03T07:11:26.000Z</time>
      </trkpt>
      <trkpt lat="44.54345" lon="4.22581">
        <ele>603</ele>
        <time>2018-06-03T07:11:27.000Z</time>
      </trkpt>
      <trkpt lat="44.54348" lon="4.2258">
        <ele>604</ele>
        <time>2018-06-03T07:11:28.000Z</time>
      </trkpt>
      <trkpt lat="44.5435" lon="4.22579">
        <ele>604</ele>
        <time>2018-06-03T07:11:29.000Z</time>
      </trkpt>
      <trkpt lat="44.54352" lon="4.22578">
        <ele>605</ele>
        <time>2018-06-03T07:11:30.000Z</time>
      </trkpt>
      <trkpt lat="44.54354" lon="4.22578">
        <ele>605</ele>
        <time>2018-06-03T07:11:31.000Z</time>
      </trkpt>
      <trkpt lat="44.54357" lon="4.22578">
        <ele>605</ele>
        <time>2018-06-03T07:11:32.000Z</time>
      </trkpt>
      <trkpt lat="44.5436" lon="4.22578">
        <ele>606</ele>
        <time>2018-06-03T07:11:33.000Z</time>
      </trkpt>
      <trkpt lat="44.54363" lon="4.22578">
        <ele>606</ele>
        <time>2018-06-03T07:11:34.000Z</time>
      </trkpt>
      <trkpt lat="44.54366" lon="4.22578">
        <ele>607</ele>
        <time>2018-06-03T07:11:35.000Z</time>
      </trkpt>
      <trkpt lat="44.54369" lon="4.22578">
        <ele>607</ele>
        <time>2018-06-03T07:11:36.000Z</time>
      </trkpt>
      <trkpt lat="44.54371" lon="4.22579">
        <ele>607</ele>
        <time>2018-06-03T07:11:37.000Z</time>
      </trkpt>
      <trkpt lat="44.54374" lon="4.2258">
        <ele>607</ele>
        <time>2018-06-03T07:11:38.000Z</time>
      </trkpt>
      <trkpt lat="44.54375" lon="4.22581">
        <ele>607</ele>
        <time>2018-06-03T07:11:39.000Z</time>
      </trkpt>
      <trkpt lat="44.54376" lon="4.22583">
        <ele>607</ele>
        <time>2018-06-03T07:11:40.000Z</time>
      </trkpt>
      <trkpt lat="44.54377" lon="4.22585">
        <ele>600</ele>
        <time>2018-06-03T07:11:41.000Z</time>
      </trkpt>
      <trkpt lat="44.54378" lon="4.22588">
        <ele>600</ele>
        <time>2018-06-03T07:11:42.000Z</time>
      </trkpt>
      <trkpt lat="44.54378" lon="4.22591">
        <ele>600</ele>
        <time>2018-06-03T07:11:43.000Z</time>
      </trkpt>
      <trkpt lat="44.54379" lon="4.22594">
        <ele>600</ele>
        <time>2018-06-03T07:11:44.000Z</time>
      </trkpt>
      <trkpt lat="44.54379" lon="4.22597">
        <ele>600</ele>
        <time>2018-06-03T07:11:45.000Z</time>
      </trkpt>
      <trkpt lat="44.54379" lon="4.226">
        <ele>600</ele>
        <time>2018-06-03T07:11:46.000Z</time>
      </trkpt>
      <trkpt lat="44.5438" lon="4.22603">
        <ele>599</ele>
        <time>2018-06-03T07:11:47.000Z</time>
      </trkpt>
      <trkpt lat="44.54381" lon="4.22606">
        <ele>599</ele>
        <time>2018-06-03T07:11:48.000Z</time>
      </trkpt>
      <trkpt lat="44.54382" lon="4.22609">
        <ele>599</ele>
        <time>2018-06-03T07:11:49.000Z</time>
      </trkpt>
      <trkpt lat="44.54384" lon="4.22612">
        <ele>599</ele>
        <time>2018-06-03T07:11:50.000Z</time>
      </trkpt>
      <trkpt lat="44.54386" lon="4.22614">
        <ele>599</ele>
        <time>2018-06-03T07:11:51.000Z</time>
      </trkpt>
      <trkpt lat="44.54388" lon="4.22616">
        <ele>599</ele>
        <time>2018-06-03T07:11:52.000Z</time>
      </trkpt>
      <trkpt lat="44.5439" lon="4.22618">
        <ele>599</ele>
        <time>2018-06-03T07:11:53.000Z</time>
      </trkpt>
      <trkpt lat="44.54392" lon="4.2262">
        <ele>599</ele>
        <time>2018-06-03T07:11:54.000Z</time>
      </trkpt>
      <trkpt lat="44.54394" lon="4.22622">
        <ele>599</ele>
        <time>2018-06-03T07:11:55.000Z</time>
      </trkpt>
      <trkpt lat="44.54396" lon="4.22623">
        <ele>599</ele>
        <time>2018-06-03T07:11:56.000Z</time>
      </trkpt>
      <trkpt lat="44.54398" lon="4.22625">
        <ele>599</ele>
        <time>2018-06-03T07:11:57.000Z</time>
      </trkpt>
      <trkpt lat="44.544" lon="4.22627">
        <ele>598</ele>
        <time>2018-06-03T07:11:58.000Z</time>
      </trkpt>
      <trkpt lat="44.54402" lon="4.22628">
        <ele>598</ele>
        <time>2018-06-03T07:11:59.000Z</time>
      </trkpt>
      <trkpt lat="44.54404" lon="4.2263">
        <ele>598</ele>
        <time>2018-06-03T07:12:00.000Z</time>
      </trkpt>
      <trkpt lat="44.54405" lon="4.22632">
        <ele>598</ele>
        <time>2018-06-03T07:12:01.000Z</time>
      </trkpt>
      <trkpt lat="44.54407" lon="4.22633">
        <ele>598</ele>
        <time>2018-06-03T07:12:02.000Z</time>
      </trkpt>
      <trkpt lat="44.54409" lon="4.22635">
        <ele>598</ele>
        <time>2018-06-03T07:12:03.000Z</time>
      </trkpt>
      <trkpt lat="44.54411" lon="4.22636">
        <ele>598</ele>
        <time>2018-06-03T07:12:04.000Z</time>
      </trkpt>
      <trkpt lat="44.54413" lon="4.22638">
        <ele>598</ele>
        <time>2018-06-03T07:12:05.000Z</time>
      </trkpt>
      <trkpt lat="44.54415" lon="4.22639">
        <ele>597</ele>
        <time>2018-06-03T07:12:06.000Z</time>
      </trkpt>
      <trkpt lat="44.54417" lon="4.22642">
        <ele>603</ele>
        <time>2018-06-03T07:12:07.000Z</time>
      </trkpt>
      <trkpt lat="44.5442" lon="4.22644">
        <ele>603</ele>
        <time>2018-06-03T07:12:08.000Z</time>
      </trkpt>
      <trkpt lat="44.54421" lon="4.22646">
        <ele>603</ele>
        <time>2018-06-03T07:12:09.000Z</time>
      </trkpt>
      <trkpt lat="44.54424" lon="4.22648">
        <ele>602</ele>
        <time>2018-06-03T07:12:10.000Z</time>
      </trkpt>
      <trkpt lat="44.54426" lon="4.2265">
        <ele>602</ele>
        <time>2018-06-03T07:12:11.000Z</time>
      </trkpt>
      <trkpt lat="44.54429" lon="4.22651">
        <ele>602</ele>
        <time>2018-06-03T07:12:12.000Z</time>
      </trkpt>
      <trkpt lat="44.54431" lon="4.22653">
        <ele>603</ele>
        <time>2018-06-03T07:12:13.000Z</time>
      </trkpt>
      <trkpt lat="44.54434" lon="4.22654">
        <ele>603</ele>
        <time>2018-06-03T07:12:14.000Z</time>
      </trkpt>
      <trkpt lat="44.54436" lon="4.22655">
        <ele>603</ele>
        <time>2018-06-03T07:12:15.000Z</time>
      </trkpt>
      <trkpt lat="44.54439" lon="4.22656">
        <ele>604</ele>
        <time>2018-06-03T07:12:16.000Z</time>
      </trkpt>
      <trkpt lat="44.54441" lon="4.22658">
        <ele>604</ele>
        <time>2018-06-03T07:12:17.000Z</time>
      </trkpt>
      <trkpt lat="44.54444" lon="4.22659">
        <ele>605</ele>
        <time>2018-06-03T07:12:18.000Z</time>
      </trkpt>
      <trkpt lat="44.54446" lon="4.22661">
        <ele>605</ele>
        <time>2018-06-03T07:12:19.000Z</time>
      </trkpt>
      <trkpt lat="44.54448" lon="4.22663">
        <ele>606</ele>
        <time>2018-06-03T07:12:20.000Z</time>
      </trkpt>
      <trkpt lat="44.5445" lon="4.22665">
        <ele>606</ele>
        <time>2018-06-03T07:12:21.000Z</time>
      </trkpt>
      <trkpt lat="44.54452" lon="4.22667">
        <ele>601</ele>
        <time>2018-06-03T07:12:22.000Z</time>
      </trkpt>
      <trkpt lat="44.54454" lon="4.2267">
        <ele>602</ele>
        <time>2018-06-03T07:12:23.000Z</time>
      </trkpt>
      <trkpt lat="44.54456" lon="4.22673">
        <ele>602</ele>
        <time>2018-06-03T07:12:24.000Z</time>
      </trkpt>
      <trkpt lat="44.54458" lon="4.22676">
        <ele>602</ele>
        <time>2018-06-03T07:12:25.000Z</time>
      </trkpt>
      <trkpt lat="44.5446" lon="4.22678">
        <ele>603</ele>
        <time>2018-06-03T07:12:26.000Z</time>
      </trkpt>
      <trkpt lat="44.54462" lon="4.22681">
        <ele>603</ele>
        <time>2018-06-03T07:12:27.000Z</time>
      </trkpt>
      <trkpt lat="44.54463" lon="4.22684">
        <ele>603</ele>
        <time>2018-06-03T07:12:28.000Z</time>
      </trkpt>
      <trkpt lat="44.54465" lon="4.22687">
        <ele>603</ele>
        <time>2018-06-03T07:12:29.000Z</time>
      </trkpt>
      <trkpt lat="44.54467" lon="4.2269">
        <ele>603</ele>
        <time>2018-06-03T07:12:30.000Z</time>
      </trkpt>
      <trkpt lat="44.54469" lon="4.22693">
        <ele>603</ele>
        <time>2018-06-03T07:12:31.000Z</time>
      </trkpt>
      <trkpt lat="44.54471" lon="4.22696">
        <ele>604</ele>
        <time>2018-06-03T07:12:32.000Z</time>
      </trkpt>
      <trkpt lat="44.54472" lon="4.22699">
        <ele>604</ele>
        <time>2018-06-03T07:12:33.000Z</time>
      </trkpt>
      <trkpt lat="44.54474" lon="4.22702">
        <ele>604</ele>
        <time>2018-06-03T07:12:34.000Z</time>
      </trkpt>
      <trkpt lat="44.54476" lon="4.22705">
        <ele>604</ele>
        <time>2018-06-03T07:12:35.000Z</time>
      </trkpt>
      <trkpt lat="44.54478" lon="4.22708">
        <ele>604</ele>
        <time>2018-06-03T07:12:36.000Z</time>
      </trkpt>
      <trkpt lat="44.5448" lon="4.22711">
        <ele>604</ele>
        <time>2018-06-03T07:12:37.000Z</time>
      </trkpt>
      <trkpt lat="44.54481" lon="4.22714">
        <ele>604</ele>
        <time>2018-06-03T07:12:38.000Z</time>
      </trkpt>
      <trkpt lat="44.54483" lon="4.22717">
        <ele>604</ele>
        <time>2018-06-03T07:12:39.000Z</time>
      </trkpt>
      <trkpt lat="44.54485" lon="4.2272">
        <ele>605</ele>
        <time>2018-06-03T07:12:40.000Z</time>
      </trkpt>
      <trkpt lat="44.54487" lon="4.22723">
        <ele>605</ele>
        <time>2018-06-03T07:12:41.000Z</time>
      </trkpt>
      <trkpt lat="44.54489" lon="4.22726">
        <ele>605</ele>
        <time>2018-06-03T07:12:42.000Z</time>
      </trkpt>
      <trkpt lat="44.5449" lon="4.22728">
        <ele>606</ele>
        <time>2018-06-03T07:12:43.000Z</time>
      </trkpt>
      <trkpt lat="44.54492" lon="4.22731">
        <ele>606</ele>
        <time>2018-06-03T07:12:44.000Z</time>
      </trkpt>
      <trkpt lat="44.54494" lon="4.22734">
        <ele>607</ele>
        <time>2018-06-03T07:12:45.000Z</time>
      </trkpt>
      <trkpt lat="44.54495" lon="4.22737">
        <ele>608</ele>
        <time>2018-06-03T07:12:46.000Z</time>
      </trkpt>
      <trkpt lat="44.54496" lon="4.2274">
        <ele>608</ele>
        <time>2018-06-03T07:12:47.000Z</time>
      </trkpt>
      <trkpt lat="44.54496" lon="4.22744">
        <ele>609</ele>
        <time>2018-06-03T07:12:48.000Z</time>
      </trkpt>
      <trkpt lat="44.54496" lon="4.22747">
        <ele>610</ele>
        <time>2018-06-03T07:12:49.000Z</time>
      </trkpt>
      <trkpt lat="44.54497" lon="4.2275">
        <ele>610</ele>
        <time>2018-06-03T07:12:50.000Z</time>
      </trkpt>
      <trkpt lat="44.54497" lon="4.22754">
        <ele>610</ele>
        <time>2018-06-03T07:12:51.000Z</time>
      </trkpt>
      <trkpt lat="44.54497" lon="4.22756">
        <ele>608</ele>
        <time>2018-06-03T07:12:52.000Z</time>
      </trkpt>
      <trkpt lat="44.54496" lon="4.22759">
        <ele>607</ele>
        <time>2018-06-03T07:12:53.000Z</time>
      </trkpt>
      <trkpt lat="44.54496" lon="4.22763">
        <ele>606</ele>
        <time>2018-06-03T07:12:54.000Z</time>
      </trkpt>
      <trkpt lat="44.54497" lon="4.22766">
        <ele>606</ele>
        <time>2018-06-03T07:12:55.000Z</time>
      </trkpt>
      <trkpt lat="44.54497" lon="4.2277">
        <ele>605</ele>
        <time>2018-06-03T07:12:56.000Z</time>
      </trkpt>
      <trkpt lat="44.54498" lon="4.22773">
        <ele>604</ele>
        <time>2018-06-03T07:12:57.000Z</time>
      </trkpt>
      <trkpt lat="44.54498" lon="4.22776">
        <ele>604</ele>
        <time>2018-06-03T07:12:58.000Z</time>
      </trkpt>
      <trkpt lat="44.54498" lon="4.22779">
        <ele>603</ele>
        <time>2018-06-03T07:12:59.000Z</time>
      </trkpt>
      <trkpt lat="44.54499" lon="4.22781">
        <ele>603</ele>
        <time>2018-06-03T07:13:00.000Z</time>
      </trkpt>
      <trkpt lat="44.54499" lon="4.22784">
        <ele>603</ele>
        <time>2018-06-03T07:13:01.000Z</time>
      </trkpt>
      <trkpt lat="44.54499" lon="4.22787">
        <ele>603</ele>
        <time>2018-06-03T07:13:02.000Z</time>
      </trkpt>
      <trkpt lat="44.54499" lon="4.2279">
        <ele>603</ele>
        <time>2018-06-03T07:13:03.000Z</time>
      </trkpt>
      <trkpt lat="44.545" lon="4.22793">
        <ele>603</ele>
        <time>2018-06-03T07:13:04.000Z</time>
      </trkpt>
      <trkpt lat="44.545" lon="4.22796">
        <ele>621</ele>
        <time>2018-06-03T07:13:05.000Z</time>
      </trkpt>
      <trkpt lat="44.54501" lon="4.22799">
        <ele>621</ele>
        <time>2018-06-03T07:13:06.000Z</time>
      </trkpt>
      <trkpt lat="44.54501" lon="4.22802">
        <ele>621</ele>
        <time>2018-06-03T07:13:07.000Z</time>
      </trkpt>
      <trkpt lat="44.54501" lon="4.22806">
        <ele>620</ele>
        <time>2018-06-03T07:13:08.000Z</time>
      </trkpt>
      <trkpt lat="44.54502" lon="4.2281">
        <ele>620</ele>
        <time>2018-06-03T07:13:09.000Z</time>
      </trkpt>
      <trkpt lat="44.54502" lon="4.22813">
        <ele>619</ele>
        <time>2018-06-03T07:13:10.000Z</time>
      </trkpt>
      <trkpt lat="44.54502" lon="4.22817">
        <ele>618</ele>
        <time>2018-06-03T07:13:11.000Z</time>
      </trkpt>
      <trkpt lat="44.54503" lon="4.22821">
        <ele>617</ele>
        <time>2018-06-03T07:13:12.000Z</time>
      </trkpt>
      <trkpt lat="44.54503" lon="4.22824">
        <ele>616</ele>
        <time>2018-06-03T07:13:13.000Z</time>
      </trkpt>
      <trkpt lat="44.54503" lon="4.22828">
        <ele>614</ele>
        <time>2018-06-03T07:13:14.000Z</time>
      </trkpt>
      <trkpt lat="44.54504" lon="4.22832">
        <ele>613</ele>
        <time>2018-06-03T07:13:15.000Z</time>
      </trkpt>
      <trkpt lat="44.54505" lon="4.22836">
        <ele>614</ele>
        <time>2018-06-03T07:13:16.000Z</time>
      </trkpt>
      <trkpt lat="44.54506" lon="4.22839">
        <ele>615</ele>
        <time>2018-06-03T07:13:17.000Z</time>
      </trkpt>
      <trkpt lat="44.54507" lon="4.22843">
        <ele>616</ele>
        <time>2018-06-03T07:13:18.000Z</time>
      </trkpt>
      <trkpt lat="44.54508" lon="4.22846">
        <ele>617</ele>
        <time>2018-06-03T07:13:19.000Z</time>
      </trkpt>
      <trkpt lat="44.54509" lon="4.22848">
        <ele>617</ele>
        <time>2018-06-03T07:13:20.000Z</time>
      </trkpt>
      <trkpt lat="44.5451" lon="4.2285">
        <ele>618</ele>
        <time>2018-06-03T07:13:21.000Z</time>
      </trkpt>
      <trkpt lat="44.54511" lon="4.22851">
        <ele>618</ele>
        <time>2018-06-03T07:13:22.000Z</time>
      </trkpt>
      <trkpt lat="44.54513" lon="4.22853">
        <ele>619</ele>
        <time>2018-06-03T07:13:23.000Z</time>
      </trkpt>
      <trkpt lat="44.54514" lon="4.22855">
        <ele>619</ele>
        <time>2018-06-03T07:13:24.000Z</time>
      </trkpt>
      <trkpt lat="44.54515" lon="4.22857">
        <ele>619</ele>
        <time>2018-06-03T07:13:25.000Z</time>
      </trkpt>
      <trkpt lat="44.54516" lon="4.22858">
        <ele>620</ele>
        <time>2018-06-03T07:13:26.000Z</time>
      </trkpt>
      <trkpt lat="44.54517" lon="4.2286">
        <ele>620</ele>
        <time>2018-06-03T07:13:27.000Z</time>
      </trkpt>
      <trkpt lat="44.54517" lon="4.22862">
        <ele>620</ele>
        <time>2018-06-03T07:13:28.000Z</time>
      </trkpt>
      <trkpt lat="44.54518" lon="4.22865">
        <ele>620</ele>
        <time>2018-06-03T07:13:29.000Z</time>
      </trkpt>
      <trkpt lat="44.54518" lon="4.22868">
        <ele>620</ele>
        <time>2018-06-03T07:13:30.000Z</time>
      </trkpt>
      <trkpt lat="44.54518" lon="4.22872">
        <ele>620</ele>
        <time>2018-06-03T07:13:31.000Z</time>
      </trkpt>
      <trkpt lat="44.54518" lon="4.22876">
        <ele>620</ele>
        <time>2018-06-03T07:13:32.000Z</time>
      </trkpt>
      <trkpt lat="44.54518" lon="4.22881">
        <ele>620</ele>
        <time>2018-06-03T07:13:33.000Z</time>
      </trkpt>
      <trkpt lat="44.54517" lon="4.22885">
        <ele>620</ele>
        <time>2018-06-03T07:13:34.000Z</time>
      </trkpt>
      <trkpt lat="44.54517" lon="4.22889">
        <ele>620</ele>
        <time>2018-06-03T07:13:35.000Z</time>
      </trkpt>
      <trkpt lat="44.54516" lon="4.22894">
        <ele>619</ele>
        <time>2018-06-03T07:13:36.000Z</time>
      </trkpt>
      <trkpt lat="44.54515" lon="4.22898">
        <ele>618</ele>
        <time>2018-06-03T07:13:37.000Z</time>
      </trkpt>
      <trkpt lat="44.54513" lon="4.22902">
        <ele>618</ele>
        <time>2018-06-03T07:13:38.000Z</time>
      </trkpt>
      <trkpt lat="44.54512" lon="4.22906">
        <ele>617</ele>
        <time>2018-06-03T07:13:39.000Z</time>
      </trkpt>
      <trkpt lat="44.54511" lon="4.22911">
        <ele>616</ele>
        <time>2018-06-03T07:13:40.000Z</time>
      </trkpt>
      <trkpt lat="44.54509" lon="4.22915">
        <ele>615</ele>
        <time>2018-06-03T07:13:41.000Z</time>
      </trkpt>
      <trkpt lat="44.54508" lon="4.2292">
        <ele>613</ele>
        <time>2018-06-03T07:13:42.000Z</time>
      </trkpt>
      <trkpt lat="44.54506" lon="4.22924">
        <ele>613</ele>
        <time>2018-06-03T07:13:43.000Z</time>
      </trkpt>
      <trkpt lat="44.54505" lon="4.22929">
        <ele>613</ele>
        <time>2018-06-03T07:13:44.000Z</time>
      </trkpt>
      <trkpt lat="44.54504" lon="4.22933">
        <ele>613</ele>
        <time>2018-06-03T07:13:45.000Z</time>
      </trkpt>
      <trkpt lat="44.54503" lon="4.22938">
        <ele>613</ele>
        <time>2018-06-03T07:13:46.000Z</time>
      </trkpt>
      <trkpt lat="44.54502" lon="4.22942">
        <ele>614</ele>
        <time>2018-06-03T07:13:47.000Z</time>
      </trkpt>
      <trkpt lat="44.545" lon="4.22945">
        <ele>614</ele>
        <time>2018-06-03T07:13:48.000Z</time>
      </trkpt>
      <trkpt lat="44.545" lon="4.22948">
        <ele>614</ele>
        <time>2018-06-03T07:13:49.000Z</time>
      </trkpt>
      <trkpt lat="44.545" lon="4.22951">
        <ele>602</ele>
        <time>2018-06-03T07:13:50.000Z</time>
      </trkpt>
      <trkpt lat="44.545" lon="4.22953">
        <ele>602</ele>
        <time>2018-06-03T07:13:51.000Z</time>
      </trkpt>
      <trkpt lat="44.545" lon="4.22957">
        <ele>613</ele>
        <time>2018-06-03T07:13:52.000Z</time>
      </trkpt>
      <trkpt lat="44.54501" lon="4.22962">
        <ele>613</ele>
        <time>2018-06-03T07:13:53.000Z</time>
      </trkpt>
      <trkpt lat="44.54502" lon="4.22967">
        <ele>613</ele>
        <time>2018-06-03T07:13:54.000Z</time>
      </trkpt>
      <trkpt lat="44.54503" lon="4.22973">
        <ele>613</ele>
        <time>2018-06-03T07:13:55.000Z</time>
      </trkpt>
      <trkpt lat="44.54504" lon="4.22977">
        <ele>612</ele>
        <time>2018-06-03T07:13:56.000Z</time>
      </trkpt>
      <trkpt lat="44.54505" lon="4.22982">
        <ele>612</ele>
        <time>2018-06-03T07:13:57.000Z</time>
      </trkpt>
      <trkpt lat="44.54506" lon="4.22987">
        <ele>611</ele>
        <time>2018-06-03T07:13:58.000Z</time>
      </trkpt>
      <trkpt lat="44.54508" lon="4.22992">
        <ele>611</ele>
        <time>2018-06-03T07:13:59.000Z</time>
      </trkpt>
      <trkpt lat="44.54511" lon="4.22996">
        <ele>611</ele>
        <time>2018-06-03T07:14:00.000Z</time>
      </trkpt>
      <trkpt lat="44.54513" lon="4.22999">
        <ele>611</ele>
        <time>2018-06-03T07:14:01.000Z</time>
      </trkpt>
      <trkpt lat="44.54515" lon="4.23001">
        <ele>605</ele>
        <time>2018-06-03T07:14:02.000Z</time>
      </trkpt>
      <trkpt lat="44.54517" lon="4.23003">
        <ele>605</ele>
        <time>2018-06-03T07:14:03.000Z</time>
      </trkpt>
      <trkpt lat="44.54519" lon="4.23003">
        <ele>605</ele>
        <time>2018-06-03T07:14:04.000Z</time>
      </trkpt>
      <trkpt lat="44.54521" lon="4.23004">
        <ele>605</ele>
        <time>2018-06-03T07:14:05.000Z</time>
      </trkpt>
      <trkpt lat="44.54523" lon="4.23005">
        <ele>605</ele>
        <time>2018-06-03T07:14:06.000Z</time>
      </trkpt>
      <trkpt lat="44.54524" lon="4.23006">
        <ele>605</ele>
        <time>2018-06-03T07:14:07.000Z</time>
      </trkpt>
      <trkpt lat="44.54525" lon="4.23006">
        <ele>605</ele>
        <time>2018-06-03T07:14:08.000Z</time>
      </trkpt>
      <trkpt lat="44.54525" lon="4.23007">
        <ele>605</ele>
        <time>2018-06-03T07:14:09.000Z</time>
      </trkpt>
      <trkpt lat="44.54525" lon="4.23007">
        <ele>605</ele>
        <time>2018-06-03T07:14:10.000Z</time>
      </trkpt>
      <trkpt lat="44.54525" lon="4.23008">
        <ele>605</ele>
        <time>2018-06-03T07:14:11.000Z</time>
      </trkpt>
      <trkpt lat="44.54525" lon="4.23009">
        <ele>604</ele>
        <time>2018-06-03T07:14:12.000Z</time>
      </trkpt>
      <trkpt lat="44.54525" lon="4.23009">
        <ele>604</ele>
        <time>2018-06-03T07:14:13.000Z</time>
      </trkpt>
      <trkpt lat="44.54525" lon="4.2301">
        <ele>604</ele>
        <time>2018-06-03T07:14:14.000Z</time>
      </trkpt>
      <trkpt lat="44.54525" lon="4.2301">
        <ele>604</ele>
        <time>2018-06-03T07:14:15.000Z</time>
      </trkpt>
      <trkpt lat="44.54525" lon="4.23011">
        <ele>604</ele>
        <time>2018-06-03T07:14:16.000Z</time>
      </trkpt>
      <trkpt lat="44.54525" lon="4.23011">
        <ele>604</ele>
        <time>2018-06-03T07:14:17.000Z</time>
      </trkpt>
      <trkpt lat="44.54526" lon="4.23012">
        <ele>604</ele>
        <time>2018-06-03T07:14:18.000Z</time>
      </trkpt>
      <trkpt lat="44.54526" lon="4.23012">
        <ele>604</ele>
        <time>2018-06-03T07:14:19.000Z</time>
      </trkpt>
      <trkpt lat="44.54526" lon="4.23013">
        <ele>604</ele>
        <time>2018-06-03T07:14:20.000Z</time>
      </trkpt>
      <trkpt lat="44.54526" lon="4.23013">
        <ele>604</ele>
        <time>2018-06-03T07:14:21.000Z</time>
      </trkpt>
      <trkpt lat="44.54526" lon="4.23013">
        <ele>604</ele>
        <time>2018-06-03T07:14:22.000Z</time>
      </trkpt>
      <trkpt lat="44.54526" lon="4.23014">
        <ele>604</ele>
        <time>2018-06-03T07:14:23.000Z</time>
      </trkpt>
      <trkpt lat="44.54526" lon="4.23014">
        <ele>604</ele>
        <time>2018-06-03T07:14:24.000Z</time>
      </trkpt>
      <trkpt lat="44.54526" lon="4.23014">
        <ele>604</ele>
        <time>2018-06-03T07:14:25.000Z</time>
      </trkpt>
      <trkpt lat="44.54526" lon="4.23015">
        <ele>604</ele>
        <time>2018-06-03T07:14:26.000Z</time>
      </trkpt>
      <trkpt lat="44.54526" lon="4.23015">
        <ele>604</ele>
        <time>2018-06-03T07:14:27.000Z</time>
      </trkpt>
      <trkpt lat="44.54526" lon="4.23015">
        <ele>604</ele>
        <time>2018-06-03T07:14:28.000Z</time>
      </trkpt>
      <trkpt lat="44.54526" lon="4.23015">
        <ele>604</ele>
        <time>2018-06-03T07:14:29.000Z</time>
      </trkpt>
      <trkpt lat="44.54526" lon="4.23016">
        <ele>604</ele>
        <time>2018-06-03T07:14:30.000Z</time>
      </trkpt>
      <trkpt lat="44.54526" lon="4.23016">
        <ele>604</ele>
        <time>2018-06-03T07:14:31.000Z</time>
      </trkpt>
      <trkpt lat="44.54526" lon="4.23016">
        <ele>604</ele>
        <time>2018-06-03T07:14:32.000Z</time>
      </trkpt>
      <trkpt lat="44.54526" lon="4.23017">
        <ele>604</ele>
        <time>2018-06-03T07:14:33.000Z</time>
      </trkpt>
      <trkpt lat="44.54526" lon="4.23017">
        <ele>604</ele>
        <time>2018-06-03T07:14:34.000Z</time>
      </trkpt>
      <trkpt lat="44.54526" lon="4.23017">
        <ele>604</ele>
        <time>2018-06-03T07:14:35.000Z</time>
      </trkpt>
      <trkpt lat="44.54526" lon="4.23018">
        <ele>604</ele>
        <time>2018-06-03T07:14:36.000Z</time>
      </trkpt>
      <trkpt lat="44.54526" lon="4.23018">
        <ele>604</ele>
        <time>2018-06-03T07:14:37.000Z</time>
      </trkpt>
      <trkpt lat="44.54527" lon="4.23018">
        <ele>604</ele>
        <time>2018-06-03T07:14:38.000Z</time>
      </trkpt>
      <trkpt lat="44.54527" lon="4.23019">
        <ele>604</ele>
        <time>2018-06-03T07:14:39.000Z</time>
      </trkpt>
      <trkpt lat="44.54527" lon="4.23019">
        <ele>604</ele>
        <time>2018-06-03T07:14:40.000Z</time>
      </trkpt>
      <trkpt lat="44.54527" lon="4.23019">
        <ele>604</ele>
        <time>2018-06-03T07:14:41.000Z</time>
      </trkpt>
      <trkpt lat="44.54527" lon="4.23019">
        <ele>604</ele>
        <time>2018-06-03T07:14:42.000Z</time>
      </trkpt>
      <trkpt lat="44.54527" lon="4.2302">
        <ele>604</ele>
        <time>2018-06-03T07:14:43.000Z</time>
      </trkpt>
      <trkpt lat="44.54527" lon="4.2302">
        <ele>604</ele>
        <time>2018-06-03T07:14:44.000Z</time>
      </trkpt>
      <trkpt lat="44.54527" lon="4.2302">
        <ele>604</ele>
        <time>2018-06-03T07:14:45.000Z</time>
      </trkpt>
      <trkpt lat="44.54527" lon="4.23021">
        <ele>603</ele>
        <time>2018-06-03T07:14:46.000Z</time>
      </trkpt>
      <trkpt lat="44.54527" lon="4.23021">
        <ele>603</ele>
        <time>2018-06-03T07:14:47.000Z</time>
      </trkpt>
      <trkpt lat="44.54527" lon="4.23021">
        <ele>603</ele>
        <time>2018-06-03T07:14:48.000Z</time>
      </trkpt>
      <trkpt lat="44.54527" lon="4.23021">
        <ele>603</ele>
        <time>2018-06-03T07:14:49.000Z</time>
      </trkpt>
      <trkpt lat="44.54527" lon="4.23022">
        <ele>603</ele>
        <time>2018-06-03T07:14:50.000Z</time>
      </trkpt>
      <trkpt lat="44.54527" lon="4.23022">
        <ele>603</ele>
        <time>2018-06-03T07:14:51.000Z</time>
      </trkpt>
      <trkpt lat="44.54527" lon="4.23022">
        <ele>603</ele>
        <time>2018-06-03T07:14:52.000Z</time>
      </trkpt>
      <trkpt lat="44.54527" lon="4.23023">
        <ele>603</ele>
        <time>2018-06-03T07:14:53.000Z</time>
      </trkpt>
      <trkpt lat="44.54527" lon="4.23023">
        <ele>603</ele>
        <time>2018-06-03T07:14:54.000Z</time>
      </trkpt>
      <trkpt lat="44.54527" lon="4.23023">
        <ele>603</ele>
        <time>2018-06-03T07:14:55.000Z</time>
      </trkpt>
      <trkpt lat="44.54526" lon="4.23023">
        <ele>603</ele>
        <time>2018-06-03T07:14:56.000Z</time>
      </trkpt>
      <trkpt lat="44.54526" lon="4.23024">
        <ele>603</ele>
        <time>2018-06-03T07:14:57.000Z</time>
      </trkpt>
      <trkpt lat="44.54526" lon="4.23024">
        <ele>603</ele>
        <time>2018-06-03T07:14:58.000Z</time>
      </trkpt>
      <trkpt lat="44.54526" lon="4.23024">
        <ele>603</ele>
        <time>2018-06-03T07:14:59.000Z</time>
      </trkpt>
      <trkpt lat="44.54526" lon="4.23024">
        <ele>603</ele>
        <time>2018-06-03T07:15:00.000Z</time>
      </trkpt>
      <trkpt lat="44.54526" lon="4.23024">
        <ele>603</ele>
        <time>2018-06-03T07:15:01.000Z</time>
      </trkpt>
      <trkpt lat="44.54526" lon="4.23025">
        <ele>603</ele>
        <time>2018-06-03T07:15:02.000Z</time>
      </trkpt>
      <trkpt lat="44.54526" lon="4.23025">
        <ele>603</ele>
        <time>2018-06-03T07:15:03.000Z</time>
      </trkpt>
      <trkpt lat="44.54526" lon="4.23025">
        <ele>603</ele>
        <time>2018-06-03T07:15:04.000Z</time>
      </trkpt>
      <trkpt lat="44.54526" lon="4.23025">
        <ele>603</ele>
        <time>2018-06-03T07:15:05.000Z</time>
      </trkpt>
      <trkpt lat="44.54526" lon="4.23025">
        <ele>603</ele>
        <time>2018-06-03T07:15:06.000Z</time>
      </trkpt>
      <trkpt lat="44.54526" lon="4.23025">
        <ele>603</ele>
        <time>2018-06-03T07:15:07.000Z</time>
      </trkpt>
      <trkpt lat="44.54526" lon="4.23025">
        <ele>603</ele>
        <time>2018-06-03T07:15:08.000Z</time>
      </trkpt>
      <trkpt lat="44.54526" lon="4.23025">
        <ele>603</ele>
        <time>2018-06-03T07:15:09.000Z</time>
      </trkpt>
      <trkpt lat="44.54525" lon="4.23025">
        <ele>603</ele>
        <time>2018-06-03T07:15:10.000Z</time>
      </trkpt>
      <trkpt lat="44.54525" lon="4.23025">
        <ele>603</ele>
        <time>2018-06-03T07:15:11.000Z</time>
      </trkpt>
      <trkpt lat="44.54525" lon="4.23025">
        <ele>603</ele>
        <time>2018-06-03T07:15:12.000Z</time>
      </trkpt>
      <trkpt lat="44.54525" lon="4.23025">
        <ele>603</ele>
        <time>2018-06-03T07:15:13.000Z</time>
      </trkpt>
      <trkpt lat="44.54525" lon="4.23025">
        <ele>603</ele>
        <time>2018-06-03T07:15:14.000Z</time>
      </trkpt>
      <trkpt lat="44.54525" lon="4.23025">
        <ele>603</ele>
        <time>2018-06-03T07:15:15.000Z</time>
      </trkpt>
      <trkpt lat="44.54525" lon="4.23025">
        <ele>603</ele>
        <time>2018-06-03T07:15:16.000Z</time>
      </trkpt>
      <trkpt lat="44.54525" lon="4.23025">
        <ele>603</ele>
        <time>2018-06-03T07:15:17.000Z</time>
      </trkpt>
      <trkpt lat="44.54525" lon="4.23025">
        <ele>603</ele>
        <time>2018-06-03T07:15:18.000Z</time>
      </trkpt>
      <trkpt lat="44.54525" lon="4.23025">
        <ele>603</ele>
        <time>2018-06-03T07:15:19.000Z</time>
      </trkpt>
      <trkpt lat="44.54525" lon="4.23025">
        <ele>603</ele>
        <time>2018-06-03T07:15:20.000Z</time>
      </trkpt>
      <trkpt lat="44.54525" lon="4.23025">
        <ele>603</ele>
        <time>2018-06-03T07:15:21.000Z</time>
      </trkpt>
      <trkpt lat="44.54525" lon="4.23025">
        <ele>603</ele>
        <time>2018-06-03T07:15:22.000Z</time>
      </trkpt>
      <trkpt lat="44.54525" lon="4.23025">
        <ele>603</ele>
        <time>2018-06-03T07:15:23.000Z</time>
      </trkpt>
      <trkpt lat="44.54525" lon="4.23025">
        <ele>603</ele>
        <time>2018-06-03T07:15:24.000Z</time>
      </trkpt>
      <trkpt lat="44.54525" lon="4.23025">
        <ele>603</ele>
        <time>2018-06-03T07:15:25.000Z</time>
      </trkpt>
      <trkpt lat="44.54525" lon="4.23026">
        <ele>603</ele>
        <time>2018-06-03T07:15:26.000Z</time>
      </trkpt>
      <trkpt lat="44.54525" lon="4.23026">
        <ele>603</ele>
        <time>2018-06-03T07:15:27.000Z</time>
      </trkpt>
      <trkpt lat="44.54525" lon="4.23026">
        <ele>603</ele>
        <time>2018-06-03T07:15:28.000Z</time>
      </trkpt>
      <trkpt lat="44.54525" lon="4.23026">
        <ele>603</ele>
        <time>2018-06-03T07:15:29.000Z</time>
      </trkpt>
      <trkpt lat="44.54525" lon="4.23026">
        <ele>603</ele>
        <time>2018-06-03T07:15:30.000Z</time>
      </trkpt>
      <trkpt lat="44.54525" lon="4.23026">
        <ele>603</ele>
        <time>2018-06-03T07:15:31.000Z</time>
      </trkpt>
      <trkpt lat="44.54525" lon="4.23026">
        <ele>603</ele>
        <time>2018-06-03T07:15:32.000Z</time>
      </trkpt>
      <trkpt lat="44.54524" lon="4.23026">
        <ele>603</ele>
        <time>2018-06-03T07:15:33.000Z</time>
      </trkpt>
      <trkpt lat="44.54524" lon="4.23026">
        <ele>603</ele>
        <time>2018-06-03T07:15:34.000Z</time>
      </trkpt>
      <trkpt lat="44.54524" lon="4.23026">
        <ele>603</ele>
        <time>2018-06-03T07:15:35.000Z</time>
      </trkpt>
      <trkpt lat="44.54524" lon="4.23026">
        <ele>603</ele>
        <time>2018-06-03T07:15:36.000Z</time>
      </trkpt>
      <trkpt lat="44.54524" lon="4.23026">
        <ele>603</ele>
        <time>2018-06-03T07:15:37.000Z</time>
      </trkpt>
      <trkpt lat="44.54524" lon="4.23026">
        <ele>603</ele>
        <time>2018-06-03T07:15:38.000Z</time>
      </trkpt>
      <trkpt lat="44.54524" lon="4.23026">
        <ele>603</ele>
        <time>2018-06-03T07:15:39.000Z</time>
      </trkpt>
      <trkpt lat="44.54524" lon="4.23027">
        <ele>603</ele>
        <time>2018-06-03T07:15:40.000Z</time>
      </trkpt>
      <trkpt lat="44.54524" lon="4.23027">
        <ele>603</ele>
        <time>2018-06-03T07:15:41.000Z</time>
      </trkpt>
      <trkpt lat="44.54524" lon="4.23027">
        <ele>603</ele>
        <time>2018-06-03T07:15:42.000Z</time>
      </trkpt>
      <trkpt lat="44.54524" lon="4.23027">
        <ele>603</ele>
        <time>2018-06-03T07:15:43.000Z</time>
      </trkpt>
      <trkpt lat="44.54524" lon="4.23027">
        <ele>603</ele>
        <time>2018-06-03T07:15:44.000Z</time>
      </trkpt>
      <trkpt lat="44.54524" lon="4.23027">
        <ele>603</ele>
        <time>2018-06-03T07:15:45.000Z</time>
      </trkpt>
      <trkpt lat="44.54524" lon="4.23027">
        <ele>603</ele>
        <time>2018-06-03T07:15:46.000Z</time>
      </trkpt>
      <trkpt lat="44.54524" lon="4.23027">
        <ele>603</ele>
        <time>2018-06-03T07:15:47.000Z</time>
      </trkpt>
      <trkpt lat="44.54524" lon="4.23027">
        <ele>603</ele>
        <time>2018-06-03T07:15:48.000Z</time>
      </trkpt>
      <trkpt lat="44.54524" lon="4.23027">
        <ele>603</ele>
        <time>2018-06-03T07:15:49.000Z</time>
      </trkpt>
      <trkpt lat="44.54523" lon="4.23027">
        <ele>603</ele>
        <time>2018-06-03T07:15:50.000Z</time>
      </trkpt>
      <trkpt lat="44.54523" lon="4.23027">
        <ele>603</ele>
        <time>2018-06-03T07:15:51.000Z</time>
      </trkpt>
      <trkpt lat="44.54523" lon="4.23027">
        <ele>603</ele>
        <time>2018-06-03T07:15:52.000Z</time>
      </trkpt>
      <trkpt lat="44.54523" lon="4.23027">
        <ele>603</ele>
        <time>2018-06-03T07:15:53.000Z</time>
      </trkpt>
      <trkpt lat="44.54523" lon="4.23027">
        <ele>603</ele>
        <time>2018-06-03T07:15:54.000Z</time>
      </trkpt>
      <trkpt lat="44.54523" lon="4.23027">
        <ele>603</ele>
        <time>2018-06-03T07:15:55.000Z</time>
      </trkpt>
      <trkpt lat="44.54523" lon="4.23027">
        <ele>603</ele>
        <time>2018-06-03T07:15:56.000Z</time>
      </trkpt>
      <trkpt lat="44.54523" lon="4.23026">
        <ele>603</ele>
        <time>2018-06-03T07:15:57.000Z</time>
      </trkpt>
      <trkpt lat="44.54523" lon="4.23026">
        <ele>603</ele>
        <time>2018-06-03T07:15:58.000Z</time>
      </trkpt>
      <trkpt lat="44.54523" lon="4.23026">
        <ele>603</ele>
        <time>2018-06-03T07:15:59.000Z</time>
      </trkpt>
      <trkpt lat="44.54523" lon="4.23026">
        <ele>603</ele>
        <time>2018-06-03T07:16:00.000Z</time>
      </trkpt>
      <trkpt lat="44.54523" lon="4.23026">
        <ele>603</ele>
        <time>2018-06-03T07:16:01.000Z</time>
      </trkpt>
      <trkpt lat="44.54523" lon="4.23026">
        <ele>603</ele>
        <time>2018-06-03T07:16:02.000Z</time>
      </trkpt>
      <trkpt lat="44.54523" lon="4.23026">
        <ele>603</ele>
        <time>2018-06-03T07:16:03.000Z</time>
      </trkpt>
      <trkpt lat="44.54523" lon="4.23026">
        <ele>603</ele>
        <time>2018-06-03T07:16:04.000Z</time>
      </trkpt>
      <trkpt lat="44.54523" lon="4.23026">
        <ele>603</ele>
        <time>2018-06-03T07:16:05.000Z</time>
      </trkpt>
      <trkpt lat="44.54523" lon="4.23025">
        <ele>603</ele>
        <time>2018-06-03T07:16:06.000Z</time>
      </trkpt>
      <trkpt lat="44.54523" lon="4.23025">
        <ele>603</ele>
        <time>2018-06-03T07:16:07.000Z</time>
      </trkpt>
      <trkpt lat="44.54523" lon="4.23025">
        <ele>603</ele>
        <time>2018-06-03T07:16:08.000Z</time>
      </trkpt>
      <trkpt lat="44.54523" lon="4.23025">
        <ele>603</ele>
        <time>2018-06-03T07:16:09.000Z</time>
      </trkpt>
      <trkpt lat="44.54523" lon="4.23025">
        <ele>603</ele>
        <time>2018-06-03T07:16:10.000Z</time>
      </trkpt>
      <trkpt lat="44.54523" lon="4.23025">
        <ele>603</ele>
        <time>2018-06-03T07:16:11.000Z</time>
      </trkpt>
      <trkpt lat="44.54523" lon="4.23024">
        <ele>603</ele>
        <time>2018-06-03T07:16:12.000Z</time>
      </trkpt>
      <trkpt lat="44.54523" lon="4.23024">
        <ele>603</ele>
        <time>2018-06-03T07:16:13.000Z</time>
      </trkpt>
      <trkpt lat="44.54523" lon="4.23024">
        <ele>603</ele>
        <time>2018-06-03T07:16:14.000Z</time>
      </trkpt>
      <trkpt lat="44.54523" lon="4.23024">
        <ele>603</ele>
        <time>2018-06-03T07:16:15.000Z</time>
      </trkpt>
      <trkpt lat="44.54523" lon="4.23024">
        <ele>603</ele>
        <time>2018-06-03T07:16:16.000Z</time>
      </trkpt>
      <trkpt lat="44.54522" lon="4.23023">
        <ele>603</ele>
        <time>2018-06-03T07:16:17.000Z</time>
      </trkpt>
      <trkpt lat="44.54522" lon="4.23023">
        <ele>603</ele>
        <time>2018-06-03T07:16:18.000Z</time>
      </trkpt>
      <trkpt lat="44.54522" lon="4.23023">
        <ele>603</ele>
        <time>2018-06-03T07:16:19.000Z</time>
      </trkpt>
      <trkpt lat="44.54522" lon="4.23023">
        <ele>603</ele>
        <time>2018-06-03T07:16:20.000Z</time>
      </trkpt>
      <trkpt lat="44.54522" lon="4.23023">
        <ele>603</ele>
        <time>2018-06-03T07:16:21.000Z</time>
      </trkpt>
      <trkpt lat="44.54522" lon="4.23022">
        <ele>603</ele>
        <time>2018-06-03T07:16:22.000Z</time>
      </trkpt>
      <trkpt lat="44.54522" lon="4.23022">
        <ele>603</ele>
        <time>2018-06-03T07:16:23.000Z</time>
      </trkpt>
      <trkpt lat="44.54522" lon="4.23022">
        <ele>603</ele>
        <time>2018-06-03T07:16:24.000Z</time>
      </trkpt>
      <trkpt lat="44.54522" lon="4.23022">
        <ele>603</ele>
        <time>2018-06-03T07:16:25.000Z</time>
      </trkpt>
      <trkpt lat="44.54522" lon="4.23022">
        <ele>603</ele>
        <time>2018-06-03T07:16:26.000Z</time>
      </trkpt>
      <trkpt lat="44.54522" lon="4.23021">
        <ele>603</ele>
        <time>2018-06-03T07:16:27.000Z</time>
      </trkpt>
      <trkpt lat="44.54521" lon="4.23021">
        <ele>603</ele>
        <time>2018-06-03T07:16:28.000Z</time>
      </trkpt>
      <trkpt lat="44.54521" lon="4.23021">
        <ele>604</ele>
        <time>2018-06-03T07:16:29.000Z</time>
      </trkpt>
      <trkpt lat="44.54521" lon="4.23021">
        <ele>604</ele>
        <time>2018-06-03T07:16:30.000Z</time>
      </trkpt>
      <trkpt lat="44.54521" lon="4.23021">
        <ele>604</ele>
        <time>2018-06-03T07:16:31.000Z</time>
      </trkpt>
      <trkpt lat="44.54521" lon="4.23021">
        <ele>604</ele>
        <time>2018-06-03T07:16:32.000Z</time>
      </trkpt>
      <trkpt lat="44.54521" lon="4.23021">
        <ele>604</ele>
        <time>2018-06-03T07:16:33.000Z</time>
      </trkpt>
      <trkpt lat="44.54521" lon="4.2302">
        <ele>604</ele>
        <time>2018-06-03T07:16:34.000Z</time>
      </trkpt>
      <trkpt lat="44.54521" lon="4.2302">
        <ele>604</ele>
        <time>2018-06-03T07:16:35.000Z</time>
      </trkpt>
      <trkpt lat="44.54521" lon="4.2302">
        <ele>604</ele>
        <time>2018-06-03T07:16:36.000Z</time>
      </trkpt>
      <trkpt lat="44.54521" lon="4.2302">
        <ele>604</ele>
        <time>2018-06-03T07:16:37.000Z</time>
      </trkpt>
      <trkpt lat="44.54521" lon="4.2302">
        <ele>604</ele>
        <time>2018-06-03T07:16:38.000Z</time>
      </trkpt>
      <trkpt lat="44.54521" lon="4.2302">
        <ele>604</ele>
        <time>2018-06-03T07:16:39.000Z</time>
      </trkpt>
      <trkpt lat="44.54521" lon="4.2302">
        <ele>604</ele>
        <time>2018-06-03T07:16:40.000Z</time>
      </trkpt>
      <trkpt lat="44.54521" lon="4.2302">
        <ele>604</ele>
        <time>2018-06-03T07:16:41.000Z</time>
      </trkpt>
      <trkpt lat="44.54521" lon="4.23019">
        <ele>604</ele>
        <time>2018-06-03T07:16:42.000Z</time>
      </trkpt>
      <trkpt lat="44.54521" lon="4.23019">
        <ele>604</ele>
        <time>2018-06-03T07:16:43.000Z</time>
      </trkpt>
      <trkpt lat="44.54521" lon="4.23019">
        <ele>604</ele>
        <time>2018-06-03T07:16:44.000Z</time>
      </trkpt>
      <trkpt lat="44.54521" lon="4.23019">
        <ele>604</ele>
        <time>2018-06-03T07:16:45.000Z</time>
      </trkpt>
      <trkpt lat="44.54521" lon="4.23019">
        <ele>604</ele>
        <time>2018-06-03T07:16:46.000Z</time>
      </trkpt>
      <trkpt lat="44.54521" lon="4.23019">
        <ele>604</ele>
        <time>2018-06-03T07:16:47.000Z</time>
      </trkpt>
      <trkpt lat="44.54521" lon="4.23019">
        <ele>604</ele>
        <time>2018-06-03T07:16:48.000Z</time>
      </trkpt>
      <trkpt lat="44.5452" lon="4.23019">
        <ele>604</ele>
        <time>2018-06-03T07:16:49.000Z</time>
      </trkpt>
      <trkpt lat="44.5452" lon="4.23019">
        <ele>604</ele>
        <time>2018-06-03T07:16:50.000Z</time>
      </trkpt>
      <trkpt lat="44.5452" lon="4.23019">
        <ele>604</ele>
        <time>2018-06-03T07:16:51.000Z</time>
      </trkpt>
      <trkpt lat="44.5452" lon="4.23019">
        <ele>604</ele>
        <time>2018-06-03T07:16:52.000Z</time>
      </trkpt>
      <trkpt lat="44.5452" lon="4.23019">
        <ele>604</ele>
        <time>2018-06-03T07:16:53.000Z</time>
      </trkpt>
      <trkpt lat="44.5452" lon="4.23019">
        <ele>604</ele>
        <time>2018-06-03T07:16:54.000Z</time>
      </trkpt>
      <trkpt lat="44.5452" lon="4.23019">
        <ele>604</ele>
        <time>2018-06-03T07:16:55.000Z</time>
      </trkpt>
      <trkpt lat="44.5452" lon="4.23019">
        <ele>604</ele>
        <time>2018-06-03T07:16:56.000Z</time>
      </trkpt>
      <trkpt lat="44.5452" lon="4.23019">
        <ele>604</ele>
        <time>2018-06-03T07:16:57.000Z</time>
      </trkpt>
      <trkpt lat="44.5452" lon="4.23019">
        <ele>604</ele>
        <time>2018-06-03T07:16:58.000Z</time>
      </trkpt>
      <trkpt lat="44.5452" lon="4.23019">
        <ele>604</ele>
        <time>2018-06-03T07:16:59.000Z</time>
      </trkpt>
      <trkpt lat="44.5452" lon="4.23019">
        <ele>604</ele>
        <time>2018-06-03T07:17:00.000Z</time>
      </trkpt>
      <trkpt lat="44.5452" lon="4.23019">
        <ele>604</ele>
        <time>2018-06-03T07:17:01.000Z</time>
      </trkpt>
      <trkpt lat="44.5452" lon="4.23019">
        <ele>604</ele>
        <time>2018-06-03T07:17:02.000Z</time>
      </trkpt>
      <trkpt lat="44.5452" lon="4.23019">
        <ele>604</ele>
        <time>2018-06-03T07:17:03.000Z</time>
      </trkpt>
      <trkpt lat="44.5452" lon="4.23019">
        <ele>604</ele>
        <time>2018-06-03T07:17:04.000Z</time>
      </trkpt>
      <trkpt lat="44.5452" lon="4.23019">
        <ele>604</ele>
        <time>2018-06-03T07:17:05.000Z</time>
      </trkpt>
      <trkpt lat="44.5452" lon="4.23019">
        <ele>604</ele>
        <time>2018-06-03T07:17:06.000Z</time>
      </trkpt>
      <trkpt lat="44.5452" lon="4.23019">
        <ele>604</ele>
        <time>2018-06-03T07:17:07.000Z</time>
      </trkpt>
      <trkpt lat="44.5452" lon="4.23019">
        <ele>604</ele>
        <time>2018-06-03T07:17:08.000Z</time>
      </trkpt>
      <trkpt lat="44.5452" lon="4.23019">
        <ele>604</ele>
        <time>2018-06-03T07:17:09.000Z</time>
      </trkpt>
      <trkpt lat="44.5452" lon="4.23019">
        <ele>604</ele>
        <time>2018-06-03T07:17:10.000Z</time>
      </trkpt>
      <trkpt lat="44.5452" lon="4.23019">
        <ele>604</ele>
        <time>2018-06-03T07:17:11.000Z</time>
      </trkpt>
      <trkpt lat="44.5452" lon="4.23019">
        <ele>604</ele>
        <time>2018-06-03T07:17:12.000Z</time>
      </trkpt>
      <trkpt lat="44.5452" lon="4.23019">
        <ele>604</ele>
        <time>2018-06-03T07:17:13.000Z</time>
      </trkpt>
      <trkpt lat="44.5452" lon="4.23019">
        <ele>604</ele>
        <time>2018-06-03T07:17:14.000Z</time>
      </trkpt>
      <trkpt lat="44.5452" lon="4.23019">
        <ele>604</ele>
        <time>2018-06-03T07:17:15.000Z</time>
      </trkpt>
      <trkpt lat="44.5452" lon="4.23019">
        <ele>604</ele>
        <time>2018-06-03T07:17:16.000Z</time>
      </trkpt>
      <trkpt lat="44.5452" lon="4.23018">
        <ele>604</ele>
        <time>2018-06-03T07:17:17.000Z</time>
      </trkpt>
      <trkpt lat="44.5452" lon="4.23018">
        <ele>604</ele>
        <time>2018-06-03T07:17:18.000Z</time>
      </trkpt>
      <trkpt lat="44.5452" lon="4.23018">
        <ele>604</ele>
        <time>2018-06-03T07:17:19.000Z</time>
      </trkpt>
      <trkpt lat="44.54519" lon="4.23018">
        <ele>604</ele>
        <time>2018-06-03T07:17:20.000Z</time>
      </trkpt>
      <trkpt lat="44.54519" lon="4.23018">
        <ele>604</ele>
        <time>2018-06-03T07:17:21.000Z</time>
      </trkpt>
      <trkpt lat="44.54519" lon="4.23018">
        <ele>604</ele>
        <time>2018-06-03T07:17:22.000Z</time>
      </trkpt>
      <trkpt lat="44.54519" lon="4.23018">
        <ele>604</ele>
        <time>2018-06-03T07:17:23.000Z</time>
      </trkpt>
      <trkpt lat="44.54519" lon="4.23018">
        <ele>604</ele>
        <time>2018-06-03T07:17:24.000Z</time>
      </trkpt>
      <trkpt lat="44.54519" lon="4.23018">
        <ele>604</ele>
        <time>2018-06-03T07:17:25.000Z</time>
      </trkpt>
      <trkpt lat="44.54519" lon="4.23018">
        <ele>604</ele>
        <time>2018-06-03T07:17:26.000Z</time>
      </trkpt>
      <trkpt lat="44.54519" lon="4.23018">
        <ele>604</ele>
        <time>2018-06-03T07:17:27.000Z</time>
      </trkpt>
      <trkpt lat="44.54519" lon="4.23018">
        <ele>604</ele>
        <time>2018-06-03T07:17:28.000Z</time>
      </trkpt>
      <trkpt lat="44.54519" lon="4.23018">
        <ele>604</ele>
        <time>2018-06-03T07:17:29.000Z</time>
      </trkpt>
      <trkpt lat="44.54519" lon="4.23018">
        <ele>604</ele>
        <time>2018-06-03T07:17:30.000Z</time>
      </trkpt>
      <trkpt lat="44.54519" lon="4.23018">
        <ele>604</ele>
        <time>2018-06-03T07:17:31.000Z</time>
      </trkpt>
      <trkpt lat="44.54519" lon="4.23018">
        <ele>604</ele>
        <time>2018-06-03T07:17:32.000Z</time>
      </trkpt>
      <trkpt lat="44.54519" lon="4.23018">
        <ele>604</ele>
        <time>2018-06-03T07:17:33.000Z</time>
      </trkpt>
      <trkpt lat="44.54518" lon="4.23018">
        <ele>604</ele>
        <time>2018-06-03T07:17:34.000Z</time>
      </trkpt>
      <trkpt lat="44.54518" lon="4.23018">
        <ele>604</ele>
        <time>2018-06-03T07:17:35.000Z</time>
      </trkpt>
      <trkpt lat="44.54518" lon="4.23018">
        <ele>604</ele>
        <time>2018-06-03T07:17:36.000Z</time>
      </trkpt>
      <trkpt lat="44.54518" lon="4.23018">
        <ele>604</ele>
        <time>2018-06-03T07:17:37.000Z</time>
      </trkpt>
      <trkpt lat="44.54518" lon="4.23018">
        <ele>604</ele>
        <time>2018-06-03T07:17:38.000Z</time>
      </trkpt>
      <trkpt lat="44.54518" lon="4.23018">
        <ele>604</ele>
        <time>2018-06-03T07:17:39.000Z</time>
      </trkpt>
      <trkpt lat="44.54518" lon="4.23018">
        <ele>604</ele>
        <time>2018-06-03T07:17:40.000Z</time>
      </trkpt>
      <trkpt lat="44.54518" lon="4.23018">
        <ele>604</ele>
        <time>2018-06-03T07:17:41.000Z</time>
      </trkpt>
      <trkpt lat="44.54518" lon="4.23018">
        <ele>604</ele>
        <time>2018-06-03T07:17:42.000Z</time>
      </trkpt>
      <trkpt lat="44.54518" lon="4.23018">
        <ele>604</ele>
        <time>2018-06-03T07:17:43.000Z</time>
      </trkpt>
      <trkpt lat="44.54518" lon="4.23018">
        <ele>604</ele>
        <time>2018-06-03T07:17:44.000Z</time>
      </trkpt>
      <trkpt lat="44.54518" lon="4.23018">
        <ele>604</ele>
        <time>2018-06-03T07:17:45.000Z</time>
      </trkpt>
      <trkpt lat="44.54517" lon="4.23018">
        <ele>604</ele>
        <time>2018-06-03T07:17:46.000Z</time>
      </trkpt>
      <trkpt lat="44.54517" lon="4.23018">
        <ele>604</ele>
        <time>2018-06-03T07:17:47.000Z</time>
      </trkpt>
      <trkpt lat="44.54517" lon="4.23018">
        <ele>604</ele>
        <time>2018-06-03T07:17:48.000Z</time>
      </trkpt>
      <trkpt lat="44.54517" lon="4.23018">
        <ele>604</ele>
        <time>2018-06-03T07:17:49.000Z</time>
      </trkpt>
      <trkpt lat="44.54517" lon="4.23018">
        <ele>604</ele>
        <time>2018-06-03T07:17:50.000Z</time>
      </trkpt>
      <trkpt lat="44.54517" lon="4.23018">
        <ele>604</ele>
        <time>2018-06-03T07:17:51.000Z</time>
      </trkpt>
      <trkpt lat="44.54517" lon="4.23018">
        <ele>604</ele>
        <time>2018-06-03T07:17:52.000Z</time>
      </trkpt>
      <trkpt lat="44.54517" lon="4.23018">
        <ele>604</ele>
        <time>2018-06-03T07:17:53.000Z</time>
      </trkpt>
      <trkpt lat="44.54517" lon="4.23018">
        <ele>604</ele>
        <time>2018-06-03T07:17:54.000Z</time>
      </trkpt>
      <trkpt lat="44.54517" lon="4.23018">
        <ele>604</ele>
        <time>2018-06-03T07:17:55.000Z</time>
      </trkpt>
      <trkpt lat="44.54517" lon="4.23018">
        <ele>604</ele>
        <time>2018-06-03T07:17:56.000Z</time>
      </trkpt>
      <trkpt lat="44.54516" lon="4.23018">
        <ele>604</ele>
        <time>2018-06-03T07:17:57.000Z</time>
      </trkpt>
      <trkpt lat="44.54516" lon="4.23018">
        <ele>604</ele>
        <time>2018-06-03T07:17:58.000Z</time>
      </trkpt>
      <trkpt lat="44.54516" lon="4.23018">
        <ele>604</ele>
        <time>2018-06-03T07:17:59.000Z</time>
      </trkpt>
      <trkpt lat="44.54516" lon="4.23018">
        <ele>604</ele>
        <time>2018-06-03T07:18:00.000Z</time>
      </trkpt>
      <trkpt lat="44.54516" lon="4.23018">
        <ele>604</ele>
        <time>2018-06-03T07:18:01.000Z</time>
      </trkpt>
      <trkpt lat="44.54516" lon="4.23018">
        <ele>604</ele>
        <time>2018-06-03T07:18:02.000Z</time>
      </trkpt>
      <trkpt lat="44.54516" lon="4.23018">
        <ele>604</ele>
        <time>2018-06-03T07:18:03.000Z</time>
      </trkpt>
      <trkpt lat="44.54516" lon="4.23018">
        <ele>604</ele>
        <time>2018-06-03T07:18:04.000Z</time>
      </trkpt>
      <trkpt lat="44.54516" lon="4.23018">
        <ele>604</ele>
        <time>2018-06-03T07:18:05.000Z</time>
      </trkpt>
      <trkpt lat="44.54516" lon="4.23018">
        <ele>604</ele>
        <time>2018-06-03T07:18:06.000Z</time>
      </trkpt>
      <trkpt lat="44.54516" lon="4.23018">
        <ele>604</ele>
        <time>2018-06-03T07:18:07.000Z</time>
      </trkpt>
      <trkpt lat="44.54516" lon="4.23018">
        <ele>604</ele>
        <time>2018-06-03T07:18:08.000Z</time>
      </trkpt>
      <trkpt lat="44.54516" lon="4.23018">
        <ele>604</ele>
        <time>2018-06-03T07:18:09.000Z</time>
      </trkpt>
      <trkpt lat="44.54516" lon="4.23018">
        <ele>604</ele>
        <time>2018-06-03T07:18:10.000Z</time>
      </trkpt>
      <trkpt lat="44.54516" lon="4.23018">
        <ele>604</ele>
        <time>2018-06-03T07:18:11.000Z</time>
      </trkpt>
      <trkpt lat="44.54516" lon="4.23018">
        <ele>604</ele>
        <time>2018-06-03T07:18:12.000Z</time>
      </trkpt>
      <trkpt lat="44.54516" lon="4.23018">
        <ele>604</ele>
        <time>2018-06-03T07:18:13.000Z</time>
      </trkpt>
      <trkpt lat="44.54515" lon="4.23018">
        <ele>604</ele>
        <time>2018-06-03T07:18:14.000Z</time>
      </trkpt>
      <trkpt lat="44.54515" lon="4.23018">
        <ele>604</ele>
        <time>2018-06-03T07:18:15.000Z</time>
      </trkpt>
      <trkpt lat="44.54515" lon="4.23018">
        <ele>604</ele>
        <time>2018-06-03T07:18:16.000Z</time>
      </trkpt>
      <trkpt lat="44.54515" lon="4.23018">
        <ele>604</ele>
        <time>2018-06-03T07:18:17.000Z</time>
      </trkpt>
      <trkpt lat="44.54515" lon="4.23018">
        <ele>604</ele>
        <time>2018-06-03T07:18:18.000Z</time>
      </trkpt>
      <trkpt lat="44.54515" lon="4.23018">
        <ele>604</ele>
        <time>2018-06-03T07:18:19.000Z</time>
      </trkpt>
      <trkpt lat="44.54515" lon="4.23018">
        <ele>604</ele>
        <time>2018-06-03T07:18:20.000Z</time>
      </trkpt>
      <trkpt lat="44.54515" lon="4.23018">
        <ele>604</ele>
        <time>2018-06-03T07:18:21.000Z</time>
      </trkpt>
      <trkpt lat="44.54515" lon="4.23018">
        <ele>604</ele>
        <time>2018-06-03T07:18:22.000Z</time>
      </trkpt>
      <trkpt lat="44.54515" lon="4.23018">
        <ele>604</ele>
        <time>2018-06-03T07:18:23.000Z</time>
      </trkpt>
      <trkpt lat="44.54515" lon="4.23018">
        <ele>604</ele>
        <time>2018-06-03T07:18:24.000Z</time>
      </trkpt>
      <trkpt lat="44.54514" lon="4.23018">
        <ele>604</ele>
        <time>2018-06-03T07:18:25.000Z</time>
      </trkpt>
      <trkpt lat="44.54514" lon="4.23018">
        <ele>604</ele>
        <time>2018-06-03T07:18:26.000Z</time>
      </trkpt>
      <trkpt lat="44.54514" lon="4.23018">
        <ele>604</ele>
        <time>2018-06-03T07:18:27.000Z</time>
      </trkpt>
      <trkpt lat="44.54514" lon="4.23018">
        <ele>604</ele>
        <time>2018-06-03T07:18:28.000Z</time>
      </trkpt>
      <trkpt lat="44.54514" lon="4.23019">
        <ele>604</ele>
        <time>2018-06-03T07:18:29.000Z</time>
      </trkpt>
      <trkpt lat="44.54514" lon="4.23019">
        <ele>604</ele>
        <time>2018-06-03T07:18:30.000Z</time>
      </trkpt>
      <trkpt lat="44.54514" lon="4.23019">
        <ele>604</ele>
        <time>2018-06-03T07:18:31.000Z</time>
      </trkpt>
      <trkpt lat="44.54514" lon="4.23019">
        <ele>604</ele>
        <time>2018-06-03T07:18:32.000Z</time>
      </trkpt>
      <trkpt lat="44.54514" lon="4.23019">
        <ele>604</ele>
        <time>2018-06-03T07:18:33.000Z</time>
      </trkpt>
      <trkpt lat="44.54514" lon="4.23019">
        <ele>604</ele>
        <time>2018-06-03T07:18:34.000Z</time>
      </trkpt>
      <trkpt lat="44.54514" lon="4.23019">
        <ele>604</ele>
        <time>2018-06-03T07:18:35.000Z</time>
      </trkpt>
      <trkpt lat="44.54514" lon="4.23019">
        <ele>604</ele>
        <time>2018-06-03T07:18:36.000Z</time>
      </trkpt>
      <trkpt lat="44.54514" lon="4.23019">
        <ele>604</ele>
        <time>2018-06-03T07:18:37.000Z</time>
      </trkpt>
      <trkpt lat="44.54514" lon="4.23019">
        <ele>604</ele>
        <time>2018-06-03T07:18:38.000Z</time>
      </trkpt>
      <trkpt lat="44.54514" lon="4.23019">
        <ele>604</ele>
        <time>2018-06-03T07:18:39.000Z</time>
      </trkpt>
      <trkpt lat="44.54514" lon="4.23019">
        <ele>604</ele>
        <time>2018-06-03T07:18:40.000Z</time>
      </trkpt>
      <trkpt lat="44.54514" lon="4.23019">
        <ele>604</ele>
        <time>2018-06-03T07:18:41.000Z</time>
      </trkpt>
      <trkpt lat="44.54514" lon="4.23019">
        <ele>604</ele>
        <time>2018-06-03T07:18:42.000Z</time>
      </trkpt>
      <trkpt lat="44.54514" lon="4.23019">
        <ele>604</ele>
        <time>2018-06-03T07:18:43.000Z</time>
      </trkpt>
      <trkpt lat="44.54514" lon="4.23019">
        <ele>604</ele>
        <time>2018-06-03T07:18:44.000Z</time>
      </trkpt>
      <trkpt lat="44.54514" lon="4.23019">
        <ele>604</ele>
        <time>2018-06-03T07:18:45.000Z</time>
      </trkpt>
      <trkpt lat="44.54514" lon="4.23019">
        <ele>604</ele>
        <time>2018-06-03T07:18:46.000Z</time>
      </trkpt>
      <trkpt lat="44.54515" lon="4.23019">
        <ele>604</ele>
        <time>2018-06-03T07:18:47.000Z</time>
      </trkpt>
      <trkpt lat="44.54515" lon="4.23019">
        <ele>604</ele>
        <time>2018-06-03T07:18:48.000Z</time>
      </trkpt>
      <trkpt lat="44.54515" lon="4.23019">
        <ele>604</ele>
        <time>2018-06-03T07:18:49.000Z</time>
      </trkpt>
      <trkpt lat="44.54515" lon="4.23019">
        <ele>604</ele>
        <time>2018-06-03T07:18:50.000Z</time>
      </trkpt>
      <trkpt lat="44.54516" lon="4.23019">
        <ele>604</ele>
        <time>2018-06-03T07:18:51.000Z</time>
      </trkpt>
      <trkpt lat="44.54516" lon="4.23019">
        <ele>604</ele>
        <time>2018-06-03T07:18:52.000Z</time>
      </trkpt>
      <trkpt lat="44.54516" lon="4.23019">
        <ele>604</ele>
        <time>2018-06-03T07:18:53.000Z</time>
      </trkpt>
      <trkpt lat="44.54516" lon="4.23019">
        <ele>604</ele>
        <time>2018-06-03T07:18:54.000Z</time>
      </trkpt>
      <trkpt lat="44.54517" lon="4.23019">
        <ele>604</ele>
        <time>2018-06-03T07:18:55.000Z</time>
      </trkpt>
      <trkpt lat="44.54517" lon="4.23019">
        <ele>604</ele>
        <time>2018-06-03T07:18:56.000Z</time>
      </trkpt>
      <trkpt lat="44.54517" lon="4.23018">
        <ele>604</ele>
        <time>2018-06-03T07:18:57.000Z</time>
      </trkpt>
      <trkpt lat="44.54518" lon="4.23018">
        <ele>604</ele>
        <time>2018-06-03T07:18:58.000Z</time>
      </trkpt>
      <trkpt lat="44.54518" lon="4.23018">
        <ele>604</ele>
        <time>2018-06-03T07:18:59.000Z</time>
      </trkpt>
      <trkpt lat="44.54518" lon="4.23018">
        <ele>604</ele>
        <time>2018-06-03T07:19:00.000Z</time>
      </trkpt>
      <trkpt lat="44.54518" lon="4.23018">
        <ele>604</ele>
        <time>2018-06-03T07:19:01.000Z</time>
      </trkpt>
      <trkpt lat="44.54519" lon="4.23018">
        <ele>604</ele>
        <time>2018-06-03T07:19:02.000Z</time>
      </trkpt>
      <trkpt lat="44.54519" lon="4.23018">
        <ele>604</ele>
        <time>2018-06-03T07:19:03.000Z</time>
      </trkpt>
      <trkpt lat="44.54519" lon="4.23018">
        <ele>604</ele>
        <time>2018-06-03T07:19:04.000Z</time>
      </trkpt>
      <trkpt lat="44.5452" lon="4.23018">
        <ele>604</ele>
        <time>2018-06-03T07:19:05.000Z</time>
      </trkpt>
      <trkpt lat="44.5452" lon="4.23018">
        <ele>604</ele>
        <time>2018-06-03T07:19:06.000Z</time>
      </trkpt>
      <trkpt lat="44.5452" lon="4.23018">
        <ele>604</ele>
        <time>2018-06-03T07:19:07.000Z</time>
      </trkpt>
      <trkpt lat="44.54521" lon="4.23018">
        <ele>604</ele>
        <time>2018-06-03T07:19:08.000Z</time>
      </trkpt>
      <trkpt lat="44.54521" lon="4.23018">
        <ele>604</ele>
        <time>2018-06-03T07:19:09.000Z</time>
      </trkpt>
      <trkpt lat="44.54521" lon="4.23018">
        <ele>604</ele>
        <time>2018-06-03T07:19:10.000Z</time>
      </trkpt>
      <trkpt lat="44.54521" lon="4.23018">
        <ele>604</ele>
        <time>2018-06-03T07:19:11.000Z</time>
      </trkpt>
      <trkpt lat="44.54522" lon="4.23018">
        <ele>604</ele>
        <time>2018-06-03T07:19:12.000Z</time>
      </trkpt>
      <trkpt lat="44.54522" lon="4.23018">
        <ele>604</ele>
        <time>2018-06-03T07:19:13.000Z</time>
      </trkpt>
      <trkpt lat="44.54522" lon="4.23018">
        <ele>604</ele>
        <time>2018-06-03T07:19:14.000Z</time>
      </trkpt>
      <trkpt lat="44.54522" lon="4.23018">
        <ele>604</ele>
        <time>2018-06-03T07:19:15.000Z</time>
      </trkpt>
      <trkpt lat="44.54523" lon="4.23018">
        <ele>604</ele>
        <time>2018-06-03T07:19:16.000Z</time>
      </trkpt>
      <trkpt lat="44.54523" lon="4.23018">
        <ele>604</ele>
        <time>2018-06-03T07:19:17.000Z</time>
      </trkpt>
      <trkpt lat="44.54523" lon="4.23019">
        <ele>604</ele>
        <time>2018-06-03T07:19:18.000Z</time>
      </trkpt>
      <trkpt lat="44.54523" lon="4.23019">
        <ele>604</ele>
        <time>2018-06-03T07:19:19.000Z</time>
      </trkpt>
      <trkpt lat="44.54523" lon="4.23019">
        <ele>604</ele>
        <time>2018-06-03T07:19:20.000Z</time>
      </trkpt>
      <trkpt lat="44.54523" lon="4.23019">
        <ele>604</ele>
        <time>2018-06-03T07:19:21.000Z</time>
      </trkpt>
      <trkpt lat="44.54524" lon="4.23019">
        <ele>604</ele>
        <time>2018-06-03T07:19:22.000Z</time>
      </trkpt>
      <trkpt lat="44.54524" lon="4.23019">
        <ele>604</ele>
        <time>2018-06-03T07:19:23.000Z</time>
      </trkpt>
      <trkpt lat="44.54524" lon="4.2302">
        <ele>604</ele>
        <time>2018-06-03T07:19:24.000Z</time>
      </trkpt>
      <trkpt lat="44.54524" lon="4.2302">
        <ele>604</ele>
        <time>2018-06-03T07:19:25.000Z</time>
      </trkpt>
      <trkpt lat="44.54524" lon="4.2302">
        <ele>604</ele>
        <time>2018-06-03T07:19:26.000Z</time>
      </trkpt>
      <trkpt lat="44.54524" lon="4.2302">
        <ele>604</ele>
        <time>2018-06-03T07:19:27.000Z</time>
      </trkpt>
      <trkpt lat="44.54525" lon="4.23019">
        <ele>604</ele>
        <time>2018-06-03T07:19:28.000Z</time>
      </trkpt>
      <trkpt lat="44.54525" lon="4.23019">
        <ele>604</ele>
        <time>2018-06-03T07:19:29.000Z</time>
      </trkpt>
      <trkpt lat="44.54525" lon="4.23019">
        <ele>604</ele>
        <time>2018-06-03T07:19:30.000Z</time>
      </trkpt>
      <trkpt lat="44.54525" lon="4.23019">
        <ele>604</ele>
        <time>2018-06-03T07:19:31.000Z</time>
      </trkpt>
      <trkpt lat="44.54525" lon="4.23019">
        <ele>604</ele>
        <time>2018-06-03T07:19:32.000Z</time>
      </trkpt>
      <trkpt lat="44.54525" lon="4.23019">
        <ele>604</ele>
        <time>2018-06-03T07:19:33.000Z</time>
      </trkpt>
      <trkpt lat="44.54526" lon="4.23019">
        <ele>604</ele>
        <time>2018-06-03T07:19:34.000Z</time>
      </trkpt>
      <trkpt lat="44.54527" lon="4.23018">
        <ele>604</ele>
        <time>2018-06-03T07:19:35.000Z</time>
      </trkpt>
      <trkpt lat="44.54528" lon="4.23017">
        <ele>604</ele>
        <time>2018-06-03T07:19:36.000Z</time>
      </trkpt>
      <trkpt lat="44.54529" lon="4.23016">
        <ele>604</ele>
        <time>2018-06-03T07:19:37.000Z</time>
      </trkpt>
      <trkpt lat="44.54531" lon="4.23015">
        <ele>604</ele>
        <time>2018-06-03T07:19:38.000Z</time>
      </trkpt>
      <trkpt lat="44.54532" lon="4.23015">
        <ele>604</ele>
        <time>2018-06-03T07:19:39.000Z</time>
      </trkpt>
      <trkpt lat="44.54533" lon="4.23014">
        <ele>604</ele>
        <time>2018-06-03T07:19:40.000Z</time>
      </trkpt>
      <trkpt lat="44.54534" lon="4.23013">
        <ele>604</ele>
        <time>2018-06-03T07:19:41.000Z</time>
      </trkpt>
      <trkpt lat="44.54535" lon="4.23012">
        <ele>604</ele>
        <time>2018-06-03T07:19:42.000Z</time>
      </trkpt>
      <trkpt lat="44.54537" lon="4.23011">
        <ele>604</ele>
        <time>2018-06-03T07:19:43.000Z</time>
      </trkpt>
      <trkpt lat="44.54539" lon="4.23009">
        <ele>604</ele>
        <time>2018-06-03T07:19:44.000Z</time>
      </trkpt>
      <trkpt lat="44.54541" lon="4.23008">
        <ele>605</ele>
        <time>2018-06-03T07:19:45.000Z</time>
      </trkpt>
      <trkpt lat="44.54543" lon="4.23006">
        <ele>605</ele>
        <time>2018-06-03T07:19:46.000Z</time>
      </trkpt>
      <trkpt lat="44.54546" lon="4.23005">
        <ele>605</ele>
        <time>2018-06-03T07:19:47.000Z</time>
      </trkpt>
      <trkpt lat="44.54549" lon="4.23005">
        <ele>605</ele>
        <time>2018-06-03T07:19:48.000Z</time>
      </trkpt>
      <trkpt lat="44.54553" lon="4.23006">
        <ele>605</ele>
        <time>2018-06-03T07:19:49.000Z</time>
      </trkpt>
      <trkpt lat="44.54556" lon="4.23007">
        <ele>606</ele>
        <time>2018-06-03T07:19:50.000Z</time>
      </trkpt>
      <trkpt lat="44.54562" lon="4.23007">
        <ele>606</ele>
        <time>2018-06-03T07:19:51.000Z</time>
      </trkpt>
      <trkpt lat="44.54567" lon="4.23008">
        <ele>607</ele>
        <time>2018-06-03T07:19:52.000Z</time>
      </trkpt>
      <trkpt lat="44.54573" lon="4.2301">
        <ele>608</ele>
        <time>2018-06-03T07:19:53.000Z</time>
      </trkpt>
      <trkpt lat="44.54579" lon="4.23011">
        <ele>609</ele>
        <time>2018-06-03T07:19:54.000Z</time>
      </trkpt>
      <trkpt lat="44.54586" lon="4.23012">
        <ele>609</ele>
        <time>2018-06-03T07:19:55.000Z</time>
      </trkpt>
      <trkpt lat="44.54594" lon="4.23013">
        <ele>608</ele>
        <time>2018-06-03T07:19:56.000Z</time>
      </trkpt>
      <trkpt lat="44.54602" lon="4.23014">
        <ele>607</ele>
        <time>2018-06-03T07:19:57.000Z</time>
      </trkpt>
      <trkpt lat="44.54609" lon="4.23014">
        <ele>606</ele>
        <time>2018-06-03T07:19:58.000Z</time>
      </trkpt>
      <trkpt lat="44.54617" lon="4.23013">
        <ele>606</ele>
        <time>2018-06-03T07:19:59.000Z</time>
      </trkpt>
      <trkpt lat="44.54624" lon="4.23012">
        <ele>606</ele>
        <time>2018-06-03T07:20:00.000Z</time>
      </trkpt>
      <trkpt lat="44.54632" lon="4.23012">
        <ele>605</ele>
        <time>2018-06-03T07:20:01.000Z</time>
      </trkpt>
      <trkpt lat="44.54639" lon="4.23012">
        <ele>606</ele>
        <time>2018-06-03T07:20:02.000Z</time>
      </trkpt>
      <trkpt lat="44.54646" lon="4.23012">
        <ele>606</ele>
        <time>2018-06-03T07:20:03.000Z</time>
      </trkpt>
      <trkpt lat="44.54654" lon="4.23013">
        <ele>606</ele>
        <time>2018-06-03T07:20:04.000Z</time>
      </trkpt>
      <trkpt lat="44.5466" lon="4.23013">
        <ele>606</ele>
        <time>2018-06-03T07:20:05.000Z</time>
      </trkpt>
      <trkpt lat="44.54667" lon="4.23013">
        <ele>607</ele>
        <time>2018-06-03T07:20:06.000Z</time>
      </trkpt>
      <trkpt lat="44.54672" lon="4.23013">
        <ele>606</ele>
        <time>2018-06-03T07:20:07.000Z</time>
      </trkpt>
      <trkpt lat="44.54678" lon="4.23014">
        <ele>605</ele>
        <time>2018-06-03T07:20:08.000Z</time>
      </trkpt>
      <trkpt lat="44.54684" lon="4.23015">
        <ele>605</ele>
        <time>2018-06-03T07:20:09.000Z</time>
      </trkpt>
      <trkpt lat="44.5469" lon="4.23017">
        <ele>604</ele>
        <time>2018-06-03T07:20:10.000Z</time>
      </trkpt>
      <trkpt lat="44.54694" lon="4.23021">
        <ele>604</ele>
        <time>2018-06-03T07:20:11.000Z</time>
      </trkpt>
      <trkpt lat="44.54697" lon="4.23027">
        <ele>603</ele>
        <time>2018-06-03T07:20:12.000Z</time>
      </trkpt>
      <trkpt lat="44.54698" lon="4.23033">
        <ele>603</ele>
        <time>2018-06-03T07:20:13.000Z</time>
      </trkpt>
      <trkpt lat="44.54698" lon="4.23039">
        <ele>602</ele>
        <time>2018-06-03T07:20:14.000Z</time>
      </trkpt>
      <trkpt lat="44.54695" lon="4.23045">
        <ele>602</ele>
        <time>2018-06-03T07:20:15.000Z</time>
      </trkpt>
      <trkpt lat="44.54691" lon="4.23051">
        <ele>601</ele>
        <time>2018-06-03T07:20:16.000Z</time>
      </trkpt>
      <trkpt lat="44.54687" lon="4.23058">
        <ele>601</ele>
        <time>2018-06-03T07:20:17.000Z</time>
      </trkpt>
      <trkpt lat="44.54682" lon="4.23066">
        <ele>600</ele>
        <time>2018-06-03T07:20:18.000Z</time>
      </trkpt>
      <trkpt lat="44.54678" lon="4.23074">
        <ele>599</ele>
        <time>2018-06-03T07:20:19.000Z</time>
      </trkpt>
      <trkpt lat="44.54672" lon="4.23082">
        <ele>598</ele>
        <time>2018-06-03T07:20:20.000Z</time>
      </trkpt>
      <trkpt lat="44.54667" lon="4.23091">
        <ele>595</ele>
        <time>2018-06-03T07:20:21.000Z</time>
      </trkpt>
      <trkpt lat="44.54661" lon="4.23099">
        <ele>593</ele>
        <time>2018-06-03T07:20:22.000Z</time>
      </trkpt>
      <trkpt lat="44.54655" lon="4.23108">
        <ele>592</ele>
        <time>2018-06-03T07:20:23.000Z</time>
      </trkpt>
      <trkpt lat="44.54649" lon="4.23116">
        <ele>591</ele>
        <time>2018-06-03T07:20:24.000Z</time>
      </trkpt>
      <trkpt lat="44.54643" lon="4.23123">
        <ele>590</ele>
        <time>2018-06-03T07:20:25.000Z</time>
      </trkpt>
      <trkpt lat="44.54636" lon="4.2313">
        <ele>590</ele>
        <time>2018-06-03T07:20:26.000Z</time>
      </trkpt>
      <trkpt lat="44.54629" lon="4.23136">
        <ele>589</ele>
        <time>2018-06-03T07:20:27.000Z</time>
      </trkpt>
      <trkpt lat="44.54622" lon="4.23141">
        <ele>589</ele>
        <time>2018-06-03T07:20:28.000Z</time>
      </trkpt>
      <trkpt lat="44.54614" lon="4.23145">
        <ele>588</ele>
        <time>2018-06-03T07:20:29.000Z</time>
      </trkpt>
      <trkpt lat="44.54606" lon="4.23149">
        <ele>587</ele>
        <time>2018-06-03T07:20:30.000Z</time>
      </trkpt>
      <trkpt lat="44.54598" lon="4.23153">
        <ele>586</ele>
        <time>2018-06-03T07:20:31.000Z</time>
      </trkpt>
      <trkpt lat="44.54591" lon="4.23157">
        <ele>585</ele>
        <time>2018-06-03T07:20:32.000Z</time>
      </trkpt>
      <trkpt lat="44.54584" lon="4.2316">
        <ele>584</ele>
        <time>2018-06-03T07:20:33.000Z</time>
      </trkpt>
      <trkpt lat="44.54578" lon="4.23164">
        <ele>583</ele>
        <time>2018-06-03T07:20:34.000Z</time>
      </trkpt>
      <trkpt lat="44.54571" lon="4.23168">
        <ele>579</ele>
        <time>2018-06-03T07:20:35.000Z</time>
      </trkpt>
      <trkpt lat="44.54564" lon="4.23172">
        <ele>577</ele>
        <time>2018-06-03T07:20:36.000Z</time>
      </trkpt>
      <trkpt lat="44.54556" lon="4.23176">
        <ele>576</ele>
        <time>2018-06-03T07:20:37.000Z</time>
      </trkpt>
      <trkpt lat="44.54548" lon="4.23179">
        <ele>575</ele>
        <time>2018-06-03T07:20:38.000Z</time>
      </trkpt>
      <trkpt lat="44.5454" lon="4.23181">
        <ele>575</ele>
        <time>2018-06-03T07:20:39.000Z</time>
      </trkpt>
      <trkpt lat="44.54532" lon="4.23182">
        <ele>575</ele>
        <time>2018-06-03T07:20:40.000Z</time>
      </trkpt>
      <trkpt lat="44.54523" lon="4.2318">
        <ele>574</ele>
        <time>2018-06-03T07:20:41.000Z</time>
      </trkpt>
      <trkpt lat="44.54515" lon="4.23178">
        <ele>575</ele>
        <time>2018-06-03T07:20:42.000Z</time>
      </trkpt>
      <trkpt lat="44.54506" lon="4.23174">
        <ele>575</ele>
        <time>2018-06-03T07:20:43.000Z</time>
      </trkpt>
      <trkpt lat="44.54498" lon="4.23171">
        <ele>574</ele>
        <time>2018-06-03T07:20:44.000Z</time>
      </trkpt>
      <trkpt lat="44.54489" lon="4.23167">
        <ele>572</ele>
        <time>2018-06-03T07:20:45.000Z</time>
      </trkpt>
      <trkpt lat="44.54481" lon="4.23164">
        <ele>576</ele>
        <time>2018-06-03T07:20:46.000Z</time>
      </trkpt>
      <trkpt lat="44.54472" lon="4.23161">
        <ele>576</ele>
        <time>2018-06-03T07:20:47.000Z</time>
      </trkpt>
      <trkpt lat="44.54465" lon="4.23158">
        <ele>576</ele>
        <time>2018-06-03T07:20:48.000Z</time>
      </trkpt>
      <trkpt lat="44.54457" lon="4.23157">
        <ele>575</ele>
        <time>2018-06-03T07:20:49.000Z</time>
      </trkpt>
      <trkpt lat="44.5445" lon="4.23155">
        <ele>574</ele>
        <time>2018-06-03T07:20:50.000Z</time>
      </trkpt>
      <trkpt lat="44.54442" lon="4.23152">
        <ele>574</ele>
        <time>2018-06-03T07:20:51.000Z</time>
      </trkpt>
      <trkpt lat="44.54435" lon="4.23148">
        <ele>573</ele>
        <time>2018-06-03T07:20:52.000Z</time>
      </trkpt>
      <trkpt lat="44.54429" lon="4.23143">
        <ele>573</ele>
        <time>2018-06-03T07:20:53.000Z</time>
      </trkpt>
      <trkpt lat="44.54424" lon="4.2314">
        <ele>573</ele>
        <time>2018-06-03T07:20:54.000Z</time>
      </trkpt>
      <trkpt lat="44.5442" lon="4.23139">
        <ele>573</ele>
        <time>2018-06-03T07:20:55.000Z</time>
      </trkpt>
      <trkpt lat="44.54417" lon="4.23141">
        <ele>573</ele>
        <time>2018-06-03T07:20:56.000Z</time>
      </trkpt>
      <trkpt lat="44.54417" lon="4.23143">
        <ele>572</ele>
        <time>2018-06-03T07:20:57.000Z</time>
      </trkpt>
      <trkpt lat="44.54418" lon="4.23146">
        <ele>572</ele>
        <time>2018-06-03T07:20:58.000Z</time>
      </trkpt>
      <trkpt lat="44.54419" lon="4.23147">
        <ele>571</ele>
        <time>2018-06-03T07:20:59.000Z</time>
      </trkpt>
      <trkpt lat="44.5442" lon="4.23146">
        <ele>572</ele>
        <time>2018-06-03T07:21:00.000Z</time>
      </trkpt>
      <trkpt lat="44.5442" lon="4.23147">
        <ele>572</ele>
        <time>2018-06-03T07:21:01.000Z</time>
      </trkpt>
      <trkpt lat="44.54421" lon="4.23146">
        <ele>572</ele>
        <time>2018-06-03T07:21:02.000Z</time>
      </trkpt>
      <trkpt lat="44.54421" lon="4.23146">
        <ele>572</ele>
        <time>2018-06-03T07:21:03.000Z</time>
      </trkpt>
      <trkpt lat="44.54421" lon="4.23146">
        <ele>572</ele>
        <time>2018-06-03T07:21:04.000Z</time>
      </trkpt>
      <trkpt lat="44.54421" lon="4.23146">
        <ele>572</ele>
        <time>2018-06-03T07:21:05.000Z</time>
      </trkpt>
      <trkpt lat="44.54421" lon="4.23146">
        <ele>572</ele>
        <time>2018-06-03T07:21:06.000Z</time>
      </trkpt>
      <trkpt lat="44.54422" lon="4.23146">
        <ele>572</ele>
        <time>2018-06-03T07:21:07.000Z</time>
      </trkpt>
      <trkpt lat="44.54422" lon="4.23145">
        <ele>572</ele>
        <time>2018-06-03T07:21:08.000Z</time>
      </trkpt>
      <trkpt lat="44.54422" lon="4.23145">
        <ele>572</ele>
        <time>2018-06-03T07:21:09.000Z</time>
      </trkpt>
      <trkpt lat="44.54422" lon="4.23145">
        <ele>572</ele>
        <time>2018-06-03T07:21:10.000Z</time>
      </trkpt>
      <trkpt lat="44.54422" lon="4.23145">
        <ele>572</ele>
        <time>2018-06-03T07:21:11.000Z</time>
      </trkpt>
      <trkpt lat="44.54422" lon="4.23145">
        <ele>572</ele>
        <time>2018-06-03T07:21:12.000Z</time>
      </trkpt>
      <trkpt lat="44.54422" lon="4.23145">
        <ele>572</ele>
        <time>2018-06-03T07:21:13.000Z</time>
      </trkpt>
      <trkpt lat="44.54422" lon="4.23145">
        <ele>572</ele>
        <time>2018-06-03T07:21:14.000Z</time>
      </trkpt>
      <trkpt lat="44.54422" lon="4.23144">
        <ele>572</ele>
        <time>2018-06-03T07:21:15.000Z</time>
      </trkpt>
      <trkpt lat="44.54423" lon="4.23144">
        <ele>572</ele>
        <time>2018-06-03T07:21:16.000Z</time>
      </trkpt>
      <trkpt lat="44.54423" lon="4.23144">
        <ele>572</ele>
        <time>2018-06-03T07:21:17.000Z</time>
      </trkpt>
      <trkpt lat="44.54423" lon="4.23144">
        <ele>572</ele>
        <time>2018-06-03T07:21:18.000Z</time>
      </trkpt>
      <trkpt lat="44.54423" lon="4.23144">
        <ele>572</ele>
        <time>2018-06-03T07:21:19.000Z</time>
      </trkpt>
      <trkpt lat="44.54423" lon="4.23144">
        <ele>572</ele>
        <time>2018-06-03T07:21:20.000Z</time>
      </trkpt>
      <trkpt lat="44.54423" lon="4.23144">
        <ele>572</ele>
        <time>2018-06-03T07:21:21.000Z</time>
      </trkpt>
      <trkpt lat="44.54423" lon="4.23144">
        <ele>572</ele>
        <time>2018-06-03T07:21:22.000Z</time>
      </trkpt>
      <trkpt lat="44.54423" lon="4.23144">
        <ele>572</ele>
        <time>2018-06-03T07:21:23.000Z</time>
      </trkpt>
      <trkpt lat="44.54423" lon="4.23143">
        <ele>572</ele>
        <time>2018-06-03T07:21:24.000Z</time>
      </trkpt>
      <trkpt lat="44.54423" lon="4.23143">
        <ele>572</ele>
        <time>2018-06-03T07:21:25.000Z</time>
      </trkpt>
      <trkpt lat="44.54423" lon="4.23143">
        <ele>572</ele>
        <time>2018-06-03T07:21:26.000Z</time>
      </trkpt>
      <trkpt lat="44.54423" lon="4.23143">
        <ele>572</ele>
        <time>2018-06-03T07:21:27.000Z</time>
      </trkpt>
      <trkpt lat="44.54423" lon="4.23143">
        <ele>572</ele>
        <time>2018-06-03T07:21:28.000Z</time>
      </trkpt>
      <trkpt lat="44.54423" lon="4.23143">
        <ele>572</ele>
        <time>2018-06-03T07:21:29.000Z</time>
      </trkpt>
      <trkpt lat="44.54423" lon="4.23143">
        <ele>573</ele>
        <time>2018-06-03T07:21:30.000Z</time>
      </trkpt>
      <trkpt lat="44.54423" lon="4.23143">
        <ele>573</ele>
        <time>2018-06-03T07:21:31.000Z</time>
      </trkpt>
      <trkpt lat="44.54423" lon="4.23143">
        <ele>573</ele>
        <time>2018-06-03T07:21:32.000Z</time>
      </trkpt>
      <trkpt lat="44.54423" lon="4.23143">
        <ele>573</ele>
        <time>2018-06-03T07:21:33.000Z</time>
      </trkpt>
      <trkpt lat="44.54423" lon="4.23144">
        <ele>572</ele>
        <time>2018-06-03T07:21:34.000Z</time>
      </trkpt>
      <trkpt lat="44.54424" lon="4.23144">
        <ele>572</ele>
        <time>2018-06-03T07:21:35.000Z</time>
      </trkpt>
      <trkpt lat="44.54425" lon="4.23145">
        <ele>572</ele>
        <time>2018-06-03T07:21:36.000Z</time>
      </trkpt>
      <trkpt lat="44.54426" lon="4.23147">
        <ele>572</ele>
        <time>2018-06-03T07:21:37.000Z</time>
      </trkpt>
      <trkpt lat="44.54428" lon="4.2315">
        <ele>572</ele>
        <time>2018-06-03T07:21:38.000Z</time>
      </trkpt>
      <trkpt lat="44.54431" lon="4.23155">
        <ele>571</ele>
        <time>2018-06-03T07:21:39.000Z</time>
      </trkpt>
      <trkpt lat="44.54434" lon="4.23159">
        <ele>571</ele>
        <time>2018-06-03T07:21:40.000Z</time>
      </trkpt>
      <trkpt lat="44.54437" lon="4.23164">
        <ele>571</ele>
        <time>2018-06-03T07:21:41.000Z</time>
      </trkpt>
      <trkpt lat="44.54442" lon="4.23169">
        <ele>565</ele>
        <time>2018-06-03T07:21:42.000Z</time>
      </trkpt>
      <trkpt lat="44.54446" lon="4.23174">
        <ele>565</ele>
        <time>2018-06-03T07:21:43.000Z</time>
      </trkpt>
      <trkpt lat="44.54451" lon="4.2318">
        <ele>565</ele>
        <time>2018-06-03T07:21:44.000Z</time>
      </trkpt>
      <trkpt lat="44.54456" lon="4.23186">
        <ele>565</ele>
        <time>2018-06-03T07:21:45.000Z</time>
      </trkpt>
      <trkpt lat="44.54461" lon="4.23191">
        <ele>565</ele>
        <time>2018-06-03T07:21:46.000Z</time>
      </trkpt>
      <trkpt lat="44.54466" lon="4.23197">
        <ele>565</ele>
        <time>2018-06-03T07:21:47.000Z</time>
      </trkpt>
      <trkpt lat="44.54469" lon="4.23203">
        <ele>565</ele>
        <time>2018-06-03T07:21:48.000Z</time>
      </trkpt>
      <trkpt lat="44.54472" lon="4.23211">
        <ele>564</ele>
        <time>2018-06-03T07:21:49.000Z</time>
      </trkpt>
      <trkpt lat="44.54475" lon="4.2322">
        <ele>564</ele>
        <time>2018-06-03T07:21:50.000Z</time>
      </trkpt>
      <trkpt lat="44.54477" lon="4.23228">
        <ele>564</ele>
        <time>2018-06-03T07:21:51.000Z</time>
      </trkpt>
      <trkpt lat="44.54477" lon="4.23236">
        <ele>563</ele>
        <time>2018-06-03T07:21:52.000Z</time>
      </trkpt>
      <trkpt lat="44.54475" lon="4.23242">
        <ele>563</ele>
        <time>2018-06-03T07:21:53.000Z</time>
      </trkpt>
      <trkpt lat="44.54472" lon="4.23248">
        <ele>562</ele>
        <time>2018-06-03T07:21:54.000Z</time>
      </trkpt>
      <trkpt lat="44.54468" lon="4.23256">
        <ele>556</ele>
        <time>2018-06-03T07:21:55.000Z</time>
      </trkpt>
      <trkpt lat="44.54465" lon="4.23264">
        <ele>555</ele>
        <time>2018-06-03T07:21:56.000Z</time>
      </trkpt>
      <trkpt lat="44.54461" lon="4.23273">
        <ele>554</ele>
        <time>2018-06-03T07:21:57.000Z</time>
      </trkpt>
      <trkpt lat="44.54457" lon="4.23282">
        <ele>554</ele>
        <time>2018-06-03T07:21:58.000Z</time>
      </trkpt>
      <trkpt lat="44.54453" lon="4.23291">
        <ele>553</ele>
        <time>2018-06-03T07:21:59.000Z</time>
      </trkpt>
      <trkpt lat="44.54449" lon="4.233">
        <ele>552</ele>
        <time>2018-06-03T07:22:00.000Z</time>
      </trkpt>
      <trkpt lat="44.54444" lon="4.23309">
        <ele>552</ele>
        <time>2018-06-03T07:22:01.000Z</time>
      </trkpt>
      <trkpt lat="44.54439" lon="4.23317">
        <ele>551</ele>
        <time>2018-06-03T07:22:02.000Z</time>
      </trkpt>
      <trkpt lat="44.54435" lon="4.23325">
        <ele>550</ele>
        <time>2018-06-03T07:22:03.000Z</time>
      </trkpt>
      <trkpt lat="44.54431" lon="4.2333">
        <ele>549</ele>
        <time>2018-06-03T07:22:04.000Z</time>
      </trkpt>
      <trkpt lat="44.54427" lon="4.23333">
        <ele>548</ele>
        <time>2018-06-03T07:22:05.000Z</time>
      </trkpt>
      <trkpt lat="44.54424" lon="4.23334">
        <ele>546</ele>
        <time>2018-06-03T07:22:06.000Z</time>
      </trkpt>
      <trkpt lat="44.5442" lon="4.23334">
        <ele>546</ele>
        <time>2018-06-03T07:22:07.000Z</time>
      </trkpt>
      <trkpt lat="44.54415" lon="4.23334">
        <ele>546</ele>
        <time>2018-06-03T07:22:08.000Z</time>
      </trkpt>
      <trkpt lat="44.5441" lon="4.23334">
        <ele>545</ele>
        <time>2018-06-03T07:22:09.000Z</time>
      </trkpt>
      <trkpt lat="44.54407" lon="4.23335">
        <ele>544</ele>
        <time>2018-06-03T07:22:10.000Z</time>
      </trkpt>
      <trkpt lat="44.54407" lon="4.23336">
        <ele>544</ele>
        <time>2018-06-03T07:22:11.000Z</time>
      </trkpt>
      <trkpt lat="44.54406" lon="4.23336">
        <ele>544</ele>
        <time>2018-06-03T07:22:12.000Z</time>
      </trkpt>
      <trkpt lat="44.54406" lon="4.23336">
        <ele>544</ele>
        <time>2018-06-03T07:22:13.000Z</time>
      </trkpt>
      <trkpt lat="44.54406" lon="4.23336">
        <ele>544</ele>
        <time>2018-06-03T07:22:14.000Z</time>
      </trkpt>
      <trkpt lat="44.54406" lon="4.23336">
        <ele>544</ele>
        <time>2018-06-03T07:22:15.000Z</time>
      </trkpt>
      <trkpt lat="44.54405" lon="4.23336">
        <ele>544</ele>
        <time>2018-06-03T07:22:16.000Z</time>
      </trkpt>
      <trkpt lat="44.54404" lon="4.23337">
        <ele>543</ele>
        <time>2018-06-03T07:22:17.000Z</time>
      </trkpt>
      <trkpt lat="44.54402" lon="4.23339">
        <ele>543</ele>
        <time>2018-06-03T07:22:18.000Z</time>
      </trkpt>
      <trkpt lat="44.54399" lon="4.23343">
        <ele>543</ele>
        <time>2018-06-03T07:22:19.000Z</time>
      </trkpt>
      <trkpt lat="44.54396" lon="4.23347">
        <ele>542</ele>
        <time>2018-06-03T07:22:20.000Z</time>
      </trkpt>
      <trkpt lat="44.54391" lon="4.23352">
        <ele>542</ele>
        <time>2018-06-03T07:22:21.000Z</time>
      </trkpt>
      <trkpt lat="44.54387" lon="4.23357">
        <ele>541</ele>
        <time>2018-06-03T07:22:22.000Z</time>
      </trkpt>
      <trkpt lat="44.54383" lon="4.23364">
        <ele>541</ele>
        <time>2018-06-03T07:22:23.000Z</time>
      </trkpt>
      <trkpt lat="44.54378" lon="4.23371">
        <ele>540</ele>
        <time>2018-06-03T07:22:24.000Z</time>
      </trkpt>
      <trkpt lat="44.54373" lon="4.23377">
        <ele>540</ele>
        <time>2018-06-03T07:22:25.000Z</time>
      </trkpt>
      <trkpt lat="44.54369" lon="4.23382">
        <ele>540</ele>
        <time>2018-06-03T07:22:26.000Z</time>
      </trkpt>
      <trkpt lat="44.54365" lon="4.23385">
        <ele>539</ele>
        <time>2018-06-03T07:22:27.000Z</time>
      </trkpt>
      <trkpt lat="44.5436" lon="4.23387">
        <ele>539</ele>
        <time>2018-06-03T07:22:28.000Z</time>
      </trkpt>
      <trkpt lat="44.54357" lon="4.23384">
        <ele>539</ele>
        <time>2018-06-03T07:22:29.000Z</time>
      </trkpt>
      <trkpt lat="44.54355" lon="4.2338">
        <ele>539</ele>
        <time>2018-06-03T07:22:30.000Z</time>
      </trkpt>
      <trkpt lat="44.54352" lon="4.23374">
        <ele>539</ele>
        <time>2018-06-03T07:22:31.000Z</time>
      </trkpt>
      <trkpt lat="44.5435" lon="4.23367">
        <ele>539</ele>
        <time>2018-06-03T07:22:32.000Z</time>
      </trkpt>
      <trkpt lat="44.54347" lon="4.23362">
        <ele>539</ele>
        <time>2018-06-03T07:22:33.000Z</time>
      </trkpt>
      <trkpt lat="44.54343" lon="4.23359">
        <ele>539</ele>
        <time>2018-06-03T07:22:34.000Z</time>
      </trkpt>
      <trkpt lat="44.54339" lon="4.2336">
        <ele>539</ele>
        <time>2018-06-03T07:22:35.000Z</time>
      </trkpt>
      <trkpt lat="44.54335" lon="4.23362">
        <ele>539</ele>
        <time>2018-06-03T07:22:36.000Z</time>
      </trkpt>
      <trkpt lat="44.5433" lon="4.23366">
        <ele>533</ele>
        <time>2018-06-03T07:22:37.000Z</time>
      </trkpt>
      <trkpt lat="44.54325" lon="4.2337">
        <ele>533</ele>
        <time>2018-06-03T07:22:38.000Z</time>
      </trkpt>
      <trkpt lat="44.54318" lon="4.23373">
        <ele>533</ele>
        <time>2018-06-03T07:22:39.000Z</time>
      </trkpt>
      <trkpt lat="44.54312" lon="4.23378">
        <ele>532</ele>
        <time>2018-06-03T07:22:40.000Z</time>
      </trkpt>
      <trkpt lat="44.54305" lon="4.23382">
        <ele>532</ele>
        <time>2018-06-03T07:22:41.000Z</time>
      </trkpt>
      <trkpt lat="44.54298" lon="4.23385">
        <ele>532</ele>
        <time>2018-06-03T07:22:42.000Z</time>
      </trkpt>
      <trkpt lat="44.54291" lon="4.23388">
        <ele>531</ele>
        <time>2018-06-03T07:22:43.000Z</time>
      </trkpt>
      <trkpt lat="44.54285" lon="4.23391">
        <ele>531</ele>
        <time>2018-06-03T07:22:44.000Z</time>
      </trkpt>
      <trkpt lat="44.54281" lon="4.23394">
        <ele>531</ele>
        <time>2018-06-03T07:22:45.000Z</time>
      </trkpt>
      <trkpt lat="44.54278" lon="4.23397">
        <ele>530</ele>
        <time>2018-06-03T07:22:46.000Z</time>
      </trkpt>
      <trkpt lat="44.54274" lon="4.23402">
        <ele>530</ele>
        <time>2018-06-03T07:22:47.000Z</time>
      </trkpt>
      <trkpt lat="44.54271" lon="4.23407">
        <ele>529</ele>
        <time>2018-06-03T07:22:48.000Z</time>
      </trkpt>
      <trkpt lat="44.54268" lon="4.23413">
        <ele>529</ele>
        <time>2018-06-03T07:22:49.000Z</time>
      </trkpt>
      <trkpt lat="44.54264" lon="4.23419">
        <ele>527</ele>
        <time>2018-06-03T07:22:50.000Z</time>
      </trkpt>
      <trkpt lat="44.5426" lon="4.23425">
        <ele>527</ele>
        <time>2018-06-03T07:22:51.000Z</time>
      </trkpt>
      <trkpt lat="44.54256" lon="4.23432">
        <ele>527</ele>
        <time>2018-06-03T07:22:52.000Z</time>
      </trkpt>
      <trkpt lat="44.54253" lon="4.2344">
        <ele>527</ele>
        <time>2018-06-03T07:22:53.000Z</time>
      </trkpt>
      <trkpt lat="44.54251" lon="4.23449">
        <ele>527</ele>
        <time>2018-06-03T07:22:54.000Z</time>
      </trkpt>
      <trkpt lat="44.54249" lon="4.23458">
        <ele>524</ele>
        <time>2018-06-03T07:22:55.000Z</time>
      </trkpt>
      <trkpt lat="44.54247" lon="4.23467">
        <ele>524</ele>
        <time>2018-06-03T07:22:56.000Z</time>
      </trkpt>
      <trkpt lat="44.54245" lon="4.23476">
        <ele>523</ele>
        <time>2018-06-03T07:22:57.000Z</time>
      </trkpt>
      <trkpt lat="44.54244" lon="4.23485">
        <ele>523</ele>
        <time>2018-06-03T07:22:58.000Z</time>
      </trkpt>
      <trkpt lat="44.54242" lon="4.23494">
        <ele>523</ele>
        <time>2018-06-03T07:22:59.000Z</time>
      </trkpt>
      <trkpt lat="44.5424" lon="4.23503">
        <ele>521</ele>
        <time>2018-06-03T07:23:00.000Z</time>
      </trkpt>
      <trkpt lat="44.54238" lon="4.23512">
        <ele>521</ele>
        <time>2018-06-03T07:23:01.000Z</time>
      </trkpt>
      <trkpt lat="44.54237" lon="4.23521">
        <ele>521</ele>
        <time>2018-06-03T07:23:02.000Z</time>
      </trkpt>
      <trkpt lat="44.54238" lon="4.23529">
        <ele>521</ele>
        <time>2018-06-03T07:23:03.000Z</time>
      </trkpt>
      <trkpt lat="44.54237" lon="4.23538">
        <ele>521</ele>
        <time>2018-06-03T07:23:04.000Z</time>
      </trkpt>
      <trkpt lat="44.54236" lon="4.23547">
        <ele>521</ele>
        <time>2018-06-03T07:23:05.000Z</time>
      </trkpt>
      <trkpt lat="44.54234" lon="4.23556">
        <ele>521</ele>
        <time>2018-06-03T07:23:06.000Z</time>
      </trkpt>
      <trkpt lat="44.54233" lon="4.23565">
        <ele>521</ele>
        <time>2018-06-03T07:23:07.000Z</time>
      </trkpt>
      <trkpt lat="44.54231" lon="4.23575">
        <ele>521</ele>
        <time>2018-06-03T07:23:08.000Z</time>
      </trkpt>
      <trkpt lat="44.54229" lon="4.23585">
        <ele>519</ele>
        <time>2018-06-03T07:23:09.000Z</time>
      </trkpt>
      <trkpt lat="44.54228" lon="4.23596">
        <ele>518</ele>
        <time>2018-06-03T07:23:10.000Z</time>
      </trkpt>
      <trkpt lat="44.54227" lon="4.23607">
        <ele>518</ele>
        <time>2018-06-03T07:23:11.000Z</time>
      </trkpt>
      <trkpt lat="44.54228" lon="4.23617">
        <ele>517</ele>
        <time>2018-06-03T07:23:12.000Z</time>
      </trkpt>
      <trkpt lat="44.54228" lon="4.23626">
        <ele>517</ele>
        <time>2018-06-03T07:23:13.000Z</time>
      </trkpt>
      <trkpt lat="44.54227" lon="4.23634">
        <ele>517</ele>
        <time>2018-06-03T07:23:14.000Z</time>
      </trkpt>
      <trkpt lat="44.54226" lon="4.23641">
        <ele>516</ele>
        <time>2018-06-03T07:23:15.000Z</time>
      </trkpt>
      <trkpt lat="44.54223" lon="4.23648">
        <ele>516</ele>
        <time>2018-06-03T07:23:16.000Z</time>
      </trkpt>
      <trkpt lat="44.5422" lon="4.23655">
        <ele>516</ele>
        <time>2018-06-03T07:23:17.000Z</time>
      </trkpt>
      <trkpt lat="44.54218" lon="4.23663">
        <ele>516</ele>
        <time>2018-06-03T07:23:18.000Z</time>
      </trkpt>
      <trkpt lat="44.54217" lon="4.23671">
        <ele>512</ele>
        <time>2018-06-03T07:23:19.000Z</time>
      </trkpt>
      <trkpt lat="44.54218" lon="4.23679">
        <ele>512</ele>
        <time>2018-06-03T07:23:20.000Z</time>
      </trkpt>
      <trkpt lat="44.54219" lon="4.23687">
        <ele>512</ele>
        <time>2018-06-03T07:23:21.000Z</time>
      </trkpt>
      <trkpt lat="44.54221" lon="4.23696">
        <ele>512</ele>
        <time>2018-06-03T07:23:22.000Z</time>
      </trkpt>
      <trkpt lat="44.54223" lon="4.23704">
        <ele>511</ele>
        <time>2018-06-03T07:23:23.000Z</time>
      </trkpt>
      <trkpt lat="44.54225" lon="4.23712">
        <ele>511</ele>
        <time>2018-06-03T07:23:24.000Z</time>
      </trkpt>
      <trkpt lat="44.54228" lon="4.2372">
        <ele>511</ele>
        <time>2018-06-03T07:23:25.000Z</time>
      </trkpt>
      <trkpt lat="44.5423" lon="4.23728">
        <ele>511</ele>
        <time>2018-06-03T07:23:26.000Z</time>
      </trkpt>
      <trkpt lat="44.54233" lon="4.23735">
        <ele>510</ele>
        <time>2018-06-03T07:23:27.000Z</time>
      </trkpt>
      <trkpt lat="44.54234" lon="4.23742">
        <ele>510</ele>
        <time>2018-06-03T07:23:28.000Z</time>
      </trkpt>
      <trkpt lat="44.54236" lon="4.23749">
        <ele>510</ele>
        <time>2018-06-03T07:23:29.000Z</time>
      </trkpt>
      <trkpt lat="44.54237" lon="4.23756">
        <ele>508</ele>
        <time>2018-06-03T07:23:30.000Z</time>
      </trkpt>
      <trkpt lat="44.54238" lon="4.23763">
        <ele>507</ele>
        <time>2018-06-03T07:23:31.000Z</time>
      </trkpt>
      <trkpt lat="44.54239" lon="4.23768">
        <ele>507</ele>
        <time>2018-06-03T07:23:32.000Z</time>
      </trkpt>
      <trkpt lat="44.54239" lon="4.23775">
        <ele>506</ele>
        <time>2018-06-03T07:23:33.000Z</time>
      </trkpt>
      <trkpt lat="44.54241" lon="4.23781">
        <ele>506</ele>
        <time>2018-06-03T07:23:34.000Z</time>
      </trkpt>
      <trkpt lat="44.54242" lon="4.23786">
        <ele>505</ele>
        <time>2018-06-03T07:23:35.000Z</time>
      </trkpt>
      <trkpt lat="44.54243" lon="4.2379">
        <ele>505</ele>
        <time>2018-06-03T07:23:36.000Z</time>
      </trkpt>
      <trkpt lat="44.54244" lon="4.23795">
        <ele>505</ele>
        <time>2018-06-03T07:23:37.000Z</time>
      </trkpt>
      <trkpt lat="44.54244" lon="4.23799">
        <ele>504</ele>
        <time>2018-06-03T07:23:38.000Z</time>
      </trkpt>
      <trkpt lat="44.54243" lon="4.23803">
        <ele>504</ele>
        <time>2018-06-03T07:23:39.000Z</time>
      </trkpt>
      <trkpt lat="44.54242" lon="4.23806">
        <ele>504</ele>
        <time>2018-06-03T07:23:40.000Z</time>
      </trkpt>
      <trkpt lat="44.54239" lon="4.23808">
        <ele>504</ele>
        <time>2018-06-03T07:23:41.000Z</time>
      </trkpt>
      <trkpt lat="44.54237" lon="4.2381">
        <ele>504</ele>
        <time>2018-06-03T07:23:42.000Z</time>
      </trkpt>
      <trkpt lat="44.54234" lon="4.23811">
        <ele>504</ele>
        <time>2018-06-03T07:23:43.000Z</time>
      </trkpt>
      <trkpt lat="44.54232" lon="4.23811">
        <ele>504</ele>
        <time>2018-06-03T07:23:44.000Z</time>
      </trkpt>
      <trkpt lat="44.5423" lon="4.2381">
        <ele>504</ele>
        <time>2018-06-03T07:23:45.000Z</time>
      </trkpt>
      <trkpt lat="44.54229" lon="4.23809">
        <ele>504</ele>
        <time>2018-06-03T07:23:46.000Z</time>
      </trkpt>
      <trkpt lat="44.54227" lon="4.23809">
        <ele>504</ele>
        <time>2018-06-03T07:23:47.000Z</time>
      </trkpt>
      <trkpt lat="44.54226" lon="4.23809">
        <ele>504</ele>
        <time>2018-06-03T07:23:48.000Z</time>
      </trkpt>
      <trkpt lat="44.54225" lon="4.2381">
        <ele>504</ele>
        <time>2018-06-03T07:23:49.000Z</time>
      </trkpt>
      <trkpt lat="44.54225" lon="4.23811">
        <ele>504</ele>
        <time>2018-06-03T07:23:50.000Z</time>
      </trkpt>
      <trkpt lat="44.54224" lon="4.23811">
        <ele>504</ele>
        <time>2018-06-03T07:23:51.000Z</time>
      </trkpt>
      <trkpt lat="44.54224" lon="4.23812">
        <ele>504</ele>
        <time>2018-06-03T07:23:52.000Z</time>
      </trkpt>
      <trkpt lat="44.54223" lon="4.23813">
        <ele>504</ele>
        <time>2018-06-03T07:23:53.000Z</time>
      </trkpt>
      <trkpt lat="44.54223" lon="4.23813">
        <ele>504</ele>
        <time>2018-06-03T07:23:54.000Z</time>
      </trkpt>
      <trkpt lat="44.54222" lon="4.23814">
        <ele>504</ele>
        <time>2018-06-03T07:23:55.000Z</time>
      </trkpt>
      <trkpt lat="44.54221" lon="4.23816">
        <ele>504</ele>
        <time>2018-06-03T07:23:56.000Z</time>
      </trkpt>
      <trkpt lat="44.5422" lon="4.23818">
        <ele>504</ele>
        <time>2018-06-03T07:23:57.000Z</time>
      </trkpt>
      <trkpt lat="44.5422" lon="4.23821">
        <ele>504</ele>
        <time>2018-06-03T07:23:58.000Z</time>
      </trkpt>
      <trkpt lat="44.5422" lon="4.23823">
        <ele>504</ele>
        <time>2018-06-03T07:23:59.000Z</time>
      </trkpt>
      <trkpt lat="44.5422" lon="4.23824">
        <ele>504</ele>
        <time>2018-06-03T07:24:00.000Z</time>
      </trkpt>
      <trkpt lat="44.54219" lon="4.23827">
        <ele>503</ele>
        <time>2018-06-03T07:24:01.000Z</time>
      </trkpt>
      <trkpt lat="44.54218" lon="4.23829">
        <ele>503</ele>
        <time>2018-06-03T07:24:02.000Z</time>
      </trkpt>
      <trkpt lat="44.54217" lon="4.23831">
        <ele>503</ele>
        <time>2018-06-03T07:24:03.000Z</time>
      </trkpt>
      <trkpt lat="44.54217" lon="4.23833">
        <ele>503</ele>
        <time>2018-06-03T07:24:04.000Z</time>
      </trkpt>
      <trkpt lat="44.54216" lon="4.23834">
        <ele>499</ele>
        <time>2018-06-03T07:24:05.000Z</time>
      </trkpt>
      <trkpt lat="44.54216" lon="4.23836">
        <ele>499</ele>
        <time>2018-06-03T07:24:06.000Z</time>
      </trkpt>
      <trkpt lat="44.54215" lon="4.23838">
        <ele>499</ele>
        <time>2018-06-03T07:24:07.000Z</time>
      </trkpt>
      <trkpt lat="44.54214" lon="4.23841">
        <ele>499</ele>
        <time>2018-06-03T07:24:08.000Z</time>
      </trkpt>
      <trkpt lat="44.54213" lon="4.23844">
        <ele>499</ele>
        <time>2018-06-03T07:24:09.000Z</time>
      </trkpt>
      <trkpt lat="44.54212" lon="4.23847">
        <ele>499</ele>
        <time>2018-06-03T07:24:10.000Z</time>
      </trkpt>
      <trkpt lat="44.54212" lon="4.2385">
        <ele>499</ele>
        <time>2018-06-03T07:24:11.000Z</time>
      </trkpt>
      <trkpt lat="44.54212" lon="4.23854">
        <ele>498</ele>
        <time>2018-06-03T07:24:12.000Z</time>
      </trkpt>
      <trkpt lat="44.54211" lon="4.23858">
        <ele>498</ele>
        <time>2018-06-03T07:24:13.000Z</time>
      </trkpt>
      <trkpt lat="44.5421" lon="4.23863">
        <ele>498</ele>
        <time>2018-06-03T07:24:14.000Z</time>
      </trkpt>
      <trkpt lat="44.54209" lon="4.23869">
        <ele>498</ele>
        <time>2018-06-03T07:24:15.000Z</time>
      </trkpt>
      <trkpt lat="44.54208" lon="4.23875">
        <ele>497</ele>
        <time>2018-06-03T07:24:16.000Z</time>
      </trkpt>
      <trkpt lat="44.54208" lon="4.23882">
        <ele>497</ele>
        <time>2018-06-03T07:24:17.000Z</time>
      </trkpt>
      <trkpt lat="44.54207" lon="4.23889">
        <ele>497</ele>
        <time>2018-06-03T07:24:18.000Z</time>
      </trkpt>
      <trkpt lat="44.54207" lon="4.23896">
        <ele>497</ele>
        <time>2018-06-03T07:24:19.000Z</time>
      </trkpt>
      <trkpt lat="44.54206" lon="4.23903">
        <ele>496</ele>
        <time>2018-06-03T07:24:20.000Z</time>
      </trkpt>
      <trkpt lat="44.54204" lon="4.2391">
        <ele>496</ele>
        <time>2018-06-03T07:24:21.000Z</time>
      </trkpt>
      <trkpt lat="44.54202" lon="4.23915">
        <ele>496</ele>
        <time>2018-06-03T07:24:22.000Z</time>
      </trkpt>
      <trkpt lat="44.54199" lon="4.23919">
        <ele>493</ele>
        <time>2018-06-03T07:24:23.000Z</time>
      </trkpt>
      <trkpt lat="44.54196" lon="4.23922">
        <ele>493</ele>
        <time>2018-06-03T07:24:24.000Z</time>
      </trkpt>
      <trkpt lat="44.54194" lon="4.23925">
        <ele>493</ele>
        <time>2018-06-03T07:24:25.000Z</time>
      </trkpt>
      <trkpt lat="44.54191" lon="4.23928">
        <ele>493</ele>
        <time>2018-06-03T07:24:26.000Z</time>
      </trkpt>
      <trkpt lat="44.54187" lon="4.2393">
        <ele>493</ele>
        <time>2018-06-03T07:24:27.000Z</time>
      </trkpt>
      <trkpt lat="44.54182" lon="4.23932">
        <ele>493</ele>
        <time>2018-06-03T07:24:28.000Z</time>
      </trkpt>
      <trkpt lat="44.54178" lon="4.23935">
        <ele>493</ele>
        <time>2018-06-03T07:24:29.000Z</time>
      </trkpt>
      <trkpt lat="44.54174" lon="4.23939">
        <ele>493</ele>
        <time>2018-06-03T07:24:30.000Z</time>
      </trkpt>
      <trkpt lat="44.5417" lon="4.23943">
        <ele>493</ele>
        <time>2018-06-03T07:24:31.000Z</time>
      </trkpt>
      <trkpt lat="44.54167" lon="4.23947">
        <ele>493</ele>
        <time>2018-06-03T07:24:32.000Z</time>
      </trkpt>
      <trkpt lat="44.54165" lon="4.23951">
        <ele>494</ele>
        <time>2018-06-03T07:24:33.000Z</time>
      </trkpt>
      <trkpt lat="44.54163" lon="4.23956">
        <ele>494</ele>
        <time>2018-06-03T07:24:34.000Z</time>
      </trkpt>
      <trkpt lat="44.54163" lon="4.23961">
        <ele>493</ele>
        <time>2018-06-03T07:24:35.000Z</time>
      </trkpt>
      <trkpt lat="44.54163" lon="4.23965">
        <ele>493</ele>
        <time>2018-06-03T07:24:36.000Z</time>
      </trkpt>
      <trkpt lat="44.54163" lon="4.23969">
        <ele>493</ele>
        <time>2018-06-03T07:24:37.000Z</time>
      </trkpt>
      <trkpt lat="44.54164" lon="4.23972">
        <ele>493</ele>
        <time>2018-06-03T07:24:38.000Z</time>
      </trkpt>
      <trkpt lat="44.54164" lon="4.23975">
        <ele>493</ele>
        <time>2018-06-03T07:24:39.000Z</time>
      </trkpt>
      <trkpt lat="44.54165" lon="4.23978">
        <ele>493</ele>
        <time>2018-06-03T07:24:40.000Z</time>
      </trkpt>
      <trkpt lat="44.54166" lon="4.23982">
        <ele>492</ele>
        <time>2018-06-03T07:24:41.000Z</time>
      </trkpt>
      <trkpt lat="44.54168" lon="4.23984">
        <ele>491</ele>
        <time>2018-06-03T07:24:42.000Z</time>
      </trkpt>
      <trkpt lat="44.54169" lon="4.23985">
        <ele>491</ele>
        <time>2018-06-03T07:24:43.000Z</time>
      </trkpt>
      <trkpt lat="44.5417" lon="4.23987">
        <ele>491</ele>
        <time>2018-06-03T07:24:44.000Z</time>
      </trkpt>
      <trkpt lat="44.54171" lon="4.2399">
        <ele>491</ele>
        <time>2018-06-03T07:24:45.000Z</time>
      </trkpt>
      <trkpt lat="44.54172" lon="4.23993">
        <ele>491</ele>
        <time>2018-06-03T07:24:46.000Z</time>
      </trkpt>
      <trkpt lat="44.54173" lon="4.23996">
        <ele>491</ele>
        <time>2018-06-03T07:24:47.000Z</time>
      </trkpt>
      <trkpt lat="44.54175" lon="4.23998">
        <ele>491</ele>
        <time>2018-06-03T07:24:48.000Z</time>
      </trkpt>
      <trkpt lat="44.54176" lon="4.24">
        <ele>491</ele>
        <time>2018-06-03T07:24:49.000Z</time>
      </trkpt>
      <trkpt lat="44.54178" lon="4.24001">
        <ele>491</ele>
        <time>2018-06-03T07:24:50.000Z</time>
      </trkpt>
      <trkpt lat="44.54179" lon="4.24001">
        <ele>491</ele>
        <time>2018-06-03T07:24:51.000Z</time>
      </trkpt>
      <trkpt lat="44.54179" lon="4.24001">
        <ele>491</ele>
        <time>2018-06-03T07:24:52.000Z</time>
      </trkpt>
      <trkpt lat="44.54179" lon="4.24001">
        <ele>491</ele>
        <time>2018-06-03T07:24:53.000Z</time>
      </trkpt>
      <trkpt lat="44.54179" lon="4.24001">
        <ele>491</ele>
        <time>2018-06-03T07:24:54.000Z</time>
      </trkpt>
      <trkpt lat="44.5418" lon="4.24002">
        <ele>491</ele>
        <time>2018-06-03T07:24:55.000Z</time>
      </trkpt>
      <trkpt lat="44.5418" lon="4.24002">
        <ele>491</ele>
        <time>2018-06-03T07:24:56.000Z</time>
      </trkpt>
      <trkpt lat="44.54179" lon="4.24003">
        <ele>491</ele>
        <time>2018-06-03T07:24:57.000Z</time>
      </trkpt>
      <trkpt lat="44.54179" lon="4.24004">
        <ele>491</ele>
        <time>2018-06-03T07:24:58.000Z</time>
      </trkpt>
      <trkpt lat="44.54179" lon="4.24006">
        <ele>491</ele>
        <time>2018-06-03T07:24:59.000Z</time>
      </trkpt>
      <trkpt lat="44.54179" lon="4.24007">
        <ele>491</ele>
        <time>2018-06-03T07:25:00.000Z</time>
      </trkpt>
      <trkpt lat="44.54179" lon="4.24007">
        <ele>491</ele>
        <time>2018-06-03T07:25:01.000Z</time>
      </trkpt>
      <trkpt lat="44.54179" lon="4.24007">
        <ele>491</ele>
        <time>2018-06-03T07:25:02.000Z</time>
      </trkpt>
      <trkpt lat="44.54179" lon="4.24008">
        <ele>491</ele>
        <time>2018-06-03T07:25:03.000Z</time>
      </trkpt>
      <trkpt lat="44.54179" lon="4.24008">
        <ele>491</ele>
        <time>2018-06-03T07:25:04.000Z</time>
      </trkpt>
      <trkpt lat="44.54179" lon="4.2401">
        <ele>491</ele>
        <time>2018-06-03T07:25:05.000Z</time>
      </trkpt>
      <trkpt lat="44.5418" lon="4.24013">
        <ele>491</ele>
        <time>2018-06-03T07:25:06.000Z</time>
      </trkpt>
      <trkpt lat="44.5418" lon="4.24015">
        <ele>492</ele>
        <time>2018-06-03T07:25:07.000Z</time>
      </trkpt>
      <trkpt lat="44.5418" lon="4.24018">
        <ele>492</ele>
        <time>2018-06-03T07:25:08.000Z</time>
      </trkpt>
      <trkpt lat="44.54181" lon="4.24022">
        <ele>492</ele>
        <time>2018-06-03T07:25:09.000Z</time>
      </trkpt>
      <trkpt lat="44.54182" lon="4.24026">
        <ele>492</ele>
        <time>2018-06-03T07:25:10.000Z</time>
      </trkpt>
      <trkpt lat="44.54183" lon="4.24028">
        <ele>492</ele>
        <time>2018-06-03T07:25:11.000Z</time>
      </trkpt>
      <trkpt lat="44.54183" lon="4.24031">
        <ele>492</ele>
        <time>2018-06-03T07:25:12.000Z</time>
      </trkpt>
      <trkpt lat="44.54183" lon="4.24034">
        <ele>492</ele>
        <time>2018-06-03T07:25:13.000Z</time>
      </trkpt>
      <trkpt lat="44.54183" lon="4.24036">
        <ele>492</ele>
        <time>2018-06-03T07:25:14.000Z</time>
      </trkpt>
      <trkpt lat="44.54185" lon="4.24038">
        <ele>492</ele>
        <time>2018-06-03T07:25:15.000Z</time>
      </trkpt>
      <trkpt lat="44.54185" lon="4.2404">
        <ele>492</ele>
        <time>2018-06-03T07:25:16.000Z</time>
      </trkpt>
      <trkpt lat="44.54186" lon="4.24041">
        <ele>492</ele>
        <time>2018-06-03T07:25:17.000Z</time>
      </trkpt>
      <trkpt lat="44.54188" lon="4.24043">
        <ele>492</ele>
        <time>2018-06-03T07:25:18.000Z</time>
      </trkpt>
      <trkpt lat="44.54189" lon="4.24045">
        <ele>492</ele>
        <time>2018-06-03T07:25:19.000Z</time>
      </trkpt>
      <trkpt lat="44.5419" lon="4.24048">
        <ele>493</ele>
        <time>2018-06-03T07:25:20.000Z</time>
      </trkpt>
      <trkpt lat="44.54191" lon="4.24051">
        <ele>493</ele>
        <time>2018-06-03T07:25:21.000Z</time>
      </trkpt>
      <trkpt lat="44.54192" lon="4.24054">
        <ele>493</ele>
        <time>2018-06-03T07:25:22.000Z</time>
      </trkpt>
      <trkpt lat="44.54194" lon="4.24057">
        <ele>493</ele>
        <time>2018-06-03T07:25:23.000Z</time>
      </trkpt>
      <trkpt lat="44.54195" lon="4.24059">
        <ele>493</ele>
        <time>2018-06-03T07:25:24.000Z</time>
      </trkpt>
      <trkpt lat="44.54197" lon="4.24062">
        <ele>493</ele>
        <time>2018-06-03T07:25:25.000Z</time>
      </trkpt>
      <trkpt lat="44.54199" lon="4.24064">
        <ele>493</ele>
        <time>2018-06-03T07:25:26.000Z</time>
      </trkpt>
      <trkpt lat="44.54201" lon="4.24067">
        <ele>493</ele>
        <time>2018-06-03T07:25:27.000Z</time>
      </trkpt>
      <trkpt lat="44.54204" lon="4.24069">
        <ele>493</ele>
        <time>2018-06-03T07:25:28.000Z</time>
      </trkpt>
      <trkpt lat="44.54207" lon="4.2407">
        <ele>493</ele>
        <time>2018-06-03T07:25:29.000Z</time>
      </trkpt>
      <trkpt lat="44.54209" lon="4.24072">
        <ele>493</ele>
        <time>2018-06-03T07:25:30.000Z</time>
      </trkpt>
      <trkpt lat="44.54212" lon="4.24073">
        <ele>493</ele>
        <time>2018-06-03T07:25:31.000Z</time>
      </trkpt>
      <trkpt lat="44.54214" lon="4.24073">
        <ele>493</ele>
        <time>2018-06-03T07:25:32.000Z</time>
      </trkpt>
      <trkpt lat="44.54217" lon="4.24072">
        <ele>493</ele>
        <time>2018-06-03T07:25:33.000Z</time>
      </trkpt>
      <trkpt lat="44.54221" lon="4.24072">
        <ele>493</ele>
        <time>2018-06-03T07:25:34.000Z</time>
      </trkpt>
      <trkpt lat="44.54224" lon="4.24071">
        <ele>493</ele>
        <time>2018-06-03T07:25:35.000Z</time>
      </trkpt>
      <trkpt lat="44.54227" lon="4.24071">
        <ele>493</ele>
        <time>2018-06-03T07:25:36.000Z</time>
      </trkpt>
      <trkpt lat="44.54229" lon="4.24071">
        <ele>493</ele>
        <time>2018-06-03T07:25:37.000Z</time>
      </trkpt>
      <trkpt lat="44.54232" lon="4.2407">
        <ele>493</ele>
        <time>2018-06-03T07:25:38.000Z</time>
      </trkpt>
      <trkpt lat="44.54234" lon="4.24069">
        <ele>493</ele>
        <time>2018-06-03T07:25:39.000Z</time>
      </trkpt>
      <trkpt lat="44.54236" lon="4.24069">
        <ele>493</ele>
        <time>2018-06-03T07:25:40.000Z</time>
      </trkpt>
      <trkpt lat="44.54238" lon="4.24069">
        <ele>493</ele>
        <time>2018-06-03T07:25:41.000Z</time>
      </trkpt>
      <trkpt lat="44.54241" lon="4.24069">
        <ele>493</ele>
        <time>2018-06-03T07:25:42.000Z</time>
      </trkpt>
      <trkpt lat="44.54243" lon="4.24068">
        <ele>493</ele>
        <time>2018-06-03T07:25:43.000Z</time>
      </trkpt>
      <trkpt lat="44.54245" lon="4.24067">
        <ele>493</ele>
        <time>2018-06-03T07:25:44.000Z</time>
      </trkpt>
      <trkpt lat="44.54247" lon="4.24066">
        <ele>493</ele>
        <time>2018-06-03T07:25:45.000Z</time>
      </trkpt>
      <trkpt lat="44.54249" lon="4.24067">
        <ele>493</ele>
        <time>2018-06-03T07:25:46.000Z</time>
      </trkpt>
      <trkpt lat="44.54252" lon="4.24066">
        <ele>491</ele>
        <time>2018-06-03T07:25:47.000Z</time>
      </trkpt>
      <trkpt lat="44.54254" lon="4.24066">
        <ele>491</ele>
        <time>2018-06-03T07:25:48.000Z</time>
      </trkpt>
      <trkpt lat="44.54256" lon="4.24066">
        <ele>491</ele>
        <time>2018-06-03T07:25:49.000Z</time>
      </trkpt>
      <trkpt lat="44.54258" lon="4.24066">
        <ele>491</ele>
        <time>2018-06-03T07:25:50.000Z</time>
      </trkpt>
      <trkpt lat="44.54261" lon="4.24067">
        <ele>491</ele>
        <time>2018-06-03T07:25:51.000Z</time>
      </trkpt>
      <trkpt lat="44.54263" lon="4.24068">
        <ele>491</ele>
        <time>2018-06-03T07:25:52.000Z</time>
      </trkpt>
      <trkpt lat="44.54265" lon="4.24069">
        <ele>490</ele>
        <time>2018-06-03T07:25:53.000Z</time>
      </trkpt>
      <trkpt lat="44.54268" lon="4.2407">
        <ele>490</ele>
        <time>2018-06-03T07:25:54.000Z</time>
      </trkpt>
      <trkpt lat="44.54271" lon="4.2407">
        <ele>490</ele>
        <time>2018-06-03T07:25:55.000Z</time>
      </trkpt>
      <trkpt lat="44.54274" lon="4.24071">
        <ele>490</ele>
        <time>2018-06-03T07:25:56.000Z</time>
      </trkpt>
      <trkpt lat="44.54276" lon="4.24071">
        <ele>490</ele>
        <time>2018-06-03T07:25:57.000Z</time>
      </trkpt>
      <trkpt lat="44.54279" lon="4.24072">
        <ele>490</ele>
        <time>2018-06-03T07:25:58.000Z</time>
      </trkpt>
      <trkpt lat="44.54282" lon="4.24072">
        <ele>490</ele>
        <time>2018-06-03T07:25:59.000Z</time>
      </trkpt>
      <trkpt lat="44.54285" lon="4.24073">
        <ele>490</ele>
        <time>2018-06-03T07:26:00.000Z</time>
      </trkpt>
      <trkpt lat="44.54287" lon="4.24073">
        <ele>490</ele>
        <time>2018-06-03T07:26:01.000Z</time>
      </trkpt>
      <trkpt lat="44.5429" lon="4.24073">
        <ele>490</ele>
        <time>2018-06-03T07:26:02.000Z</time>
      </trkpt>
      <trkpt lat="44.54292" lon="4.24073">
        <ele>490</ele>
        <time>2018-06-03T07:26:03.000Z</time>
      </trkpt>
      <trkpt lat="44.54295" lon="4.24073">
        <ele>490</ele>
        <time>2018-06-03T07:26:04.000Z</time>
      </trkpt>
      <trkpt lat="44.54298" lon="4.24074">
        <ele>490</ele>
        <time>2018-06-03T07:26:05.000Z</time>
      </trkpt>
      <trkpt lat="44.543" lon="4.24075">
        <ele>490</ele>
        <time>2018-06-03T07:26:06.000Z</time>
      </trkpt>
      <trkpt lat="44.54303" lon="4.24076">
        <ele>490</ele>
        <time>2018-06-03T07:26:07.000Z</time>
      </trkpt>
      <trkpt lat="44.54305" lon="4.24076">
        <ele>490</ele>
        <time>2018-06-03T07:26:08.000Z</time>
      </trkpt>
      <trkpt lat="44.54308" lon="4.24077">
        <ele>490</ele>
        <time>2018-06-03T07:26:09.000Z</time>
      </trkpt>
      <trkpt lat="44.5431" lon="4.24079">
        <ele>491</ele>
        <time>2018-06-03T07:26:10.000Z</time>
      </trkpt>
      <trkpt lat="44.54313" lon="4.24081">
        <ele>491</ele>
        <time>2018-06-03T07:26:11.000Z</time>
      </trkpt>
      <trkpt lat="44.54315" lon="4.24083">
        <ele>491</ele>
        <time>2018-06-03T07:26:12.000Z</time>
      </trkpt>
      <trkpt lat="44.54317" lon="4.24085">
        <ele>497</ele>
        <time>2018-06-03T07:26:13.000Z</time>
      </trkpt>
      <trkpt lat="44.54319" lon="4.24088">
        <ele>497</ele>
        <time>2018-06-03T07:26:14.000Z</time>
      </trkpt>
      <trkpt lat="44.54321" lon="4.2409">
        <ele>497</ele>
        <time>2018-06-03T07:26:15.000Z</time>
      </trkpt>
      <trkpt lat="44.54323" lon="4.24094">
        <ele>497</ele>
        <time>2018-06-03T07:26:16.000Z</time>
      </trkpt>
      <trkpt lat="44.54324" lon="4.24097">
        <ele>497</ele>
        <time>2018-06-03T07:26:17.000Z</time>
      </trkpt>
      <trkpt lat="44.54325" lon="4.241">
        <ele>497</ele>
        <time>2018-06-03T07:26:18.000Z</time>
      </trkpt>
      <trkpt lat="44.54326" lon="4.24103">
        <ele>498</ele>
        <time>2018-06-03T07:26:19.000Z</time>
      </trkpt>
      <trkpt lat="44.54328" lon="4.24106">
        <ele>498</ele>
        <time>2018-06-03T07:26:20.000Z</time>
      </trkpt>
      <trkpt lat="44.54329" lon="4.24108">
        <ele>498</ele>
        <time>2018-06-03T07:26:21.000Z</time>
      </trkpt>
      <trkpt lat="44.54331" lon="4.2411">
        <ele>498</ele>
        <time>2018-06-03T07:26:22.000Z</time>
      </trkpt>
      <trkpt lat="44.54333" lon="4.24112">
        <ele>499</ele>
        <time>2018-06-03T07:26:23.000Z</time>
      </trkpt>
      <trkpt lat="44.54335" lon="4.24113">
        <ele>500</ele>
        <time>2018-06-03T07:26:24.000Z</time>
      </trkpt>
      <trkpt lat="44.54337" lon="4.24114">
        <ele>500</ele>
        <time>2018-06-03T07:26:25.000Z</time>
      </trkpt>
      <trkpt lat="44.54339" lon="4.24116">
        <ele>501</ele>
        <time>2018-06-03T07:26:26.000Z</time>
      </trkpt>
      <trkpt lat="44.54341" lon="4.24117">
        <ele>501</ele>
        <time>2018-06-03T07:26:27.000Z</time>
      </trkpt>
      <trkpt lat="44.54343" lon="4.24117">
        <ele>501</ele>
        <time>2018-06-03T07:26:28.000Z</time>
      </trkpt>
      <trkpt lat="44.54345" lon="4.24117">
        <ele>501</ele>
        <time>2018-06-03T07:26:29.000Z</time>
      </trkpt>
      <trkpt lat="44.54348" lon="4.24117">
        <ele>501</ele>
        <time>2018-06-03T07:26:30.000Z</time>
      </trkpt>
      <trkpt lat="44.54351" lon="4.24117">
        <ele>501</ele>
        <time>2018-06-03T07:26:31.000Z</time>
      </trkpt>
      <trkpt lat="44.54354" lon="4.24117">
        <ele>501</ele>
        <time>2018-06-03T07:26:32.000Z</time>
      </trkpt>
      <trkpt lat="44.54357" lon="4.24118">
        <ele>501</ele>
        <time>2018-06-03T07:26:33.000Z</time>
      </trkpt>
      <trkpt lat="44.54359" lon="4.24118">
        <ele>501</ele>
        <time>2018-06-03T07:26:34.000Z</time>
      </trkpt>
      <trkpt lat="44.54362" lon="4.24117">
        <ele>501</ele>
        <time>2018-06-03T07:26:35.000Z</time>
      </trkpt>
      <trkpt lat="44.54365" lon="4.24117">
        <ele>501</ele>
        <time>2018-06-03T07:26:36.000Z</time>
      </trkpt>
      <trkpt lat="44.54368" lon="4.24117">
        <ele>501</ele>
        <time>2018-06-03T07:26:37.000Z</time>
      </trkpt>
      <trkpt lat="44.5437" lon="4.24117">
        <ele>501</ele>
        <time>2018-06-03T07:26:38.000Z</time>
      </trkpt>
      <trkpt lat="44.54372" lon="4.24118">
        <ele>501</ele>
        <time>2018-06-03T07:26:39.000Z</time>
      </trkpt>
      <trkpt lat="44.54375" lon="4.24118">
        <ele>501</ele>
        <time>2018-06-03T07:26:40.000Z</time>
      </trkpt>
      <trkpt lat="44.54377" lon="4.24119">
        <ele>502</ele>
        <time>2018-06-03T07:26:41.000Z</time>
      </trkpt>
      <trkpt lat="44.54379" lon="4.2412">
        <ele>502</ele>
        <time>2018-06-03T07:26:42.000Z</time>
      </trkpt>
      <trkpt lat="44.54382" lon="4.2412">
        <ele>502</ele>
        <time>2018-06-03T07:26:43.000Z</time>
      </trkpt>
      <trkpt lat="44.54384" lon="4.24119">
        <ele>502</ele>
        <time>2018-06-03T07:26:44.000Z</time>
      </trkpt>
      <trkpt lat="44.54386" lon="4.24119">
        <ele>502</ele>
        <time>2018-06-03T07:26:45.000Z</time>
      </trkpt>
      <trkpt lat="44.54389" lon="4.24119">
        <ele>502</ele>
        <time>2018-06-03T07:26:46.000Z</time>
      </trkpt>
      <trkpt lat="44.54391" lon="4.2412">
        <ele>502</ele>
        <time>2018-06-03T07:26:47.000Z</time>
      </trkpt>
      <trkpt lat="44.54394" lon="4.2412">
        <ele>502</ele>
        <time>2018-06-03T07:26:48.000Z</time>
      </trkpt>
      <trkpt lat="44.54396" lon="4.24121">
        <ele>502</ele>
        <time>2018-06-03T07:26:49.000Z</time>
      </trkpt>
      <trkpt lat="44.54398" lon="4.24121">
        <ele>502</ele>
        <time>2018-06-03T07:26:50.000Z</time>
      </trkpt>
      <trkpt lat="44.54401" lon="4.24122">
        <ele>502</ele>
        <time>2018-06-03T07:26:51.000Z</time>
      </trkpt>
      <trkpt lat="44.54403" lon="4.24122">
        <ele>502</ele>
        <time>2018-06-03T07:26:52.000Z</time>
      </trkpt>
      <trkpt lat="44.54406" lon="4.24123">
        <ele>502</ele>
        <time>2018-06-03T07:26:53.000Z</time>
      </trkpt>
      <trkpt lat="44.54408" lon="4.24124">
        <ele>502</ele>
        <time>2018-06-03T07:26:54.000Z</time>
      </trkpt>
      <trkpt lat="44.54411" lon="4.24125">
        <ele>502</ele>
        <time>2018-06-03T07:26:55.000Z</time>
      </trkpt>
      <trkpt lat="44.54414" lon="4.24127">
        <ele>502</ele>
        <time>2018-06-03T07:26:56.000Z</time>
      </trkpt>
      <trkpt lat="44.54417" lon="4.24128">
        <ele>503</ele>
        <time>2018-06-03T07:26:57.000Z</time>
      </trkpt>
      <trkpt lat="44.5442" lon="4.2413">
        <ele>503</ele>
        <time>2018-06-03T07:26:58.000Z</time>
      </trkpt>
      <trkpt lat="44.54422" lon="4.24132">
        <ele>503</ele>
        <time>2018-06-03T07:26:59.000Z</time>
      </trkpt>
      <trkpt lat="44.54425" lon="4.24133">
        <ele>503</ele>
        <time>2018-06-03T07:27:00.000Z</time>
      </trkpt>
      <trkpt lat="44.54428" lon="4.24135">
        <ele>503</ele>
        <time>2018-06-03T07:27:01.000Z</time>
      </trkpt>
      <trkpt lat="44.5443" lon="4.24137">
        <ele>503</ele>
        <time>2018-06-03T07:27:02.000Z</time>
      </trkpt>
      <trkpt lat="44.54433" lon="4.24137">
        <ele>503</ele>
        <time>2018-06-03T07:27:03.000Z</time>
      </trkpt>
      <trkpt lat="44.54435" lon="4.24138">
        <ele>503</ele>
        <time>2018-06-03T07:27:04.000Z</time>
      </trkpt>
      <trkpt lat="44.54437" lon="4.24139">
        <ele>504</ele>
        <time>2018-06-03T07:27:05.000Z</time>
      </trkpt>
      <trkpt lat="44.54439" lon="4.2414">
        <ele>504</ele>
        <time>2018-06-03T07:27:06.000Z</time>
      </trkpt>
      <trkpt lat="44.54441" lon="4.2414">
        <ele>504</ele>
        <time>2018-06-03T07:27:07.000Z</time>
      </trkpt>
      <trkpt lat="44.54443" lon="4.24141">
        <ele>504</ele>
        <time>2018-06-03T07:27:08.000Z</time>
      </trkpt>
      <trkpt lat="44.54445" lon="4.24141">
        <ele>504</ele>
        <time>2018-06-03T07:27:09.000Z</time>
      </trkpt>
      <trkpt lat="44.54447" lon="4.24142">
        <ele>504</ele>
        <time>2018-06-03T07:27:10.000Z</time>
      </trkpt>
      <trkpt lat="44.54449" lon="4.24142">
        <ele>504</ele>
        <time>2018-06-03T07:27:11.000Z</time>
      </trkpt>
      <trkpt lat="44.54452" lon="4.24144">
        <ele>504</ele>
        <time>2018-06-03T07:27:12.000Z</time>
      </trkpt>
      <trkpt lat="44.54454" lon="4.24145">
        <ele>504</ele>
        <time>2018-06-03T07:27:13.000Z</time>
      </trkpt>
      <trkpt lat="44.54456" lon="4.24146">
        <ele>504</ele>
        <time>2018-06-03T07:27:14.000Z</time>
      </trkpt>
      <trkpt lat="44.54457" lon="4.24147">
        <ele>504</ele>
        <time>2018-06-03T07:27:15.000Z</time>
      </trkpt>
      <trkpt lat="44.54459" lon="4.24149">
        <ele>504</ele>
        <time>2018-06-03T07:27:16.000Z</time>
      </trkpt>
      <trkpt lat="44.54461" lon="4.24151">
        <ele>504</ele>
        <time>2018-06-03T07:27:17.000Z</time>
      </trkpt>
      <trkpt lat="44.54463" lon="4.24153">
        <ele>504</ele>
        <time>2018-06-03T07:27:18.000Z</time>
      </trkpt>
      <trkpt lat="44.54466" lon="4.24154">
        <ele>504</ele>
        <time>2018-06-03T07:27:19.000Z</time>
      </trkpt>
      <trkpt lat="44.54468" lon="4.24155">
        <ele>505</ele>
        <time>2018-06-03T07:27:20.000Z</time>
      </trkpt>
      <trkpt lat="44.5447" lon="4.24156">
        <ele>505</ele>
        <time>2018-06-03T07:27:21.000Z</time>
      </trkpt>
      <trkpt lat="44.54472" lon="4.24157">
        <ele>505</ele>
        <time>2018-06-03T07:27:22.000Z</time>
      </trkpt>
      <trkpt lat="44.54474" lon="4.24159">
        <ele>505</ele>
        <time>2018-06-03T07:27:23.000Z</time>
      </trkpt>
      <trkpt lat="44.54477" lon="4.24161">
        <ele>505</ele>
        <time>2018-06-03T07:27:24.000Z</time>
      </trkpt>
      <trkpt lat="44.54479" lon="4.24163">
        <ele>506</ele>
        <time>2018-06-03T07:27:25.000Z</time>
      </trkpt>
      <trkpt lat="44.5448" lon="4.24166">
        <ele>506</ele>
        <time>2018-06-03T07:27:26.000Z</time>
      </trkpt>
      <trkpt lat="44.54482" lon="4.24169">
        <ele>512</ele>
        <time>2018-06-03T07:27:27.000Z</time>
      </trkpt>
      <trkpt lat="44.54484" lon="4.24172">
        <ele>512</ele>
        <time>2018-06-03T07:27:28.000Z</time>
      </trkpt>
      <trkpt lat="44.54486" lon="4.24174">
        <ele>512</ele>
        <time>2018-06-03T07:27:29.000Z</time>
      </trkpt>
      <trkpt lat="44.54489" lon="4.24176">
        <ele>512</ele>
        <time>2018-06-03T07:27:30.000Z</time>
      </trkpt>
      <trkpt lat="44.54491" lon="4.24178">
        <ele>512</ele>
        <time>2018-06-03T07:27:31.000Z</time>
      </trkpt>
      <trkpt lat="44.54493" lon="4.2418">
        <ele>512</ele>
        <time>2018-06-03T07:27:32.000Z</time>
      </trkpt>
      <trkpt lat="44.54496" lon="4.24182">
        <ele>512</ele>
        <time>2018-06-03T07:27:33.000Z</time>
      </trkpt>
      <trkpt lat="44.54498" lon="4.24184">
        <ele>512</ele>
        <time>2018-06-03T07:27:34.000Z</time>
      </trkpt>
      <trkpt lat="44.54501" lon="4.24186">
        <ele>511</ele>
        <time>2018-06-03T07:27:35.000Z</time>
      </trkpt>
      <trkpt lat="44.54503" lon="4.24189">
        <ele>511</ele>
        <time>2018-06-03T07:27:36.000Z</time>
      </trkpt>
      <trkpt lat="44.54506" lon="4.24191">
        <ele>512</ele>
        <time>2018-06-03T07:27:37.000Z</time>
      </trkpt>
      <trkpt lat="44.54508" lon="4.24194">
        <ele>512</ele>
        <time>2018-06-03T07:27:38.000Z</time>
      </trkpt>
      <trkpt lat="44.54511" lon="4.24197">
        <ele>512</ele>
        <time>2018-06-03T07:27:39.000Z</time>
      </trkpt>
      <trkpt lat="44.54514" lon="4.24198">
        <ele>512</ele>
        <time>2018-06-03T07:27:40.000Z</time>
      </trkpt>
      <trkpt lat="44.54516" lon="4.24201">
        <ele>512</ele>
        <time>2018-06-03T07:27:41.000Z</time>
      </trkpt>
      <trkpt lat="44.54518" lon="4.24203">
        <ele>512</ele>
        <time>2018-06-03T07:27:42.000Z</time>
      </trkpt>
      <trkpt lat="44.54521" lon="4.24205">
        <ele>512</ele>
        <time>2018-06-03T07:27:43.000Z</time>
      </trkpt>
      <trkpt lat="44.54523" lon="4.24207">
        <ele>512</ele>
        <time>2018-06-03T07:27:44.000Z</time>
      </trkpt>
      <trkpt lat="44.54525" lon="4.24209">
        <ele>512</ele>
        <time>2018-06-03T07:27:45.000Z</time>
      </trkpt>
      <trkpt lat="44.54528" lon="4.24211">
        <ele>512</ele>
        <time>2018-06-03T07:27:46.000Z</time>
      </trkpt>
      <trkpt lat="44.5453" lon="4.24213">
        <ele>512</ele>
        <time>2018-06-03T07:27:47.000Z</time>
      </trkpt>
      <trkpt lat="44.54532" lon="4.24215">
        <ele>512</ele>
        <time>2018-06-03T07:27:48.000Z</time>
      </trkpt>
      <trkpt lat="44.54535" lon="4.24218">
        <ele>512</ele>
        <time>2018-06-03T07:27:49.000Z</time>
      </trkpt>
      <trkpt lat="44.54537" lon="4.2422">
        <ele>512</ele>
        <time>2018-06-03T07:27:50.000Z</time>
      </trkpt>
      <trkpt lat="44.5454" lon="4.24222">
        <ele>512</ele>
        <time>2018-06-03T07:27:51.000Z</time>
      </trkpt>
      <trkpt lat="44.54542" lon="4.24225">
        <ele>512</ele>
        <time>2018-06-03T07:27:52.000Z</time>
      </trkpt>
      <trkpt lat="44.54544" lon="4.24228">
        <ele>512</ele>
        <time>2018-06-03T07:27:53.000Z</time>
      </trkpt>
      <trkpt lat="44.54547" lon="4.24231">
        <ele>512</ele>
        <time>2018-06-03T07:27:54.000Z</time>
      </trkpt>
      <trkpt lat="44.5455" lon="4.24234">
        <ele>512</ele>
        <time>2018-06-03T07:27:55.000Z</time>
      </trkpt>
      <trkpt lat="44.54553" lon="4.24236">
        <ele>512</ele>
        <time>2018-06-03T07:27:56.000Z</time>
      </trkpt>
      <trkpt lat="44.54557" lon="4.2424">
        <ele>512</ele>
        <time>2018-06-03T07:27:57.000Z</time>
      </trkpt>
      <trkpt lat="44.5456" lon="4.24245">
        <ele>512</ele>
        <time>2018-06-03T07:27:58.000Z</time>
      </trkpt>
      <trkpt lat="44.54564" lon="4.2425">
        <ele>514</ele>
        <time>2018-06-03T07:27:59.000Z</time>
      </trkpt>
      <trkpt lat="44.54567" lon="4.24256">
        <ele>514</ele>
        <time>2018-06-03T07:28:00.000Z</time>
      </trkpt>
      <trkpt lat="44.54571" lon="4.24262">
        <ele>514</ele>
        <time>2018-06-03T07:28:01.000Z</time>
      </trkpt>
      <trkpt lat="44.54575" lon="4.24267">
        <ele>514</ele>
        <time>2018-06-03T07:28:02.000Z</time>
      </trkpt>
      <trkpt lat="44.54578" lon="4.24272">
        <ele>514</ele>
        <time>2018-06-03T07:28:03.000Z</time>
      </trkpt>
      <trkpt lat="44.54581" lon="4.24277">
        <ele>514</ele>
        <time>2018-06-03T07:28:04.000Z</time>
      </trkpt>
      <trkpt lat="44.54583" lon="4.24283">
        <ele>514</ele>
        <time>2018-06-03T07:28:05.000Z</time>
      </trkpt>
      <trkpt lat="44.54584" lon="4.24292">
        <ele>511</ele>
        <time>2018-06-03T07:28:06.000Z</time>
      </trkpt>
      <trkpt lat="44.54585" lon="4.24299">
        <ele>511</ele>
        <time>2018-06-03T07:28:07.000Z</time>
      </trkpt>
      <trkpt lat="44.54586" lon="4.24308">
        <ele>511</ele>
        <time>2018-06-03T07:28:08.000Z</time>
      </trkpt>
      <trkpt lat="44.54586" lon="4.24315">
        <ele>511</ele>
        <time>2018-06-03T07:28:09.000Z</time>
      </trkpt>
      <trkpt lat="44.54586" lon="4.24324">
        <ele>511</ele>
        <time>2018-06-03T07:28:10.000Z</time>
      </trkpt>
      <trkpt lat="44.54587" lon="4.24332">
        <ele>512</ele>
        <time>2018-06-03T07:28:11.000Z</time>
      </trkpt>
      <trkpt lat="44.54589" lon="4.2434">
        <ele>511</ele>
        <time>2018-06-03T07:28:12.000Z</time>
      </trkpt>
      <trkpt lat="44.54591" lon="4.24348">
        <ele>510</ele>
        <time>2018-06-03T07:28:13.000Z</time>
      </trkpt>
      <trkpt lat="44.54592" lon="4.24355">
        <ele>510</ele>
        <time>2018-06-03T07:28:14.000Z</time>
      </trkpt>
      <trkpt lat="44.54594" lon="4.24363">
        <ele>510</ele>
        <time>2018-06-03T07:28:15.000Z</time>
      </trkpt>
      <trkpt lat="44.54596" lon="4.24372">
        <ele>509</ele>
        <time>2018-06-03T07:28:16.000Z</time>
      </trkpt>
      <trkpt lat="44.54598" lon="4.2438">
        <ele>509</ele>
        <time>2018-06-03T07:28:17.000Z</time>
      </trkpt>
      <trkpt lat="44.54599" lon="4.2439">
        <ele>509</ele>
        <time>2018-06-03T07:28:18.000Z</time>
      </trkpt>
      <trkpt lat="44.546" lon="4.24399">
        <ele>510</ele>
        <time>2018-06-03T07:28:19.000Z</time>
      </trkpt>
      <trkpt lat="44.54602" lon="4.24407">
        <ele>510</ele>
        <time>2018-06-03T07:28:20.000Z</time>
      </trkpt>
      <trkpt lat="44.54604" lon="4.24412">
        <ele>510</ele>
        <time>2018-06-03T07:28:21.000Z</time>
      </trkpt>
      <trkpt lat="44.54606" lon="4.24418">
        <ele>508</ele>
        <time>2018-06-03T07:28:22.000Z</time>
      </trkpt>
      <trkpt lat="44.54609" lon="4.24424">
        <ele>508</ele>
        <time>2018-06-03T07:28:23.000Z</time>
      </trkpt>
      <trkpt lat="44.54611" lon="4.2443">
        <ele>508</ele>
        <time>2018-06-03T07:28:24.000Z</time>
      </trkpt>
      <trkpt lat="44.54613" lon="4.24435">
        <ele>507</ele>
        <time>2018-06-03T07:28:25.000Z</time>
      </trkpt>
      <trkpt lat="44.54615" lon="4.24442">
        <ele>507</ele>
        <time>2018-06-03T07:28:26.000Z</time>
      </trkpt>
      <trkpt lat="44.54616" lon="4.24449">
        <ele>507</ele>
        <time>2018-06-03T07:28:27.000Z</time>
      </trkpt>
      <trkpt lat="44.54617" lon="4.24455">
        <ele>506</ele>
        <time>2018-06-03T07:28:28.000Z</time>
      </trkpt>
      <trkpt lat="44.54619" lon="4.24461">
        <ele>506</ele>
        <time>2018-06-03T07:28:29.000Z</time>
      </trkpt>
      <trkpt lat="44.54621" lon="4.24469">
        <ele>506</ele>
        <time>2018-06-03T07:28:30.000Z</time>
      </trkpt>
      <trkpt lat="44.54622" lon="4.24476">
        <ele>506</ele>
        <time>2018-06-03T07:28:31.000Z</time>
      </trkpt>
      <trkpt lat="44.54625" lon="4.24485">
        <ele>505</ele>
        <time>2018-06-03T07:28:32.000Z</time>
      </trkpt>
      <trkpt lat="44.54628" lon="4.24492">
        <ele>505</ele>
        <time>2018-06-03T07:28:33.000Z</time>
      </trkpt>
      <trkpt lat="44.54631" lon="4.245">
        <ele>505</ele>
        <time>2018-06-03T07:28:34.000Z</time>
      </trkpt>
      <trkpt lat="44.54634" lon="4.24509">
        <ele>503</ele>
        <time>2018-06-03T07:28:35.000Z</time>
      </trkpt>
      <trkpt lat="44.54636" lon="4.24517">
        <ele>502</ele>
        <time>2018-06-03T07:28:36.000Z</time>
      </trkpt>
      <trkpt lat="44.54637" lon="4.24526">
        <ele>502</ele>
        <time>2018-06-03T07:28:37.000Z</time>
      </trkpt>
      <trkpt lat="44.54637" lon="4.24535">
        <ele>502</ele>
        <time>2018-06-03T07:28:38.000Z</time>
      </trkpt>
      <trkpt lat="44.54636" lon="4.24544">
        <ele>502</ele>
        <time>2018-06-03T07:28:39.000Z</time>
      </trkpt>
      <trkpt lat="44.54636" lon="4.24551">
        <ele>502</ele>
        <time>2018-06-03T07:28:40.000Z</time>
      </trkpt>
      <trkpt lat="44.54635" lon="4.24559">
        <ele>502</ele>
        <time>2018-06-03T07:28:41.000Z</time>
      </trkpt>
      <trkpt lat="44.54636" lon="4.24568">
        <ele>501</ele>
        <time>2018-06-03T07:28:42.000Z</time>
      </trkpt>
      <trkpt lat="44.54636" lon="4.24575">
        <ele>501</ele>
        <time>2018-06-03T07:28:43.000Z</time>
      </trkpt>
      <trkpt lat="44.54637" lon="4.24583">
        <ele>501</ele>
        <time>2018-06-03T07:28:44.000Z</time>
      </trkpt>
      <trkpt lat="44.54637" lon="4.24592">
        <ele>498</ele>
        <time>2018-06-03T07:28:45.000Z</time>
      </trkpt>
      <trkpt lat="44.54637" lon="4.246">
        <ele>498</ele>
        <time>2018-06-03T07:28:46.000Z</time>
      </trkpt>
      <trkpt lat="44.54638" lon="4.24609">
        <ele>498</ele>
        <time>2018-06-03T07:28:47.000Z</time>
      </trkpt>
      <trkpt lat="44.54638" lon="4.24617">
        <ele>498</ele>
        <time>2018-06-03T07:28:48.000Z</time>
      </trkpt>
      <trkpt lat="44.54638" lon="4.24625">
        <ele>498</ele>
        <time>2018-06-03T07:28:49.000Z</time>
      </trkpt>
      <trkpt lat="44.54637" lon="4.24634">
        <ele>498</ele>
        <time>2018-06-03T07:28:50.000Z</time>
      </trkpt>
      <trkpt lat="44.54636" lon="4.24644">
        <ele>497</ele>
        <time>2018-06-03T07:28:51.000Z</time>
      </trkpt>
      <trkpt lat="44.54635" lon="4.24653">
        <ele>497</ele>
        <time>2018-06-03T07:28:52.000Z</time>
      </trkpt>
      <trkpt lat="44.54634" lon="4.24661">
        <ele>497</ele>
        <time>2018-06-03T07:28:53.000Z</time>
      </trkpt>
      <trkpt lat="44.54633" lon="4.2467">
        <ele>494</ele>
        <time>2018-06-03T07:28:54.000Z</time>
      </trkpt>
      <trkpt lat="44.54631" lon="4.24678">
        <ele>494</ele>
        <time>2018-06-03T07:28:55.000Z</time>
      </trkpt>
      <trkpt lat="44.5463" lon="4.24686">
        <ele>495</ele>
        <time>2018-06-03T07:28:56.000Z</time>
      </trkpt>
      <trkpt lat="44.54631" lon="4.24693">
        <ele>494</ele>
        <time>2018-06-03T07:28:57.000Z</time>
      </trkpt>
      <trkpt lat="44.5463" lon="4.24702">
        <ele>494</ele>
        <time>2018-06-03T07:28:58.000Z</time>
      </trkpt>
      <trkpt lat="44.54629" lon="4.24711">
        <ele>494</ele>
        <time>2018-06-03T07:28:59.000Z</time>
      </trkpt>
      <trkpt lat="44.54628" lon="4.2472">
        <ele>494</ele>
        <time>2018-06-03T07:29:00.000Z</time>
      </trkpt>
      <trkpt lat="44.54625" lon="4.24729">
        <ele>494</ele>
        <time>2018-06-03T07:29:01.000Z</time>
      </trkpt>
      <trkpt lat="44.54623" lon="4.24738">
        <ele>495</ele>
        <time>2018-06-03T07:29:02.000Z</time>
      </trkpt>
      <trkpt lat="44.5462" lon="4.24746">
        <ele>495</ele>
        <time>2018-06-03T07:29:03.000Z</time>
      </trkpt>
      <trkpt lat="44.54618" lon="4.24754">
        <ele>493</ele>
        <time>2018-06-03T07:29:04.000Z</time>
      </trkpt>
      <trkpt lat="44.54616" lon="4.24763">
        <ele>493</ele>
        <time>2018-06-03T07:29:05.000Z</time>
      </trkpt>
      <trkpt lat="44.54614" lon="4.24772">
        <ele>493</ele>
        <time>2018-06-03T07:29:06.000Z</time>
      </trkpt>
      <trkpt lat="44.54612" lon="4.24781">
        <ele>493</ele>
        <time>2018-06-03T07:29:07.000Z</time>
      </trkpt>
      <trkpt lat="44.54612" lon="4.24789">
        <ele>493</ele>
        <time>2018-06-03T07:29:08.000Z</time>
      </trkpt>
      <trkpt lat="44.54611" lon="4.24797">
        <ele>493</ele>
        <time>2018-06-03T07:29:09.000Z</time>
      </trkpt>
      <trkpt lat="44.54611" lon="4.24805">
        <ele>493</ele>
        <time>2018-06-03T07:29:10.000Z</time>
      </trkpt>
      <trkpt lat="44.54612" lon="4.24813">
        <ele>493</ele>
        <time>2018-06-03T07:29:11.000Z</time>
      </trkpt>
      <trkpt lat="44.54612" lon="4.2482">
        <ele>493</ele>
        <time>2018-06-03T07:29:12.000Z</time>
      </trkpt>
      <trkpt lat="44.54613" lon="4.24828">
        <ele>493</ele>
        <time>2018-06-03T07:29:13.000Z</time>
      </trkpt>
      <trkpt lat="44.54614" lon="4.24836">
        <ele>492</ele>
        <time>2018-06-03T07:29:14.000Z</time>
      </trkpt>
      <trkpt lat="44.54614" lon="4.24843">
        <ele>492</ele>
        <time>2018-06-03T07:29:15.000Z</time>
      </trkpt>
      <trkpt lat="44.54615" lon="4.2485">
        <ele>492</ele>
        <time>2018-06-03T07:29:16.000Z</time>
      </trkpt>
      <trkpt lat="44.54616" lon="4.24857">
        <ele>492</ele>
        <time>2018-06-03T07:29:17.000Z</time>
      </trkpt>
      <trkpt lat="44.54616" lon="4.24864">
        <ele>492</ele>
        <time>2018-06-03T07:29:18.000Z</time>
      </trkpt>
      <trkpt lat="44.54617" lon="4.24872">
        <ele>492</ele>
        <time>2018-06-03T07:29:19.000Z</time>
      </trkpt>
      <trkpt lat="44.54617" lon="4.2488">
        <ele>492</ele>
        <time>2018-06-03T07:29:20.000Z</time>
      </trkpt>
      <trkpt lat="44.54617" lon="4.24887">
        <ele>492</ele>
        <time>2018-06-03T07:29:21.000Z</time>
      </trkpt>
      <trkpt lat="44.54617" lon="4.24894">
        <ele>492</ele>
        <time>2018-06-03T07:29:22.000Z</time>
      </trkpt>
      <trkpt lat="44.54618" lon="4.24902">
        <ele>492</ele>
        <time>2018-06-03T07:29:23.000Z</time>
      </trkpt>
      <trkpt lat="44.54618" lon="4.24909">
        <ele>492</ele>
        <time>2018-06-03T07:29:24.000Z</time>
      </trkpt>
      <trkpt lat="44.54618" lon="4.24915">
        <ele>492</ele>
        <time>2018-06-03T07:29:25.000Z</time>
      </trkpt>
      <trkpt lat="44.54619" lon="4.24921">
        <ele>493</ele>
        <time>2018-06-03T07:29:26.000Z</time>
      </trkpt>
      <trkpt lat="44.54619" lon="4.24927">
        <ele>493</ele>
        <time>2018-06-03T07:29:27.000Z</time>
      </trkpt>
      <trkpt lat="44.5462" lon="4.24933">
        <ele>493</ele>
        <time>2018-06-03T07:29:28.000Z</time>
      </trkpt>
      <trkpt lat="44.54621" lon="4.24937">
        <ele>493</ele>
        <time>2018-06-03T07:29:29.000Z</time>
      </trkpt>
      <trkpt lat="44.54622" lon="4.24942">
        <ele>493</ele>
        <time>2018-06-03T07:29:30.000Z</time>
      </trkpt>
      <trkpt lat="44.54623" lon="4.24944">
        <ele>493</ele>
        <time>2018-06-03T07:29:31.000Z</time>
      </trkpt>
      <trkpt lat="44.54625" lon="4.24944">
        <ele>493</ele>
        <time>2018-06-03T07:29:32.000Z</time>
      </trkpt>
      <trkpt lat="44.54628" lon="4.24943">
        <ele>492</ele>
        <time>2018-06-03T07:29:33.000Z</time>
      </trkpt>
      <trkpt lat="44.54631" lon="4.2494">
        <ele>492</ele>
        <time>2018-06-03T07:29:34.000Z</time>
      </trkpt>
      <trkpt lat="44.54633" lon="4.24934">
        <ele>491</ele>
        <time>2018-06-03T07:29:35.000Z</time>
      </trkpt>
      <trkpt lat="44.54636" lon="4.24929">
        <ele>491</ele>
        <time>2018-06-03T07:29:36.000Z</time>
      </trkpt>
      <trkpt lat="44.54639" lon="4.24926">
        <ele>490</ele>
        <time>2018-06-03T07:29:37.000Z</time>
      </trkpt>
      <trkpt lat="44.54642" lon="4.24925">
        <ele>489</ele>
        <time>2018-06-03T07:29:38.000Z</time>
      </trkpt>
      <trkpt lat="44.54645" lon="4.24924">
        <ele>489</ele>
        <time>2018-06-03T07:29:39.000Z</time>
      </trkpt>
      <trkpt lat="44.54649" lon="4.24925">
        <ele>488</ele>
        <time>2018-06-03T07:29:40.000Z</time>
      </trkpt>
      <trkpt lat="44.54653" lon="4.24928">
        <ele>488</ele>
        <time>2018-06-03T07:29:41.000Z</time>
      </trkpt>
      <trkpt lat="44.54656" lon="4.2493">
        <ele>487</ele>
        <time>2018-06-03T07:29:42.000Z</time>
      </trkpt>
      <trkpt lat="44.54659" lon="4.24933">
        <ele>487</ele>
        <time>2018-06-03T07:29:43.000Z</time>
      </trkpt>
      <trkpt lat="44.54661" lon="4.24935">
        <ele>487</ele>
        <time>2018-06-03T07:29:44.000Z</time>
      </trkpt>
      <trkpt lat="44.54664" lon="4.24937">
        <ele>487</ele>
        <time>2018-06-03T07:29:45.000Z</time>
      </trkpt>
      <trkpt lat="44.54667" lon="4.24938">
        <ele>487</ele>
        <time>2018-06-03T07:29:46.000Z</time>
      </trkpt>
      <trkpt lat="44.5467" lon="4.24937">
        <ele>478</ele>
        <time>2018-06-03T07:29:47.000Z</time>
      </trkpt>
      <trkpt lat="44.54674" lon="4.24937">
        <ele>478</ele>
        <time>2018-06-03T07:29:48.000Z</time>
      </trkpt>
      <trkpt lat="44.54678" lon="4.24935">
        <ele>477</ele>
        <time>2018-06-03T07:29:49.000Z</time>
      </trkpt>
      <trkpt lat="44.54682" lon="4.24932">
        <ele>477</ele>
        <time>2018-06-03T07:29:50.000Z</time>
      </trkpt>
      <trkpt lat="44.54685" lon="4.2493">
        <ele>477</ele>
        <time>2018-06-03T07:29:51.000Z</time>
      </trkpt>
      <trkpt lat="44.54687" lon="4.24929">
        <ele>477</ele>
        <time>2018-06-03T07:29:52.000Z</time>
      </trkpt>
      <trkpt lat="44.54689" lon="4.24929">
        <ele>476</ele>
        <time>2018-06-03T07:29:53.000Z</time>
      </trkpt>
      <trkpt lat="44.54692" lon="4.2493">
        <ele>476</ele>
        <time>2018-06-03T07:29:54.000Z</time>
      </trkpt>
      <trkpt lat="44.54695" lon="4.2493">
        <ele>476</ele>
        <time>2018-06-03T07:29:55.000Z</time>
      </trkpt>
      <trkpt lat="44.54699" lon="4.24929">
        <ele>475</ele>
        <time>2018-06-03T07:29:56.000Z</time>
      </trkpt>
      <trkpt lat="44.54703" lon="4.24927">
        <ele>474</ele>
        <time>2018-06-03T07:29:57.000Z</time>
      </trkpt>
      <trkpt lat="44.54709" lon="4.24927">
        <ele>473</ele>
        <time>2018-06-03T07:29:58.000Z</time>
      </trkpt>
      <trkpt lat="44.54714" lon="4.24925">
        <ele>473</ele>
        <time>2018-06-03T07:29:59.000Z</time>
      </trkpt>
      <trkpt lat="44.54718" lon="4.24925">
        <ele>472</ele>
        <time>2018-06-03T07:30:00.000Z</time>
      </trkpt>
      <trkpt lat="44.5472" lon="4.24927">
        <ele>472</ele>
        <time>2018-06-03T07:30:01.000Z</time>
      </trkpt>
      <trkpt lat="44.54721" lon="4.24931">
        <ele>472</ele>
        <time>2018-06-03T07:30:02.000Z</time>
      </trkpt>
      <trkpt lat="44.54724" lon="4.24933">
        <ele>471</ele>
        <time>2018-06-03T07:30:03.000Z</time>
      </trkpt>
      <trkpt lat="44.54726" lon="4.24936">
        <ele>471</ele>
        <time>2018-06-03T07:30:04.000Z</time>
      </trkpt>
      <trkpt lat="44.54728" lon="4.24939">
        <ele>471</ele>
        <time>2018-06-03T07:30:05.000Z</time>
      </trkpt>
      <trkpt lat="44.5473" lon="4.24943">
        <ele>471</ele>
        <time>2018-06-03T07:30:06.000Z</time>
      </trkpt>
      <trkpt lat="44.54732" lon="4.24947">
        <ele>471</ele>
        <time>2018-06-03T07:30:07.000Z</time>
      </trkpt>
      <trkpt lat="44.54734" lon="4.24952">
        <ele>471</ele>
        <time>2018-06-03T07:30:08.000Z</time>
      </trkpt>
      <trkpt lat="44.54734" lon="4.24957">
        <ele>471</ele>
        <time>2018-06-03T07:30:09.000Z</time>
      </trkpt>
      <trkpt lat="44.54735" lon="4.24962">
        <ele>471</ele>
        <time>2018-06-03T07:30:10.000Z</time>
      </trkpt>
      <trkpt lat="44.54737" lon="4.24969">
        <ele>471</ele>
        <time>2018-06-03T07:30:11.000Z</time>
      </trkpt>
      <trkpt lat="44.54739" lon="4.24975">
        <ele>470</ele>
        <time>2018-06-03T07:30:12.000Z</time>
      </trkpt>
      <trkpt lat="44.5474" lon="4.24983">
        <ele>470</ele>
        <time>2018-06-03T07:30:13.000Z</time>
      </trkpt>
      <trkpt lat="44.54741" lon="4.2499">
        <ele>469</ele>
        <time>2018-06-03T07:30:14.000Z</time>
      </trkpt>
      <trkpt lat="44.54741" lon="4.24996">
        <ele>468</ele>
        <time>2018-06-03T07:30:15.000Z</time>
      </trkpt>
      <trkpt lat="44.54743" lon="4.25001">
        <ele>467</ele>
        <time>2018-06-03T07:30:16.000Z</time>
      </trkpt>
      <trkpt lat="44.54745" lon="4.25005">
        <ele>467</ele>
        <time>2018-06-03T07:30:17.000Z</time>
      </trkpt>
      <trkpt lat="44.54749" lon="4.25006">
        <ele>467</ele>
        <time>2018-06-03T07:30:18.000Z</time>
      </trkpt>
      <trkpt lat="44.54753" lon="4.25007">
        <ele>462</ele>
        <time>2018-06-03T07:30:19.000Z</time>
      </trkpt>
      <trkpt lat="44.54756" lon="4.25006">
        <ele>462</ele>
        <time>2018-06-03T07:30:20.000Z</time>
      </trkpt>
      <trkpt lat="44.54758" lon="4.25003">
        <ele>461</ele>
        <time>2018-06-03T07:30:21.000Z</time>
      </trkpt>
      <trkpt lat="44.5476" lon="4.24999">
        <ele>461</ele>
        <time>2018-06-03T07:30:22.000Z</time>
      </trkpt>
      <trkpt lat="44.54761" lon="4.24995">
        <ele>461</ele>
        <time>2018-06-03T07:30:23.000Z</time>
      </trkpt>
      <trkpt lat="44.54763" lon="4.24992">
        <ele>460</ele>
        <time>2018-06-03T07:30:24.000Z</time>
      </trkpt>
      <trkpt lat="44.54763" lon="4.24988">
        <ele>459</ele>
        <time>2018-06-03T07:30:25.000Z</time>
      </trkpt>
      <trkpt lat="44.54764" lon="4.24985">
        <ele>459</ele>
        <time>2018-06-03T07:30:26.000Z</time>
      </trkpt>
      <trkpt lat="44.54764" lon="4.24981">
        <ele>458</ele>
        <time>2018-06-03T07:30:27.000Z</time>
      </trkpt>
      <trkpt lat="44.54764" lon="4.24977">
        <ele>458</ele>
        <time>2018-06-03T07:30:28.000Z</time>
      </trkpt>
      <trkpt lat="44.54766" lon="4.24973">
        <ele>457</ele>
        <time>2018-06-03T07:30:29.000Z</time>
      </trkpt>
      <trkpt lat="44.54769" lon="4.2497">
        <ele>457</ele>
        <time>2018-06-03T07:30:30.000Z</time>
      </trkpt>
      <trkpt lat="44.54772" lon="4.24968">
        <ele>456</ele>
        <time>2018-06-03T07:30:31.000Z</time>
      </trkpt>
      <trkpt lat="44.54773" lon="4.24966">
        <ele>456</ele>
        <time>2018-06-03T07:30:32.000Z</time>
      </trkpt>
      <trkpt lat="44.54774" lon="4.24963">
        <ele>456</ele>
        <time>2018-06-03T07:30:33.000Z</time>
      </trkpt>
      <trkpt lat="44.54774" lon="4.2496">
        <ele>456</ele>
        <time>2018-06-03T07:30:34.000Z</time>
      </trkpt>
      <trkpt lat="44.54774" lon="4.24956">
        <ele>456</ele>
        <time>2018-06-03T07:30:35.000Z</time>
      </trkpt>
      <trkpt lat="44.54776" lon="4.24953">
        <ele>455</ele>
        <time>2018-06-03T07:30:36.000Z</time>
      </trkpt>
      <trkpt lat="44.54779" lon="4.24951">
        <ele>455</ele>
        <time>2018-06-03T07:30:37.000Z</time>
      </trkpt>
      <trkpt lat="44.54781" lon="4.24948">
        <ele>455</ele>
        <time>2018-06-03T07:30:38.000Z</time>
      </trkpt>
      <trkpt lat="44.54783" lon="4.24945">
        <ele>454</ele>
        <time>2018-06-03T07:30:39.000Z</time>
      </trkpt>
      <trkpt lat="44.54786" lon="4.24944">
        <ele>454</ele>
        <time>2018-06-03T07:30:40.000Z</time>
      </trkpt>
      <trkpt lat="44.54789" lon="4.24944">
        <ele>454</ele>
        <time>2018-06-03T07:30:41.000Z</time>
      </trkpt>
      <trkpt lat="44.54791" lon="4.24944">
        <ele>453</ele>
        <time>2018-06-03T07:30:42.000Z</time>
      </trkpt>
      <trkpt lat="44.54793" lon="4.24944">
        <ele>453</ele>
        <time>2018-06-03T07:30:43.000Z</time>
      </trkpt>
      <trkpt lat="44.54795" lon="4.24944">
        <ele>453</ele>
        <time>2018-06-03T07:30:44.000Z</time>
      </trkpt>
      <trkpt lat="44.54796" lon="4.24943">
        <ele>452</ele>
        <time>2018-06-03T07:30:45.000Z</time>
      </trkpt>
      <trkpt lat="44.54797" lon="4.24941">
        <ele>452</ele>
        <time>2018-06-03T07:30:46.000Z</time>
      </trkpt>
      <trkpt lat="44.54798" lon="4.24938">
        <ele>452</ele>
        <time>2018-06-03T07:30:47.000Z</time>
      </trkpt>
      <trkpt lat="44.54798" lon="4.24936">
        <ele>452</ele>
        <time>2018-06-03T07:30:48.000Z</time>
      </trkpt>
      <trkpt lat="44.54797" lon="4.24934">
        <ele>452</ele>
        <time>2018-06-03T07:30:49.000Z</time>
      </trkpt>
      <trkpt lat="44.54797" lon="4.24932">
        <ele>452</ele>
        <time>2018-06-03T07:30:50.000Z</time>
      </trkpt>
      <trkpt lat="44.54797" lon="4.2493">
        <ele>452</ele>
        <time>2018-06-03T07:30:51.000Z</time>
      </trkpt>
      <trkpt lat="44.54799" lon="4.2493">
        <ele>452</ele>
        <time>2018-06-03T07:30:52.000Z</time>
      </trkpt>
      <trkpt lat="44.548" lon="4.24929">
        <ele>451</ele>
        <time>2018-06-03T07:30:53.000Z</time>
      </trkpt>
      <trkpt lat="44.548" lon="4.2493">
        <ele>451</ele>
        <time>2018-06-03T07:30:54.000Z</time>
      </trkpt>
      <trkpt lat="44.54801" lon="4.24931">
        <ele>451</ele>
        <time>2018-06-03T07:30:55.000Z</time>
      </trkpt>
      <trkpt lat="44.54801" lon="4.24933">
        <ele>451</ele>
        <time>2018-06-03T07:30:56.000Z</time>
      </trkpt>
      <trkpt lat="44.54803" lon="4.24935">
        <ele>451</ele>
        <time>2018-06-03T07:30:57.000Z</time>
      </trkpt>
      <trkpt lat="44.54804" lon="4.24938">
        <ele>451</ele>
        <time>2018-06-03T07:30:58.000Z</time>
      </trkpt>
      <trkpt lat="44.54806" lon="4.24941">
        <ele>451</ele>
        <time>2018-06-03T07:30:59.000Z</time>
      </trkpt>
      <trkpt lat="44.54808" lon="4.24943">
        <ele>451</ele>
        <time>2018-06-03T07:31:00.000Z</time>
      </trkpt>
      <trkpt lat="44.5481" lon="4.24947">
        <ele>451</ele>
        <time>2018-06-03T07:31:01.000Z</time>
      </trkpt>
      <trkpt lat="44.54812" lon="4.24949">
        <ele>450</ele>
        <time>2018-06-03T07:31:02.000Z</time>
      </trkpt>
      <trkpt lat="44.54814" lon="4.2495">
        <ele>450</ele>
        <time>2018-06-03T07:31:03.000Z</time>
      </trkpt>
      <trkpt lat="44.54816" lon="4.2495">
        <ele>450</ele>
        <time>2018-06-03T07:31:04.000Z</time>
      </trkpt>
      <trkpt lat="44.54816" lon="4.24948">
        <ele>450</ele>
        <time>2018-06-03T07:31:05.000Z</time>
      </trkpt>
      <trkpt lat="44.54816" lon="4.24946">
        <ele>450</ele>
        <time>2018-06-03T07:31:06.000Z</time>
      </trkpt>
      <trkpt lat="44.54816" lon="4.24942">
        <ele>449</ele>
        <time>2018-06-03T07:31:07.000Z</time>
      </trkpt>
      <trkpt lat="44.54815" lon="4.24938">
        <ele>449</ele>
        <time>2018-06-03T07:31:08.000Z</time>
      </trkpt>
      <trkpt lat="44.54814" lon="4.24934">
        <ele>449</ele>
        <time>2018-06-03T07:31:09.000Z</time>
      </trkpt>
      <trkpt lat="44.54814" lon="4.2493">
        <ele>448</ele>
        <time>2018-06-03T07:31:10.000Z</time>
      </trkpt>
      <trkpt lat="44.54814" lon="4.24926">
        <ele>448</ele>
        <time>2018-06-03T07:31:11.000Z</time>
      </trkpt>
      <trkpt lat="44.54814" lon="4.24923">
        <ele>447</ele>
        <time>2018-06-03T07:31:12.000Z</time>
      </trkpt>
      <trkpt lat="44.54815" lon="4.24919">
        <ele>447</ele>
        <time>2018-06-03T07:31:13.000Z</time>
      </trkpt>
      <trkpt lat="44.54816" lon="4.24916">
        <ele>444</ele>
        <time>2018-06-03T07:31:14.000Z</time>
      </trkpt>
      <trkpt lat="44.54819" lon="4.24916">
        <ele>443</ele>
        <time>2018-06-03T07:31:15.000Z</time>
      </trkpt>
      <trkpt lat="44.54821" lon="4.24918">
        <ele>445</ele>
        <time>2018-06-03T07:31:16.000Z</time>
      </trkpt>
      <trkpt lat="44.54823" lon="4.24921">
        <ele>444</ele>
        <time>2018-06-03T07:31:17.000Z</time>
      </trkpt>
      <trkpt lat="44.54826" lon="4.24924">
        <ele>444</ele>
        <time>2018-06-03T07:31:18.000Z</time>
      </trkpt>
      <trkpt lat="44.54829" lon="4.24926">
        <ele>444</ele>
        <time>2018-06-03T07:31:19.000Z</time>
      </trkpt>
      <trkpt lat="44.54832" lon="4.24929">
        <ele>444</ele>
        <time>2018-06-03T07:31:20.000Z</time>
      </trkpt>
      <trkpt lat="44.54835" lon="4.24933">
        <ele>433</ele>
        <time>2018-06-03T07:31:21.000Z</time>
      </trkpt>
      <trkpt lat="44.54837" lon="4.24938">
        <ele>432</ele>
        <time>2018-06-03T07:31:22.000Z</time>
      </trkpt>
      <trkpt lat="44.54839" lon="4.24943">
        <ele>432</ele>
        <time>2018-06-03T07:31:23.000Z</time>
      </trkpt>
      <trkpt lat="44.54841" lon="4.24946">
        <ele>431</ele>
        <time>2018-06-03T07:31:24.000Z</time>
      </trkpt>
      <trkpt lat="44.54843" lon="4.24949">
        <ele>431</ele>
        <time>2018-06-03T07:31:25.000Z</time>
      </trkpt>
      <trkpt lat="44.54845" lon="4.24952">
        <ele>431</ele>
        <time>2018-06-03T07:31:26.000Z</time>
      </trkpt>
      <trkpt lat="44.54847" lon="4.24954">
        <ele>430</ele>
        <time>2018-06-03T07:31:27.000Z</time>
      </trkpt>
      <trkpt lat="44.54849" lon="4.24958">
        <ele>430</ele>
        <time>2018-06-03T07:31:28.000Z</time>
      </trkpt>
      <trkpt lat="44.54851" lon="4.24962">
        <ele>430</ele>
        <time>2018-06-03T07:31:29.000Z</time>
      </trkpt>
      <trkpt lat="44.54852" lon="4.24967">
        <ele>430</ele>
        <time>2018-06-03T07:31:30.000Z</time>
      </trkpt>
      <trkpt lat="44.54855" lon="4.24971">
        <ele>430</ele>
        <time>2018-06-03T07:31:31.000Z</time>
      </trkpt>
      <trkpt lat="44.54857" lon="4.24975">
        <ele>430</ele>
        <time>2018-06-03T07:31:32.000Z</time>
      </trkpt>
      <trkpt lat="44.54858" lon="4.24979">
        <ele>431</ele>
        <time>2018-06-03T07:31:33.000Z</time>
      </trkpt>
      <trkpt lat="44.5486" lon="4.24983">
        <ele>430</ele>
        <time>2018-06-03T07:31:34.000Z</time>
      </trkpt>
      <trkpt lat="44.54861" lon="4.24984">
        <ele>430</ele>
        <time>2018-06-03T07:31:35.000Z</time>
      </trkpt>
      <trkpt lat="44.54863" lon="4.24984">
        <ele>430</ele>
        <time>2018-06-03T07:31:36.000Z</time>
      </trkpt>
      <trkpt lat="44.54864" lon="4.24982">
        <ele>429</ele>
        <time>2018-06-03T07:31:37.000Z</time>
      </trkpt>
      <trkpt lat="44.54865" lon="4.24979">
        <ele>429</ele>
        <time>2018-06-03T07:31:38.000Z</time>
      </trkpt>
      <trkpt lat="44.54865" lon="4.24975">
        <ele>428</ele>
        <time>2018-06-03T07:31:39.000Z</time>
      </trkpt>
      <trkpt lat="44.54865" lon="4.24971">
        <ele>428</ele>
        <time>2018-06-03T07:31:40.000Z</time>
      </trkpt>
      <trkpt lat="44.54866" lon="4.24968">
        <ele>428</ele>
        <time>2018-06-03T07:31:41.000Z</time>
      </trkpt>
      <trkpt lat="44.54866" lon="4.24965">
        <ele>428</ele>
        <time>2018-06-03T07:31:42.000Z</time>
      </trkpt>
      <trkpt lat="44.54867" lon="4.24962">
        <ele>427</ele>
        <time>2018-06-03T07:31:43.000Z</time>
      </trkpt>
      <trkpt lat="44.54868" lon="4.24959">
        <ele>427</ele>
        <time>2018-06-03T07:31:44.000Z</time>
      </trkpt>
      <trkpt lat="44.54869" lon="4.24955">
        <ele>427</ele>
        <time>2018-06-03T07:31:45.000Z</time>
      </trkpt>
      <trkpt lat="44.5487" lon="4.24951">
        <ele>426</ele>
        <time>2018-06-03T07:31:46.000Z</time>
      </trkpt>
      <trkpt lat="44.54871" lon="4.24948">
        <ele>426</ele>
        <time>2018-06-03T07:31:47.000Z</time>
      </trkpt>
      <trkpt lat="44.54871" lon="4.24943">
        <ele>426</ele>
        <time>2018-06-03T07:31:48.000Z</time>
      </trkpt>
      <trkpt lat="44.5487" lon="4.24937">
        <ele>426</ele>
        <time>2018-06-03T07:31:49.000Z</time>
      </trkpt>
      <trkpt lat="44.54869" lon="4.24931">
        <ele>426</ele>
        <time>2018-06-03T07:31:50.000Z</time>
      </trkpt>
      <trkpt lat="44.54869" lon="4.24925">
        <ele>427</ele>
        <time>2018-06-03T07:31:51.000Z</time>
      </trkpt>
      <trkpt lat="44.54868" lon="4.2492">
        <ele>427</ele>
        <time>2018-06-03T07:31:52.000Z</time>
      </trkpt>
      <trkpt lat="44.54868" lon="4.24916">
        <ele>422</ele>
        <time>2018-06-03T07:31:53.000Z</time>
      </trkpt>
      <trkpt lat="44.54867" lon="4.2491">
        <ele>422</ele>
        <time>2018-06-03T07:31:54.000Z</time>
      </trkpt>
      <trkpt lat="44.54866" lon="4.24905">
        <ele>422</ele>
        <time>2018-06-03T07:31:55.000Z</time>
      </trkpt>
      <trkpt lat="44.54865" lon="4.249">
        <ele>422</ele>
        <time>2018-06-03T07:31:56.000Z</time>
      </trkpt>
      <trkpt lat="44.54864" lon="4.24894">
        <ele>422</ele>
        <time>2018-06-03T07:31:57.000Z</time>
      </trkpt>
      <trkpt lat="44.54863" lon="4.24891">
        <ele>422</ele>
        <time>2018-06-03T07:31:58.000Z</time>
      </trkpt>
      <trkpt lat="44.54863" lon="4.24889">
        <ele>421</ele>
        <time>2018-06-03T07:31:59.000Z</time>
      </trkpt>
      <trkpt lat="44.54864" lon="4.24887">
        <ele>421</ele>
        <time>2018-06-03T07:32:00.000Z</time>
      </trkpt>
      <trkpt lat="44.54865" lon="4.24886">
        <ele>421</ele>
        <time>2018-06-03T07:32:01.000Z</time>
      </trkpt>
      <trkpt lat="44.54867" lon="4.24886">
        <ele>420</ele>
        <time>2018-06-03T07:32:02.000Z</time>
      </trkpt>
      <trkpt lat="44.5487" lon="4.24886">
        <ele>420</ele>
        <time>2018-06-03T07:32:03.000Z</time>
      </trkpt>
      <trkpt lat="44.54872" lon="4.24887">
        <ele>419</ele>
        <time>2018-06-03T07:32:04.000Z</time>
      </trkpt>
      <trkpt lat="44.54874" lon="4.24888">
        <ele>419</ele>
        <time>2018-06-03T07:32:05.000Z</time>
      </trkpt>
      <trkpt lat="44.54875" lon="4.2489">
        <ele>419</ele>
        <time>2018-06-03T07:32:06.000Z</time>
      </trkpt>
      <trkpt lat="44.54878" lon="4.24894">
        <ele>419</ele>
        <time>2018-06-03T07:32:07.000Z</time>
      </trkpt>
      <trkpt lat="44.54881" lon="4.24897">
        <ele>418</ele>
        <time>2018-06-03T07:32:08.000Z</time>
      </trkpt>
      <trkpt lat="44.54884" lon="4.249">
        <ele>417</ele>
        <time>2018-06-03T07:32:09.000Z</time>
      </trkpt>
      <trkpt lat="44.54887" lon="4.24903">
        <ele>417</ele>
        <time>2018-06-03T07:32:10.000Z</time>
      </trkpt>
      <trkpt lat="44.54891" lon="4.24906">
        <ele>416</ele>
        <time>2018-06-03T07:32:11.000Z</time>
      </trkpt>
      <trkpt lat="44.54894" lon="4.24909">
        <ele>415</ele>
        <time>2018-06-03T07:32:12.000Z</time>
      </trkpt>
      <trkpt lat="44.54898" lon="4.24911">
        <ele>414</ele>
        <time>2018-06-03T07:32:13.000Z</time>
      </trkpt>
      <trkpt lat="44.54902" lon="4.24911">
        <ele>413</ele>
        <time>2018-06-03T07:32:14.000Z</time>
      </trkpt>
      <trkpt lat="44.54906" lon="4.24912">
        <ele>412</ele>
        <time>2018-06-03T07:32:15.000Z</time>
      </trkpt>
      <trkpt lat="44.54909" lon="4.24913">
        <ele>411</ele>
        <time>2018-06-03T07:32:16.000Z</time>
      </trkpt>
      <trkpt lat="44.54913" lon="4.24915">
        <ele>410</ele>
        <time>2018-06-03T07:32:17.000Z</time>
      </trkpt>
      <trkpt lat="44.54916" lon="4.24917">
        <ele>409</ele>
        <time>2018-06-03T07:32:18.000Z</time>
      </trkpt>
      <trkpt lat="44.54919" lon="4.24919">
        <ele>406</ele>
        <time>2018-06-03T07:32:19.000Z</time>
      </trkpt>
      <trkpt lat="44.54922" lon="4.24921">
        <ele>405</ele>
        <time>2018-06-03T07:32:20.000Z</time>
      </trkpt>
      <trkpt lat="44.54924" lon="4.24924">
        <ele>403</ele>
        <time>2018-06-03T07:32:21.000Z</time>
      </trkpt>
      <trkpt lat="44.54926" lon="4.24927">
        <ele>402</ele>
        <time>2018-06-03T07:32:22.000Z</time>
      </trkpt>
      <trkpt lat="44.54928" lon="4.24932">
        <ele>401</ele>
        <time>2018-06-03T07:32:23.000Z</time>
      </trkpt>
      <trkpt lat="44.5493" lon="4.24934">
        <ele>400</ele>
        <time>2018-06-03T07:32:24.000Z</time>
      </trkpt>
      <trkpt lat="44.54933" lon="4.24935">
        <ele>399</ele>
        <time>2018-06-03T07:32:25.000Z</time>
      </trkpt>
      <trkpt lat="44.54935" lon="4.24934">
        <ele>399</ele>
        <time>2018-06-03T07:32:26.000Z</time>
      </trkpt>
      <trkpt lat="44.54937" lon="4.24932">
        <ele>399</ele>
        <time>2018-06-03T07:32:27.000Z</time>
      </trkpt>
      <trkpt lat="44.54939" lon="4.24929">
        <ele>399</ele>
        <time>2018-06-03T07:32:28.000Z</time>
      </trkpt>
      <trkpt lat="44.54941" lon="4.24924">
        <ele>398</ele>
        <time>2018-06-03T07:32:29.000Z</time>
      </trkpt>
      <trkpt lat="44.54942" lon="4.2492">
        <ele>398</ele>
        <time>2018-06-03T07:32:30.000Z</time>
      </trkpt>
      <trkpt lat="44.54942" lon="4.24916">
        <ele>395</ele>
        <time>2018-06-03T07:32:31.000Z</time>
      </trkpt>
      <trkpt lat="44.54943" lon="4.24912">
        <ele>395</ele>
        <time>2018-06-03T07:32:32.000Z</time>
      </trkpt>
      <trkpt lat="44.54944" lon="4.24907">
        <ele>394</ele>
        <time>2018-06-03T07:32:33.000Z</time>
      </trkpt>
      <trkpt lat="44.54943" lon="4.24904">
        <ele>394</ele>
        <time>2018-06-03T07:32:34.000Z</time>
      </trkpt>
      <trkpt lat="44.54942" lon="4.24901">
        <ele>394</ele>
        <time>2018-06-03T07:32:35.000Z</time>
      </trkpt>
      <trkpt lat="44.5494" lon="4.24898">
        <ele>394</ele>
        <time>2018-06-03T07:32:36.000Z</time>
      </trkpt>
      <trkpt lat="44.54937" lon="4.24894">
        <ele>394</ele>
        <time>2018-06-03T07:32:37.000Z</time>
      </trkpt>
      <trkpt lat="44.54934" lon="4.2489">
        <ele>394</ele>
        <time>2018-06-03T07:32:38.000Z</time>
      </trkpt>
      <trkpt lat="44.5493" lon="4.24886">
        <ele>394</ele>
        <time>2018-06-03T07:32:39.000Z</time>
      </trkpt>
      <trkpt lat="44.54927" lon="4.24881">
        <ele>394</ele>
        <time>2018-06-03T07:32:40.000Z</time>
      </trkpt>
      <trkpt lat="44.54923" lon="4.24877">
        <ele>394</ele>
        <time>2018-06-03T07:32:41.000Z</time>
      </trkpt>
      <trkpt lat="44.5492" lon="4.24872">
        <ele>393</ele>
        <time>2018-06-03T07:32:42.000Z</time>
      </trkpt>
      <trkpt lat="44.54918" lon="4.24868">
        <ele>393</ele>
        <time>2018-06-03T07:32:43.000Z</time>
      </trkpt>
      <trkpt lat="44.54918" lon="4.24865">
        <ele>393</ele>
        <time>2018-06-03T07:32:44.000Z</time>
      </trkpt>
      <trkpt lat="44.54919" lon="4.24864">
        <ele>393</ele>
        <time>2018-06-03T07:32:45.000Z</time>
      </trkpt>
      <trkpt lat="44.54921" lon="4.24864">
        <ele>393</ele>
        <time>2018-06-03T07:32:46.000Z</time>
      </trkpt>
      <trkpt lat="44.54923" lon="4.24864">
        <ele>393</ele>
        <time>2018-06-03T07:32:47.000Z</time>
      </trkpt>
      <trkpt lat="44.54926" lon="4.24866">
        <ele>392</ele>
        <time>2018-06-03T07:32:48.000Z</time>
      </trkpt>
      <trkpt lat="44.54928" lon="4.24867">
        <ele>392</ele>
        <time>2018-06-03T07:32:49.000Z</time>
      </trkpt>
      <trkpt lat="44.54929" lon="4.24867">
        <ele>392</ele>
        <time>2018-06-03T07:32:50.000Z</time>
      </trkpt>
      <trkpt lat="44.54932" lon="4.24866">
        <ele>392</ele>
        <time>2018-06-03T07:32:51.000Z</time>
      </trkpt>
      <trkpt lat="44.54935" lon="4.24864">
        <ele>392</ele>
        <time>2018-06-03T07:32:52.000Z</time>
      </trkpt>
      <trkpt lat="44.54938" lon="4.24863">
        <ele>391</ele>
        <time>2018-06-03T07:32:53.000Z</time>
      </trkpt>
      <trkpt lat="44.54943" lon="4.24862">
        <ele>390</ele>
        <time>2018-06-03T07:32:54.000Z</time>
      </trkpt>
      <trkpt lat="44.54947" lon="4.2486">
        <ele>390</ele>
        <time>2018-06-03T07:32:55.000Z</time>
      </trkpt>
      <trkpt lat="44.54952" lon="4.24858">
        <ele>389</ele>
        <time>2018-06-03T07:32:56.000Z</time>
      </trkpt>
      <trkpt lat="44.54958" lon="4.24857">
        <ele>388</ele>
        <time>2018-06-03T07:32:57.000Z</time>
      </trkpt>
      <trkpt lat="44.54963" lon="4.24855">
        <ele>387</ele>
        <time>2018-06-03T07:32:58.000Z</time>
      </trkpt>
      <trkpt lat="44.54968" lon="4.24855">
        <ele>386</ele>
        <time>2018-06-03T07:32:59.000Z</time>
      </trkpt>
      <trkpt lat="44.54972" lon="4.24855">
        <ele>385</ele>
        <time>2018-06-03T07:33:00.000Z</time>
      </trkpt>
      <trkpt lat="44.54978" lon="4.24856">
        <ele>384</ele>
        <time>2018-06-03T07:33:01.000Z</time>
      </trkpt>
      <trkpt lat="44.54983" lon="4.24856">
        <ele>383</ele>
        <time>2018-06-03T07:33:02.000Z</time>
      </trkpt>
      <trkpt lat="44.54989" lon="4.24857">
        <ele>382</ele>
        <time>2018-06-03T07:33:03.000Z</time>
      </trkpt>
      <trkpt lat="44.54994" lon="4.24858">
        <ele>381</ele>
        <time>2018-06-03T07:33:04.000Z</time>
      </trkpt>
      <trkpt lat="44.54999" lon="4.24859">
        <ele>381</ele>
        <time>2018-06-03T07:33:05.000Z</time>
      </trkpt>
      <trkpt lat="44.55004" lon="4.24861">
        <ele>365</ele>
        <time>2018-06-03T07:33:06.000Z</time>
      </trkpt>
      <trkpt lat="44.55007" lon="4.24864">
        <ele>364</ele>
        <time>2018-06-03T07:33:07.000Z</time>
      </trkpt>
      <trkpt lat="44.55009" lon="4.24868">
        <ele>364</ele>
        <time>2018-06-03T07:33:08.000Z</time>
      </trkpt>
      <trkpt lat="44.55011" lon="4.24871">
        <ele>364</ele>
        <time>2018-06-03T07:33:09.000Z</time>
      </trkpt>
      <trkpt lat="44.55014" lon="4.24871">
        <ele>364</ele>
        <time>2018-06-03T07:33:10.000Z</time>
      </trkpt>
      <trkpt lat="44.55015" lon="4.2487">
        <ele>364</ele>
        <time>2018-06-03T07:33:11.000Z</time>
      </trkpt>
      <trkpt lat="44.55017" lon="4.24867">
        <ele>363</ele>
        <time>2018-06-03T07:33:12.000Z</time>
      </trkpt>
      <trkpt lat="44.55018" lon="4.24863">
        <ele>363</ele>
        <time>2018-06-03T07:33:13.000Z</time>
      </trkpt>
      <trkpt lat="44.55018" lon="4.24858">
        <ele>363</ele>
        <time>2018-06-03T07:33:14.000Z</time>
      </trkpt>
      <trkpt lat="44.55018" lon="4.24853">
        <ele>363</ele>
        <time>2018-06-03T07:33:15.000Z</time>
      </trkpt>
      <trkpt lat="44.55017" lon="4.24847">
        <ele>364</ele>
        <time>2018-06-03T07:33:16.000Z</time>
      </trkpt>
      <trkpt lat="44.55015" lon="4.24842">
        <ele>365</ele>
        <time>2018-06-03T07:33:17.000Z</time>
      </trkpt>
      <trkpt lat="44.55012" lon="4.24837">
        <ele>366</ele>
        <time>2018-06-03T07:33:18.000Z</time>
      </trkpt>
      <trkpt lat="44.55009" lon="4.24833">
        <ele>366</ele>
        <time>2018-06-03T07:33:19.000Z</time>
      </trkpt>
      <trkpt lat="44.55005" lon="4.2483">
        <ele>367</ele>
        <time>2018-06-03T07:33:20.000Z</time>
      </trkpt>
      <trkpt lat="44.55001" lon="4.24829">
        <ele>368</ele>
        <time>2018-06-03T07:33:21.000Z</time>
      </trkpt>
      <trkpt lat="44.54996" lon="4.24827">
        <ele>373</ele>
        <time>2018-06-03T07:33:22.000Z</time>
      </trkpt>
      <trkpt lat="44.54991" lon="4.24825">
        <ele>375</ele>
        <time>2018-06-03T07:33:23.000Z</time>
      </trkpt>
      <trkpt lat="44.54986" lon="4.24824">
        <ele>376</ele>
        <time>2018-06-03T07:33:24.000Z</time>
      </trkpt>
      <trkpt lat="44.54981" lon="4.24823">
        <ele>378</ele>
        <time>2018-06-03T07:33:25.000Z</time>
      </trkpt>
      <trkpt lat="44.54976" lon="4.24821">
        <ele>379</ele>
        <time>2018-06-03T07:33:26.000Z</time>
      </trkpt>
      <trkpt lat="44.54972" lon="4.24818">
        <ele>380</ele>
        <time>2018-06-03T07:33:27.000Z</time>
      </trkpt>
      <trkpt lat="44.54967" lon="4.24816">
        <ele>381</ele>
        <time>2018-06-03T07:33:28.000Z</time>
      </trkpt>
      <trkpt lat="44.54964" lon="4.24813">
        <ele>382</ele>
        <time>2018-06-03T07:33:29.000Z</time>
      </trkpt>
      <trkpt lat="44.5496" lon="4.24811">
        <ele>382</ele>
        <time>2018-06-03T07:33:30.000Z</time>
      </trkpt>
      <trkpt lat="44.54958" lon="4.2481">
        <ele>383</ele>
        <time>2018-06-03T07:33:31.000Z</time>
      </trkpt>
      <trkpt lat="44.54956" lon="4.24808">
        <ele>383</ele>
        <time>2018-06-03T07:33:32.000Z</time>
      </trkpt>
      <trkpt lat="44.54955" lon="4.24807">
        <ele>383</ele>
        <time>2018-06-03T07:33:33.000Z</time>
      </trkpt>
      <trkpt lat="44.54954" lon="4.24805">
        <ele>384</ele>
        <time>2018-06-03T07:33:34.000Z</time>
      </trkpt>
      <trkpt lat="44.54954" lon="4.24804">
        <ele>384</ele>
        <time>2018-06-03T07:33:35.000Z</time>
      </trkpt>
      <trkpt lat="44.54953" lon="4.24804">
        <ele>384</ele>
        <time>2018-06-03T07:33:36.000Z</time>
      </trkpt>
      <trkpt lat="44.54953" lon="4.24803">
        <ele>384</ele>
        <time>2018-06-03T07:33:37.000Z</time>
      </trkpt>
      <trkpt lat="44.54953" lon="4.24802">
        <ele>384</ele>
        <time>2018-06-03T07:33:38.000Z</time>
      </trkpt>
      <trkpt lat="44.54953" lon="4.24802">
        <ele>384</ele>
        <time>2018-06-03T07:33:39.000Z</time>
      </trkpt>
      <trkpt lat="44.54953" lon="4.24801">
        <ele>384</ele>
        <time>2018-06-03T07:33:40.000Z</time>
      </trkpt>
      <trkpt lat="44.54953" lon="4.24799">
        <ele>384</ele>
        <time>2018-06-03T07:33:41.000Z</time>
      </trkpt>
      <trkpt lat="44.54953" lon="4.24798">
        <ele>384</ele>
        <time>2018-06-03T07:33:42.000Z</time>
      </trkpt>
      <trkpt lat="44.54953" lon="4.24797">
        <ele>384</ele>
        <time>2018-06-03T07:33:43.000Z</time>
      </trkpt>
      <trkpt lat="44.54953" lon="4.24797">
        <ele>384</ele>
        <time>2018-06-03T07:33:44.000Z</time>
      </trkpt>
      <trkpt lat="44.54953" lon="4.24797">
        <ele>384</ele>
        <time>2018-06-03T07:33:45.000Z</time>
      </trkpt>
      <trkpt lat="44.54954" lon="4.24797">
        <ele>384</ele>
        <time>2018-06-03T07:33:46.000Z</time>
      </trkpt>
      <trkpt lat="44.54954" lon="4.24796">
        <ele>384</ele>
        <time>2018-06-03T07:33:47.000Z</time>
      </trkpt>
      <trkpt lat="44.54955" lon="4.24795">
        <ele>383</ele>
        <time>2018-06-03T07:33:48.000Z</time>
      </trkpt>
      <trkpt lat="44.54955" lon="4.24794">
        <ele>383</ele>
        <time>2018-06-03T07:33:49.000Z</time>
      </trkpt>
      <trkpt lat="44.54955" lon="4.24793">
        <ele>383</ele>
        <time>2018-06-03T07:33:50.000Z</time>
      </trkpt>
      <trkpt lat="44.54956" lon="4.24792">
        <ele>383</ele>
        <time>2018-06-03T07:33:51.000Z</time>
      </trkpt>
      <trkpt lat="44.54957" lon="4.24791">
        <ele>383</ele>
        <time>2018-06-03T07:33:52.000Z</time>
      </trkpt>
      <trkpt lat="44.54958" lon="4.2479">
        <ele>383</ele>
        <time>2018-06-03T07:33:53.000Z</time>
      </trkpt>
      <trkpt lat="44.54959" lon="4.24787">
        <ele>383</ele>
        <time>2018-06-03T07:33:54.000Z</time>
      </trkpt>
      <trkpt lat="44.5496" lon="4.24785">
        <ele>382</ele>
        <time>2018-06-03T07:33:55.000Z</time>
      </trkpt>
      <trkpt lat="44.54962" lon="4.24783">
        <ele>382</ele>
        <time>2018-06-03T07:33:56.000Z</time>
      </trkpt>
      <trkpt lat="44.54964" lon="4.24779">
        <ele>382</ele>
        <time>2018-06-03T07:33:57.000Z</time>
      </trkpt>
      <trkpt lat="44.54966" lon="4.24776">
        <ele>381</ele>
        <time>2018-06-03T07:33:58.000Z</time>
      </trkpt>
      <trkpt lat="44.54969" lon="4.24772">
        <ele>380</ele>
        <time>2018-06-03T07:33:59.000Z</time>
      </trkpt>
      <trkpt lat="44.54972" lon="4.24769">
        <ele>379</ele>
        <time>2018-06-03T07:34:00.000Z</time>
      </trkpt>
      <trkpt lat="44.54975" lon="4.24765">
        <ele>378</ele>
        <time>2018-06-03T07:34:01.000Z</time>
      </trkpt>
      <trkpt lat="44.54978" lon="4.24761">
        <ele>377</ele>
        <time>2018-06-03T07:34:02.000Z</time>
      </trkpt>
      <trkpt lat="44.54981" lon="4.24758">
        <ele>376</ele>
        <time>2018-06-03T07:34:03.000Z</time>
      </trkpt>
      <trkpt lat="44.54985" lon="4.24753">
        <ele>374</ele>
        <time>2018-06-03T07:34:04.000Z</time>
      </trkpt>
      <trkpt lat="44.54989" lon="4.2475">
        <ele>374</ele>
        <time>2018-06-03T07:34:05.000Z</time>
      </trkpt>
      <trkpt lat="44.54992" lon="4.24746">
        <ele>372</ele>
        <time>2018-06-03T07:34:06.000Z</time>
      </trkpt>
      <trkpt lat="44.54996" lon="4.24742">
        <ele>372</ele>
        <time>2018-06-03T07:34:07.000Z</time>
      </trkpt>
      <trkpt lat="44.55" lon="4.24738">
        <ele>374</ele>
        <time>2018-06-03T07:34:08.000Z</time>
      </trkpt>
      <trkpt lat="44.55003" lon="4.24733">
        <ele>362</ele>
        <time>2018-06-03T07:34:09.000Z</time>
      </trkpt>
      <trkpt lat="44.55006" lon="4.24727">
        <ele>361</ele>
        <time>2018-06-03T07:34:10.000Z</time>
      </trkpt>
      <trkpt lat="44.55008" lon="4.2472">
        <ele>361</ele>
        <time>2018-06-03T07:34:11.000Z</time>
      </trkpt>
      <trkpt lat="44.5501" lon="4.24713">
        <ele>361</ele>
        <time>2018-06-03T07:34:12.000Z</time>
      </trkpt>
      <trkpt lat="44.55011" lon="4.24706">
        <ele>361</ele>
        <time>2018-06-03T07:34:13.000Z</time>
      </trkpt>
      <trkpt lat="44.55013" lon="4.24699">
        <ele>362</ele>
        <time>2018-06-03T07:34:14.000Z</time>
      </trkpt>
      <trkpt lat="44.55016" lon="4.2469">
        <ele>363</ele>
        <time>2018-06-03T07:34:15.000Z</time>
      </trkpt>
      <trkpt lat="44.55018" lon="4.24682">
        <ele>363</ele>
        <time>2018-06-03T07:34:16.000Z</time>
      </trkpt>
      <trkpt lat="44.5502" lon="4.24674">
        <ele>364</ele>
        <time>2018-06-03T07:34:17.000Z</time>
      </trkpt>
      <trkpt lat="44.55023" lon="4.24666">
        <ele>364</ele>
        <time>2018-06-03T07:34:18.000Z</time>
      </trkpt>
      <trkpt lat="44.55025" lon="4.24659">
        <ele>363</ele>
        <time>2018-06-03T07:34:19.000Z</time>
      </trkpt>
      <trkpt lat="44.55027" lon="4.24652">
        <ele>362</ele>
        <time>2018-06-03T07:34:20.000Z</time>
      </trkpt>
      <trkpt lat="44.55029" lon="4.24645">
        <ele>361</ele>
        <time>2018-06-03T07:34:21.000Z</time>
      </trkpt>
      <trkpt lat="44.55031" lon="4.24639">
        <ele>360</ele>
        <time>2018-06-03T07:34:22.000Z</time>
      </trkpt>
      <trkpt lat="44.55034" lon="4.24632">
        <ele>359</ele>
        <time>2018-06-03T07:34:23.000Z</time>
      </trkpt>
      <trkpt lat="44.55037" lon="4.24626">
        <ele>359</ele>
        <time>2018-06-03T07:34:24.000Z</time>
      </trkpt>
      <trkpt lat="44.55038" lon="4.2462">
        <ele>358</ele>
        <time>2018-06-03T07:34:25.000Z</time>
      </trkpt>
      <trkpt lat="44.5504" lon="4.24616">
        <ele>358</ele>
        <time>2018-06-03T07:34:26.000Z</time>
      </trkpt>
      <trkpt lat="44.55042" lon="4.24613">
        <ele>358</ele>
        <time>2018-06-03T07:34:27.000Z</time>
      </trkpt>
      <trkpt lat="44.55043" lon="4.2461">
        <ele>358</ele>
        <time>2018-06-03T07:34:28.000Z</time>
      </trkpt>
      <trkpt lat="44.55044" lon="4.24608">
        <ele>357</ele>
        <time>2018-06-03T07:34:29.000Z</time>
      </trkpt>
      <trkpt lat="44.55045" lon="4.24606">
        <ele>357</ele>
        <time>2018-06-03T07:34:30.000Z</time>
      </trkpt>
      <trkpt lat="44.55046" lon="4.24605">
        <ele>357</ele>
        <time>2018-06-03T07:34:31.000Z</time>
      </trkpt>
      <trkpt lat="44.55046" lon="4.24604">
        <ele>357</ele>
        <time>2018-06-03T07:34:32.000Z</time>
      </trkpt>
      <trkpt lat="44.55047" lon="4.24603">
        <ele>357</ele>
        <time>2018-06-03T07:34:33.000Z</time>
      </trkpt>
      <trkpt lat="44.55049" lon="4.24603">
        <ele>356</ele>
        <time>2018-06-03T07:34:34.000Z</time>
      </trkpt>
      <trkpt lat="44.55049" lon="4.24604">
        <ele>356</ele>
        <time>2018-06-03T07:34:35.000Z</time>
      </trkpt>
      <trkpt lat="44.5505" lon="4.24606">
        <ele>356</ele>
        <time>2018-06-03T07:34:36.000Z</time>
      </trkpt>
      <trkpt lat="44.55051" lon="4.24609">
        <ele>356</ele>
        <time>2018-06-03T07:34:37.000Z</time>
      </trkpt>
      <trkpt lat="44.55051" lon="4.24612">
        <ele>356</ele>
        <time>2018-06-03T07:34:38.000Z</time>
      </trkpt>
      <trkpt lat="44.55051" lon="4.24618">
        <ele>356</ele>
        <time>2018-06-03T07:34:39.000Z</time>
      </trkpt>
      <trkpt lat="44.55051" lon="4.24624">
        <ele>357</ele>
        <time>2018-06-03T07:34:40.000Z</time>
      </trkpt>
      <trkpt lat="44.55051" lon="4.24629">
        <ele>357</ele>
        <time>2018-06-03T07:34:41.000Z</time>
      </trkpt>
      <trkpt lat="44.5505" lon="4.24634">
        <ele>357</ele>
        <time>2018-06-03T07:34:42.000Z</time>
      </trkpt>
      <trkpt lat="44.5505" lon="4.24638">
        <ele>357</ele>
        <time>2018-06-03T07:34:43.000Z</time>
      </trkpt>
      <trkpt lat="44.5505" lon="4.24642">
        <ele>357</ele>
        <time>2018-06-03T07:34:44.000Z</time>
      </trkpt>
      <trkpt lat="44.55051" lon="4.24643">
        <ele>357</ele>
        <time>2018-06-03T07:34:45.000Z</time>
      </trkpt>
      <trkpt lat="44.55052" lon="4.24641">
        <ele>356</ele>
        <time>2018-06-03T07:34:46.000Z</time>
      </trkpt>
      <trkpt lat="44.55053" lon="4.24639">
        <ele>356</ele>
        <time>2018-06-03T07:34:47.000Z</time>
      </trkpt>
      <trkpt lat="44.55054" lon="4.24636">
        <ele>356</ele>
        <time>2018-06-03T07:34:48.000Z</time>
      </trkpt>
      <trkpt lat="44.55056" lon="4.24631">
        <ele>356</ele>
        <time>2018-06-03T07:34:49.000Z</time>
      </trkpt>
      <trkpt lat="44.55057" lon="4.24625">
        <ele>356</ele>
        <time>2018-06-03T07:34:50.000Z</time>
      </trkpt>
      <trkpt lat="44.55059" lon="4.24618">
        <ele>355</ele>
        <time>2018-06-03T07:34:51.000Z</time>
      </trkpt>
      <trkpt lat="44.5506" lon="4.24611">
        <ele>355</ele>
        <time>2018-06-03T07:34:52.000Z</time>
      </trkpt>
      <trkpt lat="44.55061" lon="4.24604">
        <ele>354</ele>
        <time>2018-06-03T07:34:53.000Z</time>
      </trkpt>
      <trkpt lat="44.55062" lon="4.24597">
        <ele>353</ele>
        <time>2018-06-03T07:34:54.000Z</time>
      </trkpt>
      <trkpt lat="44.55064" lon="4.24591">
        <ele>352</ele>
        <time>2018-06-03T07:34:55.000Z</time>
      </trkpt>
      <trkpt lat="44.55066" lon="4.24584">
        <ele>352</ele>
        <time>2018-06-03T07:34:56.000Z</time>
      </trkpt>
      <trkpt lat="44.55068" lon="4.24579">
        <ele>351</ele>
        <time>2018-06-03T07:34:57.000Z</time>
      </trkpt>
      <trkpt lat="44.55068" lon="4.24574">
        <ele>351</ele>
        <time>2018-06-03T07:34:58.000Z</time>
      </trkpt>
      <trkpt lat="44.55068" lon="4.24568">
        <ele>352</ele>
        <time>2018-06-03T07:34:59.000Z</time>
      </trkpt>
      <trkpt lat="44.55066" lon="4.24563">
        <ele>353</ele>
        <time>2018-06-03T07:35:00.000Z</time>
      </trkpt>
      <trkpt lat="44.55065" lon="4.2456">
        <ele>353</ele>
        <time>2018-06-03T07:35:01.000Z</time>
      </trkpt>
      <trkpt lat="44.55065" lon="4.24558">
        <ele>353</ele>
        <time>2018-06-03T07:35:02.000Z</time>
      </trkpt>
      <trkpt lat="44.55065" lon="4.24557">
        <ele>353</ele>
        <time>2018-06-03T07:35:03.000Z</time>
      </trkpt>
      <trkpt lat="44.55065" lon="4.24556">
        <ele>353</ele>
        <time>2018-06-03T07:35:04.000Z</time>
      </trkpt>
      <trkpt lat="44.55065" lon="4.24556">
        <ele>353</ele>
        <time>2018-06-03T07:35:05.000Z</time>
      </trkpt>
      <trkpt lat="44.55065" lon="4.24555">
        <ele>353</ele>
        <time>2018-06-03T07:35:06.000Z</time>
      </trkpt>
      <trkpt lat="44.55065" lon="4.24553">
        <ele>353</ele>
        <time>2018-06-03T07:35:07.000Z</time>
      </trkpt>
      <trkpt lat="44.55066" lon="4.24552">
        <ele>353</ele>
        <time>2018-06-03T07:35:08.000Z</time>
      </trkpt>
      <trkpt lat="44.55066" lon="4.24552">
        <ele>353</ele>
        <time>2018-06-03T07:35:09.000Z</time>
      </trkpt>
      <trkpt lat="44.55066" lon="4.24551">
        <ele>354</ele>
        <time>2018-06-03T07:35:10.000Z</time>
      </trkpt>
      <trkpt lat="44.55066" lon="4.24551">
        <ele>354</ele>
        <time>2018-06-03T07:35:11.000Z</time>
      </trkpt>
      <trkpt lat="44.55066" lon="4.2455">
        <ele>354</ele>
        <time>2018-06-03T07:35:12.000Z</time>
      </trkpt>
      <trkpt lat="44.55066" lon="4.2455">
        <ele>354</ele>
        <time>2018-06-03T07:35:13.000Z</time>
      </trkpt>
      <trkpt lat="44.55066" lon="4.2455">
        <ele>354</ele>
        <time>2018-06-03T07:35:14.000Z</time>
      </trkpt>
      <trkpt lat="44.55066" lon="4.24549">
        <ele>354</ele>
        <time>2018-06-03T07:35:15.000Z</time>
      </trkpt>
      <trkpt lat="44.55066" lon="4.24549">
        <ele>354</ele>
        <time>2018-06-03T07:35:16.000Z</time>
      </trkpt>
      <trkpt lat="44.55066" lon="4.24548">
        <ele>354</ele>
        <time>2018-06-03T07:35:17.000Z</time>
      </trkpt>
      <trkpt lat="44.55067" lon="4.24548">
        <ele>354</ele>
        <time>2018-06-03T07:35:18.000Z</time>
      </trkpt>
      <trkpt lat="44.55067" lon="4.24548">
        <ele>354</ele>
        <time>2018-06-03T07:35:19.000Z</time>
      </trkpt>
      <trkpt lat="44.55067" lon="4.24548">
        <ele>354</ele>
        <time>2018-06-03T07:35:20.000Z</time>
      </trkpt>
      <trkpt lat="44.55067" lon="4.24547">
        <ele>354</ele>
        <time>2018-06-03T07:35:21.000Z</time>
      </trkpt>
      <trkpt lat="44.55067" lon="4.24547">
        <ele>354</ele>
        <time>2018-06-03T07:35:22.000Z</time>
      </trkpt>
      <trkpt lat="44.55067" lon="4.24546">
        <ele>354</ele>
        <time>2018-06-03T07:35:23.000Z</time>
      </trkpt>
      <trkpt lat="44.55067" lon="4.24546">
        <ele>354</ele>
        <time>2018-06-03T07:35:24.000Z</time>
      </trkpt>
      <trkpt lat="44.55067" lon="4.24545">
        <ele>354</ele>
        <time>2018-06-03T07:35:25.000Z</time>
      </trkpt>
      <trkpt lat="44.55067" lon="4.24545">
        <ele>354</ele>
        <time>2018-06-03T07:35:26.000Z</time>
      </trkpt>
      <trkpt lat="44.55067" lon="4.24544">
        <ele>354</ele>
        <time>2018-06-03T07:35:27.000Z</time>
      </trkpt>
      <trkpt lat="44.55067" lon="4.24544">
        <ele>354</ele>
        <time>2018-06-03T07:35:28.000Z</time>
      </trkpt>
      <trkpt lat="44.55067" lon="4.24544">
        <ele>354</ele>
        <time>2018-06-03T07:35:29.000Z</time>
      </trkpt>
      <trkpt lat="44.55067" lon="4.24544">
        <ele>354</ele>
        <time>2018-06-03T07:35:30.000Z</time>
      </trkpt>
      <trkpt lat="44.55067" lon="4.24544">
        <ele>354</ele>
        <time>2018-06-03T07:35:31.000Z</time>
      </trkpt>
      <trkpt lat="44.55067" lon="4.24544">
        <ele>354</ele>
        <time>2018-06-03T07:35:32.000Z</time>
      </trkpt>
      <trkpt lat="44.55067" lon="4.24544">
        <ele>354</ele>
        <time>2018-06-03T07:35:33.000Z</time>
      </trkpt>
      <trkpt lat="44.55067" lon="4.24543">
        <ele>354</ele>
        <time>2018-06-03T07:35:34.000Z</time>
      </trkpt>
      <trkpt lat="44.55067" lon="4.24543">
        <ele>354</ele>
        <time>2018-06-03T07:35:35.000Z</time>
      </trkpt>
      <trkpt lat="44.55067" lon="4.24543">
        <ele>354</ele>
        <time>2018-06-03T07:35:36.000Z</time>
      </trkpt>
      <trkpt lat="44.55067" lon="4.24543">
        <ele>354</ele>
        <time>2018-06-03T07:35:37.000Z</time>
      </trkpt>
      <trkpt lat="44.55067" lon="4.24543">
        <ele>354</ele>
        <time>2018-06-03T07:35:38.000Z</time>
      </trkpt>
      <trkpt lat="44.55067" lon="4.24543">
        <ele>354</ele>
        <time>2018-06-03T07:35:39.000Z</time>
      </trkpt>
      <trkpt lat="44.55067" lon="4.24543">
        <ele>354</ele>
        <time>2018-06-03T07:35:40.000Z</time>
      </trkpt>
      <trkpt lat="44.55067" lon="4.24543">
        <ele>354</ele>
        <time>2018-06-03T07:35:41.000Z</time>
      </trkpt>
      <trkpt lat="44.55067" lon="4.24543">
        <ele>354</ele>
        <time>2018-06-03T07:35:42.000Z</time>
      </trkpt>
      <trkpt lat="44.55067" lon="4.24543">
        <ele>354</ele>
        <time>2018-06-03T07:35:43.000Z</time>
      </trkpt>
      <trkpt lat="44.55067" lon="4.24543">
        <ele>354</ele>
        <time>2018-06-03T07:35:44.000Z</time>
      </trkpt>
      <trkpt lat="44.55067" lon="4.24543">
        <ele>354</ele>
        <time>2018-06-03T07:35:45.000Z</time>
      </trkpt>
      <trkpt lat="44.55067" lon="4.24544">
        <ele>354</ele>
        <time>2018-06-03T07:35:46.000Z</time>
      </trkpt>
      <trkpt lat="44.55066" lon="4.24544">
        <ele>354</ele>
        <time>2018-06-03T07:35:47.000Z</time>
      </trkpt>
      <trkpt lat="44.55067" lon="4.24544">
        <ele>354</ele>
        <time>2018-06-03T07:35:48.000Z</time>
      </trkpt>
      <trkpt lat="44.55067" lon="4.24544">
        <ele>354</ele>
        <time>2018-06-03T07:35:49.000Z</time>
      </trkpt>
      <trkpt lat="44.55067" lon="4.24544">
        <ele>354</ele>
        <time>2018-06-03T07:35:50.000Z</time>
      </trkpt>
      <trkpt lat="44.55067" lon="4.24544">
        <ele>354</ele>
        <time>2018-06-03T07:35:51.000Z</time>
      </trkpt>
      <trkpt lat="44.55067" lon="4.24544">
        <ele>354</ele>
        <time>2018-06-03T07:35:52.000Z</time>
      </trkpt>
      <trkpt lat="44.55067" lon="4.24544">
        <ele>354</ele>
        <time>2018-06-03T07:35:53.000Z</time>
      </trkpt>
      <trkpt lat="44.55067" lon="4.24544">
        <ele>354</ele>
        <time>2018-06-03T07:35:54.000Z</time>
      </trkpt>
      <trkpt lat="44.55067" lon="4.24544">
        <ele>354</ele>
        <time>2018-06-03T07:35:55.000Z</time>
      </trkpt>
      <trkpt lat="44.55067" lon="4.24544">
        <ele>354</ele>
        <time>2018-06-03T07:35:56.000Z</time>
      </trkpt>
      <trkpt lat="44.55067" lon="4.24545">
        <ele>354</ele>
        <time>2018-06-03T07:35:57.000Z</time>
      </trkpt>
      <trkpt lat="44.55067" lon="4.24545">
        <ele>354</ele>
        <time>2018-06-03T07:35:58.000Z</time>
      </trkpt>
      <trkpt lat="44.55067" lon="4.24545">
        <ele>354</ele>
        <time>2018-06-03T07:35:59.000Z</time>
      </trkpt>
      <trkpt lat="44.55067" lon="4.24545">
        <ele>354</ele>
        <time>2018-06-03T07:36:00.000Z</time>
      </trkpt>
      <trkpt lat="44.55067" lon="4.24545">
        <ele>354</ele>
        <time>2018-06-03T07:36:01.000Z</time>
      </trkpt>
      <trkpt lat="44.55066" lon="4.24545">
        <ele>354</ele>
        <time>2018-06-03T07:36:02.000Z</time>
      </trkpt>
      <trkpt lat="44.55066" lon="4.24545">
        <ele>354</ele>
        <time>2018-06-03T07:36:03.000Z</time>
      </trkpt>
      <trkpt lat="44.55066" lon="4.24545">
        <ele>354</ele>
        <time>2018-06-03T07:36:04.000Z</time>
      </trkpt>
      <trkpt lat="44.55066" lon="4.24546">
        <ele>354</ele>
        <time>2018-06-03T07:36:05.000Z</time>
      </trkpt>
      <trkpt lat="44.55066" lon="4.24546">
        <ele>354</ele>
        <time>2018-06-03T07:36:06.000Z</time>
      </trkpt>
      <trkpt lat="44.55066" lon="4.24546">
        <ele>354</ele>
        <time>2018-06-03T07:36:07.000Z</time>
      </trkpt>
      <trkpt lat="44.55066" lon="4.24546">
        <ele>354</ele>
        <time>2018-06-03T07:36:08.000Z</time>
      </trkpt>
      <trkpt lat="44.55066" lon="4.24546">
        <ele>354</ele>
        <time>2018-06-03T07:36:09.000Z</time>
      </trkpt>
      <trkpt lat="44.55066" lon="4.24546">
        <ele>354</ele>
        <time>2018-06-03T07:36:10.000Z</time>
      </trkpt>
      <trkpt lat="44.55066" lon="4.24546">
        <ele>354</ele>
        <time>2018-06-03T07:36:11.000Z</time>
      </trkpt>
      <trkpt lat="44.55066" lon="4.24546">
        <ele>354</ele>
        <time>2018-06-03T07:36:12.000Z</time>
      </trkpt>
      <trkpt lat="44.55066" lon="4.24545">
        <ele>354</ele>
        <time>2018-06-03T07:36:13.000Z</time>
      </trkpt>
      <trkpt lat="44.55067" lon="4.24545">
        <ele>354</ele>
        <time>2018-06-03T07:36:14.000Z</time>
      </trkpt>
      <trkpt lat="44.55067" lon="4.24544">
        <ele>354</ele>
        <time>2018-06-03T07:36:15.000Z</time>
      </trkpt>
      <trkpt lat="44.55068" lon="4.24543">
        <ele>353</ele>
        <time>2018-06-03T07:36:16.000Z</time>
      </trkpt>
      <trkpt lat="44.55068" lon="4.24543">
        <ele>353</ele>
        <time>2018-06-03T07:36:17.000Z</time>
      </trkpt>
      <trkpt lat="44.55068" lon="4.24543">
        <ele>353</ele>
        <time>2018-06-03T07:36:18.000Z</time>
      </trkpt>
      <trkpt lat="44.55068" lon="4.24543">
        <ele>353</ele>
        <time>2018-06-03T07:36:19.000Z</time>
      </trkpt>
      <trkpt lat="44.55068" lon="4.24542">
        <ele>353</ele>
        <time>2018-06-03T07:36:20.000Z</time>
      </trkpt>
      <trkpt lat="44.55068" lon="4.24542">
        <ele>353</ele>
        <time>2018-06-03T07:36:21.000Z</time>
      </trkpt>
      <trkpt lat="44.55068" lon="4.24542">
        <ele>353</ele>
        <time>2018-06-03T07:36:22.000Z</time>
      </trkpt>
      <trkpt lat="44.55068" lon="4.24542">
        <ele>353</ele>
        <time>2018-06-03T07:36:23.000Z</time>
      </trkpt>
      <trkpt lat="44.55068" lon="4.24541">
        <ele>353</ele>
        <time>2018-06-03T07:36:24.000Z</time>
      </trkpt>
      <trkpt lat="44.55068" lon="4.24541">
        <ele>353</ele>
        <time>2018-06-03T07:36:25.000Z</time>
      </trkpt>
      <trkpt lat="44.55068" lon="4.24541">
        <ele>353</ele>
        <time>2018-06-03T07:36:26.000Z</time>
      </trkpt>
      <trkpt lat="44.55068" lon="4.24541">
        <ele>353</ele>
        <time>2018-06-03T07:36:27.000Z</time>
      </trkpt>
      <trkpt lat="44.55068" lon="4.24541">
        <ele>353</ele>
        <time>2018-06-03T07:36:28.000Z</time>
      </trkpt>
      <trkpt lat="44.55068" lon="4.2454">
        <ele>353</ele>
        <time>2018-06-03T07:36:29.000Z</time>
      </trkpt>
      <trkpt lat="44.55068" lon="4.2454">
        <ele>353</ele>
        <time>2018-06-03T07:36:30.000Z</time>
      </trkpt>
      <trkpt lat="44.55068" lon="4.2454">
        <ele>353</ele>
        <time>2018-06-03T07:36:31.000Z</time>
      </trkpt>
      <trkpt lat="44.55068" lon="4.2454">
        <ele>353</ele>
        <time>2018-06-03T07:36:32.000Z</time>
      </trkpt>
      <trkpt lat="44.55068" lon="4.24539">
        <ele>353</ele>
        <time>2018-06-03T07:36:33.000Z</time>
      </trkpt>
      <trkpt lat="44.55068" lon="4.24539">
        <ele>353</ele>
        <time>2018-06-03T07:36:34.000Z</time>
      </trkpt>
      <trkpt lat="44.55068" lon="4.24539">
        <ele>353</ele>
        <time>2018-06-03T07:36:35.000Z</time>
      </trkpt>
      <trkpt lat="44.55068" lon="4.24537">
        <ele>353</ele>
        <time>2018-06-03T07:36:36.000Z</time>
      </trkpt>
      <trkpt lat="44.55068" lon="4.24537">
        <ele>353</ele>
        <time>2018-06-03T07:36:37.000Z</time>
      </trkpt>
      <trkpt lat="44.55067" lon="4.24537">
        <ele>353</ele>
        <time>2018-06-03T07:36:38.000Z</time>
      </trkpt>
      <trkpt lat="44.55066" lon="4.24538">
        <ele>354</ele>
        <time>2018-06-03T07:36:39.000Z</time>
      </trkpt>
      <trkpt lat="44.55066" lon="4.24537">
        <ele>354</ele>
        <time>2018-06-03T07:36:40.000Z</time>
      </trkpt>
      <trkpt lat="44.55066" lon="4.24535">
        <ele>354</ele>
        <time>2018-06-03T07:36:41.000Z</time>
      </trkpt>
      <trkpt lat="44.55065" lon="4.24534">
        <ele>354</ele>
        <time>2018-06-03T07:36:42.000Z</time>
      </trkpt>
      <trkpt lat="44.55065" lon="4.24533">
        <ele>354</ele>
        <time>2018-06-03T07:36:43.000Z</time>
      </trkpt>
      <trkpt lat="44.55065" lon="4.24532">
        <ele>354</ele>
        <time>2018-06-03T07:36:44.000Z</time>
      </trkpt>
      <trkpt lat="44.55065" lon="4.2453">
        <ele>353</ele>
        <time>2018-06-03T07:36:45.000Z</time>
      </trkpt>
      <trkpt lat="44.55064" lon="4.24528">
        <ele>353</ele>
        <time>2018-06-03T07:36:46.000Z</time>
      </trkpt>
      <trkpt lat="44.55064" lon="4.24526">
        <ele>353</ele>
        <time>2018-06-03T07:36:47.000Z</time>
      </trkpt>
      <trkpt lat="44.55063" lon="4.24525">
        <ele>353</ele>
        <time>2018-06-03T07:36:48.000Z</time>
      </trkpt>
      <trkpt lat="44.55062" lon="4.24524">
        <ele>353</ele>
        <time>2018-06-03T07:36:49.000Z</time>
      </trkpt>
      <trkpt lat="44.55062" lon="4.24523">
        <ele>353</ele>
        <time>2018-06-03T07:36:50.000Z</time>
      </trkpt>
      <trkpt lat="44.55061" lon="4.24522">
        <ele>354</ele>
        <time>2018-06-03T07:36:51.000Z</time>
      </trkpt>
      <trkpt lat="44.55061" lon="4.24521">
        <ele>354</ele>
        <time>2018-06-03T07:36:52.000Z</time>
      </trkpt>
      <trkpt lat="44.5506" lon="4.2452">
        <ele>354</ele>
        <time>2018-06-03T07:36:53.000Z</time>
      </trkpt>
      <trkpt lat="44.55059" lon="4.24519">
        <ele>354</ele>
        <time>2018-06-03T07:36:54.000Z</time>
      </trkpt>
      <trkpt lat="44.55059" lon="4.24518">
        <ele>354</ele>
        <time>2018-06-03T07:36:55.000Z</time>
      </trkpt>
      <trkpt lat="44.55058" lon="4.24518">
        <ele>354</ele>
        <time>2018-06-03T07:36:56.000Z</time>
      </trkpt>
      <trkpt lat="44.55058" lon="4.24517">
        <ele>354</ele>
        <time>2018-06-03T07:36:57.000Z</time>
      </trkpt>
      <trkpt lat="44.55058" lon="4.24517">
        <ele>354</ele>
        <time>2018-06-03T07:36:58.000Z</time>
      </trkpt>
      <trkpt lat="44.55057" lon="4.24517">
        <ele>354</ele>
        <time>2018-06-03T07:36:59.000Z</time>
      </trkpt>
      <trkpt lat="44.55057" lon="4.24516">
        <ele>354</ele>
        <time>2018-06-03T07:37:00.000Z</time>
      </trkpt>
      <trkpt lat="44.55056" lon="4.24515">
        <ele>354</ele>
        <time>2018-06-03T07:37:01.000Z</time>
      </trkpt>
      <trkpt lat="44.55056" lon="4.24515">
        <ele>354</ele>
        <time>2018-06-03T07:37:02.000Z</time>
      </trkpt>
      <trkpt lat="44.55055" lon="4.24514">
        <ele>354</ele>
        <time>2018-06-03T07:37:03.000Z</time>
      </trkpt>
      <trkpt lat="44.55055" lon="4.24513">
        <ele>354</ele>
        <time>2018-06-03T07:37:04.000Z</time>
      </trkpt>
      <trkpt lat="44.55055" lon="4.24512">
        <ele>354</ele>
        <time>2018-06-03T07:37:05.000Z</time>
      </trkpt>
      <trkpt lat="44.55054" lon="4.24511">
        <ele>354</ele>
        <time>2018-06-03T07:37:06.000Z</time>
      </trkpt>
      <trkpt lat="44.55053" lon="4.2451">
        <ele>355</ele>
        <time>2018-06-03T07:37:07.000Z</time>
      </trkpt>
      <trkpt lat="44.55053" lon="4.2451">
        <ele>355</ele>
        <time>2018-06-03T07:37:08.000Z</time>
      </trkpt>
      <trkpt lat="44.55052" lon="4.24508">
        <ele>355</ele>
        <time>2018-06-03T07:37:09.000Z</time>
      </trkpt>
      <trkpt lat="44.55052" lon="4.24507">
        <ele>355</ele>
        <time>2018-06-03T07:37:10.000Z</time>
      </trkpt>
      <trkpt lat="44.55053" lon="4.24506">
        <ele>355</ele>
        <time>2018-06-03T07:37:11.000Z</time>
      </trkpt>
      <trkpt lat="44.55053" lon="4.24505">
        <ele>354</ele>
        <time>2018-06-03T07:37:12.000Z</time>
      </trkpt>
      <trkpt lat="44.55054" lon="4.24504">
        <ele>354</ele>
        <time>2018-06-03T07:37:13.000Z</time>
      </trkpt>
      <trkpt lat="44.55054" lon="4.24503">
        <ele>354</ele>
        <time>2018-06-03T07:37:14.000Z</time>
      </trkpt>
      <trkpt lat="44.55055" lon="4.24503">
        <ele>354</ele>
        <time>2018-06-03T07:37:15.000Z</time>
      </trkpt>
      <trkpt lat="44.55056" lon="4.24502">
        <ele>354</ele>
        <time>2018-06-03T07:37:16.000Z</time>
      </trkpt>
      <trkpt lat="44.55057" lon="4.24501">
        <ele>353</ele>
        <time>2018-06-03T07:37:17.000Z</time>
      </trkpt>
      <trkpt lat="44.55058" lon="4.245">
        <ele>353</ele>
        <time>2018-06-03T07:37:18.000Z</time>
      </trkpt>
      <trkpt lat="44.55058" lon="4.24499">
        <ele>355</ele>
        <time>2018-06-03T07:37:19.000Z</time>
      </trkpt>
      <trkpt lat="44.55059" lon="4.24498">
        <ele>355</ele>
        <time>2018-06-03T07:37:20.000Z</time>
      </trkpt>
      <trkpt lat="44.5506" lon="4.24497">
        <ele>355</ele>
        <time>2018-06-03T07:37:21.000Z</time>
      </trkpt>
      <trkpt lat="44.55061" lon="4.24496">
        <ele>355</ele>
        <time>2018-06-03T07:37:22.000Z</time>
      </trkpt>
      <trkpt lat="44.55062" lon="4.24495">
        <ele>354</ele>
        <time>2018-06-03T07:37:23.000Z</time>
      </trkpt>
      <trkpt lat="44.55063" lon="4.24494">
        <ele>354</ele>
        <time>2018-06-03T07:37:24.000Z</time>
      </trkpt>
      <trkpt lat="44.55064" lon="4.24494">
        <ele>354</ele>
        <time>2018-06-03T07:37:25.000Z</time>
      </trkpt>
      <trkpt lat="44.55064" lon="4.24493">
        <ele>354</ele>
        <time>2018-06-03T07:37:26.000Z</time>
      </trkpt>
      <trkpt lat="44.55065" lon="4.24492">
        <ele>353</ele>
        <time>2018-06-03T07:37:27.000Z</time>
      </trkpt>
      <trkpt lat="44.55066" lon="4.24491">
        <ele>353</ele>
        <time>2018-06-03T07:37:28.000Z</time>
      </trkpt>
      <trkpt lat="44.55066" lon="4.2449">
        <ele>353</ele>
        <time>2018-06-03T07:37:29.000Z</time>
      </trkpt>
      <trkpt lat="44.55066" lon="4.2449">
        <ele>353</ele>
        <time>2018-06-03T07:37:30.000Z</time>
      </trkpt>
      <trkpt lat="44.55066" lon="4.2449">
        <ele>353</ele>
        <time>2018-06-03T07:37:31.000Z</time>
      </trkpt>
      <trkpt lat="44.55067" lon="4.24489">
        <ele>353</ele>
        <time>2018-06-03T07:37:32.000Z</time>
      </trkpt>
      <trkpt lat="44.55067" lon="4.24489">
        <ele>353</ele>
        <time>2018-06-03T07:37:33.000Z</time>
      </trkpt>
      <trkpt lat="44.55067" lon="4.24489">
        <ele>353</ele>
        <time>2018-06-03T07:37:34.000Z</time>
      </trkpt>
      <trkpt lat="44.55068" lon="4.24488">
        <ele>353</ele>
        <time>2018-06-03T07:37:35.000Z</time>
      </trkpt>
      <trkpt lat="44.55069" lon="4.24488">
        <ele>353</ele>
        <time>2018-06-03T07:37:36.000Z</time>
      </trkpt>
      <trkpt lat="44.5507" lon="4.24486">
        <ele>353</ele>
        <time>2018-06-03T07:37:37.000Z</time>
      </trkpt>
      <trkpt lat="44.55072" lon="4.24485">
        <ele>353</ele>
        <time>2018-06-03T07:37:38.000Z</time>
      </trkpt>
      <trkpt lat="44.55074" lon="4.24484">
        <ele>353</ele>
        <time>2018-06-03T07:37:39.000Z</time>
      </trkpt>
      <trkpt lat="44.55075" lon="4.24483">
        <ele>353</ele>
        <time>2018-06-03T07:37:40.000Z</time>
      </trkpt>
      <trkpt lat="44.55077" lon="4.24482">
        <ele>353</ele>
        <time>2018-06-03T07:37:41.000Z</time>
      </trkpt>
      <trkpt lat="44.55079" lon="4.24482">
        <ele>352</ele>
        <time>2018-06-03T07:37:42.000Z</time>
      </trkpt>
      <trkpt lat="44.55081" lon="4.24482">
        <ele>352</ele>
        <time>2018-06-03T07:37:43.000Z</time>
      </trkpt>
      <trkpt lat="44.55083" lon="4.24482">
        <ele>352</ele>
        <time>2018-06-03T07:37:44.000Z</time>
      </trkpt>
      <trkpt lat="44.55085" lon="4.24482">
        <ele>349</ele>
        <time>2018-06-03T07:37:45.000Z</time>
      </trkpt>
      <trkpt lat="44.55086" lon="4.24482">
        <ele>349</ele>
        <time>2018-06-03T07:37:46.000Z</time>
      </trkpt>
      <trkpt lat="44.55087" lon="4.24481">
        <ele>349</ele>
        <time>2018-06-03T07:37:47.000Z</time>
      </trkpt>
      <trkpt lat="44.55089" lon="4.24481">
        <ele>350</ele>
        <time>2018-06-03T07:37:48.000Z</time>
      </trkpt>
      <trkpt lat="44.5509" lon="4.2448">
        <ele>350</ele>
        <time>2018-06-03T07:37:49.000Z</time>
      </trkpt>
      <trkpt lat="44.5509" lon="4.2448">
        <ele>350</ele>
        <time>2018-06-03T07:37:50.000Z</time>
      </trkpt>
      <trkpt lat="44.55091" lon="4.2448">
        <ele>350</ele>
        <time>2018-06-03T07:37:51.000Z</time>
      </trkpt>
      <trkpt lat="44.55091" lon="4.2448">
        <ele>350</ele>
        <time>2018-06-03T07:37:52.000Z</time>
      </trkpt>
      <trkpt lat="44.55091" lon="4.2448">
        <ele>350</ele>
        <time>2018-06-03T07:37:53.000Z</time>
      </trkpt>
      <trkpt lat="44.55091" lon="4.2448">
        <ele>350</ele>
        <time>2018-06-03T07:37:54.000Z</time>
      </trkpt>
      <trkpt lat="44.55091" lon="4.2448">
        <ele>350</ele>
        <time>2018-06-03T07:37:55.000Z</time>
      </trkpt>
      <trkpt lat="44.55092" lon="4.2448">
        <ele>350</ele>
        <time>2018-06-03T07:37:56.000Z</time>
      </trkpt>
      <trkpt lat="44.55092" lon="4.2448">
        <ele>350</ele>
        <time>2018-06-03T07:37:57.000Z</time>
      </trkpt>
      <trkpt lat="44.55093" lon="4.24481">
        <ele>350</ele>
        <time>2018-06-03T07:37:58.000Z</time>
      </trkpt>
      <trkpt lat="44.55094" lon="4.24481">
        <ele>350</ele>
        <time>2018-06-03T07:37:59.000Z</time>
      </trkpt>
      <trkpt lat="44.55094" lon="4.24481">
        <ele>350</ele>
        <time>2018-06-03T07:38:00.000Z</time>
      </trkpt>
      <trkpt lat="44.55095" lon="4.24481">
        <ele>350</ele>
        <time>2018-06-03T07:38:01.000Z</time>
      </trkpt>
      <trkpt lat="44.55095" lon="4.24481">
        <ele>350</ele>
        <time>2018-06-03T07:38:02.000Z</time>
      </trkpt>
      <trkpt lat="44.55095" lon="4.24481">
        <ele>350</ele>
        <time>2018-06-03T07:38:03.000Z</time>
      </trkpt>
      <trkpt lat="44.55095" lon="4.24481">
        <ele>350</ele>
        <time>2018-06-03T07:38:04.000Z</time>
      </trkpt>
      <trkpt lat="44.55095" lon="4.24481">
        <ele>350</ele>
        <time>2018-06-03T07:38:05.000Z</time>
      </trkpt>
      <trkpt lat="44.55095" lon="4.24481">
        <ele>350</ele>
        <time>2018-06-03T07:38:06.000Z</time>
      </trkpt>
      <trkpt lat="44.55095" lon="4.24482">
        <ele>350</ele>
        <time>2018-06-03T07:38:07.000Z</time>
      </trkpt>
      <trkpt lat="44.55095" lon="4.24482">
        <ele>350</ele>
        <time>2018-06-03T07:38:08.000Z</time>
      </trkpt>
      <trkpt lat="44.55095" lon="4.24482">
        <ele>350</ele>
        <time>2018-06-03T07:38:09.000Z</time>
      </trkpt>
      <trkpt lat="44.55095" lon="4.24482">
        <ele>350</ele>
        <time>2018-06-03T07:38:10.000Z</time>
      </trkpt>
      <trkpt lat="44.55095" lon="4.24482">
        <ele>350</ele>
        <time>2018-06-03T07:38:11.000Z</time>
      </trkpt>
      <trkpt lat="44.55095" lon="4.24482">
        <ele>350</ele>
        <time>2018-06-03T07:38:12.000Z</time>
      </trkpt>
      <trkpt lat="44.55095" lon="4.24482">
        <ele>350</ele>
        <time>2018-06-03T07:38:13.000Z</time>
      </trkpt>
      <trkpt lat="44.55096" lon="4.24483">
        <ele>350</ele>
        <time>2018-06-03T07:38:14.000Z</time>
      </trkpt>
      <trkpt lat="44.55096" lon="4.24483">
        <ele>350</ele>
        <time>2018-06-03T07:38:15.000Z</time>
      </trkpt>
      <trkpt lat="44.55098" lon="4.24484">
        <ele>350</ele>
        <time>2018-06-03T07:38:16.000Z</time>
      </trkpt>
      <trkpt lat="44.55098" lon="4.24484">
        <ele>350</ele>
        <time>2018-06-03T07:38:17.000Z</time>
      </trkpt>
      <trkpt lat="44.55099" lon="4.24484">
        <ele>350</ele>
        <time>2018-06-03T07:38:18.000Z</time>
      </trkpt>
      <trkpt lat="44.551" lon="4.24484">
        <ele>351</ele>
        <time>2018-06-03T07:38:19.000Z</time>
      </trkpt>
      <trkpt lat="44.55101" lon="4.24484">
        <ele>351</ele>
        <time>2018-06-03T07:38:20.000Z</time>
      </trkpt>
      <trkpt lat="44.55102" lon="4.24485">
        <ele>351</ele>
        <time>2018-06-03T07:38:21.000Z</time>
      </trkpt>
      <trkpt lat="44.55103" lon="4.24486">
        <ele>351</ele>
        <time>2018-06-03T07:38:22.000Z</time>
      </trkpt>
      <trkpt lat="44.55104" lon="4.24486">
        <ele>351</ele>
        <time>2018-06-03T07:38:23.000Z</time>
      </trkpt>
      <trkpt lat="44.55104" lon="4.24487">
        <ele>351</ele>
        <time>2018-06-03T07:38:24.000Z</time>
      </trkpt>
      <trkpt lat="44.55105" lon="4.24488">
        <ele>351</ele>
        <time>2018-06-03T07:38:25.000Z</time>
      </trkpt>
      <trkpt lat="44.55106" lon="4.24489">
        <ele>351</ele>
        <time>2018-06-03T07:38:26.000Z</time>
      </trkpt>
      <trkpt lat="44.55107" lon="4.24489">
        <ele>351</ele>
        <time>2018-06-03T07:38:27.000Z</time>
      </trkpt>
      <trkpt lat="44.55108" lon="4.24488">
        <ele>352</ele>
        <time>2018-06-03T07:38:28.000Z</time>
      </trkpt>
      <trkpt lat="44.55109" lon="4.24488">
        <ele>352</ele>
        <time>2018-06-03T07:38:29.000Z</time>
      </trkpt>
      <trkpt lat="44.55109" lon="4.24487">
        <ele>352</ele>
        <time>2018-06-03T07:38:30.000Z</time>
      </trkpt>
      <trkpt lat="44.5511" lon="4.24486">
        <ele>352</ele>
        <time>2018-06-03T07:38:31.000Z</time>
      </trkpt>
      <trkpt lat="44.5511" lon="4.24485">
        <ele>352</ele>
        <time>2018-06-03T07:38:32.000Z</time>
      </trkpt>
      <trkpt lat="44.5511" lon="4.24484">
        <ele>352</ele>
        <time>2018-06-03T07:38:33.000Z</time>
      </trkpt>
      <trkpt lat="44.5511" lon="4.24482">
        <ele>352</ele>
        <time>2018-06-03T07:38:34.000Z</time>
      </trkpt>
      <trkpt lat="44.5511" lon="4.24481">
        <ele>352</ele>
        <time>2018-06-03T07:38:35.000Z</time>
      </trkpt>
      <trkpt lat="44.55111" lon="4.2448">
        <ele>352</ele>
        <time>2018-06-03T07:38:36.000Z</time>
      </trkpt>
      <trkpt lat="44.55111" lon="4.24478">
        <ele>353</ele>
        <time>2018-06-03T07:38:37.000Z</time>
      </trkpt>
      <trkpt lat="44.55112" lon="4.24477">
        <ele>353</ele>
        <time>2018-06-03T07:38:38.000Z</time>
      </trkpt>
      <trkpt lat="44.55112" lon="4.24476">
        <ele>353</ele>
        <time>2018-06-03T07:38:39.000Z</time>
      </trkpt>
      <trkpt lat="44.55112" lon="4.24475">
        <ele>353</ele>
        <time>2018-06-03T07:38:40.000Z</time>
      </trkpt>
      <trkpt lat="44.55113" lon="4.24474">
        <ele>353</ele>
        <time>2018-06-03T07:38:41.000Z</time>
      </trkpt>
      <trkpt lat="44.55113" lon="4.24472">
        <ele>353</ele>
        <time>2018-06-03T07:38:42.000Z</time>
      </trkpt>
      <trkpt lat="44.55113" lon="4.24471">
        <ele>353</ele>
        <time>2018-06-03T07:38:43.000Z</time>
      </trkpt>
      <trkpt lat="44.55114" lon="4.2447">
        <ele>353</ele>
        <time>2018-06-03T07:38:44.000Z</time>
      </trkpt>
      <trkpt lat="44.55114" lon="4.24469">
        <ele>353</ele>
        <time>2018-06-03T07:38:45.000Z</time>
      </trkpt>
      <trkpt lat="44.55114" lon="4.24468">
        <ele>353</ele>
        <time>2018-06-03T07:38:46.000Z</time>
      </trkpt>
      <trkpt lat="44.55115" lon="4.24468">
        <ele>353</ele>
        <time>2018-06-03T07:38:47.000Z</time>
      </trkpt>
      <trkpt lat="44.55115" lon="4.24467">
        <ele>353</ele>
        <time>2018-06-03T07:38:48.000Z</time>
      </trkpt>
      <trkpt lat="44.55115" lon="4.24466">
        <ele>353</ele>
        <time>2018-06-03T07:38:49.000Z</time>
      </trkpt>
      <trkpt lat="44.55116" lon="4.24466">
        <ele>353</ele>
        <time>2018-06-03T07:38:50.000Z</time>
      </trkpt>
      <trkpt lat="44.55116" lon="4.24465">
        <ele>353</ele>
        <time>2018-06-03T07:38:51.000Z</time>
      </trkpt>
      <trkpt lat="44.55116" lon="4.24464">
        <ele>353</ele>
        <time>2018-06-03T07:38:52.000Z</time>
      </trkpt>
      <trkpt lat="44.55117" lon="4.24464">
        <ele>353</ele>
        <time>2018-06-03T07:38:53.000Z</time>
      </trkpt>
      <trkpt lat="44.55117" lon="4.24463">
        <ele>353</ele>
        <time>2018-06-03T07:38:54.000Z</time>
      </trkpt>
      <trkpt lat="44.55118" lon="4.24462">
        <ele>354</ele>
        <time>2018-06-03T07:38:55.000Z</time>
      </trkpt>
      <trkpt lat="44.55118" lon="4.24462">
        <ele>354</ele>
        <time>2018-06-03T07:38:56.000Z</time>
      </trkpt>
      <trkpt lat="44.55119" lon="4.24461">
        <ele>354</ele>
        <time>2018-06-03T07:38:57.000Z</time>
      </trkpt>
      <trkpt lat="44.55119" lon="4.24461">
        <ele>354</ele>
        <time>2018-06-03T07:38:58.000Z</time>
      </trkpt>
      <trkpt lat="44.55119" lon="4.2446">
        <ele>354</ele>
        <time>2018-06-03T07:38:59.000Z</time>
      </trkpt>
      <trkpt lat="44.55119" lon="4.2446">
        <ele>354</ele>
        <time>2018-06-03T07:39:00.000Z</time>
      </trkpt>
      <trkpt lat="44.55119" lon="4.2446">
        <ele>354</ele>
        <time>2018-06-03T07:39:01.000Z</time>
      </trkpt>
      <trkpt lat="44.55119" lon="4.2446">
        <ele>354</ele>
        <time>2018-06-03T07:39:02.000Z</time>
      </trkpt>
      <trkpt lat="44.55119" lon="4.2446">
        <ele>354</ele>
        <time>2018-06-03T07:39:03.000Z</time>
      </trkpt>
      <trkpt lat="44.55119" lon="4.2446">
        <ele>354</ele>
        <time>2018-06-03T07:39:04.000Z</time>
      </trkpt>
      <trkpt lat="44.55119" lon="4.24459">
        <ele>354</ele>
        <time>2018-06-03T07:39:05.000Z</time>
      </trkpt>
      <trkpt lat="44.55119" lon="4.24459">
        <ele>354</ele>
        <time>2018-06-03T07:39:06.000Z</time>
      </trkpt>
      <trkpt lat="44.55119" lon="4.24459">
        <ele>354</ele>
        <time>2018-06-03T07:39:07.000Z</time>
      </trkpt>
      <trkpt lat="44.5512" lon="4.24459">
        <ele>354</ele>
        <time>2018-06-03T07:39:08.000Z</time>
      </trkpt>
      <trkpt lat="44.5512" lon="4.24458">
        <ele>354</ele>
        <time>2018-06-03T07:39:09.000Z</time>
      </trkpt>
      <trkpt lat="44.5512" lon="4.24458">
        <ele>354</ele>
        <time>2018-06-03T07:39:10.000Z</time>
      </trkpt>
      <trkpt lat="44.5512" lon="4.24458">
        <ele>354</ele>
        <time>2018-06-03T07:39:11.000Z</time>
      </trkpt>
      <trkpt lat="44.5512" lon="4.24458">
        <ele>354</ele>
        <time>2018-06-03T07:39:12.000Z</time>
      </trkpt>
      <trkpt lat="44.5512" lon="4.24458">
        <ele>354</ele>
        <time>2018-06-03T07:39:13.000Z</time>
      </trkpt>
      <trkpt lat="44.5512" lon="4.24458">
        <ele>354</ele>
        <time>2018-06-03T07:39:14.000Z</time>
      </trkpt>
      <trkpt lat="44.5512" lon="4.24458">
        <ele>354</ele>
        <time>2018-06-03T07:39:15.000Z</time>
      </trkpt>
      <trkpt lat="44.5512" lon="4.24458">
        <ele>354</ele>
        <time>2018-06-03T07:39:16.000Z</time>
      </trkpt>
      <trkpt lat="44.5512" lon="4.24458">
        <ele>354</ele>
        <time>2018-06-03T07:39:17.000Z</time>
      </trkpt>
      <trkpt lat="44.5512" lon="4.24458">
        <ele>354</ele>
        <time>2018-06-03T07:39:18.000Z</time>
      </trkpt>
      <trkpt lat="44.5512" lon="4.24458">
        <ele>354</ele>
        <time>2018-06-03T07:39:19.000Z</time>
      </trkpt>
      <trkpt lat="44.5512" lon="4.24458">
        <ele>354</ele>
        <time>2018-06-03T07:39:20.000Z</time>
      </trkpt>
      <trkpt lat="44.55121" lon="4.24458">
        <ele>354</ele>
        <time>2018-06-03T07:39:21.000Z</time>
      </trkpt>
      <trkpt lat="44.55121" lon="4.24456">
        <ele>354</ele>
        <time>2018-06-03T07:39:22.000Z</time>
      </trkpt>
      <trkpt lat="44.55121" lon="4.24454">
        <ele>354</ele>
        <time>2018-06-03T07:39:23.000Z</time>
      </trkpt>
      <trkpt lat="44.55122" lon="4.24452">
        <ele>354</ele>
        <time>2018-06-03T07:39:24.000Z</time>
      </trkpt>
      <trkpt lat="44.55123" lon="4.24449">
        <ele>354</ele>
        <time>2018-06-03T07:39:25.000Z</time>
      </trkpt>
      <trkpt lat="44.55125" lon="4.24447">
        <ele>354</ele>
        <time>2018-06-03T07:39:26.000Z</time>
      </trkpt>
      <trkpt lat="44.55126" lon="4.24445">
        <ele>354</ele>
        <time>2018-06-03T07:39:27.000Z</time>
      </trkpt>
      <trkpt lat="44.55128" lon="4.24444">
        <ele>354</ele>
        <time>2018-06-03T07:39:28.000Z</time>
      </trkpt>
      <trkpt lat="44.5513" lon="4.24445">
        <ele>355</ele>
        <time>2018-06-03T07:39:29.000Z</time>
      </trkpt>
      <trkpt lat="44.55131" lon="4.24445">
        <ele>355</ele>
        <time>2018-06-03T07:39:30.000Z</time>
      </trkpt>
      <trkpt lat="44.55131" lon="4.24444">
        <ele>355</ele>
        <time>2018-06-03T07:39:31.000Z</time>
      </trkpt>
      <trkpt lat="44.55132" lon="4.24444">
        <ele>355</ele>
        <time>2018-06-03T07:39:32.000Z</time>
      </trkpt>
      <trkpt lat="44.55133" lon="4.24442">
        <ele>355</ele>
        <time>2018-06-03T07:39:33.000Z</time>
      </trkpt>
      <trkpt lat="44.55133" lon="4.24441">
        <ele>355</ele>
        <time>2018-06-03T07:39:34.000Z</time>
      </trkpt>
      <trkpt lat="44.55135" lon="4.2444">
        <ele>355</ele>
        <time>2018-06-03T07:39:35.000Z</time>
      </trkpt>
      <trkpt lat="44.55137" lon="4.24441">
        <ele>355</ele>
        <time>2018-06-03T07:39:36.000Z</time>
      </trkpt>
      <trkpt lat="44.55139" lon="4.2444">
        <ele>355</ele>
        <time>2018-06-03T07:39:37.000Z</time>
      </trkpt>
      <trkpt lat="44.55142" lon="4.2444">
        <ele>355</ele>
        <time>2018-06-03T07:39:38.000Z</time>
      </trkpt>
      <trkpt lat="44.55144" lon="4.24439">
        <ele>356</ele>
        <time>2018-06-03T07:39:39.000Z</time>
      </trkpt>
      <trkpt lat="44.55145" lon="4.24439">
        <ele>356</ele>
        <time>2018-06-03T07:39:40.000Z</time>
      </trkpt>
      <trkpt lat="44.55147" lon="4.24438">
        <ele>356</ele>
        <time>2018-06-03T07:39:41.000Z</time>
      </trkpt>
      <trkpt lat="44.55149" lon="4.24438">
        <ele>356</ele>
        <time>2018-06-03T07:39:42.000Z</time>
      </trkpt>
      <trkpt lat="44.5515" lon="4.24437">
        <ele>356</ele>
        <time>2018-06-03T07:39:43.000Z</time>
      </trkpt>
      <trkpt lat="44.55152" lon="4.24436">
        <ele>356</ele>
        <time>2018-06-03T07:39:44.000Z</time>
      </trkpt>
      <trkpt lat="44.55155" lon="4.24436">
        <ele>356</ele>
        <time>2018-06-03T07:39:45.000Z</time>
      </trkpt>
      <trkpt lat="44.55157" lon="4.24435">
        <ele>356</ele>
        <time>2018-06-03T07:39:46.000Z</time>
      </trkpt>
      <trkpt lat="44.5516" lon="4.24434">
        <ele>357</ele>
        <time>2018-06-03T07:39:47.000Z</time>
      </trkpt>
      <trkpt lat="44.55162" lon="4.24433">
        <ele>357</ele>
        <time>2018-06-03T07:39:48.000Z</time>
      </trkpt>
      <trkpt lat="44.55164" lon="4.24432">
        <ele>357</ele>
        <time>2018-06-03T07:39:49.000Z</time>
      </trkpt>
      <trkpt lat="44.55165" lon="4.24431">
        <ele>357</ele>
        <time>2018-06-03T07:39:50.000Z</time>
      </trkpt>
      <trkpt lat="44.55167" lon="4.24431">
        <ele>365</ele>
        <time>2018-06-03T07:39:51.000Z</time>
      </trkpt>
      <trkpt lat="44.5517" lon="4.24432">
        <ele>366</ele>
        <time>2018-06-03T07:39:52.000Z</time>
      </trkpt>
      <trkpt lat="44.55172" lon="4.24433">
        <ele>366</ele>
        <time>2018-06-03T07:39:53.000Z</time>
      </trkpt>
      <trkpt lat="44.55173" lon="4.24434">
        <ele>367</ele>
        <time>2018-06-03T07:39:54.000Z</time>
      </trkpt>
      <trkpt lat="44.55173" lon="4.24434">
        <ele>367</ele>
        <time>2018-06-03T07:39:55.000Z</time>
      </trkpt>
      <trkpt lat="44.55174" lon="4.24434">
        <ele>367</ele>
        <time>2018-06-03T07:39:56.000Z</time>
      </trkpt>
      <trkpt lat="44.55174" lon="4.24434">
        <ele>367</ele>
        <time>2018-06-03T07:39:57.000Z</time>
      </trkpt>
      <trkpt lat="44.55174" lon="4.24434">
        <ele>367</ele>
        <time>2018-06-03T07:39:58.000Z</time>
      </trkpt>
      <trkpt lat="44.55174" lon="4.24433">
        <ele>367</ele>
        <time>2018-06-03T07:39:59.000Z</time>
      </trkpt>
      <trkpt lat="44.55175" lon="4.24433">
        <ele>367</ele>
        <time>2018-06-03T07:40:00.000Z</time>
      </trkpt>
      <trkpt lat="44.55176" lon="4.24433">
        <ele>367</ele>
        <time>2018-06-03T07:40:01.000Z</time>
      </trkpt>
      <trkpt lat="44.55177" lon="4.24432">
        <ele>367</ele>
        <time>2018-06-03T07:40:02.000Z</time>
      </trkpt>
      <trkpt lat="44.55178" lon="4.24431">
        <ele>367</ele>
        <time>2018-06-03T07:40:03.000Z</time>
      </trkpt>
      <trkpt lat="44.55179" lon="4.24431">
        <ele>367</ele>
        <time>2018-06-03T07:40:04.000Z</time>
      </trkpt>
      <trkpt lat="44.5518" lon="4.2443">
        <ele>367</ele>
        <time>2018-06-03T07:40:05.000Z</time>
      </trkpt>
      <trkpt lat="44.55181" lon="4.2443">
        <ele>367</ele>
        <time>2018-06-03T07:40:06.000Z</time>
      </trkpt>
      <trkpt lat="44.55181" lon="4.24429">
        <ele>367</ele>
        <time>2018-06-03T07:40:07.000Z</time>
      </trkpt>
      <trkpt lat="44.55181" lon="4.24429">
        <ele>367</ele>
        <time>2018-06-03T07:40:08.000Z</time>
      </trkpt>
      <trkpt lat="44.55181" lon="4.24429">
        <ele>367</ele>
        <time>2018-06-03T07:40:09.000Z</time>
      </trkpt>
      <trkpt lat="44.55181" lon="4.24429">
        <ele>367</ele>
        <time>2018-06-03T07:40:10.000Z</time>
      </trkpt>
      <trkpt lat="44.55181" lon="4.24429">
        <ele>367</ele>
        <time>2018-06-03T07:40:11.000Z</time>
      </trkpt>
      <trkpt lat="44.55181" lon="4.24429">
        <ele>367</ele>
        <time>2018-06-03T07:40:12.000Z</time>
      </trkpt>
      <trkpt lat="44.55181" lon="4.24429">
        <ele>367</ele>
        <time>2018-06-03T07:40:13.000Z</time>
      </trkpt>
      <trkpt lat="44.55181" lon="4.24429">
        <ele>367</ele>
        <time>2018-06-03T07:40:14.000Z</time>
      </trkpt>
      <trkpt lat="44.55181" lon="4.24429">
        <ele>367</ele>
        <time>2018-06-03T07:40:15.000Z</time>
      </trkpt>
      <trkpt lat="44.55181" lon="4.24429">
        <ele>367</ele>
        <time>2018-06-03T07:40:16.000Z</time>
      </trkpt>
      <trkpt lat="44.55181" lon="4.24428">
        <ele>367</ele>
        <time>2018-06-03T07:40:17.000Z</time>
      </trkpt>
      <trkpt lat="44.55182" lon="4.24427">
        <ele>367</ele>
        <time>2018-06-03T07:40:18.000Z</time>
      </trkpt>
      <trkpt lat="44.55183" lon="4.24426">
        <ele>367</ele>
        <time>2018-06-03T07:40:19.000Z</time>
      </trkpt>
      <trkpt lat="44.55184" lon="4.24425">
        <ele>367</ele>
        <time>2018-06-03T07:40:20.000Z</time>
      </trkpt>
      <trkpt lat="44.55186" lon="4.24424">
        <ele>368</ele>
        <time>2018-06-03T07:40:21.000Z</time>
      </trkpt>
      <trkpt lat="44.55187" lon="4.24424">
        <ele>368</ele>
        <time>2018-06-03T07:40:22.000Z</time>
      </trkpt>
      <trkpt lat="44.55188" lon="4.24423">
        <ele>368</ele>
        <time>2018-06-03T07:40:23.000Z</time>
      </trkpt>
      <trkpt lat="44.55189" lon="4.24422">
        <ele>369</ele>
        <time>2018-06-03T07:40:24.000Z</time>
      </trkpt>
      <trkpt lat="44.5519" lon="4.24421">
        <ele>369</ele>
        <time>2018-06-03T07:40:25.000Z</time>
      </trkpt>
      <trkpt lat="44.55192" lon="4.2442">
        <ele>369</ele>
        <time>2018-06-03T07:40:26.000Z</time>
      </trkpt>
      <trkpt lat="44.55193" lon="4.24419">
        <ele>369</ele>
        <time>2018-06-03T07:40:27.000Z</time>
      </trkpt>
      <trkpt lat="44.55194" lon="4.24417">
        <ele>370</ele>
        <time>2018-06-03T07:40:28.000Z</time>
      </trkpt>
      <trkpt lat="44.55196" lon="4.24415">
        <ele>364</ele>
        <time>2018-06-03T07:40:29.000Z</time>
      </trkpt>
      <trkpt lat="44.55198" lon="4.24413">
        <ele>364</ele>
        <time>2018-06-03T07:40:30.000Z</time>
      </trkpt>
      <trkpt lat="44.55199" lon="4.24411">
        <ele>364</ele>
        <time>2018-06-03T07:40:31.000Z</time>
      </trkpt>
      <trkpt lat="44.55201" lon="4.24409">
        <ele>365</ele>
        <time>2018-06-03T07:40:32.000Z</time>
      </trkpt>
      <trkpt lat="44.55202" lon="4.24407">
        <ele>365</ele>
        <time>2018-06-03T07:40:33.000Z</time>
      </trkpt>
      <trkpt lat="44.55204" lon="4.24405">
        <ele>365</ele>
        <time>2018-06-03T07:40:34.000Z</time>
      </trkpt>
      <trkpt lat="44.55205" lon="4.24404">
        <ele>365</ele>
        <time>2018-06-03T07:40:35.000Z</time>
      </trkpt>
      <trkpt lat="44.55207" lon="4.24402">
        <ele>365</ele>
        <time>2018-06-03T07:40:36.000Z</time>
      </trkpt>
      <trkpt lat="44.55209" lon="4.244">
        <ele>366</ele>
        <time>2018-06-03T07:40:37.000Z</time>
      </trkpt>
      <trkpt lat="44.5521" lon="4.24399">
        <ele>366</ele>
        <time>2018-06-03T07:40:38.000Z</time>
      </trkpt>
      <trkpt lat="44.55211" lon="4.24397">
        <ele>366</ele>
        <time>2018-06-03T07:40:39.000Z</time>
      </trkpt>
      <trkpt lat="44.55212" lon="4.24396">
        <ele>366</ele>
        <time>2018-06-03T07:40:40.000Z</time>
      </trkpt>
      <trkpt lat="44.55214" lon="4.24394">
        <ele>366</ele>
        <time>2018-06-03T07:40:41.000Z</time>
      </trkpt>
      <trkpt lat="44.55215" lon="4.24393">
        <ele>366</ele>
        <time>2018-06-03T07:40:42.000Z</time>
      </trkpt>
      <trkpt lat="44.55217" lon="4.24391">
        <ele>366</ele>
        <time>2018-06-03T07:40:43.000Z</time>
      </trkpt>
      <trkpt lat="44.55218" lon="4.2439">
        <ele>366</ele>
        <time>2018-06-03T07:40:44.000Z</time>
      </trkpt>
      <trkpt lat="44.55219" lon="4.24389">
        <ele>366</ele>
        <time>2018-06-03T07:40:45.000Z</time>
      </trkpt>
      <trkpt lat="44.55221" lon="4.24387">
        <ele>366</ele>
        <time>2018-06-03T07:40:46.000Z</time>
      </trkpt>
      <trkpt lat="44.55222" lon="4.24385">
        <ele>366</ele>
        <time>2018-06-03T07:40:47.000Z</time>
      </trkpt>
      <trkpt lat="44.55224" lon="4.24384">
        <ele>366</ele>
        <time>2018-06-03T07:40:48.000Z</time>
      </trkpt>
      <trkpt lat="44.55225" lon="4.24382">
        <ele>366</ele>
        <time>2018-06-03T07:40:49.000Z</time>
      </trkpt>
      <trkpt lat="44.55227" lon="4.24381">
        <ele>366</ele>
        <time>2018-06-03T07:40:50.000Z</time>
      </trkpt>
      <trkpt lat="44.55228" lon="4.24379">
        <ele>366</ele>
        <time>2018-06-03T07:40:51.000Z</time>
      </trkpt>
      <trkpt lat="44.5523" lon="4.24378">
        <ele>365</ele>
        <time>2018-06-03T07:40:52.000Z</time>
      </trkpt>
      <trkpt lat="44.55231" lon="4.24376">
        <ele>365</ele>
        <time>2018-06-03T07:40:53.000Z</time>
      </trkpt>
      <trkpt lat="44.55233" lon="4.24374">
        <ele>365</ele>
        <time>2018-06-03T07:40:54.000Z</time>
      </trkpt>
      <trkpt lat="44.55234" lon="4.24372">
        <ele>365</ele>
        <time>2018-06-03T07:40:55.000Z</time>
      </trkpt>
      <trkpt lat="44.55236" lon="4.24371">
        <ele>364</ele>
        <time>2018-06-03T07:40:56.000Z</time>
      </trkpt>
      <trkpt lat="44.55237" lon="4.24369">
        <ele>364</ele>
        <time>2018-06-03T07:40:57.000Z</time>
      </trkpt>
      <trkpt lat="44.55239" lon="4.24368">
        <ele>364</ele>
        <time>2018-06-03T07:40:58.000Z</time>
      </trkpt>
      <trkpt lat="44.55241" lon="4.24367">
        <ele>364</ele>
        <time>2018-06-03T07:40:59.000Z</time>
      </trkpt>
      <trkpt lat="44.55243" lon="4.24366">
        <ele>364</ele>
        <time>2018-06-03T07:41:00.000Z</time>
      </trkpt>
      <trkpt lat="44.55245" lon="4.24365">
        <ele>364</ele>
        <time>2018-06-03T07:41:01.000Z</time>
      </trkpt>
      <trkpt lat="44.55248" lon="4.24365">
        <ele>363</ele>
        <time>2018-06-03T07:41:02.000Z</time>
      </trkpt>
      <trkpt lat="44.5525" lon="4.24365">
        <ele>364</ele>
        <time>2018-06-03T07:41:03.000Z</time>
      </trkpt>
      <trkpt lat="44.55252" lon="4.24365">
        <ele>369</ele>
        <time>2018-06-03T07:41:04.000Z</time>
      </trkpt>
      <trkpt lat="44.55254" lon="4.24365">
        <ele>369</ele>
        <time>2018-06-03T07:41:05.000Z</time>
      </trkpt>
      <trkpt lat="44.55256" lon="4.24364">
        <ele>369</ele>
        <time>2018-06-03T07:41:06.000Z</time>
      </trkpt>
      <trkpt lat="44.55258" lon="4.24364">
        <ele>369</ele>
        <time>2018-06-03T07:41:07.000Z</time>
      </trkpt>
      <trkpt lat="44.5526" lon="4.24364">
        <ele>369</ele>
        <time>2018-06-03T07:41:08.000Z</time>
      </trkpt>
      <trkpt lat="44.55263" lon="4.24363">
        <ele>369</ele>
        <time>2018-06-03T07:41:09.000Z</time>
      </trkpt>
      <trkpt lat="44.55265" lon="4.24362">
        <ele>369</ele>
        <time>2018-06-03T07:41:10.000Z</time>
      </trkpt>
      <trkpt lat="44.55267" lon="4.24361">
        <ele>369</ele>
        <time>2018-06-03T07:41:11.000Z</time>
      </trkpt>
      <trkpt lat="44.5527" lon="4.2436">
        <ele>369</ele>
        <time>2018-06-03T07:41:12.000Z</time>
      </trkpt>
      <trkpt lat="44.55272" lon="4.2436">
        <ele>369</ele>
        <time>2018-06-03T07:41:13.000Z</time>
      </trkpt>
      <trkpt lat="44.55274" lon="4.24359">
        <ele>369</ele>
        <time>2018-06-03T07:41:14.000Z</time>
      </trkpt>
      <trkpt lat="44.55276" lon="4.24359">
        <ele>369</ele>
        <time>2018-06-03T07:41:15.000Z</time>
      </trkpt>
      <trkpt lat="44.55279" lon="4.24359">
        <ele>370</ele>
        <time>2018-06-03T07:41:16.000Z</time>
      </trkpt>
      <trkpt lat="44.55282" lon="4.24359">
        <ele>370</ele>
        <time>2018-06-03T07:41:17.000Z</time>
      </trkpt>
      <trkpt lat="44.55284" lon="4.24359">
        <ele>370</ele>
        <time>2018-06-03T07:41:18.000Z</time>
      </trkpt>
      <trkpt lat="44.55287" lon="4.24358">
        <ele>370</ele>
        <time>2018-06-03T07:41:19.000Z</time>
      </trkpt>
      <trkpt lat="44.55289" lon="4.24358">
        <ele>370</ele>
        <time>2018-06-03T07:41:20.000Z</time>
      </trkpt>
      <trkpt lat="44.55292" lon="4.24358">
        <ele>371</ele>
        <time>2018-06-03T07:41:21.000Z</time>
      </trkpt>
      <trkpt lat="44.55295" lon="4.24358">
        <ele>371</ele>
        <time>2018-06-03T07:41:22.000Z</time>
      </trkpt>
      <trkpt lat="44.55298" lon="4.24358">
        <ele>371</ele>
        <time>2018-06-03T07:41:23.000Z</time>
      </trkpt>
      <trkpt lat="44.55301" lon="4.24359">
        <ele>371</ele>
        <time>2018-06-03T07:41:24.000Z</time>
      </trkpt>
      <trkpt lat="44.55304" lon="4.24359">
        <ele>371</ele>
        <time>2018-06-03T07:41:25.000Z</time>
      </trkpt>
      <trkpt lat="44.55306" lon="4.2436">
        <ele>372</ele>
        <time>2018-06-03T07:41:26.000Z</time>
      </trkpt>
      <trkpt lat="44.55309" lon="4.2436">
        <ele>372</ele>
        <time>2018-06-03T07:41:27.000Z</time>
      </trkpt>
      <trkpt lat="44.55311" lon="4.24361">
        <ele>372</ele>
        <time>2018-06-03T07:41:28.000Z</time>
      </trkpt>
      <trkpt lat="44.55314" lon="4.24362">
        <ele>372</ele>
        <time>2018-06-03T07:41:29.000Z</time>
      </trkpt>
      <trkpt lat="44.55316" lon="4.24363">
        <ele>372</ele>
        <time>2018-06-03T07:41:30.000Z</time>
      </trkpt>
      <trkpt lat="44.55319" lon="4.24363">
        <ele>372</ele>
        <time>2018-06-03T07:41:31.000Z</time>
      </trkpt>
      <trkpt lat="44.55321" lon="4.24365">
        <ele>373</ele>
        <time>2018-06-03T07:41:32.000Z</time>
      </trkpt>
      <trkpt lat="44.55324" lon="4.24366">
        <ele>373</ele>
        <time>2018-06-03T07:41:33.000Z</time>
      </trkpt>
      <trkpt lat="44.55326" lon="4.24367">
        <ele>373</ele>
        <time>2018-06-03T07:41:34.000Z</time>
      </trkpt>
      <trkpt lat="44.55328" lon="4.24368">
        <ele>374</ele>
        <time>2018-06-03T07:41:35.000Z</time>
      </trkpt>
      <trkpt lat="44.55331" lon="4.24368">
        <ele>374</ele>
        <time>2018-06-03T07:41:36.000Z</time>
      </trkpt>
      <trkpt lat="44.55333" lon="4.24369">
        <ele>374</ele>
        <time>2018-06-03T07:41:37.000Z</time>
      </trkpt>
      <trkpt lat="44.55336" lon="4.24369">
        <ele>383</ele>
        <time>2018-06-03T07:41:38.000Z</time>
      </trkpt>
      <trkpt lat="44.55338" lon="4.24368">
        <ele>383</ele>
        <time>2018-06-03T07:41:39.000Z</time>
      </trkpt>
      <trkpt lat="44.55341" lon="4.24368">
        <ele>383</ele>
        <time>2018-06-03T07:41:40.000Z</time>
      </trkpt>
      <trkpt lat="44.55344" lon="4.24367">
        <ele>383</ele>
        <time>2018-06-03T07:41:41.000Z</time>
      </trkpt>
      <trkpt lat="44.55346" lon="4.24367">
        <ele>383</ele>
        <time>2018-06-03T07:41:42.000Z</time>
      </trkpt>
      <trkpt lat="44.55349" lon="4.24367">
        <ele>383</ele>
        <time>2018-06-03T07:41:43.000Z</time>
      </trkpt>
      <trkpt lat="44.55352" lon="4.24367">
        <ele>384</ele>
        <time>2018-06-03T07:41:44.000Z</time>
      </trkpt>
      <trkpt lat="44.55354" lon="4.24367">
        <ele>384</ele>
        <time>2018-06-03T07:41:45.000Z</time>
      </trkpt>
      <trkpt lat="44.55357" lon="4.24367">
        <ele>384</ele>
        <time>2018-06-03T07:41:46.000Z</time>
      </trkpt>
      <trkpt lat="44.55359" lon="4.24367">
        <ele>385</ele>
        <time>2018-06-03T07:41:47.000Z</time>
      </trkpt>
      <trkpt lat="44.55361" lon="4.24367">
        <ele>385</ele>
        <time>2018-06-03T07:41:48.000Z</time>
      </trkpt>
      <trkpt lat="44.55364" lon="4.24366">
        <ele>385</ele>
        <time>2018-06-03T07:41:49.000Z</time>
      </trkpt>
      <trkpt lat="44.55366" lon="4.24365">
        <ele>385</ele>
        <time>2018-06-03T07:41:50.000Z</time>
      </trkpt>
      <trkpt lat="44.55368" lon="4.24364">
        <ele>385</ele>
        <time>2018-06-03T07:41:51.000Z</time>
      </trkpt>
      <trkpt lat="44.55371" lon="4.24364">
        <ele>385</ele>
        <time>2018-06-03T07:41:52.000Z</time>
      </trkpt>
      <trkpt lat="44.55373" lon="4.24363">
        <ele>385</ele>
        <time>2018-06-03T07:41:53.000Z</time>
      </trkpt>
      <trkpt lat="44.55375" lon="4.24363">
        <ele>386</ele>
        <time>2018-06-03T07:41:54.000Z</time>
      </trkpt>
      <trkpt lat="44.55377" lon="4.24362">
        <ele>386</ele>
        <time>2018-06-03T07:41:55.000Z</time>
      </trkpt>
      <trkpt lat="44.55379" lon="4.24362">
        <ele>386</ele>
        <time>2018-06-03T07:41:56.000Z</time>
      </trkpt>
      <trkpt lat="44.55381" lon="4.24362">
        <ele>386</ele>
        <time>2018-06-03T07:41:57.000Z</time>
      </trkpt>
      <trkpt lat="44.55383" lon="4.24361">
        <ele>386</ele>
        <time>2018-06-03T07:41:58.000Z</time>
      </trkpt>
      <trkpt lat="44.55384" lon="4.24361">
        <ele>386</ele>
        <time>2018-06-03T07:41:59.000Z</time>
      </trkpt>
      <trkpt lat="44.55385" lon="4.24361">
        <ele>386</ele>
        <time>2018-06-03T07:42:00.000Z</time>
      </trkpt>
      <trkpt lat="44.55387" lon="4.2436">
        <ele>386</ele>
        <time>2018-06-03T07:42:01.000Z</time>
      </trkpt>
      <trkpt lat="44.55388" lon="4.2436">
        <ele>386</ele>
        <time>2018-06-03T07:42:02.000Z</time>
      </trkpt>
      <trkpt lat="44.55389" lon="4.2436">
        <ele>386</ele>
        <time>2018-06-03T07:42:03.000Z</time>
      </trkpt>
      <trkpt lat="44.55391" lon="4.24359">
        <ele>386</ele>
        <time>2018-06-03T07:42:04.000Z</time>
      </trkpt>
      <trkpt lat="44.55392" lon="4.24358">
        <ele>386</ele>
        <time>2018-06-03T07:42:05.000Z</time>
      </trkpt>
      <trkpt lat="44.55393" lon="4.24358">
        <ele>386</ele>
        <time>2018-06-03T07:42:06.000Z</time>
      </trkpt>
      <trkpt lat="44.55394" lon="4.24357">
        <ele>386</ele>
        <time>2018-06-03T07:42:07.000Z</time>
      </trkpt>
      <trkpt lat="44.55395" lon="4.24355">
        <ele>386</ele>
        <time>2018-06-03T07:42:08.000Z</time>
      </trkpt>
      <trkpt lat="44.55397" lon="4.24354">
        <ele>386</ele>
        <time>2018-06-03T07:42:09.000Z</time>
      </trkpt>
      <trkpt lat="44.55398" lon="4.24354">
        <ele>386</ele>
        <time>2018-06-03T07:42:10.000Z</time>
      </trkpt>
      <trkpt lat="44.554" lon="4.24352">
        <ele>386</ele>
        <time>2018-06-03T07:42:11.000Z</time>
      </trkpt>
      <trkpt lat="44.554" lon="4.24351">
        <ele>385</ele>
        <time>2018-06-03T07:42:12.000Z</time>
      </trkpt>
      <trkpt lat="44.55402" lon="4.24349">
        <ele>385</ele>
        <time>2018-06-03T07:42:13.000Z</time>
      </trkpt>
      <trkpt lat="44.55403" lon="4.24348">
        <ele>385</ele>
        <time>2018-06-03T07:42:14.000Z</time>
      </trkpt>
      <trkpt lat="44.55404" lon="4.24347">
        <ele>385</ele>
        <time>2018-06-03T07:42:15.000Z</time>
      </trkpt>
      <trkpt lat="44.55406" lon="4.24347">
        <ele>385</ele>
        <time>2018-06-03T07:42:16.000Z</time>
      </trkpt>
      <trkpt lat="44.55407" lon="4.24346">
        <ele>384</ele>
        <time>2018-06-03T07:42:17.000Z</time>
      </trkpt>
      <trkpt lat="44.55408" lon="4.24345">
        <ele>384</ele>
        <time>2018-06-03T07:42:18.000Z</time>
      </trkpt>
      <trkpt lat="44.55409" lon="4.24344">
        <ele>384</ele>
        <time>2018-06-03T07:42:19.000Z</time>
      </trkpt>
      <trkpt lat="44.55411" lon="4.24343">
        <ele>384</ele>
        <time>2018-06-03T07:42:20.000Z</time>
      </trkpt>
      <trkpt lat="44.55413" lon="4.24342">
        <ele>383</ele>
        <time>2018-06-03T07:42:21.000Z</time>
      </trkpt>
      <trkpt lat="44.55415" lon="4.24342">
        <ele>383</ele>
        <time>2018-06-03T07:42:22.000Z</time>
      </trkpt>
      <trkpt lat="44.55416" lon="4.24341">
        <ele>383</ele>
        <time>2018-06-03T07:42:23.000Z</time>
      </trkpt>
      <trkpt lat="44.55418" lon="4.2434">
        <ele>387</ele>
        <time>2018-06-03T07:42:24.000Z</time>
      </trkpt>
      <trkpt lat="44.55419" lon="4.24339">
        <ele>387</ele>
        <time>2018-06-03T07:42:25.000Z</time>
      </trkpt>
      <trkpt lat="44.5542" lon="4.24338">
        <ele>387</ele>
        <time>2018-06-03T07:42:26.000Z</time>
      </trkpt>
      <trkpt lat="44.55422" lon="4.24336">
        <ele>387</ele>
        <time>2018-06-03T07:42:27.000Z</time>
      </trkpt>
      <trkpt lat="44.55423" lon="4.24334">
        <ele>387</ele>
        <time>2018-06-03T07:42:28.000Z</time>
      </trkpt>
      <trkpt lat="44.55424" lon="4.24332">
        <ele>382</ele>
        <time>2018-06-03T07:42:29.000Z</time>
      </trkpt>
      <trkpt lat="44.55425" lon="4.24331">
        <ele>383</ele>
        <time>2018-06-03T07:42:30.000Z</time>
      </trkpt>
      <trkpt lat="44.55426" lon="4.2433">
        <ele>383</ele>
        <time>2018-06-03T07:42:31.000Z</time>
      </trkpt>
      <trkpt lat="44.55427" lon="4.24328">
        <ele>383</ele>
        <time>2018-06-03T07:42:32.000Z</time>
      </trkpt>
      <trkpt lat="44.55428" lon="4.24326">
        <ele>383</ele>
        <time>2018-06-03T07:42:33.000Z</time>
      </trkpt>
      <trkpt lat="44.55429" lon="4.24325">
        <ele>383</ele>
        <time>2018-06-03T07:42:34.000Z</time>
      </trkpt>
      <trkpt lat="44.5543" lon="4.24324">
        <ele>384</ele>
        <time>2018-06-03T07:42:35.000Z</time>
      </trkpt>
      <trkpt lat="44.55431" lon="4.24323">
        <ele>384</ele>
        <time>2018-06-03T07:42:36.000Z</time>
      </trkpt>
      <trkpt lat="44.55432" lon="4.24322">
        <ele>384</ele>
        <time>2018-06-03T07:42:37.000Z</time>
      </trkpt>
      <trkpt lat="44.55434" lon="4.24321">
        <ele>384</ele>
        <time>2018-06-03T07:42:38.000Z</time>
      </trkpt>
      <trkpt lat="44.55435" lon="4.2432">
        <ele>384</ele>
        <time>2018-06-03T07:42:39.000Z</time>
      </trkpt>
      <trkpt lat="44.55436" lon="4.24319">
        <ele>384</ele>
        <time>2018-06-03T07:42:40.000Z</time>
      </trkpt>
      <trkpt lat="44.55437" lon="4.24318">
        <ele>385</ele>
        <time>2018-06-03T07:42:41.000Z</time>
      </trkpt>
      <trkpt lat="44.55438" lon="4.24317">
        <ele>385</ele>
        <time>2018-06-03T07:42:42.000Z</time>
      </trkpt>
      <trkpt lat="44.5544" lon="4.24316">
        <ele>385</ele>
        <time>2018-06-03T07:42:43.000Z</time>
      </trkpt>
      <trkpt lat="44.55441" lon="4.24315">
        <ele>385</ele>
        <time>2018-06-03T07:42:44.000Z</time>
      </trkpt>
      <trkpt lat="44.55442" lon="4.24314">
        <ele>385</ele>
        <time>2018-06-03T07:42:45.000Z</time>
      </trkpt>
      <trkpt lat="44.55443" lon="4.24313">
        <ele>385</ele>
        <time>2018-06-03T07:42:46.000Z</time>
      </trkpt>
      <trkpt lat="44.55444" lon="4.24312">
        <ele>385</ele>
        <time>2018-06-03T07:42:47.000Z</time>
      </trkpt>
      <trkpt lat="44.55445" lon="4.24311">
        <ele>385</ele>
        <time>2018-06-03T07:42:48.000Z</time>
      </trkpt>
      <trkpt lat="44.55446" lon="4.2431">
        <ele>386</ele>
        <time>2018-06-03T07:42:49.000Z</time>
      </trkpt>
      <trkpt lat="44.55448" lon="4.24309">
        <ele>386</ele>
        <time>2018-06-03T07:42:50.000Z</time>
      </trkpt>
      <trkpt lat="44.55449" lon="4.24309">
        <ele>386</ele>
        <time>2018-06-03T07:42:51.000Z</time>
      </trkpt>
      <trkpt lat="44.55451" lon="4.24308">
        <ele>386</ele>
        <time>2018-06-03T07:42:52.000Z</time>
      </trkpt>
      <trkpt lat="44.55452" lon="4.24306">
        <ele>386</ele>
        <time>2018-06-03T07:42:53.000Z</time>
      </trkpt>
      <trkpt lat="44.55453" lon="4.24305">
        <ele>386</ele>
        <time>2018-06-03T07:42:54.000Z</time>
      </trkpt>
      <trkpt lat="44.55455" lon="4.24303">
        <ele>386</ele>
        <time>2018-06-03T07:42:55.000Z</time>
      </trkpt>
      <trkpt lat="44.55457" lon="4.24302">
        <ele>387</ele>
        <time>2018-06-03T07:42:56.000Z</time>
      </trkpt>
      <trkpt lat="44.55458" lon="4.24301">
        <ele>387</ele>
        <time>2018-06-03T07:42:57.000Z</time>
      </trkpt>
      <trkpt lat="44.55459" lon="4.24301">
        <ele>387</ele>
        <time>2018-06-03T07:42:58.000Z</time>
      </trkpt>
      <trkpt lat="44.5546" lon="4.243">
        <ele>387</ele>
        <time>2018-06-03T07:42:59.000Z</time>
      </trkpt>
      <trkpt lat="44.55462" lon="4.243">
        <ele>387</ele>
        <time>2018-06-03T07:43:00.000Z</time>
      </trkpt>
      <trkpt lat="44.55463" lon="4.24299">
        <ele>387</ele>
        <time>2018-06-03T07:43:01.000Z</time>
      </trkpt>
      <trkpt lat="44.55465" lon="4.24297">
        <ele>387</ele>
        <time>2018-06-03T07:43:02.000Z</time>
      </trkpt>
      <trkpt lat="44.55467" lon="4.24297">
        <ele>388</ele>
        <time>2018-06-03T07:43:03.000Z</time>
      </trkpt>
      <trkpt lat="44.55469" lon="4.24296">
        <ele>388</ele>
        <time>2018-06-03T07:43:04.000Z</time>
      </trkpt>
      <trkpt lat="44.5547" lon="4.24295">
        <ele>388</ele>
        <time>2018-06-03T07:43:05.000Z</time>
      </trkpt>
      <trkpt lat="44.55472" lon="4.24294">
        <ele>388</ele>
        <time>2018-06-03T07:43:06.000Z</time>
      </trkpt>
      <trkpt lat="44.55473" lon="4.24293">
        <ele>388</ele>
        <time>2018-06-03T07:43:07.000Z</time>
      </trkpt>
      <trkpt lat="44.55475" lon="4.24292">
        <ele>388</ele>
        <time>2018-06-03T07:43:08.000Z</time>
      </trkpt>
      <trkpt lat="44.55476" lon="4.24291">
        <ele>388</ele>
        <time>2018-06-03T07:43:09.000Z</time>
      </trkpt>
      <trkpt lat="44.55478" lon="4.2429">
        <ele>388</ele>
        <time>2018-06-03T07:43:10.000Z</time>
      </trkpt>
      <trkpt lat="44.55479" lon="4.2429">
        <ele>388</ele>
        <time>2018-06-03T07:43:11.000Z</time>
      </trkpt>
      <trkpt lat="44.55481" lon="4.24288">
        <ele>388</ele>
        <time>2018-06-03T07:43:12.000Z</time>
      </trkpt>
      <trkpt lat="44.55483" lon="4.24287">
        <ele>388</ele>
        <time>2018-06-03T07:43:13.000Z</time>
      </trkpt>
      <trkpt lat="44.55485" lon="4.24285">
        <ele>388</ele>
        <time>2018-06-03T07:43:14.000Z</time>
      </trkpt>
      <trkpt lat="44.55487" lon="4.24283">
        <ele>388</ele>
        <time>2018-06-03T07:43:15.000Z</time>
      </trkpt>
      <trkpt lat="44.55489" lon="4.24281">
        <ele>388</ele>
        <time>2018-06-03T07:43:16.000Z</time>
      </trkpt>
      <trkpt lat="44.55491" lon="4.2428">
        <ele>388</ele>
        <time>2018-06-03T07:43:17.000Z</time>
      </trkpt>
      <trkpt lat="44.55492" lon="4.24278">
        <ele>388</ele>
        <time>2018-06-03T07:43:18.000Z</time>
      </trkpt>
      <trkpt lat="44.55494" lon="4.24277">
        <ele>388</ele>
        <time>2018-06-03T07:43:19.000Z</time>
      </trkpt>
      <trkpt lat="44.55496" lon="4.24275">
        <ele>388</ele>
        <time>2018-06-03T07:43:20.000Z</time>
      </trkpt>
      <trkpt lat="44.55497" lon="4.24273">
        <ele>388</ele>
        <time>2018-06-03T07:43:21.000Z</time>
      </trkpt>
      <trkpt lat="44.55499" lon="4.24271">
        <ele>388</ele>
        <time>2018-06-03T07:43:22.000Z</time>
      </trkpt>
      <trkpt lat="44.55501" lon="4.24269">
        <ele>395</ele>
        <time>2018-06-03T07:43:23.000Z</time>
      </trkpt>
      <trkpt lat="44.55503" lon="4.24267">
        <ele>395</ele>
        <time>2018-06-03T07:43:24.000Z</time>
      </trkpt>
      <trkpt lat="44.55504" lon="4.24265">
        <ele>394</ele>
        <time>2018-06-03T07:43:25.000Z</time>
      </trkpt>
      <trkpt lat="44.55506" lon="4.24264">
        <ele>394</ele>
        <time>2018-06-03T07:43:26.000Z</time>
      </trkpt>
      <trkpt lat="44.55508" lon="4.24262">
        <ele>394</ele>
        <time>2018-06-03T07:43:27.000Z</time>
      </trkpt>
      <trkpt lat="44.5551" lon="4.24262">
        <ele>394</ele>
        <time>2018-06-03T07:43:28.000Z</time>
      </trkpt>
      <trkpt lat="44.55511" lon="4.24261">
        <ele>394</ele>
        <time>2018-06-03T07:43:29.000Z</time>
      </trkpt>
      <trkpt lat="44.55513" lon="4.2426">
        <ele>394</ele>
        <time>2018-06-03T07:43:30.000Z</time>
      </trkpt>
      <trkpt lat="44.55515" lon="4.24259">
        <ele>394</ele>
        <time>2018-06-03T07:43:31.000Z</time>
      </trkpt>
      <trkpt lat="44.55517" lon="4.24258">
        <ele>395</ele>
        <time>2018-06-03T07:43:32.000Z</time>
      </trkpt>
      <trkpt lat="44.55519" lon="4.24257">
        <ele>395</ele>
        <time>2018-06-03T07:43:33.000Z</time>
      </trkpt>
      <trkpt lat="44.55521" lon="4.24256">
        <ele>395</ele>
        <time>2018-06-03T07:43:34.000Z</time>
      </trkpt>
      <trkpt lat="44.55523" lon="4.24255">
        <ele>396</ele>
        <time>2018-06-03T07:43:35.000Z</time>
      </trkpt>
      <trkpt lat="44.55526" lon="4.24254">
        <ele>396</ele>
        <time>2018-06-03T07:43:36.000Z</time>
      </trkpt>
      <trkpt lat="44.55528" lon="4.24254">
        <ele>396</ele>
        <time>2018-06-03T07:43:37.000Z</time>
      </trkpt>
      <trkpt lat="44.5553" lon="4.24253">
        <ele>396</ele>
        <time>2018-06-03T07:43:38.000Z</time>
      </trkpt>
      <trkpt lat="44.55531" lon="4.24253">
        <ele>397</ele>
        <time>2018-06-03T07:43:39.000Z</time>
      </trkpt>
      <trkpt lat="44.55533" lon="4.24252">
        <ele>397</ele>
        <time>2018-06-03T07:43:40.000Z</time>
      </trkpt>
      <trkpt lat="44.55535" lon="4.24253">
        <ele>397</ele>
        <time>2018-06-03T07:43:41.000Z</time>
      </trkpt>
      <trkpt lat="44.55537" lon="4.24253">
        <ele>397</ele>
        <time>2018-06-03T07:43:42.000Z</time>
      </trkpt>
      <trkpt lat="44.55539" lon="4.24254">
        <ele>397</ele>
        <time>2018-06-03T07:43:43.000Z</time>
      </trkpt>
      <trkpt lat="44.5554" lon="4.24254">
        <ele>397</ele>
        <time>2018-06-03T07:43:44.000Z</time>
      </trkpt>
      <trkpt lat="44.55542" lon="4.24254">
        <ele>398</ele>
        <time>2018-06-03T07:43:45.000Z</time>
      </trkpt>
      <trkpt lat="44.55544" lon="4.24254">
        <ele>398</ele>
        <time>2018-06-03T07:43:46.000Z</time>
      </trkpt>
      <trkpt lat="44.55545" lon="4.24255">
        <ele>398</ele>
        <time>2018-06-03T07:43:47.000Z</time>
      </trkpt>
      <trkpt lat="44.55546" lon="4.24256">
        <ele>398</ele>
        <time>2018-06-03T07:43:48.000Z</time>
      </trkpt>
      <trkpt lat="44.55547" lon="4.24257">
        <ele>398</ele>
        <time>2018-06-03T07:43:49.000Z</time>
      </trkpt>
      <trkpt lat="44.55548" lon="4.24259">
        <ele>398</ele>
        <time>2018-06-03T07:43:50.000Z</time>
      </trkpt>
      <trkpt lat="44.55549" lon="4.2426">
        <ele>398</ele>
        <time>2018-06-03T07:43:51.000Z</time>
      </trkpt>
      <trkpt lat="44.55549" lon="4.24262">
        <ele>398</ele>
        <time>2018-06-03T07:43:52.000Z</time>
      </trkpt>
      <trkpt lat="44.55549" lon="4.24263">
        <ele>398</ele>
        <time>2018-06-03T07:43:53.000Z</time>
      </trkpt>
      <trkpt lat="44.55548" lon="4.24264">
        <ele>398</ele>
        <time>2018-06-03T07:43:54.000Z</time>
      </trkpt>
      <trkpt lat="44.55547" lon="4.24266">
        <ele>399</ele>
        <time>2018-06-03T07:43:55.000Z</time>
      </trkpt>
      <trkpt lat="44.55546" lon="4.24267">
        <ele>399</ele>
        <time>2018-06-03T07:43:56.000Z</time>
      </trkpt>
      <trkpt lat="44.55545" lon="4.24267">
        <ele>399</ele>
        <time>2018-06-03T07:43:57.000Z</time>
      </trkpt>
      <trkpt lat="44.55544" lon="4.24268">
        <ele>399</ele>
        <time>2018-06-03T07:43:58.000Z</time>
      </trkpt>
      <trkpt lat="44.55544" lon="4.24268">
        <ele>399</ele>
        <time>2018-06-03T07:43:59.000Z</time>
      </trkpt>
      <trkpt lat="44.55543" lon="4.24269">
        <ele>399</ele>
        <time>2018-06-03T07:44:00.000Z</time>
      </trkpt>
      <trkpt lat="44.55543" lon="4.2427">
        <ele>399</ele>
        <time>2018-06-03T07:44:01.000Z</time>
      </trkpt>
      <trkpt lat="44.55542" lon="4.24271">
        <ele>399</ele>
        <time>2018-06-03T07:44:02.000Z</time>
      </trkpt>
      <trkpt lat="44.55541" lon="4.24271">
        <ele>399</ele>
        <time>2018-06-03T07:44:03.000Z</time>
      </trkpt>
      <trkpt lat="44.5554" lon="4.24272">
        <ele>399</ele>
        <time>2018-06-03T07:44:04.000Z</time>
      </trkpt>
      <trkpt lat="44.5554" lon="4.24274">
        <ele>399</ele>
        <time>2018-06-03T07:44:05.000Z</time>
      </trkpt>
      <trkpt lat="44.55539" lon="4.24275">
        <ele>399</ele>
        <time>2018-06-03T07:44:06.000Z</time>
      </trkpt>
      <trkpt lat="44.55538" lon="4.24277">
        <ele>399</ele>
        <time>2018-06-03T07:44:07.000Z</time>
      </trkpt>
      <trkpt lat="44.55537" lon="4.24279">
        <ele>399</ele>
        <time>2018-06-03T07:44:08.000Z</time>
      </trkpt>
      <trkpt lat="44.55536" lon="4.24281">
        <ele>399</ele>
        <time>2018-06-03T07:44:09.000Z</time>
      </trkpt>
      <trkpt lat="44.55535" lon="4.24282">
        <ele>399</ele>
        <time>2018-06-03T07:44:10.000Z</time>
      </trkpt>
      <trkpt lat="44.55534" lon="4.24284">
        <ele>399</ele>
        <time>2018-06-03T07:44:11.000Z</time>
      </trkpt>
      <trkpt lat="44.55533" lon="4.24285">
        <ele>400</ele>
        <time>2018-06-03T07:44:12.000Z</time>
      </trkpt>
      <trkpt lat="44.55532" lon="4.24287">
        <ele>400</ele>
        <time>2018-06-03T07:44:13.000Z</time>
      </trkpt>
      <trkpt lat="44.55531" lon="4.24288">
        <ele>400</ele>
        <time>2018-06-03T07:44:14.000Z</time>
      </trkpt>
      <trkpt lat="44.55532" lon="4.24289">
        <ele>400</ele>
        <time>2018-06-03T07:44:15.000Z</time>
      </trkpt>
      <trkpt lat="44.55532" lon="4.2429">
        <ele>400</ele>
        <time>2018-06-03T07:44:16.000Z</time>
      </trkpt>
      <trkpt lat="44.55532" lon="4.24291">
        <ele>400</ele>
        <time>2018-06-03T07:44:17.000Z</time>
      </trkpt>
      <trkpt lat="44.55532" lon="4.24291">
        <ele>400</ele>
        <time>2018-06-03T07:44:18.000Z</time>
      </trkpt>
      <trkpt lat="44.55533" lon="4.24291">
        <ele>400</ele>
        <time>2018-06-03T07:44:19.000Z</time>
      </trkpt>
      <trkpt lat="44.55533" lon="4.24291">
        <ele>400</ele>
        <time>2018-06-03T07:44:20.000Z</time>
      </trkpt>
      <trkpt lat="44.55534" lon="4.24291">
        <ele>400</ele>
        <time>2018-06-03T07:44:21.000Z</time>
      </trkpt>
      <trkpt lat="44.55535" lon="4.24291">
        <ele>400</ele>
        <time>2018-06-03T07:44:22.000Z</time>
      </trkpt>
      <trkpt lat="44.55535" lon="4.24291">
        <ele>400</ele>
        <time>2018-06-03T07:44:23.000Z</time>
      </trkpt>
      <trkpt lat="44.55536" lon="4.24291">
        <ele>400</ele>
        <time>2018-06-03T07:44:24.000Z</time>
      </trkpt>
      <trkpt lat="44.55537" lon="4.24291">
        <ele>400</ele>
        <time>2018-06-03T07:44:25.000Z</time>
      </trkpt>
      <trkpt lat="44.55538" lon="4.24291">
        <ele>400</ele>
        <time>2018-06-03T07:44:26.000Z</time>
      </trkpt>
      <trkpt lat="44.55539" lon="4.24291">
        <ele>400</ele>
        <time>2018-06-03T07:44:27.000Z</time>
      </trkpt>
      <trkpt lat="44.55541" lon="4.24291">
        <ele>400</ele>
        <time>2018-06-03T07:44:28.000Z</time>
      </trkpt>
      <trkpt lat="44.55542" lon="4.24291">
        <ele>400</ele>
        <time>2018-06-03T07:44:29.000Z</time>
      </trkpt>
      <trkpt lat="44.55543" lon="4.24291">
        <ele>400</ele>
        <time>2018-06-03T07:44:30.000Z</time>
      </trkpt>
      <trkpt lat="44.55544" lon="4.24291">
        <ele>401</ele>
        <time>2018-06-03T07:44:31.000Z</time>
      </trkpt>
      <trkpt lat="44.55545" lon="4.24291">
        <ele>401</ele>
        <time>2018-06-03T07:44:32.000Z</time>
      </trkpt>
      <trkpt lat="44.55546" lon="4.24291">
        <ele>401</ele>
        <time>2018-06-03T07:44:33.000Z</time>
      </trkpt>
      <trkpt lat="44.55547" lon="4.24291">
        <ele>401</ele>
        <time>2018-06-03T07:44:34.000Z</time>
      </trkpt>
      <trkpt lat="44.55549" lon="4.24291">
        <ele>401</ele>
        <time>2018-06-03T07:44:35.000Z</time>
      </trkpt>
      <trkpt lat="44.5555" lon="4.24292">
        <ele>401</ele>
        <time>2018-06-03T07:44:36.000Z</time>
      </trkpt>
      <trkpt lat="44.55552" lon="4.24292">
        <ele>401</ele>
        <time>2018-06-03T07:44:37.000Z</time>
      </trkpt>
      <trkpt lat="44.55553" lon="4.24292">
        <ele>401</ele>
        <time>2018-06-03T07:44:38.000Z</time>
      </trkpt>
      <trkpt lat="44.55554" lon="4.24292">
        <ele>401</ele>
        <time>2018-06-03T07:44:39.000Z</time>
      </trkpt>
      <trkpt lat="44.55555" lon="4.24292">
        <ele>401</ele>
        <time>2018-06-03T07:44:40.000Z</time>
      </trkpt>
      <trkpt lat="44.55556" lon="4.24291">
        <ele>401</ele>
        <time>2018-06-03T07:44:41.000Z</time>
      </trkpt>
      <trkpt lat="44.55558" lon="4.24292">
        <ele>401</ele>
        <time>2018-06-03T07:44:42.000Z</time>
      </trkpt>
      <trkpt lat="44.55559" lon="4.24292">
        <ele>401</ele>
        <time>2018-06-03T07:44:43.000Z</time>
      </trkpt>
      <trkpt lat="44.5556" lon="4.24293">
        <ele>401</ele>
        <time>2018-06-03T07:44:44.000Z</time>
      </trkpt>
      <trkpt lat="44.55562" lon="4.24295">
        <ele>401</ele>
        <time>2018-06-03T07:44:45.000Z</time>
      </trkpt>
      <trkpt lat="44.55563" lon="4.24296">
        <ele>401</ele>
        <time>2018-06-03T07:44:46.000Z</time>
      </trkpt>
      <trkpt lat="44.55565" lon="4.24298">
        <ele>402</ele>
        <time>2018-06-03T07:44:47.000Z</time>
      </trkpt>
      <trkpt lat="44.55566" lon="4.243">
        <ele>402</ele>
        <time>2018-06-03T07:44:48.000Z</time>
      </trkpt>
      <trkpt lat="44.55568" lon="4.24302">
        <ele>402</ele>
        <time>2018-06-03T07:44:49.000Z</time>
      </trkpt>
      <trkpt lat="44.55569" lon="4.24304">
        <ele>402</ele>
        <time>2018-06-03T07:44:50.000Z</time>
      </trkpt>
      <trkpt lat="44.5557" lon="4.24306">
        <ele>403</ele>
        <time>2018-06-03T07:44:51.000Z</time>
      </trkpt>
      <trkpt lat="44.55571" lon="4.24307">
        <ele>403</ele>
        <time>2018-06-03T07:44:52.000Z</time>
      </trkpt>
      <trkpt lat="44.55572" lon="4.24309">
        <ele>403</ele>
        <time>2018-06-03T07:44:53.000Z</time>
      </trkpt>
      <trkpt lat="44.55573" lon="4.24311">
        <ele>403</ele>
        <time>2018-06-03T07:44:54.000Z</time>
      </trkpt>
      <trkpt lat="44.55574" lon="4.24312">
        <ele>404</ele>
        <time>2018-06-03T07:44:55.000Z</time>
      </trkpt>
      <trkpt lat="44.55575" lon="4.24314">
        <ele>404</ele>
        <time>2018-06-03T07:44:56.000Z</time>
      </trkpt>
      <trkpt lat="44.55576" lon="4.24317">
        <ele>404</ele>
        <time>2018-06-03T07:44:57.000Z</time>
      </trkpt>
      <trkpt lat="44.55576" lon="4.2432">
        <ele>405</ele>
        <time>2018-06-03T07:44:58.000Z</time>
      </trkpt>
      <trkpt lat="44.55577" lon="4.24322">
        <ele>405</ele>
        <time>2018-06-03T07:44:59.000Z</time>
      </trkpt>
      <trkpt lat="44.55578" lon="4.24325">
        <ele>406</ele>
        <time>2018-06-03T07:45:00.000Z</time>
      </trkpt>
      <trkpt lat="44.55579" lon="4.24327">
        <ele>406</ele>
        <time>2018-06-03T07:45:01.000Z</time>
      </trkpt>
      <trkpt lat="44.55579" lon="4.24329">
        <ele>406</ele>
        <time>2018-06-03T07:45:02.000Z</time>
      </trkpt>
      <trkpt lat="44.5558" lon="4.24332">
        <ele>407</ele>
        <time>2018-06-03T07:45:03.000Z</time>
      </trkpt>
      <trkpt lat="44.55581" lon="4.24334">
        <ele>409</ele>
        <time>2018-06-03T07:45:04.000Z</time>
      </trkpt>
      <trkpt lat="44.55583" lon="4.24336">
        <ele>409</ele>
        <time>2018-06-03T07:45:05.000Z</time>
      </trkpt>
      <trkpt lat="44.55584" lon="4.24337">
        <ele>410</ele>
        <time>2018-06-03T07:45:06.000Z</time>
      </trkpt>
      <trkpt lat="44.55585" lon="4.24338">
        <ele>411</ele>
        <time>2018-06-03T07:45:07.000Z</time>
      </trkpt>
      <trkpt lat="44.55587" lon="4.24338">
        <ele>412</ele>
        <time>2018-06-03T07:45:08.000Z</time>
      </trkpt>
      <trkpt lat="44.55589" lon="4.24339">
        <ele>413</ele>
        <time>2018-06-03T07:45:09.000Z</time>
      </trkpt>
      <trkpt lat="44.5559" lon="4.2434">
        <ele>414</ele>
        <time>2018-06-03T07:45:10.000Z</time>
      </trkpt>
      <trkpt lat="44.55592" lon="4.2434">
        <ele>415</ele>
        <time>2018-06-03T07:45:11.000Z</time>
      </trkpt>
      <trkpt lat="44.55595" lon="4.24341">
        <ele>416</ele>
        <time>2018-06-03T07:45:12.000Z</time>
      </trkpt>
      <trkpt lat="44.55597" lon="4.24341">
        <ele>417</ele>
        <time>2018-06-03T07:45:13.000Z</time>
      </trkpt>
      <trkpt lat="44.55599" lon="4.24342">
        <ele>417</ele>
        <time>2018-06-03T07:45:14.000Z</time>
      </trkpt>
      <trkpt lat="44.55601" lon="4.24343">
        <ele>418</ele>
        <time>2018-06-03T07:45:15.000Z</time>
      </trkpt>
      <trkpt lat="44.55603" lon="4.24344">
        <ele>419</ele>
        <time>2018-06-03T07:45:16.000Z</time>
      </trkpt>
      <trkpt lat="44.55604" lon="4.24345">
        <ele>419</ele>
        <time>2018-06-03T07:45:17.000Z</time>
      </trkpt>
      <trkpt lat="44.55606" lon="4.24347">
        <ele>420</ele>
        <time>2018-06-03T07:45:18.000Z</time>
      </trkpt>
      <trkpt lat="44.55607" lon="4.24349">
        <ele>421</ele>
        <time>2018-06-03T07:45:19.000Z</time>
      </trkpt>
      <trkpt lat="44.55609" lon="4.24351">
        <ele>421</ele>
        <time>2018-06-03T07:45:20.000Z</time>
      </trkpt>
      <trkpt lat="44.5561" lon="4.24353">
        <ele>422</ele>
        <time>2018-06-03T07:45:21.000Z</time>
      </trkpt>
      <trkpt lat="44.55611" lon="4.24356">
        <ele>423</ele>
        <time>2018-06-03T07:45:22.000Z</time>
      </trkpt>
      <trkpt lat="44.55612" lon="4.24358">
        <ele>423</ele>
        <time>2018-06-03T07:45:23.000Z</time>
      </trkpt>
      <trkpt lat="44.55613" lon="4.24361">
        <ele>424</ele>
        <time>2018-06-03T07:45:24.000Z</time>
      </trkpt>
      <trkpt lat="44.55614" lon="4.24363">
        <ele>424</ele>
        <time>2018-06-03T07:45:25.000Z</time>
      </trkpt>
      <trkpt lat="44.55615" lon="4.24365">
        <ele>424</ele>
        <time>2018-06-03T07:45:26.000Z</time>
      </trkpt>
      <trkpt lat="44.55617" lon="4.24366">
        <ele>425</ele>
        <time>2018-06-03T07:45:27.000Z</time>
      </trkpt>
      <trkpt lat="44.55619" lon="4.24367">
        <ele>425</ele>
        <time>2018-06-03T07:45:28.000Z</time>
      </trkpt>
      <trkpt lat="44.5562" lon="4.24367">
        <ele>425</ele>
        <time>2018-06-03T07:45:29.000Z</time>
      </trkpt>
      <trkpt lat="44.55622" lon="4.24367">
        <ele>425</ele>
        <time>2018-06-03T07:45:30.000Z</time>
      </trkpt>
      <trkpt lat="44.55623" lon="4.24366">
        <ele>425</ele>
        <time>2018-06-03T07:45:31.000Z</time>
      </trkpt>
      <trkpt lat="44.55625" lon="4.24364">
        <ele>425</ele>
        <time>2018-06-03T07:45:32.000Z</time>
      </trkpt>
      <trkpt lat="44.55626" lon="4.24363">
        <ele>425</ele>
        <time>2018-06-03T07:45:33.000Z</time>
      </trkpt>
      <trkpt lat="44.55627" lon="4.24361">
        <ele>425</ele>
        <time>2018-06-03T07:45:34.000Z</time>
      </trkpt>
      <trkpt lat="44.55629" lon="4.2436">
        <ele>425</ele>
        <time>2018-06-03T07:45:35.000Z</time>
      </trkpt>
      <trkpt lat="44.5563" lon="4.24359">
        <ele>425</ele>
        <time>2018-06-03T07:45:36.000Z</time>
      </trkpt>
      <trkpt lat="44.55631" lon="4.24357">
        <ele>425</ele>
        <time>2018-06-03T07:45:37.000Z</time>
      </trkpt>
      <trkpt lat="44.55632" lon="4.24356">
        <ele>425</ele>
        <time>2018-06-03T07:45:38.000Z</time>
      </trkpt>
      <trkpt lat="44.55633" lon="4.24354">
        <ele>424</ele>
        <time>2018-06-03T07:45:39.000Z</time>
      </trkpt>
      <trkpt lat="44.55635" lon="4.24352">
        <ele>424</ele>
        <time>2018-06-03T07:45:40.000Z</time>
      </trkpt>
      <trkpt lat="44.55636" lon="4.24351">
        <ele>424</ele>
        <time>2018-06-03T07:45:41.000Z</time>
      </trkpt>
      <trkpt lat="44.55638" lon="4.24349">
        <ele>424</ele>
        <time>2018-06-03T07:45:42.000Z</time>
      </trkpt>
      <trkpt lat="44.55639" lon="4.24348">
        <ele>424</ele>
        <time>2018-06-03T07:45:43.000Z</time>
      </trkpt>
      <trkpt lat="44.5564" lon="4.24346">
        <ele>424</ele>
        <time>2018-06-03T07:45:44.000Z</time>
      </trkpt>
      <trkpt lat="44.55641" lon="4.24345">
        <ele>424</ele>
        <time>2018-06-03T07:45:45.000Z</time>
      </trkpt>
      <trkpt lat="44.55642" lon="4.24343">
        <ele>424</ele>
        <time>2018-06-03T07:45:46.000Z</time>
      </trkpt>
      <trkpt lat="44.55643" lon="4.24342">
        <ele>424</ele>
        <time>2018-06-03T07:45:47.000Z</time>
      </trkpt>
      <trkpt lat="44.55644" lon="4.2434">
        <ele>424</ele>
        <time>2018-06-03T07:45:48.000Z</time>
      </trkpt>
      <trkpt lat="44.55646" lon="4.24339">
        <ele>423</ele>
        <time>2018-06-03T07:45:49.000Z</time>
      </trkpt>
      <trkpt lat="44.55647" lon="4.24337">
        <ele>423</ele>
        <time>2018-06-03T07:45:50.000Z</time>
      </trkpt>
      <trkpt lat="44.55649" lon="4.24335">
        <ele>423</ele>
        <time>2018-06-03T07:45:51.000Z</time>
      </trkpt>
      <trkpt lat="44.5565" lon="4.24333">
        <ele>415</ele>
        <time>2018-06-03T07:45:52.000Z</time>
      </trkpt>
      <trkpt lat="44.55652" lon="4.24331">
        <ele>416</ele>
        <time>2018-06-03T07:45:53.000Z</time>
      </trkpt>
      <trkpt lat="44.55654" lon="4.24329">
        <ele>416</ele>
        <time>2018-06-03T07:45:54.000Z</time>
      </trkpt>
      <trkpt lat="44.55655" lon="4.24329">
        <ele>416</ele>
        <time>2018-06-03T07:45:55.000Z</time>
      </trkpt>
      <trkpt lat="44.55657" lon="4.24328">
        <ele>417</ele>
        <time>2018-06-03T07:45:56.000Z</time>
      </trkpt>
      <trkpt lat="44.55658" lon="4.24327">
        <ele>417</ele>
        <time>2018-06-03T07:45:57.000Z</time>
      </trkpt>
      <trkpt lat="44.5566" lon="4.24325">
        <ele>417</ele>
        <time>2018-06-03T07:45:58.000Z</time>
      </trkpt>
      <trkpt lat="44.55661" lon="4.24324">
        <ele>417</ele>
        <time>2018-06-03T07:45:59.000Z</time>
      </trkpt>
      <trkpt lat="44.55663" lon="4.24323">
        <ele>417</ele>
        <time>2018-06-03T07:46:00.000Z</time>
      </trkpt>
      <trkpt lat="44.55664" lon="4.24322">
        <ele>417</ele>
        <time>2018-06-03T07:46:01.000Z</time>
      </trkpt>
      <trkpt lat="44.55666" lon="4.24321">
        <ele>416</ele>
        <time>2018-06-03T07:46:02.000Z</time>
      </trkpt>
      <trkpt lat="44.55667" lon="4.2432">
        <ele>421</ele>
        <time>2018-06-03T07:46:03.000Z</time>
      </trkpt>
      <trkpt lat="44.55669" lon="4.24319">
        <ele>421</ele>
        <time>2018-06-03T07:46:04.000Z</time>
      </trkpt>
      <trkpt lat="44.5567" lon="4.24317">
        <ele>421</ele>
        <time>2018-06-03T07:46:05.000Z</time>
      </trkpt>
      <trkpt lat="44.55671" lon="4.24316">
        <ele>421</ele>
        <time>2018-06-03T07:46:06.000Z</time>
      </trkpt>
      <trkpt lat="44.55673" lon="4.24315">
        <ele>421</ele>
        <time>2018-06-03T07:46:07.000Z</time>
      </trkpt>
      <trkpt lat="44.55674" lon="4.24313">
        <ele>421</ele>
        <time>2018-06-03T07:46:08.000Z</time>
      </trkpt>
      <trkpt lat="44.55676" lon="4.24311">
        <ele>421</ele>
        <time>2018-06-03T07:46:09.000Z</time>
      </trkpt>
      <trkpt lat="44.55677" lon="4.24309">
        <ele>421</ele>
        <time>2018-06-03T07:46:10.000Z</time>
      </trkpt>
      <trkpt lat="44.55679" lon="4.24307">
        <ele>421</ele>
        <time>2018-06-03T07:46:11.000Z</time>
      </trkpt>
      <trkpt lat="44.5568" lon="4.24305">
        <ele>420</ele>
        <time>2018-06-03T07:46:12.000Z</time>
      </trkpt>
      <trkpt lat="44.55681" lon="4.24303">
        <ele>420</ele>
        <time>2018-06-03T07:46:13.000Z</time>
      </trkpt>
      <trkpt lat="44.55682" lon="4.24301">
        <ele>420</ele>
        <time>2018-06-03T07:46:14.000Z</time>
      </trkpt>
      <trkpt lat="44.55684" lon="4.24299">
        <ele>420</ele>
        <time>2018-06-03T07:46:15.000Z</time>
      </trkpt>
      <trkpt lat="44.55685" lon="4.24297">
        <ele>420</ele>
        <time>2018-06-03T07:46:16.000Z</time>
      </trkpt>
      <trkpt lat="44.55686" lon="4.24297">
        <ele>420</ele>
        <time>2018-06-03T07:46:17.000Z</time>
      </trkpt>
      <trkpt lat="44.55687" lon="4.24296">
        <ele>420</ele>
        <time>2018-06-03T07:46:18.000Z</time>
      </trkpt>
      <trkpt lat="44.55689" lon="4.24294">
        <ele>420</ele>
        <time>2018-06-03T07:46:19.000Z</time>
      </trkpt>
      <trkpt lat="44.55691" lon="4.24294">
        <ele>420</ele>
        <time>2018-06-03T07:46:20.000Z</time>
      </trkpt>
      <trkpt lat="44.55692" lon="4.24293">
        <ele>420</ele>
        <time>2018-06-03T07:46:21.000Z</time>
      </trkpt>
      <trkpt lat="44.55694" lon="4.24293">
        <ele>420</ele>
        <time>2018-06-03T07:46:22.000Z</time>
      </trkpt>
      <trkpt lat="44.55696" lon="4.24292">
        <ele>420</ele>
        <time>2018-06-03T07:46:23.000Z</time>
      </trkpt>
      <trkpt lat="44.55698" lon="4.24291">
        <ele>420</ele>
        <time>2018-06-03T07:46:24.000Z</time>
      </trkpt>
      <trkpt lat="44.557" lon="4.2429">
        <ele>421</ele>
        <time>2018-06-03T07:46:25.000Z</time>
      </trkpt>
      <trkpt lat="44.55702" lon="4.2429">
        <ele>421</ele>
        <time>2018-06-03T07:46:26.000Z</time>
      </trkpt>
      <trkpt lat="44.55704" lon="4.2429">
        <ele>421</ele>
        <time>2018-06-03T07:46:27.000Z</time>
      </trkpt>
      <trkpt lat="44.55706" lon="4.2429">
        <ele>421</ele>
        <time>2018-06-03T07:46:28.000Z</time>
      </trkpt>
      <trkpt lat="44.55709" lon="4.2429">
        <ele>421</ele>
        <time>2018-06-03T07:46:29.000Z</time>
      </trkpt>
      <trkpt lat="44.55711" lon="4.24291">
        <ele>421</ele>
        <time>2018-06-03T07:46:30.000Z</time>
      </trkpt>
      <trkpt lat="44.55712" lon="4.24291">
        <ele>421</ele>
        <time>2018-06-03T07:46:31.000Z</time>
      </trkpt>
      <trkpt lat="44.55714" lon="4.24291">
        <ele>422</ele>
        <time>2018-06-03T07:46:32.000Z</time>
      </trkpt>
      <trkpt lat="44.55716" lon="4.24292">
        <ele>422</ele>
        <time>2018-06-03T07:46:33.000Z</time>
      </trkpt>
      <trkpt lat="44.55718" lon="4.24291">
        <ele>422</ele>
        <time>2018-06-03T07:46:34.000Z</time>
      </trkpt>
      <trkpt lat="44.5572" lon="4.24292">
        <ele>422</ele>
        <time>2018-06-03T07:46:35.000Z</time>
      </trkpt>
      <trkpt lat="44.55722" lon="4.24291">
        <ele>422</ele>
        <time>2018-06-03T07:46:36.000Z</time>
      </trkpt>
      <trkpt lat="44.55724" lon="4.24291">
        <ele>422</ele>
        <time>2018-06-03T07:46:37.000Z</time>
      </trkpt>
      <trkpt lat="44.55726" lon="4.24291">
        <ele>422</ele>
        <time>2018-06-03T07:46:38.000Z</time>
      </trkpt>
      <trkpt lat="44.55728" lon="4.2429">
        <ele>422</ele>
        <time>2018-06-03T07:46:39.000Z</time>
      </trkpt>
      <trkpt lat="44.5573" lon="4.2429">
        <ele>423</ele>
        <time>2018-06-03T07:46:40.000Z</time>
      </trkpt>
      <trkpt lat="44.55732" lon="4.2429">
        <ele>423</ele>
        <time>2018-06-03T07:46:41.000Z</time>
      </trkpt>
      <trkpt lat="44.55734" lon="4.2429">
        <ele>423</ele>
        <time>2018-06-03T07:46:42.000Z</time>
      </trkpt>
      <trkpt lat="44.55736" lon="4.2429">
        <ele>423</ele>
        <time>2018-06-03T07:46:43.000Z</time>
      </trkpt>
      <trkpt lat="44.55738" lon="4.2429">
        <ele>423</ele>
        <time>2018-06-03T07:46:44.000Z</time>
      </trkpt>
      <trkpt lat="44.5574" lon="4.2429">
        <ele>423</ele>
        <time>2018-06-03T07:46:45.000Z</time>
      </trkpt>
      <trkpt lat="44.55742" lon="4.2429">
        <ele>423</ele>
        <time>2018-06-03T07:46:46.000Z</time>
      </trkpt>
      <trkpt lat="44.55744" lon="4.2429">
        <ele>423</ele>
        <time>2018-06-03T07:46:47.000Z</time>
      </trkpt>
      <trkpt lat="44.55745" lon="4.24289">
        <ele>423</ele>
        <time>2018-06-03T07:46:48.000Z</time>
      </trkpt>
      <trkpt lat="44.55748" lon="4.2429">
        <ele>423</ele>
        <time>2018-06-03T07:46:49.000Z</time>
      </trkpt>
      <trkpt lat="44.5575" lon="4.2429">
        <ele>423</ele>
        <time>2018-06-03T07:46:50.000Z</time>
      </trkpt>
      <trkpt lat="44.55752" lon="4.2429">
        <ele>426</ele>
        <time>2018-06-03T07:46:51.000Z</time>
      </trkpt>
      <trkpt lat="44.55754" lon="4.2429">
        <ele>426</ele>
        <time>2018-06-03T07:46:52.000Z</time>
      </trkpt>
      <trkpt lat="44.55756" lon="4.24291">
        <ele>426</ele>
        <time>2018-06-03T07:46:53.000Z</time>
      </trkpt>
      <trkpt lat="44.55758" lon="4.24292">
        <ele>426</ele>
        <time>2018-06-03T07:46:54.000Z</time>
      </trkpt>
      <trkpt lat="44.5576" lon="4.24294">
        <ele>426</ele>
        <time>2018-06-03T07:46:55.000Z</time>
      </trkpt>
      <trkpt lat="44.55762" lon="4.24295">
        <ele>426</ele>
        <time>2018-06-03T07:46:56.000Z</time>
      </trkpt>
      <trkpt lat="44.55764" lon="4.24296">
        <ele>426</ele>
        <time>2018-06-03T07:46:57.000Z</time>
      </trkpt>
      <trkpt lat="44.55766" lon="4.24297">
        <ele>426</ele>
        <time>2018-06-03T07:46:58.000Z</time>
      </trkpt>
      <trkpt lat="44.55768" lon="4.24297">
        <ele>426</ele>
        <time>2018-06-03T07:46:59.000Z</time>
      </trkpt>
      <trkpt lat="44.5577" lon="4.24298">
        <ele>426</ele>
        <time>2018-06-03T07:47:00.000Z</time>
      </trkpt>
      <trkpt lat="44.55772" lon="4.24298">
        <ele>426</ele>
        <time>2018-06-03T07:47:01.000Z</time>
      </trkpt>
      <trkpt lat="44.55774" lon="4.243">
        <ele>426</ele>
        <time>2018-06-03T07:47:02.000Z</time>
      </trkpt>
      <trkpt lat="44.55776" lon="4.24302">
        <ele>426</ele>
        <time>2018-06-03T07:47:03.000Z</time>
      </trkpt>
      <trkpt lat="44.55777" lon="4.24304">
        <ele>427</ele>
        <time>2018-06-03T07:47:04.000Z</time>
      </trkpt>
      <trkpt lat="44.55779" lon="4.24306">
        <ele>427</ele>
        <time>2018-06-03T07:47:05.000Z</time>
      </trkpt>
      <trkpt lat="44.55781" lon="4.24309">
        <ele>427</ele>
        <time>2018-06-03T07:47:06.000Z</time>
      </trkpt>
      <trkpt lat="44.55782" lon="4.24311">
        <ele>427</ele>
        <time>2018-06-03T07:47:07.000Z</time>
      </trkpt>
      <trkpt lat="44.55784" lon="4.24313">
        <ele>427</ele>
        <time>2018-06-03T07:47:08.000Z</time>
      </trkpt>
      <trkpt lat="44.55786" lon="4.24315">
        <ele>427</ele>
        <time>2018-06-03T07:47:09.000Z</time>
      </trkpt>
      <trkpt lat="44.55787" lon="4.24318">
        <ele>427</ele>
        <time>2018-06-03T07:47:10.000Z</time>
      </trkpt>
      <trkpt lat="44.55788" lon="4.2432">
        <ele>427</ele>
        <time>2018-06-03T07:47:11.000Z</time>
      </trkpt>
      <trkpt lat="44.5579" lon="4.24323">
        <ele>427</ele>
        <time>2018-06-03T07:47:12.000Z</time>
      </trkpt>
      <trkpt lat="44.55791" lon="4.24326">
        <ele>427</ele>
        <time>2018-06-03T07:47:13.000Z</time>
      </trkpt>
      <trkpt lat="44.55792" lon="4.24328">
        <ele>427</ele>
        <time>2018-06-03T07:47:14.000Z</time>
      </trkpt>
      <trkpt lat="44.55794" lon="4.24331">
        <ele>427</ele>
        <time>2018-06-03T07:47:15.000Z</time>
      </trkpt>
      <trkpt lat="44.55795" lon="4.24333">
        <ele>427</ele>
        <time>2018-06-03T07:47:16.000Z</time>
      </trkpt>
      <trkpt lat="44.55796" lon="4.24336">
        <ele>437</ele>
        <time>2018-06-03T07:47:17.000Z</time>
      </trkpt>
      <trkpt lat="44.55796" lon="4.24337">
        <ele>437</ele>
        <time>2018-06-03T07:47:18.000Z</time>
      </trkpt>
      <trkpt lat="44.55797" lon="4.24339">
        <ele>437</ele>
        <time>2018-06-03T07:47:19.000Z</time>
      </trkpt>
      <trkpt lat="44.55798" lon="4.2434">
        <ele>437</ele>
        <time>2018-06-03T07:47:20.000Z</time>
      </trkpt>
      <trkpt lat="44.55798" lon="4.24343">
        <ele>437</ele>
        <time>2018-06-03T07:47:21.000Z</time>
      </trkpt>
      <trkpt lat="44.55799" lon="4.24345">
        <ele>437</ele>
        <time>2018-06-03T07:47:22.000Z</time>
      </trkpt>
      <trkpt lat="44.558" lon="4.24347">
        <ele>437</ele>
        <time>2018-06-03T07:47:23.000Z</time>
      </trkpt>
      <trkpt lat="44.55801" lon="4.24348">
        <ele>437</ele>
        <time>2018-06-03T07:47:24.000Z</time>
      </trkpt>
      <trkpt lat="44.55802" lon="4.24351">
        <ele>437</ele>
        <time>2018-06-03T07:47:25.000Z</time>
      </trkpt>
      <trkpt lat="44.55804" lon="4.24352">
        <ele>437</ele>
        <time>2018-06-03T07:47:26.000Z</time>
      </trkpt>
      <trkpt lat="44.55806" lon="4.24354">
        <ele>437</ele>
        <time>2018-06-03T07:47:27.000Z</time>
      </trkpt>
      <trkpt lat="44.55807" lon="4.24356">
        <ele>437</ele>
        <time>2018-06-03T07:47:28.000Z</time>
      </trkpt>
      <trkpt lat="44.55808" lon="4.24358">
        <ele>437</ele>
        <time>2018-06-03T07:47:29.000Z</time>
      </trkpt>
      <trkpt lat="44.5581" lon="4.24359">
        <ele>438</ele>
        <time>2018-06-03T07:47:30.000Z</time>
      </trkpt>
      <trkpt lat="44.55811" lon="4.24361">
        <ele>438</ele>
        <time>2018-06-03T07:47:31.000Z</time>
      </trkpt>
      <trkpt lat="44.55812" lon="4.24362">
        <ele>438</ele>
        <time>2018-06-03T07:47:32.000Z</time>
      </trkpt>
      <trkpt lat="44.55813" lon="4.24364">
        <ele>438</ele>
        <time>2018-06-03T07:47:33.000Z</time>
      </trkpt>
      <trkpt lat="44.55815" lon="4.24366">
        <ele>438</ele>
        <time>2018-06-03T07:47:34.000Z</time>
      </trkpt>
      <trkpt lat="44.55816" lon="4.24368">
        <ele>438</ele>
        <time>2018-06-03T07:47:35.000Z</time>
      </trkpt>
      <trkpt lat="44.55817" lon="4.2437">
        <ele>438</ele>
        <time>2018-06-03T07:47:36.000Z</time>
      </trkpt>
      <trkpt lat="44.55819" lon="4.24371">
        <ele>439</ele>
        <time>2018-06-03T07:47:37.000Z</time>
      </trkpt>
      <trkpt lat="44.5582" lon="4.24373">
        <ele>439</ele>
        <time>2018-06-03T07:47:38.000Z</time>
      </trkpt>
      <trkpt lat="44.55822" lon="4.24375">
        <ele>439</ele>
        <time>2018-06-03T07:47:39.000Z</time>
      </trkpt>
      <trkpt lat="44.55823" lon="4.24376">
        <ele>439</ele>
        <time>2018-06-03T07:47:40.000Z</time>
      </trkpt>
      <trkpt lat="44.55824" lon="4.24376">
        <ele>439</ele>
        <time>2018-06-03T07:47:41.000Z</time>
      </trkpt>
      <trkpt lat="44.55825" lon="4.24377">
        <ele>439</ele>
        <time>2018-06-03T07:47:42.000Z</time>
      </trkpt>
      <trkpt lat="44.55827" lon="4.24378">
        <ele>439</ele>
        <time>2018-06-03T07:47:43.000Z</time>
      </trkpt>
      <trkpt lat="44.55828" lon="4.24378">
        <ele>439</ele>
        <time>2018-06-03T07:47:44.000Z</time>
      </trkpt>
      <trkpt lat="44.5583" lon="4.2438">
        <ele>439</ele>
        <time>2018-06-03T07:47:45.000Z</time>
      </trkpt>
      <trkpt lat="44.55831" lon="4.24382">
        <ele>440</ele>
        <time>2018-06-03T07:47:46.000Z</time>
      </trkpt>
      <trkpt lat="44.55833" lon="4.24384">
        <ele>440</ele>
        <time>2018-06-03T07:47:47.000Z</time>
      </trkpt>
      <trkpt lat="44.55835" lon="4.24386">
        <ele>431</ele>
        <time>2018-06-03T07:47:48.000Z</time>
      </trkpt>
      <trkpt lat="44.55836" lon="4.24388">
        <ele>432</ele>
        <time>2018-06-03T07:47:49.000Z</time>
      </trkpt>
      <trkpt lat="44.55838" lon="4.2439">
        <ele>432</ele>
        <time>2018-06-03T07:47:50.000Z</time>
      </trkpt>
      <trkpt lat="44.55839" lon="4.24392">
        <ele>432</ele>
        <time>2018-06-03T07:47:51.000Z</time>
      </trkpt>
      <trkpt lat="44.55841" lon="4.24394">
        <ele>433</ele>
        <time>2018-06-03T07:47:52.000Z</time>
      </trkpt>
      <trkpt lat="44.55842" lon="4.24397">
        <ele>433</ele>
        <time>2018-06-03T07:47:53.000Z</time>
      </trkpt>
      <trkpt lat="44.55843" lon="4.24399">
        <ele>433</ele>
        <time>2018-06-03T07:47:54.000Z</time>
      </trkpt>
      <trkpt lat="44.55844" lon="4.24401">
        <ele>434</ele>
        <time>2018-06-03T07:47:55.000Z</time>
      </trkpt>
      <trkpt lat="44.55845" lon="4.24402">
        <ele>434</ele>
        <time>2018-06-03T07:47:56.000Z</time>
      </trkpt>
      <trkpt lat="44.55845" lon="4.24402">
        <ele>434</ele>
        <time>2018-06-03T07:47:57.000Z</time>
      </trkpt>
      <trkpt lat="44.55846" lon="4.24403">
        <ele>434</ele>
        <time>2018-06-03T07:47:58.000Z</time>
      </trkpt>
      <trkpt lat="44.55846" lon="4.24404">
        <ele>434</ele>
        <time>2018-06-03T07:47:59.000Z</time>
      </trkpt>
      <trkpt lat="44.55846" lon="4.24405">
        <ele>434</ele>
        <time>2018-06-03T07:48:00.000Z</time>
      </trkpt>
      <trkpt lat="44.55847" lon="4.24405">
        <ele>434</ele>
        <time>2018-06-03T07:48:01.000Z</time>
      </trkpt>
      <trkpt lat="44.55847" lon="4.24406">
        <ele>434</ele>
        <time>2018-06-03T07:48:02.000Z</time>
      </trkpt>
      <trkpt lat="44.55847" lon="4.24406">
        <ele>434</ele>
        <time>2018-06-03T07:48:03.000Z</time>
      </trkpt>
      <trkpt lat="44.55847" lon="4.24407">
        <ele>434</ele>
        <time>2018-06-03T07:48:04.000Z</time>
      </trkpt>
      <trkpt lat="44.55848" lon="4.24408">
        <ele>435</ele>
        <time>2018-06-03T07:48:05.000Z</time>
      </trkpt>
      <trkpt lat="44.55848" lon="4.24408">
        <ele>435</ele>
        <time>2018-06-03T07:48:06.000Z</time>
      </trkpt>
      <trkpt lat="44.55848" lon="4.24409">
        <ele>435</ele>
        <time>2018-06-03T07:48:07.000Z</time>
      </trkpt>
      <trkpt lat="44.55848" lon="4.24409">
        <ele>435</ele>
        <time>2018-06-03T07:48:08.000Z</time>
      </trkpt>
      <trkpt lat="44.55848" lon="4.2441">
        <ele>435</ele>
        <time>2018-06-03T07:48:09.000Z</time>
      </trkpt>
      <trkpt lat="44.55849" lon="4.24411">
        <ele>435</ele>
        <time>2018-06-03T07:48:10.000Z</time>
      </trkpt>
      <trkpt lat="44.55849" lon="4.24411">
        <ele>435</ele>
        <time>2018-06-03T07:48:11.000Z</time>
      </trkpt>
      <trkpt lat="44.55849" lon="4.24412">
        <ele>435</ele>
        <time>2018-06-03T07:48:12.000Z</time>
      </trkpt>
      <trkpt lat="44.55849" lon="4.24412">
        <ele>435</ele>
        <time>2018-06-03T07:48:13.000Z</time>
      </trkpt>
      <trkpt lat="44.55849" lon="4.24413">
        <ele>435</ele>
        <time>2018-06-03T07:48:14.000Z</time>
      </trkpt>
      <trkpt lat="44.55849" lon="4.24413">
        <ele>435</ele>
        <time>2018-06-03T07:48:15.000Z</time>
      </trkpt>
      <trkpt lat="44.5585" lon="4.24414">
        <ele>435</ele>
        <time>2018-06-03T07:48:16.000Z</time>
      </trkpt>
      <trkpt lat="44.5585" lon="4.24414">
        <ele>435</ele>
        <time>2018-06-03T07:48:17.000Z</time>
      </trkpt>
      <trkpt lat="44.5585" lon="4.24415">
        <ele>435</ele>
        <time>2018-06-03T07:48:18.000Z</time>
      </trkpt>
      <trkpt lat="44.5585" lon="4.24415">
        <ele>435</ele>
        <time>2018-06-03T07:48:19.000Z</time>
      </trkpt>
      <trkpt lat="44.5585" lon="4.24416">
        <ele>435</ele>
        <time>2018-06-03T07:48:20.000Z</time>
      </trkpt>
      <trkpt lat="44.5585" lon="4.24416">
        <ele>435</ele>
        <time>2018-06-03T07:48:21.000Z</time>
      </trkpt>
      <trkpt lat="44.5585" lon="4.24417">
        <ele>435</ele>
        <time>2018-06-03T07:48:22.000Z</time>
      </trkpt>
      <trkpt lat="44.5585" lon="4.24417">
        <ele>440</ele>
        <time>2018-06-03T07:48:23.000Z</time>
      </trkpt>
      <trkpt lat="44.55851" lon="4.24417">
        <ele>440</ele>
        <time>2018-06-03T07:48:24.000Z</time>
      </trkpt>
      <trkpt lat="44.55851" lon="4.24418">
        <ele>440</ele>
        <time>2018-06-03T07:48:25.000Z</time>
      </trkpt>
      <trkpt lat="44.5585" lon="4.24418">
        <ele>440</ele>
        <time>2018-06-03T07:48:26.000Z</time>
      </trkpt>
      <trkpt lat="44.5585" lon="4.24419">
        <ele>440</ele>
        <time>2018-06-03T07:48:27.000Z</time>
      </trkpt>
      <trkpt lat="44.55851" lon="4.24419">
        <ele>440</ele>
        <time>2018-06-03T07:48:28.000Z</time>
      </trkpt>
      <trkpt lat="44.55851" lon="4.24419">
        <ele>440</ele>
        <time>2018-06-03T07:48:29.000Z</time>
      </trkpt>
      <trkpt lat="44.55851" lon="4.24419">
        <ele>440</ele>
        <time>2018-06-03T07:48:30.000Z</time>
      </trkpt>
      <trkpt lat="44.55851" lon="4.2442">
        <ele>440</ele>
        <time>2018-06-03T07:48:31.000Z</time>
      </trkpt>
      <trkpt lat="44.55851" lon="4.24421">
        <ele>440</ele>
        <time>2018-06-03T07:48:32.000Z</time>
      </trkpt>
      <trkpt lat="44.55852" lon="4.24422">
        <ele>440</ele>
        <time>2018-06-03T07:48:33.000Z</time>
      </trkpt>
      <trkpt lat="44.55852" lon="4.24424">
        <ele>440</ele>
        <time>2018-06-03T07:48:34.000Z</time>
      </trkpt>
      <trkpt lat="44.55853" lon="4.24426">
        <ele>440</ele>
        <time>2018-06-03T07:48:35.000Z</time>
      </trkpt>
      <trkpt lat="44.55855" lon="4.24429">
        <ele>440</ele>
        <time>2018-06-03T07:48:36.000Z</time>
      </trkpt>
      <trkpt lat="44.55855" lon="4.24432">
        <ele>440</ele>
        <time>2018-06-03T07:48:37.000Z</time>
      </trkpt>
      <trkpt lat="44.55856" lon="4.24434">
        <ele>440</ele>
        <time>2018-06-03T07:48:38.000Z</time>
      </trkpt>
      <trkpt lat="44.55857" lon="4.24437">
        <ele>440</ele>
        <time>2018-06-03T07:48:39.000Z</time>
      </trkpt>
      <trkpt lat="44.55857" lon="4.24441">
        <ele>440</ele>
        <time>2018-06-03T07:48:40.000Z</time>
      </trkpt>
      <trkpt lat="44.55856" lon="4.24445">
        <ele>440</ele>
        <time>2018-06-03T07:48:41.000Z</time>
      </trkpt>
      <trkpt lat="44.55856" lon="4.2445">
        <ele>440</ele>
        <time>2018-06-03T07:48:42.000Z</time>
      </trkpt>
      <trkpt lat="44.55856" lon="4.24455">
        <ele>441</ele>
        <time>2018-06-03T07:48:43.000Z</time>
      </trkpt>
      <trkpt lat="44.55855" lon="4.2446">
        <ele>441</ele>
        <time>2018-06-03T07:48:44.000Z</time>
      </trkpt>
      <trkpt lat="44.55855" lon="4.24465">
        <ele>442</ele>
        <time>2018-06-03T07:48:45.000Z</time>
      </trkpt>
      <trkpt lat="44.55854" lon="4.2447">
        <ele>443</ele>
        <time>2018-06-03T07:48:46.000Z</time>
      </trkpt>
      <trkpt lat="44.55854" lon="4.24475">
        <ele>444</ele>
        <time>2018-06-03T07:48:47.000Z</time>
      </trkpt>
      <trkpt lat="44.55853" lon="4.2448">
        <ele>444</ele>
        <time>2018-06-03T07:48:48.000Z</time>
      </trkpt>
      <trkpt lat="44.55853" lon="4.24485">
        <ele>445</ele>
        <time>2018-06-03T07:48:49.000Z</time>
      </trkpt>
      <trkpt lat="44.55852" lon="4.2449">
        <ele>446</ele>
        <time>2018-06-03T07:48:50.000Z</time>
      </trkpt>
      <trkpt lat="44.55852" lon="4.24495">
        <ele>447</ele>
        <time>2018-06-03T07:48:51.000Z</time>
      </trkpt>
      <trkpt lat="44.55851" lon="4.24499">
        <ele>448</ele>
        <time>2018-06-03T07:48:52.000Z</time>
      </trkpt>
      <trkpt lat="44.5585" lon="4.24504">
        <ele>454</ele>
        <time>2018-06-03T07:48:53.000Z</time>
      </trkpt>
      <trkpt lat="44.5585" lon="4.24508">
        <ele>454</ele>
        <time>2018-06-03T07:48:54.000Z</time>
      </trkpt>
      <trkpt lat="44.5585" lon="4.24513">
        <ele>454</ele>
        <time>2018-06-03T07:48:55.000Z</time>
      </trkpt>
      <trkpt lat="44.5585" lon="4.24519">
        <ele>454</ele>
        <time>2018-06-03T07:48:56.000Z</time>
      </trkpt>
      <trkpt lat="44.55851" lon="4.24524">
        <ele>454</ele>
        <time>2018-06-03T07:48:57.000Z</time>
      </trkpt>
      <trkpt lat="44.55852" lon="4.24528">
        <ele>454</ele>
        <time>2018-06-03T07:48:58.000Z</time>
      </trkpt>
      <trkpt lat="44.55854" lon="4.24531">
        <ele>454</ele>
        <time>2018-06-03T07:48:59.000Z</time>
      </trkpt>
      <trkpt lat="44.55857" lon="4.24534">
        <ele>454</ele>
        <time>2018-06-03T07:49:00.000Z</time>
      </trkpt>
      <trkpt lat="44.55859" lon="4.24536">
        <ele>454</ele>
        <time>2018-06-03T07:49:01.000Z</time>
      </trkpt>
      <trkpt lat="44.55861" lon="4.24538">
        <ele>454</ele>
        <time>2018-06-03T07:49:02.000Z</time>
      </trkpt>
      <trkpt lat="44.55864" lon="4.2454">
        <ele>453</ele>
        <time>2018-06-03T07:49:03.000Z</time>
      </trkpt>
      <trkpt lat="44.55866" lon="4.24541">
        <ele>453</ele>
        <time>2018-06-03T07:49:04.000Z</time>
      </trkpt>
      <trkpt lat="44.55868" lon="4.24543">
        <ele>453</ele>
        <time>2018-06-03T07:49:05.000Z</time>
      </trkpt>
      <trkpt lat="44.5587" lon="4.24545">
        <ele>453</ele>
        <time>2018-06-03T07:49:06.000Z</time>
      </trkpt>
      <trkpt lat="44.55872" lon="4.24546">
        <ele>453</ele>
        <time>2018-06-03T07:49:07.000Z</time>
      </trkpt>
      <trkpt lat="44.55874" lon="4.24547">
        <ele>453</ele>
        <time>2018-06-03T07:49:08.000Z</time>
      </trkpt>
      <trkpt lat="44.55876" lon="4.24548">
        <ele>452</ele>
        <time>2018-06-03T07:49:09.000Z</time>
      </trkpt>
      <trkpt lat="44.55878" lon="4.24548">
        <ele>452</ele>
        <time>2018-06-03T07:49:10.000Z</time>
      </trkpt>
      <trkpt lat="44.5588" lon="4.24549">
        <ele>452</ele>
        <time>2018-06-03T07:49:11.000Z</time>
      </trkpt>
      <trkpt lat="44.55882" lon="4.2455">
        <ele>452</ele>
        <time>2018-06-03T07:49:12.000Z</time>
      </trkpt>
      <trkpt lat="44.55884" lon="4.24551">
        <ele>452</ele>
        <time>2018-06-03T07:49:13.000Z</time>
      </trkpt>
      <trkpt lat="44.55886" lon="4.24551">
        <ele>451</ele>
        <time>2018-06-03T07:49:14.000Z</time>
      </trkpt>
      <trkpt lat="44.55887" lon="4.24552">
        <ele>451</ele>
        <time>2018-06-03T07:49:15.000Z</time>
      </trkpt>
      <trkpt lat="44.55889" lon="4.24554">
        <ele>451</ele>
        <time>2018-06-03T07:49:16.000Z</time>
      </trkpt>
      <trkpt lat="44.55891" lon="4.24555">
        <ele>451</ele>
        <time>2018-06-03T07:49:17.000Z</time>
      </trkpt>
      <trkpt lat="44.55893" lon="4.24556">
        <ele>451</ele>
        <time>2018-06-03T07:49:18.000Z</time>
      </trkpt>
      <trkpt lat="44.55895" lon="4.24557">
        <ele>451</ele>
        <time>2018-06-03T07:49:19.000Z</time>
      </trkpt>
      <trkpt lat="44.55896" lon="4.24558">
        <ele>451</ele>
        <time>2018-06-03T07:49:20.000Z</time>
      </trkpt>
      <trkpt lat="44.55897" lon="4.2456">
        <ele>451</ele>
        <time>2018-06-03T07:49:21.000Z</time>
      </trkpt>
      <trkpt lat="44.55899" lon="4.24561">
        <ele>451</ele>
        <time>2018-06-03T07:49:22.000Z</time>
      </trkpt>
      <trkpt lat="44.559" lon="4.24563">
        <ele>451</ele>
        <time>2018-06-03T07:49:23.000Z</time>
      </trkpt>
      <trkpt lat="44.55902" lon="4.24565">
        <ele>451</ele>
        <time>2018-06-03T07:49:24.000Z</time>
      </trkpt>
      <trkpt lat="44.55904" lon="4.24566">
        <ele>451</ele>
        <time>2018-06-03T07:49:25.000Z</time>
      </trkpt>
      <trkpt lat="44.55905" lon="4.24568">
        <ele>451</ele>
        <time>2018-06-03T07:49:26.000Z</time>
      </trkpt>
      <trkpt lat="44.55907" lon="4.24571">
        <ele>451</ele>
        <time>2018-06-03T07:49:27.000Z</time>
      </trkpt>
      <trkpt lat="44.55909" lon="4.24573">
        <ele>451</ele>
        <time>2018-06-03T07:49:28.000Z</time>
      </trkpt>
      <trkpt lat="44.5591" lon="4.24576">
        <ele>451</ele>
        <time>2018-06-03T07:49:29.000Z</time>
      </trkpt>
      <trkpt lat="44.55912" lon="4.24579">
        <ele>450</ele>
        <time>2018-06-03T07:49:30.000Z</time>
      </trkpt>
      <trkpt lat="44.55913" lon="4.24582">
        <ele>450</ele>
        <time>2018-06-03T07:49:31.000Z</time>
      </trkpt>
      <trkpt lat="44.55914" lon="4.24585">
        <ele>452</ele>
        <time>2018-06-03T07:49:32.000Z</time>
      </trkpt>
      <trkpt lat="44.55915" lon="4.24587">
        <ele>453</ele>
        <time>2018-06-03T07:49:33.000Z</time>
      </trkpt>
      <trkpt lat="44.55917" lon="4.2459">
        <ele>449</ele>
        <time>2018-06-03T07:49:34.000Z</time>
      </trkpt>
      <trkpt lat="44.55917" lon="4.24593">
        <ele>448</ele>
        <time>2018-06-03T07:49:35.000Z</time>
      </trkpt>
      <trkpt lat="44.55918" lon="4.24595">
        <ele>448</ele>
        <time>2018-06-03T07:49:36.000Z</time>
      </trkpt>
      <trkpt lat="44.55919" lon="4.24598">
        <ele>448</ele>
        <time>2018-06-03T07:49:37.000Z</time>
      </trkpt>
      <trkpt lat="44.5592" lon="4.24601">
        <ele>447</ele>
        <time>2018-06-03T07:49:38.000Z</time>
      </trkpt>
      <trkpt lat="44.55921" lon="4.24603">
        <ele>447</ele>
        <time>2018-06-03T07:49:39.000Z</time>
      </trkpt>
      <trkpt lat="44.55923" lon="4.24606">
        <ele>447</ele>
        <time>2018-06-03T07:49:40.000Z</time>
      </trkpt>
      <trkpt lat="44.55925" lon="4.2461">
        <ele>447</ele>
        <time>2018-06-03T07:49:41.000Z</time>
      </trkpt>
      <trkpt lat="44.55926" lon="4.24613">
        <ele>447</ele>
        <time>2018-06-03T07:49:42.000Z</time>
      </trkpt>
      <trkpt lat="44.55927" lon="4.24615">
        <ele>447</ele>
        <time>2018-06-03T07:49:43.000Z</time>
      </trkpt>
      <trkpt lat="44.55929" lon="4.24618">
        <ele>447</ele>
        <time>2018-06-03T07:49:44.000Z</time>
      </trkpt>
      <trkpt lat="44.5593" lon="4.24621">
        <ele>447</ele>
        <time>2018-06-03T07:49:45.000Z</time>
      </trkpt>
      <trkpt lat="44.55931" lon="4.24624">
        <ele>447</ele>
        <time>2018-06-03T07:49:46.000Z</time>
      </trkpt>
      <trkpt lat="44.55932" lon="4.24628">
        <ele>447</ele>
        <time>2018-06-03T07:49:47.000Z</time>
      </trkpt>
      <trkpt lat="44.55933" lon="4.24632">
        <ele>447</ele>
        <time>2018-06-03T07:49:48.000Z</time>
      </trkpt>
      <trkpt lat="44.55934" lon="4.24635">
        <ele>448</ele>
        <time>2018-06-03T07:49:49.000Z</time>
      </trkpt>
      <trkpt lat="44.55934" lon="4.24639">
        <ele>448</ele>
        <time>2018-06-03T07:49:50.000Z</time>
      </trkpt>
      <trkpt lat="44.55935" lon="4.24642">
        <ele>449</ele>
        <time>2018-06-03T07:49:51.000Z</time>
      </trkpt>
      <trkpt lat="44.55935" lon="4.24646">
        <ele>449</ele>
        <time>2018-06-03T07:49:52.000Z</time>
      </trkpt>
      <trkpt lat="44.55936" lon="4.2465">
        <ele>450</ele>
        <time>2018-06-03T07:49:53.000Z</time>
      </trkpt>
      <trkpt lat="44.55937" lon="4.24655">
        <ele>450</ele>
        <time>2018-06-03T07:49:54.000Z</time>
      </trkpt>
      <trkpt lat="44.55938" lon="4.2466">
        <ele>450</ele>
        <time>2018-06-03T07:49:55.000Z</time>
      </trkpt>
      <trkpt lat="44.55939" lon="4.24665">
        <ele>451</ele>
        <time>2018-06-03T07:49:56.000Z</time>
      </trkpt>
      <trkpt lat="44.55939" lon="4.24671">
        <ele>455</ele>
        <time>2018-06-03T07:49:57.000Z</time>
      </trkpt>
      <trkpt lat="44.55939" lon="4.24677">
        <ele>455</ele>
        <time>2018-06-03T07:49:58.000Z</time>
      </trkpt>
      <trkpt lat="44.55938" lon="4.24684">
        <ele>455</ele>
        <time>2018-06-03T07:49:59.000Z</time>
      </trkpt>
      <trkpt lat="44.55936" lon="4.24691">
        <ele>455</ele>
        <time>2018-06-03T07:50:00.000Z</time>
      </trkpt>
      <trkpt lat="44.55934" lon="4.24697">
        <ele>456</ele>
        <time>2018-06-03T07:50:01.000Z</time>
      </trkpt>
      <trkpt lat="44.55933" lon="4.24704">
        <ele>456</ele>
        <time>2018-06-03T07:50:02.000Z</time>
      </trkpt>
      <trkpt lat="44.55933" lon="4.2471">
        <ele>456</ele>
        <time>2018-06-03T07:50:03.000Z</time>
      </trkpt>
      <trkpt lat="44.55935" lon="4.24715">
        <ele>456</ele>
        <time>2018-06-03T07:50:04.000Z</time>
      </trkpt>
      <trkpt lat="44.55938" lon="4.24718">
        <ele>456</ele>
        <time>2018-06-03T07:50:05.000Z</time>
      </trkpt>
      <trkpt lat="44.55941" lon="4.24721">
        <ele>456</ele>
        <time>2018-06-03T07:50:06.000Z</time>
      </trkpt>
      <trkpt lat="44.55944" lon="4.24722">
        <ele>455</ele>
        <time>2018-06-03T07:50:07.000Z</time>
      </trkpt>
      <trkpt lat="44.55948" lon="4.24723">
        <ele>455</ele>
        <time>2018-06-03T07:50:08.000Z</time>
      </trkpt>
      <trkpt lat="44.55952" lon="4.24724">
        <ele>454</ele>
        <time>2018-06-03T07:50:09.000Z</time>
      </trkpt>
      <trkpt lat="44.55956" lon="4.24726">
        <ele>454</ele>
        <time>2018-06-03T07:50:10.000Z</time>
      </trkpt>
      <trkpt lat="44.5596" lon="4.24727">
        <ele>453</ele>
        <time>2018-06-03T07:50:11.000Z</time>
      </trkpt>
      <trkpt lat="44.55963" lon="4.24729">
        <ele>453</ele>
        <time>2018-06-03T07:50:12.000Z</time>
      </trkpt>
      <trkpt lat="44.55967" lon="4.24733">
        <ele>452</ele>
        <time>2018-06-03T07:50:13.000Z</time>
      </trkpt>
      <trkpt lat="44.55969" lon="4.24738">
        <ele>452</ele>
        <time>2018-06-03T07:50:14.000Z</time>
      </trkpt>
      <trkpt lat="44.55972" lon="4.24742">
        <ele>452</ele>
        <time>2018-06-03T07:50:15.000Z</time>
      </trkpt>
      <trkpt lat="44.55975" lon="4.24747">
        <ele>451</ele>
        <time>2018-06-03T07:50:16.000Z</time>
      </trkpt>
      <trkpt lat="44.55977" lon="4.24752">
        <ele>453</ele>
        <time>2018-06-03T07:50:17.000Z</time>
      </trkpt>
      <trkpt lat="44.5598" lon="4.24756">
        <ele>453</ele>
        <time>2018-06-03T07:50:18.000Z</time>
      </trkpt>
      <trkpt lat="44.55983" lon="4.2476">
        <ele>453</ele>
        <time>2018-06-03T07:50:19.000Z</time>
      </trkpt>
      <trkpt lat="44.55985" lon="4.24764">
        <ele>453</ele>
        <time>2018-06-03T07:50:20.000Z</time>
      </trkpt>
      <trkpt lat="44.55988" lon="4.24768">
        <ele>453</ele>
        <time>2018-06-03T07:50:21.000Z</time>
      </trkpt>
      <trkpt lat="44.55991" lon="4.24772">
        <ele>453</ele>
        <time>2018-06-03T07:50:22.000Z</time>
      </trkpt>
      <trkpt lat="44.55994" lon="4.24775">
        <ele>453</ele>
        <time>2018-06-03T07:50:23.000Z</time>
      </trkpt>
      <trkpt lat="44.55998" lon="4.24777">
        <ele>453</ele>
        <time>2018-06-03T07:50:24.000Z</time>
      </trkpt>
      <trkpt lat="44.56001" lon="4.24779">
        <ele>448</ele>
        <time>2018-06-03T07:50:25.000Z</time>
      </trkpt>
      <trkpt lat="44.56004" lon="4.24783">
        <ele>448</ele>
        <time>2018-06-03T07:50:26.000Z</time>
      </trkpt>
      <trkpt lat="44.56007" lon="4.24786">
        <ele>448</ele>
        <time>2018-06-03T07:50:27.000Z</time>
      </trkpt>
      <trkpt lat="44.56011" lon="4.2479">
        <ele>448</ele>
        <time>2018-06-03T07:50:28.000Z</time>
      </trkpt>
      <trkpt lat="44.56015" lon="4.24793">
        <ele>448</ele>
        <time>2018-06-03T07:50:29.000Z</time>
      </trkpt>
      <trkpt lat="44.56019" lon="4.24796">
        <ele>448</ele>
        <time>2018-06-03T07:50:30.000Z</time>
      </trkpt>
      <trkpt lat="44.56023" lon="4.24798">
        <ele>448</ele>
        <time>2018-06-03T07:50:31.000Z</time>
      </trkpt>
      <trkpt lat="44.56028" lon="4.248">
        <ele>448</ele>
        <time>2018-06-03T07:50:32.000Z</time>
      </trkpt>
      <trkpt lat="44.56033" lon="4.24802">
        <ele>448</ele>
        <time>2018-06-03T07:50:33.000Z</time>
      </trkpt>
      <trkpt lat="44.56039" lon="4.24803">
        <ele>448</ele>
        <time>2018-06-03T07:50:34.000Z</time>
      </trkpt>
      <trkpt lat="44.56044" lon="4.24803">
        <ele>448</ele>
        <time>2018-06-03T07:50:35.000Z</time>
      </trkpt>
      <trkpt lat="44.5605" lon="4.24803">
        <ele>448</ele>
        <time>2018-06-03T07:50:36.000Z</time>
      </trkpt>
      <trkpt lat="44.56056" lon="4.24803">
        <ele>448</ele>
        <time>2018-06-03T07:50:37.000Z</time>
      </trkpt>
      <trkpt lat="44.56062" lon="4.24802">
        <ele>448</ele>
        <time>2018-06-03T07:50:38.000Z</time>
      </trkpt>
      <trkpt lat="44.56069" lon="4.24802">
        <ele>448</ele>
        <time>2018-06-03T07:50:39.000Z</time>
      </trkpt>
      <trkpt lat="44.56075" lon="4.24801">
        <ele>448</ele>
        <time>2018-06-03T07:50:40.000Z</time>
      </trkpt>
      <trkpt lat="44.56081" lon="4.24801">
        <ele>448</ele>
        <time>2018-06-03T07:50:41.000Z</time>
      </trkpt>
      <trkpt lat="44.56086" lon="4.248">
        <ele>447</ele>
        <time>2018-06-03T07:50:42.000Z</time>
      </trkpt>
      <trkpt lat="44.56092" lon="4.24798">
        <ele>447</ele>
        <time>2018-06-03T07:50:43.000Z</time>
      </trkpt>
      <trkpt lat="44.56099" lon="4.24797">
        <ele>447</ele>
        <time>2018-06-03T07:50:44.000Z</time>
      </trkpt>
      <trkpt lat="44.56105" lon="4.24795">
        <ele>447</ele>
        <time>2018-06-03T07:50:45.000Z</time>
      </trkpt>
      <trkpt lat="44.56111" lon="4.24795">
        <ele>447</ele>
        <time>2018-06-03T07:50:46.000Z</time>
      </trkpt>
      <trkpt lat="44.56118" lon="4.24795">
        <ele>446</ele>
        <time>2018-06-03T07:50:47.000Z</time>
      </trkpt>
      <trkpt lat="44.56124" lon="4.24796">
        <ele>446</ele>
        <time>2018-06-03T07:50:48.000Z</time>
      </trkpt>
      <trkpt lat="44.5613" lon="4.24796">
        <ele>446</ele>
        <time>2018-06-03T07:50:49.000Z</time>
      </trkpt>
      <trkpt lat="44.56136" lon="4.24795">
        <ele>446</ele>
        <time>2018-06-03T07:50:50.000Z</time>
      </trkpt>
      <trkpt lat="44.56142" lon="4.24793">
        <ele>446</ele>
        <time>2018-06-03T07:50:51.000Z</time>
      </trkpt>
      <trkpt lat="44.56148" lon="4.24791">
        <ele>446</ele>
        <time>2018-06-03T07:50:52.000Z</time>
      </trkpt>
      <trkpt lat="44.56155" lon="4.24789">
        <ele>446</ele>
        <time>2018-06-03T07:50:53.000Z</time>
      </trkpt>
      <trkpt lat="44.56163" lon="4.24787">
        <ele>446</ele>
        <time>2018-06-03T07:50:54.000Z</time>
      </trkpt>
      <trkpt lat="44.5617" lon="4.24785">
        <ele>446</ele>
        <time>2018-06-03T07:50:55.000Z</time>
      </trkpt>
      <trkpt lat="44.56178" lon="4.24783">
        <ele>446</ele>
        <time>2018-06-03T07:50:56.000Z</time>
      </trkpt>
      <trkpt lat="44.56185" lon="4.24782">
        <ele>446</ele>
        <time>2018-06-03T07:50:57.000Z</time>
      </trkpt>
      <trkpt lat="44.56192" lon="4.24781">
        <ele>446</ele>
        <time>2018-06-03T07:50:58.000Z</time>
      </trkpt>
      <trkpt lat="44.56198" lon="4.24782">
        <ele>446</ele>
        <time>2018-06-03T07:50:59.000Z</time>
      </trkpt>
      <trkpt lat="44.56203" lon="4.24786">
        <ele>446</ele>
        <time>2018-06-03T07:51:00.000Z</time>
      </trkpt>
      <trkpt lat="44.56207" lon="4.24791">
        <ele>446</ele>
        <time>2018-06-03T07:51:01.000Z</time>
      </trkpt>
      <trkpt lat="44.56209" lon="4.24798">
        <ele>445</ele>
        <time>2018-06-03T07:51:02.000Z</time>
      </trkpt>
      <trkpt lat="44.56211" lon="4.24804">
        <ele>445</ele>
        <time>2018-06-03T07:51:03.000Z</time>
      </trkpt>
      <trkpt lat="44.56212" lon="4.2481">
        <ele>445</ele>
        <time>2018-06-03T07:51:04.000Z</time>
      </trkpt>
      <trkpt lat="44.56214" lon="4.24815">
        <ele>445</ele>
        <time>2018-06-03T07:51:05.000Z</time>
      </trkpt>
      <trkpt lat="44.56215" lon="4.24821">
        <ele>445</ele>
        <time>2018-06-03T07:51:06.000Z</time>
      </trkpt>
      <trkpt lat="44.56217" lon="4.24827">
        <ele>445</ele>
        <time>2018-06-03T07:51:07.000Z</time>
      </trkpt>
      <trkpt lat="44.56218" lon="4.24832">
        <ele>445</ele>
        <time>2018-06-03T07:51:08.000Z</time>
      </trkpt>
      <trkpt lat="44.56221" lon="4.24836">
        <ele>440</ele>
        <time>2018-06-03T07:51:09.000Z</time>
      </trkpt>
      <trkpt lat="44.56223" lon="4.24839">
        <ele>440</ele>
        <time>2018-06-03T07:51:10.000Z</time>
      </trkpt>
      <trkpt lat="44.56226" lon="4.24842">
        <ele>441</ele>
        <time>2018-06-03T07:51:11.000Z</time>
      </trkpt>
      <trkpt lat="44.56229" lon="4.24844">
        <ele>441</ele>
        <time>2018-06-03T07:51:12.000Z</time>
      </trkpt>
      <trkpt lat="44.56232" lon="4.24845">
        <ele>441</ele>
        <time>2018-06-03T07:51:13.000Z</time>
      </trkpt>
      <trkpt lat="44.56235" lon="4.24846">
        <ele>441</ele>
        <time>2018-06-03T07:51:14.000Z</time>
      </trkpt>
      <trkpt lat="44.56238" lon="4.24847">
        <ele>442</ele>
        <time>2018-06-03T07:51:15.000Z</time>
      </trkpt>
      <trkpt lat="44.5624" lon="4.24847">
        <ele>442</ele>
        <time>2018-06-03T07:51:16.000Z</time>
      </trkpt>
      <trkpt lat="44.56242" lon="4.24847">
        <ele>442</ele>
        <time>2018-06-03T07:51:17.000Z</time>
      </trkpt>
      <trkpt lat="44.56242" lon="4.24846">
        <ele>443</ele>
        <time>2018-06-03T07:51:18.000Z</time>
      </trkpt>
      <trkpt lat="44.56241" lon="4.24844">
        <ele>443</ele>
        <time>2018-06-03T07:51:19.000Z</time>
      </trkpt>
      <trkpt lat="44.5624" lon="4.24845">
        <ele>442</ele>
        <time>2018-06-03T07:51:20.000Z</time>
      </trkpt>
      <trkpt lat="44.56237" lon="4.24845">
        <ele>442</ele>
        <time>2018-06-03T07:51:21.000Z</time>
      </trkpt>
      <trkpt lat="44.56234" lon="4.24845">
        <ele>441</ele>
        <time>2018-06-03T07:51:22.000Z</time>
      </trkpt>
      <trkpt lat="44.56231" lon="4.24845">
        <ele>441</ele>
        <time>2018-06-03T07:51:23.000Z</time>
      </trkpt>
      <trkpt lat="44.56227" lon="4.24844">
        <ele>441</ele>
        <time>2018-06-03T07:51:24.000Z</time>
      </trkpt>
      <trkpt lat="44.56224" lon="4.24841">
        <ele>440</ele>
        <time>2018-06-03T07:51:25.000Z</time>
      </trkpt>
      <trkpt lat="44.56221" lon="4.24837">
        <ele>440</ele>
        <time>2018-06-03T07:51:26.000Z</time>
      </trkpt>
      <trkpt lat="44.56219" lon="4.24832">
        <ele>445</ele>
        <time>2018-06-03T07:51:27.000Z</time>
      </trkpt>
      <trkpt lat="44.56217" lon="4.24826">
        <ele>445</ele>
        <time>2018-06-03T07:51:28.000Z</time>
      </trkpt>
      <trkpt lat="44.56215" lon="4.2482">
        <ele>445</ele>
        <time>2018-06-03T07:51:29.000Z</time>
      </trkpt>
      <trkpt lat="44.56214" lon="4.24814">
        <ele>445</ele>
        <time>2018-06-03T07:51:30.000Z</time>
      </trkpt>
      <trkpt lat="44.56212" lon="4.24807">
        <ele>445</ele>
        <time>2018-06-03T07:51:31.000Z</time>
      </trkpt>
      <trkpt lat="44.5621" lon="4.24801">
        <ele>445</ele>
        <time>2018-06-03T07:51:32.000Z</time>
      </trkpt>
      <trkpt lat="44.56208" lon="4.24794">
        <ele>446</ele>
        <time>2018-06-03T07:51:33.000Z</time>
      </trkpt>
      <trkpt lat="44.56205" lon="4.24789">
        <ele>446</ele>
        <time>2018-06-03T07:51:34.000Z</time>
      </trkpt>
      <trkpt lat="44.56203" lon="4.24784">
        <ele>446</ele>
        <time>2018-06-03T07:51:35.000Z</time>
      </trkpt>
      <trkpt lat="44.56201" lon="4.24778">
        <ele>446</ele>
        <time>2018-06-03T07:51:36.000Z</time>
      </trkpt>
      <trkpt lat="44.562" lon="4.24773">
        <ele>447</ele>
        <time>2018-06-03T07:51:37.000Z</time>
      </trkpt>
      <trkpt lat="44.562" lon="4.24768">
        <ele>447</ele>
        <time>2018-06-03T07:51:38.000Z</time>
      </trkpt>
      <trkpt lat="44.56199" lon="4.24763">
        <ele>447</ele>
        <time>2018-06-03T07:51:39.000Z</time>
      </trkpt>
      <trkpt lat="44.56199" lon="4.24759">
        <ele>447</ele>
        <time>2018-06-03T07:51:40.000Z</time>
      </trkpt>
      <trkpt lat="44.56199" lon="4.24753">
        <ele>447</ele>
        <time>2018-06-03T07:51:41.000Z</time>
      </trkpt>
      <trkpt lat="44.562" lon="4.24747">
        <ele>450</ele>
        <time>2018-06-03T07:51:42.000Z</time>
      </trkpt>
      <trkpt lat="44.56201" lon="4.24741">
        <ele>450</ele>
        <time>2018-06-03T07:51:43.000Z</time>
      </trkpt>
      <trkpt lat="44.56202" lon="4.24735">
        <ele>450</ele>
        <time>2018-06-03T07:51:44.000Z</time>
      </trkpt>
      <trkpt lat="44.56204" lon="4.24729">
        <ele>450</ele>
        <time>2018-06-03T07:51:45.000Z</time>
      </trkpt>
      <trkpt lat="44.56206" lon="4.24722">
        <ele>450</ele>
        <time>2018-06-03T07:51:46.000Z</time>
      </trkpt>
      <trkpt lat="44.56206" lon="4.24715">
        <ele>450</ele>
        <time>2018-06-03T07:51:47.000Z</time>
      </trkpt>
      <trkpt lat="44.56208" lon="4.24708">
        <ele>450</ele>
        <time>2018-06-03T07:51:48.000Z</time>
      </trkpt>
      <trkpt lat="44.56209" lon="4.24702">
        <ele>449</ele>
        <time>2018-06-03T07:51:49.000Z</time>
      </trkpt>
      <trkpt lat="44.56211" lon="4.24695">
        <ele>449</ele>
        <time>2018-06-03T07:51:50.000Z</time>
      </trkpt>
      <trkpt lat="44.56214" lon="4.24686">
        <ele>449</ele>
        <time>2018-06-03T07:51:51.000Z</time>
      </trkpt>
      <trkpt lat="44.56216" lon="4.24677">
        <ele>449</ele>
        <time>2018-06-03T07:51:52.000Z</time>
      </trkpt>
      <trkpt lat="44.56218" lon="4.24668">
        <ele>448</ele>
        <time>2018-06-03T07:51:53.000Z</time>
      </trkpt>
      <trkpt lat="44.56219" lon="4.24659">
        <ele>447</ele>
        <time>2018-06-03T07:51:54.000Z</time>
      </trkpt>
      <trkpt lat="44.5622" lon="4.24649">
        <ele>446</ele>
        <time>2018-06-03T07:51:55.000Z</time>
      </trkpt>
      <trkpt lat="44.56221" lon="4.24641">
        <ele>446</ele>
        <time>2018-06-03T07:51:56.000Z</time>
      </trkpt>
      <trkpt lat="44.56223" lon="4.24633">
        <ele>446</ele>
        <time>2018-06-03T07:51:57.000Z</time>
      </trkpt>
      <trkpt lat="44.56225" lon="4.24623">
        <ele>445</ele>
        <time>2018-06-03T07:51:58.000Z</time>
      </trkpt>
      <trkpt lat="44.56226" lon="4.24612">
        <ele>445</ele>
        <time>2018-06-03T07:51:59.000Z</time>
      </trkpt>
      <trkpt lat="44.56227" lon="4.246">
        <ele>444</ele>
        <time>2018-06-03T07:52:00.000Z</time>
      </trkpt>
      <trkpt lat="44.56226" lon="4.24588">
        <ele>443</ele>
        <time>2018-06-03T07:52:01.000Z</time>
      </trkpt>
      <trkpt lat="44.56225" lon="4.24577">
        <ele>440</ele>
        <time>2018-06-03T07:52:02.000Z</time>
      </trkpt>
      <trkpt lat="44.56226" lon="4.24567">
        <ele>440</ele>
        <time>2018-06-03T07:52:03.000Z</time>
      </trkpt>
      <trkpt lat="44.56226" lon="4.24557">
        <ele>440</ele>
        <time>2018-06-03T07:52:04.000Z</time>
      </trkpt>
      <trkpt lat="44.56226" lon="4.24548">
        <ele>439</ele>
        <time>2018-06-03T07:52:05.000Z</time>
      </trkpt>
      <trkpt lat="44.56226" lon="4.24539">
        <ele>439</ele>
        <time>2018-06-03T07:52:06.000Z</time>
      </trkpt>
      <trkpt lat="44.56225" lon="4.24531">
        <ele>438</ele>
        <time>2018-06-03T07:52:07.000Z</time>
      </trkpt>
      <trkpt lat="44.56225" lon="4.24523">
        <ele>438</ele>
        <time>2018-06-03T07:52:08.000Z</time>
      </trkpt>
      <trkpt lat="44.56225" lon="4.24514">
        <ele>437</ele>
        <time>2018-06-03T07:52:09.000Z</time>
      </trkpt>
      <trkpt lat="44.56226" lon="4.24504">
        <ele>436</ele>
        <time>2018-06-03T07:52:10.000Z</time>
      </trkpt>
      <trkpt lat="44.56226" lon="4.24496">
        <ele>432</ele>
        <time>2018-06-03T07:52:11.000Z</time>
      </trkpt>
      <trkpt lat="44.56225" lon="4.24488">
        <ele>433</ele>
        <time>2018-06-03T07:52:12.000Z</time>
      </trkpt>
      <trkpt lat="44.56224" lon="4.2448">
        <ele>433</ele>
        <time>2018-06-03T07:52:13.000Z</time>
      </trkpt>
      <trkpt lat="44.56225" lon="4.24471">
        <ele>433</ele>
        <time>2018-06-03T07:52:14.000Z</time>
      </trkpt>
      <trkpt lat="44.56226" lon="4.24462">
        <ele>433</ele>
        <time>2018-06-03T07:52:15.000Z</time>
      </trkpt>
      <trkpt lat="44.56227" lon="4.24453">
        <ele>432</ele>
        <time>2018-06-03T07:52:16.000Z</time>
      </trkpt>
      <trkpt lat="44.56228" lon="4.24443">
        <ele>431</ele>
        <time>2018-06-03T07:52:17.000Z</time>
      </trkpt>
      <trkpt lat="44.56228" lon="4.24433">
        <ele>430</ele>
        <time>2018-06-03T07:52:18.000Z</time>
      </trkpt>
      <trkpt lat="44.56228" lon="4.24423">
        <ele>429</ele>
        <time>2018-06-03T07:52:19.000Z</time>
      </trkpt>
      <trkpt lat="44.56228" lon="4.24413">
        <ele>427</ele>
        <time>2018-06-03T07:52:20.000Z</time>
      </trkpt>
      <trkpt lat="44.56226" lon="4.24404">
        <ele>428</ele>
        <time>2018-06-03T07:52:21.000Z</time>
      </trkpt>
      <trkpt lat="44.56223" lon="4.24396">
        <ele>429</ele>
        <time>2018-06-03T07:52:22.000Z</time>
      </trkpt>
      <trkpt lat="44.56222" lon="4.24388">
        <ele>430</ele>
        <time>2018-06-03T07:52:23.000Z</time>
      </trkpt>
      <trkpt lat="44.56222" lon="4.24381">
        <ele>430</ele>
        <time>2018-06-03T07:52:24.000Z</time>
      </trkpt>
      <trkpt lat="44.56223" lon="4.24376">
        <ele>429</ele>
        <time>2018-06-03T07:52:25.000Z</time>
      </trkpt>
      <trkpt lat="44.56227" lon="4.24371">
        <ele>429</ele>
        <time>2018-06-03T07:52:26.000Z</time>
      </trkpt>
      <trkpt lat="44.5623" lon="4.24366">
        <ele>428</ele>
        <time>2018-06-03T07:52:27.000Z</time>
      </trkpt>
      <trkpt lat="44.56234" lon="4.24358">
        <ele>427</ele>
        <time>2018-06-03T07:52:28.000Z</time>
      </trkpt>
      <trkpt lat="44.56236" lon="4.2435">
        <ele>426</ele>
        <time>2018-06-03T07:52:29.000Z</time>
      </trkpt>
      <trkpt lat="44.5624" lon="4.24341">
        <ele>424</ele>
        <time>2018-06-03T07:52:30.000Z</time>
      </trkpt>
      <trkpt lat="44.56243" lon="4.24332">
        <ele>422</ele>
        <time>2018-06-03T07:52:31.000Z</time>
      </trkpt>
      <trkpt lat="44.56247" lon="4.24325">
        <ele>423</ele>
        <time>2018-06-03T07:52:32.000Z</time>
      </trkpt>
      <trkpt lat="44.56252" lon="4.24318">
        <ele>417</ele>
        <time>2018-06-03T07:52:33.000Z</time>
      </trkpt>
      <trkpt lat="44.56257" lon="4.24312">
        <ele>417</ele>
        <time>2018-06-03T07:52:34.000Z</time>
      </trkpt>
      <trkpt lat="44.56261" lon="4.24307">
        <ele>417</ele>
        <time>2018-06-03T07:52:35.000Z</time>
      </trkpt>
      <trkpt lat="44.56266" lon="4.24302">
        <ele>417</ele>
        <time>2018-06-03T07:52:36.000Z</time>
      </trkpt>
      <trkpt lat="44.5627" lon="4.24297">
        <ele>416</ele>
        <time>2018-06-03T07:52:37.000Z</time>
      </trkpt>
      <trkpt lat="44.56274" lon="4.24292">
        <ele>416</ele>
        <time>2018-06-03T07:52:38.000Z</time>
      </trkpt>
      <trkpt lat="44.56279" lon="4.24287">
        <ele>416</ele>
        <time>2018-06-03T07:52:39.000Z</time>
      </trkpt>
      <trkpt lat="44.56283" lon="4.24281">
        <ele>416</ele>
        <time>2018-06-03T07:52:40.000Z</time>
      </trkpt>
      <trkpt lat="44.56287" lon="4.24275">
        <ele>416</ele>
        <time>2018-06-03T07:52:41.000Z</time>
      </trkpt>
      <trkpt lat="44.56291" lon="4.24269">
        <ele>415</ele>
        <time>2018-06-03T07:52:42.000Z</time>
      </trkpt>
      <trkpt lat="44.56295" lon="4.24264">
        <ele>415</ele>
        <time>2018-06-03T07:52:43.000Z</time>
      </trkpt>
      <trkpt lat="44.56297" lon="4.24258">
        <ele>414</ele>
        <time>2018-06-03T07:52:44.000Z</time>
      </trkpt>
      <trkpt lat="44.56298" lon="4.24252">
        <ele>414</ele>
        <time>2018-06-03T07:52:45.000Z</time>
      </trkpt>
      <trkpt lat="44.56301" lon="4.24246">
        <ele>411</ele>
        <time>2018-06-03T07:52:46.000Z</time>
      </trkpt>
      <trkpt lat="44.56304" lon="4.24239">
        <ele>411</ele>
        <time>2018-06-03T07:52:47.000Z</time>
      </trkpt>
      <trkpt lat="44.56307" lon="4.24232">
        <ele>411</ele>
        <time>2018-06-03T07:52:48.000Z</time>
      </trkpt>
      <trkpt lat="44.5631" lon="4.24223">
        <ele>410</ele>
        <time>2018-06-03T07:52:49.000Z</time>
      </trkpt>
      <trkpt lat="44.56313" lon="4.24215">
        <ele>410</ele>
        <time>2018-06-03T07:52:50.000Z</time>
      </trkpt>
      <trkpt lat="44.56316" lon="4.24206">
        <ele>409</ele>
        <time>2018-06-03T07:52:51.000Z</time>
      </trkpt>
      <trkpt lat="44.56318" lon="4.24198">
        <ele>409</ele>
        <time>2018-06-03T07:52:52.000Z</time>
      </trkpt>
      <trkpt lat="44.56319" lon="4.2419">
        <ele>408</ele>
        <time>2018-06-03T07:52:53.000Z</time>
      </trkpt>
      <trkpt lat="44.5632" lon="4.24183">
        <ele>407</ele>
        <time>2018-06-03T07:52:54.000Z</time>
      </trkpt>
      <trkpt lat="44.5632" lon="4.24176">
        <ele>406</ele>
        <time>2018-06-03T07:52:55.000Z</time>
      </trkpt>
      <trkpt lat="44.56319" lon="4.2417">
        <ele>405</ele>
        <time>2018-06-03T07:52:56.000Z</time>
      </trkpt>
      <trkpt lat="44.56318" lon="4.24164">
        <ele>401</ele>
        <time>2018-06-03T07:52:57.000Z</time>
      </trkpt>
      <trkpt lat="44.56316" lon="4.24158">
        <ele>401</ele>
        <time>2018-06-03T07:52:58.000Z</time>
      </trkpt>
      <trkpt lat="44.56315" lon="4.2415">
        <ele>401</ele>
        <time>2018-06-03T07:52:59.000Z</time>
      </trkpt>
      <trkpt lat="44.56314" lon="4.24143">
        <ele>401</ele>
        <time>2018-06-03T07:53:00.000Z</time>
      </trkpt>
      <trkpt lat="44.56313" lon="4.24134">
        <ele>400</ele>
        <time>2018-06-03T07:53:01.000Z</time>
      </trkpt>
      <trkpt lat="44.56311" lon="4.24127">
        <ele>400</ele>
        <time>2018-06-03T07:53:02.000Z</time>
      </trkpt>
      <trkpt lat="44.56309" lon="4.24121">
        <ele>399</ele>
        <time>2018-06-03T07:53:03.000Z</time>
      </trkpt>
      <trkpt lat="44.56305" lon="4.24116">
        <ele>399</ele>
        <time>2018-06-03T07:53:04.000Z</time>
      </trkpt>
      <trkpt lat="44.56301" lon="4.24111">
        <ele>399</ele>
        <time>2018-06-03T07:53:05.000Z</time>
      </trkpt>
      <trkpt lat="44.56296" lon="4.24107">
        <ele>399</ele>
        <time>2018-06-03T07:53:06.000Z</time>
      </trkpt>
      <trkpt lat="44.56293" lon="4.24103">
        <ele>399</ele>
        <time>2018-06-03T07:53:07.000Z</time>
      </trkpt>
      <trkpt lat="44.56289" lon="4.24099">
        <ele>399</ele>
        <time>2018-06-03T07:53:08.000Z</time>
      </trkpt>
      <trkpt lat="44.56286" lon="4.24094">
        <ele>399</ele>
        <time>2018-06-03T07:53:09.000Z</time>
      </trkpt>
      <trkpt lat="44.56282" lon="4.2409">
        <ele>399</ele>
        <time>2018-06-03T07:53:10.000Z</time>
      </trkpt>
      <trkpt lat="44.5628" lon="4.24085">
        <ele>398</ele>
        <time>2018-06-03T07:53:11.000Z</time>
      </trkpt>
      <trkpt lat="44.56278" lon="4.2408">
        <ele>393</ele>
        <time>2018-06-03T07:53:12.000Z</time>
      </trkpt>
      <trkpt lat="44.56276" lon="4.24075">
        <ele>393</ele>
        <time>2018-06-03T07:53:13.000Z</time>
      </trkpt>
      <trkpt lat="44.56275" lon="4.2407">
        <ele>393</ele>
        <time>2018-06-03T07:53:14.000Z</time>
      </trkpt>
      <trkpt lat="44.56273" lon="4.24064">
        <ele>393</ele>
        <time>2018-06-03T07:53:15.000Z</time>
      </trkpt>
      <trkpt lat="44.56273" lon="4.24057">
        <ele>392</ele>
        <time>2018-06-03T07:53:16.000Z</time>
      </trkpt>
      <trkpt lat="44.56273" lon="4.24052">
        <ele>392</ele>
        <time>2018-06-03T07:53:17.000Z</time>
      </trkpt>
      <trkpt lat="44.56273" lon="4.24048">
        <ele>392</ele>
        <time>2018-06-03T07:53:18.000Z</time>
      </trkpt>
      <trkpt lat="44.56274" lon="4.24044">
        <ele>392</ele>
        <time>2018-06-03T07:53:19.000Z</time>
      </trkpt>
      <trkpt lat="44.56274" lon="4.2404">
        <ele>392</ele>
        <time>2018-06-03T07:53:20.000Z</time>
      </trkpt>
      <trkpt lat="44.56274" lon="4.24036">
        <ele>392</ele>
        <time>2018-06-03T07:53:21.000Z</time>
      </trkpt>
      <trkpt lat="44.56275" lon="4.24033">
        <ele>391</ele>
        <time>2018-06-03T07:53:22.000Z</time>
      </trkpt>
      <trkpt lat="44.56274" lon="4.2403">
        <ele>391</ele>
        <time>2018-06-03T07:53:23.000Z</time>
      </trkpt>
      <trkpt lat="44.56274" lon="4.24027">
        <ele>391</ele>
        <time>2018-06-03T07:53:24.000Z</time>
      </trkpt>
      <trkpt lat="44.56274" lon="4.24024">
        <ele>391</ele>
        <time>2018-06-03T07:53:25.000Z</time>
      </trkpt>
      <trkpt lat="44.56274" lon="4.24021">
        <ele>391</ele>
        <time>2018-06-03T07:53:26.000Z</time>
      </trkpt>
      <trkpt lat="44.56274" lon="4.24017">
        <ele>391</ele>
        <time>2018-06-03T07:53:27.000Z</time>
      </trkpt>
      <trkpt lat="44.56274" lon="4.24014">
        <ele>391</ele>
        <time>2018-06-03T07:53:28.000Z</time>
      </trkpt>
      <trkpt lat="44.56274" lon="4.24011">
        <ele>391</ele>
        <time>2018-06-03T07:53:29.000Z</time>
      </trkpt>
      <trkpt lat="44.56273" lon="4.24008">
        <ele>391</ele>
        <time>2018-06-03T07:53:30.000Z</time>
      </trkpt>
      <trkpt lat="44.56273" lon="4.24005">
        <ele>390</ele>
        <time>2018-06-03T07:53:31.000Z</time>
      </trkpt>
      <trkpt lat="44.56272" lon="4.24002">
        <ele>390</ele>
        <time>2018-06-03T07:53:32.000Z</time>
      </trkpt>
      <trkpt lat="44.56272" lon="4.23999">
        <ele>391</ele>
        <time>2018-06-03T07:53:33.000Z</time>
      </trkpt>
      <trkpt lat="44.56271" lon="4.23996">
        <ele>391</ele>
        <time>2018-06-03T07:53:34.000Z</time>
      </trkpt>
      <trkpt lat="44.56271" lon="4.23993">
        <ele>391</ele>
        <time>2018-06-03T07:53:35.000Z</time>
      </trkpt>
      <trkpt lat="44.5627" lon="4.2399">
        <ele>391</ele>
        <time>2018-06-03T07:53:36.000Z</time>
      </trkpt>
      <trkpt lat="44.5627" lon="4.23987">
        <ele>391</ele>
        <time>2018-06-03T07:53:37.000Z</time>
      </trkpt>
      <trkpt lat="44.56269" lon="4.23985">
        <ele>391</ele>
        <time>2018-06-03T07:53:38.000Z</time>
      </trkpt>
      <trkpt lat="44.56269" lon="4.23982">
        <ele>391</ele>
        <time>2018-06-03T07:53:39.000Z</time>
      </trkpt>
      <trkpt lat="44.56268" lon="4.2398">
        <ele>391</ele>
        <time>2018-06-03T07:53:40.000Z</time>
      </trkpt>
      <trkpt lat="44.56268" lon="4.23977">
        <ele>391</ele>
        <time>2018-06-03T07:53:41.000Z</time>
      </trkpt>
      <trkpt lat="44.56267" lon="4.23974">
        <ele>392</ele>
        <time>2018-06-03T07:53:42.000Z</time>
      </trkpt>
      <trkpt lat="44.56266" lon="4.23971">
        <ele>392</ele>
        <time>2018-06-03T07:53:43.000Z</time>
      </trkpt>
      <trkpt lat="44.56266" lon="4.23968">
        <ele>392</ele>
        <time>2018-06-03T07:53:44.000Z</time>
      </trkpt>
      <trkpt lat="44.56265" lon="4.23965">
        <ele>392</ele>
        <time>2018-06-03T07:53:45.000Z</time>
      </trkpt>
      <trkpt lat="44.56265" lon="4.23962">
        <ele>392</ele>
        <time>2018-06-03T07:53:46.000Z</time>
      </trkpt>
      <trkpt lat="44.56264" lon="4.2396">
        <ele>392</ele>
        <time>2018-06-03T07:53:47.000Z</time>
      </trkpt>
      <trkpt lat="44.56263" lon="4.23957">
        <ele>392</ele>
        <time>2018-06-03T07:53:48.000Z</time>
      </trkpt>
      <trkpt lat="44.56263" lon="4.23953">
        <ele>392</ele>
        <time>2018-06-03T07:53:49.000Z</time>
      </trkpt>
      <trkpt lat="44.56262" lon="4.2395">
        <ele>392</ele>
        <time>2018-06-03T07:53:50.000Z</time>
      </trkpt>
      <trkpt lat="44.56262" lon="4.23947">
        <ele>392</ele>
        <time>2018-06-03T07:53:51.000Z</time>
      </trkpt>
      <trkpt lat="44.56262" lon="4.23943">
        <ele>392</ele>
        <time>2018-06-03T07:53:52.000Z</time>
      </trkpt>
      <trkpt lat="44.56262" lon="4.2394">
        <ele>392</ele>
        <time>2018-06-03T07:53:53.000Z</time>
      </trkpt>
      <trkpt lat="44.56261" lon="4.23937">
        <ele>392</ele>
        <time>2018-06-03T07:53:54.000Z</time>
      </trkpt>
      <trkpt lat="44.56261" lon="4.23934">
        <ele>392</ele>
        <time>2018-06-03T07:53:55.000Z</time>
      </trkpt>
      <trkpt lat="44.5626" lon="4.23931">
        <ele>392</ele>
        <time>2018-06-03T07:53:56.000Z</time>
      </trkpt>
      <trkpt lat="44.56259" lon="4.23928">
        <ele>392</ele>
        <time>2018-06-03T07:53:57.000Z</time>
      </trkpt>
      <trkpt lat="44.56259" lon="4.23925">
        <ele>392</ele>
        <time>2018-06-03T07:53:58.000Z</time>
      </trkpt>
      <trkpt lat="44.56258" lon="4.23923">
        <ele>392</ele>
        <time>2018-06-03T07:53:59.000Z</time>
      </trkpt>
      <trkpt lat="44.56257" lon="4.2392">
        <ele>392</ele>
        <time>2018-06-03T07:54:00.000Z</time>
      </trkpt>
      <trkpt lat="44.56257" lon="4.23917">
        <ele>392</ele>
        <time>2018-06-03T07:54:01.000Z</time>
      </trkpt>
      <trkpt lat="44.56256" lon="4.23914">
        <ele>393</ele>
        <time>2018-06-03T07:54:02.000Z</time>
      </trkpt>
      <trkpt lat="44.56255" lon="4.23912">
        <ele>393</ele>
        <time>2018-06-03T07:54:03.000Z</time>
      </trkpt>
      <trkpt lat="44.56255" lon="4.23909">
        <ele>393</ele>
        <time>2018-06-03T07:54:04.000Z</time>
      </trkpt>
      <trkpt lat="44.56254" lon="4.23907">
        <ele>393</ele>
        <time>2018-06-03T07:54:05.000Z</time>
      </trkpt>
      <trkpt lat="44.56253" lon="4.23905">
        <ele>394</ele>
        <time>2018-06-03T07:54:06.000Z</time>
      </trkpt>
      <trkpt lat="44.56253" lon="4.23903">
        <ele>394</ele>
        <time>2018-06-03T07:54:07.000Z</time>
      </trkpt>
      <trkpt lat="44.56252" lon="4.23901">
        <ele>394</ele>
        <time>2018-06-03T07:54:08.000Z</time>
      </trkpt>
      <trkpt lat="44.56251" lon="4.23899">
        <ele>394</ele>
        <time>2018-06-03T07:54:09.000Z</time>
      </trkpt>
      <trkpt lat="44.56251" lon="4.23897">
        <ele>395</ele>
        <time>2018-06-03T07:54:10.000Z</time>
      </trkpt>
      <trkpt lat="44.5625" lon="4.23895">
        <ele>392</ele>
        <time>2018-06-03T07:54:11.000Z</time>
      </trkpt>
      <trkpt lat="44.56249" lon="4.23894">
        <ele>390</ele>
        <time>2018-06-03T07:54:12.000Z</time>
      </trkpt>
      <trkpt lat="44.56249" lon="4.23892">
        <ele>390</ele>
        <time>2018-06-03T07:54:13.000Z</time>
      </trkpt>
      <trkpt lat="44.56249" lon="4.2389">
        <ele>390</ele>
        <time>2018-06-03T07:54:14.000Z</time>
      </trkpt>
      <trkpt lat="44.56248" lon="4.23888">
        <ele>390</ele>
        <time>2018-06-03T07:54:15.000Z</time>
      </trkpt>
      <trkpt lat="44.56247" lon="4.23887">
        <ele>390</ele>
        <time>2018-06-03T07:54:16.000Z</time>
      </trkpt>
      <trkpt lat="44.56247" lon="4.23885">
        <ele>390</ele>
        <time>2018-06-03T07:54:17.000Z</time>
      </trkpt>
      <trkpt lat="44.56246" lon="4.23883">
        <ele>391</ele>
        <time>2018-06-03T07:54:18.000Z</time>
      </trkpt>
      <trkpt lat="44.56246" lon="4.23881">
        <ele>391</ele>
        <time>2018-06-03T07:54:19.000Z</time>
      </trkpt>
      <trkpt lat="44.56245" lon="4.2388">
        <ele>391</ele>
        <time>2018-06-03T07:54:20.000Z</time>
      </trkpt>
      <trkpt lat="44.56245" lon="4.23878">
        <ele>391</ele>
        <time>2018-06-03T07:54:21.000Z</time>
      </trkpt>
      <trkpt lat="44.56244" lon="4.23876">
        <ele>391</ele>
        <time>2018-06-03T07:54:22.000Z</time>
      </trkpt>
      <trkpt lat="44.56243" lon="4.23874">
        <ele>391</ele>
        <time>2018-06-03T07:54:23.000Z</time>
      </trkpt>
      <trkpt lat="44.56243" lon="4.23872">
        <ele>391</ele>
        <time>2018-06-03T07:54:24.000Z</time>
      </trkpt>
      <trkpt lat="44.56242" lon="4.2387">
        <ele>391</ele>
        <time>2018-06-03T07:54:25.000Z</time>
      </trkpt>
      <trkpt lat="44.56242" lon="4.23868">
        <ele>391</ele>
        <time>2018-06-03T07:54:26.000Z</time>
      </trkpt>
      <trkpt lat="44.56242" lon="4.23867">
        <ele>391</ele>
        <time>2018-06-03T07:54:27.000Z</time>
      </trkpt>
      <trkpt lat="44.56241" lon="4.23865">
        <ele>391</ele>
        <time>2018-06-03T07:54:28.000Z</time>
      </trkpt>
      <trkpt lat="44.5624" lon="4.23863">
        <ele>391</ele>
        <time>2018-06-03T07:54:29.000Z</time>
      </trkpt>
      <trkpt lat="44.5624" lon="4.23861">
        <ele>391</ele>
        <time>2018-06-03T07:54:30.000Z</time>
      </trkpt>
      <trkpt lat="44.56239" lon="4.23859">
        <ele>391</ele>
        <time>2018-06-03T07:54:31.000Z</time>
      </trkpt>
      <trkpt lat="44.56238" lon="4.23857">
        <ele>392</ele>
        <time>2018-06-03T07:54:32.000Z</time>
      </trkpt>
      <trkpt lat="44.56237" lon="4.23855">
        <ele>392</ele>
        <time>2018-06-03T07:54:33.000Z</time>
      </trkpt>
      <trkpt lat="44.56237" lon="4.23854">
        <ele>392</ele>
        <time>2018-06-03T07:54:34.000Z</time>
      </trkpt>
      <trkpt lat="44.56237" lon="4.23852">
        <ele>392</ele>
        <time>2018-06-03T07:54:35.000Z</time>
      </trkpt>
      <trkpt lat="44.56237" lon="4.2385">
        <ele>392</ele>
        <time>2018-06-03T07:54:36.000Z</time>
      </trkpt>
      <trkpt lat="44.56238" lon="4.2385">
        <ele>392</ele>
        <time>2018-06-03T07:54:37.000Z</time>
      </trkpt>
      <trkpt lat="44.56239" lon="4.23849">
        <ele>392</ele>
        <time>2018-06-03T07:54:38.000Z</time>
      </trkpt>
      <trkpt lat="44.56241" lon="4.23849">
        <ele>392</ele>
        <time>2018-06-03T07:54:39.000Z</time>
      </trkpt>
      <trkpt lat="44.56242" lon="4.2385">
        <ele>393</ele>
        <time>2018-06-03T07:54:40.000Z</time>
      </trkpt>
      <trkpt lat="44.56243" lon="4.23851">
        <ele>392</ele>
        <time>2018-06-03T07:54:41.000Z</time>
      </trkpt>
      <trkpt lat="44.56245" lon="4.23852">
        <ele>392</ele>
        <time>2018-06-03T07:54:42.000Z</time>
      </trkpt>
      <trkpt lat="44.56246" lon="4.23853">
        <ele>392</ele>
        <time>2018-06-03T07:54:43.000Z</time>
      </trkpt>
      <trkpt lat="44.56248" lon="4.23854">
        <ele>392</ele>
        <time>2018-06-03T07:54:44.000Z</time>
      </trkpt>
      <trkpt lat="44.56249" lon="4.23855">
        <ele>392</ele>
        <time>2018-06-03T07:54:45.000Z</time>
      </trkpt>
      <trkpt lat="44.56251" lon="4.23855">
        <ele>397</ele>
        <time>2018-06-03T07:54:46.000Z</time>
      </trkpt>
      <trkpt lat="44.56252" lon="4.23856">
        <ele>397</ele>
        <time>2018-06-03T07:54:47.000Z</time>
      </trkpt>
      <trkpt lat="44.56254" lon="4.23857">
        <ele>397</ele>
        <time>2018-06-03T07:54:48.000Z</time>
      </trkpt>
      <trkpt lat="44.56255" lon="4.23858">
        <ele>397</ele>
        <time>2018-06-03T07:54:49.000Z</time>
      </trkpt>
      <trkpt lat="44.56256" lon="4.23859">
        <ele>397</ele>
        <time>2018-06-03T07:54:50.000Z</time>
      </trkpt>
      <trkpt lat="44.56258" lon="4.23861">
        <ele>397</ele>
        <time>2018-06-03T07:54:51.000Z</time>
      </trkpt>
      <trkpt lat="44.5626" lon="4.23862">
        <ele>397</ele>
        <time>2018-06-03T07:54:52.000Z</time>
      </trkpt>
      <trkpt lat="44.56261" lon="4.23863">
        <ele>397</ele>
        <time>2018-06-03T07:54:53.000Z</time>
      </trkpt>
      <trkpt lat="44.56262" lon="4.23864">
        <ele>397</ele>
        <time>2018-06-03T07:54:54.000Z</time>
      </trkpt>
      <trkpt lat="44.56264" lon="4.23865">
        <ele>397</ele>
        <time>2018-06-03T07:54:55.000Z</time>
      </trkpt>
      <trkpt lat="44.56266" lon="4.23866">
        <ele>397</ele>
        <time>2018-06-03T07:54:56.000Z</time>
      </trkpt>
      <trkpt lat="44.56267" lon="4.23867">
        <ele>397</ele>
        <time>2018-06-03T07:54:57.000Z</time>
      </trkpt>
      <trkpt lat="44.56269" lon="4.23867">
        <ele>397</ele>
        <time>2018-06-03T07:54:58.000Z</time>
      </trkpt>
      <trkpt lat="44.56271" lon="4.23868">
        <ele>397</ele>
        <time>2018-06-03T07:54:59.000Z</time>
      </trkpt>
      <trkpt lat="44.56273" lon="4.23869">
        <ele>397</ele>
        <time>2018-06-03T07:55:00.000Z</time>
      </trkpt>
      <trkpt lat="44.56275" lon="4.23869">
        <ele>397</ele>
        <time>2018-06-03T07:55:01.000Z</time>
      </trkpt>
      <trkpt lat="44.56277" lon="4.23869">
        <ele>397</ele>
        <time>2018-06-03T07:55:02.000Z</time>
      </trkpt>
      <trkpt lat="44.56279" lon="4.2387">
        <ele>397</ele>
        <time>2018-06-03T07:55:03.000Z</time>
      </trkpt>
      <trkpt lat="44.56282" lon="4.23871">
        <ele>397</ele>
        <time>2018-06-03T07:55:04.000Z</time>
      </trkpt>
      <trkpt lat="44.56284" lon="4.23872">
        <ele>397</ele>
        <time>2018-06-03T07:55:05.000Z</time>
      </trkpt>
      <trkpt lat="44.56287" lon="4.23873">
        <ele>398</ele>
        <time>2018-06-03T07:55:06.000Z</time>
      </trkpt>
      <trkpt lat="44.56291" lon="4.23874">
        <ele>398</ele>
        <time>2018-06-03T07:55:07.000Z</time>
      </trkpt>
      <trkpt lat="44.56294" lon="4.23875">
        <ele>398</ele>
        <time>2018-06-03T07:55:08.000Z</time>
      </trkpt>
      <trkpt lat="44.56297" lon="4.23877">
        <ele>398</ele>
        <time>2018-06-03T07:55:09.000Z</time>
      </trkpt>
      <trkpt lat="44.563" lon="4.23878">
        <ele>398</ele>
        <time>2018-06-03T07:55:10.000Z</time>
      </trkpt>
      <trkpt lat="44.56303" lon="4.23879">
        <ele>398</ele>
        <time>2018-06-03T07:55:11.000Z</time>
      </trkpt>
      <trkpt lat="44.56306" lon="4.23881">
        <ele>398</ele>
        <time>2018-06-03T07:55:12.000Z</time>
      </trkpt>
      <trkpt lat="44.5631" lon="4.23882">
        <ele>399</ele>
        <time>2018-06-03T07:55:13.000Z</time>
      </trkpt>
      <trkpt lat="44.56314" lon="4.23884">
        <ele>399</ele>
        <time>2018-06-03T07:55:14.000Z</time>
      </trkpt>
      <trkpt lat="44.56317" lon="4.23886">
        <ele>399</ele>
        <time>2018-06-03T07:55:15.000Z</time>
      </trkpt>
      <trkpt lat="44.56321" lon="4.23887">
        <ele>399</ele>
        <time>2018-06-03T07:55:16.000Z</time>
      </trkpt>
      <trkpt lat="44.56324" lon="4.23889">
        <ele>399</ele>
        <time>2018-06-03T07:55:17.000Z</time>
      </trkpt>
      <trkpt lat="44.56328" lon="4.23891">
        <ele>399</ele>
        <time>2018-06-03T07:55:18.000Z</time>
      </trkpt>
      <trkpt lat="44.56331" lon="4.23893">
        <ele>399</ele>
        <time>2018-06-03T07:55:19.000Z</time>
      </trkpt>
      <trkpt lat="44.56335" lon="4.23896">
        <ele>404</ele>
        <time>2018-06-03T07:55:20.000Z</time>
      </trkpt>
      <trkpt lat="44.56338" lon="4.23898">
        <ele>404</ele>
        <time>2018-06-03T07:55:21.000Z</time>
      </trkpt>
      <trkpt lat="44.56342" lon="4.23901">
        <ele>404</ele>
        <time>2018-06-03T07:55:22.000Z</time>
      </trkpt>
      <trkpt lat="44.56346" lon="4.23903">
        <ele>404</ele>
        <time>2018-06-03T07:55:23.000Z</time>
      </trkpt>
      <trkpt lat="44.56349" lon="4.23906">
        <ele>404</ele>
        <time>2018-06-03T07:55:24.000Z</time>
      </trkpt>
      <trkpt lat="44.56352" lon="4.23909">
        <ele>405</ele>
        <time>2018-06-03T07:55:25.000Z</time>
      </trkpt>
      <trkpt lat="44.56355" lon="4.23912">
        <ele>405</ele>
        <time>2018-06-03T07:55:26.000Z</time>
      </trkpt>
      <trkpt lat="44.56357" lon="4.23915">
        <ele>405</ele>
        <time>2018-06-03T07:55:27.000Z</time>
      </trkpt>
      <trkpt lat="44.56359" lon="4.23916">
        <ele>405</ele>
        <time>2018-06-03T07:55:28.000Z</time>
      </trkpt>
      <trkpt lat="44.5636" lon="4.23917">
        <ele>402</ele>
        <time>2018-06-03T07:55:29.000Z</time>
      </trkpt>
      <trkpt lat="44.56361" lon="4.23918">
        <ele>403</ele>
        <time>2018-06-03T07:55:30.000Z</time>
      </trkpt>
      <trkpt lat="44.56363" lon="4.23919">
        <ele>403</ele>
        <time>2018-06-03T07:55:31.000Z</time>
      </trkpt>
      <trkpt lat="44.56364" lon="4.23917">
        <ele>403</ele>
        <time>2018-06-03T07:55:32.000Z</time>
      </trkpt>
      <trkpt lat="44.56364" lon="4.23915">
        <ele>406</ele>
        <time>2018-06-03T07:55:33.000Z</time>
      </trkpt>
      <trkpt lat="44.56362" lon="4.23914">
        <ele>406</ele>
        <time>2018-06-03T07:55:34.000Z</time>
      </trkpt>
      <trkpt lat="44.5636" lon="4.23914">
        <ele>405</ele>
        <time>2018-06-03T07:55:35.000Z</time>
      </trkpt>
      <trkpt lat="44.56359" lon="4.23916">
        <ele>405</ele>
        <time>2018-06-03T07:55:36.000Z</time>
      </trkpt>
      <trkpt lat="44.56359" lon="4.23918">
        <ele>402</ele>
        <time>2018-06-03T07:55:37.000Z</time>
      </trkpt>
      <trkpt lat="44.56359" lon="4.23919">
        <ele>402</ele>
        <time>2018-06-03T07:55:38.000Z</time>
      </trkpt>
      <trkpt lat="44.56359" lon="4.23919">
        <ele>402</ele>
        <time>2018-06-03T07:55:39.000Z</time>
      </trkpt>
      <trkpt lat="44.56359" lon="4.23919">
        <ele>402</ele>
        <time>2018-06-03T07:55:40.000Z</time>
      </trkpt>
      <trkpt lat="44.56359" lon="4.23919">
        <ele>402</ele>
        <time>2018-06-03T07:55:41.000Z</time>
      </trkpt>
      <trkpt lat="44.56359" lon="4.23919">
        <ele>402</ele>
        <time>2018-06-03T07:55:42.000Z</time>
      </trkpt>
      <trkpt lat="44.56359" lon="4.2392">
        <ele>402</ele>
        <time>2018-06-03T07:55:43.000Z</time>
      </trkpt>
      <trkpt lat="44.56359" lon="4.2392">
        <ele>402</ele>
        <time>2018-06-03T07:55:44.000Z</time>
      </trkpt>
      <trkpt lat="44.56359" lon="4.2392">
        <ele>402</ele>
        <time>2018-06-03T07:55:45.000Z</time>
      </trkpt>
      <trkpt lat="44.56359" lon="4.2392">
        <ele>402</ele>
        <time>2018-06-03T07:55:46.000Z</time>
      </trkpt>
      <trkpt lat="44.56359" lon="4.2392">
        <ele>402</ele>
        <time>2018-06-03T07:55:47.000Z</time>
      </trkpt>
      <trkpt lat="44.56358" lon="4.2392">
        <ele>402</ele>
        <time>2018-06-03T07:55:48.000Z</time>
      </trkpt>
      <trkpt lat="44.56358" lon="4.2392">
        <ele>402</ele>
        <time>2018-06-03T07:55:49.000Z</time>
      </trkpt>
      <trkpt lat="44.56358" lon="4.2392">
        <ele>402</ele>
        <time>2018-06-03T07:55:50.000Z</time>
      </trkpt>
      <trkpt lat="44.56359" lon="4.23921">
        <ele>402</ele>
        <time>2018-06-03T07:55:51.000Z</time>
      </trkpt>
      <trkpt lat="44.56359" lon="4.23921">
        <ele>402</ele>
        <time>2018-06-03T07:55:52.000Z</time>
      </trkpt>
      <trkpt lat="44.5636" lon="4.23922">
        <ele>402</ele>
        <time>2018-06-03T07:55:53.000Z</time>
      </trkpt>
      <trkpt lat="44.56361" lon="4.23922">
        <ele>402</ele>
        <time>2018-06-03T07:55:54.000Z</time>
      </trkpt>
      <trkpt lat="44.56362" lon="4.23922">
        <ele>403</ele>
        <time>2018-06-03T07:55:55.000Z</time>
      </trkpt>
      <trkpt lat="44.56363" lon="4.2392">
        <ele>403</ele>
        <time>2018-06-03T07:55:56.000Z</time>
      </trkpt>
      <trkpt lat="44.56364" lon="4.23917">
        <ele>403</ele>
        <time>2018-06-03T07:55:57.000Z</time>
      </trkpt>
      <trkpt lat="44.56365" lon="4.23914">
        <ele>406</ele>
        <time>2018-06-03T07:55:58.000Z</time>
      </trkpt>
      <trkpt lat="44.56364" lon="4.23911">
        <ele>406</ele>
        <time>2018-06-03T07:55:59.000Z</time>
      </trkpt>
      <trkpt lat="44.56363" lon="4.23908">
        <ele>406</ele>
        <time>2018-06-03T07:56:00.000Z</time>
      </trkpt>
      <trkpt lat="44.56361" lon="4.23905">
        <ele>406</ele>
        <time>2018-06-03T07:56:01.000Z</time>
      </trkpt>
      <trkpt lat="44.5636" lon="4.23903">
        <ele>406</ele>
        <time>2018-06-03T07:56:02.000Z</time>
      </trkpt>
      <trkpt lat="44.56358" lon="4.23901">
        <ele>405</ele>
        <time>2018-06-03T07:56:03.000Z</time>
      </trkpt>
      <trkpt lat="44.56357" lon="4.23898">
        <ele>405</ele>
        <time>2018-06-03T07:56:04.000Z</time>
      </trkpt>
      <trkpt lat="44.56355" lon="4.23896">
        <ele>405</ele>
        <time>2018-06-03T07:56:05.000Z</time>
      </trkpt>
      <trkpt lat="44.56354" lon="4.23894">
        <ele>405</ele>
        <time>2018-06-03T07:56:06.000Z</time>
      </trkpt>
      <trkpt lat="44.56352" lon="4.23892">
        <ele>405</ele>
        <time>2018-06-03T07:56:07.000Z</time>
      </trkpt>
      <trkpt lat="44.56351" lon="4.23889">
        <ele>405</ele>
        <time>2018-06-03T07:56:08.000Z</time>
      </trkpt>
      <trkpt lat="44.5635" lon="4.23886">
        <ele>406</ele>
        <time>2018-06-03T07:56:09.000Z</time>
      </trkpt>
      <trkpt lat="44.5635" lon="4.23883">
        <ele>406</ele>
        <time>2018-06-03T07:56:10.000Z</time>
      </trkpt>
      <trkpt lat="44.5635" lon="4.2388">
        <ele>406</ele>
        <time>2018-06-03T07:56:11.000Z</time>
      </trkpt>
      <trkpt lat="44.56351" lon="4.23877">
        <ele>406</ele>
        <time>2018-06-03T07:56:12.000Z</time>
      </trkpt>
      <trkpt lat="44.56352" lon="4.23874">
        <ele>406</ele>
        <time>2018-06-03T07:56:13.000Z</time>
      </trkpt>
      <trkpt lat="44.56353" lon="4.23872">
        <ele>406</ele>
        <time>2018-06-03T07:56:14.000Z</time>
      </trkpt>
      <trkpt lat="44.56355" lon="4.2387">
        <ele>406</ele>
        <time>2018-06-03T07:56:15.000Z</time>
      </trkpt>
      <trkpt lat="44.56357" lon="4.23868">
        <ele>406</ele>
        <time>2018-06-03T07:56:16.000Z</time>
      </trkpt>
      <trkpt lat="44.56359" lon="4.23867">
        <ele>406</ele>
        <time>2018-06-03T07:56:17.000Z</time>
      </trkpt>
      <trkpt lat="44.56361" lon="4.23866">
        <ele>406</ele>
        <time>2018-06-03T07:56:18.000Z</time>
      </trkpt>
      <trkpt lat="44.56363" lon="4.23866">
        <ele>407</ele>
        <time>2018-06-03T07:56:19.000Z</time>
      </trkpt>
      <trkpt lat="44.56366" lon="4.23865">
        <ele>407</ele>
        <time>2018-06-03T07:56:20.000Z</time>
      </trkpt>
      <trkpt lat="44.56368" lon="4.23864">
        <ele>407</ele>
        <time>2018-06-03T07:56:21.000Z</time>
      </trkpt>
      <trkpt lat="44.56371" lon="4.23864">
        <ele>407</ele>
        <time>2018-06-03T07:56:22.000Z</time>
      </trkpt>
      <trkpt lat="44.56373" lon="4.23863">
        <ele>407</ele>
        <time>2018-06-03T07:56:23.000Z</time>
      </trkpt>
      <trkpt lat="44.56375" lon="4.23862">
        <ele>407</ele>
        <time>2018-06-03T07:56:24.000Z</time>
      </trkpt>
      <trkpt lat="44.56378" lon="4.23862">
        <ele>408</ele>
        <time>2018-06-03T07:56:25.000Z</time>
      </trkpt>
      <trkpt lat="44.5638" lon="4.23861">
        <ele>408</ele>
        <time>2018-06-03T07:56:26.000Z</time>
      </trkpt>
      <trkpt lat="44.56382" lon="4.23859">
        <ele>408</ele>
        <time>2018-06-03T07:56:27.000Z</time>
      </trkpt>
      <trkpt lat="44.56384" lon="4.23858">
        <ele>408</ele>
        <time>2018-06-03T07:56:28.000Z</time>
      </trkpt>
      <trkpt lat="44.56387" lon="4.23857">
        <ele>408</ele>
        <time>2018-06-03T07:56:29.000Z</time>
      </trkpt>
      <trkpt lat="44.56389" lon="4.23855">
        <ele>409</ele>
        <time>2018-06-03T07:56:30.000Z</time>
      </trkpt>
      <trkpt lat="44.56391" lon="4.23854">
        <ele>409</ele>
        <time>2018-06-03T07:56:31.000Z</time>
      </trkpt>
      <trkpt lat="44.56393" lon="4.23853">
        <ele>409</ele>
        <time>2018-06-03T07:56:32.000Z</time>
      </trkpt>
      <trkpt lat="44.56395" lon="4.23852">
        <ele>409</ele>
        <time>2018-06-03T07:56:33.000Z</time>
      </trkpt>
      <trkpt lat="44.56397" lon="4.23851">
        <ele>409</ele>
        <time>2018-06-03T07:56:34.000Z</time>
      </trkpt>
      <trkpt lat="44.56398" lon="4.23849">
        <ele>410</ele>
        <time>2018-06-03T07:56:35.000Z</time>
      </trkpt>
      <trkpt lat="44.564" lon="4.23848">
        <ele>410</ele>
        <time>2018-06-03T07:56:36.000Z</time>
      </trkpt>
      <trkpt lat="44.56402" lon="4.23846">
        <ele>410</ele>
        <time>2018-06-03T07:56:37.000Z</time>
      </trkpt>
      <trkpt lat="44.56403" lon="4.23845">
        <ele>411</ele>
        <time>2018-06-03T07:56:38.000Z</time>
      </trkpt>
      <trkpt lat="44.56405" lon="4.23843">
        <ele>411</ele>
        <time>2018-06-03T07:56:39.000Z</time>
      </trkpt>
      <trkpt lat="44.56407" lon="4.23841">
        <ele>411</ele>
        <time>2018-06-03T07:56:40.000Z</time>
      </trkpt>
      <trkpt lat="44.56409" lon="4.23839">
        <ele>412</ele>
        <time>2018-06-03T07:56:41.000Z</time>
      </trkpt>
      <trkpt lat="44.56411" lon="4.23837">
        <ele>412</ele>
        <time>2018-06-03T07:56:42.000Z</time>
      </trkpt>
      <trkpt lat="44.56413" lon="4.23836">
        <ele>413</ele>
        <time>2018-06-03T07:56:43.000Z</time>
      </trkpt>
      <trkpt lat="44.56415" lon="4.23834">
        <ele>413</ele>
        <time>2018-06-03T07:56:44.000Z</time>
      </trkpt>
      <trkpt lat="44.56417" lon="4.23833">
        <ele>414</ele>
        <time>2018-06-03T07:56:45.000Z</time>
      </trkpt>
      <trkpt lat="44.56419" lon="4.23831">
        <ele>415</ele>
        <time>2018-06-03T07:56:46.000Z</time>
      </trkpt>
      <trkpt lat="44.5642" lon="4.2383">
        <ele>415</ele>
        <time>2018-06-03T07:56:47.000Z</time>
      </trkpt>
      <trkpt lat="44.56422" lon="4.23829">
        <ele>415</ele>
        <time>2018-06-03T07:56:48.000Z</time>
      </trkpt>
      <trkpt lat="44.56423" lon="4.23828">
        <ele>415</ele>
        <time>2018-06-03T07:56:49.000Z</time>
      </trkpt>
      <trkpt lat="44.56425" lon="4.23827">
        <ele>416</ele>
        <time>2018-06-03T07:56:50.000Z</time>
      </trkpt>
      <trkpt lat="44.56427" lon="4.23826">
        <ele>416</ele>
        <time>2018-06-03T07:56:51.000Z</time>
      </trkpt>
      <trkpt lat="44.56429" lon="4.23825">
        <ele>416</ele>
        <time>2018-06-03T07:56:52.000Z</time>
      </trkpt>
      <trkpt lat="44.56431" lon="4.23824">
        <ele>416</ele>
        <time>2018-06-03T07:56:53.000Z</time>
      </trkpt>
      <trkpt lat="44.56433" lon="4.23824">
        <ele>417</ele>
        <time>2018-06-03T07:56:54.000Z</time>
      </trkpt>
      <trkpt lat="44.56435" lon="4.23823">
        <ele>417</ele>
        <time>2018-06-03T07:56:55.000Z</time>
      </trkpt>
      <trkpt lat="44.56437" lon="4.23822">
        <ele>417</ele>
        <time>2018-06-03T07:56:56.000Z</time>
      </trkpt>
      <trkpt lat="44.56439" lon="4.23821">
        <ele>417</ele>
        <time>2018-06-03T07:56:57.000Z</time>
      </trkpt>
      <trkpt lat="44.56441" lon="4.2382">
        <ele>418</ele>
        <time>2018-06-03T07:56:58.000Z</time>
      </trkpt>
      <trkpt lat="44.56444" lon="4.2382">
        <ele>418</ele>
        <time>2018-06-03T07:56:59.000Z</time>
      </trkpt>
      <trkpt lat="44.56446" lon="4.23819">
        <ele>418</ele>
        <time>2018-06-03T07:57:00.000Z</time>
      </trkpt>
      <trkpt lat="44.56448" lon="4.23819">
        <ele>418</ele>
        <time>2018-06-03T07:57:01.000Z</time>
      </trkpt>
      <trkpt lat="44.5645" lon="4.23818">
        <ele>418</ele>
        <time>2018-06-03T07:57:02.000Z</time>
      </trkpt>
      <trkpt lat="44.56452" lon="4.23817">
        <ele>419</ele>
        <time>2018-06-03T07:57:03.000Z</time>
      </trkpt>
      <trkpt lat="44.56454" lon="4.23815">
        <ele>419</ele>
        <time>2018-06-03T07:57:04.000Z</time>
      </trkpt>
      <trkpt lat="44.56456" lon="4.23814">
        <ele>419</ele>
        <time>2018-06-03T07:57:05.000Z</time>
      </trkpt>
      <trkpt lat="44.56459" lon="4.23813">
        <ele>419</ele>
        <time>2018-06-03T07:57:06.000Z</time>
      </trkpt>
      <trkpt lat="44.56461" lon="4.23812">
        <ele>419</ele>
        <time>2018-06-03T07:57:07.000Z</time>
      </trkpt>
      <trkpt lat="44.56464" lon="4.2381">
        <ele>420</ele>
        <time>2018-06-03T07:57:08.000Z</time>
      </trkpt>
      <trkpt lat="44.56466" lon="4.23809">
        <ele>420</ele>
        <time>2018-06-03T07:57:09.000Z</time>
      </trkpt>
      <trkpt lat="44.56468" lon="4.23808">
        <ele>420</ele>
        <time>2018-06-03T07:57:10.000Z</time>
      </trkpt>
      <trkpt lat="44.5647" lon="4.23806">
        <ele>420</ele>
        <time>2018-06-03T07:57:11.000Z</time>
      </trkpt>
      <trkpt lat="44.56472" lon="4.23805">
        <ele>420</ele>
        <time>2018-06-03T07:57:12.000Z</time>
      </trkpt>
      <trkpt lat="44.56474" lon="4.23804">
        <ele>420</ele>
        <time>2018-06-03T07:57:13.000Z</time>
      </trkpt>
      <trkpt lat="44.56476" lon="4.23802">
        <ele>420</ele>
        <time>2018-06-03T07:57:14.000Z</time>
      </trkpt>
      <trkpt lat="44.56479" lon="4.23801">
        <ele>420</ele>
        <time>2018-06-03T07:57:15.000Z</time>
      </trkpt>
      <trkpt lat="44.56481" lon="4.23799">
        <ele>420</ele>
        <time>2018-06-03T07:57:16.000Z</time>
      </trkpt>
      <trkpt lat="44.56483" lon="4.23798">
        <ele>421</ele>
        <time>2018-06-03T07:57:17.000Z</time>
      </trkpt>
      <trkpt lat="44.56486" lon="4.23797">
        <ele>421</ele>
        <time>2018-06-03T07:57:18.000Z</time>
      </trkpt>
      <trkpt lat="44.56488" lon="4.23796">
        <ele>421</ele>
        <time>2018-06-03T07:57:19.000Z</time>
      </trkpt>
      <trkpt lat="44.56491" lon="4.23795">
        <ele>421</ele>
        <time>2018-06-03T07:57:20.000Z</time>
      </trkpt>
      <trkpt lat="44.56493" lon="4.23795">
        <ele>421</ele>
        <time>2018-06-03T07:57:21.000Z</time>
      </trkpt>
      <trkpt lat="44.56496" lon="4.23794">
        <ele>421</ele>
        <time>2018-06-03T07:57:22.000Z</time>
      </trkpt>
      <trkpt lat="44.56499" lon="4.23795">
        <ele>421</ele>
        <time>2018-06-03T07:57:23.000Z</time>
      </trkpt>
      <trkpt lat="44.56502" lon="4.23795">
        <ele>429</ele>
        <time>2018-06-03T07:57:24.000Z</time>
      </trkpt>
      <trkpt lat="44.56505" lon="4.23796">
        <ele>429</ele>
        <time>2018-06-03T07:57:25.000Z</time>
      </trkpt>
      <trkpt lat="44.56508" lon="4.23796">
        <ele>429</ele>
        <time>2018-06-03T07:57:26.000Z</time>
      </trkpt>
      <trkpt lat="44.56511" lon="4.23796">
        <ele>429</ele>
        <time>2018-06-03T07:57:27.000Z</time>
      </trkpt>
      <trkpt lat="44.56514" lon="4.23797">
        <ele>429</ele>
        <time>2018-06-03T07:57:28.000Z</time>
      </trkpt>
      <trkpt lat="44.56518" lon="4.23796">
        <ele>429</ele>
        <time>2018-06-03T07:57:29.000Z</time>
      </trkpt>
      <trkpt lat="44.56522" lon="4.23795">
        <ele>430</ele>
        <time>2018-06-03T07:57:30.000Z</time>
      </trkpt>
      <trkpt lat="44.56525" lon="4.23793">
        <ele>430</ele>
        <time>2018-06-03T07:57:31.000Z</time>
      </trkpt>
      <trkpt lat="44.56528" lon="4.2379">
        <ele>430</ele>
        <time>2018-06-03T07:57:32.000Z</time>
      </trkpt>
      <trkpt lat="44.56531" lon="4.23787">
        <ele>430</ele>
        <time>2018-06-03T07:57:33.000Z</time>
      </trkpt>
      <trkpt lat="44.56533" lon="4.23783">
        <ele>430</ele>
        <time>2018-06-03T07:57:34.000Z</time>
      </trkpt>
      <trkpt lat="44.56534" lon="4.2378">
        <ele>430</ele>
        <time>2018-06-03T07:57:35.000Z</time>
      </trkpt>
      <trkpt lat="44.56535" lon="4.23777">
        <ele>430</ele>
        <time>2018-06-03T07:57:36.000Z</time>
      </trkpt>
      <trkpt lat="44.56537" lon="4.23773">
        <ele>430</ele>
        <time>2018-06-03T07:57:37.000Z</time>
      </trkpt>
      <trkpt lat="44.56538" lon="4.2377">
        <ele>430</ele>
        <time>2018-06-03T07:57:38.000Z</time>
      </trkpt>
      <trkpt lat="44.56539" lon="4.23768">
        <ele>430</ele>
        <time>2018-06-03T07:57:39.000Z</time>
      </trkpt>
      <trkpt lat="44.5654" lon="4.23765">
        <ele>430</ele>
        <time>2018-06-03T07:57:40.000Z</time>
      </trkpt>
      <trkpt lat="44.5654" lon="4.23761">
        <ele>430</ele>
        <time>2018-06-03T07:57:41.000Z</time>
      </trkpt>
      <trkpt lat="44.56541" lon="4.23758">
        <ele>430</ele>
        <time>2018-06-03T07:57:42.000Z</time>
      </trkpt>
      <trkpt lat="44.56542" lon="4.23754">
        <ele>430</ele>
        <time>2018-06-03T07:57:43.000Z</time>
      </trkpt>
      <trkpt lat="44.56542" lon="4.2375">
        <ele>430</ele>
        <time>2018-06-03T07:57:44.000Z</time>
      </trkpt>
      <trkpt lat="44.56542" lon="4.23746">
        <ele>428</ele>
        <time>2018-06-03T07:57:45.000Z</time>
      </trkpt>
      <trkpt lat="44.56542" lon="4.23742">
        <ele>428</ele>
        <time>2018-06-03T07:57:46.000Z</time>
      </trkpt>
      <trkpt lat="44.56542" lon="4.23738">
        <ele>428</ele>
        <time>2018-06-03T07:57:47.000Z</time>
      </trkpt>
      <trkpt lat="44.56541" lon="4.23734">
        <ele>428</ele>
        <time>2018-06-03T07:57:48.000Z</time>
      </trkpt>
      <trkpt lat="44.56541" lon="4.2373">
        <ele>428</ele>
        <time>2018-06-03T07:57:49.000Z</time>
      </trkpt>
      <trkpt lat="44.5654" lon="4.23726">
        <ele>428</ele>
        <time>2018-06-03T07:57:50.000Z</time>
      </trkpt>
      <trkpt lat="44.56539" lon="4.23723">
        <ele>428</ele>
        <time>2018-06-03T07:57:51.000Z</time>
      </trkpt>
      <trkpt lat="44.56538" lon="4.23719">
        <ele>428</ele>
        <time>2018-06-03T07:57:52.000Z</time>
      </trkpt>
      <trkpt lat="44.56538" lon="4.23715">
        <ele>428</ele>
        <time>2018-06-03T07:57:53.000Z</time>
      </trkpt>
      <trkpt lat="44.56539" lon="4.23711">
        <ele>428</ele>
        <time>2018-06-03T07:57:54.000Z</time>
      </trkpt>
      <trkpt lat="44.5654" lon="4.23708">
        <ele>428</ele>
        <time>2018-06-03T07:57:55.000Z</time>
      </trkpt>
      <trkpt lat="44.56542" lon="4.23705">
        <ele>428</ele>
        <time>2018-06-03T07:57:56.000Z</time>
      </trkpt>
      <trkpt lat="44.56544" lon="4.23704">
        <ele>428</ele>
        <time>2018-06-03T07:57:57.000Z</time>
      </trkpt>
      <trkpt lat="44.56546" lon="4.23702">
        <ele>428</ele>
        <time>2018-06-03T07:57:58.000Z</time>
      </trkpt>
      <trkpt lat="44.56548" lon="4.23701">
        <ele>428</ele>
        <time>2018-06-03T07:57:59.000Z</time>
      </trkpt>
      <trkpt lat="44.5655" lon="4.237">
        <ele>429</ele>
        <time>2018-06-03T07:58:00.000Z</time>
      </trkpt>
      <trkpt lat="44.56553" lon="4.23699">
        <ele>429</ele>
        <time>2018-06-03T07:58:01.000Z</time>
      </trkpt>
      <trkpt lat="44.56555" lon="4.23699">
        <ele>429</ele>
        <time>2018-06-03T07:58:02.000Z</time>
      </trkpt>
      <trkpt lat="44.56558" lon="4.23701">
        <ele>429</ele>
        <time>2018-06-03T07:58:03.000Z</time>
      </trkpt>
      <trkpt lat="44.5656" lon="4.23702">
        <ele>429</ele>
        <time>2018-06-03T07:58:04.000Z</time>
      </trkpt>
      <trkpt lat="44.56562" lon="4.23705">
        <ele>430</ele>
        <time>2018-06-03T07:58:05.000Z</time>
      </trkpt>
      <trkpt lat="44.56564" lon="4.23708">
        <ele>430</ele>
        <time>2018-06-03T07:58:06.000Z</time>
      </trkpt>
      <trkpt lat="44.56567" lon="4.23711">
        <ele>430</ele>
        <time>2018-06-03T07:58:07.000Z</time>
      </trkpt>
      <trkpt lat="44.56569" lon="4.23714">
        <ele>430</ele>
        <time>2018-06-03T07:58:08.000Z</time>
      </trkpt>
      <trkpt lat="44.56571" lon="4.23718">
        <ele>430</ele>
        <time>2018-06-03T07:58:09.000Z</time>
      </trkpt>
      <trkpt lat="44.56573" lon="4.23722">
        <ele>431</ele>
        <time>2018-06-03T07:58:10.000Z</time>
      </trkpt>
      <trkpt lat="44.56576" lon="4.23726">
        <ele>431</ele>
        <time>2018-06-03T07:58:11.000Z</time>
      </trkpt>
      <trkpt lat="44.56578" lon="4.2373">
        <ele>432</ele>
        <time>2018-06-03T07:58:12.000Z</time>
      </trkpt>
      <trkpt lat="44.56581" lon="4.23733">
        <ele>432</ele>
        <time>2018-06-03T07:58:13.000Z</time>
      </trkpt>
      <trkpt lat="44.56583" lon="4.23737">
        <ele>433</ele>
        <time>2018-06-03T07:58:14.000Z</time>
      </trkpt>
      <trkpt lat="44.56586" lon="4.23741">
        <ele>436</ele>
        <time>2018-06-03T07:58:15.000Z</time>
      </trkpt>
      <trkpt lat="44.56588" lon="4.23745">
        <ele>436</ele>
        <time>2018-06-03T07:58:16.000Z</time>
      </trkpt>
      <trkpt lat="44.56591" lon="4.23749">
        <ele>436</ele>
        <time>2018-06-03T07:58:17.000Z</time>
      </trkpt>
      <trkpt lat="44.56593" lon="4.23753">
        <ele>437</ele>
        <time>2018-06-03T07:58:18.000Z</time>
      </trkpt>
      <trkpt lat="44.56595" lon="4.23757">
        <ele>438</ele>
        <time>2018-06-03T07:58:19.000Z</time>
      </trkpt>
      <trkpt lat="44.56597" lon="4.23761">
        <ele>438</ele>
        <time>2018-06-03T07:58:20.000Z</time>
      </trkpt>
      <trkpt lat="44.56599" lon="4.23765">
        <ele>439</ele>
        <time>2018-06-03T07:58:21.000Z</time>
      </trkpt>
      <trkpt lat="44.56601" lon="4.23769">
        <ele>439</ele>
        <time>2018-06-03T07:58:22.000Z</time>
      </trkpt>
      <trkpt lat="44.56603" lon="4.23773">
        <ele>439</ele>
        <time>2018-06-03T07:58:23.000Z</time>
      </trkpt>
      <trkpt lat="44.56605" lon="4.23778">
        <ele>439</ele>
        <time>2018-06-03T07:58:24.000Z</time>
      </trkpt>
      <trkpt lat="44.56607" lon="4.23782">
        <ele>440</ele>
        <time>2018-06-03T07:58:25.000Z</time>
      </trkpt>
      <trkpt lat="44.56609" lon="4.23787">
        <ele>440</ele>
        <time>2018-06-03T07:58:26.000Z</time>
      </trkpt>
      <trkpt lat="44.56611" lon="4.23791">
        <ele>440</ele>
        <time>2018-06-03T07:58:27.000Z</time>
      </trkpt>
      <trkpt lat="44.56613" lon="4.23796">
        <ele>440</ele>
        <time>2018-06-03T07:58:28.000Z</time>
      </trkpt>
      <trkpt lat="44.56615" lon="4.238">
        <ele>440</ele>
        <time>2018-06-03T07:58:29.000Z</time>
      </trkpt>
      <trkpt lat="44.56618" lon="4.23805">
        <ele>441</ele>
        <time>2018-06-03T07:58:30.000Z</time>
      </trkpt>
      <trkpt lat="44.5662" lon="4.23809">
        <ele>441</ele>
        <time>2018-06-03T07:58:31.000Z</time>
      </trkpt>
      <trkpt lat="44.56623" lon="4.23813">
        <ele>441</ele>
        <time>2018-06-03T07:58:32.000Z</time>
      </trkpt>
      <trkpt lat="44.56626" lon="4.23817">
        <ele>441</ele>
        <time>2018-06-03T07:58:33.000Z</time>
      </trkpt>
      <trkpt lat="44.56629" lon="4.2382">
        <ele>441</ele>
        <time>2018-06-03T07:58:34.000Z</time>
      </trkpt>
      <trkpt lat="44.56632" lon="4.23823">
        <ele>442</ele>
        <time>2018-06-03T07:58:35.000Z</time>
      </trkpt>
      <trkpt lat="44.56635" lon="4.23825">
        <ele>442</ele>
        <time>2018-06-03T07:58:36.000Z</time>
      </trkpt>
      <trkpt lat="44.56638" lon="4.23828">
        <ele>442</ele>
        <time>2018-06-03T07:58:37.000Z</time>
      </trkpt>
      <trkpt lat="44.56641" lon="4.2383">
        <ele>442</ele>
        <time>2018-06-03T07:58:38.000Z</time>
      </trkpt>
      <trkpt lat="44.56644" lon="4.23832">
        <ele>443</ele>
        <time>2018-06-03T07:58:39.000Z</time>
      </trkpt>
      <trkpt lat="44.56647" lon="4.23833">
        <ele>443</ele>
        <time>2018-06-03T07:58:40.000Z</time>
      </trkpt>
      <trkpt lat="44.5665" lon="4.23835">
        <ele>445</ele>
        <time>2018-06-03T07:58:41.000Z</time>
      </trkpt>
      <trkpt lat="44.56653" lon="4.23836">
        <ele>445</ele>
        <time>2018-06-03T07:58:42.000Z</time>
      </trkpt>
      <trkpt lat="44.56655" lon="4.23838">
        <ele>445</ele>
        <time>2018-06-03T07:58:43.000Z</time>
      </trkpt>
      <trkpt lat="44.56658" lon="4.23839">
        <ele>445</ele>
        <time>2018-06-03T07:58:44.000Z</time>
      </trkpt>
      <trkpt lat="44.5666" lon="4.2384">
        <ele>445</ele>
        <time>2018-06-03T07:58:45.000Z</time>
      </trkpt>
      <trkpt lat="44.56663" lon="4.23841">
        <ele>445</ele>
        <time>2018-06-03T07:58:46.000Z</time>
      </trkpt>
      <trkpt lat="44.56665" lon="4.23842">
        <ele>445</ele>
        <time>2018-06-03T07:58:47.000Z</time>
      </trkpt>
      <trkpt lat="44.56668" lon="4.23844">
        <ele>448</ele>
        <time>2018-06-03T07:58:48.000Z</time>
      </trkpt>
      <trkpt lat="44.5667" lon="4.23845">
        <ele>448</ele>
        <time>2018-06-03T07:58:49.000Z</time>
      </trkpt>
      <trkpt lat="44.56672" lon="4.23846">
        <ele>448</ele>
        <time>2018-06-03T07:58:50.000Z</time>
      </trkpt>
      <trkpt lat="44.56675" lon="4.23846">
        <ele>449</ele>
        <time>2018-06-03T07:58:51.000Z</time>
      </trkpt>
      <trkpt lat="44.56677" lon="4.23846">
        <ele>449</ele>
        <time>2018-06-03T07:58:52.000Z</time>
      </trkpt>
      <trkpt lat="44.5668" lon="4.23847">
        <ele>449</ele>
        <time>2018-06-03T07:58:53.000Z</time>
      </trkpt>
      <trkpt lat="44.56682" lon="4.23846">
        <ele>449</ele>
        <time>2018-06-03T07:58:54.000Z</time>
      </trkpt>
      <trkpt lat="44.56685" lon="4.23846">
        <ele>449</ele>
        <time>2018-06-03T07:58:55.000Z</time>
      </trkpt>
      <trkpt lat="44.56688" lon="4.23845">
        <ele>450</ele>
        <time>2018-06-03T07:58:56.000Z</time>
      </trkpt>
      <trkpt lat="44.56691" lon="4.23844">
        <ele>450</ele>
        <time>2018-06-03T07:58:57.000Z</time>
      </trkpt>
      <trkpt lat="44.56693" lon="4.23844">
        <ele>450</ele>
        <time>2018-06-03T07:58:58.000Z</time>
      </trkpt>
      <trkpt lat="44.56696" lon="4.23843">
        <ele>450</ele>
        <time>2018-06-03T07:58:59.000Z</time>
      </trkpt>
      <trkpt lat="44.56698" lon="4.23843">
        <ele>451</ele>
        <time>2018-06-03T07:59:00.000Z</time>
      </trkpt>
      <trkpt lat="44.56701" lon="4.23842">
        <ele>451</ele>
        <time>2018-06-03T07:59:01.000Z</time>
      </trkpt>
      <trkpt lat="44.56703" lon="4.23841">
        <ele>451</ele>
        <time>2018-06-03T07:59:02.000Z</time>
      </trkpt>
      <trkpt lat="44.56706" lon="4.2384">
        <ele>451</ele>
        <time>2018-06-03T07:59:03.000Z</time>
      </trkpt>
      <trkpt lat="44.56708" lon="4.23839">
        <ele>451</ele>
        <time>2018-06-03T07:59:04.000Z</time>
      </trkpt>
      <trkpt lat="44.56711" lon="4.23838">
        <ele>451</ele>
        <time>2018-06-03T07:59:05.000Z</time>
      </trkpt>
      <trkpt lat="44.56713" lon="4.23837">
        <ele>452</ele>
        <time>2018-06-03T07:59:06.000Z</time>
      </trkpt>
      <trkpt lat="44.56716" lon="4.23835">
        <ele>452</ele>
        <time>2018-06-03T07:59:07.000Z</time>
      </trkpt>
      <trkpt lat="44.56719" lon="4.23834">
        <ele>452</ele>
        <time>2018-06-03T07:59:08.000Z</time>
      </trkpt>
      <trkpt lat="44.56721" lon="4.23832">
        <ele>448</ele>
        <time>2018-06-03T07:59:09.000Z</time>
      </trkpt>
      <trkpt lat="44.56724" lon="4.23831">
        <ele>448</ele>
        <time>2018-06-03T07:59:10.000Z</time>
      </trkpt>
      <trkpt lat="44.56726" lon="4.2383">
        <ele>448</ele>
        <time>2018-06-03T07:59:11.000Z</time>
      </trkpt>
      <trkpt lat="44.56729" lon="4.23829">
        <ele>449</ele>
        <time>2018-06-03T07:59:12.000Z</time>
      </trkpt>
      <trkpt lat="44.56732" lon="4.23828">
        <ele>449</ele>
        <time>2018-06-03T07:59:13.000Z</time>
      </trkpt>
      <trkpt lat="44.56734" lon="4.23827">
        <ele>449</ele>
        <time>2018-06-03T07:59:14.000Z</time>
      </trkpt>
      <trkpt lat="44.56737" lon="4.23826">
        <ele>450</ele>
        <time>2018-06-03T07:59:15.000Z</time>
      </trkpt>
      <trkpt lat="44.5674" lon="4.23826">
        <ele>450</ele>
        <time>2018-06-03T07:59:16.000Z</time>
      </trkpt>
      <trkpt lat="44.56743" lon="4.23826">
        <ele>451</ele>
        <time>2018-06-03T07:59:17.000Z</time>
      </trkpt>
      <trkpt lat="44.56745" lon="4.23827">
        <ele>451</ele>
        <time>2018-06-03T07:59:18.000Z</time>
      </trkpt>
      <trkpt lat="44.56748" lon="4.23829">
        <ele>452</ele>
        <time>2018-06-03T07:59:19.000Z</time>
      </trkpt>
      <trkpt lat="44.5675" lon="4.2383">
        <ele>453</ele>
        <time>2018-06-03T07:59:20.000Z</time>
      </trkpt>
      <trkpt lat="44.56753" lon="4.23831">
        <ele>453</ele>
        <time>2018-06-03T07:59:21.000Z</time>
      </trkpt>
      <trkpt lat="44.56755" lon="4.23832">
        <ele>453</ele>
        <time>2018-06-03T07:59:22.000Z</time>
      </trkpt>
      <trkpt lat="44.56758" lon="4.23834">
        <ele>455</ele>
        <time>2018-06-03T07:59:23.000Z</time>
      </trkpt>
      <trkpt lat="44.5676" lon="4.23836">
        <ele>456</ele>
        <time>2018-06-03T07:59:24.000Z</time>
      </trkpt>
      <trkpt lat="44.56763" lon="4.23838">
        <ele>456</ele>
        <time>2018-06-03T07:59:25.000Z</time>
      </trkpt>
      <trkpt lat="44.56765" lon="4.2384">
        <ele>456</ele>
        <time>2018-06-03T07:59:26.000Z</time>
      </trkpt>
      <trkpt lat="44.56768" lon="4.23841">
        <ele>456</ele>
        <time>2018-06-03T07:59:27.000Z</time>
      </trkpt>
      <trkpt lat="44.5677" lon="4.23841">
        <ele>457</ele>
        <time>2018-06-03T07:59:28.000Z</time>
      </trkpt>
      <trkpt lat="44.56772" lon="4.23843">
        <ele>457</ele>
        <time>2018-06-03T07:59:29.000Z</time>
      </trkpt>
      <trkpt lat="44.56775" lon="4.23844">
        <ele>457</ele>
        <time>2018-06-03T07:59:30.000Z</time>
      </trkpt>
      <trkpt lat="44.56778" lon="4.23845">
        <ele>457</ele>
        <time>2018-06-03T07:59:31.000Z</time>
      </trkpt>
      <trkpt lat="44.56781" lon="4.23845">
        <ele>457</ele>
        <time>2018-06-03T07:59:32.000Z</time>
      </trkpt>
      <trkpt lat="44.56784" lon="4.23845">
        <ele>457</ele>
        <time>2018-06-03T07:59:33.000Z</time>
      </trkpt>
      <trkpt lat="44.56786" lon="4.23846">
        <ele>457</ele>
        <time>2018-06-03T07:59:34.000Z</time>
      </trkpt>
      <trkpt lat="44.56788" lon="4.23846">
        <ele>457</ele>
        <time>2018-06-03T07:59:35.000Z</time>
      </trkpt>
      <trkpt lat="44.56791" lon="4.23846">
        <ele>457</ele>
        <time>2018-06-03T07:59:36.000Z</time>
      </trkpt>
      <trkpt lat="44.56793" lon="4.23846">
        <ele>457</ele>
        <time>2018-06-03T07:59:37.000Z</time>
      </trkpt>
      <trkpt lat="44.56795" lon="4.23846">
        <ele>457</ele>
        <time>2018-06-03T07:59:38.000Z</time>
      </trkpt>
      <trkpt lat="44.56798" lon="4.23847">
        <ele>458</ele>
        <time>2018-06-03T07:59:39.000Z</time>
      </trkpt>
      <trkpt lat="44.568" lon="4.23847">
        <ele>458</ele>
        <time>2018-06-03T07:59:40.000Z</time>
      </trkpt>
      <trkpt lat="44.56802" lon="4.23848">
        <ele>458</ele>
        <time>2018-06-03T07:59:41.000Z</time>
      </trkpt>
      <trkpt lat="44.56805" lon="4.23848">
        <ele>458</ele>
        <time>2018-06-03T07:59:42.000Z</time>
      </trkpt>
      <trkpt lat="44.56807" lon="4.23849">
        <ele>458</ele>
        <time>2018-06-03T07:59:43.000Z</time>
      </trkpt>
      <trkpt lat="44.56809" lon="4.23849">
        <ele>458</ele>
        <time>2018-06-03T07:59:44.000Z</time>
      </trkpt>
      <trkpt lat="44.56811" lon="4.2385">
        <ele>457</ele>
        <time>2018-06-03T07:59:45.000Z</time>
      </trkpt>
      <trkpt lat="44.56813" lon="4.23851">
        <ele>458</ele>
        <time>2018-06-03T07:59:46.000Z</time>
      </trkpt>
      <trkpt lat="44.56815" lon="4.23852">
        <ele>458</ele>
        <time>2018-06-03T07:59:47.000Z</time>
      </trkpt>
      <trkpt lat="44.56817" lon="4.23853">
        <ele>458</ele>
        <time>2018-06-03T07:59:48.000Z</time>
      </trkpt>
      <trkpt lat="44.56819" lon="4.23855">
        <ele>458</ele>
        <time>2018-06-03T07:59:49.000Z</time>
      </trkpt>
      <trkpt lat="44.5682" lon="4.23857">
        <ele>458</ele>
        <time>2018-06-03T07:59:50.000Z</time>
      </trkpt>
      <trkpt lat="44.56822" lon="4.23858">
        <ele>458</ele>
        <time>2018-06-03T07:59:51.000Z</time>
      </trkpt>
      <trkpt lat="44.56824" lon="4.23859">
        <ele>458</ele>
        <time>2018-06-03T07:59:52.000Z</time>
      </trkpt>
      <trkpt lat="44.56826" lon="4.2386">
        <ele>458</ele>
        <time>2018-06-03T07:59:53.000Z</time>
      </trkpt>
      <trkpt lat="44.56828" lon="4.23861">
        <ele>458</ele>
        <time>2018-06-03T07:59:54.000Z</time>
      </trkpt>
      <trkpt lat="44.5683" lon="4.23863">
        <ele>458</ele>
        <time>2018-06-03T07:59:55.000Z</time>
      </trkpt>
      <trkpt lat="44.56832" lon="4.23865">
        <ele>458</ele>
        <time>2018-06-03T07:59:56.000Z</time>
      </trkpt>
      <trkpt lat="44.56833" lon="4.23868">
        <ele>459</ele>
        <time>2018-06-03T07:59:57.000Z</time>
      </trkpt>
      <trkpt lat="44.56835" lon="4.23872">
        <ele>457</ele>
        <time>2018-06-03T07:59:58.000Z</time>
      </trkpt>
      <trkpt lat="44.56836" lon="4.23876">
        <ele>458</ele>
        <time>2018-06-03T07:59:59.000Z</time>
      </trkpt>
      <trkpt lat="44.56837" lon="4.2388">
        <ele>458</ele>
        <time>2018-06-03T08:00:00.000Z</time>
      </trkpt>
      <trkpt lat="44.56838" lon="4.23884">
        <ele>458</ele>
        <time>2018-06-03T08:00:01.000Z</time>
      </trkpt>
      <trkpt lat="44.56839" lon="4.23888">
        <ele>459</ele>
        <time>2018-06-03T08:00:02.000Z</time>
      </trkpt>
      <trkpt lat="44.56839" lon="4.23892">
        <ele>459</ele>
        <time>2018-06-03T08:00:03.000Z</time>
      </trkpt>
      <trkpt lat="44.5684" lon="4.23895">
        <ele>460</ele>
        <time>2018-06-03T08:00:04.000Z</time>
      </trkpt>
      <trkpt lat="44.56841" lon="4.23897">
        <ele>460</ele>
        <time>2018-06-03T08:00:05.000Z</time>
      </trkpt>
      <trkpt lat="44.56842" lon="4.23901">
        <ele>461</ele>
        <time>2018-06-03T08:00:06.000Z</time>
      </trkpt>
      <trkpt lat="44.56844" lon="4.23906">
        <ele>461</ele>
        <time>2018-06-03T08:00:07.000Z</time>
      </trkpt>
      <trkpt lat="44.56845" lon="4.2391">
        <ele>461</ele>
        <time>2018-06-03T08:00:08.000Z</time>
      </trkpt>
      <trkpt lat="44.56847" lon="4.23915">
        <ele>462</ele>
        <time>2018-06-03T08:00:09.000Z</time>
      </trkpt>
      <trkpt lat="44.56848" lon="4.2392">
        <ele>464</ele>
        <time>2018-06-03T08:00:10.000Z</time>
      </trkpt>
      <trkpt lat="44.5685" lon="4.23924">
        <ele>464</ele>
        <time>2018-06-03T08:00:11.000Z</time>
      </trkpt>
      <trkpt lat="44.56852" lon="4.23927">
        <ele>464</ele>
        <time>2018-06-03T08:00:12.000Z</time>
      </trkpt>
      <trkpt lat="44.56855" lon="4.2393">
        <ele>463</ele>
        <time>2018-06-03T08:00:13.000Z</time>
      </trkpt>
      <trkpt lat="44.56857" lon="4.23933">
        <ele>463</ele>
        <time>2018-06-03T08:00:14.000Z</time>
      </trkpt>
      <trkpt lat="44.5686" lon="4.23937">
        <ele>463</ele>
        <time>2018-06-03T08:00:15.000Z</time>
      </trkpt>
      <trkpt lat="44.56862" lon="4.23941">
        <ele>463</ele>
        <time>2018-06-03T08:00:16.000Z</time>
      </trkpt>
      <trkpt lat="44.56864" lon="4.23945">
        <ele>463</ele>
        <time>2018-06-03T08:00:17.000Z</time>
      </trkpt>
      <trkpt lat="44.56867" lon="4.23948">
        <ele>463</ele>
        <time>2018-06-03T08:00:18.000Z</time>
      </trkpt>
      <trkpt lat="44.56869" lon="4.23952">
        <ele>463</ele>
        <time>2018-06-03T08:00:19.000Z</time>
      </trkpt>
      <trkpt lat="44.56872" lon="4.23956">
        <ele>463</ele>
        <time>2018-06-03T08:00:20.000Z</time>
      </trkpt>
      <trkpt lat="44.56874" lon="4.23959">
        <ele>463</ele>
        <time>2018-06-03T08:00:21.000Z</time>
      </trkpt>
      <trkpt lat="44.56876" lon="4.23962">
        <ele>463</ele>
        <time>2018-06-03T08:00:22.000Z</time>
      </trkpt>
      <trkpt lat="44.56878" lon="4.23966">
        <ele>463</ele>
        <time>2018-06-03T08:00:23.000Z</time>
      </trkpt>
      <trkpt lat="44.5688" lon="4.23971">
        <ele>463</ele>
        <time>2018-06-03T08:00:24.000Z</time>
      </trkpt>
      <trkpt lat="44.56883" lon="4.23975">
        <ele>463</ele>
        <time>2018-06-03T08:00:25.000Z</time>
      </trkpt>
      <trkpt lat="44.56885" lon="4.23979">
        <ele>463</ele>
        <time>2018-06-03T08:00:26.000Z</time>
      </trkpt>
      <trkpt lat="44.56888" lon="4.23983">
        <ele>464</ele>
        <time>2018-06-03T08:00:27.000Z</time>
      </trkpt>
      <trkpt lat="44.56891" lon="4.23988">
        <ele>464</ele>
        <time>2018-06-03T08:00:28.000Z</time>
      </trkpt>
      <trkpt lat="44.56894" lon="4.23991">
        <ele>464</ele>
        <time>2018-06-03T08:00:29.000Z</time>
      </trkpt>
      <trkpt lat="44.56897" lon="4.23994">
        <ele>464</ele>
        <time>2018-06-03T08:00:30.000Z</time>
      </trkpt>
      <trkpt lat="44.56901" lon="4.23998">
        <ele>464</ele>
        <time>2018-06-03T08:00:31.000Z</time>
      </trkpt>
      <trkpt lat="44.56904" lon="4.24001">
        <ele>463</ele>
        <time>2018-06-03T08:00:32.000Z</time>
      </trkpt>
      <trkpt lat="44.56908" lon="4.24004">
        <ele>464</ele>
        <time>2018-06-03T08:00:33.000Z</time>
      </trkpt>
      <trkpt lat="44.56912" lon="4.24007">
        <ele>464</ele>
        <time>2018-06-03T08:00:34.000Z</time>
      </trkpt>
      <trkpt lat="44.56916" lon="4.24011">
        <ele>464</ele>
        <time>2018-06-03T08:00:35.000Z</time>
      </trkpt>
      <trkpt lat="44.56919" lon="4.24016">
        <ele>467</ele>
        <time>2018-06-03T08:00:36.000Z</time>
      </trkpt>
      <trkpt lat="44.56922" lon="4.24022">
        <ele>467</ele>
        <time>2018-06-03T08:00:37.000Z</time>
      </trkpt>
      <trkpt lat="44.56925" lon="4.24027">
        <ele>467</ele>
        <time>2018-06-03T08:00:38.000Z</time>
      </trkpt>
      <trkpt lat="44.56929" lon="4.24031">
        <ele>467</ele>
        <time>2018-06-03T08:00:39.000Z</time>
      </trkpt>
      <trkpt lat="44.56933" lon="4.24034">
        <ele>467</ele>
        <time>2018-06-03T08:00:40.000Z</time>
      </trkpt>
      <trkpt lat="44.56937" lon="4.24034">
        <ele>468</ele>
        <time>2018-06-03T08:00:41.000Z</time>
      </trkpt>
      <trkpt lat="44.56942" lon="4.24034">
        <ele>468</ele>
        <time>2018-06-03T08:00:42.000Z</time>
      </trkpt>
      <trkpt lat="44.56946" lon="4.24032">
        <ele>468</ele>
        <time>2018-06-03T08:00:43.000Z</time>
      </trkpt>
      <trkpt lat="44.5695" lon="4.24031">
        <ele>468</ele>
        <time>2018-06-03T08:00:44.000Z</time>
      </trkpt>
      <trkpt lat="44.56955" lon="4.24029">
        <ele>468</ele>
        <time>2018-06-03T08:00:45.000Z</time>
      </trkpt>
      <trkpt lat="44.56959" lon="4.24027">
        <ele>468</ele>
        <time>2018-06-03T08:00:46.000Z</time>
      </trkpt>
      <trkpt lat="44.56963" lon="4.24026">
        <ele>469</ele>
        <time>2018-06-03T08:00:47.000Z</time>
      </trkpt>
      <trkpt lat="44.56967" lon="4.24023">
        <ele>469</ele>
        <time>2018-06-03T08:00:48.000Z</time>
      </trkpt>
      <trkpt lat="44.56971" lon="4.24022">
        <ele>469</ele>
        <time>2018-06-03T08:00:49.000Z</time>
      </trkpt>
      <trkpt lat="44.56975" lon="4.24018">
        <ele>469</ele>
        <time>2018-06-03T08:00:50.000Z</time>
      </trkpt>
      <trkpt lat="44.56979" lon="4.24015">
        <ele>469</ele>
        <time>2018-06-03T08:00:51.000Z</time>
      </trkpt>
      <trkpt lat="44.56983" lon="4.2401">
        <ele>469</ele>
        <time>2018-06-03T08:00:52.000Z</time>
      </trkpt>
      <trkpt lat="44.56987" lon="4.24005">
        <ele>468</ele>
        <time>2018-06-03T08:00:53.000Z</time>
      </trkpt>
      <trkpt lat="44.56991" lon="4.24">
        <ele>466</ele>
        <time>2018-06-03T08:00:54.000Z</time>
      </trkpt>
      <trkpt lat="44.56995" lon="4.23994">
        <ele>467</ele>
        <time>2018-06-03T08:00:55.000Z</time>
      </trkpt>
      <trkpt lat="44.56998" lon="4.23989">
        <ele>466</ele>
        <time>2018-06-03T08:00:56.000Z</time>
      </trkpt>
      <trkpt lat="44.57002" lon="4.23983">
        <ele>468</ele>
        <time>2018-06-03T08:00:57.000Z</time>
      </trkpt>
      <trkpt lat="44.57006" lon="4.23977">
        <ele>468</ele>
        <time>2018-06-03T08:00:58.000Z</time>
      </trkpt>
      <trkpt lat="44.5701" lon="4.23971">
        <ele>468</ele>
        <time>2018-06-03T08:00:59.000Z</time>
      </trkpt>
      <trkpt lat="44.57014" lon="4.23965">
        <ele>467</ele>
        <time>2018-06-03T08:01:00.000Z</time>
      </trkpt>
      <trkpt lat="44.57018" lon="4.23959">
        <ele>467</ele>
        <time>2018-06-03T08:01:01.000Z</time>
      </trkpt>
      <trkpt lat="44.57021" lon="4.23952">
        <ele>467</ele>
        <time>2018-06-03T08:01:02.000Z</time>
      </trkpt>
      <trkpt lat="44.57024" lon="4.23945">
        <ele>466</ele>
        <time>2018-06-03T08:01:03.000Z</time>
      </trkpt>
      <trkpt lat="44.57027" lon="4.23937">
        <ele>466</ele>
        <time>2018-06-03T08:01:04.000Z</time>
      </trkpt>
      <trkpt lat="44.57029" lon="4.23929">
        <ele>465</ele>
        <time>2018-06-03T08:01:05.000Z</time>
      </trkpt>
      <trkpt lat="44.57029" lon="4.23921">
        <ele>465</ele>
        <time>2018-06-03T08:01:06.000Z</time>
      </trkpt>
      <trkpt lat="44.5703" lon="4.23912">
        <ele>459</ele>
        <time>2018-06-03T08:01:07.000Z</time>
      </trkpt>
      <trkpt lat="44.5703" lon="4.23904">
        <ele>459</ele>
        <time>2018-06-03T08:01:08.000Z</time>
      </trkpt>
      <trkpt lat="44.57031" lon="4.23895">
        <ele>459</ele>
        <time>2018-06-03T08:01:09.000Z</time>
      </trkpt>
      <trkpt lat="44.57034" lon="4.23887">
        <ele>459</ele>
        <time>2018-06-03T08:01:10.000Z</time>
      </trkpt>
      <trkpt lat="44.57037" lon="4.2388">
        <ele>459</ele>
        <time>2018-06-03T08:01:11.000Z</time>
      </trkpt>
      <trkpt lat="44.57042" lon="4.23874">
        <ele>459</ele>
        <time>2018-06-03T08:01:12.000Z</time>
      </trkpt>
      <trkpt lat="44.57047" lon="4.23869">
        <ele>459</ele>
        <time>2018-06-03T08:01:13.000Z</time>
      </trkpt>
      <trkpt lat="44.57052" lon="4.23864">
        <ele>459</ele>
        <time>2018-06-03T08:01:14.000Z</time>
      </trkpt>
      <trkpt lat="44.57056" lon="4.23859">
        <ele>459</ele>
        <time>2018-06-03T08:01:15.000Z</time>
      </trkpt>
      <trkpt lat="44.57061" lon="4.23854">
        <ele>459</ele>
        <time>2018-06-03T08:01:16.000Z</time>
      </trkpt>
      <trkpt lat="44.57065" lon="4.23849">
        <ele>459</ele>
        <time>2018-06-03T08:01:17.000Z</time>
      </trkpt>
      <trkpt lat="44.5707" lon="4.23844">
        <ele>459</ele>
        <time>2018-06-03T08:01:18.000Z</time>
      </trkpt>
      <trkpt lat="44.57074" lon="4.23839">
        <ele>459</ele>
        <time>2018-06-03T08:01:19.000Z</time>
      </trkpt>
      <trkpt lat="44.57078" lon="4.23833">
        <ele>457</ele>
        <time>2018-06-03T08:01:20.000Z</time>
      </trkpt>
      <trkpt lat="44.57082" lon="4.23827">
        <ele>457</ele>
        <time>2018-06-03T08:01:21.000Z</time>
      </trkpt>
      <trkpt lat="44.57085" lon="4.2382">
        <ele>457</ele>
        <time>2018-06-03T08:01:22.000Z</time>
      </trkpt>
      <trkpt lat="44.57089" lon="4.23813">
        <ele>457</ele>
        <time>2018-06-03T08:01:23.000Z</time>
      </trkpt>
      <trkpt lat="44.57092" lon="4.23806">
        <ele>456</ele>
        <time>2018-06-03T08:01:24.000Z</time>
      </trkpt>
      <trkpt lat="44.57096" lon="4.23799">
        <ele>455</ele>
        <time>2018-06-03T08:01:25.000Z</time>
      </trkpt>
      <trkpt lat="44.571" lon="4.23793">
        <ele>455</ele>
        <time>2018-06-03T08:01:26.000Z</time>
      </trkpt>
      <trkpt lat="44.57105" lon="4.23787">
        <ele>454</ele>
        <time>2018-06-03T08:01:27.000Z</time>
      </trkpt>
      <trkpt lat="44.5711" lon="4.23782">
        <ele>454</ele>
        <time>2018-06-03T08:01:28.000Z</time>
      </trkpt>
      <trkpt lat="44.57115" lon="4.23778">
        <ele>454</ele>
        <time>2018-06-03T08:01:29.000Z</time>
      </trkpt>
      <trkpt lat="44.57121" lon="4.23775">
        <ele>454</ele>
        <time>2018-06-03T08:01:30.000Z</time>
      </trkpt>
      <trkpt lat="44.57127" lon="4.23772">
        <ele>454</ele>
        <time>2018-06-03T08:01:31.000Z</time>
      </trkpt>
      <trkpt lat="44.57133" lon="4.2377">
        <ele>454</ele>
        <time>2018-06-03T08:01:32.000Z</time>
      </trkpt>
      <trkpt lat="44.5714" lon="4.23768">
        <ele>454</ele>
        <time>2018-06-03T08:01:33.000Z</time>
      </trkpt>
      <trkpt lat="44.57146" lon="4.23767">
        <ele>453</ele>
        <time>2018-06-03T08:01:34.000Z</time>
      </trkpt>
      <trkpt lat="44.57153" lon="4.23768">
        <ele>453</ele>
        <time>2018-06-03T08:01:35.000Z</time>
      </trkpt>
      <trkpt lat="44.5716" lon="4.2377">
        <ele>453</ele>
        <time>2018-06-03T08:01:36.000Z</time>
      </trkpt>
      <trkpt lat="44.57167" lon="4.23773">
        <ele>454</ele>
        <time>2018-06-03T08:01:37.000Z</time>
      </trkpt>
      <trkpt lat="44.57174" lon="4.23778">
        <ele>455</ele>
        <time>2018-06-03T08:01:38.000Z</time>
      </trkpt>
      <trkpt lat="44.57181" lon="4.23783">
        <ele>456</ele>
        <time>2018-06-03T08:01:39.000Z</time>
      </trkpt>
      <trkpt lat="44.57188" lon="4.23789">
        <ele>456</ele>
        <time>2018-06-03T08:01:40.000Z</time>
      </trkpt>
      <trkpt lat="44.57195" lon="4.23794">
        <ele>457</ele>
        <time>2018-06-03T08:01:41.000Z</time>
      </trkpt>
      <trkpt lat="44.57202" lon="4.23799">
        <ele>457</ele>
        <time>2018-06-03T08:01:42.000Z</time>
      </trkpt>
      <trkpt lat="44.5721" lon="4.23803">
        <ele>457</ele>
        <time>2018-06-03T08:01:43.000Z</time>
      </trkpt>
      <trkpt lat="44.57217" lon="4.23806">
        <ele>457</ele>
        <time>2018-06-03T08:01:44.000Z</time>
      </trkpt>
      <trkpt lat="44.57223" lon="4.23807">
        <ele>457</ele>
        <time>2018-06-03T08:01:45.000Z</time>
      </trkpt>
      <trkpt lat="44.57227" lon="4.23806">
        <ele>457</ele>
        <time>2018-06-03T08:01:46.000Z</time>
      </trkpt>
      <trkpt lat="44.5723" lon="4.23803">
        <ele>457</ele>
        <time>2018-06-03T08:01:47.000Z</time>
      </trkpt>
      <trkpt lat="44.57235" lon="4.238">
        <ele>456</ele>
        <time>2018-06-03T08:01:48.000Z</time>
      </trkpt>
      <trkpt lat="44.57239" lon="4.23796">
        <ele>456</ele>
        <time>2018-06-03T08:01:49.000Z</time>
      </trkpt>
      <trkpt lat="44.57242" lon="4.2379">
        <ele>455</ele>
        <time>2018-06-03T08:01:50.000Z</time>
      </trkpt>
      <trkpt lat="44.57243" lon="4.23783">
        <ele>455</ele>
        <time>2018-06-03T08:01:51.000Z</time>
      </trkpt>
      <trkpt lat="44.57243" lon="4.23775">
        <ele>454</ele>
        <time>2018-06-03T08:01:52.000Z</time>
      </trkpt>
      <trkpt lat="44.57242" lon="4.23767">
        <ele>453</ele>
        <time>2018-06-03T08:01:53.000Z</time>
      </trkpt>
      <trkpt lat="44.57241" lon="4.23759">
        <ele>452</ele>
        <time>2018-06-03T08:01:54.000Z</time>
      </trkpt>
      <trkpt lat="44.5724" lon="4.23751">
        <ele>451</ele>
        <time>2018-06-03T08:01:55.000Z</time>
      </trkpt>
      <trkpt lat="44.5724" lon="4.23743">
        <ele>449</ele>
        <time>2018-06-03T08:01:56.000Z</time>
      </trkpt>
      <trkpt lat="44.57239" lon="4.23735">
        <ele>449</ele>
        <time>2018-06-03T08:01:57.000Z</time>
      </trkpt>
      <trkpt lat="44.57239" lon="4.23728">
        <ele>449</ele>
        <time>2018-06-03T08:01:58.000Z</time>
      </trkpt>
      <trkpt lat="44.57238" lon="4.23722">
        <ele>449</ele>
        <time>2018-06-03T08:01:59.000Z</time>
      </trkpt>
      <trkpt lat="44.57238" lon="4.23716">
        <ele>449</ele>
        <time>2018-06-03T08:02:00.000Z</time>
      </trkpt>
      <trkpt lat="44.57237" lon="4.23712">
        <ele>450</ele>
        <time>2018-06-03T08:02:01.000Z</time>
      </trkpt>
      <trkpt lat="44.57237" lon="4.23707">
        <ele>450</ele>
        <time>2018-06-03T08:02:02.000Z</time>
      </trkpt>
      <trkpt lat="44.57236" lon="4.23703">
        <ele>450</ele>
        <time>2018-06-03T08:02:03.000Z</time>
      </trkpt>
      <trkpt lat="44.57236" lon="4.23699">
        <ele>450</ele>
        <time>2018-06-03T08:02:04.000Z</time>
      </trkpt>
      <trkpt lat="44.57236" lon="4.23695">
        <ele>450</ele>
        <time>2018-06-03T08:02:05.000Z</time>
      </trkpt>
      <trkpt lat="44.57236" lon="4.23691">
        <ele>450</ele>
        <time>2018-06-03T08:02:06.000Z</time>
      </trkpt>
      <trkpt lat="44.57236" lon="4.23687">
        <ele>450</ele>
        <time>2018-06-03T08:02:07.000Z</time>
      </trkpt>
      <trkpt lat="44.57236" lon="4.23683">
        <ele>451</ele>
        <time>2018-06-03T08:02:08.000Z</time>
      </trkpt>
      <trkpt lat="44.57237" lon="4.23679">
        <ele>451</ele>
        <time>2018-06-03T08:02:09.000Z</time>
      </trkpt>
      <trkpt lat="44.57237" lon="4.23675">
        <ele>451</ele>
        <time>2018-06-03T08:02:10.000Z</time>
      </trkpt>
      <trkpt lat="44.57237" lon="4.23671">
        <ele>451</ele>
        <time>2018-06-03T08:02:11.000Z</time>
      </trkpt>
      <trkpt lat="44.57237" lon="4.23667">
        <ele>451</ele>
        <time>2018-06-03T08:02:12.000Z</time>
      </trkpt>
      <trkpt lat="44.57237" lon="4.23663">
        <ele>452</ele>
        <time>2018-06-03T08:02:13.000Z</time>
      </trkpt>
      <trkpt lat="44.57238" lon="4.2366">
        <ele>452</ele>
        <time>2018-06-03T08:02:14.000Z</time>
      </trkpt>
      <trkpt lat="44.57238" lon="4.23656">
        <ele>452</ele>
        <time>2018-06-03T08:02:15.000Z</time>
      </trkpt>
      <trkpt lat="44.57238" lon="4.23652">
        <ele>452</ele>
        <time>2018-06-03T08:02:16.000Z</time>
      </trkpt>
      <trkpt lat="44.57239" lon="4.23649">
        <ele>452</ele>
        <time>2018-06-03T08:02:17.000Z</time>
      </trkpt>
      <trkpt lat="44.5724" lon="4.23645">
        <ele>452</ele>
        <time>2018-06-03T08:02:18.000Z</time>
      </trkpt>
      <trkpt lat="44.57241" lon="4.23641">
        <ele>452</ele>
        <time>2018-06-03T08:02:19.000Z</time>
      </trkpt>
      <trkpt lat="44.57241" lon="4.23637">
        <ele>452</ele>
        <time>2018-06-03T08:02:20.000Z</time>
      </trkpt>
      <trkpt lat="44.57241" lon="4.23633">
        <ele>452</ele>
        <time>2018-06-03T08:02:21.000Z</time>
      </trkpt>
      <trkpt lat="44.57242" lon="4.23628">
        <ele>453</ele>
        <time>2018-06-03T08:02:22.000Z</time>
      </trkpt>
      <trkpt lat="44.57242" lon="4.23623">
        <ele>453</ele>
        <time>2018-06-03T08:02:23.000Z</time>
      </trkpt>
      <trkpt lat="44.57241" lon="4.23617">
        <ele>453</ele>
        <time>2018-06-03T08:02:24.000Z</time>
      </trkpt>
      <trkpt lat="44.57241" lon="4.23612">
        <ele>453</ele>
        <time>2018-06-03T08:02:25.000Z</time>
      </trkpt>
      <trkpt lat="44.57241" lon="4.23607">
        <ele>454</ele>
        <time>2018-06-03T08:02:26.000Z</time>
      </trkpt>
      <trkpt lat="44.5724" lon="4.23602">
        <ele>454</ele>
        <time>2018-06-03T08:02:27.000Z</time>
      </trkpt>
      <trkpt lat="44.5724" lon="4.23597">
        <ele>455</ele>
        <time>2018-06-03T08:02:28.000Z</time>
      </trkpt>
      <trkpt lat="44.5724" lon="4.23592">
        <ele>456</ele>
        <time>2018-06-03T08:02:29.000Z</time>
      </trkpt>
      <trkpt lat="44.57239" lon="4.23586">
        <ele>456</ele>
        <time>2018-06-03T08:02:30.000Z</time>
      </trkpt>
      <trkpt lat="44.57239" lon="4.23581">
        <ele>457</ele>
        <time>2018-06-03T08:02:31.000Z</time>
      </trkpt>
      <trkpt lat="44.57239" lon="4.23575">
        <ele>457</ele>
        <time>2018-06-03T08:02:32.000Z</time>
      </trkpt>
      <trkpt lat="44.57238" lon="4.2357">
        <ele>456</ele>
        <time>2018-06-03T08:02:33.000Z</time>
      </trkpt>
      <trkpt lat="44.57238" lon="4.23564">
        <ele>456</ele>
        <time>2018-06-03T08:02:34.000Z</time>
      </trkpt>
      <trkpt lat="44.57238" lon="4.23559">
        <ele>456</ele>
        <time>2018-06-03T08:02:35.000Z</time>
      </trkpt>
      <trkpt lat="44.57238" lon="4.23553">
        <ele>456</ele>
        <time>2018-06-03T08:02:36.000Z</time>
      </trkpt>
      <trkpt lat="44.57237" lon="4.23547">
        <ele>456</ele>
        <time>2018-06-03T08:02:37.000Z</time>
      </trkpt>
      <trkpt lat="44.57237" lon="4.23542">
        <ele>456</ele>
        <time>2018-06-03T08:02:38.000Z</time>
      </trkpt>
      <trkpt lat="44.57237" lon="4.23536">
        <ele>456</ele>
        <time>2018-06-03T08:02:39.000Z</time>
      </trkpt>
      <trkpt lat="44.57236" lon="4.23531">
        <ele>456</ele>
        <time>2018-06-03T08:02:40.000Z</time>
      </trkpt>
      <trkpt lat="44.57236" lon="4.23525">
        <ele>456</ele>
        <time>2018-06-03T08:02:41.000Z</time>
      </trkpt>
      <trkpt lat="44.57236" lon="4.23519">
        <ele>457</ele>
        <time>2018-06-03T08:02:42.000Z</time>
      </trkpt>
      <trkpt lat="44.57236" lon="4.23513">
        <ele>457</ele>
        <time>2018-06-03T08:02:43.000Z</time>
      </trkpt>
      <trkpt lat="44.57236" lon="4.23508">
        <ele>458</ele>
        <time>2018-06-03T08:02:44.000Z</time>
      </trkpt>
      <trkpt lat="44.57237" lon="4.23502">
        <ele>458</ele>
        <time>2018-06-03T08:02:45.000Z</time>
      </trkpt>
      <trkpt lat="44.57237" lon="4.23496">
        <ele>458</ele>
        <time>2018-06-03T08:02:46.000Z</time>
      </trkpt>
      <trkpt lat="44.57237" lon="4.2349">
        <ele>458</ele>
        <time>2018-06-03T08:02:47.000Z</time>
      </trkpt>
      <trkpt lat="44.57238" lon="4.23484">
        <ele>457</ele>
        <time>2018-06-03T08:02:48.000Z</time>
      </trkpt>
      <trkpt lat="44.57239" lon="4.23478">
        <ele>457</ele>
        <time>2018-06-03T08:02:49.000Z</time>
      </trkpt>
      <trkpt lat="44.57239" lon="4.23472">
        <ele>457</ele>
        <time>2018-06-03T08:02:50.000Z</time>
      </trkpt>
      <trkpt lat="44.5724" lon="4.23466">
        <ele>457</ele>
        <time>2018-06-03T08:02:51.000Z</time>
      </trkpt>
      <trkpt lat="44.57241" lon="4.2346">
        <ele>457</ele>
        <time>2018-06-03T08:02:52.000Z</time>
      </trkpt>
      <trkpt lat="44.57243" lon="4.23454">
        <ele>457</ele>
        <time>2018-06-03T08:02:53.000Z</time>
      </trkpt>
      <trkpt lat="44.57244" lon="4.23448">
        <ele>457</ele>
        <time>2018-06-03T08:02:54.000Z</time>
      </trkpt>
      <trkpt lat="44.57245" lon="4.23442">
        <ele>457</ele>
        <time>2018-06-03T08:02:55.000Z</time>
      </trkpt>
      <trkpt lat="44.57246" lon="4.23436">
        <ele>457</ele>
        <time>2018-06-03T08:02:56.000Z</time>
      </trkpt>
      <trkpt lat="44.57248" lon="4.2343">
        <ele>457</ele>
        <time>2018-06-03T08:02:57.000Z</time>
      </trkpt>
      <trkpt lat="44.57249" lon="4.23424">
        <ele>458</ele>
        <time>2018-06-03T08:02:58.000Z</time>
      </trkpt>
      <trkpt lat="44.57251" lon="4.23418">
        <ele>459</ele>
        <time>2018-06-03T08:02:59.000Z</time>
      </trkpt>
      <trkpt lat="44.57252" lon="4.23411">
        <ele>460</ele>
        <time>2018-06-03T08:03:00.000Z</time>
      </trkpt>
      <trkpt lat="44.57254" lon="4.23405">
        <ele>461</ele>
        <time>2018-06-03T08:03:01.000Z</time>
      </trkpt>
      <trkpt lat="44.57256" lon="4.23399">
        <ele>462</ele>
        <time>2018-06-03T08:03:02.000Z</time>
      </trkpt>
      <trkpt lat="44.57257" lon="4.23392">
        <ele>462</ele>
        <time>2018-06-03T08:03:03.000Z</time>
      </trkpt>
      <trkpt lat="44.57259" lon="4.23386">
        <ele>462</ele>
        <time>2018-06-03T08:03:04.000Z</time>
      </trkpt>
      <trkpt lat="44.57261" lon="4.2338">
        <ele>463</ele>
        <time>2018-06-03T08:03:05.000Z</time>
      </trkpt>
      <trkpt lat="44.57262" lon="4.23373">
        <ele>463</ele>
        <time>2018-06-03T08:03:06.000Z</time>
      </trkpt>
      <trkpt lat="44.57264" lon="4.23367">
        <ele>463</ele>
        <time>2018-06-03T08:03:07.000Z</time>
      </trkpt>
      <trkpt lat="44.57266" lon="4.2336">
        <ele>462</ele>
        <time>2018-06-03T08:03:08.000Z</time>
      </trkpt>
      <trkpt lat="44.57268" lon="4.23354">
        <ele>462</ele>
        <time>2018-06-03T08:03:09.000Z</time>
      </trkpt>
      <trkpt lat="44.5727" lon="4.23347">
        <ele>462</ele>
        <time>2018-06-03T08:03:10.000Z</time>
      </trkpt>
      <trkpt lat="44.57271" lon="4.23341">
        <ele>462</ele>
        <time>2018-06-03T08:03:11.000Z</time>
      </trkpt>
      <trkpt lat="44.57273" lon="4.23334">
        <ele>462</ele>
        <time>2018-06-03T08:03:12.000Z</time>
      </trkpt>
      <trkpt lat="44.57274" lon="4.23327">
        <ele>462</ele>
        <time>2018-06-03T08:03:13.000Z</time>
      </trkpt>
      <trkpt lat="44.57275" lon="4.2332">
        <ele>462</ele>
        <time>2018-06-03T08:03:14.000Z</time>
      </trkpt>
      <trkpt lat="44.57276" lon="4.23313">
        <ele>462</ele>
        <time>2018-06-03T08:03:15.000Z</time>
      </trkpt>
      <trkpt lat="44.57277" lon="4.23307">
        <ele>462</ele>
        <time>2018-06-03T08:03:16.000Z</time>
      </trkpt>
      <trkpt lat="44.57277" lon="4.233">
        <ele>462</ele>
        <time>2018-06-03T08:03:17.000Z</time>
      </trkpt>
      <trkpt lat="44.57278" lon="4.23293">
        <ele>462</ele>
        <time>2018-06-03T08:03:18.000Z</time>
      </trkpt>
      <trkpt lat="44.57279" lon="4.23286">
        <ele>462</ele>
        <time>2018-06-03T08:03:19.000Z</time>
      </trkpt>
      <trkpt lat="44.57279" lon="4.2328">
        <ele>462</ele>
        <time>2018-06-03T08:03:20.000Z</time>
      </trkpt>
      <trkpt lat="44.57281" lon="4.23274">
        <ele>462</ele>
        <time>2018-06-03T08:03:21.000Z</time>
      </trkpt>
      <trkpt lat="44.57282" lon="4.23268">
        <ele>462</ele>
        <time>2018-06-03T08:03:22.000Z</time>
      </trkpt>
      <trkpt lat="44.57283" lon="4.23262">
        <ele>462</ele>
        <time>2018-06-03T08:03:23.000Z</time>
      </trkpt>
      <trkpt lat="44.57285" lon="4.23257">
        <ele>462</ele>
        <time>2018-06-03T08:03:24.000Z</time>
      </trkpt>
      <trkpt lat="44.57286" lon="4.23252">
        <ele>463</ele>
        <time>2018-06-03T08:03:25.000Z</time>
      </trkpt>
      <trkpt lat="44.57288" lon="4.23247">
        <ele>463</ele>
        <time>2018-06-03T08:03:26.000Z</time>
      </trkpt>
      <trkpt lat="44.5729" lon="4.23242">
        <ele>463</ele>
        <time>2018-06-03T08:03:27.000Z</time>
      </trkpt>
      <trkpt lat="44.57291" lon="4.23238">
        <ele>464</ele>
        <time>2018-06-03T08:03:28.000Z</time>
      </trkpt>
      <trkpt lat="44.57293" lon="4.23234">
        <ele>464</ele>
        <time>2018-06-03T08:03:29.000Z</time>
      </trkpt>
      <trkpt lat="44.57295" lon="4.2323">
        <ele>464</ele>
        <time>2018-06-03T08:03:30.000Z</time>
      </trkpt>
      <trkpt lat="44.57297" lon="4.23226">
        <ele>464</ele>
        <time>2018-06-03T08:03:31.000Z</time>
      </trkpt>
      <trkpt lat="44.57299" lon="4.23222">
        <ele>464</ele>
        <time>2018-06-03T08:03:32.000Z</time>
      </trkpt>
      <trkpt lat="44.57301" lon="4.23218">
        <ele>465</ele>
        <time>2018-06-03T08:03:33.000Z</time>
      </trkpt>
      <trkpt lat="44.57303" lon="4.23213">
        <ele>465</ele>
        <time>2018-06-03T08:03:34.000Z</time>
      </trkpt>
      <trkpt lat="44.57305" lon="4.23209">
        <ele>465</ele>
        <time>2018-06-03T08:03:35.000Z</time>
      </trkpt>
      <trkpt lat="44.57307" lon="4.23205">
        <ele>465</ele>
        <time>2018-06-03T08:03:36.000Z</time>
      </trkpt>
      <trkpt lat="44.57309" lon="4.23201">
        <ele>465</ele>
        <time>2018-06-03T08:03:37.000Z</time>
      </trkpt>
      <trkpt lat="44.57311" lon="4.23197">
        <ele>465</ele>
        <time>2018-06-03T08:03:38.000Z</time>
      </trkpt>
      <trkpt lat="44.57312" lon="4.23192">
        <ele>466</ele>
        <time>2018-06-03T08:03:39.000Z</time>
      </trkpt>
      <trkpt lat="44.57314" lon="4.23188">
        <ele>466</ele>
        <time>2018-06-03T08:03:40.000Z</time>
      </trkpt>
      <trkpt lat="44.57316" lon="4.23184">
        <ele>466</ele>
        <time>2018-06-03T08:03:41.000Z</time>
      </trkpt>
      <trkpt lat="44.57317" lon="4.23179">
        <ele>467</ele>
        <time>2018-06-03T08:03:42.000Z</time>
      </trkpt>
      <trkpt lat="44.57318" lon="4.23175">
        <ele>467</ele>
        <time>2018-06-03T08:03:43.000Z</time>
      </trkpt>
      <trkpt lat="44.57319" lon="4.2317">
        <ele>467</ele>
        <time>2018-06-03T08:03:44.000Z</time>
      </trkpt>
      <trkpt lat="44.5732" lon="4.23165">
        <ele>469</ele>
        <time>2018-06-03T08:03:45.000Z</time>
      </trkpt>
      <trkpt lat="44.57321" lon="4.2316">
        <ele>469</ele>
        <time>2018-06-03T08:03:46.000Z</time>
      </trkpt>
      <trkpt lat="44.57321" lon="4.23156">
        <ele>469</ele>
        <time>2018-06-03T08:03:47.000Z</time>
      </trkpt>
      <trkpt lat="44.57322" lon="4.23151">
        <ele>469</ele>
        <time>2018-06-03T08:03:48.000Z</time>
      </trkpt>
      <trkpt lat="44.57323" lon="4.23146">
        <ele>469</ele>
        <time>2018-06-03T08:03:49.000Z</time>
      </trkpt>
      <trkpt lat="44.57323" lon="4.23141">
        <ele>469</ele>
        <time>2018-06-03T08:03:50.000Z</time>
      </trkpt>
      <trkpt lat="44.57324" lon="4.23137">
        <ele>469</ele>
        <time>2018-06-03T08:03:51.000Z</time>
      </trkpt>
      <trkpt lat="44.57325" lon="4.23132">
        <ele>469</ele>
        <time>2018-06-03T08:03:52.000Z</time>
      </trkpt>
      <trkpt lat="44.57326" lon="4.23128">
        <ele>469</ele>
        <time>2018-06-03T08:03:53.000Z</time>
      </trkpt>
      <trkpt lat="44.57327" lon="4.23123">
        <ele>470</ele>
        <time>2018-06-03T08:03:54.000Z</time>
      </trkpt>
      <trkpt lat="44.57327" lon="4.23119">
        <ele>470</ele>
        <time>2018-06-03T08:03:55.000Z</time>
      </trkpt>
      <trkpt lat="44.57328" lon="4.23114">
        <ele>470</ele>
        <time>2018-06-03T08:03:56.000Z</time>
      </trkpt>
      <trkpt lat="44.57329" lon="4.2311">
        <ele>471</ele>
        <time>2018-06-03T08:03:57.000Z</time>
      </trkpt>
      <trkpt lat="44.5733" lon="4.23106">
        <ele>471</ele>
        <time>2018-06-03T08:03:58.000Z</time>
      </trkpt>
      <trkpt lat="44.57331" lon="4.23102">
        <ele>472</ele>
        <time>2018-06-03T08:03:59.000Z</time>
      </trkpt>
      <trkpt lat="44.57331" lon="4.23098">
        <ele>473</ele>
        <time>2018-06-03T08:04:00.000Z</time>
      </trkpt>
      <trkpt lat="44.57332" lon="4.23094">
        <ele>474</ele>
        <time>2018-06-03T08:04:01.000Z</time>
      </trkpt>
      <trkpt lat="44.57333" lon="4.2309">
        <ele>475</ele>
        <time>2018-06-03T08:04:02.000Z</time>
      </trkpt>
      <trkpt lat="44.57334" lon="4.23086">
        <ele>478</ele>
        <time>2018-06-03T08:04:03.000Z</time>
      </trkpt>
      <trkpt lat="44.57335" lon="4.23081">
        <ele>478</ele>
        <time>2018-06-03T08:04:04.000Z</time>
      </trkpt>
      <trkpt lat="44.57336" lon="4.23077">
        <ele>480</ele>
        <time>2018-06-03T08:04:05.000Z</time>
      </trkpt>
      <trkpt lat="44.57337" lon="4.23073">
        <ele>481</ele>
        <time>2018-06-03T08:04:06.000Z</time>
      </trkpt>
      <trkpt lat="44.57338" lon="4.23069">
        <ele>483</ele>
        <time>2018-06-03T08:04:07.000Z</time>
      </trkpt>
      <trkpt lat="44.57339" lon="4.23065">
        <ele>483</ele>
        <time>2018-06-03T08:04:08.000Z</time>
      </trkpt>
      <trkpt lat="44.5734" lon="4.2306">
        <ele>484</ele>
        <time>2018-06-03T08:04:09.000Z</time>
      </trkpt>
      <trkpt lat="44.57341" lon="4.23056">
        <ele>485</ele>
        <time>2018-06-03T08:04:10.000Z</time>
      </trkpt>
      <trkpt lat="44.57342" lon="4.23052">
        <ele>485</ele>
        <time>2018-06-03T08:04:11.000Z</time>
      </trkpt>
      <trkpt lat="44.57344" lon="4.23048">
        <ele>486</ele>
        <time>2018-06-03T08:04:12.000Z</time>
      </trkpt>
      <trkpt lat="44.57344" lon="4.23043">
        <ele>486</ele>
        <time>2018-06-03T08:04:13.000Z</time>
      </trkpt>
      <trkpt lat="44.57346" lon="4.23038">
        <ele>486</ele>
        <time>2018-06-03T08:04:14.000Z</time>
      </trkpt>
      <trkpt lat="44.57346" lon="4.23034">
        <ele>486</ele>
        <time>2018-06-03T08:04:15.000Z</time>
      </trkpt>
      <trkpt lat="44.57347" lon="4.23028">
        <ele>486</ele>
        <time>2018-06-03T08:04:16.000Z</time>
      </trkpt>
      <trkpt lat="44.57347" lon="4.23023">
        <ele>486</ele>
        <time>2018-06-03T08:04:17.000Z</time>
      </trkpt>
      <trkpt lat="44.57347" lon="4.23018">
        <ele>485</ele>
        <time>2018-06-03T08:04:18.000Z</time>
      </trkpt>
      <trkpt lat="44.57347" lon="4.23014">
        <ele>485</ele>
        <time>2018-06-03T08:04:19.000Z</time>
      </trkpt>
      <trkpt lat="44.57346" lon="4.23009">
        <ele>484</ele>
        <time>2018-06-03T08:04:20.000Z</time>
      </trkpt>
      <trkpt lat="44.57346" lon="4.23006">
        <ele>484</ele>
        <time>2018-06-03T08:04:21.000Z</time>
      </trkpt>
      <trkpt lat="44.57345" lon="4.23002">
        <ele>483</ele>
        <time>2018-06-03T08:04:22.000Z</time>
      </trkpt>
      <trkpt lat="44.57345" lon="4.22998">
        <ele>484</ele>
        <time>2018-06-03T08:04:23.000Z</time>
      </trkpt>
      <trkpt lat="44.57346" lon="4.22996">
        <ele>485</ele>
        <time>2018-06-03T08:04:24.000Z</time>
      </trkpt>
      <trkpt lat="44.57348" lon="4.22995">
        <ele>485</ele>
        <time>2018-06-03T08:04:25.000Z</time>
      </trkpt>
      <trkpt lat="44.57349" lon="4.22996">
        <ele>486</ele>
        <time>2018-06-03T08:04:26.000Z</time>
      </trkpt>
      <trkpt lat="44.5735" lon="4.22998">
        <ele>486</ele>
        <time>2018-06-03T08:04:27.000Z</time>
      </trkpt>
      <trkpt lat="44.57351" lon="4.23001">
        <ele>485</ele>
        <time>2018-06-03T08:04:28.000Z</time>
      </trkpt>
      <trkpt lat="44.57351" lon="4.23004">
        <ele>485</ele>
        <time>2018-06-03T08:04:29.000Z</time>
      </trkpt>
      <trkpt lat="44.57352" lon="4.23007">
        <ele>485</ele>
        <time>2018-06-03T08:04:30.000Z</time>
      </trkpt>
      <trkpt lat="44.57352" lon="4.2301">
        <ele>485</ele>
        <time>2018-06-03T08:04:31.000Z</time>
      </trkpt>
      <trkpt lat="44.57353" lon="4.23013">
        <ele>486</ele>
        <time>2018-06-03T08:04:32.000Z</time>
      </trkpt>
      <trkpt lat="44.57354" lon="4.23016">
        <ele>486</ele>
        <time>2018-06-03T08:04:33.000Z</time>
      </trkpt>
      <trkpt lat="44.57355" lon="4.23019">
        <ele>486</ele>
        <time>2018-06-03T08:04:34.000Z</time>
      </trkpt>
      <trkpt lat="44.57356" lon="4.23023">
        <ele>487</ele>
        <time>2018-06-03T08:04:35.000Z</time>
      </trkpt>
      <trkpt lat="44.57357" lon="4.23026">
        <ele>487</ele>
        <time>2018-06-03T08:04:36.000Z</time>
      </trkpt>
      <trkpt lat="44.57358" lon="4.2303">
        <ele>487</ele>
        <time>2018-06-03T08:04:37.000Z</time>
      </trkpt>
      <trkpt lat="44.57359" lon="4.23033">
        <ele>488</ele>
        <time>2018-06-03T08:04:38.000Z</time>
      </trkpt>
      <trkpt lat="44.5736" lon="4.23036">
        <ele>488</ele>
        <time>2018-06-03T08:04:39.000Z</time>
      </trkpt>
      <trkpt lat="44.57361" lon="4.23039">
        <ele>488</ele>
        <time>2018-06-03T08:04:40.000Z</time>
      </trkpt>
      <trkpt lat="44.57362" lon="4.23043">
        <ele>488</ele>
        <time>2018-06-03T08:04:41.000Z</time>
      </trkpt>
      <trkpt lat="44.57363" lon="4.23046">
        <ele>488</ele>
        <time>2018-06-03T08:04:42.000Z</time>
      </trkpt>
      <trkpt lat="44.57364" lon="4.23049">
        <ele>488</ele>
        <time>2018-06-03T08:04:43.000Z</time>
      </trkpt>
      <trkpt lat="44.57364" lon="4.23052">
        <ele>488</ele>
        <time>2018-06-03T08:04:44.000Z</time>
      </trkpt>
      <trkpt lat="44.57364" lon="4.23056">
        <ele>488</ele>
        <time>2018-06-03T08:04:45.000Z</time>
      </trkpt>
      <trkpt lat="44.57364" lon="4.23059">
        <ele>488</ele>
        <time>2018-06-03T08:04:46.000Z</time>
      </trkpt>
      <trkpt lat="44.57364" lon="4.23062">
        <ele>488</ele>
        <time>2018-06-03T08:04:47.000Z</time>
      </trkpt>
      <trkpt lat="44.57364" lon="4.23065">
        <ele>488</ele>
        <time>2018-06-03T08:04:48.000Z</time>
      </trkpt>
      <trkpt lat="44.57364" lon="4.23069">
        <ele>487</ele>
        <time>2018-06-03T08:04:49.000Z</time>
      </trkpt>
      <trkpt lat="44.57364" lon="4.23072">
        <ele>487</ele>
        <time>2018-06-03T08:04:50.000Z</time>
      </trkpt>
      <trkpt lat="44.57365" lon="4.23075">
        <ele>487</ele>
        <time>2018-06-03T08:04:51.000Z</time>
      </trkpt>
      <trkpt lat="44.57366" lon="4.23078">
        <ele>488</ele>
        <time>2018-06-03T08:04:52.000Z</time>
      </trkpt>
      <trkpt lat="44.57366" lon="4.23081">
        <ele>488</ele>
        <time>2018-06-03T08:04:53.000Z</time>
      </trkpt>
      <trkpt lat="44.57367" lon="4.23084">
        <ele>485</ele>
        <time>2018-06-03T08:04:54.000Z</time>
      </trkpt>
      <trkpt lat="44.57369" lon="4.23087">
        <ele>485</ele>
        <time>2018-06-03T08:04:55.000Z</time>
      </trkpt>
      <trkpt lat="44.5737" lon="4.2309">
        <ele>485</ele>
        <time>2018-06-03T08:04:56.000Z</time>
      </trkpt>
      <trkpt lat="44.57371" lon="4.23092">
        <ele>486</ele>
        <time>2018-06-03T08:04:57.000Z</time>
      </trkpt>
      <trkpt lat="44.57373" lon="4.23095">
        <ele>486</ele>
        <time>2018-06-03T08:04:58.000Z</time>
      </trkpt>
      <trkpt lat="44.57374" lon="4.23097">
        <ele>486</ele>
        <time>2018-06-03T08:04:59.000Z</time>
      </trkpt>
      <trkpt lat="44.57376" lon="4.23099">
        <ele>487</ele>
        <time>2018-06-03T08:05:00.000Z</time>
      </trkpt>
      <trkpt lat="44.57378" lon="4.231">
        <ele>487</ele>
        <time>2018-06-03T08:05:01.000Z</time>
      </trkpt>
      <trkpt lat="44.5738" lon="4.23102">
        <ele>487</ele>
        <time>2018-06-03T08:05:02.000Z</time>
      </trkpt>
      <trkpt lat="44.57382" lon="4.23104">
        <ele>487</ele>
        <time>2018-06-03T08:05:03.000Z</time>
      </trkpt>
      <trkpt lat="44.57384" lon="4.23106">
        <ele>487</ele>
        <time>2018-06-03T08:05:04.000Z</time>
      </trkpt>
      <trkpt lat="44.57385" lon="4.23109">
        <ele>488</ele>
        <time>2018-06-03T08:05:05.000Z</time>
      </trkpt>
      <trkpt lat="44.57387" lon="4.23111">
        <ele>488</ele>
        <time>2018-06-03T08:05:06.000Z</time>
      </trkpt>
      <trkpt lat="44.57389" lon="4.23113">
        <ele>488</ele>
        <time>2018-06-03T08:05:07.000Z</time>
      </trkpt>
      <trkpt lat="44.57391" lon="4.23115">
        <ele>488</ele>
        <time>2018-06-03T08:05:08.000Z</time>
      </trkpt>
      <trkpt lat="44.57392" lon="4.23118">
        <ele>488</ele>
        <time>2018-06-03T08:05:09.000Z</time>
      </trkpt>
      <trkpt lat="44.57394" lon="4.2312">
        <ele>488</ele>
        <time>2018-06-03T08:05:10.000Z</time>
      </trkpt>
      <trkpt lat="44.57396" lon="4.23122">
        <ele>488</ele>
        <time>2018-06-03T08:05:11.000Z</time>
      </trkpt>
      <trkpt lat="44.57397" lon="4.23124">
        <ele>488</ele>
        <time>2018-06-03T08:05:12.000Z</time>
      </trkpt>
      <trkpt lat="44.57399" lon="4.23127">
        <ele>488</ele>
        <time>2018-06-03T08:05:13.000Z</time>
      </trkpt>
      <trkpt lat="44.57401" lon="4.23129">
        <ele>488</ele>
        <time>2018-06-03T08:05:14.000Z</time>
      </trkpt>
      <trkpt lat="44.57402" lon="4.23131">
        <ele>488</ele>
        <time>2018-06-03T08:05:15.000Z</time>
      </trkpt>
      <trkpt lat="44.57404" lon="4.23134">
        <ele>488</ele>
        <time>2018-06-03T08:05:16.000Z</time>
      </trkpt>
      <trkpt lat="44.57405" lon="4.23136">
        <ele>488</ele>
        <time>2018-06-03T08:05:17.000Z</time>
      </trkpt>
      <trkpt lat="44.57407" lon="4.23138">
        <ele>488</ele>
        <time>2018-06-03T08:05:18.000Z</time>
      </trkpt>
      <trkpt lat="44.57409" lon="4.23139">
        <ele>488</ele>
        <time>2018-06-03T08:05:19.000Z</time>
      </trkpt>
      <trkpt lat="44.57411" lon="4.23141">
        <ele>488</ele>
        <time>2018-06-03T08:05:20.000Z</time>
      </trkpt>
      <trkpt lat="44.57412" lon="4.23143">
        <ele>488</ele>
        <time>2018-06-03T08:05:21.000Z</time>
      </trkpt>
      <trkpt lat="44.57414" lon="4.23144">
        <ele>488</ele>
        <time>2018-06-03T08:05:22.000Z</time>
      </trkpt>
      <trkpt lat="44.57416" lon="4.23146">
        <ele>489</ele>
        <time>2018-06-03T08:05:23.000Z</time>
      </trkpt>
      <trkpt lat="44.57418" lon="4.23148">
        <ele>501</ele>
        <time>2018-06-03T08:05:24.000Z</time>
      </trkpt>
      <trkpt lat="44.5742" lon="4.23149">
        <ele>501</ele>
        <time>2018-06-03T08:05:25.000Z</time>
      </trkpt>
      <trkpt lat="44.57422" lon="4.23151">
        <ele>500</ele>
        <time>2018-06-03T08:05:26.000Z</time>
      </trkpt>
      <trkpt lat="44.57424" lon="4.23153">
        <ele>500</ele>
        <time>2018-06-03T08:05:27.000Z</time>
      </trkpt>
      <trkpt lat="44.57425" lon="4.23155">
        <ele>500</ele>
        <time>2018-06-03T08:05:28.000Z</time>
      </trkpt>
      <trkpt lat="44.57427" lon="4.23157">
        <ele>500</ele>
        <time>2018-06-03T08:05:29.000Z</time>
      </trkpt>
      <trkpt lat="44.57429" lon="4.23159">
        <ele>500</ele>
        <time>2018-06-03T08:05:30.000Z</time>
      </trkpt>
      <trkpt lat="44.57431" lon="4.2316">
        <ele>501</ele>
        <time>2018-06-03T08:05:31.000Z</time>
      </trkpt>
      <trkpt lat="44.57433" lon="4.23161">
        <ele>501</ele>
        <time>2018-06-03T08:05:32.000Z</time>
      </trkpt>
      <trkpt lat="44.57435" lon="4.23162">
        <ele>502</ele>
        <time>2018-06-03T08:05:33.000Z</time>
      </trkpt>
      <trkpt lat="44.57437" lon="4.23163">
        <ele>503</ele>
        <time>2018-06-03T08:05:34.000Z</time>
      </trkpt>
      <trkpt lat="44.57439" lon="4.23165">
        <ele>503</ele>
        <time>2018-06-03T08:05:35.000Z</time>
      </trkpt>
      <trkpt lat="44.57441" lon="4.23167">
        <ele>500</ele>
        <time>2018-06-03T08:05:36.000Z</time>
      </trkpt>
      <trkpt lat="44.57443" lon="4.2317">
        <ele>500</ele>
        <time>2018-06-03T08:05:37.000Z</time>
      </trkpt>
      <trkpt lat="44.57444" lon="4.23173">
        <ele>501</ele>
        <time>2018-06-03T08:05:38.000Z</time>
      </trkpt>
      <trkpt lat="44.57444" lon="4.23177">
        <ele>501</ele>
        <time>2018-06-03T08:05:39.000Z</time>
      </trkpt>
      <trkpt lat="44.57444" lon="4.2318">
        <ele>501</ele>
        <time>2018-06-03T08:05:40.000Z</time>
      </trkpt>
      <trkpt lat="44.57443" lon="4.23182">
        <ele>501</ele>
        <time>2018-06-03T08:05:41.000Z</time>
      </trkpt>
      <trkpt lat="44.57443" lon="4.23184">
        <ele>501</ele>
        <time>2018-06-03T08:05:42.000Z</time>
      </trkpt>
      <trkpt lat="44.57442" lon="4.23186">
        <ele>501</ele>
        <time>2018-06-03T08:05:43.000Z</time>
      </trkpt>
      <trkpt lat="44.57441" lon="4.23188">
        <ele>501</ele>
        <time>2018-06-03T08:05:44.000Z</time>
      </trkpt>
      <trkpt lat="44.5744" lon="4.23189">
        <ele>501</ele>
        <time>2018-06-03T08:05:45.000Z</time>
      </trkpt>
      <trkpt lat="44.57439" lon="4.23192">
        <ele>501</ele>
        <time>2018-06-03T08:05:46.000Z</time>
      </trkpt>
      <trkpt lat="44.57438" lon="4.23195">
        <ele>501</ele>
        <time>2018-06-03T08:05:47.000Z</time>
      </trkpt>
      <trkpt lat="44.57438" lon="4.23199">
        <ele>501</ele>
        <time>2018-06-03T08:05:48.000Z</time>
      </trkpt>
      <trkpt lat="44.57437" lon="4.23202">
        <ele>501</ele>
        <time>2018-06-03T08:05:49.000Z</time>
      </trkpt>
      <trkpt lat="44.57436" lon="4.23205">
        <ele>501</ele>
        <time>2018-06-03T08:05:50.000Z</time>
      </trkpt>
      <trkpt lat="44.57436" lon="4.23208">
        <ele>500</ele>
        <time>2018-06-03T08:05:51.000Z</time>
      </trkpt>
      <trkpt lat="44.57435" lon="4.23212">
        <ele>500</ele>
        <time>2018-06-03T08:05:52.000Z</time>
      </trkpt>
      <trkpt lat="44.57435" lon="4.23215">
        <ele>500</ele>
        <time>2018-06-03T08:05:53.000Z</time>
      </trkpt>
      <trkpt lat="44.57435" lon="4.23218">
        <ele>500</ele>
        <time>2018-06-03T08:05:54.000Z</time>
      </trkpt>
      <trkpt lat="44.57436" lon="4.23221">
        <ele>500</ele>
        <time>2018-06-03T08:05:55.000Z</time>
      </trkpt>
      <trkpt lat="44.57436" lon="4.23225">
        <ele>500</ele>
        <time>2018-06-03T08:05:56.000Z</time>
      </trkpt>
      <trkpt lat="44.57437" lon="4.23228">
        <ele>499</ele>
        <time>2018-06-03T08:05:57.000Z</time>
      </trkpt>
      <trkpt lat="44.57438" lon="4.23231">
        <ele>499</ele>
        <time>2018-06-03T08:05:58.000Z</time>
      </trkpt>
      <trkpt lat="44.57439" lon="4.23235">
        <ele>499</ele>
        <time>2018-06-03T08:05:59.000Z</time>
      </trkpt>
      <trkpt lat="44.5744" lon="4.23237">
        <ele>499</ele>
        <time>2018-06-03T08:06:00.000Z</time>
      </trkpt>
      <trkpt lat="44.57441" lon="4.2324">
        <ele>499</ele>
        <time>2018-06-03T08:06:01.000Z</time>
      </trkpt>
      <trkpt lat="44.57442" lon="4.23242">
        <ele>499</ele>
        <time>2018-06-03T08:06:02.000Z</time>
      </trkpt>
      <trkpt lat="44.57443" lon="4.23244">
        <ele>500</ele>
        <time>2018-06-03T08:06:03.000Z</time>
      </trkpt>
      <trkpt lat="44.57445" lon="4.23246">
        <ele>500</ele>
        <time>2018-06-03T08:06:04.000Z</time>
      </trkpt>
      <trkpt lat="44.57446" lon="4.23249">
        <ele>500</ele>
        <time>2018-06-03T08:06:05.000Z</time>
      </trkpt>
      <trkpt lat="44.57448" lon="4.23252">
        <ele>499</ele>
        <time>2018-06-03T08:06:06.000Z</time>
      </trkpt>
      <trkpt lat="44.57449" lon="4.23255">
        <ele>499</ele>
        <time>2018-06-03T08:06:07.000Z</time>
      </trkpt>
      <trkpt lat="44.5745" lon="4.23257">
        <ele>500</ele>
        <time>2018-06-03T08:06:08.000Z</time>
      </trkpt>
      <trkpt lat="44.57451" lon="4.2326">
        <ele>500</ele>
        <time>2018-06-03T08:06:09.000Z</time>
      </trkpt>
      <trkpt lat="44.57452" lon="4.23264">
        <ele>500</ele>
        <time>2018-06-03T08:06:10.000Z</time>
      </trkpt>
      <trkpt lat="44.57453" lon="4.23267">
        <ele>500</ele>
        <time>2018-06-03T08:06:11.000Z</time>
      </trkpt>
      <trkpt lat="44.57454" lon="4.2327">
        <ele>501</ele>
        <time>2018-06-03T08:06:12.000Z</time>
      </trkpt>
      <trkpt lat="44.57456" lon="4.23273">
        <ele>501</ele>
        <time>2018-06-03T08:06:13.000Z</time>
      </trkpt>
      <trkpt lat="44.57457" lon="4.23275">
        <ele>501</ele>
        <time>2018-06-03T08:06:14.000Z</time>
      </trkpt>
      <trkpt lat="44.57459" lon="4.23277">
        <ele>501</ele>
        <time>2018-06-03T08:06:15.000Z</time>
      </trkpt>
      <trkpt lat="44.5746" lon="4.2328">
        <ele>502</ele>
        <time>2018-06-03T08:06:16.000Z</time>
      </trkpt>
      <trkpt lat="44.57462" lon="4.23282">
        <ele>502</ele>
        <time>2018-06-03T08:06:17.000Z</time>
      </trkpt>
      <trkpt lat="44.57463" lon="4.23284">
        <ele>502</ele>
        <time>2018-06-03T08:06:18.000Z</time>
      </trkpt>
      <trkpt lat="44.57465" lon="4.23287">
        <ele>502</ele>
        <time>2018-06-03T08:06:19.000Z</time>
      </trkpt>
      <trkpt lat="44.57466" lon="4.23289">
        <ele>502</ele>
        <time>2018-06-03T08:06:20.000Z</time>
      </trkpt>
      <trkpt lat="44.57468" lon="4.23292">
        <ele>502</ele>
        <time>2018-06-03T08:06:21.000Z</time>
      </trkpt>
      <trkpt lat="44.5747" lon="4.23295">
        <ele>503</ele>
        <time>2018-06-03T08:06:22.000Z</time>
      </trkpt>
      <trkpt lat="44.57471" lon="4.23298">
        <ele>503</ele>
        <time>2018-06-03T08:06:23.000Z</time>
      </trkpt>
      <trkpt lat="44.57473" lon="4.23301">
        <ele>503</ele>
        <time>2018-06-03T08:06:24.000Z</time>
      </trkpt>
      <trkpt lat="44.57474" lon="4.23304">
        <ele>503</ele>
        <time>2018-06-03T08:06:25.000Z</time>
      </trkpt>
      <trkpt lat="44.57475" lon="4.23308">
        <ele>504</ele>
        <time>2018-06-03T08:06:26.000Z</time>
      </trkpt>
      <trkpt lat="44.57476" lon="4.23311">
        <ele>504</ele>
        <time>2018-06-03T08:06:27.000Z</time>
      </trkpt>
      <trkpt lat="44.57477" lon="4.23314">
        <ele>504</ele>
        <time>2018-06-03T08:06:28.000Z</time>
      </trkpt>
      <trkpt lat="44.57478" lon="4.23317">
        <ele>504</ele>
        <time>2018-06-03T08:06:29.000Z</time>
      </trkpt>
      <trkpt lat="44.5748" lon="4.23319">
        <ele>505</ele>
        <time>2018-06-03T08:06:30.000Z</time>
      </trkpt>
      <trkpt lat="44.57481" lon="4.23322">
        <ele>505</ele>
        <time>2018-06-03T08:06:31.000Z</time>
      </trkpt>
      <trkpt lat="44.57482" lon="4.23324">
        <ele>506</ele>
        <time>2018-06-03T08:06:32.000Z</time>
      </trkpt>
      <trkpt lat="44.57484" lon="4.23327">
        <ele>506</ele>
        <time>2018-06-03T08:06:33.000Z</time>
      </trkpt>
      <trkpt lat="44.57486" lon="4.23329">
        <ele>507</ele>
        <time>2018-06-03T08:06:34.000Z</time>
      </trkpt>
      <trkpt lat="44.57487" lon="4.23332">
        <ele>507</ele>
        <time>2018-06-03T08:06:35.000Z</time>
      </trkpt>
      <trkpt lat="44.57489" lon="4.23334">
        <ele>506</ele>
        <time>2018-06-03T08:06:36.000Z</time>
      </trkpt>
      <trkpt lat="44.5749" lon="4.23336">
        <ele>507</ele>
        <time>2018-06-03T08:06:37.000Z</time>
      </trkpt>
      <trkpt lat="44.57492" lon="4.23339">
        <ele>507</ele>
        <time>2018-06-03T08:06:38.000Z</time>
      </trkpt>
      <trkpt lat="44.57494" lon="4.23341">
        <ele>507</ele>
        <time>2018-06-03T08:06:39.000Z</time>
      </trkpt>
      <trkpt lat="44.57495" lon="4.23344">
        <ele>506</ele>
        <time>2018-06-03T08:06:40.000Z</time>
      </trkpt>
      <trkpt lat="44.57496" lon="4.23347">
        <ele>505</ele>
        <time>2018-06-03T08:06:41.000Z</time>
      </trkpt>
      <trkpt lat="44.57498" lon="4.2335">
        <ele>505</ele>
        <time>2018-06-03T08:06:42.000Z</time>
      </trkpt>
      <trkpt lat="44.57499" lon="4.23353">
        <ele>504</ele>
        <time>2018-06-03T08:06:43.000Z</time>
      </trkpt>
      <trkpt lat="44.575" lon="4.23356">
        <ele>514</ele>
        <time>2018-06-03T08:06:44.000Z</time>
      </trkpt>
      <trkpt lat="44.57502" lon="4.23359">
        <ele>514</ele>
        <time>2018-06-03T08:06:45.000Z</time>
      </trkpt>
      <trkpt lat="44.57503" lon="4.23361">
        <ele>514</ele>
        <time>2018-06-03T08:06:46.000Z</time>
      </trkpt>
      <trkpt lat="44.57504" lon="4.23364">
        <ele>513</ele>
        <time>2018-06-03T08:06:47.000Z</time>
      </trkpt>
      <trkpt lat="44.57505" lon="4.23367">
        <ele>513</ele>
        <time>2018-06-03T08:06:48.000Z</time>
      </trkpt>
      <trkpt lat="44.57506" lon="4.23371">
        <ele>513</ele>
        <time>2018-06-03T08:06:49.000Z</time>
      </trkpt>
      <trkpt lat="44.57508" lon="4.23373">
        <ele>513</ele>
        <time>2018-06-03T08:06:50.000Z</time>
      </trkpt>
      <trkpt lat="44.57509" lon="4.23376">
        <ele>513</ele>
        <time>2018-06-03T08:06:51.000Z</time>
      </trkpt>
      <trkpt lat="44.5751" lon="4.23379">
        <ele>513</ele>
        <time>2018-06-03T08:06:52.000Z</time>
      </trkpt>
      <trkpt lat="44.57511" lon="4.23382">
        <ele>512</ele>
        <time>2018-06-03T08:06:53.000Z</time>
      </trkpt>
      <trkpt lat="44.57512" lon="4.23385">
        <ele>512</ele>
        <time>2018-06-03T08:06:54.000Z</time>
      </trkpt>
      <trkpt lat="44.57513" lon="4.23388">
        <ele>512</ele>
        <time>2018-06-03T08:06:55.000Z</time>
      </trkpt>
      <trkpt lat="44.57515" lon="4.23391">
        <ele>512</ele>
        <time>2018-06-03T08:06:56.000Z</time>
      </trkpt>
      <trkpt lat="44.57516" lon="4.23393">
        <ele>511</ele>
        <time>2018-06-03T08:06:57.000Z</time>
      </trkpt>
      <trkpt lat="44.57518" lon="4.23396">
        <ele>511</ele>
        <time>2018-06-03T08:06:58.000Z</time>
      </trkpt>
      <trkpt lat="44.5752" lon="4.23398">
        <ele>511</ele>
        <time>2018-06-03T08:06:59.000Z</time>
      </trkpt>
      <trkpt lat="44.57522" lon="4.23399">
        <ele>511</ele>
        <time>2018-06-03T08:07:00.000Z</time>
      </trkpt>
      <trkpt lat="44.57524" lon="4.23398">
        <ele>512</ele>
        <time>2018-06-03T08:07:01.000Z</time>
      </trkpt>
      <trkpt lat="44.57525" lon="4.23396">
        <ele>512</ele>
        <time>2018-06-03T08:07:02.000Z</time>
      </trkpt>
      <trkpt lat="44.57526" lon="4.23394">
        <ele>513</ele>
        <time>2018-06-03T08:07:03.000Z</time>
      </trkpt>
      <trkpt lat="44.57525" lon="4.23391">
        <ele>513</ele>
        <time>2018-06-03T08:07:04.000Z</time>
      </trkpt>
      <trkpt lat="44.57524" lon="4.23388">
        <ele>513</ele>
        <time>2018-06-03T08:07:05.000Z</time>
      </trkpt>
      <trkpt lat="44.57523" lon="4.23386">
        <ele>513</ele>
        <time>2018-06-03T08:07:06.000Z</time>
      </trkpt>
      <trkpt lat="44.57522" lon="4.23384">
        <ele>513</ele>
        <time>2018-06-03T08:07:07.000Z</time>
      </trkpt>
      <trkpt lat="44.57521" lon="4.23381">
        <ele>513</ele>
        <time>2018-06-03T08:07:08.000Z</time>
      </trkpt>
      <trkpt lat="44.57521" lon="4.23378">
        <ele>514</ele>
        <time>2018-06-03T08:07:09.000Z</time>
      </trkpt>
      <trkpt lat="44.57521" lon="4.23375">
        <ele>514</ele>
        <time>2018-06-03T08:07:10.000Z</time>
      </trkpt>
      <trkpt lat="44.57521" lon="4.23372">
        <ele>514</ele>
        <time>2018-06-03T08:07:11.000Z</time>
      </trkpt>
      <trkpt lat="44.57521" lon="4.23369">
        <ele>514</ele>
        <time>2018-06-03T08:07:12.000Z</time>
      </trkpt>
      <trkpt lat="44.57522" lon="4.23366">
        <ele>515</ele>
        <time>2018-06-03T08:07:13.000Z</time>
      </trkpt>
      <trkpt lat="44.57522" lon="4.23362">
        <ele>515</ele>
        <time>2018-06-03T08:07:14.000Z</time>
      </trkpt>
      <trkpt lat="44.57522" lon="4.23359">
        <ele>515</ele>
        <time>2018-06-03T08:07:15.000Z</time>
      </trkpt>
      <trkpt lat="44.57522" lon="4.23356">
        <ele>515</ele>
        <time>2018-06-03T08:07:16.000Z</time>
      </trkpt>
      <trkpt lat="44.57522" lon="4.23353">
        <ele>515</ele>
        <time>2018-06-03T08:07:17.000Z</time>
      </trkpt>
      <trkpt lat="44.57522" lon="4.2335">
        <ele>515</ele>
        <time>2018-06-03T08:07:18.000Z</time>
      </trkpt>
      <trkpt lat="44.57521" lon="4.23346">
        <ele>515</ele>
        <time>2018-06-03T08:07:19.000Z</time>
      </trkpt>
      <trkpt lat="44.57521" lon="4.23343">
        <ele>515</ele>
        <time>2018-06-03T08:07:20.000Z</time>
      </trkpt>
      <trkpt lat="44.57521" lon="4.2334">
        <ele>515</ele>
        <time>2018-06-03T08:07:21.000Z</time>
      </trkpt>
      <trkpt lat="44.57521" lon="4.23337">
        <ele>515</ele>
        <time>2018-06-03T08:07:22.000Z</time>
      </trkpt>
      <trkpt lat="44.5752" lon="4.23333">
        <ele>520</ele>
        <time>2018-06-03T08:07:23.000Z</time>
      </trkpt>
      <trkpt lat="44.57519" lon="4.2333">
        <ele>520</ele>
        <time>2018-06-03T08:07:24.000Z</time>
      </trkpt>
      <trkpt lat="44.57519" lon="4.23327">
        <ele>520</ele>
        <time>2018-06-03T08:07:25.000Z</time>
      </trkpt>
      <trkpt lat="44.57518" lon="4.23324">
        <ele>520</ele>
        <time>2018-06-03T08:07:26.000Z</time>
      </trkpt>
      <trkpt lat="44.57517" lon="4.23321">
        <ele>521</ele>
        <time>2018-06-03T08:07:27.000Z</time>
      </trkpt>
      <trkpt lat="44.57517" lon="4.23318">
        <ele>521</ele>
        <time>2018-06-03T08:07:28.000Z</time>
      </trkpt>
      <trkpt lat="44.57516" lon="4.23315">
        <ele>521</ele>
        <time>2018-06-03T08:07:29.000Z</time>
      </trkpt>
      <trkpt lat="44.57516" lon="4.23311">
        <ele>522</ele>
        <time>2018-06-03T08:07:30.000Z</time>
      </trkpt>
      <trkpt lat="44.57516" lon="4.23308">
        <ele>522</ele>
        <time>2018-06-03T08:07:31.000Z</time>
      </trkpt>
      <trkpt lat="44.57516" lon="4.23305">
        <ele>523</ele>
        <time>2018-06-03T08:07:32.000Z</time>
      </trkpt>
      <trkpt lat="44.57516" lon="4.23301">
        <ele>523</ele>
        <time>2018-06-03T08:07:33.000Z</time>
      </trkpt>
      <trkpt lat="44.57516" lon="4.23298">
        <ele>523</ele>
        <time>2018-06-03T08:07:34.000Z</time>
      </trkpt>
      <trkpt lat="44.57516" lon="4.23295">
        <ele>523</ele>
        <time>2018-06-03T08:07:35.000Z</time>
      </trkpt>
      <trkpt lat="44.57515" lon="4.23292">
        <ele>523</ele>
        <time>2018-06-03T08:07:36.000Z</time>
      </trkpt>
      <trkpt lat="44.57515" lon="4.23288">
        <ele>524</ele>
        <time>2018-06-03T08:07:37.000Z</time>
      </trkpt>
      <trkpt lat="44.57515" lon="4.23284">
        <ele>524</ele>
        <time>2018-06-03T08:07:38.000Z</time>
      </trkpt>
      <trkpt lat="44.57514" lon="4.23281">
        <ele>524</ele>
        <time>2018-06-03T08:07:39.000Z</time>
      </trkpt>
      <trkpt lat="44.57514" lon="4.23278">
        <ele>523</ele>
        <time>2018-06-03T08:07:40.000Z</time>
      </trkpt>
      <trkpt lat="44.57513" lon="4.23274">
        <ele>523</ele>
        <time>2018-06-03T08:07:41.000Z</time>
      </trkpt>
      <trkpt lat="44.57513" lon="4.23271">
        <ele>523</ele>
        <time>2018-06-03T08:07:42.000Z</time>
      </trkpt>
      <trkpt lat="44.57512" lon="4.23268">
        <ele>522</ele>
        <time>2018-06-03T08:07:43.000Z</time>
      </trkpt>
      <trkpt lat="44.57512" lon="4.23265">
        <ele>522</ele>
        <time>2018-06-03T08:07:44.000Z</time>
      </trkpt>
      <trkpt lat="44.57512" lon="4.23262">
        <ele>522</ele>
        <time>2018-06-03T08:07:45.000Z</time>
      </trkpt>
      <trkpt lat="44.57511" lon="4.23259">
        <ele>521</ele>
        <time>2018-06-03T08:07:46.000Z</time>
      </trkpt>
      <trkpt lat="44.57512" lon="4.23256">
        <ele>521</ele>
        <time>2018-06-03T08:07:47.000Z</time>
      </trkpt>
      <trkpt lat="44.57512" lon="4.23252">
        <ele>521</ele>
        <time>2018-06-03T08:07:48.000Z</time>
      </trkpt>
      <trkpt lat="44.57513" lon="4.23249">
        <ele>523</ele>
        <time>2018-06-03T08:07:49.000Z</time>
      </trkpt>
      <trkpt lat="44.57513" lon="4.23246">
        <ele>524</ele>
        <time>2018-06-03T08:07:50.000Z</time>
      </trkpt>
      <trkpt lat="44.57514" lon="4.23243">
        <ele>525</ele>
        <time>2018-06-03T08:07:51.000Z</time>
      </trkpt>
      <trkpt lat="44.57514" lon="4.2324">
        <ele>525</ele>
        <time>2018-06-03T08:07:52.000Z</time>
      </trkpt>
      <trkpt lat="44.57515" lon="4.23238">
        <ele>526</ele>
        <time>2018-06-03T08:07:53.000Z</time>
      </trkpt>
      <trkpt lat="44.57516" lon="4.23235">
        <ele>527</ele>
        <time>2018-06-03T08:07:54.000Z</time>
      </trkpt>
      <trkpt lat="44.57517" lon="4.23232">
        <ele>528</ele>
        <time>2018-06-03T08:07:55.000Z</time>
      </trkpt>
      <trkpt lat="44.57518" lon="4.23229">
        <ele>528</ele>
        <time>2018-06-03T08:07:56.000Z</time>
      </trkpt>
      <trkpt lat="44.57519" lon="4.23227">
        <ele>529</ele>
        <time>2018-06-03T08:07:57.000Z</time>
      </trkpt>
      <trkpt lat="44.5752" lon="4.23224">
        <ele>529</ele>
        <time>2018-06-03T08:07:58.000Z</time>
      </trkpt>
      <trkpt lat="44.57521" lon="4.2322">
        <ele>530</ele>
        <time>2018-06-03T08:07:59.000Z</time>
      </trkpt>
      <trkpt lat="44.57522" lon="4.23217">
        <ele>530</ele>
        <time>2018-06-03T08:08:00.000Z</time>
      </trkpt>
      <trkpt lat="44.57523" lon="4.23214">
        <ele>531</ele>
        <time>2018-06-03T08:08:01.000Z</time>
      </trkpt>
      <trkpt lat="44.57524" lon="4.23211">
        <ele>531</ele>
        <time>2018-06-03T08:08:02.000Z</time>
      </trkpt>
      <trkpt lat="44.57525" lon="4.23208">
        <ele>531</ele>
        <time>2018-06-03T08:08:03.000Z</time>
      </trkpt>
      <trkpt lat="44.57526" lon="4.23205">
        <ele>532</ele>
        <time>2018-06-03T08:08:04.000Z</time>
      </trkpt>
      <trkpt lat="44.57527" lon="4.23203">
        <ele>532</ele>
        <time>2018-06-03T08:08:05.000Z</time>
      </trkpt>
      <trkpt lat="44.57528" lon="4.232">
        <ele>532</ele>
        <time>2018-06-03T08:08:06.000Z</time>
      </trkpt>
      <trkpt lat="44.57528" lon="4.23197">
        <ele>532</ele>
        <time>2018-06-03T08:08:07.000Z</time>
      </trkpt>
      <trkpt lat="44.57529" lon="4.23194">
        <ele>532</ele>
        <time>2018-06-03T08:08:08.000Z</time>
      </trkpt>
      <trkpt lat="44.5753" lon="4.23191">
        <ele>532</ele>
        <time>2018-06-03T08:08:09.000Z</time>
      </trkpt>
      <trkpt lat="44.5753" lon="4.23188">
        <ele>532</ele>
        <time>2018-06-03T08:08:10.000Z</time>
      </trkpt>
      <trkpt lat="44.57531" lon="4.23185">
        <ele>532</ele>
        <time>2018-06-03T08:08:11.000Z</time>
      </trkpt>
      <trkpt lat="44.57532" lon="4.23182">
        <ele>533</ele>
        <time>2018-06-03T08:08:12.000Z</time>
      </trkpt>
      <trkpt lat="44.57533" lon="4.23179">
        <ele>533</ele>
        <time>2018-06-03T08:08:13.000Z</time>
      </trkpt>
      <trkpt lat="44.57534" lon="4.23176">
        <ele>533</ele>
        <time>2018-06-03T08:08:14.000Z</time>
      </trkpt>
      <trkpt lat="44.57534" lon="4.23172">
        <ele>533</ele>
        <time>2018-06-03T08:08:15.000Z</time>
      </trkpt>
      <trkpt lat="44.57535" lon="4.23169">
        <ele>534</ele>
        <time>2018-06-03T08:08:16.000Z</time>
      </trkpt>
      <trkpt lat="44.57536" lon="4.23166">
        <ele>538</ele>
        <time>2018-06-03T08:08:17.000Z</time>
      </trkpt>
      <trkpt lat="44.57537" lon="4.23163">
        <ele>539</ele>
        <time>2018-06-03T08:08:18.000Z</time>
      </trkpt>
      <trkpt lat="44.57537" lon="4.23159">
        <ele>539</ele>
        <time>2018-06-03T08:08:19.000Z</time>
      </trkpt>
      <trkpt lat="44.57537" lon="4.23156">
        <ele>539</ele>
        <time>2018-06-03T08:08:20.000Z</time>
      </trkpt>
      <trkpt lat="44.57536" lon="4.23153">
        <ele>539</ele>
        <time>2018-06-03T08:08:21.000Z</time>
      </trkpt>
      <trkpt lat="44.57535" lon="4.23151">
        <ele>539</ele>
        <time>2018-06-03T08:08:22.000Z</time>
      </trkpt>
      <trkpt lat="44.57533" lon="4.23149">
        <ele>538</ele>
        <time>2018-06-03T08:08:23.000Z</time>
      </trkpt>
      <trkpt lat="44.57531" lon="4.23147">
        <ele>538</ele>
        <time>2018-06-03T08:08:24.000Z</time>
      </trkpt>
      <trkpt lat="44.57529" lon="4.23145">
        <ele>538</ele>
        <time>2018-06-03T08:08:25.000Z</time>
      </trkpt>
      <trkpt lat="44.57527" lon="4.23144">
        <ele>537</ele>
        <time>2018-06-03T08:08:26.000Z</time>
      </trkpt>
      <trkpt lat="44.57525" lon="4.23142">
        <ele>537</ele>
        <time>2018-06-03T08:08:27.000Z</time>
      </trkpt>
      <trkpt lat="44.57523" lon="4.2314">
        <ele>537</ele>
        <time>2018-06-03T08:08:28.000Z</time>
      </trkpt>
      <trkpt lat="44.57521" lon="4.23138">
        <ele>537</ele>
        <time>2018-06-03T08:08:29.000Z</time>
      </trkpt>
      <trkpt lat="44.57519" lon="4.23136">
        <ele>537</ele>
        <time>2018-06-03T08:08:30.000Z</time>
      </trkpt>
      <trkpt lat="44.57517" lon="4.23134">
        <ele>537</ele>
        <time>2018-06-03T08:08:31.000Z</time>
      </trkpt>
      <trkpt lat="44.57515" lon="4.23131">
        <ele>537</ele>
        <time>2018-06-03T08:08:32.000Z</time>
      </trkpt>
      <trkpt lat="44.57513" lon="4.23128">
        <ele>537</ele>
        <time>2018-06-03T08:08:33.000Z</time>
      </trkpt>
      <trkpt lat="44.57512" lon="4.23125">
        <ele>537</ele>
        <time>2018-06-03T08:08:34.000Z</time>
      </trkpt>
      <trkpt lat="44.57511" lon="4.23123">
        <ele>537</ele>
        <time>2018-06-03T08:08:35.000Z</time>
      </trkpt>
      <trkpt lat="44.5751" lon="4.2312">
        <ele>537</ele>
        <time>2018-06-03T08:08:36.000Z</time>
      </trkpt>
      <trkpt lat="44.57509" lon="4.23117">
        <ele>537</ele>
        <time>2018-06-03T08:08:37.000Z</time>
      </trkpt>
      <trkpt lat="44.57508" lon="4.23114">
        <ele>537</ele>
        <time>2018-06-03T08:08:38.000Z</time>
      </trkpt>
      <trkpt lat="44.57507" lon="4.23111">
        <ele>537</ele>
        <time>2018-06-03T08:08:39.000Z</time>
      </trkpt>
      <trkpt lat="44.57507" lon="4.23108">
        <ele>537</ele>
        <time>2018-06-03T08:08:40.000Z</time>
      </trkpt>
      <trkpt lat="44.57506" lon="4.23105">
        <ele>537</ele>
        <time>2018-06-03T08:08:41.000Z</time>
      </trkpt>
      <trkpt lat="44.57506" lon="4.23102">
        <ele>536</ele>
        <time>2018-06-03T08:08:42.000Z</time>
      </trkpt>
      <trkpt lat="44.57505" lon="4.23099">
        <ele>536</ele>
        <time>2018-06-03T08:08:43.000Z</time>
      </trkpt>
      <trkpt lat="44.57505" lon="4.23095">
        <ele>536</ele>
        <time>2018-06-03T08:08:44.000Z</time>
      </trkpt>
      <trkpt lat="44.57505" lon="4.23092">
        <ele>535</ele>
        <time>2018-06-03T08:08:45.000Z</time>
      </trkpt>
      <trkpt lat="44.57504" lon="4.23089">
        <ele>534</ele>
        <time>2018-06-03T08:08:46.000Z</time>
      </trkpt>
      <trkpt lat="44.57504" lon="4.23085">
        <ele>534</ele>
        <time>2018-06-03T08:08:47.000Z</time>
      </trkpt>
      <trkpt lat="44.57505" lon="4.23082">
        <ele>535</ele>
        <time>2018-06-03T08:08:48.000Z</time>
      </trkpt>
      <trkpt lat="44.57505" lon="4.23079">
        <ele>536</ele>
        <time>2018-06-03T08:08:49.000Z</time>
      </trkpt>
      <trkpt lat="44.57505" lon="4.23075">
        <ele>537</ele>
        <time>2018-06-03T08:08:50.000Z</time>
      </trkpt>
      <trkpt lat="44.57505" lon="4.23072">
        <ele>539</ele>
        <time>2018-06-03T08:08:51.000Z</time>
      </trkpt>
      <trkpt lat="44.57506" lon="4.23068">
        <ele>540</ele>
        <time>2018-06-03T08:08:52.000Z</time>
      </trkpt>
      <trkpt lat="44.57506" lon="4.23065">
        <ele>541</ele>
        <time>2018-06-03T08:08:53.000Z</time>
      </trkpt>
      <trkpt lat="44.57507" lon="4.23061">
        <ele>542</ele>
        <time>2018-06-03T08:08:54.000Z</time>
      </trkpt>
      <trkpt lat="44.57508" lon="4.23057">
        <ele>542</ele>
        <time>2018-06-03T08:08:55.000Z</time>
      </trkpt>
      <trkpt lat="44.57508" lon="4.23054">
        <ele>543</ele>
        <time>2018-06-03T08:08:56.000Z</time>
      </trkpt>
      <trkpt lat="44.57509" lon="4.2305">
        <ele>543</ele>
        <time>2018-06-03T08:08:57.000Z</time>
      </trkpt>
      <trkpt lat="44.57509" lon="4.23047">
        <ele>544</ele>
        <time>2018-06-03T08:08:58.000Z</time>
      </trkpt>
      <trkpt lat="44.5751" lon="4.23043">
        <ele>544</ele>
        <time>2018-06-03T08:08:59.000Z</time>
      </trkpt>
      <trkpt lat="44.5751" lon="4.23039">
        <ele>544</ele>
        <time>2018-06-03T08:09:00.000Z</time>
      </trkpt>
      <trkpt lat="44.57511" lon="4.23035">
        <ele>544</ele>
        <time>2018-06-03T08:09:01.000Z</time>
      </trkpt>
      <trkpt lat="44.57511" lon="4.23032">
        <ele>544</ele>
        <time>2018-06-03T08:09:02.000Z</time>
      </trkpt>
      <trkpt lat="44.57512" lon="4.23028">
        <ele>544</ele>
        <time>2018-06-03T08:09:03.000Z</time>
      </trkpt>
      <trkpt lat="44.57512" lon="4.23025">
        <ele>543</ele>
        <time>2018-06-03T08:09:04.000Z</time>
      </trkpt>
      <trkpt lat="44.57513" lon="4.23021">
        <ele>543</ele>
        <time>2018-06-03T08:09:05.000Z</time>
      </trkpt>
      <trkpt lat="44.57513" lon="4.23018">
        <ele>543</ele>
        <time>2018-06-03T08:09:06.000Z</time>
      </trkpt>
      <trkpt lat="44.57513" lon="4.23014">
        <ele>542</ele>
        <time>2018-06-03T08:09:07.000Z</time>
      </trkpt>
      <trkpt lat="44.57513" lon="4.23011">
        <ele>542</ele>
        <time>2018-06-03T08:09:08.000Z</time>
      </trkpt>
      <trkpt lat="44.57514" lon="4.23008">
        <ele>541</ele>
        <time>2018-06-03T08:09:09.000Z</time>
      </trkpt>
      <trkpt lat="44.57514" lon="4.23005">
        <ele>541</ele>
        <time>2018-06-03T08:09:10.000Z</time>
      </trkpt>
      <trkpt lat="44.57514" lon="4.23002">
        <ele>540</ele>
        <time>2018-06-03T08:09:11.000Z</time>
      </trkpt>
      <trkpt lat="44.57514" lon="4.22998">
        <ele>542</ele>
        <time>2018-06-03T08:09:12.000Z</time>
      </trkpt>
      <trkpt lat="44.57515" lon="4.22996">
        <ele>542</ele>
        <time>2018-06-03T08:09:13.000Z</time>
      </trkpt>
      <trkpt lat="44.57515" lon="4.22993">
        <ele>543</ele>
        <time>2018-06-03T08:09:14.000Z</time>
      </trkpt>
      <trkpt lat="44.57516" lon="4.2299">
        <ele>543</ele>
        <time>2018-06-03T08:09:15.000Z</time>
      </trkpt>
      <trkpt lat="44.57517" lon="4.22987">
        <ele>544</ele>
        <time>2018-06-03T08:09:16.000Z</time>
      </trkpt>
      <trkpt lat="44.57517" lon="4.22984">
        <ele>545</ele>
        <time>2018-06-03T08:09:17.000Z</time>
      </trkpt>
      <trkpt lat="44.57517" lon="4.22981">
        <ele>545</ele>
        <time>2018-06-03T08:09:18.000Z</time>
      </trkpt>
      <trkpt lat="44.57518" lon="4.22978">
        <ele>546</ele>
        <time>2018-06-03T08:09:19.000Z</time>
      </trkpt>
      <trkpt lat="44.57518" lon="4.22975">
        <ele>546</ele>
        <time>2018-06-03T08:09:20.000Z</time>
      </trkpt>
      <trkpt lat="44.57519" lon="4.22972">
        <ele>547</ele>
        <time>2018-06-03T08:09:21.000Z</time>
      </trkpt>
      <trkpt lat="44.5752" lon="4.22969">
        <ele>547</ele>
        <time>2018-06-03T08:09:22.000Z</time>
      </trkpt>
      <trkpt lat="44.5752" lon="4.22966">
        <ele>547</ele>
        <time>2018-06-03T08:09:23.000Z</time>
      </trkpt>
      <trkpt lat="44.5752" lon="4.22963">
        <ele>548</ele>
        <time>2018-06-03T08:09:24.000Z</time>
      </trkpt>
      <trkpt lat="44.57521" lon="4.22961">
        <ele>548</ele>
        <time>2018-06-03T08:09:25.000Z</time>
      </trkpt>
      <trkpt lat="44.57521" lon="4.22958">
        <ele>548</ele>
        <time>2018-06-03T08:09:26.000Z</time>
      </trkpt>
      <trkpt lat="44.57521" lon="4.22956">
        <ele>548</ele>
        <time>2018-06-03T08:09:27.000Z</time>
      </trkpt>
      <trkpt lat="44.57522" lon="4.22953">
        <ele>548</ele>
        <time>2018-06-03T08:09:28.000Z</time>
      </trkpt>
      <trkpt lat="44.57522" lon="4.2295">
        <ele>548</ele>
        <time>2018-06-03T08:09:29.000Z</time>
      </trkpt>
      <trkpt lat="44.57523" lon="4.22947">
        <ele>548</ele>
        <time>2018-06-03T08:09:30.000Z</time>
      </trkpt>
      <trkpt lat="44.57523" lon="4.22945">
        <ele>548</ele>
        <time>2018-06-03T08:09:31.000Z</time>
      </trkpt>
      <trkpt lat="44.57523" lon="4.22942">
        <ele>548</ele>
        <time>2018-06-03T08:09:32.000Z</time>
      </trkpt>
      <trkpt lat="44.57524" lon="4.22939">
        <ele>548</ele>
        <time>2018-06-03T08:09:33.000Z</time>
      </trkpt>
      <trkpt lat="44.57524" lon="4.22936">
        <ele>547</ele>
        <time>2018-06-03T08:09:34.000Z</time>
      </trkpt>
      <trkpt lat="44.57525" lon="4.22934">
        <ele>547</ele>
        <time>2018-06-03T08:09:35.000Z</time>
      </trkpt>
      <trkpt lat="44.57525" lon="4.22931">
        <ele>547</ele>
        <time>2018-06-03T08:09:36.000Z</time>
      </trkpt>
      <trkpt lat="44.57525" lon="4.22928">
        <ele>547</ele>
        <time>2018-06-03T08:09:37.000Z</time>
      </trkpt>
      <trkpt lat="44.57525" lon="4.22925">
        <ele>547</ele>
        <time>2018-06-03T08:09:38.000Z</time>
      </trkpt>
      <trkpt lat="44.57526" lon="4.22922">
        <ele>547</ele>
        <time>2018-06-03T08:09:39.000Z</time>
      </trkpt>
      <trkpt lat="44.57526" lon="4.22919">
        <ele>547</ele>
        <time>2018-06-03T08:09:40.000Z</time>
      </trkpt>
      <trkpt lat="44.57526" lon="4.22916">
        <ele>545</ele>
        <time>2018-06-03T08:09:41.000Z</time>
      </trkpt>
      <trkpt lat="44.57527" lon="4.22913">
        <ele>545</ele>
        <time>2018-06-03T08:09:42.000Z</time>
      </trkpt>
      <trkpt lat="44.57527" lon="4.22909">
        <ele>545</ele>
        <time>2018-06-03T08:09:43.000Z</time>
      </trkpt>
      <trkpt lat="44.57527" lon="4.22906">
        <ele>545</ele>
        <time>2018-06-03T08:09:44.000Z</time>
      </trkpt>
      <trkpt lat="44.57528" lon="4.22903">
        <ele>545</ele>
        <time>2018-06-03T08:09:45.000Z</time>
      </trkpt>
      <trkpt lat="44.57528" lon="4.22901">
        <ele>545</ele>
        <time>2018-06-03T08:09:46.000Z</time>
      </trkpt>
      <trkpt lat="44.57529" lon="4.22898">
        <ele>546</ele>
        <time>2018-06-03T08:09:47.000Z</time>
      </trkpt>
      <trkpt lat="44.5753" lon="4.22895">
        <ele>546</ele>
        <time>2018-06-03T08:09:48.000Z</time>
      </trkpt>
      <trkpt lat="44.5753" lon="4.22893">
        <ele>546</ele>
        <time>2018-06-03T08:09:49.000Z</time>
      </trkpt>
      <trkpt lat="44.57531" lon="4.2289">
        <ele>546</ele>
        <time>2018-06-03T08:09:50.000Z</time>
      </trkpt>
      <trkpt lat="44.57531" lon="4.22887">
        <ele>546</ele>
        <time>2018-06-03T08:09:51.000Z</time>
      </trkpt>
      <trkpt lat="44.5753" lon="4.22885">
        <ele>546</ele>
        <time>2018-06-03T08:09:52.000Z</time>
      </trkpt>
      <trkpt lat="44.57529" lon="4.22883">
        <ele>546</ele>
        <time>2018-06-03T08:09:53.000Z</time>
      </trkpt>
      <trkpt lat="44.57527" lon="4.22881">
        <ele>545</ele>
        <time>2018-06-03T08:09:54.000Z</time>
      </trkpt>
      <trkpt lat="44.57526" lon="4.22879">
        <ele>545</ele>
        <time>2018-06-03T08:09:55.000Z</time>
      </trkpt>
      <trkpt lat="44.57524" lon="4.22877">
        <ele>545</ele>
        <time>2018-06-03T08:09:56.000Z</time>
      </trkpt>
      <trkpt lat="44.57523" lon="4.22875">
        <ele>544</ele>
        <time>2018-06-03T08:09:57.000Z</time>
      </trkpt>
      <trkpt lat="44.57521" lon="4.22873">
        <ele>544</ele>
        <time>2018-06-03T08:09:58.000Z</time>
      </trkpt>
      <trkpt lat="44.5752" lon="4.22871">
        <ele>544</ele>
        <time>2018-06-03T08:09:59.000Z</time>
      </trkpt>
      <trkpt lat="44.5752" lon="4.22868">
        <ele>544</ele>
        <time>2018-06-03T08:10:00.000Z</time>
      </trkpt>
      <trkpt lat="44.57519" lon="4.22864">
        <ele>543</ele>
        <time>2018-06-03T08:10:01.000Z</time>
      </trkpt>
      <trkpt lat="44.57519" lon="4.22859">
        <ele>542</ele>
        <time>2018-06-03T08:10:02.000Z</time>
      </trkpt>
      <trkpt lat="44.57519" lon="4.22852">
        <ele>542</ele>
        <time>2018-06-03T08:10:03.000Z</time>
      </trkpt>
      <trkpt lat="44.5752" lon="4.22846">
        <ele>541</ele>
        <time>2018-06-03T08:10:04.000Z</time>
      </trkpt>
      <trkpt lat="44.5752" lon="4.22841">
        <ele>540</ele>
        <time>2018-06-03T08:10:05.000Z</time>
      </trkpt>
      <trkpt lat="44.5752" lon="4.22835">
        <ele>540</ele>
        <time>2018-06-03T08:10:06.000Z</time>
      </trkpt>
      <trkpt lat="44.5752" lon="4.22828">
        <ele>535</ele>
        <time>2018-06-03T08:10:07.000Z</time>
      </trkpt>
      <trkpt lat="44.5752" lon="4.22821">
        <ele>535</ele>
        <time>2018-06-03T08:10:08.000Z</time>
      </trkpt>
      <trkpt lat="44.5752" lon="4.22815">
        <ele>535</ele>
        <time>2018-06-03T08:10:09.000Z</time>
      </trkpt>
      <trkpt lat="44.57521" lon="4.2281">
        <ele>535</ele>
        <time>2018-06-03T08:10:10.000Z</time>
      </trkpt>
      <trkpt lat="44.57521" lon="4.22806">
        <ele>535</ele>
        <time>2018-06-03T08:10:11.000Z</time>
      </trkpt>
      <trkpt lat="44.57522" lon="4.22801">
        <ele>535</ele>
        <time>2018-06-03T08:10:12.000Z</time>
      </trkpt>
      <trkpt lat="44.57523" lon="4.22795">
        <ele>535</ele>
        <time>2018-06-03T08:10:13.000Z</time>
      </trkpt>
      <trkpt lat="44.57524" lon="4.2279">
        <ele>535</ele>
        <time>2018-06-03T08:10:14.000Z</time>
      </trkpt>
      <trkpt lat="44.57524" lon="4.22784">
        <ele>534</ele>
        <time>2018-06-03T08:10:15.000Z</time>
      </trkpt>
      <trkpt lat="44.57524" lon="4.22779">
        <ele>534</ele>
        <time>2018-06-03T08:10:16.000Z</time>
      </trkpt>
      <trkpt lat="44.57525" lon="4.22773">
        <ele>533</ele>
        <time>2018-06-03T08:10:17.000Z</time>
      </trkpt>
      <trkpt lat="44.57525" lon="4.22768">
        <ele>532</ele>
        <time>2018-06-03T08:10:18.000Z</time>
      </trkpt>
      <trkpt lat="44.57525" lon="4.22763">
        <ele>532</ele>
        <time>2018-06-03T08:10:19.000Z</time>
      </trkpt>
      <trkpt lat="44.57524" lon="4.22759">
        <ele>531</ele>
        <time>2018-06-03T08:10:20.000Z</time>
      </trkpt>
      <trkpt lat="44.57522" lon="4.22754">
        <ele>530</ele>
        <time>2018-06-03T08:10:21.000Z</time>
      </trkpt>
      <trkpt lat="44.57521" lon="4.2275">
        <ele>529</ele>
        <time>2018-06-03T08:10:22.000Z</time>
      </trkpt>
      <trkpt lat="44.5752" lon="4.22745">
        <ele>528</ele>
        <time>2018-06-03T08:10:23.000Z</time>
      </trkpt>
      <trkpt lat="44.57518" lon="4.22741">
        <ele>528</ele>
        <time>2018-06-03T08:10:24.000Z</time>
      </trkpt>
      <trkpt lat="44.57517" lon="4.22737">
        <ele>529</ele>
        <time>2018-06-03T08:10:25.000Z</time>
      </trkpt>
      <trkpt lat="44.57516" lon="4.22734">
        <ele>529</ele>
        <time>2018-06-03T08:10:26.000Z</time>
      </trkpt>
      <trkpt lat="44.57517" lon="4.22732">
        <ele>529</ele>
        <time>2018-06-03T08:10:27.000Z</time>
      </trkpt>
      <trkpt lat="44.57517" lon="4.22729">
        <ele>530</ele>
        <time>2018-06-03T08:10:28.000Z</time>
      </trkpt>
      <trkpt lat="44.57516" lon="4.22726">
        <ele>530</ele>
        <time>2018-06-03T08:10:29.000Z</time>
      </trkpt>
      <trkpt lat="44.57515" lon="4.22723">
        <ele>530</ele>
        <time>2018-06-03T08:10:30.000Z</time>
      </trkpt>
      <trkpt lat="44.57514" lon="4.22722">
        <ele>530</ele>
        <time>2018-06-03T08:10:31.000Z</time>
      </trkpt>
      <trkpt lat="44.57513" lon="4.2272">
        <ele>531</ele>
        <time>2018-06-03T08:10:32.000Z</time>
      </trkpt>
      <trkpt lat="44.57513" lon="4.22718">
        <ele>531</ele>
        <time>2018-06-03T08:10:33.000Z</time>
      </trkpt>
      <trkpt lat="44.57513" lon="4.22717">
        <ele>531</ele>
        <time>2018-06-03T08:10:34.000Z</time>
      </trkpt>
      <trkpt lat="44.57513" lon="4.22717">
        <ele>531</ele>
        <time>2018-06-03T08:10:35.000Z</time>
      </trkpt>
      <trkpt lat="44.57513" lon="4.22717">
        <ele>531</ele>
        <time>2018-06-03T08:10:36.000Z</time>
      </trkpt>
      <trkpt lat="44.57513" lon="4.22717">
        <ele>531</ele>
        <time>2018-06-03T08:10:37.000Z</time>
      </trkpt>
      <trkpt lat="44.57513" lon="4.22716">
        <ele>531</ele>
        <time>2018-06-03T08:10:38.000Z</time>
      </trkpt>
      <trkpt lat="44.57512" lon="4.22715">
        <ele>531</ele>
        <time>2018-06-03T08:10:39.000Z</time>
      </trkpt>
      <trkpt lat="44.57512" lon="4.22714">
        <ele>531</ele>
        <time>2018-06-03T08:10:40.000Z</time>
      </trkpt>
      <trkpt lat="44.57511" lon="4.22714">
        <ele>531</ele>
        <time>2018-06-03T08:10:41.000Z</time>
      </trkpt>
      <trkpt lat="44.57511" lon="4.22713">
        <ele>531</ele>
        <time>2018-06-03T08:10:42.000Z</time>
      </trkpt>
      <trkpt lat="44.5751" lon="4.22711">
        <ele>531</ele>
        <time>2018-06-03T08:10:43.000Z</time>
      </trkpt>
      <trkpt lat="44.5751" lon="4.2271">
        <ele>531</ele>
        <time>2018-06-03T08:10:44.000Z</time>
      </trkpt>
      <trkpt lat="44.5751" lon="4.22709">
        <ele>531</ele>
        <time>2018-06-03T08:10:45.000Z</time>
      </trkpt>
      <trkpt lat="44.57509" lon="4.22708">
        <ele>532</ele>
        <time>2018-06-03T08:10:46.000Z</time>
      </trkpt>
      <trkpt lat="44.57509" lon="4.22707">
        <ele>532</ele>
        <time>2018-06-03T08:10:47.000Z</time>
      </trkpt>
      <trkpt lat="44.57509" lon="4.22706">
        <ele>532</ele>
        <time>2018-06-03T08:10:48.000Z</time>
      </trkpt>
      <trkpt lat="44.57509" lon="4.22705">
        <ele>532</ele>
        <time>2018-06-03T08:10:49.000Z</time>
      </trkpt>
      <trkpt lat="44.57508" lon="4.22704">
        <ele>532</ele>
        <time>2018-06-03T08:10:50.000Z</time>
      </trkpt>
      <trkpt lat="44.57508" lon="4.22704">
        <ele>532</ele>
        <time>2018-06-03T08:10:51.000Z</time>
      </trkpt>
      <trkpt lat="44.57508" lon="4.22703">
        <ele>532</ele>
        <time>2018-06-03T08:10:52.000Z</time>
      </trkpt>
      <trkpt lat="44.57507" lon="4.22702">
        <ele>532</ele>
        <time>2018-06-03T08:10:53.000Z</time>
      </trkpt>
      <trkpt lat="44.57507" lon="4.22701">
        <ele>532</ele>
        <time>2018-06-03T08:10:54.000Z</time>
      </trkpt>
      <trkpt lat="44.57507" lon="4.22701">
        <ele>532</ele>
        <time>2018-06-03T08:10:55.000Z</time>
      </trkpt>
      <trkpt lat="44.57507" lon="4.22701">
        <ele>532</ele>
        <time>2018-06-03T08:10:56.000Z</time>
      </trkpt>
      <trkpt lat="44.57507" lon="4.22699">
        <ele>532</ele>
        <time>2018-06-03T08:10:57.000Z</time>
      </trkpt>
      <trkpt lat="44.57507" lon="4.22698">
        <ele>532</ele>
        <time>2018-06-03T08:10:58.000Z</time>
      </trkpt>
      <trkpt lat="44.57506" lon="4.22696">
        <ele>532</ele>
        <time>2018-06-03T08:10:59.000Z</time>
      </trkpt>
      <trkpt lat="44.57506" lon="4.22695">
        <ele>532</ele>
        <time>2018-06-03T08:11:00.000Z</time>
      </trkpt>
      <trkpt lat="44.57505" lon="4.22694">
        <ele>532</ele>
        <time>2018-06-03T08:11:01.000Z</time>
      </trkpt>
      <trkpt lat="44.57505" lon="4.22693">
        <ele>532</ele>
        <time>2018-06-03T08:11:02.000Z</time>
      </trkpt>
      <trkpt lat="44.57504" lon="4.22693">
        <ele>532</ele>
        <time>2018-06-03T08:11:03.000Z</time>
      </trkpt>
      <trkpt lat="44.57503" lon="4.22692">
        <ele>532</ele>
        <time>2018-06-03T08:11:04.000Z</time>
      </trkpt>
      <trkpt lat="44.57502" lon="4.2269">
        <ele>532</ele>
        <time>2018-06-03T08:11:05.000Z</time>
      </trkpt>
      <trkpt lat="44.57502" lon="4.22689">
        <ele>532</ele>
        <time>2018-06-03T08:11:06.000Z</time>
      </trkpt>
      <trkpt lat="44.57502" lon="4.22689">
        <ele>532</ele>
        <time>2018-06-03T08:11:07.000Z</time>
      </trkpt>
      <trkpt lat="44.57502" lon="4.22688">
        <ele>532</ele>
        <time>2018-06-03T08:11:08.000Z</time>
      </trkpt>
      <trkpt lat="44.57502" lon="4.22687">
        <ele>532</ele>
        <time>2018-06-03T08:11:09.000Z</time>
      </trkpt>
      <trkpt lat="44.57502" lon="4.22686">
        <ele>532</ele>
        <time>2018-06-03T08:11:10.000Z</time>
      </trkpt>
      <trkpt lat="44.57502" lon="4.22685">
        <ele>532</ele>
        <time>2018-06-03T08:11:11.000Z</time>
      </trkpt>
      <trkpt lat="44.57502" lon="4.22684">
        <ele>532</ele>
        <time>2018-06-03T08:11:12.000Z</time>
      </trkpt>
      <trkpt lat="44.57502" lon="4.22682">
        <ele>532</ele>
        <time>2018-06-03T08:11:13.000Z</time>
      </trkpt>
      <trkpt lat="44.57502" lon="4.22681">
        <ele>532</ele>
        <time>2018-06-03T08:11:14.000Z</time>
      </trkpt>
      <trkpt lat="44.57502" lon="4.2268">
        <ele>532</ele>
        <time>2018-06-03T08:11:15.000Z</time>
      </trkpt>
      <trkpt lat="44.57501" lon="4.2268">
        <ele>532</ele>
        <time>2018-06-03T08:11:16.000Z</time>
      </trkpt>
      <trkpt lat="44.57501" lon="4.2268">
        <ele>532</ele>
        <time>2018-06-03T08:11:17.000Z</time>
      </trkpt>
      <trkpt lat="44.575" lon="4.2268">
        <ele>532</ele>
        <time>2018-06-03T08:11:18.000Z</time>
      </trkpt>
      <trkpt lat="44.575" lon="4.2268">
        <ele>525</ele>
        <time>2018-06-03T08:11:19.000Z</time>
      </trkpt>
      <trkpt lat="44.57499" lon="4.22679">
        <ele>525</ele>
        <time>2018-06-03T08:11:20.000Z</time>
      </trkpt>
      <trkpt lat="44.57498" lon="4.22678">
        <ele>525</ele>
        <time>2018-06-03T08:11:21.000Z</time>
      </trkpt>
      <trkpt lat="44.57497" lon="4.22677">
        <ele>525</ele>
        <time>2018-06-03T08:11:22.000Z</time>
      </trkpt>
      <trkpt lat="44.57496" lon="4.22677">
        <ele>525</ele>
        <time>2018-06-03T08:11:23.000Z</time>
      </trkpt>
      <trkpt lat="44.57495" lon="4.22677">
        <ele>525</ele>
        <time>2018-06-03T08:11:24.000Z</time>
      </trkpt>
      <trkpt lat="44.57495" lon="4.22677">
        <ele>525</ele>
        <time>2018-06-03T08:11:25.000Z</time>
      </trkpt>
      <trkpt lat="44.57494" lon="4.22676">
        <ele>525</ele>
        <time>2018-06-03T08:11:26.000Z</time>
      </trkpt>
      <trkpt lat="44.57494" lon="4.22676">
        <ele>525</ele>
        <time>2018-06-03T08:11:27.000Z</time>
      </trkpt>
      <trkpt lat="44.57494" lon="4.22676">
        <ele>525</ele>
        <time>2018-06-03T08:11:28.000Z</time>
      </trkpt>
      <trkpt lat="44.57494" lon="4.22676">
        <ele>525</ele>
        <time>2018-06-03T08:11:29.000Z</time>
      </trkpt>
      <trkpt lat="44.57494" lon="4.22677">
        <ele>525</ele>
        <time>2018-06-03T08:11:30.000Z</time>
      </trkpt>
      <trkpt lat="44.57493" lon="4.22676">
        <ele>525</ele>
        <time>2018-06-03T08:11:31.000Z</time>
      </trkpt>
      <trkpt lat="44.57492" lon="4.22675">
        <ele>525</ele>
        <time>2018-06-03T08:11:32.000Z</time>
      </trkpt>
      <trkpt lat="44.57491" lon="4.22674">
        <ele>525</ele>
        <time>2018-06-03T08:11:33.000Z</time>
      </trkpt>
      <trkpt lat="44.5749" lon="4.22672">
        <ele>525</ele>
        <time>2018-06-03T08:11:34.000Z</time>
      </trkpt>
      <trkpt lat="44.57488" lon="4.22671">
        <ele>525</ele>
        <time>2018-06-03T08:11:35.000Z</time>
      </trkpt>
      <trkpt lat="44.57487" lon="4.2267">
        <ele>524</ele>
        <time>2018-06-03T08:11:36.000Z</time>
      </trkpt>
      <trkpt lat="44.57486" lon="4.22669">
        <ele>524</ele>
        <time>2018-06-03T08:11:37.000Z</time>
      </trkpt>
      <trkpt lat="44.57484" lon="4.22667">
        <ele>524</ele>
        <time>2018-06-03T08:11:38.000Z</time>
      </trkpt>
      <trkpt lat="44.57483" lon="4.22667">
        <ele>530</ele>
        <time>2018-06-03T08:11:39.000Z</time>
      </trkpt>
      <trkpt lat="44.57481" lon="4.22666">
        <ele>529</ele>
        <time>2018-06-03T08:11:40.000Z</time>
      </trkpt>
      <trkpt lat="44.5748" lon="4.22665">
        <ele>529</ele>
        <time>2018-06-03T08:11:41.000Z</time>
      </trkpt>
      <trkpt lat="44.57478" lon="4.22663">
        <ele>529</ele>
        <time>2018-06-03T08:11:42.000Z</time>
      </trkpt>
      <trkpt lat="44.57477" lon="4.22662">
        <ele>529</ele>
        <time>2018-06-03T08:11:43.000Z</time>
      </trkpt>
      <trkpt lat="44.57475" lon="4.22661">
        <ele>529</ele>
        <time>2018-06-03T08:11:44.000Z</time>
      </trkpt>
      <trkpt lat="44.57474" lon="4.2266">
        <ele>529</ele>
        <time>2018-06-03T08:11:45.000Z</time>
      </trkpt>
      <trkpt lat="44.57473" lon="4.22658">
        <ele>529</ele>
        <time>2018-06-03T08:11:46.000Z</time>
      </trkpt>
      <trkpt lat="44.57471" lon="4.22655">
        <ele>529</ele>
        <time>2018-06-03T08:11:47.000Z</time>
      </trkpt>
      <trkpt lat="44.5747" lon="4.22653">
        <ele>529</ele>
        <time>2018-06-03T08:11:48.000Z</time>
      </trkpt>
      <trkpt lat="44.57468" lon="4.22651">
        <ele>529</ele>
        <time>2018-06-03T08:11:49.000Z</time>
      </trkpt>
      <trkpt lat="44.57466" lon="4.2265">
        <ele>529</ele>
        <time>2018-06-03T08:11:50.000Z</time>
      </trkpt>
      <trkpt lat="44.57464" lon="4.22648">
        <ele>529</ele>
        <time>2018-06-03T08:11:51.000Z</time>
      </trkpt>
      <trkpt lat="44.57462" lon="4.22647">
        <ele>528</ele>
        <time>2018-06-03T08:11:52.000Z</time>
      </trkpt>
      <trkpt lat="44.57459" lon="4.22645">
        <ele>528</ele>
        <time>2018-06-03T08:11:53.000Z</time>
      </trkpt>
      <trkpt lat="44.57456" lon="4.22644">
        <ele>528</ele>
        <time>2018-06-03T08:11:54.000Z</time>
      </trkpt>
      <trkpt lat="44.57454" lon="4.22642">
        <ele>528</ele>
        <time>2018-06-03T08:11:55.000Z</time>
      </trkpt>
      <trkpt lat="44.57451" lon="4.2264">
        <ele>527</ele>
        <time>2018-06-03T08:11:56.000Z</time>
      </trkpt>
      <trkpt lat="44.57447" lon="4.22639">
        <ele>527</ele>
        <time>2018-06-03T08:11:57.000Z</time>
      </trkpt>
      <trkpt lat="44.57444" lon="4.22637">
        <ele>527</ele>
        <time>2018-06-03T08:11:58.000Z</time>
      </trkpt>
      <trkpt lat="44.57441" lon="4.22635">
        <ele>527</ele>
        <time>2018-06-03T08:11:59.000Z</time>
      </trkpt>
      <trkpt lat="44.57438" lon="4.22632">
        <ele>527</ele>
        <time>2018-06-03T08:12:00.000Z</time>
      </trkpt>
      <trkpt lat="44.57435" lon="4.22629">
        <ele>527</ele>
        <time>2018-06-03T08:12:01.000Z</time>
      </trkpt>
      <trkpt lat="44.57433" lon="4.22626">
        <ele>527</ele>
        <time>2018-06-03T08:12:02.000Z</time>
      </trkpt>
      <trkpt lat="44.57431" lon="4.22621">
        <ele>527</ele>
        <time>2018-06-03T08:12:03.000Z</time>
      </trkpt>
      <trkpt lat="44.5743" lon="4.22617">
        <ele>527</ele>
        <time>2018-06-03T08:12:04.000Z</time>
      </trkpt>
      <trkpt lat="44.57429" lon="4.22613">
        <ele>528</ele>
        <time>2018-06-03T08:12:05.000Z</time>
      </trkpt>
      <trkpt lat="44.57428" lon="4.22608">
        <ele>528</ele>
        <time>2018-06-03T08:12:06.000Z</time>
      </trkpt>
      <trkpt lat="44.57427" lon="4.22604">
        <ele>528</ele>
        <time>2018-06-03T08:12:07.000Z</time>
      </trkpt>
      <trkpt lat="44.57427" lon="4.22599">
        <ele>528</ele>
        <time>2018-06-03T08:12:08.000Z</time>
      </trkpt>
      <trkpt lat="44.57427" lon="4.22595">
        <ele>527</ele>
        <time>2018-06-03T08:12:09.000Z</time>
      </trkpt>
      <trkpt lat="44.57427" lon="4.2259">
        <ele>527</ele>
        <time>2018-06-03T08:12:10.000Z</time>
      </trkpt>
      <trkpt lat="44.57427" lon="4.22587">
        <ele>527</ele>
        <time>2018-06-03T08:12:11.000Z</time>
      </trkpt>
      <trkpt lat="44.57427" lon="4.22583">
        <ele>532</ele>
        <time>2018-06-03T08:12:12.000Z</time>
      </trkpt>
      <trkpt lat="44.57427" lon="4.22579">
        <ele>533</ele>
        <time>2018-06-03T08:12:13.000Z</time>
      </trkpt>
      <trkpt lat="44.57427" lon="4.22575">
        <ele>534</ele>
        <time>2018-06-03T08:12:14.000Z</time>
      </trkpt>
      <trkpt lat="44.57427" lon="4.22572">
        <ele>535</ele>
        <time>2018-06-03T08:12:15.000Z</time>
      </trkpt>
      <trkpt lat="44.57427" lon="4.22567">
        <ele>536</ele>
        <time>2018-06-03T08:12:16.000Z</time>
      </trkpt>
      <trkpt lat="44.57427" lon="4.22563">
        <ele>537</ele>
        <time>2018-06-03T08:12:17.000Z</time>
      </trkpt>
      <trkpt lat="44.57426" lon="4.22559">
        <ele>538</ele>
        <time>2018-06-03T08:12:18.000Z</time>
      </trkpt>
      <trkpt lat="44.57424" lon="4.22556">
        <ele>539</ele>
        <time>2018-06-03T08:12:19.000Z</time>
      </trkpt>
      <trkpt lat="44.57423" lon="4.22551">
        <ele>540</ele>
        <time>2018-06-03T08:12:20.000Z</time>
      </trkpt>
      <trkpt lat="44.57423" lon="4.22547">
        <ele>541</ele>
        <time>2018-06-03T08:12:21.000Z</time>
      </trkpt>
      <trkpt lat="44.57422" lon="4.22541">
        <ele>541</ele>
        <time>2018-06-03T08:12:22.000Z</time>
      </trkpt>
      <trkpt lat="44.57421" lon="4.22535">
        <ele>542</ele>
        <time>2018-06-03T08:12:23.000Z</time>
      </trkpt>
      <trkpt lat="44.57419" lon="4.22531">
        <ele>542</ele>
        <time>2018-06-03T08:12:24.000Z</time>
      </trkpt>
      <trkpt lat="44.57417" lon="4.22527">
        <ele>527</ele>
        <time>2018-06-03T08:12:25.000Z</time>
      </trkpt>
      <trkpt lat="44.57415" lon="4.22524">
        <ele>528</ele>
        <time>2018-06-03T08:12:26.000Z</time>
      </trkpt>
      <trkpt lat="44.57413" lon="4.22521">
        <ele>528</ele>
        <time>2018-06-03T08:12:27.000Z</time>
      </trkpt>
      <trkpt lat="44.57412" lon="4.22519">
        <ele>529</ele>
        <time>2018-06-03T08:12:28.000Z</time>
      </trkpt>
      <trkpt lat="44.57411" lon="4.22517">
        <ele>529</ele>
        <time>2018-06-03T08:12:29.000Z</time>
      </trkpt>
      <trkpt lat="44.57409" lon="4.22515">
        <ele>530</ele>
        <time>2018-06-03T08:12:30.000Z</time>
      </trkpt>
      <trkpt lat="44.57408" lon="4.22513">
        <ele>530</ele>
        <time>2018-06-03T08:12:31.000Z</time>
      </trkpt>
      <trkpt lat="44.57406" lon="4.22511">
        <ele>530</ele>
        <time>2018-06-03T08:12:32.000Z</time>
      </trkpt>
      <trkpt lat="44.57405" lon="4.2251">
        <ele>530</ele>
        <time>2018-06-03T08:12:33.000Z</time>
      </trkpt>
      <trkpt lat="44.57405" lon="4.22507">
        <ele>530</ele>
        <time>2018-06-03T08:12:34.000Z</time>
      </trkpt>
      <trkpt lat="44.57404" lon="4.22505">
        <ele>531</ele>
        <time>2018-06-03T08:12:35.000Z</time>
      </trkpt>
      <trkpt lat="44.57403" lon="4.22503">
        <ele>531</ele>
        <time>2018-06-03T08:12:36.000Z</time>
      </trkpt>
      <trkpt lat="44.57402" lon="4.225">
        <ele>530</ele>
        <time>2018-06-03T08:12:37.000Z</time>
      </trkpt>
      <trkpt lat="44.57401" lon="4.22499">
        <ele>536</ele>
        <time>2018-06-03T08:12:38.000Z</time>
      </trkpt>
      <trkpt lat="44.574" lon="4.22496">
        <ele>536</ele>
        <time>2018-06-03T08:12:39.000Z</time>
      </trkpt>
      <trkpt lat="44.574" lon="4.22494">
        <ele>536</ele>
        <time>2018-06-03T08:12:40.000Z</time>
      </trkpt>
      <trkpt lat="44.57399" lon="4.22492">
        <ele>536</ele>
        <time>2018-06-03T08:12:41.000Z</time>
      </trkpt>
      <trkpt lat="44.57399" lon="4.2249">
        <ele>536</ele>
        <time>2018-06-03T08:12:42.000Z</time>
      </trkpt>
      <trkpt lat="44.57399" lon="4.22487">
        <ele>536</ele>
        <time>2018-06-03T08:12:43.000Z</time>
      </trkpt>
      <trkpt lat="44.57398" lon="4.22485">
        <ele>536</ele>
        <time>2018-06-03T08:12:44.000Z</time>
      </trkpt>
      <trkpt lat="44.57398" lon="4.22483">
        <ele>536</ele>
        <time>2018-06-03T08:12:45.000Z</time>
      </trkpt>
      <trkpt lat="44.57398" lon="4.22481">
        <ele>536</ele>
        <time>2018-06-03T08:12:46.000Z</time>
      </trkpt>
      <trkpt lat="44.57397" lon="4.22479">
        <ele>536</ele>
        <time>2018-06-03T08:12:47.000Z</time>
      </trkpt>
      <trkpt lat="44.57396" lon="4.22477">
        <ele>536</ele>
        <time>2018-06-03T08:12:48.000Z</time>
      </trkpt>
      <trkpt lat="44.57396" lon="4.22475">
        <ele>537</ele>
        <time>2018-06-03T08:12:49.000Z</time>
      </trkpt>
      <trkpt lat="44.57395" lon="4.22473">
        <ele>537</ele>
        <time>2018-06-03T08:12:50.000Z</time>
      </trkpt>
      <trkpt lat="44.57394" lon="4.22472">
        <ele>537</ele>
        <time>2018-06-03T08:12:51.000Z</time>
      </trkpt>
      <trkpt lat="44.57393" lon="4.22469">
        <ele>537</ele>
        <time>2018-06-03T08:12:52.000Z</time>
      </trkpt>
      <trkpt lat="44.57392" lon="4.22467">
        <ele>537</ele>
        <time>2018-06-03T08:12:53.000Z</time>
      </trkpt>
      <trkpt lat="44.57392" lon="4.22464">
        <ele>537</ele>
        <time>2018-06-03T08:12:54.000Z</time>
      </trkpt>
      <trkpt lat="44.57392" lon="4.22461">
        <ele>538</ele>
        <time>2018-06-03T08:12:55.000Z</time>
      </trkpt>
      <trkpt lat="44.57392" lon="4.22458">
        <ele>538</ele>
        <time>2018-06-03T08:12:56.000Z</time>
      </trkpt>
      <trkpt lat="44.57392" lon="4.22456">
        <ele>538</ele>
        <time>2018-06-03T08:12:57.000Z</time>
      </trkpt>
      <trkpt lat="44.57391" lon="4.22453">
        <ele>538</ele>
        <time>2018-06-03T08:12:58.000Z</time>
      </trkpt>
      <trkpt lat="44.57391" lon="4.2245">
        <ele>539</ele>
        <time>2018-06-03T08:12:59.000Z</time>
      </trkpt>
      <trkpt lat="44.57391" lon="4.22447">
        <ele>539</ele>
        <time>2018-06-03T08:13:00.000Z</time>
      </trkpt>
      <trkpt lat="44.57391" lon="4.22444">
        <ele>540</ele>
        <time>2018-06-03T08:13:01.000Z</time>
      </trkpt>
      <trkpt lat="44.57391" lon="4.22442">
        <ele>540</ele>
        <time>2018-06-03T08:13:02.000Z</time>
      </trkpt>
      <trkpt lat="44.57391" lon="4.22439">
        <ele>540</ele>
        <time>2018-06-03T08:13:03.000Z</time>
      </trkpt>
      <trkpt lat="44.5739" lon="4.22437">
        <ele>540</ele>
        <time>2018-06-03T08:13:04.000Z</time>
      </trkpt>
      <trkpt lat="44.5739" lon="4.22434">
        <ele>541</ele>
        <time>2018-06-03T08:13:05.000Z</time>
      </trkpt>
      <trkpt lat="44.5739" lon="4.22432">
        <ele>541</ele>
        <time>2018-06-03T08:13:06.000Z</time>
      </trkpt>
      <trkpt lat="44.5739" lon="4.2243">
        <ele>541</ele>
        <time>2018-06-03T08:13:07.000Z</time>
      </trkpt>
      <trkpt lat="44.5739" lon="4.22427">
        <ele>542</ele>
        <time>2018-06-03T08:13:08.000Z</time>
      </trkpt>
      <trkpt lat="44.5739" lon="4.22424">
        <ele>542</ele>
        <time>2018-06-03T08:13:09.000Z</time>
      </trkpt>
      <trkpt lat="44.5739" lon="4.22422">
        <ele>542</ele>
        <time>2018-06-03T08:13:10.000Z</time>
      </trkpt>
      <trkpt lat="44.5739" lon="4.22419">
        <ele>542</ele>
        <time>2018-06-03T08:13:11.000Z</time>
      </trkpt>
      <trkpt lat="44.57389" lon="4.22416">
        <ele>550</ele>
        <time>2018-06-03T08:13:12.000Z</time>
      </trkpt>
      <trkpt lat="44.57388" lon="4.22414">
        <ele>550</ele>
        <time>2018-06-03T08:13:13.000Z</time>
      </trkpt>
      <trkpt lat="44.57387" lon="4.22412">
        <ele>550</ele>
        <time>2018-06-03T08:13:14.000Z</time>
      </trkpt>
      <trkpt lat="44.57385" lon="4.2241">
        <ele>549</ele>
        <time>2018-06-03T08:13:15.000Z</time>
      </trkpt>
      <trkpt lat="44.57383" lon="4.22408">
        <ele>549</ele>
        <time>2018-06-03T08:13:16.000Z</time>
      </trkpt>
      <trkpt lat="44.57381" lon="4.22406">
        <ele>549</ele>
        <time>2018-06-03T08:13:17.000Z</time>
      </trkpt>
      <trkpt lat="44.57378" lon="4.22403">
        <ele>549</ele>
        <time>2018-06-03T08:13:18.000Z</time>
      </trkpt>
      <trkpt lat="44.57376" lon="4.224">
        <ele>548</ele>
        <time>2018-06-03T08:13:19.000Z</time>
      </trkpt>
      <trkpt lat="44.57374" lon="4.22397">
        <ele>548</ele>
        <time>2018-06-03T08:13:20.000Z</time>
      </trkpt>
      <trkpt lat="44.57373" lon="4.22395">
        <ele>548</ele>
        <time>2018-06-03T08:13:21.000Z</time>
      </trkpt>
      <trkpt lat="44.57371" lon="4.22392">
        <ele>548</ele>
        <time>2018-06-03T08:13:22.000Z</time>
      </trkpt>
      <trkpt lat="44.57369" lon="4.2239">
        <ele>548</ele>
        <time>2018-06-03T08:13:23.000Z</time>
      </trkpt>
      <trkpt lat="44.57368" lon="4.22389">
        <ele>548</ele>
        <time>2018-06-03T08:13:24.000Z</time>
      </trkpt>
      <trkpt lat="44.57366" lon="4.22387">
        <ele>548</ele>
        <time>2018-06-03T08:13:25.000Z</time>
      </trkpt>
      <trkpt lat="44.57365" lon="4.22384">
        <ele>548</ele>
        <time>2018-06-03T08:13:26.000Z</time>
      </trkpt>
      <trkpt lat="44.57364" lon="4.22383">
        <ele>548</ele>
        <time>2018-06-03T08:13:27.000Z</time>
      </trkpt>
      <trkpt lat="44.57363" lon="4.22381">
        <ele>548</ele>
        <time>2018-06-03T08:13:28.000Z</time>
      </trkpt>
      <trkpt lat="44.57362" lon="4.22379">
        <ele>548</ele>
        <time>2018-06-03T08:13:29.000Z</time>
      </trkpt>
      <trkpt lat="44.57361" lon="4.22377">
        <ele>548</ele>
        <time>2018-06-03T08:13:30.000Z</time>
      </trkpt>
      <trkpt lat="44.5736" lon="4.22374">
        <ele>548</ele>
        <time>2018-06-03T08:13:31.000Z</time>
      </trkpt>
      <trkpt lat="44.57359" lon="4.22372">
        <ele>548</ele>
        <time>2018-06-03T08:13:32.000Z</time>
      </trkpt>
      <trkpt lat="44.57358" lon="4.2237">
        <ele>548</ele>
        <time>2018-06-03T08:13:33.000Z</time>
      </trkpt>
      <trkpt lat="44.57357" lon="4.22368">
        <ele>548</ele>
        <time>2018-06-03T08:13:34.000Z</time>
      </trkpt>
      <trkpt lat="44.57356" lon="4.22366">
        <ele>549</ele>
        <time>2018-06-03T08:13:35.000Z</time>
      </trkpt>
      <trkpt lat="44.57355" lon="4.22364">
        <ele>549</ele>
        <time>2018-06-03T08:13:36.000Z</time>
      </trkpt>
      <trkpt lat="44.57355" lon="4.22362">
        <ele>549</ele>
        <time>2018-06-03T08:13:37.000Z</time>
      </trkpt>
      <trkpt lat="44.57354" lon="4.2236">
        <ele>549</ele>
        <time>2018-06-03T08:13:38.000Z</time>
      </trkpt>
      <trkpt lat="44.57354" lon="4.22358">
        <ele>549</ele>
        <time>2018-06-03T08:13:39.000Z</time>
      </trkpt>
      <trkpt lat="44.57354" lon="4.22356">
        <ele>549</ele>
        <time>2018-06-03T08:13:40.000Z</time>
      </trkpt>
      <trkpt lat="44.57353" lon="4.22354">
        <ele>549</ele>
        <time>2018-06-03T08:13:41.000Z</time>
      </trkpt>
      <trkpt lat="44.57353" lon="4.22352">
        <ele>549</ele>
        <time>2018-06-03T08:13:42.000Z</time>
      </trkpt>
      <trkpt lat="44.57353" lon="4.2235">
        <ele>549</ele>
        <time>2018-06-03T08:13:43.000Z</time>
      </trkpt>
      <trkpt lat="44.57353" lon="4.22348">
        <ele>549</ele>
        <time>2018-06-03T08:13:44.000Z</time>
      </trkpt>
      <trkpt lat="44.57353" lon="4.22346">
        <ele>549</ele>
        <time>2018-06-03T08:13:45.000Z</time>
      </trkpt>
      <trkpt lat="44.57353" lon="4.22344">
        <ele>549</ele>
        <time>2018-06-03T08:13:46.000Z</time>
      </trkpt>
      <trkpt lat="44.57353" lon="4.22342">
        <ele>549</ele>
        <time>2018-06-03T08:13:47.000Z</time>
      </trkpt>
      <trkpt lat="44.57353" lon="4.2234">
        <ele>549</ele>
        <time>2018-06-03T08:13:48.000Z</time>
      </trkpt>
      <trkpt lat="44.57353" lon="4.22338">
        <ele>549</ele>
        <time>2018-06-03T08:13:49.000Z</time>
      </trkpt>
      <trkpt lat="44.57353" lon="4.22336">
        <ele>549</ele>
        <time>2018-06-03T08:13:50.000Z</time>
      </trkpt>
      <trkpt lat="44.57353" lon="4.22334">
        <ele>549</ele>
        <time>2018-06-03T08:13:51.000Z</time>
      </trkpt>
      <trkpt lat="44.57353" lon="4.22332">
        <ele>552</ele>
        <time>2018-06-03T08:13:52.000Z</time>
      </trkpt>
      <trkpt lat="44.57353" lon="4.2233">
        <ele>552</ele>
        <time>2018-06-03T08:13:53.000Z</time>
      </trkpt>
      <trkpt lat="44.57352" lon="4.22329">
        <ele>552</ele>
        <time>2018-06-03T08:13:54.000Z</time>
      </trkpt>
      <trkpt lat="44.57352" lon="4.22327">
        <ele>552</ele>
        <time>2018-06-03T08:13:55.000Z</time>
      </trkpt>
      <trkpt lat="44.57352" lon="4.22325">
        <ele>552</ele>
        <time>2018-06-03T08:13:56.000Z</time>
      </trkpt>
      <trkpt lat="44.57352" lon="4.22323">
        <ele>552</ele>
        <time>2018-06-03T08:13:57.000Z</time>
      </trkpt>
      <trkpt lat="44.57352" lon="4.22321">
        <ele>552</ele>
        <time>2018-06-03T08:13:58.000Z</time>
      </trkpt>
      <trkpt lat="44.57352" lon="4.22319">
        <ele>552</ele>
        <time>2018-06-03T08:13:59.000Z</time>
      </trkpt>
      <trkpt lat="44.57352" lon="4.22317">
        <ele>552</ele>
        <time>2018-06-03T08:14:00.000Z</time>
      </trkpt>
      <trkpt lat="44.57352" lon="4.22315">
        <ele>552</ele>
        <time>2018-06-03T08:14:01.000Z</time>
      </trkpt>
      <trkpt lat="44.57352" lon="4.22314">
        <ele>552</ele>
        <time>2018-06-03T08:14:02.000Z</time>
      </trkpt>
      <trkpt lat="44.57352" lon="4.22312">
        <ele>553</ele>
        <time>2018-06-03T08:14:03.000Z</time>
      </trkpt>
      <trkpt lat="44.57352" lon="4.2231">
        <ele>553</ele>
        <time>2018-06-03T08:14:04.000Z</time>
      </trkpt>
      <trkpt lat="44.57352" lon="4.22308">
        <ele>553</ele>
        <time>2018-06-03T08:14:05.000Z</time>
      </trkpt>
      <trkpt lat="44.57352" lon="4.22306">
        <ele>553</ele>
        <time>2018-06-03T08:14:06.000Z</time>
      </trkpt>
      <trkpt lat="44.57352" lon="4.22304">
        <ele>553</ele>
        <time>2018-06-03T08:14:07.000Z</time>
      </trkpt>
      <trkpt lat="44.57352" lon="4.22302">
        <ele>553</ele>
        <time>2018-06-03T08:14:08.000Z</time>
      </trkpt>
      <trkpt lat="44.57352" lon="4.22301">
        <ele>553</ele>
        <time>2018-06-03T08:14:09.000Z</time>
      </trkpt>
      <trkpt lat="44.57352" lon="4.22299">
        <ele>553</ele>
        <time>2018-06-03T08:14:10.000Z</time>
      </trkpt>
      <trkpt lat="44.57352" lon="4.22297">
        <ele>553</ele>
        <time>2018-06-03T08:14:11.000Z</time>
      </trkpt>
      <trkpt lat="44.57352" lon="4.22296">
        <ele>553</ele>
        <time>2018-06-03T08:14:12.000Z</time>
      </trkpt>
      <trkpt lat="44.57353" lon="4.22294">
        <ele>553</ele>
        <time>2018-06-03T08:14:13.000Z</time>
      </trkpt>
      <trkpt lat="44.57354" lon="4.22292">
        <ele>553</ele>
        <time>2018-06-03T08:14:14.000Z</time>
      </trkpt>
      <trkpt lat="44.57355" lon="4.22292">
        <ele>553</ele>
        <time>2018-06-03T08:14:15.000Z</time>
      </trkpt>
      <trkpt lat="44.57356" lon="4.22291">
        <ele>553</ele>
        <time>2018-06-03T08:14:16.000Z</time>
      </trkpt>
      <trkpt lat="44.57358" lon="4.22291">
        <ele>553</ele>
        <time>2018-06-03T08:14:17.000Z</time>
      </trkpt>
      <trkpt lat="44.5736" lon="4.2229">
        <ele>554</ele>
        <time>2018-06-03T08:14:18.000Z</time>
      </trkpt>
      <trkpt lat="44.57361" lon="4.2229">
        <ele>554</ele>
        <time>2018-06-03T08:14:19.000Z</time>
      </trkpt>
      <trkpt lat="44.57363" lon="4.22289">
        <ele>554</ele>
        <time>2018-06-03T08:14:20.000Z</time>
      </trkpt>
      <trkpt lat="44.57365" lon="4.22289">
        <ele>554</ele>
        <time>2018-06-03T08:14:21.000Z</time>
      </trkpt>
      <trkpt lat="44.57366" lon="4.2229">
        <ele>554</ele>
        <time>2018-06-03T08:14:22.000Z</time>
      </trkpt>
      <trkpt lat="44.57368" lon="4.2229">
        <ele>554</ele>
        <time>2018-06-03T08:14:23.000Z</time>
      </trkpt>
      <trkpt lat="44.57369" lon="4.22291">
        <ele>554</ele>
        <time>2018-06-03T08:14:24.000Z</time>
      </trkpt>
      <trkpt lat="44.5737" lon="4.22292">
        <ele>554</ele>
        <time>2018-06-03T08:14:25.000Z</time>
      </trkpt>
      <trkpt lat="44.57371" lon="4.22293">
        <ele>554</ele>
        <time>2018-06-03T08:14:26.000Z</time>
      </trkpt>
      <trkpt lat="44.57371" lon="4.22295">
        <ele>554</ele>
        <time>2018-06-03T08:14:27.000Z</time>
      </trkpt>
      <trkpt lat="44.57372" lon="4.22296">
        <ele>554</ele>
        <time>2018-06-03T08:14:28.000Z</time>
      </trkpt>
      <trkpt lat="44.57373" lon="4.22298">
        <ele>554</ele>
        <time>2018-06-03T08:14:29.000Z</time>
      </trkpt>
      <trkpt lat="44.57373" lon="4.22299">
        <ele>554</ele>
        <time>2018-06-03T08:14:30.000Z</time>
      </trkpt>
      <trkpt lat="44.57374" lon="4.22301">
        <ele>555</ele>
        <time>2018-06-03T08:14:31.000Z</time>
      </trkpt>
      <trkpt lat="44.57375" lon="4.22302">
        <ele>555</ele>
        <time>2018-06-03T08:14:32.000Z</time>
      </trkpt>
      <trkpt lat="44.57376" lon="4.22303">
        <ele>555</ele>
        <time>2018-06-03T08:14:33.000Z</time>
      </trkpt>
      <trkpt lat="44.57377" lon="4.22305">
        <ele>555</ele>
        <time>2018-06-03T08:14:34.000Z</time>
      </trkpt>
      <trkpt lat="44.57377" lon="4.22306">
        <ele>555</ele>
        <time>2018-06-03T08:14:35.000Z</time>
      </trkpt>
      <trkpt lat="44.57377" lon="4.22308">
        <ele>555</ele>
        <time>2018-06-03T08:14:36.000Z</time>
      </trkpt>
      <trkpt lat="44.57378" lon="4.2231">
        <ele>555</ele>
        <time>2018-06-03T08:14:37.000Z</time>
      </trkpt>
      <trkpt lat="44.57379" lon="4.22312">
        <ele>555</ele>
        <time>2018-06-03T08:14:38.000Z</time>
      </trkpt>
      <trkpt lat="44.57379" lon="4.22313">
        <ele>555</ele>
        <time>2018-06-03T08:14:39.000Z</time>
      </trkpt>
      <trkpt lat="44.5738" lon="4.22314">
        <ele>555</ele>
        <time>2018-06-03T08:14:40.000Z</time>
      </trkpt>
      <trkpt lat="44.57381" lon="4.22316">
        <ele>555</ele>
        <time>2018-06-03T08:14:41.000Z</time>
      </trkpt>
      <trkpt lat="44.57382" lon="4.22318">
        <ele>556</ele>
        <time>2018-06-03T08:14:42.000Z</time>
      </trkpt>
      <trkpt lat="44.57383" lon="4.22319">
        <ele>556</ele>
        <time>2018-06-03T08:14:43.000Z</time>
      </trkpt>
      <trkpt lat="44.57384" lon="4.2232">
        <ele>556</ele>
        <time>2018-06-03T08:14:44.000Z</time>
      </trkpt>
      <trkpt lat="44.57385" lon="4.22321">
        <ele>556</ele>
        <time>2018-06-03T08:14:45.000Z</time>
      </trkpt>
      <trkpt lat="44.57386" lon="4.22322">
        <ele>556</ele>
        <time>2018-06-03T08:14:46.000Z</time>
      </trkpt>
      <trkpt lat="44.57387" lon="4.22322">
        <ele>556</ele>
        <time>2018-06-03T08:14:47.000Z</time>
      </trkpt>
      <trkpt lat="44.57388" lon="4.22323">
        <ele>556</ele>
        <time>2018-06-03T08:14:48.000Z</time>
      </trkpt>
      <trkpt lat="44.5739" lon="4.22324">
        <ele>557</ele>
        <time>2018-06-03T08:14:49.000Z</time>
      </trkpt>
      <trkpt lat="44.57391" lon="4.22324">
        <ele>557</ele>
        <time>2018-06-03T08:14:50.000Z</time>
      </trkpt>
      <trkpt lat="44.57393" lon="4.22324">
        <ele>557</ele>
        <time>2018-06-03T08:14:51.000Z</time>
      </trkpt>
      <trkpt lat="44.57394" lon="4.22324">
        <ele>557</ele>
        <time>2018-06-03T08:14:52.000Z</time>
      </trkpt>
      <trkpt lat="44.57395" lon="4.22323">
        <ele>557</ele>
        <time>2018-06-03T08:14:53.000Z</time>
      </trkpt>
      <trkpt lat="44.57396" lon="4.22323">
        <ele>558</ele>
        <time>2018-06-03T08:14:54.000Z</time>
      </trkpt>
      <trkpt lat="44.57397" lon="4.22322">
        <ele>558</ele>
        <time>2018-06-03T08:14:55.000Z</time>
      </trkpt>
      <trkpt lat="44.57398" lon="4.22321">
        <ele>558</ele>
        <time>2018-06-03T08:14:56.000Z</time>
      </trkpt>
      <trkpt lat="44.57399" lon="4.2232">
        <ele>558</ele>
        <time>2018-06-03T08:14:57.000Z</time>
      </trkpt>
      <trkpt lat="44.574" lon="4.22319">
        <ele>558</ele>
        <time>2018-06-03T08:14:58.000Z</time>
      </trkpt>
      <trkpt lat="44.57401" lon="4.22317">
        <ele>558</ele>
        <time>2018-06-03T08:14:59.000Z</time>
      </trkpt>
      <trkpt lat="44.57402" lon="4.22316">
        <ele>558</ele>
        <time>2018-06-03T08:15:00.000Z</time>
      </trkpt>
      <trkpt lat="44.57403" lon="4.22315">
        <ele>558</ele>
        <time>2018-06-03T08:15:01.000Z</time>
      </trkpt>
      <trkpt lat="44.57405" lon="4.22314">
        <ele>558</ele>
        <time>2018-06-03T08:15:02.000Z</time>
      </trkpt>
      <trkpt lat="44.57406" lon="4.22313">
        <ele>558</ele>
        <time>2018-06-03T08:15:03.000Z</time>
      </trkpt>
      <trkpt lat="44.57407" lon="4.22313">
        <ele>558</ele>
        <time>2018-06-03T08:15:04.000Z</time>
      </trkpt>
      <trkpt lat="44.57407" lon="4.22311">
        <ele>558</ele>
        <time>2018-06-03T08:15:05.000Z</time>
      </trkpt>
      <trkpt lat="44.57408" lon="4.2231">
        <ele>558</ele>
        <time>2018-06-03T08:15:06.000Z</time>
      </trkpt>
      <trkpt lat="44.57409" lon="4.22309">
        <ele>558</ele>
        <time>2018-06-03T08:15:07.000Z</time>
      </trkpt>
      <trkpt lat="44.5741" lon="4.22308">
        <ele>558</ele>
        <time>2018-06-03T08:15:08.000Z</time>
      </trkpt>
      <trkpt lat="44.57411" lon="4.22306">
        <ele>557</ele>
        <time>2018-06-03T08:15:09.000Z</time>
      </trkpt>
      <trkpt lat="44.57412" lon="4.22306">
        <ele>557</ele>
        <time>2018-06-03T08:15:10.000Z</time>
      </trkpt>
      <trkpt lat="44.57414" lon="4.22305">
        <ele>557</ele>
        <time>2018-06-03T08:15:11.000Z</time>
      </trkpt>
      <trkpt lat="44.57415" lon="4.22304">
        <ele>557</ele>
        <time>2018-06-03T08:15:12.000Z</time>
      </trkpt>
      <trkpt lat="44.57416" lon="4.22303">
        <ele>557</ele>
        <time>2018-06-03T08:15:13.000Z</time>
      </trkpt>
      <trkpt lat="44.57417" lon="4.22301">
        <ele>569</ele>
        <time>2018-06-03T08:15:14.000Z</time>
      </trkpt>
      <trkpt lat="44.57419" lon="4.223">
        <ele>569</ele>
        <time>2018-06-03T08:15:15.000Z</time>
      </trkpt>
      <trkpt lat="44.5742" lon="4.22298">
        <ele>569</ele>
        <time>2018-06-03T08:15:16.000Z</time>
      </trkpt>
      <trkpt lat="44.57421" lon="4.22296">
        <ele>569</ele>
        <time>2018-06-03T08:15:17.000Z</time>
      </trkpt>
      <trkpt lat="44.57422" lon="4.22294">
        <ele>569</ele>
        <time>2018-06-03T08:15:18.000Z</time>
      </trkpt>
      <trkpt lat="44.57423" lon="4.22292">
        <ele>569</ele>
        <time>2018-06-03T08:15:19.000Z</time>
      </trkpt>
      <trkpt lat="44.57424" lon="4.22291">
        <ele>569</ele>
        <time>2018-06-03T08:15:20.000Z</time>
      </trkpt>
      <trkpt lat="44.57425" lon="4.22289">
        <ele>569</ele>
        <time>2018-06-03T08:15:21.000Z</time>
      </trkpt>
      <trkpt lat="44.57426" lon="4.22288">
        <ele>569</ele>
        <time>2018-06-03T08:15:22.000Z</time>
      </trkpt>
      <trkpt lat="44.57428" lon="4.22286">
        <ele>569</ele>
        <time>2018-06-03T08:15:23.000Z</time>
      </trkpt>
      <trkpt lat="44.57429" lon="4.22285">
        <ele>569</ele>
        <time>2018-06-03T08:15:24.000Z</time>
      </trkpt>
      <trkpt lat="44.5743" lon="4.22284">
        <ele>570</ele>
        <time>2018-06-03T08:15:25.000Z</time>
      </trkpt>
      <trkpt lat="44.57431" lon="4.22283">
        <ele>569</ele>
        <time>2018-06-03T08:15:26.000Z</time>
      </trkpt>
      <trkpt lat="44.57432" lon="4.22282">
        <ele>570</ele>
        <time>2018-06-03T08:15:27.000Z</time>
      </trkpt>
      <trkpt lat="44.57433" lon="4.22282">
        <ele>570</ele>
        <time>2018-06-03T08:15:28.000Z</time>
      </trkpt>
      <trkpt lat="44.57434" lon="4.22281">
        <ele>570</ele>
        <time>2018-06-03T08:15:29.000Z</time>
      </trkpt>
      <trkpt lat="44.57435" lon="4.2228">
        <ele>570</ele>
        <time>2018-06-03T08:15:30.000Z</time>
      </trkpt>
      <trkpt lat="44.57437" lon="4.22279">
        <ele>570</ele>
        <time>2018-06-03T08:15:31.000Z</time>
      </trkpt>
      <trkpt lat="44.57438" lon="4.22279">
        <ele>570</ele>
        <time>2018-06-03T08:15:32.000Z</time>
      </trkpt>
      <trkpt lat="44.57439" lon="4.22278">
        <ele>570</ele>
        <time>2018-06-03T08:15:33.000Z</time>
      </trkpt>
      <trkpt lat="44.57441" lon="4.22277">
        <ele>571</ele>
        <time>2018-06-03T08:15:34.000Z</time>
      </trkpt>
      <trkpt lat="44.57443" lon="4.22276">
        <ele>571</ele>
        <time>2018-06-03T08:15:35.000Z</time>
      </trkpt>
      <trkpt lat="44.57445" lon="4.22275">
        <ele>571</ele>
        <time>2018-06-03T08:15:36.000Z</time>
      </trkpt>
      <trkpt lat="44.57447" lon="4.22274">
        <ele>571</ele>
        <time>2018-06-03T08:15:37.000Z</time>
      </trkpt>
      <trkpt lat="44.57448" lon="4.22273">
        <ele>572</ele>
        <time>2018-06-03T08:15:38.000Z</time>
      </trkpt>
      <trkpt lat="44.5745" lon="4.22271">
        <ele>572</ele>
        <time>2018-06-03T08:15:39.000Z</time>
      </trkpt>
      <trkpt lat="44.57452" lon="4.2227">
        <ele>572</ele>
        <time>2018-06-03T08:15:40.000Z</time>
      </trkpt>
      <trkpt lat="44.57453" lon="4.22268">
        <ele>572</ele>
        <time>2018-06-03T08:15:41.000Z</time>
      </trkpt>
      <trkpt lat="44.57455" lon="4.22267">
        <ele>572</ele>
        <time>2018-06-03T08:15:42.000Z</time>
      </trkpt>
      <trkpt lat="44.57456" lon="4.22265">
        <ele>573</ele>
        <time>2018-06-03T08:15:43.000Z</time>
      </trkpt>
      <trkpt lat="44.57458" lon="4.22263">
        <ele>573</ele>
        <time>2018-06-03T08:15:44.000Z</time>
      </trkpt>
      <trkpt lat="44.57459" lon="4.22262">
        <ele>573</ele>
        <time>2018-06-03T08:15:45.000Z</time>
      </trkpt>
      <trkpt lat="44.57461" lon="4.2226">
        <ele>574</ele>
        <time>2018-06-03T08:15:46.000Z</time>
      </trkpt>
      <trkpt lat="44.57462" lon="4.22258">
        <ele>574</ele>
        <time>2018-06-03T08:15:47.000Z</time>
      </trkpt>
      <trkpt lat="44.57464" lon="4.22257">
        <ele>574</ele>
        <time>2018-06-03T08:15:48.000Z</time>
      </trkpt>
      <trkpt lat="44.57466" lon="4.22255">
        <ele>575</ele>
        <time>2018-06-03T08:15:49.000Z</time>
      </trkpt>
      <trkpt lat="44.57467" lon="4.22253">
        <ele>575</ele>
        <time>2018-06-03T08:15:50.000Z</time>
      </trkpt>
      <trkpt lat="44.57469" lon="4.22251">
        <ele>575</ele>
        <time>2018-06-03T08:15:51.000Z</time>
      </trkpt>
      <trkpt lat="44.57471" lon="4.2225">
        <ele>572</ele>
        <time>2018-06-03T08:15:52.000Z</time>
      </trkpt>
      <trkpt lat="44.57472" lon="4.22248">
        <ele>572</ele>
        <time>2018-06-03T08:15:53.000Z</time>
      </trkpt>
      <trkpt lat="44.57474" lon="4.22246">
        <ele>572</ele>
        <time>2018-06-03T08:15:54.000Z</time>
      </trkpt>
      <trkpt lat="44.57475" lon="4.22245">
        <ele>573</ele>
        <time>2018-06-03T08:15:55.000Z</time>
      </trkpt>
      <trkpt lat="44.57477" lon="4.22243">
        <ele>573</ele>
        <time>2018-06-03T08:15:56.000Z</time>
      </trkpt>
      <trkpt lat="44.57478" lon="4.22241">
        <ele>573</ele>
        <time>2018-06-03T08:15:57.000Z</time>
      </trkpt>
      <trkpt lat="44.5748" lon="4.2224">
        <ele>574</ele>
        <time>2018-06-03T08:15:58.000Z</time>
      </trkpt>
      <trkpt lat="44.57482" lon="4.22238">
        <ele>574</ele>
        <time>2018-06-03T08:15:59.000Z</time>
      </trkpt>
      <trkpt lat="44.57483" lon="4.22236">
        <ele>574</ele>
        <time>2018-06-03T08:16:00.000Z</time>
      </trkpt>
      <trkpt lat="44.57485" lon="4.22235">
        <ele>574</ele>
        <time>2018-06-03T08:16:01.000Z</time>
      </trkpt>
      <trkpt lat="44.57486" lon="4.22233">
        <ele>574</ele>
        <time>2018-06-03T08:16:02.000Z</time>
      </trkpt>
      <trkpt lat="44.57487" lon="4.22231">
        <ele>574</ele>
        <time>2018-06-03T08:16:03.000Z</time>
      </trkpt>
      <trkpt lat="44.57488" lon="4.2223">
        <ele>574</ele>
        <time>2018-06-03T08:16:04.000Z</time>
      </trkpt>
      <trkpt lat="44.5749" lon="4.22228">
        <ele>574</ele>
        <time>2018-06-03T08:16:05.000Z</time>
      </trkpt>
      <trkpt lat="44.57491" lon="4.22226">
        <ele>574</ele>
        <time>2018-06-03T08:16:06.000Z</time>
      </trkpt>
      <trkpt lat="44.57493" lon="4.22225">
        <ele>574</ele>
        <time>2018-06-03T08:16:07.000Z</time>
      </trkpt>
      <trkpt lat="44.57494" lon="4.22223">
        <ele>574</ele>
        <time>2018-06-03T08:16:08.000Z</time>
      </trkpt>
      <trkpt lat="44.57496" lon="4.22222">
        <ele>574</ele>
        <time>2018-06-03T08:16:09.000Z</time>
      </trkpt>
      <trkpt lat="44.57497" lon="4.2222">
        <ele>574</ele>
        <time>2018-06-03T08:16:10.000Z</time>
      </trkpt>
      <trkpt lat="44.57499" lon="4.22219">
        <ele>574</ele>
        <time>2018-06-03T08:16:11.000Z</time>
      </trkpt>
      <trkpt lat="44.575" lon="4.22217">
        <ele>574</ele>
        <time>2018-06-03T08:16:12.000Z</time>
      </trkpt>
      <trkpt lat="44.575" lon="4.22215">
        <ele>593</ele>
        <time>2018-06-03T08:16:13.000Z</time>
      </trkpt>
      <trkpt lat="44.57501" lon="4.22212">
        <ele>593</ele>
        <time>2018-06-03T08:16:14.000Z</time>
      </trkpt>
      <trkpt lat="44.57501" lon="4.2221">
        <ele>593</ele>
        <time>2018-06-03T08:16:15.000Z</time>
      </trkpt>
      <trkpt lat="44.57501" lon="4.22208">
        <ele>593</ele>
        <time>2018-06-03T08:16:16.000Z</time>
      </trkpt>
      <trkpt lat="44.57502" lon="4.22206">
        <ele>593</ele>
        <time>2018-06-03T08:16:17.000Z</time>
      </trkpt>
      <trkpt lat="44.57502" lon="4.22203">
        <ele>593</ele>
        <time>2018-06-03T08:16:18.000Z</time>
      </trkpt>
      <trkpt lat="44.57502" lon="4.22202">
        <ele>593</ele>
        <time>2018-06-03T08:16:19.000Z</time>
      </trkpt>
      <trkpt lat="44.57502" lon="4.222">
        <ele>593</ele>
        <time>2018-06-03T08:16:20.000Z</time>
      </trkpt>
      <trkpt lat="44.57502" lon="4.22198">
        <ele>593</ele>
        <time>2018-06-03T08:16:21.000Z</time>
      </trkpt>
      <trkpt lat="44.57502" lon="4.22196">
        <ele>592</ele>
        <time>2018-06-03T08:16:22.000Z</time>
      </trkpt>
      <trkpt lat="44.57501" lon="4.22194">
        <ele>592</ele>
        <time>2018-06-03T08:16:23.000Z</time>
      </trkpt>
      <trkpt lat="44.57501" lon="4.22192">
        <ele>592</ele>
        <time>2018-06-03T08:16:24.000Z</time>
      </trkpt>
      <trkpt lat="44.575" lon="4.22191">
        <ele>591</ele>
        <time>2018-06-03T08:16:25.000Z</time>
      </trkpt>
      <trkpt lat="44.575" lon="4.22189">
        <ele>591</ele>
        <time>2018-06-03T08:16:26.000Z</time>
      </trkpt>
      <trkpt lat="44.575" lon="4.22187">
        <ele>574</ele>
        <time>2018-06-03T08:16:27.000Z</time>
      </trkpt>
      <trkpt lat="44.57499" lon="4.22185">
        <ele>575</ele>
        <time>2018-06-03T08:16:28.000Z</time>
      </trkpt>
      <trkpt lat="44.57499" lon="4.22182">
        <ele>575</ele>
        <time>2018-06-03T08:16:29.000Z</time>
      </trkpt>
      <trkpt lat="44.57498" lon="4.2218">
        <ele>576</ele>
        <time>2018-06-03T08:16:30.000Z</time>
      </trkpt>
      <trkpt lat="44.57498" lon="4.22178">
        <ele>576</ele>
        <time>2018-06-03T08:16:31.000Z</time>
      </trkpt>
      <trkpt lat="44.57498" lon="4.22176">
        <ele>577</ele>
        <time>2018-06-03T08:16:32.000Z</time>
      </trkpt>
      <trkpt lat="44.57498" lon="4.22174">
        <ele>578</ele>
        <time>2018-06-03T08:16:33.000Z</time>
      </trkpt>
      <trkpt lat="44.57498" lon="4.22172">
        <ele>578</ele>
        <time>2018-06-03T08:16:34.000Z</time>
      </trkpt>
      <trkpt lat="44.57497" lon="4.2217">
        <ele>579</ele>
        <time>2018-06-03T08:16:35.000Z</time>
      </trkpt>
      <trkpt lat="44.57497" lon="4.22168">
        <ele>579</ele>
        <time>2018-06-03T08:16:36.000Z</time>
      </trkpt>
      <trkpt lat="44.57497" lon="4.22166">
        <ele>579</ele>
        <time>2018-06-03T08:16:37.000Z</time>
      </trkpt>
      <trkpt lat="44.57497" lon="4.22164">
        <ele>578</ele>
        <time>2018-06-03T08:16:38.000Z</time>
      </trkpt>
      <trkpt lat="44.57496" lon="4.22163">
        <ele>577</ele>
        <time>2018-06-03T08:16:39.000Z</time>
      </trkpt>
      <trkpt lat="44.57496" lon="4.22161">
        <ele>577</ele>
        <time>2018-06-03T08:16:40.000Z</time>
      </trkpt>
      <trkpt lat="44.57496" lon="4.22159">
        <ele>576</ele>
        <time>2018-06-03T08:16:41.000Z</time>
      </trkpt>
      <trkpt lat="44.57496" lon="4.22156">
        <ele>575</ele>
        <time>2018-06-03T08:16:42.000Z</time>
      </trkpt>
      <trkpt lat="44.57496" lon="4.22154">
        <ele>574</ele>
        <time>2018-06-03T08:16:43.000Z</time>
      </trkpt>
      <trkpt lat="44.57497" lon="4.22152">
        <ele>573</ele>
        <time>2018-06-03T08:16:44.000Z</time>
      </trkpt>
      <trkpt lat="44.57497" lon="4.22149">
        <ele>573</ele>
        <time>2018-06-03T08:16:45.000Z</time>
      </trkpt>
      <trkpt lat="44.57498" lon="4.22147">
        <ele>572</ele>
        <time>2018-06-03T08:16:46.000Z</time>
      </trkpt>
      <trkpt lat="44.57499" lon="4.22145">
        <ele>572</ele>
        <time>2018-06-03T08:16:47.000Z</time>
      </trkpt>
      <trkpt lat="44.57499" lon="4.22142">
        <ele>571</ele>
        <time>2018-06-03T08:16:48.000Z</time>
      </trkpt>
      <trkpt lat="44.575" lon="4.2214">
        <ele>590</ele>
        <time>2018-06-03T08:16:49.000Z</time>
      </trkpt>
      <trkpt lat="44.57501" lon="4.22138">
        <ele>590</ele>
        <time>2018-06-03T08:16:50.000Z</time>
      </trkpt>
      <trkpt lat="44.57502" lon="4.22136">
        <ele>591</ele>
        <time>2018-06-03T08:16:51.000Z</time>
      </trkpt>
      <trkpt lat="44.57503" lon="4.22133">
        <ele>591</ele>
        <time>2018-06-03T08:16:52.000Z</time>
      </trkpt>
      <trkpt lat="44.57504" lon="4.22131">
        <ele>591</ele>
        <time>2018-06-03T08:16:53.000Z</time>
      </trkpt>
      <trkpt lat="44.57504" lon="4.22128">
        <ele>591</ele>
        <time>2018-06-03T08:16:54.000Z</time>
      </trkpt>
      <trkpt lat="44.57504" lon="4.22125">
        <ele>591</ele>
        <time>2018-06-03T08:16:55.000Z</time>
      </trkpt>
      <trkpt lat="44.57505" lon="4.22122">
        <ele>591</ele>
        <time>2018-06-03T08:16:56.000Z</time>
      </trkpt>
      <trkpt lat="44.57506" lon="4.2212">
        <ele>591</ele>
        <time>2018-06-03T08:16:57.000Z</time>
      </trkpt>
      <trkpt lat="44.57507" lon="4.22117">
        <ele>591</ele>
        <time>2018-06-03T08:16:58.000Z</time>
      </trkpt>
      <trkpt lat="44.57507" lon="4.22114">
        <ele>591</ele>
        <time>2018-06-03T08:16:59.000Z</time>
      </trkpt>
      <trkpt lat="44.57508" lon="4.22112">
        <ele>590</ele>
        <time>2018-06-03T08:17:00.000Z</time>
      </trkpt>
      <trkpt lat="44.57509" lon="4.22109">
        <ele>590</ele>
        <time>2018-06-03T08:17:01.000Z</time>
      </trkpt>
      <trkpt lat="44.5751" lon="4.22107">
        <ele>590</ele>
        <time>2018-06-03T08:17:02.000Z</time>
      </trkpt>
      <trkpt lat="44.5751" lon="4.22104">
        <ele>589</ele>
        <time>2018-06-03T08:17:03.000Z</time>
      </trkpt>
      <trkpt lat="44.57511" lon="4.22102">
        <ele>589</ele>
        <time>2018-06-03T08:17:04.000Z</time>
      </trkpt>
      <trkpt lat="44.57512" lon="4.22099">
        <ele>588</ele>
        <time>2018-06-03T08:17:05.000Z</time>
      </trkpt>
      <trkpt lat="44.57512" lon="4.22097">
        <ele>588</ele>
        <time>2018-06-03T08:17:06.000Z</time>
      </trkpt>
      <trkpt lat="44.57513" lon="4.22095">
        <ele>588</ele>
        <time>2018-06-03T08:17:07.000Z</time>
      </trkpt>
      <trkpt lat="44.57513" lon="4.22093">
        <ele>587</ele>
        <time>2018-06-03T08:17:08.000Z</time>
      </trkpt>
      <trkpt lat="44.57514" lon="4.2209">
        <ele>587</ele>
        <time>2018-06-03T08:17:09.000Z</time>
      </trkpt>
      <trkpt lat="44.57514" lon="4.22088">
        <ele>587</ele>
        <time>2018-06-03T08:17:10.000Z</time>
      </trkpt>
      <trkpt lat="44.57515" lon="4.22086">
        <ele>587</ele>
        <time>2018-06-03T08:17:11.000Z</time>
      </trkpt>
      <trkpt lat="44.57515" lon="4.22084">
        <ele>587</ele>
        <time>2018-06-03T08:17:12.000Z</time>
      </trkpt>
      <trkpt lat="44.57516" lon="4.22082">
        <ele>587</ele>
        <time>2018-06-03T08:17:13.000Z</time>
      </trkpt>
      <trkpt lat="44.57516" lon="4.2208">
        <ele>587</ele>
        <time>2018-06-03T08:17:14.000Z</time>
      </trkpt>
      <trkpt lat="44.57517" lon="4.22077">
        <ele>588</ele>
        <time>2018-06-03T08:17:15.000Z</time>
      </trkpt>
      <trkpt lat="44.57518" lon="4.22075">
        <ele>588</ele>
        <time>2018-06-03T08:17:16.000Z</time>
      </trkpt>
      <trkpt lat="44.57519" lon="4.22073">
        <ele>589</ele>
        <time>2018-06-03T08:17:17.000Z</time>
      </trkpt>
      <trkpt lat="44.5752" lon="4.2207">
        <ele>590</ele>
        <time>2018-06-03T08:17:18.000Z</time>
      </trkpt>
      <trkpt lat="44.57521" lon="4.22068">
        <ele>590</ele>
        <time>2018-06-03T08:17:19.000Z</time>
      </trkpt>
      <trkpt lat="44.57521" lon="4.22066">
        <ele>590</ele>
        <time>2018-06-03T08:17:20.000Z</time>
      </trkpt>
      <trkpt lat="44.57522" lon="4.22063">
        <ele>591</ele>
        <time>2018-06-03T08:17:21.000Z</time>
      </trkpt>
      <trkpt lat="44.57522" lon="4.22061">
        <ele>591</ele>
        <time>2018-06-03T08:17:22.000Z</time>
      </trkpt>
      <trkpt lat="44.57523" lon="4.22059">
        <ele>591</ele>
        <time>2018-06-03T08:17:23.000Z</time>
      </trkpt>
      <trkpt lat="44.57523" lon="4.22057">
        <ele>592</ele>
        <time>2018-06-03T08:17:24.000Z</time>
      </trkpt>
      <trkpt lat="44.57524" lon="4.22055">
        <ele>592</ele>
        <time>2018-06-03T08:17:25.000Z</time>
      </trkpt>
      <trkpt lat="44.57525" lon="4.22052">
        <ele>592</ele>
        <time>2018-06-03T08:17:26.000Z</time>
      </trkpt>
      <trkpt lat="44.57525" lon="4.2205">
        <ele>592</ele>
        <time>2018-06-03T08:17:27.000Z</time>
      </trkpt>
      <trkpt lat="44.57526" lon="4.22048">
        <ele>592</ele>
        <time>2018-06-03T08:17:28.000Z</time>
      </trkpt>
      <trkpt lat="44.57527" lon="4.22046">
        <ele>593</ele>
        <time>2018-06-03T08:17:29.000Z</time>
      </trkpt>
      <trkpt lat="44.57528" lon="4.22044">
        <ele>593</ele>
        <time>2018-06-03T08:17:30.000Z</time>
      </trkpt>
      <trkpt lat="44.57529" lon="4.22042">
        <ele>593</ele>
        <time>2018-06-03T08:17:31.000Z</time>
      </trkpt>
      <trkpt lat="44.57531" lon="4.2204">
        <ele>593</ele>
        <time>2018-06-03T08:17:32.000Z</time>
      </trkpt>
      <trkpt lat="44.57532" lon="4.22038">
        <ele>594</ele>
        <time>2018-06-03T08:17:33.000Z</time>
      </trkpt>
      <trkpt lat="44.57533" lon="4.22037">
        <ele>594</ele>
        <time>2018-06-03T08:17:34.000Z</time>
      </trkpt>
      <trkpt lat="44.57534" lon="4.22035">
        <ele>594</ele>
        <time>2018-06-03T08:17:35.000Z</time>
      </trkpt>
      <trkpt lat="44.57535" lon="4.22033">
        <ele>594</ele>
        <time>2018-06-03T08:17:36.000Z</time>
      </trkpt>
      <trkpt lat="44.57537" lon="4.22031">
        <ele>594</ele>
        <time>2018-06-03T08:17:37.000Z</time>
      </trkpt>
      <trkpt lat="44.57538" lon="4.2203">
        <ele>595</ele>
        <time>2018-06-03T08:17:38.000Z</time>
      </trkpt>
      <trkpt lat="44.5754" lon="4.22029">
        <ele>595</ele>
        <time>2018-06-03T08:17:39.000Z</time>
      </trkpt>
      <trkpt lat="44.57541" lon="4.2203">
        <ele>595</ele>
        <time>2018-06-03T08:17:40.000Z</time>
      </trkpt>
      <trkpt lat="44.57543" lon="4.2203">
        <ele>596</ele>
        <time>2018-06-03T08:17:41.000Z</time>
      </trkpt>
      <trkpt lat="44.57545" lon="4.22031">
        <ele>596</ele>
        <time>2018-06-03T08:17:42.000Z</time>
      </trkpt>
      <trkpt lat="44.57546" lon="4.22031">
        <ele>597</ele>
        <time>2018-06-03T08:17:43.000Z</time>
      </trkpt>
      <trkpt lat="44.57548" lon="4.22032">
        <ele>597</ele>
        <time>2018-06-03T08:17:44.000Z</time>
      </trkpt>
      <trkpt lat="44.57549" lon="4.22032">
        <ele>597</ele>
        <time>2018-06-03T08:17:45.000Z</time>
      </trkpt>
      <trkpt lat="44.57551" lon="4.22033">
        <ele>598</ele>
        <time>2018-06-03T08:17:46.000Z</time>
      </trkpt>
      <trkpt lat="44.57553" lon="4.22033">
        <ele>598</ele>
        <time>2018-06-03T08:17:47.000Z</time>
      </trkpt>
      <trkpt lat="44.57554" lon="4.22033">
        <ele>598</ele>
        <time>2018-06-03T08:17:48.000Z</time>
      </trkpt>
      <trkpt lat="44.57556" lon="4.22032">
        <ele>599</ele>
        <time>2018-06-03T08:17:49.000Z</time>
      </trkpt>
      <trkpt lat="44.57557" lon="4.22031">
        <ele>599</ele>
        <time>2018-06-03T08:17:50.000Z</time>
      </trkpt>
      <trkpt lat="44.57558" lon="4.22031">
        <ele>599</ele>
        <time>2018-06-03T08:17:51.000Z</time>
      </trkpt>
      <trkpt lat="44.5756" lon="4.2203">
        <ele>600</ele>
        <time>2018-06-03T08:17:52.000Z</time>
      </trkpt>
      <trkpt lat="44.57561" lon="4.22029">
        <ele>600</ele>
        <time>2018-06-03T08:17:53.000Z</time>
      </trkpt>
      <trkpt lat="44.57562" lon="4.22028">
        <ele>600</ele>
        <time>2018-06-03T08:17:54.000Z</time>
      </trkpt>
      <trkpt lat="44.57564" lon="4.22027">
        <ele>600</ele>
        <time>2018-06-03T08:17:55.000Z</time>
      </trkpt>
      <trkpt lat="44.57565" lon="4.22025">
        <ele>601</ele>
        <time>2018-06-03T08:17:56.000Z</time>
      </trkpt>
      <trkpt lat="44.57566" lon="4.22024">
        <ele>601</ele>
        <time>2018-06-03T08:17:57.000Z</time>
      </trkpt>
      <trkpt lat="44.57566" lon="4.22022">
        <ele>601</ele>
        <time>2018-06-03T08:17:58.000Z</time>
      </trkpt>
      <trkpt lat="44.57567" lon="4.2202">
        <ele>602</ele>
        <time>2018-06-03T08:17:59.000Z</time>
      </trkpt>
      <trkpt lat="44.57568" lon="4.22018">
        <ele>602</ele>
        <time>2018-06-03T08:18:00.000Z</time>
      </trkpt>
      <trkpt lat="44.57568" lon="4.22016">
        <ele>603</ele>
        <time>2018-06-03T08:18:01.000Z</time>
      </trkpt>
      <trkpt lat="44.57569" lon="4.22014">
        <ele>603</ele>
        <time>2018-06-03T08:18:02.000Z</time>
      </trkpt>
      <trkpt lat="44.5757" lon="4.22012">
        <ele>604</ele>
        <time>2018-06-03T08:18:03.000Z</time>
      </trkpt>
      <trkpt lat="44.5757" lon="4.22009">
        <ele>604</ele>
        <time>2018-06-03T08:18:04.000Z</time>
      </trkpt>
      <trkpt lat="44.57571" lon="4.22007">
        <ele>605</ele>
        <time>2018-06-03T08:18:05.000Z</time>
      </trkpt>
      <trkpt lat="44.57571" lon="4.22005">
        <ele>605</ele>
        <time>2018-06-03T08:18:06.000Z</time>
      </trkpt>
      <trkpt lat="44.57571" lon="4.22003">
        <ele>605</ele>
        <time>2018-06-03T08:18:07.000Z</time>
      </trkpt>
      <trkpt lat="44.5757" lon="4.22">
        <ele>604</ele>
        <time>2018-06-03T08:18:08.000Z</time>
      </trkpt>
      <trkpt lat="44.5757" lon="4.21997">
        <ele>604</ele>
        <time>2018-06-03T08:18:09.000Z</time>
      </trkpt>
      <trkpt lat="44.57569" lon="4.21994">
        <ele>603</ele>
        <time>2018-06-03T08:18:10.000Z</time>
      </trkpt>
      <trkpt lat="44.57569" lon="4.21991">
        <ele>602</ele>
        <time>2018-06-03T08:18:11.000Z</time>
      </trkpt>
      <trkpt lat="44.57568" lon="4.21988">
        <ele>602</ele>
        <time>2018-06-03T08:18:12.000Z</time>
      </trkpt>
      <trkpt lat="44.57568" lon="4.21984">
        <ele>601</ele>
        <time>2018-06-03T08:18:13.000Z</time>
      </trkpt>
      <trkpt lat="44.57568" lon="4.21979">
        <ele>600</ele>
        <time>2018-06-03T08:18:14.000Z</time>
      </trkpt>
      <trkpt lat="44.57568" lon="4.21974">
        <ele>599</ele>
        <time>2018-06-03T08:18:15.000Z</time>
      </trkpt>
      <trkpt lat="44.57568" lon="4.21969">
        <ele>599</ele>
        <time>2018-06-03T08:18:16.000Z</time>
      </trkpt>
      <trkpt lat="44.57569" lon="4.21966">
        <ele>599</ele>
        <time>2018-06-03T08:18:17.000Z</time>
      </trkpt>
      <trkpt lat="44.57569" lon="4.21963">
        <ele>598</ele>
        <time>2018-06-03T08:18:18.000Z</time>
      </trkpt>
      <trkpt lat="44.57568" lon="4.2196">
        <ele>598</ele>
        <time>2018-06-03T08:18:19.000Z</time>
      </trkpt>
      <trkpt lat="44.57568" lon="4.21958">
        <ele>598</ele>
        <time>2018-06-03T08:18:20.000Z</time>
      </trkpt>
      <trkpt lat="44.57569" lon="4.21955">
        <ele>598</ele>
        <time>2018-06-03T08:18:21.000Z</time>
      </trkpt>
      <trkpt lat="44.57569" lon="4.21953">
        <ele>598</ele>
        <time>2018-06-03T08:18:22.000Z</time>
      </trkpt>
      <trkpt lat="44.5757" lon="4.2195">
        <ele>598</ele>
        <time>2018-06-03T08:18:23.000Z</time>
      </trkpt>
      <trkpt lat="44.5757" lon="4.21948">
        <ele>599</ele>
        <time>2018-06-03T08:18:24.000Z</time>
      </trkpt>
      <trkpt lat="44.57571" lon="4.21946">
        <ele>599</ele>
        <time>2018-06-03T08:18:25.000Z</time>
      </trkpt>
      <trkpt lat="44.57571" lon="4.21943">
        <ele>599</ele>
        <time>2018-06-03T08:18:26.000Z</time>
      </trkpt>
      <trkpt lat="44.57572" lon="4.21941">
        <ele>599</ele>
        <time>2018-06-03T08:18:27.000Z</time>
      </trkpt>
      <trkpt lat="44.57572" lon="4.21938">
        <ele>600</ele>
        <time>2018-06-03T08:18:28.000Z</time>
      </trkpt>
      <trkpt lat="44.57573" lon="4.21936">
        <ele>600</ele>
        <time>2018-06-03T08:18:29.000Z</time>
      </trkpt>
      <trkpt lat="44.57573" lon="4.21933">
        <ele>601</ele>
        <time>2018-06-03T08:18:30.000Z</time>
      </trkpt>
      <trkpt lat="44.57573" lon="4.21931">
        <ele>601</ele>
        <time>2018-06-03T08:18:31.000Z</time>
      </trkpt>
      <trkpt lat="44.57573" lon="4.21929">
        <ele>602</ele>
        <time>2018-06-03T08:18:32.000Z</time>
      </trkpt>
      <trkpt lat="44.57573" lon="4.21927">
        <ele>602</ele>
        <time>2018-06-03T08:18:33.000Z</time>
      </trkpt>
      <trkpt lat="44.57574" lon="4.21925">
        <ele>603</ele>
        <time>2018-06-03T08:18:34.000Z</time>
      </trkpt>
      <trkpt lat="44.57574" lon="4.21924">
        <ele>603</ele>
        <time>2018-06-03T08:18:35.000Z</time>
      </trkpt>
      <trkpt lat="44.57574" lon="4.21922">
        <ele>603</ele>
        <time>2018-06-03T08:18:36.000Z</time>
      </trkpt>
      <trkpt lat="44.57574" lon="4.2192">
        <ele>604</ele>
        <time>2018-06-03T08:18:37.000Z</time>
      </trkpt>
      <trkpt lat="44.57574" lon="4.21919">
        <ele>604</ele>
        <time>2018-06-03T08:18:38.000Z</time>
      </trkpt>
      <trkpt lat="44.57573" lon="4.21919">
        <ele>603</ele>
        <time>2018-06-03T08:18:39.000Z</time>
      </trkpt>
      <trkpt lat="44.57573" lon="4.21918">
        <ele>603</ele>
        <time>2018-06-03T08:18:40.000Z</time>
      </trkpt>
      <trkpt lat="44.57572" lon="4.21916">
        <ele>602</ele>
        <time>2018-06-03T08:18:41.000Z</time>
      </trkpt>
      <trkpt lat="44.57572" lon="4.21914">
        <ele>602</ele>
        <time>2018-06-03T08:18:42.000Z</time>
      </trkpt>
      <trkpt lat="44.57572" lon="4.21913">
        <ele>601</ele>
        <time>2018-06-03T08:18:43.000Z</time>
      </trkpt>
      <trkpt lat="44.57571" lon="4.21912">
        <ele>601</ele>
        <time>2018-06-03T08:18:44.000Z</time>
      </trkpt>
      <trkpt lat="44.57571" lon="4.21911">
        <ele>601</ele>
        <time>2018-06-03T08:18:45.000Z</time>
      </trkpt>
      <trkpt lat="44.57571" lon="4.21911">
        <ele>601</ele>
        <time>2018-06-03T08:18:46.000Z</time>
      </trkpt>
      <trkpt lat="44.57571" lon="4.21912">
        <ele>600</ele>
        <time>2018-06-03T08:18:47.000Z</time>
      </trkpt>
      <trkpt lat="44.5757" lon="4.21912">
        <ele>600</ele>
        <time>2018-06-03T08:18:48.000Z</time>
      </trkpt>
      <trkpt lat="44.5757" lon="4.21913">
        <ele>600</ele>
        <time>2018-06-03T08:18:49.000Z</time>
      </trkpt>
      <trkpt lat="44.57569" lon="4.21914">
        <ele>600</ele>
        <time>2018-06-03T08:18:50.000Z</time>
      </trkpt>
      <trkpt lat="44.5757" lon="4.21914">
        <ele>600</ele>
        <time>2018-06-03T08:18:51.000Z</time>
      </trkpt>
      <trkpt lat="44.5757" lon="4.21915">
        <ele>601</ele>
        <time>2018-06-03T08:18:52.000Z</time>
      </trkpt>
      <trkpt lat="44.57571" lon="4.21916">
        <ele>601</ele>
        <time>2018-06-03T08:18:53.000Z</time>
      </trkpt>
      <trkpt lat="44.57571" lon="4.21917">
        <ele>603</ele>
        <time>2018-06-03T08:18:54.000Z</time>
      </trkpt>
      <trkpt lat="44.57572" lon="4.21919">
        <ele>603</ele>
        <time>2018-06-03T08:18:55.000Z</time>
      </trkpt>
      <trkpt lat="44.57572" lon="4.21921">
        <ele>603</ele>
        <time>2018-06-03T08:18:56.000Z</time>
      </trkpt>
      <trkpt lat="44.57571" lon="4.21923">
        <ele>602</ele>
        <time>2018-06-03T08:18:57.000Z</time>
      </trkpt>
      <trkpt lat="44.57571" lon="4.21925">
        <ele>602</ele>
        <time>2018-06-03T08:18:58.000Z</time>
      </trkpt>
      <trkpt lat="44.5757" lon="4.21929">
        <ele>601</ele>
        <time>2018-06-03T08:18:59.000Z</time>
      </trkpt>
      <trkpt lat="44.57569" lon="4.21936">
        <ele>600</ele>
        <time>2018-06-03T08:19:00.000Z</time>
      </trkpt>
      <trkpt lat="44.57567" lon="4.21943">
        <ele>599</ele>
        <time>2018-06-03T08:19:01.000Z</time>
      </trkpt>
      <trkpt lat="44.57566" lon="4.21949">
        <ele>598</ele>
        <time>2018-06-03T08:19:02.000Z</time>
      </trkpt>
      <trkpt lat="44.57566" lon="4.21955">
        <ele>598</ele>
        <time>2018-06-03T08:19:03.000Z</time>
      </trkpt>
      <trkpt lat="44.57565" lon="4.21959">
        <ele>598</ele>
        <time>2018-06-03T08:19:04.000Z</time>
      </trkpt>
      <trkpt lat="44.57566" lon="4.21963">
        <ele>598</ele>
        <time>2018-06-03T08:19:05.000Z</time>
      </trkpt>
      <trkpt lat="44.57568" lon="4.21967">
        <ele>599</ele>
        <time>2018-06-03T08:19:06.000Z</time>
      </trkpt>
      <trkpt lat="44.5757" lon="4.2197">
        <ele>599</ele>
        <time>2018-06-03T08:19:07.000Z</time>
      </trkpt>
      <trkpt lat="44.5757" lon="4.21972">
        <ele>600</ele>
        <time>2018-06-03T08:19:08.000Z</time>
      </trkpt>
      <trkpt lat="44.5757" lon="4.21973">
        <ele>600</ele>
        <time>2018-06-03T08:19:09.000Z</time>
      </trkpt>
      <trkpt lat="44.57568" lon="4.21974">
        <ele>599</ele>
        <time>2018-06-03T08:19:10.000Z</time>
      </trkpt>
      <trkpt lat="44.57566" lon="4.21975">
        <ele>599</ele>
        <time>2018-06-03T08:19:11.000Z</time>
      </trkpt>
      <trkpt lat="44.57563" lon="4.21976">
        <ele>599</ele>
        <time>2018-06-03T08:19:12.000Z</time>
      </trkpt>
      <trkpt lat="44.57562" lon="4.21977">
        <ele>599</ele>
        <time>2018-06-03T08:19:13.000Z</time>
      </trkpt>
      <trkpt lat="44.57562" lon="4.21978">
        <ele>598</ele>
        <time>2018-06-03T08:19:14.000Z</time>
      </trkpt>
      <trkpt lat="44.57562" lon="4.21978">
        <ele>598</ele>
        <time>2018-06-03T08:19:15.000Z</time>
      </trkpt>
      <trkpt lat="44.57562" lon="4.21978">
        <ele>598</ele>
        <time>2018-06-03T08:19:16.000Z</time>
      </trkpt>
      <trkpt lat="44.57562" lon="4.21978">
        <ele>599</ele>
        <time>2018-06-03T08:19:17.000Z</time>
      </trkpt>
      <trkpt lat="44.57562" lon="4.21978">
        <ele>599</ele>
        <time>2018-06-03T08:19:18.000Z</time>
      </trkpt>
      <trkpt lat="44.57563" lon="4.21978">
        <ele>599</ele>
        <time>2018-06-03T08:19:19.000Z</time>
      </trkpt>
      <trkpt lat="44.57564" lon="4.21978">
        <ele>599</ele>
        <time>2018-06-03T08:19:20.000Z</time>
      </trkpt>
      <trkpt lat="44.57564" lon="4.21977">
        <ele>599</ele>
        <time>2018-06-03T08:19:21.000Z</time>
      </trkpt>
      <trkpt lat="44.57565" lon="4.21977">
        <ele>599</ele>
        <time>2018-06-03T08:19:22.000Z</time>
      </trkpt>
      <trkpt lat="44.57566" lon="4.21977">
        <ele>599</ele>
        <time>2018-06-03T08:19:23.000Z</time>
      </trkpt>
      <trkpt lat="44.57566" lon="4.21977">
        <ele>599</ele>
        <time>2018-06-03T08:19:24.000Z</time>
      </trkpt>
      <trkpt lat="44.57567" lon="4.21977">
        <ele>600</ele>
        <time>2018-06-03T08:19:25.000Z</time>
      </trkpt>
      <trkpt lat="44.57567" lon="4.21976">
        <ele>599</ele>
        <time>2018-06-03T08:19:26.000Z</time>
      </trkpt>
      <trkpt lat="44.57568" lon="4.21976">
        <ele>600</ele>
        <time>2018-06-03T08:19:27.000Z</time>
      </trkpt>
      <trkpt lat="44.57569" lon="4.21977">
        <ele>600</ele>
        <time>2018-06-03T08:19:28.000Z</time>
      </trkpt>
      <trkpt lat="44.57569" lon="4.21978">
        <ele>600</ele>
        <time>2018-06-03T08:19:29.000Z</time>
      </trkpt>
      <trkpt lat="44.57569" lon="4.21979">
        <ele>600</ele>
        <time>2018-06-03T08:19:30.000Z</time>
      </trkpt>
      <trkpt lat="44.5757" lon="4.21981">
        <ele>601</ele>
        <time>2018-06-03T08:19:31.000Z</time>
      </trkpt>
      <trkpt lat="44.5757" lon="4.21982">
        <ele>601</ele>
        <time>2018-06-03T08:19:32.000Z</time>
      </trkpt>
      <trkpt lat="44.5757" lon="4.21982">
        <ele>601</ele>
        <time>2018-06-03T08:19:33.000Z</time>
      </trkpt>
      <trkpt lat="44.5757" lon="4.21983">
        <ele>601</ele>
        <time>2018-06-03T08:19:34.000Z</time>
      </trkpt>
      <trkpt lat="44.57569" lon="4.21985">
        <ele>601</ele>
        <time>2018-06-03T08:19:35.000Z</time>
      </trkpt>
      <trkpt lat="44.5757" lon="4.21986">
        <ele>602</ele>
        <time>2018-06-03T08:19:36.000Z</time>
      </trkpt>
      <trkpt lat="44.5757" lon="4.21989">
        <ele>602</ele>
        <time>2018-06-03T08:19:37.000Z</time>
      </trkpt>
      <trkpt lat="44.5757" lon="4.21992">
        <ele>603</ele>
        <time>2018-06-03T08:19:38.000Z</time>
      </trkpt>
      <trkpt lat="44.5757" lon="4.21994">
        <ele>604</ele>
        <time>2018-06-03T08:19:39.000Z</time>
      </trkpt>
      <trkpt lat="44.57572" lon="4.21997">
        <ele>605</ele>
        <time>2018-06-03T08:19:40.000Z</time>
      </trkpt>
      <trkpt lat="44.57573" lon="4.21999">
        <ele>605</ele>
        <time>2018-06-03T08:19:41.000Z</time>
      </trkpt>
      <trkpt lat="44.57573" lon="4.22003">
        <ele>606</ele>
        <time>2018-06-03T08:19:42.000Z</time>
      </trkpt>
      <trkpt lat="44.57574" lon="4.22006">
        <ele>606</ele>
        <time>2018-06-03T08:19:43.000Z</time>
      </trkpt>
      <trkpt lat="44.57573" lon="4.2201">
        <ele>605</ele>
        <time>2018-06-03T08:19:44.000Z</time>
      </trkpt>
      <trkpt lat="44.57573" lon="4.22013">
        <ele>604</ele>
        <time>2018-06-03T08:19:45.000Z</time>
      </trkpt>
      <trkpt lat="44.57572" lon="4.22017">
        <ele>603</ele>
        <time>2018-06-03T08:19:46.000Z</time>
      </trkpt>
      <trkpt lat="44.57571" lon="4.2202">
        <ele>603</ele>
        <time>2018-06-03T08:19:47.000Z</time>
      </trkpt>
      <trkpt lat="44.5757" lon="4.22023">
        <ele>602</ele>
        <time>2018-06-03T08:19:48.000Z</time>
      </trkpt>
      <trkpt lat="44.57569" lon="4.22026">
        <ele>602</ele>
        <time>2018-06-03T08:19:49.000Z</time>
      </trkpt>
      <trkpt lat="44.57569" lon="4.22029">
        <ele>601</ele>
        <time>2018-06-03T08:19:50.000Z</time>
      </trkpt>
      <trkpt lat="44.57569" lon="4.22032">
        <ele>601</ele>
        <time>2018-06-03T08:19:51.000Z</time>
      </trkpt>
      <trkpt lat="44.57569" lon="4.22035">
        <ele>601</ele>
        <time>2018-06-03T08:19:52.000Z</time>
      </trkpt>
      <trkpt lat="44.57568" lon="4.22037">
        <ele>601</ele>
        <time>2018-06-03T08:19:53.000Z</time>
      </trkpt>
      <trkpt lat="44.57568" lon="4.22039">
        <ele>601</ele>
        <time>2018-06-03T08:19:54.000Z</time>
      </trkpt>
      <trkpt lat="44.57568" lon="4.22039">
        <ele>601</ele>
        <time>2018-06-03T08:19:55.000Z</time>
      </trkpt>
      <trkpt lat="44.57568" lon="4.22039">
        <ele>601</ele>
        <time>2018-06-03T08:19:56.000Z</time>
      </trkpt>
      <trkpt lat="44.57567" lon="4.2204">
        <ele>601</ele>
        <time>2018-06-03T08:19:57.000Z</time>
      </trkpt>
      <trkpt lat="44.57567" lon="4.22041">
        <ele>601</ele>
        <time>2018-06-03T08:19:58.000Z</time>
      </trkpt>
      <trkpt lat="44.57567" lon="4.22042">
        <ele>601</ele>
        <time>2018-06-03T08:19:59.000Z</time>
      </trkpt>
      <trkpt lat="44.57566" lon="4.22043">
        <ele>601</ele>
        <time>2018-06-03T08:20:00.000Z</time>
      </trkpt>
      <trkpt lat="44.57566" lon="4.22044">
        <ele>601</ele>
        <time>2018-06-03T08:20:01.000Z</time>
      </trkpt>
      <trkpt lat="44.57565" lon="4.22045">
        <ele>601</ele>
        <time>2018-06-03T08:20:02.000Z</time>
      </trkpt>
      <trkpt lat="44.57565" lon="4.22046">
        <ele>601</ele>
        <time>2018-06-03T08:20:03.000Z</time>
      </trkpt>
      <trkpt lat="44.57565" lon="4.22047">
        <ele>601</ele>
        <time>2018-06-03T08:20:04.000Z</time>
      </trkpt>
      <trkpt lat="44.57565" lon="4.22048">
        <ele>601</ele>
        <time>2018-06-03T08:20:05.000Z</time>
      </trkpt>
      <trkpt lat="44.57565" lon="4.22049">
        <ele>601</ele>
        <time>2018-06-03T08:20:06.000Z</time>
      </trkpt>
      <trkpt lat="44.57564" lon="4.2205">
        <ele>601</ele>
        <time>2018-06-03T08:20:07.000Z</time>
      </trkpt>
      <trkpt lat="44.57564" lon="4.22051">
        <ele>601</ele>
        <time>2018-06-03T08:20:08.000Z</time>
      </trkpt>
      <trkpt lat="44.57564" lon="4.22052">
        <ele>601</ele>
        <time>2018-06-03T08:20:09.000Z</time>
      </trkpt>
      <trkpt lat="44.57564" lon="4.22052">
        <ele>601</ele>
        <time>2018-06-03T08:20:10.000Z</time>
      </trkpt>
      <trkpt lat="44.57564" lon="4.22053">
        <ele>601</ele>
        <time>2018-06-03T08:20:11.000Z</time>
      </trkpt>
      <trkpt lat="44.57564" lon="4.22054">
        <ele>601</ele>
        <time>2018-06-03T08:20:12.000Z</time>
      </trkpt>
      <trkpt lat="44.57564" lon="4.22055">
        <ele>601</ele>
        <time>2018-06-03T08:20:13.000Z</time>
      </trkpt>
      <trkpt lat="44.57564" lon="4.22056">
        <ele>601</ele>
        <time>2018-06-03T08:20:14.000Z</time>
      </trkpt>
      <trkpt lat="44.57564" lon="4.22057">
        <ele>601</ele>
        <time>2018-06-03T08:20:15.000Z</time>
      </trkpt>
      <trkpt lat="44.57564" lon="4.22058">
        <ele>601</ele>
        <time>2018-06-03T08:20:16.000Z</time>
      </trkpt>
      <trkpt lat="44.57564" lon="4.22059">
        <ele>602</ele>
        <time>2018-06-03T08:20:17.000Z</time>
      </trkpt>
      <trkpt lat="44.57564" lon="4.2206">
        <ele>602</ele>
        <time>2018-06-03T08:20:18.000Z</time>
      </trkpt>
      <trkpt lat="44.57564" lon="4.22061">
        <ele>602</ele>
        <time>2018-06-03T08:20:19.000Z</time>
      </trkpt>
      <trkpt lat="44.57564" lon="4.22061">
        <ele>602</ele>
        <time>2018-06-03T08:20:20.000Z</time>
      </trkpt>
      <trkpt lat="44.57564" lon="4.22062">
        <ele>602</ele>
        <time>2018-06-03T08:20:21.000Z</time>
      </trkpt>
      <trkpt lat="44.57564" lon="4.22063">
        <ele>602</ele>
        <time>2018-06-03T08:20:22.000Z</time>
      </trkpt>
      <trkpt lat="44.57564" lon="4.22064">
        <ele>602</ele>
        <time>2018-06-03T08:20:23.000Z</time>
      </trkpt>
      <trkpt lat="44.57565" lon="4.22065">
        <ele>603</ele>
        <time>2018-06-03T08:20:24.000Z</time>
      </trkpt>
      <trkpt lat="44.57565" lon="4.22066">
        <ele>603</ele>
        <time>2018-06-03T08:20:25.000Z</time>
      </trkpt>
      <trkpt lat="44.57565" lon="4.22067">
        <ele>603</ele>
        <time>2018-06-03T08:20:26.000Z</time>
      </trkpt>
      <trkpt lat="44.57565" lon="4.22068">
        <ele>603</ele>
        <time>2018-06-03T08:20:27.000Z</time>
      </trkpt>
      <trkpt lat="44.57565" lon="4.22069">
        <ele>603</ele>
        <time>2018-06-03T08:20:28.000Z</time>
      </trkpt>
      <trkpt lat="44.57565" lon="4.2207">
        <ele>604</ele>
        <time>2018-06-03T08:20:29.000Z</time>
      </trkpt>
      <trkpt lat="44.57565" lon="4.22071">
        <ele>604</ele>
        <time>2018-06-03T08:20:30.000Z</time>
      </trkpt>
      <trkpt lat="44.57565" lon="4.22072">
        <ele>604</ele>
        <time>2018-06-03T08:20:31.000Z</time>
      </trkpt>
      <trkpt lat="44.57566" lon="4.22073">
        <ele>604</ele>
        <time>2018-06-03T08:20:32.000Z</time>
      </trkpt>
      <trkpt lat="44.57566" lon="4.22074">
        <ele>604</ele>
        <time>2018-06-03T08:20:33.000Z</time>
      </trkpt>
      <trkpt lat="44.57566" lon="4.22075">
        <ele>605</ele>
        <time>2018-06-03T08:20:34.000Z</time>
      </trkpt>
      <trkpt lat="44.57566" lon="4.22076">
        <ele>605</ele>
        <time>2018-06-03T08:20:35.000Z</time>
      </trkpt>
      <trkpt lat="44.57566" lon="4.22077">
        <ele>605</ele>
        <time>2018-06-03T08:20:36.000Z</time>
      </trkpt>
      <trkpt lat="44.57567" lon="4.22078">
        <ele>605</ele>
        <time>2018-06-03T08:20:37.000Z</time>
      </trkpt>
      <trkpt lat="44.57567" lon="4.22079">
        <ele>606</ele>
        <time>2018-06-03T08:20:38.000Z</time>
      </trkpt>
      <trkpt lat="44.57567" lon="4.2208">
        <ele>606</ele>
        <time>2018-06-03T08:20:39.000Z</time>
      </trkpt>
      <trkpt lat="44.57567" lon="4.22082">
        <ele>606</ele>
        <time>2018-06-03T08:20:40.000Z</time>
      </trkpt>
      <trkpt lat="44.57568" lon="4.22083">
        <ele>606</ele>
        <time>2018-06-03T08:20:41.000Z</time>
      </trkpt>
      <trkpt lat="44.57568" lon="4.22085">
        <ele>607</ele>
        <time>2018-06-03T08:20:42.000Z</time>
      </trkpt>
      <trkpt lat="44.57568" lon="4.22086">
        <ele>607</ele>
        <time>2018-06-03T08:20:43.000Z</time>
      </trkpt>
      <trkpt lat="44.57569" lon="4.22087">
        <ele>607</ele>
        <time>2018-06-03T08:20:44.000Z</time>
      </trkpt>
      <trkpt lat="44.57569" lon="4.22088">
        <ele>607</ele>
        <time>2018-06-03T08:20:45.000Z</time>
      </trkpt>
      <trkpt lat="44.57569" lon="4.22089">
        <ele>607</ele>
        <time>2018-06-03T08:20:46.000Z</time>
      </trkpt>
      <trkpt lat="44.5757" lon="4.2209">
        <ele>607</ele>
        <time>2018-06-03T08:20:47.000Z</time>
      </trkpt>
      <trkpt lat="44.5757" lon="4.22091">
        <ele>607</ele>
        <time>2018-06-03T08:20:48.000Z</time>
      </trkpt>
      <trkpt lat="44.57571" lon="4.22091">
        <ele>607</ele>
        <time>2018-06-03T08:20:49.000Z</time>
      </trkpt>
      <trkpt lat="44.57571" lon="4.22092">
        <ele>607</ele>
        <time>2018-06-03T08:20:50.000Z</time>
      </trkpt>
      <trkpt lat="44.57571" lon="4.22093">
        <ele>607</ele>
        <time>2018-06-03T08:20:51.000Z</time>
      </trkpt>
      <trkpt lat="44.57572" lon="4.22093">
        <ele>607</ele>
        <time>2018-06-03T08:20:52.000Z</time>
      </trkpt>
      <trkpt lat="44.57572" lon="4.22094">
        <ele>607</ele>
        <time>2018-06-03T08:20:53.000Z</time>
      </trkpt>
      <trkpt lat="44.57572" lon="4.22094">
        <ele>607</ele>
        <time>2018-06-03T08:20:54.000Z</time>
      </trkpt>
      <trkpt lat="44.57572" lon="4.22095">
        <ele>607</ele>
        <time>2018-06-03T08:20:55.000Z</time>
      </trkpt>
      <trkpt lat="44.57572" lon="4.22095">
        <ele>607</ele>
        <time>2018-06-03T08:20:56.000Z</time>
      </trkpt>
      <trkpt lat="44.57573" lon="4.22096">
        <ele>607</ele>
        <time>2018-06-03T08:20:57.000Z</time>
      </trkpt>
      <trkpt lat="44.57573" lon="4.22096">
        <ele>607</ele>
        <time>2018-06-03T08:20:58.000Z</time>
      </trkpt>
      <trkpt lat="44.57573" lon="4.22097">
        <ele>607</ele>
        <time>2018-06-03T08:20:59.000Z</time>
      </trkpt>
      <trkpt lat="44.57574" lon="4.22097">
        <ele>607</ele>
        <time>2018-06-03T08:21:00.000Z</time>
      </trkpt>
      <trkpt lat="44.57574" lon="4.22098">
        <ele>607</ele>
        <time>2018-06-03T08:21:01.000Z</time>
      </trkpt>
      <trkpt lat="44.57574" lon="4.22099">
        <ele>607</ele>
        <time>2018-06-03T08:21:02.000Z</time>
      </trkpt>
      <trkpt lat="44.57575" lon="4.221">
        <ele>607</ele>
        <time>2018-06-03T08:21:03.000Z</time>
      </trkpt>
      <trkpt lat="44.57575" lon="4.22101">
        <ele>606</ele>
        <time>2018-06-03T08:21:04.000Z</time>
      </trkpt>
      <trkpt lat="44.57575" lon="4.22102">
        <ele>606</ele>
        <time>2018-06-03T08:21:05.000Z</time>
      </trkpt>
      <trkpt lat="44.57575" lon="4.22102">
        <ele>606</ele>
        <time>2018-06-03T08:21:06.000Z</time>
      </trkpt>
      <trkpt lat="44.57576" lon="4.22103">
        <ele>606</ele>
        <time>2018-06-03T08:21:07.000Z</time>
      </trkpt>
      <trkpt lat="44.57576" lon="4.22104">
        <ele>606</ele>
        <time>2018-06-03T08:21:08.000Z</time>
      </trkpt>
      <trkpt lat="44.57576" lon="4.22104">
        <ele>606</ele>
        <time>2018-06-03T08:21:09.000Z</time>
      </trkpt>
      <trkpt lat="44.57576" lon="4.22105">
        <ele>606</ele>
        <time>2018-06-03T08:21:10.000Z</time>
      </trkpt>
      <trkpt lat="44.57576" lon="4.22105">
        <ele>606</ele>
        <time>2018-06-03T08:21:11.000Z</time>
      </trkpt>
      <trkpt lat="44.57576" lon="4.22106">
        <ele>606</ele>
        <time>2018-06-03T08:21:12.000Z</time>
      </trkpt>
      <trkpt lat="44.57577" lon="4.22107">
        <ele>605</ele>
        <time>2018-06-03T08:21:13.000Z</time>
      </trkpt>
      <trkpt lat="44.57577" lon="4.22108">
        <ele>605</ele>
        <time>2018-06-03T08:21:14.000Z</time>
      </trkpt>
      <trkpt lat="44.57577" lon="4.22108">
        <ele>605</ele>
        <time>2018-06-03T08:21:15.000Z</time>
      </trkpt>
      <trkpt lat="44.57577" lon="4.22109">
        <ele>605</ele>
        <time>2018-06-03T08:21:16.000Z</time>
      </trkpt>
      <trkpt lat="44.57578" lon="4.2211">
        <ele>605</ele>
        <time>2018-06-03T08:21:17.000Z</time>
      </trkpt>
      <trkpt lat="44.57578" lon="4.22111">
        <ele>605</ele>
        <time>2018-06-03T08:21:18.000Z</time>
      </trkpt>
      <trkpt lat="44.57578" lon="4.22112">
        <ele>605</ele>
        <time>2018-06-03T08:21:19.000Z</time>
      </trkpt>
      <trkpt lat="44.57579" lon="4.22113">
        <ele>605</ele>
        <time>2018-06-03T08:21:20.000Z</time>
      </trkpt>
      <trkpt lat="44.57579" lon="4.22114">
        <ele>605</ele>
        <time>2018-06-03T08:21:21.000Z</time>
      </trkpt>
      <trkpt lat="44.57579" lon="4.22114">
        <ele>605</ele>
        <time>2018-06-03T08:21:22.000Z</time>
      </trkpt>
      <trkpt lat="44.57579" lon="4.22115">
        <ele>605</ele>
        <time>2018-06-03T08:21:23.000Z</time>
      </trkpt>
      <trkpt lat="44.5758" lon="4.22116">
        <ele>605</ele>
        <time>2018-06-03T08:21:24.000Z</time>
      </trkpt>
      <trkpt lat="44.5758" lon="4.22117">
        <ele>604</ele>
        <time>2018-06-03T08:21:25.000Z</time>
      </trkpt>
      <trkpt lat="44.5758" lon="4.22117">
        <ele>604</ele>
        <time>2018-06-03T08:21:26.000Z</time>
      </trkpt>
      <trkpt lat="44.57581" lon="4.22118">
        <ele>604</ele>
        <time>2018-06-03T08:21:27.000Z</time>
      </trkpt>
      <trkpt lat="44.57581" lon="4.22119">
        <ele>604</ele>
        <time>2018-06-03T08:21:28.000Z</time>
      </trkpt>
      <trkpt lat="44.57581" lon="4.2212">
        <ele>604</ele>
        <time>2018-06-03T08:21:29.000Z</time>
      </trkpt>
      <trkpt lat="44.57582" lon="4.2212">
        <ele>604</ele>
        <time>2018-06-03T08:21:30.000Z</time>
      </trkpt>
      <trkpt lat="44.57582" lon="4.22121">
        <ele>604</ele>
        <time>2018-06-03T08:21:31.000Z</time>
      </trkpt>
      <trkpt lat="44.57582" lon="4.22122">
        <ele>604</ele>
        <time>2018-06-03T08:21:32.000Z</time>
      </trkpt>
      <trkpt lat="44.57583" lon="4.22123">
        <ele>604</ele>
        <time>2018-06-03T08:21:33.000Z</time>
      </trkpt>
      <trkpt lat="44.57583" lon="4.22124">
        <ele>604</ele>
        <time>2018-06-03T08:21:34.000Z</time>
      </trkpt>
      <trkpt lat="44.57583" lon="4.22124">
        <ele>604</ele>
        <time>2018-06-03T08:21:35.000Z</time>
      </trkpt>
      <trkpt lat="44.57584" lon="4.22125">
        <ele>626</ele>
        <time>2018-06-03T08:21:36.000Z</time>
      </trkpt>
      <trkpt lat="44.57584" lon="4.22126">
        <ele>626</ele>
        <time>2018-06-03T08:21:37.000Z</time>
      </trkpt>
      <trkpt lat="44.57585" lon="4.22126">
        <ele>626</ele>
        <time>2018-06-03T08:21:38.000Z</time>
      </trkpt>
      <trkpt lat="44.57585" lon="4.22127">
        <ele>626</ele>
        <time>2018-06-03T08:21:39.000Z</time>
      </trkpt>
      <trkpt lat="44.57585" lon="4.22128">
        <ele>626</ele>
        <time>2018-06-03T08:21:40.000Z</time>
      </trkpt>
      <trkpt lat="44.57585" lon="4.22129">
        <ele>626</ele>
        <time>2018-06-03T08:21:41.000Z</time>
      </trkpt>
      <trkpt lat="44.57585" lon="4.2213">
        <ele>626</ele>
        <time>2018-06-03T08:21:42.000Z</time>
      </trkpt>
      <trkpt lat="44.57586" lon="4.2213">
        <ele>626</ele>
        <time>2018-06-03T08:21:43.000Z</time>
      </trkpt>
      <trkpt lat="44.57586" lon="4.22132">
        <ele>626</ele>
        <time>2018-06-03T08:21:44.000Z</time>
      </trkpt>
      <trkpt lat="44.57587" lon="4.22132">
        <ele>626</ele>
        <time>2018-06-03T08:21:45.000Z</time>
      </trkpt>
      <trkpt lat="44.57587" lon="4.22133">
        <ele>626</ele>
        <time>2018-06-03T08:21:46.000Z</time>
      </trkpt>
      <trkpt lat="44.57587" lon="4.22134">
        <ele>626</ele>
        <time>2018-06-03T08:21:47.000Z</time>
      </trkpt>
      <trkpt lat="44.57587" lon="4.22135">
        <ele>626</ele>
        <time>2018-06-03T08:21:48.000Z</time>
      </trkpt>
      <trkpt lat="44.57587" lon="4.22136">
        <ele>626</ele>
        <time>2018-06-03T08:21:49.000Z</time>
      </trkpt>
      <trkpt lat="44.57587" lon="4.22136">
        <ele>626</ele>
        <time>2018-06-03T08:21:50.000Z</time>
      </trkpt>
      <trkpt lat="44.57587" lon="4.22137">
        <ele>626</ele>
        <time>2018-06-03T08:21:51.000Z</time>
      </trkpt>
      <trkpt lat="44.57588" lon="4.22138">
        <ele>626</ele>
        <time>2018-06-03T08:21:52.000Z</time>
      </trkpt>
      <trkpt lat="44.57588" lon="4.22139">
        <ele>626</ele>
        <time>2018-06-03T08:21:53.000Z</time>
      </trkpt>
      <trkpt lat="44.57588" lon="4.22141">
        <ele>626</ele>
        <time>2018-06-03T08:21:54.000Z</time>
      </trkpt>
      <trkpt lat="44.57588" lon="4.22142">
        <ele>625</ele>
        <time>2018-06-03T08:21:55.000Z</time>
      </trkpt>
      <trkpt lat="44.57588" lon="4.22143">
        <ele>625</ele>
        <time>2018-06-03T08:21:56.000Z</time>
      </trkpt>
      <trkpt lat="44.57588" lon="4.22144">
        <ele>625</ele>
        <time>2018-06-03T08:21:57.000Z</time>
      </trkpt>
      <trkpt lat="44.57589" lon="4.22145">
        <ele>625</ele>
        <time>2018-06-03T08:21:58.000Z</time>
      </trkpt>
      <trkpt lat="44.57589" lon="4.22146">
        <ele>625</ele>
        <time>2018-06-03T08:21:59.000Z</time>
      </trkpt>
      <trkpt lat="44.57589" lon="4.22146">
        <ele>625</ele>
        <time>2018-06-03T08:22:00.000Z</time>
      </trkpt>
      <trkpt lat="44.57589" lon="4.22147">
        <ele>624</ele>
        <time>2018-06-03T08:22:01.000Z</time>
      </trkpt>
      <trkpt lat="44.57589" lon="4.22149">
        <ele>624</ele>
        <time>2018-06-03T08:22:02.000Z</time>
      </trkpt>
      <trkpt lat="44.57589" lon="4.2215">
        <ele>624</ele>
        <time>2018-06-03T08:22:03.000Z</time>
      </trkpt>
      <trkpt lat="44.57589" lon="4.22151">
        <ele>623</ele>
        <time>2018-06-03T08:22:04.000Z</time>
      </trkpt>
      <trkpt lat="44.57589" lon="4.22152">
        <ele>623</ele>
        <time>2018-06-03T08:22:05.000Z</time>
      </trkpt>
      <trkpt lat="44.57589" lon="4.22153">
        <ele>623</ele>
        <time>2018-06-03T08:22:06.000Z</time>
      </trkpt>
      <trkpt lat="44.57589" lon="4.22155">
        <ele>622</ele>
        <time>2018-06-03T08:22:07.000Z</time>
      </trkpt>
      <trkpt lat="44.5759" lon="4.22156">
        <ele>622</ele>
        <time>2018-06-03T08:22:08.000Z</time>
      </trkpt>
      <trkpt lat="44.5759" lon="4.22157">
        <ele>622</ele>
        <time>2018-06-03T08:22:09.000Z</time>
      </trkpt>
      <trkpt lat="44.5759" lon="4.22158">
        <ele>622</ele>
        <time>2018-06-03T08:22:10.000Z</time>
      </trkpt>
      <trkpt lat="44.57591" lon="4.22159">
        <ele>621</ele>
        <time>2018-06-03T08:22:11.000Z</time>
      </trkpt>
      <trkpt lat="44.57591" lon="4.2216">
        <ele>621</ele>
        <time>2018-06-03T08:22:12.000Z</time>
      </trkpt>
      <trkpt lat="44.57591" lon="4.22161">
        <ele>621</ele>
        <time>2018-06-03T08:22:13.000Z</time>
      </trkpt>
      <trkpt lat="44.57592" lon="4.22162">
        <ele>621</ele>
        <time>2018-06-03T08:22:14.000Z</time>
      </trkpt>
      <trkpt lat="44.57592" lon="4.22163">
        <ele>621</ele>
        <time>2018-06-03T08:22:15.000Z</time>
      </trkpt>
      <trkpt lat="44.57592" lon="4.22164">
        <ele>621</ele>
        <time>2018-06-03T08:22:16.000Z</time>
      </trkpt>
      <trkpt lat="44.57592" lon="4.22165">
        <ele>621</ele>
        <time>2018-06-03T08:22:17.000Z</time>
      </trkpt>
      <trkpt lat="44.57592" lon="4.22166">
        <ele>621</ele>
        <time>2018-06-03T08:22:18.000Z</time>
      </trkpt>
      <trkpt lat="44.57593" lon="4.22167">
        <ele>621</ele>
        <time>2018-06-03T08:22:19.000Z</time>
      </trkpt>
      <trkpt lat="44.57593" lon="4.22168">
        <ele>622</ele>
        <time>2018-06-03T08:22:20.000Z</time>
      </trkpt>
      <trkpt lat="44.57593" lon="4.2217">
        <ele>622</ele>
        <time>2018-06-03T08:22:21.000Z</time>
      </trkpt>
      <trkpt lat="44.57593" lon="4.22171">
        <ele>622</ele>
        <time>2018-06-03T08:22:22.000Z</time>
      </trkpt>
      <trkpt lat="44.57594" lon="4.22172">
        <ele>623</ele>
        <time>2018-06-03T08:22:23.000Z</time>
      </trkpt>
      <trkpt lat="44.57594" lon="4.22173">
        <ele>623</ele>
        <time>2018-06-03T08:22:24.000Z</time>
      </trkpt>
      <trkpt lat="44.57594" lon="4.22175">
        <ele>624</ele>
        <time>2018-06-03T08:22:25.000Z</time>
      </trkpt>
      <trkpt lat="44.57594" lon="4.22176">
        <ele>624</ele>
        <time>2018-06-03T08:22:26.000Z</time>
      </trkpt>
      <trkpt lat="44.57595" lon="4.22177">
        <ele>625</ele>
        <time>2018-06-03T08:22:27.000Z</time>
      </trkpt>
      <trkpt lat="44.57595" lon="4.22178">
        <ele>625</ele>
        <time>2018-06-03T08:22:28.000Z</time>
      </trkpt>
      <trkpt lat="44.57595" lon="4.22179">
        <ele>625</ele>
        <time>2018-06-03T08:22:29.000Z</time>
      </trkpt>
      <trkpt lat="44.57595" lon="4.2218">
        <ele>626</ele>
        <time>2018-06-03T08:22:30.000Z</time>
      </trkpt>
      <trkpt lat="44.57595" lon="4.22182">
        <ele>626</ele>
        <time>2018-06-03T08:22:31.000Z</time>
      </trkpt>
      <trkpt lat="44.57595" lon="4.22183">
        <ele>626</ele>
        <time>2018-06-03T08:22:32.000Z</time>
      </trkpt>
      <trkpt lat="44.57595" lon="4.22184">
        <ele>627</ele>
        <time>2018-06-03T08:22:33.000Z</time>
      </trkpt>
      <trkpt lat="44.57595" lon="4.22185">
        <ele>627</ele>
        <time>2018-06-03T08:22:34.000Z</time>
      </trkpt>
      <trkpt lat="44.57596" lon="4.22185">
        <ele>627</ele>
        <time>2018-06-03T08:22:35.000Z</time>
      </trkpt>
      <trkpt lat="44.57596" lon="4.22186">
        <ele>627</ele>
        <time>2018-06-03T08:22:36.000Z</time>
      </trkpt>
      <trkpt lat="44.57596" lon="4.22186">
        <ele>627</ele>
        <time>2018-06-03T08:22:37.000Z</time>
      </trkpt>
      <trkpt lat="44.57596" lon="4.22187">
        <ele>628</ele>
        <time>2018-06-03T08:22:38.000Z</time>
      </trkpt>
      <trkpt lat="44.57596" lon="4.22188">
        <ele>628</ele>
        <time>2018-06-03T08:22:39.000Z</time>
      </trkpt>
      <trkpt lat="44.57596" lon="4.22189">
        <ele>628</ele>
        <time>2018-06-03T08:22:40.000Z</time>
      </trkpt>
      <trkpt lat="44.57597" lon="4.2219">
        <ele>628</ele>
        <time>2018-06-03T08:22:41.000Z</time>
      </trkpt>
      <trkpt lat="44.57597" lon="4.22191">
        <ele>629</ele>
        <time>2018-06-03T08:22:42.000Z</time>
      </trkpt>
      <trkpt lat="44.57597" lon="4.22193">
        <ele>629</ele>
        <time>2018-06-03T08:22:43.000Z</time>
      </trkpt>
      <trkpt lat="44.57597" lon="4.22194">
        <ele>629</ele>
        <time>2018-06-03T08:22:44.000Z</time>
      </trkpt>
      <trkpt lat="44.57598" lon="4.22196">
        <ele>629</ele>
        <time>2018-06-03T08:22:45.000Z</time>
      </trkpt>
      <trkpt lat="44.57598" lon="4.22197">
        <ele>630</ele>
        <time>2018-06-03T08:22:46.000Z</time>
      </trkpt>
      <trkpt lat="44.57598" lon="4.22198">
        <ele>630</ele>
        <time>2018-06-03T08:22:47.000Z</time>
      </trkpt>
      <trkpt lat="44.57598" lon="4.22198">
        <ele>630</ele>
        <time>2018-06-03T08:22:48.000Z</time>
      </trkpt>
      <trkpt lat="44.57598" lon="4.22198">
        <ele>630</ele>
        <time>2018-06-03T08:22:49.000Z</time>
      </trkpt>
      <trkpt lat="44.57598" lon="4.22198">
        <ele>630</ele>
        <time>2018-06-03T08:22:50.000Z</time>
      </trkpt>
      <trkpt lat="44.57598" lon="4.22198">
        <ele>630</ele>
        <time>2018-06-03T08:22:51.000Z</time>
      </trkpt>
      <trkpt lat="44.57598" lon="4.22198">
        <ele>630</ele>
        <time>2018-06-03T08:22:52.000Z</time>
      </trkpt>
      <trkpt lat="44.57598" lon="4.22198">
        <ele>630</ele>
        <time>2018-06-03T08:22:53.000Z</time>
      </trkpt>
      <trkpt lat="44.57598" lon="4.22198">
        <ele>630</ele>
        <time>2018-06-03T08:22:54.000Z</time>
      </trkpt>
      <trkpt lat="44.57598" lon="4.22199">
        <ele>630</ele>
        <time>2018-06-03T08:22:55.000Z</time>
      </trkpt>
      <trkpt lat="44.57599" lon="4.22201">
        <ele>630</ele>
        <time>2018-06-03T08:22:56.000Z</time>
      </trkpt>
      <trkpt lat="44.57599" lon="4.22202">
        <ele>630</ele>
        <time>2018-06-03T08:22:57.000Z</time>
      </trkpt>
      <trkpt lat="44.576" lon="4.22204">
        <ele>631</ele>
        <time>2018-06-03T08:22:58.000Z</time>
      </trkpt>
      <trkpt lat="44.57599" lon="4.22206">
        <ele>631</ele>
        <time>2018-06-03T08:22:59.000Z</time>
      </trkpt>
      <trkpt lat="44.57599" lon="4.22208">
        <ele>631</ele>
        <time>2018-06-03T08:23:00.000Z</time>
      </trkpt>
      <trkpt lat="44.57599" lon="4.2221">
        <ele>631</ele>
        <time>2018-06-03T08:23:01.000Z</time>
      </trkpt>
      <trkpt lat="44.57598" lon="4.22212">
        <ele>631</ele>
        <time>2018-06-03T08:23:02.000Z</time>
      </trkpt>
      <trkpt lat="44.57598" lon="4.22214">
        <ele>631</ele>
        <time>2018-06-03T08:23:03.000Z</time>
      </trkpt>
      <trkpt lat="44.57598" lon="4.22217">
        <ele>631</ele>
        <time>2018-06-03T08:23:04.000Z</time>
      </trkpt>
      <trkpt lat="44.57598" lon="4.2222">
        <ele>631</ele>
        <time>2018-06-03T08:23:05.000Z</time>
      </trkpt>
      <trkpt lat="44.57598" lon="4.22222">
        <ele>631</ele>
        <time>2018-06-03T08:23:06.000Z</time>
      </trkpt>
      <trkpt lat="44.57599" lon="4.22225">
        <ele>630</ele>
        <time>2018-06-03T08:23:07.000Z</time>
      </trkpt>
      <trkpt lat="44.57599" lon="4.22227">
        <ele>630</ele>
        <time>2018-06-03T08:23:08.000Z</time>
      </trkpt>
      <trkpt lat="44.57599" lon="4.2223">
        <ele>630</ele>
        <time>2018-06-03T08:23:09.000Z</time>
      </trkpt>
      <trkpt lat="44.576" lon="4.22232">
        <ele>630</ele>
        <time>2018-06-03T08:23:10.000Z</time>
      </trkpt>
      <trkpt lat="44.57601" lon="4.22235">
        <ele>630</ele>
        <time>2018-06-03T08:23:11.000Z</time>
      </trkpt>
      <trkpt lat="44.57601" lon="4.22237">
        <ele>630</ele>
        <time>2018-06-03T08:23:12.000Z</time>
      </trkpt>
      <trkpt lat="44.57602" lon="4.22239">
        <ele>630</ele>
        <time>2018-06-03T08:23:13.000Z</time>
      </trkpt>
      <trkpt lat="44.57602" lon="4.22242">
        <ele>630</ele>
        <time>2018-06-03T08:23:14.000Z</time>
      </trkpt>
      <trkpt lat="44.57602" lon="4.22244">
        <ele>630</ele>
        <time>2018-06-03T08:23:15.000Z</time>
      </trkpt>
      <trkpt lat="44.57603" lon="4.22246">
        <ele>630</ele>
        <time>2018-06-03T08:23:16.000Z</time>
      </trkpt>
      <trkpt lat="44.57603" lon="4.22248">
        <ele>630</ele>
        <time>2018-06-03T08:23:17.000Z</time>
      </trkpt>
      <trkpt lat="44.57604" lon="4.22251">
        <ele>630</ele>
        <time>2018-06-03T08:23:18.000Z</time>
      </trkpt>
      <trkpt lat="44.57604" lon="4.22253">
        <ele>630</ele>
        <time>2018-06-03T08:23:19.000Z</time>
      </trkpt>
      <trkpt lat="44.57605" lon="4.22256">
        <ele>631</ele>
        <time>2018-06-03T08:23:20.000Z</time>
      </trkpt>
      <trkpt lat="44.57606" lon="4.22258">
        <ele>631</ele>
        <time>2018-06-03T08:23:21.000Z</time>
      </trkpt>
      <trkpt lat="44.57606" lon="4.2226">
        <ele>631</ele>
        <time>2018-06-03T08:23:22.000Z</time>
      </trkpt>
      <trkpt lat="44.57607" lon="4.22262">
        <ele>631</ele>
        <time>2018-06-03T08:23:23.000Z</time>
      </trkpt>
      <trkpt lat="44.57607" lon="4.22264">
        <ele>632</ele>
        <time>2018-06-03T08:23:24.000Z</time>
      </trkpt>
      <trkpt lat="44.57608" lon="4.22265">
        <ele>632</ele>
        <time>2018-06-03T08:23:25.000Z</time>
      </trkpt>
      <trkpt lat="44.57608" lon="4.22265">
        <ele>632</ele>
        <time>2018-06-03T08:23:26.000Z</time>
      </trkpt>
      <trkpt lat="44.57608" lon="4.22265">
        <ele>632</ele>
        <time>2018-06-03T08:23:27.000Z</time>
      </trkpt>
      <trkpt lat="44.57608" lon="4.22265">
        <ele>632</ele>
        <time>2018-06-03T08:23:28.000Z</time>
      </trkpt>
      <trkpt lat="44.57608" lon="4.22266">
        <ele>632</ele>
        <time>2018-06-03T08:23:29.000Z</time>
      </trkpt>
      <trkpt lat="44.57609" lon="4.22267">
        <ele>632</ele>
        <time>2018-06-03T08:23:30.000Z</time>
      </trkpt>
      <trkpt lat="44.57609" lon="4.22267">
        <ele>632</ele>
        <time>2018-06-03T08:23:31.000Z</time>
      </trkpt>
      <trkpt lat="44.5761" lon="4.22268">
        <ele>632</ele>
        <time>2018-06-03T08:23:32.000Z</time>
      </trkpt>
      <trkpt lat="44.5761" lon="4.22269">
        <ele>633</ele>
        <time>2018-06-03T08:23:33.000Z</time>
      </trkpt>
      <trkpt lat="44.5761" lon="4.22269">
        <ele>633</ele>
        <time>2018-06-03T08:23:34.000Z</time>
      </trkpt>
      <trkpt lat="44.57611" lon="4.22269">
        <ele>633</ele>
        <time>2018-06-03T08:23:35.000Z</time>
      </trkpt>
      <trkpt lat="44.57611" lon="4.2227">
        <ele>633</ele>
        <time>2018-06-03T08:23:36.000Z</time>
      </trkpt>
      <trkpt lat="44.57611" lon="4.2227">
        <ele>633</ele>
        <time>2018-06-03T08:23:37.000Z</time>
      </trkpt>
      <trkpt lat="44.57611" lon="4.2227">
        <ele>633</ele>
        <time>2018-06-03T08:23:38.000Z</time>
      </trkpt>
      <trkpt lat="44.57611" lon="4.22271">
        <ele>633</ele>
        <time>2018-06-03T08:23:39.000Z</time>
      </trkpt>
      <trkpt lat="44.57612" lon="4.22271">
        <ele>633</ele>
        <time>2018-06-03T08:23:40.000Z</time>
      </trkpt>
      <trkpt lat="44.57612" lon="4.22271">
        <ele>633</ele>
        <time>2018-06-03T08:23:41.000Z</time>
      </trkpt>
      <trkpt lat="44.57612" lon="4.22271">
        <ele>633</ele>
        <time>2018-06-03T08:23:42.000Z</time>
      </trkpt>
      <trkpt lat="44.57612" lon="4.22271">
        <ele>633</ele>
        <time>2018-06-03T08:23:43.000Z</time>
      </trkpt>
      <trkpt lat="44.57612" lon="4.22271">
        <ele>633</ele>
        <time>2018-06-03T08:23:44.000Z</time>
      </trkpt>
      <trkpt lat="44.57613" lon="4.22272">
        <ele>633</ele>
        <time>2018-06-03T08:23:45.000Z</time>
      </trkpt>
      <trkpt lat="44.57614" lon="4.22272">
        <ele>633</ele>
        <time>2018-06-03T08:23:46.000Z</time>
      </trkpt>
      <trkpt lat="44.57615" lon="4.22272">
        <ele>634</ele>
        <time>2018-06-03T08:23:47.000Z</time>
      </trkpt>
      <trkpt lat="44.57616" lon="4.22273">
        <ele>634</ele>
        <time>2018-06-03T08:23:48.000Z</time>
      </trkpt>
      <trkpt lat="44.57616" lon="4.22273">
        <ele>634</ele>
        <time>2018-06-03T08:23:49.000Z</time>
      </trkpt>
      <trkpt lat="44.57617" lon="4.22273">
        <ele>634</ele>
        <time>2018-06-03T08:23:50.000Z</time>
      </trkpt>
      <trkpt lat="44.57617" lon="4.22274">
        <ele>634</ele>
        <time>2018-06-03T08:23:51.000Z</time>
      </trkpt>
      <trkpt lat="44.57618" lon="4.22275">
        <ele>634</ele>
        <time>2018-06-03T08:23:52.000Z</time>
      </trkpt>
      <trkpt lat="44.57619" lon="4.22276">
        <ele>634</ele>
        <time>2018-06-03T08:23:53.000Z</time>
      </trkpt>
      <trkpt lat="44.57619" lon="4.22276">
        <ele>634</ele>
        <time>2018-06-03T08:23:54.000Z</time>
      </trkpt>
      <trkpt lat="44.57619" lon="4.22277">
        <ele>635</ele>
        <time>2018-06-03T08:23:55.000Z</time>
      </trkpt>
      <trkpt lat="44.57619" lon="4.22277">
        <ele>635</ele>
        <time>2018-06-03T08:23:56.000Z</time>
      </trkpt>
      <trkpt lat="44.5762" lon="4.22279">
        <ele>635</ele>
        <time>2018-06-03T08:23:57.000Z</time>
      </trkpt>
      <trkpt lat="44.57621" lon="4.2228">
        <ele>635</ele>
        <time>2018-06-03T08:23:58.000Z</time>
      </trkpt>
      <trkpt lat="44.57621" lon="4.2228">
        <ele>635</ele>
        <time>2018-06-03T08:23:59.000Z</time>
      </trkpt>
      <trkpt lat="44.57622" lon="4.22281">
        <ele>635</ele>
        <time>2018-06-03T08:24:00.000Z</time>
      </trkpt>
      <trkpt lat="44.57622" lon="4.22282">
        <ele>635</ele>
        <time>2018-06-03T08:24:01.000Z</time>
      </trkpt>
      <trkpt lat="44.57622" lon="4.22283">
        <ele>635</ele>
        <time>2018-06-03T08:24:02.000Z</time>
      </trkpt>
      <trkpt lat="44.57622" lon="4.22283">
        <ele>635</ele>
        <time>2018-06-03T08:24:03.000Z</time>
      </trkpt>
      <trkpt lat="44.57623" lon="4.22284">
        <ele>635</ele>
        <time>2018-06-03T08:24:04.000Z</time>
      </trkpt>
      <trkpt lat="44.57623" lon="4.22285">
        <ele>635</ele>
        <time>2018-06-03T08:24:05.000Z</time>
      </trkpt>
      <trkpt lat="44.57623" lon="4.22286">
        <ele>635</ele>
        <time>2018-06-03T08:24:06.000Z</time>
      </trkpt>
      <trkpt lat="44.57624" lon="4.22286">
        <ele>635</ele>
        <time>2018-06-03T08:24:07.000Z</time>
      </trkpt>
      <trkpt lat="44.57624" lon="4.22287">
        <ele>635</ele>
        <time>2018-06-03T08:24:08.000Z</time>
      </trkpt>
      <trkpt lat="44.57625" lon="4.22288">
        <ele>635</ele>
        <time>2018-06-03T08:24:09.000Z</time>
      </trkpt>
      <trkpt lat="44.57626" lon="4.22289">
        <ele>635</ele>
        <time>2018-06-03T08:24:10.000Z</time>
      </trkpt>
      <trkpt lat="44.57627" lon="4.2229">
        <ele>636</ele>
        <time>2018-06-03T08:24:11.000Z</time>
      </trkpt>
      <trkpt lat="44.57627" lon="4.22291">
        <ele>636</ele>
        <time>2018-06-03T08:24:12.000Z</time>
      </trkpt>
      <trkpt lat="44.57628" lon="4.22292">
        <ele>636</ele>
        <time>2018-06-03T08:24:13.000Z</time>
      </trkpt>
      <trkpt lat="44.57629" lon="4.22293">
        <ele>636</ele>
        <time>2018-06-03T08:24:14.000Z</time>
      </trkpt>
      <trkpt lat="44.5763" lon="4.22294">
        <ele>636</ele>
        <time>2018-06-03T08:24:15.000Z</time>
      </trkpt>
      <trkpt lat="44.5763" lon="4.22295">
        <ele>636</ele>
        <time>2018-06-03T08:24:16.000Z</time>
      </trkpt>
      <trkpt lat="44.57631" lon="4.22295">
        <ele>636</ele>
        <time>2018-06-03T08:24:17.000Z</time>
      </trkpt>
      <trkpt lat="44.57632" lon="4.22296">
        <ele>636</ele>
        <time>2018-06-03T08:24:18.000Z</time>
      </trkpt>
      <trkpt lat="44.57632" lon="4.22296">
        <ele>636</ele>
        <time>2018-06-03T08:24:19.000Z</time>
      </trkpt>
      <trkpt lat="44.57633" lon="4.22297">
        <ele>636</ele>
        <time>2018-06-03T08:24:20.000Z</time>
      </trkpt>
      <trkpt lat="44.57633" lon="4.22297">
        <ele>636</ele>
        <time>2018-06-03T08:24:21.000Z</time>
      </trkpt>
      <trkpt lat="44.57633" lon="4.22297">
        <ele>636</ele>
        <time>2018-06-03T08:24:22.000Z</time>
      </trkpt>
      <trkpt lat="44.57633" lon="4.22297">
        <ele>636</ele>
        <time>2018-06-03T08:24:23.000Z</time>
      </trkpt>
      <trkpt lat="44.57633" lon="4.22297">
        <ele>636</ele>
        <time>2018-06-03T08:24:24.000Z</time>
      </trkpt>
      <trkpt lat="44.57633" lon="4.22298">
        <ele>636</ele>
        <time>2018-06-03T08:24:25.000Z</time>
      </trkpt>
      <trkpt lat="44.57633" lon="4.22298">
        <ele>636</ele>
        <time>2018-06-03T08:24:26.000Z</time>
      </trkpt>
      <trkpt lat="44.57633" lon="4.22298">
        <ele>636</ele>
        <time>2018-06-03T08:24:27.000Z</time>
      </trkpt>
      <trkpt lat="44.57633" lon="4.22298">
        <ele>636</ele>
        <time>2018-06-03T08:24:28.000Z</time>
      </trkpt>
      <trkpt lat="44.57634" lon="4.22299">
        <ele>636</ele>
        <time>2018-06-03T08:24:29.000Z</time>
      </trkpt>
      <trkpt lat="44.57635" lon="4.22301">
        <ele>636</ele>
        <time>2018-06-03T08:24:30.000Z</time>
      </trkpt>
      <trkpt lat="44.57637" lon="4.22303">
        <ele>637</ele>
        <time>2018-06-03T08:24:31.000Z</time>
      </trkpt>
      <trkpt lat="44.57638" lon="4.22304">
        <ele>637</ele>
        <time>2018-06-03T08:24:32.000Z</time>
      </trkpt>
      <trkpt lat="44.5764" lon="4.22305">
        <ele>637</ele>
        <time>2018-06-03T08:24:33.000Z</time>
      </trkpt>
      <trkpt lat="44.57641" lon="4.22305">
        <ele>637</ele>
        <time>2018-06-03T08:24:34.000Z</time>
      </trkpt>
      <trkpt lat="44.57642" lon="4.22305">
        <ele>637</ele>
        <time>2018-06-03T08:24:35.000Z</time>
      </trkpt>
      <trkpt lat="44.57643" lon="4.22305">
        <ele>637</ele>
        <time>2018-06-03T08:24:36.000Z</time>
      </trkpt>
      <trkpt lat="44.57645" lon="4.22304">
        <ele>637</ele>
        <time>2018-06-03T08:24:37.000Z</time>
      </trkpt>
      <trkpt lat="44.57645" lon="4.22304">
        <ele>637</ele>
        <time>2018-06-03T08:24:38.000Z</time>
      </trkpt>
      <trkpt lat="44.57647" lon="4.22304">
        <ele>637</ele>
        <time>2018-06-03T08:24:39.000Z</time>
      </trkpt>
      <trkpt lat="44.57648" lon="4.22304">
        <ele>638</ele>
        <time>2018-06-03T08:24:40.000Z</time>
      </trkpt>
      <trkpt lat="44.57649" lon="4.22303">
        <ele>638</ele>
        <time>2018-06-03T08:24:41.000Z</time>
      </trkpt>
      <trkpt lat="44.57649" lon="4.22303">
        <ele>638</ele>
        <time>2018-06-03T08:24:42.000Z</time>
      </trkpt>
      <trkpt lat="44.57652" lon="4.22303">
        <ele>638</ele>
        <time>2018-06-03T08:24:43.000Z</time>
      </trkpt>
      <trkpt lat="44.57653" lon="4.22302">
        <ele>638</ele>
        <time>2018-06-03T08:24:44.000Z</time>
      </trkpt>
      <trkpt lat="44.57655" lon="4.22301">
        <ele>638</ele>
        <time>2018-06-03T08:24:45.000Z</time>
      </trkpt>
      <trkpt lat="44.57656" lon="4.223">
        <ele>638</ele>
        <time>2018-06-03T08:24:46.000Z</time>
      </trkpt>
      <trkpt lat="44.57657" lon="4.223">
        <ele>638</ele>
        <time>2018-06-03T08:24:47.000Z</time>
      </trkpt>
      <trkpt lat="44.57657" lon="4.223">
        <ele>638</ele>
        <time>2018-06-03T08:24:48.000Z</time>
      </trkpt>
      <trkpt lat="44.57657" lon="4.223">
        <ele>638</ele>
        <time>2018-06-03T08:24:49.000Z</time>
      </trkpt>
      <trkpt lat="44.57657" lon="4.223">
        <ele>638</ele>
        <time>2018-06-03T08:24:50.000Z</time>
      </trkpt>
      <trkpt lat="44.57657" lon="4.223">
        <ele>638</ele>
        <time>2018-06-03T08:24:51.000Z</time>
      </trkpt>
      <trkpt lat="44.57657" lon="4.223">
        <ele>638</ele>
        <time>2018-06-03T08:24:52.000Z</time>
      </trkpt>
      <trkpt lat="44.57657" lon="4.22301">
        <ele>638</ele>
        <time>2018-06-03T08:24:53.000Z</time>
      </trkpt>
      <trkpt lat="44.57657" lon="4.22301">
        <ele>638</ele>
        <time>2018-06-03T08:24:54.000Z</time>
      </trkpt>
      <trkpt lat="44.57658" lon="4.22302">
        <ele>638</ele>
        <time>2018-06-03T08:24:55.000Z</time>
      </trkpt>
      <trkpt lat="44.57658" lon="4.22302">
        <ele>638</ele>
        <time>2018-06-03T08:24:56.000Z</time>
      </trkpt>
      <trkpt lat="44.57658" lon="4.22303">
        <ele>638</ele>
        <time>2018-06-03T08:24:57.000Z</time>
      </trkpt>
      <trkpt lat="44.57659" lon="4.22304">
        <ele>638</ele>
        <time>2018-06-03T08:24:58.000Z</time>
      </trkpt>
      <trkpt lat="44.57659" lon="4.22304">
        <ele>638</ele>
        <time>2018-06-03T08:24:59.000Z</time>
      </trkpt>
      <trkpt lat="44.5766" lon="4.22305">
        <ele>638</ele>
        <time>2018-06-03T08:25:00.000Z</time>
      </trkpt>
      <trkpt lat="44.5766" lon="4.22305">
        <ele>638</ele>
        <time>2018-06-03T08:25:01.000Z</time>
      </trkpt>
      <trkpt lat="44.57661" lon="4.22306">
        <ele>638</ele>
        <time>2018-06-03T08:25:02.000Z</time>
      </trkpt>
      <trkpt lat="44.57661" lon="4.22306">
        <ele>639</ele>
        <time>2018-06-03T08:25:03.000Z</time>
      </trkpt>
      <trkpt lat="44.57661" lon="4.22306">
        <ele>639</ele>
        <time>2018-06-03T08:25:04.000Z</time>
      </trkpt>
      <trkpt lat="44.57662" lon="4.22306">
        <ele>639</ele>
        <time>2018-06-03T08:25:05.000Z</time>
      </trkpt>
      <trkpt lat="44.57662" lon="4.22306">
        <ele>639</ele>
        <time>2018-06-03T08:25:06.000Z</time>
      </trkpt>
      <trkpt lat="44.57662" lon="4.22307">
        <ele>639</ele>
        <time>2018-06-03T08:25:07.000Z</time>
      </trkpt>
      <trkpt lat="44.57662" lon="4.22307">
        <ele>639</ele>
        <time>2018-06-03T08:25:08.000Z</time>
      </trkpt>
      <trkpt lat="44.57663" lon="4.22307">
        <ele>639</ele>
        <time>2018-06-03T08:25:09.000Z</time>
      </trkpt>
      <trkpt lat="44.57664" lon="4.22307">
        <ele>639</ele>
        <time>2018-06-03T08:25:10.000Z</time>
      </trkpt>
      <trkpt lat="44.57664" lon="4.22307">
        <ele>639</ele>
        <time>2018-06-03T08:25:11.000Z</time>
      </trkpt>
      <trkpt lat="44.57665" lon="4.22307">
        <ele>639</ele>
        <time>2018-06-03T08:25:12.000Z</time>
      </trkpt>
      <trkpt lat="44.57664" lon="4.22307">
        <ele>639</ele>
        <time>2018-06-03T08:25:13.000Z</time>
      </trkpt>
      <trkpt lat="44.57665" lon="4.22307">
        <ele>639</ele>
        <time>2018-06-03T08:25:14.000Z</time>
      </trkpt>
      <trkpt lat="44.57665" lon="4.22307">
        <ele>639</ele>
        <time>2018-06-03T08:25:15.000Z</time>
      </trkpt>
      <trkpt lat="44.57666" lon="4.22308">
        <ele>639</ele>
        <time>2018-06-03T08:25:16.000Z</time>
      </trkpt>
      <trkpt lat="44.57666" lon="4.22308">
        <ele>639</ele>
        <time>2018-06-03T08:25:17.000Z</time>
      </trkpt>
      <trkpt lat="44.57666" lon="4.22308">
        <ele>639</ele>
        <time>2018-06-03T08:25:18.000Z</time>
      </trkpt>
      <trkpt lat="44.57667" lon="4.22309">
        <ele>639</ele>
        <time>2018-06-03T08:25:19.000Z</time>
      </trkpt>
      <trkpt lat="44.57667" lon="4.22309">
        <ele>652</ele>
        <time>2018-06-03T08:25:20.000Z</time>
      </trkpt>
      <trkpt lat="44.57667" lon="4.22309">
        <ele>652</ele>
        <time>2018-06-03T08:25:21.000Z</time>
      </trkpt>
      <trkpt lat="44.57668" lon="4.22309">
        <ele>653</ele>
        <time>2018-06-03T08:25:22.000Z</time>
      </trkpt>
      <trkpt lat="44.57669" lon="4.22309">
        <ele>653</ele>
        <time>2018-06-03T08:25:23.000Z</time>
      </trkpt>
      <trkpt lat="44.57669" lon="4.22309">
        <ele>653</ele>
        <time>2018-06-03T08:25:24.000Z</time>
      </trkpt>
      <trkpt lat="44.57669" lon="4.22309">
        <ele>653</ele>
        <time>2018-06-03T08:25:25.000Z</time>
      </trkpt>
      <trkpt lat="44.5767" lon="4.22308">
        <ele>653</ele>
        <time>2018-06-03T08:25:26.000Z</time>
      </trkpt>
      <trkpt lat="44.5767" lon="4.22307">
        <ele>653</ele>
        <time>2018-06-03T08:25:27.000Z</time>
      </trkpt>
      <trkpt lat="44.57669" lon="4.22306">
        <ele>653</ele>
        <time>2018-06-03T08:25:28.000Z</time>
      </trkpt>
      <trkpt lat="44.57669" lon="4.22305">
        <ele>653</ele>
        <time>2018-06-03T08:25:29.000Z</time>
      </trkpt>
      <trkpt lat="44.57669" lon="4.22304">
        <ele>654</ele>
        <time>2018-06-03T08:25:30.000Z</time>
      </trkpt>
      <trkpt lat="44.57669" lon="4.22304">
        <ele>654</ele>
        <time>2018-06-03T08:25:31.000Z</time>
      </trkpt>
      <trkpt lat="44.57669" lon="4.22304">
        <ele>654</ele>
        <time>2018-06-03T08:25:32.000Z</time>
      </trkpt>
      <trkpt lat="44.57669" lon="4.22304">
        <ele>654</ele>
        <time>2018-06-03T08:25:33.000Z</time>
      </trkpt>
      <trkpt lat="44.57669" lon="4.22304">
        <ele>654</ele>
        <time>2018-06-03T08:25:34.000Z</time>
      </trkpt>
      <trkpt lat="44.57669" lon="4.22304">
        <ele>654</ele>
        <time>2018-06-03T08:25:35.000Z</time>
      </trkpt>
      <trkpt lat="44.57669" lon="4.22302">
        <ele>654</ele>
        <time>2018-06-03T08:25:36.000Z</time>
      </trkpt>
      <trkpt lat="44.5767" lon="4.22301">
        <ele>654</ele>
        <time>2018-06-03T08:25:37.000Z</time>
      </trkpt>
      <trkpt lat="44.5767" lon="4.223">
        <ele>654</ele>
        <time>2018-06-03T08:25:38.000Z</time>
      </trkpt>
      <trkpt lat="44.5767" lon="4.22298">
        <ele>655</ele>
        <time>2018-06-03T08:25:39.000Z</time>
      </trkpt>
      <trkpt lat="44.5767" lon="4.22296">
        <ele>655</ele>
        <time>2018-06-03T08:25:40.000Z</time>
      </trkpt>
      <trkpt lat="44.57669" lon="4.22293">
        <ele>655</ele>
        <time>2018-06-03T08:25:41.000Z</time>
      </trkpt>
      <trkpt lat="44.57669" lon="4.22291">
        <ele>655</ele>
        <time>2018-06-03T08:25:42.000Z</time>
      </trkpt>
      <trkpt lat="44.57669" lon="4.22289">
        <ele>656</ele>
        <time>2018-06-03T08:25:43.000Z</time>
      </trkpt>
      <trkpt lat="44.57669" lon="4.22289">
        <ele>656</ele>
        <time>2018-06-03T08:25:44.000Z</time>
      </trkpt>
      <trkpt lat="44.57669" lon="4.22285">
        <ele>656</ele>
        <time>2018-06-03T08:25:45.000Z</time>
      </trkpt>
      <trkpt lat="44.57669" lon="4.22283">
        <ele>656</ele>
        <time>2018-06-03T08:25:46.000Z</time>
      </trkpt>
      <trkpt lat="44.57669" lon="4.22283">
        <ele>656</ele>
        <time>2018-06-03T08:25:47.000Z</time>
      </trkpt>
      <trkpt lat="44.57669" lon="4.22281">
        <ele>656</ele>
        <time>2018-06-03T08:25:48.000Z</time>
      </trkpt>
      <trkpt lat="44.57668" lon="4.22279">
        <ele>656</ele>
        <time>2018-06-03T08:25:49.000Z</time>
      </trkpt>
      <trkpt lat="44.57668" lon="4.22277">
        <ele>656</ele>
        <time>2018-06-03T08:25:50.000Z</time>
      </trkpt>
      <trkpt lat="44.57668" lon="4.22274">
        <ele>656</ele>
        <time>2018-06-03T08:25:51.000Z</time>
      </trkpt>
      <trkpt lat="44.57668" lon="4.22272">
        <ele>656</ele>
        <time>2018-06-03T08:25:52.000Z</time>
      </trkpt>
      <trkpt lat="44.57668" lon="4.22269">
        <ele>655</ele>
        <time>2018-06-03T08:25:53.000Z</time>
      </trkpt>
      <trkpt lat="44.57667" lon="4.22266">
        <ele>655</ele>
        <time>2018-06-03T08:25:54.000Z</time>
      </trkpt>
      <trkpt lat="44.57667" lon="4.22263">
        <ele>655</ele>
        <time>2018-06-03T08:25:55.000Z</time>
      </trkpt>
      <trkpt lat="44.57667" lon="4.22261">
        <ele>654</ele>
        <time>2018-06-03T08:25:56.000Z</time>
      </trkpt>
      <trkpt lat="44.57667" lon="4.22258">
        <ele>654</ele>
        <time>2018-06-03T08:25:57.000Z</time>
      </trkpt>
      <trkpt lat="44.57667" lon="4.22256">
        <ele>653</ele>
        <time>2018-06-03T08:25:58.000Z</time>
      </trkpt>
      <trkpt lat="44.57667" lon="4.22253">
        <ele>652</ele>
        <time>2018-06-03T08:25:59.000Z</time>
      </trkpt>
      <trkpt lat="44.57668" lon="4.2225">
        <ele>651</ele>
        <time>2018-06-03T08:26:00.000Z</time>
      </trkpt>
      <trkpt lat="44.57668" lon="4.22248">
        <ele>653</ele>
        <time>2018-06-03T08:26:01.000Z</time>
      </trkpt>
      <trkpt lat="44.57669" lon="4.22246">
        <ele>654</ele>
        <time>2018-06-03T08:26:02.000Z</time>
      </trkpt>
      <trkpt lat="44.5767" lon="4.22244">
        <ele>655</ele>
        <time>2018-06-03T08:26:03.000Z</time>
      </trkpt>
      <trkpt lat="44.5767" lon="4.22241">
        <ele>656</ele>
        <time>2018-06-03T08:26:04.000Z</time>
      </trkpt>
      <trkpt lat="44.57671" lon="4.22239">
        <ele>657</ele>
        <time>2018-06-03T08:26:05.000Z</time>
      </trkpt>
      <trkpt lat="44.57671" lon="4.22236">
        <ele>658</ele>
        <time>2018-06-03T08:26:06.000Z</time>
      </trkpt>
      <trkpt lat="44.57671" lon="4.22234">
        <ele>659</ele>
        <time>2018-06-03T08:26:07.000Z</time>
      </trkpt>
      <trkpt lat="44.57672" lon="4.22231">
        <ele>659</ele>
        <time>2018-06-03T08:26:08.000Z</time>
      </trkpt>
      <trkpt lat="44.57672" lon="4.22229">
        <ele>660</ele>
        <time>2018-06-03T08:26:09.000Z</time>
      </trkpt>
      <trkpt lat="44.57673" lon="4.22226">
        <ele>661</ele>
        <time>2018-06-03T08:26:10.000Z</time>
      </trkpt>
      <trkpt lat="44.57674" lon="4.22223">
        <ele>661</ele>
        <time>2018-06-03T08:26:11.000Z</time>
      </trkpt>
      <trkpt lat="44.57674" lon="4.2222">
        <ele>662</ele>
        <time>2018-06-03T08:26:12.000Z</time>
      </trkpt>
      <trkpt lat="44.57675" lon="4.22218">
        <ele>662</ele>
        <time>2018-06-03T08:26:13.000Z</time>
      </trkpt>
      <trkpt lat="44.57675" lon="4.22215">
        <ele>662</ele>
        <time>2018-06-03T08:26:14.000Z</time>
      </trkpt>
      <trkpt lat="44.57675" lon="4.22212">
        <ele>662</ele>
        <time>2018-06-03T08:26:15.000Z</time>
      </trkpt>
      <trkpt lat="44.57676" lon="4.2221">
        <ele>662</ele>
        <time>2018-06-03T08:26:16.000Z</time>
      </trkpt>
      <trkpt lat="44.57677" lon="4.22208">
        <ele>663</ele>
        <time>2018-06-03T08:26:17.000Z</time>
      </trkpt>
      <trkpt lat="44.57677" lon="4.22205">
        <ele>663</ele>
        <time>2018-06-03T08:26:18.000Z</time>
      </trkpt>
      <trkpt lat="44.57677" lon="4.22202">
        <ele>663</ele>
        <time>2018-06-03T08:26:19.000Z</time>
      </trkpt>
      <trkpt lat="44.57677" lon="4.22199">
        <ele>663</ele>
        <time>2018-06-03T08:26:20.000Z</time>
      </trkpt>
      <trkpt lat="44.57678" lon="4.22196">
        <ele>663</ele>
        <time>2018-06-03T08:26:21.000Z</time>
      </trkpt>
      <trkpt lat="44.57678" lon="4.22193">
        <ele>662</ele>
        <time>2018-06-03T08:26:22.000Z</time>
      </trkpt>
      <trkpt lat="44.57679" lon="4.2219">
        <ele>662</ele>
        <time>2018-06-03T08:26:23.000Z</time>
      </trkpt>
      <trkpt lat="44.57679" lon="4.22187">
        <ele>662</ele>
        <time>2018-06-03T08:26:24.000Z</time>
      </trkpt>
      <trkpt lat="44.57679" lon="4.22185">
        <ele>662</ele>
        <time>2018-06-03T08:26:25.000Z</time>
      </trkpt>
      <trkpt lat="44.57679" lon="4.22182">
        <ele>661</ele>
        <time>2018-06-03T08:26:26.000Z</time>
      </trkpt>
      <trkpt lat="44.5768" lon="4.22179">
        <ele>661</ele>
        <time>2018-06-03T08:26:27.000Z</time>
      </trkpt>
      <trkpt lat="44.5768" lon="4.22176">
        <ele>660</ele>
        <time>2018-06-03T08:26:28.000Z</time>
      </trkpt>
      <trkpt lat="44.5768" lon="4.22173">
        <ele>660</ele>
        <time>2018-06-03T08:26:29.000Z</time>
      </trkpt>
      <trkpt lat="44.57681" lon="4.2217">
        <ele>660</ele>
        <time>2018-06-03T08:26:30.000Z</time>
      </trkpt>
      <trkpt lat="44.57682" lon="4.22167">
        <ele>660</ele>
        <time>2018-06-03T08:26:31.000Z</time>
      </trkpt>
      <trkpt lat="44.57682" lon="4.22165">
        <ele>660</ele>
        <time>2018-06-03T08:26:32.000Z</time>
      </trkpt>
      <trkpt lat="44.57683" lon="4.22162">
        <ele>660</ele>
        <time>2018-06-03T08:26:33.000Z</time>
      </trkpt>
      <trkpt lat="44.57683" lon="4.2216">
        <ele>660</ele>
        <time>2018-06-03T08:26:34.000Z</time>
      </trkpt>
      <trkpt lat="44.57684" lon="4.22158">
        <ele>660</ele>
        <time>2018-06-03T08:26:35.000Z</time>
      </trkpt>
      <trkpt lat="44.57685" lon="4.22155">
        <ele>661</ele>
        <time>2018-06-03T08:26:36.000Z</time>
      </trkpt>
      <trkpt lat="44.57686" lon="4.22153">
        <ele>661</ele>
        <time>2018-06-03T08:26:37.000Z</time>
      </trkpt>
      <trkpt lat="44.57687" lon="4.22151">
        <ele>662</ele>
        <time>2018-06-03T08:26:38.000Z</time>
      </trkpt>
      <trkpt lat="44.57689" lon="4.22149">
        <ele>662</ele>
        <time>2018-06-03T08:26:39.000Z</time>
      </trkpt>
      <trkpt lat="44.5769" lon="4.22147">
        <ele>662</ele>
        <time>2018-06-03T08:26:40.000Z</time>
      </trkpt>
      <trkpt lat="44.57691" lon="4.22144">
        <ele>662</ele>
        <time>2018-06-03T08:26:41.000Z</time>
      </trkpt>
      <trkpt lat="44.57692" lon="4.22142">
        <ele>663</ele>
        <time>2018-06-03T08:26:42.000Z</time>
      </trkpt>
      <trkpt lat="44.57693" lon="4.22139">
        <ele>663</ele>
        <time>2018-06-03T08:26:43.000Z</time>
      </trkpt>
      <trkpt lat="44.57695" lon="4.22137">
        <ele>663</ele>
        <time>2018-06-03T08:26:44.000Z</time>
      </trkpt>
      <trkpt lat="44.57696" lon="4.22134">
        <ele>663</ele>
        <time>2018-06-03T08:26:45.000Z</time>
      </trkpt>
      <trkpt lat="44.57697" lon="4.22132">
        <ele>663</ele>
        <time>2018-06-03T08:26:46.000Z</time>
      </trkpt>
      <trkpt lat="44.57698" lon="4.22129">
        <ele>664</ele>
        <time>2018-06-03T08:26:47.000Z</time>
      </trkpt>
      <trkpt lat="44.577" lon="4.22126">
        <ele>664</ele>
        <time>2018-06-03T08:26:48.000Z</time>
      </trkpt>
      <trkpt lat="44.57701" lon="4.22123">
        <ele>664</ele>
        <time>2018-06-03T08:26:49.000Z</time>
      </trkpt>
      <trkpt lat="44.57702" lon="4.2212">
        <ele>664</ele>
        <time>2018-06-03T08:26:50.000Z</time>
      </trkpt>
      <trkpt lat="44.57703" lon="4.22118">
        <ele>664</ele>
        <time>2018-06-03T08:26:51.000Z</time>
      </trkpt>
      <trkpt lat="44.57704" lon="4.22116">
        <ele>664</ele>
        <time>2018-06-03T08:26:52.000Z</time>
      </trkpt>
      <trkpt lat="44.57705" lon="4.22113">
        <ele>664</ele>
        <time>2018-06-03T08:26:53.000Z</time>
      </trkpt>
      <trkpt lat="44.57706" lon="4.22111">
        <ele>664</ele>
        <time>2018-06-03T08:26:54.000Z</time>
      </trkpt>
      <trkpt lat="44.57707" lon="4.22108">
        <ele>664</ele>
        <time>2018-06-03T08:26:55.000Z</time>
      </trkpt>
      <trkpt lat="44.57708" lon="4.22105">
        <ele>664</ele>
        <time>2018-06-03T08:26:56.000Z</time>
      </trkpt>
      <trkpt lat="44.57709" lon="4.22103">
        <ele>664</ele>
        <time>2018-06-03T08:26:57.000Z</time>
      </trkpt>
      <trkpt lat="44.57709" lon="4.221">
        <ele>665</ele>
        <time>2018-06-03T08:26:58.000Z</time>
      </trkpt>
      <trkpt lat="44.5771" lon="4.22096">
        <ele>665</ele>
        <time>2018-06-03T08:26:59.000Z</time>
      </trkpt>
      <trkpt lat="44.5771" lon="4.22093">
        <ele>665</ele>
        <time>2018-06-03T08:27:00.000Z</time>
      </trkpt>
      <trkpt lat="44.5771" lon="4.2209">
        <ele>665</ele>
        <time>2018-06-03T08:27:01.000Z</time>
      </trkpt>
      <trkpt lat="44.5771" lon="4.22087">
        <ele>665</ele>
        <time>2018-06-03T08:27:02.000Z</time>
      </trkpt>
      <trkpt lat="44.57711" lon="4.22084">
        <ele>665</ele>
        <time>2018-06-03T08:27:03.000Z</time>
      </trkpt>
      <trkpt lat="44.57711" lon="4.22081">
        <ele>661</ele>
        <time>2018-06-03T08:27:04.000Z</time>
      </trkpt>
      <trkpt lat="44.5771" lon="4.22078">
        <ele>661</ele>
        <time>2018-06-03T08:27:05.000Z</time>
      </trkpt>
      <trkpt lat="44.5771" lon="4.22075">
        <ele>660</ele>
        <time>2018-06-03T08:27:06.000Z</time>
      </trkpt>
      <trkpt lat="44.5771" lon="4.22071">
        <ele>660</ele>
        <time>2018-06-03T08:27:07.000Z</time>
      </trkpt>
      <trkpt lat="44.5771" lon="4.22068">
        <ele>660</ele>
        <time>2018-06-03T08:27:08.000Z</time>
      </trkpt>
      <trkpt lat="44.5771" lon="4.22065">
        <ele>660</ele>
        <time>2018-06-03T08:27:09.000Z</time>
      </trkpt>
      <trkpt lat="44.5771" lon="4.22062">
        <ele>660</ele>
        <time>2018-06-03T08:27:10.000Z</time>
      </trkpt>
      <trkpt lat="44.57709" lon="4.22058">
        <ele>660</ele>
        <time>2018-06-03T08:27:11.000Z</time>
      </trkpt>
      <trkpt lat="44.57709" lon="4.22054">
        <ele>660</ele>
        <time>2018-06-03T08:27:12.000Z</time>
      </trkpt>
      <trkpt lat="44.5771" lon="4.22051">
        <ele>660</ele>
        <time>2018-06-03T08:27:13.000Z</time>
      </trkpt>
      <trkpt lat="44.5771" lon="4.22047">
        <ele>659</ele>
        <time>2018-06-03T08:27:14.000Z</time>
      </trkpt>
      <trkpt lat="44.5771" lon="4.22043">
        <ele>659</ele>
        <time>2018-06-03T08:27:15.000Z</time>
      </trkpt>
      <trkpt lat="44.5771" lon="4.2204">
        <ele>659</ele>
        <time>2018-06-03T08:27:16.000Z</time>
      </trkpt>
      <trkpt lat="44.5771" lon="4.22036">
        <ele>659</ele>
        <time>2018-06-03T08:27:17.000Z</time>
      </trkpt>
      <trkpt lat="44.57711" lon="4.22032">
        <ele>659</ele>
        <time>2018-06-03T08:27:18.000Z</time>
      </trkpt>
      <trkpt lat="44.57711" lon="4.22029">
        <ele>659</ele>
        <time>2018-06-03T08:27:19.000Z</time>
      </trkpt>
      <trkpt lat="44.57712" lon="4.22024">
        <ele>659</ele>
        <time>2018-06-03T08:27:20.000Z</time>
      </trkpt>
      <trkpt lat="44.57712" lon="4.2202">
        <ele>659</ele>
        <time>2018-06-03T08:27:21.000Z</time>
      </trkpt>
      <trkpt lat="44.57713" lon="4.22017">
        <ele>659</ele>
        <time>2018-06-03T08:27:22.000Z</time>
      </trkpt>
      <trkpt lat="44.57713" lon="4.22013">
        <ele>659</ele>
        <time>2018-06-03T08:27:23.000Z</time>
      </trkpt>
      <trkpt lat="44.57714" lon="4.22009">
        <ele>659</ele>
        <time>2018-06-03T08:27:24.000Z</time>
      </trkpt>
      <trkpt lat="44.57714" lon="4.22007">
        <ele>659</ele>
        <time>2018-06-03T08:27:25.000Z</time>
      </trkpt>
      <trkpt lat="44.57714" lon="4.22005">
        <ele>659</ele>
        <time>2018-06-03T08:27:26.000Z</time>
      </trkpt>
      <trkpt lat="44.57715" lon="4.22003">
        <ele>659</ele>
        <time>2018-06-03T08:27:27.000Z</time>
      </trkpt>
      <trkpt lat="44.57715" lon="4.22001">
        <ele>659</ele>
        <time>2018-06-03T08:27:28.000Z</time>
      </trkpt>
      <trkpt lat="44.57716" lon="4.21997">
        <ele>656</ele>
        <time>2018-06-03T08:27:29.000Z</time>
      </trkpt>
      <trkpt lat="44.57716" lon="4.21994">
        <ele>656</ele>
        <time>2018-06-03T08:27:30.000Z</time>
      </trkpt>
      <trkpt lat="44.57717" lon="4.2199">
        <ele>656</ele>
        <time>2018-06-03T08:27:31.000Z</time>
      </trkpt>
      <trkpt lat="44.57718" lon="4.21986">
        <ele>656</ele>
        <time>2018-06-03T08:27:32.000Z</time>
      </trkpt>
      <trkpt lat="44.5772" lon="4.21982">
        <ele>656</ele>
        <time>2018-06-03T08:27:33.000Z</time>
      </trkpt>
      <trkpt lat="44.57721" lon="4.21979">
        <ele>656</ele>
        <time>2018-06-03T08:27:34.000Z</time>
      </trkpt>
      <trkpt lat="44.57723" lon="4.21975">
        <ele>656</ele>
        <time>2018-06-03T08:27:35.000Z</time>
      </trkpt>
      <trkpt lat="44.57724" lon="4.21972">
        <ele>656</ele>
        <time>2018-06-03T08:27:36.000Z</time>
      </trkpt>
      <trkpt lat="44.57727" lon="4.21969">
        <ele>656</ele>
        <time>2018-06-03T08:27:37.000Z</time>
      </trkpt>
      <trkpt lat="44.57729" lon="4.21966">
        <ele>656</ele>
        <time>2018-06-03T08:27:38.000Z</time>
      </trkpt>
      <trkpt lat="44.57731" lon="4.21963">
        <ele>656</ele>
        <time>2018-06-03T08:27:39.000Z</time>
      </trkpt>
      <trkpt lat="44.57733" lon="4.2196">
        <ele>656</ele>
        <time>2018-06-03T08:27:40.000Z</time>
      </trkpt>
      <trkpt lat="44.57736" lon="4.21958">
        <ele>657</ele>
        <time>2018-06-03T08:27:41.000Z</time>
      </trkpt>
      <trkpt lat="44.57739" lon="4.21956">
        <ele>657</ele>
        <time>2018-06-03T08:27:42.000Z</time>
      </trkpt>
      <trkpt lat="44.5774" lon="4.21955">
        <ele>657</ele>
        <time>2018-06-03T08:27:43.000Z</time>
      </trkpt>
      <trkpt lat="44.57742" lon="4.21954">
        <ele>657</ele>
        <time>2018-06-03T08:27:44.000Z</time>
      </trkpt>
      <trkpt lat="44.57743" lon="4.21954">
        <ele>657</ele>
        <time>2018-06-03T08:27:45.000Z</time>
      </trkpt>
      <trkpt lat="44.57745" lon="4.21952">
        <ele>657</ele>
        <time>2018-06-03T08:27:46.000Z</time>
      </trkpt>
      <trkpt lat="44.57748" lon="4.21951">
        <ele>657</ele>
        <time>2018-06-03T08:27:47.000Z</time>
      </trkpt>
      <trkpt lat="44.57751" lon="4.2195">
        <ele>662</ele>
        <time>2018-06-03T08:27:48.000Z</time>
      </trkpt>
      <trkpt lat="44.57753" lon="4.2195">
        <ele>662</ele>
        <time>2018-06-03T08:27:49.000Z</time>
      </trkpt>
      <trkpt lat="44.57761" lon="4.2195">
        <ele>662</ele>
        <time>2018-06-03T08:27:50.000Z</time>
      </trkpt>
      <trkpt lat="44.57765" lon="4.21949">
        <ele>662</ele>
        <time>2018-06-03T08:27:51.000Z</time>
      </trkpt>
      <trkpt lat="44.57765" lon="4.21949">
        <ele>662</ele>
        <time>2018-06-03T08:27:52.000Z</time>
      </trkpt>
      <trkpt lat="44.5777" lon="4.21949">
        <ele>662</ele>
        <time>2018-06-03T08:27:53.000Z</time>
      </trkpt>
      <trkpt lat="44.57775" lon="4.21949">
        <ele>662</ele>
        <time>2018-06-03T08:27:54.000Z</time>
      </trkpt>
      <trkpt lat="44.5778" lon="4.21948">
        <ele>661</ele>
        <time>2018-06-03T08:27:55.000Z</time>
      </trkpt>
      <trkpt lat="44.57789" lon="4.21947">
        <ele>661</ele>
        <time>2018-06-03T08:27:56.000Z</time>
      </trkpt>
      <trkpt lat="44.57789" lon="4.21947">
        <ele>661</ele>
        <time>2018-06-03T08:27:57.000Z</time>
      </trkpt>
      <trkpt lat="44.57794" lon="4.21947">
        <ele>661</ele>
        <time>2018-06-03T08:27:58.000Z</time>
      </trkpt>
      <trkpt lat="44.57799" lon="4.21946">
        <ele>661</ele>
        <time>2018-06-03T08:27:59.000Z</time>
      </trkpt>
      <trkpt lat="44.57812" lon="4.21946">
        <ele>660</ele>
        <time>2018-06-03T08:28:00.000Z</time>
      </trkpt>
      <trkpt lat="44.57818" lon="4.21947">
        <ele>660</ele>
        <time>2018-06-03T08:28:01.000Z</time>
      </trkpt>
      <trkpt lat="44.57825" lon="4.21948">
        <ele>660</ele>
        <time>2018-06-03T08:28:02.000Z</time>
      </trkpt>
      <trkpt lat="44.57832" lon="4.2195">
        <ele>660</ele>
        <time>2018-06-03T08:28:03.000Z</time>
      </trkpt>
      <trkpt lat="44.57838" lon="4.21952">
        <ele>663</ele>
        <time>2018-06-03T08:28:04.000Z</time>
      </trkpt>
      <trkpt lat="44.57844" lon="4.21956">
        <ele>664</ele>
        <time>2018-06-03T08:28:05.000Z</time>
      </trkpt>
      <trkpt lat="44.5785" lon="4.21961">
        <ele>665</ele>
        <time>2018-06-03T08:28:06.000Z</time>
      </trkpt>
      <trkpt lat="44.57855" lon="4.21967">
        <ele>666</ele>
        <time>2018-06-03T08:28:07.000Z</time>
      </trkpt>
      <trkpt lat="44.57861" lon="4.21974">
        <ele>667</ele>
        <time>2018-06-03T08:28:08.000Z</time>
      </trkpt>
      <trkpt lat="44.57866" lon="4.21979">
        <ele>668</ele>
        <time>2018-06-03T08:28:09.000Z</time>
      </trkpt>
      <trkpt lat="44.57872" lon="4.21982">
        <ele>669</ele>
        <time>2018-06-03T08:28:10.000Z</time>
      </trkpt>
      <trkpt lat="44.57878" lon="4.21981">
        <ele>669</ele>
        <time>2018-06-03T08:28:11.000Z</time>
      </trkpt>
      <trkpt lat="44.57883" lon="4.21977">
        <ele>669</ele>
        <time>2018-06-03T08:28:12.000Z</time>
      </trkpt>
      <trkpt lat="44.57886" lon="4.21971">
        <ele>669</ele>
        <time>2018-06-03T08:28:13.000Z</time>
      </trkpt>
      <trkpt lat="44.57889" lon="4.21964">
        <ele>668</ele>
        <time>2018-06-03T08:28:14.000Z</time>
      </trkpt>
      <trkpt lat="44.5789" lon="4.21957">
        <ele>668</ele>
        <time>2018-06-03T08:28:15.000Z</time>
      </trkpt>
      <trkpt lat="44.57892" lon="4.21949">
        <ele>667</ele>
        <time>2018-06-03T08:28:16.000Z</time>
      </trkpt>
      <trkpt lat="44.57894" lon="4.21941">
        <ele>666</ele>
        <time>2018-06-03T08:28:17.000Z</time>
      </trkpt>
      <trkpt lat="44.57895" lon="4.21934">
        <ele>666</ele>
        <time>2018-06-03T08:28:18.000Z</time>
      </trkpt>
      <trkpt lat="44.57896" lon="4.21926">
        <ele>665</ele>
        <time>2018-06-03T08:28:19.000Z</time>
      </trkpt>
      <trkpt lat="44.57899" lon="4.21919">
        <ele>665</ele>
        <time>2018-06-03T08:28:20.000Z</time>
      </trkpt>
      <trkpt lat="44.579" lon="4.21911">
        <ele>658</ele>
        <time>2018-06-03T08:28:21.000Z</time>
      </trkpt>
      <trkpt lat="44.57902" lon="4.21904">
        <ele>657</ele>
        <time>2018-06-03T08:28:22.000Z</time>
      </trkpt>
      <trkpt lat="44.57903" lon="4.21896">
        <ele>656</ele>
        <time>2018-06-03T08:28:23.000Z</time>
      </trkpt>
      <trkpt lat="44.57904" lon="4.21888">
        <ele>655</ele>
        <time>2018-06-03T08:28:24.000Z</time>
      </trkpt>
      <trkpt lat="44.57904" lon="4.2188">
        <ele>654</ele>
        <time>2018-06-03T08:28:25.000Z</time>
      </trkpt>
      <trkpt lat="44.57905" lon="4.21872">
        <ele>654</ele>
        <time>2018-06-03T08:28:26.000Z</time>
      </trkpt>
      <trkpt lat="44.57906" lon="4.21864">
        <ele>653</ele>
        <time>2018-06-03T08:28:27.000Z</time>
      </trkpt>
      <trkpt lat="44.57907" lon="4.21856">
        <ele>653</ele>
        <time>2018-06-03T08:28:28.000Z</time>
      </trkpt>
      <trkpt lat="44.57907" lon="4.21848">
        <ele>653</ele>
        <time>2018-06-03T08:28:29.000Z</time>
      </trkpt>
      <trkpt lat="44.57906" lon="4.21841">
        <ele>653</ele>
        <time>2018-06-03T08:28:30.000Z</time>
      </trkpt>
      <trkpt lat="44.57907" lon="4.21834">
        <ele>653</ele>
        <time>2018-06-03T08:28:31.000Z</time>
      </trkpt>
      <trkpt lat="44.57908" lon="4.21826">
        <ele>649</ele>
        <time>2018-06-03T08:28:32.000Z</time>
      </trkpt>
      <trkpt lat="44.5791" lon="4.21818">
        <ele>647</ele>
        <time>2018-06-03T08:28:33.000Z</time>
      </trkpt>
      <trkpt lat="44.57912" lon="4.21811">
        <ele>646</ele>
        <time>2018-06-03T08:28:34.000Z</time>
      </trkpt>
      <trkpt lat="44.57914" lon="4.21803">
        <ele>644</ele>
        <time>2018-06-03T08:28:35.000Z</time>
      </trkpt>
      <trkpt lat="44.57917" lon="4.21795">
        <ele>643</ele>
        <time>2018-06-03T08:28:36.000Z</time>
      </trkpt>
      <trkpt lat="44.57919" lon="4.21787">
        <ele>661</ele>
        <time>2018-06-03T08:28:37.000Z</time>
      </trkpt>
      <trkpt lat="44.5792" lon="4.2178">
        <ele>659</ele>
        <time>2018-06-03T08:28:38.000Z</time>
      </trkpt>
      <trkpt lat="44.57923" lon="4.21772">
        <ele>658</ele>
        <time>2018-06-03T08:28:39.000Z</time>
      </trkpt>
      <trkpt lat="44.57925" lon="4.21764">
        <ele>655</ele>
        <time>2018-06-03T08:28:40.000Z</time>
      </trkpt>
      <trkpt lat="44.57928" lon="4.21756">
        <ele>653</ele>
        <time>2018-06-03T08:28:41.000Z</time>
      </trkpt>
      <trkpt lat="44.5793" lon="4.21748">
        <ele>648</ele>
        <time>2018-06-03T08:28:42.000Z</time>
      </trkpt>
      <trkpt lat="44.57933" lon="4.21741">
        <ele>648</ele>
        <time>2018-06-03T08:28:43.000Z</time>
      </trkpt>
      <trkpt lat="44.57935" lon="4.21734">
        <ele>649</ele>
        <time>2018-06-03T08:28:44.000Z</time>
      </trkpt>
      <trkpt lat="44.57937" lon="4.21728">
        <ele>649</ele>
        <time>2018-06-03T08:28:45.000Z</time>
      </trkpt>
      <trkpt lat="44.57939" lon="4.21721">
        <ele>649</ele>
        <time>2018-06-03T08:28:46.000Z</time>
      </trkpt>
      <trkpt lat="44.57941" lon="4.21715">
        <ele>649</ele>
        <time>2018-06-03T08:28:47.000Z</time>
      </trkpt>
      <trkpt lat="44.57943" lon="4.21708">
        <ele>649</ele>
        <time>2018-06-03T08:28:48.000Z</time>
      </trkpt>
      <trkpt lat="44.57945" lon="4.21701">
        <ele>648</ele>
        <time>2018-06-03T08:28:49.000Z</time>
      </trkpt>
      <trkpt lat="44.57948" lon="4.21695">
        <ele>648</ele>
        <time>2018-06-03T08:28:50.000Z</time>
      </trkpt>
      <trkpt lat="44.57951" lon="4.21687">
        <ele>648</ele>
        <time>2018-06-03T08:28:51.000Z</time>
      </trkpt>
      <trkpt lat="44.57954" lon="4.2168">
        <ele>648</ele>
        <time>2018-06-03T08:28:52.000Z</time>
      </trkpt>
      <trkpt lat="44.57957" lon="4.21672">
        <ele>648</ele>
        <time>2018-06-03T08:28:53.000Z</time>
      </trkpt>
      <trkpt lat="44.5796" lon="4.21664">
        <ele>637</ele>
        <time>2018-06-03T08:28:54.000Z</time>
      </trkpt>
      <trkpt lat="44.57963" lon="4.21656">
        <ele>637</ele>
        <time>2018-06-03T08:28:55.000Z</time>
      </trkpt>
      <trkpt lat="44.57966" lon="4.21649">
        <ele>637</ele>
        <time>2018-06-03T08:28:56.000Z</time>
      </trkpt>
      <trkpt lat="44.57971" lon="4.21642">
        <ele>637</ele>
        <time>2018-06-03T08:28:57.000Z</time>
      </trkpt>
      <trkpt lat="44.57976" lon="4.21636">
        <ele>637</ele>
        <time>2018-06-03T08:28:58.000Z</time>
      </trkpt>
      <trkpt lat="44.57982" lon="4.21631">
        <ele>637</ele>
        <time>2018-06-03T08:28:59.000Z</time>
      </trkpt>
      <trkpt lat="44.57988" lon="4.21628">
        <ele>637</ele>
        <time>2018-06-03T08:29:00.000Z</time>
      </trkpt>
      <trkpt lat="44.57994" lon="4.21625">
        <ele>637</ele>
        <time>2018-06-03T08:29:01.000Z</time>
      </trkpt>
      <trkpt lat="44.58" lon="4.21622">
        <ele>651</ele>
        <time>2018-06-03T08:29:02.000Z</time>
      </trkpt>
      <trkpt lat="44.58006" lon="4.21619">
        <ele>651</ele>
        <time>2018-06-03T08:29:03.000Z</time>
      </trkpt>
      <trkpt lat="44.58013" lon="4.21617">
        <ele>651</ele>
        <time>2018-06-03T08:29:04.000Z</time>
      </trkpt>
      <trkpt lat="44.58019" lon="4.21616">
        <ele>652</ele>
        <time>2018-06-03T08:29:05.000Z</time>
      </trkpt>
      <trkpt lat="44.58025" lon="4.21615">
        <ele>652</ele>
        <time>2018-06-03T08:29:06.000Z</time>
      </trkpt>
      <trkpt lat="44.5803" lon="4.21614">
        <ele>653</ele>
        <time>2018-06-03T08:29:07.000Z</time>
      </trkpt>
      <trkpt lat="44.58035" lon="4.21613">
        <ele>654</ele>
        <time>2018-06-03T08:29:08.000Z</time>
      </trkpt>
      <trkpt lat="44.58038" lon="4.21611">
        <ele>655</ele>
        <time>2018-06-03T08:29:09.000Z</time>
      </trkpt>
      <trkpt lat="44.58042" lon="4.21609">
        <ele>655</ele>
        <time>2018-06-03T08:29:10.000Z</time>
      </trkpt>
      <trkpt lat="44.58045" lon="4.21606">
        <ele>655</ele>
        <time>2018-06-03T08:29:11.000Z</time>
      </trkpt>
      <trkpt lat="44.58047" lon="4.21603">
        <ele>656</ele>
        <time>2018-06-03T08:29:12.000Z</time>
      </trkpt>
      <trkpt lat="44.58048" lon="4.21599">
        <ele>656</ele>
        <time>2018-06-03T08:29:13.000Z</time>
      </trkpt>
      <trkpt lat="44.58049" lon="4.21595">
        <ele>656</ele>
        <time>2018-06-03T08:29:14.000Z</time>
      </trkpt>
      <trkpt lat="44.5805" lon="4.2159">
        <ele>656</ele>
        <time>2018-06-03T08:29:15.000Z</time>
      </trkpt>
      <trkpt lat="44.5805" lon="4.21586">
        <ele>656</ele>
        <time>2018-06-03T08:29:16.000Z</time>
      </trkpt>
      <trkpt lat="44.5805" lon="4.21582">
        <ele>649</ele>
        <time>2018-06-03T08:29:17.000Z</time>
      </trkpt>
      <trkpt lat="44.5805" lon="4.21577">
        <ele>649</ele>
        <time>2018-06-03T08:29:18.000Z</time>
      </trkpt>
      <trkpt lat="44.58049" lon="4.21572">
        <ele>649</ele>
        <time>2018-06-03T08:29:19.000Z</time>
      </trkpt>
      <trkpt lat="44.58049" lon="4.21567">
        <ele>648</ele>
        <time>2018-06-03T08:29:20.000Z</time>
      </trkpt>
      <trkpt lat="44.58048" lon="4.21562">
        <ele>648</ele>
        <time>2018-06-03T08:29:21.000Z</time>
      </trkpt>
      <trkpt lat="44.58048" lon="4.21557">
        <ele>647</ele>
        <time>2018-06-03T08:29:22.000Z</time>
      </trkpt>
      <trkpt lat="44.58047" lon="4.21552">
        <ele>647</ele>
        <time>2018-06-03T08:29:23.000Z</time>
      </trkpt>
      <trkpt lat="44.58046" lon="4.21546">
        <ele>647</ele>
        <time>2018-06-03T08:29:24.000Z</time>
      </trkpt>
      <trkpt lat="44.58046" lon="4.2154">
        <ele>646</ele>
        <time>2018-06-03T08:29:25.000Z</time>
      </trkpt>
      <trkpt lat="44.58045" lon="4.21535">
        <ele>646</ele>
        <time>2018-06-03T08:29:26.000Z</time>
      </trkpt>
      <trkpt lat="44.58045" lon="4.21529">
        <ele>646</ele>
        <time>2018-06-03T08:29:27.000Z</time>
      </trkpt>
      <trkpt lat="44.58046" lon="4.21522">
        <ele>646</ele>
        <time>2018-06-03T08:29:28.000Z</time>
      </trkpt>
      <trkpt lat="44.58047" lon="4.21516">
        <ele>646</ele>
        <time>2018-06-03T08:29:29.000Z</time>
      </trkpt>
      <trkpt lat="44.58047" lon="4.2151">
        <ele>646</ele>
        <time>2018-06-03T08:29:30.000Z</time>
      </trkpt>
      <trkpt lat="44.58048" lon="4.21503">
        <ele>647</ele>
        <time>2018-06-03T08:29:31.000Z</time>
      </trkpt>
      <trkpt lat="44.58049" lon="4.21497">
        <ele>644</ele>
        <time>2018-06-03T08:29:32.000Z</time>
      </trkpt>
      <trkpt lat="44.58049" lon="4.21491">
        <ele>643</ele>
        <time>2018-06-03T08:29:33.000Z</time>
      </trkpt>
      <trkpt lat="44.5805" lon="4.21484">
        <ele>643</ele>
        <time>2018-06-03T08:29:34.000Z</time>
      </trkpt>
      <trkpt lat="44.5805" lon="4.21478">
        <ele>643</ele>
        <time>2018-06-03T08:29:35.000Z</time>
      </trkpt>
      <trkpt lat="44.5805" lon="4.21471">
        <ele>643</ele>
        <time>2018-06-03T08:29:36.000Z</time>
      </trkpt>
      <trkpt lat="44.58051" lon="4.21464">
        <ele>642</ele>
        <time>2018-06-03T08:29:37.000Z</time>
      </trkpt>
      <trkpt lat="44.58051" lon="4.21457">
        <ele>642</ele>
        <time>2018-06-03T08:29:38.000Z</time>
      </trkpt>
      <trkpt lat="44.58051" lon="4.2145">
        <ele>642</ele>
        <time>2018-06-03T08:29:39.000Z</time>
      </trkpt>
      <trkpt lat="44.58051" lon="4.21443">
        <ele>642</ele>
        <time>2018-06-03T08:29:40.000Z</time>
      </trkpt>
      <trkpt lat="44.58051" lon="4.21437">
        <ele>642</ele>
        <time>2018-06-03T08:29:41.000Z</time>
      </trkpt>
      <trkpt lat="44.58051" lon="4.2143">
        <ele>642</ele>
        <time>2018-06-03T08:29:42.000Z</time>
      </trkpt>
      <trkpt lat="44.58051" lon="4.21423">
        <ele>642</ele>
        <time>2018-06-03T08:29:43.000Z</time>
      </trkpt>
      <trkpt lat="44.58051" lon="4.21416">
        <ele>638</ele>
        <time>2018-06-03T08:29:44.000Z</time>
      </trkpt>
      <trkpt lat="44.58052" lon="4.21408">
        <ele>638</ele>
        <time>2018-06-03T08:29:45.000Z</time>
      </trkpt>
      <trkpt lat="44.58053" lon="4.21401">
        <ele>637</ele>
        <time>2018-06-03T08:29:46.000Z</time>
      </trkpt>
      <trkpt lat="44.58055" lon="4.21393">
        <ele>637</ele>
        <time>2018-06-03T08:29:47.000Z</time>
      </trkpt>
      <trkpt lat="44.58057" lon="4.21386">
        <ele>637</ele>
        <time>2018-06-03T08:29:48.000Z</time>
      </trkpt>
      <trkpt lat="44.5806" lon="4.21379">
        <ele>636</ele>
        <time>2018-06-03T08:29:49.000Z</time>
      </trkpt>
      <trkpt lat="44.58063" lon="4.21371">
        <ele>636</ele>
        <time>2018-06-03T08:29:50.000Z</time>
      </trkpt>
      <trkpt lat="44.58066" lon="4.21365">
        <ele>636</ele>
        <time>2018-06-03T08:29:51.000Z</time>
      </trkpt>
      <trkpt lat="44.5807" lon="4.21358">
        <ele>636</ele>
        <time>2018-06-03T08:29:52.000Z</time>
      </trkpt>
      <trkpt lat="44.58073" lon="4.21352">
        <ele>637</ele>
        <time>2018-06-03T08:29:53.000Z</time>
      </trkpt>
      <trkpt lat="44.58077" lon="4.21345">
        <ele>637</ele>
        <time>2018-06-03T08:29:54.000Z</time>
      </trkpt>
      <trkpt lat="44.58081" lon="4.21339">
        <ele>639</ele>
        <time>2018-06-03T08:29:55.000Z</time>
      </trkpt>
      <trkpt lat="44.58085" lon="4.21332">
        <ele>640</ele>
        <time>2018-06-03T08:29:56.000Z</time>
      </trkpt>
      <trkpt lat="44.58089" lon="4.21326">
        <ele>641</ele>
        <time>2018-06-03T08:29:57.000Z</time>
      </trkpt>
      <trkpt lat="44.58094" lon="4.21321">
        <ele>642</ele>
        <time>2018-06-03T08:29:58.000Z</time>
      </trkpt>
      <trkpt lat="44.58098" lon="4.21316">
        <ele>643</ele>
        <time>2018-06-03T08:29:59.000Z</time>
      </trkpt>
      <trkpt lat="44.58103" lon="4.21311">
        <ele>643</ele>
        <time>2018-06-03T08:30:00.000Z</time>
      </trkpt>
      <trkpt lat="44.58108" lon="4.21307">
        <ele>644</ele>
        <time>2018-06-03T08:30:01.000Z</time>
      </trkpt>
      <trkpt lat="44.58114" lon="4.21302">
        <ele>644</ele>
        <time>2018-06-03T08:30:02.000Z</time>
      </trkpt>
      <trkpt lat="44.58119" lon="4.21297">
        <ele>644</ele>
        <time>2018-06-03T08:30:03.000Z</time>
      </trkpt>
      <trkpt lat="44.58125" lon="4.21293">
        <ele>645</ele>
        <time>2018-06-03T08:30:04.000Z</time>
      </trkpt>
      <trkpt lat="44.5813" lon="4.21289">
        <ele>646</ele>
        <time>2018-06-03T08:30:05.000Z</time>
      </trkpt>
      <trkpt lat="44.58136" lon="4.21285">
        <ele>646</ele>
        <time>2018-06-03T08:30:06.000Z</time>
      </trkpt>
      <trkpt lat="44.58141" lon="4.2128">
        <ele>647</ele>
        <time>2018-06-03T08:30:07.000Z</time>
      </trkpt>
      <trkpt lat="44.58146" lon="4.21274">
        <ele>647</ele>
        <time>2018-06-03T08:30:08.000Z</time>
      </trkpt>
      <trkpt lat="44.5815" lon="4.21268">
        <ele>648</ele>
        <time>2018-06-03T08:30:09.000Z</time>
      </trkpt>
      <trkpt lat="44.58153" lon="4.21261">
        <ele>649</ele>
        <time>2018-06-03T08:30:10.000Z</time>
      </trkpt>
      <trkpt lat="44.58155" lon="4.21254">
        <ele>650</ele>
        <time>2018-06-03T08:30:11.000Z</time>
      </trkpt>
      <trkpt lat="44.58156" lon="4.21248">
        <ele>647</ele>
        <time>2018-06-03T08:30:12.000Z</time>
      </trkpt>
      <trkpt lat="44.58157" lon="4.21241">
        <ele>646</ele>
        <time>2018-06-03T08:30:13.000Z</time>
      </trkpt>
      <trkpt lat="44.58156" lon="4.21236">
        <ele>644</ele>
        <time>2018-06-03T08:30:14.000Z</time>
      </trkpt>
      <trkpt lat="44.58154" lon="4.21232">
        <ele>643</ele>
        <time>2018-06-03T08:30:15.000Z</time>
      </trkpt>
      <trkpt lat="44.58153" lon="4.21227">
        <ele>642</ele>
        <time>2018-06-03T08:30:16.000Z</time>
      </trkpt>
      <trkpt lat="44.58151" lon="4.21224">
        <ele>641</ele>
        <time>2018-06-03T08:30:17.000Z</time>
      </trkpt>
      <trkpt lat="44.58149" lon="4.2122">
        <ele>641</ele>
        <time>2018-06-03T08:30:18.000Z</time>
      </trkpt>
      <trkpt lat="44.58148" lon="4.21216">
        <ele>640</ele>
        <time>2018-06-03T08:30:19.000Z</time>
      </trkpt>
      <trkpt lat="44.58146" lon="4.21213">
        <ele>640</ele>
        <time>2018-06-03T08:30:20.000Z</time>
      </trkpt>
      <trkpt lat="44.58143" lon="4.21209">
        <ele>639</ele>
        <time>2018-06-03T08:30:21.000Z</time>
      </trkpt>
      <trkpt lat="44.58141" lon="4.21206">
        <ele>639</ele>
        <time>2018-06-03T08:30:22.000Z</time>
      </trkpt>
      <trkpt lat="44.58138" lon="4.21204">
        <ele>638</ele>
        <time>2018-06-03T08:30:23.000Z</time>
      </trkpt>
      <trkpt lat="44.58136" lon="4.21201">
        <ele>638</ele>
        <time>2018-06-03T08:30:24.000Z</time>
      </trkpt>
      <trkpt lat="44.58134" lon="4.21199">
        <ele>637</ele>
        <time>2018-06-03T08:30:25.000Z</time>
      </trkpt>
      <trkpt lat="44.58132" lon="4.21195">
        <ele>637</ele>
        <time>2018-06-03T08:30:26.000Z</time>
      </trkpt>
      <trkpt lat="44.58132" lon="4.21191">
        <ele>637</ele>
        <time>2018-06-03T08:30:27.000Z</time>
      </trkpt>
      <trkpt lat="44.58132" lon="4.21187">
        <ele>637</ele>
        <time>2018-06-03T08:30:28.000Z</time>
      </trkpt>
      <trkpt lat="44.58132" lon="4.21184">
        <ele>637</ele>
        <time>2018-06-03T08:30:29.000Z</time>
      </trkpt>
      <trkpt lat="44.58133" lon="4.2118">
        <ele>637</ele>
        <time>2018-06-03T08:30:30.000Z</time>
      </trkpt>
      <trkpt lat="44.58133" lon="4.21176">
        <ele>638</ele>
        <time>2018-06-03T08:30:31.000Z</time>
      </trkpt>
      <trkpt lat="44.58134" lon="4.21173">
        <ele>638</ele>
        <time>2018-06-03T08:30:32.000Z</time>
      </trkpt>
      <trkpt lat="44.58135" lon="4.21169">
        <ele>638</ele>
        <time>2018-06-03T08:30:33.000Z</time>
      </trkpt>
      <trkpt lat="44.58136" lon="4.21166">
        <ele>638</ele>
        <time>2018-06-03T08:30:34.000Z</time>
      </trkpt>
      <trkpt lat="44.58137" lon="4.21163">
        <ele>638</ele>
        <time>2018-06-03T08:30:35.000Z</time>
      </trkpt>
      <trkpt lat="44.58137" lon="4.2116">
        <ele>638</ele>
        <time>2018-06-03T08:30:36.000Z</time>
      </trkpt>
      <trkpt lat="44.58138" lon="4.21156">
        <ele>638</ele>
        <time>2018-06-03T08:30:37.000Z</time>
      </trkpt>
      <trkpt lat="44.5814" lon="4.21153">
        <ele>638</ele>
        <time>2018-06-03T08:30:38.000Z</time>
      </trkpt>
      <trkpt lat="44.58141" lon="4.21149">
        <ele>638</ele>
        <time>2018-06-03T08:30:39.000Z</time>
      </trkpt>
      <trkpt lat="44.58142" lon="4.21145">
        <ele>638</ele>
        <time>2018-06-03T08:30:40.000Z</time>
      </trkpt>
      <trkpt lat="44.58143" lon="4.21141">
        <ele>638</ele>
        <time>2018-06-03T08:30:41.000Z</time>
      </trkpt>
      <trkpt lat="44.58144" lon="4.21137">
        <ele>638</ele>
        <time>2018-06-03T08:30:42.000Z</time>
      </trkpt>
      <trkpt lat="44.58146" lon="4.21133">
        <ele>638</ele>
        <time>2018-06-03T08:30:43.000Z</time>
      </trkpt>
      <trkpt lat="44.58147" lon="4.21129">
        <ele>638</ele>
        <time>2018-06-03T08:30:44.000Z</time>
      </trkpt>
      <trkpt lat="44.58149" lon="4.21125">
        <ele>638</ele>
        <time>2018-06-03T08:30:45.000Z</time>
      </trkpt>
      <trkpt lat="44.5815" lon="4.21121">
        <ele>638</ele>
        <time>2018-06-03T08:30:46.000Z</time>
      </trkpt>
      <trkpt lat="44.58152" lon="4.21116">
        <ele>638</ele>
        <time>2018-06-03T08:30:47.000Z</time>
      </trkpt>
      <trkpt lat="44.58154" lon="4.21112">
        <ele>639</ele>
        <time>2018-06-03T08:30:48.000Z</time>
      </trkpt>
      <trkpt lat="44.58156" lon="4.21107">
        <ele>639</ele>
        <time>2018-06-03T08:30:49.000Z</time>
      </trkpt>
      <trkpt lat="44.58157" lon="4.21102">
        <ele>639</ele>
        <time>2018-06-03T08:30:50.000Z</time>
      </trkpt>
      <trkpt lat="44.58158" lon="4.21098">
        <ele>640</ele>
        <time>2018-06-03T08:30:51.000Z</time>
      </trkpt>
      <trkpt lat="44.58158" lon="4.21093">
        <ele>640</ele>
        <time>2018-06-03T08:30:52.000Z</time>
      </trkpt>
      <trkpt lat="44.58157" lon="4.21089">
        <ele>641</ele>
        <time>2018-06-03T08:30:53.000Z</time>
      </trkpt>
      <trkpt lat="44.58157" lon="4.21085">
        <ele>641</ele>
        <time>2018-06-03T08:30:54.000Z</time>
      </trkpt>
      <trkpt lat="44.58157" lon="4.21082">
        <ele>642</ele>
        <time>2018-06-03T08:30:55.000Z</time>
      </trkpt>
      <trkpt lat="44.58157" lon="4.21082">
        <ele>642</ele>
        <time>2018-06-03T08:30:56.000Z</time>
      </trkpt>
      <trkpt lat="44.58156" lon="4.21082">
        <ele>642</ele>
        <time>2018-06-03T08:30:57.000Z</time>
      </trkpt>
      <trkpt lat="44.58156" lon="4.21082">
        <ele>642</ele>
        <time>2018-06-03T08:30:58.000Z</time>
      </trkpt>
      <trkpt lat="44.58156" lon="4.21082">
        <ele>642</ele>
        <time>2018-06-03T08:30:59.000Z</time>
      </trkpt>
      <trkpt lat="44.58156" lon="4.21082">
        <ele>642</ele>
        <time>2018-06-03T08:31:00.000Z</time>
      </trkpt>
      <trkpt lat="44.58156" lon="4.21082">
        <ele>642</ele>
        <time>2018-06-03T08:31:01.000Z</time>
      </trkpt>
      <trkpt lat="44.58156" lon="4.21082">
        <ele>642</ele>
        <time>2018-06-03T08:31:02.000Z</time>
      </trkpt>
      <trkpt lat="44.58156" lon="4.21082">
        <ele>642</ele>
        <time>2018-06-03T08:31:03.000Z</time>
      </trkpt>
      <trkpt lat="44.58156" lon="4.21082">
        <ele>642</ele>
        <time>2018-06-03T08:31:04.000Z</time>
      </trkpt>
      <trkpt lat="44.58156" lon="4.21082">
        <ele>642</ele>
        <time>2018-06-03T08:31:05.000Z</time>
      </trkpt>
      <trkpt lat="44.58156" lon="4.21082">
        <ele>642</ele>
        <time>2018-06-03T08:31:06.000Z</time>
      </trkpt>
      <trkpt lat="44.58156" lon="4.21082">
        <ele>642</ele>
        <time>2018-06-03T08:31:07.000Z</time>
      </trkpt>
      <trkpt lat="44.58156" lon="4.21082">
        <ele>642</ele>
        <time>2018-06-03T08:31:08.000Z</time>
      </trkpt>
      <trkpt lat="44.58156" lon="4.21083">
        <ele>642</ele>
        <time>2018-06-03T08:31:09.000Z</time>
      </trkpt>
      <trkpt lat="44.58156" lon="4.21083">
        <ele>642</ele>
        <time>2018-06-03T08:31:10.000Z</time>
      </trkpt>
      <trkpt lat="44.58156" lon="4.21083">
        <ele>642</ele>
        <time>2018-06-03T08:31:11.000Z</time>
      </trkpt>
      <trkpt lat="44.58156" lon="4.21083">
        <ele>642</ele>
        <time>2018-06-03T08:31:12.000Z</time>
      </trkpt>
      <trkpt lat="44.58155" lon="4.21083">
        <ele>641</ele>
        <time>2018-06-03T08:31:13.000Z</time>
      </trkpt>
      <trkpt lat="44.58155" lon="4.21083">
        <ele>641</ele>
        <time>2018-06-03T08:31:14.000Z</time>
      </trkpt>
      <trkpt lat="44.58155" lon="4.21083">
        <ele>641</ele>
        <time>2018-06-03T08:31:15.000Z</time>
      </trkpt>
      <trkpt lat="44.58155" lon="4.21083">
        <ele>641</ele>
        <time>2018-06-03T08:31:16.000Z</time>
      </trkpt>
      <trkpt lat="44.58155" lon="4.21084">
        <ele>641</ele>
        <time>2018-06-03T08:31:17.000Z</time>
      </trkpt>
      <trkpt lat="44.58155" lon="4.21083">
        <ele>641</ele>
        <time>2018-06-03T08:31:18.000Z</time>
      </trkpt>
      <trkpt lat="44.58155" lon="4.21082">
        <ele>641</ele>
        <time>2018-06-03T08:31:19.000Z</time>
      </trkpt>
      <trkpt lat="44.58154" lon="4.21079">
        <ele>641</ele>
        <time>2018-06-03T08:31:20.000Z</time>
      </trkpt>
      <trkpt lat="44.58154" lon="4.21076">
        <ele>641</ele>
        <time>2018-06-03T08:31:21.000Z</time>
      </trkpt>
      <trkpt lat="44.58153" lon="4.21072">
        <ele>641</ele>
        <time>2018-06-03T08:31:22.000Z</time>
      </trkpt>
      <trkpt lat="44.58153" lon="4.21067">
        <ele>640</ele>
        <time>2018-06-03T08:31:23.000Z</time>
      </trkpt>
      <trkpt lat="44.58152" lon="4.21062">
        <ele>640</ele>
        <time>2018-06-03T08:31:24.000Z</time>
      </trkpt>
      <trkpt lat="44.58151" lon="4.21057">
        <ele>640</ele>
        <time>2018-06-03T08:31:25.000Z</time>
      </trkpt>
      <trkpt lat="44.58151" lon="4.21051">
        <ele>639</ele>
        <time>2018-06-03T08:31:26.000Z</time>
      </trkpt>
      <trkpt lat="44.58151" lon="4.21045">
        <ele>639</ele>
        <time>2018-06-03T08:31:27.000Z</time>
      </trkpt>
      <trkpt lat="44.58151" lon="4.21045">
        <ele>639</ele>
        <time>2018-06-03T08:31:28.000Z</time>
      </trkpt>
      <trkpt lat="44.58151" lon="4.21039">
        <ele>639</ele>
        <time>2018-06-03T08:31:29.000Z</time>
      </trkpt>
      <trkpt lat="44.5815" lon="4.21025">
        <ele>640</ele>
        <time>2018-06-03T08:31:30.000Z</time>
      </trkpt>
      <trkpt lat="44.58148" lon="4.21019">
        <ele>640</ele>
        <time>2018-06-03T08:31:31.000Z</time>
      </trkpt>
      <trkpt lat="44.58147" lon="4.21013">
        <ele>640</ele>
        <time>2018-06-03T08:31:32.000Z</time>
      </trkpt>
      <trkpt lat="44.58146" lon="4.21007">
        <ele>640</ele>
        <time>2018-06-03T08:31:33.000Z</time>
      </trkpt>
      <trkpt lat="44.58145" lon="4.21002">
        <ele>640</ele>
        <time>2018-06-03T08:31:34.000Z</time>
      </trkpt>
      <trkpt lat="44.58144" lon="4.20997">
        <ele>645</ele>
        <time>2018-06-03T08:31:35.000Z</time>
      </trkpt>
      <trkpt lat="44.58144" lon="4.20992">
        <ele>645</ele>
        <time>2018-06-03T08:31:36.000Z</time>
      </trkpt>
      <trkpt lat="44.58144" lon="4.20988">
        <ele>646</ele>
        <time>2018-06-03T08:31:37.000Z</time>
      </trkpt>
      <trkpt lat="44.58144" lon="4.20984">
        <ele>646</ele>
        <time>2018-06-03T08:31:38.000Z</time>
      </trkpt>
      <trkpt lat="44.58144" lon="4.20981">
        <ele>646</ele>
        <time>2018-06-03T08:31:39.000Z</time>
      </trkpt>
      <trkpt lat="44.58144" lon="4.20977">
        <ele>646</ele>
        <time>2018-06-03T08:31:40.000Z</time>
      </trkpt>
      <trkpt lat="44.58144" lon="4.20973">
        <ele>647</ele>
        <time>2018-06-03T08:31:41.000Z</time>
      </trkpt>
      <trkpt lat="44.58142" lon="4.2097">
        <ele>647</ele>
        <time>2018-06-03T08:31:42.000Z</time>
      </trkpt>
      <trkpt lat="44.5814" lon="4.20968">
        <ele>647</ele>
        <time>2018-06-03T08:31:43.000Z</time>
      </trkpt>
      <trkpt lat="44.58138" lon="4.20966">
        <ele>648</ele>
        <time>2018-06-03T08:31:44.000Z</time>
      </trkpt>
      <trkpt lat="44.58135" lon="4.20965">
        <ele>648</ele>
        <time>2018-06-03T08:31:45.000Z</time>
      </trkpt>
      <trkpt lat="44.58133" lon="4.20966">
        <ele>648</ele>
        <time>2018-06-03T08:31:46.000Z</time>
      </trkpt>
      <trkpt lat="44.58131" lon="4.20967">
        <ele>648</ele>
        <time>2018-06-03T08:31:47.000Z</time>
      </trkpt>
      <trkpt lat="44.58128" lon="4.20969">
        <ele>648</ele>
        <time>2018-06-03T08:31:48.000Z</time>
      </trkpt>
      <trkpt lat="44.58126" lon="4.2097">
        <ele>647</ele>
        <time>2018-06-03T08:31:49.000Z</time>
      </trkpt>
      <trkpt lat="44.58125" lon="4.20972">
        <ele>647</ele>
        <time>2018-06-03T08:31:50.000Z</time>
      </trkpt>
      <trkpt lat="44.58123" lon="4.20975">
        <ele>647</ele>
        <time>2018-06-03T08:31:51.000Z</time>
      </trkpt>
      <trkpt lat="44.58121" lon="4.20977">
        <ele>647</ele>
        <time>2018-06-03T08:31:52.000Z</time>
      </trkpt>
      <trkpt lat="44.5812" lon="4.20979">
        <ele>647</ele>
        <time>2018-06-03T08:31:53.000Z</time>
      </trkpt>
      <trkpt lat="44.58119" lon="4.20982">
        <ele>646</ele>
        <time>2018-06-03T08:31:54.000Z</time>
      </trkpt>
      <trkpt lat="44.58118" lon="4.20985">
        <ele>646</ele>
        <time>2018-06-03T08:31:55.000Z</time>
      </trkpt>
      <trkpt lat="44.58116" lon="4.20987">
        <ele>646</ele>
        <time>2018-06-03T08:31:56.000Z</time>
      </trkpt>
      <trkpt lat="44.58114" lon="4.2099">
        <ele>646</ele>
        <time>2018-06-03T08:31:57.000Z</time>
      </trkpt>
      <trkpt lat="44.58112" lon="4.20994">
        <ele>645</ele>
        <time>2018-06-03T08:31:58.000Z</time>
      </trkpt>
      <trkpt lat="44.5811" lon="4.20998">
        <ele>645</ele>
        <time>2018-06-03T08:31:59.000Z</time>
      </trkpt>
      <trkpt lat="44.58108" lon="4.21002">
        <ele>639</ele>
        <time>2018-06-03T08:32:00.000Z</time>
      </trkpt>
      <trkpt lat="44.58106" lon="4.21007">
        <ele>639</ele>
        <time>2018-06-03T08:32:01.000Z</time>
      </trkpt>
      <trkpt lat="44.58104" lon="4.21012">
        <ele>639</ele>
        <time>2018-06-03T08:32:02.000Z</time>
      </trkpt>
      <trkpt lat="44.58102" lon="4.21016">
        <ele>638</ele>
        <time>2018-06-03T08:32:03.000Z</time>
      </trkpt>
      <trkpt lat="44.58101" lon="4.21021">
        <ele>638</ele>
        <time>2018-06-03T08:32:04.000Z</time>
      </trkpt>
      <trkpt lat="44.581" lon="4.21026">
        <ele>638</ele>
        <time>2018-06-03T08:32:05.000Z</time>
      </trkpt>
      <trkpt lat="44.58099" lon="4.21031">
        <ele>637</ele>
        <time>2018-06-03T08:32:06.000Z</time>
      </trkpt>
      <trkpt lat="44.58098" lon="4.21036">
        <ele>637</ele>
        <time>2018-06-03T08:32:07.000Z</time>
      </trkpt>
      <trkpt lat="44.58096" lon="4.21041">
        <ele>637</ele>
        <time>2018-06-03T08:32:08.000Z</time>
      </trkpt>
      <trkpt lat="44.58095" lon="4.21046">
        <ele>636</ele>
        <time>2018-06-03T08:32:09.000Z</time>
      </trkpt>
      <trkpt lat="44.58092" lon="4.21051">
        <ele>635</ele>
        <time>2018-06-03T08:32:10.000Z</time>
      </trkpt>
      <trkpt lat="44.58089" lon="4.21055">
        <ele>635</ele>
        <time>2018-06-03T08:32:11.000Z</time>
      </trkpt>
      <trkpt lat="44.58085" lon="4.21059">
        <ele>634</ele>
        <time>2018-06-03T08:32:12.000Z</time>
      </trkpt>
      <trkpt lat="44.58081" lon="4.21062">
        <ele>633</ele>
        <time>2018-06-03T08:32:13.000Z</time>
      </trkpt>
      <trkpt lat="44.58076" lon="4.21064">
        <ele>633</ele>
        <time>2018-06-03T08:32:14.000Z</time>
      </trkpt>
      <trkpt lat="44.58071" lon="4.21066">
        <ele>633</ele>
        <time>2018-06-03T08:32:15.000Z</time>
      </trkpt>
      <trkpt lat="44.58066" lon="4.21067">
        <ele>634</ele>
        <time>2018-06-03T08:32:16.000Z</time>
      </trkpt>
      <trkpt lat="44.58061" lon="4.21068">
        <ele>634</ele>
        <time>2018-06-03T08:32:17.000Z</time>
      </trkpt>
      <trkpt lat="44.58057" lon="4.2107">
        <ele>634</ele>
        <time>2018-06-03T08:32:18.000Z</time>
      </trkpt>
      <trkpt lat="44.58052" lon="4.21072">
        <ele>635</ele>
        <time>2018-06-03T08:32:19.000Z</time>
      </trkpt>
      <trkpt lat="44.58047" lon="4.21074">
        <ele>635</ele>
        <time>2018-06-03T08:32:20.000Z</time>
      </trkpt>
      <trkpt lat="44.58042" lon="4.21076">
        <ele>635</ele>
        <time>2018-06-03T08:32:21.000Z</time>
      </trkpt>
      <trkpt lat="44.58035" lon="4.21079">
        <ele>635</ele>
        <time>2018-06-03T08:32:22.000Z</time>
      </trkpt>
      <trkpt lat="44.58029" lon="4.21082">
        <ele>635</ele>
        <time>2018-06-03T08:32:23.000Z</time>
      </trkpt>
      <trkpt lat="44.58022" lon="4.21085">
        <ele>625</ele>
        <time>2018-06-03T08:32:24.000Z</time>
      </trkpt>
      <trkpt lat="44.58015" lon="4.21088">
        <ele>626</ele>
        <time>2018-06-03T08:32:25.000Z</time>
      </trkpt>
      <trkpt lat="44.58008" lon="4.21091">
        <ele>627</ele>
        <time>2018-06-03T08:32:26.000Z</time>
      </trkpt>
      <trkpt lat="44.58001" lon="4.21094">
        <ele>627</ele>
        <time>2018-06-03T08:32:27.000Z</time>
      </trkpt>
      <trkpt lat="44.57995" lon="4.21098">
        <ele>624</ele>
        <time>2018-06-03T08:32:28.000Z</time>
      </trkpt>
      <trkpt lat="44.57988" lon="4.21101">
        <ele>622</ele>
        <time>2018-06-03T08:32:29.000Z</time>
      </trkpt>
      <trkpt lat="44.5798" lon="4.21105">
        <ele>620</ele>
        <time>2018-06-03T08:32:30.000Z</time>
      </trkpt>
      <trkpt lat="44.57972" lon="4.21108">
        <ele>619</ele>
        <time>2018-06-03T08:32:31.000Z</time>
      </trkpt>
      <trkpt lat="44.57964" lon="4.21111">
        <ele>618</ele>
        <time>2018-06-03T08:32:32.000Z</time>
      </trkpt>
      <trkpt lat="44.57956" lon="4.21113">
        <ele>617</ele>
        <time>2018-06-03T08:32:33.000Z</time>
      </trkpt>
      <trkpt lat="44.57948" lon="4.21115">
        <ele>617</ele>
        <time>2018-06-03T08:32:34.000Z</time>
      </trkpt>
      <trkpt lat="44.5794" lon="4.21117">
        <ele>616</ele>
        <time>2018-06-03T08:32:35.000Z</time>
      </trkpt>
      <trkpt lat="44.57932" lon="4.21117">
        <ele>616</ele>
        <time>2018-06-03T08:32:36.000Z</time>
      </trkpt>
      <trkpt lat="44.57924" lon="4.21119">
        <ele>616</ele>
        <time>2018-06-03T08:32:37.000Z</time>
      </trkpt>
      <trkpt lat="44.57915" lon="4.21121">
        <ele>607</ele>
        <time>2018-06-03T08:32:38.000Z</time>
      </trkpt>
      <trkpt lat="44.57907" lon="4.21122">
        <ele>606</ele>
        <time>2018-06-03T08:32:39.000Z</time>
      </trkpt>
      <trkpt lat="44.57899" lon="4.21123">
        <ele>605</ele>
        <time>2018-06-03T08:32:40.000Z</time>
      </trkpt>
      <trkpt lat="44.57892" lon="4.21124">
        <ele>604</ele>
        <time>2018-06-03T08:32:41.000Z</time>
      </trkpt>
      <trkpt lat="44.57892" lon="4.21124">
        <ele>604</ele>
        <time>2018-06-03T08:32:42.000Z</time>
      </trkpt>
      <trkpt lat="44.57881" lon="4.21119">
        <ele>604</ele>
        <time>2018-06-03T08:32:43.000Z</time>
      </trkpt>
      <trkpt lat="44.57877" lon="4.21115">
        <ele>604</ele>
        <time>2018-06-03T08:32:44.000Z</time>
      </trkpt>
      <trkpt lat="44.57877" lon="4.21115">
        <ele>604</ele>
        <time>2018-06-03T08:32:45.000Z</time>
      </trkpt>
      <trkpt lat="44.57874" lon="4.21109">
        <ele>604</ele>
        <time>2018-06-03T08:32:46.000Z</time>
      </trkpt>
      <trkpt lat="44.57872" lon="4.21103">
        <ele>604</ele>
        <time>2018-06-03T08:32:47.000Z</time>
      </trkpt>
      <trkpt lat="44.5787" lon="4.21096">
        <ele>605</ele>
        <time>2018-06-03T08:32:48.000Z</time>
      </trkpt>
      <trkpt lat="44.57869" lon="4.21088">
        <ele>605</ele>
        <time>2018-06-03T08:32:49.000Z</time>
      </trkpt>
      <trkpt lat="44.57868" lon="4.21081">
        <ele>614</ele>
        <time>2018-06-03T08:32:50.000Z</time>
      </trkpt>
      <trkpt lat="44.57868" lon="4.21072">
        <ele>615</ele>
        <time>2018-06-03T08:32:51.000Z</time>
      </trkpt>
      <trkpt lat="44.57867" lon="4.21064">
        <ele>615</ele>
        <time>2018-06-03T08:32:52.000Z</time>
      </trkpt>
      <trkpt lat="44.57867" lon="4.21056">
        <ele>616</ele>
        <time>2018-06-03T08:32:53.000Z</time>
      </trkpt>
      <trkpt lat="44.57867" lon="4.21047">
        <ele>616</ele>
        <time>2018-06-03T08:32:54.000Z</time>
      </trkpt>
      <trkpt lat="44.57867" lon="4.21039">
        <ele>616</ele>
        <time>2018-06-03T08:32:55.000Z</time>
      </trkpt>
      <trkpt lat="44.57867" lon="4.21031">
        <ele>617</ele>
        <time>2018-06-03T08:32:56.000Z</time>
      </trkpt>
      <trkpt lat="44.57867" lon="4.21024">
        <ele>617</ele>
        <time>2018-06-03T08:32:57.000Z</time>
      </trkpt>
      <trkpt lat="44.57868" lon="4.21018">
        <ele>617</ele>
        <time>2018-06-03T08:32:58.000Z</time>
      </trkpt>
      <trkpt lat="44.57868" lon="4.21013">
        <ele>617</ele>
        <time>2018-06-03T08:32:59.000Z</time>
      </trkpt>
      <trkpt lat="44.57867" lon="4.21008">
        <ele>617</ele>
        <time>2018-06-03T08:33:00.000Z</time>
      </trkpt>
      <trkpt lat="44.57866" lon="4.21005">
        <ele>616</ele>
        <time>2018-06-03T08:33:01.000Z</time>
      </trkpt>
      <trkpt lat="44.57864" lon="4.21003">
        <ele>616</ele>
        <time>2018-06-03T08:33:02.000Z</time>
      </trkpt>
      <trkpt lat="44.57862" lon="4.21">
        <ele>615</ele>
        <time>2018-06-03T08:33:03.000Z</time>
      </trkpt>
      <trkpt lat="44.5786" lon="4.20998">
        <ele>618</ele>
        <time>2018-06-03T08:33:04.000Z</time>
      </trkpt>
      <trkpt lat="44.57858" lon="4.20994">
        <ele>617</ele>
        <time>2018-06-03T08:33:05.000Z</time>
      </trkpt>
      <trkpt lat="44.57855" lon="4.20991">
        <ele>616</ele>
        <time>2018-06-03T08:33:06.000Z</time>
      </trkpt>
      <trkpt lat="44.57853" lon="4.20986">
        <ele>616</ele>
        <time>2018-06-03T08:33:07.000Z</time>
      </trkpt>
      <trkpt lat="44.57851" lon="4.20981">
        <ele>616</ele>
        <time>2018-06-03T08:33:08.000Z</time>
      </trkpt>
      <trkpt lat="44.57848" lon="4.20974">
        <ele>617</ele>
        <time>2018-06-03T08:33:09.000Z</time>
      </trkpt>
      <trkpt lat="44.57846" lon="4.20965">
        <ele>618</ele>
        <time>2018-06-03T08:33:10.000Z</time>
      </trkpt>
      <trkpt lat="44.57843" lon="4.20958">
        <ele>618</ele>
        <time>2018-06-03T08:33:11.000Z</time>
      </trkpt>
      <trkpt lat="44.5784" lon="4.20952">
        <ele>617</ele>
        <time>2018-06-03T08:33:12.000Z</time>
      </trkpt>
      <trkpt lat="44.57838" lon="4.20946">
        <ele>617</ele>
        <time>2018-06-03T08:33:13.000Z</time>
      </trkpt>
      <trkpt lat="44.57835" lon="4.20943">
        <ele>616</ele>
        <time>2018-06-03T08:33:14.000Z</time>
      </trkpt>
      <trkpt lat="44.57831" lon="4.20938">
        <ele>594</ele>
        <time>2018-06-03T08:33:15.000Z</time>
      </trkpt>
      <trkpt lat="44.57829" lon="4.20932">
        <ele>596</ele>
        <time>2018-06-03T08:33:16.000Z</time>
      </trkpt>
      <trkpt lat="44.57826" lon="4.20928">
        <ele>597</ele>
        <time>2018-06-03T08:33:17.000Z</time>
      </trkpt>
      <trkpt lat="44.57823" lon="4.20923">
        <ele>597</ele>
        <time>2018-06-03T08:33:18.000Z</time>
      </trkpt>
      <trkpt lat="44.57821" lon="4.20919">
        <ele>597</ele>
        <time>2018-06-03T08:33:19.000Z</time>
      </trkpt>
      <trkpt lat="44.57819" lon="4.20915">
        <ele>597</ele>
        <time>2018-06-03T08:33:20.000Z</time>
      </trkpt>
      <trkpt lat="44.57817" lon="4.2091">
        <ele>596</ele>
        <time>2018-06-03T08:33:21.000Z</time>
      </trkpt>
      <trkpt lat="44.57816" lon="4.20904">
        <ele>595</ele>
        <time>2018-06-03T08:33:22.000Z</time>
      </trkpt>
      <trkpt lat="44.57815" lon="4.20898">
        <ele>594</ele>
        <time>2018-06-03T08:33:23.000Z</time>
      </trkpt>
      <trkpt lat="44.57814" lon="4.20892">
        <ele>593</ele>
        <time>2018-06-03T08:33:24.000Z</time>
      </trkpt>
      <trkpt lat="44.57814" lon="4.20885">
        <ele>592</ele>
        <time>2018-06-03T08:33:25.000Z</time>
      </trkpt>
      <trkpt lat="44.57814" lon="4.20877">
        <ele>592</ele>
        <time>2018-06-03T08:33:26.000Z</time>
      </trkpt>
      <trkpt lat="44.57814" lon="4.20869">
        <ele>592</ele>
        <time>2018-06-03T08:33:27.000Z</time>
      </trkpt>
      <trkpt lat="44.57813" lon="4.20861">
        <ele>592</ele>
        <time>2018-06-03T08:33:28.000Z</time>
      </trkpt>
      <trkpt lat="44.5781" lon="4.20856">
        <ele>592</ele>
        <time>2018-06-03T08:33:29.000Z</time>
      </trkpt>
      <trkpt lat="44.57807" lon="4.20851">
        <ele>592</ele>
        <time>2018-06-03T08:33:30.000Z</time>
      </trkpt>
      <trkpt lat="44.57804" lon="4.20847">
        <ele>591</ele>
        <time>2018-06-03T08:33:31.000Z</time>
      </trkpt>
      <trkpt lat="44.578" lon="4.20843">
        <ele>590</ele>
        <time>2018-06-03T08:33:32.000Z</time>
      </trkpt>
      <trkpt lat="44.57797" lon="4.2084">
        <ele>589</ele>
        <time>2018-06-03T08:33:33.000Z</time>
      </trkpt>
      <trkpt lat="44.57793" lon="4.20839">
        <ele>588</ele>
        <time>2018-06-03T08:33:34.000Z</time>
      </trkpt>
      <trkpt lat="44.57791" lon="4.20838">
        <ele>588</ele>
        <time>2018-06-03T08:33:35.000Z</time>
      </trkpt>
      <trkpt lat="44.57788" lon="4.20838">
        <ele>587</ele>
        <time>2018-06-03T08:33:36.000Z</time>
      </trkpt>
      <trkpt lat="44.57785" lon="4.20838">
        <ele>586</ele>
        <time>2018-06-03T08:33:37.000Z</time>
      </trkpt>
      <trkpt lat="44.57783" lon="4.20836">
        <ele>585</ele>
        <time>2018-06-03T08:33:38.000Z</time>
      </trkpt>
      <trkpt lat="44.57782" lon="4.20832">
        <ele>584</ele>
        <time>2018-06-03T08:33:39.000Z</time>
      </trkpt>
      <trkpt lat="44.57779" lon="4.2082">
        <ele>583</ele>
        <time>2018-06-03T08:33:40.000Z</time>
      </trkpt>
      <trkpt lat="44.57775" lon="4.20813">
        <ele>582</ele>
        <time>2018-06-03T08:33:41.000Z</time>
      </trkpt>
      <trkpt lat="44.57769" lon="4.20807">
        <ele>581</ele>
        <time>2018-06-03T08:33:42.000Z</time>
      </trkpt>
      <trkpt lat="44.57763" lon="4.20803">
        <ele>581</ele>
        <time>2018-06-03T08:33:43.000Z</time>
      </trkpt>
      <trkpt lat="44.57758" lon="4.20798">
        <ele>580</ele>
        <time>2018-06-03T08:33:44.000Z</time>
      </trkpt>
      <trkpt lat="44.57758" lon="4.20798">
        <ele>580</ele>
        <time>2018-06-03T08:33:45.000Z</time>
      </trkpt>
      <trkpt lat="44.57753" lon="4.20793">
        <ele>580</ele>
        <time>2018-06-03T08:33:46.000Z</time>
      </trkpt>
      <trkpt lat="44.57748" lon="4.20787">
        <ele>567</ele>
        <time>2018-06-03T08:33:47.000Z</time>
      </trkpt>
      <trkpt lat="44.57744" lon="4.20782">
        <ele>567</ele>
        <time>2018-06-03T08:33:48.000Z</time>
      </trkpt>
      <trkpt lat="44.57741" lon="4.20778">
        <ele>567</ele>
        <time>2018-06-03T08:33:49.000Z</time>
      </trkpt>
      <trkpt lat="44.5774" lon="4.20775">
        <ele>567</ele>
        <time>2018-06-03T08:33:50.000Z</time>
      </trkpt>
      <trkpt lat="44.57738" lon="4.20772">
        <ele>567</ele>
        <time>2018-06-03T08:33:51.000Z</time>
      </trkpt>
      <trkpt lat="44.57737" lon="4.2077">
        <ele>567</ele>
        <time>2018-06-03T08:33:52.000Z</time>
      </trkpt>
      <trkpt lat="44.57735" lon="4.20768">
        <ele>567</ele>
        <time>2018-06-03T08:33:53.000Z</time>
      </trkpt>
      <trkpt lat="44.57733" lon="4.20766">
        <ele>567</ele>
        <time>2018-06-03T08:33:54.000Z</time>
      </trkpt>
      <trkpt lat="44.57731" lon="4.20765">
        <ele>567</ele>
        <time>2018-06-03T08:33:55.000Z</time>
      </trkpt>
      <trkpt lat="44.57729" lon="4.20764">
        <ele>567</ele>
        <time>2018-06-03T08:33:56.000Z</time>
      </trkpt>
      <trkpt lat="44.57727" lon="4.20763">
        <ele>566</ele>
        <time>2018-06-03T08:33:57.000Z</time>
      </trkpt>
      <trkpt lat="44.57723" lon="4.20764">
        <ele>566</ele>
        <time>2018-06-03T08:33:58.000Z</time>
      </trkpt>
      <trkpt lat="44.57718" lon="4.20766">
        <ele>566</ele>
        <time>2018-06-03T08:33:59.000Z</time>
      </trkpt>
      <trkpt lat="44.57714" lon="4.20769">
        <ele>566</ele>
        <time>2018-06-03T08:34:00.000Z</time>
      </trkpt>
      <trkpt lat="44.5771" lon="4.20772">
        <ele>565</ele>
        <time>2018-06-03T08:34:01.000Z</time>
      </trkpt>
      <trkpt lat="44.57706" lon="4.20774">
        <ele>565</ele>
        <time>2018-06-03T08:34:02.000Z</time>
      </trkpt>
      <trkpt lat="44.57703" lon="4.20777">
        <ele>565</ele>
        <time>2018-06-03T08:34:03.000Z</time>
      </trkpt>
      <trkpt lat="44.57701" lon="4.20781">
        <ele>565</ele>
        <time>2018-06-03T08:34:04.000Z</time>
      </trkpt>
      <trkpt lat="44.57699" lon="4.20785">
        <ele>564</ele>
        <time>2018-06-03T08:34:05.000Z</time>
      </trkpt>
      <trkpt lat="44.57698" lon="4.20791">
        <ele>564</ele>
        <time>2018-06-03T08:34:06.000Z</time>
      </trkpt>
      <trkpt lat="44.57696" lon="4.20795">
        <ele>564</ele>
        <time>2018-06-03T08:34:07.000Z</time>
      </trkpt>
      <trkpt lat="44.57693" lon="4.20799">
        <ele>564</ele>
        <time>2018-06-03T08:34:08.000Z</time>
      </trkpt>
      <trkpt lat="44.5769" lon="4.20802">
        <ele>563</ele>
        <time>2018-06-03T08:34:09.000Z</time>
      </trkpt>
      <trkpt lat="44.57686" lon="4.20806">
        <ele>563</ele>
        <time>2018-06-03T08:34:10.000Z</time>
      </trkpt>
      <trkpt lat="44.57681" lon="4.20809">
        <ele>562</ele>
        <time>2018-06-03T08:34:11.000Z</time>
      </trkpt>
      <trkpt lat="44.57676" lon="4.20811">
        <ele>561</ele>
        <time>2018-06-03T08:34:12.000Z</time>
      </trkpt>
      <trkpt lat="44.57672" lon="4.20816">
        <ele>560</ele>
        <time>2018-06-03T08:34:13.000Z</time>
      </trkpt>
      <trkpt lat="44.57667" lon="4.20822">
        <ele>559</ele>
        <time>2018-06-03T08:34:14.000Z</time>
      </trkpt>
      <trkpt lat="44.57663" lon="4.20829">
        <ele>554</ele>
        <time>2018-06-03T08:34:15.000Z</time>
      </trkpt>
      <trkpt lat="44.5766" lon="4.20836">
        <ele>551</ele>
        <time>2018-06-03T08:34:16.000Z</time>
      </trkpt>
      <trkpt lat="44.57657" lon="4.20843">
        <ele>548</ele>
        <time>2018-06-03T08:34:17.000Z</time>
      </trkpt>
      <trkpt lat="44.57654" lon="4.20851">
        <ele>546</ele>
        <time>2018-06-03T08:34:18.000Z</time>
      </trkpt>
      <trkpt lat="44.5765" lon="4.20859">
        <ele>544</ele>
        <time>2018-06-03T08:34:19.000Z</time>
      </trkpt>
      <trkpt lat="44.57645" lon="4.20866">
        <ele>543</ele>
        <time>2018-06-03T08:34:20.000Z</time>
      </trkpt>
      <trkpt lat="44.5764" lon="4.20872">
        <ele>542</ele>
        <time>2018-06-03T08:34:21.000Z</time>
      </trkpt>
      <trkpt lat="44.57634" lon="4.20879">
        <ele>541</ele>
        <time>2018-06-03T08:34:22.000Z</time>
      </trkpt>
      <trkpt lat="44.57628" lon="4.20886">
        <ele>540</ele>
        <time>2018-06-03T08:34:23.000Z</time>
      </trkpt>
      <trkpt lat="44.57623" lon="4.20892">
        <ele>539</ele>
        <time>2018-06-03T08:34:24.000Z</time>
      </trkpt>
      <trkpt lat="44.57619" lon="4.20896">
        <ele>538</ele>
        <time>2018-06-03T08:34:25.000Z</time>
      </trkpt>
      <trkpt lat="44.57614" lon="4.20901">
        <ele>537</ele>
        <time>2018-06-03T08:34:26.000Z</time>
      </trkpt>
      <trkpt lat="44.57611" lon="4.20906">
        <ele>537</ele>
        <time>2018-06-03T08:34:27.000Z</time>
      </trkpt>
      <trkpt lat="44.57608" lon="4.2091">
        <ele>536</ele>
        <time>2018-06-03T08:34:28.000Z</time>
      </trkpt>
      <trkpt lat="44.57606" lon="4.20913">
        <ele>535</ele>
        <time>2018-06-03T08:34:29.000Z</time>
      </trkpt>
      <trkpt lat="44.57604" lon="4.20915">
        <ele>535</ele>
        <time>2018-06-03T08:34:30.000Z</time>
      </trkpt>
      <trkpt lat="44.57601" lon="4.20918">
        <ele>529</ele>
        <time>2018-06-03T08:34:31.000Z</time>
      </trkpt>
      <trkpt lat="44.57599" lon="4.20921">
        <ele>529</ele>
        <time>2018-06-03T08:34:32.000Z</time>
      </trkpt>
      <trkpt lat="44.57596" lon="4.20923">
        <ele>529</ele>
        <time>2018-06-03T08:34:33.000Z</time>
      </trkpt>
      <trkpt lat="44.57594" lon="4.20923">
        <ele>529</ele>
        <time>2018-06-03T08:34:34.000Z</time>
      </trkpt>
      <trkpt lat="44.57591" lon="4.20921">
        <ele>529</ele>
        <time>2018-06-03T08:34:35.000Z</time>
      </trkpt>
      <trkpt lat="44.57589" lon="4.20916">
        <ele>531</ele>
        <time>2018-06-03T08:34:36.000Z</time>
      </trkpt>
      <trkpt lat="44.57586" lon="4.2091">
        <ele>532</ele>
        <time>2018-06-03T08:34:37.000Z</time>
      </trkpt>
      <trkpt lat="44.57583" lon="4.20904">
        <ele>527</ele>
        <time>2018-06-03T08:34:38.000Z</time>
      </trkpt>
      <trkpt lat="44.57581" lon="4.20902">
        <ele>527</ele>
        <time>2018-06-03T08:34:39.000Z</time>
      </trkpt>
      <trkpt lat="44.57579" lon="4.20903">
        <ele>527</ele>
        <time>2018-06-03T08:34:40.000Z</time>
      </trkpt>
      <trkpt lat="44.57579" lon="4.20907">
        <ele>527</ele>
        <time>2018-06-03T08:34:41.000Z</time>
      </trkpt>
      <trkpt lat="44.57578" lon="4.20912">
        <ele>527</ele>
        <time>2018-06-03T08:34:42.000Z</time>
      </trkpt>
      <trkpt lat="44.57577" lon="4.2092">
        <ele>524</ele>
        <time>2018-06-03T08:34:43.000Z</time>
      </trkpt>
      <trkpt lat="44.57574" lon="4.20927">
        <ele>520</ele>
        <time>2018-06-03T08:34:44.000Z</time>
      </trkpt>
      <trkpt lat="44.57572" lon="4.20936">
        <ele>517</ele>
        <time>2018-06-03T08:34:45.000Z</time>
      </trkpt>
      <trkpt lat="44.57572" lon="4.20945">
        <ele>515</ele>
        <time>2018-06-03T08:34:46.000Z</time>
      </trkpt>
      <trkpt lat="44.57572" lon="4.20955">
        <ele>513</ele>
        <time>2018-06-03T08:34:47.000Z</time>
      </trkpt>
      <trkpt lat="44.57572" lon="4.20964">
        <ele>512</ele>
        <time>2018-06-03T08:34:48.000Z</time>
      </trkpt>
      <trkpt lat="44.57572" lon="4.20971">
        <ele>512</ele>
        <time>2018-06-03T08:34:49.000Z</time>
      </trkpt>
      <trkpt lat="44.57571" lon="4.20976">
        <ele>512</ele>
        <time>2018-06-03T08:34:50.000Z</time>
      </trkpt>
      <trkpt lat="44.57569" lon="4.20978">
        <ele>511</ele>
        <time>2018-06-03T08:34:51.000Z</time>
      </trkpt>
      <trkpt lat="44.57566" lon="4.20978">
        <ele>511</ele>
        <time>2018-06-03T08:34:52.000Z</time>
      </trkpt>
      <trkpt lat="44.57561" lon="4.20976">
        <ele>510</ele>
        <time>2018-06-03T08:34:53.000Z</time>
      </trkpt>
      <trkpt lat="44.57556" lon="4.20974">
        <ele>510</ele>
        <time>2018-06-03T08:34:54.000Z</time>
      </trkpt>
      <trkpt lat="44.57552" lon="4.20971">
        <ele>509</ele>
        <time>2018-06-03T08:34:55.000Z</time>
      </trkpt>
      <trkpt lat="44.57547" lon="4.2097">
        <ele>509</ele>
        <time>2018-06-03T08:34:56.000Z</time>
      </trkpt>
      <trkpt lat="44.57544" lon="4.20969">
        <ele>508</ele>
        <time>2018-06-03T08:34:57.000Z</time>
      </trkpt>
      <trkpt lat="44.5754" lon="4.20971">
        <ele>507</ele>
        <time>2018-06-03T08:34:58.000Z</time>
      </trkpt>
      <trkpt lat="44.57537" lon="4.20974">
        <ele>506</ele>
        <time>2018-06-03T08:34:59.000Z</time>
      </trkpt>
      <trkpt lat="44.57535" lon="4.2098">
        <ele>505</ele>
        <time>2018-06-03T08:35:00.000Z</time>
      </trkpt>
      <trkpt lat="44.57533" lon="4.20986">
        <ele>504</ele>
        <time>2018-06-03T08:35:01.000Z</time>
      </trkpt>
      <trkpt lat="44.57532" lon="4.2099">
        <ele>504</ele>
        <time>2018-06-03T08:35:02.000Z</time>
      </trkpt>
      <trkpt lat="44.57532" lon="4.20994">
        <ele>504</ele>
        <time>2018-06-03T08:35:03.000Z</time>
      </trkpt>
      <trkpt lat="44.57532" lon="4.20997">
        <ele>503</ele>
        <time>2018-06-03T08:35:04.000Z</time>
      </trkpt>
      <trkpt lat="44.5753" lon="4.20997">
        <ele>503</ele>
        <time>2018-06-03T08:35:05.000Z</time>
      </trkpt>
      <trkpt lat="44.57527" lon="4.20998">
        <ele>502</ele>
        <time>2018-06-03T08:35:06.000Z</time>
      </trkpt>
      <trkpt lat="44.57523" lon="4.20997">
        <ele>500</ele>
        <time>2018-06-03T08:35:07.000Z</time>
      </trkpt>
      <trkpt lat="44.5752" lon="4.20995">
        <ele>499</ele>
        <time>2018-06-03T08:35:08.000Z</time>
      </trkpt>
      <trkpt lat="44.57517" lon="4.20991">
        <ele>499</ele>
        <time>2018-06-03T08:35:09.000Z</time>
      </trkpt>
      <trkpt lat="44.57515" lon="4.20985">
        <ele>499</ele>
        <time>2018-06-03T08:35:10.000Z</time>
      </trkpt>
      <trkpt lat="44.57513" lon="4.20981">
        <ele>500</ele>
        <time>2018-06-03T08:35:11.000Z</time>
      </trkpt>
      <trkpt lat="44.57511" lon="4.20981">
        <ele>500</ele>
        <time>2018-06-03T08:35:12.000Z</time>
      </trkpt>
      <trkpt lat="44.5751" lon="4.20985">
        <ele>498</ele>
        <time>2018-06-03T08:35:13.000Z</time>
      </trkpt>
      <trkpt lat="44.5751" lon="4.20992">
        <ele>495</ele>
        <time>2018-06-03T08:35:14.000Z</time>
      </trkpt>
      <trkpt lat="44.57509" lon="4.21">
        <ele>494</ele>
        <time>2018-06-03T08:35:15.000Z</time>
      </trkpt>
      <trkpt lat="44.57511" lon="4.21011">
        <ele>492</ele>
        <time>2018-06-03T08:35:16.000Z</time>
      </trkpt>
      <trkpt lat="44.57512" lon="4.21014">
        <ele>493</ele>
        <time>2018-06-03T08:35:17.000Z</time>
      </trkpt>
      <trkpt lat="44.57511" lon="4.21016">
        <ele>493</ele>
        <time>2018-06-03T08:35:18.000Z</time>
      </trkpt>
      <trkpt lat="44.57508" lon="4.21015">
        <ele>492</ele>
        <time>2018-06-03T08:35:19.000Z</time>
      </trkpt>
      <trkpt lat="44.57504" lon="4.21014">
        <ele>492</ele>
        <time>2018-06-03T08:35:20.000Z</time>
      </trkpt>
      <trkpt lat="44.575" lon="4.21011">
        <ele>491</ele>
        <time>2018-06-03T08:35:21.000Z</time>
      </trkpt>
      <trkpt lat="44.57497" lon="4.21007">
        <ele>486</ele>
        <time>2018-06-03T08:35:22.000Z</time>
      </trkpt>
      <trkpt lat="44.57494" lon="4.21002">
        <ele>486</ele>
        <time>2018-06-03T08:35:23.000Z</time>
      </trkpt>
      <trkpt lat="44.57492" lon="4.20997">
        <ele>487</ele>
        <time>2018-06-03T08:35:24.000Z</time>
      </trkpt>
      <trkpt lat="44.57489" lon="4.20994">
        <ele>487</ele>
        <time>2018-06-03T08:35:25.000Z</time>
      </trkpt>
      <trkpt lat="44.57488" lon="4.20993">
        <ele>487</ele>
        <time>2018-06-03T08:35:26.000Z</time>
      </trkpt>
      <trkpt lat="44.57488" lon="4.20994">
        <ele>487</ele>
        <time>2018-06-03T08:35:27.000Z</time>
      </trkpt>
      <trkpt lat="44.57488" lon="4.20998">
        <ele>487</ele>
        <time>2018-06-03T08:35:28.000Z</time>
      </trkpt>
      <trkpt lat="44.57488" lon="4.21002">
        <ele>485</ele>
        <time>2018-06-03T08:35:29.000Z</time>
      </trkpt>
      <trkpt lat="44.57487" lon="4.21003">
        <ele>485</ele>
        <time>2018-06-03T08:35:30.000Z</time>
      </trkpt>
      <trkpt lat="44.57486" lon="4.21003">
        <ele>484</ele>
        <time>2018-06-03T08:35:31.000Z</time>
      </trkpt>
      <trkpt lat="44.57484" lon="4.21">
        <ele>487</ele>
        <time>2018-06-03T08:35:32.000Z</time>
      </trkpt>
      <trkpt lat="44.57483" lon="4.20994">
        <ele>487</ele>
        <time>2018-06-03T08:35:33.000Z</time>
      </trkpt>
      <trkpt lat="44.57482" lon="4.20987">
        <ele>487</ele>
        <time>2018-06-03T08:35:34.000Z</time>
      </trkpt>
      <trkpt lat="44.57481" lon="4.20979">
        <ele>488</ele>
        <time>2018-06-03T08:35:35.000Z</time>
      </trkpt>
      <trkpt lat="44.57479" lon="4.20973">
        <ele>488</ele>
        <time>2018-06-03T08:35:36.000Z</time>
      </trkpt>
      <trkpt lat="44.57478" lon="4.20969">
        <ele>488</ele>
        <time>2018-06-03T08:35:37.000Z</time>
      </trkpt>
      <trkpt lat="44.57476" lon="4.20967">
        <ele>489</ele>
        <time>2018-06-03T08:35:38.000Z</time>
      </trkpt>
      <trkpt lat="44.57475" lon="4.20968">
        <ele>488</ele>
        <time>2018-06-03T08:35:39.000Z</time>
      </trkpt>
      <trkpt lat="44.57475" lon="4.2097">
        <ele>488</ele>
        <time>2018-06-03T08:35:40.000Z</time>
      </trkpt>
      <trkpt lat="44.57474" lon="4.20973">
        <ele>488</ele>
        <time>2018-06-03T08:35:41.000Z</time>
      </trkpt>
      <trkpt lat="44.57473" lon="4.20978">
        <ele>487</ele>
        <time>2018-06-03T08:35:42.000Z</time>
      </trkpt>
      <trkpt lat="44.57472" lon="4.20984">
        <ele>487</ele>
        <time>2018-06-03T08:35:43.000Z</time>
      </trkpt>
      <trkpt lat="44.57472" lon="4.20991">
        <ele>486</ele>
        <time>2018-06-03T08:35:44.000Z</time>
      </trkpt>
      <trkpt lat="44.57471" lon="4.20998">
        <ele>486</ele>
        <time>2018-06-03T08:35:45.000Z</time>
      </trkpt>
      <trkpt lat="44.57471" lon="4.21006">
        <ele>483</ele>
        <time>2018-06-03T08:35:46.000Z</time>
      </trkpt>
      <trkpt lat="44.57471" lon="4.21013">
        <ele>483</ele>
        <time>2018-06-03T08:35:47.000Z</time>
      </trkpt>
      <trkpt lat="44.57471" lon="4.2102">
        <ele>483</ele>
        <time>2018-06-03T08:35:48.000Z</time>
      </trkpt>
      <trkpt lat="44.57471" lon="4.21024">
        <ele>483</ele>
        <time>2018-06-03T08:35:49.000Z</time>
      </trkpt>
      <trkpt lat="44.5747" lon="4.21027">
        <ele>483</ele>
        <time>2018-06-03T08:35:50.000Z</time>
      </trkpt>
      <trkpt lat="44.5747" lon="4.21028">
        <ele>483</ele>
        <time>2018-06-03T08:35:51.000Z</time>
      </trkpt>
      <trkpt lat="44.5747" lon="4.21029">
        <ele>483</ele>
        <time>2018-06-03T08:35:52.000Z</time>
      </trkpt>
      <trkpt lat="44.57469" lon="4.21029">
        <ele>483</ele>
        <time>2018-06-03T08:35:53.000Z</time>
      </trkpt>
      <trkpt lat="44.57469" lon="4.2103">
        <ele>483</ele>
        <time>2018-06-03T08:35:54.000Z</time>
      </trkpt>
      <trkpt lat="44.57469" lon="4.21031">
        <ele>483</ele>
        <time>2018-06-03T08:35:55.000Z</time>
      </trkpt>
      <trkpt lat="44.57469" lon="4.2103">
        <ele>483</ele>
        <time>2018-06-03T08:35:56.000Z</time>
      </trkpt>
      <trkpt lat="44.57469" lon="4.21031">
        <ele>483</ele>
        <time>2018-06-03T08:35:57.000Z</time>
      </trkpt>
      <trkpt lat="44.57469" lon="4.21031">
        <ele>483</ele>
        <time>2018-06-03T08:35:58.000Z</time>
      </trkpt>
      <trkpt lat="44.57469" lon="4.21032">
        <ele>483</ele>
        <time>2018-06-03T08:35:59.000Z</time>
      </trkpt>
      <trkpt lat="44.57469" lon="4.21032">
        <ele>483</ele>
        <time>2018-06-03T08:36:00.000Z</time>
      </trkpt>
      <trkpt lat="44.57469" lon="4.21033">
        <ele>483</ele>
        <time>2018-06-03T08:36:01.000Z</time>
      </trkpt>
      <trkpt lat="44.57468" lon="4.21033">
        <ele>483</ele>
        <time>2018-06-03T08:36:02.000Z</time>
      </trkpt>
      <trkpt lat="44.57468" lon="4.21034">
        <ele>483</ele>
        <time>2018-06-03T08:36:03.000Z</time>
      </trkpt>
      <trkpt lat="44.57468" lon="4.21034">
        <ele>483</ele>
        <time>2018-06-03T08:36:04.000Z</time>
      </trkpt>
      <trkpt lat="44.57468" lon="4.21035">
        <ele>483</ele>
        <time>2018-06-03T08:36:05.000Z</time>
      </trkpt>
      <trkpt lat="44.57468" lon="4.21035">
        <ele>483</ele>
        <time>2018-06-03T08:36:06.000Z</time>
      </trkpt>
      <trkpt lat="44.57468" lon="4.21036">
        <ele>483</ele>
        <time>2018-06-03T08:36:07.000Z</time>
      </trkpt>
      <trkpt lat="44.57468" lon="4.21036">
        <ele>483</ele>
        <time>2018-06-03T08:36:08.000Z</time>
      </trkpt>
      <trkpt lat="44.57468" lon="4.21036">
        <ele>483</ele>
        <time>2018-06-03T08:36:09.000Z</time>
      </trkpt>
      <trkpt lat="44.57468" lon="4.21037">
        <ele>483</ele>
        <time>2018-06-03T08:36:10.000Z</time>
      </trkpt>
      <trkpt lat="44.57467" lon="4.21037">
        <ele>483</ele>
        <time>2018-06-03T08:36:11.000Z</time>
      </trkpt>
      <trkpt lat="44.57467" lon="4.21037">
        <ele>483</ele>
        <time>2018-06-03T08:36:12.000Z</time>
      </trkpt>
      <trkpt lat="44.57467" lon="4.21037">
        <ele>483</ele>
        <time>2018-06-03T08:36:13.000Z</time>
      </trkpt>
      <trkpt lat="44.57467" lon="4.21038">
        <ele>483</ele>
        <time>2018-06-03T08:36:14.000Z</time>
      </trkpt>
      <trkpt lat="44.57467" lon="4.21038">
        <ele>483</ele>
        <time>2018-06-03T08:36:15.000Z</time>
      </trkpt>
      <trkpt lat="44.57467" lon="4.21038">
        <ele>483</ele>
        <time>2018-06-03T08:36:16.000Z</time>
      </trkpt>
      <trkpt lat="44.57467" lon="4.21038">
        <ele>483</ele>
        <time>2018-06-03T08:36:17.000Z</time>
      </trkpt>
      <trkpt lat="44.57467" lon="4.21038">
        <ele>483</ele>
        <time>2018-06-03T08:36:18.000Z</time>
      </trkpt>
      <trkpt lat="44.57467" lon="4.21039">
        <ele>483</ele>
        <time>2018-06-03T08:36:19.000Z</time>
      </trkpt>
      <trkpt lat="44.57467" lon="4.21039">
        <ele>483</ele>
        <time>2018-06-03T08:36:20.000Z</time>
      </trkpt>
      <trkpt lat="44.57467" lon="4.21039">
        <ele>483</ele>
        <time>2018-06-03T08:36:21.000Z</time>
      </trkpt>
      <trkpt lat="44.57467" lon="4.21039">
        <ele>483</ele>
        <time>2018-06-03T08:36:22.000Z</time>
      </trkpt>
      <trkpt lat="44.57467" lon="4.21039">
        <ele>483</ele>
        <time>2018-06-03T08:36:23.000Z</time>
      </trkpt>
      <trkpt lat="44.57467" lon="4.21039">
        <ele>483</ele>
        <time>2018-06-03T08:36:24.000Z</time>
      </trkpt>
      <trkpt lat="44.57467" lon="4.2104">
        <ele>483</ele>
        <time>2018-06-03T08:36:25.000Z</time>
      </trkpt>
      <trkpt lat="44.57466" lon="4.2104">
        <ele>483</ele>
        <time>2018-06-03T08:36:26.000Z</time>
      </trkpt>
      <trkpt lat="44.57466" lon="4.2104">
        <ele>483</ele>
        <time>2018-06-03T08:36:27.000Z</time>
      </trkpt>
      <trkpt lat="44.57466" lon="4.2104">
        <ele>483</ele>
        <time>2018-06-03T08:36:28.000Z</time>
      </trkpt>
      <trkpt lat="44.57466" lon="4.2104">
        <ele>483</ele>
        <time>2018-06-03T08:36:29.000Z</time>
      </trkpt>
      <trkpt lat="44.57466" lon="4.2104">
        <ele>483</ele>
        <time>2018-06-03T08:36:30.000Z</time>
      </trkpt>
      <trkpt lat="44.57466" lon="4.2104">
        <ele>483</ele>
        <time>2018-06-03T08:36:31.000Z</time>
      </trkpt>
      <trkpt lat="44.57466" lon="4.2104">
        <ele>483</ele>
        <time>2018-06-03T08:36:32.000Z</time>
      </trkpt>
      <trkpt lat="44.57466" lon="4.2104">
        <ele>483</ele>
        <time>2018-06-03T08:36:33.000Z</time>
      </trkpt>
      <trkpt lat="44.57466" lon="4.2104">
        <ele>483</ele>
        <time>2018-06-03T08:36:34.000Z</time>
      </trkpt>
      <trkpt lat="44.57466" lon="4.21041">
        <ele>483</ele>
        <time>2018-06-03T08:36:35.000Z</time>
      </trkpt>
      <trkpt lat="44.57466" lon="4.21041">
        <ele>483</ele>
        <time>2018-06-03T08:36:36.000Z</time>
      </trkpt>
      <trkpt lat="44.57466" lon="4.21041">
        <ele>483</ele>
        <time>2018-06-03T08:36:37.000Z</time>
      </trkpt>
      <trkpt lat="44.57466" lon="4.21041">
        <ele>483</ele>
        <time>2018-06-03T08:36:38.000Z</time>
      </trkpt>
      <trkpt lat="44.57466" lon="4.21041">
        <ele>483</ele>
        <time>2018-06-03T08:36:39.000Z</time>
      </trkpt>
      <trkpt lat="44.57466" lon="4.21041">
        <ele>483</ele>
        <time>2018-06-03T08:36:40.000Z</time>
      </trkpt>
      <trkpt lat="44.57466" lon="4.21041">
        <ele>483</ele>
        <time>2018-06-03T08:36:41.000Z</time>
      </trkpt>
      <trkpt lat="44.57466" lon="4.21041">
        <ele>483</ele>
        <time>2018-06-03T08:36:42.000Z</time>
      </trkpt>
      <trkpt lat="44.57466" lon="4.21041">
        <ele>483</ele>
        <time>2018-06-03T08:36:43.000Z</time>
      </trkpt>
      <trkpt lat="44.57466" lon="4.21041">
        <ele>483</ele>
        <time>2018-06-03T08:36:44.000Z</time>
      </trkpt>
      <trkpt lat="44.57466" lon="4.21041">
        <ele>483</ele>
        <time>2018-06-03T08:36:45.000Z</time>
      </trkpt>
      <trkpt lat="44.57466" lon="4.21041">
        <ele>483</ele>
        <time>2018-06-03T08:36:46.000Z</time>
      </trkpt>
      <trkpt lat="44.57466" lon="4.21041">
        <ele>483</ele>
        <time>2018-06-03T08:36:47.000Z</time>
      </trkpt>
      <trkpt lat="44.57466" lon="4.21041">
        <ele>483</ele>
        <time>2018-06-03T08:36:48.000Z</time>
      </trkpt>
      <trkpt lat="44.57466" lon="4.21041">
        <ele>483</ele>
        <time>2018-06-03T08:36:49.000Z</time>
      </trkpt>
      <trkpt lat="44.57466" lon="4.21041">
        <ele>483</ele>
        <time>2018-06-03T08:36:50.000Z</time>
      </trkpt>
      <trkpt lat="44.57466" lon="4.21041">
        <ele>483</ele>
        <time>2018-06-03T08:36:51.000Z</time>
      </trkpt>
      <trkpt lat="44.57466" lon="4.21041">
        <ele>483</ele>
        <time>2018-06-03T08:36:52.000Z</time>
      </trkpt>
      <trkpt lat="44.57466" lon="4.21041">
        <ele>483</ele>
        <time>2018-06-03T08:36:53.000Z</time>
      </trkpt>
      <trkpt lat="44.57465" lon="4.2104">
        <ele>483</ele>
        <time>2018-06-03T08:36:54.000Z</time>
      </trkpt>
      <trkpt lat="44.57464" lon="4.2104">
        <ele>483</ele>
        <time>2018-06-03T08:36:55.000Z</time>
      </trkpt>
      <trkpt lat="44.57464" lon="4.21041">
        <ele>483</ele>
        <time>2018-06-03T08:36:56.000Z</time>
      </trkpt>
      <trkpt lat="44.57464" lon="4.21042">
        <ele>483</ele>
        <time>2018-06-03T08:36:57.000Z</time>
      </trkpt>
      <trkpt lat="44.57463" lon="4.21043">
        <ele>483</ele>
        <time>2018-06-03T08:36:58.000Z</time>
      </trkpt>
      <trkpt lat="44.57463" lon="4.21044">
        <ele>483</ele>
        <time>2018-06-03T08:36:59.000Z</time>
      </trkpt>
      <trkpt lat="44.57463" lon="4.21044">
        <ele>483</ele>
        <time>2018-06-03T08:37:00.000Z</time>
      </trkpt>
      <trkpt lat="44.57463" lon="4.21044">
        <ele>483</ele>
        <time>2018-06-03T08:37:01.000Z</time>
      </trkpt>
      <trkpt lat="44.57463" lon="4.21044">
        <ele>483</ele>
        <time>2018-06-03T08:37:02.000Z</time>
      </trkpt>
      <trkpt lat="44.57463" lon="4.21044">
        <ele>483</ele>
        <time>2018-06-03T08:37:03.000Z</time>
      </trkpt>
      <trkpt lat="44.57462" lon="4.21044">
        <ele>483</ele>
        <time>2018-06-03T08:37:04.000Z</time>
      </trkpt>
      <trkpt lat="44.57462" lon="4.21044">
        <ele>483</ele>
        <time>2018-06-03T08:37:05.000Z</time>
      </trkpt>
      <trkpt lat="44.57462" lon="4.21044">
        <ele>483</ele>
        <time>2018-06-03T08:37:06.000Z</time>
      </trkpt>
      <trkpt lat="44.57462" lon="4.21044">
        <ele>483</ele>
        <time>2018-06-03T08:37:07.000Z</time>
      </trkpt>
      <trkpt lat="44.57462" lon="4.21044">
        <ele>483</ele>
        <time>2018-06-03T08:37:08.000Z</time>
      </trkpt>
      <trkpt lat="44.57462" lon="4.21044">
        <ele>483</ele>
        <time>2018-06-03T08:37:09.000Z</time>
      </trkpt>
      <trkpt lat="44.57462" lon="4.21044">
        <ele>483</ele>
        <time>2018-06-03T08:37:10.000Z</time>
      </trkpt>
      <trkpt lat="44.57461" lon="4.21044">
        <ele>483</ele>
        <time>2018-06-03T08:37:11.000Z</time>
      </trkpt>
      <trkpt lat="44.57461" lon="4.21044">
        <ele>483</ele>
        <time>2018-06-03T08:37:12.000Z</time>
      </trkpt>
      <trkpt lat="44.57461" lon="4.21044">
        <ele>483</ele>
        <time>2018-06-03T08:37:13.000Z</time>
      </trkpt>
      <trkpt lat="44.57461" lon="4.21044">
        <ele>483</ele>
        <time>2018-06-03T08:37:14.000Z</time>
      </trkpt>
      <trkpt lat="44.57461" lon="4.21044">
        <ele>483</ele>
        <time>2018-06-03T08:37:15.000Z</time>
      </trkpt>
      <trkpt lat="44.57461" lon="4.21044">
        <ele>483</ele>
        <time>2018-06-03T08:37:16.000Z</time>
      </trkpt>
      <trkpt lat="44.57461" lon="4.21044">
        <ele>483</ele>
        <time>2018-06-03T08:37:17.000Z</time>
      </trkpt>
      <trkpt lat="44.57461" lon="4.21044">
        <ele>483</ele>
        <time>2018-06-03T08:37:18.000Z</time>
      </trkpt>
      <trkpt lat="44.57461" lon="4.21044">
        <ele>483</ele>
        <time>2018-06-03T08:37:19.000Z</time>
      </trkpt>
      <trkpt lat="44.57461" lon="4.21044">
        <ele>483</ele>
        <time>2018-06-03T08:37:20.000Z</time>
      </trkpt>
      <trkpt lat="44.57461" lon="4.21045">
        <ele>483</ele>
        <time>2018-06-03T08:37:21.000Z</time>
      </trkpt>
      <trkpt lat="44.57461" lon="4.21045">
        <ele>483</ele>
        <time>2018-06-03T08:37:22.000Z</time>
      </trkpt>
      <trkpt lat="44.57461" lon="4.21045">
        <ele>483</ele>
        <time>2018-06-03T08:37:23.000Z</time>
      </trkpt>
      <trkpt lat="44.57461" lon="4.21045">
        <ele>483</ele>
        <time>2018-06-03T08:37:24.000Z</time>
      </trkpt>
      <trkpt lat="44.57461" lon="4.21045">
        <ele>483</ele>
        <time>2018-06-03T08:37:25.000Z</time>
      </trkpt>
      <trkpt lat="44.57461" lon="4.21045">
        <ele>483</ele>
        <time>2018-06-03T08:37:26.000Z</time>
      </trkpt>
      <trkpt lat="44.57461" lon="4.21045">
        <ele>483</ele>
        <time>2018-06-03T08:37:27.000Z</time>
      </trkpt>
      <trkpt lat="44.57461" lon="4.21045">
        <ele>483</ele>
        <time>2018-06-03T08:37:28.000Z</time>
      </trkpt>
      <trkpt lat="44.57461" lon="4.21045">
        <ele>483</ele>
        <time>2018-06-03T08:37:29.000Z</time>
      </trkpt>
      <trkpt lat="44.57461" lon="4.21045">
        <ele>483</ele>
        <time>2018-06-03T08:37:30.000Z</time>
      </trkpt>
      <trkpt lat="44.57461" lon="4.21044">
        <ele>483</ele>
        <time>2018-06-03T08:37:31.000Z</time>
      </trkpt>
      <trkpt lat="44.57461" lon="4.21044">
        <ele>483</ele>
        <time>2018-06-03T08:37:32.000Z</time>
      </trkpt>
      <trkpt lat="44.57461" lon="4.21044">
        <ele>483</ele>
        <time>2018-06-03T08:37:33.000Z</time>
      </trkpt>
      <trkpt lat="44.57461" lon="4.21044">
        <ele>483</ele>
        <time>2018-06-03T08:37:34.000Z</time>
      </trkpt>
      <trkpt lat="44.57462" lon="4.21044">
        <ele>483</ele>
        <time>2018-06-03T08:37:35.000Z</time>
      </trkpt>
      <trkpt lat="44.57462" lon="4.21044">
        <ele>483</ele>
        <time>2018-06-03T08:37:36.000Z</time>
      </trkpt>
      <trkpt lat="44.57462" lon="4.21044">
        <ele>483</ele>
        <time>2018-06-03T08:37:37.000Z</time>
      </trkpt>
      <trkpt lat="44.57462" lon="4.21044">
        <ele>483</ele>
        <time>2018-06-03T08:37:38.000Z</time>
      </trkpt>
      <trkpt lat="44.57462" lon="4.21044">
        <ele>483</ele>
        <time>2018-06-03T08:37:39.000Z</time>
      </trkpt>
      <trkpt lat="44.57462" lon="4.21044">
        <ele>483</ele>
        <time>2018-06-03T08:37:40.000Z</time>
      </trkpt>
      <trkpt lat="44.57463" lon="4.21044">
        <ele>483</ele>
        <time>2018-06-03T08:37:41.000Z</time>
      </trkpt>
      <trkpt lat="44.57463" lon="4.21043">
        <ele>483</ele>
        <time>2018-06-03T08:37:42.000Z</time>
      </trkpt>
      <trkpt lat="44.57463" lon="4.21043">
        <ele>483</ele>
        <time>2018-06-03T08:37:43.000Z</time>
      </trkpt>
      <trkpt lat="44.57463" lon="4.21043">
        <ele>483</ele>
        <time>2018-06-03T08:37:44.000Z</time>
      </trkpt>
      <trkpt lat="44.57463" lon="4.21043">
        <ele>483</ele>
        <time>2018-06-03T08:37:45.000Z</time>
      </trkpt>
      <trkpt lat="44.57463" lon="4.21043">
        <ele>483</ele>
        <time>2018-06-03T08:37:46.000Z</time>
      </trkpt>
      <trkpt lat="44.57464" lon="4.21043">
        <ele>483</ele>
        <time>2018-06-03T08:37:47.000Z</time>
      </trkpt>
      <trkpt lat="44.57464" lon="4.21042">
        <ele>483</ele>
        <time>2018-06-03T08:37:48.000Z</time>
      </trkpt>
      <trkpt lat="44.57464" lon="4.21042">
        <ele>483</ele>
        <time>2018-06-03T08:37:49.000Z</time>
      </trkpt>
      <trkpt lat="44.57465" lon="4.21041">
        <ele>483</ele>
        <time>2018-06-03T08:37:50.000Z</time>
      </trkpt>
      <trkpt lat="44.57466" lon="4.2104">
        <ele>483</ele>
        <time>2018-06-03T08:37:51.000Z</time>
      </trkpt>
      <trkpt lat="44.57467" lon="4.21039">
        <ele>483</ele>
        <time>2018-06-03T08:37:52.000Z</time>
      </trkpt>
      <trkpt lat="44.57467" lon="4.2104">
        <ele>483</ele>
        <time>2018-06-03T08:37:53.000Z</time>
      </trkpt>
      <trkpt lat="44.57467" lon="4.2104">
        <ele>483</ele>
        <time>2018-06-03T08:37:54.000Z</time>
      </trkpt>
      <trkpt lat="44.57467" lon="4.2104">
        <ele>483</ele>
        <time>2018-06-03T08:37:55.000Z</time>
      </trkpt>
      <trkpt lat="44.57467" lon="4.2104">
        <ele>483</ele>
        <time>2018-06-03T08:37:56.000Z</time>
      </trkpt>
      <trkpt lat="44.57467" lon="4.2104">
        <ele>483</ele>
        <time>2018-06-03T08:37:57.000Z</time>
      </trkpt>
      <trkpt lat="44.57466" lon="4.21041">
        <ele>483</ele>
        <time>2018-06-03T08:37:58.000Z</time>
      </trkpt>
      <trkpt lat="44.57466" lon="4.21041">
        <ele>483</ele>
        <time>2018-06-03T08:37:59.000Z</time>
      </trkpt>
      <trkpt lat="44.57466" lon="4.21041">
        <ele>483</ele>
        <time>2018-06-03T08:38:00.000Z</time>
      </trkpt>
      <trkpt lat="44.57466" lon="4.21042">
        <ele>483</ele>
        <time>2018-06-03T08:38:01.000Z</time>
      </trkpt>
      <trkpt lat="44.57466" lon="4.21042">
        <ele>483</ele>
        <time>2018-06-03T08:38:02.000Z</time>
      </trkpt>
      <trkpt lat="44.57466" lon="4.21042">
        <ele>483</ele>
        <time>2018-06-03T08:38:03.000Z</time>
      </trkpt>
      <trkpt lat="44.57466" lon="4.21043">
        <ele>483</ele>
        <time>2018-06-03T08:38:04.000Z</time>
      </trkpt>
      <trkpt lat="44.57466" lon="4.21043">
        <ele>483</ele>
        <time>2018-06-03T08:38:05.000Z</time>
      </trkpt>
      <trkpt lat="44.57465" lon="4.21043">
        <ele>483</ele>
        <time>2018-06-03T08:38:06.000Z</time>
      </trkpt>
      <trkpt lat="44.57465" lon="4.21044">
        <ele>483</ele>
        <time>2018-06-03T08:38:07.000Z</time>
      </trkpt>
      <trkpt lat="44.57465" lon="4.21044">
        <ele>483</ele>
        <time>2018-06-03T08:38:08.000Z</time>
      </trkpt>
      <trkpt lat="44.57465" lon="4.21044">
        <ele>483</ele>
        <time>2018-06-03T08:38:09.000Z</time>
      </trkpt>
      <trkpt lat="44.57465" lon="4.21045">
        <ele>483</ele>
        <time>2018-06-03T08:38:10.000Z</time>
      </trkpt>
      <trkpt lat="44.57465" lon="4.21045">
        <ele>483</ele>
        <time>2018-06-03T08:38:11.000Z</time>
      </trkpt>
      <trkpt lat="44.57465" lon="4.21046">
        <ele>483</ele>
        <time>2018-06-03T08:38:12.000Z</time>
      </trkpt>
      <trkpt lat="44.57465" lon="4.21046">
        <ele>483</ele>
        <time>2018-06-03T08:38:13.000Z</time>
      </trkpt>
      <trkpt lat="44.57466" lon="4.21046">
        <ele>483</ele>
        <time>2018-06-03T08:38:14.000Z</time>
      </trkpt>
      <trkpt lat="44.57466" lon="4.21047">
        <ele>483</ele>
        <time>2018-06-03T08:38:15.000Z</time>
      </trkpt>
      <trkpt lat="44.57466" lon="4.21047">
        <ele>483</ele>
        <time>2018-06-03T08:38:16.000Z</time>
      </trkpt>
      <trkpt lat="44.57466" lon="4.21047">
        <ele>483</ele>
        <time>2018-06-03T08:38:17.000Z</time>
      </trkpt>
      <trkpt lat="44.57466" lon="4.21048">
        <ele>483</ele>
        <time>2018-06-03T08:38:18.000Z</time>
      </trkpt>
      <trkpt lat="44.57466" lon="4.21048">
        <ele>483</ele>
        <time>2018-06-03T08:38:19.000Z</time>
      </trkpt>
      <trkpt lat="44.57466" lon="4.21048">
        <ele>483</ele>
        <time>2018-06-03T08:38:20.000Z</time>
      </trkpt>
      <trkpt lat="44.57466" lon="4.21049">
        <ele>483</ele>
        <time>2018-06-03T08:38:21.000Z</time>
      </trkpt>
      <trkpt lat="44.57466" lon="4.21049">
        <ele>483</ele>
        <time>2018-06-03T08:38:22.000Z</time>
      </trkpt>
      <trkpt lat="44.57466" lon="4.21049">
        <ele>483</ele>
        <time>2018-06-03T08:38:23.000Z</time>
      </trkpt>
      <trkpt lat="44.57467" lon="4.21049">
        <ele>483</ele>
        <time>2018-06-03T08:38:24.000Z</time>
      </trkpt>
      <trkpt lat="44.57467" lon="4.2105">
        <ele>483</ele>
        <time>2018-06-03T08:38:25.000Z</time>
      </trkpt>
      <trkpt lat="44.57467" lon="4.2105">
        <ele>483</ele>
        <time>2018-06-03T08:38:26.000Z</time>
      </trkpt>
      <trkpt lat="44.57467" lon="4.2105">
        <ele>483</ele>
        <time>2018-06-03T08:38:27.000Z</time>
      </trkpt>
      <trkpt lat="44.57467" lon="4.2105">
        <ele>483</ele>
        <time>2018-06-03T08:38:28.000Z</time>
      </trkpt>
      <trkpt lat="44.57467" lon="4.2105">
        <ele>483</ele>
        <time>2018-06-03T08:38:29.000Z</time>
      </trkpt>
      <trkpt lat="44.57467" lon="4.2105">
        <ele>483</ele>
        <time>2018-06-03T08:38:30.000Z</time>
      </trkpt>
      <trkpt lat="44.57468" lon="4.21051">
        <ele>483</ele>
        <time>2018-06-03T08:38:31.000Z</time>
      </trkpt>
      <trkpt lat="44.57468" lon="4.21051">
        <ele>483</ele>
        <time>2018-06-03T08:38:32.000Z</time>
      </trkpt>
      <trkpt lat="44.57468" lon="4.21051">
        <ele>483</ele>
        <time>2018-06-03T08:38:33.000Z</time>
      </trkpt>
      <trkpt lat="44.57468" lon="4.21051">
        <ele>483</ele>
        <time>2018-06-03T08:38:34.000Z</time>
      </trkpt>
      <trkpt lat="44.57468" lon="4.21051">
        <ele>483</ele>
        <time>2018-06-03T08:38:35.000Z</time>
      </trkpt>
      <trkpt lat="44.57468" lon="4.21051">
        <ele>483</ele>
        <time>2018-06-03T08:38:36.000Z</time>
      </trkpt>
      <trkpt lat="44.57468" lon="4.21051">
        <ele>483</ele>
        <time>2018-06-03T08:38:37.000Z</time>
      </trkpt>
      <trkpt lat="44.57468" lon="4.21052">
        <ele>483</ele>
        <time>2018-06-03T08:38:38.000Z</time>
      </trkpt>
      <trkpt lat="44.57469" lon="4.21052">
        <ele>483</ele>
        <time>2018-06-03T08:38:39.000Z</time>
      </trkpt>
      <trkpt lat="44.57469" lon="4.21052">
        <ele>483</ele>
        <time>2018-06-03T08:38:40.000Z</time>
      </trkpt>
      <trkpt lat="44.57469" lon="4.21052">
        <ele>483</ele>
        <time>2018-06-03T08:38:41.000Z</time>
      </trkpt>
      <trkpt lat="44.57469" lon="4.21052">
        <ele>483</ele>
        <time>2018-06-03T08:38:42.000Z</time>
      </trkpt>
      <trkpt lat="44.57469" lon="4.21052">
        <ele>483</ele>
        <time>2018-06-03T08:38:43.000Z</time>
      </trkpt>
      <trkpt lat="44.57469" lon="4.21052">
        <ele>483</ele>
        <time>2018-06-03T08:38:44.000Z</time>
      </trkpt>
      <trkpt lat="44.57469" lon="4.21052">
        <ele>483</ele>
        <time>2018-06-03T08:38:45.000Z</time>
      </trkpt>
      <trkpt lat="44.57469" lon="4.21052">
        <ele>483</ele>
        <time>2018-06-03T08:38:46.000Z</time>
      </trkpt>
      <trkpt lat="44.57469" lon="4.21052">
        <ele>483</ele>
        <time>2018-06-03T08:38:47.000Z</time>
      </trkpt>
      <trkpt lat="44.5747" lon="4.21052">
        <ele>483</ele>
        <time>2018-06-03T08:38:48.000Z</time>
      </trkpt>
      <trkpt lat="44.5747" lon="4.21052">
        <ele>483</ele>
        <time>2018-06-03T08:38:49.000Z</time>
      </trkpt>
      <trkpt lat="44.57469" lon="4.21052">
        <ele>483</ele>
        <time>2018-06-03T08:38:50.000Z</time>
      </trkpt>
      <trkpt lat="44.57468" lon="4.21051">
        <ele>483</ele>
        <time>2018-06-03T08:38:51.000Z</time>
      </trkpt>
      <trkpt lat="44.57468" lon="4.21052">
        <ele>483</ele>
        <time>2018-06-03T08:38:52.000Z</time>
      </trkpt>
      <trkpt lat="44.57468" lon="4.21052">
        <ele>483</ele>
        <time>2018-06-03T08:38:53.000Z</time>
      </trkpt>
      <trkpt lat="44.57467" lon="4.21052">
        <ele>483</ele>
        <time>2018-06-03T08:38:54.000Z</time>
      </trkpt>
      <trkpt lat="44.57466" lon="4.21053">
        <ele>483</ele>
        <time>2018-06-03T08:38:55.000Z</time>
      </trkpt>
      <trkpt lat="44.57464" lon="4.21055">
        <ele>483</ele>
        <time>2018-06-03T08:38:56.000Z</time>
      </trkpt>
      <trkpt lat="44.57461" lon="4.21056">
        <ele>483</ele>
        <time>2018-06-03T08:38:57.000Z</time>
      </trkpt>
      <trkpt lat="44.57458" lon="4.21057">
        <ele>483</ele>
        <time>2018-06-03T08:38:58.000Z</time>
      </trkpt>
      <trkpt lat="44.57455" lon="4.21057">
        <ele>483</ele>
        <time>2018-06-03T08:38:59.000Z</time>
      </trkpt>
      <trkpt lat="44.57452" lon="4.21056">
        <ele>483</ele>
        <time>2018-06-03T08:39:00.000Z</time>
      </trkpt>
      <trkpt lat="44.57449" lon="4.21054">
        <ele>482</ele>
        <time>2018-06-03T08:39:01.000Z</time>
      </trkpt>
      <trkpt lat="44.57445" lon="4.21052">
        <ele>482</ele>
        <time>2018-06-03T08:39:02.000Z</time>
      </trkpt>
      <trkpt lat="44.57441" lon="4.21051">
        <ele>482</ele>
        <time>2018-06-03T08:39:03.000Z</time>
      </trkpt>
      <trkpt lat="44.57437" lon="4.2105">
        <ele>482</ele>
        <time>2018-06-03T08:39:04.000Z</time>
      </trkpt>
      <trkpt lat="44.57434" lon="4.2105">
        <ele>481</ele>
        <time>2018-06-03T08:39:05.000Z</time>
      </trkpt>
      <trkpt lat="44.5743" lon="4.21049">
        <ele>481</ele>
        <time>2018-06-03T08:39:06.000Z</time>
      </trkpt>
      <trkpt lat="44.57425" lon="4.21049">
        <ele>481</ele>
        <time>2018-06-03T08:39:07.000Z</time>
      </trkpt>
      <trkpt lat="44.57421" lon="4.2105">
        <ele>481</ele>
        <time>2018-06-03T08:39:08.000Z</time>
      </trkpt>
      <trkpt lat="44.57417" lon="4.21051">
        <ele>481</ele>
        <time>2018-06-03T08:39:09.000Z</time>
      </trkpt>
      <trkpt lat="44.57412" lon="4.21053">
        <ele>475</ele>
        <time>2018-06-03T08:39:10.000Z</time>
      </trkpt>
      <trkpt lat="44.57408" lon="4.21054">
        <ele>475</ele>
        <time>2018-06-03T08:39:11.000Z</time>
      </trkpt>
      <trkpt lat="44.57403" lon="4.21054">
        <ele>475</ele>
        <time>2018-06-03T08:39:12.000Z</time>
      </trkpt>
      <trkpt lat="44.57399" lon="4.21053">
        <ele>474</ele>
        <time>2018-06-03T08:39:13.000Z</time>
      </trkpt>
      <trkpt lat="44.57393" lon="4.21051">
        <ele>474</ele>
        <time>2018-06-03T08:39:14.000Z</time>
      </trkpt>
      <trkpt lat="44.57387" lon="4.21048">
        <ele>473</ele>
        <time>2018-06-03T08:39:15.000Z</time>
      </trkpt>
      <trkpt lat="44.57381" lon="4.21046">
        <ele>472</ele>
        <time>2018-06-03T08:39:16.000Z</time>
      </trkpt>
      <trkpt lat="44.57375" lon="4.21045">
        <ele>472</ele>
        <time>2018-06-03T08:39:17.000Z</time>
      </trkpt>
      <trkpt lat="44.57368" lon="4.21046">
        <ele>471</ele>
        <time>2018-06-03T08:39:18.000Z</time>
      </trkpt>
      <trkpt lat="44.57362" lon="4.21046">
        <ele>471</ele>
        <time>2018-06-03T08:39:19.000Z</time>
      </trkpt>
      <trkpt lat="44.57356" lon="4.21047">
        <ele>471</ele>
        <time>2018-06-03T08:39:20.000Z</time>
      </trkpt>
      <trkpt lat="44.5735" lon="4.21048">
        <ele>471</ele>
        <time>2018-06-03T08:39:21.000Z</time>
      </trkpt>
      <trkpt lat="44.57344" lon="4.21049">
        <ele>471</ele>
        <time>2018-06-03T08:39:22.000Z</time>
      </trkpt>
      <trkpt lat="44.57338" lon="4.2105">
        <ele>471</ele>
        <time>2018-06-03T08:39:23.000Z</time>
      </trkpt>
      <trkpt lat="44.57332" lon="4.21052">
        <ele>467</ele>
        <time>2018-06-03T08:39:24.000Z</time>
      </trkpt>
      <trkpt lat="44.57327" lon="4.21056">
        <ele>467</ele>
        <time>2018-06-03T08:39:25.000Z</time>
      </trkpt>
      <trkpt lat="44.57324" lon="4.21062">
        <ele>468</ele>
        <time>2018-06-03T08:39:26.000Z</time>
      </trkpt>
      <trkpt lat="44.57321" lon="4.21068">
        <ele>469</ele>
        <time>2018-06-03T08:39:27.000Z</time>
      </trkpt>
      <trkpt lat="44.57319" lon="4.21074">
        <ele>470</ele>
        <time>2018-06-03T08:39:28.000Z</time>
      </trkpt>
      <trkpt lat="44.57316" lon="4.21078">
        <ele>470</ele>
        <time>2018-06-03T08:39:29.000Z</time>
      </trkpt>
      <trkpt lat="44.57313" lon="4.2108">
        <ele>470</ele>
        <time>2018-06-03T08:39:30.000Z</time>
      </trkpt>
      <trkpt lat="44.5731" lon="4.2108">
        <ele>469</ele>
        <time>2018-06-03T08:39:31.000Z</time>
      </trkpt>
      <trkpt lat="44.57307" lon="4.21077">
        <ele>469</ele>
        <time>2018-06-03T08:39:32.000Z</time>
      </trkpt>
      <trkpt lat="44.57304" lon="4.21074">
        <ele>468</ele>
        <time>2018-06-03T08:39:33.000Z</time>
      </trkpt>
      <trkpt lat="44.57301" lon="4.2107">
        <ele>468</ele>
        <time>2018-06-03T08:39:34.000Z</time>
      </trkpt>
      <trkpt lat="44.57299" lon="4.21066">
        <ele>467</ele>
        <time>2018-06-03T08:39:35.000Z</time>
      </trkpt>
      <trkpt lat="44.57297" lon="4.21063">
        <ele>467</ele>
        <time>2018-06-03T08:39:36.000Z</time>
      </trkpt>
      <trkpt lat="44.57295" lon="4.21061">
        <ele>466</ele>
        <time>2018-06-03T08:39:37.000Z</time>
      </trkpt>
      <trkpt lat="44.57293" lon="4.21059">
        <ele>466</ele>
        <time>2018-06-03T08:39:38.000Z</time>
      </trkpt>
      <trkpt lat="44.5729" lon="4.21058">
        <ele>466</ele>
        <time>2018-06-03T08:39:39.000Z</time>
      </trkpt>
      <trkpt lat="44.57288" lon="4.21056">
        <ele>466</ele>
        <time>2018-06-03T08:39:40.000Z</time>
      </trkpt>
      <trkpt lat="44.57285" lon="4.21054">
        <ele>466</ele>
        <time>2018-06-03T08:39:41.000Z</time>
      </trkpt>
      <trkpt lat="44.57282" lon="4.21052">
        <ele>465</ele>
        <time>2018-06-03T08:39:42.000Z</time>
      </trkpt>
      <trkpt lat="44.57278" lon="4.21051">
        <ele>465</ele>
        <time>2018-06-03T08:39:43.000Z</time>
      </trkpt>
      <trkpt lat="44.57274" lon="4.21049">
        <ele>465</ele>
        <time>2018-06-03T08:39:44.000Z</time>
      </trkpt>
      <trkpt lat="44.57271" lon="4.21047">
        <ele>465</ele>
        <time>2018-06-03T08:39:45.000Z</time>
      </trkpt>
      <trkpt lat="44.57267" lon="4.21046">
        <ele>465</ele>
        <time>2018-06-03T08:39:46.000Z</time>
      </trkpt>
      <trkpt lat="44.57264" lon="4.21044">
        <ele>464</ele>
        <time>2018-06-03T08:39:47.000Z</time>
      </trkpt>
      <trkpt lat="44.5726" lon="4.21043">
        <ele>464</ele>
        <time>2018-06-03T08:39:48.000Z</time>
      </trkpt>
      <trkpt lat="44.57256" lon="4.21043">
        <ele>464</ele>
        <time>2018-06-03T08:39:49.000Z</time>
      </trkpt>
      <trkpt lat="44.57252" lon="4.21044">
        <ele>464</ele>
        <time>2018-06-03T08:39:50.000Z</time>
      </trkpt>
      <trkpt lat="44.57248" lon="4.21046">
        <ele>461</ele>
        <time>2018-06-03T08:39:51.000Z</time>
      </trkpt>
      <trkpt lat="44.57245" lon="4.21046">
        <ele>461</ele>
        <time>2018-06-03T08:39:52.000Z</time>
      </trkpt>
      <trkpt lat="44.57241" lon="4.21046">
        <ele>461</ele>
        <time>2018-06-03T08:39:53.000Z</time>
      </trkpt>
      <trkpt lat="44.57237" lon="4.21044">
        <ele>460</ele>
        <time>2018-06-03T08:39:54.000Z</time>
      </trkpt>
      <trkpt lat="44.57232" lon="4.21042">
        <ele>460</ele>
        <time>2018-06-03T08:39:55.000Z</time>
      </trkpt>
      <trkpt lat="44.57228" lon="4.21039">
        <ele>459</ele>
        <time>2018-06-03T08:39:56.000Z</time>
      </trkpt>
      <trkpt lat="44.57223" lon="4.21036">
        <ele>459</ele>
        <time>2018-06-03T08:39:57.000Z</time>
      </trkpt>
      <trkpt lat="44.57223" lon="4.21036">
        <ele>459</ele>
        <time>2018-06-03T08:39:58.000Z</time>
      </trkpt>
      <trkpt lat="44.57217" lon="4.21034">
        <ele>459</ele>
        <time>2018-06-03T08:39:59.000Z</time>
      </trkpt>
      <trkpt lat="44.57212" lon="4.21034">
        <ele>458</ele>
        <time>2018-06-03T08:40:00.000Z</time>
      </trkpt>
      <trkpt lat="44.57204" lon="4.21039">
        <ele>458</ele>
        <time>2018-06-03T08:40:01.000Z</time>
      </trkpt>
      <trkpt lat="44.57204" lon="4.21039">
        <ele>458</ele>
        <time>2018-06-03T08:40:02.000Z</time>
      </trkpt>
      <trkpt lat="44.57202" lon="4.21044">
        <ele>459</ele>
        <time>2018-06-03T08:40:03.000Z</time>
      </trkpt>
      <trkpt lat="44.57201" lon="4.21051">
        <ele>459</ele>
        <time>2018-06-03T08:40:04.000Z</time>
      </trkpt>
      <trkpt lat="44.57202" lon="4.21057">
        <ele>459</ele>
        <time>2018-06-03T08:40:05.000Z</time>
      </trkpt>
      <trkpt lat="44.57203" lon="4.21064">
        <ele>460</ele>
        <time>2018-06-03T08:40:06.000Z</time>
      </trkpt>
      <trkpt lat="44.57204" lon="4.21071">
        <ele>460</ele>
        <time>2018-06-03T08:40:07.000Z</time>
      </trkpt>
      <trkpt lat="44.57206" lon="4.2108">
        <ele>460</ele>
        <time>2018-06-03T08:40:08.000Z</time>
      </trkpt>
      <trkpt lat="44.57207" lon="4.21088">
        <ele>466</ele>
        <time>2018-06-03T08:40:09.000Z</time>
      </trkpt>
      <trkpt lat="44.57208" lon="4.21098">
        <ele>466</ele>
        <time>2018-06-03T08:40:10.000Z</time>
      </trkpt>
      <trkpt lat="44.57209" lon="4.21106">
        <ele>467</ele>
        <time>2018-06-03T08:40:11.000Z</time>
      </trkpt>
      <trkpt lat="44.5721" lon="4.21115">
        <ele>467</ele>
        <time>2018-06-03T08:40:12.000Z</time>
      </trkpt>
      <trkpt lat="44.5721" lon="4.21124">
        <ele>468</ele>
        <time>2018-06-03T08:40:13.000Z</time>
      </trkpt>
      <trkpt lat="44.57209" lon="4.21132">
        <ele>468</ele>
        <time>2018-06-03T08:40:14.000Z</time>
      </trkpt>
      <trkpt lat="44.57209" lon="4.21141">
        <ele>468</ele>
        <time>2018-06-03T08:40:15.000Z</time>
      </trkpt>
      <trkpt lat="44.57209" lon="4.21151">
        <ele>469</ele>
        <time>2018-06-03T08:40:16.000Z</time>
      </trkpt>
      <trkpt lat="44.57208" lon="4.2116">
        <ele>469</ele>
        <time>2018-06-03T08:40:17.000Z</time>
      </trkpt>
      <trkpt lat="44.57207" lon="4.21168">
        <ele>471</ele>
        <time>2018-06-03T08:40:18.000Z</time>
      </trkpt>
      <trkpt lat="44.57206" lon="4.21174">
        <ele>471</ele>
        <time>2018-06-03T08:40:19.000Z</time>
      </trkpt>
      <trkpt lat="44.57205" lon="4.21176">
        <ele>471</ele>
        <time>2018-06-03T08:40:20.000Z</time>
      </trkpt>
      <trkpt lat="44.57204" lon="4.21176">
        <ele>471</ele>
        <time>2018-06-03T08:40:21.000Z</time>
      </trkpt>
      <trkpt lat="44.57202" lon="4.21174">
        <ele>471</ele>
        <time>2018-06-03T08:40:22.000Z</time>
      </trkpt>
      <trkpt lat="44.57201" lon="4.21171">
        <ele>471</ele>
        <time>2018-06-03T08:40:23.000Z</time>
      </trkpt>
      <trkpt lat="44.57198" lon="4.21164">
        <ele>468</ele>
        <time>2018-06-03T08:40:24.000Z</time>
      </trkpt>
      <trkpt lat="44.57196" lon="4.2116">
        <ele>468</ele>
        <time>2018-06-03T08:40:25.000Z</time>
      </trkpt>
      <trkpt lat="44.57194" lon="4.21157">
        <ele>468</ele>
        <time>2018-06-03T08:40:26.000Z</time>
      </trkpt>
      <trkpt lat="44.57192" lon="4.21154">
        <ele>468</ele>
        <time>2018-06-03T08:40:27.000Z</time>
      </trkpt>
      <trkpt lat="44.5719" lon="4.21152">
        <ele>468</ele>
        <time>2018-06-03T08:40:28.000Z</time>
      </trkpt>
      <trkpt lat="44.57187" lon="4.21153">
        <ele>468</ele>
        <time>2018-06-03T08:40:29.000Z</time>
      </trkpt>
      <trkpt lat="44.57186" lon="4.21154">
        <ele>468</ele>
        <time>2018-06-03T08:40:30.000Z</time>
      </trkpt>
      <trkpt lat="44.57185" lon="4.21156">
        <ele>468</ele>
        <time>2018-06-03T08:40:31.000Z</time>
      </trkpt>
      <trkpt lat="44.57185" lon="4.21158">
        <ele>468</ele>
        <time>2018-06-03T08:40:32.000Z</time>
      </trkpt>
      <trkpt lat="44.57184" lon="4.2116">
        <ele>468</ele>
        <time>2018-06-03T08:40:33.000Z</time>
      </trkpt>
      <trkpt lat="44.57184" lon="4.21163">
        <ele>468</ele>
        <time>2018-06-03T08:40:34.000Z</time>
      </trkpt>
      <trkpt lat="44.57184" lon="4.21163">
        <ele>468</ele>
        <time>2018-06-03T08:40:35.000Z</time>
      </trkpt>
      <trkpt lat="44.57183" lon="4.21167">
        <ele>470</ele>
        <time>2018-06-03T08:40:36.000Z</time>
      </trkpt>
      <trkpt lat="44.57183" lon="4.21169">
        <ele>470</ele>
        <time>2018-06-03T08:40:37.000Z</time>
      </trkpt>
      <trkpt lat="44.57182" lon="4.21171">
        <ele>470</ele>
        <time>2018-06-03T08:40:38.000Z</time>
      </trkpt>
      <trkpt lat="44.57182" lon="4.21173">
        <ele>470</ele>
        <time>2018-06-03T08:40:39.000Z</time>
      </trkpt>
      <trkpt lat="44.57182" lon="4.21176">
        <ele>470</ele>
        <time>2018-06-03T08:40:40.000Z</time>
      </trkpt>
      <trkpt lat="44.57182" lon="4.21178">
        <ele>470</ele>
        <time>2018-06-03T08:40:41.000Z</time>
      </trkpt>
      <trkpt lat="44.57182" lon="4.21179">
        <ele>470</ele>
        <time>2018-06-03T08:40:42.000Z</time>
      </trkpt>
      <trkpt lat="44.57182" lon="4.21181">
        <ele>470</ele>
        <time>2018-06-03T08:40:43.000Z</time>
      </trkpt>
      <trkpt lat="44.57181" lon="4.21183">
        <ele>470</ele>
        <time>2018-06-03T08:40:44.000Z</time>
      </trkpt>
      <trkpt lat="44.57181" lon="4.21185">
        <ele>470</ele>
        <time>2018-06-03T08:40:45.000Z</time>
      </trkpt>
      <trkpt lat="44.5718" lon="4.21186">
        <ele>470</ele>
        <time>2018-06-03T08:40:46.000Z</time>
      </trkpt>
      <trkpt lat="44.57179" lon="4.21188">
        <ele>470</ele>
        <time>2018-06-03T08:40:47.000Z</time>
      </trkpt>
      <trkpt lat="44.57178" lon="4.21189">
        <ele>470</ele>
        <time>2018-06-03T08:40:48.000Z</time>
      </trkpt>
      <trkpt lat="44.57176" lon="4.2119">
        <ele>470</ele>
        <time>2018-06-03T08:40:49.000Z</time>
      </trkpt>
      <trkpt lat="44.57175" lon="4.2119">
        <ele>470</ele>
        <time>2018-06-03T08:40:50.000Z</time>
      </trkpt>
      <trkpt lat="44.57174" lon="4.21189">
        <ele>470</ele>
        <time>2018-06-03T08:40:51.000Z</time>
      </trkpt>
      <trkpt lat="44.57173" lon="4.21188">
        <ele>470</ele>
        <time>2018-06-03T08:40:52.000Z</time>
      </trkpt>
      <trkpt lat="44.57172" lon="4.21187">
        <ele>470</ele>
        <time>2018-06-03T08:40:53.000Z</time>
      </trkpt>
      <trkpt lat="44.57171" lon="4.21186">
        <ele>470</ele>
        <time>2018-06-03T08:40:54.000Z</time>
      </trkpt>
      <trkpt lat="44.5717" lon="4.21185">
        <ele>470</ele>
        <time>2018-06-03T08:40:55.000Z</time>
      </trkpt>
      <trkpt lat="44.57168" lon="4.21184">
        <ele>470</ele>
        <time>2018-06-03T08:40:56.000Z</time>
      </trkpt>
      <trkpt lat="44.57168" lon="4.21183">
        <ele>470</ele>
        <time>2018-06-03T08:40:57.000Z</time>
      </trkpt>
      <trkpt lat="44.57167" lon="4.21182">
        <ele>470</ele>
        <time>2018-06-03T08:40:58.000Z</time>
      </trkpt>
      <trkpt lat="44.57166" lon="4.21181">
        <ele>471</ele>
        <time>2018-06-03T08:40:59.000Z</time>
      </trkpt>
      <trkpt lat="44.57165" lon="4.2118">
        <ele>471</ele>
        <time>2018-06-03T08:41:00.000Z</time>
      </trkpt>
      <trkpt lat="44.57164" lon="4.21179">
        <ele>471</ele>
        <time>2018-06-03T08:41:01.000Z</time>
      </trkpt>
      <trkpt lat="44.57164" lon="4.21178">
        <ele>471</ele>
        <time>2018-06-03T08:41:02.000Z</time>
      </trkpt>
      <trkpt lat="44.57163" lon="4.21177">
        <ele>471</ele>
        <time>2018-06-03T08:41:03.000Z</time>
      </trkpt>
      <trkpt lat="44.57162" lon="4.21176">
        <ele>471</ele>
        <time>2018-06-03T08:41:04.000Z</time>
      </trkpt>
      <trkpt lat="44.57162" lon="4.21175">
        <ele>471</ele>
        <time>2018-06-03T08:41:05.000Z</time>
      </trkpt>
      <trkpt lat="44.57162" lon="4.21175">
        <ele>471</ele>
        <time>2018-06-03T08:41:06.000Z</time>
      </trkpt>
      <trkpt lat="44.57161" lon="4.21173">
        <ele>470</ele>
        <time>2018-06-03T08:41:07.000Z</time>
      </trkpt>
      <trkpt lat="44.57159" lon="4.2117">
        <ele>470</ele>
        <time>2018-06-03T08:41:08.000Z</time>
      </trkpt>
      <trkpt lat="44.57159" lon="4.2117">
        <ele>470</ele>
        <time>2018-06-03T08:41:09.000Z</time>
      </trkpt>
      <trkpt lat="44.57158" lon="4.21167">
        <ele>471</ele>
        <time>2018-06-03T08:41:10.000Z</time>
      </trkpt>
      <trkpt lat="44.57157" lon="4.21165">
        <ele>469</ele>
        <time>2018-06-03T08:41:11.000Z</time>
      </trkpt>
      <trkpt lat="44.57156" lon="4.21164">
        <ele>469</ele>
        <time>2018-06-03T08:41:12.000Z</time>
      </trkpt>
      <trkpt lat="44.57155" lon="4.21163">
        <ele>469</ele>
        <time>2018-06-03T08:41:13.000Z</time>
      </trkpt>
      <trkpt lat="44.57155" lon="4.21163">
        <ele>469</ele>
        <time>2018-06-03T08:41:14.000Z</time>
      </trkpt>
      <trkpt lat="44.57154" lon="4.21161">
        <ele>469</ele>
        <time>2018-06-03T08:41:15.000Z</time>
      </trkpt>
      <trkpt lat="44.57152" lon="4.2116">
        <ele>469</ele>
        <time>2018-06-03T08:41:16.000Z</time>
      </trkpt>
      <trkpt lat="44.5715" lon="4.2116">
        <ele>470</ele>
        <time>2018-06-03T08:41:17.000Z</time>
      </trkpt>
      <trkpt lat="44.5715" lon="4.2116">
        <ele>470</ele>
        <time>2018-06-03T08:41:18.000Z</time>
      </trkpt>
      <trkpt lat="44.57149" lon="4.21162">
        <ele>470</ele>
        <time>2018-06-03T08:41:19.000Z</time>
      </trkpt>
      <trkpt lat="44.57148" lon="4.21163">
        <ele>470</ele>
        <time>2018-06-03T08:41:20.000Z</time>
      </trkpt>
      <trkpt lat="44.57148" lon="4.21164">
        <ele>470</ele>
        <time>2018-06-03T08:41:21.000Z</time>
      </trkpt>
      <trkpt lat="44.57148" lon="4.21166">
        <ele>470</ele>
        <time>2018-06-03T08:41:22.000Z</time>
      </trkpt>
      <trkpt lat="44.57148" lon="4.21168">
        <ele>473</ele>
        <time>2018-06-03T08:41:23.000Z</time>
      </trkpt>
      <trkpt lat="44.57148" lon="4.21169">
        <ele>473</ele>
        <time>2018-06-03T08:41:24.000Z</time>
      </trkpt>
      <trkpt lat="44.57147" lon="4.21171">
        <ele>473</ele>
        <time>2018-06-03T08:41:25.000Z</time>
      </trkpt>
      <trkpt lat="44.57147" lon="4.21173">
        <ele>473</ele>
        <time>2018-06-03T08:41:26.000Z</time>
      </trkpt>
      <trkpt lat="44.57147" lon="4.21175">
        <ele>473</ele>
        <time>2018-06-03T08:41:27.000Z</time>
      </trkpt>
      <trkpt lat="44.57147" lon="4.21178">
        <ele>473</ele>
        <time>2018-06-03T08:41:28.000Z</time>
      </trkpt>
      <trkpt lat="44.57146" lon="4.2118">
        <ele>473</ele>
        <time>2018-06-03T08:41:29.000Z</time>
      </trkpt>
      <trkpt lat="44.57146" lon="4.2118">
        <ele>473</ele>
        <time>2018-06-03T08:41:30.000Z</time>
      </trkpt>
      <trkpt lat="44.57146" lon="4.21182">
        <ele>474</ele>
        <time>2018-06-03T08:41:31.000Z</time>
      </trkpt>
      <trkpt lat="44.57144" lon="4.21185">
        <ele>474</ele>
        <time>2018-06-03T08:41:32.000Z</time>
      </trkpt>
      <trkpt lat="44.57142" lon="4.21187">
        <ele>474</ele>
        <time>2018-06-03T08:41:33.000Z</time>
      </trkpt>
      <trkpt lat="44.57141" lon="4.21188">
        <ele>474</ele>
        <time>2018-06-03T08:41:34.000Z</time>
      </trkpt>
      <trkpt lat="44.57141" lon="4.21188">
        <ele>474</ele>
        <time>2018-06-03T08:41:35.000Z</time>
      </trkpt>
      <trkpt lat="44.5714" lon="4.21189">
        <ele>475</ele>
        <time>2018-06-03T08:41:36.000Z</time>
      </trkpt>
      <trkpt lat="44.57138" lon="4.21192">
        <ele>475</ele>
        <time>2018-06-03T08:41:37.000Z</time>
      </trkpt>
      <trkpt lat="44.57137" lon="4.21193">
        <ele>475</ele>
        <time>2018-06-03T08:41:38.000Z</time>
      </trkpt>
      <trkpt lat="44.57137" lon="4.21193">
        <ele>475</ele>
        <time>2018-06-03T08:41:39.000Z</time>
      </trkpt>
      <trkpt lat="44.57137" lon="4.21195">
        <ele>475</ele>
        <time>2018-06-03T08:41:40.000Z</time>
      </trkpt>
      <trkpt lat="44.57136" lon="4.21196">
        <ele>475</ele>
        <time>2018-06-03T08:41:41.000Z</time>
      </trkpt>
      <trkpt lat="44.57135" lon="4.21198">
        <ele>475</ele>
        <time>2018-06-03T08:41:42.000Z</time>
      </trkpt>
      <trkpt lat="44.57132" lon="4.21201">
        <ele>476</ele>
        <time>2018-06-03T08:41:43.000Z</time>
      </trkpt>
      <trkpt lat="44.57132" lon="4.21201">
        <ele>476</ele>
        <time>2018-06-03T08:41:44.000Z</time>
      </trkpt>
      <trkpt lat="44.57131" lon="4.21204">
        <ele>476</ele>
        <time>2018-06-03T08:41:45.000Z</time>
      </trkpt>
      <trkpt lat="44.57129" lon="4.21206">
        <ele>476</ele>
        <time>2018-06-03T08:41:46.000Z</time>
      </trkpt>
      <trkpt lat="44.57129" lon="4.21207">
        <ele>476</ele>
        <time>2018-06-03T08:41:47.000Z</time>
      </trkpt>
      <trkpt lat="44.57129" lon="4.21207">
        <ele>476</ele>
        <time>2018-06-03T08:41:48.000Z</time>
      </trkpt>
      <trkpt lat="44.57127" lon="4.21211">
        <ele>476</ele>
        <time>2018-06-03T08:41:49.000Z</time>
      </trkpt>
      <trkpt lat="44.57126" lon="4.21213">
        <ele>476</ele>
        <time>2018-06-03T08:41:50.000Z</time>
      </trkpt>
      <trkpt lat="44.57126" lon="4.21213">
        <ele>476</ele>
        <time>2018-06-03T08:41:51.000Z</time>
      </trkpt>
      <trkpt lat="44.57124" lon="4.21215">
        <ele>476</ele>
        <time>2018-06-03T08:41:52.000Z</time>
      </trkpt>
      <trkpt lat="44.57123" lon="4.21217">
        <ele>476</ele>
        <time>2018-06-03T08:41:53.000Z</time>
      </trkpt>
      <trkpt lat="44.57122" lon="4.21218">
        <ele>477</ele>
        <time>2018-06-03T08:41:54.000Z</time>
      </trkpt>
      <trkpt lat="44.57119" lon="4.21223">
        <ele>477</ele>
        <time>2018-06-03T08:41:55.000Z</time>
      </trkpt>
      <trkpt lat="44.57117" lon="4.21225">
        <ele>477</ele>
        <time>2018-06-03T08:41:56.000Z</time>
      </trkpt>
      <trkpt lat="44.57115" lon="4.21227">
        <ele>477</ele>
        <time>2018-06-03T08:41:57.000Z</time>
      </trkpt>
      <trkpt lat="44.57113" lon="4.21229">
        <ele>477</ele>
        <time>2018-06-03T08:41:58.000Z</time>
      </trkpt>
      <trkpt lat="44.57111" lon="4.21231">
        <ele>478</ele>
        <time>2018-06-03T08:41:59.000Z</time>
      </trkpt>
      <trkpt lat="44.57109" lon="4.21233">
        <ele>478</ele>
        <time>2018-06-03T08:42:00.000Z</time>
      </trkpt>
      <trkpt lat="44.57107" lon="4.21235">
        <ele>478</ele>
        <time>2018-06-03T08:42:01.000Z</time>
      </trkpt>
      <trkpt lat="44.57105" lon="4.21238">
        <ele>478</ele>
        <time>2018-06-03T08:42:02.000Z</time>
      </trkpt>
      <trkpt lat="44.57103" lon="4.21241">
        <ele>479</ele>
        <time>2018-06-03T08:42:03.000Z</time>
      </trkpt>
      <trkpt lat="44.57103" lon="4.21241">
        <ele>479</ele>
        <time>2018-06-03T08:42:04.000Z</time>
      </trkpt>
      <trkpt lat="44.57099" lon="4.21246">
        <ele>479</ele>
        <time>2018-06-03T08:42:05.000Z</time>
      </trkpt>
      <trkpt lat="44.57097" lon="4.21249">
        <ele>480</ele>
        <time>2018-06-03T08:42:06.000Z</time>
      </trkpt>
      <trkpt lat="44.57094" lon="4.21252">
        <ele>480</ele>
        <time>2018-06-03T08:42:07.000Z</time>
      </trkpt>
      <trkpt lat="44.57092" lon="4.21255">
        <ele>480</ele>
        <time>2018-06-03T08:42:08.000Z</time>
      </trkpt>
      <trkpt lat="44.57092" lon="4.21255">
        <ele>480</ele>
        <time>2018-06-03T08:42:09.000Z</time>
      </trkpt>
      <trkpt lat="44.57088" lon="4.21261">
        <ele>480</ele>
        <time>2018-06-03T08:42:10.000Z</time>
      </trkpt>
      <trkpt lat="44.57086" lon="4.21263">
        <ele>480</ele>
        <time>2018-06-03T08:42:11.000Z</time>
      </trkpt>
      <trkpt lat="44.57086" lon="4.21263">
        <ele>480</ele>
        <time>2018-06-03T08:42:12.000Z</time>
      </trkpt>
      <trkpt lat="44.57082" lon="4.21268">
        <ele>479</ele>
        <time>2018-06-03T08:42:13.000Z</time>
      </trkpt>
      <trkpt lat="44.5708" lon="4.21271">
        <ele>479</ele>
        <time>2018-06-03T08:42:14.000Z</time>
      </trkpt>
      <trkpt lat="44.57078" lon="4.21274">
        <ele>479</ele>
        <time>2018-06-03T08:42:15.000Z</time>
      </trkpt>
      <trkpt lat="44.57077" lon="4.21278">
        <ele>479</ele>
        <time>2018-06-03T08:42:16.000Z</time>
      </trkpt>
      <trkpt lat="44.57075" lon="4.21281">
        <ele>479</ele>
        <time>2018-06-03T08:42:17.000Z</time>
      </trkpt>
      <trkpt lat="44.57075" lon="4.21281">
        <ele>479</ele>
        <time>2018-06-03T08:42:18.000Z</time>
      </trkpt>
      <trkpt lat="44.57073" lon="4.21288">
        <ele>478</ele>
        <time>2018-06-03T08:42:19.000Z</time>
      </trkpt>
      <trkpt lat="44.57072" lon="4.21292">
        <ele>478</ele>
        <time>2018-06-03T08:42:20.000Z</time>
      </trkpt>
      <trkpt lat="44.57071" lon="4.21295">
        <ele>478</ele>
        <time>2018-06-03T08:42:21.000Z</time>
      </trkpt>
      <trkpt lat="44.57069" lon="4.21299">
        <ele>478</ele>
        <time>2018-06-03T08:42:22.000Z</time>
      </trkpt>
      <trkpt lat="44.57067" lon="4.21302">
        <ele>478</ele>
        <time>2018-06-03T08:42:23.000Z</time>
      </trkpt>
      <trkpt lat="44.57065" lon="4.21306">
        <ele>479</ele>
        <time>2018-06-03T08:42:24.000Z</time>
      </trkpt>
      <trkpt lat="44.57063" lon="4.2131">
        <ele>479</ele>
        <time>2018-06-03T08:42:25.000Z</time>
      </trkpt>
      <trkpt lat="44.57061" lon="4.21314">
        <ele>479</ele>
        <time>2018-06-03T08:42:26.000Z</time>
      </trkpt>
      <trkpt lat="44.57059" lon="4.21318">
        <ele>479</ele>
        <time>2018-06-03T08:42:27.000Z</time>
      </trkpt>
      <trkpt lat="44.57056" lon="4.21322">
        <ele>478</ele>
        <time>2018-06-03T08:42:28.000Z</time>
      </trkpt>
      <trkpt lat="44.57053" lon="4.21325">
        <ele>478</ele>
        <time>2018-06-03T08:42:29.000Z</time>
      </trkpt>
      <trkpt lat="44.57053" lon="4.21325">
        <ele>478</ele>
        <time>2018-06-03T08:42:30.000Z</time>
      </trkpt>
      <trkpt lat="44.57047" lon="4.21331">
        <ele>478</ele>
        <time>2018-06-03T08:42:31.000Z</time>
      </trkpt>
      <trkpt lat="44.57044" lon="4.21334">
        <ele>483</ele>
        <time>2018-06-03T08:42:32.000Z</time>
      </trkpt>
      <trkpt lat="44.57041" lon="4.21338">
        <ele>483</ele>
        <time>2018-06-03T08:42:33.000Z</time>
      </trkpt>
      <trkpt lat="44.57038" lon="4.21341">
        <ele>483</ele>
        <time>2018-06-03T08:42:34.000Z</time>
      </trkpt>
      <trkpt lat="44.57035" lon="4.21345">
        <ele>483</ele>
        <time>2018-06-03T08:42:35.000Z</time>
      </trkpt>
      <trkpt lat="44.57034" lon="4.2135">
        <ele>483</ele>
        <time>2018-06-03T08:42:36.000Z</time>
      </trkpt>
      <trkpt lat="44.57032" lon="4.21355">
        <ele>484</ele>
        <time>2018-06-03T08:42:37.000Z</time>
      </trkpt>
      <trkpt lat="44.5703" lon="4.2136">
        <ele>484</ele>
        <time>2018-06-03T08:42:38.000Z</time>
      </trkpt>
      <trkpt lat="44.57028" lon="4.21365">
        <ele>484</ele>
        <time>2018-06-03T08:42:39.000Z</time>
      </trkpt>
      <trkpt lat="44.57026" lon="4.2137">
        <ele>485</ele>
        <time>2018-06-03T08:42:40.000Z</time>
      </trkpt>
      <trkpt lat="44.57023" lon="4.21375">
        <ele>485</ele>
        <time>2018-06-03T08:42:41.000Z</time>
      </trkpt>
      <trkpt lat="44.57021" lon="4.2138">
        <ele>486</ele>
        <time>2018-06-03T08:42:42.000Z</time>
      </trkpt>
      <trkpt lat="44.57018" lon="4.21385">
        <ele>486</ele>
        <time>2018-06-03T08:42:43.000Z</time>
      </trkpt>
      <trkpt lat="44.57015" lon="4.2139">
        <ele>487</ele>
        <time>2018-06-03T08:42:44.000Z</time>
      </trkpt>
      <trkpt lat="44.57011" lon="4.21394">
        <ele>487</ele>
        <time>2018-06-03T08:42:45.000Z</time>
      </trkpt>
      <trkpt lat="44.57008" lon="4.21399">
        <ele>488</ele>
        <time>2018-06-03T08:42:46.000Z</time>
      </trkpt>
      <trkpt lat="44.57005" lon="4.21403">
        <ele>488</ele>
        <time>2018-06-03T08:42:47.000Z</time>
      </trkpt>
      <trkpt lat="44.57001" lon="4.21407">
        <ele>489</ele>
        <time>2018-06-03T08:42:48.000Z</time>
      </trkpt>
      <trkpt lat="44.56997" lon="4.2141">
        <ele>488</ele>
        <time>2018-06-03T08:42:49.000Z</time>
      </trkpt>
      <trkpt lat="44.56993" lon="4.21413">
        <ele>488</ele>
        <time>2018-06-03T08:42:50.000Z</time>
      </trkpt>
      <trkpt lat="44.56988" lon="4.21412">
        <ele>487</ele>
        <time>2018-06-03T08:42:51.000Z</time>
      </trkpt>
      <trkpt lat="44.56984" lon="4.21409">
        <ele>487</ele>
        <time>2018-06-03T08:42:52.000Z</time>
      </trkpt>
      <trkpt lat="44.56981" lon="4.21405">
        <ele>486</ele>
        <time>2018-06-03T08:42:53.000Z</time>
      </trkpt>
      <trkpt lat="44.56978" lon="4.21399">
        <ele>486</ele>
        <time>2018-06-03T08:42:54.000Z</time>
      </trkpt>
      <trkpt lat="44.56977" lon="4.21392">
        <ele>485</ele>
        <time>2018-06-03T08:42:55.000Z</time>
      </trkpt>
      <trkpt lat="44.56976" lon="4.21386">
        <ele>484</ele>
        <time>2018-06-03T08:42:56.000Z</time>
      </trkpt>
      <trkpt lat="44.56975" lon="4.21379">
        <ele>483</ele>
        <time>2018-06-03T08:42:57.000Z</time>
      </trkpt>
      <trkpt lat="44.56974" lon="4.21372">
        <ele>483</ele>
        <time>2018-06-03T08:42:58.000Z</time>
      </trkpt>
      <trkpt lat="44.56973" lon="4.21366">
        <ele>482</ele>
        <time>2018-06-03T08:42:59.000Z</time>
      </trkpt>
      <trkpt lat="44.56972" lon="4.2136">
        <ele>481</ele>
        <time>2018-06-03T08:43:00.000Z</time>
      </trkpt>
      <trkpt lat="44.56971" lon="4.21354">
        <ele>481</ele>
        <time>2018-06-03T08:43:01.000Z</time>
      </trkpt>
      <trkpt lat="44.56968" lon="4.21348">
        <ele>481</ele>
        <time>2018-06-03T08:43:02.000Z</time>
      </trkpt>
      <trkpt lat="44.56965" lon="4.21344">
        <ele>480</ele>
        <time>2018-06-03T08:43:03.000Z</time>
      </trkpt>
      <trkpt lat="44.56962" lon="4.21339">
        <ele>480</ele>
        <time>2018-06-03T08:43:04.000Z</time>
      </trkpt>
      <trkpt lat="44.56958" lon="4.21336">
        <ele>480</ele>
        <time>2018-06-03T08:43:05.000Z</time>
      </trkpt>
      <trkpt lat="44.56954" lon="4.21333">
        <ele>471</ele>
        <time>2018-06-03T08:43:06.000Z</time>
      </trkpt>
      <trkpt lat="44.56949" lon="4.21332">
        <ele>471</ele>
        <time>2018-06-03T08:43:07.000Z</time>
      </trkpt>
      <trkpt lat="44.56949" lon="4.21332">
        <ele>471</ele>
        <time>2018-06-03T08:43:08.000Z</time>
      </trkpt>
      <trkpt lat="44.56944" lon="4.21331">
        <ele>471</ele>
        <time>2018-06-03T08:43:09.000Z</time>
      </trkpt>
      <trkpt lat="44.56939" lon="4.21329">
        <ele>471</ele>
        <time>2018-06-03T08:43:10.000Z</time>
      </trkpt>
      <trkpt lat="44.56933" lon="4.21328">
        <ele>472</ele>
        <time>2018-06-03T08:43:11.000Z</time>
      </trkpt>
      <trkpt lat="44.56927" lon="4.21327">
        <ele>473</ele>
        <time>2018-06-03T08:43:12.000Z</time>
      </trkpt>
      <trkpt lat="44.56914" lon="4.21328">
        <ele>474</ele>
        <time>2018-06-03T08:43:13.000Z</time>
      </trkpt>
      <trkpt lat="44.56908" lon="4.21331">
        <ele>473</ele>
        <time>2018-06-03T08:43:14.000Z</time>
      </trkpt>
      <trkpt lat="44.56901" lon="4.21335">
        <ele>478</ele>
        <time>2018-06-03T08:43:15.000Z</time>
      </trkpt>
      <trkpt lat="44.56896" lon="4.21339">
        <ele>478</ele>
        <time>2018-06-03T08:43:16.000Z</time>
      </trkpt>
      <trkpt lat="44.5689" lon="4.21343">
        <ele>479</ele>
        <time>2018-06-03T08:43:17.000Z</time>
      </trkpt>
      <trkpt lat="44.56885" lon="4.21347">
        <ele>479</ele>
        <time>2018-06-03T08:43:18.000Z</time>
      </trkpt>
      <trkpt lat="44.56881" lon="4.21348">
        <ele>479</ele>
        <time>2018-06-03T08:43:19.000Z</time>
      </trkpt>
      <trkpt lat="44.56876" lon="4.21347">
        <ele>478</ele>
        <time>2018-06-03T08:43:20.000Z</time>
      </trkpt>
      <trkpt lat="44.56871" lon="4.21346">
        <ele>478</ele>
        <time>2018-06-03T08:43:21.000Z</time>
      </trkpt>
      <trkpt lat="44.56866" lon="4.21345">
        <ele>478</ele>
        <time>2018-06-03T08:43:22.000Z</time>
      </trkpt>
      <trkpt lat="44.5686" lon="4.21344">
        <ele>477</ele>
        <time>2018-06-03T08:43:23.000Z</time>
      </trkpt>
      <trkpt lat="44.56855" lon="4.21342">
        <ele>477</ele>
        <time>2018-06-03T08:43:24.000Z</time>
      </trkpt>
      <trkpt lat="44.56851" lon="4.21339">
        <ele>476</ele>
        <time>2018-06-03T08:43:25.000Z</time>
      </trkpt>
      <trkpt lat="44.56847" lon="4.21336">
        <ele>475</ele>
        <time>2018-06-03T08:43:26.000Z</time>
      </trkpt>
      <trkpt lat="44.56847" lon="4.21336">
        <ele>475</ele>
        <time>2018-06-03T08:43:27.000Z</time>
      </trkpt>
      <trkpt lat="44.56842" lon="4.21333">
        <ele>471</ele>
        <time>2018-06-03T08:43:28.000Z</time>
      </trkpt>
      <trkpt lat="44.56835" lon="4.21329">
        <ele>471</ele>
        <time>2018-06-03T08:43:29.000Z</time>
      </trkpt>
      <trkpt lat="44.56831" lon="4.21328">
        <ele>472</ele>
        <time>2018-06-03T08:43:30.000Z</time>
      </trkpt>
      <trkpt lat="44.56827" lon="4.21328">
        <ele>473</ele>
        <time>2018-06-03T08:43:31.000Z</time>
      </trkpt>
      <trkpt lat="44.56823" lon="4.21328">
        <ele>473</ele>
        <time>2018-06-03T08:43:32.000Z</time>
      </trkpt>
      <trkpt lat="44.56819" lon="4.2133">
        <ele>473</ele>
        <time>2018-06-03T08:43:33.000Z</time>
      </trkpt>
      <trkpt lat="44.56815" lon="4.21332">
        <ele>474</ele>
        <time>2018-06-03T08:43:34.000Z</time>
      </trkpt>
      <trkpt lat="44.56812" lon="4.21335">
        <ele>476</ele>
        <time>2018-06-03T08:43:35.000Z</time>
      </trkpt>
      <trkpt lat="44.56809" lon="4.21338">
        <ele>477</ele>
        <time>2018-06-03T08:43:36.000Z</time>
      </trkpt>
      <trkpt lat="44.56807" lon="4.21342">
        <ele>477</ele>
        <time>2018-06-03T08:43:37.000Z</time>
      </trkpt>
      <trkpt lat="44.56805" lon="4.21346">
        <ele>478</ele>
        <time>2018-06-03T08:43:38.000Z</time>
      </trkpt>
      <trkpt lat="44.56803" lon="4.2135">
        <ele>478</ele>
        <time>2018-06-03T08:43:39.000Z</time>
      </trkpt>
      <trkpt lat="44.568" lon="4.21353">
        <ele>478</ele>
        <time>2018-06-03T08:43:40.000Z</time>
      </trkpt>
      <trkpt lat="44.568" lon="4.21353">
        <ele>478</ele>
        <time>2018-06-03T08:43:41.000Z</time>
      </trkpt>
      <trkpt lat="44.56796" lon="4.2136">
        <ele>479</ele>
        <time>2018-06-03T08:43:42.000Z</time>
      </trkpt>
      <trkpt lat="44.56793" lon="4.21364">
        <ele>479</ele>
        <time>2018-06-03T08:43:43.000Z</time>
      </trkpt>
      <trkpt lat="44.56791" lon="4.21367">
        <ele>479</ele>
        <time>2018-06-03T08:43:44.000Z</time>
      </trkpt>
      <trkpt lat="44.56788" lon="4.21371">
        <ele>479</ele>
        <time>2018-06-03T08:43:45.000Z</time>
      </trkpt>
      <trkpt lat="44.56785" lon="4.21375">
        <ele>479</ele>
        <time>2018-06-03T08:43:46.000Z</time>
      </trkpt>
      <trkpt lat="44.56782" lon="4.21379">
        <ele>479</ele>
        <time>2018-06-03T08:43:47.000Z</time>
      </trkpt>
      <trkpt lat="44.56782" lon="4.21379">
        <ele>479</ele>
        <time>2018-06-03T08:43:48.000Z</time>
      </trkpt>
      <trkpt lat="44.56778" lon="4.21383">
        <ele>479</ele>
        <time>2018-06-03T08:43:49.000Z</time>
      </trkpt>
      <trkpt lat="44.56775" lon="4.21388">
        <ele>479</ele>
        <time>2018-06-03T08:43:50.000Z</time>
      </trkpt>
      <trkpt lat="44.5677" lon="4.21392">
        <ele>479</ele>
        <time>2018-06-03T08:43:51.000Z</time>
      </trkpt>
      <trkpt lat="44.56766" lon="4.21397">
        <ele>479</ele>
        <time>2018-06-03T08:43:52.000Z</time>
      </trkpt>
      <trkpt lat="44.56762" lon="4.21401">
        <ele>478</ele>
        <time>2018-06-03T08:43:53.000Z</time>
      </trkpt>
      <trkpt lat="44.56757" lon="4.21406">
        <ele>478</ele>
        <time>2018-06-03T08:43:54.000Z</time>
      </trkpt>
      <trkpt lat="44.56753" lon="4.21411">
        <ele>478</ele>
        <time>2018-06-03T08:43:55.000Z</time>
      </trkpt>
      <trkpt lat="44.56748" lon="4.21417">
        <ele>478</ele>
        <time>2018-06-03T08:43:56.000Z</time>
      </trkpt>
      <trkpt lat="44.56744" lon="4.21422">
        <ele>478</ele>
        <time>2018-06-03T08:43:57.000Z</time>
      </trkpt>
      <trkpt lat="44.56739" lon="4.21427">
        <ele>479</ele>
        <time>2018-06-03T08:43:58.000Z</time>
      </trkpt>
      <trkpt lat="44.56735" lon="4.21433">
        <ele>479</ele>
        <time>2018-06-03T08:43:59.000Z</time>
      </trkpt>
      <trkpt lat="44.5673" lon="4.21438">
        <ele>480</ele>
        <time>2018-06-03T08:44:00.000Z</time>
      </trkpt>
      <trkpt lat="44.56726" lon="4.21443">
        <ele>480</ele>
        <time>2018-06-03T08:44:01.000Z</time>
      </trkpt>
      <trkpt lat="44.56721" lon="4.21448">
        <ele>480</ele>
        <time>2018-06-03T08:44:02.000Z</time>
      </trkpt>
      <trkpt lat="44.56716" lon="4.21453">
        <ele>480</ele>
        <time>2018-06-03T08:44:03.000Z</time>
      </trkpt>
      <trkpt lat="44.56712" lon="4.21457">
        <ele>481</ele>
        <time>2018-06-03T08:44:04.000Z</time>
      </trkpt>
      <trkpt lat="44.56704" lon="4.21467">
        <ele>481</ele>
        <time>2018-06-03T08:44:05.000Z</time>
      </trkpt>
      <trkpt lat="44.56704" lon="4.21467">
        <ele>481</ele>
        <time>2018-06-03T08:44:06.000Z</time>
      </trkpt>
      <trkpt lat="44.56701" lon="4.21473">
        <ele>481</ele>
        <time>2018-06-03T08:44:07.000Z</time>
      </trkpt>
      <trkpt lat="44.56698" lon="4.21479">
        <ele>481</ele>
        <time>2018-06-03T08:44:08.000Z</time>
      </trkpt>
      <trkpt lat="44.56697" lon="4.21486">
        <ele>481</ele>
        <time>2018-06-03T08:44:09.000Z</time>
      </trkpt>
      <trkpt lat="44.56694" lon="4.21499">
        <ele>482</ele>
        <time>2018-06-03T08:44:10.000Z</time>
      </trkpt>
      <trkpt lat="44.56693" lon="4.21506">
        <ele>478</ele>
        <time>2018-06-03T08:44:11.000Z</time>
      </trkpt>
      <trkpt lat="44.56692" lon="4.21512">
        <ele>478</ele>
        <time>2018-06-03T08:44:12.000Z</time>
      </trkpt>
      <trkpt lat="44.5669" lon="4.21518">
        <ele>478</ele>
        <time>2018-06-03T08:44:13.000Z</time>
      </trkpt>
      <trkpt lat="44.56689" lon="4.21524">
        <ele>478</ele>
        <time>2018-06-03T08:44:14.000Z</time>
      </trkpt>
      <trkpt lat="44.56687" lon="4.21529">
        <ele>477</ele>
        <time>2018-06-03T08:44:15.000Z</time>
      </trkpt>
      <trkpt lat="44.56685" lon="4.21535">
        <ele>477</ele>
        <time>2018-06-03T08:44:16.000Z</time>
      </trkpt>
      <trkpt lat="44.56683" lon="4.21541">
        <ele>477</ele>
        <time>2018-06-03T08:44:17.000Z</time>
      </trkpt>
      <trkpt lat="44.56681" lon="4.21547">
        <ele>477</ele>
        <time>2018-06-03T08:44:18.000Z</time>
      </trkpt>
      <trkpt lat="44.56679" lon="4.21551">
        <ele>478</ele>
        <time>2018-06-03T08:44:19.000Z</time>
      </trkpt>
      <trkpt lat="44.56677" lon="4.21554">
        <ele>478</ele>
        <time>2018-06-03T08:44:20.000Z</time>
      </trkpt>
      <trkpt lat="44.56674" lon="4.21556">
        <ele>478</ele>
        <time>2018-06-03T08:44:21.000Z</time>
      </trkpt>
      <trkpt lat="44.5667" lon="4.21556">
        <ele>478</ele>
        <time>2018-06-03T08:44:22.000Z</time>
      </trkpt>
      <trkpt lat="44.56668" lon="4.21557">
        <ele>479</ele>
        <time>2018-06-03T08:44:23.000Z</time>
      </trkpt>
      <trkpt lat="44.56666" lon="4.21558">
        <ele>493</ele>
        <time>2018-06-03T08:44:24.000Z</time>
      </trkpt>
      <trkpt lat="44.56664" lon="4.2156">
        <ele>493</ele>
        <time>2018-06-03T08:44:25.000Z</time>
      </trkpt>
      <trkpt lat="44.56662" lon="4.21563">
        <ele>492</ele>
        <time>2018-06-03T08:44:26.000Z</time>
      </trkpt>
      <trkpt lat="44.56661" lon="4.21565">
        <ele>492</ele>
        <time>2018-06-03T08:44:27.000Z</time>
      </trkpt>
      <trkpt lat="44.5666" lon="4.21568">
        <ele>491</ele>
        <time>2018-06-03T08:44:28.000Z</time>
      </trkpt>
      <trkpt lat="44.56658" lon="4.21571">
        <ele>491</ele>
        <time>2018-06-03T08:44:29.000Z</time>
      </trkpt>
      <trkpt lat="44.56657" lon="4.21574">
        <ele>491</ele>
        <time>2018-06-03T08:44:30.000Z</time>
      </trkpt>
      <trkpt lat="44.56655" lon="4.21576">
        <ele>491</ele>
        <time>2018-06-03T08:44:31.000Z</time>
      </trkpt>
      <trkpt lat="44.56654" lon="4.21579">
        <ele>491</ele>
        <time>2018-06-03T08:44:32.000Z</time>
      </trkpt>
      <trkpt lat="44.56652" lon="4.21581">
        <ele>491</ele>
        <time>2018-06-03T08:44:33.000Z</time>
      </trkpt>
      <trkpt lat="44.5665" lon="4.21584">
        <ele>486</ele>
        <time>2018-06-03T08:44:34.000Z</time>
      </trkpt>
      <trkpt lat="44.56649" lon="4.21585">
        <ele>486</ele>
        <time>2018-06-03T08:44:35.000Z</time>
      </trkpt>
      <trkpt lat="44.56649" lon="4.21585">
        <ele>486</ele>
        <time>2018-06-03T08:44:36.000Z</time>
      </trkpt>
      <trkpt lat="44.56645" lon="4.21589">
        <ele>487</ele>
        <time>2018-06-03T08:44:37.000Z</time>
      </trkpt>
      <trkpt lat="44.56645" lon="4.21589">
        <ele>487</ele>
        <time>2018-06-03T08:44:38.000Z</time>
      </trkpt>
      <trkpt lat="44.56644" lon="4.21591">
        <ele>487</ele>
        <time>2018-06-03T08:44:39.000Z</time>
      </trkpt>
      <trkpt lat="44.56642" lon="4.21595">
        <ele>487</ele>
        <time>2018-06-03T08:44:40.000Z</time>
      </trkpt>
      <trkpt lat="44.5664" lon="4.21597">
        <ele>487</ele>
        <time>2018-06-03T08:44:41.000Z</time>
      </trkpt>
      <trkpt lat="44.5664" lon="4.21597">
        <ele>487</ele>
        <time>2018-06-03T08:44:42.000Z</time>
      </trkpt>
      <trkpt lat="44.56636" lon="4.216">
        <ele>487</ele>
        <time>2018-06-03T08:44:43.000Z</time>
      </trkpt>
      <trkpt lat="44.56634" lon="4.21601">
        <ele>488</ele>
        <time>2018-06-03T08:44:44.000Z</time>
      </trkpt>
      <trkpt lat="44.56633" lon="4.21602">
        <ele>488</ele>
        <time>2018-06-03T08:44:45.000Z</time>
      </trkpt>
      <trkpt lat="44.56631" lon="4.21603">
        <ele>488</ele>
        <time>2018-06-03T08:44:46.000Z</time>
      </trkpt>
      <trkpt lat="44.56629" lon="4.21604">
        <ele>488</ele>
        <time>2018-06-03T08:44:47.000Z</time>
      </trkpt>
      <trkpt lat="44.56627" lon="4.21604">
        <ele>488</ele>
        <time>2018-06-03T08:44:48.000Z</time>
      </trkpt>
      <trkpt lat="44.56625" lon="4.21606">
        <ele>489</ele>
        <time>2018-06-03T08:44:49.000Z</time>
      </trkpt>
      <trkpt lat="44.56624" lon="4.21607">
        <ele>489</ele>
        <time>2018-06-03T08:44:50.000Z</time>
      </trkpt>
      <trkpt lat="44.56623" lon="4.21608">
        <ele>489</ele>
        <time>2018-06-03T08:44:51.000Z</time>
      </trkpt>
      <trkpt lat="44.56621" lon="4.2161">
        <ele>489</ele>
        <time>2018-06-03T08:44:52.000Z</time>
      </trkpt>
      <trkpt lat="44.5662" lon="4.21612">
        <ele>489</ele>
        <time>2018-06-03T08:44:53.000Z</time>
      </trkpt>
      <trkpt lat="44.56618" lon="4.21614">
        <ele>489</ele>
        <time>2018-06-03T08:44:54.000Z</time>
      </trkpt>
      <trkpt lat="44.56617" lon="4.21616">
        <ele>489</ele>
        <time>2018-06-03T08:44:55.000Z</time>
      </trkpt>
      <trkpt lat="44.56616" lon="4.21617">
        <ele>489</ele>
        <time>2018-06-03T08:44:56.000Z</time>
      </trkpt>
      <trkpt lat="44.56614" lon="4.21619">
        <ele>489</ele>
        <time>2018-06-03T08:44:57.000Z</time>
      </trkpt>
      <trkpt lat="44.56612" lon="4.2162">
        <ele>489</ele>
        <time>2018-06-03T08:44:58.000Z</time>
      </trkpt>
      <trkpt lat="44.56611" lon="4.21621">
        <ele>489</ele>
        <time>2018-06-03T08:44:59.000Z</time>
      </trkpt>
      <trkpt lat="44.56609" lon="4.21623">
        <ele>489</ele>
        <time>2018-06-03T08:45:00.000Z</time>
      </trkpt>
      <trkpt lat="44.56608" lon="4.21624">
        <ele>489</ele>
        <time>2018-06-03T08:45:01.000Z</time>
      </trkpt>
      <trkpt lat="44.56606" lon="4.21627">
        <ele>489</ele>
        <time>2018-06-03T08:45:02.000Z</time>
      </trkpt>
      <trkpt lat="44.56604" lon="4.21628">
        <ele>489</ele>
        <time>2018-06-03T08:45:03.000Z</time>
      </trkpt>
      <trkpt lat="44.56603" lon="4.21629">
        <ele>489</ele>
        <time>2018-06-03T08:45:04.000Z</time>
      </trkpt>
      <trkpt lat="44.56601" lon="4.21631">
        <ele>489</ele>
        <time>2018-06-03T08:45:05.000Z</time>
      </trkpt>
      <trkpt lat="44.56599" lon="4.21631">
        <ele>489</ele>
        <time>2018-06-03T08:45:06.000Z</time>
      </trkpt>
      <trkpt lat="44.56597" lon="4.21631">
        <ele>489</ele>
        <time>2018-06-03T08:45:07.000Z</time>
      </trkpt>
      <trkpt lat="44.56596" lon="4.21631">
        <ele>489</ele>
        <time>2018-06-03T08:45:08.000Z</time>
      </trkpt>
      <trkpt lat="44.56595" lon="4.21632">
        <ele>489</ele>
        <time>2018-06-03T08:45:09.000Z</time>
      </trkpt>
      <trkpt lat="44.56594" lon="4.21633">
        <ele>489</ele>
        <time>2018-06-03T08:45:10.000Z</time>
      </trkpt>
      <trkpt lat="44.56592" lon="4.21633">
        <ele>489</ele>
        <time>2018-06-03T08:45:11.000Z</time>
      </trkpt>
      <trkpt lat="44.5659" lon="4.21633">
        <ele>489</ele>
        <time>2018-06-03T08:45:12.000Z</time>
      </trkpt>
      <trkpt lat="44.56588" lon="4.21633">
        <ele>489</ele>
        <time>2018-06-03T08:45:13.000Z</time>
      </trkpt>
      <trkpt lat="44.56586" lon="4.21634">
        <ele>489</ele>
        <time>2018-06-03T08:45:14.000Z</time>
      </trkpt>
      <trkpt lat="44.56584" lon="4.21635">
        <ele>489</ele>
        <time>2018-06-03T08:45:15.000Z</time>
      </trkpt>
      <trkpt lat="44.56583" lon="4.21635">
        <ele>499</ele>
        <time>2018-06-03T08:45:16.000Z</time>
      </trkpt>
      <trkpt lat="44.56581" lon="4.21636">
        <ele>499</ele>
        <time>2018-06-03T08:45:17.000Z</time>
      </trkpt>
      <trkpt lat="44.56579" lon="4.21637">
        <ele>499</ele>
        <time>2018-06-03T08:45:18.000Z</time>
      </trkpt>
      <trkpt lat="44.56577" lon="4.21638">
        <ele>499</ele>
        <time>2018-06-03T08:45:19.000Z</time>
      </trkpt>
      <trkpt lat="44.56574" lon="4.2164">
        <ele>499</ele>
        <time>2018-06-03T08:45:20.000Z</time>
      </trkpt>
      <trkpt lat="44.56572" lon="4.21641">
        <ele>499</ele>
        <time>2018-06-03T08:45:21.000Z</time>
      </trkpt>
      <trkpt lat="44.56571" lon="4.21643">
        <ele>498</ele>
        <time>2018-06-03T08:45:22.000Z</time>
      </trkpt>
      <trkpt lat="44.56569" lon="4.21645">
        <ele>498</ele>
        <time>2018-06-03T08:45:23.000Z</time>
      </trkpt>
      <trkpt lat="44.56566" lon="4.21646">
        <ele>498</ele>
        <time>2018-06-03T08:45:24.000Z</time>
      </trkpt>
      <trkpt lat="44.56564" lon="4.21647">
        <ele>499</ele>
        <time>2018-06-03T08:45:25.000Z</time>
      </trkpt>
      <trkpt lat="44.56563" lon="4.21648">
        <ele>499</ele>
        <time>2018-06-03T08:45:26.000Z</time>
      </trkpt>
      <trkpt lat="44.56561" lon="4.21649">
        <ele>499</ele>
        <time>2018-06-03T08:45:27.000Z</time>
      </trkpt>
      <trkpt lat="44.5656" lon="4.2165">
        <ele>499</ele>
        <time>2018-06-03T08:45:28.000Z</time>
      </trkpt>
      <trkpt lat="44.56558" lon="4.21651">
        <ele>499</ele>
        <time>2018-06-03T08:45:29.000Z</time>
      </trkpt>
      <trkpt lat="44.56557" lon="4.21652">
        <ele>499</ele>
        <time>2018-06-03T08:45:30.000Z</time>
      </trkpt>
      <trkpt lat="44.56557" lon="4.21652">
        <ele>499</ele>
        <time>2018-06-03T08:45:31.000Z</time>
      </trkpt>
      <trkpt lat="44.56555" lon="4.21652">
        <ele>499</ele>
        <time>2018-06-03T08:45:32.000Z</time>
      </trkpt>
      <trkpt lat="44.56552" lon="4.21654">
        <ele>500</ele>
        <time>2018-06-03T08:45:33.000Z</time>
      </trkpt>
      <trkpt lat="44.5655" lon="4.21654">
        <ele>500</ele>
        <time>2018-06-03T08:45:34.000Z</time>
      </trkpt>
      <trkpt lat="44.56548" lon="4.21655">
        <ele>500</ele>
        <time>2018-06-03T08:45:35.000Z</time>
      </trkpt>
      <trkpt lat="44.56547" lon="4.21655">
        <ele>500</ele>
        <time>2018-06-03T08:45:36.000Z</time>
      </trkpt>
      <trkpt lat="44.56545" lon="4.21656">
        <ele>501</ele>
        <time>2018-06-03T08:45:37.000Z</time>
      </trkpt>
      <trkpt lat="44.56543" lon="4.21657">
        <ele>501</ele>
        <time>2018-06-03T08:45:38.000Z</time>
      </trkpt>
      <trkpt lat="44.56541" lon="4.21657">
        <ele>501</ele>
        <time>2018-06-03T08:45:39.000Z</time>
      </trkpt>
      <trkpt lat="44.56539" lon="4.21657">
        <ele>501</ele>
        <time>2018-06-03T08:45:40.000Z</time>
      </trkpt>
      <trkpt lat="44.56538" lon="4.21657">
        <ele>501</ele>
        <time>2018-06-03T08:45:41.000Z</time>
      </trkpt>
      <trkpt lat="44.56536" lon="4.21658">
        <ele>501</ele>
        <time>2018-06-03T08:45:42.000Z</time>
      </trkpt>
      <trkpt lat="44.56534" lon="4.21658">
        <ele>502</ele>
        <time>2018-06-03T08:45:43.000Z</time>
      </trkpt>
      <trkpt lat="44.56532" lon="4.21659">
        <ele>502</ele>
        <time>2018-06-03T08:45:44.000Z</time>
      </trkpt>
      <trkpt lat="44.56531" lon="4.21659">
        <ele>502</ele>
        <time>2018-06-03T08:45:45.000Z</time>
      </trkpt>
      <trkpt lat="44.56529" lon="4.2166">
        <ele>502</ele>
        <time>2018-06-03T08:45:46.000Z</time>
      </trkpt>
      <trkpt lat="44.56527" lon="4.21661">
        <ele>502</ele>
        <time>2018-06-03T08:45:47.000Z</time>
      </trkpt>
      <trkpt lat="44.56525" lon="4.21662">
        <ele>502</ele>
        <time>2018-06-03T08:45:48.000Z</time>
      </trkpt>
      <trkpt lat="44.56523" lon="4.21663">
        <ele>502</ele>
        <time>2018-06-03T08:45:49.000Z</time>
      </trkpt>
      <trkpt lat="44.56521" lon="4.21664">
        <ele>502</ele>
        <time>2018-06-03T08:45:50.000Z</time>
      </trkpt>
      <trkpt lat="44.56519" lon="4.21664">
        <ele>503</ele>
        <time>2018-06-03T08:45:51.000Z</time>
      </trkpt>
      <trkpt lat="44.56516" lon="4.21665">
        <ele>503</ele>
        <time>2018-06-03T08:45:52.000Z</time>
      </trkpt>
      <trkpt lat="44.56514" lon="4.21666">
        <ele>503</ele>
        <time>2018-06-03T08:45:53.000Z</time>
      </trkpt>
      <trkpt lat="44.56511" lon="4.21667">
        <ele>498</ele>
        <time>2018-06-03T08:45:54.000Z</time>
      </trkpt>
      <trkpt lat="44.56509" lon="4.21668">
        <ele>499</ele>
        <time>2018-06-03T08:45:55.000Z</time>
      </trkpt>
      <trkpt lat="44.56506" lon="4.2167">
        <ele>500</ele>
        <time>2018-06-03T08:45:56.000Z</time>
      </trkpt>
      <trkpt lat="44.56502" lon="4.21671">
        <ele>501</ele>
        <time>2018-06-03T08:45:57.000Z</time>
      </trkpt>
      <trkpt lat="44.56499" lon="4.21673">
        <ele>500</ele>
        <time>2018-06-03T08:45:58.000Z</time>
      </trkpt>
      <trkpt lat="44.56496" lon="4.21675">
        <ele>499</ele>
        <time>2018-06-03T08:45:59.000Z</time>
      </trkpt>
      <trkpt lat="44.56492" lon="4.21677">
        <ele>497</ele>
        <time>2018-06-03T08:46:00.000Z</time>
      </trkpt>
      <trkpt lat="44.56488" lon="4.21677">
        <ele>497</ele>
        <time>2018-06-03T08:46:01.000Z</time>
      </trkpt>
      <trkpt lat="44.56484" lon="4.21676">
        <ele>496</ele>
        <time>2018-06-03T08:46:02.000Z</time>
      </trkpt>
      <trkpt lat="44.56479" lon="4.21675">
        <ele>495</ele>
        <time>2018-06-03T08:46:03.000Z</time>
      </trkpt>
      <trkpt lat="44.56474" lon="4.21674">
        <ele>494</ele>
        <time>2018-06-03T08:46:04.000Z</time>
      </trkpt>
      <trkpt lat="44.56468" lon="4.21672">
        <ele>493</ele>
        <time>2018-06-03T08:46:05.000Z</time>
      </trkpt>
      <trkpt lat="44.56462" lon="4.21669">
        <ele>492</ele>
        <time>2018-06-03T08:46:06.000Z</time>
      </trkpt>
      <trkpt lat="44.56457" lon="4.21667">
        <ele>491</ele>
        <time>2018-06-03T08:46:07.000Z</time>
      </trkpt>
      <trkpt lat="44.56453" lon="4.21665">
        <ele>498</ele>
        <time>2018-06-03T08:46:08.000Z</time>
      </trkpt>
      <trkpt lat="44.56449" lon="4.21665">
        <ele>498</ele>
        <time>2018-06-03T08:46:09.000Z</time>
      </trkpt>
      <trkpt lat="44.56446" lon="4.21666">
        <ele>497</ele>
        <time>2018-06-03T08:46:10.000Z</time>
      </trkpt>
      <trkpt lat="44.56444" lon="4.21665">
        <ele>497</ele>
        <time>2018-06-03T08:46:11.000Z</time>
      </trkpt>
      <trkpt lat="44.5644" lon="4.21665">
        <ele>496</ele>
        <time>2018-06-03T08:46:12.000Z</time>
      </trkpt>
      <trkpt lat="44.56436" lon="4.21664">
        <ele>495</ele>
        <time>2018-06-03T08:46:13.000Z</time>
      </trkpt>
      <trkpt lat="44.56432" lon="4.21663">
        <ele>494</ele>
        <time>2018-06-03T08:46:14.000Z</time>
      </trkpt>
      <trkpt lat="44.56429" lon="4.21663">
        <ele>493</ele>
        <time>2018-06-03T08:46:15.000Z</time>
      </trkpt>
      <trkpt lat="44.56425" lon="4.21662">
        <ele>492</ele>
        <time>2018-06-03T08:46:16.000Z</time>
      </trkpt>
      <trkpt lat="44.56421" lon="4.21662">
        <ele>491</ele>
        <time>2018-06-03T08:46:17.000Z</time>
      </trkpt>
      <trkpt lat="44.56417" lon="4.2166">
        <ele>486</ele>
        <time>2018-06-03T08:46:18.000Z</time>
      </trkpt>
      <trkpt lat="44.56411" lon="4.21659">
        <ele>486</ele>
        <time>2018-06-03T08:46:19.000Z</time>
      </trkpt>
      <trkpt lat="44.56406" lon="4.21658">
        <ele>485</ele>
        <time>2018-06-03T08:46:20.000Z</time>
      </trkpt>
      <trkpt lat="44.56401" lon="4.21656">
        <ele>484</ele>
        <time>2018-06-03T08:46:21.000Z</time>
      </trkpt>
      <trkpt lat="44.56397" lon="4.21655">
        <ele>483</ele>
        <time>2018-06-03T08:46:22.000Z</time>
      </trkpt>
      <trkpt lat="44.56393" lon="4.21654">
        <ele>483</ele>
        <time>2018-06-03T08:46:23.000Z</time>
      </trkpt>
      <trkpt lat="44.5639" lon="4.21653">
        <ele>482</ele>
        <time>2018-06-03T08:46:24.000Z</time>
      </trkpt>
      <trkpt lat="44.56387" lon="4.2165">
        <ele>482</ele>
        <time>2018-06-03T08:46:25.000Z</time>
      </trkpt>
      <trkpt lat="44.56384" lon="4.21647">
        <ele>481</ele>
        <time>2018-06-03T08:46:26.000Z</time>
      </trkpt>
      <trkpt lat="44.5638" lon="4.21643">
        <ele>480</ele>
        <time>2018-06-03T08:46:27.000Z</time>
      </trkpt>
      <trkpt lat="44.56375" lon="4.21637">
        <ele>480</ele>
        <time>2018-06-03T08:46:28.000Z</time>
      </trkpt>
      <trkpt lat="44.56371" lon="4.21631">
        <ele>480</ele>
        <time>2018-06-03T08:46:29.000Z</time>
      </trkpt>
      <trkpt lat="44.56367" lon="4.21626">
        <ele>479</ele>
        <time>2018-06-03T08:46:30.000Z</time>
      </trkpt>
      <trkpt lat="44.56362" lon="4.21621">
        <ele>479</ele>
        <time>2018-06-03T08:46:31.000Z</time>
      </trkpt>
      <trkpt lat="44.56358" lon="4.21615">
        <ele>478</ele>
        <time>2018-06-03T08:46:32.000Z</time>
      </trkpt>
      <trkpt lat="44.56353" lon="4.21609">
        <ele>478</ele>
        <time>2018-06-03T08:46:33.000Z</time>
      </trkpt>
      <trkpt lat="44.5635" lon="4.21601">
        <ele>477</ele>
        <time>2018-06-03T08:46:34.000Z</time>
      </trkpt>
      <trkpt lat="44.56346" lon="4.21591">
        <ele>476</ele>
        <time>2018-06-03T08:46:35.000Z</time>
      </trkpt>
      <trkpt lat="44.56343" lon="4.21582">
        <ele>477</ele>
        <time>2018-06-03T08:46:36.000Z</time>
      </trkpt>
      <trkpt lat="44.56338" lon="4.21575">
        <ele>478</ele>
        <time>2018-06-03T08:46:37.000Z</time>
      </trkpt>
      <trkpt lat="44.56334" lon="4.21567">
        <ele>480</ele>
        <time>2018-06-03T08:46:38.000Z</time>
      </trkpt>
      <trkpt lat="44.5633" lon="4.21561">
        <ele>472</ele>
        <time>2018-06-03T08:46:39.000Z</time>
      </trkpt>
      <trkpt lat="44.56326" lon="4.21557">
        <ele>473</ele>
        <time>2018-06-03T08:46:40.000Z</time>
      </trkpt>
      <trkpt lat="44.56322" lon="4.21554">
        <ele>473</ele>
        <time>2018-06-03T08:46:41.000Z</time>
      </trkpt>
      <trkpt lat="44.56317" lon="4.21553">
        <ele>473</ele>
        <time>2018-06-03T08:46:42.000Z</time>
      </trkpt>
      <trkpt lat="44.56312" lon="4.21552">
        <ele>472</ele>
        <time>2018-06-03T08:46:43.000Z</time>
      </trkpt>
      <trkpt lat="44.56305" lon="4.2155">
        <ele>472</ele>
        <time>2018-06-03T08:46:44.000Z</time>
      </trkpt>
      <trkpt lat="44.56299" lon="4.21548">
        <ele>472</ele>
        <time>2018-06-03T08:46:45.000Z</time>
      </trkpt>
      <trkpt lat="44.56292" lon="4.21547">
        <ele>471</ele>
        <time>2018-06-03T08:46:46.000Z</time>
      </trkpt>
      <trkpt lat="44.56284" lon="4.21546">
        <ele>471</ele>
        <time>2018-06-03T08:46:47.000Z</time>
      </trkpt>
      <trkpt lat="44.56277" lon="4.21545">
        <ele>471</ele>
        <time>2018-06-03T08:46:48.000Z</time>
      </trkpt>
      <trkpt lat="44.5627" lon="4.21544">
        <ele>470</ele>
        <time>2018-06-03T08:46:49.000Z</time>
      </trkpt>
      <trkpt lat="44.56265" lon="4.21544">
        <ele>470</ele>
        <time>2018-06-03T08:46:50.000Z</time>
      </trkpt>
      <trkpt lat="44.56262" lon="4.21544">
        <ele>470</ele>
        <time>2018-06-03T08:46:51.000Z</time>
      </trkpt>
      <trkpt lat="44.5626" lon="4.21544">
        <ele>470</ele>
        <time>2018-06-03T08:46:52.000Z</time>
      </trkpt>
      <trkpt lat="44.56257" lon="4.21544">
        <ele>469</ele>
        <time>2018-06-03T08:46:53.000Z</time>
      </trkpt>
      <trkpt lat="44.56256" lon="4.21547">
        <ele>469</ele>
        <time>2018-06-03T08:46:54.000Z</time>
      </trkpt>
      <trkpt lat="44.56255" lon="4.21552">
        <ele>468</ele>
        <time>2018-06-03T08:46:55.000Z</time>
      </trkpt>
      <trkpt lat="44.56256" lon="4.21557">
        <ele>468</ele>
        <time>2018-06-03T08:46:56.000Z</time>
      </trkpt>
      <trkpt lat="44.56258" lon="4.21563">
        <ele>467</ele>
        <time>2018-06-03T08:46:57.000Z</time>
      </trkpt>
      <trkpt lat="44.56262" lon="4.21569">
        <ele>466</ele>
        <time>2018-06-03T08:46:58.000Z</time>
      </trkpt>
      <trkpt lat="44.56265" lon="4.21576">
        <ele>466</ele>
        <time>2018-06-03T08:46:59.000Z</time>
      </trkpt>
      <trkpt lat="44.56267" lon="4.21582">
        <ele>466</ele>
        <time>2018-06-03T08:47:00.000Z</time>
      </trkpt>
      <trkpt lat="44.56267" lon="4.21589">
        <ele>461</ele>
        <time>2018-06-03T08:47:01.000Z</time>
      </trkpt>
      <trkpt lat="44.56265" lon="4.21596">
        <ele>460</ele>
        <time>2018-06-03T08:47:02.000Z</time>
      </trkpt>
      <trkpt lat="44.56261" lon="4.21605">
        <ele>460</ele>
        <time>2018-06-03T08:47:03.000Z</time>
      </trkpt>
      <trkpt lat="44.56257" lon="4.21613">
        <ele>459</ele>
        <time>2018-06-03T08:47:04.000Z</time>
      </trkpt>
      <trkpt lat="44.56251" lon="4.21623">
        <ele>458</ele>
        <time>2018-06-03T08:47:05.000Z</time>
      </trkpt>
      <trkpt lat="44.56245" lon="4.21632">
        <ele>449</ele>
        <time>2018-06-03T08:47:06.000Z</time>
      </trkpt>
      <trkpt lat="44.56239" lon="4.21641">
        <ele>448</ele>
        <time>2018-06-03T08:47:07.000Z</time>
      </trkpt>
      <trkpt lat="44.56234" lon="4.21651">
        <ele>448</ele>
        <time>2018-06-03T08:47:08.000Z</time>
      </trkpt>
      <trkpt lat="44.56227" lon="4.2166">
        <ele>447</ele>
        <time>2018-06-03T08:47:09.000Z</time>
      </trkpt>
      <trkpt lat="44.56221" lon="4.21669">
        <ele>441</ele>
        <time>2018-06-03T08:47:10.000Z</time>
      </trkpt>
      <trkpt lat="44.56216" lon="4.21676">
        <ele>441</ele>
        <time>2018-06-03T08:47:11.000Z</time>
      </trkpt>
      <trkpt lat="44.56213" lon="4.21681">
        <ele>440</ele>
        <time>2018-06-03T08:47:12.000Z</time>
      </trkpt>
      <trkpt lat="44.5621" lon="4.21686">
        <ele>440</ele>
        <time>2018-06-03T08:47:13.000Z</time>
      </trkpt>
      <trkpt lat="44.5621" lon="4.2169">
        <ele>440</ele>
        <time>2018-06-03T08:47:14.000Z</time>
      </trkpt>
      <trkpt lat="44.56211" lon="4.21694">
        <ele>439</ele>
        <time>2018-06-03T08:47:15.000Z</time>
      </trkpt>
      <trkpt lat="44.56212" lon="4.21699">
        <ele>439</ele>
        <time>2018-06-03T08:47:16.000Z</time>
      </trkpt>
      <trkpt lat="44.56213" lon="4.21703">
        <ele>439</ele>
        <time>2018-06-03T08:47:17.000Z</time>
      </trkpt>
      <trkpt lat="44.56216" lon="4.21707">
        <ele>439</ele>
        <time>2018-06-03T08:47:18.000Z</time>
      </trkpt>
      <trkpt lat="44.56219" lon="4.21712">
        <ele>439</ele>
        <time>2018-06-03T08:47:19.000Z</time>
      </trkpt>
      <trkpt lat="44.56222" lon="4.21716">
        <ele>439</ele>
        <time>2018-06-03T08:47:20.000Z</time>
      </trkpt>
      <trkpt lat="44.56223" lon="4.2172">
        <ele>438</ele>
        <time>2018-06-03T08:47:21.000Z</time>
      </trkpt>
      <trkpt lat="44.56224" lon="4.21726">
        <ele>438</ele>
        <time>2018-06-03T08:47:22.000Z</time>
      </trkpt>
      <trkpt lat="44.56223" lon="4.21733">
        <ele>438</ele>
        <time>2018-06-03T08:47:23.000Z</time>
      </trkpt>
      <trkpt lat="44.56223" lon="4.21743">
        <ele>438</ele>
        <time>2018-06-03T08:47:24.000Z</time>
      </trkpt>
      <trkpt lat="44.56223" lon="4.21752">
        <ele>434</ele>
        <time>2018-06-03T08:47:25.000Z</time>
      </trkpt>
      <trkpt lat="44.56222" lon="4.21762">
        <ele>434</ele>
        <time>2018-06-03T08:47:26.000Z</time>
      </trkpt>
      <trkpt lat="44.56221" lon="4.2177">
        <ele>433</ele>
        <time>2018-06-03T08:47:27.000Z</time>
      </trkpt>
      <trkpt lat="44.56221" lon="4.21777">
        <ele>433</ele>
        <time>2018-06-03T08:47:28.000Z</time>
      </trkpt>
      <trkpt lat="44.5622" lon="4.21785">
        <ele>433</ele>
        <time>2018-06-03T08:47:29.000Z</time>
      </trkpt>
      <trkpt lat="44.56219" lon="4.21793">
        <ele>432</ele>
        <time>2018-06-03T08:47:30.000Z</time>
      </trkpt>
      <trkpt lat="44.56218" lon="4.218">
        <ele>432</ele>
        <time>2018-06-03T08:47:31.000Z</time>
      </trkpt>
      <trkpt lat="44.56217" lon="4.21807">
        <ele>432</ele>
        <time>2018-06-03T08:47:32.000Z</time>
      </trkpt>
      <trkpt lat="44.56217" lon="4.21814">
        <ele>432</ele>
        <time>2018-06-03T08:47:33.000Z</time>
      </trkpt>
      <trkpt lat="44.56218" lon="4.21821">
        <ele>432</ele>
        <time>2018-06-03T08:47:34.000Z</time>
      </trkpt>
      <trkpt lat="44.5622" lon="4.21827">
        <ele>431</ele>
        <time>2018-06-03T08:47:35.000Z</time>
      </trkpt>
      <trkpt lat="44.56222" lon="4.21833">
        <ele>431</ele>
        <time>2018-06-03T08:47:36.000Z</time>
      </trkpt>
      <trkpt lat="44.56224" lon="4.21838">
        <ele>431</ele>
        <time>2018-06-03T08:47:37.000Z</time>
      </trkpt>
      <trkpt lat="44.56226" lon="4.21842">
        <ele>431</ele>
        <time>2018-06-03T08:47:38.000Z</time>
      </trkpt>
      <trkpt lat="44.56228" lon="4.21847">
        <ele>431</ele>
        <time>2018-06-03T08:47:39.000Z</time>
      </trkpt>
      <trkpt lat="44.5623" lon="4.21852">
        <ele>431</ele>
        <time>2018-06-03T08:47:40.000Z</time>
      </trkpt>
      <trkpt lat="44.56231" lon="4.21857">
        <ele>431</ele>
        <time>2018-06-03T08:47:41.000Z</time>
      </trkpt>
      <trkpt lat="44.56233" lon="4.21861">
        <ele>431</ele>
        <time>2018-06-03T08:47:42.000Z</time>
      </trkpt>
      <trkpt lat="44.56235" lon="4.21866">
        <ele>431</ele>
        <time>2018-06-03T08:47:43.000Z</time>
      </trkpt>
      <trkpt lat="44.56236" lon="4.21871">
        <ele>431</ele>
        <time>2018-06-03T08:47:44.000Z</time>
      </trkpt>
      <trkpt lat="44.56238" lon="4.21876">
        <ele>430</ele>
        <time>2018-06-03T08:47:45.000Z</time>
      </trkpt>
      <trkpt lat="44.56239" lon="4.21881">
        <ele>430</ele>
        <time>2018-06-03T08:47:46.000Z</time>
      </trkpt>
      <trkpt lat="44.5624" lon="4.21886">
        <ele>430</ele>
        <time>2018-06-03T08:47:47.000Z</time>
      </trkpt>
      <trkpt lat="44.5624" lon="4.21892">
        <ele>430</ele>
        <time>2018-06-03T08:47:48.000Z</time>
      </trkpt>
      <trkpt lat="44.5624" lon="4.21898">
        <ele>429</ele>
        <time>2018-06-03T08:47:49.000Z</time>
      </trkpt>
      <trkpt lat="44.56241" lon="4.21904">
        <ele>429</ele>
        <time>2018-06-03T08:47:50.000Z</time>
      </trkpt>
      <trkpt lat="44.56241" lon="4.2191">
        <ele>428</ele>
        <time>2018-06-03T08:47:51.000Z</time>
      </trkpt>
      <trkpt lat="44.56241" lon="4.21917">
        <ele>427</ele>
        <time>2018-06-03T08:47:52.000Z</time>
      </trkpt>
      <trkpt lat="44.5624" lon="4.21923">
        <ele>428</ele>
        <time>2018-06-03T08:47:53.000Z</time>
      </trkpt>
      <trkpt lat="44.5624" lon="4.2193">
        <ele>428</ele>
        <time>2018-06-03T08:47:54.000Z</time>
      </trkpt>
      <trkpt lat="44.56239" lon="4.21937">
        <ele>429</ele>
        <time>2018-06-03T08:47:55.000Z</time>
      </trkpt>
      <trkpt lat="44.56238" lon="4.21945">
        <ele>429</ele>
        <time>2018-06-03T08:47:56.000Z</time>
      </trkpt>
      <trkpt lat="44.56236" lon="4.21952">
        <ele>429</ele>
        <time>2018-06-03T08:47:57.000Z</time>
      </trkpt>
      <trkpt lat="44.56234" lon="4.2196">
        <ele>429</ele>
        <time>2018-06-03T08:47:58.000Z</time>
      </trkpt>
      <trkpt lat="44.56232" lon="4.21967">
        <ele>429</ele>
        <time>2018-06-03T08:47:59.000Z</time>
      </trkpt>
      <trkpt lat="44.56229" lon="4.21974">
        <ele>429</ele>
        <time>2018-06-03T08:48:00.000Z</time>
      </trkpt>
      <trkpt lat="44.56228" lon="4.21981">
        <ele>429</ele>
        <time>2018-06-03T08:48:01.000Z</time>
      </trkpt>
      <trkpt lat="44.56228" lon="4.21987">
        <ele>428</ele>
        <time>2018-06-03T08:48:02.000Z</time>
      </trkpt>
      <trkpt lat="44.56227" lon="4.21992">
        <ele>428</ele>
        <time>2018-06-03T08:48:03.000Z</time>
      </trkpt>
      <trkpt lat="44.56226" lon="4.21996">
        <ele>428</ele>
        <time>2018-06-03T08:48:04.000Z</time>
      </trkpt>
      <trkpt lat="44.56225" lon="4.22001">
        <ele>427</ele>
        <time>2018-06-03T08:48:05.000Z</time>
      </trkpt>
      <trkpt lat="44.56223" lon="4.22004">
        <ele>427</ele>
        <time>2018-06-03T08:48:06.000Z</time>
      </trkpt>
      <trkpt lat="44.56221" lon="4.22008">
        <ele>428</ele>
        <time>2018-06-03T08:48:07.000Z</time>
      </trkpt>
      <trkpt lat="44.56219" lon="4.22012">
        <ele>428</ele>
        <time>2018-06-03T08:48:08.000Z</time>
      </trkpt>
      <trkpt lat="44.56218" lon="4.22015">
        <ele>429</ele>
        <time>2018-06-03T08:48:09.000Z</time>
      </trkpt>
      <trkpt lat="44.56216" lon="4.22019">
        <ele>429</ele>
        <time>2018-06-03T08:48:10.000Z</time>
      </trkpt>
      <trkpt lat="44.56214" lon="4.22022">
        <ele>429</ele>
        <time>2018-06-03T08:48:11.000Z</time>
      </trkpt>
      <trkpt lat="44.56213" lon="4.22025">
        <ele>429</ele>
        <time>2018-06-03T08:48:12.000Z</time>
      </trkpt>
      <trkpt lat="44.56211" lon="4.22027">
        <ele>430</ele>
        <time>2018-06-03T08:48:13.000Z</time>
      </trkpt>
      <trkpt lat="44.5621" lon="4.2203">
        <ele>430</ele>
        <time>2018-06-03T08:48:14.000Z</time>
      </trkpt>
      <trkpt lat="44.56208" lon="4.22032">
        <ele>430</ele>
        <time>2018-06-03T08:48:15.000Z</time>
      </trkpt>
      <trkpt lat="44.56206" lon="4.22035">
        <ele>430</ele>
        <time>2018-06-03T08:48:16.000Z</time>
      </trkpt>
      <trkpt lat="44.56204" lon="4.22037">
        <ele>431</ele>
        <time>2018-06-03T08:48:17.000Z</time>
      </trkpt>
      <trkpt lat="44.56203" lon="4.22039">
        <ele>431</ele>
        <time>2018-06-03T08:48:18.000Z</time>
      </trkpt>
      <trkpt lat="44.56201" lon="4.22041">
        <ele>431</ele>
        <time>2018-06-03T08:48:19.000Z</time>
      </trkpt>
      <trkpt lat="44.56199" lon="4.22043">
        <ele>431</ele>
        <time>2018-06-03T08:48:20.000Z</time>
      </trkpt>
      <trkpt lat="44.56198" lon="4.22046">
        <ele>431</ele>
        <time>2018-06-03T08:48:21.000Z</time>
      </trkpt>
      <trkpt lat="44.56196" lon="4.22048">
        <ele>431</ele>
        <time>2018-06-03T08:48:22.000Z</time>
      </trkpt>
      <trkpt lat="44.56195" lon="4.2205">
        <ele>431</ele>
        <time>2018-06-03T08:48:23.000Z</time>
      </trkpt>
      <trkpt lat="44.56193" lon="4.22052">
        <ele>432</ele>
        <time>2018-06-03T08:48:24.000Z</time>
      </trkpt>
      <trkpt lat="44.56191" lon="4.22054">
        <ele>432</ele>
        <time>2018-06-03T08:48:25.000Z</time>
      </trkpt>
      <trkpt lat="44.56189" lon="4.22056">
        <ele>432</ele>
        <time>2018-06-03T08:48:26.000Z</time>
      </trkpt>
      <trkpt lat="44.56187" lon="4.22057">
        <ele>432</ele>
        <time>2018-06-03T08:48:27.000Z</time>
      </trkpt>
      <trkpt lat="44.56185" lon="4.22059">
        <ele>433</ele>
        <time>2018-06-03T08:48:28.000Z</time>
      </trkpt>
      <trkpt lat="44.56183" lon="4.2206">
        <ele>433</ele>
        <time>2018-06-03T08:48:29.000Z</time>
      </trkpt>
      <trkpt lat="44.56181" lon="4.22061">
        <ele>433</ele>
        <time>2018-06-03T08:48:30.000Z</time>
      </trkpt>
      <trkpt lat="44.56179" lon="4.22062">
        <ele>433</ele>
        <time>2018-06-03T08:48:31.000Z</time>
      </trkpt>
      <trkpt lat="44.56177" lon="4.22063">
        <ele>434</ele>
        <time>2018-06-03T08:48:32.000Z</time>
      </trkpt>
      <trkpt lat="44.56175" lon="4.22065">
        <ele>434</ele>
        <time>2018-06-03T08:48:33.000Z</time>
      </trkpt>
      <trkpt lat="44.56174" lon="4.22066">
        <ele>434</ele>
        <time>2018-06-03T08:48:34.000Z</time>
      </trkpt>
      <trkpt lat="44.56172" lon="4.22067">
        <ele>434</ele>
        <time>2018-06-03T08:48:35.000Z</time>
      </trkpt>
      <trkpt lat="44.5617" lon="4.22069">
        <ele>435</ele>
        <time>2018-06-03T08:48:36.000Z</time>
      </trkpt>
      <trkpt lat="44.56169" lon="4.22071">
        <ele>435</ele>
        <time>2018-06-03T08:48:37.000Z</time>
      </trkpt>
      <trkpt lat="44.56169" lon="4.22071">
        <ele>435</ele>
        <time>2018-06-03T08:48:38.000Z</time>
      </trkpt>
      <trkpt lat="44.56166" lon="4.22074">
        <ele>443</ele>
        <time>2018-06-03T08:48:39.000Z</time>
      </trkpt>
      <trkpt lat="44.56164" lon="4.22076">
        <ele>442</ele>
        <time>2018-06-03T08:48:40.000Z</time>
      </trkpt>
      <trkpt lat="44.56163" lon="4.22078">
        <ele>442</ele>
        <time>2018-06-03T08:48:41.000Z</time>
      </trkpt>
      <trkpt lat="44.56162" lon="4.2208">
        <ele>442</ele>
        <time>2018-06-03T08:48:42.000Z</time>
      </trkpt>
      <trkpt lat="44.5616" lon="4.22081">
        <ele>442</ele>
        <time>2018-06-03T08:48:43.000Z</time>
      </trkpt>
      <trkpt lat="44.56158" lon="4.22082">
        <ele>443</ele>
        <time>2018-06-03T08:48:44.000Z</time>
      </trkpt>
      <trkpt lat="44.56157" lon="4.22084">
        <ele>444</ele>
        <time>2018-06-03T08:48:45.000Z</time>
      </trkpt>
      <trkpt lat="44.56155" lon="4.22085">
        <ele>444</ele>
        <time>2018-06-03T08:48:46.000Z</time>
      </trkpt>
      <trkpt lat="44.56153" lon="4.22087">
        <ele>445</ele>
        <time>2018-06-03T08:48:47.000Z</time>
      </trkpt>
      <trkpt lat="44.56152" lon="4.22089">
        <ele>446</ele>
        <time>2018-06-03T08:48:48.000Z</time>
      </trkpt>
      <trkpt lat="44.56151" lon="4.22091">
        <ele>446</ele>
        <time>2018-06-03T08:48:49.000Z</time>
      </trkpt>
      <trkpt lat="44.5615" lon="4.22093">
        <ele>447</ele>
        <time>2018-06-03T08:48:50.000Z</time>
      </trkpt>
      <trkpt lat="44.56149" lon="4.22096">
        <ele>448</ele>
        <time>2018-06-03T08:48:51.000Z</time>
      </trkpt>
      <trkpt lat="44.56148" lon="4.22098">
        <ele>448</ele>
        <time>2018-06-03T08:48:52.000Z</time>
      </trkpt>
      <trkpt lat="44.56147" lon="4.22101">
        <ele>449</ele>
        <time>2018-06-03T08:48:53.000Z</time>
      </trkpt>
      <trkpt lat="44.56147" lon="4.22104">
        <ele>449</ele>
        <time>2018-06-03T08:48:54.000Z</time>
      </trkpt>
      <trkpt lat="44.56147" lon="4.22106">
        <ele>450</ele>
        <time>2018-06-03T08:48:55.000Z</time>
      </trkpt>
      <trkpt lat="44.56147" lon="4.22106">
        <ele>450</ele>
        <time>2018-06-03T08:48:56.000Z</time>
      </trkpt>
      <trkpt lat="44.56147" lon="4.22112">
        <ele>450</ele>
        <time>2018-06-03T08:48:57.000Z</time>
      </trkpt>
      <trkpt lat="44.56148" lon="4.22114">
        <ele>450</ele>
        <time>2018-06-03T08:48:58.000Z</time>
      </trkpt>
      <trkpt lat="44.56148" lon="4.22117">
        <ele>450</ele>
        <time>2018-06-03T08:48:59.000Z</time>
      </trkpt>
      <trkpt lat="44.56149" lon="4.2212">
        <ele>450</ele>
        <time>2018-06-03T08:49:00.000Z</time>
      </trkpt>
      <trkpt lat="44.56149" lon="4.22122">
        <ele>450</ele>
        <time>2018-06-03T08:49:01.000Z</time>
      </trkpt>
      <trkpt lat="44.5615" lon="4.22124">
        <ele>450</ele>
        <time>2018-06-03T08:49:02.000Z</time>
      </trkpt>
      <trkpt lat="44.56151" lon="4.22127">
        <ele>450</ele>
        <time>2018-06-03T08:49:03.000Z</time>
      </trkpt>
      <trkpt lat="44.56151" lon="4.22129">
        <ele>450</ele>
        <time>2018-06-03T08:49:04.000Z</time>
      </trkpt>
      <trkpt lat="44.56152" lon="4.22131">
        <ele>450</ele>
        <time>2018-06-03T08:49:05.000Z</time>
      </trkpt>
      <trkpt lat="44.56152" lon="4.22133">
        <ele>450</ele>
        <time>2018-06-03T08:49:06.000Z</time>
      </trkpt>
      <trkpt lat="44.56153" lon="4.22136">
        <ele>450</ele>
        <time>2018-06-03T08:49:07.000Z</time>
      </trkpt>
      <trkpt lat="44.56153" lon="4.22138">
        <ele>450</ele>
        <time>2018-06-03T08:49:08.000Z</time>
      </trkpt>
      <trkpt lat="44.56153" lon="4.2214">
        <ele>450</ele>
        <time>2018-06-03T08:49:09.000Z</time>
      </trkpt>
      <trkpt lat="44.56154" lon="4.22143">
        <ele>450</ele>
        <time>2018-06-03T08:49:10.000Z</time>
      </trkpt>
      <trkpt lat="44.56154" lon="4.22145">
        <ele>450</ele>
        <time>2018-06-03T08:49:11.000Z</time>
      </trkpt>
      <trkpt lat="44.56155" lon="4.22147">
        <ele>449</ele>
        <time>2018-06-03T08:49:12.000Z</time>
      </trkpt>
      <trkpt lat="44.56155" lon="4.22149">
        <ele>449</ele>
        <time>2018-06-03T08:49:13.000Z</time>
      </trkpt>
      <trkpt lat="44.56156" lon="4.22151">
        <ele>449</ele>
        <time>2018-06-03T08:49:14.000Z</time>
      </trkpt>
      <trkpt lat="44.56156" lon="4.22154">
        <ele>449</ele>
        <time>2018-06-03T08:49:15.000Z</time>
      </trkpt>
      <trkpt lat="44.56157" lon="4.22156">
        <ele>448</ele>
        <time>2018-06-03T08:49:16.000Z</time>
      </trkpt>
      <trkpt lat="44.56157" lon="4.22158">
        <ele>448</ele>
        <time>2018-06-03T08:49:17.000Z</time>
      </trkpt>
      <trkpt lat="44.56157" lon="4.2216">
        <ele>448</ele>
        <time>2018-06-03T08:49:18.000Z</time>
      </trkpt>
      <trkpt lat="44.56157" lon="4.22162">
        <ele>447</ele>
        <time>2018-06-03T08:49:19.000Z</time>
      </trkpt>
      <trkpt lat="44.56158" lon="4.22165">
        <ele>447</ele>
        <time>2018-06-03T08:49:20.000Z</time>
      </trkpt>
      <trkpt lat="44.56158" lon="4.22167">
        <ele>448</ele>
        <time>2018-06-03T08:49:21.000Z</time>
      </trkpt>
      <trkpt lat="44.56158" lon="4.2217">
        <ele>448</ele>
        <time>2018-06-03T08:49:22.000Z</time>
      </trkpt>
      <trkpt lat="44.56158" lon="4.22173">
        <ele>448</ele>
        <time>2018-06-03T08:49:23.000Z</time>
      </trkpt>
      <trkpt lat="44.56158" lon="4.22176">
        <ele>449</ele>
        <time>2018-06-03T08:49:24.000Z</time>
      </trkpt>
      <trkpt lat="44.56158" lon="4.22179">
        <ele>449</ele>
        <time>2018-06-03T08:49:25.000Z</time>
      </trkpt>
      <trkpt lat="44.56158" lon="4.22184">
        <ele>450</ele>
        <time>2018-06-03T08:49:26.000Z</time>
      </trkpt>
      <trkpt lat="44.56157" lon="4.22189">
        <ele>451</ele>
        <time>2018-06-03T08:49:27.000Z</time>
      </trkpt>
      <trkpt lat="44.56155" lon="4.22194">
        <ele>452</ele>
        <time>2018-06-03T08:49:28.000Z</time>
      </trkpt>
      <trkpt lat="44.56152" lon="4.22198">
        <ele>453</ele>
        <time>2018-06-03T08:49:29.000Z</time>
      </trkpt>
      <trkpt lat="44.56148" lon="4.22203">
        <ele>453</ele>
        <time>2018-06-03T08:49:30.000Z</time>
      </trkpt>
      <trkpt lat="44.56144" lon="4.22206">
        <ele>454</ele>
        <time>2018-06-03T08:49:31.000Z</time>
      </trkpt>
      <trkpt lat="44.56139" lon="4.2221">
        <ele>454</ele>
        <time>2018-06-03T08:49:32.000Z</time>
      </trkpt>
      <trkpt lat="44.56134" lon="4.22213">
        <ele>455</ele>
        <time>2018-06-03T08:49:33.000Z</time>
      </trkpt>
      <trkpt lat="44.56128" lon="4.22216">
        <ele>456</ele>
        <time>2018-06-03T08:49:34.000Z</time>
      </trkpt>
      <trkpt lat="44.56123" lon="4.2222">
        <ele>456</ele>
        <time>2018-06-03T08:49:35.000Z</time>
      </trkpt>
      <trkpt lat="44.56118" lon="4.22223">
        <ele>457</ele>
        <time>2018-06-03T08:49:36.000Z</time>
      </trkpt>
      <trkpt lat="44.56114" lon="4.2223">
        <ele>457</ele>
        <time>2018-06-03T08:49:37.000Z</time>
      </trkpt>
      <trkpt lat="44.56112" lon="4.22236">
        <ele>458</ele>
        <time>2018-06-03T08:49:38.000Z</time>
      </trkpt>
      <trkpt lat="44.5611" lon="4.22244">
        <ele>458</ele>
        <time>2018-06-03T08:49:39.000Z</time>
      </trkpt>
      <trkpt lat="44.5611" lon="4.22251">
        <ele>464</ele>
        <time>2018-06-03T08:49:40.000Z</time>
      </trkpt>
      <trkpt lat="44.56112" lon="4.22254">
        <ele>464</ele>
        <time>2018-06-03T08:49:41.000Z</time>
      </trkpt>
      <trkpt lat="44.56117" lon="4.22257">
        <ele>463</ele>
        <time>2018-06-03T08:49:42.000Z</time>
      </trkpt>
      <trkpt lat="44.56121" lon="4.22259">
        <ele>463</ele>
        <time>2018-06-03T08:49:43.000Z</time>
      </trkpt>
      <trkpt lat="44.56125" lon="4.22261">
        <ele>463</ele>
        <time>2018-06-03T08:49:44.000Z</time>
      </trkpt>
      <trkpt lat="44.56129" lon="4.22263">
        <ele>462</ele>
        <time>2018-06-03T08:49:45.000Z</time>
      </trkpt>
      <trkpt lat="44.56132" lon="4.22265">
        <ele>462</ele>
        <time>2018-06-03T08:49:46.000Z</time>
      </trkpt>
      <trkpt lat="44.56136" lon="4.22267">
        <ele>462</ele>
        <time>2018-06-03T08:49:47.000Z</time>
      </trkpt>
      <trkpt lat="44.56139" lon="4.22268">
        <ele>461</ele>
        <time>2018-06-03T08:49:48.000Z</time>
      </trkpt>
      <trkpt lat="44.56143" lon="4.2227">
        <ele>461</ele>
        <time>2018-06-03T08:49:49.000Z</time>
      </trkpt>
      <trkpt lat="44.56146" lon="4.22272">
        <ele>461</ele>
        <time>2018-06-03T08:49:50.000Z</time>
      </trkpt>
      <trkpt lat="44.56149" lon="4.22274">
        <ele>461</ele>
        <time>2018-06-03T08:49:51.000Z</time>
      </trkpt>
      <trkpt lat="44.56152" lon="4.22275">
        <ele>461</ele>
        <time>2018-06-03T08:49:52.000Z</time>
      </trkpt>
      <trkpt lat="44.56156" lon="4.22277">
        <ele>461</ele>
        <time>2018-06-03T08:49:53.000Z</time>
      </trkpt>
      <trkpt lat="44.56159" lon="4.22279">
        <ele>461</ele>
        <time>2018-06-03T08:49:54.000Z</time>
      </trkpt>
      <trkpt lat="44.56161" lon="4.22281">
        <ele>461</ele>
        <time>2018-06-03T08:49:55.000Z</time>
      </trkpt>
      <trkpt lat="44.56164" lon="4.22283">
        <ele>461</ele>
        <time>2018-06-03T08:49:56.000Z</time>
      </trkpt>
      <trkpt lat="44.56166" lon="4.22285">
        <ele>462</ele>
        <time>2018-06-03T08:49:57.000Z</time>
      </trkpt>
      <trkpt lat="44.56169" lon="4.22287">
        <ele>451</ele>
        <time>2018-06-03T08:49:58.000Z</time>
      </trkpt>
      <trkpt lat="44.56171" lon="4.22288">
        <ele>451</ele>
        <time>2018-06-03T08:49:59.000Z</time>
      </trkpt>
      <trkpt lat="44.56174" lon="4.2229">
        <ele>451</ele>
        <time>2018-06-03T08:50:00.000Z</time>
      </trkpt>
      <trkpt lat="44.56176" lon="4.22292">
        <ele>452</ele>
        <time>2018-06-03T08:50:01.000Z</time>
      </trkpt>
      <trkpt lat="44.56179" lon="4.22294">
        <ele>452</ele>
        <time>2018-06-03T08:50:02.000Z</time>
      </trkpt>
      <trkpt lat="44.56181" lon="4.22296">
        <ele>452</ele>
        <time>2018-06-03T08:50:03.000Z</time>
      </trkpt>
      <trkpt lat="44.56183" lon="4.22299">
        <ele>452</ele>
        <time>2018-06-03T08:50:04.000Z</time>
      </trkpt>
      <trkpt lat="44.56185" lon="4.22301">
        <ele>452</ele>
        <time>2018-06-03T08:50:05.000Z</time>
      </trkpt>
      <trkpt lat="44.56188" lon="4.22303">
        <ele>452</ele>
        <time>2018-06-03T08:50:06.000Z</time>
      </trkpt>
      <trkpt lat="44.5619" lon="4.22306">
        <ele>452</ele>
        <time>2018-06-03T08:50:07.000Z</time>
      </trkpt>
      <trkpt lat="44.56192" lon="4.22308">
        <ele>452</ele>
        <time>2018-06-03T08:50:08.000Z</time>
      </trkpt>
      <trkpt lat="44.56194" lon="4.22311">
        <ele>452</ele>
        <time>2018-06-03T08:50:09.000Z</time>
      </trkpt>
      <trkpt lat="44.56196" lon="4.22313">
        <ele>452</ele>
        <time>2018-06-03T08:50:10.000Z</time>
      </trkpt>
      <trkpt lat="44.56197" lon="4.22317">
        <ele>452</ele>
        <time>2018-06-03T08:50:11.000Z</time>
      </trkpt>
      <trkpt lat="44.562" lon="4.2232">
        <ele>452</ele>
        <time>2018-06-03T08:50:12.000Z</time>
      </trkpt>
      <trkpt lat="44.56201" lon="4.22322">
        <ele>452</ele>
        <time>2018-06-03T08:50:13.000Z</time>
      </trkpt>
      <trkpt lat="44.56203" lon="4.22325">
        <ele>452</ele>
        <time>2018-06-03T08:50:14.000Z</time>
      </trkpt>
      <trkpt lat="44.56204" lon="4.22328">
        <ele>452</ele>
        <time>2018-06-03T08:50:15.000Z</time>
      </trkpt>
      <trkpt lat="44.56205" lon="4.22331">
        <ele>451</ele>
        <time>2018-06-03T08:50:16.000Z</time>
      </trkpt>
      <trkpt lat="44.56206" lon="4.22334">
        <ele>458</ele>
        <time>2018-06-03T08:50:17.000Z</time>
      </trkpt>
      <trkpt lat="44.56208" lon="4.22337">
        <ele>458</ele>
        <time>2018-06-03T08:50:18.000Z</time>
      </trkpt>
      <trkpt lat="44.56208" lon="4.22337">
        <ele>458</ele>
        <time>2018-06-03T08:50:19.000Z</time>
      </trkpt>
      <trkpt lat="44.5621" lon="4.22339">
        <ele>457</ele>
        <time>2018-06-03T08:50:20.000Z</time>
      </trkpt>
      <trkpt lat="44.56212" lon="4.22342">
        <ele>457</ele>
        <time>2018-06-03T08:50:21.000Z</time>
      </trkpt>
      <trkpt lat="44.56214" lon="4.22345">
        <ele>457</ele>
        <time>2018-06-03T08:50:22.000Z</time>
      </trkpt>
      <trkpt lat="44.56216" lon="4.22349">
        <ele>457</ele>
        <time>2018-06-03T08:50:23.000Z</time>
      </trkpt>
      <trkpt lat="44.56218" lon="4.22351">
        <ele>456</ele>
        <time>2018-06-03T08:50:24.000Z</time>
      </trkpt>
      <trkpt lat="44.56219" lon="4.22354">
        <ele>456</ele>
        <time>2018-06-03T08:50:25.000Z</time>
      </trkpt>
      <trkpt lat="44.56221" lon="4.22357">
        <ele>456</ele>
        <time>2018-06-03T08:50:26.000Z</time>
      </trkpt>
      <trkpt lat="44.56222" lon="4.22359">
        <ele>456</ele>
        <time>2018-06-03T08:50:27.000Z</time>
      </trkpt>
      <trkpt lat="44.56223" lon="4.22362">
        <ele>456</ele>
        <time>2018-06-03T08:50:28.000Z</time>
      </trkpt>
      <trkpt lat="44.56225" lon="4.22364">
        <ele>456</ele>
        <time>2018-06-03T08:50:29.000Z</time>
      </trkpt>
      <trkpt lat="44.56226" lon="4.22367">
        <ele>456</ele>
        <time>2018-06-03T08:50:30.000Z</time>
      </trkpt>
      <trkpt lat="44.56227" lon="4.22369">
        <ele>456</ele>
        <time>2018-06-03T08:50:31.000Z</time>
      </trkpt>
      <trkpt lat="44.56229" lon="4.22372">
        <ele>456</ele>
        <time>2018-06-03T08:50:32.000Z</time>
      </trkpt>
      <trkpt lat="44.5623" lon="4.22375">
        <ele>456</ele>
        <time>2018-06-03T08:50:33.000Z</time>
      </trkpt>
      <trkpt lat="44.56231" lon="4.22379">
        <ele>456</ele>
        <time>2018-06-03T08:50:34.000Z</time>
      </trkpt>
      <trkpt lat="44.56231" lon="4.22383">
        <ele>456</ele>
        <time>2018-06-03T08:50:35.000Z</time>
      </trkpt>
      <trkpt lat="44.5623" lon="4.22387">
        <ele>456</ele>
        <time>2018-06-03T08:50:36.000Z</time>
      </trkpt>
      <trkpt lat="44.56229" lon="4.2239">
        <ele>456</ele>
        <time>2018-06-03T08:50:37.000Z</time>
      </trkpt>
      <trkpt lat="44.56228" lon="4.22392">
        <ele>457</ele>
        <time>2018-06-03T08:50:38.000Z</time>
      </trkpt>
      <trkpt lat="44.56226" lon="4.22393">
        <ele>457</ele>
        <time>2018-06-03T08:50:39.000Z</time>
      </trkpt>
      <trkpt lat="44.56225" lon="4.22392">
        <ele>457</ele>
        <time>2018-06-03T08:50:40.000Z</time>
      </trkpt>
      <trkpt lat="44.56223" lon="4.22391">
        <ele>457</ele>
        <time>2018-06-03T08:50:41.000Z</time>
      </trkpt>
      <trkpt lat="44.56222" lon="4.22391">
        <ele>457</ele>
        <time>2018-06-03T08:50:42.000Z</time>
      </trkpt>
      <trkpt lat="44.56222" lon="4.22389">
        <ele>458</ele>
        <time>2018-06-03T08:50:43.000Z</time>
      </trkpt>
      <trkpt lat="44.56221" lon="4.22388">
        <ele>458</ele>
        <time>2018-06-03T08:50:44.000Z</time>
      </trkpt>
      <trkpt lat="44.5622" lon="4.22386">
        <ele>458</ele>
        <time>2018-06-03T08:50:45.000Z</time>
      </trkpt>
      <trkpt lat="44.56219" lon="4.22384">
        <ele>458</ele>
        <time>2018-06-03T08:50:46.000Z</time>
      </trkpt>
      <trkpt lat="44.56218" lon="4.22382">
        <ele>458</ele>
        <time>2018-06-03T08:50:47.000Z</time>
      </trkpt>
      <trkpt lat="44.56216" lon="4.22381">
        <ele>458</ele>
        <time>2018-06-03T08:50:48.000Z</time>
      </trkpt>
      <trkpt lat="44.56214" lon="4.22379">
        <ele>458</ele>
        <time>2018-06-03T08:50:49.000Z</time>
      </trkpt>
      <trkpt lat="44.56212" lon="4.22376">
        <ele>458</ele>
        <time>2018-06-03T08:50:50.000Z</time>
      </trkpt>
      <trkpt lat="44.56211" lon="4.22375">
        <ele>459</ele>
        <time>2018-06-03T08:50:51.000Z</time>
      </trkpt>
      <trkpt lat="44.56209" lon="4.22373">
        <ele>459</ele>
        <time>2018-06-03T08:50:52.000Z</time>
      </trkpt>
      <trkpt lat="44.56207" lon="4.22371">
        <ele>459</ele>
        <time>2018-06-03T08:50:53.000Z</time>
      </trkpt>
      <trkpt lat="44.56205" lon="4.22369">
        <ele>459</ele>
        <time>2018-06-03T08:50:54.000Z</time>
      </trkpt>
      <trkpt lat="44.56202" lon="4.22367">
        <ele>460</ele>
        <time>2018-06-03T08:50:55.000Z</time>
      </trkpt>
      <trkpt lat="44.562" lon="4.22365">
        <ele>460</ele>
        <time>2018-06-03T08:50:56.000Z</time>
      </trkpt>
      <trkpt lat="44.56197" lon="4.22363">
        <ele>460</ele>
        <time>2018-06-03T08:50:57.000Z</time>
      </trkpt>
      <trkpt lat="44.56195" lon="4.22361">
        <ele>460</ele>
        <time>2018-06-03T08:50:58.000Z</time>
      </trkpt>
      <trkpt lat="44.56193" lon="4.22359">
        <ele>461</ele>
        <time>2018-06-03T08:50:59.000Z</time>
      </trkpt>
      <trkpt lat="44.56191" lon="4.22357">
        <ele>461</ele>
        <time>2018-06-03T08:51:00.000Z</time>
      </trkpt>
      <trkpt lat="44.5619" lon="4.22356">
        <ele>461</ele>
        <time>2018-06-03T08:51:01.000Z</time>
      </trkpt>
      <trkpt lat="44.56188" lon="4.22355">
        <ele>461</ele>
        <time>2018-06-03T08:51:02.000Z</time>
      </trkpt>
      <trkpt lat="44.56186" lon="4.22353">
        <ele>462</ele>
        <time>2018-06-03T08:51:03.000Z</time>
      </trkpt>
      <trkpt lat="44.56183" lon="4.22352">
        <ele>462</ele>
        <time>2018-06-03T08:51:04.000Z</time>
      </trkpt>
      <trkpt lat="44.56181" lon="4.22351">
        <ele>462</ele>
        <time>2018-06-03T08:51:05.000Z</time>
      </trkpt>
      <trkpt lat="44.56178" lon="4.2235">
        <ele>463</ele>
        <time>2018-06-03T08:51:06.000Z</time>
      </trkpt>
      <trkpt lat="44.56175" lon="4.22349">
        <ele>463</ele>
        <time>2018-06-03T08:51:07.000Z</time>
      </trkpt>
      <trkpt lat="44.56173" lon="4.22349">
        <ele>463</ele>
        <time>2018-06-03T08:51:08.000Z</time>
      </trkpt>
      <trkpt lat="44.56171" lon="4.22348">
        <ele>464</ele>
        <time>2018-06-03T08:51:09.000Z</time>
      </trkpt>
      <trkpt lat="44.56169" lon="4.22348">
        <ele>464</ele>
        <time>2018-06-03T08:51:10.000Z</time>
      </trkpt>
      <trkpt lat="44.56166" lon="4.22347">
        <ele>472</ele>
        <time>2018-06-03T08:51:11.000Z</time>
      </trkpt>
      <trkpt lat="44.56164" lon="4.22346">
        <ele>472</ele>
        <time>2018-06-03T08:51:12.000Z</time>
      </trkpt>
      <trkpt lat="44.56161" lon="4.22345">
        <ele>472</ele>
        <time>2018-06-03T08:51:13.000Z</time>
      </trkpt>
      <trkpt lat="44.56158" lon="4.22344">
        <ele>472</ele>
        <time>2018-06-03T08:51:14.000Z</time>
      </trkpt>
      <trkpt lat="44.56156" lon="4.22343">
        <ele>473</ele>
        <time>2018-06-03T08:51:15.000Z</time>
      </trkpt>
      <trkpt lat="44.56153" lon="4.22342">
        <ele>473</ele>
        <time>2018-06-03T08:51:16.000Z</time>
      </trkpt>
      <trkpt lat="44.56151" lon="4.22341">
        <ele>474</ele>
        <time>2018-06-03T08:51:17.000Z</time>
      </trkpt>
      <trkpt lat="44.56148" lon="4.2234">
        <ele>474</ele>
        <time>2018-06-03T08:51:18.000Z</time>
      </trkpt>
      <trkpt lat="44.56146" lon="4.22339">
        <ele>474</ele>
        <time>2018-06-03T08:51:19.000Z</time>
      </trkpt>
      <trkpt lat="44.56143" lon="4.22338">
        <ele>475</ele>
        <time>2018-06-03T08:51:20.000Z</time>
      </trkpt>
      <trkpt lat="44.5614" lon="4.22338">
        <ele>476</ele>
        <time>2018-06-03T08:51:21.000Z</time>
      </trkpt>
      <trkpt lat="44.56137" lon="4.22337">
        <ele>476</ele>
        <time>2018-06-03T08:51:22.000Z</time>
      </trkpt>
      <trkpt lat="44.56134" lon="4.22337">
        <ele>476</ele>
        <time>2018-06-03T08:51:23.000Z</time>
      </trkpt>
      <trkpt lat="44.56131" lon="4.22338">
        <ele>477</ele>
        <time>2018-06-03T08:51:24.000Z</time>
      </trkpt>
      <trkpt lat="44.56126" lon="4.22339">
        <ele>478</ele>
        <time>2018-06-03T08:51:25.000Z</time>
      </trkpt>
      <trkpt lat="44.56124" lon="4.2234">
        <ele>478</ele>
        <time>2018-06-03T08:51:26.000Z</time>
      </trkpt>
      <trkpt lat="44.56121" lon="4.22342">
        <ele>478</ele>
        <time>2018-06-03T08:51:27.000Z</time>
      </trkpt>
      <trkpt lat="44.56119" lon="4.22344">
        <ele>479</ele>
        <time>2018-06-03T08:51:28.000Z</time>
      </trkpt>
      <trkpt lat="44.56116" lon="4.22345">
        <ele>479</ele>
        <time>2018-06-03T08:51:29.000Z</time>
      </trkpt>
      <trkpt lat="44.56114" lon="4.22347">
        <ele>479</ele>
        <time>2018-06-03T08:51:30.000Z</time>
      </trkpt>
      <trkpt lat="44.56112" lon="4.22348">
        <ele>480</ele>
        <time>2018-06-03T08:51:31.000Z</time>
      </trkpt>
      <trkpt lat="44.5611" lon="4.2235">
        <ele>480</ele>
        <time>2018-06-03T08:51:32.000Z</time>
      </trkpt>
      <trkpt lat="44.56107" lon="4.22351">
        <ele>480</ele>
        <time>2018-06-03T08:51:33.000Z</time>
      </trkpt>
      <trkpt lat="44.56104" lon="4.22352">
        <ele>480</ele>
        <time>2018-06-03T08:51:34.000Z</time>
      </trkpt>
      <trkpt lat="44.56102" lon="4.22352">
        <ele>480</ele>
        <time>2018-06-03T08:51:35.000Z</time>
      </trkpt>
      <trkpt lat="44.56099" lon="4.22352">
        <ele>481</ele>
        <time>2018-06-03T08:51:36.000Z</time>
      </trkpt>
      <trkpt lat="44.56096" lon="4.2235">
        <ele>481</ele>
        <time>2018-06-03T08:51:37.000Z</time>
      </trkpt>
      <trkpt lat="44.56094" lon="4.22348">
        <ele>481</ele>
        <time>2018-06-03T08:51:38.000Z</time>
      </trkpt>
      <trkpt lat="44.56092" lon="4.22346">
        <ele>480</ele>
        <time>2018-06-03T08:51:39.000Z</time>
      </trkpt>
      <trkpt lat="44.5609" lon="4.22344">
        <ele>480</ele>
        <time>2018-06-03T08:51:40.000Z</time>
      </trkpt>
      <trkpt lat="44.56089" lon="4.22341">
        <ele>480</ele>
        <time>2018-06-03T08:51:41.000Z</time>
      </trkpt>
      <trkpt lat="44.56087" lon="4.22339">
        <ele>480</ele>
        <time>2018-06-03T08:51:42.000Z</time>
      </trkpt>
      <trkpt lat="44.56086" lon="4.22336">
        <ele>480</ele>
        <time>2018-06-03T08:51:43.000Z</time>
      </trkpt>
      <trkpt lat="44.56085" lon="4.22334">
        <ele>480</ele>
        <time>2018-06-03T08:51:44.000Z</time>
      </trkpt>
      <trkpt lat="44.56083" lon="4.22332">
        <ele>480</ele>
        <time>2018-06-03T08:51:45.000Z</time>
      </trkpt>
      <trkpt lat="44.5608" lon="4.2233">
        <ele>479</ele>
        <time>2018-06-03T08:51:46.000Z</time>
      </trkpt>
      <trkpt lat="44.56078" lon="4.22328">
        <ele>479</ele>
        <time>2018-06-03T08:51:47.000Z</time>
      </trkpt>
      <trkpt lat="44.56075" lon="4.22327">
        <ele>479</ele>
        <time>2018-06-03T08:51:48.000Z</time>
      </trkpt>
      <trkpt lat="44.56073" lon="4.22325">
        <ele>478</ele>
        <time>2018-06-03T08:51:49.000Z</time>
      </trkpt>
      <trkpt lat="44.5607" lon="4.22323">
        <ele>478</ele>
        <time>2018-06-03T08:51:50.000Z</time>
      </trkpt>
      <trkpt lat="44.56068" lon="4.22322">
        <ele>478</ele>
        <time>2018-06-03T08:51:51.000Z</time>
      </trkpt>
      <trkpt lat="44.56066" lon="4.2232">
        <ele>478</ele>
        <time>2018-06-03T08:51:52.000Z</time>
      </trkpt>
      <trkpt lat="44.56063" lon="4.22319">
        <ele>478</ele>
        <time>2018-06-03T08:51:53.000Z</time>
      </trkpt>
      <trkpt lat="44.5606" lon="4.22318">
        <ele>478</ele>
        <time>2018-06-03T08:51:54.000Z</time>
      </trkpt>
      <trkpt lat="44.56058" lon="4.22317">
        <ele>478</ele>
        <time>2018-06-03T08:51:55.000Z</time>
      </trkpt>
      <trkpt lat="44.56055" lon="4.22316">
        <ele>478</ele>
        <time>2018-06-03T08:51:56.000Z</time>
      </trkpt>
      <trkpt lat="44.56053" lon="4.22316">
        <ele>478</ele>
        <time>2018-06-03T08:51:57.000Z</time>
      </trkpt>
      <trkpt lat="44.5605" lon="4.22316">
        <ele>478</ele>
        <time>2018-06-03T08:51:58.000Z</time>
      </trkpt>
      <trkpt lat="44.56048" lon="4.22317">
        <ele>478</ele>
        <time>2018-06-03T08:51:59.000Z</time>
      </trkpt>
      <trkpt lat="44.56047" lon="4.22319">
        <ele>478</ele>
        <time>2018-06-03T08:52:00.000Z</time>
      </trkpt>
      <trkpt lat="44.56046" lon="4.22322">
        <ele>478</ele>
        <time>2018-06-03T08:52:01.000Z</time>
      </trkpt>
      <trkpt lat="44.56045" lon="4.22324">
        <ele>479</ele>
        <time>2018-06-03T08:52:02.000Z</time>
      </trkpt>
      <trkpt lat="44.56046" lon="4.22326">
        <ele>479</ele>
        <time>2018-06-03T08:52:03.000Z</time>
      </trkpt>
      <trkpt lat="44.56047" lon="4.22328">
        <ele>479</ele>
        <time>2018-06-03T08:52:04.000Z</time>
      </trkpt>
      <trkpt lat="44.56048" lon="4.22329">
        <ele>479</ele>
        <time>2018-06-03T08:52:05.000Z</time>
      </trkpt>
      <trkpt lat="44.5605" lon="4.2233">
        <ele>479</ele>
        <time>2018-06-03T08:52:06.000Z</time>
      </trkpt>
      <trkpt lat="44.56052" lon="4.22331">
        <ele>479</ele>
        <time>2018-06-03T08:52:07.000Z</time>
      </trkpt>
      <trkpt lat="44.56054" lon="4.22331">
        <ele>479</ele>
        <time>2018-06-03T08:52:08.000Z</time>
      </trkpt>
      <trkpt lat="44.56056" lon="4.22332">
        <ele>478</ele>
        <time>2018-06-03T08:52:09.000Z</time>
      </trkpt>
      <trkpt lat="44.56058" lon="4.22332">
        <ele>478</ele>
        <time>2018-06-03T08:52:10.000Z</time>
      </trkpt>
      <trkpt lat="44.5606" lon="4.22333">
        <ele>478</ele>
        <time>2018-06-03T08:52:11.000Z</time>
      </trkpt>
      <trkpt lat="44.56062" lon="4.22334">
        <ele>488</ele>
        <time>2018-06-03T08:52:12.000Z</time>
      </trkpt>
      <trkpt lat="44.56065" lon="4.22336">
        <ele>488</ele>
        <time>2018-06-03T08:52:13.000Z</time>
      </trkpt>
      <trkpt lat="44.56066" lon="4.22338">
        <ele>487</ele>
        <time>2018-06-03T08:52:14.000Z</time>
      </trkpt>
      <trkpt lat="44.56068" lon="4.2234">
        <ele>487</ele>
        <time>2018-06-03T08:52:15.000Z</time>
      </trkpt>
      <trkpt lat="44.5607" lon="4.22343">
        <ele>487</ele>
        <time>2018-06-03T08:52:16.000Z</time>
      </trkpt>
      <trkpt lat="44.56071" lon="4.22347">
        <ele>488</ele>
        <time>2018-06-03T08:52:17.000Z</time>
      </trkpt>
      <trkpt lat="44.56072" lon="4.2235">
        <ele>488</ele>
        <time>2018-06-03T08:52:18.000Z</time>
      </trkpt>
      <trkpt lat="44.56072" lon="4.22354">
        <ele>489</ele>
        <time>2018-06-03T08:52:19.000Z</time>
      </trkpt>
      <trkpt lat="44.56073" lon="4.22357">
        <ele>490</ele>
        <time>2018-06-03T08:52:20.000Z</time>
      </trkpt>
      <trkpt lat="44.56073" lon="4.22361">
        <ele>491</ele>
        <time>2018-06-03T08:52:21.000Z</time>
      </trkpt>
      <trkpt lat="44.56074" lon="4.22364">
        <ele>491</ele>
        <time>2018-06-03T08:52:22.000Z</time>
      </trkpt>
      <trkpt lat="44.56076" lon="4.22367">
        <ele>492</ele>
        <time>2018-06-03T08:52:23.000Z</time>
      </trkpt>
      <trkpt lat="44.56077" lon="4.22369">
        <ele>492</ele>
        <time>2018-06-03T08:52:24.000Z</time>
      </trkpt>
      <trkpt lat="44.56079" lon="4.22371">
        <ele>492</ele>
        <time>2018-06-03T08:52:25.000Z</time>
      </trkpt>
      <trkpt lat="44.56081" lon="4.22373">
        <ele>493</ele>
        <time>2018-06-03T08:52:26.000Z</time>
      </trkpt>
      <trkpt lat="44.56083" lon="4.22374">
        <ele>493</ele>
        <time>2018-06-03T08:52:27.000Z</time>
      </trkpt>
      <trkpt lat="44.56085" lon="4.22375">
        <ele>484</ele>
        <time>2018-06-03T08:52:28.000Z</time>
      </trkpt>
      <trkpt lat="44.56088" lon="4.22375">
        <ele>484</ele>
        <time>2018-06-03T08:52:29.000Z</time>
      </trkpt>
      <trkpt lat="44.5609" lon="4.22375">
        <ele>483</ele>
        <time>2018-06-03T08:52:30.000Z</time>
      </trkpt>
      <trkpt lat="44.56092" lon="4.22375">
        <ele>483</ele>
        <time>2018-06-03T08:52:31.000Z</time>
      </trkpt>
      <trkpt lat="44.56094" lon="4.22375">
        <ele>483</ele>
        <time>2018-06-03T08:52:32.000Z</time>
      </trkpt>
      <trkpt lat="44.56097" lon="4.22374">
        <ele>483</ele>
        <time>2018-06-03T08:52:33.000Z</time>
      </trkpt>
      <trkpt lat="44.56099" lon="4.22374">
        <ele>483</ele>
        <time>2018-06-03T08:52:34.000Z</time>
      </trkpt>
      <trkpt lat="44.56102" lon="4.22374">
        <ele>483</ele>
        <time>2018-06-03T08:52:35.000Z</time>
      </trkpt>
      <trkpt lat="44.56105" lon="4.22374">
        <ele>482</ele>
        <time>2018-06-03T08:52:36.000Z</time>
      </trkpt>
      <trkpt lat="44.56107" lon="4.22374">
        <ele>482</ele>
        <time>2018-06-03T08:52:37.000Z</time>
      </trkpt>
      <trkpt lat="44.5611" lon="4.22375">
        <ele>482</ele>
        <time>2018-06-03T08:52:38.000Z</time>
      </trkpt>
      <trkpt lat="44.56113" lon="4.22375">
        <ele>482</ele>
        <time>2018-06-03T08:52:39.000Z</time>
      </trkpt>
      <trkpt lat="44.56115" lon="4.22375">
        <ele>481</ele>
        <time>2018-06-03T08:52:40.000Z</time>
      </trkpt>
      <trkpt lat="44.56117" lon="4.22375">
        <ele>481</ele>
        <time>2018-06-03T08:52:41.000Z</time>
      </trkpt>
      <trkpt lat="44.56119" lon="4.22376">
        <ele>481</ele>
        <time>2018-06-03T08:52:42.000Z</time>
      </trkpt>
      <trkpt lat="44.56121" lon="4.22377">
        <ele>481</ele>
        <time>2018-06-03T08:52:43.000Z</time>
      </trkpt>
      <trkpt lat="44.56123" lon="4.22379">
        <ele>481</ele>
        <time>2018-06-03T08:52:44.000Z</time>
      </trkpt>
      <trkpt lat="44.56123" lon="4.22379">
        <ele>481</ele>
        <time>2018-06-03T08:52:45.000Z</time>
      </trkpt>
      <trkpt lat="44.56125" lon="4.22381">
        <ele>481</ele>
        <time>2018-06-03T08:52:46.000Z</time>
      </trkpt>
      <trkpt lat="44.56126" lon="4.22383">
        <ele>481</ele>
        <time>2018-06-03T08:52:47.000Z</time>
      </trkpt>
      <trkpt lat="44.56128" lon="4.22385">
        <ele>481</ele>
        <time>2018-06-03T08:52:48.000Z</time>
      </trkpt>
      <trkpt lat="44.56129" lon="4.22388">
        <ele>481</ele>
        <time>2018-06-03T08:52:49.000Z</time>
      </trkpt>
      <trkpt lat="44.5613" lon="4.2239">
        <ele>481</ele>
        <time>2018-06-03T08:52:50.000Z</time>
      </trkpt>
      <trkpt lat="44.5613" lon="4.22393">
        <ele>481</ele>
        <time>2018-06-03T08:52:51.000Z</time>
      </trkpt>
      <trkpt lat="44.56131" lon="4.22395">
        <ele>481</ele>
        <time>2018-06-03T08:52:52.000Z</time>
      </trkpt>
      <trkpt lat="44.56131" lon="4.22398">
        <ele>481</ele>
        <time>2018-06-03T08:52:53.000Z</time>
      </trkpt>
      <trkpt lat="44.56132" lon="4.22401">
        <ele>481</ele>
        <time>2018-06-03T08:52:54.000Z</time>
      </trkpt>
      <trkpt lat="44.56132" lon="4.22403">
        <ele>481</ele>
        <time>2018-06-03T08:52:55.000Z</time>
      </trkpt>
      <trkpt lat="44.56133" lon="4.22407">
        <ele>481</ele>
        <time>2018-06-03T08:52:56.000Z</time>
      </trkpt>
      <trkpt lat="44.56133" lon="4.2241">
        <ele>481</ele>
        <time>2018-06-03T08:52:57.000Z</time>
      </trkpt>
      <trkpt lat="44.56134" lon="4.22413">
        <ele>481</ele>
        <time>2018-06-03T08:52:58.000Z</time>
      </trkpt>
      <trkpt lat="44.56135" lon="4.22415">
        <ele>481</ele>
        <time>2018-06-03T08:52:59.000Z</time>
      </trkpt>
      <trkpt lat="44.56136" lon="4.22418">
        <ele>485</ele>
        <time>2018-06-03T08:53:00.000Z</time>
      </trkpt>
      <trkpt lat="44.56137" lon="4.22421">
        <ele>484</ele>
        <time>2018-06-03T08:53:01.000Z</time>
      </trkpt>
      <trkpt lat="44.56138" lon="4.22424">
        <ele>484</ele>
        <time>2018-06-03T08:53:02.000Z</time>
      </trkpt>
      <trkpt lat="44.56139" lon="4.22427">
        <ele>484</ele>
        <time>2018-06-03T08:53:03.000Z</time>
      </trkpt>
      <trkpt lat="44.56139" lon="4.2243">
        <ele>484</ele>
        <time>2018-06-03T08:53:04.000Z</time>
      </trkpt>
      <trkpt lat="44.5614" lon="4.22438">
        <ele>484</ele>
        <time>2018-06-03T08:53:05.000Z</time>
      </trkpt>
      <trkpt lat="44.5614" lon="4.22438">
        <ele>484</ele>
        <time>2018-06-03T08:53:06.000Z</time>
      </trkpt>
      <trkpt lat="44.56139" lon="4.22441">
        <ele>485</ele>
        <time>2018-06-03T08:53:07.000Z</time>
      </trkpt>
      <trkpt lat="44.56139" lon="4.22445">
        <ele>485</ele>
        <time>2018-06-03T08:53:08.000Z</time>
      </trkpt>
      <trkpt lat="44.56138" lon="4.22449">
        <ele>485</ele>
        <time>2018-06-03T08:53:09.000Z</time>
      </trkpt>
      <trkpt lat="44.56137" lon="4.22452">
        <ele>485</ele>
        <time>2018-06-03T08:53:10.000Z</time>
      </trkpt>
      <trkpt lat="44.56135" lon="4.22455">
        <ele>486</ele>
        <time>2018-06-03T08:53:11.000Z</time>
      </trkpt>
      <trkpt lat="44.56134" lon="4.22459">
        <ele>486</ele>
        <time>2018-06-03T08:53:12.000Z</time>
      </trkpt>
      <trkpt lat="44.56133" lon="4.22462">
        <ele>486</ele>
        <time>2018-06-03T08:53:13.000Z</time>
      </trkpt>
      <trkpt lat="44.56132" lon="4.22465">
        <ele>486</ele>
        <time>2018-06-03T08:53:14.000Z</time>
      </trkpt>
      <trkpt lat="44.5613" lon="4.22468">
        <ele>486</ele>
        <time>2018-06-03T08:53:15.000Z</time>
      </trkpt>
      <trkpt lat="44.56127" lon="4.22474">
        <ele>487</ele>
        <time>2018-06-03T08:53:16.000Z</time>
      </trkpt>
      <trkpt lat="44.56125" lon="4.22477">
        <ele>487</ele>
        <time>2018-06-03T08:53:17.000Z</time>
      </trkpt>
      <trkpt lat="44.56123" lon="4.22478">
        <ele>488</ele>
        <time>2018-06-03T08:53:18.000Z</time>
      </trkpt>
      <trkpt lat="44.56121" lon="4.22478">
        <ele>488</ele>
        <time>2018-06-03T08:53:19.000Z</time>
      </trkpt>
      <trkpt lat="44.56121" lon="4.22478">
        <ele>488</ele>
        <time>2018-06-03T08:53:20.000Z</time>
      </trkpt>
      <trkpt lat="44.5612" lon="4.22478">
        <ele>488</ele>
        <time>2018-06-03T08:53:21.000Z</time>
      </trkpt>
      <trkpt lat="44.56119" lon="4.22477">
        <ele>489</ele>
        <time>2018-06-03T08:53:22.000Z</time>
      </trkpt>
      <trkpt lat="44.56118" lon="4.22476">
        <ele>489</ele>
        <time>2018-06-03T08:53:23.000Z</time>
      </trkpt>
      <trkpt lat="44.56118" lon="4.22474">
        <ele>489</ele>
        <time>2018-06-03T08:53:24.000Z</time>
      </trkpt>
      <trkpt lat="44.56118" lon="4.22473">
        <ele>489</ele>
        <time>2018-06-03T08:53:25.000Z</time>
      </trkpt>
      <trkpt lat="44.56118" lon="4.22472">
        <ele>489</ele>
        <time>2018-06-03T08:53:26.000Z</time>
      </trkpt>
      <trkpt lat="44.56118" lon="4.2247">
        <ele>489</ele>
        <time>2018-06-03T08:53:27.000Z</time>
      </trkpt>
      <trkpt lat="44.56118" lon="4.22469">
        <ele>489</ele>
        <time>2018-06-03T08:53:28.000Z</time>
      </trkpt>
      <trkpt lat="44.56119" lon="4.22467">
        <ele>488</ele>
        <time>2018-06-03T08:53:29.000Z</time>
      </trkpt>
      <trkpt lat="44.56121" lon="4.22465">
        <ele>488</ele>
        <time>2018-06-03T08:53:30.000Z</time>
      </trkpt>
      <trkpt lat="44.56122" lon="4.22463">
        <ele>488</ele>
        <time>2018-06-03T08:53:31.000Z</time>
      </trkpt>
      <trkpt lat="44.56122" lon="4.22461">
        <ele>488</ele>
        <time>2018-06-03T08:53:32.000Z</time>
      </trkpt>
      <trkpt lat="44.56123" lon="4.22458">
        <ele>488</ele>
        <time>2018-06-03T08:53:33.000Z</time>
      </trkpt>
      <trkpt lat="44.56123" lon="4.22454">
        <ele>488</ele>
        <time>2018-06-03T08:53:34.000Z</time>
      </trkpt>
      <trkpt lat="44.56123" lon="4.22451">
        <ele>488</ele>
        <time>2018-06-03T08:53:35.000Z</time>
      </trkpt>
      <trkpt lat="44.56122" lon="4.22448">
        <ele>488</ele>
        <time>2018-06-03T08:53:36.000Z</time>
      </trkpt>
      <trkpt lat="44.56122" lon="4.22446">
        <ele>488</ele>
        <time>2018-06-03T08:53:37.000Z</time>
      </trkpt>
      <trkpt lat="44.56121" lon="4.22443">
        <ele>488</ele>
        <time>2018-06-03T08:53:38.000Z</time>
      </trkpt>
      <trkpt lat="44.5612" lon="4.22441">
        <ele>488</ele>
        <time>2018-06-03T08:53:39.000Z</time>
      </trkpt>
      <trkpt lat="44.56119" lon="4.22439">
        <ele>488</ele>
        <time>2018-06-03T08:53:40.000Z</time>
      </trkpt>
      <trkpt lat="44.56118" lon="4.22437">
        <ele>489</ele>
        <time>2018-06-03T08:53:41.000Z</time>
      </trkpt>
      <trkpt lat="44.56116" lon="4.22436">
        <ele>489</ele>
        <time>2018-06-03T08:53:42.000Z</time>
      </trkpt>
      <trkpt lat="44.56114" lon="4.22435">
        <ele>489</ele>
        <time>2018-06-03T08:53:43.000Z</time>
      </trkpt>
      <trkpt lat="44.56111" lon="4.22434">
        <ele>490</ele>
        <time>2018-06-03T08:53:44.000Z</time>
      </trkpt>
      <trkpt lat="44.56109" lon="4.22433">
        <ele>490</ele>
        <time>2018-06-03T08:53:45.000Z</time>
      </trkpt>
      <trkpt lat="44.56107" lon="4.22432">
        <ele>491</ele>
        <time>2018-06-03T08:53:46.000Z</time>
      </trkpt>
      <trkpt lat="44.56105" lon="4.22432">
        <ele>491</ele>
        <time>2018-06-03T08:53:47.000Z</time>
      </trkpt>
      <trkpt lat="44.56103" lon="4.22432">
        <ele>492</ele>
        <time>2018-06-03T08:53:48.000Z</time>
      </trkpt>
      <trkpt lat="44.561" lon="4.22431">
        <ele>492</ele>
        <time>2018-06-03T08:53:49.000Z</time>
      </trkpt>
      <trkpt lat="44.56098" lon="4.2243">
        <ele>493</ele>
        <time>2018-06-03T08:53:50.000Z</time>
      </trkpt>
      <trkpt lat="44.56096" lon="4.2243">
        <ele>493</ele>
        <time>2018-06-03T08:53:51.000Z</time>
      </trkpt>
      <trkpt lat="44.56093" lon="4.22429">
        <ele>494</ele>
        <time>2018-06-03T08:53:52.000Z</time>
      </trkpt>
      <trkpt lat="44.56091" lon="4.22429">
        <ele>494</ele>
        <time>2018-06-03T08:53:53.000Z</time>
      </trkpt>
      <trkpt lat="44.56089" lon="4.22429">
        <ele>495</ele>
        <time>2018-06-03T08:53:54.000Z</time>
      </trkpt>
      <trkpt lat="44.56087" lon="4.22429">
        <ele>495</ele>
        <time>2018-06-03T08:53:55.000Z</time>
      </trkpt>
      <trkpt lat="44.56084" lon="4.22428">
        <ele>495</ele>
        <time>2018-06-03T08:53:56.000Z</time>
      </trkpt>
      <trkpt lat="44.56082" lon="4.22428">
        <ele>502</ele>
        <time>2018-06-03T08:53:57.000Z</time>
      </trkpt>
      <trkpt lat="44.56079" lon="4.22427">
        <ele>503</ele>
        <time>2018-06-03T08:53:58.000Z</time>
      </trkpt>
      <trkpt lat="44.56077" lon="4.22426">
        <ele>503</ele>
        <time>2018-06-03T08:53:59.000Z</time>
      </trkpt>
      <trkpt lat="44.56075" lon="4.22425">
        <ele>503</ele>
        <time>2018-06-03T08:54:00.000Z</time>
      </trkpt>
      <trkpt lat="44.56072" lon="4.22424">
        <ele>503</ele>
        <time>2018-06-03T08:54:01.000Z</time>
      </trkpt>
      <trkpt lat="44.5607" lon="4.22423">
        <ele>503</ele>
        <time>2018-06-03T08:54:02.000Z</time>
      </trkpt>
      <trkpt lat="44.56069" lon="4.22422">
        <ele>504</ele>
        <time>2018-06-03T08:54:03.000Z</time>
      </trkpt>
      <trkpt lat="44.56067" lon="4.22422">
        <ele>504</ele>
        <time>2018-06-03T08:54:04.000Z</time>
      </trkpt>
      <trkpt lat="44.56065" lon="4.22421">
        <ele>504</ele>
        <time>2018-06-03T08:54:05.000Z</time>
      </trkpt>
      <trkpt lat="44.56062" lon="4.22421">
        <ele>505</ele>
        <time>2018-06-03T08:54:06.000Z</time>
      </trkpt>
      <trkpt lat="44.5606" lon="4.2242">
        <ele>505</ele>
        <time>2018-06-03T08:54:07.000Z</time>
      </trkpt>
      <trkpt lat="44.56057" lon="4.2242">
        <ele>506</ele>
        <time>2018-06-03T08:54:08.000Z</time>
      </trkpt>
      <trkpt lat="44.56055" lon="4.22421">
        <ele>506</ele>
        <time>2018-06-03T08:54:09.000Z</time>
      </trkpt>
      <trkpt lat="44.56054" lon="4.22423">
        <ele>506</ele>
        <time>2018-06-03T08:54:10.000Z</time>
      </trkpt>
      <trkpt lat="44.56053" lon="4.22426">
        <ele>507</ele>
        <time>2018-06-03T08:54:11.000Z</time>
      </trkpt>
      <trkpt lat="44.56053" lon="4.22428">
        <ele>507</ele>
        <time>2018-06-03T08:54:12.000Z</time>
      </trkpt>
      <trkpt lat="44.56053" lon="4.2243">
        <ele>507</ele>
        <time>2018-06-03T08:54:13.000Z</time>
      </trkpt>
      <trkpt lat="44.56053" lon="4.22431">
        <ele>507</ele>
        <time>2018-06-03T08:54:14.000Z</time>
      </trkpt>
      <trkpt lat="44.56054" lon="4.22432">
        <ele>507</ele>
        <time>2018-06-03T08:54:15.000Z</time>
      </trkpt>
      <trkpt lat="44.56055" lon="4.22433">
        <ele>507</ele>
        <time>2018-06-03T08:54:16.000Z</time>
      </trkpt>
      <trkpt lat="44.56058" lon="4.22434">
        <ele>506</ele>
        <time>2018-06-03T08:54:17.000Z</time>
      </trkpt>
      <trkpt lat="44.56062" lon="4.22435">
        <ele>506</ele>
        <time>2018-06-03T08:54:18.000Z</time>
      </trkpt>
      <trkpt lat="44.56065" lon="4.22436">
        <ele>506</ele>
        <time>2018-06-03T08:54:19.000Z</time>
      </trkpt>
      <trkpt lat="44.56067" lon="4.22437">
        <ele>505</ele>
        <time>2018-06-03T08:54:20.000Z</time>
      </trkpt>
      <trkpt lat="44.56069" lon="4.22438">
        <ele>505</ele>
        <time>2018-06-03T08:54:21.000Z</time>
      </trkpt>
      <trkpt lat="44.56072" lon="4.2244">
        <ele>505</ele>
        <time>2018-06-03T08:54:22.000Z</time>
      </trkpt>
      <trkpt lat="44.56074" lon="4.22441">
        <ele>505</ele>
        <time>2018-06-03T08:54:23.000Z</time>
      </trkpt>
      <trkpt lat="44.56076" lon="4.22443">
        <ele>505</ele>
        <time>2018-06-03T08:54:24.000Z</time>
      </trkpt>
      <trkpt lat="44.56078" lon="4.22445">
        <ele>506</ele>
        <time>2018-06-03T08:54:25.000Z</time>
      </trkpt>
      <trkpt lat="44.56079" lon="4.22448">
        <ele>506</ele>
        <time>2018-06-03T08:54:26.000Z</time>
      </trkpt>
      <trkpt lat="44.5608" lon="4.22449">
        <ele>506</ele>
        <time>2018-06-03T08:54:27.000Z</time>
      </trkpt>
      <trkpt lat="44.5608" lon="4.22452">
        <ele>506</ele>
        <time>2018-06-03T08:54:28.000Z</time>
      </trkpt>
      <trkpt lat="44.56081" lon="4.22454">
        <ele>506</ele>
        <time>2018-06-03T08:54:29.000Z</time>
      </trkpt>
      <trkpt lat="44.56081" lon="4.22457">
        <ele>506</ele>
        <time>2018-06-03T08:54:30.000Z</time>
      </trkpt>
      <trkpt lat="44.56081" lon="4.22457">
        <ele>506</ele>
        <time>2018-06-03T08:54:31.000Z</time>
      </trkpt>
      <trkpt lat="44.56081" lon="4.2246">
        <ele>506</ele>
        <time>2018-06-03T08:54:32.000Z</time>
      </trkpt>
      <trkpt lat="44.56081" lon="4.22463">
        <ele>507</ele>
        <time>2018-06-03T08:54:33.000Z</time>
      </trkpt>
      <trkpt lat="44.56081" lon="4.22465">
        <ele>507</ele>
        <time>2018-06-03T08:54:34.000Z</time>
      </trkpt>
      <trkpt lat="44.56081" lon="4.22469">
        <ele>507</ele>
        <time>2018-06-03T08:54:35.000Z</time>
      </trkpt>
      <trkpt lat="44.56081" lon="4.22472">
        <ele>507</ele>
        <time>2018-06-03T08:54:36.000Z</time>
      </trkpt>
      <trkpt lat="44.5608" lon="4.22475">
        <ele>507</ele>
        <time>2018-06-03T08:54:37.000Z</time>
      </trkpt>
      <trkpt lat="44.56079" lon="4.22478">
        <ele>507</ele>
        <time>2018-06-03T08:54:38.000Z</time>
      </trkpt>
      <trkpt lat="44.56079" lon="4.2248">
        <ele>507</ele>
        <time>2018-06-03T08:54:39.000Z</time>
      </trkpt>
      <trkpt lat="44.56077" lon="4.22483">
        <ele>506</ele>
        <time>2018-06-03T08:54:40.000Z</time>
      </trkpt>
      <trkpt lat="44.56076" lon="4.22486">
        <ele>506</ele>
        <time>2018-06-03T08:54:41.000Z</time>
      </trkpt>
      <trkpt lat="44.56075" lon="4.22489">
        <ele>506</ele>
        <time>2018-06-03T08:54:42.000Z</time>
      </trkpt>
      <trkpt lat="44.56073" lon="4.22492">
        <ele>506</ele>
        <time>2018-06-03T08:54:43.000Z</time>
      </trkpt>
      <trkpt lat="44.56072" lon="4.22494">
        <ele>506</ele>
        <time>2018-06-03T08:54:44.000Z</time>
      </trkpt>
      <trkpt lat="44.56071" lon="4.22498">
        <ele>506</ele>
        <time>2018-06-03T08:54:45.000Z</time>
      </trkpt>
      <trkpt lat="44.56069" lon="4.225">
        <ele>507</ele>
        <time>2018-06-03T08:54:46.000Z</time>
      </trkpt>
      <trkpt lat="44.56068" lon="4.22503">
        <ele>508</ele>
        <time>2018-06-03T08:54:47.000Z</time>
      </trkpt>
      <trkpt lat="44.56067" lon="4.22506">
        <ele>508</ele>
        <time>2018-06-03T08:54:48.000Z</time>
      </trkpt>
      <trkpt lat="44.56066" lon="4.22509">
        <ele>508</ele>
        <time>2018-06-03T08:54:49.000Z</time>
      </trkpt>
      <trkpt lat="44.56065" lon="4.22512">
        <ele>509</ele>
        <time>2018-06-03T08:54:50.000Z</time>
      </trkpt>
      <trkpt lat="44.56064" lon="4.22515">
        <ele>509</ele>
        <time>2018-06-03T08:54:51.000Z</time>
      </trkpt>
      <trkpt lat="44.56063" lon="4.22518">
        <ele>509</ele>
        <time>2018-06-03T08:54:52.000Z</time>
      </trkpt>
      <trkpt lat="44.56063" lon="4.22522">
        <ele>509</ele>
        <time>2018-06-03T08:54:53.000Z</time>
      </trkpt>
      <trkpt lat="44.56062" lon="4.22525">
        <ele>509</ele>
        <time>2018-06-03T08:54:54.000Z</time>
      </trkpt>
      <trkpt lat="44.56061" lon="4.22529">
        <ele>509</ele>
        <time>2018-06-03T08:54:55.000Z</time>
      </trkpt>
      <trkpt lat="44.56061" lon="4.22532">
        <ele>510</ele>
        <time>2018-06-03T08:54:56.000Z</time>
      </trkpt>
      <trkpt lat="44.5606" lon="4.22535">
        <ele>510</ele>
        <time>2018-06-03T08:54:57.000Z</time>
      </trkpt>
      <trkpt lat="44.5606" lon="4.22538">
        <ele>510</ele>
        <time>2018-06-03T08:54:58.000Z</time>
      </trkpt>
      <trkpt lat="44.56059" lon="4.22541">
        <ele>510</ele>
        <time>2018-06-03T08:54:59.000Z</time>
      </trkpt>
      <trkpt lat="44.56059" lon="4.22543">
        <ele>510</ele>
        <time>2018-06-03T08:55:00.000Z</time>
      </trkpt>
      <trkpt lat="44.56058" lon="4.22546">
        <ele>510</ele>
        <time>2018-06-03T08:55:01.000Z</time>
      </trkpt>
      <trkpt lat="44.56058" lon="4.22549">
        <ele>509</ele>
        <time>2018-06-03T08:55:02.000Z</time>
      </trkpt>
      <trkpt lat="44.56058" lon="4.22552">
        <ele>509</ele>
        <time>2018-06-03T08:55:03.000Z</time>
      </trkpt>
      <trkpt lat="44.56058" lon="4.22555">
        <ele>509</ele>
        <time>2018-06-03T08:55:04.000Z</time>
      </trkpt>
      <trkpt lat="44.56057" lon="4.22557">
        <ele>509</ele>
        <time>2018-06-03T08:55:05.000Z</time>
      </trkpt>
      <trkpt lat="44.56057" lon="4.22561">
        <ele>509</ele>
        <time>2018-06-03T08:55:06.000Z</time>
      </trkpt>
      <trkpt lat="44.56056" lon="4.22564">
        <ele>509</ele>
        <time>2018-06-03T08:55:07.000Z</time>
      </trkpt>
      <trkpt lat="44.56056" lon="4.22567">
        <ele>509</ele>
        <time>2018-06-03T08:55:08.000Z</time>
      </trkpt>
      <trkpt lat="44.56055" lon="4.2257">
        <ele>509</ele>
        <time>2018-06-03T08:55:09.000Z</time>
      </trkpt>
      <trkpt lat="44.56054" lon="4.22573">
        <ele>509</ele>
        <time>2018-06-03T08:55:10.000Z</time>
      </trkpt>
      <trkpt lat="44.56053" lon="4.22576">
        <ele>509</ele>
        <time>2018-06-03T08:55:11.000Z</time>
      </trkpt>
      <trkpt lat="44.56053" lon="4.22579">
        <ele>509</ele>
        <time>2018-06-03T08:55:12.000Z</time>
      </trkpt>
      <trkpt lat="44.56051" lon="4.22582">
        <ele>509</ele>
        <time>2018-06-03T08:55:13.000Z</time>
      </trkpt>
      <trkpt lat="44.56051" lon="4.22585">
        <ele>506</ele>
        <time>2018-06-03T08:55:14.000Z</time>
      </trkpt>
      <trkpt lat="44.5605" lon="4.22588">
        <ele>506</ele>
        <time>2018-06-03T08:55:15.000Z</time>
      </trkpt>
      <trkpt lat="44.56049" lon="4.22592">
        <ele>506</ele>
        <time>2018-06-03T08:55:16.000Z</time>
      </trkpt>
      <trkpt lat="44.56049" lon="4.22595">
        <ele>506</ele>
        <time>2018-06-03T08:55:17.000Z</time>
      </trkpt>
      <trkpt lat="44.56049" lon="4.22598">
        <ele>506</ele>
        <time>2018-06-03T08:55:18.000Z</time>
      </trkpt>
      <trkpt lat="44.56048" lon="4.22601">
        <ele>506</ele>
        <time>2018-06-03T08:55:19.000Z</time>
      </trkpt>
      <trkpt lat="44.56049" lon="4.22605">
        <ele>506</ele>
        <time>2018-06-03T08:55:20.000Z</time>
      </trkpt>
      <trkpt lat="44.56049" lon="4.22608">
        <ele>506</ele>
        <time>2018-06-03T08:55:21.000Z</time>
      </trkpt>
      <trkpt lat="44.56049" lon="4.2261">
        <ele>506</ele>
        <time>2018-06-03T08:55:22.000Z</time>
      </trkpt>
      <trkpt lat="44.56048" lon="4.22613">
        <ele>505</ele>
        <time>2018-06-03T08:55:23.000Z</time>
      </trkpt>
      <trkpt lat="44.56047" lon="4.22616">
        <ele>505</ele>
        <time>2018-06-03T08:55:24.000Z</time>
      </trkpt>
      <trkpt lat="44.56046" lon="4.22618">
        <ele>505</ele>
        <time>2018-06-03T08:55:25.000Z</time>
      </trkpt>
      <trkpt lat="44.56045" lon="4.2262">
        <ele>505</ele>
        <time>2018-06-03T08:55:26.000Z</time>
      </trkpt>
      <trkpt lat="44.56043" lon="4.22622">
        <ele>505</ele>
        <time>2018-06-03T08:55:27.000Z</time>
      </trkpt>
      <trkpt lat="44.56042" lon="4.22623">
        <ele>505</ele>
        <time>2018-06-03T08:55:28.000Z</time>
      </trkpt>
      <trkpt lat="44.56041" lon="4.22624">
        <ele>505</ele>
        <time>2018-06-03T08:55:29.000Z</time>
      </trkpt>
      <trkpt lat="44.5604" lon="4.22624">
        <ele>505</ele>
        <time>2018-06-03T08:55:30.000Z</time>
      </trkpt>
      <trkpt lat="44.56039" lon="4.22623">
        <ele>505</ele>
        <time>2018-06-03T08:55:31.000Z</time>
      </trkpt>
      <trkpt lat="44.56038" lon="4.22622">
        <ele>506</ele>
        <time>2018-06-03T08:55:32.000Z</time>
      </trkpt>
      <trkpt lat="44.56037" lon="4.22622">
        <ele>506</ele>
        <time>2018-06-03T08:55:33.000Z</time>
      </trkpt>
      <trkpt lat="44.56036" lon="4.22621">
        <ele>506</ele>
        <time>2018-06-03T08:55:34.000Z</time>
      </trkpt>
      <trkpt lat="44.56036" lon="4.22621">
        <ele>506</ele>
        <time>2018-06-03T08:55:35.000Z</time>
      </trkpt>
      <trkpt lat="44.56035" lon="4.2262">
        <ele>506</ele>
        <time>2018-06-03T08:55:36.000Z</time>
      </trkpt>
      <trkpt lat="44.56035" lon="4.22618">
        <ele>506</ele>
        <time>2018-06-03T08:55:37.000Z</time>
      </trkpt>
      <trkpt lat="44.56034" lon="4.22616">
        <ele>506</ele>
        <time>2018-06-03T08:55:38.000Z</time>
      </trkpt>
      <trkpt lat="44.56033" lon="4.22614">
        <ele>506</ele>
        <time>2018-06-03T08:55:39.000Z</time>
      </trkpt>
      <trkpt lat="44.56031" lon="4.22611">
        <ele>507</ele>
        <time>2018-06-03T08:55:40.000Z</time>
      </trkpt>
      <trkpt lat="44.5603" lon="4.22608">
        <ele>507</ele>
        <time>2018-06-03T08:55:41.000Z</time>
      </trkpt>
      <trkpt lat="44.56029" lon="4.22606">
        <ele>507</ele>
        <time>2018-06-03T08:55:42.000Z</time>
      </trkpt>
      <trkpt lat="44.56027" lon="4.22604">
        <ele>508</ele>
        <time>2018-06-03T08:55:43.000Z</time>
      </trkpt>
      <trkpt lat="44.56026" lon="4.22602">
        <ele>508</ele>
        <time>2018-06-03T08:55:44.000Z</time>
      </trkpt>
      <trkpt lat="44.56025" lon="4.226">
        <ele>508</ele>
        <time>2018-06-03T08:55:45.000Z</time>
      </trkpt>
      <trkpt lat="44.56024" lon="4.22599">
        <ele>509</ele>
        <time>2018-06-03T08:55:46.000Z</time>
      </trkpt>
      <trkpt lat="44.56022" lon="4.22597">
        <ele>509</ele>
        <time>2018-06-03T08:55:47.000Z</time>
      </trkpt>
      <trkpt lat="44.56021" lon="4.22596">
        <ele>509</ele>
        <time>2018-06-03T08:55:48.000Z</time>
      </trkpt>
      <trkpt lat="44.56019" lon="4.22595">
        <ele>510</ele>
        <time>2018-06-03T08:55:49.000Z</time>
      </trkpt>
      <trkpt lat="44.56018" lon="4.22594">
        <ele>510</ele>
        <time>2018-06-03T08:55:50.000Z</time>
      </trkpt>
      <trkpt lat="44.56016" lon="4.22593">
        <ele>511</ele>
        <time>2018-06-03T08:55:51.000Z</time>
      </trkpt>
      <trkpt lat="44.56015" lon="4.22593">
        <ele>511</ele>
        <time>2018-06-03T08:55:52.000Z</time>
      </trkpt>
      <trkpt lat="44.56014" lon="4.22593">
        <ele>511</ele>
        <time>2018-06-03T08:55:53.000Z</time>
      </trkpt>
      <trkpt lat="44.56013" lon="4.22593">
        <ele>511</ele>
        <time>2018-06-03T08:55:54.000Z</time>
      </trkpt>
      <trkpt lat="44.56011" lon="4.22592">
        <ele>512</ele>
        <time>2018-06-03T08:55:55.000Z</time>
      </trkpt>
      <trkpt lat="44.56009" lon="4.22592">
        <ele>512</ele>
        <time>2018-06-03T08:55:56.000Z</time>
      </trkpt>
      <trkpt lat="44.56007" lon="4.22592">
        <ele>513</ele>
        <time>2018-06-03T08:55:57.000Z</time>
      </trkpt>
      <trkpt lat="44.56005" lon="4.22592">
        <ele>513</ele>
        <time>2018-06-03T08:55:58.000Z</time>
      </trkpt>
      <trkpt lat="44.56003" lon="4.22593">
        <ele>513</ele>
        <time>2018-06-03T08:55:59.000Z</time>
      </trkpt>
      <trkpt lat="44.56001" lon="4.22594">
        <ele>513</ele>
        <time>2018-06-03T08:56:00.000Z</time>
      </trkpt>
      <trkpt lat="44.55999" lon="4.22596">
        <ele>510</ele>
        <time>2018-06-03T08:56:01.000Z</time>
      </trkpt>
      <trkpt lat="44.55996" lon="4.22598">
        <ele>509</ele>
        <time>2018-06-03T08:56:02.000Z</time>
      </trkpt>
      <trkpt lat="44.55993" lon="4.22599">
        <ele>508</ele>
        <time>2018-06-03T08:56:03.000Z</time>
      </trkpt>
      <trkpt lat="44.55989" lon="4.22595">
        <ele>509</ele>
        <time>2018-06-03T08:56:04.000Z</time>
      </trkpt>
      <trkpt lat="44.55988" lon="4.22593">
        <ele>509</ele>
        <time>2018-06-03T08:56:05.000Z</time>
      </trkpt>
      <trkpt lat="44.55986" lon="4.2259">
        <ele>509</ele>
        <time>2018-06-03T08:56:06.000Z</time>
      </trkpt>
      <trkpt lat="44.55983" lon="4.22587">
        <ele>508</ele>
        <time>2018-06-03T08:56:07.000Z</time>
      </trkpt>
      <trkpt lat="44.55981" lon="4.22584">
        <ele>508</ele>
        <time>2018-06-03T08:56:08.000Z</time>
      </trkpt>
      <trkpt lat="44.55979" lon="4.22582">
        <ele>515</ele>
        <time>2018-06-03T08:56:09.000Z</time>
      </trkpt>
      <trkpt lat="44.55976" lon="4.22578">
        <ele>515</ele>
        <time>2018-06-03T08:56:10.000Z</time>
      </trkpt>
      <trkpt lat="44.55973" lon="4.22575">
        <ele>514</ele>
        <time>2018-06-03T08:56:11.000Z</time>
      </trkpt>
      <trkpt lat="44.55971" lon="4.22573">
        <ele>514</ele>
        <time>2018-06-03T08:56:12.000Z</time>
      </trkpt>
      <trkpt lat="44.55968" lon="4.22572">
        <ele>514</ele>
        <time>2018-06-03T08:56:13.000Z</time>
      </trkpt>
      <trkpt lat="44.55966" lon="4.22572">
        <ele>514</ele>
        <time>2018-06-03T08:56:14.000Z</time>
      </trkpt>
      <trkpt lat="44.55966" lon="4.22572">
        <ele>514</ele>
        <time>2018-06-03T08:56:15.000Z</time>
      </trkpt>
      <trkpt lat="44.55963" lon="4.22571">
        <ele>513</ele>
        <time>2018-06-03T08:56:16.000Z</time>
      </trkpt>
      <trkpt lat="44.55961" lon="4.2257">
        <ele>513</ele>
        <time>2018-06-03T08:56:17.000Z</time>
      </trkpt>
      <trkpt lat="44.55958" lon="4.2257">
        <ele>513</ele>
        <time>2018-06-03T08:56:18.000Z</time>
      </trkpt>
      <trkpt lat="44.55956" lon="4.22568">
        <ele>513</ele>
        <time>2018-06-03T08:56:19.000Z</time>
      </trkpt>
      <trkpt lat="44.55953" lon="4.22565">
        <ele>513</ele>
        <time>2018-06-03T08:56:20.000Z</time>
      </trkpt>
      <trkpt lat="44.55951" lon="4.22562">
        <ele>512</ele>
        <time>2018-06-03T08:56:21.000Z</time>
      </trkpt>
      <trkpt lat="44.55948" lon="4.22559">
        <ele>512</ele>
        <time>2018-06-03T08:56:22.000Z</time>
      </trkpt>
      <trkpt lat="44.55945" lon="4.22556">
        <ele>512</ele>
        <time>2018-06-03T08:56:23.000Z</time>
      </trkpt>
      <trkpt lat="44.55943" lon="4.22553">
        <ele>512</ele>
        <time>2018-06-03T08:56:24.000Z</time>
      </trkpt>
      <trkpt lat="44.55941" lon="4.2255">
        <ele>513</ele>
        <time>2018-06-03T08:56:25.000Z</time>
      </trkpt>
      <trkpt lat="44.55938" lon="4.22547">
        <ele>513</ele>
        <time>2018-06-03T08:56:26.000Z</time>
      </trkpt>
      <trkpt lat="44.55935" lon="4.22543">
        <ele>513</ele>
        <time>2018-06-03T08:56:27.000Z</time>
      </trkpt>
      <trkpt lat="44.55932" lon="4.2254">
        <ele>513</ele>
        <time>2018-06-03T08:56:28.000Z</time>
      </trkpt>
      <trkpt lat="44.55929" lon="4.22538">
        <ele>513</ele>
        <time>2018-06-03T08:56:29.000Z</time>
      </trkpt>
      <trkpt lat="44.55926" lon="4.22536">
        <ele>514</ele>
        <time>2018-06-03T08:56:30.000Z</time>
      </trkpt>
      <trkpt lat="44.55921" lon="4.22535">
        <ele>514</ele>
        <time>2018-06-03T08:56:31.000Z</time>
      </trkpt>
      <trkpt lat="44.55917" lon="4.22533">
        <ele>514</ele>
        <time>2018-06-03T08:56:32.000Z</time>
      </trkpt>
      <trkpt lat="44.55912" lon="4.2253">
        <ele>515</ele>
        <time>2018-06-03T08:56:33.000Z</time>
      </trkpt>
      <trkpt lat="44.55907" lon="4.22528">
        <ele>515</ele>
        <time>2018-06-03T08:56:34.000Z</time>
      </trkpt>
      <trkpt lat="44.55902" lon="4.22527">
        <ele>515</ele>
        <time>2018-06-03T08:56:35.000Z</time>
      </trkpt>
      <trkpt lat="44.55897" lon="4.22525">
        <ele>515</ele>
        <time>2018-06-03T08:56:36.000Z</time>
      </trkpt>
      <trkpt lat="44.55888" lon="4.22522">
        <ele>516</ele>
        <time>2018-06-03T08:56:37.000Z</time>
      </trkpt>
      <trkpt lat="44.55883" lon="4.22521">
        <ele>516</ele>
        <time>2018-06-03T08:56:38.000Z</time>
      </trkpt>
      <trkpt lat="44.55883" lon="4.22521">
        <ele>516</ele>
        <time>2018-06-03T08:56:39.000Z</time>
      </trkpt>
      <trkpt lat="44.55875" lon="4.22523">
        <ele>516</ele>
        <time>2018-06-03T08:56:40.000Z</time>
      </trkpt>
      <trkpt lat="44.55872" lon="4.22525">
        <ele>516</ele>
        <time>2018-06-03T08:56:41.000Z</time>
      </trkpt>
      <trkpt lat="44.55869" lon="4.22529">
        <ele>516</ele>
        <time>2018-06-03T08:56:42.000Z</time>
      </trkpt>
      <trkpt lat="44.55866" lon="4.22534">
        <ele>516</ele>
        <time>2018-06-03T08:56:43.000Z</time>
      </trkpt>
      <trkpt lat="44.55864" lon="4.2254">
        <ele>516</ele>
        <time>2018-06-03T08:56:44.000Z</time>
      </trkpt>
      <trkpt lat="44.55862" lon="4.22546">
        <ele>515</ele>
        <time>2018-06-03T08:56:45.000Z</time>
      </trkpt>
      <trkpt lat="44.55861" lon="4.22553">
        <ele>515</ele>
        <time>2018-06-03T08:56:46.000Z</time>
      </trkpt>
      <trkpt lat="44.55859" lon="4.22561">
        <ele>514</ele>
        <time>2018-06-03T08:56:47.000Z</time>
      </trkpt>
      <trkpt lat="44.55856" lon="4.22568">
        <ele>514</ele>
        <time>2018-06-03T08:56:48.000Z</time>
      </trkpt>
      <trkpt lat="44.55853" lon="4.22574">
        <ele>514</ele>
        <time>2018-06-03T08:56:49.000Z</time>
      </trkpt>
      <trkpt lat="44.5585" lon="4.22579">
        <ele>513</ele>
        <time>2018-06-03T08:56:50.000Z</time>
      </trkpt>
      <trkpt lat="44.55847" lon="4.22585">
        <ele>506</ele>
        <time>2018-06-03T08:56:51.000Z</time>
      </trkpt>
      <trkpt lat="44.55843" lon="4.22591">
        <ele>507</ele>
        <time>2018-06-03T08:56:52.000Z</time>
      </trkpt>
      <trkpt lat="44.55837" lon="4.22596">
        <ele>506</ele>
        <time>2018-06-03T08:56:53.000Z</time>
      </trkpt>
      <trkpt lat="44.55831" lon="4.22599">
        <ele>516</ele>
        <time>2018-06-03T08:56:54.000Z</time>
      </trkpt>
      <trkpt lat="44.55825" lon="4.22601">
        <ele>516</ele>
        <time>2018-06-03T08:56:55.000Z</time>
      </trkpt>
      <trkpt lat="44.55819" lon="4.22602">
        <ele>517</ele>
        <time>2018-06-03T08:56:56.000Z</time>
      </trkpt>
      <trkpt lat="44.55815" lon="4.22604">
        <ele>518</ele>
        <time>2018-06-03T08:56:57.000Z</time>
      </trkpt>
      <trkpt lat="44.55812" lon="4.22605">
        <ele>518</ele>
        <time>2018-06-03T08:56:58.000Z</time>
      </trkpt>
      <trkpt lat="44.55811" lon="4.22608">
        <ele>518</ele>
        <time>2018-06-03T08:56:59.000Z</time>
      </trkpt>
      <trkpt lat="44.55811" lon="4.2261">
        <ele>518</ele>
        <time>2018-06-03T08:57:00.000Z</time>
      </trkpt>
      <trkpt lat="44.55811" lon="4.22613">
        <ele>518</ele>
        <time>2018-06-03T08:57:01.000Z</time>
      </trkpt>
      <trkpt lat="44.5581" lon="4.22616">
        <ele>518</ele>
        <time>2018-06-03T08:57:02.000Z</time>
      </trkpt>
      <trkpt lat="44.5581" lon="4.22618">
        <ele>518</ele>
        <time>2018-06-03T08:57:03.000Z</time>
      </trkpt>
      <trkpt lat="44.55809" lon="4.2262">
        <ele>517</ele>
        <time>2018-06-03T08:57:04.000Z</time>
      </trkpt>
      <trkpt lat="44.55809" lon="4.22623">
        <ele>517</ele>
        <time>2018-06-03T08:57:05.000Z</time>
      </trkpt>
      <trkpt lat="44.55808" lon="4.22625">
        <ele>517</ele>
        <time>2018-06-03T08:57:06.000Z</time>
      </trkpt>
      <trkpt lat="44.55807" lon="4.22628">
        <ele>517</ele>
        <time>2018-06-03T08:57:07.000Z</time>
      </trkpt>
      <trkpt lat="44.55806" lon="4.2263">
        <ele>517</ele>
        <time>2018-06-03T08:57:08.000Z</time>
      </trkpt>
      <trkpt lat="44.55805" lon="4.22632">
        <ele>517</ele>
        <time>2018-06-03T08:57:09.000Z</time>
      </trkpt>
      <trkpt lat="44.55803" lon="4.22634">
        <ele>517</ele>
        <time>2018-06-03T08:57:10.000Z</time>
      </trkpt>
      <trkpt lat="44.55802" lon="4.22637">
        <ele>517</ele>
        <time>2018-06-03T08:57:11.000Z</time>
      </trkpt>
      <trkpt lat="44.558" lon="4.22639">
        <ele>517</ele>
        <time>2018-06-03T08:57:12.000Z</time>
      </trkpt>
      <trkpt lat="44.55799" lon="4.22641">
        <ele>517</ele>
        <time>2018-06-03T08:57:13.000Z</time>
      </trkpt>
      <trkpt lat="44.55797" lon="4.22644">
        <ele>517</ele>
        <time>2018-06-03T08:57:14.000Z</time>
      </trkpt>
      <trkpt lat="44.55796" lon="4.22646">
        <ele>517</ele>
        <time>2018-06-03T08:57:15.000Z</time>
      </trkpt>
      <trkpt lat="44.55796" lon="4.22649">
        <ele>517</ele>
        <time>2018-06-03T08:57:16.000Z</time>
      </trkpt>
      <trkpt lat="44.55796" lon="4.2265">
        <ele>517</ele>
        <time>2018-06-03T08:57:17.000Z</time>
      </trkpt>
      <trkpt lat="44.55796" lon="4.22651">
        <ele>517</ele>
        <time>2018-06-03T08:57:18.000Z</time>
      </trkpt>
      <trkpt lat="44.55796" lon="4.22653">
        <ele>517</ele>
        <time>2018-06-03T08:57:19.000Z</time>
      </trkpt>
      <trkpt lat="44.55796" lon="4.22656">
        <ele>517</ele>
        <time>2018-06-03T08:57:20.000Z</time>
      </trkpt>
      <trkpt lat="44.55796" lon="4.22658">
        <ele>516</ele>
        <time>2018-06-03T08:57:21.000Z</time>
      </trkpt>
      <trkpt lat="44.55796" lon="4.2266">
        <ele>516</ele>
        <time>2018-06-03T08:57:22.000Z</time>
      </trkpt>
      <trkpt lat="44.55796" lon="4.22663">
        <ele>516</ele>
        <time>2018-06-03T08:57:23.000Z</time>
      </trkpt>
      <trkpt lat="44.55796" lon="4.22666">
        <ele>516</ele>
        <time>2018-06-03T08:57:24.000Z</time>
      </trkpt>
      <trkpt lat="44.55796" lon="4.22668">
        <ele>506</ele>
        <time>2018-06-03T08:57:25.000Z</time>
      </trkpt>
      <trkpt lat="44.55795" lon="4.22671">
        <ele>506</ele>
        <time>2018-06-03T08:57:26.000Z</time>
      </trkpt>
      <trkpt lat="44.55794" lon="4.22675">
        <ele>506</ele>
        <time>2018-06-03T08:57:27.000Z</time>
      </trkpt>
      <trkpt lat="44.55793" lon="4.22678">
        <ele>506</ele>
        <time>2018-06-03T08:57:28.000Z</time>
      </trkpt>
      <trkpt lat="44.55792" lon="4.22681">
        <ele>506</ele>
        <time>2018-06-03T08:57:29.000Z</time>
      </trkpt>
      <trkpt lat="44.55791" lon="4.22684">
        <ele>507</ele>
        <time>2018-06-03T08:57:30.000Z</time>
      </trkpt>
      <trkpt lat="44.55789" lon="4.22687">
        <ele>507</ele>
        <time>2018-06-03T08:57:31.000Z</time>
      </trkpt>
      <trkpt lat="44.55786" lon="4.2269">
        <ele>507</ele>
        <time>2018-06-03T08:57:32.000Z</time>
      </trkpt>
      <trkpt lat="44.55784" lon="4.22692">
        <ele>508</ele>
        <time>2018-06-03T08:57:33.000Z</time>
      </trkpt>
      <trkpt lat="44.55783" lon="4.22695">
        <ele>508</ele>
        <time>2018-06-03T08:57:34.000Z</time>
      </trkpt>
      <trkpt lat="44.55782" lon="4.22698">
        <ele>508</ele>
        <time>2018-06-03T08:57:35.000Z</time>
      </trkpt>
      <trkpt lat="44.5578" lon="4.22701">
        <ele>508</ele>
        <time>2018-06-03T08:57:36.000Z</time>
      </trkpt>
      <trkpt lat="44.5578" lon="4.22704">
        <ele>507</ele>
        <time>2018-06-03T08:57:37.000Z</time>
      </trkpt>
      <trkpt lat="44.55779" lon="4.22708">
        <ele>507</ele>
        <time>2018-06-03T08:57:38.000Z</time>
      </trkpt>
      <trkpt lat="44.55778" lon="4.22712">
        <ele>507</ele>
        <time>2018-06-03T08:57:39.000Z</time>
      </trkpt>
      <trkpt lat="44.55777" lon="4.22715">
        <ele>507</ele>
        <time>2018-06-03T08:57:40.000Z</time>
      </trkpt>
      <trkpt lat="44.55775" lon="4.22719">
        <ele>507</ele>
        <time>2018-06-03T08:57:41.000Z</time>
      </trkpt>
      <trkpt lat="44.55774" lon="4.22723">
        <ele>507</ele>
        <time>2018-06-03T08:57:42.000Z</time>
      </trkpt>
      <trkpt lat="44.55772" lon="4.22726">
        <ele>507</ele>
        <time>2018-06-03T08:57:43.000Z</time>
      </trkpt>
      <trkpt lat="44.5577" lon="4.2273">
        <ele>508</ele>
        <time>2018-06-03T08:57:44.000Z</time>
      </trkpt>
      <trkpt lat="44.55768" lon="4.22734">
        <ele>508</ele>
        <time>2018-06-03T08:57:45.000Z</time>
      </trkpt>
      <trkpt lat="44.55766" lon="4.22737">
        <ele>509</ele>
        <time>2018-06-03T08:57:46.000Z</time>
      </trkpt>
      <trkpt lat="44.55765" lon="4.22741">
        <ele>509</ele>
        <time>2018-06-03T08:57:47.000Z</time>
      </trkpt>
      <trkpt lat="44.55763" lon="4.22745">
        <ele>510</ele>
        <time>2018-06-03T08:57:48.000Z</time>
      </trkpt>
      <trkpt lat="44.55761" lon="4.22748">
        <ele>511</ele>
        <time>2018-06-03T08:57:49.000Z</time>
      </trkpt>
      <trkpt lat="44.55759" lon="4.22751">
        <ele>506</ele>
        <time>2018-06-03T08:57:50.000Z</time>
      </trkpt>
      <trkpt lat="44.55758" lon="4.22755">
        <ele>506</ele>
        <time>2018-06-03T08:57:51.000Z</time>
      </trkpt>
      <trkpt lat="44.55757" lon="4.22759">
        <ele>505</ele>
        <time>2018-06-03T08:57:52.000Z</time>
      </trkpt>
      <trkpt lat="44.55756" lon="4.22762">
        <ele>503</ele>
        <time>2018-06-03T08:57:53.000Z</time>
      </trkpt>
      <trkpt lat="44.55755" lon="4.22767">
        <ele>501</ele>
        <time>2018-06-03T08:57:54.000Z</time>
      </trkpt>
      <trkpt lat="44.55753" lon="4.22771">
        <ele>500</ele>
        <time>2018-06-03T08:57:55.000Z</time>
      </trkpt>
      <trkpt lat="44.55751" lon="4.22775">
        <ele>498</ele>
        <time>2018-06-03T08:57:56.000Z</time>
      </trkpt>
      <trkpt lat="44.5575" lon="4.2278">
        <ele>516</ele>
        <time>2018-06-03T08:57:57.000Z</time>
      </trkpt>
      <trkpt lat="44.55748" lon="4.22785">
        <ele>516</ele>
        <time>2018-06-03T08:57:58.000Z</time>
      </trkpt>
      <trkpt lat="44.55747" lon="4.2279">
        <ele>515</ele>
        <time>2018-06-03T08:57:59.000Z</time>
      </trkpt>
      <trkpt lat="44.55746" lon="4.22795">
        <ele>514</ele>
        <time>2018-06-03T08:58:00.000Z</time>
      </trkpt>
      <trkpt lat="44.55744" lon="4.22799">
        <ele>513</ele>
        <time>2018-06-03T08:58:01.000Z</time>
      </trkpt>
      <trkpt lat="44.55743" lon="4.22804">
        <ele>513</ele>
        <time>2018-06-03T08:58:02.000Z</time>
      </trkpt>
      <trkpt lat="44.55741" lon="4.22808">
        <ele>512</ele>
        <time>2018-06-03T08:58:03.000Z</time>
      </trkpt>
      <trkpt lat="44.5574" lon="4.22813">
        <ele>510</ele>
        <time>2018-06-03T08:58:04.000Z</time>
      </trkpt>
      <trkpt lat="44.55739" lon="4.22817">
        <ele>509</ele>
        <time>2018-06-03T08:58:05.000Z</time>
      </trkpt>
      <trkpt lat="44.55738" lon="4.22822">
        <ele>508</ele>
        <time>2018-06-03T08:58:06.000Z</time>
      </trkpt>
      <trkpt lat="44.55736" lon="4.22827">
        <ele>507</ele>
        <time>2018-06-03T08:58:07.000Z</time>
      </trkpt>
      <trkpt lat="44.55735" lon="4.22832">
        <ele>507</ele>
        <time>2018-06-03T08:58:08.000Z</time>
      </trkpt>
      <trkpt lat="44.55734" lon="4.22836">
        <ele>501</ele>
        <time>2018-06-03T08:58:09.000Z</time>
      </trkpt>
      <trkpt lat="44.55733" lon="4.22842">
        <ele>501</ele>
        <time>2018-06-03T08:58:10.000Z</time>
      </trkpt>
      <trkpt lat="44.55731" lon="4.22847">
        <ele>502</ele>
        <time>2018-06-03T08:58:11.000Z</time>
      </trkpt>
      <trkpt lat="44.55729" lon="4.22852">
        <ele>502</ele>
        <time>2018-06-03T08:58:12.000Z</time>
      </trkpt>
      <trkpt lat="44.55726" lon="4.22856">
        <ele>502</ele>
        <time>2018-06-03T08:58:13.000Z</time>
      </trkpt>
      <trkpt lat="44.55723" lon="4.2286">
        <ele>503</ele>
        <time>2018-06-03T08:58:14.000Z</time>
      </trkpt>
      <trkpt lat="44.5572" lon="4.22865">
        <ele>503</ele>
        <time>2018-06-03T08:58:15.000Z</time>
      </trkpt>
      <trkpt lat="44.55716" lon="4.22869">
        <ele>503</ele>
        <time>2018-06-03T08:58:16.000Z</time>
      </trkpt>
      <trkpt lat="44.55713" lon="4.22874">
        <ele>504</ele>
        <time>2018-06-03T08:58:17.000Z</time>
      </trkpt>
      <trkpt lat="44.5571" lon="4.22878">
        <ele>504</ele>
        <time>2018-06-03T08:58:18.000Z</time>
      </trkpt>
      <trkpt lat="44.55707" lon="4.22884">
        <ele>504</ele>
        <time>2018-06-03T08:58:19.000Z</time>
      </trkpt>
      <trkpt lat="44.55705" lon="4.22889">
        <ele>504</ele>
        <time>2018-06-03T08:58:20.000Z</time>
      </trkpt>
      <trkpt lat="44.55703" lon="4.22895">
        <ele>504</ele>
        <time>2018-06-03T08:58:21.000Z</time>
      </trkpt>
      <trkpt lat="44.55702" lon="4.22901">
        <ele>504</ele>
        <time>2018-06-03T08:58:22.000Z</time>
      </trkpt>
      <trkpt lat="44.55702" lon="4.22907">
        <ele>504</ele>
        <time>2018-06-03T08:58:23.000Z</time>
      </trkpt>
      <trkpt lat="44.55702" lon="4.22913">
        <ele>503</ele>
        <time>2018-06-03T08:58:24.000Z</time>
      </trkpt>
      <trkpt lat="44.55702" lon="4.2292">
        <ele>497</ele>
        <time>2018-06-03T08:58:25.000Z</time>
      </trkpt>
      <trkpt lat="44.55702" lon="4.22926">
        <ele>497</ele>
        <time>2018-06-03T08:58:26.000Z</time>
      </trkpt>
      <trkpt lat="44.55701" lon="4.22933">
        <ele>497</ele>
        <time>2018-06-03T08:58:27.000Z</time>
      </trkpt>
      <trkpt lat="44.557" lon="4.22939">
        <ele>496</ele>
        <time>2018-06-03T08:58:28.000Z</time>
      </trkpt>
      <trkpt lat="44.557" lon="4.22945">
        <ele>496</ele>
        <time>2018-06-03T08:58:29.000Z</time>
      </trkpt>
      <trkpt lat="44.55699" lon="4.2295">
        <ele>496</ele>
        <time>2018-06-03T08:58:30.000Z</time>
      </trkpt>
      <trkpt lat="44.55697" lon="4.22955">
        <ele>496</ele>
        <time>2018-06-03T08:58:31.000Z</time>
      </trkpt>
      <trkpt lat="44.55697" lon="4.2296">
        <ele>496</ele>
        <time>2018-06-03T08:58:32.000Z</time>
      </trkpt>
      <trkpt lat="44.55695" lon="4.22964">
        <ele>496</ele>
        <time>2018-06-03T08:58:33.000Z</time>
      </trkpt>
      <trkpt lat="44.55694" lon="4.22969">
        <ele>496</ele>
        <time>2018-06-03T08:58:34.000Z</time>
      </trkpt>
      <trkpt lat="44.55694" lon="4.22974">
        <ele>496</ele>
        <time>2018-06-03T08:58:35.000Z</time>
      </trkpt>
      <trkpt lat="44.55693" lon="4.22979">
        <ele>496</ele>
        <time>2018-06-03T08:58:36.000Z</time>
      </trkpt>
      <trkpt lat="44.55691" lon="4.22983">
        <ele>497</ele>
        <time>2018-06-03T08:58:37.000Z</time>
      </trkpt>
      <trkpt lat="44.55689" lon="4.22986">
        <ele>497</ele>
        <time>2018-06-03T08:58:38.000Z</time>
      </trkpt>
      <trkpt lat="44.55689" lon="4.22988">
        <ele>498</ele>
        <time>2018-06-03T08:58:39.000Z</time>
      </trkpt>
      <trkpt lat="44.55688" lon="4.2299">
        <ele>498</ele>
        <time>2018-06-03T08:58:40.000Z</time>
      </trkpt>
      <trkpt lat="44.55686" lon="4.22993">
        <ele>499</ele>
        <time>2018-06-03T08:58:41.000Z</time>
      </trkpt>
      <trkpt lat="44.55685" lon="4.22996">
        <ele>499</ele>
        <time>2018-06-03T08:58:42.000Z</time>
      </trkpt>
      <trkpt lat="44.55685" lon="4.22999">
        <ele>499</ele>
        <time>2018-06-03T08:58:43.000Z</time>
      </trkpt>
      <trkpt lat="44.55684" lon="4.23001">
        <ele>495</ele>
        <time>2018-06-03T08:58:44.000Z</time>
      </trkpt>
      <trkpt lat="44.55683" lon="4.23004">
        <ele>495</ele>
        <time>2018-06-03T08:58:45.000Z</time>
      </trkpt>
      <trkpt lat="44.55681" lon="4.23006">
        <ele>496</ele>
        <time>2018-06-03T08:58:46.000Z</time>
      </trkpt>
      <trkpt lat="44.55681" lon="4.23009">
        <ele>496</ele>
        <time>2018-06-03T08:58:47.000Z</time>
      </trkpt>
      <trkpt lat="44.5568" lon="4.23011">
        <ele>495</ele>
        <time>2018-06-03T08:58:48.000Z</time>
      </trkpt>
      <trkpt lat="44.55679" lon="4.23014">
        <ele>495</ele>
        <time>2018-06-03T08:58:49.000Z</time>
      </trkpt>
      <trkpt lat="44.55677" lon="4.23017">
        <ele>494</ele>
        <time>2018-06-03T08:58:50.000Z</time>
      </trkpt>
      <trkpt lat="44.55675" lon="4.23019">
        <ele>494</ele>
        <time>2018-06-03T08:58:51.000Z</time>
      </trkpt>
      <trkpt lat="44.55674" lon="4.23021">
        <ele>494</ele>
        <time>2018-06-03T08:58:52.000Z</time>
      </trkpt>
      <trkpt lat="44.55673" lon="4.23023">
        <ele>493</ele>
        <time>2018-06-03T08:58:53.000Z</time>
      </trkpt>
      <trkpt lat="44.55672" lon="4.23025">
        <ele>493</ele>
        <time>2018-06-03T08:58:54.000Z</time>
      </trkpt>
      <trkpt lat="44.5567" lon="4.23028">
        <ele>492</ele>
        <time>2018-06-03T08:58:55.000Z</time>
      </trkpt>
      <trkpt lat="44.55669" lon="4.2303">
        <ele>492</ele>
        <time>2018-06-03T08:58:56.000Z</time>
      </trkpt>
      <trkpt lat="44.55667" lon="4.23032">
        <ele>492</ele>
        <time>2018-06-03T08:58:57.000Z</time>
      </trkpt>
      <trkpt lat="44.55664" lon="4.23033">
        <ele>496</ele>
        <time>2018-06-03T08:58:58.000Z</time>
      </trkpt>
      <trkpt lat="44.55662" lon="4.23034">
        <ele>496</ele>
        <time>2018-06-03T08:58:59.000Z</time>
      </trkpt>
      <trkpt lat="44.5566" lon="4.23034">
        <ele>496</ele>
        <time>2018-06-03T08:59:00.000Z</time>
      </trkpt>
      <trkpt lat="44.55657" lon="4.23034">
        <ele>495</ele>
        <time>2018-06-03T08:59:01.000Z</time>
      </trkpt>
      <trkpt lat="44.55655" lon="4.23034">
        <ele>495</ele>
        <time>2018-06-03T08:59:02.000Z</time>
      </trkpt>
      <trkpt lat="44.55655" lon="4.23034">
        <ele>495</ele>
        <time>2018-06-03T08:59:03.000Z</time>
      </trkpt>
      <trkpt lat="44.55651" lon="4.23033">
        <ele>495</ele>
        <time>2018-06-03T08:59:04.000Z</time>
      </trkpt>
      <trkpt lat="44.55648" lon="4.23033">
        <ele>495</ele>
        <time>2018-06-03T08:59:05.000Z</time>
      </trkpt>
      <trkpt lat="44.55646" lon="4.23032">
        <ele>495</ele>
        <time>2018-06-03T08:59:06.000Z</time>
      </trkpt>
      <trkpt lat="44.55644" lon="4.23031">
        <ele>495</ele>
        <time>2018-06-03T08:59:07.000Z</time>
      </trkpt>
      <trkpt lat="44.55642" lon="4.23029">
        <ele>495</ele>
        <time>2018-06-03T08:59:08.000Z</time>
      </trkpt>
      <trkpt lat="44.5564" lon="4.23027">
        <ele>495</ele>
        <time>2018-06-03T08:59:09.000Z</time>
      </trkpt>
      <trkpt lat="44.55638" lon="4.23024">
        <ele>495</ele>
        <time>2018-06-03T08:59:10.000Z</time>
      </trkpt>
      <trkpt lat="44.55636" lon="4.23021">
        <ele>495</ele>
        <time>2018-06-03T08:59:11.000Z</time>
      </trkpt>
      <trkpt lat="44.55636" lon="4.23018">
        <ele>495</ele>
        <time>2018-06-03T08:59:12.000Z</time>
      </trkpt>
      <trkpt lat="44.55635" lon="4.23015">
        <ele>495</ele>
        <time>2018-06-03T08:59:13.000Z</time>
      </trkpt>
      <trkpt lat="44.55634" lon="4.23012">
        <ele>495</ele>
        <time>2018-06-03T08:59:14.000Z</time>
      </trkpt>
      <trkpt lat="44.55632" lon="4.23008">
        <ele>495</ele>
        <time>2018-06-03T08:59:15.000Z</time>
      </trkpt>
      <trkpt lat="44.5563" lon="4.23005">
        <ele>495</ele>
        <time>2018-06-03T08:59:16.000Z</time>
      </trkpt>
      <trkpt lat="44.55627" lon="4.23003">
        <ele>495</ele>
        <time>2018-06-03T08:59:17.000Z</time>
      </trkpt>
      <trkpt lat="44.55624" lon="4.23">
        <ele>501</ele>
        <time>2018-06-03T08:59:18.000Z</time>
      </trkpt>
      <trkpt lat="44.55622" lon="4.22997">
        <ele>500</ele>
        <time>2018-06-03T08:59:19.000Z</time>
      </trkpt>
      <trkpt lat="44.5562" lon="4.22995">
        <ele>500</ele>
        <time>2018-06-03T08:59:20.000Z</time>
      </trkpt>
      <trkpt lat="44.55617" lon="4.2299">
        <ele>500</ele>
        <time>2018-06-03T08:59:21.000Z</time>
      </trkpt>
      <trkpt lat="44.55614" lon="4.22986">
        <ele>500</ele>
        <time>2018-06-03T08:59:22.000Z</time>
      </trkpt>
      <trkpt lat="44.55612" lon="4.22982">
        <ele>499</ele>
        <time>2018-06-03T08:59:23.000Z</time>
      </trkpt>
      <trkpt lat="44.5561" lon="4.22979">
        <ele>499</ele>
        <time>2018-06-03T08:59:24.000Z</time>
      </trkpt>
      <trkpt lat="44.55608" lon="4.22977">
        <ele>499</ele>
        <time>2018-06-03T08:59:25.000Z</time>
      </trkpt>
      <trkpt lat="44.55606" lon="4.22974">
        <ele>499</ele>
        <time>2018-06-03T08:59:26.000Z</time>
      </trkpt>
      <trkpt lat="44.55604" lon="4.22971">
        <ele>499</ele>
        <time>2018-06-03T08:59:27.000Z</time>
      </trkpt>
      <trkpt lat="44.55601" lon="4.22969">
        <ele>499</ele>
        <time>2018-06-03T08:59:28.000Z</time>
      </trkpt>
      <trkpt lat="44.55598" lon="4.22966">
        <ele>499</ele>
        <time>2018-06-03T08:59:29.000Z</time>
      </trkpt>
      <trkpt lat="44.55595" lon="4.22963">
        <ele>499</ele>
        <time>2018-06-03T08:59:30.000Z</time>
      </trkpt>
      <trkpt lat="44.55592" lon="4.2296">
        <ele>499</ele>
        <time>2018-06-03T08:59:31.000Z</time>
      </trkpt>
      <trkpt lat="44.55589" lon="4.22957">
        <ele>499</ele>
        <time>2018-06-03T08:59:32.000Z</time>
      </trkpt>
      <trkpt lat="44.55586" lon="4.22954">
        <ele>499</ele>
        <time>2018-06-03T08:59:33.000Z</time>
      </trkpt>
      <trkpt lat="44.55584" lon="4.2295">
        <ele>499</ele>
        <time>2018-06-03T08:59:34.000Z</time>
      </trkpt>
      <trkpt lat="44.55581" lon="4.22947">
        <ele>484</ele>
        <time>2018-06-03T08:59:35.000Z</time>
      </trkpt>
      <trkpt lat="44.55579" lon="4.22944">
        <ele>484</ele>
        <time>2018-06-03T08:59:36.000Z</time>
      </trkpt>
      <trkpt lat="44.55576" lon="4.2294">
        <ele>485</ele>
        <time>2018-06-03T08:59:37.000Z</time>
      </trkpt>
      <trkpt lat="44.55574" lon="4.22936">
        <ele>485</ele>
        <time>2018-06-03T08:59:38.000Z</time>
      </trkpt>
      <trkpt lat="44.55572" lon="4.22931">
        <ele>486</ele>
        <time>2018-06-03T08:59:39.000Z</time>
      </trkpt>
      <trkpt lat="44.55569" lon="4.22926">
        <ele>486</ele>
        <time>2018-06-03T08:59:40.000Z</time>
      </trkpt>
      <trkpt lat="44.55566" lon="4.22922">
        <ele>486</ele>
        <time>2018-06-03T08:59:41.000Z</time>
      </trkpt>
      <trkpt lat="44.55563" lon="4.22917">
        <ele>485</ele>
        <time>2018-06-03T08:59:42.000Z</time>
      </trkpt>
      <trkpt lat="44.55561" lon="4.22912">
        <ele>487</ele>
        <time>2018-06-03T08:59:43.000Z</time>
      </trkpt>
      <trkpt lat="44.55559" lon="4.22908">
        <ele>486</ele>
        <time>2018-06-03T08:59:44.000Z</time>
      </trkpt>
      <trkpt lat="44.55559" lon="4.22905">
        <ele>485</ele>
        <time>2018-06-03T08:59:45.000Z</time>
      </trkpt>
      <trkpt lat="44.55557" lon="4.22901">
        <ele>485</ele>
        <time>2018-06-03T08:59:46.000Z</time>
      </trkpt>
      <trkpt lat="44.55556" lon="4.22899">
        <ele>484</ele>
        <time>2018-06-03T08:59:47.000Z</time>
      </trkpt>
      <trkpt lat="44.55555" lon="4.229">
        <ele>484</ele>
        <time>2018-06-03T08:59:48.000Z</time>
      </trkpt>
      <trkpt lat="44.55554" lon="4.22902">
        <ele>484</ele>
        <time>2018-06-03T08:59:49.000Z</time>
      </trkpt>
      <trkpt lat="44.55553" lon="4.22904">
        <ele>484</ele>
        <time>2018-06-03T08:59:50.000Z</time>
      </trkpt>
      <trkpt lat="44.55551" lon="4.22905">
        <ele>483</ele>
        <time>2018-06-03T08:59:51.000Z</time>
      </trkpt>
      <trkpt lat="44.5555" lon="4.22905">
        <ele>483</ele>
        <time>2018-06-03T08:59:52.000Z</time>
      </trkpt>
      <trkpt lat="44.55549" lon="4.22903">
        <ele>482</ele>
        <time>2018-06-03T08:59:53.000Z</time>
      </trkpt>
      <trkpt lat="44.55548" lon="4.22901">
        <ele>482</ele>
        <time>2018-06-03T08:59:54.000Z</time>
      </trkpt>
      <trkpt lat="44.55546" lon="4.22898">
        <ele>482</ele>
        <time>2018-06-03T08:59:55.000Z</time>
      </trkpt>
      <trkpt lat="44.55546" lon="4.22894">
        <ele>482</ele>
        <time>2018-06-03T08:59:56.000Z</time>
      </trkpt>
      <trkpt lat="44.55546" lon="4.22888">
        <ele>482</ele>
        <time>2018-06-03T08:59:57.000Z</time>
      </trkpt>
      <trkpt lat="44.55545" lon="4.22882">
        <ele>481</ele>
        <time>2018-06-03T08:59:58.000Z</time>
      </trkpt>
      <trkpt lat="44.55543" lon="4.22878">
        <ele>481</ele>
        <time>2018-06-03T08:59:59.000Z</time>
      </trkpt>
      <trkpt lat="44.55542" lon="4.22876">
        <ele>481</ele>
        <time>2018-06-03T09:00:00.000Z</time>
      </trkpt>
      <trkpt lat="44.5554" lon="4.22877">
        <ele>481</ele>
        <time>2018-06-03T09:00:01.000Z</time>
      </trkpt>
      <trkpt lat="44.55538" lon="4.22879">
        <ele>480</ele>
        <time>2018-06-03T09:00:02.000Z</time>
      </trkpt>
      <trkpt lat="44.55537" lon="4.22882">
        <ele>480</ele>
        <time>2018-06-03T09:00:03.000Z</time>
      </trkpt>
      <trkpt lat="44.55535" lon="4.22884">
        <ele>479</ele>
        <time>2018-06-03T09:00:04.000Z</time>
      </trkpt>
      <trkpt lat="44.55533" lon="4.22887">
        <ele>479</ele>
        <time>2018-06-03T09:00:05.000Z</time>
      </trkpt>
      <trkpt lat="44.55532" lon="4.22889">
        <ele>478</ele>
        <time>2018-06-03T09:00:06.000Z</time>
      </trkpt>
      <trkpt lat="44.55531" lon="4.22891">
        <ele>478</ele>
        <time>2018-06-03T09:00:07.000Z</time>
      </trkpt>
      <trkpt lat="44.5553" lon="4.22892">
        <ele>478</ele>
        <time>2018-06-03T09:00:08.000Z</time>
      </trkpt>
      <trkpt lat="44.55529" lon="4.22891">
        <ele>477</ele>
        <time>2018-06-03T09:00:09.000Z</time>
      </trkpt>
      <trkpt lat="44.55528" lon="4.22889">
        <ele>477</ele>
        <time>2018-06-03T09:00:10.000Z</time>
      </trkpt>
      <trkpt lat="44.55526" lon="4.22885">
        <ele>477</ele>
        <time>2018-06-03T09:00:11.000Z</time>
      </trkpt>
      <trkpt lat="44.55525" lon="4.22883">
        <ele>477</ele>
        <time>2018-06-03T09:00:12.000Z</time>
      </trkpt>
      <trkpt lat="44.55524" lon="4.2288">
        <ele>477</ele>
        <time>2018-06-03T09:00:13.000Z</time>
      </trkpt>
      <trkpt lat="44.55523" lon="4.22876">
        <ele>477</ele>
        <time>2018-06-03T09:00:14.000Z</time>
      </trkpt>
      <trkpt lat="44.55522" lon="4.22871">
        <ele>477</ele>
        <time>2018-06-03T09:00:15.000Z</time>
      </trkpt>
      <trkpt lat="44.55521" lon="4.22864">
        <ele>476</ele>
        <time>2018-06-03T09:00:16.000Z</time>
      </trkpt>
      <trkpt lat="44.5552" lon="4.22858">
        <ele>476</ele>
        <time>2018-06-03T09:00:17.000Z</time>
      </trkpt>
      <trkpt lat="44.55519" lon="4.22852">
        <ele>475</ele>
        <time>2018-06-03T09:00:18.000Z</time>
      </trkpt>
      <trkpt lat="44.55518" lon="4.22849">
        <ele>474</ele>
        <time>2018-06-03T09:00:19.000Z</time>
      </trkpt>
      <trkpt lat="44.55516" lon="4.22846">
        <ele>473</ele>
        <time>2018-06-03T09:00:20.000Z</time>
      </trkpt>
      <trkpt lat="44.55514" lon="4.22844">
        <ele>472</ele>
        <time>2018-06-03T09:00:21.000Z</time>
      </trkpt>
      <trkpt lat="44.55513" lon="4.22841">
        <ele>471</ele>
        <time>2018-06-03T09:00:22.000Z</time>
      </trkpt>
      <trkpt lat="44.55511" lon="4.22839">
        <ele>470</ele>
        <time>2018-06-03T09:00:23.000Z</time>
      </trkpt>
      <trkpt lat="44.55509" lon="4.22836">
        <ele>469</ele>
        <time>2018-06-03T09:00:24.000Z</time>
      </trkpt>
      <trkpt lat="44.55507" lon="4.22833">
        <ele>469</ele>
        <time>2018-06-03T09:00:25.000Z</time>
      </trkpt>
      <trkpt lat="44.55506" lon="4.2283">
        <ele>469</ele>
        <time>2018-06-03T09:00:26.000Z</time>
      </trkpt>
      <trkpt lat="44.55504" lon="4.22828">
        <ele>469</ele>
        <time>2018-06-03T09:00:27.000Z</time>
      </trkpt>
      <trkpt lat="44.55502" lon="4.22828">
        <ele>468</ele>
        <time>2018-06-03T09:00:28.000Z</time>
      </trkpt>
      <trkpt lat="44.55501" lon="4.22829">
        <ele>467</ele>
        <time>2018-06-03T09:00:29.000Z</time>
      </trkpt>
      <trkpt lat="44.55501" lon="4.22832">
        <ele>464</ele>
        <time>2018-06-03T09:00:30.000Z</time>
      </trkpt>
      <trkpt lat="44.55499" lon="4.22835">
        <ele>462</ele>
        <time>2018-06-03T09:00:31.000Z</time>
      </trkpt>
      <trkpt lat="44.55497" lon="4.22838">
        <ele>459</ele>
        <time>2018-06-03T09:00:32.000Z</time>
      </trkpt>
      <trkpt lat="44.55496" lon="4.2284">
        <ele>458</ele>
        <time>2018-06-03T09:00:33.000Z</time>
      </trkpt>
      <trkpt lat="44.55495" lon="4.22842">
        <ele>457</ele>
        <time>2018-06-03T09:00:34.000Z</time>
      </trkpt>
      <trkpt lat="44.55494" lon="4.22841">
        <ele>457</ele>
        <time>2018-06-03T09:00:35.000Z</time>
      </trkpt>
      <trkpt lat="44.55494" lon="4.22841">
        <ele>457</ele>
        <time>2018-06-03T09:00:36.000Z</time>
      </trkpt>
      <trkpt lat="44.55494" lon="4.22841">
        <ele>457</ele>
        <time>2018-06-03T09:00:37.000Z</time>
      </trkpt>
      <trkpt lat="44.55494" lon="4.2284">
        <ele>457</ele>
        <time>2018-06-03T09:00:38.000Z</time>
      </trkpt>
      <trkpt lat="44.55494" lon="4.22838">
        <ele>458</ele>
        <time>2018-06-03T09:00:39.000Z</time>
      </trkpt>
      <trkpt lat="44.55493" lon="4.22836">
        <ele>458</ele>
        <time>2018-06-03T09:00:40.000Z</time>
      </trkpt>
      <trkpt lat="44.55493" lon="4.22833">
        <ele>460</ele>
        <time>2018-06-03T09:00:41.000Z</time>
      </trkpt>
      <trkpt lat="44.55492" lon="4.22829">
        <ele>459</ele>
        <time>2018-06-03T09:00:42.000Z</time>
      </trkpt>
      <trkpt lat="44.5549" lon="4.22826">
        <ele>458</ele>
        <time>2018-06-03T09:00:43.000Z</time>
      </trkpt>
      <trkpt lat="44.55488" lon="4.22823">
        <ele>457</ele>
        <time>2018-06-03T09:00:44.000Z</time>
      </trkpt>
      <trkpt lat="44.55484" lon="4.22819">
        <ele>456</ele>
        <time>2018-06-03T09:00:45.000Z</time>
      </trkpt>
      <trkpt lat="44.55481" lon="4.22816">
        <ele>455</ele>
        <time>2018-06-03T09:00:46.000Z</time>
      </trkpt>
      <trkpt lat="44.55477" lon="4.22813">
        <ele>454</ele>
        <time>2018-06-03T09:00:47.000Z</time>
      </trkpt>
      <trkpt lat="44.55473" lon="4.2281">
        <ele>453</ele>
        <time>2018-06-03T09:00:48.000Z</time>
      </trkpt>
      <trkpt lat="44.5547" lon="4.22806">
        <ele>452</ele>
        <time>2018-06-03T09:00:49.000Z</time>
      </trkpt>
      <trkpt lat="44.55467" lon="4.22801">
        <ele>452</ele>
        <time>2018-06-03T09:00:50.000Z</time>
      </trkpt>
      <trkpt lat="44.55463" lon="4.22795">
        <ele>451</ele>
        <time>2018-06-03T09:00:51.000Z</time>
      </trkpt>
      <trkpt lat="44.5546" lon="4.22788">
        <ele>451</ele>
        <time>2018-06-03T09:00:52.000Z</time>
      </trkpt>
      <trkpt lat="44.55457" lon="4.22781">
        <ele>451</ele>
        <time>2018-06-03T09:00:53.000Z</time>
      </trkpt>
      <trkpt lat="44.55455" lon="4.22772">
        <ele>451</ele>
        <time>2018-06-03T09:00:54.000Z</time>
      </trkpt>
      <trkpt lat="44.55453" lon="4.22763">
        <ele>451</ele>
        <time>2018-06-03T09:00:55.000Z</time>
      </trkpt>
      <trkpt lat="44.55451" lon="4.22752">
        <ele>450</ele>
        <time>2018-06-03T09:00:56.000Z</time>
      </trkpt>
      <trkpt lat="44.55449" lon="4.22741">
        <ele>460</ele>
        <time>2018-06-03T09:00:57.000Z</time>
      </trkpt>
      <trkpt lat="44.55448" lon="4.22732">
        <ele>461</ele>
        <time>2018-06-03T09:00:58.000Z</time>
      </trkpt>
      <trkpt lat="44.55447" lon="4.22725">
        <ele>461</ele>
        <time>2018-06-03T09:00:59.000Z</time>
      </trkpt>
      <trkpt lat="44.55444" lon="4.2272">
        <ele>462</ele>
        <time>2018-06-03T09:01:00.000Z</time>
      </trkpt>
      <trkpt lat="44.55441" lon="4.22718">
        <ele>461</ele>
        <time>2018-06-03T09:01:01.000Z</time>
      </trkpt>
      <trkpt lat="44.55439" lon="4.22717">
        <ele>461</ele>
        <time>2018-06-03T09:01:02.000Z</time>
      </trkpt>
      <trkpt lat="44.55437" lon="4.22719">
        <ele>460</ele>
        <time>2018-06-03T09:01:03.000Z</time>
      </trkpt>
      <trkpt lat="44.55434" lon="4.22722">
        <ele>459</ele>
        <time>2018-06-03T09:01:04.000Z</time>
      </trkpt>
      <trkpt lat="44.5543" lon="4.22724">
        <ele>457</ele>
        <time>2018-06-03T09:01:05.000Z</time>
      </trkpt>
      <trkpt lat="44.55425" lon="4.22726">
        <ele>456</ele>
        <time>2018-06-03T09:01:06.000Z</time>
      </trkpt>
      <trkpt lat="44.5542" lon="4.22728">
        <ele>454</ele>
        <time>2018-06-03T09:01:07.000Z</time>
      </trkpt>
      <trkpt lat="44.55416" lon="4.22728">
        <ele>440</ele>
        <time>2018-06-03T09:01:08.000Z</time>
      </trkpt>
      <trkpt lat="44.55414" lon="4.22727">
        <ele>440</ele>
        <time>2018-06-03T09:01:09.000Z</time>
      </trkpt>
      <trkpt lat="44.55412" lon="4.22726">
        <ele>440</ele>
        <time>2018-06-03T09:01:10.000Z</time>
      </trkpt>
      <trkpt lat="44.5541" lon="4.22727">
        <ele>440</ele>
        <time>2018-06-03T09:01:11.000Z</time>
      </trkpt>
      <trkpt lat="44.55409" lon="4.22728">
        <ele>440</ele>
        <time>2018-06-03T09:01:12.000Z</time>
      </trkpt>
      <trkpt lat="44.55409" lon="4.2273">
        <ele>440</ele>
        <time>2018-06-03T09:01:13.000Z</time>
      </trkpt>
      <trkpt lat="44.5541" lon="4.22732">
        <ele>440</ele>
        <time>2018-06-03T09:01:14.000Z</time>
      </trkpt>
      <trkpt lat="44.55413" lon="4.22733">
        <ele>440</ele>
        <time>2018-06-03T09:01:15.000Z</time>
      </trkpt>
      <trkpt lat="44.55416" lon="4.22735">
        <ele>440</ele>
        <time>2018-06-03T09:01:16.000Z</time>
      </trkpt>
      <trkpt lat="44.5542" lon="4.22737">
        <ele>450</ele>
        <time>2018-06-03T09:01:17.000Z</time>
      </trkpt>
      <trkpt lat="44.55424" lon="4.2274">
        <ele>449</ele>
        <time>2018-06-03T09:01:18.000Z</time>
      </trkpt>
      <trkpt lat="44.55427" lon="4.22745">
        <ele>449</ele>
        <time>2018-06-03T09:01:19.000Z</time>
      </trkpt>
      <trkpt lat="44.55429" lon="4.22752">
        <ele>444</ele>
        <time>2018-06-03T09:01:20.000Z</time>
      </trkpt>
      <trkpt lat="44.55429" lon="4.22758">
        <ele>444</ele>
        <time>2018-06-03T09:01:21.000Z</time>
      </trkpt>
      <trkpt lat="44.55429" lon="4.22765">
        <ele>445</ele>
        <time>2018-06-03T09:01:22.000Z</time>
      </trkpt>
      <trkpt lat="44.55429" lon="4.22771">
        <ele>446</ele>
        <time>2018-06-03T09:01:23.000Z</time>
      </trkpt>
      <trkpt lat="44.5543" lon="4.22776">
        <ele>446</ele>
        <time>2018-06-03T09:01:24.000Z</time>
      </trkpt>
      <trkpt lat="44.5543" lon="4.22778">
        <ele>446</ele>
        <time>2018-06-03T09:01:25.000Z</time>
      </trkpt>
      <trkpt lat="44.5543" lon="4.22778">
        <ele>446</ele>
        <time>2018-06-03T09:01:26.000Z</time>
      </trkpt>
      <trkpt lat="44.5543" lon="4.22778">
        <ele>446</ele>
        <time>2018-06-03T09:01:27.000Z</time>
      </trkpt>
      <trkpt lat="44.5543" lon="4.22778">
        <ele>446</ele>
        <time>2018-06-03T09:01:28.000Z</time>
      </trkpt>
      <trkpt lat="44.55431" lon="4.22778">
        <ele>446</ele>
        <time>2018-06-03T09:01:29.000Z</time>
      </trkpt>
      <trkpt lat="44.55432" lon="4.22779">
        <ele>446</ele>
        <time>2018-06-03T09:01:30.000Z</time>
      </trkpt>
      <trkpt lat="44.55433" lon="4.22778">
        <ele>447</ele>
        <time>2018-06-03T09:01:31.000Z</time>
      </trkpt>
      <trkpt lat="44.55434" lon="4.22776">
        <ele>447</ele>
        <time>2018-06-03T09:01:32.000Z</time>
      </trkpt>
      <trkpt lat="44.55435" lon="4.22776">
        <ele>447</ele>
        <time>2018-06-03T09:01:33.000Z</time>
      </trkpt>
      <trkpt lat="44.55435" lon="4.22775">
        <ele>447</ele>
        <time>2018-06-03T09:01:34.000Z</time>
      </trkpt>
      <trkpt lat="44.55435" lon="4.22775">
        <ele>447</ele>
        <time>2018-06-03T09:01:35.000Z</time>
      </trkpt>
      <trkpt lat="44.55435" lon="4.22775">
        <ele>447</ele>
        <time>2018-06-03T09:01:36.000Z</time>
      </trkpt>
      <trkpt lat="44.55435" lon="4.22775">
        <ele>447</ele>
        <time>2018-06-03T09:01:37.000Z</time>
      </trkpt>
      <trkpt lat="44.55435" lon="4.22775">
        <ele>447</ele>
        <time>2018-06-03T09:01:38.000Z</time>
      </trkpt>
      <trkpt lat="44.55435" lon="4.22776">
        <ele>447</ele>
        <time>2018-06-03T09:01:39.000Z</time>
      </trkpt>
      <trkpt lat="44.55435" lon="4.22776">
        <ele>447</ele>
        <time>2018-06-03T09:01:40.000Z</time>
      </trkpt>
      <trkpt lat="44.55435" lon="4.22776">
        <ele>447</ele>
        <time>2018-06-03T09:01:41.000Z</time>
      </trkpt>
      <trkpt lat="44.55435" lon="4.22776">
        <ele>447</ele>
        <time>2018-06-03T09:01:42.000Z</time>
      </trkpt>
      <trkpt lat="44.55435" lon="4.22776">
        <ele>447</ele>
        <time>2018-06-03T09:01:43.000Z</time>
      </trkpt>
      <trkpt lat="44.55435" lon="4.22776">
        <ele>447</ele>
        <time>2018-06-03T09:01:44.000Z</time>
      </trkpt>
      <trkpt lat="44.55435" lon="4.22776">
        <ele>447</ele>
        <time>2018-06-03T09:01:45.000Z</time>
      </trkpt>
      <trkpt lat="44.55435" lon="4.22776">
        <ele>447</ele>
        <time>2018-06-03T09:01:46.000Z</time>
      </trkpt>
      <trkpt lat="44.55435" lon="4.22776">
        <ele>447</ele>
        <time>2018-06-03T09:01:47.000Z</time>
      </trkpt>
      <trkpt lat="44.55435" lon="4.22776">
        <ele>447</ele>
        <time>2018-06-03T09:01:48.000Z</time>
      </trkpt>
      <trkpt lat="44.55435" lon="4.22776">
        <ele>447</ele>
        <time>2018-06-03T09:01:49.000Z</time>
      </trkpt>
      <trkpt lat="44.55435" lon="4.22776">
        <ele>447</ele>
        <time>2018-06-03T09:01:50.000Z</time>
      </trkpt>
      <trkpt lat="44.55435" lon="4.22776">
        <ele>447</ele>
        <time>2018-06-03T09:01:51.000Z</time>
      </trkpt>
      <trkpt lat="44.55435" lon="4.22776">
        <ele>447</ele>
        <time>2018-06-03T09:01:52.000Z</time>
      </trkpt>
      <trkpt lat="44.55435" lon="4.22776">
        <ele>447</ele>
        <time>2018-06-03T09:01:53.000Z</time>
      </trkpt>
      <trkpt lat="44.55435" lon="4.22777">
        <ele>447</ele>
        <time>2018-06-03T09:01:54.000Z</time>
      </trkpt>
      <trkpt lat="44.55435" lon="4.22777">
        <ele>447</ele>
        <time>2018-06-03T09:01:55.000Z</time>
      </trkpt>
      <trkpt lat="44.55435" lon="4.22777">
        <ele>447</ele>
        <time>2018-06-03T09:01:56.000Z</time>
      </trkpt>
      <trkpt lat="44.55435" lon="4.22777">
        <ele>447</ele>
        <time>2018-06-03T09:01:57.000Z</time>
      </trkpt>
      <trkpt lat="44.55435" lon="4.22777">
        <ele>447</ele>
        <time>2018-06-03T09:01:58.000Z</time>
      </trkpt>
      <trkpt lat="44.55434" lon="4.22777">
        <ele>447</ele>
        <time>2018-06-03T09:01:59.000Z</time>
      </trkpt>
      <trkpt lat="44.55434" lon="4.22777">
        <ele>447</ele>
        <time>2018-06-03T09:02:00.000Z</time>
      </trkpt>
      <trkpt lat="44.55434" lon="4.22777">
        <ele>447</ele>
        <time>2018-06-03T09:02:01.000Z</time>
      </trkpt>
      <trkpt lat="44.55434" lon="4.22777">
        <ele>447</ele>
        <time>2018-06-03T09:02:02.000Z</time>
      </trkpt>
      <trkpt lat="44.55434" lon="4.22777">
        <ele>447</ele>
        <time>2018-06-03T09:02:03.000Z</time>
      </trkpt>
      <trkpt lat="44.55434" lon="4.22777">
        <ele>447</ele>
        <time>2018-06-03T09:02:04.000Z</time>
      </trkpt>
      <trkpt lat="44.55434" lon="4.22777">
        <ele>447</ele>
        <time>2018-06-03T09:02:05.000Z</time>
      </trkpt>
      <trkpt lat="44.55434" lon="4.22777">
        <ele>447</ele>
        <time>2018-06-03T09:02:06.000Z</time>
      </trkpt>
      <trkpt lat="44.55434" lon="4.22776">
        <ele>447</ele>
        <time>2018-06-03T09:02:07.000Z</time>
      </trkpt>
      <trkpt lat="44.55433" lon="4.22776">
        <ele>447</ele>
        <time>2018-06-03T09:02:08.000Z</time>
      </trkpt>
      <trkpt lat="44.55433" lon="4.22775">
        <ele>446</ele>
        <time>2018-06-03T09:02:09.000Z</time>
      </trkpt>
      <trkpt lat="44.55433" lon="4.22775">
        <ele>446</ele>
        <time>2018-06-03T09:02:10.000Z</time>
      </trkpt>
      <trkpt lat="44.55433" lon="4.22775">
        <ele>446</ele>
        <time>2018-06-03T09:02:11.000Z</time>
      </trkpt>
      <trkpt lat="44.55433" lon="4.22775">
        <ele>446</ele>
        <time>2018-06-03T09:02:12.000Z</time>
      </trkpt>
      <trkpt lat="44.55433" lon="4.22775">
        <ele>446</ele>
        <time>2018-06-03T09:02:13.000Z</time>
      </trkpt>
      <trkpt lat="44.55433" lon="4.22775">
        <ele>446</ele>
        <time>2018-06-03T09:02:14.000Z</time>
      </trkpt>
      <trkpt lat="44.55433" lon="4.22775">
        <ele>446</ele>
        <time>2018-06-03T09:02:15.000Z</time>
      </trkpt>
      <trkpt lat="44.55433" lon="4.22775">
        <ele>446</ele>
        <time>2018-06-03T09:02:16.000Z</time>
      </trkpt>
      <trkpt lat="44.55433" lon="4.22775">
        <ele>446</ele>
        <time>2018-06-03T09:02:17.000Z</time>
      </trkpt>
      <trkpt lat="44.55433" lon="4.22775">
        <ele>446</ele>
        <time>2018-06-03T09:02:18.000Z</time>
      </trkpt>
      <trkpt lat="44.55433" lon="4.22775">
        <ele>446</ele>
        <time>2018-06-03T09:02:19.000Z</time>
      </trkpt>
      <trkpt lat="44.55433" lon="4.22775">
        <ele>446</ele>
        <time>2018-06-03T09:02:20.000Z</time>
      </trkpt>
      <trkpt lat="44.55433" lon="4.22775">
        <ele>446</ele>
        <time>2018-06-03T09:02:21.000Z</time>
      </trkpt>
      <trkpt lat="44.55433" lon="4.22775">
        <ele>446</ele>
        <time>2018-06-03T09:02:22.000Z</time>
      </trkpt>
      <trkpt lat="44.55433" lon="4.22775">
        <ele>446</ele>
        <time>2018-06-03T09:02:23.000Z</time>
      </trkpt>
      <trkpt lat="44.55433" lon="4.22775">
        <ele>446</ele>
        <time>2018-06-03T09:02:24.000Z</time>
      </trkpt>
      <trkpt lat="44.55433" lon="4.22775">
        <ele>446</ele>
        <time>2018-06-03T09:02:25.000Z</time>
      </trkpt>
      <trkpt lat="44.55433" lon="4.22775">
        <ele>446</ele>
        <time>2018-06-03T09:02:26.000Z</time>
      </trkpt>
      <trkpt lat="44.55433" lon="4.22775">
        <ele>446</ele>
        <time>2018-06-03T09:02:27.000Z</time>
      </trkpt>
      <trkpt lat="44.55433" lon="4.22775">
        <ele>446</ele>
        <time>2018-06-03T09:02:28.000Z</time>
      </trkpt>
      <trkpt lat="44.55433" lon="4.22775">
        <ele>446</ele>
        <time>2018-06-03T09:02:29.000Z</time>
      </trkpt>
      <trkpt lat="44.55433" lon="4.22775">
        <ele>446</ele>
        <time>2018-06-03T09:02:30.000Z</time>
      </trkpt>
      <trkpt lat="44.55433" lon="4.22775">
        <ele>446</ele>
        <time>2018-06-03T09:02:31.000Z</time>
      </trkpt>
      <trkpt lat="44.55433" lon="4.22775">
        <ele>446</ele>
        <time>2018-06-03T09:02:32.000Z</time>
      </trkpt>
      <trkpt lat="44.55433" lon="4.22775">
        <ele>446</ele>
        <time>2018-06-03T09:02:33.000Z</time>
      </trkpt>
      <trkpt lat="44.55433" lon="4.22775">
        <ele>446</ele>
        <time>2018-06-03T09:02:34.000Z</time>
      </trkpt>
      <trkpt lat="44.55433" lon="4.22775">
        <ele>446</ele>
        <time>2018-06-03T09:02:35.000Z</time>
      </trkpt>
      <trkpt lat="44.55433" lon="4.22775">
        <ele>446</ele>
        <time>2018-06-03T09:02:36.000Z</time>
      </trkpt>
      <trkpt lat="44.55433" lon="4.22775">
        <ele>446</ele>
        <time>2018-06-03T09:02:37.000Z</time>
      </trkpt>
      <trkpt lat="44.55433" lon="4.22775">
        <ele>446</ele>
        <time>2018-06-03T09:02:38.000Z</time>
      </trkpt>
      <trkpt lat="44.55433" lon="4.22775">
        <ele>446</ele>
        <time>2018-06-03T09:02:39.000Z</time>
      </trkpt>
      <trkpt lat="44.55433" lon="4.22775">
        <ele>447</ele>
        <time>2018-06-03T09:02:40.000Z</time>
      </trkpt>
      <trkpt lat="44.55433" lon="4.22775">
        <ele>447</ele>
        <time>2018-06-03T09:02:41.000Z</time>
      </trkpt>
      <trkpt lat="44.55433" lon="4.22775">
        <ele>447</ele>
        <time>2018-06-03T09:02:42.000Z</time>
      </trkpt>
      <trkpt lat="44.55433" lon="4.22775">
        <ele>447</ele>
        <time>2018-06-03T09:02:43.000Z</time>
      </trkpt>
      <trkpt lat="44.55433" lon="4.22775">
        <ele>447</ele>
        <time>2018-06-03T09:02:44.000Z</time>
      </trkpt>
      <trkpt lat="44.55433" lon="4.22775">
        <ele>447</ele>
        <time>2018-06-03T09:02:45.000Z</time>
      </trkpt>
      <trkpt lat="44.55433" lon="4.22775">
        <ele>447</ele>
        <time>2018-06-03T09:02:46.000Z</time>
      </trkpt>
      <trkpt lat="44.55434" lon="4.22775">
        <ele>447</ele>
        <time>2018-06-03T09:02:47.000Z</time>
      </trkpt>
      <trkpt lat="44.55434" lon="4.22775">
        <ele>447</ele>
        <time>2018-06-03T09:02:48.000Z</time>
      </trkpt>
      <trkpt lat="44.55434" lon="4.22775">
        <ele>447</ele>
        <time>2018-06-03T09:02:49.000Z</time>
      </trkpt>
      <trkpt lat="44.55434" lon="4.22775">
        <ele>447</ele>
        <time>2018-06-03T09:02:50.000Z</time>
      </trkpt>
      <trkpt lat="44.55434" lon="4.22775">
        <ele>447</ele>
        <time>2018-06-03T09:02:51.000Z</time>
      </trkpt>
      <trkpt lat="44.55434" lon="4.22775">
        <ele>447</ele>
        <time>2018-06-03T09:02:52.000Z</time>
      </trkpt>
      <trkpt lat="44.55434" lon="4.22775">
        <ele>447</ele>
        <time>2018-06-03T09:02:53.000Z</time>
      </trkpt>
      <trkpt lat="44.55434" lon="4.22775">
        <ele>447</ele>
        <time>2018-06-03T09:02:54.000Z</time>
      </trkpt>
      <trkpt lat="44.55434" lon="4.22775">
        <ele>447</ele>
        <time>2018-06-03T09:02:55.000Z</time>
      </trkpt>
      <trkpt lat="44.55434" lon="4.22775">
        <ele>447</ele>
        <time>2018-06-03T09:02:56.000Z</time>
      </trkpt>
      <trkpt lat="44.55434" lon="4.22775">
        <ele>447</ele>
        <time>2018-06-03T09:02:57.000Z</time>
      </trkpt>
      <trkpt lat="44.55434" lon="4.22775">
        <ele>447</ele>
        <time>2018-06-03T09:02:58.000Z</time>
      </trkpt>
      <trkpt lat="44.55434" lon="4.22775">
        <ele>447</ele>
        <time>2018-06-03T09:02:59.000Z</time>
      </trkpt>
      <trkpt lat="44.55434" lon="4.22775">
        <ele>447</ele>
        <time>2018-06-03T09:03:00.000Z</time>
      </trkpt>
      <trkpt lat="44.55434" lon="4.22775">
        <ele>447</ele>
        <time>2018-06-03T09:03:01.000Z</time>
      </trkpt>
      <trkpt lat="44.55434" lon="4.22775">
        <ele>447</ele>
        <time>2018-06-03T09:03:02.000Z</time>
      </trkpt>
      <trkpt lat="44.55434" lon="4.22775">
        <ele>447</ele>
        <time>2018-06-03T09:03:03.000Z</time>
      </trkpt>
      <trkpt lat="44.55434" lon="4.22775">
        <ele>447</ele>
        <time>2018-06-03T09:03:04.000Z</time>
      </trkpt>
      <trkpt lat="44.55434" lon="4.22775">
        <ele>447</ele>
        <time>2018-06-03T09:03:05.000Z</time>
      </trkpt>
      <trkpt lat="44.55435" lon="4.22775">
        <ele>447</ele>
        <time>2018-06-03T09:03:06.000Z</time>
      </trkpt>
      <trkpt lat="44.55435" lon="4.22775">
        <ele>447</ele>
        <time>2018-06-03T09:03:07.000Z</time>
      </trkpt>
      <trkpt lat="44.55435" lon="4.22775">
        <ele>447</ele>
        <time>2018-06-03T09:03:08.000Z</time>
      </trkpt>
      <trkpt lat="44.55435" lon="4.22775">
        <ele>447</ele>
        <time>2018-06-03T09:03:09.000Z</time>
      </trkpt>
      <trkpt lat="44.55435" lon="4.22775">
        <ele>447</ele>
        <time>2018-06-03T09:03:10.000Z</time>
      </trkpt>
      <trkpt lat="44.55435" lon="4.22775">
        <ele>447</ele>
        <time>2018-06-03T09:03:11.000Z</time>
      </trkpt>
      <trkpt lat="44.55435" lon="4.22775">
        <ele>447</ele>
        <time>2018-06-03T09:03:12.000Z</time>
      </trkpt>
      <trkpt lat="44.55435" lon="4.22775">
        <ele>447</ele>
        <time>2018-06-03T09:03:13.000Z</time>
      </trkpt>
      <trkpt lat="44.55435" lon="4.22775">
        <ele>447</ele>
        <time>2018-06-03T09:03:14.000Z</time>
      </trkpt>
      <trkpt lat="44.55435" lon="4.22775">
        <ele>447</ele>
        <time>2018-06-03T09:03:15.000Z</time>
      </trkpt>
      <trkpt lat="44.55435" lon="4.22775">
        <ele>447</ele>
        <time>2018-06-03T09:03:16.000Z</time>
      </trkpt>
      <trkpt lat="44.55435" lon="4.22775">
        <ele>447</ele>
        <time>2018-06-03T09:03:17.000Z</time>
      </trkpt>
      <trkpt lat="44.55435" lon="4.22775">
        <ele>447</ele>
        <time>2018-06-03T09:03:18.000Z</time>
      </trkpt>
      <trkpt lat="44.55435" lon="4.22775">
        <ele>447</ele>
        <time>2018-06-03T09:03:19.000Z</time>
      </trkpt>
      <trkpt lat="44.55435" lon="4.22775">
        <ele>447</ele>
        <time>2018-06-03T09:03:20.000Z</time>
      </trkpt>
      <trkpt lat="44.55435" lon="4.22775">
        <ele>447</ele>
        <time>2018-06-03T09:03:21.000Z</time>
      </trkpt>
      <trkpt lat="44.55435" lon="4.22775">
        <ele>447</ele>
        <time>2018-06-03T09:03:22.000Z</time>
      </trkpt>
      <trkpt lat="44.55435" lon="4.22775">
        <ele>447</ele>
        <time>2018-06-03T09:03:23.000Z</time>
      </trkpt>
      <trkpt lat="44.55435" lon="4.22775">
        <ele>447</ele>
        <time>2018-06-03T09:03:24.000Z</time>
      </trkpt>
      <trkpt lat="44.55435" lon="4.22775">
        <ele>447</ele>
        <time>2018-06-03T09:03:25.000Z</time>
      </trkpt>
      <trkpt lat="44.55435" lon="4.22775">
        <ele>447</ele>
        <time>2018-06-03T09:03:26.000Z</time>
      </trkpt>
      <trkpt lat="44.55435" lon="4.22775">
        <ele>447</ele>
        <time>2018-06-03T09:03:27.000Z</time>
      </trkpt>
      <trkpt lat="44.55435" lon="4.22775">
        <ele>447</ele>
        <time>2018-06-03T09:03:28.000Z</time>
      </trkpt>
      <trkpt lat="44.55435" lon="4.22775">
        <ele>447</ele>
        <time>2018-06-03T09:03:29.000Z</time>
      </trkpt>
      <trkpt lat="44.55435" lon="4.22775">
        <ele>447</ele>
        <time>2018-06-03T09:03:30.000Z</time>
      </trkpt>
      <trkpt lat="44.55436" lon="4.22775">
        <ele>447</ele>
        <time>2018-06-03T09:03:31.000Z</time>
      </trkpt>
      <trkpt lat="44.55436" lon="4.22775">
        <ele>447</ele>
        <time>2018-06-03T09:03:32.000Z</time>
      </trkpt>
      <trkpt lat="44.55436" lon="4.22775">
        <ele>447</ele>
        <time>2018-06-03T09:03:33.000Z</time>
      </trkpt>
      <trkpt lat="44.55436" lon="4.22775">
        <ele>447</ele>
        <time>2018-06-03T09:03:34.000Z</time>
      </trkpt>
      <trkpt lat="44.55436" lon="4.22775">
        <ele>447</ele>
        <time>2018-06-03T09:03:35.000Z</time>
      </trkpt>
      <trkpt lat="44.55436" lon="4.22775">
        <ele>447</ele>
        <time>2018-06-03T09:03:36.000Z</time>
      </trkpt>
      <trkpt lat="44.55436" lon="4.22775">
        <ele>447</ele>
        <time>2018-06-03T09:03:37.000Z</time>
      </trkpt>
      <trkpt lat="44.55436" lon="4.22775">
        <ele>447</ele>
        <time>2018-06-03T09:03:38.000Z</time>
      </trkpt>
      <trkpt lat="44.55436" lon="4.22775">
        <ele>447</ele>
        <time>2018-06-03T09:03:39.000Z</time>
      </trkpt>
      <trkpt lat="44.55436" lon="4.22775">
        <ele>447</ele>
        <time>2018-06-03T09:03:40.000Z</time>
      </trkpt>
      <trkpt lat="44.55436" lon="4.22775">
        <ele>447</ele>
        <time>2018-06-03T09:03:41.000Z</time>
      </trkpt>
      <trkpt lat="44.55436" lon="4.22775">
        <ele>447</ele>
        <time>2018-06-03T09:03:42.000Z</time>
      </trkpt>
      <trkpt lat="44.55436" lon="4.22775">
        <ele>447</ele>
        <time>2018-06-03T09:03:43.000Z</time>
      </trkpt>
      <trkpt lat="44.55436" lon="4.22775">
        <ele>447</ele>
        <time>2018-06-03T09:03:44.000Z</time>
      </trkpt>
      <trkpt lat="44.55436" lon="4.22775">
        <ele>447</ele>
        <time>2018-06-03T09:03:45.000Z</time>
      </trkpt>
      <trkpt lat="44.55436" lon="4.22775">
        <ele>447</ele>
        <time>2018-06-03T09:03:46.000Z</time>
      </trkpt>
      <trkpt lat="44.55436" lon="4.22775">
        <ele>447</ele>
        <time>2018-06-03T09:03:47.000Z</time>
      </trkpt>
      <trkpt lat="44.55436" lon="4.22775">
        <ele>447</ele>
        <time>2018-06-03T09:03:48.000Z</time>
      </trkpt>
      <trkpt lat="44.55436" lon="4.22775">
        <ele>447</ele>
        <time>2018-06-03T09:03:49.000Z</time>
      </trkpt>
      <trkpt lat="44.55436" lon="4.22775">
        <ele>447</ele>
        <time>2018-06-03T09:03:50.000Z</time>
      </trkpt>
      <trkpt lat="44.55436" lon="4.22775">
        <ele>447</ele>
        <time>2018-06-03T09:03:51.000Z</time>
      </trkpt>
      <trkpt lat="44.55436" lon="4.22775">
        <ele>447</ele>
        <time>2018-06-03T09:03:52.000Z</time>
      </trkpt>
      <trkpt lat="44.55436" lon="4.22775">
        <ele>447</ele>
        <time>2018-06-03T09:03:53.000Z</time>
      </trkpt>
      <trkpt lat="44.55436" lon="4.22775">
        <ele>447</ele>
        <time>2018-06-03T09:03:54.000Z</time>
      </trkpt>
      <trkpt lat="44.55436" lon="4.22775">
        <ele>447</ele>
        <time>2018-06-03T09:03:55.000Z</time>
      </trkpt>
      <trkpt lat="44.55436" lon="4.22775">
        <ele>447</ele>
        <time>2018-06-03T09:03:56.000Z</time>
      </trkpt>
      <trkpt lat="44.55436" lon="4.22775">
        <ele>447</ele>
        <time>2018-06-03T09:03:57.000Z</time>
      </trkpt>
      <trkpt lat="44.55436" lon="4.22775">
        <ele>447</ele>
        <time>2018-06-03T09:03:58.000Z</time>
      </trkpt>
      <trkpt lat="44.55436" lon="4.22775">
        <ele>447</ele>
        <time>2018-06-03T09:03:59.000Z</time>
      </trkpt>
      <trkpt lat="44.55436" lon="4.22775">
        <ele>447</ele>
        <time>2018-06-03T09:04:00.000Z</time>
      </trkpt>
      <trkpt lat="44.55436" lon="4.22775">
        <ele>447</ele>
        <time>2018-06-03T09:04:01.000Z</time>
      </trkpt>
      <trkpt lat="44.55436" lon="4.22775">
        <ele>447</ele>
        <time>2018-06-03T09:04:02.000Z</time>
      </trkpt>
      <trkpt lat="44.55436" lon="4.22775">
        <ele>447</ele>
        <time>2018-06-03T09:04:03.000Z</time>
      </trkpt>
      <trkpt lat="44.55436" lon="4.22775">
        <ele>447</ele>
        <time>2018-06-03T09:04:04.000Z</time>
      </trkpt>
      <trkpt lat="44.55436" lon="4.22775">
        <ele>447</ele>
        <time>2018-06-03T09:04:05.000Z</time>
      </trkpt>
      <trkpt lat="44.55436" lon="4.22775">
        <ele>447</ele>
        <time>2018-06-03T09:04:06.000Z</time>
      </trkpt>
      <trkpt lat="44.55436" lon="4.22775">
        <ele>447</ele>
        <time>2018-06-03T09:04:07.000Z</time>
      </trkpt>
      <trkpt lat="44.55436" lon="4.22775">
        <ele>447</ele>
        <time>2018-06-03T09:04:08.000Z</time>
      </trkpt>
      <trkpt lat="44.55436" lon="4.22775">
        <ele>447</ele>
        <time>2018-06-03T09:04:09.000Z</time>
      </trkpt>
      <trkpt lat="44.55436" lon="4.22775">
        <ele>447</ele>
        <time>2018-06-03T09:04:10.000Z</time>
      </trkpt>
      <trkpt lat="44.55436" lon="4.22775">
        <ele>447</ele>
        <time>2018-06-03T09:04:11.000Z</time>
      </trkpt>
      <trkpt lat="44.55436" lon="4.22775">
        <ele>447</ele>
        <time>2018-06-03T09:04:12.000Z</time>
      </trkpt>
      <trkpt lat="44.55436" lon="4.22775">
        <ele>447</ele>
        <time>2018-06-03T09:04:13.000Z</time>
      </trkpt>
      <trkpt lat="44.55436" lon="4.22775">
        <ele>447</ele>
        <time>2018-06-03T09:04:14.000Z</time>
      </trkpt>
      <trkpt lat="44.55436" lon="4.22775">
        <ele>447</ele>
        <time>2018-06-03T09:04:15.000Z</time>
      </trkpt>
      <trkpt lat="44.55436" lon="4.22775">
        <ele>447</ele>
        <time>2018-06-03T09:04:16.000Z</time>
      </trkpt>
      <trkpt lat="44.55436" lon="4.22775">
        <ele>447</ele>
        <time>2018-06-03T09:04:17.000Z</time>
      </trkpt>
      <trkpt lat="44.55436" lon="4.22775">
        <ele>447</ele>
        <time>2018-06-03T09:04:18.000Z</time>
      </trkpt>
      <trkpt lat="44.55436" lon="4.22775">
        <ele>447</ele>
        <time>2018-06-03T09:04:19.000Z</time>
      </trkpt>
      <trkpt lat="44.55436" lon="4.22775">
        <ele>447</ele>
        <time>2018-06-03T09:04:20.000Z</time>
      </trkpt>
      <trkpt lat="44.55436" lon="4.22775">
        <ele>447</ele>
        <time>2018-06-03T09:04:21.000Z</time>
      </trkpt>
      <trkpt lat="44.55436" lon="4.22775">
        <ele>447</ele>
        <time>2018-06-03T09:04:22.000Z</time>
      </trkpt>
      <trkpt lat="44.55436" lon="4.22775">
        <ele>447</ele>
        <time>2018-06-03T09:04:23.000Z</time>
      </trkpt>
      <trkpt lat="44.55436" lon="4.22775">
        <ele>447</ele>
        <time>2018-06-03T09:04:24.000Z</time>
      </trkpt>
      <trkpt lat="44.55436" lon="4.22775">
        <ele>447</ele>
        <time>2018-06-03T09:04:25.000Z</time>
      </trkpt>
      <trkpt lat="44.55436" lon="4.22775">
        <ele>447</ele>
        <time>2018-06-03T09:04:26.000Z</time>
      </trkpt>
      <trkpt lat="44.55436" lon="4.22775">
        <ele>447</ele>
        <time>2018-06-03T09:04:27.000Z</time>
      </trkpt>
      <trkpt lat="44.55436" lon="4.22775">
        <ele>447</ele>
        <time>2018-06-03T09:04:28.000Z</time>
      </trkpt>
      <trkpt lat="44.55436" lon="4.22775">
        <ele>447</ele>
        <time>2018-06-03T09:04:29.000Z</time>
      </trkpt>
      <trkpt lat="44.55436" lon="4.22775">
        <ele>447</ele>
        <time>2018-06-03T09:04:30.000Z</time>
      </trkpt>
      <trkpt lat="44.55436" lon="4.22775">
        <ele>447</ele>
        <time>2018-06-03T09:04:31.000Z</time>
      </trkpt>
      <trkpt lat="44.55436" lon="4.22775">
        <ele>447</ele>
        <time>2018-06-03T09:04:32.000Z</time>
      </trkpt>
      <trkpt lat="44.55436" lon="4.22775">
        <ele>447</ele>
        <time>2018-06-03T09:04:33.000Z</time>
      </trkpt>
      <trkpt lat="44.55436" lon="4.22775">
        <ele>447</ele>
        <time>2018-06-03T09:04:34.000Z</time>
      </trkpt>
      <trkpt lat="44.55436" lon="4.22775">
        <ele>447</ele>
        <time>2018-06-03T09:04:35.000Z</time>
      </trkpt>
      <trkpt lat="44.55436" lon="4.22775">
        <ele>447</ele>
        <time>2018-06-03T09:04:36.000Z</time>
      </trkpt>
      <trkpt lat="44.55436" lon="4.22776">
        <ele>447</ele>
        <time>2018-06-03T09:04:37.000Z</time>
      </trkpt>
      <trkpt lat="44.55436" lon="4.22776">
        <ele>447</ele>
        <time>2018-06-03T09:04:38.000Z</time>
      </trkpt>
      <trkpt lat="44.55436" lon="4.22776">
        <ele>447</ele>
        <time>2018-06-03T09:04:39.000Z</time>
      </trkpt>
      <trkpt lat="44.55436" lon="4.22776">
        <ele>447</ele>
        <time>2018-06-03T09:04:40.000Z</time>
      </trkpt>
      <trkpt lat="44.55436" lon="4.22776">
        <ele>447</ele>
        <time>2018-06-03T09:04:41.000Z</time>
      </trkpt>
      <trkpt lat="44.55436" lon="4.22776">
        <ele>447</ele>
        <time>2018-06-03T09:04:42.000Z</time>
      </trkpt>
      <trkpt lat="44.55436" lon="4.22776">
        <ele>447</ele>
        <time>2018-06-03T09:04:43.000Z</time>
      </trkpt>
      <trkpt lat="44.55436" lon="4.22776">
        <ele>447</ele>
        <time>2018-06-03T09:04:44.000Z</time>
      </trkpt>
      <trkpt lat="44.55436" lon="4.22776">
        <ele>447</ele>
        <time>2018-06-03T09:04:45.000Z</time>
      </trkpt>
      <trkpt lat="44.55436" lon="4.22776">
        <ele>447</ele>
        <time>2018-06-03T09:04:46.000Z</time>
      </trkpt>
      <trkpt lat="44.55436" lon="4.22776">
        <ele>447</ele>
        <time>2018-06-03T09:04:47.000Z</time>
      </trkpt>
      <trkpt lat="44.55436" lon="4.22776">
        <ele>447</ele>
        <time>2018-06-03T09:04:48.000Z</time>
      </trkpt>
      <trkpt lat="44.55436" lon="4.22776">
        <ele>447</ele>
        <time>2018-06-03T09:04:49.000Z</time>
      </trkpt>
      <trkpt lat="44.55436" lon="4.22776">
        <ele>447</ele>
        <time>2018-06-03T09:04:50.000Z</time>
      </trkpt>
      <trkpt lat="44.55436" lon="4.22776">
        <ele>447</ele>
        <time>2018-06-03T09:04:51.000Z</time>
      </trkpt>
      <trkpt lat="44.55436" lon="4.22776">
        <ele>447</ele>
        <time>2018-06-03T09:04:52.000Z</time>
      </trkpt>
      <trkpt lat="44.55436" lon="4.22776">
        <ele>447</ele>
        <time>2018-06-03T09:04:53.000Z</time>
      </trkpt>
      <trkpt lat="44.55436" lon="4.22776">
        <ele>447</ele>
        <time>2018-06-03T09:04:54.000Z</time>
      </trkpt>
      <trkpt lat="44.55436" lon="4.22776">
        <ele>447</ele>
        <time>2018-06-03T09:04:55.000Z</time>
      </trkpt>
      <trkpt lat="44.55436" lon="4.22776">
        <ele>447</ele>
        <time>2018-06-03T09:04:56.000Z</time>
      </trkpt>
      <trkpt lat="44.55436" lon="4.22776">
        <ele>447</ele>
        <time>2018-06-03T09:04:57.000Z</time>
      </trkpt>
      <trkpt lat="44.55436" lon="4.22776">
        <ele>447</ele>
        <time>2018-06-03T09:04:58.000Z</time>
      </trkpt>
      <trkpt lat="44.55436" lon="4.22776">
        <ele>447</ele>
        <time>2018-06-03T09:04:59.000Z</time>
      </trkpt>
      <trkpt lat="44.55436" lon="4.22776">
        <ele>447</ele>
        <time>2018-06-03T09:05:00.000Z</time>
      </trkpt>
      <trkpt lat="44.55436" lon="4.22776">
        <ele>447</ele>
        <time>2018-06-03T09:05:01.000Z</time>
      </trkpt>
      <trkpt lat="44.55436" lon="4.22776">
        <ele>447</ele>
        <time>2018-06-03T09:05:02.000Z</time>
      </trkpt>
      <trkpt lat="44.55436" lon="4.22776">
        <ele>447</ele>
        <time>2018-06-03T09:05:03.000Z</time>
      </trkpt>
      <trkpt lat="44.55436" lon="4.22776">
        <ele>447</ele>
        <time>2018-06-03T09:05:04.000Z</time>
      </trkpt>
      <trkpt lat="44.55436" lon="4.22776">
        <ele>447</ele>
        <time>2018-06-03T09:05:05.000Z</time>
      </trkpt>
      <trkpt lat="44.55436" lon="4.22776">
        <ele>447</ele>
        <time>2018-06-03T09:05:06.000Z</time>
      </trkpt>
      <trkpt lat="44.55436" lon="4.22776">
        <ele>447</ele>
        <time>2018-06-03T09:05:07.000Z</time>
      </trkpt>
      <trkpt lat="44.55436" lon="4.22776">
        <ele>447</ele>
        <time>2018-06-03T09:05:08.000Z</time>
      </trkpt>
      <trkpt lat="44.55436" lon="4.22776">
        <ele>447</ele>
        <time>2018-06-03T09:05:09.000Z</time>
      </trkpt>
      <trkpt lat="44.55436" lon="4.22776">
        <ele>447</ele>
        <time>2018-06-03T09:05:10.000Z</time>
      </trkpt>
      <trkpt lat="44.55436" lon="4.22776">
        <ele>447</ele>
        <time>2018-06-03T09:05:11.000Z</time>
      </trkpt>
      <trkpt lat="44.55436" lon="4.22776">
        <ele>447</ele>
        <time>2018-06-03T09:05:12.000Z</time>
      </trkpt>
      <trkpt lat="44.55436" lon="4.22776">
        <ele>447</ele>
        <time>2018-06-03T09:05:13.000Z</time>
      </trkpt>
      <trkpt lat="44.55435" lon="4.22776">
        <ele>447</ele>
        <time>2018-06-03T09:05:14.000Z</time>
      </trkpt>
      <trkpt lat="44.55435" lon="4.22776">
        <ele>447</ele>
        <time>2018-06-03T09:05:15.000Z</time>
      </trkpt>
      <trkpt lat="44.55435" lon="4.22776">
        <ele>447</ele>
        <time>2018-06-03T09:05:16.000Z</time>
      </trkpt>
      <trkpt lat="44.55435" lon="4.22776">
        <ele>447</ele>
        <time>2018-06-03T09:05:17.000Z</time>
      </trkpt>
      <trkpt lat="44.55435" lon="4.22776">
        <ele>447</ele>
        <time>2018-06-03T09:05:18.000Z</time>
      </trkpt>
      <trkpt lat="44.55435" lon="4.22776">
        <ele>447</ele>
        <time>2018-06-03T09:05:19.000Z</time>
      </trkpt>
      <trkpt lat="44.55435" lon="4.22776">
        <ele>447</ele>
        <time>2018-06-03T09:05:20.000Z</time>
      </trkpt>
      <trkpt lat="44.55435" lon="4.22776">
        <ele>447</ele>
        <time>2018-06-03T09:05:21.000Z</time>
      </trkpt>
      <trkpt lat="44.55435" lon="4.22776">
        <ele>447</ele>
        <time>2018-06-03T09:05:22.000Z</time>
      </trkpt>
      <trkpt lat="44.55435" lon="4.22776">
        <ele>447</ele>
        <time>2018-06-03T09:05:23.000Z</time>
      </trkpt>
      <trkpt lat="44.55435" lon="4.22776">
        <ele>447</ele>
        <time>2018-06-03T09:05:24.000Z</time>
      </trkpt>
      <trkpt lat="44.55435" lon="4.22776">
        <ele>447</ele>
        <time>2018-06-03T09:05:25.000Z</time>
      </trkpt>
      <trkpt lat="44.55435" lon="4.22776">
        <ele>447</ele>
        <time>2018-06-03T09:05:26.000Z</time>
      </trkpt>
      <trkpt lat="44.55435" lon="4.22776">
        <ele>447</ele>
        <time>2018-06-03T09:05:27.000Z</time>
      </trkpt>
      <trkpt lat="44.55435" lon="4.22776">
        <ele>447</ele>
        <time>2018-06-03T09:05:28.000Z</time>
      </trkpt>
      <trkpt lat="44.55435" lon="4.22776">
        <ele>447</ele>
        <time>2018-06-03T09:05:29.000Z</time>
      </trkpt>
      <trkpt lat="44.55435" lon="4.22776">
        <ele>447</ele>
        <time>2018-06-03T09:05:30.000Z</time>
      </trkpt>
      <trkpt lat="44.55435" lon="4.22776">
        <ele>447</ele>
        <time>2018-06-03T09:05:31.000Z</time>
      </trkpt>
      <trkpt lat="44.55435" lon="4.22776">
        <ele>447</ele>
        <time>2018-06-03T09:05:32.000Z</time>
      </trkpt>
      <trkpt lat="44.55435" lon="4.22776">
        <ele>447</ele>
        <time>2018-06-03T09:05:33.000Z</time>
      </trkpt>
      <trkpt lat="44.55435" lon="4.22776">
        <ele>447</ele>
        <time>2018-06-03T09:05:34.000Z</time>
      </trkpt>
      <trkpt lat="44.55435" lon="4.22776">
        <ele>447</ele>
        <time>2018-06-03T09:05:35.000Z</time>
      </trkpt>
      <trkpt lat="44.55435" lon="4.22776">
        <ele>447</ele>
        <time>2018-06-03T09:05:36.000Z</time>
      </trkpt>
      <trkpt lat="44.55435" lon="4.22776">
        <ele>447</ele>
        <time>2018-06-03T09:05:37.000Z</time>
      </trkpt>
      <trkpt lat="44.55435" lon="4.22776">
        <ele>447</ele>
        <time>2018-06-03T09:05:38.000Z</time>
      </trkpt>
      <trkpt lat="44.55435" lon="4.22776">
        <ele>447</ele>
        <time>2018-06-03T09:05:39.000Z</time>
      </trkpt>
      <trkpt lat="44.55435" lon="4.22776">
        <ele>447</ele>
        <time>2018-06-03T09:05:40.000Z</time>
      </trkpt>
      <trkpt lat="44.55435" lon="4.22776">
        <ele>447</ele>
        <time>2018-06-03T09:05:41.000Z</time>
      </trkpt>
      <trkpt lat="44.55435" lon="4.22776">
        <ele>447</ele>
        <time>2018-06-03T09:05:42.000Z</time>
      </trkpt>
      <trkpt lat="44.55435" lon="4.22776">
        <ele>447</ele>
        <time>2018-06-03T09:05:43.000Z</time>
      </trkpt>
      <trkpt lat="44.55435" lon="4.22776">
        <ele>447</ele>
        <time>2018-06-03T09:05:44.000Z</time>
      </trkpt>
      <trkpt lat="44.55435" lon="4.22776">
        <ele>447</ele>
        <time>2018-06-03T09:05:45.000Z</time>
      </trkpt>
      <trkpt lat="44.55435" lon="4.22776">
        <ele>447</ele>
        <time>2018-06-03T09:05:46.000Z</time>
      </trkpt>
      <trkpt lat="44.55435" lon="4.22776">
        <ele>447</ele>
        <time>2018-06-03T09:05:47.000Z</time>
      </trkpt>
      <trkpt lat="44.55435" lon="4.22776">
        <ele>447</ele>
        <time>2018-06-03T09:05:48.000Z</time>
      </trkpt>
      <trkpt lat="44.55435" lon="4.22776">
        <ele>447</ele>
        <time>2018-06-03T09:05:49.000Z</time>
      </trkpt>
      <trkpt lat="44.55435" lon="4.22776">
        <ele>447</ele>
        <time>2018-06-03T09:05:50.000Z</time>
      </trkpt>
      <trkpt lat="44.55435" lon="4.22776">
        <ele>447</ele>
        <time>2018-06-03T09:05:51.000Z</time>
      </trkpt>
      <trkpt lat="44.55435" lon="4.22776">
        <ele>447</ele>
        <time>2018-06-03T09:05:52.000Z</time>
      </trkpt>
      <trkpt lat="44.55435" lon="4.22776">
        <ele>447</ele>
        <time>2018-06-03T09:05:53.000Z</time>
      </trkpt>
      <trkpt lat="44.55435" lon="4.22776">
        <ele>447</ele>
        <time>2018-06-03T09:05:54.000Z</time>
      </trkpt>
      <trkpt lat="44.55435" lon="4.22776">
        <ele>447</ele>
        <time>2018-06-03T09:05:55.000Z</time>
      </trkpt>
      <trkpt lat="44.55434" lon="4.22776">
        <ele>447</ele>
        <time>2018-06-03T09:05:56.000Z</time>
      </trkpt>
      <trkpt lat="44.55434" lon="4.22776">
        <ele>447</ele>
        <time>2018-06-03T09:05:57.000Z</time>
      </trkpt>
      <trkpt lat="44.55434" lon="4.22776">
        <ele>447</ele>
        <time>2018-06-03T09:05:58.000Z</time>
      </trkpt>
      <trkpt lat="44.55434" lon="4.22776">
        <ele>447</ele>
        <time>2018-06-03T09:05:59.000Z</time>
      </trkpt>
      <trkpt lat="44.55434" lon="4.22776">
        <ele>447</ele>
        <time>2018-06-03T09:06:00.000Z</time>
      </trkpt>
      <trkpt lat="44.55434" lon="4.22776">
        <ele>447</ele>
        <time>2018-06-03T09:06:01.000Z</time>
      </trkpt>
      <trkpt lat="44.55434" lon="4.22776">
        <ele>447</ele>
        <time>2018-06-03T09:06:02.000Z</time>
      </trkpt>
      <trkpt lat="44.55434" lon="4.22776">
        <ele>447</ele>
        <time>2018-06-03T09:06:03.000Z</time>
      </trkpt>
      <trkpt lat="44.55434" lon="4.22776">
        <ele>447</ele>
        <time>2018-06-03T09:06:04.000Z</time>
      </trkpt>
      <trkpt lat="44.55434" lon="4.22776">
        <ele>447</ele>
        <time>2018-06-03T09:06:05.000Z</time>
      </trkpt>
      <trkpt lat="44.55434" lon="4.22776">
        <ele>447</ele>
        <time>2018-06-03T09:06:06.000Z</time>
      </trkpt>
      <trkpt lat="44.55434" lon="4.22776">
        <ele>447</ele>
        <time>2018-06-03T09:06:07.000Z</time>
      </trkpt>
      <trkpt lat="44.55434" lon="4.22776">
        <ele>447</ele>
        <time>2018-06-03T09:06:08.000Z</time>
      </trkpt>
      <trkpt lat="44.55434" lon="4.22776">
        <ele>447</ele>
        <time>2018-06-03T09:06:09.000Z</time>
      </trkpt>
      <trkpt lat="44.55434" lon="4.22776">
        <ele>447</ele>
        <time>2018-06-03T09:06:10.000Z</time>
      </trkpt>
      <trkpt lat="44.55434" lon="4.22776">
        <ele>447</ele>
        <time>2018-06-03T09:06:11.000Z</time>
      </trkpt>
      <trkpt lat="44.55434" lon="4.22776">
        <ele>447</ele>
        <time>2018-06-03T09:06:12.000Z</time>
      </trkpt>
      <trkpt lat="44.55434" lon="4.22776">
        <ele>447</ele>
        <time>2018-06-03T09:06:13.000Z</time>
      </trkpt>
      <trkpt lat="44.55434" lon="4.22776">
        <ele>447</ele>
        <time>2018-06-03T09:06:14.000Z</time>
      </trkpt>
      <trkpt lat="44.55434" lon="4.22776">
        <ele>447</ele>
        <time>2018-06-03T09:06:15.000Z</time>
      </trkpt>
      <trkpt lat="44.55434" lon="4.22776">
        <ele>447</ele>
        <time>2018-06-03T09:06:16.000Z</time>
      </trkpt>
      <trkpt lat="44.55434" lon="4.22776">
        <ele>447</ele>
        <time>2018-06-03T09:06:17.000Z</time>
      </trkpt>
      <trkpt lat="44.55434" lon="4.22776">
        <ele>447</ele>
        <time>2018-06-03T09:06:18.000Z</time>
      </trkpt>
      <trkpt lat="44.55434" lon="4.22776">
        <ele>447</ele>
        <time>2018-06-03T09:06:19.000Z</time>
      </trkpt>
      <trkpt lat="44.55434" lon="4.22776">
        <ele>447</ele>
        <time>2018-06-03T09:06:20.000Z</time>
      </trkpt>
      <trkpt lat="44.55434" lon="4.22776">
        <ele>447</ele>
        <time>2018-06-03T09:06:21.000Z</time>
      </trkpt>
      <trkpt lat="44.55434" lon="4.22776">
        <ele>447</ele>
        <time>2018-06-03T09:06:22.000Z</time>
      </trkpt>
      <trkpt lat="44.55434" lon="4.22776">
        <ele>447</ele>
        <time>2018-06-03T09:06:23.000Z</time>
      </trkpt>
      <trkpt lat="44.55434" lon="4.22776">
        <ele>447</ele>
        <time>2018-06-03T09:06:24.000Z</time>
      </trkpt>
      <trkpt lat="44.55434" lon="4.22776">
        <ele>447</ele>
        <time>2018-06-03T09:06:25.000Z</time>
      </trkpt>
      <trkpt lat="44.55434" lon="4.22776">
        <ele>447</ele>
        <time>2018-06-03T09:06:26.000Z</time>
      </trkpt>
      <trkpt lat="44.55434" lon="4.22776">
        <ele>447</ele>
        <time>2018-06-03T09:06:27.000Z</time>
      </trkpt>
      <trkpt lat="44.55434" lon="4.22776">
        <ele>447</ele>
        <time>2018-06-03T09:06:28.000Z</time>
      </trkpt>
      <trkpt lat="44.55434" lon="4.22776">
        <ele>447</ele>
        <time>2018-06-03T09:06:29.000Z</time>
      </trkpt>
      <trkpt lat="44.55434" lon="4.22776">
        <ele>447</ele>
        <time>2018-06-03T09:06:30.000Z</time>
      </trkpt>
      <trkpt lat="44.55434" lon="4.22776">
        <ele>447</ele>
        <time>2018-06-03T09:06:31.000Z</time>
      </trkpt>
      <trkpt lat="44.55434" lon="4.22776">
        <ele>447</ele>
        <time>2018-06-03T09:06:32.000Z</time>
      </trkpt>
      <trkpt lat="44.55434" lon="4.22776">
        <ele>447</ele>
        <time>2018-06-03T09:06:33.000Z</time>
      </trkpt>
      <trkpt lat="44.55434" lon="4.22776">
        <ele>447</ele>
        <time>2018-06-03T09:06:34.000Z</time>
      </trkpt>
      <trkpt lat="44.55434" lon="4.22776">
        <ele>447</ele>
        <time>2018-06-03T09:06:35.000Z</time>
      </trkpt>
      <trkpt lat="44.55434" lon="4.22776">
        <ele>447</ele>
        <time>2018-06-03T09:06:36.000Z</time>
      </trkpt>
      <trkpt lat="44.55434" lon="4.22776">
        <ele>447</ele>
        <time>2018-06-03T09:06:37.000Z</time>
      </trkpt>
      <trkpt lat="44.55434" lon="4.22776">
        <ele>447</ele>
        <time>2018-06-03T09:06:38.000Z</time>
      </trkpt>
      <trkpt lat="44.55434" lon="4.22776">
        <ele>447</ele>
        <time>2018-06-03T09:06:39.000Z</time>
      </trkpt>
      <trkpt lat="44.55434" lon="4.22776">
        <ele>447</ele>
        <time>2018-06-03T09:06:40.000Z</time>
      </trkpt>
      <trkpt lat="44.55434" lon="4.22776">
        <ele>447</ele>
        <time>2018-06-03T09:06:41.000Z</time>
      </trkpt>
      <trkpt lat="44.55434" lon="4.22776">
        <ele>447</ele>
        <time>2018-06-03T09:06:42.000Z</time>
      </trkpt>
      <trkpt lat="44.55434" lon="4.22776">
        <ele>447</ele>
        <time>2018-06-03T09:06:43.000Z</time>
      </trkpt>
      <trkpt lat="44.55434" lon="4.22776">
        <ele>447</ele>
        <time>2018-06-03T09:06:44.000Z</time>
      </trkpt>
      <trkpt lat="44.55434" lon="4.22776">
        <ele>447</ele>
        <time>2018-06-03T09:06:45.000Z</time>
      </trkpt>
      <trkpt lat="44.55434" lon="4.22776">
        <ele>447</ele>
        <time>2018-06-03T09:06:46.000Z</time>
      </trkpt>
      <trkpt lat="44.55434" lon="4.22776">
        <ele>447</ele>
        <time>2018-06-03T09:06:47.000Z</time>
      </trkpt>
      <trkpt lat="44.55434" lon="4.22776">
        <ele>447</ele>
        <time>2018-06-03T09:06:48.000Z</time>
      </trkpt>
      <trkpt lat="44.55434" lon="4.22776">
        <ele>447</ele>
        <time>2018-06-03T09:06:49.000Z</time>
      </trkpt>
      <trkpt lat="44.55434" lon="4.22776">
        <ele>447</ele>
        <time>2018-06-03T09:06:50.000Z</time>
      </trkpt>
      <trkpt lat="44.55434" lon="4.22776">
        <ele>447</ele>
        <time>2018-06-03T09:06:51.000Z</time>
      </trkpt>
      <trkpt lat="44.55434" lon="4.22776">
        <ele>447</ele>
        <time>2018-06-03T09:06:52.000Z</time>
      </trkpt>
      <trkpt lat="44.55434" lon="4.22776">
        <ele>447</ele>
        <time>2018-06-03T09:06:53.000Z</time>
      </trkpt>
      <trkpt lat="44.55434" lon="4.22776">
        <ele>447</ele>
        <time>2018-06-03T09:06:54.000Z</time>
      </trkpt>
      <trkpt lat="44.55434" lon="4.22776">
        <ele>447</ele>
        <time>2018-06-03T09:06:55.000Z</time>
      </trkpt>
      <trkpt lat="44.55434" lon="4.22776">
        <ele>447</ele>
        <time>2018-06-03T09:06:56.000Z</time>
      </trkpt>
      <trkpt lat="44.55434" lon="4.22776">
        <ele>447</ele>
        <time>2018-06-03T09:06:57.000Z</time>
      </trkpt>
      <trkpt lat="44.55434" lon="4.22776">
        <ele>447</ele>
        <time>2018-06-03T09:06:58.000Z</time>
      </trkpt>
      <trkpt lat="44.55434" lon="4.22776">
        <ele>447</ele>
        <time>2018-06-03T09:06:59.000Z</time>
      </trkpt>
      <trkpt lat="44.55434" lon="4.22776">
        <ele>447</ele>
        <time>2018-06-03T09:07:00.000Z</time>
      </trkpt>
      <trkpt lat="44.55434" lon="4.22776">
        <ele>447</ele>
        <time>2018-06-03T09:07:01.000Z</time>
      </trkpt>
      <trkpt lat="44.55434" lon="4.22776">
        <ele>447</ele>
        <time>2018-06-03T09:07:02.000Z</time>
      </trkpt>
      <trkpt lat="44.55434" lon="4.22776">
        <ele>447</ele>
        <time>2018-06-03T09:07:03.000Z</time>
      </trkpt>
      <trkpt lat="44.55434" lon="4.22776">
        <ele>447</ele>
        <time>2018-06-03T09:07:04.000Z</time>
      </trkpt>
      <trkpt lat="44.55434" lon="4.22776">
        <ele>447</ele>
        <time>2018-06-03T09:07:05.000Z</time>
      </trkpt>
      <trkpt lat="44.55434" lon="4.22776">
        <ele>447</ele>
        <time>2018-06-03T09:07:06.000Z</time>
      </trkpt>
      <trkpt lat="44.55434" lon="4.22776">
        <ele>447</ele>
        <time>2018-06-03T09:07:07.000Z</time>
      </trkpt>
      <trkpt lat="44.55434" lon="4.22776">
        <ele>447</ele>
        <time>2018-06-03T09:07:08.000Z</time>
      </trkpt>
      <trkpt lat="44.55433" lon="4.22777">
        <ele>447</ele>
        <time>2018-06-03T09:07:09.000Z</time>
      </trkpt>
      <trkpt lat="44.55433" lon="4.22778">
        <ele>446</ele>
        <time>2018-06-03T09:07:10.000Z</time>
      </trkpt>
      <trkpt lat="44.55432" lon="4.2278">
        <ele>446</ele>
        <time>2018-06-03T09:07:11.000Z</time>
      </trkpt>
      <trkpt lat="44.55432" lon="4.22781">
        <ele>446</ele>
        <time>2018-06-03T09:07:12.000Z</time>
      </trkpt>
      <trkpt lat="44.55431" lon="4.22782">
        <ele>446</ele>
        <time>2018-06-03T09:07:13.000Z</time>
      </trkpt>
      <trkpt lat="44.55431" lon="4.22783">
        <ele>446</ele>
        <time>2018-06-03T09:07:14.000Z</time>
      </trkpt>
      <trkpt lat="44.55431" lon="4.22784">
        <ele>446</ele>
        <time>2018-06-03T09:07:15.000Z</time>
      </trkpt>
      <trkpt lat="44.55431" lon="4.22784">
        <ele>446</ele>
        <time>2018-06-03T09:07:16.000Z</time>
      </trkpt>
      <trkpt lat="44.55431" lon="4.22783">
        <ele>446</ele>
        <time>2018-06-03T09:07:17.000Z</time>
      </trkpt>
      <trkpt lat="44.55431" lon="4.22783">
        <ele>446</ele>
        <time>2018-06-03T09:07:18.000Z</time>
      </trkpt>
      <trkpt lat="44.55431" lon="4.22784">
        <ele>446</ele>
        <time>2018-06-03T09:07:19.000Z</time>
      </trkpt>
      <trkpt lat="44.55431" lon="4.22784">
        <ele>446</ele>
        <time>2018-06-03T09:07:20.000Z</time>
      </trkpt>
      <trkpt lat="44.55431" lon="4.22784">
        <ele>446</ele>
        <time>2018-06-03T09:07:21.000Z</time>
      </trkpt>
      <trkpt lat="44.55431" lon="4.22784">
        <ele>446</ele>
        <time>2018-06-03T09:07:22.000Z</time>
      </trkpt>
      <trkpt lat="44.55431" lon="4.22783">
        <ele>446</ele>
        <time>2018-06-03T09:07:23.000Z</time>
      </trkpt>
      <trkpt lat="44.55431" lon="4.22783">
        <ele>446</ele>
        <time>2018-06-03T09:07:24.000Z</time>
      </trkpt>
      <trkpt lat="44.55432" lon="4.22783">
        <ele>446</ele>
        <time>2018-06-03T09:07:25.000Z</time>
      </trkpt>
      <trkpt lat="44.55432" lon="4.22784">
        <ele>446</ele>
        <time>2018-06-03T09:07:26.000Z</time>
      </trkpt>
      <trkpt lat="44.55432" lon="4.22785">
        <ele>446</ele>
        <time>2018-06-03T09:07:27.000Z</time>
      </trkpt>
      <trkpt lat="44.55433" lon="4.22787">
        <ele>446</ele>
        <time>2018-06-03T09:07:28.000Z</time>
      </trkpt>
      <trkpt lat="44.55434" lon="4.2279">
        <ele>446</ele>
        <time>2018-06-03T09:07:29.000Z</time>
      </trkpt>
      <trkpt lat="44.55435" lon="4.22793">
        <ele>446</ele>
        <time>2018-06-03T09:07:30.000Z</time>
      </trkpt>
      <trkpt lat="44.55436" lon="4.22796">
        <ele>446</ele>
        <time>2018-06-03T09:07:31.000Z</time>
      </trkpt>
      <trkpt lat="44.55438" lon="4.228">
        <ele>446</ele>
        <time>2018-06-03T09:07:32.000Z</time>
      </trkpt>
      <trkpt lat="44.5544" lon="4.22804">
        <ele>446</ele>
        <time>2018-06-03T09:07:33.000Z</time>
      </trkpt>
      <trkpt lat="44.55442" lon="4.22808">
        <ele>446</ele>
        <time>2018-06-03T09:07:34.000Z</time>
      </trkpt>
      <trkpt lat="44.55444" lon="4.22813">
        <ele>446</ele>
        <time>2018-06-03T09:07:35.000Z</time>
      </trkpt>
      <trkpt lat="44.55446" lon="4.22818">
        <ele>446</ele>
        <time>2018-06-03T09:07:36.000Z</time>
      </trkpt>
      <trkpt lat="44.55449" lon="4.22823">
        <ele>446</ele>
        <time>2018-06-03T09:07:37.000Z</time>
      </trkpt>
      <trkpt lat="44.55451" lon="4.22828">
        <ele>447</ele>
        <time>2018-06-03T09:07:38.000Z</time>
      </trkpt>
      <trkpt lat="44.55453" lon="4.22834">
        <ele>442</ele>
        <time>2018-06-03T09:07:39.000Z</time>
      </trkpt>
      <trkpt lat="44.55453" lon="4.2284">
        <ele>443</ele>
        <time>2018-06-03T09:07:40.000Z</time>
      </trkpt>
      <trkpt lat="44.55453" lon="4.22846">
        <ele>442</ele>
        <time>2018-06-03T09:07:41.000Z</time>
      </trkpt>
      <trkpt lat="44.55451" lon="4.22851">
        <ele>442</ele>
        <time>2018-06-03T09:07:42.000Z</time>
      </trkpt>
      <trkpt lat="44.55448" lon="4.22857">
        <ele>441</ele>
        <time>2018-06-03T09:07:43.000Z</time>
      </trkpt>
      <trkpt lat="44.55445" lon="4.22863">
        <ele>441</ele>
        <time>2018-06-03T09:07:44.000Z</time>
      </trkpt>
      <trkpt lat="44.55442" lon="4.2287">
        <ele>440</ele>
        <time>2018-06-03T09:07:45.000Z</time>
      </trkpt>
      <trkpt lat="44.5544" lon="4.22877">
        <ele>439</ele>
        <time>2018-06-03T09:07:46.000Z</time>
      </trkpt>
      <trkpt lat="44.55437" lon="4.22885">
        <ele>438</ele>
        <time>2018-06-03T09:07:47.000Z</time>
      </trkpt>
      <trkpt lat="44.55435" lon="4.22893">
        <ele>437</ele>
        <time>2018-06-03T09:07:48.000Z</time>
      </trkpt>
      <trkpt lat="44.55432" lon="4.22901">
        <ele>434</ele>
        <time>2018-06-03T09:07:49.000Z</time>
      </trkpt>
      <trkpt lat="44.55429" lon="4.2291">
        <ele>431</ele>
        <time>2018-06-03T09:07:50.000Z</time>
      </trkpt>
      <trkpt lat="44.55426" lon="4.22918">
        <ele>428</ele>
        <time>2018-06-03T09:07:51.000Z</time>
      </trkpt>
      <trkpt lat="44.55424" lon="4.22927">
        <ele>429</ele>
        <time>2018-06-03T09:07:52.000Z</time>
      </trkpt>
      <trkpt lat="44.55423" lon="4.22936">
        <ele>431</ele>
        <time>2018-06-03T09:07:53.000Z</time>
      </trkpt>
      <trkpt lat="44.55423" lon="4.22944">
        <ele>433</ele>
        <time>2018-06-03T09:07:54.000Z</time>
      </trkpt>
      <trkpt lat="44.55423" lon="4.22952">
        <ele>433</ele>
        <time>2018-06-03T09:07:55.000Z</time>
      </trkpt>
      <trkpt lat="44.55424" lon="4.2296">
        <ele>433</ele>
        <time>2018-06-03T09:07:56.000Z</time>
      </trkpt>
      <trkpt lat="44.55425" lon="4.22968">
        <ele>433</ele>
        <time>2018-06-03T09:07:57.000Z</time>
      </trkpt>
      <trkpt lat="44.55426" lon="4.22977">
        <ele>432</ele>
        <time>2018-06-03T09:07:58.000Z</time>
      </trkpt>
      <trkpt lat="44.55426" lon="4.22985">
        <ele>430</ele>
        <time>2018-06-03T09:07:59.000Z</time>
      </trkpt>
      <trkpt lat="44.55427" lon="4.22994">
        <ele>428</ele>
        <time>2018-06-03T09:08:00.000Z</time>
      </trkpt>
      <trkpt lat="44.55428" lon="4.23003">
        <ele>427</ele>
        <time>2018-06-03T09:08:01.000Z</time>
      </trkpt>
      <trkpt lat="44.55429" lon="4.23011">
        <ele>428</ele>
        <time>2018-06-03T09:08:02.000Z</time>
      </trkpt>
      <trkpt lat="44.55431" lon="4.2302">
        <ele>430</ele>
        <time>2018-06-03T09:08:03.000Z</time>
      </trkpt>
      <trkpt lat="44.55431" lon="4.23028">
        <ele>431</ele>
        <time>2018-06-03T09:08:04.000Z</time>
      </trkpt>
      <trkpt lat="44.55431" lon="4.23037">
        <ele>431</ele>
        <time>2018-06-03T09:08:05.000Z</time>
      </trkpt>
      <trkpt lat="44.55431" lon="4.23045">
        <ele>430</ele>
        <time>2018-06-03T09:08:06.000Z</time>
      </trkpt>
      <trkpt lat="44.5543" lon="4.23053">
        <ele>430</ele>
        <time>2018-06-03T09:08:07.000Z</time>
      </trkpt>
      <trkpt lat="44.5543" lon="4.23062">
        <ele>428</ele>
        <time>2018-06-03T09:08:08.000Z</time>
      </trkpt>
      <trkpt lat="44.5543" lon="4.2307">
        <ele>427</ele>
        <time>2018-06-03T09:08:09.000Z</time>
      </trkpt>
      <trkpt lat="44.55431" lon="4.23079">
        <ele>425</ele>
        <time>2018-06-03T09:08:10.000Z</time>
      </trkpt>
      <trkpt lat="44.55433" lon="4.23088">
        <ele>425</ele>
        <time>2018-06-03T09:08:11.000Z</time>
      </trkpt>
      <trkpt lat="44.55434" lon="4.23096">
        <ele>427</ele>
        <time>2018-06-03T09:08:12.000Z</time>
      </trkpt>
      <trkpt lat="44.55434" lon="4.23104">
        <ele>428</ele>
        <time>2018-06-03T09:08:13.000Z</time>
      </trkpt>
      <trkpt lat="44.55433" lon="4.2311">
        <ele>428</ele>
        <time>2018-06-03T09:08:14.000Z</time>
      </trkpt>
      <trkpt lat="44.55431" lon="4.23115">
        <ele>428</ele>
        <time>2018-06-03T09:08:15.000Z</time>
      </trkpt>
      <trkpt lat="44.55429" lon="4.23118">
        <ele>428</ele>
        <time>2018-06-03T09:08:16.000Z</time>
      </trkpt>
      <trkpt lat="44.55426" lon="4.23119">
        <ele>428</ele>
        <time>2018-06-03T09:08:17.000Z</time>
      </trkpt>
      <trkpt lat="44.55422" lon="4.23119">
        <ele>428</ele>
        <time>2018-06-03T09:08:18.000Z</time>
      </trkpt>
      <trkpt lat="44.55418" lon="4.23121">
        <ele>427</ele>
        <time>2018-06-03T09:08:19.000Z</time>
      </trkpt>
      <trkpt lat="44.55414" lon="4.23123">
        <ele>413</ele>
        <time>2018-06-03T09:08:20.000Z</time>
      </trkpt>
      <trkpt lat="44.5541" lon="4.23127">
        <ele>413</ele>
        <time>2018-06-03T09:08:21.000Z</time>
      </trkpt>
      <trkpt lat="44.55407" lon="4.23131">
        <ele>413</ele>
        <time>2018-06-03T09:08:22.000Z</time>
      </trkpt>
      <trkpt lat="44.55403" lon="4.23136">
        <ele>413</ele>
        <time>2018-06-03T09:08:23.000Z</time>
      </trkpt>
      <trkpt lat="44.55399" lon="4.2314">
        <ele>413</ele>
        <time>2018-06-03T09:08:24.000Z</time>
      </trkpt>
      <trkpt lat="44.55396" lon="4.23143">
        <ele>413</ele>
        <time>2018-06-03T09:08:25.000Z</time>
      </trkpt>
      <trkpt lat="44.55393" lon="4.23147">
        <ele>413</ele>
        <time>2018-06-03T09:08:26.000Z</time>
      </trkpt>
      <trkpt lat="44.55389" lon="4.23151">
        <ele>412</ele>
        <time>2018-06-03T09:08:27.000Z</time>
      </trkpt>
      <trkpt lat="44.55386" lon="4.23155">
        <ele>412</ele>
        <time>2018-06-03T09:08:28.000Z</time>
      </trkpt>
      <trkpt lat="44.55383" lon="4.23159">
        <ele>412</ele>
        <time>2018-06-03T09:08:29.000Z</time>
      </trkpt>
      <trkpt lat="44.5538" lon="4.23164">
        <ele>411</ele>
        <time>2018-06-03T09:08:30.000Z</time>
      </trkpt>
      <trkpt lat="44.55377" lon="4.2317">
        <ele>411</ele>
        <time>2018-06-03T09:08:31.000Z</time>
      </trkpt>
      <trkpt lat="44.55375" lon="4.23176">
        <ele>411</ele>
        <time>2018-06-03T09:08:32.000Z</time>
      </trkpt>
      <trkpt lat="44.55373" lon="4.23182">
        <ele>410</ele>
        <time>2018-06-03T09:08:33.000Z</time>
      </trkpt>
      <trkpt lat="44.55371" lon="4.23188">
        <ele>410</ele>
        <time>2018-06-03T09:08:34.000Z</time>
      </trkpt>
      <trkpt lat="44.55369" lon="4.23193">
        <ele>410</ele>
        <time>2018-06-03T09:08:35.000Z</time>
      </trkpt>
      <trkpt lat="44.55367" lon="4.23199">
        <ele>410</ele>
        <time>2018-06-03T09:08:36.000Z</time>
      </trkpt>
      <trkpt lat="44.55366" lon="4.23203">
        <ele>410</ele>
        <time>2018-06-03T09:08:37.000Z</time>
      </trkpt>
      <trkpt lat="44.55365" lon="4.23207">
        <ele>410</ele>
        <time>2018-06-03T09:08:38.000Z</time>
      </trkpt>
      <trkpt lat="44.55364" lon="4.2321">
        <ele>410</ele>
        <time>2018-06-03T09:08:39.000Z</time>
      </trkpt>
      <trkpt lat="44.55363" lon="4.23213">
        <ele>410</ele>
        <time>2018-06-03T09:08:40.000Z</time>
      </trkpt>
      <trkpt lat="44.55364" lon="4.23216">
        <ele>410</ele>
        <time>2018-06-03T09:08:41.000Z</time>
      </trkpt>
      <trkpt lat="44.55366" lon="4.23219">
        <ele>410</ele>
        <time>2018-06-03T09:08:42.000Z</time>
      </trkpt>
      <trkpt lat="44.55368" lon="4.23221">
        <ele>410</ele>
        <time>2018-06-03T09:08:43.000Z</time>
      </trkpt>
      <trkpt lat="44.55369" lon="4.23224">
        <ele>410</ele>
        <time>2018-06-03T09:08:44.000Z</time>
      </trkpt>
      <trkpt lat="44.55369" lon="4.23226">
        <ele>410</ele>
        <time>2018-06-03T09:08:45.000Z</time>
      </trkpt>
      <trkpt lat="44.55369" lon="4.23229">
        <ele>410</ele>
        <time>2018-06-03T09:08:46.000Z</time>
      </trkpt>
      <trkpt lat="44.55369" lon="4.23234">
        <ele>410</ele>
        <time>2018-06-03T09:08:47.000Z</time>
      </trkpt>
      <trkpt lat="44.55368" lon="4.23239">
        <ele>410</ele>
        <time>2018-06-03T09:08:48.000Z</time>
      </trkpt>
      <trkpt lat="44.55367" lon="4.23244">
        <ele>410</ele>
        <time>2018-06-03T09:08:49.000Z</time>
      </trkpt>
      <trkpt lat="44.55367" lon="4.23248">
        <ele>410</ele>
        <time>2018-06-03T09:08:50.000Z</time>
      </trkpt>
      <trkpt lat="44.55367" lon="4.23253">
        <ele>411</ele>
        <time>2018-06-03T09:08:51.000Z</time>
      </trkpt>
      <trkpt lat="44.55367" lon="4.23258">
        <ele>411</ele>
        <time>2018-06-03T09:08:52.000Z</time>
      </trkpt>
      <trkpt lat="44.55366" lon="4.23263">
        <ele>411</ele>
        <time>2018-06-03T09:08:53.000Z</time>
      </trkpt>
      <trkpt lat="44.55364" lon="4.2327">
        <ele>411</ele>
        <time>2018-06-03T09:08:54.000Z</time>
      </trkpt>
      <trkpt lat="44.55362" lon="4.23277">
        <ele>411</ele>
        <time>2018-06-03T09:08:55.000Z</time>
      </trkpt>
      <trkpt lat="44.55359" lon="4.23283">
        <ele>411</ele>
        <time>2018-06-03T09:08:56.000Z</time>
      </trkpt>
      <trkpt lat="44.55356" lon="4.23289">
        <ele>411</ele>
        <time>2018-06-03T09:08:57.000Z</time>
      </trkpt>
      <trkpt lat="44.55353" lon="4.23295">
        <ele>410</ele>
        <time>2018-06-03T09:08:58.000Z</time>
      </trkpt>
      <trkpt lat="44.55349" lon="4.23301">
        <ele>410</ele>
        <time>2018-06-03T09:08:59.000Z</time>
      </trkpt>
      <trkpt lat="44.55347" lon="4.23307">
        <ele>409</ele>
        <time>2018-06-03T09:09:00.000Z</time>
      </trkpt>
      <trkpt lat="44.55344" lon="4.23314">
        <ele>408</ele>
        <time>2018-06-03T09:09:01.000Z</time>
      </trkpt>
      <trkpt lat="44.55342" lon="4.23319">
        <ele>407</ele>
        <time>2018-06-03T09:09:02.000Z</time>
      </trkpt>
      <trkpt lat="44.55339" lon="4.23323">
        <ele>405</ele>
        <time>2018-06-03T09:09:03.000Z</time>
      </trkpt>
      <trkpt lat="44.55337" lon="4.23328">
        <ele>403</ele>
        <time>2018-06-03T09:09:04.000Z</time>
      </trkpt>
      <trkpt lat="44.55334" lon="4.23332">
        <ele>401</ele>
        <time>2018-06-03T09:09:05.000Z</time>
      </trkpt>
      <trkpt lat="44.55331" lon="4.23337">
        <ele>400</ele>
        <time>2018-06-03T09:09:06.000Z</time>
      </trkpt>
      <trkpt lat="44.55328" lon="4.23341">
        <ele>400</ele>
        <time>2018-06-03T09:09:07.000Z</time>
      </trkpt>
      <trkpt lat="44.55326" lon="4.23346">
        <ele>400</ele>
        <time>2018-06-03T09:09:08.000Z</time>
      </trkpt>
      <trkpt lat="44.55325" lon="4.23352">
        <ele>401</ele>
        <time>2018-06-03T09:09:09.000Z</time>
      </trkpt>
      <trkpt lat="44.55324" lon="4.23359">
        <ele>401</ele>
        <time>2018-06-03T09:09:10.000Z</time>
      </trkpt>
      <trkpt lat="44.55322" lon="4.23366">
        <ele>401</ele>
        <time>2018-06-03T09:09:11.000Z</time>
      </trkpt>
      <trkpt lat="44.5532" lon="4.23374">
        <ele>401</ele>
        <time>2018-06-03T09:09:12.000Z</time>
      </trkpt>
      <trkpt lat="44.55318" lon="4.23381">
        <ele>401</ele>
        <time>2018-06-03T09:09:13.000Z</time>
      </trkpt>
      <trkpt lat="44.55316" lon="4.23387">
        <ele>401</ele>
        <time>2018-06-03T09:09:14.000Z</time>
      </trkpt>
      <trkpt lat="44.55314" lon="4.23393">
        <ele>401</ele>
        <time>2018-06-03T09:09:15.000Z</time>
      </trkpt>
      <trkpt lat="44.55313" lon="4.23398">
        <ele>401</ele>
        <time>2018-06-03T09:09:16.000Z</time>
      </trkpt>
      <trkpt lat="44.55311" lon="4.23403">
        <ele>401</ele>
        <time>2018-06-03T09:09:17.000Z</time>
      </trkpt>
      <trkpt lat="44.5531" lon="4.23408">
        <ele>401</ele>
        <time>2018-06-03T09:09:18.000Z</time>
      </trkpt>
      <trkpt lat="44.55309" lon="4.23413">
        <ele>401</ele>
        <time>2018-06-03T09:09:19.000Z</time>
      </trkpt>
      <trkpt lat="44.55306" lon="4.23416">
        <ele>401</ele>
        <time>2018-06-03T09:09:20.000Z</time>
      </trkpt>
      <trkpt lat="44.55305" lon="4.23421">
        <ele>400</ele>
        <time>2018-06-03T09:09:21.000Z</time>
      </trkpt>
      <trkpt lat="44.55303" lon="4.23426">
        <ele>400</ele>
        <time>2018-06-03T09:09:22.000Z</time>
      </trkpt>
      <trkpt lat="44.55301" lon="4.23431">
        <ele>400</ele>
        <time>2018-06-03T09:09:23.000Z</time>
      </trkpt>
      <trkpt lat="44.55299" lon="4.23436">
        <ele>400</ele>
        <time>2018-06-03T09:09:24.000Z</time>
      </trkpt>
      <trkpt lat="44.55296" lon="4.23442">
        <ele>399</ele>
        <time>2018-06-03T09:09:25.000Z</time>
      </trkpt>
      <trkpt lat="44.55294" lon="4.23447">
        <ele>399</ele>
        <time>2018-06-03T09:09:26.000Z</time>
      </trkpt>
      <trkpt lat="44.55292" lon="4.23451">
        <ele>399</ele>
        <time>2018-06-03T09:09:27.000Z</time>
      </trkpt>
      <trkpt lat="44.5529" lon="4.23455">
        <ele>399</ele>
        <time>2018-06-03T09:09:28.000Z</time>
      </trkpt>
      <trkpt lat="44.55288" lon="4.23459">
        <ele>399</ele>
        <time>2018-06-03T09:09:29.000Z</time>
      </trkpt>
      <trkpt lat="44.55286" lon="4.23462">
        <ele>398</ele>
        <time>2018-06-03T09:09:30.000Z</time>
      </trkpt>
      <trkpt lat="44.55285" lon="4.23465">
        <ele>398</ele>
        <time>2018-06-03T09:09:31.000Z</time>
      </trkpt>
      <trkpt lat="44.55283" lon="4.23469">
        <ele>398</ele>
        <time>2018-06-03T09:09:32.000Z</time>
      </trkpt>
      <trkpt lat="44.55283" lon="4.23473">
        <ele>398</ele>
        <time>2018-06-03T09:09:33.000Z</time>
      </trkpt>
      <trkpt lat="44.55282" lon="4.23477">
        <ele>397</ele>
        <time>2018-06-03T09:09:34.000Z</time>
      </trkpt>
      <trkpt lat="44.5528" lon="4.23482">
        <ele>397</ele>
        <time>2018-06-03T09:09:35.000Z</time>
      </trkpt>
      <trkpt lat="44.55278" lon="4.23488">
        <ele>396</ele>
        <time>2018-06-03T09:09:36.000Z</time>
      </trkpt>
      <trkpt lat="44.55276" lon="4.23495">
        <ele>396</ele>
        <time>2018-06-03T09:09:37.000Z</time>
      </trkpt>
      <trkpt lat="44.55274" lon="4.23501">
        <ele>395</ele>
        <time>2018-06-03T09:09:38.000Z</time>
      </trkpt>
      <trkpt lat="44.55274" lon="4.23508">
        <ele>395</ele>
        <time>2018-06-03T09:09:39.000Z</time>
      </trkpt>
      <trkpt lat="44.55273" lon="4.23515">
        <ele>395</ele>
        <time>2018-06-03T09:09:40.000Z</time>
      </trkpt>
      <trkpt lat="44.55271" lon="4.23521">
        <ele>395</ele>
        <time>2018-06-03T09:09:41.000Z</time>
      </trkpt>
      <trkpt lat="44.5527" lon="4.23529">
        <ele>395</ele>
        <time>2018-06-03T09:09:42.000Z</time>
      </trkpt>
      <trkpt lat="44.55269" lon="4.23537">
        <ele>396</ele>
        <time>2018-06-03T09:09:43.000Z</time>
      </trkpt>
      <trkpt lat="44.55269" lon="4.23545">
        <ele>395</ele>
        <time>2018-06-03T09:09:44.000Z</time>
      </trkpt>
      <trkpt lat="44.55269" lon="4.23552">
        <ele>395</ele>
        <time>2018-06-03T09:09:45.000Z</time>
      </trkpt>
      <trkpt lat="44.55269" lon="4.23559">
        <ele>394</ele>
        <time>2018-06-03T09:09:46.000Z</time>
      </trkpt>
      <trkpt lat="44.55268" lon="4.23566">
        <ele>393</ele>
        <time>2018-06-03T09:09:47.000Z</time>
      </trkpt>
      <trkpt lat="44.55267" lon="4.23572">
        <ele>392</ele>
        <time>2018-06-03T09:09:48.000Z</time>
      </trkpt>
      <trkpt lat="44.55267" lon="4.23578">
        <ele>392</ele>
        <time>2018-06-03T09:09:49.000Z</time>
      </trkpt>
      <trkpt lat="44.55267" lon="4.23584">
        <ele>392</ele>
        <time>2018-06-03T09:09:50.000Z</time>
      </trkpt>
      <trkpt lat="44.55267" lon="4.23589">
        <ele>392</ele>
        <time>2018-06-03T09:09:51.000Z</time>
      </trkpt>
      <trkpt lat="44.55266" lon="4.23592">
        <ele>392</ele>
        <time>2018-06-03T09:09:52.000Z</time>
      </trkpt>
      <trkpt lat="44.55266" lon="4.23597">
        <ele>392</ele>
        <time>2018-06-03T09:09:53.000Z</time>
      </trkpt>
      <trkpt lat="44.55266" lon="4.23601">
        <ele>393</ele>
        <time>2018-06-03T09:09:54.000Z</time>
      </trkpt>
      <trkpt lat="44.55266" lon="4.23605">
        <ele>394</ele>
        <time>2018-06-03T09:09:55.000Z</time>
      </trkpt>
      <trkpt lat="44.55267" lon="4.23609">
        <ele>394</ele>
        <time>2018-06-03T09:09:56.000Z</time>
      </trkpt>
      <trkpt lat="44.55267" lon="4.23614">
        <ele>395</ele>
        <time>2018-06-03T09:09:57.000Z</time>
      </trkpt>
      <trkpt lat="44.55267" lon="4.23618">
        <ele>395</ele>
        <time>2018-06-03T09:09:58.000Z</time>
      </trkpt>
      <trkpt lat="44.55267" lon="4.23623">
        <ele>395</ele>
        <time>2018-06-03T09:09:59.000Z</time>
      </trkpt>
      <trkpt lat="44.55266" lon="4.23629">
        <ele>395</ele>
        <time>2018-06-03T09:10:00.000Z</time>
      </trkpt>
      <trkpt lat="44.55265" lon="4.23636">
        <ele>394</ele>
        <time>2018-06-03T09:10:01.000Z</time>
      </trkpt>
      <trkpt lat="44.55265" lon="4.23642">
        <ele>393</ele>
        <time>2018-06-03T09:10:02.000Z</time>
      </trkpt>
      <trkpt lat="44.55264" lon="4.23648">
        <ele>392</ele>
        <time>2018-06-03T09:10:03.000Z</time>
      </trkpt>
      <trkpt lat="44.55264" lon="4.23654">
        <ele>391</ele>
        <time>2018-06-03T09:10:04.000Z</time>
      </trkpt>
      <trkpt lat="44.55263" lon="4.2366">
        <ele>389</ele>
        <time>2018-06-03T09:10:05.000Z</time>
      </trkpt>
      <trkpt lat="44.55261" lon="4.23665">
        <ele>387</ele>
        <time>2018-06-03T09:10:06.000Z</time>
      </trkpt>
      <trkpt lat="44.55259" lon="4.23669">
        <ele>387</ele>
        <time>2018-06-03T09:10:07.000Z</time>
      </trkpt>
      <trkpt lat="44.55256" lon="4.23674">
        <ele>387</ele>
        <time>2018-06-03T09:10:08.000Z</time>
      </trkpt>
      <trkpt lat="44.55254" lon="4.23679">
        <ele>388</ele>
        <time>2018-06-03T09:10:09.000Z</time>
      </trkpt>
      <trkpt lat="44.55253" lon="4.23684">
        <ele>390</ele>
        <time>2018-06-03T09:10:10.000Z</time>
      </trkpt>
      <trkpt lat="44.55252" lon="4.23688">
        <ele>391</ele>
        <time>2018-06-03T09:10:11.000Z</time>
      </trkpt>
      <trkpt lat="44.55251" lon="4.23692">
        <ele>392</ele>
        <time>2018-06-03T09:10:12.000Z</time>
      </trkpt>
      <trkpt lat="44.55251" lon="4.23697">
        <ele>393</ele>
        <time>2018-06-03T09:10:13.000Z</time>
      </trkpt>
      <trkpt lat="44.55251" lon="4.23701">
        <ele>393</ele>
        <time>2018-06-03T09:10:14.000Z</time>
      </trkpt>
      <trkpt lat="44.55251" lon="4.23704">
        <ele>393</ele>
        <time>2018-06-03T09:10:15.000Z</time>
      </trkpt>
      <trkpt lat="44.5525" lon="4.23707">
        <ele>393</ele>
        <time>2018-06-03T09:10:16.000Z</time>
      </trkpt>
      <trkpt lat="44.5525" lon="4.23711">
        <ele>393</ele>
        <time>2018-06-03T09:10:17.000Z</time>
      </trkpt>
      <trkpt lat="44.5525" lon="4.23716">
        <ele>393</ele>
        <time>2018-06-03T09:10:18.000Z</time>
      </trkpt>
      <trkpt lat="44.5525" lon="4.23719">
        <ele>393</ele>
        <time>2018-06-03T09:10:19.000Z</time>
      </trkpt>
      <trkpt lat="44.5525" lon="4.23723">
        <ele>392</ele>
        <time>2018-06-03T09:10:20.000Z</time>
      </trkpt>
      <trkpt lat="44.5525" lon="4.23727">
        <ele>392</ele>
        <time>2018-06-03T09:10:21.000Z</time>
      </trkpt>
      <trkpt lat="44.5525" lon="4.2373">
        <ele>382</ele>
        <time>2018-06-03T09:10:22.000Z</time>
      </trkpt>
      <trkpt lat="44.55249" lon="4.23733">
        <ele>381</ele>
        <time>2018-06-03T09:10:23.000Z</time>
      </trkpt>
      <trkpt lat="44.55249" lon="4.23738">
        <ele>381</ele>
        <time>2018-06-03T09:10:24.000Z</time>
      </trkpt>
      <trkpt lat="44.55249" lon="4.23743">
        <ele>381</ele>
        <time>2018-06-03T09:10:25.000Z</time>
      </trkpt>
      <trkpt lat="44.55248" lon="4.23747">
        <ele>380</ele>
        <time>2018-06-03T09:10:26.000Z</time>
      </trkpt>
      <trkpt lat="44.55247" lon="4.23752">
        <ele>380</ele>
        <time>2018-06-03T09:10:27.000Z</time>
      </trkpt>
      <trkpt lat="44.55246" lon="4.23756">
        <ele>380</ele>
        <time>2018-06-03T09:10:28.000Z</time>
      </trkpt>
      <trkpt lat="44.55246" lon="4.2376">
        <ele>380</ele>
        <time>2018-06-03T09:10:29.000Z</time>
      </trkpt>
      <trkpt lat="44.55246" lon="4.23763">
        <ele>380</ele>
        <time>2018-06-03T09:10:30.000Z</time>
      </trkpt>
      <trkpt lat="44.55245" lon="4.23764">
        <ele>380</ele>
        <time>2018-06-03T09:10:31.000Z</time>
      </trkpt>
      <trkpt lat="44.55244" lon="4.23764">
        <ele>380</ele>
        <time>2018-06-03T09:10:32.000Z</time>
      </trkpt>
      <trkpt lat="44.55243" lon="4.23762">
        <ele>380</ele>
        <time>2018-06-03T09:10:33.000Z</time>
      </trkpt>
      <trkpt lat="44.55242" lon="4.23758">
        <ele>380</ele>
        <time>2018-06-03T09:10:34.000Z</time>
      </trkpt>
      <trkpt lat="44.55241" lon="4.23754">
        <ele>380</ele>
        <time>2018-06-03T09:10:35.000Z</time>
      </trkpt>
      <trkpt lat="44.5524" lon="4.23751">
        <ele>380</ele>
        <time>2018-06-03T09:10:36.000Z</time>
      </trkpt>
      <trkpt lat="44.5524" lon="4.23748">
        <ele>381</ele>
        <time>2018-06-03T09:10:37.000Z</time>
      </trkpt>
      <trkpt lat="44.55239" lon="4.23746">
        <ele>381</ele>
        <time>2018-06-03T09:10:38.000Z</time>
      </trkpt>
      <trkpt lat="44.55238" lon="4.23746">
        <ele>381</ele>
        <time>2018-06-03T09:10:39.000Z</time>
      </trkpt>
      <trkpt lat="44.55237" lon="4.23747">
        <ele>381</ele>
        <time>2018-06-03T09:10:40.000Z</time>
      </trkpt>
      <trkpt lat="44.55237" lon="4.23749">
        <ele>381</ele>
        <time>2018-06-03T09:10:41.000Z</time>
      </trkpt>
      <trkpt lat="44.55236" lon="4.23752">
        <ele>380</ele>
        <time>2018-06-03T09:10:42.000Z</time>
      </trkpt>
      <trkpt lat="44.55235" lon="4.23755">
        <ele>380</ele>
        <time>2018-06-03T09:10:43.000Z</time>
      </trkpt>
      <trkpt lat="44.55235" lon="4.23759">
        <ele>380</ele>
        <time>2018-06-03T09:10:44.000Z</time>
      </trkpt>
      <trkpt lat="44.55236" lon="4.23764">
        <ele>380</ele>
        <time>2018-06-03T09:10:45.000Z</time>
      </trkpt>
      <trkpt lat="44.55236" lon="4.23769">
        <ele>380</ele>
        <time>2018-06-03T09:10:46.000Z</time>
      </trkpt>
      <trkpt lat="44.55237" lon="4.23775">
        <ele>380</ele>
        <time>2018-06-03T09:10:47.000Z</time>
      </trkpt>
      <trkpt lat="44.55238" lon="4.23779">
        <ele>380</ele>
        <time>2018-06-03T09:10:48.000Z</time>
      </trkpt>
      <trkpt lat="44.5524" lon="4.23784">
        <ele>380</ele>
        <time>2018-06-03T09:10:49.000Z</time>
      </trkpt>
      <trkpt lat="44.55241" lon="4.2379">
        <ele>380</ele>
        <time>2018-06-03T09:10:50.000Z</time>
      </trkpt>
      <trkpt lat="44.55241" lon="4.23795">
        <ele>379</ele>
        <time>2018-06-03T09:10:51.000Z</time>
      </trkpt>
      <trkpt lat="44.55242" lon="4.23801">
        <ele>379</ele>
        <time>2018-06-03T09:10:52.000Z</time>
      </trkpt>
      <trkpt lat="44.55243" lon="4.23806">
        <ele>379</ele>
        <time>2018-06-03T09:10:53.000Z</time>
      </trkpt>
      <trkpt lat="44.55243" lon="4.23812">
        <ele>378</ele>
        <time>2018-06-03T09:10:54.000Z</time>
      </trkpt>
      <trkpt lat="44.55243" lon="4.23818">
        <ele>378</ele>
        <time>2018-06-03T09:10:55.000Z</time>
      </trkpt>
      <trkpt lat="44.55243" lon="4.23824">
        <ele>377</ele>
        <time>2018-06-03T09:10:56.000Z</time>
      </trkpt>
      <trkpt lat="44.55244" lon="4.23829">
        <ele>377</ele>
        <time>2018-06-03T09:10:57.000Z</time>
      </trkpt>
      <trkpt lat="44.55245" lon="4.23834">
        <ele>376</ele>
        <time>2018-06-03T09:10:58.000Z</time>
      </trkpt>
      <trkpt lat="44.55244" lon="4.23839">
        <ele>377</ele>
        <time>2018-06-03T09:10:59.000Z</time>
      </trkpt>
      <trkpt lat="44.55243" lon="4.23842">
        <ele>378</ele>
        <time>2018-06-03T09:11:00.000Z</time>
      </trkpt>
      <trkpt lat="44.55242" lon="4.23846">
        <ele>378</ele>
        <time>2018-06-03T09:11:01.000Z</time>
      </trkpt>
      <trkpt lat="44.55241" lon="4.2385">
        <ele>379</ele>
        <time>2018-06-03T09:11:02.000Z</time>
      </trkpt>
      <trkpt lat="44.5524" lon="4.23854">
        <ele>379</ele>
        <time>2018-06-03T09:11:03.000Z</time>
      </trkpt>
      <trkpt lat="44.5524" lon="4.23858">
        <ele>379</ele>
        <time>2018-06-03T09:11:04.000Z</time>
      </trkpt>
      <trkpt lat="44.55239" lon="4.23862">
        <ele>380</ele>
        <time>2018-06-03T09:11:05.000Z</time>
      </trkpt>
      <trkpt lat="44.55239" lon="4.23867">
        <ele>380</ele>
        <time>2018-06-03T09:11:06.000Z</time>
      </trkpt>
      <trkpt lat="44.55239" lon="4.23873">
        <ele>380</ele>
        <time>2018-06-03T09:11:07.000Z</time>
      </trkpt>
      <trkpt lat="44.55239" lon="4.23878">
        <ele>380</ele>
        <time>2018-06-03T09:11:08.000Z</time>
      </trkpt>
      <trkpt lat="44.55239" lon="4.23884">
        <ele>380</ele>
        <time>2018-06-03T09:11:09.000Z</time>
      </trkpt>
      <trkpt lat="44.55238" lon="4.23889">
        <ele>379</ele>
        <time>2018-06-03T09:11:10.000Z</time>
      </trkpt>
      <trkpt lat="44.55238" lon="4.23895">
        <ele>379</ele>
        <time>2018-06-03T09:11:11.000Z</time>
      </trkpt>
      <trkpt lat="44.55238" lon="4.23901">
        <ele>378</ele>
        <time>2018-06-03T09:11:12.000Z</time>
      </trkpt>
      <trkpt lat="44.55238" lon="4.23906">
        <ele>378</ele>
        <time>2018-06-03T09:11:13.000Z</time>
      </trkpt>
      <trkpt lat="44.55238" lon="4.23912">
        <ele>377</ele>
        <time>2018-06-03T09:11:14.000Z</time>
      </trkpt>
      <trkpt lat="44.55238" lon="4.23918">
        <ele>377</ele>
        <time>2018-06-03T09:11:15.000Z</time>
      </trkpt>
      <trkpt lat="44.55239" lon="4.23924">
        <ele>378</ele>
        <time>2018-06-03T09:11:16.000Z</time>
      </trkpt>
      <trkpt lat="44.5524" lon="4.2393">
        <ele>378</ele>
        <time>2018-06-03T09:11:17.000Z</time>
      </trkpt>
      <trkpt lat="44.55242" lon="4.23935">
        <ele>379</ele>
        <time>2018-06-03T09:11:18.000Z</time>
      </trkpt>
      <trkpt lat="44.55243" lon="4.2394">
        <ele>379</ele>
        <time>2018-06-03T09:11:19.000Z</time>
      </trkpt>
      <trkpt lat="44.55245" lon="4.23944">
        <ele>380</ele>
        <time>2018-06-03T09:11:20.000Z</time>
      </trkpt>
      <trkpt lat="44.55247" lon="4.23948">
        <ele>380</ele>
        <time>2018-06-03T09:11:21.000Z</time>
      </trkpt>
      <trkpt lat="44.55248" lon="4.23952">
        <ele>380</ele>
        <time>2018-06-03T09:11:22.000Z</time>
      </trkpt>
      <trkpt lat="44.55251" lon="4.23957">
        <ele>381</ele>
        <time>2018-06-03T09:11:23.000Z</time>
      </trkpt>
      <trkpt lat="44.55252" lon="4.23961">
        <ele>381</ele>
        <time>2018-06-03T09:11:24.000Z</time>
      </trkpt>
      <trkpt lat="44.55254" lon="4.23965">
        <ele>381</ele>
        <time>2018-06-03T09:11:25.000Z</time>
      </trkpt>
      <trkpt lat="44.55257" lon="4.23969">
        <ele>381</ele>
        <time>2018-06-03T09:11:26.000Z</time>
      </trkpt>
      <trkpt lat="44.5526" lon="4.23972">
        <ele>380</ele>
        <time>2018-06-03T09:11:27.000Z</time>
      </trkpt>
      <trkpt lat="44.55262" lon="4.23976">
        <ele>380</ele>
        <time>2018-06-03T09:11:28.000Z</time>
      </trkpt>
      <trkpt lat="44.55265" lon="4.2398">
        <ele>380</ele>
        <time>2018-06-03T09:11:29.000Z</time>
      </trkpt>
      <trkpt lat="44.55268" lon="4.23984">
        <ele>380</ele>
        <time>2018-06-03T09:11:30.000Z</time>
      </trkpt>
      <trkpt lat="44.55272" lon="4.23988">
        <ele>381</ele>
        <time>2018-06-03T09:11:31.000Z</time>
      </trkpt>
      <trkpt lat="44.55276" lon="4.23993">
        <ele>381</ele>
        <time>2018-06-03T09:11:32.000Z</time>
      </trkpt>
      <trkpt lat="44.55279" lon="4.23997">
        <ele>382</ele>
        <time>2018-06-03T09:11:33.000Z</time>
      </trkpt>
      <trkpt lat="44.55282" lon="4.24003">
        <ele>378</ele>
        <time>2018-06-03T09:11:34.000Z</time>
      </trkpt>
      <trkpt lat="44.55285" lon="4.24008">
        <ele>378</ele>
        <time>2018-06-03T09:11:35.000Z</time>
      </trkpt>
      <trkpt lat="44.55288" lon="4.24013">
        <ele>378</ele>
        <time>2018-06-03T09:11:36.000Z</time>
      </trkpt>
      <trkpt lat="44.55291" lon="4.24018">
        <ele>379</ele>
        <time>2018-06-03T09:11:37.000Z</time>
      </trkpt>
      <trkpt lat="44.55294" lon="4.24023">
        <ele>379</ele>
        <time>2018-06-03T09:11:38.000Z</time>
      </trkpt>
      <trkpt lat="44.55297" lon="4.24027">
        <ele>379</ele>
        <time>2018-06-03T09:11:39.000Z</time>
      </trkpt>
      <trkpt lat="44.55299" lon="4.24032">
        <ele>379</ele>
        <time>2018-06-03T09:11:40.000Z</time>
      </trkpt>
      <trkpt lat="44.55301" lon="4.24036">
        <ele>379</ele>
        <time>2018-06-03T09:11:41.000Z</time>
      </trkpt>
      <trkpt lat="44.55302" lon="4.2404">
        <ele>379</ele>
        <time>2018-06-03T09:11:42.000Z</time>
      </trkpt>
      <trkpt lat="44.55302" lon="4.24043">
        <ele>378</ele>
        <time>2018-06-03T09:11:43.000Z</time>
      </trkpt>
      <trkpt lat="44.55304" lon="4.24048">
        <ele>378</ele>
        <time>2018-06-03T09:11:44.000Z</time>
      </trkpt>
      <trkpt lat="44.55305" lon="4.24052">
        <ele>378</ele>
        <time>2018-06-03T09:11:45.000Z</time>
      </trkpt>
      <trkpt lat="44.55306" lon="4.24054">
        <ele>378</ele>
        <time>2018-06-03T09:11:46.000Z</time>
      </trkpt>
      <trkpt lat="44.55306" lon="4.24056">
        <ele>378</ele>
        <time>2018-06-03T09:11:47.000Z</time>
      </trkpt>
      <trkpt lat="44.55306" lon="4.24057">
        <ele>378</ele>
        <time>2018-06-03T09:11:48.000Z</time>
      </trkpt>
      <trkpt lat="44.55306" lon="4.24058">
        <ele>378</ele>
        <time>2018-06-03T09:11:49.000Z</time>
      </trkpt>
      <trkpt lat="44.55307" lon="4.24059">
        <ele>378</ele>
        <time>2018-06-03T09:11:50.000Z</time>
      </trkpt>
      <trkpt lat="44.55307" lon="4.2406">
        <ele>378</ele>
        <time>2018-06-03T09:11:51.000Z</time>
      </trkpt>
      <trkpt lat="44.55308" lon="4.24061">
        <ele>378</ele>
        <time>2018-06-03T09:11:52.000Z</time>
      </trkpt>
      <trkpt lat="44.55309" lon="4.24061">
        <ele>378</ele>
        <time>2018-06-03T09:11:53.000Z</time>
      </trkpt>
      <trkpt lat="44.55309" lon="4.24061">
        <ele>378</ele>
        <time>2018-06-03T09:11:54.000Z</time>
      </trkpt>
      <trkpt lat="44.55309" lon="4.24062">
        <ele>378</ele>
        <time>2018-06-03T09:11:55.000Z</time>
      </trkpt>
      <trkpt lat="44.5531" lon="4.24063">
        <ele>378</ele>
        <time>2018-06-03T09:11:56.000Z</time>
      </trkpt>
      <trkpt lat="44.5531" lon="4.24063">
        <ele>378</ele>
        <time>2018-06-03T09:11:57.000Z</time>
      </trkpt>
      <trkpt lat="44.55311" lon="4.24065">
        <ele>378</ele>
        <time>2018-06-03T09:11:58.000Z</time>
      </trkpt>
      <trkpt lat="44.55311" lon="4.24065">
        <ele>378</ele>
        <time>2018-06-03T09:11:59.000Z</time>
      </trkpt>
      <trkpt lat="44.55311" lon="4.24065">
        <ele>377</ele>
        <time>2018-06-03T09:12:00.000Z</time>
      </trkpt>
      <trkpt lat="44.55311" lon="4.24066">
        <ele>377</ele>
        <time>2018-06-03T09:12:01.000Z</time>
      </trkpt>
      <trkpt lat="44.55312" lon="4.24068">
        <ele>377</ele>
        <time>2018-06-03T09:12:02.000Z</time>
      </trkpt>
      <trkpt lat="44.55312" lon="4.24069">
        <ele>377</ele>
        <time>2018-06-03T09:12:03.000Z</time>
      </trkpt>
      <trkpt lat="44.55313" lon="4.24071">
        <ele>377</ele>
        <time>2018-06-03T09:12:04.000Z</time>
      </trkpt>
      <trkpt lat="44.55313" lon="4.24073">
        <ele>377</ele>
        <time>2018-06-03T09:12:05.000Z</time>
      </trkpt>
      <trkpt lat="44.55314" lon="4.24075">
        <ele>377</ele>
        <time>2018-06-03T09:12:06.000Z</time>
      </trkpt>
      <trkpt lat="44.55314" lon="4.24077">
        <ele>377</ele>
        <time>2018-06-03T09:12:07.000Z</time>
      </trkpt>
      <trkpt lat="44.55314" lon="4.24079">
        <ele>377</ele>
        <time>2018-06-03T09:12:08.000Z</time>
      </trkpt>
      <trkpt lat="44.55315" lon="4.24083">
        <ele>377</ele>
        <time>2018-06-03T09:12:09.000Z</time>
      </trkpt>
      <trkpt lat="44.55315" lon="4.24086">
        <ele>374</ele>
        <time>2018-06-03T09:12:10.000Z</time>
      </trkpt>
      <trkpt lat="44.55314" lon="4.24089">
        <ele>374</ele>
        <time>2018-06-03T09:12:11.000Z</time>
      </trkpt>
      <trkpt lat="44.55315" lon="4.24092">
        <ele>374</ele>
        <time>2018-06-03T09:12:12.000Z</time>
      </trkpt>
      <trkpt lat="44.55315" lon="4.24094">
        <ele>374</ele>
        <time>2018-06-03T09:12:13.000Z</time>
      </trkpt>
      <trkpt lat="44.55315" lon="4.24097">
        <ele>374</ele>
        <time>2018-06-03T09:12:14.000Z</time>
      </trkpt>
      <trkpt lat="44.55315" lon="4.24099">
        <ele>373</ele>
        <time>2018-06-03T09:12:15.000Z</time>
      </trkpt>
      <trkpt lat="44.55315" lon="4.24103">
        <ele>373</ele>
        <time>2018-06-03T09:12:16.000Z</time>
      </trkpt>
      <trkpt lat="44.55315" lon="4.24107">
        <ele>373</ele>
        <time>2018-06-03T09:12:17.000Z</time>
      </trkpt>
      <trkpt lat="44.55315" lon="4.2411">
        <ele>373</ele>
        <time>2018-06-03T09:12:18.000Z</time>
      </trkpt>
      <trkpt lat="44.55315" lon="4.24113">
        <ele>373</ele>
        <time>2018-06-03T09:12:19.000Z</time>
      </trkpt>
      <trkpt lat="44.55316" lon="4.24117">
        <ele>373</ele>
        <time>2018-06-03T09:12:20.000Z</time>
      </trkpt>
      <trkpt lat="44.55316" lon="4.2412">
        <ele>373</ele>
        <time>2018-06-03T09:12:21.000Z</time>
      </trkpt>
      <trkpt lat="44.55316" lon="4.24123">
        <ele>373</ele>
        <time>2018-06-03T09:12:22.000Z</time>
      </trkpt>
      <trkpt lat="44.55315" lon="4.24128">
        <ele>372</ele>
        <time>2018-06-03T09:12:23.000Z</time>
      </trkpt>
      <trkpt lat="44.55313" lon="4.24133">
        <ele>372</ele>
        <time>2018-06-03T09:12:24.000Z</time>
      </trkpt>
      <trkpt lat="44.55311" lon="4.24138">
        <ele>372</ele>
        <time>2018-06-03T09:12:25.000Z</time>
      </trkpt>
      <trkpt lat="44.55308" lon="4.24143">
        <ele>372</ele>
        <time>2018-06-03T09:12:26.000Z</time>
      </trkpt>
      <trkpt lat="44.55305" lon="4.24148">
        <ele>372</ele>
        <time>2018-06-03T09:12:27.000Z</time>
      </trkpt>
      <trkpt lat="44.55303" lon="4.24152">
        <ele>372</ele>
        <time>2018-06-03T09:12:28.000Z</time>
      </trkpt>
      <trkpt lat="44.55301" lon="4.24156">
        <ele>372</ele>
        <time>2018-06-03T09:12:29.000Z</time>
      </trkpt>
      <trkpt lat="44.553" lon="4.2416">
        <ele>371</ele>
        <time>2018-06-03T09:12:30.000Z</time>
      </trkpt>
      <trkpt lat="44.55298" lon="4.24163">
        <ele>371</ele>
        <time>2018-06-03T09:12:31.000Z</time>
      </trkpt>
      <trkpt lat="44.55296" lon="4.24168">
        <ele>367</ele>
        <time>2018-06-03T09:12:32.000Z</time>
      </trkpt>
      <trkpt lat="44.55293" lon="4.24173">
        <ele>367</ele>
        <time>2018-06-03T09:12:33.000Z</time>
      </trkpt>
      <trkpt lat="44.55291" lon="4.24177">
        <ele>366</ele>
        <time>2018-06-03T09:12:34.000Z</time>
      </trkpt>
      <trkpt lat="44.55288" lon="4.24182">
        <ele>366</ele>
        <time>2018-06-03T09:12:35.000Z</time>
      </trkpt>
      <trkpt lat="44.55284" lon="4.24186">
        <ele>366</ele>
        <time>2018-06-03T09:12:36.000Z</time>
      </trkpt>
      <trkpt lat="44.55281" lon="4.24189">
        <ele>365</ele>
        <time>2018-06-03T09:12:37.000Z</time>
      </trkpt>
      <trkpt lat="44.55278" lon="4.24193">
        <ele>365</ele>
        <time>2018-06-03T09:12:38.000Z</time>
      </trkpt>
      <trkpt lat="44.55275" lon="4.24197">
        <ele>365</ele>
        <time>2018-06-03T09:12:39.000Z</time>
      </trkpt>
      <trkpt lat="44.55272" lon="4.24202">
        <ele>364</ele>
        <time>2018-06-03T09:12:40.000Z</time>
      </trkpt>
      <trkpt lat="44.5527" lon="4.24206">
        <ele>364</ele>
        <time>2018-06-03T09:12:41.000Z</time>
      </trkpt>
      <trkpt lat="44.55267" lon="4.2421">
        <ele>364</ele>
        <time>2018-06-03T09:12:42.000Z</time>
      </trkpt>
      <trkpt lat="44.55264" lon="4.24214">
        <ele>363</ele>
        <time>2018-06-03T09:12:43.000Z</time>
      </trkpt>
      <trkpt lat="44.55261" lon="4.24218">
        <ele>363</ele>
        <time>2018-06-03T09:12:44.000Z</time>
      </trkpt>
      <trkpt lat="44.55259" lon="4.24222">
        <ele>362</ele>
        <time>2018-06-03T09:12:45.000Z</time>
      </trkpt>
      <trkpt lat="44.55257" lon="4.24226">
        <ele>361</ele>
        <time>2018-06-03T09:12:46.000Z</time>
      </trkpt>
      <trkpt lat="44.55256" lon="4.24229">
        <ele>361</ele>
        <time>2018-06-03T09:12:47.000Z</time>
      </trkpt>
      <trkpt lat="44.55256" lon="4.24233">
        <ele>360</ele>
        <time>2018-06-03T09:12:48.000Z</time>
      </trkpt>
      <trkpt lat="44.55255" lon="4.24238">
        <ele>359</ele>
        <time>2018-06-03T09:12:49.000Z</time>
      </trkpt>
      <trkpt lat="44.55255" lon="4.24242">
        <ele>358</ele>
        <time>2018-06-03T09:12:50.000Z</time>
      </trkpt>
      <trkpt lat="44.55254" lon="4.24246">
        <ele>357</ele>
        <time>2018-06-03T09:12:51.000Z</time>
      </trkpt>
      <trkpt lat="44.55254" lon="4.24251">
        <ele>356</ele>
        <time>2018-06-03T09:12:52.000Z</time>
      </trkpt>
      <trkpt lat="44.55253" lon="4.24255">
        <ele>356</ele>
        <time>2018-06-03T09:12:53.000Z</time>
      </trkpt>
      <trkpt lat="44.55253" lon="4.24259">
        <ele>356</ele>
        <time>2018-06-03T09:12:54.000Z</time>
      </trkpt>
      <trkpt lat="44.55253" lon="4.24264">
        <ele>357</ele>
        <time>2018-06-03T09:12:55.000Z</time>
      </trkpt>
      <trkpt lat="44.55254" lon="4.24268">
        <ele>357</ele>
        <time>2018-06-03T09:12:56.000Z</time>
      </trkpt>
      <trkpt lat="44.55255" lon="4.24271">
        <ele>358</ele>
        <time>2018-06-03T09:12:57.000Z</time>
      </trkpt>
      <trkpt lat="44.55256" lon="4.24275">
        <ele>358</ele>
        <time>2018-06-03T09:12:58.000Z</time>
      </trkpt>
      <trkpt lat="44.55259" lon="4.24278">
        <ele>358</ele>
        <time>2018-06-03T09:12:59.000Z</time>
      </trkpt>
      <trkpt lat="44.55262" lon="4.2428">
        <ele>358</ele>
        <time>2018-06-03T09:13:00.000Z</time>
      </trkpt>
      <trkpt lat="44.55266" lon="4.24281">
        <ele>358</ele>
        <time>2018-06-03T09:13:01.000Z</time>
      </trkpt>
      <trkpt lat="44.55269" lon="4.24282">
        <ele>359</ele>
        <time>2018-06-03T09:13:02.000Z</time>
      </trkpt>
      <trkpt lat="44.55273" lon="4.24284">
        <ele>359</ele>
        <time>2018-06-03T09:13:03.000Z</time>
      </trkpt>
      <trkpt lat="44.55276" lon="4.24286">
        <ele>359</ele>
        <time>2018-06-03T09:13:04.000Z</time>
      </trkpt>
      <trkpt lat="44.5528" lon="4.24288">
        <ele>359</ele>
        <time>2018-06-03T09:13:05.000Z</time>
      </trkpt>
      <trkpt lat="44.55283" lon="4.24289">
        <ele>359</ele>
        <time>2018-06-03T09:13:06.000Z</time>
      </trkpt>
      <trkpt lat="44.55286" lon="4.2429">
        <ele>359</ele>
        <time>2018-06-03T09:13:07.000Z</time>
      </trkpt>
      <trkpt lat="44.55289" lon="4.24292">
        <ele>360</ele>
        <time>2018-06-03T09:13:08.000Z</time>
      </trkpt>
      <trkpt lat="44.55292" lon="4.24293">
        <ele>360</ele>
        <time>2018-06-03T09:13:09.000Z</time>
      </trkpt>
      <trkpt lat="44.55294" lon="4.24294">
        <ele>360</ele>
        <time>2018-06-03T09:13:10.000Z</time>
      </trkpt>
      <trkpt lat="44.55297" lon="4.24294">
        <ele>360</ele>
        <time>2018-06-03T09:13:11.000Z</time>
      </trkpt>
      <trkpt lat="44.55299" lon="4.24296">
        <ele>360</ele>
        <time>2018-06-03T09:13:12.000Z</time>
      </trkpt>
      <trkpt lat="44.553" lon="4.24298">
        <ele>360</ele>
        <time>2018-06-03T09:13:13.000Z</time>
      </trkpt>
      <trkpt lat="44.55301" lon="4.24299">
        <ele>360</ele>
        <time>2018-06-03T09:13:14.000Z</time>
      </trkpt>
      <trkpt lat="44.55301" lon="4.24301">
        <ele>360</ele>
        <time>2018-06-03T09:13:15.000Z</time>
      </trkpt>
      <trkpt lat="44.553" lon="4.24303">
        <ele>360</ele>
        <time>2018-06-03T09:13:16.000Z</time>
      </trkpt>
      <trkpt lat="44.55299" lon="4.24305">
        <ele>360</ele>
        <time>2018-06-03T09:13:17.000Z</time>
      </trkpt>
      <trkpt lat="44.55297" lon="4.24307">
        <ele>360</ele>
        <time>2018-06-03T09:13:18.000Z</time>
      </trkpt>
      <trkpt lat="44.55295" lon="4.2431">
        <ele>360</ele>
        <time>2018-06-03T09:13:19.000Z</time>
      </trkpt>
      <trkpt lat="44.55293" lon="4.24314">
        <ele>360</ele>
        <time>2018-06-03T09:13:20.000Z</time>
      </trkpt>
      <trkpt lat="44.55291" lon="4.24317">
        <ele>360</ele>
        <time>2018-06-03T09:13:21.000Z</time>
      </trkpt>
      <trkpt lat="44.55289" lon="4.2432">
        <ele>359</ele>
        <time>2018-06-03T09:13:22.000Z</time>
      </trkpt>
      <trkpt lat="44.55286" lon="4.24321">
        <ele>359</ele>
        <time>2018-06-03T09:13:23.000Z</time>
      </trkpt>
      <trkpt lat="44.55283" lon="4.24323">
        <ele>359</ele>
        <time>2018-06-03T09:13:24.000Z</time>
      </trkpt>
      <trkpt lat="44.5528" lon="4.24323">
        <ele>359</ele>
        <time>2018-06-03T09:13:25.000Z</time>
      </trkpt>
      <trkpt lat="44.55277" lon="4.24324">
        <ele>358</ele>
        <time>2018-06-03T09:13:26.000Z</time>
      </trkpt>
      <trkpt lat="44.55274" lon="4.24324">
        <ele>358</ele>
        <time>2018-06-03T09:13:27.000Z</time>
      </trkpt>
      <trkpt lat="44.55271" lon="4.24325">
        <ele>358</ele>
        <time>2018-06-03T09:13:28.000Z</time>
      </trkpt>
      <trkpt lat="44.55268" lon="4.24326">
        <ele>358</ele>
        <time>2018-06-03T09:13:29.000Z</time>
      </trkpt>
      <trkpt lat="44.55265" lon="4.24327">
        <ele>357</ele>
        <time>2018-06-03T09:13:30.000Z</time>
      </trkpt>
      <trkpt lat="44.55261" lon="4.24328">
        <ele>357</ele>
        <time>2018-06-03T09:13:31.000Z</time>
      </trkpt>
      <trkpt lat="44.55258" lon="4.24329">
        <ele>356</ele>
        <time>2018-06-03T09:13:32.000Z</time>
      </trkpt>
      <trkpt lat="44.55255" lon="4.2433">
        <ele>356</ele>
        <time>2018-06-03T09:13:33.000Z</time>
      </trkpt>
      <trkpt lat="44.55252" lon="4.24331">
        <ele>355</ele>
        <time>2018-06-03T09:13:34.000Z</time>
      </trkpt>
      <trkpt lat="44.55248" lon="4.24332">
        <ele>356</ele>
        <time>2018-06-03T09:13:35.000Z</time>
      </trkpt>
      <trkpt lat="44.55245" lon="4.24334">
        <ele>357</ele>
        <time>2018-06-03T09:13:36.000Z</time>
      </trkpt>
      <trkpt lat="44.55242" lon="4.24335">
        <ele>358</ele>
        <time>2018-06-03T09:13:37.000Z</time>
      </trkpt>
      <trkpt lat="44.55239" lon="4.24336">
        <ele>359</ele>
        <time>2018-06-03T09:13:38.000Z</time>
      </trkpt>
      <trkpt lat="44.55236" lon="4.24339">
        <ele>360</ele>
        <time>2018-06-03T09:13:39.000Z</time>
      </trkpt>
      <trkpt lat="44.55233" lon="4.24341">
        <ele>360</ele>
        <time>2018-06-03T09:13:40.000Z</time>
      </trkpt>
      <trkpt lat="44.55231" lon="4.24345">
        <ele>361</ele>
        <time>2018-06-03T09:13:41.000Z</time>
      </trkpt>
      <trkpt lat="44.55228" lon="4.24348">
        <ele>362</ele>
        <time>2018-06-03T09:13:42.000Z</time>
      </trkpt>
      <trkpt lat="44.55226" lon="4.24352">
        <ele>362</ele>
        <time>2018-06-03T09:13:43.000Z</time>
      </trkpt>
      <trkpt lat="44.55224" lon="4.24356">
        <ele>363</ele>
        <time>2018-06-03T09:13:44.000Z</time>
      </trkpt>
      <trkpt lat="44.55222" lon="4.2436">
        <ele>363</ele>
        <time>2018-06-03T09:13:45.000Z</time>
      </trkpt>
      <trkpt lat="44.5522" lon="4.24364">
        <ele>364</ele>
        <time>2018-06-03T09:13:46.000Z</time>
      </trkpt>
      <trkpt lat="44.55218" lon="4.24369">
        <ele>364</ele>
        <time>2018-06-03T09:13:47.000Z</time>
      </trkpt>
      <trkpt lat="44.55216" lon="4.24373">
        <ele>364</ele>
        <time>2018-06-03T09:13:48.000Z</time>
      </trkpt>
      <trkpt lat="44.55214" lon="4.24377">
        <ele>365</ele>
        <time>2018-06-03T09:13:49.000Z</time>
      </trkpt>
      <trkpt lat="44.55212" lon="4.24381">
        <ele>365</ele>
        <time>2018-06-03T09:13:50.000Z</time>
      </trkpt>
      <trkpt lat="44.55211" lon="4.24385">
        <ele>365</ele>
        <time>2018-06-03T09:13:51.000Z</time>
      </trkpt>
      <trkpt lat="44.55209" lon="4.24389">
        <ele>365</ele>
        <time>2018-06-03T09:13:52.000Z</time>
      </trkpt>
      <trkpt lat="44.55207" lon="4.24393">
        <ele>365</ele>
        <time>2018-06-03T09:13:53.000Z</time>
      </trkpt>
      <trkpt lat="44.55205" lon="4.24397">
        <ele>365</ele>
        <time>2018-06-03T09:13:54.000Z</time>
      </trkpt>
      <trkpt lat="44.55203" lon="4.24401">
        <ele>365</ele>
        <time>2018-06-03T09:13:55.000Z</time>
      </trkpt>
      <trkpt lat="44.55201" lon="4.24405">
        <ele>365</ele>
        <time>2018-06-03T09:13:56.000Z</time>
      </trkpt>
      <trkpt lat="44.55199" lon="4.24408">
        <ele>364</ele>
        <time>2018-06-03T09:13:57.000Z</time>
      </trkpt>
      <trkpt lat="44.55197" lon="4.24412">
        <ele>364</ele>
        <time>2018-06-03T09:13:58.000Z</time>
      </trkpt>
      <trkpt lat="44.55195" lon="4.24415">
        <ele>364</ele>
        <time>2018-06-03T09:13:59.000Z</time>
      </trkpt>
      <trkpt lat="44.55193" lon="4.24419">
        <ele>369</ele>
        <time>2018-06-03T09:14:00.000Z</time>
      </trkpt>
      <trkpt lat="44.55191" lon="4.24422">
        <ele>369</ele>
        <time>2018-06-03T09:14:01.000Z</time>
      </trkpt>
      <trkpt lat="44.55189" lon="4.24426">
        <ele>369</ele>
        <time>2018-06-03T09:14:02.000Z</time>
      </trkpt>
      <trkpt lat="44.55186" lon="4.24428">
        <ele>368</ele>
        <time>2018-06-03T09:14:03.000Z</time>
      </trkpt>
      <trkpt lat="44.55184" lon="4.24431">
        <ele>368</ele>
        <time>2018-06-03T09:14:04.000Z</time>
      </trkpt>
      <trkpt lat="44.55182" lon="4.24432">
        <ele>368</ele>
        <time>2018-06-03T09:14:05.000Z</time>
      </trkpt>
      <trkpt lat="44.5518" lon="4.24434">
        <ele>368</ele>
        <time>2018-06-03T09:14:06.000Z</time>
      </trkpt>
      <trkpt lat="44.55178" lon="4.24435">
        <ele>368</ele>
        <time>2018-06-03T09:14:07.000Z</time>
      </trkpt>
      <trkpt lat="44.55177" lon="4.24437">
        <ele>368</ele>
        <time>2018-06-03T09:14:08.000Z</time>
      </trkpt>
      <trkpt lat="44.55175" lon="4.24437">
        <ele>368</ele>
        <time>2018-06-03T09:14:09.000Z</time>
      </trkpt>
      <trkpt lat="44.55174" lon="4.24438">
        <ele>368</ele>
        <time>2018-06-03T09:14:10.000Z</time>
      </trkpt>
      <trkpt lat="44.55174" lon="4.24439">
        <ele>368</ele>
        <time>2018-06-03T09:14:11.000Z</time>
      </trkpt>
      <trkpt lat="44.55173" lon="4.2444">
        <ele>368</ele>
        <time>2018-06-03T09:14:12.000Z</time>
      </trkpt>
      <trkpt lat="44.55173" lon="4.24441">
        <ele>368</ele>
        <time>2018-06-03T09:14:13.000Z</time>
      </trkpt>
      <trkpt lat="44.55172" lon="4.24442">
        <ele>368</ele>
        <time>2018-06-03T09:14:14.000Z</time>
      </trkpt>
      <trkpt lat="44.55171" lon="4.24442">
        <ele>368</ele>
        <time>2018-06-03T09:14:15.000Z</time>
      </trkpt>
      <trkpt lat="44.5517" lon="4.24442">
        <ele>368</ele>
        <time>2018-06-03T09:14:16.000Z</time>
      </trkpt>
      <trkpt lat="44.55168" lon="4.24442">
        <ele>368</ele>
        <time>2018-06-03T09:14:17.000Z</time>
      </trkpt>
      <trkpt lat="44.55166" lon="4.24443">
        <ele>357</ele>
        <time>2018-06-03T09:14:18.000Z</time>
      </trkpt>
      <trkpt lat="44.55163" lon="4.24445">
        <ele>357</ele>
        <time>2018-06-03T09:14:19.000Z</time>
      </trkpt>
      <trkpt lat="44.55161" lon="4.24446">
        <ele>357</ele>
        <time>2018-06-03T09:14:20.000Z</time>
      </trkpt>
      <trkpt lat="44.55158" lon="4.24447">
        <ele>356</ele>
        <time>2018-06-03T09:14:21.000Z</time>
      </trkpt>
      <trkpt lat="44.55155" lon="4.24447">
        <ele>356</ele>
        <time>2018-06-03T09:14:22.000Z</time>
      </trkpt>
      <trkpt lat="44.55152" lon="4.24448">
        <ele>356</ele>
        <time>2018-06-03T09:14:23.000Z</time>
      </trkpt>
      <trkpt lat="44.55148" lon="4.24448">
        <ele>356</ele>
        <time>2018-06-03T09:14:24.000Z</time>
      </trkpt>
      <trkpt lat="44.55145" lon="4.24449">
        <ele>356</ele>
        <time>2018-06-03T09:14:25.000Z</time>
      </trkpt>
      <trkpt lat="44.55141" lon="4.24449">
        <ele>355</ele>
        <time>2018-06-03T09:14:26.000Z</time>
      </trkpt>
      <trkpt lat="44.55137" lon="4.2445">
        <ele>355</ele>
        <time>2018-06-03T09:14:27.000Z</time>
      </trkpt>
      <trkpt lat="44.55133" lon="4.24453">
        <ele>355</ele>
        <time>2018-06-03T09:14:28.000Z</time>
      </trkpt>
      <trkpt lat="44.5513" lon="4.24456">
        <ele>355</ele>
        <time>2018-06-03T09:14:29.000Z</time>
      </trkpt>
      <trkpt lat="44.55128" lon="4.2446">
        <ele>355</ele>
        <time>2018-06-03T09:14:30.000Z</time>
      </trkpt>
      <trkpt lat="44.55127" lon="4.24462">
        <ele>355</ele>
        <time>2018-06-03T09:14:31.000Z</time>
      </trkpt>
      <trkpt lat="44.55127" lon="4.24464">
        <ele>354</ele>
        <time>2018-06-03T09:14:32.000Z</time>
      </trkpt>
      <trkpt lat="44.55127" lon="4.24464">
        <ele>354</ele>
        <time>2018-06-03T09:14:33.000Z</time>
      </trkpt>
      <trkpt lat="44.55126" lon="4.24464">
        <ele>354</ele>
        <time>2018-06-03T09:14:34.000Z</time>
      </trkpt>
      <trkpt lat="44.55126" lon="4.24464">
        <ele>354</ele>
        <time>2018-06-03T09:14:35.000Z</time>
      </trkpt>
      <trkpt lat="44.55126" lon="4.24464">
        <ele>354</ele>
        <time>2018-06-03T09:14:36.000Z</time>
      </trkpt>
      <trkpt lat="44.55126" lon="4.24464">
        <ele>354</ele>
        <time>2018-06-03T09:14:37.000Z</time>
      </trkpt>
      <trkpt lat="44.55126" lon="4.24463">
        <ele>354</ele>
        <time>2018-06-03T09:14:38.000Z</time>
      </trkpt>
      <trkpt lat="44.55126" lon="4.24463">
        <ele>354</ele>
        <time>2018-06-03T09:14:39.000Z</time>
      </trkpt>
      <trkpt lat="44.55125" lon="4.24463">
        <ele>354</ele>
        <time>2018-06-03T09:14:40.000Z</time>
      </trkpt>
      <trkpt lat="44.55125" lon="4.24463">
        <ele>354</ele>
        <time>2018-06-03T09:14:41.000Z</time>
      </trkpt>
      <trkpt lat="44.55125" lon="4.24463">
        <ele>354</ele>
        <time>2018-06-03T09:14:42.000Z</time>
      </trkpt>
      <trkpt lat="44.55125" lon="4.24463">
        <ele>354</ele>
        <time>2018-06-03T09:14:43.000Z</time>
      </trkpt>
      <trkpt lat="44.55125" lon="4.24463">
        <ele>354</ele>
        <time>2018-06-03T09:14:44.000Z</time>
      </trkpt>
      <trkpt lat="44.55125" lon="4.24464">
        <ele>354</ele>
        <time>2018-06-03T09:14:45.000Z</time>
      </trkpt>
      <trkpt lat="44.55124" lon="4.24465">
        <ele>354</ele>
        <time>2018-06-03T09:14:46.000Z</time>
      </trkpt>
      <trkpt lat="44.55124" lon="4.24466">
        <ele>354</ele>
        <time>2018-06-03T09:14:47.000Z</time>
      </trkpt>
      <trkpt lat="44.55124" lon="4.24466">
        <ele>354</ele>
        <time>2018-06-03T09:14:48.000Z</time>
      </trkpt>
      <trkpt lat="44.55124" lon="4.24466">
        <ele>354</ele>
        <time>2018-06-03T09:14:49.000Z</time>
      </trkpt>
      <trkpt lat="44.55124" lon="4.24466">
        <ele>354</ele>
        <time>2018-06-03T09:14:50.000Z</time>
      </trkpt>
      <trkpt lat="44.55124" lon="4.24467">
        <ele>354</ele>
        <time>2018-06-03T09:14:51.000Z</time>
      </trkpt>
      <trkpt lat="44.55124" lon="4.24468">
        <ele>354</ele>
        <time>2018-06-03T09:14:52.000Z</time>
      </trkpt>
      <trkpt lat="44.55124" lon="4.24471">
        <ele>354</ele>
        <time>2018-06-03T09:14:53.000Z</time>
      </trkpt>
      <trkpt lat="44.55124" lon="4.24474">
        <ele>354</ele>
        <time>2018-06-03T09:14:54.000Z</time>
      </trkpt>
      <trkpt lat="44.55125" lon="4.24478">
        <ele>354</ele>
        <time>2018-06-03T09:14:55.000Z</time>
      </trkpt>
      <trkpt lat="44.55126" lon="4.24482">
        <ele>355</ele>
        <time>2018-06-03T09:14:56.000Z</time>
      </trkpt>
      <trkpt lat="44.55127" lon="4.24486">
        <ele>355</ele>
        <time>2018-06-03T09:14:57.000Z</time>
      </trkpt>
      <trkpt lat="44.55129" lon="4.2449">
        <ele>355</ele>
        <time>2018-06-03T09:14:58.000Z</time>
      </trkpt>
      <trkpt lat="44.55131" lon="4.24494">
        <ele>356</ele>
        <time>2018-06-03T09:14:59.000Z</time>
      </trkpt>
      <trkpt lat="44.55133" lon="4.24498">
        <ele>356</ele>
        <time>2018-06-03T09:15:00.000Z</time>
      </trkpt>
      <trkpt lat="44.55136" lon="4.24501">
        <ele>358</ele>
        <time>2018-06-03T09:15:01.000Z</time>
      </trkpt>
      <trkpt lat="44.55139" lon="4.24504">
        <ele>358</ele>
        <time>2018-06-03T09:15:02.000Z</time>
      </trkpt>
      <trkpt lat="44.55142" lon="4.24508">
        <ele>359</ele>
        <time>2018-06-03T09:15:03.000Z</time>
      </trkpt>
      <trkpt lat="44.55145" lon="4.24512">
        <ele>359</ele>
        <time>2018-06-03T09:15:04.000Z</time>
      </trkpt>
      <trkpt lat="44.55148" lon="4.24516">
        <ele>360</ele>
        <time>2018-06-03T09:15:05.000Z</time>
      </trkpt>
      <trkpt lat="44.55149" lon="4.24522">
        <ele>359</ele>
        <time>2018-06-03T09:15:06.000Z</time>
      </trkpt>
      <trkpt lat="44.55149" lon="4.24528">
        <ele>359</ele>
        <time>2018-06-03T09:15:07.000Z</time>
      </trkpt>
      <trkpt lat="44.55149" lon="4.24534">
        <ele>359</ele>
        <time>2018-06-03T09:15:08.000Z</time>
      </trkpt>
      <trkpt lat="44.55148" lon="4.24541">
        <ele>359</ele>
        <time>2018-06-03T09:15:09.000Z</time>
      </trkpt>
      <trkpt lat="44.55147" lon="4.24547">
        <ele>359</ele>
        <time>2018-06-03T09:15:10.000Z</time>
      </trkpt>
      <trkpt lat="44.55146" lon="4.24554">
        <ele>359</ele>
        <time>2018-06-03T09:15:11.000Z</time>
      </trkpt>
      <trkpt lat="44.55144" lon="4.24561">
        <ele>359</ele>
        <time>2018-06-03T09:15:12.000Z</time>
      </trkpt>
      <trkpt lat="44.55142" lon="4.24567">
        <ele>359</ele>
        <time>2018-06-03T09:15:13.000Z</time>
      </trkpt>
      <trkpt lat="44.5514" lon="4.24573">
        <ele>359</ele>
        <time>2018-06-03T09:15:14.000Z</time>
      </trkpt>
      <trkpt lat="44.55138" lon="4.2458">
        <ele>359</ele>
        <time>2018-06-03T09:15:15.000Z</time>
      </trkpt>
      <trkpt lat="44.55136" lon="4.24587">
        <ele>360</ele>
        <time>2018-06-03T09:15:16.000Z</time>
      </trkpt>
      <trkpt lat="44.55134" lon="4.24594">
        <ele>360</ele>
        <time>2018-06-03T09:15:17.000Z</time>
      </trkpt>
      <trkpt lat="44.55133" lon="4.24602">
        <ele>359</ele>
        <time>2018-06-03T09:15:18.000Z</time>
      </trkpt>
      <trkpt lat="44.55133" lon="4.2461">
        <ele>359</ele>
        <time>2018-06-03T09:15:19.000Z</time>
      </trkpt>
      <trkpt lat="44.55133" lon="4.24618">
        <ele>359</ele>
        <time>2018-06-03T09:15:20.000Z</time>
      </trkpt>
      <trkpt lat="44.55133" lon="4.24626">
        <ele>360</ele>
        <time>2018-06-03T09:15:21.000Z</time>
      </trkpt>
      <trkpt lat="44.55134" lon="4.24634">
        <ele>360</ele>
        <time>2018-06-03T09:15:22.000Z</time>
      </trkpt>
      <trkpt lat="44.55135" lon="4.24642">
        <ele>360</ele>
        <time>2018-06-03T09:15:23.000Z</time>
      </trkpt>
      <trkpt lat="44.55136" lon="4.24649">
        <ele>361</ele>
        <time>2018-06-03T09:15:24.000Z</time>
      </trkpt>
      <trkpt lat="44.55136" lon="4.24656">
        <ele>361</ele>
        <time>2018-06-03T09:15:25.000Z</time>
      </trkpt>
      <trkpt lat="44.55134" lon="4.24662">
        <ele>361</ele>
        <time>2018-06-03T09:15:26.000Z</time>
      </trkpt>
      <trkpt lat="44.55133" lon="4.24669">
        <ele>362</ele>
        <time>2018-06-03T09:15:27.000Z</time>
      </trkpt>
      <trkpt lat="44.55132" lon="4.24677">
        <ele>361</ele>
        <time>2018-06-03T09:15:28.000Z</time>
      </trkpt>
      <trkpt lat="44.55131" lon="4.24685">
        <ele>361</ele>
        <time>2018-06-03T09:15:29.000Z</time>
      </trkpt>
      <trkpt lat="44.5513" lon="4.24692">
        <ele>361</ele>
        <time>2018-06-03T09:15:30.000Z</time>
      </trkpt>
      <trkpt lat="44.5513" lon="4.247">
        <ele>360</ele>
        <time>2018-06-03T09:15:31.000Z</time>
      </trkpt>
      <trkpt lat="44.55129" lon="4.24707">
        <ele>360</ele>
        <time>2018-06-03T09:15:32.000Z</time>
      </trkpt>
      <trkpt lat="44.55128" lon="4.24714">
        <ele>360</ele>
        <time>2018-06-03T09:15:33.000Z</time>
      </trkpt>
      <trkpt lat="44.55127" lon="4.24721">
        <ele>360</ele>
        <time>2018-06-03T09:15:34.000Z</time>
      </trkpt>
      <trkpt lat="44.55126" lon="4.24729">
        <ele>360</ele>
        <time>2018-06-03T09:15:35.000Z</time>
      </trkpt>
      <trkpt lat="44.55126" lon="4.24738">
        <ele>360</ele>
        <time>2018-06-03T09:15:36.000Z</time>
      </trkpt>
      <trkpt lat="44.55127" lon="4.24746">
        <ele>360</ele>
        <time>2018-06-03T09:15:37.000Z</time>
      </trkpt>
      <trkpt lat="44.55129" lon="4.24755">
        <ele>359</ele>
        <time>2018-06-03T09:15:38.000Z</time>
      </trkpt>
      <trkpt lat="44.55131" lon="4.24764">
        <ele>359</ele>
        <time>2018-06-03T09:15:39.000Z</time>
      </trkpt>
      <trkpt lat="44.55134" lon="4.24773">
        <ele>359</ele>
        <time>2018-06-03T09:15:40.000Z</time>
      </trkpt>
      <trkpt lat="44.55136" lon="4.24781">
        <ele>359</ele>
        <time>2018-06-03T09:15:41.000Z</time>
      </trkpt>
      <trkpt lat="44.55139" lon="4.24788">
        <ele>359</ele>
        <time>2018-06-03T09:15:42.000Z</time>
      </trkpt>
      <trkpt lat="44.55142" lon="4.24796">
        <ele>359</ele>
        <time>2018-06-03T09:15:43.000Z</time>
      </trkpt>
      <trkpt lat="44.55146" lon="4.24803">
        <ele>359</ele>
        <time>2018-06-03T09:15:44.000Z</time>
      </trkpt>
      <trkpt lat="44.55149" lon="4.24809">
        <ele>360</ele>
        <time>2018-06-03T09:15:45.000Z</time>
      </trkpt>
      <trkpt lat="44.55152" lon="4.24816">
        <ele>360</ele>
        <time>2018-06-03T09:15:46.000Z</time>
      </trkpt>
      <trkpt lat="44.55155" lon="4.24824">
        <ele>361</ele>
        <time>2018-06-03T09:15:47.000Z</time>
      </trkpt>
      <trkpt lat="44.55157" lon="4.24832">
        <ele>362</ele>
        <time>2018-06-03T09:15:48.000Z</time>
      </trkpt>
      <trkpt lat="44.55159" lon="4.24841">
        <ele>359</ele>
        <time>2018-06-03T09:15:49.000Z</time>
      </trkpt>
      <trkpt lat="44.5516" lon="4.2485">
        <ele>357</ele>
        <time>2018-06-03T09:15:50.000Z</time>
      </trkpt>
      <trkpt lat="44.5516" lon="4.2486">
        <ele>355</ele>
        <time>2018-06-03T09:15:51.000Z</time>
      </trkpt>
      <trkpt lat="44.55161" lon="4.2487">
        <ele>354</ele>
        <time>2018-06-03T09:15:52.000Z</time>
      </trkpt>
      <trkpt lat="44.55161" lon="4.2488">
        <ele>353</ele>
        <time>2018-06-03T09:15:53.000Z</time>
      </trkpt>
      <trkpt lat="44.55161" lon="4.2489">
        <ele>353</ele>
        <time>2018-06-03T09:15:54.000Z</time>
      </trkpt>
      <trkpt lat="44.55162" lon="4.24901">
        <ele>353</ele>
        <time>2018-06-03T09:15:55.000Z</time>
      </trkpt>
      <trkpt lat="44.55163" lon="4.24912">
        <ele>353</ele>
        <time>2018-06-03T09:15:56.000Z</time>
      </trkpt>
      <trkpt lat="44.55163" lon="4.24923">
        <ele>352</ele>
        <time>2018-06-03T09:15:57.000Z</time>
      </trkpt>
      <trkpt lat="44.55162" lon="4.24933">
        <ele>351</ele>
        <time>2018-06-03T09:15:58.000Z</time>
      </trkpt>
      <trkpt lat="44.5516" lon="4.24943">
        <ele>350</ele>
        <time>2018-06-03T09:15:59.000Z</time>
      </trkpt>
      <trkpt lat="44.55157" lon="4.24953">
        <ele>350</ele>
        <time>2018-06-03T09:16:00.000Z</time>
      </trkpt>
      <trkpt lat="44.55155" lon="4.24963">
        <ele>350</ele>
        <time>2018-06-03T09:16:01.000Z</time>
      </trkpt>
      <trkpt lat="44.55153" lon="4.24974">
        <ele>350</ele>
        <time>2018-06-03T09:16:02.000Z</time>
      </trkpt>
      <trkpt lat="44.55151" lon="4.24984">
        <ele>350</ele>
        <time>2018-06-03T09:16:03.000Z</time>
      </trkpt>
      <trkpt lat="44.55149" lon="4.24995">
        <ele>350</ele>
        <time>2018-06-03T09:16:04.000Z</time>
      </trkpt>
      <trkpt lat="44.55145" lon="4.25004">
        <ele>350</ele>
        <time>2018-06-03T09:16:05.000Z</time>
      </trkpt>
      <trkpt lat="44.55142" lon="4.25015">
        <ele>349</ele>
        <time>2018-06-03T09:16:06.000Z</time>
      </trkpt>
      <trkpt lat="44.55141" lon="4.25025">
        <ele>348</ele>
        <time>2018-06-03T09:16:07.000Z</time>
      </trkpt>
      <trkpt lat="44.55139" lon="4.25036">
        <ele>348</ele>
        <time>2018-06-03T09:16:08.000Z</time>
      </trkpt>
      <trkpt lat="44.55138" lon="4.25047">
        <ele>348</ele>
        <time>2018-06-03T09:16:09.000Z</time>
      </trkpt>
      <trkpt lat="44.55136" lon="4.25056">
        <ele>348</ele>
        <time>2018-06-03T09:16:10.000Z</time>
      </trkpt>
      <trkpt lat="44.55135" lon="4.25067">
        <ele>347</ele>
        <time>2018-06-03T09:16:11.000Z</time>
      </trkpt>
      <trkpt lat="44.55135" lon="4.25076">
        <ele>347</ele>
        <time>2018-06-03T09:16:12.000Z</time>
      </trkpt>
      <trkpt lat="44.55134" lon="4.25086">
        <ele>344</ele>
        <time>2018-06-03T09:16:13.000Z</time>
      </trkpt>
      <trkpt lat="44.55134" lon="4.25096">
        <ele>344</ele>
        <time>2018-06-03T09:16:14.000Z</time>
      </trkpt>
      <trkpt lat="44.55135" lon="4.25106">
        <ele>343</ele>
        <time>2018-06-03T09:16:15.000Z</time>
      </trkpt>
      <trkpt lat="44.55137" lon="4.25116">
        <ele>342</ele>
        <time>2018-06-03T09:16:16.000Z</time>
      </trkpt>
      <trkpt lat="44.5514" lon="4.25126">
        <ele>342</ele>
        <time>2018-06-03T09:16:17.000Z</time>
      </trkpt>
      <trkpt lat="44.55143" lon="4.25135">
        <ele>341</ele>
        <time>2018-06-03T09:16:18.000Z</time>
      </trkpt>
      <trkpt lat="44.55147" lon="4.25143">
        <ele>341</ele>
        <time>2018-06-03T09:16:19.000Z</time>
      </trkpt>
      <trkpt lat="44.55152" lon="4.25152">
        <ele>341</ele>
        <time>2018-06-03T09:16:20.000Z</time>
      </trkpt>
      <trkpt lat="44.55158" lon="4.2516">
        <ele>340</ele>
        <time>2018-06-03T09:16:21.000Z</time>
      </trkpt>
      <trkpt lat="44.55164" lon="4.25164">
        <ele>340</ele>
        <time>2018-06-03T09:16:22.000Z</time>
      </trkpt>
      <trkpt lat="44.55171" lon="4.25167">
        <ele>341</ele>
        <time>2018-06-03T09:16:23.000Z</time>
      </trkpt>
      <trkpt lat="44.55178" lon="4.25168">
        <ele>343</ele>
        <time>2018-06-03T09:16:24.000Z</time>
      </trkpt>
      <trkpt lat="44.55186" lon="4.25166">
        <ele>345</ele>
        <time>2018-06-03T09:16:25.000Z</time>
      </trkpt>
      <trkpt lat="44.55193" lon="4.25165">
        <ele>346</ele>
        <time>2018-06-03T09:16:26.000Z</time>
      </trkpt>
      <trkpt lat="44.552" lon="4.25166">
        <ele>346</ele>
        <time>2018-06-03T09:16:27.000Z</time>
      </trkpt>
      <trkpt lat="44.55206" lon="4.25169">
        <ele>347</ele>
        <time>2018-06-03T09:16:28.000Z</time>
      </trkpt>
      <trkpt lat="44.5521" lon="4.25173">
        <ele>347</ele>
        <time>2018-06-03T09:16:29.000Z</time>
      </trkpt>
      <trkpt lat="44.55213" lon="4.25179">
        <ele>348</ele>
        <time>2018-06-03T09:16:30.000Z</time>
      </trkpt>
      <trkpt lat="44.55214" lon="4.25185">
        <ele>348</ele>
        <time>2018-06-03T09:16:31.000Z</time>
      </trkpt>
      <trkpt lat="44.55213" lon="4.25191">
        <ele>349</ele>
        <time>2018-06-03T09:16:32.000Z</time>
      </trkpt>
      <trkpt lat="44.5521" lon="4.25196">
        <ele>349</ele>
        <time>2018-06-03T09:16:33.000Z</time>
      </trkpt>
      <trkpt lat="44.55207" lon="4.25201">
        <ele>349</ele>
        <time>2018-06-03T09:16:34.000Z</time>
      </trkpt>
      <trkpt lat="44.55203" lon="4.25205">
        <ele>349</ele>
        <time>2018-06-03T09:16:35.000Z</time>
      </trkpt>
      <trkpt lat="44.552" lon="4.2521">
        <ele>349</ele>
        <time>2018-06-03T09:16:36.000Z</time>
      </trkpt>
      <trkpt lat="44.55197" lon="4.25214">
        <ele>349</ele>
        <time>2018-06-03T09:16:37.000Z</time>
      </trkpt>
      <trkpt lat="44.55193" lon="4.25217">
        <ele>349</ele>
        <time>2018-06-03T09:16:38.000Z</time>
      </trkpt>
      <trkpt lat="44.55189" lon="4.2522">
        <ele>349</ele>
        <time>2018-06-03T09:16:39.000Z</time>
      </trkpt>
      <trkpt lat="44.55185" lon="4.25222">
        <ele>349</ele>
        <time>2018-06-03T09:16:40.000Z</time>
      </trkpt>
      <trkpt lat="44.55181" lon="4.25224">
        <ele>349</ele>
        <time>2018-06-03T09:16:41.000Z</time>
      </trkpt>
      <trkpt lat="44.55177" lon="4.25225">
        <ele>349</ele>
        <time>2018-06-03T09:16:42.000Z</time>
      </trkpt>
      <trkpt lat="44.55173" lon="4.25226">
        <ele>349</ele>
        <time>2018-06-03T09:16:43.000Z</time>
      </trkpt>
      <trkpt lat="44.55169" lon="4.25226">
        <ele>349</ele>
        <time>2018-06-03T09:16:44.000Z</time>
      </trkpt>
      <trkpt lat="44.55165" lon="4.25226">
        <ele>342</ele>
        <time>2018-06-03T09:16:45.000Z</time>
      </trkpt>
      <trkpt lat="44.55162" lon="4.25226">
        <ele>342</ele>
        <time>2018-06-03T09:16:46.000Z</time>
      </trkpt>
      <trkpt lat="44.55162" lon="4.25226">
        <ele>342</ele>
        <time>2018-06-03T09:16:47.000Z</time>
      </trkpt>
      <trkpt lat="44.55159" lon="4.25225">
        <ele>342</ele>
        <time>2018-06-03T09:16:48.000Z</time>
      </trkpt>
      <trkpt lat="44.55153" lon="4.25223">
        <ele>341</ele>
        <time>2018-06-03T09:16:49.000Z</time>
      </trkpt>
      <trkpt lat="44.5515" lon="4.25222">
        <ele>341</ele>
        <time>2018-06-03T09:16:50.000Z</time>
      </trkpt>
      <trkpt lat="44.55147" lon="4.25222">
        <ele>340</ele>
        <time>2018-06-03T09:16:51.000Z</time>
      </trkpt>
      <trkpt lat="44.55146" lon="4.25222">
        <ele>340</ele>
        <time>2018-06-03T09:16:52.000Z</time>
      </trkpt>
      <trkpt lat="44.55145" lon="4.25222">
        <ele>340</ele>
        <time>2018-06-03T09:16:53.000Z</time>
      </trkpt>
      <trkpt lat="44.55144" lon="4.25223">
        <ele>340</ele>
        <time>2018-06-03T09:16:54.000Z</time>
      </trkpt>
      <trkpt lat="44.55142" lon="4.25225">
        <ele>340</ele>
        <time>2018-06-03T09:16:55.000Z</time>
      </trkpt>
      <trkpt lat="44.55141" lon="4.25227">
        <ele>340</ele>
        <time>2018-06-03T09:16:56.000Z</time>
      </trkpt>
      <trkpt lat="44.55139" lon="4.25229">
        <ele>340</ele>
        <time>2018-06-03T09:16:57.000Z</time>
      </trkpt>
      <trkpt lat="44.55137" lon="4.25231">
        <ele>340</ele>
        <time>2018-06-03T09:16:58.000Z</time>
      </trkpt>
      <trkpt lat="44.55135" lon="4.25233">
        <ele>340</ele>
        <time>2018-06-03T09:16:59.000Z</time>
      </trkpt>
      <trkpt lat="44.55133" lon="4.25236">
        <ele>340</ele>
        <time>2018-06-03T09:17:00.000Z</time>
      </trkpt>
      <trkpt lat="44.55131" lon="4.25238">
        <ele>339</ele>
        <time>2018-06-03T09:17:01.000Z</time>
      </trkpt>
      <trkpt lat="44.5513" lon="4.25241">
        <ele>339</ele>
        <time>2018-06-03T09:17:02.000Z</time>
      </trkpt>
      <trkpt lat="44.55129" lon="4.25243">
        <ele>339</ele>
        <time>2018-06-03T09:17:03.000Z</time>
      </trkpt>
      <trkpt lat="44.55128" lon="4.25246">
        <ele>339</ele>
        <time>2018-06-03T09:17:04.000Z</time>
      </trkpt>
      <trkpt lat="44.55127" lon="4.25249">
        <ele>339</ele>
        <time>2018-06-03T09:17:05.000Z</time>
      </trkpt>
      <trkpt lat="44.55126" lon="4.25252">
        <ele>342</ele>
        <time>2018-06-03T09:17:06.000Z</time>
      </trkpt>
      <trkpt lat="44.55125" lon="4.25254">
        <ele>342</ele>
        <time>2018-06-03T09:17:07.000Z</time>
      </trkpt>
      <trkpt lat="44.55124" lon="4.25257">
        <ele>342</ele>
        <time>2018-06-03T09:17:08.000Z</time>
      </trkpt>
      <trkpt lat="44.55123" lon="4.2526">
        <ele>342</ele>
        <time>2018-06-03T09:17:09.000Z</time>
      </trkpt>
      <trkpt lat="44.55122" lon="4.25263">
        <ele>342</ele>
        <time>2018-06-03T09:17:10.000Z</time>
      </trkpt>
      <trkpt lat="44.55122" lon="4.25267">
        <ele>342</ele>
        <time>2018-06-03T09:17:11.000Z</time>
      </trkpt>
      <trkpt lat="44.55121" lon="4.2527">
        <ele>342</ele>
        <time>2018-06-03T09:17:12.000Z</time>
      </trkpt>
      <trkpt lat="44.55121" lon="4.25274">
        <ele>342</ele>
        <time>2018-06-03T09:17:13.000Z</time>
      </trkpt>
      <trkpt lat="44.55121" lon="4.25277">
        <ele>342</ele>
        <time>2018-06-03T09:17:14.000Z</time>
      </trkpt>
      <trkpt lat="44.55121" lon="4.25281">
        <ele>343</ele>
        <time>2018-06-03T09:17:15.000Z</time>
      </trkpt>
      <trkpt lat="44.55121" lon="4.25284">
        <ele>343</ele>
        <time>2018-06-03T09:17:16.000Z</time>
      </trkpt>
      <trkpt lat="44.55121" lon="4.25286">
        <ele>343</ele>
        <time>2018-06-03T09:17:17.000Z</time>
      </trkpt>
      <trkpt lat="44.55123" lon="4.25287">
        <ele>343</ele>
        <time>2018-06-03T09:17:18.000Z</time>
      </trkpt>
      <trkpt lat="44.55123" lon="4.25286">
        <ele>343</ele>
        <time>2018-06-03T09:17:19.000Z</time>
      </trkpt>
      <trkpt lat="44.55123" lon="4.25285">
        <ele>343</ele>
        <time>2018-06-03T09:17:20.000Z</time>
      </trkpt>
      <trkpt lat="44.55123" lon="4.25282">
        <ele>343</ele>
        <time>2018-06-03T09:17:21.000Z</time>
      </trkpt>
      <trkpt lat="44.55122" lon="4.25278">
        <ele>343</ele>
        <time>2018-06-03T09:17:22.000Z</time>
      </trkpt>
      <trkpt lat="44.55122" lon="4.25275">
        <ele>342</ele>
        <time>2018-06-03T09:17:23.000Z</time>
      </trkpt>
      <trkpt lat="44.55121" lon="4.2527">
        <ele>342</ele>
        <time>2018-06-03T09:17:24.000Z</time>
      </trkpt>
      <trkpt lat="44.55121" lon="4.25266">
        <ele>342</ele>
        <time>2018-06-03T09:17:25.000Z</time>
      </trkpt>
      <trkpt lat="44.5512" lon="4.25261">
        <ele>342</ele>
        <time>2018-06-03T09:17:26.000Z</time>
      </trkpt>
      <trkpt lat="44.5512" lon="4.25256">
        <ele>341</ele>
        <time>2018-06-03T09:17:27.000Z</time>
      </trkpt>
      <trkpt lat="44.5512" lon="4.2525">
        <ele>341</ele>
        <time>2018-06-03T09:17:28.000Z</time>
      </trkpt>
      <trkpt lat="44.5512" lon="4.25244">
        <ele>338</ele>
        <time>2018-06-03T09:17:29.000Z</time>
      </trkpt>
      <trkpt lat="44.55122" lon="4.25239">
        <ele>338</ele>
        <time>2018-06-03T09:17:30.000Z</time>
      </trkpt>
      <trkpt lat="44.55124" lon="4.25234">
        <ele>338</ele>
        <time>2018-06-03T09:17:31.000Z</time>
      </trkpt>
      <trkpt lat="44.55128" lon="4.25229">
        <ele>339</ele>
        <time>2018-06-03T09:17:32.000Z</time>
      </trkpt>
      <trkpt lat="44.55132" lon="4.25225">
        <ele>339</ele>
        <time>2018-06-03T09:17:33.000Z</time>
      </trkpt>
      <trkpt lat="44.55136" lon="4.25222">
        <ele>339</ele>
        <time>2018-06-03T09:17:34.000Z</time>
      </trkpt>
      <trkpt lat="44.5514" lon="4.2522">
        <ele>340</ele>
        <time>2018-06-03T09:17:35.000Z</time>
      </trkpt>
      <trkpt lat="44.55144" lon="4.2522">
        <ele>340</ele>
        <time>2018-06-03T09:17:36.000Z</time>
      </trkpt>
      <trkpt lat="44.55149" lon="4.25221">
        <ele>340</ele>
        <time>2018-06-03T09:17:37.000Z</time>
      </trkpt>
      <trkpt lat="44.55154" lon="4.25223">
        <ele>341</ele>
        <time>2018-06-03T09:17:38.000Z</time>
      </trkpt>
      <trkpt lat="44.55159" lon="4.25224">
        <ele>341</ele>
        <time>2018-06-03T09:17:39.000Z</time>
      </trkpt>
      <trkpt lat="44.55165" lon="4.25224">
        <ele>342</ele>
        <time>2018-06-03T09:17:40.000Z</time>
      </trkpt>
      <trkpt lat="44.55171" lon="4.25223">
        <ele>349</ele>
        <time>2018-06-03T09:17:41.000Z</time>
      </trkpt>
      <trkpt lat="44.55177" lon="4.2522">
        <ele>349</ele>
        <time>2018-06-03T09:17:42.000Z</time>
      </trkpt>
      <trkpt lat="44.55182" lon="4.25217">
        <ele>349</ele>
        <time>2018-06-03T09:17:43.000Z</time>
      </trkpt>
      <trkpt lat="44.55185" lon="4.25216">
        <ele>349</ele>
        <time>2018-06-03T09:17:44.000Z</time>
      </trkpt>
      <trkpt lat="44.55187" lon="4.25216">
        <ele>349</ele>
        <time>2018-06-03T09:17:45.000Z</time>
      </trkpt>
      <trkpt lat="44.55189" lon="4.25216">
        <ele>349</ele>
        <time>2018-06-03T09:17:46.000Z</time>
      </trkpt>
      <trkpt lat="44.5519" lon="4.25215">
        <ele>349</ele>
        <time>2018-06-03T09:17:47.000Z</time>
      </trkpt>
      <trkpt lat="44.55191" lon="4.25213">
        <ele>349</ele>
        <time>2018-06-03T09:17:48.000Z</time>
      </trkpt>
      <trkpt lat="44.55191" lon="4.25212">
        <ele>349</ele>
        <time>2018-06-03T09:17:49.000Z</time>
      </trkpt>
      <trkpt lat="44.5519" lon="4.25212">
        <ele>349</ele>
        <time>2018-06-03T09:17:50.000Z</time>
      </trkpt>
      <trkpt lat="44.55189" lon="4.25214">
        <ele>349</ele>
        <time>2018-06-03T09:17:51.000Z</time>
      </trkpt>
      <trkpt lat="44.55189" lon="4.25216">
        <ele>349</ele>
        <time>2018-06-03T09:17:52.000Z</time>
      </trkpt>
      <trkpt lat="44.55189" lon="4.25218">
        <ele>349</ele>
        <time>2018-06-03T09:17:53.000Z</time>
      </trkpt>
      <trkpt lat="44.5519" lon="4.25218">
        <ele>349</ele>
        <time>2018-06-03T09:17:54.000Z</time>
      </trkpt>
      <trkpt lat="44.55191" lon="4.25218">
        <ele>349</ele>
        <time>2018-06-03T09:17:55.000Z</time>
      </trkpt>
      <trkpt lat="44.55191" lon="4.25218">
        <ele>349</ele>
        <time>2018-06-03T09:17:56.000Z</time>
      </trkpt>
      <trkpt lat="44.55191" lon="4.25218">
        <ele>349</ele>
        <time>2018-06-03T09:17:57.000Z</time>
      </trkpt>
      <trkpt lat="44.55191" lon="4.25219">
        <ele>349</ele>
        <time>2018-06-03T09:17:58.000Z</time>
      </trkpt>
      <trkpt lat="44.55191" lon="4.25219">
        <ele>349</ele>
        <time>2018-06-03T09:17:59.000Z</time>
      </trkpt>
      <trkpt lat="44.55191" lon="4.25219">
        <ele>349</ele>
        <time>2018-06-03T09:18:00.000Z</time>
      </trkpt>
      <trkpt lat="44.55191" lon="4.25219">
        <ele>349</ele>
        <time>2018-06-03T09:18:01.000Z</time>
      </trkpt>
      <trkpt lat="44.55192" lon="4.25219">
        <ele>349</ele>
        <time>2018-06-03T09:18:02.000Z</time>
      </trkpt>
      <trkpt lat="44.55192" lon="4.25219">
        <ele>349</ele>
        <time>2018-06-03T09:18:03.000Z</time>
      </trkpt>
      <trkpt lat="44.55192" lon="4.25219">
        <ele>349</ele>
        <time>2018-06-03T09:18:04.000Z</time>
      </trkpt>
      <trkpt lat="44.55193" lon="4.25219">
        <ele>349</ele>
        <time>2018-06-03T09:18:05.000Z</time>
      </trkpt>
      <trkpt lat="44.55195" lon="4.25219">
        <ele>350</ele>
        <time>2018-06-03T09:18:06.000Z</time>
      </trkpt>
      <trkpt lat="44.55198" lon="4.25219">
        <ele>350</ele>
        <time>2018-06-03T09:18:07.000Z</time>
      </trkpt>
      <trkpt lat="44.552" lon="4.25217">
        <ele>350</ele>
        <time>2018-06-03T09:18:08.000Z</time>
      </trkpt>
      <trkpt lat="44.55202" lon="4.25215">
        <ele>350</ele>
        <time>2018-06-03T09:18:09.000Z</time>
      </trkpt>
      <trkpt lat="44.55204" lon="4.25213">
        <ele>350</ele>
        <time>2018-06-03T09:18:10.000Z</time>
      </trkpt>
      <trkpt lat="44.55204" lon="4.25213">
        <ele>350</ele>
        <time>2018-06-03T09:18:11.000Z</time>
      </trkpt>
      <trkpt lat="44.55206" lon="4.25211">
        <ele>350</ele>
        <time>2018-06-03T09:18:12.000Z</time>
      </trkpt>
      <trkpt lat="44.5521" lon="4.25206">
        <ele>350</ele>
        <time>2018-06-03T09:18:13.000Z</time>
      </trkpt>
      <trkpt lat="44.55211" lon="4.25204">
        <ele>350</ele>
        <time>2018-06-03T09:18:14.000Z</time>
      </trkpt>
      <trkpt lat="44.55213" lon="4.25201">
        <ele>349</ele>
        <time>2018-06-03T09:18:15.000Z</time>
      </trkpt>
      <trkpt lat="44.55215" lon="4.25199">
        <ele>349</ele>
        <time>2018-06-03T09:18:16.000Z</time>
      </trkpt>
      <trkpt lat="44.55217" lon="4.25196">
        <ele>349</ele>
        <time>2018-06-03T09:18:17.000Z</time>
      </trkpt>
      <trkpt lat="44.55219" lon="4.25193">
        <ele>349</ele>
        <time>2018-06-03T09:18:18.000Z</time>
      </trkpt>
      <trkpt lat="44.55221" lon="4.25191">
        <ele>349</ele>
        <time>2018-06-03T09:18:19.000Z</time>
      </trkpt>
      <trkpt lat="44.55222" lon="4.25188">
        <ele>349</ele>
        <time>2018-06-03T09:18:20.000Z</time>
      </trkpt>
      <trkpt lat="44.55224" lon="4.25186">
        <ele>349</ele>
        <time>2018-06-03T09:18:21.000Z</time>
      </trkpt>
      <trkpt lat="44.55225" lon="4.25183">
        <ele>349</ele>
        <time>2018-06-03T09:18:22.000Z</time>
      </trkpt>
      <trkpt lat="44.55227" lon="4.25181">
        <ele>348</ele>
        <time>2018-06-03T09:18:23.000Z</time>
      </trkpt>
      <trkpt lat="44.55228" lon="4.25179">
        <ele>348</ele>
        <time>2018-06-03T09:18:24.000Z</time>
      </trkpt>
      <trkpt lat="44.5523" lon="4.25177">
        <ele>348</ele>
        <time>2018-06-03T09:18:25.000Z</time>
      </trkpt>
      <trkpt lat="44.55231" lon="4.25175">
        <ele>348</ele>
        <time>2018-06-03T09:18:26.000Z</time>
      </trkpt>
      <trkpt lat="44.55233" lon="4.25173">
        <ele>348</ele>
        <time>2018-06-03T09:18:27.000Z</time>
      </trkpt>
      <trkpt lat="44.55234" lon="4.25172">
        <ele>348</ele>
        <time>2018-06-03T09:18:28.000Z</time>
      </trkpt>
      <trkpt lat="44.55236" lon="4.2517">
        <ele>348</ele>
        <time>2018-06-03T09:18:29.000Z</time>
      </trkpt>
      <trkpt lat="44.55238" lon="4.25169">
        <ele>347</ele>
        <time>2018-06-03T09:18:30.000Z</time>
      </trkpt>
      <trkpt lat="44.5524" lon="4.25167">
        <ele>347</ele>
        <time>2018-06-03T09:18:31.000Z</time>
      </trkpt>
      <trkpt lat="44.55242" lon="4.25166">
        <ele>347</ele>
        <time>2018-06-03T09:18:32.000Z</time>
      </trkpt>
      <trkpt lat="44.55244" lon="4.25165">
        <ele>347</ele>
        <time>2018-06-03T09:18:33.000Z</time>
      </trkpt>
      <trkpt lat="44.55246" lon="4.25164">
        <ele>347</ele>
        <time>2018-06-03T09:18:34.000Z</time>
      </trkpt>
      <trkpt lat="44.55248" lon="4.25163">
        <ele>347</ele>
        <time>2018-06-03T09:18:35.000Z</time>
      </trkpt>
      <trkpt lat="44.5525" lon="4.25161">
        <ele>347</ele>
        <time>2018-06-03T09:18:36.000Z</time>
      </trkpt>
      <trkpt lat="44.55252" lon="4.2516">
        <ele>349</ele>
        <time>2018-06-03T09:18:37.000Z</time>
      </trkpt>
      <trkpt lat="44.55254" lon="4.25159">
        <ele>349</ele>
        <time>2018-06-03T09:18:38.000Z</time>
      </trkpt>
      <trkpt lat="44.55256" lon="4.25158">
        <ele>350</ele>
        <time>2018-06-03T09:18:39.000Z</time>
      </trkpt>
      <trkpt lat="44.55258" lon="4.25157">
        <ele>350</ele>
        <time>2018-06-03T09:18:40.000Z</time>
      </trkpt>
      <trkpt lat="44.5526" lon="4.25156">
        <ele>351</ele>
        <time>2018-06-03T09:18:41.000Z</time>
      </trkpt>
      <trkpt lat="44.55262" lon="4.25154">
        <ele>351</ele>
        <time>2018-06-03T09:18:42.000Z</time>
      </trkpt>
      <trkpt lat="44.55264" lon="4.25153">
        <ele>352</ele>
        <time>2018-06-03T09:18:43.000Z</time>
      </trkpt>
      <trkpt lat="44.55266" lon="4.25152">
        <ele>352</ele>
        <time>2018-06-03T09:18:44.000Z</time>
      </trkpt>
      <trkpt lat="44.55268" lon="4.25152">
        <ele>352</ele>
        <time>2018-06-03T09:18:45.000Z</time>
      </trkpt>
      <trkpt lat="44.5527" lon="4.25152">
        <ele>353</ele>
        <time>2018-06-03T09:18:46.000Z</time>
      </trkpt>
      <trkpt lat="44.55272" lon="4.25153">
        <ele>353</ele>
        <time>2018-06-03T09:18:47.000Z</time>
      </trkpt>
      <trkpt lat="44.55275" lon="4.25154">
        <ele>353</ele>
        <time>2018-06-03T09:18:48.000Z</time>
      </trkpt>
      <trkpt lat="44.55277" lon="4.25154">
        <ele>353</ele>
        <time>2018-06-03T09:18:49.000Z</time>
      </trkpt>
      <trkpt lat="44.55279" lon="4.25155">
        <ele>354</ele>
        <time>2018-06-03T09:18:50.000Z</time>
      </trkpt>
      <trkpt lat="44.55282" lon="4.25156">
        <ele>354</ele>
        <time>2018-06-03T09:18:51.000Z</time>
      </trkpt>
      <trkpt lat="44.55284" lon="4.25157">
        <ele>354</ele>
        <time>2018-06-03T09:18:52.000Z</time>
      </trkpt>
      <trkpt lat="44.55284" lon="4.25157">
        <ele>354</ele>
        <time>2018-06-03T09:18:53.000Z</time>
      </trkpt>
      <trkpt lat="44.55288" lon="4.25159">
        <ele>354</ele>
        <time>2018-06-03T09:18:54.000Z</time>
      </trkpt>
      <trkpt lat="44.5529" lon="4.2516">
        <ele>354</ele>
        <time>2018-06-03T09:18:55.000Z</time>
      </trkpt>
      <trkpt lat="44.55292" lon="4.25162">
        <ele>355</ele>
        <time>2018-06-03T09:18:56.000Z</time>
      </trkpt>
      <trkpt lat="44.55294" lon="4.25163">
        <ele>355</ele>
        <time>2018-06-03T09:18:57.000Z</time>
      </trkpt>
      <trkpt lat="44.55296" lon="4.25165">
        <ele>355</ele>
        <time>2018-06-03T09:18:58.000Z</time>
      </trkpt>
      <trkpt lat="44.55297" lon="4.25166">
        <ele>355</ele>
        <time>2018-06-03T09:18:59.000Z</time>
      </trkpt>
      <trkpt lat="44.55299" lon="4.25167">
        <ele>357</ele>
        <time>2018-06-03T09:19:00.000Z</time>
      </trkpt>
      <trkpt lat="44.55301" lon="4.25169">
        <ele>357</ele>
        <time>2018-06-03T09:19:01.000Z</time>
      </trkpt>
      <trkpt lat="44.55303" lon="4.25171">
        <ele>357</ele>
        <time>2018-06-03T09:19:02.000Z</time>
      </trkpt>
      <trkpt lat="44.55305" lon="4.25174">
        <ele>357</ele>
        <time>2018-06-03T09:19:03.000Z</time>
      </trkpt>
      <trkpt lat="44.55308" lon="4.25176">
        <ele>357</ele>
        <time>2018-06-03T09:19:04.000Z</time>
      </trkpt>
      <trkpt lat="44.55309" lon="4.25179">
        <ele>358</ele>
        <time>2018-06-03T09:19:05.000Z</time>
      </trkpt>
      <trkpt lat="44.55312" lon="4.25181">
        <ele>358</ele>
        <time>2018-06-03T09:19:06.000Z</time>
      </trkpt>
      <trkpt lat="44.55314" lon="4.25183">
        <ele>358</ele>
        <time>2018-06-03T09:19:07.000Z</time>
      </trkpt>
      <trkpt lat="44.55317" lon="4.25183">
        <ele>358</ele>
        <time>2018-06-03T09:19:08.000Z</time>
      </trkpt>
      <trkpt lat="44.5532" lon="4.25183">
        <ele>358</ele>
        <time>2018-06-03T09:19:09.000Z</time>
      </trkpt>
      <trkpt lat="44.55323" lon="4.25183">
        <ele>358</ele>
        <time>2018-06-03T09:19:10.000Z</time>
      </trkpt>
      <trkpt lat="44.55325" lon="4.25181">
        <ele>358</ele>
        <time>2018-06-03T09:19:11.000Z</time>
      </trkpt>
      <trkpt lat="44.55326" lon="4.25179">
        <ele>358</ele>
        <time>2018-06-03T09:19:12.000Z</time>
      </trkpt>
      <trkpt lat="44.55328" lon="4.25176">
        <ele>358</ele>
        <time>2018-06-03T09:19:13.000Z</time>
      </trkpt>
      <trkpt lat="44.55329" lon="4.25173">
        <ele>357</ele>
        <time>2018-06-03T09:19:14.000Z</time>
      </trkpt>
      <trkpt lat="44.5533" lon="4.2517">
        <ele>357</ele>
        <time>2018-06-03T09:19:15.000Z</time>
      </trkpt>
      <trkpt lat="44.55332" lon="4.25168">
        <ele>357</ele>
        <time>2018-06-03T09:19:16.000Z</time>
      </trkpt>
      <trkpt lat="44.55334" lon="4.25166">
        <ele>357</ele>
        <time>2018-06-03T09:19:17.000Z</time>
      </trkpt>
      <trkpt lat="44.55336" lon="4.25165">
        <ele>358</ele>
        <time>2018-06-03T09:19:18.000Z</time>
      </trkpt>
      <trkpt lat="44.55337" lon="4.25163">
        <ele>358</ele>
        <time>2018-06-03T09:19:19.000Z</time>
      </trkpt>
      <trkpt lat="44.5534" lon="4.25161">
        <ele>359</ele>
        <time>2018-06-03T09:19:20.000Z</time>
      </trkpt>
      <trkpt lat="44.55342" lon="4.25159">
        <ele>359</ele>
        <time>2018-06-03T09:19:21.000Z</time>
      </trkpt>
      <trkpt lat="44.55345" lon="4.25157">
        <ele>360</ele>
        <time>2018-06-03T09:19:22.000Z</time>
      </trkpt>
      <trkpt lat="44.55347" lon="4.25155">
        <ele>360</ele>
        <time>2018-06-03T09:19:23.000Z</time>
      </trkpt>
      <trkpt lat="44.5535" lon="4.25153">
        <ele>361</ele>
        <time>2018-06-03T09:19:24.000Z</time>
      </trkpt>
      <trkpt lat="44.55353" lon="4.25151">
        <ele>361</ele>
        <time>2018-06-03T09:19:25.000Z</time>
      </trkpt>
      <trkpt lat="44.55355" lon="4.25149">
        <ele>361</ele>
        <time>2018-06-03T09:19:26.000Z</time>
      </trkpt>
      <trkpt lat="44.55358" lon="4.25147">
        <ele>361</ele>
        <time>2018-06-03T09:19:27.000Z</time>
      </trkpt>
      <trkpt lat="44.55361" lon="4.25145">
        <ele>362</ele>
        <time>2018-06-03T09:19:28.000Z</time>
      </trkpt>
      <trkpt lat="44.55364" lon="4.25143">
        <ele>362</ele>
        <time>2018-06-03T09:19:29.000Z</time>
      </trkpt>
      <trkpt lat="44.55367" lon="4.25142">
        <ele>362</ele>
        <time>2018-06-03T09:19:30.000Z</time>
      </trkpt>
      <trkpt lat="44.5537" lon="4.2514">
        <ele>362</ele>
        <time>2018-06-03T09:19:31.000Z</time>
      </trkpt>
      <trkpt lat="44.55372" lon="4.25139">
        <ele>362</ele>
        <time>2018-06-03T09:19:32.000Z</time>
      </trkpt>
      <trkpt lat="44.55375" lon="4.25137">
        <ele>363</ele>
        <time>2018-06-03T09:19:33.000Z</time>
      </trkpt>
      <trkpt lat="44.55378" lon="4.25136">
        <ele>363</ele>
        <time>2018-06-03T09:19:34.000Z</time>
      </trkpt>
      <trkpt lat="44.55381" lon="4.25135">
        <ele>363</ele>
        <time>2018-06-03T09:19:35.000Z</time>
      </trkpt>
      <trkpt lat="44.55385" lon="4.25133">
        <ele>363</ele>
        <time>2018-06-03T09:19:36.000Z</time>
      </trkpt>
      <trkpt lat="44.55388" lon="4.25132">
        <ele>363</ele>
        <time>2018-06-03T09:19:37.000Z</time>
      </trkpt>
      <trkpt lat="44.55392" lon="4.25131">
        <ele>363</ele>
        <time>2018-06-03T09:19:38.000Z</time>
      </trkpt>
      <trkpt lat="44.55396" lon="4.2513">
        <ele>363</ele>
        <time>2018-06-03T09:19:39.000Z</time>
      </trkpt>
      <trkpt lat="44.554" lon="4.2513">
        <ele>364</ele>
        <time>2018-06-03T09:19:40.000Z</time>
      </trkpt>
      <trkpt lat="44.55404" lon="4.2513">
        <ele>364</ele>
        <time>2018-06-03T09:19:41.000Z</time>
      </trkpt>
      <trkpt lat="44.55408" lon="4.25129">
        <ele>364</ele>
        <time>2018-06-03T09:19:42.000Z</time>
      </trkpt>
      <trkpt lat="44.55412" lon="4.25129">
        <ele>364</ele>
        <time>2018-06-03T09:19:43.000Z</time>
      </trkpt>
      <trkpt lat="44.55416" lon="4.25128">
        <ele>364</ele>
        <time>2018-06-03T09:19:44.000Z</time>
      </trkpt>
      <trkpt lat="44.5542" lon="4.25127">
        <ele>369</ele>
        <time>2018-06-03T09:19:45.000Z</time>
      </trkpt>
      <trkpt lat="44.55424" lon="4.25126">
        <ele>368</ele>
        <time>2018-06-03T09:19:46.000Z</time>
      </trkpt>
      <trkpt lat="44.55428" lon="4.25122">
        <ele>368</ele>
        <time>2018-06-03T09:19:47.000Z</time>
      </trkpt>
      <trkpt lat="44.5543" lon="4.25119">
        <ele>368</ele>
        <time>2018-06-03T09:19:48.000Z</time>
      </trkpt>
      <trkpt lat="44.55431" lon="4.25115">
        <ele>368</ele>
        <time>2018-06-03T09:19:49.000Z</time>
      </trkpt>
      <trkpt lat="44.5543" lon="4.2511">
        <ele>367</ele>
        <time>2018-06-03T09:19:50.000Z</time>
      </trkpt>
      <trkpt lat="44.55428" lon="4.25106">
        <ele>367</ele>
        <time>2018-06-03T09:19:51.000Z</time>
      </trkpt>
      <trkpt lat="44.55425" lon="4.25105">
        <ele>366</ele>
        <time>2018-06-03T09:19:52.000Z</time>
      </trkpt>
      <trkpt lat="44.55421" lon="4.25105">
        <ele>366</ele>
        <time>2018-06-03T09:19:53.000Z</time>
      </trkpt>
      <trkpt lat="44.55417" lon="4.25106">
        <ele>366</ele>
        <time>2018-06-03T09:19:54.000Z</time>
      </trkpt>
      <trkpt lat="44.55414" lon="4.25106">
        <ele>362</ele>
        <time>2018-06-03T09:19:55.000Z</time>
      </trkpt>
      <trkpt lat="44.55411" lon="4.25105">
        <ele>362</ele>
        <time>2018-06-03T09:19:56.000Z</time>
      </trkpt>
      <trkpt lat="44.55407" lon="4.25103">
        <ele>362</ele>
        <time>2018-06-03T09:19:57.000Z</time>
      </trkpt>
      <trkpt lat="44.55405" lon="4.25102">
        <ele>362</ele>
        <time>2018-06-03T09:19:58.000Z</time>
      </trkpt>
      <trkpt lat="44.55402" lon="4.251">
        <ele>362</ele>
        <time>2018-06-03T09:19:59.000Z</time>
      </trkpt>
      <trkpt lat="44.55399" lon="4.25099">
        <ele>362</ele>
        <time>2018-06-03T09:20:00.000Z</time>
      </trkpt>
      <trkpt lat="44.55397" lon="4.25098">
        <ele>362</ele>
        <time>2018-06-03T09:20:01.000Z</time>
      </trkpt>
      <trkpt lat="44.55395" lon="4.25098">
        <ele>362</ele>
        <time>2018-06-03T09:20:02.000Z</time>
      </trkpt>
      <trkpt lat="44.55393" lon="4.25098">
        <ele>362</ele>
        <time>2018-06-03T09:20:03.000Z</time>
      </trkpt>
      <trkpt lat="44.55391" lon="4.25097">
        <ele>362</ele>
        <time>2018-06-03T09:20:04.000Z</time>
      </trkpt>
      <trkpt lat="44.55388" lon="4.25097">
        <ele>362</ele>
        <time>2018-06-03T09:20:05.000Z</time>
      </trkpt>
      <trkpt lat="44.55386" lon="4.25097">
        <ele>362</ele>
        <time>2018-06-03T09:20:06.000Z</time>
      </trkpt>
      <trkpt lat="44.55384" lon="4.25097">
        <ele>362</ele>
        <time>2018-06-03T09:20:07.000Z</time>
      </trkpt>
      <trkpt lat="44.55381" lon="4.25097">
        <ele>362</ele>
        <time>2018-06-03T09:20:08.000Z</time>
      </trkpt>
      <trkpt lat="44.55379" lon="4.25097">
        <ele>362</ele>
        <time>2018-06-03T09:20:09.000Z</time>
      </trkpt>
      <trkpt lat="44.55376" lon="4.25096">
        <ele>362</ele>
        <time>2018-06-03T09:20:10.000Z</time>
      </trkpt>
      <trkpt lat="44.55374" lon="4.25097">
        <ele>362</ele>
        <time>2018-06-03T09:20:11.000Z</time>
      </trkpt>
      <trkpt lat="44.55372" lon="4.25097">
        <ele>362</ele>
        <time>2018-06-03T09:20:12.000Z</time>
      </trkpt>
      <trkpt lat="44.55369" lon="4.25097">
        <ele>362</ele>
        <time>2018-06-03T09:20:13.000Z</time>
      </trkpt>
      <trkpt lat="44.55367" lon="4.25097">
        <ele>362</ele>
        <time>2018-06-03T09:20:14.000Z</time>
      </trkpt>
      <trkpt lat="44.55365" lon="4.25097">
        <ele>362</ele>
        <time>2018-06-03T09:20:15.000Z</time>
      </trkpt>
      <trkpt lat="44.55363" lon="4.25097">
        <ele>362</ele>
        <time>2018-06-03T09:20:16.000Z</time>
      </trkpt>
      <trkpt lat="44.5536" lon="4.25097">
        <ele>362</ele>
        <time>2018-06-03T09:20:17.000Z</time>
      </trkpt>
      <trkpt lat="44.55358" lon="4.25097">
        <ele>362</ele>
        <time>2018-06-03T09:20:18.000Z</time>
      </trkpt>
      <trkpt lat="44.55355" lon="4.25096">
        <ele>362</ele>
        <time>2018-06-03T09:20:19.000Z</time>
      </trkpt>
      <trkpt lat="44.55353" lon="4.25096">
        <ele>362</ele>
        <time>2018-06-03T09:20:20.000Z</time>
      </trkpt>
      <trkpt lat="44.55351" lon="4.25096">
        <ele>362</ele>
        <time>2018-06-03T09:20:21.000Z</time>
      </trkpt>
      <trkpt lat="44.55349" lon="4.25095">
        <ele>362</ele>
        <time>2018-06-03T09:20:22.000Z</time>
      </trkpt>
      <trkpt lat="44.55347" lon="4.25095">
        <ele>362</ele>
        <time>2018-06-03T09:20:23.000Z</time>
      </trkpt>
      <trkpt lat="44.55345" lon="4.25094">
        <ele>362</ele>
        <time>2018-06-03T09:20:24.000Z</time>
      </trkpt>
      <trkpt lat="44.55343" lon="4.25093">
        <ele>362</ele>
        <time>2018-06-03T09:20:25.000Z</time>
      </trkpt>
      <trkpt lat="44.5534" lon="4.25092">
        <ele>362</ele>
        <time>2018-06-03T09:20:26.000Z</time>
      </trkpt>
      <trkpt lat="44.55339" lon="4.25091">
        <ele>362</ele>
        <time>2018-06-03T09:20:27.000Z</time>
      </trkpt>
      <trkpt lat="44.55337" lon="4.2509">
        <ele>362</ele>
        <time>2018-06-03T09:20:28.000Z</time>
      </trkpt>
      <trkpt lat="44.55335" lon="4.25089">
        <ele>362</ele>
        <time>2018-06-03T09:20:29.000Z</time>
      </trkpt>
      <trkpt lat="44.55332" lon="4.25087">
        <ele>361</ele>
        <time>2018-06-03T09:20:30.000Z</time>
      </trkpt>
      <trkpt lat="44.5533" lon="4.25087">
        <ele>361</ele>
        <time>2018-06-03T09:20:31.000Z</time>
      </trkpt>
      <trkpt lat="44.55327" lon="4.25087">
        <ele>361</ele>
        <time>2018-06-03T09:20:32.000Z</time>
      </trkpt>
      <trkpt lat="44.55325" lon="4.25088">
        <ele>360</ele>
        <time>2018-06-03T09:20:33.000Z</time>
      </trkpt>
      <trkpt lat="44.55323" lon="4.25089">
        <ele>360</ele>
        <time>2018-06-03T09:20:34.000Z</time>
      </trkpt>
      <trkpt lat="44.55321" lon="4.25089">
        <ele>360</ele>
        <time>2018-06-03T09:20:35.000Z</time>
      </trkpt>
      <trkpt lat="44.55319" lon="4.2509">
        <ele>360</ele>
        <time>2018-06-03T09:20:36.000Z</time>
      </trkpt>
      <trkpt lat="44.55317" lon="4.25089">
        <ele>359</ele>
        <time>2018-06-03T09:20:37.000Z</time>
      </trkpt>
      <trkpt lat="44.55315" lon="4.25088">
        <ele>359</ele>
        <time>2018-06-03T09:20:38.000Z</time>
      </trkpt>
      <trkpt lat="44.55312" lon="4.25087">
        <ele>359</ele>
        <time>2018-06-03T09:20:39.000Z</time>
      </trkpt>
      <trkpt lat="44.5531" lon="4.25086">
        <ele>359</ele>
        <time>2018-06-03T09:20:40.000Z</time>
      </trkpt>
      <trkpt lat="44.55308" lon="4.25085">
        <ele>359</ele>
        <time>2018-06-03T09:20:41.000Z</time>
      </trkpt>
      <trkpt lat="44.55306" lon="4.25084">
        <ele>359</ele>
        <time>2018-06-03T09:20:42.000Z</time>
      </trkpt>
      <trkpt lat="44.55304" lon="4.25083">
        <ele>367</ele>
        <time>2018-06-03T09:20:43.000Z</time>
      </trkpt>
      <trkpt lat="44.55302" lon="4.25082">
        <ele>367</ele>
        <time>2018-06-03T09:20:44.000Z</time>
      </trkpt>
      <trkpt lat="44.55299" lon="4.25082">
        <ele>367</ele>
        <time>2018-06-03T09:20:45.000Z</time>
      </trkpt>
      <trkpt lat="44.55297" lon="4.25081">
        <ele>367</ele>
        <time>2018-06-03T09:20:46.000Z</time>
      </trkpt>
      <trkpt lat="44.55295" lon="4.25081">
        <ele>367</ele>
        <time>2018-06-03T09:20:47.000Z</time>
      </trkpt>
      <trkpt lat="44.55293" lon="4.25081">
        <ele>367</ele>
        <time>2018-06-03T09:20:48.000Z</time>
      </trkpt>
      <trkpt lat="44.5529" lon="4.25081">
        <ele>367</ele>
        <time>2018-06-03T09:20:49.000Z</time>
      </trkpt>
      <trkpt lat="44.55288" lon="4.25081">
        <ele>367</ele>
        <time>2018-06-03T09:20:50.000Z</time>
      </trkpt>
      <trkpt lat="44.55286" lon="4.25081">
        <ele>367</ele>
        <time>2018-06-03T09:20:51.000Z</time>
      </trkpt>
      <trkpt lat="44.55284" lon="4.25081">
        <ele>367</ele>
        <time>2018-06-03T09:20:52.000Z</time>
      </trkpt>
      <trkpt lat="44.55281" lon="4.25081">
        <ele>367</ele>
        <time>2018-06-03T09:20:53.000Z</time>
      </trkpt>
      <trkpt lat="44.55279" lon="4.25079">
        <ele>367</ele>
        <time>2018-06-03T09:20:54.000Z</time>
      </trkpt>
      <trkpt lat="44.55278" lon="4.25076">
        <ele>367</ele>
        <time>2018-06-03T09:20:55.000Z</time>
      </trkpt>
      <trkpt lat="44.55278" lon="4.25073">
        <ele>367</ele>
        <time>2018-06-03T09:20:56.000Z</time>
      </trkpt>
      <trkpt lat="44.55278" lon="4.25071">
        <ele>367</ele>
        <time>2018-06-03T09:20:57.000Z</time>
      </trkpt>
      <trkpt lat="44.55279" lon="4.25069">
        <ele>368</ele>
        <time>2018-06-03T09:20:58.000Z</time>
      </trkpt>
      <trkpt lat="44.5528" lon="4.25068">
        <ele>368</ele>
        <time>2018-06-03T09:20:59.000Z</time>
      </trkpt>
      <trkpt lat="44.55282" lon="4.25067">
        <ele>368</ele>
        <time>2018-06-03T09:21:00.000Z</time>
      </trkpt>
      <trkpt lat="44.55284" lon="4.25067">
        <ele>368</ele>
        <time>2018-06-03T09:21:01.000Z</time>
      </trkpt>
      <trkpt lat="44.55285" lon="4.25067">
        <ele>368</ele>
        <time>2018-06-03T09:21:02.000Z</time>
      </trkpt>
      <trkpt lat="44.55287" lon="4.25067">
        <ele>368</ele>
        <time>2018-06-03T09:21:03.000Z</time>
      </trkpt>
      <trkpt lat="44.5529" lon="4.25067">
        <ele>368</ele>
        <time>2018-06-03T09:21:04.000Z</time>
      </trkpt>
      <trkpt lat="44.55292" lon="4.25066">
        <ele>368</ele>
        <time>2018-06-03T09:21:05.000Z</time>
      </trkpt>
      <trkpt lat="44.55294" lon="4.25066">
        <ele>369</ele>
        <time>2018-06-03T09:21:06.000Z</time>
      </trkpt>
      <trkpt lat="44.55296" lon="4.25065">
        <ele>369</ele>
        <time>2018-06-03T09:21:07.000Z</time>
      </trkpt>
      <trkpt lat="44.55298" lon="4.25065">
        <ele>369</ele>
        <time>2018-06-03T09:21:08.000Z</time>
      </trkpt>
      <trkpt lat="44.55301" lon="4.25064">
        <ele>369</ele>
        <time>2018-06-03T09:21:09.000Z</time>
      </trkpt>
      <trkpt lat="44.55303" lon="4.25063">
        <ele>369</ele>
        <time>2018-06-03T09:21:10.000Z</time>
      </trkpt>
      <trkpt lat="44.55306" lon="4.25063">
        <ele>369</ele>
        <time>2018-06-03T09:21:11.000Z</time>
      </trkpt>
      <trkpt lat="44.55308" lon="4.25062">
        <ele>369</ele>
        <time>2018-06-03T09:21:12.000Z</time>
      </trkpt>
      <trkpt lat="44.5531" lon="4.25061">
        <ele>369</ele>
        <time>2018-06-03T09:21:13.000Z</time>
      </trkpt>
      <trkpt lat="44.55312" lon="4.25059">
        <ele>369</ele>
        <time>2018-06-03T09:21:14.000Z</time>
      </trkpt>
      <trkpt lat="44.55315" lon="4.25058">
        <ele>369</ele>
        <time>2018-06-03T09:21:15.000Z</time>
      </trkpt>
      <trkpt lat="44.55317" lon="4.25057">
        <ele>369</ele>
        <time>2018-06-03T09:21:16.000Z</time>
      </trkpt>
      <trkpt lat="44.55319" lon="4.25056">
        <ele>369</ele>
        <time>2018-06-03T09:21:17.000Z</time>
      </trkpt>
      <trkpt lat="44.55321" lon="4.25054">
        <ele>369</ele>
        <time>2018-06-03T09:21:18.000Z</time>
      </trkpt>
      <trkpt lat="44.55322" lon="4.25051">
        <ele>370</ele>
        <time>2018-06-03T09:21:19.000Z</time>
      </trkpt>
      <trkpt lat="44.55323" lon="4.25049">
        <ele>370</ele>
        <time>2018-06-03T09:21:20.000Z</time>
      </trkpt>
      <trkpt lat="44.55325" lon="4.25046">
        <ele>371</ele>
        <time>2018-06-03T09:21:21.000Z</time>
      </trkpt>
      <trkpt lat="44.55326" lon="4.25044">
        <ele>371</ele>
        <time>2018-06-03T09:21:22.000Z</time>
      </trkpt>
      <trkpt lat="44.55327" lon="4.25042">
        <ele>371</ele>
        <time>2018-06-03T09:21:23.000Z</time>
      </trkpt>
      <trkpt lat="44.55329" lon="4.25041">
        <ele>372</ele>
        <time>2018-06-03T09:21:24.000Z</time>
      </trkpt>
      <trkpt lat="44.55332" lon="4.2504">
        <ele>372</ele>
        <time>2018-06-03T09:21:25.000Z</time>
      </trkpt>
      <trkpt lat="44.55334" lon="4.2504">
        <ele>372</ele>
        <time>2018-06-03T09:21:26.000Z</time>
      </trkpt>
      <trkpt lat="44.55336" lon="4.25041">
        <ele>371</ele>
        <time>2018-06-03T09:21:27.000Z</time>
      </trkpt>
      <trkpt lat="44.55337" lon="4.25043">
        <ele>371</ele>
        <time>2018-06-03T09:21:28.000Z</time>
      </trkpt>
      <trkpt lat="44.55339" lon="4.25044">
        <ele>371</ele>
        <time>2018-06-03T09:21:29.000Z</time>
      </trkpt>
      <trkpt lat="44.55341" lon="4.25044">
        <ele>371</ele>
        <time>2018-06-03T09:21:30.000Z</time>
      </trkpt>
      <trkpt lat="44.55343" lon="4.25044">
        <ele>371</ele>
        <time>2018-06-03T09:21:31.000Z</time>
      </trkpt>
      <trkpt lat="44.55345" lon="4.25043">
        <ele>371</ele>
        <time>2018-06-03T09:21:32.000Z</time>
      </trkpt>
      <trkpt lat="44.55348" lon="4.25044">
        <ele>371</ele>
        <time>2018-06-03T09:21:33.000Z</time>
      </trkpt>
      <trkpt lat="44.5535" lon="4.25043">
        <ele>371</ele>
        <time>2018-06-03T09:21:34.000Z</time>
      </trkpt>
      <trkpt lat="44.55352" lon="4.25042">
        <ele>371</ele>
        <time>2018-06-03T09:21:35.000Z</time>
      </trkpt>
      <trkpt lat="44.55354" lon="4.25041">
        <ele>371</ele>
        <time>2018-06-03T09:21:36.000Z</time>
      </trkpt>
      <trkpt lat="44.55356" lon="4.25041">
        <ele>371</ele>
        <time>2018-06-03T09:21:37.000Z</time>
      </trkpt>
      <trkpt lat="44.55358" lon="4.2504">
        <ele>371</ele>
        <time>2018-06-03T09:21:38.000Z</time>
      </trkpt>
      <trkpt lat="44.5536" lon="4.2504">
        <ele>371</ele>
        <time>2018-06-03T09:21:39.000Z</time>
      </trkpt>
      <trkpt lat="44.55362" lon="4.25039">
        <ele>372</ele>
        <time>2018-06-03T09:21:40.000Z</time>
      </trkpt>
      <trkpt lat="44.55363" lon="4.25038">
        <ele>372</ele>
        <time>2018-06-03T09:21:41.000Z</time>
      </trkpt>
      <trkpt lat="44.55365" lon="4.25036">
        <ele>372</ele>
        <time>2018-06-03T09:21:42.000Z</time>
      </trkpt>
      <trkpt lat="44.55366" lon="4.25034">
        <ele>372</ele>
        <time>2018-06-03T09:21:43.000Z</time>
      </trkpt>
      <trkpt lat="44.55368" lon="4.25033">
        <ele>372</ele>
        <time>2018-06-03T09:21:44.000Z</time>
      </trkpt>
      <trkpt lat="44.5537" lon="4.25032">
        <ele>372</ele>
        <time>2018-06-03T09:21:45.000Z</time>
      </trkpt>
      <trkpt lat="44.55373" lon="4.25031">
        <ele>372</ele>
        <time>2018-06-03T09:21:46.000Z</time>
      </trkpt>
      <trkpt lat="44.55373" lon="4.25031">
        <ele>372</ele>
        <time>2018-06-03T09:21:47.000Z</time>
      </trkpt>
      <trkpt lat="44.55378" lon="4.25029">
        <ele>372</ele>
        <time>2018-06-03T09:21:48.000Z</time>
      </trkpt>
      <trkpt lat="44.55381" lon="4.25028">
        <ele>372</ele>
        <time>2018-06-03T09:21:49.000Z</time>
      </trkpt>
      <trkpt lat="44.55384" lon="4.25028">
        <ele>372</ele>
        <time>2018-06-03T09:21:50.000Z</time>
      </trkpt>
      <trkpt lat="44.55386" lon="4.25027">
        <ele>373</ele>
        <time>2018-06-03T09:21:51.000Z</time>
      </trkpt>
      <trkpt lat="44.55389" lon="4.25026">
        <ele>373</ele>
        <time>2018-06-03T09:21:52.000Z</time>
      </trkpt>
      <trkpt lat="44.55391" lon="4.25025">
        <ele>373</ele>
        <time>2018-06-03T09:21:53.000Z</time>
      </trkpt>
      <trkpt lat="44.55394" lon="4.25024">
        <ele>373</ele>
        <time>2018-06-03T09:21:54.000Z</time>
      </trkpt>
      <trkpt lat="44.55397" lon="4.25024">
        <ele>373</ele>
        <time>2018-06-03T09:21:55.000Z</time>
      </trkpt>
      <trkpt lat="44.55399" lon="4.25023">
        <ele>373</ele>
        <time>2018-06-03T09:21:56.000Z</time>
      </trkpt>
      <trkpt lat="44.55401" lon="4.25022">
        <ele>374</ele>
        <time>2018-06-03T09:21:57.000Z</time>
      </trkpt>
      <trkpt lat="44.55404" lon="4.25021">
        <ele>374</ele>
        <time>2018-06-03T09:21:58.000Z</time>
      </trkpt>
      <trkpt lat="44.55406" lon="4.2502">
        <ele>374</ele>
        <time>2018-06-03T09:21:59.000Z</time>
      </trkpt>
      <trkpt lat="44.55408" lon="4.25019">
        <ele>374</ele>
        <time>2018-06-03T09:22:00.000Z</time>
      </trkpt>
      <trkpt lat="44.55411" lon="4.25018">
        <ele>375</ele>
        <time>2018-06-03T09:22:01.000Z</time>
      </trkpt>
      <trkpt lat="44.55413" lon="4.25017">
        <ele>375</ele>
        <time>2018-06-03T09:22:02.000Z</time>
      </trkpt>
      <trkpt lat="44.55416" lon="4.25016">
        <ele>375</ele>
        <time>2018-06-03T09:22:03.000Z</time>
      </trkpt>
      <trkpt lat="44.55419" lon="4.25016">
        <ele>375</ele>
        <time>2018-06-03T09:22:04.000Z</time>
      </trkpt>
      <trkpt lat="44.55421" lon="4.25015">
        <ele>376</ele>
        <time>2018-06-03T09:22:05.000Z</time>
      </trkpt>
      <trkpt lat="44.55423" lon="4.25014">
        <ele>376</ele>
        <time>2018-06-03T09:22:06.000Z</time>
      </trkpt>
      <trkpt lat="44.55426" lon="4.25013">
        <ele>376</ele>
        <time>2018-06-03T09:22:07.000Z</time>
      </trkpt>
      <trkpt lat="44.55428" lon="4.25011">
        <ele>376</ele>
        <time>2018-06-03T09:22:08.000Z</time>
      </trkpt>
      <trkpt lat="44.55431" lon="4.2501">
        <ele>376</ele>
        <time>2018-06-03T09:22:09.000Z</time>
      </trkpt>
      <trkpt lat="44.55433" lon="4.25008">
        <ele>376</ele>
        <time>2018-06-03T09:22:10.000Z</time>
      </trkpt>
      <trkpt lat="44.55436" lon="4.25007">
        <ele>375</ele>
        <time>2018-06-03T09:22:11.000Z</time>
      </trkpt>
      <trkpt lat="44.55438" lon="4.25005">
        <ele>375</ele>
        <time>2018-06-03T09:22:12.000Z</time>
      </trkpt>
      <trkpt lat="44.55441" lon="4.25004">
        <ele>375</ele>
        <time>2018-06-03T09:22:13.000Z</time>
      </trkpt>
      <trkpt lat="44.55443" lon="4.25002">
        <ele>375</ele>
        <time>2018-06-03T09:22:14.000Z</time>
      </trkpt>
      <trkpt lat="44.55445" lon="4.25">
        <ele>387</ele>
        <time>2018-06-03T09:22:15.000Z</time>
      </trkpt>
      <trkpt lat="44.55447" lon="4.24998">
        <ele>387</ele>
        <time>2018-06-03T09:22:16.000Z</time>
      </trkpt>
      <trkpt lat="44.55449" lon="4.24996">
        <ele>388</ele>
        <time>2018-06-03T09:22:17.000Z</time>
      </trkpt>
      <trkpt lat="44.55451" lon="4.24994">
        <ele>388</ele>
        <time>2018-06-03T09:22:18.000Z</time>
      </trkpt>
      <trkpt lat="44.55453" lon="4.24992">
        <ele>388</ele>
        <time>2018-06-03T09:22:19.000Z</time>
      </trkpt>
      <trkpt lat="44.55455" lon="4.2499">
        <ele>389</ele>
        <time>2018-06-03T09:22:20.000Z</time>
      </trkpt>
      <trkpt lat="44.55457" lon="4.24988">
        <ele>389</ele>
        <time>2018-06-03T09:22:21.000Z</time>
      </trkpt>
      <trkpt lat="44.55459" lon="4.24986">
        <ele>389</ele>
        <time>2018-06-03T09:22:22.000Z</time>
      </trkpt>
      <trkpt lat="44.55461" lon="4.24985">
        <ele>389</ele>
        <time>2018-06-03T09:22:23.000Z</time>
      </trkpt>
      <trkpt lat="44.55463" lon="4.24982">
        <ele>389</ele>
        <time>2018-06-03T09:22:24.000Z</time>
      </trkpt>
      <trkpt lat="44.55465" lon="4.2498">
        <ele>390</ele>
        <time>2018-06-03T09:22:25.000Z</time>
      </trkpt>
      <trkpt lat="44.55467" lon="4.24979">
        <ele>390</ele>
        <time>2018-06-03T09:22:26.000Z</time>
      </trkpt>
      <trkpt lat="44.55469" lon="4.24977">
        <ele>390</ele>
        <time>2018-06-03T09:22:27.000Z</time>
      </trkpt>
      <trkpt lat="44.55471" lon="4.24975">
        <ele>390</ele>
        <time>2018-06-03T09:22:28.000Z</time>
      </trkpt>
      <trkpt lat="44.55473" lon="4.24973">
        <ele>391</ele>
        <time>2018-06-03T09:22:29.000Z</time>
      </trkpt>
      <trkpt lat="44.55475" lon="4.2497">
        <ele>391</ele>
        <time>2018-06-03T09:22:30.000Z</time>
      </trkpt>
      <trkpt lat="44.55477" lon="4.24968">
        <ele>391</ele>
        <time>2018-06-03T09:22:31.000Z</time>
      </trkpt>
      <trkpt lat="44.55479" lon="4.24967">
        <ele>391</ele>
        <time>2018-06-03T09:22:32.000Z</time>
      </trkpt>
      <trkpt lat="44.55481" lon="4.24966">
        <ele>391</ele>
        <time>2018-06-03T09:22:33.000Z</time>
      </trkpt>
      <trkpt lat="44.55483" lon="4.24966">
        <ele>391</ele>
        <time>2018-06-03T09:22:34.000Z</time>
      </trkpt>
      <trkpt lat="44.55485" lon="4.24966">
        <ele>391</ele>
        <time>2018-06-03T09:22:35.000Z</time>
      </trkpt>
      <trkpt lat="44.55487" lon="4.24968">
        <ele>391</ele>
        <time>2018-06-03T09:22:36.000Z</time>
      </trkpt>
      <trkpt lat="44.55489" lon="4.24969">
        <ele>391</ele>
        <time>2018-06-03T09:22:37.000Z</time>
      </trkpt>
      <trkpt lat="44.5549" lon="4.2497">
        <ele>390</ele>
        <time>2018-06-03T09:22:38.000Z</time>
      </trkpt>
      <trkpt lat="44.55491" lon="4.24972">
        <ele>390</ele>
        <time>2018-06-03T09:22:39.000Z</time>
      </trkpt>
      <trkpt lat="44.55493" lon="4.24974">
        <ele>389</ele>
        <time>2018-06-03T09:22:40.000Z</time>
      </trkpt>
      <trkpt lat="44.55494" lon="4.24977">
        <ele>389</ele>
        <time>2018-06-03T09:22:41.000Z</time>
      </trkpt>
      <trkpt lat="44.55496" lon="4.24979">
        <ele>388</ele>
        <time>2018-06-03T09:22:42.000Z</time>
      </trkpt>
      <trkpt lat="44.55498" lon="4.24982">
        <ele>387</ele>
        <time>2018-06-03T09:22:43.000Z</time>
      </trkpt>
      <trkpt lat="44.555" lon="4.24985">
        <ele>386</ele>
        <time>2018-06-03T09:22:44.000Z</time>
      </trkpt>
      <trkpt lat="44.55502" lon="4.24987">
        <ele>387</ele>
        <time>2018-06-03T09:22:45.000Z</time>
      </trkpt>
      <trkpt lat="44.55504" lon="4.2499">
        <ele>386</ele>
        <time>2018-06-03T09:22:46.000Z</time>
      </trkpt>
      <trkpt lat="44.55506" lon="4.24992">
        <ele>386</ele>
        <time>2018-06-03T09:22:47.000Z</time>
      </trkpt>
      <trkpt lat="44.55508" lon="4.24994">
        <ele>386</ele>
        <time>2018-06-03T09:22:48.000Z</time>
      </trkpt>
      <trkpt lat="44.5551" lon="4.24995">
        <ele>386</ele>
        <time>2018-06-03T09:22:49.000Z</time>
      </trkpt>
      <trkpt lat="44.55512" lon="4.24997">
        <ele>387</ele>
        <time>2018-06-03T09:22:50.000Z</time>
      </trkpt>
      <trkpt lat="44.55515" lon="4.24998">
        <ele>388</ele>
        <time>2018-06-03T09:22:51.000Z</time>
      </trkpt>
      <trkpt lat="44.55517" lon="4.24998">
        <ele>388</ele>
        <time>2018-06-03T09:22:52.000Z</time>
      </trkpt>
      <trkpt lat="44.5552" lon="4.24999">
        <ele>389</ele>
        <time>2018-06-03T09:22:53.000Z</time>
      </trkpt>
      <trkpt lat="44.55522" lon="4.24999">
        <ele>390</ele>
        <time>2018-06-03T09:22:54.000Z</time>
      </trkpt>
      <trkpt lat="44.55525" lon="4.24999">
        <ele>391</ele>
        <time>2018-06-03T09:22:55.000Z</time>
      </trkpt>
      <trkpt lat="44.55527" lon="4.25">
        <ele>391</ele>
        <time>2018-06-03T09:22:56.000Z</time>
      </trkpt>
      <trkpt lat="44.5553" lon="4.25">
        <ele>392</ele>
        <time>2018-06-03T09:22:57.000Z</time>
      </trkpt>
      <trkpt lat="44.55532" lon="4.25">
        <ele>384</ele>
        <time>2018-06-03T09:22:58.000Z</time>
      </trkpt>
      <trkpt lat="44.55535" lon="4.25">
        <ele>381</ele>
        <time>2018-06-03T09:22:59.000Z</time>
      </trkpt>
      <trkpt lat="44.55537" lon="4.25001">
        <ele>381</ele>
        <time>2018-06-03T09:23:00.000Z</time>
      </trkpt>
      <trkpt lat="44.55539" lon="4.25001">
        <ele>381</ele>
        <time>2018-06-03T09:23:01.000Z</time>
      </trkpt>
      <trkpt lat="44.55541" lon="4.25002">
        <ele>381</ele>
        <time>2018-06-03T09:23:02.000Z</time>
      </trkpt>
      <trkpt lat="44.55544" lon="4.25002">
        <ele>381</ele>
        <time>2018-06-03T09:23:03.000Z</time>
      </trkpt>
      <trkpt lat="44.55546" lon="4.25001">
        <ele>382</ele>
        <time>2018-06-03T09:23:04.000Z</time>
      </trkpt>
      <trkpt lat="44.55548" lon="4.25001">
        <ele>382</ele>
        <time>2018-06-03T09:23:05.000Z</time>
      </trkpt>
      <trkpt lat="44.5555" lon="4.25">
        <ele>394</ele>
        <time>2018-06-03T09:23:06.000Z</time>
      </trkpt>
      <trkpt lat="44.55552" lon="4.24999">
        <ele>394</ele>
        <time>2018-06-03T09:23:07.000Z</time>
      </trkpt>
      <trkpt lat="44.55555" lon="4.24998">
        <ele>394</ele>
        <time>2018-06-03T09:23:08.000Z</time>
      </trkpt>
      <trkpt lat="44.55557" lon="4.24996">
        <ele>394</ele>
        <time>2018-06-03T09:23:09.000Z</time>
      </trkpt>
      <trkpt lat="44.55559" lon="4.24995">
        <ele>394</ele>
        <time>2018-06-03T09:23:10.000Z</time>
      </trkpt>
      <trkpt lat="44.55561" lon="4.24995">
        <ele>394</ele>
        <time>2018-06-03T09:23:11.000Z</time>
      </trkpt>
      <trkpt lat="44.55563" lon="4.24995">
        <ele>394</ele>
        <time>2018-06-03T09:23:12.000Z</time>
      </trkpt>
      <trkpt lat="44.55566" lon="4.24995">
        <ele>394</ele>
        <time>2018-06-03T09:23:13.000Z</time>
      </trkpt>
      <trkpt lat="44.55568" lon="4.24995">
        <ele>394</ele>
        <time>2018-06-03T09:23:14.000Z</time>
      </trkpt>
      <trkpt lat="44.5557" lon="4.24995">
        <ele>394</ele>
        <time>2018-06-03T09:23:15.000Z</time>
      </trkpt>
      <trkpt lat="44.55572" lon="4.24996">
        <ele>393</ele>
        <time>2018-06-03T09:23:16.000Z</time>
      </trkpt>
      <trkpt lat="44.55574" lon="4.24997">
        <ele>393</ele>
        <time>2018-06-03T09:23:17.000Z</time>
      </trkpt>
      <trkpt lat="44.55576" lon="4.24998">
        <ele>393</ele>
        <time>2018-06-03T09:23:18.000Z</time>
      </trkpt>
      <trkpt lat="44.55579" lon="4.25">
        <ele>392</ele>
        <time>2018-06-03T09:23:19.000Z</time>
      </trkpt>
      <trkpt lat="44.55581" lon="4.25001">
        <ele>390</ele>
        <time>2018-06-03T09:23:20.000Z</time>
      </trkpt>
      <trkpt lat="44.55582" lon="4.25002">
        <ele>390</ele>
        <time>2018-06-03T09:23:21.000Z</time>
      </trkpt>
      <trkpt lat="44.55584" lon="4.25002">
        <ele>391</ele>
        <time>2018-06-03T09:23:22.000Z</time>
      </trkpt>
      <trkpt lat="44.55587" lon="4.25003">
        <ele>391</ele>
        <time>2018-06-03T09:23:23.000Z</time>
      </trkpt>
      <trkpt lat="44.55588" lon="4.25004">
        <ele>392</ele>
        <time>2018-06-03T09:23:24.000Z</time>
      </trkpt>
      <trkpt lat="44.5559" lon="4.25004">
        <ele>392</ele>
        <time>2018-06-03T09:23:25.000Z</time>
      </trkpt>
      <trkpt lat="44.55592" lon="4.25005">
        <ele>392</ele>
        <time>2018-06-03T09:23:26.000Z</time>
      </trkpt>
      <trkpt lat="44.55594" lon="4.25005">
        <ele>392</ele>
        <time>2018-06-03T09:23:27.000Z</time>
      </trkpt>
      <trkpt lat="44.55597" lon="4.25006">
        <ele>392</ele>
        <time>2018-06-03T09:23:28.000Z</time>
      </trkpt>
      <trkpt lat="44.55599" lon="4.25006">
        <ele>393</ele>
        <time>2018-06-03T09:23:29.000Z</time>
      </trkpt>
      <trkpt lat="44.55601" lon="4.25007">
        <ele>393</ele>
        <time>2018-06-03T09:23:30.000Z</time>
      </trkpt>
      <trkpt lat="44.55603" lon="4.25008">
        <ele>393</ele>
        <time>2018-06-03T09:23:31.000Z</time>
      </trkpt>
      <trkpt lat="44.55605" lon="4.25011">
        <ele>393</ele>
        <time>2018-06-03T09:23:32.000Z</time>
      </trkpt>
      <trkpt lat="44.55606" lon="4.25014">
        <ele>393</ele>
        <time>2018-06-03T09:23:33.000Z</time>
      </trkpt>
      <trkpt lat="44.55606" lon="4.25017">
        <ele>393</ele>
        <time>2018-06-03T09:23:34.000Z</time>
      </trkpt>
      <trkpt lat="44.55607" lon="4.2502">
        <ele>393</ele>
        <time>2018-06-03T09:23:35.000Z</time>
      </trkpt>
      <trkpt lat="44.55607" lon="4.25023">
        <ele>393</ele>
        <time>2018-06-03T09:23:36.000Z</time>
      </trkpt>
      <trkpt lat="44.55608" lon="4.25027">
        <ele>393</ele>
        <time>2018-06-03T09:23:37.000Z</time>
      </trkpt>
      <trkpt lat="44.55609" lon="4.25029">
        <ele>392</ele>
        <time>2018-06-03T09:23:38.000Z</time>
      </trkpt>
      <trkpt lat="44.5561" lon="4.25033">
        <ele>392</ele>
        <time>2018-06-03T09:23:39.000Z</time>
      </trkpt>
      <trkpt lat="44.55612" lon="4.25035">
        <ele>392</ele>
        <time>2018-06-03T09:23:40.000Z</time>
      </trkpt>
      <trkpt lat="44.55614" lon="4.25037">
        <ele>392</ele>
        <time>2018-06-03T09:23:41.000Z</time>
      </trkpt>
      <trkpt lat="44.55616" lon="4.2504">
        <ele>392</ele>
        <time>2018-06-03T09:23:42.000Z</time>
      </trkpt>
      <trkpt lat="44.55618" lon="4.25042">
        <ele>392</ele>
        <time>2018-06-03T09:23:43.000Z</time>
      </trkpt>
      <trkpt lat="44.55621" lon="4.25044">
        <ele>392</ele>
        <time>2018-06-03T09:23:44.000Z</time>
      </trkpt>
      <trkpt lat="44.55623" lon="4.25047">
        <ele>392</ele>
        <time>2018-06-03T09:23:45.000Z</time>
      </trkpt>
      <trkpt lat="44.55626" lon="4.25049">
        <ele>392</ele>
        <time>2018-06-03T09:23:46.000Z</time>
      </trkpt>
      <trkpt lat="44.55628" lon="4.25051">
        <ele>392</ele>
        <time>2018-06-03T09:23:47.000Z</time>
      </trkpt>
      <trkpt lat="44.55631" lon="4.25054">
        <ele>392</ele>
        <time>2018-06-03T09:23:48.000Z</time>
      </trkpt>
      <trkpt lat="44.55633" lon="4.25057">
        <ele>392</ele>
        <time>2018-06-03T09:23:49.000Z</time>
      </trkpt>
      <trkpt lat="44.55635" lon="4.25058">
        <ele>392</ele>
        <time>2018-06-03T09:23:50.000Z</time>
      </trkpt>
      <trkpt lat="44.55638" lon="4.2506">
        <ele>392</ele>
        <time>2018-06-03T09:23:51.000Z</time>
      </trkpt>
      <trkpt lat="44.5564" lon="4.25062">
        <ele>392</ele>
        <time>2018-06-03T09:23:52.000Z</time>
      </trkpt>
      <trkpt lat="44.55643" lon="4.25064">
        <ele>392</ele>
        <time>2018-06-03T09:23:53.000Z</time>
      </trkpt>
      <trkpt lat="44.55645" lon="4.25067">
        <ele>392</ele>
        <time>2018-06-03T09:23:54.000Z</time>
      </trkpt>
      <trkpt lat="44.55648" lon="4.25069">
        <ele>393</ele>
        <time>2018-06-03T09:23:55.000Z</time>
      </trkpt>
      <trkpt lat="44.55651" lon="4.2507">
        <ele>393</ele>
        <time>2018-06-03T09:23:56.000Z</time>
      </trkpt>
      <trkpt lat="44.55653" lon="4.25072">
        <ele>393</ele>
        <time>2018-06-03T09:23:57.000Z</time>
      </trkpt>
      <trkpt lat="44.55656" lon="4.25074">
        <ele>393</ele>
        <time>2018-06-03T09:23:58.000Z</time>
      </trkpt>
      <trkpt lat="44.55659" lon="4.25075">
        <ele>392</ele>
        <time>2018-06-03T09:23:59.000Z</time>
      </trkpt>
      <trkpt lat="44.55661" lon="4.25077">
        <ele>392</ele>
        <time>2018-06-03T09:24:00.000Z</time>
      </trkpt>
      <trkpt lat="44.55664" lon="4.25078">
        <ele>392</ele>
        <time>2018-06-03T09:24:01.000Z</time>
      </trkpt>
      <trkpt lat="44.55667" lon="4.2508">
        <ele>392</ele>
        <time>2018-06-03T09:24:02.000Z</time>
      </trkpt>
      <trkpt lat="44.55669" lon="4.25082">
        <ele>395</ele>
        <time>2018-06-03T09:24:03.000Z</time>
      </trkpt>
      <trkpt lat="44.55671" lon="4.25084">
        <ele>393</ele>
        <time>2018-06-03T09:24:04.000Z</time>
      </trkpt>
      <trkpt lat="44.55674" lon="4.25085">
        <ele>394</ele>
        <time>2018-06-03T09:24:05.000Z</time>
      </trkpt>
      <trkpt lat="44.55676" lon="4.25087">
        <ele>394</ele>
        <time>2018-06-03T09:24:06.000Z</time>
      </trkpt>
      <trkpt lat="44.55678" lon="4.25089">
        <ele>395</ele>
        <time>2018-06-03T09:24:07.000Z</time>
      </trkpt>
      <trkpt lat="44.55681" lon="4.2509">
        <ele>395</ele>
        <time>2018-06-03T09:24:08.000Z</time>
      </trkpt>
      <trkpt lat="44.55683" lon="4.25091">
        <ele>396</ele>
        <time>2018-06-03T09:24:09.000Z</time>
      </trkpt>
      <trkpt lat="44.55686" lon="4.25093">
        <ele>396</ele>
        <time>2018-06-03T09:24:10.000Z</time>
      </trkpt>
      <trkpt lat="44.55689" lon="4.25095">
        <ele>397</ele>
        <time>2018-06-03T09:24:11.000Z</time>
      </trkpt>
      <trkpt lat="44.55691" lon="4.25097">
        <ele>397</ele>
        <time>2018-06-03T09:24:12.000Z</time>
      </trkpt>
      <trkpt lat="44.55694" lon="4.25099">
        <ele>398</ele>
        <time>2018-06-03T09:24:13.000Z</time>
      </trkpt>
      <trkpt lat="44.55697" lon="4.251">
        <ele>398</ele>
        <time>2018-06-03T09:24:14.000Z</time>
      </trkpt>
      <trkpt lat="44.55699" lon="4.25102">
        <ele>398</ele>
        <time>2018-06-03T09:24:15.000Z</time>
      </trkpt>
      <trkpt lat="44.55702" lon="4.25104">
        <ele>399</ele>
        <time>2018-06-03T09:24:16.000Z</time>
      </trkpt>
      <trkpt lat="44.55704" lon="4.25106">
        <ele>399</ele>
        <time>2018-06-03T09:24:17.000Z</time>
      </trkpt>
      <trkpt lat="44.55707" lon="4.25108">
        <ele>399</ele>
        <time>2018-06-03T09:24:18.000Z</time>
      </trkpt>
      <trkpt lat="44.55709" lon="4.2511">
        <ele>399</ele>
        <time>2018-06-03T09:24:19.000Z</time>
      </trkpt>
      <trkpt lat="44.55711" lon="4.25113">
        <ele>399</ele>
        <time>2018-06-03T09:24:20.000Z</time>
      </trkpt>
      <trkpt lat="44.55713" lon="4.25114">
        <ele>400</ele>
        <time>2018-06-03T09:24:21.000Z</time>
      </trkpt>
      <trkpt lat="44.55716" lon="4.25116">
        <ele>400</ele>
        <time>2018-06-03T09:24:22.000Z</time>
      </trkpt>
      <trkpt lat="44.55718" lon="4.25118">
        <ele>400</ele>
        <time>2018-06-03T09:24:23.000Z</time>
      </trkpt>
      <trkpt lat="44.55721" lon="4.2512">
        <ele>400</ele>
        <time>2018-06-03T09:24:24.000Z</time>
      </trkpt>
      <trkpt lat="44.55723" lon="4.25122">
        <ele>400</ele>
        <time>2018-06-03T09:24:25.000Z</time>
      </trkpt>
      <trkpt lat="44.55725" lon="4.25124">
        <ele>400</ele>
        <time>2018-06-03T09:24:26.000Z</time>
      </trkpt>
      <trkpt lat="44.55728" lon="4.25125">
        <ele>400</ele>
        <time>2018-06-03T09:24:27.000Z</time>
      </trkpt>
      <trkpt lat="44.5573" lon="4.25126">
        <ele>400</ele>
        <time>2018-06-03T09:24:28.000Z</time>
      </trkpt>
      <trkpt lat="44.55732" lon="4.25127">
        <ele>400</ele>
        <time>2018-06-03T09:24:29.000Z</time>
      </trkpt>
      <trkpt lat="44.55734" lon="4.25128">
        <ele>400</ele>
        <time>2018-06-03T09:24:30.000Z</time>
      </trkpt>
      <trkpt lat="44.55736" lon="4.25129">
        <ele>400</ele>
        <time>2018-06-03T09:24:31.000Z</time>
      </trkpt>
      <trkpt lat="44.55739" lon="4.2513">
        <ele>400</ele>
        <time>2018-06-03T09:24:32.000Z</time>
      </trkpt>
      <trkpt lat="44.55741" lon="4.25131">
        <ele>400</ele>
        <time>2018-06-03T09:24:33.000Z</time>
      </trkpt>
      <trkpt lat="44.55744" lon="4.25132">
        <ele>400</ele>
        <time>2018-06-03T09:24:34.000Z</time>
      </trkpt>
      <trkpt lat="44.55746" lon="4.25133">
        <ele>400</ele>
        <time>2018-06-03T09:24:35.000Z</time>
      </trkpt>
      <trkpt lat="44.55749" lon="4.25134">
        <ele>400</ele>
        <time>2018-06-03T09:24:36.000Z</time>
      </trkpt>
      <trkpt lat="44.55751" lon="4.25135">
        <ele>406</ele>
        <time>2018-06-03T09:24:37.000Z</time>
      </trkpt>
      <trkpt lat="44.55754" lon="4.25136">
        <ele>406</ele>
        <time>2018-06-03T09:24:38.000Z</time>
      </trkpt>
      <trkpt lat="44.55756" lon="4.25137">
        <ele>406</ele>
        <time>2018-06-03T09:24:39.000Z</time>
      </trkpt>
      <trkpt lat="44.55759" lon="4.25139">
        <ele>406</ele>
        <time>2018-06-03T09:24:40.000Z</time>
      </trkpt>
      <trkpt lat="44.55761" lon="4.2514">
        <ele>406</ele>
        <time>2018-06-03T09:24:41.000Z</time>
      </trkpt>
      <trkpt lat="44.55763" lon="4.25141">
        <ele>405</ele>
        <time>2018-06-03T09:24:42.000Z</time>
      </trkpt>
      <trkpt lat="44.55765" lon="4.25142">
        <ele>405</ele>
        <time>2018-06-03T09:24:43.000Z</time>
      </trkpt>
      <trkpt lat="44.55768" lon="4.25143">
        <ele>406</ele>
        <time>2018-06-03T09:24:44.000Z</time>
      </trkpt>
      <trkpt lat="44.5577" lon="4.25144">
        <ele>406</ele>
        <time>2018-06-03T09:24:45.000Z</time>
      </trkpt>
      <trkpt lat="44.55773" lon="4.25146">
        <ele>406</ele>
        <time>2018-06-03T09:24:46.000Z</time>
      </trkpt>
      <trkpt lat="44.55775" lon="4.25147">
        <ele>406</ele>
        <time>2018-06-03T09:24:47.000Z</time>
      </trkpt>
      <trkpt lat="44.55777" lon="4.25147">
        <ele>406</ele>
        <time>2018-06-03T09:24:48.000Z</time>
      </trkpt>
      <trkpt lat="44.5578" lon="4.25147">
        <ele>406</ele>
        <time>2018-06-03T09:24:49.000Z</time>
      </trkpt>
      <trkpt lat="44.55782" lon="4.25147">
        <ele>407</ele>
        <time>2018-06-03T09:24:50.000Z</time>
      </trkpt>
      <trkpt lat="44.55785" lon="4.25147">
        <ele>407</ele>
        <time>2018-06-03T09:24:51.000Z</time>
      </trkpt>
      <trkpt lat="44.55787" lon="4.25147">
        <ele>407</ele>
        <time>2018-06-03T09:24:52.000Z</time>
      </trkpt>
      <trkpt lat="44.5579" lon="4.25146">
        <ele>407</ele>
        <time>2018-06-03T09:24:53.000Z</time>
      </trkpt>
      <trkpt lat="44.55793" lon="4.25146">
        <ele>408</ele>
        <time>2018-06-03T09:24:54.000Z</time>
      </trkpt>
      <trkpt lat="44.55795" lon="4.25145">
        <ele>408</ele>
        <time>2018-06-03T09:24:55.000Z</time>
      </trkpt>
      <trkpt lat="44.55798" lon="4.25145">
        <ele>408</ele>
        <time>2018-06-03T09:24:56.000Z</time>
      </trkpt>
      <trkpt lat="44.55801" lon="4.25144">
        <ele>408</ele>
        <time>2018-06-03T09:24:57.000Z</time>
      </trkpt>
      <trkpt lat="44.55803" lon="4.25143">
        <ele>408</ele>
        <time>2018-06-03T09:24:58.000Z</time>
      </trkpt>
      <trkpt lat="44.55806" lon="4.25143">
        <ele>408</ele>
        <time>2018-06-03T09:24:59.000Z</time>
      </trkpt>
      <trkpt lat="44.55809" lon="4.25142">
        <ele>409</ele>
        <time>2018-06-03T09:25:00.000Z</time>
      </trkpt>
      <trkpt lat="44.55812" lon="4.25142">
        <ele>409</ele>
        <time>2018-06-03T09:25:01.000Z</time>
      </trkpt>
      <trkpt lat="44.55815" lon="4.25141">
        <ele>409</ele>
        <time>2018-06-03T09:25:02.000Z</time>
      </trkpt>
      <trkpt lat="44.55817" lon="4.2514">
        <ele>409</ele>
        <time>2018-06-03T09:25:03.000Z</time>
      </trkpt>
      <trkpt lat="44.5582" lon="4.25139">
        <ele>409</ele>
        <time>2018-06-03T09:25:04.000Z</time>
      </trkpt>
      <trkpt lat="44.55822" lon="4.25139">
        <ele>409</ele>
        <time>2018-06-03T09:25:05.000Z</time>
      </trkpt>
      <trkpt lat="44.55824" lon="4.25138">
        <ele>409</ele>
        <time>2018-06-03T09:25:06.000Z</time>
      </trkpt>
      <trkpt lat="44.55827" lon="4.25137">
        <ele>409</ele>
        <time>2018-06-03T09:25:07.000Z</time>
      </trkpt>
      <trkpt lat="44.55829" lon="4.25136">
        <ele>409</ele>
        <time>2018-06-03T09:25:08.000Z</time>
      </trkpt>
      <trkpt lat="44.55831" lon="4.25136">
        <ele>410</ele>
        <time>2018-06-03T09:25:09.000Z</time>
      </trkpt>
      <trkpt lat="44.55833" lon="4.25136">
        <ele>410</ele>
        <time>2018-06-03T09:25:10.000Z</time>
      </trkpt>
      <trkpt lat="44.55836" lon="4.25136">
        <ele>412</ele>
        <time>2018-06-03T09:25:11.000Z</time>
      </trkpt>
      <trkpt lat="44.55838" lon="4.25135">
        <ele>412</ele>
        <time>2018-06-03T09:25:12.000Z</time>
      </trkpt>
      <trkpt lat="44.55841" lon="4.25134">
        <ele>413</ele>
        <time>2018-06-03T09:25:13.000Z</time>
      </trkpt>
      <trkpt lat="44.55844" lon="4.25134">
        <ele>413</ele>
        <time>2018-06-03T09:25:14.000Z</time>
      </trkpt>
      <trkpt lat="44.55846" lon="4.25134">
        <ele>413</ele>
        <time>2018-06-03T09:25:15.000Z</time>
      </trkpt>
      <trkpt lat="44.55849" lon="4.25133">
        <ele>413</ele>
        <time>2018-06-03T09:25:16.000Z</time>
      </trkpt>
      <trkpt lat="44.55852" lon="4.25133">
        <ele>413</ele>
        <time>2018-06-03T09:25:17.000Z</time>
      </trkpt>
      <trkpt lat="44.55854" lon="4.25133">
        <ele>413</ele>
        <time>2018-06-03T09:25:18.000Z</time>
      </trkpt>
      <trkpt lat="44.55857" lon="4.25132">
        <ele>413</ele>
        <time>2018-06-03T09:25:19.000Z</time>
      </trkpt>
      <trkpt lat="44.5586" lon="4.25132">
        <ele>413</ele>
        <time>2018-06-03T09:25:20.000Z</time>
      </trkpt>
      <trkpt lat="44.55863" lon="4.25132">
        <ele>413</ele>
        <time>2018-06-03T09:25:21.000Z</time>
      </trkpt>
      <trkpt lat="44.55865" lon="4.25132">
        <ele>413</ele>
        <time>2018-06-03T09:25:22.000Z</time>
      </trkpt>
      <trkpt lat="44.55868" lon="4.25131">
        <ele>414</ele>
        <time>2018-06-03T09:25:23.000Z</time>
      </trkpt>
      <trkpt lat="44.55871" lon="4.25131">
        <ele>414</ele>
        <time>2018-06-03T09:25:24.000Z</time>
      </trkpt>
      <trkpt lat="44.55873" lon="4.25131">
        <ele>414</ele>
        <time>2018-06-03T09:25:25.000Z</time>
      </trkpt>
      <trkpt lat="44.55876" lon="4.25131">
        <ele>414</ele>
        <time>2018-06-03T09:25:26.000Z</time>
      </trkpt>
      <trkpt lat="44.55878" lon="4.25131">
        <ele>414</ele>
        <time>2018-06-03T09:25:27.000Z</time>
      </trkpt>
      <trkpt lat="44.55881" lon="4.25131">
        <ele>414</ele>
        <time>2018-06-03T09:25:28.000Z</time>
      </trkpt>
      <trkpt lat="44.55883" lon="4.25131">
        <ele>414</ele>
        <time>2018-06-03T09:25:29.000Z</time>
      </trkpt>
      <trkpt lat="44.55885" lon="4.25131">
        <ele>414</ele>
        <time>2018-06-03T09:25:30.000Z</time>
      </trkpt>
      <trkpt lat="44.55886" lon="4.25131">
        <ele>414</ele>
        <time>2018-06-03T09:25:31.000Z</time>
      </trkpt>
      <trkpt lat="44.55888" lon="4.25131">
        <ele>414</ele>
        <time>2018-06-03T09:25:32.000Z</time>
      </trkpt>
      <trkpt lat="44.55891" lon="4.2513">
        <ele>414</ele>
        <time>2018-06-03T09:25:33.000Z</time>
      </trkpt>
      <trkpt lat="44.55893" lon="4.2513">
        <ele>414</ele>
        <time>2018-06-03T09:25:34.000Z</time>
      </trkpt>
      <trkpt lat="44.55896" lon="4.2513">
        <ele>414</ele>
        <time>2018-06-03T09:25:35.000Z</time>
      </trkpt>
      <trkpt lat="44.55899" lon="4.25129">
        <ele>414</ele>
        <time>2018-06-03T09:25:36.000Z</time>
      </trkpt>
      <trkpt lat="44.55902" lon="4.25128">
        <ele>414</ele>
        <time>2018-06-03T09:25:37.000Z</time>
      </trkpt>
      <trkpt lat="44.55904" lon="4.25126">
        <ele>414</ele>
        <time>2018-06-03T09:25:38.000Z</time>
      </trkpt>
      <trkpt lat="44.55907" lon="4.25124">
        <ele>414</ele>
        <time>2018-06-03T09:25:39.000Z</time>
      </trkpt>
      <trkpt lat="44.55909" lon="4.25123">
        <ele>414</ele>
        <time>2018-06-03T09:25:40.000Z</time>
      </trkpt>
      <trkpt lat="44.55912" lon="4.25121">
        <ele>414</ele>
        <time>2018-06-03T09:25:41.000Z</time>
      </trkpt>
      <trkpt lat="44.55914" lon="4.2512">
        <ele>414</ele>
        <time>2018-06-03T09:25:42.000Z</time>
      </trkpt>
      <trkpt lat="44.55916" lon="4.25118">
        <ele>414</ele>
        <time>2018-06-03T09:25:43.000Z</time>
      </trkpt>
      <trkpt lat="44.55918" lon="4.25117">
        <ele>416</ele>
        <time>2018-06-03T09:25:44.000Z</time>
      </trkpt>
      <trkpt lat="44.55921" lon="4.25115">
        <ele>416</ele>
        <time>2018-06-03T09:25:45.000Z</time>
      </trkpt>
      <trkpt lat="44.55923" lon="4.25113">
        <ele>416</ele>
        <time>2018-06-03T09:25:46.000Z</time>
      </trkpt>
      <trkpt lat="44.55926" lon="4.25111">
        <ele>416</ele>
        <time>2018-06-03T09:25:47.000Z</time>
      </trkpt>
      <trkpt lat="44.55928" lon="4.25109">
        <ele>416</ele>
        <time>2018-06-03T09:25:48.000Z</time>
      </trkpt>
      <trkpt lat="44.55931" lon="4.25107">
        <ele>416</ele>
        <time>2018-06-03T09:25:49.000Z</time>
      </trkpt>
      <trkpt lat="44.55933" lon="4.25105">
        <ele>416</ele>
        <time>2018-06-03T09:25:50.000Z</time>
      </trkpt>
      <trkpt lat="44.55934" lon="4.25102">
        <ele>416</ele>
        <time>2018-06-03T09:25:51.000Z</time>
      </trkpt>
      <trkpt lat="44.55936" lon="4.25099">
        <ele>416</ele>
        <time>2018-06-03T09:25:52.000Z</time>
      </trkpt>
      <trkpt lat="44.55938" lon="4.25096">
        <ele>416</ele>
        <time>2018-06-03T09:25:53.000Z</time>
      </trkpt>
      <trkpt lat="44.55939" lon="4.25093">
        <ele>416</ele>
        <time>2018-06-03T09:25:54.000Z</time>
      </trkpt>
      <trkpt lat="44.55941" lon="4.2509">
        <ele>416</ele>
        <time>2018-06-03T09:25:55.000Z</time>
      </trkpt>
      <trkpt lat="44.55943" lon="4.25088">
        <ele>416</ele>
        <time>2018-06-03T09:25:56.000Z</time>
      </trkpt>
      <trkpt lat="44.55944" lon="4.25085">
        <ele>416</ele>
        <time>2018-06-03T09:25:57.000Z</time>
      </trkpt>
      <trkpt lat="44.55946" lon="4.25082">
        <ele>419</ele>
        <time>2018-06-03T09:25:58.000Z</time>
      </trkpt>
      <trkpt lat="44.55948" lon="4.2508">
        <ele>419</ele>
        <time>2018-06-03T09:25:59.000Z</time>
      </trkpt>
      <trkpt lat="44.55949" lon="4.25077">
        <ele>419</ele>
        <time>2018-06-03T09:26:00.000Z</time>
      </trkpt>
      <trkpt lat="44.5595" lon="4.25073">
        <ele>419</ele>
        <time>2018-06-03T09:26:01.000Z</time>
      </trkpt>
      <trkpt lat="44.55952" lon="4.2507">
        <ele>419</ele>
        <time>2018-06-03T09:26:02.000Z</time>
      </trkpt>
      <trkpt lat="44.55953" lon="4.25067">
        <ele>420</ele>
        <time>2018-06-03T09:26:03.000Z</time>
      </trkpt>
      <trkpt lat="44.55954" lon="4.25064">
        <ele>420</ele>
        <time>2018-06-03T09:26:04.000Z</time>
      </trkpt>
      <trkpt lat="44.55956" lon="4.25061">
        <ele>420</ele>
        <time>2018-06-03T09:26:05.000Z</time>
      </trkpt>
      <trkpt lat="44.55958" lon="4.25058">
        <ele>420</ele>
        <time>2018-06-03T09:26:06.000Z</time>
      </trkpt>
      <trkpt lat="44.5596" lon="4.25056">
        <ele>420</ele>
        <time>2018-06-03T09:26:07.000Z</time>
      </trkpt>
      <trkpt lat="44.55961" lon="4.25053">
        <ele>420</ele>
        <time>2018-06-03T09:26:08.000Z</time>
      </trkpt>
      <trkpt lat="44.55963" lon="4.25051">
        <ele>420</ele>
        <time>2018-06-03T09:26:09.000Z</time>
      </trkpt>
      <trkpt lat="44.55963" lon="4.25049">
        <ele>421</ele>
        <time>2018-06-03T09:26:10.000Z</time>
      </trkpt>
      <trkpt lat="44.55965" lon="4.25047">
        <ele>421</ele>
        <time>2018-06-03T09:26:11.000Z</time>
      </trkpt>
      <trkpt lat="44.55967" lon="4.25045">
        <ele>421</ele>
        <time>2018-06-03T09:26:12.000Z</time>
      </trkpt>
      <trkpt lat="44.55969" lon="4.25043">
        <ele>421</ele>
        <time>2018-06-03T09:26:13.000Z</time>
      </trkpt>
      <trkpt lat="44.55972" lon="4.25042">
        <ele>421</ele>
        <time>2018-06-03T09:26:14.000Z</time>
      </trkpt>
      <trkpt lat="44.55975" lon="4.25041">
        <ele>421</ele>
        <time>2018-06-03T09:26:15.000Z</time>
      </trkpt>
      <trkpt lat="44.55978" lon="4.2504">
        <ele>421</ele>
        <time>2018-06-03T09:26:16.000Z</time>
      </trkpt>
      <trkpt lat="44.5598" lon="4.25039">
        <ele>420</ele>
        <time>2018-06-03T09:26:17.000Z</time>
      </trkpt>
      <trkpt lat="44.55983" lon="4.25038">
        <ele>420</ele>
        <time>2018-06-03T09:26:18.000Z</time>
      </trkpt>
      <trkpt lat="44.55986" lon="4.25037">
        <ele>420</ele>
        <time>2018-06-03T09:26:19.000Z</time>
      </trkpt>
      <trkpt lat="44.55989" lon="4.25035">
        <ele>420</ele>
        <time>2018-06-03T09:26:20.000Z</time>
      </trkpt>
      <trkpt lat="44.55992" lon="4.25034">
        <ele>420</ele>
        <time>2018-06-03T09:26:21.000Z</time>
      </trkpt>
      <trkpt lat="44.55994" lon="4.25032">
        <ele>420</ele>
        <time>2018-06-03T09:26:22.000Z</time>
      </trkpt>
      <trkpt lat="44.55997" lon="4.2503">
        <ele>420</ele>
        <time>2018-06-03T09:26:23.000Z</time>
      </trkpt>
      <trkpt lat="44.56" lon="4.25029">
        <ele>420</ele>
        <time>2018-06-03T09:26:24.000Z</time>
      </trkpt>
      <trkpt lat="44.56002" lon="4.25028">
        <ele>416</ele>
        <time>2018-06-03T09:26:25.000Z</time>
      </trkpt>
      <trkpt lat="44.56005" lon="4.25027">
        <ele>416</ele>
        <time>2018-06-03T09:26:26.000Z</time>
      </trkpt>
      <trkpt lat="44.56008" lon="4.25027">
        <ele>416</ele>
        <time>2018-06-03T09:26:27.000Z</time>
      </trkpt>
      <trkpt lat="44.56011" lon="4.25027">
        <ele>416</ele>
        <time>2018-06-03T09:26:28.000Z</time>
      </trkpt>
      <trkpt lat="44.56014" lon="4.25028">
        <ele>416</ele>
        <time>2018-06-03T09:26:29.000Z</time>
      </trkpt>
      <trkpt lat="44.56016" lon="4.25032">
        <ele>415</ele>
        <time>2018-06-03T09:26:30.000Z</time>
      </trkpt>
      <trkpt lat="44.56017" lon="4.25035">
        <ele>415</ele>
        <time>2018-06-03T09:26:31.000Z</time>
      </trkpt>
      <trkpt lat="44.56018" lon="4.25039">
        <ele>415</ele>
        <time>2018-06-03T09:26:32.000Z</time>
      </trkpt>
      <trkpt lat="44.56018" lon="4.25043">
        <ele>415</ele>
        <time>2018-06-03T09:26:33.000Z</time>
      </trkpt>
      <trkpt lat="44.56018" lon="4.25047">
        <ele>414</ele>
        <time>2018-06-03T09:26:34.000Z</time>
      </trkpt>
      <trkpt lat="44.56016" lon="4.2505">
        <ele>414</ele>
        <time>2018-06-03T09:26:35.000Z</time>
      </trkpt>
      <trkpt lat="44.56014" lon="4.25053">
        <ele>414</ele>
        <time>2018-06-03T09:26:36.000Z</time>
      </trkpt>
      <trkpt lat="44.56011" lon="4.25055">
        <ele>414</ele>
        <time>2018-06-03T09:26:37.000Z</time>
      </trkpt>
      <trkpt lat="44.56009" lon="4.25058">
        <ele>414</ele>
        <time>2018-06-03T09:26:38.000Z</time>
      </trkpt>
      <trkpt lat="44.56006" lon="4.2506">
        <ele>414</ele>
        <time>2018-06-03T09:26:39.000Z</time>
      </trkpt>
      <trkpt lat="44.56004" lon="4.25063">
        <ele>414</ele>
        <time>2018-06-03T09:26:40.000Z</time>
      </trkpt>
      <trkpt lat="44.56002" lon="4.25066">
        <ele>414</ele>
        <time>2018-06-03T09:26:41.000Z</time>
      </trkpt>
      <trkpt lat="44.55999" lon="4.25068">
        <ele>417</ele>
        <time>2018-06-03T09:26:42.000Z</time>
      </trkpt>
      <trkpt lat="44.55997" lon="4.25071">
        <ele>416</ele>
        <time>2018-06-03T09:26:43.000Z</time>
      </trkpt>
      <trkpt lat="44.55995" lon="4.25073">
        <ele>416</ele>
        <time>2018-06-03T09:26:44.000Z</time>
      </trkpt>
      <trkpt lat="44.55993" lon="4.25075">
        <ele>416</ele>
        <time>2018-06-03T09:26:45.000Z</time>
      </trkpt>
      <trkpt lat="44.55992" lon="4.25078">
        <ele>416</ele>
        <time>2018-06-03T09:26:46.000Z</time>
      </trkpt>
      <trkpt lat="44.5599" lon="4.2508">
        <ele>416</ele>
        <time>2018-06-03T09:26:47.000Z</time>
      </trkpt>
      <trkpt lat="44.55989" lon="4.25082">
        <ele>416</ele>
        <time>2018-06-03T09:26:48.000Z</time>
      </trkpt>
      <trkpt lat="44.55988" lon="4.25084">
        <ele>415</ele>
        <time>2018-06-03T09:26:49.000Z</time>
      </trkpt>
      <trkpt lat="44.55986" lon="4.25086">
        <ele>415</ele>
        <time>2018-06-03T09:26:50.000Z</time>
      </trkpt>
      <trkpt lat="44.55985" lon="4.25089">
        <ele>415</ele>
        <time>2018-06-03T09:26:51.000Z</time>
      </trkpt>
      <trkpt lat="44.55983" lon="4.25091">
        <ele>416</ele>
        <time>2018-06-03T09:26:52.000Z</time>
      </trkpt>
      <trkpt lat="44.55982" lon="4.25093">
        <ele>416</ele>
        <time>2018-06-03T09:26:53.000Z</time>
      </trkpt>
      <trkpt lat="44.55981" lon="4.25095">
        <ele>416</ele>
        <time>2018-06-03T09:26:54.000Z</time>
      </trkpt>
      <trkpt lat="44.5598" lon="4.25098">
        <ele>416</ele>
        <time>2018-06-03T09:26:55.000Z</time>
      </trkpt>
      <trkpt lat="44.5598" lon="4.25098">
        <ele>416</ele>
        <time>2018-06-03T09:26:56.000Z</time>
      </trkpt>
      <trkpt lat="44.55977" lon="4.25102">
        <ele>416</ele>
        <time>2018-06-03T09:26:57.000Z</time>
      </trkpt>
      <trkpt lat="44.55976" lon="4.25105">
        <ele>417</ele>
        <time>2018-06-03T09:26:58.000Z</time>
      </trkpt>
      <trkpt lat="44.55975" lon="4.25107">
        <ele>417</ele>
        <time>2018-06-03T09:26:59.000Z</time>
      </trkpt>
      <trkpt lat="44.55974" lon="4.25109">
        <ele>417</ele>
        <time>2018-06-03T09:27:00.000Z</time>
      </trkpt>
      <trkpt lat="44.55973" lon="4.25112">
        <ele>417</ele>
        <time>2018-06-03T09:27:01.000Z</time>
      </trkpt>
      <trkpt lat="44.55972" lon="4.25115">
        <ele>417</ele>
        <time>2018-06-03T09:27:02.000Z</time>
      </trkpt>
      <trkpt lat="44.55972" lon="4.25115">
        <ele>417</ele>
        <time>2018-06-03T09:27:03.000Z</time>
      </trkpt>
      <trkpt lat="44.5597" lon="4.2512">
        <ele>418</ele>
        <time>2018-06-03T09:27:04.000Z</time>
      </trkpt>
      <trkpt lat="44.55969" lon="4.25122">
        <ele>418</ele>
        <time>2018-06-03T09:27:05.000Z</time>
      </trkpt>
      <trkpt lat="44.55969" lon="4.25122">
        <ele>418</ele>
        <time>2018-06-03T09:27:06.000Z</time>
      </trkpt>
      <trkpt lat="44.55966" lon="4.25127">
        <ele>418</ele>
        <time>2018-06-03T09:27:07.000Z</time>
      </trkpt>
      <trkpt lat="44.55965" lon="4.2513">
        <ele>418</ele>
        <time>2018-06-03T09:27:08.000Z</time>
      </trkpt>
      <trkpt lat="44.55964" lon="4.25133">
        <ele>418</ele>
        <time>2018-06-03T09:27:09.000Z</time>
      </trkpt>
      <trkpt lat="44.55962" lon="4.25136">
        <ele>418</ele>
        <time>2018-06-03T09:27:10.000Z</time>
      </trkpt>
      <trkpt lat="44.55961" lon="4.2514">
        <ele>418</ele>
        <time>2018-06-03T09:27:11.000Z</time>
      </trkpt>
      <trkpt lat="44.55959" lon="4.25144">
        <ele>418</ele>
        <time>2018-06-03T09:27:12.000Z</time>
      </trkpt>
      <trkpt lat="44.55958" lon="4.25147">
        <ele>418</ele>
        <time>2018-06-03T09:27:13.000Z</time>
      </trkpt>
      <trkpt lat="44.55956" lon="4.25151">
        <ele>418</ele>
        <time>2018-06-03T09:27:14.000Z</time>
      </trkpt>
      <trkpt lat="44.55955" lon="4.25155">
        <ele>418</ele>
        <time>2018-06-03T09:27:15.000Z</time>
      </trkpt>
      <trkpt lat="44.55955" lon="4.25159">
        <ele>418</ele>
        <time>2018-06-03T09:27:16.000Z</time>
      </trkpt>
      <trkpt lat="44.55954" lon="4.25163">
        <ele>418</ele>
        <time>2018-06-03T09:27:17.000Z</time>
      </trkpt>
      <trkpt lat="44.55953" lon="4.25167">
        <ele>427</ele>
        <time>2018-06-03T09:27:18.000Z</time>
      </trkpt>
      <trkpt lat="44.55952" lon="4.25171">
        <ele>427</ele>
        <time>2018-06-03T09:27:19.000Z</time>
      </trkpt>
      <trkpt lat="44.55951" lon="4.25175">
        <ele>427</ele>
        <time>2018-06-03T09:27:20.000Z</time>
      </trkpt>
      <trkpt lat="44.55949" lon="4.25178">
        <ele>427</ele>
        <time>2018-06-03T09:27:21.000Z</time>
      </trkpt>
      <trkpt lat="44.55946" lon="4.25179">
        <ele>427</ele>
        <time>2018-06-03T09:27:22.000Z</time>
      </trkpt>
      <trkpt lat="44.55943" lon="4.2518">
        <ele>426</ele>
        <time>2018-06-03T09:27:23.000Z</time>
      </trkpt>
      <trkpt lat="44.55943" lon="4.2518">
        <ele>426</ele>
        <time>2018-06-03T09:27:24.000Z</time>
      </trkpt>
      <trkpt lat="44.55937" lon="4.2518">
        <ele>425</ele>
        <time>2018-06-03T09:27:25.000Z</time>
      </trkpt>
      <trkpt lat="44.55934" lon="4.25179">
        <ele>424</ele>
        <time>2018-06-03T09:27:26.000Z</time>
      </trkpt>
      <trkpt lat="44.55931" lon="4.25179">
        <ele>424</ele>
        <time>2018-06-03T09:27:27.000Z</time>
      </trkpt>
      <trkpt lat="44.55927" lon="4.25179">
        <ele>423</ele>
        <time>2018-06-03T09:27:28.000Z</time>
      </trkpt>
      <trkpt lat="44.55923" lon="4.25179">
        <ele>422</ele>
        <time>2018-06-03T09:27:29.000Z</time>
      </trkpt>
      <trkpt lat="44.5592" lon="4.2518">
        <ele>421</ele>
        <time>2018-06-03T09:27:30.000Z</time>
      </trkpt>
      <trkpt lat="44.55916" lon="4.25181">
        <ele>417</ele>
        <time>2018-06-03T09:27:31.000Z</time>
      </trkpt>
      <trkpt lat="44.55911" lon="4.25181">
        <ele>418</ele>
        <time>2018-06-03T09:27:32.000Z</time>
      </trkpt>
      <trkpt lat="44.55907" lon="4.25182">
        <ele>418</ele>
        <time>2018-06-03T09:27:33.000Z</time>
      </trkpt>
      <trkpt lat="44.55903" lon="4.25183">
        <ele>418</ele>
        <time>2018-06-03T09:27:34.000Z</time>
      </trkpt>
      <trkpt lat="44.55899" lon="4.25184">
        <ele>419</ele>
        <time>2018-06-03T09:27:35.000Z</time>
      </trkpt>
      <trkpt lat="44.55895" lon="4.25184">
        <ele>419</ele>
        <time>2018-06-03T09:27:36.000Z</time>
      </trkpt>
      <trkpt lat="44.55891" lon="4.25185">
        <ele>419</ele>
        <time>2018-06-03T09:27:37.000Z</time>
      </trkpt>
      <trkpt lat="44.55886" lon="4.25186">
        <ele>419</ele>
        <time>2018-06-03T09:27:38.000Z</time>
      </trkpt>
      <trkpt lat="44.55882" lon="4.25188">
        <ele>419</ele>
        <time>2018-06-03T09:27:39.000Z</time>
      </trkpt>
      <trkpt lat="44.55877" lon="4.2519">
        <ele>419</ele>
        <time>2018-06-03T09:27:40.000Z</time>
      </trkpt>
      <trkpt lat="44.55877" lon="4.2519">
        <ele>419</ele>
        <time>2018-06-03T09:27:41.000Z</time>
      </trkpt>
      <trkpt lat="44.55872" lon="4.25192">
        <ele>419</ele>
        <time>2018-06-03T09:27:42.000Z</time>
      </trkpt>
      <trkpt lat="44.55863" lon="4.25197">
        <ele>419</ele>
        <time>2018-06-03T09:27:43.000Z</time>
      </trkpt>
      <trkpt lat="44.55863" lon="4.25197">
        <ele>419</ele>
        <time>2018-06-03T09:27:44.000Z</time>
      </trkpt>
      <trkpt lat="44.55858" lon="4.25199">
        <ele>419</ele>
        <time>2018-06-03T09:27:45.000Z</time>
      </trkpt>
      <trkpt lat="44.55852" lon="4.25203">
        <ele>419</ele>
        <time>2018-06-03T09:27:46.000Z</time>
      </trkpt>
      <trkpt lat="44.55847" lon="4.25206">
        <ele>419</ele>
        <time>2018-06-03T09:27:47.000Z</time>
      </trkpt>
      <trkpt lat="44.55842" lon="4.25209">
        <ele>420</ele>
        <time>2018-06-03T09:27:48.000Z</time>
      </trkpt>
      <trkpt lat="44.55836" lon="4.25213">
        <ele>420</ele>
        <time>2018-06-03T09:27:49.000Z</time>
      </trkpt>
      <trkpt lat="44.5583" lon="4.25216">
        <ele>413</ele>
        <time>2018-06-03T09:27:50.000Z</time>
      </trkpt>
      <trkpt lat="44.55824" lon="4.2522">
        <ele>413</ele>
        <time>2018-06-03T09:27:51.000Z</time>
      </trkpt>
      <trkpt lat="44.55819" lon="4.25223">
        <ele>413</ele>
        <time>2018-06-03T09:27:52.000Z</time>
      </trkpt>
      <trkpt lat="44.55813" lon="4.25227">
        <ele>413</ele>
        <time>2018-06-03T09:27:53.000Z</time>
      </trkpt>
      <trkpt lat="44.55807" lon="4.25231">
        <ele>413</ele>
        <time>2018-06-03T09:27:54.000Z</time>
      </trkpt>
      <trkpt lat="44.55802" lon="4.25234">
        <ele>412</ele>
        <time>2018-06-03T09:27:55.000Z</time>
      </trkpt>
      <trkpt lat="44.5579" lon="4.25239">
        <ele>410</ele>
        <time>2018-06-03T09:27:56.000Z</time>
      </trkpt>
      <trkpt lat="44.55784" lon="4.25242">
        <ele>409</ele>
        <time>2018-06-03T09:27:57.000Z</time>
      </trkpt>
      <trkpt lat="44.55778" lon="4.25244">
        <ele>408</ele>
        <time>2018-06-03T09:27:58.000Z</time>
      </trkpt>
      <trkpt lat="44.55772" lon="4.25246">
        <ele>407</ele>
        <time>2018-06-03T09:27:59.000Z</time>
      </trkpt>
      <trkpt lat="44.55766" lon="4.25251">
        <ele>412</ele>
        <time>2018-06-03T09:28:00.000Z</time>
      </trkpt>
      <trkpt lat="44.55762" lon="4.25257">
        <ele>411</ele>
        <time>2018-06-03T09:28:01.000Z</time>
      </trkpt>
      <trkpt lat="44.5576" lon="4.25265">
        <ele>413</ele>
        <time>2018-06-03T09:28:02.000Z</time>
      </trkpt>
      <trkpt lat="44.55759" lon="4.25273">
        <ele>414</ele>
        <time>2018-06-03T09:28:03.000Z</time>
      </trkpt>
      <trkpt lat="44.55759" lon="4.25281">
        <ele>416</ele>
        <time>2018-06-03T09:28:04.000Z</time>
      </trkpt>
      <trkpt lat="44.55759" lon="4.2529">
        <ele>417</ele>
        <time>2018-06-03T09:28:05.000Z</time>
      </trkpt>
      <trkpt lat="44.5576" lon="4.253">
        <ele>418</ele>
        <time>2018-06-03T09:28:06.000Z</time>
      </trkpt>
      <trkpt lat="44.5576" lon="4.2531">
        <ele>417</ele>
        <time>2018-06-03T09:28:07.000Z</time>
      </trkpt>
      <trkpt lat="44.55761" lon="4.25321">
        <ele>416</ele>
        <time>2018-06-03T09:28:08.000Z</time>
      </trkpt>
      <trkpt lat="44.55761" lon="4.25332">
        <ele>416</ele>
        <time>2018-06-03T09:28:09.000Z</time>
      </trkpt>
      <trkpt lat="44.55762" lon="4.25344">
        <ele>423</ele>
        <time>2018-06-03T09:28:10.000Z</time>
      </trkpt>
      <trkpt lat="44.55763" lon="4.25355">
        <ele>427</ele>
        <time>2018-06-03T09:28:11.000Z</time>
      </trkpt>
      <trkpt lat="44.55763" lon="4.25367">
        <ele>430</ele>
        <time>2018-06-03T09:28:12.000Z</time>
      </trkpt>
      <trkpt lat="44.55763" lon="4.25377">
        <ele>431</ele>
        <time>2018-06-03T09:28:13.000Z</time>
      </trkpt>
      <trkpt lat="44.55761" lon="4.25385">
        <ele>432</ele>
        <time>2018-06-03T09:28:14.000Z</time>
      </trkpt>
      <trkpt lat="44.55758" lon="4.25389">
        <ele>432</ele>
        <time>2018-06-03T09:28:15.000Z</time>
      </trkpt>
      <trkpt lat="44.55753" lon="4.25388">
        <ele>431</ele>
        <time>2018-06-03T09:28:16.000Z</time>
      </trkpt>
      <trkpt lat="44.55748" lon="4.25385">
        <ele>426</ele>
        <time>2018-06-03T09:28:17.000Z</time>
      </trkpt>
      <trkpt lat="44.55743" lon="4.25382">
        <ele>426</ele>
        <time>2018-06-03T09:28:18.000Z</time>
      </trkpt>
      <trkpt lat="44.55738" lon="4.25379">
        <ele>426</ele>
        <time>2018-06-03T09:28:19.000Z</time>
      </trkpt>
      <trkpt lat="44.55733" lon="4.25376">
        <ele>426</ele>
        <time>2018-06-03T09:28:20.000Z</time>
      </trkpt>
      <trkpt lat="44.55729" lon="4.25374">
        <ele>426</ele>
        <time>2018-06-03T09:28:21.000Z</time>
      </trkpt>
      <trkpt lat="44.55725" lon="4.25371">
        <ele>426</ele>
        <time>2018-06-03T09:28:22.000Z</time>
      </trkpt>
      <trkpt lat="44.55721" lon="4.25369">
        <ele>426</ele>
        <time>2018-06-03T09:28:23.000Z</time>
      </trkpt>
      <trkpt lat="44.55718" lon="4.25367">
        <ele>426</ele>
        <time>2018-06-03T09:28:24.000Z</time>
      </trkpt>
      <trkpt lat="44.55715" lon="4.25365">
        <ele>426</ele>
        <time>2018-06-03T09:28:25.000Z</time>
      </trkpt>
      <trkpt lat="44.55711" lon="4.25362">
        <ele>426</ele>
        <time>2018-06-03T09:28:26.000Z</time>
      </trkpt>
      <trkpt lat="44.55708" lon="4.25359">
        <ele>426</ele>
        <time>2018-06-03T09:28:27.000Z</time>
      </trkpt>
      <trkpt lat="44.55704" lon="4.25357">
        <ele>426</ele>
        <time>2018-06-03T09:28:28.000Z</time>
      </trkpt>
      <trkpt lat="44.55701" lon="4.25354">
        <ele>426</ele>
        <time>2018-06-03T09:28:29.000Z</time>
      </trkpt>
      <trkpt lat="44.55698" lon="4.25352">
        <ele>426</ele>
        <time>2018-06-03T09:28:30.000Z</time>
      </trkpt>
      <trkpt lat="44.55695" lon="4.25349">
        <ele>426</ele>
        <time>2018-06-03T09:28:31.000Z</time>
      </trkpt>
      <trkpt lat="44.55692" lon="4.25347">
        <ele>426</ele>
        <time>2018-06-03T09:28:32.000Z</time>
      </trkpt>
      <trkpt lat="44.55688" lon="4.25345">
        <ele>426</ele>
        <time>2018-06-03T09:28:33.000Z</time>
      </trkpt>
      <trkpt lat="44.55685" lon="4.25342">
        <ele>426</ele>
        <time>2018-06-03T09:28:34.000Z</time>
      </trkpt>
      <trkpt lat="44.55682" lon="4.25338">
        <ele>426</ele>
        <time>2018-06-03T09:28:35.000Z</time>
      </trkpt>
      <trkpt lat="44.55679" lon="4.25335">
        <ele>426</ele>
        <time>2018-06-03T09:28:36.000Z</time>
      </trkpt>
      <trkpt lat="44.55676" lon="4.25332">
        <ele>421</ele>
        <time>2018-06-03T09:28:37.000Z</time>
      </trkpt>
      <trkpt lat="44.55674" lon="4.2533">
        <ele>421</ele>
        <time>2018-06-03T09:28:38.000Z</time>
      </trkpt>
      <trkpt lat="44.5567" lon="4.25327">
        <ele>421</ele>
        <time>2018-06-03T09:28:39.000Z</time>
      </trkpt>
      <trkpt lat="44.55667" lon="4.25324">
        <ele>421</ele>
        <time>2018-06-03T09:28:40.000Z</time>
      </trkpt>
      <trkpt lat="44.55664" lon="4.25321">
        <ele>423</ele>
        <time>2018-06-03T09:28:41.000Z</time>
      </trkpt>
      <trkpt lat="44.55662" lon="4.25319">
        <ele>422</ele>
        <time>2018-06-03T09:28:42.000Z</time>
      </trkpt>
      <trkpt lat="44.55659" lon="4.25317">
        <ele>422</ele>
        <time>2018-06-03T09:28:43.000Z</time>
      </trkpt>
      <trkpt lat="44.55656" lon="4.25315">
        <ele>422</ele>
        <time>2018-06-03T09:28:44.000Z</time>
      </trkpt>
      <trkpt lat="44.55653" lon="4.25313">
        <ele>421</ele>
        <time>2018-06-03T09:28:45.000Z</time>
      </trkpt>
      <trkpt lat="44.55649" lon="4.25311">
        <ele>421</ele>
        <time>2018-06-03T09:28:46.000Z</time>
      </trkpt>
      <trkpt lat="44.55646" lon="4.25309">
        <ele>421</ele>
        <time>2018-06-03T09:28:47.000Z</time>
      </trkpt>
      <trkpt lat="44.55642" lon="4.25307">
        <ele>421</ele>
        <time>2018-06-03T09:28:48.000Z</time>
      </trkpt>
      <trkpt lat="44.55639" lon="4.25306">
        <ele>421</ele>
        <time>2018-06-03T09:28:49.000Z</time>
      </trkpt>
      <trkpt lat="44.55636" lon="4.25304">
        <ele>421</ele>
        <time>2018-06-03T09:28:50.000Z</time>
      </trkpt>
      <trkpt lat="44.55633" lon="4.25304">
        <ele>421</ele>
        <time>2018-06-03T09:28:51.000Z</time>
      </trkpt>
      <trkpt lat="44.5563" lon="4.25303">
        <ele>421</ele>
        <time>2018-06-03T09:28:52.000Z</time>
      </trkpt>
      <trkpt lat="44.55627" lon="4.25303">
        <ele>421</ele>
        <time>2018-06-03T09:28:53.000Z</time>
      </trkpt>
      <trkpt lat="44.55624" lon="4.25303">
        <ele>421</ele>
        <time>2018-06-03T09:28:54.000Z</time>
      </trkpt>
      <trkpt lat="44.55621" lon="4.25303">
        <ele>421</ele>
        <time>2018-06-03T09:28:55.000Z</time>
      </trkpt>
      <trkpt lat="44.55619" lon="4.25303">
        <ele>421</ele>
        <time>2018-06-03T09:28:56.000Z</time>
      </trkpt>
      <trkpt lat="44.55615" lon="4.25303">
        <ele>421</ele>
        <time>2018-06-03T09:28:57.000Z</time>
      </trkpt>
      <trkpt lat="44.55612" lon="4.25304">
        <ele>422</ele>
        <time>2018-06-03T09:28:58.000Z</time>
      </trkpt>
      <trkpt lat="44.55609" lon="4.25305">
        <ele>422</ele>
        <time>2018-06-03T09:28:59.000Z</time>
      </trkpt>
      <trkpt lat="44.55606" lon="4.25306">
        <ele>422</ele>
        <time>2018-06-03T09:29:00.000Z</time>
      </trkpt>
      <trkpt lat="44.55603" lon="4.25307">
        <ele>423</ele>
        <time>2018-06-03T09:29:01.000Z</time>
      </trkpt>
      <trkpt lat="44.556" lon="4.25309">
        <ele>423</ele>
        <time>2018-06-03T09:29:02.000Z</time>
      </trkpt>
      <trkpt lat="44.55598" lon="4.2531">
        <ele>424</ele>
        <time>2018-06-03T09:29:03.000Z</time>
      </trkpt>
      <trkpt lat="44.55598" lon="4.2531">
        <ele>424</ele>
        <time>2018-06-03T09:29:04.000Z</time>
      </trkpt>
      <trkpt lat="44.55595" lon="4.25311">
        <ele>424</ele>
        <time>2018-06-03T09:29:05.000Z</time>
      </trkpt>
      <trkpt lat="44.55592" lon="4.25312">
        <ele>425</ele>
        <time>2018-06-03T09:29:06.000Z</time>
      </trkpt>
      <trkpt lat="44.55587" lon="4.25315">
        <ele>426</ele>
        <time>2018-06-03T09:29:07.000Z</time>
      </trkpt>
      <trkpt lat="44.55584" lon="4.25317">
        <ele>426</ele>
        <time>2018-06-03T09:29:08.000Z</time>
      </trkpt>
      <trkpt lat="44.55582" lon="4.25319">
        <ele>426</ele>
        <time>2018-06-03T09:29:09.000Z</time>
      </trkpt>
      <trkpt lat="44.55579" lon="4.2532">
        <ele>427</ele>
        <time>2018-06-03T09:29:10.000Z</time>
      </trkpt>
      <trkpt lat="44.55577" lon="4.25322">
        <ele>427</ele>
        <time>2018-06-03T09:29:11.000Z</time>
      </trkpt>
      <trkpt lat="44.55575" lon="4.25324">
        <ele>427</ele>
        <time>2018-06-03T09:29:12.000Z</time>
      </trkpt>
      <trkpt lat="44.55572" lon="4.25325">
        <ele>427</ele>
        <time>2018-06-03T09:29:13.000Z</time>
      </trkpt>
      <trkpt lat="44.5557" lon="4.25327">
        <ele>427</ele>
        <time>2018-06-03T09:29:14.000Z</time>
      </trkpt>
      <trkpt lat="44.55568" lon="4.25329">
        <ele>426</ele>
        <time>2018-06-03T09:29:15.000Z</time>
      </trkpt>
      <trkpt lat="44.55565" lon="4.25332">
        <ele>426</ele>
        <time>2018-06-03T09:29:16.000Z</time>
      </trkpt>
      <trkpt lat="44.55563" lon="4.25334">
        <ele>432</ele>
        <time>2018-06-03T09:29:17.000Z</time>
      </trkpt>
      <trkpt lat="44.55561" lon="4.25336">
        <ele>431</ele>
        <time>2018-06-03T09:29:18.000Z</time>
      </trkpt>
      <trkpt lat="44.55559" lon="4.25339">
        <ele>431</ele>
        <time>2018-06-03T09:29:19.000Z</time>
      </trkpt>
      <trkpt lat="44.55557" lon="4.25341">
        <ele>431</ele>
        <time>2018-06-03T09:29:20.000Z</time>
      </trkpt>
      <trkpt lat="44.55555" lon="4.25343">
        <ele>431</ele>
        <time>2018-06-03T09:29:21.000Z</time>
      </trkpt>
      <trkpt lat="44.55552" lon="4.25345">
        <ele>431</ele>
        <time>2018-06-03T09:29:22.000Z</time>
      </trkpt>
      <trkpt lat="44.5555" lon="4.25347">
        <ele>431</ele>
        <time>2018-06-03T09:29:23.000Z</time>
      </trkpt>
      <trkpt lat="44.55548" lon="4.25349">
        <ele>430</ele>
        <time>2018-06-03T09:29:24.000Z</time>
      </trkpt>
      <trkpt lat="44.55546" lon="4.25352">
        <ele>430</ele>
        <time>2018-06-03T09:29:25.000Z</time>
      </trkpt>
      <trkpt lat="44.55544" lon="4.25354">
        <ele>430</ele>
        <time>2018-06-03T09:29:26.000Z</time>
      </trkpt>
      <trkpt lat="44.55542" lon="4.25356">
        <ele>430</ele>
        <time>2018-06-03T09:29:27.000Z</time>
      </trkpt>
      <trkpt lat="44.5554" lon="4.25359">
        <ele>430</ele>
        <time>2018-06-03T09:29:28.000Z</time>
      </trkpt>
      <trkpt lat="44.55539" lon="4.25362">
        <ele>430</ele>
        <time>2018-06-03T09:29:29.000Z</time>
      </trkpt>
      <trkpt lat="44.55538" lon="4.25365">
        <ele>430</ele>
        <time>2018-06-03T09:29:30.000Z</time>
      </trkpt>
      <trkpt lat="44.55537" lon="4.25368">
        <ele>430</ele>
        <time>2018-06-03T09:29:31.000Z</time>
      </trkpt>
      <trkpt lat="44.55536" lon="4.25372">
        <ele>430</ele>
        <time>2018-06-03T09:29:32.000Z</time>
      </trkpt>
      <trkpt lat="44.55536" lon="4.25375">
        <ele>430</ele>
        <time>2018-06-03T09:29:33.000Z</time>
      </trkpt>
      <trkpt lat="44.55536" lon="4.25378">
        <ele>430</ele>
        <time>2018-06-03T09:29:34.000Z</time>
      </trkpt>
      <trkpt lat="44.55536" lon="4.25381">
        <ele>430</ele>
        <time>2018-06-03T09:29:35.000Z</time>
      </trkpt>
      <trkpt lat="44.55536" lon="4.25384">
        <ele>430</ele>
        <time>2018-06-03T09:29:36.000Z</time>
      </trkpt>
      <trkpt lat="44.55536" lon="4.25388">
        <ele>430</ele>
        <time>2018-06-03T09:29:37.000Z</time>
      </trkpt>
      <trkpt lat="44.55536" lon="4.25391">
        <ele>430</ele>
        <time>2018-06-03T09:29:38.000Z</time>
      </trkpt>
      <trkpt lat="44.55536" lon="4.25395">
        <ele>430</ele>
        <time>2018-06-03T09:29:39.000Z</time>
      </trkpt>
      <trkpt lat="44.55536" lon="4.25398">
        <ele>430</ele>
        <time>2018-06-03T09:29:40.000Z</time>
      </trkpt>
      <trkpt lat="44.55537" lon="4.25401">
        <ele>430</ele>
        <time>2018-06-03T09:29:41.000Z</time>
      </trkpt>
      <trkpt lat="44.55538" lon="4.25405">
        <ele>430</ele>
        <time>2018-06-03T09:29:42.000Z</time>
      </trkpt>
      <trkpt lat="44.55538" lon="4.25407">
        <ele>430</ele>
        <time>2018-06-03T09:29:43.000Z</time>
      </trkpt>
      <trkpt lat="44.55539" lon="4.2541">
        <ele>431</ele>
        <time>2018-06-03T09:29:44.000Z</time>
      </trkpt>
      <trkpt lat="44.5554" lon="4.25412">
        <ele>431</ele>
        <time>2018-06-03T09:29:45.000Z</time>
      </trkpt>
      <trkpt lat="44.55542" lon="4.25415">
        <ele>431</ele>
        <time>2018-06-03T09:29:46.000Z</time>
      </trkpt>
      <trkpt lat="44.55542" lon="4.25419">
        <ele>433</ele>
        <time>2018-06-03T09:29:47.000Z</time>
      </trkpt>
      <trkpt lat="44.55543" lon="4.25423">
        <ele>433</ele>
        <time>2018-06-03T09:29:48.000Z</time>
      </trkpt>
      <trkpt lat="44.55544" lon="4.25427">
        <ele>434</ele>
        <time>2018-06-03T09:29:49.000Z</time>
      </trkpt>
      <trkpt lat="44.55545" lon="4.2543">
        <ele>434</ele>
        <time>2018-06-03T09:29:50.000Z</time>
      </trkpt>
      <trkpt lat="44.55546" lon="4.25434">
        <ele>434</ele>
        <time>2018-06-03T09:29:51.000Z</time>
      </trkpt>
      <trkpt lat="44.55548" lon="4.25437">
        <ele>434</ele>
        <time>2018-06-03T09:29:52.000Z</time>
      </trkpt>
      <trkpt lat="44.55549" lon="4.2544">
        <ele>435</ele>
        <time>2018-06-03T09:29:53.000Z</time>
      </trkpt>
      <trkpt lat="44.55551" lon="4.25443">
        <ele>435</ele>
        <time>2018-06-03T09:29:54.000Z</time>
      </trkpt>
      <trkpt lat="44.55554" lon="4.25446">
        <ele>435</ele>
        <time>2018-06-03T09:29:55.000Z</time>
      </trkpt>
      <trkpt lat="44.55556" lon="4.2545">
        <ele>436</ele>
        <time>2018-06-03T09:29:56.000Z</time>
      </trkpt>
      <trkpt lat="44.55557" lon="4.25453">
        <ele>436</ele>
        <time>2018-06-03T09:29:57.000Z</time>
      </trkpt>
      <trkpt lat="44.5556" lon="4.25457">
        <ele>436</ele>
        <time>2018-06-03T09:29:58.000Z</time>
      </trkpt>
      <trkpt lat="44.55562" lon="4.2546">
        <ele>437</ele>
        <time>2018-06-03T09:29:59.000Z</time>
      </trkpt>
      <trkpt lat="44.55563" lon="4.25464">
        <ele>437</ele>
        <time>2018-06-03T09:30:00.000Z</time>
      </trkpt>
      <trkpt lat="44.55565" lon="4.25468">
        <ele>438</ele>
        <time>2018-06-03T09:30:01.000Z</time>
      </trkpt>
      <trkpt lat="44.55566" lon="4.25472">
        <ele>438</ele>
        <time>2018-06-03T09:30:02.000Z</time>
      </trkpt>
      <trkpt lat="44.55567" lon="4.25476">
        <ele>439</ele>
        <time>2018-06-03T09:30:03.000Z</time>
      </trkpt>
      <trkpt lat="44.55568" lon="4.2548">
        <ele>440</ele>
        <time>2018-06-03T09:30:04.000Z</time>
      </trkpt>
      <trkpt lat="44.55569" lon="4.25483">
        <ele>440</ele>
        <time>2018-06-03T09:30:05.000Z</time>
      </trkpt>
      <trkpt lat="44.5557" lon="4.25487">
        <ele>441</ele>
        <time>2018-06-03T09:30:06.000Z</time>
      </trkpt>
      <trkpt lat="44.55571" lon="4.2549">
        <ele>442</ele>
        <time>2018-06-03T09:30:07.000Z</time>
      </trkpt>
      <trkpt lat="44.55571" lon="4.25493">
        <ele>443</ele>
        <time>2018-06-03T09:30:08.000Z</time>
      </trkpt>
      <trkpt lat="44.55572" lon="4.25497">
        <ele>444</ele>
        <time>2018-06-03T09:30:09.000Z</time>
      </trkpt>
      <trkpt lat="44.55574" lon="4.255">
        <ele>447</ele>
        <time>2018-06-03T09:30:10.000Z</time>
      </trkpt>
      <trkpt lat="44.55575" lon="4.25504">
        <ele>447</ele>
        <time>2018-06-03T09:30:11.000Z</time>
      </trkpt>
      <trkpt lat="44.55577" lon="4.25507">
        <ele>447</ele>
        <time>2018-06-03T09:30:12.000Z</time>
      </trkpt>
      <trkpt lat="44.55579" lon="4.25511">
        <ele>446</ele>
        <time>2018-06-03T09:30:13.000Z</time>
      </trkpt>
      <trkpt lat="44.5558" lon="4.25514">
        <ele>446</ele>
        <time>2018-06-03T09:30:14.000Z</time>
      </trkpt>
      <trkpt lat="44.55582" lon="4.25517">
        <ele>445</ele>
        <time>2018-06-03T09:30:15.000Z</time>
      </trkpt>
      <trkpt lat="44.55583" lon="4.2552">
        <ele>445</ele>
        <time>2018-06-03T09:30:16.000Z</time>
      </trkpt>
      <trkpt lat="44.55584" lon="4.25524">
        <ele>457</ele>
        <time>2018-06-03T09:30:17.000Z</time>
      </trkpt>
      <trkpt lat="44.55584" lon="4.25527">
        <ele>458</ele>
        <time>2018-06-03T09:30:18.000Z</time>
      </trkpt>
      <trkpt lat="44.55586" lon="4.2553">
        <ele>458</ele>
        <time>2018-06-03T09:30:19.000Z</time>
      </trkpt>
      <trkpt lat="44.55587" lon="4.25533">
        <ele>459</ele>
        <time>2018-06-03T09:30:20.000Z</time>
      </trkpt>
      <trkpt lat="44.55587" lon="4.25536">
        <ele>459</ele>
        <time>2018-06-03T09:30:21.000Z</time>
      </trkpt>
      <trkpt lat="44.55586" lon="4.25541">
        <ele>459</ele>
        <time>2018-06-03T09:30:22.000Z</time>
      </trkpt>
      <trkpt lat="44.55586" lon="4.25546">
        <ele>460</ele>
        <time>2018-06-03T09:30:23.000Z</time>
      </trkpt>
      <trkpt lat="44.55586" lon="4.25546">
        <ele>460</ele>
        <time>2018-06-03T09:30:24.000Z</time>
      </trkpt>
      <trkpt lat="44.55582" lon="4.25558">
        <ele>446</ele>
        <time>2018-06-03T09:30:25.000Z</time>
      </trkpt>
      <trkpt lat="44.55582" lon="4.25558">
        <ele>446</ele>
        <time>2018-06-03T09:30:26.000Z</time>
      </trkpt>
      <trkpt lat="44.55577" lon="4.25568">
        <ele>448</ele>
        <time>2018-06-03T09:30:27.000Z</time>
      </trkpt>
      <trkpt lat="44.55574" lon="4.25574">
        <ele>449</ele>
        <time>2018-06-03T09:30:28.000Z</time>
      </trkpt>
      <trkpt lat="44.55571" lon="4.25579">
        <ele>449</ele>
        <time>2018-06-03T09:30:29.000Z</time>
      </trkpt>
      <trkpt lat="44.55569" lon="4.25584">
        <ele>453</ele>
        <time>2018-06-03T09:30:30.000Z</time>
      </trkpt>
      <trkpt lat="44.55566" lon="4.25589">
        <ele>453</ele>
        <time>2018-06-03T09:30:31.000Z</time>
      </trkpt>
      <trkpt lat="44.55562" lon="4.25593">
        <ele>452</ele>
        <time>2018-06-03T09:30:32.000Z</time>
      </trkpt>
      <trkpt lat="44.5556" lon="4.25598">
        <ele>452</ele>
        <time>2018-06-03T09:30:33.000Z</time>
      </trkpt>
      <trkpt lat="44.55557" lon="4.25603">
        <ele>451</ele>
        <time>2018-06-03T09:30:34.000Z</time>
      </trkpt>
      <trkpt lat="44.55555" lon="4.25608">
        <ele>451</ele>
        <time>2018-06-03T09:30:35.000Z</time>
      </trkpt>
      <trkpt lat="44.55555" lon="4.25608">
        <ele>451</ele>
        <time>2018-06-03T09:30:36.000Z</time>
      </trkpt>
      <trkpt lat="44.55553" lon="4.25613">
        <ele>451</ele>
        <time>2018-06-03T09:30:37.000Z</time>
      </trkpt>
      <trkpt lat="44.5555" lon="4.25624">
        <ele>451</ele>
        <time>2018-06-03T09:30:38.000Z</time>
      </trkpt>
      <trkpt lat="44.55549" lon="4.2563">
        <ele>452</ele>
        <time>2018-06-03T09:30:39.000Z</time>
      </trkpt>
      <trkpt lat="44.55549" lon="4.2563">
        <ele>452</ele>
        <time>2018-06-03T09:30:40.000Z</time>
      </trkpt>
      <trkpt lat="44.55545" lon="4.2564">
        <ele>452</ele>
        <time>2018-06-03T09:30:41.000Z</time>
      </trkpt>
      <trkpt lat="44.55545" lon="4.2564">
        <ele>452</ele>
        <time>2018-06-03T09:30:42.000Z</time>
      </trkpt>
      <trkpt lat="44.55541" lon="4.25648">
        <ele>452</ele>
        <time>2018-06-03T09:30:43.000Z</time>
      </trkpt>
      <trkpt lat="44.55541" lon="4.25648">
        <ele>452</ele>
        <time>2018-06-03T09:30:44.000Z</time>
      </trkpt>
      <trkpt lat="44.55539" lon="4.25652">
        <ele>452</ele>
        <time>2018-06-03T09:30:45.000Z</time>
      </trkpt>
      <trkpt lat="44.55534" lon="4.2566">
        <ele>451</ele>
        <time>2018-06-03T09:30:46.000Z</time>
      </trkpt>
      <trkpt lat="44.55531" lon="4.25663">
        <ele>451</ele>
        <time>2018-06-03T09:30:47.000Z</time>
      </trkpt>
      <trkpt lat="44.55528" lon="4.25667">
        <ele>459</ele>
        <time>2018-06-03T09:30:48.000Z</time>
      </trkpt>
      <trkpt lat="44.55525" lon="4.25671">
        <ele>459</ele>
        <time>2018-06-03T09:30:49.000Z</time>
      </trkpt>
      <trkpt lat="44.55522" lon="4.25674">
        <ele>459</ele>
        <time>2018-06-03T09:30:50.000Z</time>
      </trkpt>
      <trkpt lat="44.5552" lon="4.25677">
        <ele>458</ele>
        <time>2018-06-03T09:30:51.000Z</time>
      </trkpt>
      <trkpt lat="44.55517" lon="4.25681">
        <ele>458</ele>
        <time>2018-06-03T09:30:52.000Z</time>
      </trkpt>
      <trkpt lat="44.55514" lon="4.25685">
        <ele>458</ele>
        <time>2018-06-03T09:30:53.000Z</time>
      </trkpt>
      <trkpt lat="44.55511" lon="4.25688">
        <ele>459</ele>
        <time>2018-06-03T09:30:54.000Z</time>
      </trkpt>
      <trkpt lat="44.55508" lon="4.25692">
        <ele>459</ele>
        <time>2018-06-03T09:30:55.000Z</time>
      </trkpt>
      <trkpt lat="44.55506" lon="4.25695">
        <ele>460</ele>
        <time>2018-06-03T09:30:56.000Z</time>
      </trkpt>
      <trkpt lat="44.55502" lon="4.25699">
        <ele>460</ele>
        <time>2018-06-03T09:30:57.000Z</time>
      </trkpt>
      <trkpt lat="44.55499" lon="4.25702">
        <ele>451</ele>
        <time>2018-06-03T09:30:58.000Z</time>
      </trkpt>
      <trkpt lat="44.55495" lon="4.25705">
        <ele>452</ele>
        <time>2018-06-03T09:30:59.000Z</time>
      </trkpt>
      <trkpt lat="44.55492" lon="4.25709">
        <ele>452</ele>
        <time>2018-06-03T09:31:00.000Z</time>
      </trkpt>
      <trkpt lat="44.55489" lon="4.25712">
        <ele>452</ele>
        <time>2018-06-03T09:31:01.000Z</time>
      </trkpt>
      <trkpt lat="44.55486" lon="4.25716">
        <ele>453</ele>
        <time>2018-06-03T09:31:02.000Z</time>
      </trkpt>
      <trkpt lat="44.55483" lon="4.25719">
        <ele>453</ele>
        <time>2018-06-03T09:31:03.000Z</time>
      </trkpt>
      <trkpt lat="44.55481" lon="4.25723">
        <ele>453</ele>
        <time>2018-06-03T09:31:04.000Z</time>
      </trkpt>
      <trkpt lat="44.55479" lon="4.25726">
        <ele>454</ele>
        <time>2018-06-03T09:31:05.000Z</time>
      </trkpt>
      <trkpt lat="44.55479" lon="4.25726">
        <ele>454</ele>
        <time>2018-06-03T09:31:06.000Z</time>
      </trkpt>
      <trkpt lat="44.55476" lon="4.25729">
        <ele>454</ele>
        <time>2018-06-03T09:31:07.000Z</time>
      </trkpt>
      <trkpt lat="44.55473" lon="4.25732">
        <ele>454</ele>
        <time>2018-06-03T09:31:08.000Z</time>
      </trkpt>
      <trkpt lat="44.55469" lon="4.25738">
        <ele>454</ele>
        <time>2018-06-03T09:31:09.000Z</time>
      </trkpt>
      <trkpt lat="44.55466" lon="4.25741">
        <ele>453</ele>
        <time>2018-06-03T09:31:10.000Z</time>
      </trkpt>
      <trkpt lat="44.55466" lon="4.25741">
        <ele>453</ele>
        <time>2018-06-03T09:31:11.000Z</time>
      </trkpt>
      <trkpt lat="44.55461" lon="4.25746">
        <ele>453</ele>
        <time>2018-06-03T09:31:12.000Z</time>
      </trkpt>
      <trkpt lat="44.55458" lon="4.25749">
        <ele>453</ele>
        <time>2018-06-03T09:31:13.000Z</time>
      </trkpt>
      <trkpt lat="44.55455" lon="4.25752">
        <ele>462</ele>
        <time>2018-06-03T09:31:14.000Z</time>
      </trkpt>
      <trkpt lat="44.55455" lon="4.25752">
        <ele>462</ele>
        <time>2018-06-03T09:31:15.000Z</time>
      </trkpt>
      <trkpt lat="44.55453" lon="4.25755">
        <ele>461</ele>
        <time>2018-06-03T09:31:16.000Z</time>
      </trkpt>
      <trkpt lat="44.5545" lon="4.25758">
        <ele>461</ele>
        <time>2018-06-03T09:31:17.000Z</time>
      </trkpt>
      <trkpt lat="44.55448" lon="4.25761">
        <ele>461</ele>
        <time>2018-06-03T09:31:18.000Z</time>
      </trkpt>
      <trkpt lat="44.55442" lon="4.25767">
        <ele>461</ele>
        <time>2018-06-03T09:31:19.000Z</time>
      </trkpt>
      <trkpt lat="44.5544" lon="4.2577">
        <ele>461</ele>
        <time>2018-06-03T09:31:20.000Z</time>
      </trkpt>
      <trkpt lat="44.5544" lon="4.2577">
        <ele>461</ele>
        <time>2018-06-03T09:31:21.000Z</time>
      </trkpt>
      <trkpt lat="44.55437" lon="4.25773">
        <ele>461</ele>
        <time>2018-06-03T09:31:22.000Z</time>
      </trkpt>
      <trkpt lat="44.55435" lon="4.25776">
        <ele>461</ele>
        <time>2018-06-03T09:31:23.000Z</time>
      </trkpt>
      <trkpt lat="44.55432" lon="4.25779">
        <ele>461</ele>
        <time>2018-06-03T09:31:24.000Z</time>
      </trkpt>
      <trkpt lat="44.55429" lon="4.25782">
        <ele>461</ele>
        <time>2018-06-03T09:31:25.000Z</time>
      </trkpt>
      <trkpt lat="44.55427" lon="4.25785">
        <ele>461</ele>
        <time>2018-06-03T09:31:26.000Z</time>
      </trkpt>
      <trkpt lat="44.55424" lon="4.25788">
        <ele>461</ele>
        <time>2018-06-03T09:31:27.000Z</time>
      </trkpt>
      <trkpt lat="44.55421" lon="4.25792">
        <ele>462</ele>
        <time>2018-06-03T09:31:28.000Z</time>
      </trkpt>
      <trkpt lat="44.55418" lon="4.25795">
        <ele>462</ele>
        <time>2018-06-03T09:31:29.000Z</time>
      </trkpt>
      <trkpt lat="44.55416" lon="4.25799">
        <ele>455</ele>
        <time>2018-06-03T09:31:30.000Z</time>
      </trkpt>
      <trkpt lat="44.55413" lon="4.25803">
        <ele>455</ele>
        <time>2018-06-03T09:31:31.000Z</time>
      </trkpt>
      <trkpt lat="44.55411" lon="4.25806">
        <ele>456</ele>
        <time>2018-06-03T09:31:32.000Z</time>
      </trkpt>
      <trkpt lat="44.55408" lon="4.2581">
        <ele>456</ele>
        <time>2018-06-03T09:31:33.000Z</time>
      </trkpt>
      <trkpt lat="44.55405" lon="4.25813">
        <ele>456</ele>
        <time>2018-06-03T09:31:34.000Z</time>
      </trkpt>
      <trkpt lat="44.55402" lon="4.25816">
        <ele>456</ele>
        <time>2018-06-03T09:31:35.000Z</time>
      </trkpt>
      <trkpt lat="44.55399" lon="4.25819">
        <ele>456</ele>
        <time>2018-06-03T09:31:36.000Z</time>
      </trkpt>
      <trkpt lat="44.55396" lon="4.25823">
        <ele>456</ele>
        <time>2018-06-03T09:31:37.000Z</time>
      </trkpt>
      <trkpt lat="44.55393" lon="4.25826">
        <ele>456</ele>
        <time>2018-06-03T09:31:38.000Z</time>
      </trkpt>
      <trkpt lat="44.5539" lon="4.2583">
        <ele>456</ele>
        <time>2018-06-03T09:31:39.000Z</time>
      </trkpt>
      <trkpt lat="44.55388" lon="4.25834">
        <ele>459</ele>
        <time>2018-06-03T09:31:40.000Z</time>
      </trkpt>
      <trkpt lat="44.55385" lon="4.25838">
        <ele>459</ele>
        <time>2018-06-03T09:31:41.000Z</time>
      </trkpt>
      <trkpt lat="44.55383" lon="4.25843">
        <ele>458</ele>
        <time>2018-06-03T09:31:42.000Z</time>
      </trkpt>
      <trkpt lat="44.55379" lon="4.25852">
        <ele>458</ele>
        <time>2018-06-03T09:31:43.000Z</time>
      </trkpt>
      <trkpt lat="44.55377" lon="4.25856">
        <ele>458</ele>
        <time>2018-06-03T09:31:44.000Z</time>
      </trkpt>
      <trkpt lat="44.55376" lon="4.25861">
        <ele>458</ele>
        <time>2018-06-03T09:31:45.000Z</time>
      </trkpt>
      <trkpt lat="44.55374" lon="4.25866">
        <ele>458</ele>
        <time>2018-06-03T09:31:46.000Z</time>
      </trkpt>
      <trkpt lat="44.55372" lon="4.25871">
        <ele>458</ele>
        <time>2018-06-03T09:31:47.000Z</time>
      </trkpt>
      <trkpt lat="44.55372" lon="4.25871">
        <ele>458</ele>
        <time>2018-06-03T09:31:48.000Z</time>
      </trkpt>
      <trkpt lat="44.55369" lon="4.25881">
        <ele>457</ele>
        <time>2018-06-03T09:31:49.000Z</time>
      </trkpt>
      <trkpt lat="44.55367" lon="4.25887">
        <ele>457</ele>
        <time>2018-06-03T09:31:50.000Z</time>
      </trkpt>
      <trkpt lat="44.55366" lon="4.25892">
        <ele>457</ele>
        <time>2018-06-03T09:31:51.000Z</time>
      </trkpt>
      <trkpt lat="44.55366" lon="4.25892">
        <ele>457</ele>
        <time>2018-06-03T09:31:52.000Z</time>
      </trkpt>
      <trkpt lat="44.55365" lon="4.25898">
        <ele>457</ele>
        <time>2018-06-03T09:31:53.000Z</time>
      </trkpt>
      <trkpt lat="44.55363" lon="4.25904">
        <ele>457</ele>
        <time>2018-06-03T09:31:54.000Z</time>
      </trkpt>
      <trkpt lat="44.55362" lon="4.2591">
        <ele>457</ele>
        <time>2018-06-03T09:31:55.000Z</time>
      </trkpt>
      <trkpt lat="44.5536" lon="4.25915">
        <ele>456</ele>
        <time>2018-06-03T09:31:56.000Z</time>
      </trkpt>
      <trkpt lat="44.55358" lon="4.25927">
        <ele>456</ele>
        <time>2018-06-03T09:31:57.000Z</time>
      </trkpt>
      <trkpt lat="44.55357" lon="4.25933">
        <ele>456</ele>
        <time>2018-06-03T09:31:58.000Z</time>
      </trkpt>
      <trkpt lat="44.55357" lon="4.25933">
        <ele>456</ele>
        <time>2018-06-03T09:31:59.000Z</time>
      </trkpt>
      <trkpt lat="44.55355" lon="4.2594">
        <ele>456</ele>
        <time>2018-06-03T09:32:00.000Z</time>
      </trkpt>
      <trkpt lat="44.55354" lon="4.25946">
        <ele>456</ele>
        <time>2018-06-03T09:32:01.000Z</time>
      </trkpt>
      <trkpt lat="44.55353" lon="4.25953">
        <ele>456</ele>
        <time>2018-06-03T09:32:02.000Z</time>
      </trkpt>
      <trkpt lat="44.55351" lon="4.2596">
        <ele>456</ele>
        <time>2018-06-03T09:32:03.000Z</time>
      </trkpt>
      <trkpt lat="44.5535" lon="4.25968">
        <ele>456</ele>
        <time>2018-06-03T09:32:04.000Z</time>
      </trkpt>
      <trkpt lat="44.55348" lon="4.25976">
        <ele>455</ele>
        <time>2018-06-03T09:32:05.000Z</time>
      </trkpt>
      <trkpt lat="44.55347" lon="4.25985">
        <ele>455</ele>
        <time>2018-06-03T09:32:06.000Z</time>
      </trkpt>
      <trkpt lat="44.55346" lon="4.25994">
        <ele>455</ele>
        <time>2018-06-03T09:32:07.000Z</time>
      </trkpt>
      <trkpt lat="44.55344" lon="4.26003">
        <ele>454</ele>
        <time>2018-06-03T09:32:08.000Z</time>
      </trkpt>
      <trkpt lat="44.55343" lon="4.26012">
        <ele>454</ele>
        <time>2018-06-03T09:32:09.000Z</time>
      </trkpt>
      <trkpt lat="44.55341" lon="4.26022">
        <ele>454</ele>
        <time>2018-06-03T09:32:10.000Z</time>
      </trkpt>
      <trkpt lat="44.5534" lon="4.26032">
        <ele>454</ele>
        <time>2018-06-03T09:32:11.000Z</time>
      </trkpt>
      <trkpt lat="44.55338" lon="4.26042">
        <ele>454</ele>
        <time>2018-06-03T09:32:12.000Z</time>
      </trkpt>
      <trkpt lat="44.55337" lon="4.26053">
        <ele>454</ele>
        <time>2018-06-03T09:32:13.000Z</time>
      </trkpt>
      <trkpt lat="44.55335" lon="4.26064">
        <ele>454</ele>
        <time>2018-06-03T09:32:14.000Z</time>
      </trkpt>
      <trkpt lat="44.55334" lon="4.26075">
        <ele>454</ele>
        <time>2018-06-03T09:32:15.000Z</time>
      </trkpt>
      <trkpt lat="44.55331" lon="4.26098">
        <ele>452</ele>
        <time>2018-06-03T09:32:16.000Z</time>
      </trkpt>
      <trkpt lat="44.5533" lon="4.2611">
        <ele>451</ele>
        <time>2018-06-03T09:32:17.000Z</time>
      </trkpt>
      <trkpt lat="44.5533" lon="4.2611">
        <ele>451</ele>
        <time>2018-06-03T09:32:18.000Z</time>
      </trkpt>
      <trkpt lat="44.55327" lon="4.26133">
        <ele>451</ele>
        <time>2018-06-03T09:32:19.000Z</time>
      </trkpt>
      <trkpt lat="44.55327" lon="4.26133">
        <ele>451</ele>
        <time>2018-06-03T09:32:20.000Z</time>
      </trkpt>
      <trkpt lat="44.55326" lon="4.26141">
        <ele>451</ele>
        <time>2018-06-03T09:32:21.000Z</time>
      </trkpt>
      <trkpt lat="44.55322" lon="4.26151">
        <ele>451</ele>
        <time>2018-06-03T09:32:22.000Z</time>
      </trkpt>
      <trkpt lat="44.55319" lon="4.26152">
        <ele>451</ele>
        <time>2018-06-03T09:32:23.000Z</time>
      </trkpt>
      <trkpt lat="44.55319" lon="4.26152">
        <ele>451</ele>
        <time>2018-06-03T09:32:24.000Z</time>
      </trkpt>
      <trkpt lat="44.55315" lon="4.26147">
        <ele>451</ele>
        <time>2018-06-03T09:32:25.000Z</time>
      </trkpt>
      <trkpt lat="44.55313" lon="4.26142">
        <ele>451</ele>
        <time>2018-06-03T09:32:26.000Z</time>
      </trkpt>
      <trkpt lat="44.55311" lon="4.26137">
        <ele>451</ele>
        <time>2018-06-03T09:32:27.000Z</time>
      </trkpt>
      <trkpt lat="44.55308" lon="4.26133">
        <ele>450</ele>
        <time>2018-06-03T09:32:28.000Z</time>
      </trkpt>
      <trkpt lat="44.55308" lon="4.26133">
        <ele>450</ele>
        <time>2018-06-03T09:32:29.000Z</time>
      </trkpt>
      <trkpt lat="44.55306" lon="4.26128">
        <ele>450</ele>
        <time>2018-06-03T09:32:30.000Z</time>
      </trkpt>
      <trkpt lat="44.55302" lon="4.26118">
        <ele>450</ele>
        <time>2018-06-03T09:32:31.000Z</time>
      </trkpt>
      <trkpt lat="44.55302" lon="4.26118">
        <ele>450</ele>
        <time>2018-06-03T09:32:32.000Z</time>
      </trkpt>
      <trkpt lat="44.55299" lon="4.26112">
        <ele>450</ele>
        <time>2018-06-03T09:32:33.000Z</time>
      </trkpt>
      <trkpt lat="44.55294" lon="4.26101">
        <ele>450</ele>
        <time>2018-06-03T09:32:34.000Z</time>
      </trkpt>
      <trkpt lat="44.55294" lon="4.26101">
        <ele>450</ele>
        <time>2018-06-03T09:32:35.000Z</time>
      </trkpt>
      <trkpt lat="44.55292" lon="4.26094">
        <ele>450</ele>
        <time>2018-06-03T09:32:36.000Z</time>
      </trkpt>
      <trkpt lat="44.55289" lon="4.26087">
        <ele>449</ele>
        <time>2018-06-03T09:32:37.000Z</time>
      </trkpt>
      <trkpt lat="44.55285" lon="4.26074">
        <ele>449</ele>
        <time>2018-06-03T09:32:38.000Z</time>
      </trkpt>
      <trkpt lat="44.55283" lon="4.26068">
        <ele>449</ele>
        <time>2018-06-03T09:32:39.000Z</time>
      </trkpt>
      <trkpt lat="44.55282" lon="4.26063">
        <ele>448</ele>
        <time>2018-06-03T09:32:40.000Z</time>
      </trkpt>
      <trkpt lat="44.5528" lon="4.26059">
        <ele>448</ele>
        <time>2018-06-03T09:32:41.000Z</time>
      </trkpt>
      <trkpt lat="44.55279" lon="4.26054">
        <ele>448</ele>
        <time>2018-06-03T09:32:42.000Z</time>
      </trkpt>
      <trkpt lat="44.55277" lon="4.2605">
        <ele>448</ele>
        <time>2018-06-03T09:32:43.000Z</time>
      </trkpt>
      <trkpt lat="44.55277" lon="4.2605">
        <ele>448</ele>
        <time>2018-06-03T09:32:44.000Z</time>
      </trkpt>
      <trkpt lat="44.55274" lon="4.26043">
        <ele>448</ele>
        <time>2018-06-03T09:32:45.000Z</time>
      </trkpt>
      <trkpt lat="44.55274" lon="4.26043">
        <ele>448</ele>
        <time>2018-06-03T09:32:46.000Z</time>
      </trkpt>
      <trkpt lat="44.55272" lon="4.26039">
        <ele>448</ele>
        <time>2018-06-03T09:32:47.000Z</time>
      </trkpt>
      <trkpt lat="44.5527" lon="4.26035">
        <ele>448</ele>
        <time>2018-06-03T09:32:48.000Z</time>
      </trkpt>
      <trkpt lat="44.55269" lon="4.2603">
        <ele>448</ele>
        <time>2018-06-03T09:32:49.000Z</time>
      </trkpt>
      <trkpt lat="44.55269" lon="4.26026">
        <ele>447</ele>
        <time>2018-06-03T09:32:50.000Z</time>
      </trkpt>
      <trkpt lat="44.55268" lon="4.26022">
        <ele>447</ele>
        <time>2018-06-03T09:32:51.000Z</time>
      </trkpt>
      <trkpt lat="44.55267" lon="4.26017">
        <ele>447</ele>
        <time>2018-06-03T09:32:52.000Z</time>
      </trkpt>
      <trkpt lat="44.55266" lon="4.26012">
        <ele>446</ele>
        <time>2018-06-03T09:32:53.000Z</time>
      </trkpt>
      <trkpt lat="44.55264" lon="4.26006">
        <ele>446</ele>
        <time>2018-06-03T09:32:54.000Z</time>
      </trkpt>
      <trkpt lat="44.55262" lon="4.26001">
        <ele>445</ele>
        <time>2018-06-03T09:32:55.000Z</time>
      </trkpt>
      <trkpt lat="44.5526" lon="4.25994">
        <ele>445</ele>
        <time>2018-06-03T09:32:56.000Z</time>
      </trkpt>
      <trkpt lat="44.55258" lon="4.25989">
        <ele>445</ele>
        <time>2018-06-03T09:32:57.000Z</time>
      </trkpt>
      <trkpt lat="44.55256" lon="4.25983">
        <ele>446</ele>
        <time>2018-06-03T09:32:58.000Z</time>
      </trkpt>
      <trkpt lat="44.55254" lon="4.25978">
        <ele>446</ele>
        <time>2018-06-03T09:32:59.000Z</time>
      </trkpt>
      <trkpt lat="44.55252" lon="4.25972">
        <ele>446</ele>
        <time>2018-06-03T09:33:00.000Z</time>
      </trkpt>
      <trkpt lat="44.55251" lon="4.25968">
        <ele>446</ele>
        <time>2018-06-03T09:33:01.000Z</time>
      </trkpt>
      <trkpt lat="44.55249" lon="4.25961">
        <ele>439</ele>
        <time>2018-06-03T09:33:02.000Z</time>
      </trkpt>
      <trkpt lat="44.55248" lon="4.25958">
        <ele>439</ele>
        <time>2018-06-03T09:33:03.000Z</time>
      </trkpt>
      <trkpt lat="44.55248" lon="4.25955">
        <ele>439</ele>
        <time>2018-06-03T09:33:04.000Z</time>
      </trkpt>
      <trkpt lat="44.55247" lon="4.25952">
        <ele>439</ele>
        <time>2018-06-03T09:33:05.000Z</time>
      </trkpt>
      <trkpt lat="44.55247" lon="4.25949">
        <ele>439</ele>
        <time>2018-06-03T09:33:06.000Z</time>
      </trkpt>
      <trkpt lat="44.55246" lon="4.25945">
        <ele>439</ele>
        <time>2018-06-03T09:33:07.000Z</time>
      </trkpt>
      <trkpt lat="44.55244" lon="4.25942">
        <ele>440</ele>
        <time>2018-06-03T09:33:08.000Z</time>
      </trkpt>
      <trkpt lat="44.55243" lon="4.25938">
        <ele>440</ele>
        <time>2018-06-03T09:33:09.000Z</time>
      </trkpt>
      <trkpt lat="44.55242" lon="4.25935">
        <ele>440</ele>
        <time>2018-06-03T09:33:10.000Z</time>
      </trkpt>
      <trkpt lat="44.5524" lon="4.25933">
        <ele>440</ele>
        <time>2018-06-03T09:33:11.000Z</time>
      </trkpt>
      <trkpt lat="44.5524" lon="4.25933">
        <ele>440</ele>
        <time>2018-06-03T09:33:12.000Z</time>
      </trkpt>
      <trkpt lat="44.55235" lon="4.25931">
        <ele>440</ele>
        <time>2018-06-03T09:33:13.000Z</time>
      </trkpt>
      <trkpt lat="44.55235" lon="4.25931">
        <ele>440</ele>
        <time>2018-06-03T09:33:14.000Z</time>
      </trkpt>
      <trkpt lat="44.55232" lon="4.2593">
        <ele>439</ele>
        <time>2018-06-03T09:33:15.000Z</time>
      </trkpt>
      <trkpt lat="44.5523" lon="4.25928">
        <ele>439</ele>
        <time>2018-06-03T09:33:16.000Z</time>
      </trkpt>
      <trkpt lat="44.55227" lon="4.25926">
        <ele>439</ele>
        <time>2018-06-03T09:33:17.000Z</time>
      </trkpt>
      <trkpt lat="44.55224" lon="4.25925">
        <ele>439</ele>
        <time>2018-06-03T09:33:18.000Z</time>
      </trkpt>
      <trkpt lat="44.55221" lon="4.25923">
        <ele>438</ele>
        <time>2018-06-03T09:33:19.000Z</time>
      </trkpt>
      <trkpt lat="44.55217" lon="4.25921">
        <ele>438</ele>
        <time>2018-06-03T09:33:20.000Z</time>
      </trkpt>
      <trkpt lat="44.55214" lon="4.2592">
        <ele>437</ele>
        <time>2018-06-03T09:33:21.000Z</time>
      </trkpt>
      <trkpt lat="44.55211" lon="4.25918">
        <ele>437</ele>
        <time>2018-06-03T09:33:22.000Z</time>
      </trkpt>
      <trkpt lat="44.55204" lon="4.25913">
        <ele>436</ele>
        <time>2018-06-03T09:33:23.000Z</time>
      </trkpt>
      <trkpt lat="44.55204" lon="4.25913">
        <ele>436</ele>
        <time>2018-06-03T09:33:24.000Z</time>
      </trkpt>
      <trkpt lat="44.552" lon="4.25906">
        <ele>436</ele>
        <time>2018-06-03T09:33:25.000Z</time>
      </trkpt>
      <trkpt lat="44.55199" lon="4.25902">
        <ele>436</ele>
        <time>2018-06-03T09:33:26.000Z</time>
      </trkpt>
      <trkpt lat="44.55199" lon="4.25897">
        <ele>436</ele>
        <time>2018-06-03T09:33:27.000Z</time>
      </trkpt>
      <trkpt lat="44.55201" lon="4.25891">
        <ele>436</ele>
        <time>2018-06-03T09:33:28.000Z</time>
      </trkpt>
      <trkpt lat="44.55203" lon="4.25886">
        <ele>436</ele>
        <time>2018-06-03T09:33:29.000Z</time>
      </trkpt>
      <trkpt lat="44.55205" lon="4.25881">
        <ele>436</ele>
        <time>2018-06-03T09:33:30.000Z</time>
      </trkpt>
      <trkpt lat="44.55208" lon="4.25876">
        <ele>436</ele>
        <time>2018-06-03T09:33:31.000Z</time>
      </trkpt>
      <trkpt lat="44.55211" lon="4.2587">
        <ele>436</ele>
        <time>2018-06-03T09:33:32.000Z</time>
      </trkpt>
      <trkpt lat="44.55212" lon="4.25864">
        <ele>436</ele>
        <time>2018-06-03T09:33:33.000Z</time>
      </trkpt>
      <trkpt lat="44.55214" lon="4.25858">
        <ele>437</ele>
        <time>2018-06-03T09:33:34.000Z</time>
      </trkpt>
      <trkpt lat="44.55217" lon="4.25853">
        <ele>437</ele>
        <time>2018-06-03T09:33:35.000Z</time>
      </trkpt>
      <trkpt lat="44.55219" lon="4.25848">
        <ele>437</ele>
        <time>2018-06-03T09:33:36.000Z</time>
      </trkpt>
      <trkpt lat="44.55221" lon="4.25843">
        <ele>437</ele>
        <time>2018-06-03T09:33:37.000Z</time>
      </trkpt>
      <trkpt lat="44.55223" lon="4.25838">
        <ele>438</ele>
        <time>2018-06-03T09:33:38.000Z</time>
      </trkpt>
      <trkpt lat="44.55226" lon="4.25834">
        <ele>438</ele>
        <time>2018-06-03T09:33:39.000Z</time>
      </trkpt>
      <trkpt lat="44.5523" lon="4.25829">
        <ele>434</ele>
        <time>2018-06-03T09:33:40.000Z</time>
      </trkpt>
      <trkpt lat="44.55234" lon="4.25825">
        <ele>435</ele>
        <time>2018-06-03T09:33:41.000Z</time>
      </trkpt>
      <trkpt lat="44.55237" lon="4.2582">
        <ele>435</ele>
        <time>2018-06-03T09:33:42.000Z</time>
      </trkpt>
      <trkpt lat="44.5524" lon="4.25815">
        <ele>434</ele>
        <time>2018-06-03T09:33:43.000Z</time>
      </trkpt>
      <trkpt lat="44.55243" lon="4.25811">
        <ele>434</ele>
        <time>2018-06-03T09:33:44.000Z</time>
      </trkpt>
      <trkpt lat="44.55246" lon="4.25808">
        <ele>433</ele>
        <time>2018-06-03T09:33:45.000Z</time>
      </trkpt>
      <trkpt lat="44.55249" lon="4.25804">
        <ele>433</ele>
        <time>2018-06-03T09:33:46.000Z</time>
      </trkpt>
      <trkpt lat="44.55253" lon="4.258">
        <ele>440</ele>
        <time>2018-06-03T09:33:47.000Z</time>
      </trkpt>
      <trkpt lat="44.55256" lon="4.25796">
        <ele>440</ele>
        <time>2018-06-03T09:33:48.000Z</time>
      </trkpt>
      <trkpt lat="44.55258" lon="4.25793">
        <ele>440</ele>
        <time>2018-06-03T09:33:49.000Z</time>
      </trkpt>
      <trkpt lat="44.5526" lon="4.25789">
        <ele>440</ele>
        <time>2018-06-03T09:33:50.000Z</time>
      </trkpt>
      <trkpt lat="44.55261" lon="4.25785">
        <ele>439</ele>
        <time>2018-06-03T09:33:51.000Z</time>
      </trkpt>
      <trkpt lat="44.55262" lon="4.25782">
        <ele>439</ele>
        <time>2018-06-03T09:33:52.000Z</time>
      </trkpt>
      <trkpt lat="44.55261" lon="4.25778">
        <ele>438</ele>
        <time>2018-06-03T09:33:53.000Z</time>
      </trkpt>
      <trkpt lat="44.5526" lon="4.25775">
        <ele>438</ele>
        <time>2018-06-03T09:33:54.000Z</time>
      </trkpt>
      <trkpt lat="44.55258" lon="4.25773">
        <ele>437</ele>
        <time>2018-06-03T09:33:55.000Z</time>
      </trkpt>
      <trkpt lat="44.55257" lon="4.2577">
        <ele>437</ele>
        <time>2018-06-03T09:33:56.000Z</time>
      </trkpt>
      <trkpt lat="44.55256" lon="4.25766">
        <ele>436</ele>
        <time>2018-06-03T09:33:57.000Z</time>
      </trkpt>
      <trkpt lat="44.55254" lon="4.25762">
        <ele>435</ele>
        <time>2018-06-03T09:33:58.000Z</time>
      </trkpt>
      <trkpt lat="44.55253" lon="4.25757">
        <ele>434</ele>
        <time>2018-06-03T09:33:59.000Z</time>
      </trkpt>
      <trkpt lat="44.55253" lon="4.25752">
        <ele>433</ele>
        <time>2018-06-03T09:34:00.000Z</time>
      </trkpt>
      <trkpt lat="44.55254" lon="4.25748">
        <ele>430</ele>
        <time>2018-06-03T09:34:01.000Z</time>
      </trkpt>
      <trkpt lat="44.55256" lon="4.25742">
        <ele>430</ele>
        <time>2018-06-03T09:34:02.000Z</time>
      </trkpt>
      <trkpt lat="44.55258" lon="4.25737">
        <ele>429</ele>
        <time>2018-06-03T09:34:03.000Z</time>
      </trkpt>
      <trkpt lat="44.5526" lon="4.2573">
        <ele>429</ele>
        <time>2018-06-03T09:34:04.000Z</time>
      </trkpt>
      <trkpt lat="44.55262" lon="4.25723">
        <ele>428</ele>
        <time>2018-06-03T09:34:05.000Z</time>
      </trkpt>
      <trkpt lat="44.55265" lon="4.25717">
        <ele>427</ele>
        <time>2018-06-03T09:34:06.000Z</time>
      </trkpt>
      <trkpt lat="44.55269" lon="4.25711">
        <ele>427</ele>
        <time>2018-06-03T09:34:07.000Z</time>
      </trkpt>
      <trkpt lat="44.55273" lon="4.25705">
        <ele>426</ele>
        <time>2018-06-03T09:34:08.000Z</time>
      </trkpt>
      <trkpt lat="44.55277" lon="4.25699">
        <ele>426</ele>
        <time>2018-06-03T09:34:09.000Z</time>
      </trkpt>
      <trkpt lat="44.55282" lon="4.25694">
        <ele>426</ele>
        <time>2018-06-03T09:34:10.000Z</time>
      </trkpt>
      <trkpt lat="44.55287" lon="4.25689">
        <ele>425</ele>
        <time>2018-06-03T09:34:11.000Z</time>
      </trkpt>
      <trkpt lat="44.55293" lon="4.25686">
        <ele>425</ele>
        <time>2018-06-03T09:34:12.000Z</time>
      </trkpt>
      <trkpt lat="44.55299" lon="4.25684">
        <ele>425</ele>
        <time>2018-06-03T09:34:13.000Z</time>
      </trkpt>
      <trkpt lat="44.55305" lon="4.25682">
        <ele>425</ele>
        <time>2018-06-03T09:34:14.000Z</time>
      </trkpt>
      <trkpt lat="44.55311" lon="4.25678">
        <ele>425</ele>
        <time>2018-06-03T09:34:15.000Z</time>
      </trkpt>
      <trkpt lat="44.55318" lon="4.25675">
        <ele>425</ele>
        <time>2018-06-03T09:34:16.000Z</time>
      </trkpt>
      <trkpt lat="44.55324" lon="4.25674">
        <ele>424</ele>
        <time>2018-06-03T09:34:17.000Z</time>
      </trkpt>
      <trkpt lat="44.5533" lon="4.25673">
        <ele>423</ele>
        <time>2018-06-03T09:34:18.000Z</time>
      </trkpt>
      <trkpt lat="44.55336" lon="4.25671">
        <ele>425</ele>
        <time>2018-06-03T09:34:19.000Z</time>
      </trkpt>
      <trkpt lat="44.55341" lon="4.25666">
        <ele>421</ele>
        <time>2018-06-03T09:34:20.000Z</time>
      </trkpt>
      <trkpt lat="44.55345" lon="4.2566">
        <ele>421</ele>
        <time>2018-06-03T09:34:21.000Z</time>
      </trkpt>
      <trkpt lat="44.5535" lon="4.25655">
        <ele>420</ele>
        <time>2018-06-03T09:34:22.000Z</time>
      </trkpt>
      <trkpt lat="44.55354" lon="4.25651">
        <ele>420</ele>
        <time>2018-06-03T09:34:23.000Z</time>
      </trkpt>
      <trkpt lat="44.55358" lon="4.25647">
        <ele>420</ele>
        <time>2018-06-03T09:34:24.000Z</time>
      </trkpt>
      <trkpt lat="44.55361" lon="4.25643">
        <ele>419</ele>
        <time>2018-06-03T09:34:25.000Z</time>
      </trkpt>
      <trkpt lat="44.55365" lon="4.25637">
        <ele>419</ele>
        <time>2018-06-03T09:34:26.000Z</time>
      </trkpt>
      <trkpt lat="44.55366" lon="4.25631">
        <ele>418</ele>
        <time>2018-06-03T09:34:27.000Z</time>
      </trkpt>
      <trkpt lat="44.55367" lon="4.25624">
        <ele>418</ele>
        <time>2018-06-03T09:34:28.000Z</time>
      </trkpt>
      <trkpt lat="44.55367" lon="4.25617">
        <ele>417</ele>
        <time>2018-06-03T09:34:29.000Z</time>
      </trkpt>
      <trkpt lat="44.55367" lon="4.25608">
        <ele>416</ele>
        <time>2018-06-03T09:34:30.000Z</time>
      </trkpt>
      <trkpt lat="44.55366" lon="4.256">
        <ele>415</ele>
        <time>2018-06-03T09:34:31.000Z</time>
      </trkpt>
      <trkpt lat="44.55365" lon="4.25591">
        <ele>414</ele>
        <time>2018-06-03T09:34:32.000Z</time>
      </trkpt>
      <trkpt lat="44.55362" lon="4.25581">
        <ele>404</ele>
        <time>2018-06-03T09:34:33.000Z</time>
      </trkpt>
      <trkpt lat="44.55359" lon="4.25571">
        <ele>404</ele>
        <time>2018-06-03T09:34:34.000Z</time>
      </trkpt>
      <trkpt lat="44.55356" lon="4.25562">
        <ele>403</ele>
        <time>2018-06-03T09:34:35.000Z</time>
      </trkpt>
      <trkpt lat="44.55353" lon="4.25552">
        <ele>403</ele>
        <time>2018-06-03T09:34:36.000Z</time>
      </trkpt>
      <trkpt lat="44.55349" lon="4.25543">
        <ele>402</ele>
        <time>2018-06-03T09:34:37.000Z</time>
      </trkpt>
      <trkpt lat="44.55345" lon="4.25535">
        <ele>401</ele>
        <time>2018-06-03T09:34:38.000Z</time>
      </trkpt>
      <trkpt lat="44.5534" lon="4.25526">
        <ele>401</ele>
        <time>2018-06-03T09:34:39.000Z</time>
      </trkpt>
      <trkpt lat="44.55335" lon="4.25517">
        <ele>400</ele>
        <time>2018-06-03T09:34:40.000Z</time>
      </trkpt>
      <trkpt lat="44.5533" lon="4.25509">
        <ele>397</ele>
        <time>2018-06-03T09:34:41.000Z</time>
      </trkpt>
      <trkpt lat="44.55325" lon="4.255">
        <ele>395</ele>
        <time>2018-06-03T09:34:42.000Z</time>
      </trkpt>
      <trkpt lat="44.5532" lon="4.25491">
        <ele>393</ele>
        <time>2018-06-03T09:34:43.000Z</time>
      </trkpt>
      <trkpt lat="44.55315" lon="4.25482">
        <ele>391</ele>
        <time>2018-06-03T09:34:44.000Z</time>
      </trkpt>
      <trkpt lat="44.55309" lon="4.25473">
        <ele>389</ele>
        <time>2018-06-03T09:34:45.000Z</time>
      </trkpt>
      <trkpt lat="44.55305" lon="4.25464">
        <ele>389</ele>
        <time>2018-06-03T09:34:46.000Z</time>
      </trkpt>
      <trkpt lat="44.55302" lon="4.25456">
        <ele>388</ele>
        <time>2018-06-03T09:34:47.000Z</time>
      </trkpt>
      <trkpt lat="44.553" lon="4.25448">
        <ele>388</ele>
        <time>2018-06-03T09:34:48.000Z</time>
      </trkpt>
      <trkpt lat="44.55299" lon="4.25438">
        <ele>388</ele>
        <time>2018-06-03T09:34:49.000Z</time>
      </trkpt>
      <trkpt lat="44.55298" lon="4.25429">
        <ele>387</ele>
        <time>2018-06-03T09:34:50.000Z</time>
      </trkpt>
      <trkpt lat="44.55296" lon="4.2542">
        <ele>387</ele>
        <time>2018-06-03T09:34:51.000Z</time>
      </trkpt>
      <trkpt lat="44.55293" lon="4.25412">
        <ele>384</ele>
        <time>2018-06-03T09:34:52.000Z</time>
      </trkpt>
      <trkpt lat="44.5529" lon="4.25403">
        <ele>384</ele>
        <time>2018-06-03T09:34:53.000Z</time>
      </trkpt>
      <trkpt lat="44.55287" lon="4.25394">
        <ele>383</ele>
        <time>2018-06-03T09:34:54.000Z</time>
      </trkpt>
      <trkpt lat="44.55284" lon="4.25384">
        <ele>383</ele>
        <time>2018-06-03T09:34:55.000Z</time>
      </trkpt>
      <trkpt lat="44.55281" lon="4.25374">
        <ele>383</ele>
        <time>2018-06-03T09:34:56.000Z</time>
      </trkpt>
      <trkpt lat="44.55277" lon="4.25364">
        <ele>382</ele>
        <time>2018-06-03T09:34:57.000Z</time>
      </trkpt>
      <trkpt lat="44.55272" lon="4.25355">
        <ele>382</ele>
        <time>2018-06-03T09:34:58.000Z</time>
      </trkpt>
      <trkpt lat="44.55269" lon="4.25348">
        <ele>382</ele>
        <time>2018-06-03T09:34:59.000Z</time>
      </trkpt>
      <trkpt lat="44.55265" lon="4.25343">
        <ele>382</ele>
        <time>2018-06-03T09:35:00.000Z</time>
      </trkpt>
      <trkpt lat="44.55261" lon="4.25341">
        <ele>382</ele>
        <time>2018-06-03T09:35:01.000Z</time>
      </trkpt>
      <trkpt lat="44.55257" lon="4.2534">
        <ele>381</ele>
        <time>2018-06-03T09:35:02.000Z</time>
      </trkpt>
      <trkpt lat="44.55252" lon="4.25341">
        <ele>381</ele>
        <time>2018-06-03T09:35:03.000Z</time>
      </trkpt>
      <trkpt lat="44.55248" lon="4.25345">
        <ele>377</ele>
        <time>2018-06-03T09:35:04.000Z</time>
      </trkpt>
      <trkpt lat="44.55245" lon="4.2535">
        <ele>376</ele>
        <time>2018-06-03T09:35:05.000Z</time>
      </trkpt>
      <trkpt lat="44.55242" lon="4.25356">
        <ele>375</ele>
        <time>2018-06-03T09:35:06.000Z</time>
      </trkpt>
      <trkpt lat="44.55241" lon="4.25363">
        <ele>374</ele>
        <time>2018-06-03T09:35:07.000Z</time>
      </trkpt>
      <trkpt lat="44.55239" lon="4.2537">
        <ele>374</ele>
        <time>2018-06-03T09:35:08.000Z</time>
      </trkpt>
      <trkpt lat="44.55238" lon="4.25378">
        <ele>373</ele>
        <time>2018-06-03T09:35:09.000Z</time>
      </trkpt>
      <trkpt lat="44.55238" lon="4.25384">
        <ele>374</ele>
        <time>2018-06-03T09:35:10.000Z</time>
      </trkpt>
      <trkpt lat="44.55239" lon="4.2539">
        <ele>374</ele>
        <time>2018-06-03T09:35:11.000Z</time>
      </trkpt>
      <trkpt lat="44.55241" lon="4.25396">
        <ele>375</ele>
        <time>2018-06-03T09:35:12.000Z</time>
      </trkpt>
      <trkpt lat="44.55242" lon="4.25402">
        <ele>376</ele>
        <time>2018-06-03T09:35:13.000Z</time>
      </trkpt>
      <trkpt lat="44.55243" lon="4.25408">
        <ele>377</ele>
        <time>2018-06-03T09:35:14.000Z</time>
      </trkpt>
      <trkpt lat="44.55244" lon="4.25413">
        <ele>378</ele>
        <time>2018-06-03T09:35:15.000Z</time>
      </trkpt>
      <trkpt lat="44.55244" lon="4.25418">
        <ele>379</ele>
        <time>2018-06-03T09:35:16.000Z</time>
      </trkpt>
      <trkpt lat="44.55243" lon="4.2542">
        <ele>378</ele>
        <time>2018-06-03T09:35:17.000Z</time>
      </trkpt>
      <trkpt lat="44.55242" lon="4.2542">
        <ele>378</ele>
        <time>2018-06-03T09:35:18.000Z</time>
      </trkpt>
      <trkpt lat="44.55241" lon="4.25417">
        <ele>378</ele>
        <time>2018-06-03T09:35:19.000Z</time>
      </trkpt>
      <trkpt lat="44.55239" lon="4.25413">
        <ele>377</ele>
        <time>2018-06-03T09:35:20.000Z</time>
      </trkpt>
      <trkpt lat="44.55236" lon="4.25407">
        <ele>375</ele>
        <time>2018-06-03T09:35:21.000Z</time>
      </trkpt>
      <trkpt lat="44.55231" lon="4.254">
        <ele>374</ele>
        <time>2018-06-03T09:35:22.000Z</time>
      </trkpt>
      <trkpt lat="44.55226" lon="4.25394">
        <ele>373</ele>
        <time>2018-06-03T09:35:23.000Z</time>
      </trkpt>
      <trkpt lat="44.55222" lon="4.25386">
        <ele>372</ele>
        <time>2018-06-03T09:35:24.000Z</time>
      </trkpt>
      <trkpt lat="44.55217" lon="4.2538">
        <ele>371</ele>
        <time>2018-06-03T09:35:25.000Z</time>
      </trkpt>
      <trkpt lat="44.55213" lon="4.25377">
        <ele>371</ele>
        <time>2018-06-03T09:35:26.000Z</time>
      </trkpt>
      <trkpt lat="44.55211" lon="4.25376">
        <ele>370</ele>
        <time>2018-06-03T09:35:27.000Z</time>
      </trkpt>
      <trkpt lat="44.55209" lon="4.25378">
        <ele>370</ele>
        <time>2018-06-03T09:35:28.000Z</time>
      </trkpt>
      <trkpt lat="44.55208" lon="4.25382">
        <ele>370</ele>
        <time>2018-06-03T09:35:29.000Z</time>
      </trkpt>
      <trkpt lat="44.55207" lon="4.25386">
        <ele>370</ele>
        <time>2018-06-03T09:35:30.000Z</time>
      </trkpt>
      <trkpt lat="44.55206" lon="4.2539">
        <ele>369</ele>
        <time>2018-06-03T09:35:31.000Z</time>
      </trkpt>
      <trkpt lat="44.55202" lon="4.25391">
        <ele>369</ele>
        <time>2018-06-03T09:35:32.000Z</time>
      </trkpt>
      <trkpt lat="44.55198" lon="4.25389">
        <ele>368</ele>
        <time>2018-06-03T09:35:33.000Z</time>
      </trkpt>
      <trkpt lat="44.55193" lon="4.25385">
        <ele>368</ele>
        <time>2018-06-03T09:35:34.000Z</time>
      </trkpt>
      <trkpt lat="44.5519" lon="4.25379">
        <ele>368</ele>
        <time>2018-06-03T09:35:35.000Z</time>
      </trkpt>
      <trkpt lat="44.55185" lon="4.25372">
        <ele>367</ele>
        <time>2018-06-03T09:35:36.000Z</time>
      </trkpt>
      <trkpt lat="44.5518" lon="4.25366">
        <ele>367</ele>
        <time>2018-06-03T09:35:37.000Z</time>
      </trkpt>
      <trkpt lat="44.55176" lon="4.25359">
        <ele>366</ele>
        <time>2018-06-03T09:35:38.000Z</time>
      </trkpt>
      <trkpt lat="44.55172" lon="4.25354">
        <ele>365</ele>
        <time>2018-06-03T09:35:39.000Z</time>
      </trkpt>
      <trkpt lat="44.55168" lon="4.25348">
        <ele>364</ele>
        <time>2018-06-03T09:35:40.000Z</time>
      </trkpt>
      <trkpt lat="44.55163" lon="4.25343">
        <ele>356</ele>
        <time>2018-06-03T09:35:41.000Z</time>
      </trkpt>
      <trkpt lat="44.55159" lon="4.25339">
        <ele>356</ele>
        <time>2018-06-03T09:35:42.000Z</time>
      </trkpt>
      <trkpt lat="44.55156" lon="4.25335">
        <ele>355</ele>
        <time>2018-06-03T09:35:43.000Z</time>
      </trkpt>
      <trkpt lat="44.55153" lon="4.25331">
        <ele>353</ele>
        <time>2018-06-03T09:35:44.000Z</time>
      </trkpt>
      <trkpt lat="44.5515" lon="4.25325">
        <ele>351</ele>
        <time>2018-06-03T09:35:45.000Z</time>
      </trkpt>
      <trkpt lat="44.55146" lon="4.25317">
        <ele>349</ele>
        <time>2018-06-03T09:35:46.000Z</time>
      </trkpt>
      <trkpt lat="44.55143" lon="4.25309">
        <ele>347</ele>
        <time>2018-06-03T09:35:47.000Z</time>
      </trkpt>
      <trkpt lat="44.5514" lon="4.25302">
        <ele>346</ele>
        <time>2018-06-03T09:35:48.000Z</time>
      </trkpt>
      <trkpt lat="44.55138" lon="4.25296">
        <ele>345</ele>
        <time>2018-06-03T09:35:49.000Z</time>
      </trkpt>
      <trkpt lat="44.55137" lon="4.2529">
        <ele>345</ele>
        <time>2018-06-03T09:35:50.000Z</time>
      </trkpt>
      <trkpt lat="44.55136" lon="4.25284">
        <ele>344</ele>
        <time>2018-06-03T09:35:51.000Z</time>
      </trkpt>
      <trkpt lat="44.55135" lon="4.25279">
        <ele>344</ele>
        <time>2018-06-03T09:35:52.000Z</time>
      </trkpt>
      <trkpt lat="44.55134" lon="4.25274">
        <ele>344</ele>
        <time>2018-06-03T09:35:53.000Z</time>
      </trkpt>
      <trkpt lat="44.55133" lon="4.25268">
        <ele>344</ele>
        <time>2018-06-03T09:35:54.000Z</time>
      </trkpt>
      <trkpt lat="44.55132" lon="4.25261">
        <ele>343</ele>
        <time>2018-06-03T09:35:55.000Z</time>
      </trkpt>
      <trkpt lat="44.55131" lon="4.25254">
        <ele>343</ele>
        <time>2018-06-03T09:35:56.000Z</time>
      </trkpt>
      <trkpt lat="44.55129" lon="4.25249">
        <ele>339</ele>
        <time>2018-06-03T09:35:57.000Z</time>
      </trkpt>
      <trkpt lat="44.55128" lon="4.25245">
        <ele>339</ele>
        <time>2018-06-03T09:35:58.000Z</time>
      </trkpt>
      <trkpt lat="44.55126" lon="4.25241">
        <ele>339</ele>
        <time>2018-06-03T09:35:59.000Z</time>
      </trkpt>
      <trkpt lat="44.55125" lon="4.25238">
        <ele>339</ele>
        <time>2018-06-03T09:36:00.000Z</time>
      </trkpt>
      <trkpt lat="44.55124" lon="4.25236">
        <ele>338</ele>
        <time>2018-06-03T09:36:01.000Z</time>
      </trkpt>
      <trkpt lat="44.55123" lon="4.25236">
        <ele>338</ele>
        <time>2018-06-03T09:36:02.000Z</time>
      </trkpt>
      <trkpt lat="44.55122" lon="4.25238">
        <ele>338</ele>
        <time>2018-06-03T09:36:03.000Z</time>
      </trkpt>
      <trkpt lat="44.55122" lon="4.25239">
        <ele>338</ele>
        <time>2018-06-03T09:36:04.000Z</time>
      </trkpt>
      <trkpt lat="44.55122" lon="4.25242">
        <ele>338</ele>
        <time>2018-06-03T09:36:05.000Z</time>
      </trkpt>
      <trkpt lat="44.55122" lon="4.25245">
        <ele>338</ele>
        <time>2018-06-03T09:36:06.000Z</time>
      </trkpt>
      <trkpt lat="44.55122" lon="4.25249">
        <ele>338</ele>
        <time>2018-06-03T09:36:07.000Z</time>
      </trkpt>
      <trkpt lat="44.55121" lon="4.25253">
        <ele>342</ele>
        <time>2018-06-03T09:36:08.000Z</time>
      </trkpt>
      <trkpt lat="44.55121" lon="4.25258">
        <ele>342</ele>
        <time>2018-06-03T09:36:09.000Z</time>
      </trkpt>
      <trkpt lat="44.5512" lon="4.25262">
        <ele>342</ele>
        <time>2018-06-03T09:36:10.000Z</time>
      </trkpt>
      <trkpt lat="44.55119" lon="4.25266">
        <ele>342</ele>
        <time>2018-06-03T09:36:11.000Z</time>
      </trkpt>
      <trkpt lat="44.55119" lon="4.25271">
        <ele>342</ele>
        <time>2018-06-03T09:36:12.000Z</time>
      </trkpt>
      <trkpt lat="44.55119" lon="4.25275">
        <ele>342</ele>
        <time>2018-06-03T09:36:13.000Z</time>
      </trkpt>
      <trkpt lat="44.55119" lon="4.2528">
        <ele>342</ele>
        <time>2018-06-03T09:36:14.000Z</time>
      </trkpt>
      <trkpt lat="44.55119" lon="4.25285">
        <ele>342</ele>
        <time>2018-06-03T09:36:15.000Z</time>
      </trkpt>
      <trkpt lat="44.55119" lon="4.2529">
        <ele>343</ele>
        <time>2018-06-03T09:36:16.000Z</time>
      </trkpt>
      <trkpt lat="44.55117" lon="4.25296">
        <ele>343</ele>
        <time>2018-06-03T09:36:17.000Z</time>
      </trkpt>
      <trkpt lat="44.55115" lon="4.253">
        <ele>342</ele>
        <time>2018-06-03T09:36:18.000Z</time>
      </trkpt>
      <trkpt lat="44.55112" lon="4.25305">
        <ele>342</ele>
        <time>2018-06-03T09:36:19.000Z</time>
      </trkpt>
      <trkpt lat="44.55109" lon="4.25309">
        <ele>342</ele>
        <time>2018-06-03T09:36:20.000Z</time>
      </trkpt>
      <trkpt lat="44.55107" lon="4.25314">
        <ele>341</ele>
        <time>2018-06-03T09:36:21.000Z</time>
      </trkpt>
      <trkpt lat="44.55105" lon="4.2532">
        <ele>341</ele>
        <time>2018-06-03T09:36:22.000Z</time>
      </trkpt>
      <trkpt lat="44.55102" lon="4.25325">
        <ele>340</ele>
        <time>2018-06-03T09:36:23.000Z</time>
      </trkpt>
      <trkpt lat="44.551" lon="4.25332">
        <ele>339</ele>
        <time>2018-06-03T09:36:24.000Z</time>
      </trkpt>
      <trkpt lat="44.55099" lon="4.25338">
        <ele>341</ele>
        <time>2018-06-03T09:36:25.000Z</time>
      </trkpt>
      <trkpt lat="44.55098" lon="4.25345">
        <ele>341</ele>
        <time>2018-06-03T09:36:26.000Z</time>
      </trkpt>
      <trkpt lat="44.55097" lon="4.25352">
        <ele>342</ele>
        <time>2018-06-03T09:36:27.000Z</time>
      </trkpt>
      <trkpt lat="44.55097" lon="4.25359">
        <ele>343</ele>
        <time>2018-06-03T09:36:28.000Z</time>
      </trkpt>
      <trkpt lat="44.55097" lon="4.25366">
        <ele>344</ele>
        <time>2018-06-03T09:36:29.000Z</time>
      </trkpt>
      <trkpt lat="44.551" lon="4.25372">
        <ele>344</ele>
        <time>2018-06-03T09:36:30.000Z</time>
      </trkpt>
      <trkpt lat="44.55103" lon="4.25376">
        <ele>345</ele>
        <time>2018-06-03T09:36:31.000Z</time>
      </trkpt>
      <trkpt lat="44.55109" lon="4.25379">
        <ele>345</ele>
        <time>2018-06-03T09:36:32.000Z</time>
      </trkpt>
      <trkpt lat="44.55114" lon="4.25384">
        <ele>346</ele>
        <time>2018-06-03T09:36:33.000Z</time>
      </trkpt>
      <trkpt lat="44.55118" lon="4.25388">
        <ele>347</ele>
        <time>2018-06-03T09:36:34.000Z</time>
      </trkpt>
      <trkpt lat="44.55122" lon="4.25394">
        <ele>347</ele>
        <time>2018-06-03T09:36:35.000Z</time>
      </trkpt>
      <trkpt lat="44.55124" lon="4.254">
        <ele>347</ele>
        <time>2018-06-03T09:36:36.000Z</time>
      </trkpt>
      <trkpt lat="44.55122" lon="4.25406">
        <ele>347</ele>
        <time>2018-06-03T09:36:37.000Z</time>
      </trkpt>
      <trkpt lat="44.55119" lon="4.25412">
        <ele>347</ele>
        <time>2018-06-03T09:36:38.000Z</time>
      </trkpt>
      <trkpt lat="44.55114" lon="4.25414">
        <ele>346</ele>
        <time>2018-06-03T09:36:39.000Z</time>
      </trkpt>
      <trkpt lat="44.55109" lon="4.25414">
        <ele>345</ele>
        <time>2018-06-03T09:36:40.000Z</time>
      </trkpt>
      <trkpt lat="44.55105" lon="4.25413">
        <ele>344</ele>
        <time>2018-06-03T09:36:41.000Z</time>
      </trkpt>
      <trkpt lat="44.551" lon="4.25413">
        <ele>343</ele>
        <time>2018-06-03T09:36:42.000Z</time>
      </trkpt>
      <trkpt lat="44.55095" lon="4.25414">
        <ele>342</ele>
        <time>2018-06-03T09:36:43.000Z</time>
      </trkpt>
      <trkpt lat="44.55091" lon="4.25416">
        <ele>340</ele>
        <time>2018-06-03T09:36:44.000Z</time>
      </trkpt>
      <trkpt lat="44.55086" lon="4.2542">
        <ele>340</ele>
        <time>2018-06-03T09:36:45.000Z</time>
      </trkpt>
      <trkpt lat="44.55083" lon="4.25424">
        <ele>337</ele>
        <time>2018-06-03T09:36:46.000Z</time>
      </trkpt>
      <trkpt lat="44.5508" lon="4.25429">
        <ele>337</ele>
        <time>2018-06-03T09:36:47.000Z</time>
      </trkpt>
      <trkpt lat="44.55078" lon="4.25435">
        <ele>337</ele>
        <time>2018-06-03T09:36:48.000Z</time>
      </trkpt>
      <trkpt lat="44.55076" lon="4.25441">
        <ele>337</ele>
        <time>2018-06-03T09:36:49.000Z</time>
      </trkpt>
      <trkpt lat="44.55074" lon="4.25447">
        <ele>337</ele>
        <time>2018-06-03T09:36:50.000Z</time>
      </trkpt>
      <trkpt lat="44.55071" lon="4.25454">
        <ele>337</ele>
        <time>2018-06-03T09:36:51.000Z</time>
      </trkpt>
      <trkpt lat="44.55069" lon="4.25461">
        <ele>337</ele>
        <time>2018-06-03T09:36:52.000Z</time>
      </trkpt>
      <trkpt lat="44.55067" lon="4.25467">
        <ele>337</ele>
        <time>2018-06-03T09:36:53.000Z</time>
      </trkpt>
      <trkpt lat="44.55063" lon="4.25474">
        <ele>337</ele>
        <time>2018-06-03T09:36:54.000Z</time>
      </trkpt>
      <trkpt lat="44.5506" lon="4.25481">
        <ele>337</ele>
        <time>2018-06-03T09:36:55.000Z</time>
      </trkpt>
      <trkpt lat="44.55056" lon="4.25488">
        <ele>337</ele>
        <time>2018-06-03T09:36:56.000Z</time>
      </trkpt>
      <trkpt lat="44.55053" lon="4.25496">
        <ele>337</ele>
        <time>2018-06-03T09:36:57.000Z</time>
      </trkpt>
      <trkpt lat="44.5505" lon="4.25504">
        <ele>338</ele>
        <time>2018-06-03T09:36:58.000Z</time>
      </trkpt>
      <trkpt lat="44.55048" lon="4.25512">
        <ele>338</ele>
        <time>2018-06-03T09:36:59.000Z</time>
      </trkpt>
      <trkpt lat="44.55047" lon="4.25521">
        <ele>338</ele>
        <time>2018-06-03T09:37:00.000Z</time>
      </trkpt>
      <trkpt lat="44.55045" lon="4.2553">
        <ele>338</ele>
        <time>2018-06-03T09:37:01.000Z</time>
      </trkpt>
      <trkpt lat="44.55046" lon="4.25538">
        <ele>338</ele>
        <time>2018-06-03T09:37:02.000Z</time>
      </trkpt>
      <trkpt lat="44.55047" lon="4.25546">
        <ele>338</ele>
        <time>2018-06-03T09:37:03.000Z</time>
      </trkpt>
      <trkpt lat="44.55051" lon="4.25553">
        <ele>339</ele>
        <time>2018-06-03T09:37:04.000Z</time>
      </trkpt>
      <trkpt lat="44.55054" lon="4.25561">
        <ele>340</ele>
        <time>2018-06-03T09:37:05.000Z</time>
      </trkpt>
      <trkpt lat="44.55055" lon="4.25568">
        <ele>340</ele>
        <time>2018-06-03T09:37:06.000Z</time>
      </trkpt>
      <trkpt lat="44.55055" lon="4.25575">
        <ele>341</ele>
        <time>2018-06-03T09:37:07.000Z</time>
      </trkpt>
      <trkpt lat="44.55053" lon="4.25579">
        <ele>340</ele>
        <time>2018-06-03T09:37:08.000Z</time>
      </trkpt>
      <trkpt lat="44.55049" lon="4.25579">
        <ele>339</ele>
        <time>2018-06-03T09:37:09.000Z</time>
      </trkpt>
      <trkpt lat="44.55043" lon="4.25578">
        <ele>338</ele>
        <time>2018-06-03T09:37:10.000Z</time>
      </trkpt>
      <trkpt lat="44.55038" lon="4.25579">
        <ele>337</ele>
        <time>2018-06-03T09:37:11.000Z</time>
      </trkpt>
      <trkpt lat="44.55033" lon="4.25583">
        <ele>336</ele>
        <time>2018-06-03T09:37:12.000Z</time>
      </trkpt>
      <trkpt lat="44.55029" lon="4.25589">
        <ele>341</ele>
        <time>2018-06-03T09:37:13.000Z</time>
      </trkpt>
      <trkpt lat="44.55025" lon="4.25595">
        <ele>341</ele>
        <time>2018-06-03T09:37:14.000Z</time>
      </trkpt>
      <trkpt lat="44.55021" lon="4.25601">
        <ele>341</ele>
        <time>2018-06-03T09:37:15.000Z</time>
      </trkpt>
      <trkpt lat="44.55017" lon="4.25607">
        <ele>341</ele>
        <time>2018-06-03T09:37:16.000Z</time>
      </trkpt>
      <trkpt lat="44.55014" lon="4.25612">
        <ele>342</ele>
        <time>2018-06-03T09:37:17.000Z</time>
      </trkpt>
      <trkpt lat="44.5501" lon="4.25617">
        <ele>342</ele>
        <time>2018-06-03T09:37:18.000Z</time>
      </trkpt>
      <trkpt lat="44.55006" lon="4.25622">
        <ele>343</ele>
        <time>2018-06-03T09:37:19.000Z</time>
      </trkpt>
      <trkpt lat="44.55002" lon="4.25626">
        <ele>343</ele>
        <time>2018-06-03T09:37:20.000Z</time>
      </trkpt>
      <trkpt lat="44.54997" lon="4.2563">
        <ele>334</ele>
        <time>2018-06-03T09:37:21.000Z</time>
      </trkpt>
      <trkpt lat="44.54993" lon="4.25634">
        <ele>335</ele>
        <time>2018-06-03T09:37:22.000Z</time>
      </trkpt>
      <trkpt lat="44.5499" lon="4.25638">
        <ele>335</ele>
        <time>2018-06-03T09:37:23.000Z</time>
      </trkpt>
      <trkpt lat="44.54986" lon="4.25642">
        <ele>336</ele>
        <time>2018-06-03T09:37:24.000Z</time>
      </trkpt>
      <trkpt lat="44.54983" lon="4.25647">
        <ele>336</ele>
        <time>2018-06-03T09:37:25.000Z</time>
      </trkpt>
      <trkpt lat="44.5498" lon="4.25652">
        <ele>337</ele>
        <time>2018-06-03T09:37:26.000Z</time>
      </trkpt>
      <trkpt lat="44.54978" lon="4.25657">
        <ele>337</ele>
        <time>2018-06-03T09:37:27.000Z</time>
      </trkpt>
      <trkpt lat="44.54975" lon="4.25662">
        <ele>337</ele>
        <time>2018-06-03T09:37:28.000Z</time>
      </trkpt>
      <trkpt lat="44.54972" lon="4.25667">
        <ele>345</ele>
        <time>2018-06-03T09:37:29.000Z</time>
      </trkpt>
      <trkpt lat="44.5497" lon="4.25672">
        <ele>345</ele>
        <time>2018-06-03T09:37:30.000Z</time>
      </trkpt>
      <trkpt lat="44.54967" lon="4.25677">
        <ele>345</ele>
        <time>2018-06-03T09:37:31.000Z</time>
      </trkpt>
      <trkpt lat="44.54964" lon="4.25681">
        <ele>345</ele>
        <time>2018-06-03T09:37:32.000Z</time>
      </trkpt>
      <trkpt lat="44.5496" lon="4.25686">
        <ele>344</ele>
        <time>2018-06-03T09:37:33.000Z</time>
      </trkpt>
      <trkpt lat="44.54957" lon="4.2569">
        <ele>344</ele>
        <time>2018-06-03T09:37:34.000Z</time>
      </trkpt>
      <trkpt lat="44.54953" lon="4.25694">
        <ele>344</ele>
        <time>2018-06-03T09:37:35.000Z</time>
      </trkpt>
      <trkpt lat="44.5495" lon="4.25698">
        <ele>344</ele>
        <time>2018-06-03T09:37:36.000Z</time>
      </trkpt>
      <trkpt lat="44.54947" lon="4.25702">
        <ele>344</ele>
        <time>2018-06-03T09:37:37.000Z</time>
      </trkpt>
      <trkpt lat="44.54944" lon="4.25706">
        <ele>344</ele>
        <time>2018-06-03T09:37:38.000Z</time>
      </trkpt>
      <trkpt lat="44.54942" lon="4.25711">
        <ele>345</ele>
        <time>2018-06-03T09:37:39.000Z</time>
      </trkpt>
      <trkpt lat="44.54939" lon="4.25715">
        <ele>345</ele>
        <time>2018-06-03T09:37:40.000Z</time>
      </trkpt>
      <trkpt lat="44.54937" lon="4.25719">
        <ele>345</ele>
        <time>2018-06-03T09:37:41.000Z</time>
      </trkpt>
      <trkpt lat="44.54934" lon="4.25723">
        <ele>345</ele>
        <time>2018-06-03T09:37:42.000Z</time>
      </trkpt>
      <trkpt lat="44.54931" lon="4.25727">
        <ele>345</ele>
        <time>2018-06-03T09:37:43.000Z</time>
      </trkpt>
      <trkpt lat="44.54927" lon="4.25731">
        <ele>344</ele>
        <time>2018-06-03T09:37:44.000Z</time>
      </trkpt>
      <trkpt lat="44.54924" lon="4.25734">
        <ele>344</ele>
        <time>2018-06-03T09:37:45.000Z</time>
      </trkpt>
      <trkpt lat="44.54921" lon="4.25737">
        <ele>344</ele>
        <time>2018-06-03T09:37:46.000Z</time>
      </trkpt>
      <trkpt lat="44.54917" lon="4.2574">
        <ele>343</ele>
        <time>2018-06-03T09:37:47.000Z</time>
      </trkpt>
      <trkpt lat="44.54914" lon="4.25742">
        <ele>339</ele>
        <time>2018-06-03T09:37:48.000Z</time>
      </trkpt>
      <trkpt lat="44.54911" lon="4.25745">
        <ele>340</ele>
        <time>2018-06-03T09:37:49.000Z</time>
      </trkpt>
      <trkpt lat="44.54908" lon="4.25747">
        <ele>339</ele>
        <time>2018-06-03T09:37:50.000Z</time>
      </trkpt>
      <trkpt lat="44.54905" lon="4.2575">
        <ele>342</ele>
        <time>2018-06-03T09:37:51.000Z</time>
      </trkpt>
      <trkpt lat="44.54902" lon="4.25754">
        <ele>342</ele>
        <time>2018-06-03T09:37:52.000Z</time>
      </trkpt>
      <trkpt lat="44.54899" lon="4.25758">
        <ele>342</ele>
        <time>2018-06-03T09:37:53.000Z</time>
      </trkpt>
      <trkpt lat="44.54897" lon="4.25762">
        <ele>342</ele>
        <time>2018-06-03T09:37:54.000Z</time>
      </trkpt>
      <trkpt lat="44.54895" lon="4.25766">
        <ele>342</ele>
        <time>2018-06-03T09:37:55.000Z</time>
      </trkpt>
      <trkpt lat="44.54893" lon="4.25771">
        <ele>342</ele>
        <time>2018-06-03T09:37:56.000Z</time>
      </trkpt>
      <trkpt lat="44.54891" lon="4.25775">
        <ele>343</ele>
        <time>2018-06-03T09:37:57.000Z</time>
      </trkpt>
      <trkpt lat="44.54889" lon="4.25779">
        <ele>343</ele>
        <time>2018-06-03T09:37:58.000Z</time>
      </trkpt>
      <trkpt lat="44.54887" lon="4.25784">
        <ele>343</ele>
        <time>2018-06-03T09:37:59.000Z</time>
      </trkpt>
      <trkpt lat="44.54885" lon="4.25789">
        <ele>343</ele>
        <time>2018-06-03T09:38:00.000Z</time>
      </trkpt>
      <trkpt lat="44.54883" lon="4.25794">
        <ele>344</ele>
        <time>2018-06-03T09:38:01.000Z</time>
      </trkpt>
      <trkpt lat="44.54881" lon="4.25799">
        <ele>344</ele>
        <time>2018-06-03T09:38:02.000Z</time>
      </trkpt>
      <trkpt lat="44.54879" lon="4.25803">
        <ele>344</ele>
        <time>2018-06-03T09:38:03.000Z</time>
      </trkpt>
      <trkpt lat="44.54878" lon="4.25808">
        <ele>344</ele>
        <time>2018-06-03T09:38:04.000Z</time>
      </trkpt>
      <trkpt lat="44.54876" lon="4.25812">
        <ele>344</ele>
        <time>2018-06-03T09:38:05.000Z</time>
      </trkpt>
      <trkpt lat="44.54875" lon="4.25818">
        <ele>344</ele>
        <time>2018-06-03T09:38:06.000Z</time>
      </trkpt>
      <trkpt lat="44.54874" lon="4.25823">
        <ele>344</ele>
        <time>2018-06-03T09:38:07.000Z</time>
      </trkpt>
      <trkpt lat="44.54873" lon="4.25829">
        <ele>344</ele>
        <time>2018-06-03T09:38:08.000Z</time>
      </trkpt>
      <trkpt lat="44.54871" lon="4.25833">
        <ele>344</ele>
        <time>2018-06-03T09:38:09.000Z</time>
      </trkpt>
      <trkpt lat="44.54869" lon="4.25837">
        <ele>349</ele>
        <time>2018-06-03T09:38:10.000Z</time>
      </trkpt>
      <trkpt lat="44.54867" lon="4.25842">
        <ele>349</ele>
        <time>2018-06-03T09:38:11.000Z</time>
      </trkpt>
      <trkpt lat="44.54865" lon="4.25847">
        <ele>348</ele>
        <time>2018-06-03T09:38:12.000Z</time>
      </trkpt>
      <trkpt lat="44.54862" lon="4.25851">
        <ele>348</ele>
        <time>2018-06-03T09:38:13.000Z</time>
      </trkpt>
      <trkpt lat="44.5486" lon="4.25856">
        <ele>348</ele>
        <time>2018-06-03T09:38:14.000Z</time>
      </trkpt>
      <trkpt lat="44.54857" lon="4.2586">
        <ele>348</ele>
        <time>2018-06-03T09:38:15.000Z</time>
      </trkpt>
      <trkpt lat="44.54854" lon="4.25865">
        <ele>348</ele>
        <time>2018-06-03T09:38:16.000Z</time>
      </trkpt>
      <trkpt lat="44.54853" lon="4.2587">
        <ele>348</ele>
        <time>2018-06-03T09:38:17.000Z</time>
      </trkpt>
      <trkpt lat="44.54851" lon="4.25874">
        <ele>348</ele>
        <time>2018-06-03T09:38:18.000Z</time>
      </trkpt>
      <trkpt lat="44.54849" lon="4.25879">
        <ele>348</ele>
        <time>2018-06-03T09:38:19.000Z</time>
      </trkpt>
      <trkpt lat="44.54848" lon="4.25884">
        <ele>348</ele>
        <time>2018-06-03T09:38:20.000Z</time>
      </trkpt>
      <trkpt lat="44.54847" lon="4.25889">
        <ele>348</ele>
        <time>2018-06-03T09:38:21.000Z</time>
      </trkpt>
      <trkpt lat="44.54848" lon="4.25895">
        <ele>347</ele>
        <time>2018-06-03T09:38:22.000Z</time>
      </trkpt>
      <trkpt lat="44.54849" lon="4.259">
        <ele>347</ele>
        <time>2018-06-03T09:38:23.000Z</time>
      </trkpt>
      <trkpt lat="44.54851" lon="4.25906">
        <ele>347</ele>
        <time>2018-06-03T09:38:24.000Z</time>
      </trkpt>
      <trkpt lat="44.54853" lon="4.25911">
        <ele>347</ele>
        <time>2018-06-03T09:38:25.000Z</time>
      </trkpt>
      <trkpt lat="44.54855" lon="4.25916">
        <ele>348</ele>
        <time>2018-06-03T09:38:26.000Z</time>
      </trkpt>
      <trkpt lat="44.54857" lon="4.25921">
        <ele>350</ele>
        <time>2018-06-03T09:38:27.000Z</time>
      </trkpt>
      <trkpt lat="44.5486" lon="4.25925">
        <ele>351</ele>
        <time>2018-06-03T09:38:28.000Z</time>
      </trkpt>
      <trkpt lat="44.54863" lon="4.25928">
        <ele>352</ele>
        <time>2018-06-03T09:38:29.000Z</time>
      </trkpt>
      <trkpt lat="44.54867" lon="4.25931">
        <ele>353</ele>
        <time>2018-06-03T09:38:30.000Z</time>
      </trkpt>
      <trkpt lat="44.5487" lon="4.25935">
        <ele>353</ele>
        <time>2018-06-03T09:38:31.000Z</time>
      </trkpt>
      <trkpt lat="44.54873" lon="4.25938">
        <ele>354</ele>
        <time>2018-06-03T09:38:32.000Z</time>
      </trkpt>
      <trkpt lat="44.54876" lon="4.25941">
        <ele>355</ele>
        <time>2018-06-03T09:38:33.000Z</time>
      </trkpt>
      <trkpt lat="44.5488" lon="4.25944">
        <ele>355</ele>
        <time>2018-06-03T09:38:34.000Z</time>
      </trkpt>
      <trkpt lat="44.54883" lon="4.25947">
        <ele>356</ele>
        <time>2018-06-03T09:38:35.000Z</time>
      </trkpt>
      <trkpt lat="44.54886" lon="4.25951">
        <ele>356</ele>
        <time>2018-06-03T09:38:36.000Z</time>
      </trkpt>
      <trkpt lat="44.54889" lon="4.25954">
        <ele>356</ele>
        <time>2018-06-03T09:38:37.000Z</time>
      </trkpt>
      <trkpt lat="44.54891" lon="4.25958">
        <ele>357</ele>
        <time>2018-06-03T09:38:38.000Z</time>
      </trkpt>
      <trkpt lat="44.54893" lon="4.25961">
        <ele>357</ele>
        <time>2018-06-03T09:38:39.000Z</time>
      </trkpt>
      <trkpt lat="44.54895" lon="4.25965">
        <ele>357</ele>
        <time>2018-06-03T09:38:40.000Z</time>
      </trkpt>
      <trkpt lat="44.54898" lon="4.25969">
        <ele>357</ele>
        <time>2018-06-03T09:38:41.000Z</time>
      </trkpt>
      <trkpt lat="44.54899" lon="4.25974">
        <ele>357</ele>
        <time>2018-06-03T09:38:42.000Z</time>
      </trkpt>
      <trkpt lat="44.549" lon="4.25979">
        <ele>358</ele>
        <time>2018-06-03T09:38:43.000Z</time>
      </trkpt>
      <trkpt lat="44.54901" lon="4.25984">
        <ele>358</ele>
        <time>2018-06-03T09:38:44.000Z</time>
      </trkpt>
      <trkpt lat="44.54901" lon="4.2599">
        <ele>359</ele>
        <time>2018-06-03T09:38:45.000Z</time>
      </trkpt>
      <trkpt lat="44.549" lon="4.25996">
        <ele>359</ele>
        <time>2018-06-03T09:38:46.000Z</time>
      </trkpt>
      <trkpt lat="44.54898" lon="4.26001">
        <ele>361</ele>
        <time>2018-06-03T09:38:47.000Z</time>
      </trkpt>
      <trkpt lat="44.54895" lon="4.26005">
        <ele>360</ele>
        <time>2018-06-03T09:38:48.000Z</time>
      </trkpt>
      <trkpt lat="44.54891" lon="4.26007">
        <ele>360</ele>
        <time>2018-06-03T09:38:49.000Z</time>
      </trkpt>
      <trkpt lat="44.54886" lon="4.26009">
        <ele>359</ele>
        <time>2018-06-03T09:38:50.000Z</time>
      </trkpt>
      <trkpt lat="44.54882" lon="4.2601">
        <ele>359</ele>
        <time>2018-06-03T09:38:51.000Z</time>
      </trkpt>
      <trkpt lat="44.54878" lon="4.26011">
        <ele>358</ele>
        <time>2018-06-03T09:38:52.000Z</time>
      </trkpt>
      <trkpt lat="44.54874" lon="4.26013">
        <ele>357</ele>
        <time>2018-06-03T09:38:53.000Z</time>
      </trkpt>
      <trkpt lat="44.5487" lon="4.26015">
        <ele>357</ele>
        <time>2018-06-03T09:38:54.000Z</time>
      </trkpt>
      <trkpt lat="44.54867" lon="4.26017">
        <ele>357</ele>
        <time>2018-06-03T09:38:55.000Z</time>
      </trkpt>
      <trkpt lat="44.54863" lon="4.26019">
        <ele>356</ele>
        <time>2018-06-03T09:38:56.000Z</time>
      </trkpt>
      <trkpt lat="44.54859" lon="4.26021">
        <ele>356</ele>
        <time>2018-06-03T09:38:57.000Z</time>
      </trkpt>
      <trkpt lat="44.54855" lon="4.26022">
        <ele>355</ele>
        <time>2018-06-03T09:38:58.000Z</time>
      </trkpt>
      <trkpt lat="44.54851" lon="4.26024">
        <ele>355</ele>
        <time>2018-06-03T09:38:59.000Z</time>
      </trkpt>
      <trkpt lat="44.54848" lon="4.26028">
        <ele>355</ele>
        <time>2018-06-03T09:39:00.000Z</time>
      </trkpt>
      <trkpt lat="44.54845" lon="4.26032">
        <ele>355</ele>
        <time>2018-06-03T09:39:01.000Z</time>
      </trkpt>
      <trkpt lat="44.54843" lon="4.26037">
        <ele>355</ele>
        <time>2018-06-03T09:39:02.000Z</time>
      </trkpt>
      <trkpt lat="44.54841" lon="4.26042">
        <ele>355</ele>
        <time>2018-06-03T09:39:03.000Z</time>
      </trkpt>
      <trkpt lat="44.54839" lon="4.26046">
        <ele>355</ele>
        <time>2018-06-03T09:39:04.000Z</time>
      </trkpt>
      <trkpt lat="44.54838" lon="4.26052">
        <ele>355</ele>
        <time>2018-06-03T09:39:05.000Z</time>
      </trkpt>
      <trkpt lat="44.54836" lon="4.26057">
        <ele>355</ele>
        <time>2018-06-03T09:39:06.000Z</time>
      </trkpt>
      <trkpt lat="44.54835" lon="4.26063">
        <ele>354</ele>
        <time>2018-06-03T09:39:07.000Z</time>
      </trkpt>
      <trkpt lat="44.54834" lon="4.26068">
        <ele>353</ele>
        <time>2018-06-03T09:39:08.000Z</time>
      </trkpt>
      <trkpt lat="44.54832" lon="4.26074">
        <ele>345</ele>
        <time>2018-06-03T09:39:09.000Z</time>
      </trkpt>
      <trkpt lat="44.54831" lon="4.2608">
        <ele>347</ele>
        <time>2018-06-03T09:39:10.000Z</time>
      </trkpt>
      <trkpt lat="44.54831" lon="4.26086">
        <ele>348</ele>
        <time>2018-06-03T09:39:11.000Z</time>
      </trkpt>
      <trkpt lat="44.54831" lon="4.26091">
        <ele>347</ele>
        <time>2018-06-03T09:39:12.000Z</time>
      </trkpt>
      <trkpt lat="44.54831" lon="4.26097">
        <ele>346</ele>
        <time>2018-06-03T09:39:13.000Z</time>
      </trkpt>
      <trkpt lat="44.54831" lon="4.26103">
        <ele>345</ele>
        <time>2018-06-03T09:39:14.000Z</time>
      </trkpt>
      <trkpt lat="44.54831" lon="4.26109">
        <ele>345</ele>
        <time>2018-06-03T09:39:15.000Z</time>
      </trkpt>
      <trkpt lat="44.54831" lon="4.26115">
        <ele>345</ele>
        <time>2018-06-03T09:39:16.000Z</time>
      </trkpt>
      <trkpt lat="44.54831" lon="4.26121">
        <ele>345</ele>
        <time>2018-06-03T09:39:17.000Z</time>
      </trkpt>
      <trkpt lat="44.54831" lon="4.26127">
        <ele>346</ele>
        <time>2018-06-03T09:39:18.000Z</time>
      </trkpt>
      <trkpt lat="44.5483" lon="4.26132">
        <ele>347</ele>
        <time>2018-06-03T09:39:19.000Z</time>
      </trkpt>
      <trkpt lat="44.5483" lon="4.26138">
        <ele>348</ele>
        <time>2018-06-03T09:39:20.000Z</time>
      </trkpt>
      <trkpt lat="44.54829" lon="4.26144">
        <ele>349</ele>
        <time>2018-06-03T09:39:21.000Z</time>
      </trkpt>
      <trkpt lat="44.54828" lon="4.2615">
        <ele>351</ele>
        <time>2018-06-03T09:39:22.000Z</time>
      </trkpt>
      <trkpt lat="44.54827" lon="4.26155">
        <ele>353</ele>
        <time>2018-06-03T09:39:23.000Z</time>
      </trkpt>
      <trkpt lat="44.54825" lon="4.2616">
        <ele>354</ele>
        <time>2018-06-03T09:39:24.000Z</time>
      </trkpt>
      <trkpt lat="44.54824" lon="4.26165">
        <ele>355</ele>
        <time>2018-06-03T09:39:25.000Z</time>
      </trkpt>
      <trkpt lat="44.54823" lon="4.2617">
        <ele>361</ele>
        <time>2018-06-03T09:39:26.000Z</time>
      </trkpt>
      <trkpt lat="44.54822" lon="4.26175">
        <ele>361</ele>
        <time>2018-06-03T09:39:27.000Z</time>
      </trkpt>
      <trkpt lat="44.5482" lon="4.26179">
        <ele>361</ele>
        <time>2018-06-03T09:39:28.000Z</time>
      </trkpt>
      <trkpt lat="44.54819" lon="4.26183">
        <ele>361</ele>
        <time>2018-06-03T09:39:29.000Z</time>
      </trkpt>
      <trkpt lat="44.54817" lon="4.26187">
        <ele>361</ele>
        <time>2018-06-03T09:39:30.000Z</time>
      </trkpt>
      <trkpt lat="44.54815" lon="4.26191">
        <ele>361</ele>
        <time>2018-06-03T09:39:31.000Z</time>
      </trkpt>
      <trkpt lat="44.54812" lon="4.26194">
        <ele>361</ele>
        <time>2018-06-03T09:39:32.000Z</time>
      </trkpt>
      <trkpt lat="44.54809" lon="4.26198">
        <ele>361</ele>
        <time>2018-06-03T09:39:33.000Z</time>
      </trkpt>
      <trkpt lat="44.54806" lon="4.262">
        <ele>361</ele>
        <time>2018-06-03T09:39:34.000Z</time>
      </trkpt>
      <trkpt lat="44.54802" lon="4.26203">
        <ele>361</ele>
        <time>2018-06-03T09:39:35.000Z</time>
      </trkpt>
      <trkpt lat="44.54799" lon="4.26206">
        <ele>360</ele>
        <time>2018-06-03T09:39:36.000Z</time>
      </trkpt>
      <trkpt lat="44.54796" lon="4.26209">
        <ele>360</ele>
        <time>2018-06-03T09:39:37.000Z</time>
      </trkpt>
      <trkpt lat="44.54794" lon="4.26213">
        <ele>361</ele>
        <time>2018-06-03T09:39:38.000Z</time>
      </trkpt>
      <trkpt lat="44.54791" lon="4.26217">
        <ele>361</ele>
        <time>2018-06-03T09:39:39.000Z</time>
      </trkpt>
      <trkpt lat="44.54787" lon="4.26221">
        <ele>361</ele>
        <time>2018-06-03T09:39:40.000Z</time>
      </trkpt>
      <trkpt lat="44.54784" lon="4.26225">
        <ele>361</ele>
        <time>2018-06-03T09:39:41.000Z</time>
      </trkpt>
      <trkpt lat="44.54781" lon="4.26229">
        <ele>360</ele>
        <time>2018-06-03T09:39:42.000Z</time>
      </trkpt>
      <trkpt lat="44.54778" lon="4.26233">
        <ele>360</ele>
        <time>2018-06-03T09:39:43.000Z</time>
      </trkpt>
      <trkpt lat="44.54774" lon="4.26237">
        <ele>360</ele>
        <time>2018-06-03T09:39:44.000Z</time>
      </trkpt>
      <trkpt lat="44.54771" lon="4.2624">
        <ele>360</ele>
        <time>2018-06-03T09:39:45.000Z</time>
      </trkpt>
      <trkpt lat="44.54767" lon="4.26243">
        <ele>359</ele>
        <time>2018-06-03T09:39:46.000Z</time>
      </trkpt>
      <trkpt lat="44.54763" lon="4.26245">
        <ele>359</ele>
        <time>2018-06-03T09:39:47.000Z</time>
      </trkpt>
      <trkpt lat="44.54759" lon="4.26247">
        <ele>359</ele>
        <time>2018-06-03T09:39:48.000Z</time>
      </trkpt>
      <trkpt lat="44.54755" lon="4.26249">
        <ele>358</ele>
        <time>2018-06-03T09:39:49.000Z</time>
      </trkpt>
      <trkpt lat="44.54751" lon="4.26251">
        <ele>360</ele>
        <time>2018-06-03T09:39:50.000Z</time>
      </trkpt>
      <trkpt lat="44.54747" lon="4.26252">
        <ele>358</ele>
        <time>2018-06-03T09:39:51.000Z</time>
      </trkpt>
      <trkpt lat="44.54743" lon="4.26254">
        <ele>358</ele>
        <time>2018-06-03T09:39:52.000Z</time>
      </trkpt>
      <trkpt lat="44.54739" lon="4.26256">
        <ele>358</ele>
        <time>2018-06-03T09:39:53.000Z</time>
      </trkpt>
      <trkpt lat="44.54735" lon="4.26259">
        <ele>357</ele>
        <time>2018-06-03T09:39:54.000Z</time>
      </trkpt>
      <trkpt lat="44.54732" lon="4.26262">
        <ele>357</ele>
        <time>2018-06-03T09:39:55.000Z</time>
      </trkpt>
      <trkpt lat="44.54729" lon="4.26266">
        <ele>357</ele>
        <time>2018-06-03T09:39:56.000Z</time>
      </trkpt>
      <trkpt lat="44.54726" lon="4.2627">
        <ele>357</ele>
        <time>2018-06-03T09:39:57.000Z</time>
      </trkpt>
      <trkpt lat="44.54723" lon="4.26274">
        <ele>357</ele>
        <time>2018-06-03T09:39:58.000Z</time>
      </trkpt>
      <trkpt lat="44.5472" lon="4.26278">
        <ele>357</ele>
        <time>2018-06-03T09:39:59.000Z</time>
      </trkpt>
      <trkpt lat="44.54718" lon="4.26282">
        <ele>357</ele>
        <time>2018-06-03T09:40:00.000Z</time>
      </trkpt>
      <trkpt lat="44.54715" lon="4.26287">
        <ele>358</ele>
        <time>2018-06-03T09:40:01.000Z</time>
      </trkpt>
      <trkpt lat="44.54713" lon="4.26291">
        <ele>358</ele>
        <time>2018-06-03T09:40:02.000Z</time>
      </trkpt>
      <trkpt lat="44.5471" lon="4.26296">
        <ele>358</ele>
        <time>2018-06-03T09:40:03.000Z</time>
      </trkpt>
      <trkpt lat="44.54708" lon="4.26301">
        <ele>359</ele>
        <time>2018-06-03T09:40:04.000Z</time>
      </trkpt>
      <trkpt lat="44.54706" lon="4.26306">
        <ele>359</ele>
        <time>2018-06-03T09:40:05.000Z</time>
      </trkpt>
      <trkpt lat="44.54704" lon="4.2631">
        <ele>359</ele>
        <time>2018-06-03T09:40:06.000Z</time>
      </trkpt>
      <trkpt lat="44.54701" lon="4.26315">
        <ele>359</ele>
        <time>2018-06-03T09:40:07.000Z</time>
      </trkpt>
      <trkpt lat="44.54699" lon="4.2632">
        <ele>359</ele>
        <time>2018-06-03T09:40:08.000Z</time>
      </trkpt>
      <trkpt lat="44.54697" lon="4.26325">
        <ele>359</ele>
        <time>2018-06-03T09:40:09.000Z</time>
      </trkpt>
      <trkpt lat="44.54695" lon="4.2633">
        <ele>359</ele>
        <time>2018-06-03T09:40:10.000Z</time>
      </trkpt>
      <trkpt lat="44.54692" lon="4.26334">
        <ele>373</ele>
        <time>2018-06-03T09:40:11.000Z</time>
      </trkpt>
      <trkpt lat="44.54689" lon="4.26339">
        <ele>373</ele>
        <time>2018-06-03T09:40:12.000Z</time>
      </trkpt>
      <trkpt lat="44.54687" lon="4.26343">
        <ele>372</ele>
        <time>2018-06-03T09:40:13.000Z</time>
      </trkpt>
      <trkpt lat="44.54684" lon="4.26347">
        <ele>372</ele>
        <time>2018-06-03T09:40:14.000Z</time>
      </trkpt>
      <trkpt lat="44.54681" lon="4.26351">
        <ele>372</ele>
        <time>2018-06-03T09:40:15.000Z</time>
      </trkpt>
      <trkpt lat="44.54678" lon="4.26355">
        <ele>373</ele>
        <time>2018-06-03T09:40:16.000Z</time>
      </trkpt>
      <trkpt lat="44.54675" lon="4.26359">
        <ele>374</ele>
        <time>2018-06-03T09:40:17.000Z</time>
      </trkpt>
      <trkpt lat="44.54672" lon="4.26362">
        <ele>375</ele>
        <time>2018-06-03T09:40:18.000Z</time>
      </trkpt>
      <trkpt lat="44.54669" lon="4.26366">
        <ele>376</ele>
        <time>2018-06-03T09:40:19.000Z</time>
      </trkpt>
      <trkpt lat="44.54666" lon="4.26369">
        <ele>358</ele>
        <time>2018-06-03T09:40:20.000Z</time>
      </trkpt>
      <trkpt lat="44.54662" lon="4.26372">
        <ele>358</ele>
        <time>2018-06-03T09:40:21.000Z</time>
      </trkpt>
      <trkpt lat="44.54659" lon="4.26374">
        <ele>359</ele>
        <time>2018-06-03T09:40:22.000Z</time>
      </trkpt>
      <trkpt lat="44.54655" lon="4.26377">
        <ele>359</ele>
        <time>2018-06-03T09:40:23.000Z</time>
      </trkpt>
      <trkpt lat="44.54651" lon="4.26379">
        <ele>359</ele>
        <time>2018-06-03T09:40:24.000Z</time>
      </trkpt>
      <trkpt lat="44.54648" lon="4.26382">
        <ele>359</ele>
        <time>2018-06-03T09:40:25.000Z</time>
      </trkpt>
      <trkpt lat="44.54644" lon="4.26384">
        <ele>359</ele>
        <time>2018-06-03T09:40:26.000Z</time>
      </trkpt>
      <trkpt lat="44.54641" lon="4.26387">
        <ele>359</ele>
        <time>2018-06-03T09:40:27.000Z</time>
      </trkpt>
      <trkpt lat="44.54637" lon="4.2639">
        <ele>358</ele>
        <time>2018-06-03T09:40:28.000Z</time>
      </trkpt>
      <trkpt lat="44.54634" lon="4.26393">
        <ele>358</ele>
        <time>2018-06-03T09:40:29.000Z</time>
      </trkpt>
      <trkpt lat="44.54631" lon="4.26396">
        <ele>358</ele>
        <time>2018-06-03T09:40:30.000Z</time>
      </trkpt>
      <trkpt lat="44.54628" lon="4.264">
        <ele>358</ele>
        <time>2018-06-03T09:40:31.000Z</time>
      </trkpt>
      <trkpt lat="44.54624" lon="4.26403">
        <ele>357</ele>
        <time>2018-06-03T09:40:32.000Z</time>
      </trkpt>
      <trkpt lat="44.54621" lon="4.26407">
        <ele>357</ele>
        <time>2018-06-03T09:40:33.000Z</time>
      </trkpt>
      <trkpt lat="44.54619" lon="4.2641">
        <ele>356</ele>
        <time>2018-06-03T09:40:34.000Z</time>
      </trkpt>
      <trkpt lat="44.54616" lon="4.26414">
        <ele>356</ele>
        <time>2018-06-03T09:40:35.000Z</time>
      </trkpt>
      <trkpt lat="44.54613" lon="4.26418">
        <ele>368</ele>
        <time>2018-06-03T09:40:36.000Z</time>
      </trkpt>
      <trkpt lat="44.5461" lon="4.26422">
        <ele>367</ele>
        <time>2018-06-03T09:40:37.000Z</time>
      </trkpt>
      <trkpt lat="44.54607" lon="4.26426">
        <ele>367</ele>
        <time>2018-06-03T09:40:38.000Z</time>
      </trkpt>
      <trkpt lat="44.54604" lon="4.2643">
        <ele>366</ele>
        <time>2018-06-03T09:40:39.000Z</time>
      </trkpt>
      <trkpt lat="44.54601" lon="4.26435">
        <ele>367</ele>
        <time>2018-06-03T09:40:40.000Z</time>
      </trkpt>
      <trkpt lat="44.54599" lon="4.26439">
        <ele>367</ele>
        <time>2018-06-03T09:40:41.000Z</time>
      </trkpt>
      <trkpt lat="44.54597" lon="4.26444">
        <ele>368</ele>
        <time>2018-06-03T09:40:42.000Z</time>
      </trkpt>
      <trkpt lat="44.54595" lon="4.26448">
        <ele>369</ele>
        <time>2018-06-03T09:40:43.000Z</time>
      </trkpt>
      <trkpt lat="44.54593" lon="4.26453">
        <ele>370</ele>
        <time>2018-06-03T09:40:44.000Z</time>
      </trkpt>
      <trkpt lat="44.54591" lon="4.26458">
        <ele>371</ele>
        <time>2018-06-03T09:40:45.000Z</time>
      </trkpt>
      <trkpt lat="44.54589" lon="4.26462">
        <ele>371</ele>
        <time>2018-06-03T09:40:46.000Z</time>
      </trkpt>
      <trkpt lat="44.54587" lon="4.26467">
        <ele>372</ele>
        <time>2018-06-03T09:40:47.000Z</time>
      </trkpt>
      <trkpt lat="44.54584" lon="4.26471">
        <ele>372</ele>
        <time>2018-06-03T09:40:48.000Z</time>
      </trkpt>
      <trkpt lat="44.54582" lon="4.26476">
        <ele>353</ele>
        <time>2018-06-03T09:40:49.000Z</time>
      </trkpt>
      <trkpt lat="44.54579" lon="4.26481">
        <ele>355</ele>
        <time>2018-06-03T09:40:50.000Z</time>
      </trkpt>
      <trkpt lat="44.54577" lon="4.26485">
        <ele>357</ele>
        <time>2018-06-03T09:40:51.000Z</time>
      </trkpt>
      <trkpt lat="44.54574" lon="4.2649">
        <ele>358</ele>
        <time>2018-06-03T09:40:52.000Z</time>
      </trkpt>
      <trkpt lat="44.54572" lon="4.26495">
        <ele>359</ele>
        <time>2018-06-03T09:40:53.000Z</time>
      </trkpt>
      <trkpt lat="44.54569" lon="4.26499">
        <ele>358</ele>
        <time>2018-06-03T09:40:54.000Z</time>
      </trkpt>
      <trkpt lat="44.54567" lon="4.26504">
        <ele>364</ele>
        <time>2018-06-03T09:40:55.000Z</time>
      </trkpt>
      <trkpt lat="44.54565" lon="4.26509">
        <ele>363</ele>
        <time>2018-06-03T09:40:56.000Z</time>
      </trkpt>
      <trkpt lat="44.54562" lon="4.26514">
        <ele>362</ele>
        <time>2018-06-03T09:40:57.000Z</time>
      </trkpt>
      <trkpt lat="44.5456" lon="4.26518">
        <ele>361</ele>
        <time>2018-06-03T09:40:58.000Z</time>
      </trkpt>
      <trkpt lat="44.54559" lon="4.26524">
        <ele>361</ele>
        <time>2018-06-03T09:40:59.000Z</time>
      </trkpt>
      <trkpt lat="44.54557" lon="4.2653">
        <ele>361</ele>
        <time>2018-06-03T09:41:00.000Z</time>
      </trkpt>
      <trkpt lat="44.54556" lon="4.26536">
        <ele>361</ele>
        <time>2018-06-03T09:41:01.000Z</time>
      </trkpt>
      <trkpt lat="44.54554" lon="4.26542">
        <ele>361</ele>
        <time>2018-06-03T09:41:02.000Z</time>
      </trkpt>
      <trkpt lat="44.54551" lon="4.26548">
        <ele>361</ele>
        <time>2018-06-03T09:41:03.000Z</time>
      </trkpt>
      <trkpt lat="44.54548" lon="4.26553">
        <ele>361</ele>
        <time>2018-06-03T09:41:04.000Z</time>
      </trkpt>
      <trkpt lat="44.54545" lon="4.26559">
        <ele>360</ele>
        <time>2018-06-03T09:41:05.000Z</time>
      </trkpt>
      <trkpt lat="44.54542" lon="4.26565">
        <ele>360</ele>
        <time>2018-06-03T09:41:06.000Z</time>
      </trkpt>
      <trkpt lat="44.54539" lon="4.26571">
        <ele>359</ele>
        <time>2018-06-03T09:41:07.000Z</time>
      </trkpt>
      <trkpt lat="44.54536" lon="4.26577">
        <ele>359</ele>
        <time>2018-06-03T09:41:08.000Z</time>
      </trkpt>
      <trkpt lat="44.54534" lon="4.26583">
        <ele>358</ele>
        <time>2018-06-03T09:41:09.000Z</time>
      </trkpt>
      <trkpt lat="44.54531" lon="4.26589">
        <ele>367</ele>
        <time>2018-06-03T09:41:10.000Z</time>
      </trkpt>
      <trkpt lat="44.54527" lon="4.26594">
        <ele>366</ele>
        <time>2018-06-03T09:41:11.000Z</time>
      </trkpt>
      <trkpt lat="44.54524" lon="4.26599">
        <ele>366</ele>
        <time>2018-06-03T09:41:12.000Z</time>
      </trkpt>
      <trkpt lat="44.54521" lon="4.26604">
        <ele>366</ele>
        <time>2018-06-03T09:41:13.000Z</time>
      </trkpt>
      <trkpt lat="44.54518" lon="4.26609">
        <ele>366</ele>
        <time>2018-06-03T09:41:14.000Z</time>
      </trkpt>
      <trkpt lat="44.54515" lon="4.26614">
        <ele>367</ele>
        <time>2018-06-03T09:41:15.000Z</time>
      </trkpt>
      <trkpt lat="44.54512" lon="4.26621">
        <ele>368</ele>
        <time>2018-06-03T09:41:16.000Z</time>
      </trkpt>
      <trkpt lat="44.5451" lon="4.26627">
        <ele>369</ele>
        <time>2018-06-03T09:41:17.000Z</time>
      </trkpt>
      <trkpt lat="44.54507" lon="4.26633">
        <ele>369</ele>
        <time>2018-06-03T09:41:18.000Z</time>
      </trkpt>
      <trkpt lat="44.54504" lon="4.2664">
        <ele>369</ele>
        <time>2018-06-03T09:41:19.000Z</time>
      </trkpt>
      <trkpt lat="44.54501" lon="4.26646">
        <ele>369</ele>
        <time>2018-06-03T09:41:20.000Z</time>
      </trkpt>
      <trkpt lat="44.54499" lon="4.26653">
        <ele>353</ele>
        <time>2018-06-03T09:41:21.000Z</time>
      </trkpt>
      <trkpt lat="44.54496" lon="4.26659">
        <ele>357</ele>
        <time>2018-06-03T09:41:22.000Z</time>
      </trkpt>
      <trkpt lat="44.54493" lon="4.26666">
        <ele>358</ele>
        <time>2018-06-03T09:41:23.000Z</time>
      </trkpt>
      <trkpt lat="44.54491" lon="4.26672">
        <ele>362</ele>
        <time>2018-06-03T09:41:24.000Z</time>
      </trkpt>
      <trkpt lat="44.54488" lon="4.26678">
        <ele>361</ele>
        <time>2018-06-03T09:41:25.000Z</time>
      </trkpt>
      <trkpt lat="44.54485" lon="4.26684">
        <ele>359</ele>
        <time>2018-06-03T09:41:26.000Z</time>
      </trkpt>
      <trkpt lat="44.54483" lon="4.2669">
        <ele>359</ele>
        <time>2018-06-03T09:41:27.000Z</time>
      </trkpt>
      <trkpt lat="44.5448" lon="4.26696">
        <ele>359</ele>
        <time>2018-06-03T09:41:28.000Z</time>
      </trkpt>
      <trkpt lat="44.54477" lon="4.26703">
        <ele>359</ele>
        <time>2018-06-03T09:41:29.000Z</time>
      </trkpt>
      <trkpt lat="44.54475" lon="4.26709">
        <ele>359</ele>
        <time>2018-06-03T09:41:30.000Z</time>
      </trkpt>
      <trkpt lat="44.54472" lon="4.26714">
        <ele>359</ele>
        <time>2018-06-03T09:41:31.000Z</time>
      </trkpt>
      <trkpt lat="44.5447" lon="4.2672">
        <ele>360</ele>
        <time>2018-06-03T09:41:32.000Z</time>
      </trkpt>
      <trkpt lat="44.54468" lon="4.26726">
        <ele>360</ele>
        <time>2018-06-03T09:41:33.000Z</time>
      </trkpt>
      <trkpt lat="44.54466" lon="4.26732">
        <ele>360</ele>
        <time>2018-06-03T09:41:34.000Z</time>
      </trkpt>
      <trkpt lat="44.54464" lon="4.26737">
        <ele>360</ele>
        <time>2018-06-03T09:41:35.000Z</time>
      </trkpt>
      <trkpt lat="44.54462" lon="4.26743">
        <ele>360</ele>
        <time>2018-06-03T09:41:36.000Z</time>
      </trkpt>
      <trkpt lat="44.54461" lon="4.26749">
        <ele>360</ele>
        <time>2018-06-03T09:41:37.000Z</time>
      </trkpt>
      <trkpt lat="44.54459" lon="4.26753">
        <ele>372</ele>
        <time>2018-06-03T09:41:38.000Z</time>
      </trkpt>
      <trkpt lat="44.54457" lon="4.26758">
        <ele>371</ele>
        <time>2018-06-03T09:41:39.000Z</time>
      </trkpt>
      <trkpt lat="44.54454" lon="4.26763">
        <ele>371</ele>
        <time>2018-06-03T09:41:40.000Z</time>
      </trkpt>
      <trkpt lat="44.54452" lon="4.26767">
        <ele>370</ele>
        <time>2018-06-03T09:41:41.000Z</time>
      </trkpt>
      <trkpt lat="44.54449" lon="4.26772">
        <ele>370</ele>
        <time>2018-06-03T09:41:42.000Z</time>
      </trkpt>
      <trkpt lat="44.54447" lon="4.26776">
        <ele>370</ele>
        <time>2018-06-03T09:41:43.000Z</time>
      </trkpt>
      <trkpt lat="44.54445" lon="4.2678">
        <ele>370</ele>
        <time>2018-06-03T09:41:44.000Z</time>
      </trkpt>
      <trkpt lat="44.54442" lon="4.26783">
        <ele>371</ele>
        <time>2018-06-03T09:41:45.000Z</time>
      </trkpt>
      <trkpt lat="44.5444" lon="4.26787">
        <ele>371</ele>
        <time>2018-06-03T09:41:46.000Z</time>
      </trkpt>
      <trkpt lat="44.54436" lon="4.2679">
        <ele>371</ele>
        <time>2018-06-03T09:41:47.000Z</time>
      </trkpt>
      <trkpt lat="44.54432" lon="4.26793">
        <ele>371</ele>
        <time>2018-06-03T09:41:48.000Z</time>
      </trkpt>
      <trkpt lat="44.54429" lon="4.26797">
        <ele>371</ele>
        <time>2018-06-03T09:41:49.000Z</time>
      </trkpt>
      <trkpt lat="44.54425" lon="4.268">
        <ele>371</ele>
        <time>2018-06-03T09:41:50.000Z</time>
      </trkpt>
      <trkpt lat="44.54422" lon="4.26803">
        <ele>371</ele>
        <time>2018-06-03T09:41:51.000Z</time>
      </trkpt>
      <trkpt lat="44.5442" lon="4.26806">
        <ele>371</ele>
        <time>2018-06-03T09:41:52.000Z</time>
      </trkpt>
      <trkpt lat="44.54417" lon="4.2681">
        <ele>372</ele>
        <time>2018-06-03T09:41:53.000Z</time>
      </trkpt>
      <trkpt lat="44.54414" lon="4.26815">
        <ele>356</ele>
        <time>2018-06-03T09:41:54.000Z</time>
      </trkpt>
      <trkpt lat="44.54412" lon="4.26819">
        <ele>359</ele>
        <time>2018-06-03T09:41:55.000Z</time>
      </trkpt>
      <trkpt lat="44.54409" lon="4.26823">
        <ele>360</ele>
        <time>2018-06-03T09:41:56.000Z</time>
      </trkpt>
      <trkpt lat="44.54407" lon="4.26827">
        <ele>361</ele>
        <time>2018-06-03T09:41:57.000Z</time>
      </trkpt>
      <trkpt lat="44.54405" lon="4.26831">
        <ele>360</ele>
        <time>2018-06-03T09:41:58.000Z</time>
      </trkpt>
      <trkpt lat="44.54402" lon="4.26835">
        <ele>363</ele>
        <time>2018-06-03T09:41:59.000Z</time>
      </trkpt>
      <trkpt lat="44.544" lon="4.26839">
        <ele>362</ele>
        <time>2018-06-03T09:42:00.000Z</time>
      </trkpt>
      <trkpt lat="44.54397" lon="4.26843">
        <ele>360</ele>
        <time>2018-06-03T09:42:01.000Z</time>
      </trkpt>
      <trkpt lat="44.54394" lon="4.26847">
        <ele>359</ele>
        <time>2018-06-03T09:42:02.000Z</time>
      </trkpt>
      <trkpt lat="44.54392" lon="4.26851">
        <ele>358</ele>
        <time>2018-06-03T09:42:03.000Z</time>
      </trkpt>
      <trkpt lat="44.5439" lon="4.26854">
        <ele>357</ele>
        <time>2018-06-03T09:42:04.000Z</time>
      </trkpt>
      <trkpt lat="44.54388" lon="4.26858">
        <ele>356</ele>
        <time>2018-06-03T09:42:05.000Z</time>
      </trkpt>
      <trkpt lat="44.54387" lon="4.26862">
        <ele>356</ele>
        <time>2018-06-03T09:42:06.000Z</time>
      </trkpt>
      <trkpt lat="44.54385" lon="4.26866">
        <ele>355</ele>
        <time>2018-06-03T09:42:07.000Z</time>
      </trkpt>
      <trkpt lat="44.54384" lon="4.26871">
        <ele>355</ele>
        <time>2018-06-03T09:42:08.000Z</time>
      </trkpt>
      <trkpt lat="44.54384" lon="4.26876">
        <ele>355</ele>
        <time>2018-06-03T09:42:09.000Z</time>
      </trkpt>
      <trkpt lat="44.54384" lon="4.26881">
        <ele>355</ele>
        <time>2018-06-03T09:42:10.000Z</time>
      </trkpt>
      <trkpt lat="44.54384" lon="4.26885">
        <ele>355</ele>
        <time>2018-06-03T09:42:11.000Z</time>
      </trkpt>
      <trkpt lat="44.54385" lon="4.2689">
        <ele>355</ele>
        <time>2018-06-03T09:42:12.000Z</time>
      </trkpt>
      <trkpt lat="44.54387" lon="4.26894">
        <ele>356</ele>
        <time>2018-06-03T09:42:13.000Z</time>
      </trkpt>
      <trkpt lat="44.54389" lon="4.26898">
        <ele>356</ele>
        <time>2018-06-03T09:42:14.000Z</time>
      </trkpt>
      <trkpt lat="44.54391" lon="4.26901">
        <ele>357</ele>
        <time>2018-06-03T09:42:15.000Z</time>
      </trkpt>
      <trkpt lat="44.54394" lon="4.26903">
        <ele>358</ele>
        <time>2018-06-03T09:42:16.000Z</time>
      </trkpt>
      <trkpt lat="44.54396" lon="4.26905">
        <ele>359</ele>
        <time>2018-06-03T09:42:17.000Z</time>
      </trkpt>
      <trkpt lat="44.54399" lon="4.26907">
        <ele>360</ele>
        <time>2018-06-03T09:42:18.000Z</time>
      </trkpt>
      <trkpt lat="44.54402" lon="4.26909">
        <ele>361</ele>
        <time>2018-06-03T09:42:19.000Z</time>
      </trkpt>
      <trkpt lat="44.54405" lon="4.2691">
        <ele>362</ele>
        <time>2018-06-03T09:42:20.000Z</time>
      </trkpt>
      <trkpt lat="44.54408" lon="4.26911">
        <ele>363</ele>
        <time>2018-06-03T09:42:21.000Z</time>
      </trkpt>
      <trkpt lat="44.54411" lon="4.26912">
        <ele>364</ele>
        <time>2018-06-03T09:42:22.000Z</time>
      </trkpt>
      <trkpt lat="44.54414" lon="4.26913">
        <ele>365</ele>
        <time>2018-06-03T09:42:23.000Z</time>
      </trkpt>
      <trkpt lat="44.54417" lon="4.26914">
        <ele>367</ele>
        <time>2018-06-03T09:42:24.000Z</time>
      </trkpt>
      <trkpt lat="44.5442" lon="4.26916">
        <ele>370</ele>
        <time>2018-06-03T09:42:25.000Z</time>
      </trkpt>
      <trkpt lat="44.54423" lon="4.26917">
        <ele>368</ele>
        <time>2018-06-03T09:42:26.000Z</time>
      </trkpt>
      <trkpt lat="44.54426" lon="4.26919">
        <ele>368</ele>
        <time>2018-06-03T09:42:27.000Z</time>
      </trkpt>
      <trkpt lat="44.54429" lon="4.2692">
        <ele>368</ele>
        <time>2018-06-03T09:42:28.000Z</time>
      </trkpt>
      <trkpt lat="44.54432" lon="4.26922">
        <ele>368</ele>
        <time>2018-06-03T09:42:29.000Z</time>
      </trkpt>
      <trkpt lat="44.54436" lon="4.26924">
        <ele>369</ele>
        <time>2018-06-03T09:42:30.000Z</time>
      </trkpt>
      <trkpt lat="44.54439" lon="4.26926">
        <ele>369</ele>
        <time>2018-06-03T09:42:31.000Z</time>
      </trkpt>
      <trkpt lat="44.54443" lon="4.26928">
        <ele>369</ele>
        <time>2018-06-03T09:42:32.000Z</time>
      </trkpt>
      <trkpt lat="44.54445" lon="4.2693">
        <ele>369</ele>
        <time>2018-06-03T09:42:33.000Z</time>
      </trkpt>
      <trkpt lat="44.54448" lon="4.26932">
        <ele>370</ele>
        <time>2018-06-03T09:42:34.000Z</time>
      </trkpt>
      <trkpt lat="44.54451" lon="4.26933">
        <ele>370</ele>
        <time>2018-06-03T09:42:35.000Z</time>
      </trkpt>
      <trkpt lat="44.54454" lon="4.26935">
        <ele>370</ele>
        <time>2018-06-03T09:42:36.000Z</time>
      </trkpt>
      <trkpt lat="44.54457" lon="4.26937">
        <ele>370</ele>
        <time>2018-06-03T09:42:37.000Z</time>
      </trkpt>
      <trkpt lat="44.5446" lon="4.26938">
        <ele>371</ele>
        <time>2018-06-03T09:42:38.000Z</time>
      </trkpt>
      <trkpt lat="44.54463" lon="4.26941">
        <ele>371</ele>
        <time>2018-06-03T09:42:39.000Z</time>
      </trkpt>
      <trkpt lat="44.54467" lon="4.26943">
        <ele>371</ele>
        <time>2018-06-03T09:42:40.000Z</time>
      </trkpt>
      <trkpt lat="44.5447" lon="4.26946">
        <ele>372</ele>
        <time>2018-06-03T09:42:41.000Z</time>
      </trkpt>
      <trkpt lat="44.54474" lon="4.26949">
        <ele>372</ele>
        <time>2018-06-03T09:42:42.000Z</time>
      </trkpt>
      <trkpt lat="44.54477" lon="4.26952">
        <ele>372</ele>
        <time>2018-06-03T09:42:43.000Z</time>
      </trkpt>
      <trkpt lat="44.54481" lon="4.26956">
        <ele>372</ele>
        <time>2018-06-03T09:42:44.000Z</time>
      </trkpt>
      <trkpt lat="44.54484" lon="4.2696">
        <ele>371</ele>
        <time>2018-06-03T09:42:45.000Z</time>
      </trkpt>
      <trkpt lat="44.54487" lon="4.26964">
        <ele>371</ele>
        <time>2018-06-03T09:42:46.000Z</time>
      </trkpt>
      <trkpt lat="44.5449" lon="4.26968">
        <ele>371</ele>
        <time>2018-06-03T09:42:47.000Z</time>
      </trkpt>
      <trkpt lat="44.54493" lon="4.26973">
        <ele>371</ele>
        <time>2018-06-03T09:42:48.000Z</time>
      </trkpt>
      <trkpt lat="44.54496" lon="4.26977">
        <ele>371</ele>
        <time>2018-06-03T09:42:49.000Z</time>
      </trkpt>
      <trkpt lat="44.54499" lon="4.26982">
        <ele>371</ele>
        <time>2018-06-03T09:42:50.000Z</time>
      </trkpt>
      <trkpt lat="44.54503" lon="4.26987">
        <ele>379</ele>
        <time>2018-06-03T09:42:51.000Z</time>
      </trkpt>
      <trkpt lat="44.54505" lon="4.26992">
        <ele>378</ele>
        <time>2018-06-03T09:42:52.000Z</time>
      </trkpt>
      <trkpt lat="44.54508" lon="4.26996">
        <ele>377</ele>
        <time>2018-06-03T09:42:53.000Z</time>
      </trkpt>
      <trkpt lat="44.54511" lon="4.27001">
        <ele>373</ele>
        <time>2018-06-03T09:42:54.000Z</time>
      </trkpt>
      <trkpt lat="44.54514" lon="4.27006">
        <ele>374</ele>
        <time>2018-06-03T09:42:55.000Z</time>
      </trkpt>
      <trkpt lat="44.54517" lon="4.2701">
        <ele>374</ele>
        <time>2018-06-03T09:42:56.000Z</time>
      </trkpt>
      <trkpt lat="44.54519" lon="4.27015">
        <ele>374</ele>
        <time>2018-06-03T09:42:57.000Z</time>
      </trkpt>
      <trkpt lat="44.54522" lon="4.2702">
        <ele>374</ele>
        <time>2018-06-03T09:42:58.000Z</time>
      </trkpt>
      <trkpt lat="44.54524" lon="4.27025">
        <ele>374</ele>
        <time>2018-06-03T09:42:59.000Z</time>
      </trkpt>
      <trkpt lat="44.54527" lon="4.27031">
        <ele>374</ele>
        <time>2018-06-03T09:43:00.000Z</time>
      </trkpt>
      <trkpt lat="44.54529" lon="4.27036">
        <ele>374</ele>
        <time>2018-06-03T09:43:01.000Z</time>
      </trkpt>
      <trkpt lat="44.54531" lon="4.27042">
        <ele>374</ele>
        <time>2018-06-03T09:43:02.000Z</time>
      </trkpt>
      <trkpt lat="44.54533" lon="4.27048">
        <ele>374</ele>
        <time>2018-06-03T09:43:03.000Z</time>
      </trkpt>
      <trkpt lat="44.54535" lon="4.27053">
        <ele>374</ele>
        <time>2018-06-03T09:43:04.000Z</time>
      </trkpt>
      <trkpt lat="44.54537" lon="4.27058">
        <ele>373</ele>
        <time>2018-06-03T09:43:05.000Z</time>
      </trkpt>
      <trkpt lat="44.54539" lon="4.27063">
        <ele>373</ele>
        <time>2018-06-03T09:43:06.000Z</time>
      </trkpt>
      <trkpt lat="44.5454" lon="4.27066">
        <ele>374</ele>
        <time>2018-06-03T09:43:07.000Z</time>
      </trkpt>
      <trkpt lat="44.54543" lon="4.27067">
        <ele>374</ele>
        <time>2018-06-03T09:43:08.000Z</time>
      </trkpt>
      <trkpt lat="44.54545" lon="4.27066">
        <ele>375</ele>
        <time>2018-06-03T09:43:09.000Z</time>
      </trkpt>
      <trkpt lat="44.54546" lon="4.27065">
        <ele>375</ele>
        <time>2018-06-03T09:43:10.000Z</time>
      </trkpt>
      <trkpt lat="44.54546" lon="4.27063">
        <ele>375</ele>
        <time>2018-06-03T09:43:11.000Z</time>
      </trkpt>
      <trkpt lat="44.54545" lon="4.2706">
        <ele>375</ele>
        <time>2018-06-03T09:43:12.000Z</time>
      </trkpt>
      <trkpt lat="44.54545" lon="4.27059">
        <ele>375</ele>
        <time>2018-06-03T09:43:13.000Z</time>
      </trkpt>
      <trkpt lat="44.54545" lon="4.27057">
        <ele>375</ele>
        <time>2018-06-03T09:43:14.000Z</time>
      </trkpt>
      <trkpt lat="44.54545" lon="4.27055">
        <ele>375</ele>
        <time>2018-06-03T09:43:15.000Z</time>
      </trkpt>
      <trkpt lat="44.54544" lon="4.27053">
        <ele>375</ele>
        <time>2018-06-03T09:43:16.000Z</time>
      </trkpt>
      <trkpt lat="44.54543" lon="4.2705">
        <ele>375</ele>
        <time>2018-06-03T09:43:17.000Z</time>
      </trkpt>
      <trkpt lat="44.54542" lon="4.27048">
        <ele>375</ele>
        <time>2018-06-03T09:43:18.000Z</time>
      </trkpt>
      <trkpt lat="44.54542" lon="4.27046">
        <ele>376</ele>
        <time>2018-06-03T09:43:19.000Z</time>
      </trkpt>
      <trkpt lat="44.54541" lon="4.27044">
        <ele>376</ele>
        <time>2018-06-03T09:43:20.000Z</time>
      </trkpt>
      <trkpt lat="44.5454" lon="4.27042">
        <ele>376</ele>
        <time>2018-06-03T09:43:21.000Z</time>
      </trkpt>
      <trkpt lat="44.5454" lon="4.2704">
        <ele>376</ele>
        <time>2018-06-03T09:43:22.000Z</time>
      </trkpt>
      <trkpt lat="44.54539" lon="4.27037">
        <ele>376</ele>
        <time>2018-06-03T09:43:23.000Z</time>
      </trkpt>
      <trkpt lat="44.54539" lon="4.27035">
        <ele>376</ele>
        <time>2018-06-03T09:43:24.000Z</time>
      </trkpt>
      <trkpt lat="44.54538" lon="4.27032">
        <ele>376</ele>
        <time>2018-06-03T09:43:25.000Z</time>
      </trkpt>
      <trkpt lat="44.54538" lon="4.2703">
        <ele>376</ele>
        <time>2018-06-03T09:43:26.000Z</time>
      </trkpt>
      <trkpt lat="44.54537" lon="4.27028">
        <ele>376</ele>
        <time>2018-06-03T09:43:27.000Z</time>
      </trkpt>
      <trkpt lat="44.54535" lon="4.27026">
        <ele>376</ele>
        <time>2018-06-03T09:43:28.000Z</time>
      </trkpt>
      <trkpt lat="44.54534" lon="4.27024">
        <ele>376</ele>
        <time>2018-06-03T09:43:29.000Z</time>
      </trkpt>
      <trkpt lat="44.54534" lon="4.27022">
        <ele>376</ele>
        <time>2018-06-03T09:43:30.000Z</time>
      </trkpt>
      <trkpt lat="44.54533" lon="4.2702">
        <ele>376</ele>
        <time>2018-06-03T09:43:31.000Z</time>
      </trkpt>
      <trkpt lat="44.54532" lon="4.27018">
        <ele>376</ele>
        <time>2018-06-03T09:43:32.000Z</time>
      </trkpt>
      <trkpt lat="44.54531" lon="4.27015">
        <ele>376</ele>
        <time>2018-06-03T09:43:33.000Z</time>
      </trkpt>
      <trkpt lat="44.5453" lon="4.27013">
        <ele>376</ele>
        <time>2018-06-03T09:43:34.000Z</time>
      </trkpt>
      <trkpt lat="44.54529" lon="4.27011">
        <ele>376</ele>
        <time>2018-06-03T09:43:35.000Z</time>
      </trkpt>
      <trkpt lat="44.54528" lon="4.27009">
        <ele>376</ele>
        <time>2018-06-03T09:43:36.000Z</time>
      </trkpt>
      <trkpt lat="44.54527" lon="4.27006">
        <ele>376</ele>
        <time>2018-06-03T09:43:37.000Z</time>
      </trkpt>
      <trkpt lat="44.54526" lon="4.27004">
        <ele>375</ele>
        <time>2018-06-03T09:43:38.000Z</time>
      </trkpt>
      <trkpt lat="44.54525" lon="4.27002">
        <ele>375</ele>
        <time>2018-06-03T09:43:39.000Z</time>
      </trkpt>
      <trkpt lat="44.54524" lon="4.27">
        <ele>375</ele>
        <time>2018-06-03T09:43:40.000Z</time>
      </trkpt>
      <trkpt lat="44.54523" lon="4.26998">
        <ele>382</ele>
        <time>2018-06-03T09:43:41.000Z</time>
      </trkpt>
      <trkpt lat="44.54522" lon="4.26996">
        <ele>382</ele>
        <time>2018-06-03T09:43:42.000Z</time>
      </trkpt>
      <trkpt lat="44.54522" lon="4.26994">
        <ele>382</ele>
        <time>2018-06-03T09:43:43.000Z</time>
      </trkpt>
      <trkpt lat="44.54521" lon="4.26993">
        <ele>382</ele>
        <time>2018-06-03T09:43:44.000Z</time>
      </trkpt>
      <trkpt lat="44.54519" lon="4.26991">
        <ele>382</ele>
        <time>2018-06-03T09:43:45.000Z</time>
      </trkpt>
      <trkpt lat="44.54518" lon="4.26989">
        <ele>382</ele>
        <time>2018-06-03T09:43:46.000Z</time>
      </trkpt>
      <trkpt lat="44.54517" lon="4.26987">
        <ele>382</ele>
        <time>2018-06-03T09:43:47.000Z</time>
      </trkpt>
      <trkpt lat="44.54517" lon="4.26985">
        <ele>382</ele>
        <time>2018-06-03T09:43:48.000Z</time>
      </trkpt>
      <trkpt lat="44.54516" lon="4.26984">
        <ele>382</ele>
        <time>2018-06-03T09:43:49.000Z</time>
      </trkpt>
      <trkpt lat="44.54515" lon="4.26981">
        <ele>383</ele>
        <time>2018-06-03T09:43:50.000Z</time>
      </trkpt>
      <trkpt lat="44.54514" lon="4.26979">
        <ele>383</ele>
        <time>2018-06-03T09:43:51.000Z</time>
      </trkpt>
      <trkpt lat="44.54513" lon="4.26977">
        <ele>383</ele>
        <time>2018-06-03T09:43:52.000Z</time>
      </trkpt>
      <trkpt lat="44.54512" lon="4.26975">
        <ele>384</ele>
        <time>2018-06-03T09:43:53.000Z</time>
      </trkpt>
      <trkpt lat="44.54512" lon="4.26973">
        <ele>384</ele>
        <time>2018-06-03T09:43:54.000Z</time>
      </trkpt>
      <trkpt lat="44.54511" lon="4.2697">
        <ele>385</ele>
        <time>2018-06-03T09:43:55.000Z</time>
      </trkpt>
      <trkpt lat="44.5451" lon="4.26968">
        <ele>385</ele>
        <time>2018-06-03T09:43:56.000Z</time>
      </trkpt>
      <trkpt lat="44.5451" lon="4.26965">
        <ele>385</ele>
        <time>2018-06-03T09:43:57.000Z</time>
      </trkpt>
      <trkpt lat="44.54509" lon="4.26963">
        <ele>386</ele>
        <time>2018-06-03T09:43:58.000Z</time>
      </trkpt>
      <trkpt lat="44.54508" lon="4.26961">
        <ele>386</ele>
        <time>2018-06-03T09:43:59.000Z</time>
      </trkpt>
      <trkpt lat="44.54508" lon="4.26959">
        <ele>386</ele>
        <time>2018-06-03T09:44:00.000Z</time>
      </trkpt>
      <trkpt lat="44.54507" lon="4.26957">
        <ele>386</ele>
        <time>2018-06-03T09:44:01.000Z</time>
      </trkpt>
      <trkpt lat="44.54506" lon="4.26955">
        <ele>387</ele>
        <time>2018-06-03T09:44:02.000Z</time>
      </trkpt>
      <trkpt lat="44.54506" lon="4.26952">
        <ele>387</ele>
        <time>2018-06-03T09:44:03.000Z</time>
      </trkpt>
      <trkpt lat="44.54505" lon="4.2695">
        <ele>387</ele>
        <time>2018-06-03T09:44:04.000Z</time>
      </trkpt>
      <trkpt lat="44.54504" lon="4.26948">
        <ele>387</ele>
        <time>2018-06-03T09:44:05.000Z</time>
      </trkpt>
      <trkpt lat="44.54504" lon="4.26946">
        <ele>388</ele>
        <time>2018-06-03T09:44:06.000Z</time>
      </trkpt>
      <trkpt lat="44.54503" lon="4.26944">
        <ele>388</ele>
        <time>2018-06-03T09:44:07.000Z</time>
      </trkpt>
      <trkpt lat="44.54502" lon="4.26942">
        <ele>388</ele>
        <time>2018-06-03T09:44:08.000Z</time>
      </trkpt>
      <trkpt lat="44.54501" lon="4.2694">
        <ele>388</ele>
        <time>2018-06-03T09:44:09.000Z</time>
      </trkpt>
      <trkpt lat="44.545" lon="4.26938">
        <ele>378</ele>
        <time>2018-06-03T09:44:10.000Z</time>
      </trkpt>
      <trkpt lat="44.54499" lon="4.26936">
        <ele>379</ele>
        <time>2018-06-03T09:44:11.000Z</time>
      </trkpt>
      <trkpt lat="44.54498" lon="4.26934">
        <ele>379</ele>
        <time>2018-06-03T09:44:12.000Z</time>
      </trkpt>
      <trkpt lat="44.54497" lon="4.26932">
        <ele>380</ele>
        <time>2018-06-03T09:44:13.000Z</time>
      </trkpt>
      <trkpt lat="44.54496" lon="4.2693">
        <ele>381</ele>
        <time>2018-06-03T09:44:14.000Z</time>
      </trkpt>
      <trkpt lat="44.54494" lon="4.26928">
        <ele>381</ele>
        <time>2018-06-03T09:44:15.000Z</time>
      </trkpt>
      <trkpt lat="44.54493" lon="4.26926">
        <ele>382</ele>
        <time>2018-06-03T09:44:16.000Z</time>
      </trkpt>
      <trkpt lat="44.54491" lon="4.26924">
        <ele>382</ele>
        <time>2018-06-03T09:44:17.000Z</time>
      </trkpt>
      <trkpt lat="44.5449" lon="4.26922">
        <ele>382</ele>
        <time>2018-06-03T09:44:18.000Z</time>
      </trkpt>
      <trkpt lat="44.54489" lon="4.2692">
        <ele>382</ele>
        <time>2018-06-03T09:44:19.000Z</time>
      </trkpt>
      <trkpt lat="44.54488" lon="4.26918">
        <ele>382</ele>
        <time>2018-06-03T09:44:20.000Z</time>
      </trkpt>
      <trkpt lat="44.54487" lon="4.26916">
        <ele>386</ele>
        <time>2018-06-03T09:44:21.000Z</time>
      </trkpt>
      <trkpt lat="44.54486" lon="4.26913">
        <ele>386</ele>
        <time>2018-06-03T09:44:22.000Z</time>
      </trkpt>
      <trkpt lat="44.54485" lon="4.26911">
        <ele>385</ele>
        <time>2018-06-03T09:44:23.000Z</time>
      </trkpt>
      <trkpt lat="44.54484" lon="4.26909">
        <ele>385</ele>
        <time>2018-06-03T09:44:24.000Z</time>
      </trkpt>
      <trkpt lat="44.54483" lon="4.26907">
        <ele>385</ele>
        <time>2018-06-03T09:44:25.000Z</time>
      </trkpt>
      <trkpt lat="44.54482" lon="4.26905">
        <ele>384</ele>
        <time>2018-06-03T09:44:26.000Z</time>
      </trkpt>
      <trkpt lat="44.54482" lon="4.26903">
        <ele>384</ele>
        <time>2018-06-03T09:44:27.000Z</time>
      </trkpt>
      <trkpt lat="44.54481" lon="4.26901">
        <ele>384</ele>
        <time>2018-06-03T09:44:28.000Z</time>
      </trkpt>
      <trkpt lat="44.54481" lon="4.26899">
        <ele>384</ele>
        <time>2018-06-03T09:44:29.000Z</time>
      </trkpt>
      <trkpt lat="44.5448" lon="4.26897">
        <ele>384</ele>
        <time>2018-06-03T09:44:30.000Z</time>
      </trkpt>
      <trkpt lat="44.5448" lon="4.26894">
        <ele>384</ele>
        <time>2018-06-03T09:44:31.000Z</time>
      </trkpt>
      <trkpt lat="44.5448" lon="4.26892">
        <ele>383</ele>
        <time>2018-06-03T09:44:32.000Z</time>
      </trkpt>
      <trkpt lat="44.54479" lon="4.2689">
        <ele>383</ele>
        <time>2018-06-03T09:44:33.000Z</time>
      </trkpt>
      <trkpt lat="44.54479" lon="4.26887">
        <ele>383</ele>
        <time>2018-06-03T09:44:34.000Z</time>
      </trkpt>
      <trkpt lat="44.54479" lon="4.26885">
        <ele>383</ele>
        <time>2018-06-03T09:44:35.000Z</time>
      </trkpt>
      <trkpt lat="44.54479" lon="4.26882">
        <ele>383</ele>
        <time>2018-06-03T09:44:36.000Z</time>
      </trkpt>
      <trkpt lat="44.54479" lon="4.2688">
        <ele>383</ele>
        <time>2018-06-03T09:44:37.000Z</time>
      </trkpt>
      <trkpt lat="44.54479" lon="4.26878">
        <ele>383</ele>
        <time>2018-06-03T09:44:38.000Z</time>
      </trkpt>
      <trkpt lat="44.54479" lon="4.26876">
        <ele>383</ele>
        <time>2018-06-03T09:44:39.000Z</time>
      </trkpt>
      <trkpt lat="44.5448" lon="4.26874">
        <ele>383</ele>
        <time>2018-06-03T09:44:40.000Z</time>
      </trkpt>
      <trkpt lat="44.5448" lon="4.26871">
        <ele>384</ele>
        <time>2018-06-03T09:44:41.000Z</time>
      </trkpt>
      <trkpt lat="44.54481" lon="4.26869">
        <ele>384</ele>
        <time>2018-06-03T09:44:42.000Z</time>
      </trkpt>
      <trkpt lat="44.54481" lon="4.26867">
        <ele>384</ele>
        <time>2018-06-03T09:44:43.000Z</time>
      </trkpt>
      <trkpt lat="44.54481" lon="4.26864">
        <ele>384</ele>
        <time>2018-06-03T09:44:44.000Z</time>
      </trkpt>
      <trkpt lat="44.54482" lon="4.26862">
        <ele>384</ele>
        <time>2018-06-03T09:44:45.000Z</time>
      </trkpt>
      <trkpt lat="44.54481" lon="4.2686">
        <ele>384</ele>
        <time>2018-06-03T09:44:46.000Z</time>
      </trkpt>
      <trkpt lat="44.54481" lon="4.26858">
        <ele>384</ele>
        <time>2018-06-03T09:44:47.000Z</time>
      </trkpt>
      <trkpt lat="44.54481" lon="4.26856">
        <ele>385</ele>
        <time>2018-06-03T09:44:48.000Z</time>
      </trkpt>
      <trkpt lat="44.54481" lon="4.26854">
        <ele>385</ele>
        <time>2018-06-03T09:44:49.000Z</time>
      </trkpt>
      <trkpt lat="44.54482" lon="4.26851">
        <ele>385</ele>
        <time>2018-06-03T09:44:50.000Z</time>
      </trkpt>
      <trkpt lat="44.54482" lon="4.26849">
        <ele>385</ele>
        <time>2018-06-03T09:44:51.000Z</time>
      </trkpt>
      <trkpt lat="44.54483" lon="4.26846">
        <ele>386</ele>
        <time>2018-06-03T09:44:52.000Z</time>
      </trkpt>
      <trkpt lat="44.54484" lon="4.26844">
        <ele>386</ele>
        <time>2018-06-03T09:44:53.000Z</time>
      </trkpt>
      <trkpt lat="44.54485" lon="4.26841">
        <ele>387</ele>
        <time>2018-06-03T09:44:54.000Z</time>
      </trkpt>
      <trkpt lat="44.54487" lon="4.26839">
        <ele>387</ele>
        <time>2018-06-03T09:44:55.000Z</time>
      </trkpt>
      <trkpt lat="44.54488" lon="4.26837">
        <ele>388</ele>
        <time>2018-06-03T09:44:56.000Z</time>
      </trkpt>
      <trkpt lat="44.54489" lon="4.26836">
        <ele>389</ele>
        <time>2018-06-03T09:44:57.000Z</time>
      </trkpt>
      <trkpt lat="44.54491" lon="4.26835">
        <ele>389</ele>
        <time>2018-06-03T09:44:58.000Z</time>
      </trkpt>
      <trkpt lat="44.54492" lon="4.26835">
        <ele>390</ele>
        <time>2018-06-03T09:44:59.000Z</time>
      </trkpt>
      <trkpt lat="44.54494" lon="4.26835">
        <ele>390</ele>
        <time>2018-06-03T09:45:00.000Z</time>
      </trkpt>
      <trkpt lat="44.54495" lon="4.26837">
        <ele>390</ele>
        <time>2018-06-03T09:45:01.000Z</time>
      </trkpt>
      <trkpt lat="44.54496" lon="4.26838">
        <ele>390</ele>
        <time>2018-06-03T09:45:02.000Z</time>
      </trkpt>
      <trkpt lat="44.54497" lon="4.2684">
        <ele>390</ele>
        <time>2018-06-03T09:45:03.000Z</time>
      </trkpt>
      <trkpt lat="44.54497" lon="4.26842">
        <ele>389</ele>
        <time>2018-06-03T09:45:04.000Z</time>
      </trkpt>
      <trkpt lat="44.54497" lon="4.26844">
        <ele>389</ele>
        <time>2018-06-03T09:45:05.000Z</time>
      </trkpt>
      <trkpt lat="44.54498" lon="4.26846">
        <ele>388</ele>
        <time>2018-06-03T09:45:06.000Z</time>
      </trkpt>
      <trkpt lat="44.54499" lon="4.26848">
        <ele>388</ele>
        <time>2018-06-03T09:45:07.000Z</time>
      </trkpt>
      <trkpt lat="44.545" lon="4.26849">
        <ele>388</ele>
        <time>2018-06-03T09:45:08.000Z</time>
      </trkpt>
      <trkpt lat="44.54501" lon="4.26851">
        <ele>396</ele>
        <time>2018-06-03T09:45:09.000Z</time>
      </trkpt>
      <trkpt lat="44.54502" lon="4.26853">
        <ele>396</ele>
        <time>2018-06-03T09:45:10.000Z</time>
      </trkpt>
      <trkpt lat="44.54504" lon="4.26855">
        <ele>396</ele>
        <time>2018-06-03T09:45:11.000Z</time>
      </trkpt>
      <trkpt lat="44.54505" lon="4.26857">
        <ele>396</ele>
        <time>2018-06-03T09:45:12.000Z</time>
      </trkpt>
      <trkpt lat="44.54505" lon="4.26859">
        <ele>396</ele>
        <time>2018-06-03T09:45:13.000Z</time>
      </trkpt>
      <trkpt lat="44.54506" lon="4.26861">
        <ele>396</ele>
        <time>2018-06-03T09:45:14.000Z</time>
      </trkpt>
      <trkpt lat="44.54508" lon="4.26863">
        <ele>396</ele>
        <time>2018-06-03T09:45:15.000Z</time>
      </trkpt>
      <trkpt lat="44.54509" lon="4.26864">
        <ele>396</ele>
        <time>2018-06-03T09:45:16.000Z</time>
      </trkpt>
      <trkpt lat="44.54511" lon="4.26866">
        <ele>396</ele>
        <time>2018-06-03T09:45:17.000Z</time>
      </trkpt>
      <trkpt lat="44.54512" lon="4.26868">
        <ele>396</ele>
        <time>2018-06-03T09:45:18.000Z</time>
      </trkpt>
      <trkpt lat="44.54513" lon="4.2687">
        <ele>397</ele>
        <time>2018-06-03T09:45:19.000Z</time>
      </trkpt>
      <trkpt lat="44.54515" lon="4.26872">
        <ele>397</ele>
        <time>2018-06-03T09:45:20.000Z</time>
      </trkpt>
      <trkpt lat="44.54516" lon="4.26874">
        <ele>397</ele>
        <time>2018-06-03T09:45:21.000Z</time>
      </trkpt>
      <trkpt lat="44.54518" lon="4.26875">
        <ele>397</ele>
        <time>2018-06-03T09:45:22.000Z</time>
      </trkpt>
      <trkpt lat="44.54519" lon="4.26877">
        <ele>397</ele>
        <time>2018-06-03T09:45:23.000Z</time>
      </trkpt>
      <trkpt lat="44.54521" lon="4.26879">
        <ele>397</ele>
        <time>2018-06-03T09:45:24.000Z</time>
      </trkpt>
      <trkpt lat="44.54523" lon="4.26881">
        <ele>397</ele>
        <time>2018-06-03T09:45:25.000Z</time>
      </trkpt>
      <trkpt lat="44.54524" lon="4.26882">
        <ele>397</ele>
        <time>2018-06-03T09:45:26.000Z</time>
      </trkpt>
      <trkpt lat="44.54526" lon="4.26884">
        <ele>397</ele>
        <time>2018-06-03T09:45:27.000Z</time>
      </trkpt>
      <trkpt lat="44.54527" lon="4.26886">
        <ele>397</ele>
        <time>2018-06-03T09:45:28.000Z</time>
      </trkpt>
      <trkpt lat="44.54529" lon="4.26887">
        <ele>397</ele>
        <time>2018-06-03T09:45:29.000Z</time>
      </trkpt>
      <trkpt lat="44.5453" lon="4.26889">
        <ele>397</ele>
        <time>2018-06-03T09:45:30.000Z</time>
      </trkpt>
      <trkpt lat="44.54531" lon="4.26891">
        <ele>397</ele>
        <time>2018-06-03T09:45:31.000Z</time>
      </trkpt>
      <trkpt lat="44.54533" lon="4.26892">
        <ele>397</ele>
        <time>2018-06-03T09:45:32.000Z</time>
      </trkpt>
      <trkpt lat="44.54535" lon="4.26893">
        <ele>397</ele>
        <time>2018-06-03T09:45:33.000Z</time>
      </trkpt>
      <trkpt lat="44.54537" lon="4.26894">
        <ele>397</ele>
        <time>2018-06-03T09:45:34.000Z</time>
      </trkpt>
      <trkpt lat="44.54538" lon="4.26896">
        <ele>397</ele>
        <time>2018-06-03T09:45:35.000Z</time>
      </trkpt>
      <trkpt lat="44.5454" lon="4.26897">
        <ele>398</ele>
        <time>2018-06-03T09:45:36.000Z</time>
      </trkpt>
      <trkpt lat="44.54542" lon="4.26898">
        <ele>398</ele>
        <time>2018-06-03T09:45:37.000Z</time>
      </trkpt>
      <trkpt lat="44.54543" lon="4.269">
        <ele>398</ele>
        <time>2018-06-03T09:45:38.000Z</time>
      </trkpt>
      <trkpt lat="44.54545" lon="4.26901">
        <ele>398</ele>
        <time>2018-06-03T09:45:39.000Z</time>
      </trkpt>
      <trkpt lat="44.54547" lon="4.26902">
        <ele>398</ele>
        <time>2018-06-03T09:45:40.000Z</time>
      </trkpt>
      <trkpt lat="44.54549" lon="4.26904">
        <ele>398</ele>
        <time>2018-06-03T09:45:41.000Z</time>
      </trkpt>
      <trkpt lat="44.54551" lon="4.26906">
        <ele>398</ele>
        <time>2018-06-03T09:45:42.000Z</time>
      </trkpt>
      <trkpt lat="44.54552" lon="4.26907">
        <ele>398</ele>
        <time>2018-06-03T09:45:43.000Z</time>
      </trkpt>
      <trkpt lat="44.54554" lon="4.26909">
        <ele>399</ele>
        <time>2018-06-03T09:45:44.000Z</time>
      </trkpt>
      <trkpt lat="44.54556" lon="4.2691">
        <ele>399</ele>
        <time>2018-06-03T09:45:45.000Z</time>
      </trkpt>
      <trkpt lat="44.54557" lon="4.26912">
        <ele>399</ele>
        <time>2018-06-03T09:45:46.000Z</time>
      </trkpt>
      <trkpt lat="44.54559" lon="4.26914">
        <ele>399</ele>
        <time>2018-06-03T09:45:47.000Z</time>
      </trkpt>
      <trkpt lat="44.54561" lon="4.26916">
        <ele>399</ele>
        <time>2018-06-03T09:45:48.000Z</time>
      </trkpt>
      <trkpt lat="44.54563" lon="4.26918">
        <ele>395</ele>
        <time>2018-06-03T09:45:49.000Z</time>
      </trkpt>
      <trkpt lat="44.54565" lon="4.26919">
        <ele>395</ele>
        <time>2018-06-03T09:45:50.000Z</time>
      </trkpt>
      <trkpt lat="44.54566" lon="4.26921">
        <ele>395</ele>
        <time>2018-06-03T09:45:51.000Z</time>
      </trkpt>
      <trkpt lat="44.54569" lon="4.26922">
        <ele>396</ele>
        <time>2018-06-03T09:45:52.000Z</time>
      </trkpt>
      <trkpt lat="44.54571" lon="4.26924">
        <ele>396</ele>
        <time>2018-06-03T09:45:53.000Z</time>
      </trkpt>
      <trkpt lat="44.54572" lon="4.26926">
        <ele>396</ele>
        <time>2018-06-03T09:45:54.000Z</time>
      </trkpt>
      <trkpt lat="44.54574" lon="4.26928">
        <ele>396</ele>
        <time>2018-06-03T09:45:55.000Z</time>
      </trkpt>
      <trkpt lat="44.54576" lon="4.2693">
        <ele>396</ele>
        <time>2018-06-03T09:45:56.000Z</time>
      </trkpt>
      <trkpt lat="44.54578" lon="4.26932">
        <ele>396</ele>
        <time>2018-06-03T09:45:57.000Z</time>
      </trkpt>
      <trkpt lat="44.5458" lon="4.26933">
        <ele>395</ele>
        <time>2018-06-03T09:45:58.000Z</time>
      </trkpt>
      <trkpt lat="44.54582" lon="4.26935">
        <ele>395</ele>
        <time>2018-06-03T09:45:59.000Z</time>
      </trkpt>
      <trkpt lat="44.54584" lon="4.26937">
        <ele>401</ele>
        <time>2018-06-03T09:46:00.000Z</time>
      </trkpt>
      <trkpt lat="44.54586" lon="4.26939">
        <ele>401</ele>
        <time>2018-06-03T09:46:01.000Z</time>
      </trkpt>
      <trkpt lat="44.54588" lon="4.26941">
        <ele>401</ele>
        <time>2018-06-03T09:46:02.000Z</time>
      </trkpt>
      <trkpt lat="44.5459" lon="4.26943">
        <ele>401</ele>
        <time>2018-06-03T09:46:03.000Z</time>
      </trkpt>
      <trkpt lat="44.54592" lon="4.26945">
        <ele>401</ele>
        <time>2018-06-03T09:46:04.000Z</time>
      </trkpt>
      <trkpt lat="44.54594" lon="4.26947">
        <ele>401</ele>
        <time>2018-06-03T09:46:05.000Z</time>
      </trkpt>
      <trkpt lat="44.54596" lon="4.26949">
        <ele>401</ele>
        <time>2018-06-03T09:46:06.000Z</time>
      </trkpt>
      <trkpt lat="44.54598" lon="4.26951">
        <ele>401</ele>
        <time>2018-06-03T09:46:07.000Z</time>
      </trkpt>
      <trkpt lat="44.546" lon="4.26953">
        <ele>401</ele>
        <time>2018-06-03T09:46:08.000Z</time>
      </trkpt>
      <trkpt lat="44.54602" lon="4.26955">
        <ele>401</ele>
        <time>2018-06-03T09:46:09.000Z</time>
      </trkpt>
      <trkpt lat="44.54605" lon="4.26956">
        <ele>401</ele>
        <time>2018-06-03T09:46:10.000Z</time>
      </trkpt>
      <trkpt lat="44.54607" lon="4.26958">
        <ele>401</ele>
        <time>2018-06-03T09:46:11.000Z</time>
      </trkpt>
      <trkpt lat="44.54609" lon="4.2696">
        <ele>401</ele>
        <time>2018-06-03T09:46:12.000Z</time>
      </trkpt>
      <trkpt lat="44.54612" lon="4.26962">
        <ele>401</ele>
        <time>2018-06-03T09:46:13.000Z</time>
      </trkpt>
      <trkpt lat="44.54614" lon="4.26964">
        <ele>401</ele>
        <time>2018-06-03T09:46:14.000Z</time>
      </trkpt>
      <trkpt lat="44.54617" lon="4.26966">
        <ele>401</ele>
        <time>2018-06-03T09:46:15.000Z</time>
      </trkpt>
      <trkpt lat="44.54619" lon="4.26968">
        <ele>401</ele>
        <time>2018-06-03T09:46:16.000Z</time>
      </trkpt>
      <trkpt lat="44.54621" lon="4.2697">
        <ele>401</ele>
        <time>2018-06-03T09:46:17.000Z</time>
      </trkpt>
      <trkpt lat="44.54623" lon="4.26972">
        <ele>401</ele>
        <time>2018-06-03T09:46:18.000Z</time>
      </trkpt>
      <trkpt lat="44.54625" lon="4.26974">
        <ele>401</ele>
        <time>2018-06-03T09:46:19.000Z</time>
      </trkpt>
      <trkpt lat="44.54627" lon="4.26977">
        <ele>401</ele>
        <time>2018-06-03T09:46:20.000Z</time>
      </trkpt>
      <trkpt lat="44.54629" lon="4.26979">
        <ele>402</ele>
        <time>2018-06-03T09:46:21.000Z</time>
      </trkpt>
      <trkpt lat="44.54631" lon="4.26982">
        <ele>402</ele>
        <time>2018-06-03T09:46:22.000Z</time>
      </trkpt>
      <trkpt lat="44.54633" lon="4.26984">
        <ele>402</ele>
        <time>2018-06-03T09:46:23.000Z</time>
      </trkpt>
      <trkpt lat="44.54635" lon="4.26987">
        <ele>402</ele>
        <time>2018-06-03T09:46:24.000Z</time>
      </trkpt>
      <trkpt lat="44.54637" lon="4.26988">
        <ele>402</ele>
        <time>2018-06-03T09:46:25.000Z</time>
      </trkpt>
      <trkpt lat="44.5464" lon="4.2699">
        <ele>402</ele>
        <time>2018-06-03T09:46:26.000Z</time>
      </trkpt>
      <trkpt lat="44.54641" lon="4.26993">
        <ele>402</ele>
        <time>2018-06-03T09:46:27.000Z</time>
      </trkpt>
      <trkpt lat="44.54643" lon="4.26995">
        <ele>403</ele>
        <time>2018-06-03T09:46:28.000Z</time>
      </trkpt>
      <trkpt lat="44.54645" lon="4.26996">
        <ele>403</ele>
        <time>2018-06-03T09:46:29.000Z</time>
      </trkpt>
      <trkpt lat="44.54647" lon="4.26998">
        <ele>403</ele>
        <time>2018-06-03T09:46:30.000Z</time>
      </trkpt>
      <trkpt lat="44.54649" lon="4.26999">
        <ele>403</ele>
        <time>2018-06-03T09:46:31.000Z</time>
      </trkpt>
      <trkpt lat="44.54651" lon="4.27001">
        <ele>401</ele>
        <time>2018-06-03T09:46:32.000Z</time>
      </trkpt>
      <trkpt lat="44.54653" lon="4.27003">
        <ele>402</ele>
        <time>2018-06-03T09:46:33.000Z</time>
      </trkpt>
      <trkpt lat="44.54655" lon="4.27006">
        <ele>402</ele>
        <time>2018-06-03T09:46:34.000Z</time>
      </trkpt>
      <trkpt lat="44.54658" lon="4.27009">
        <ele>402</ele>
        <time>2018-06-03T09:46:35.000Z</time>
      </trkpt>
      <trkpt lat="44.5466" lon="4.27011">
        <ele>402</ele>
        <time>2018-06-03T09:46:36.000Z</time>
      </trkpt>
      <trkpt lat="44.54662" lon="4.27013">
        <ele>402</ele>
        <time>2018-06-03T09:46:37.000Z</time>
      </trkpt>
      <trkpt lat="44.54665" lon="4.27015">
        <ele>402</ele>
        <time>2018-06-03T09:46:38.000Z</time>
      </trkpt>
      <trkpt lat="44.54668" lon="4.27016">
        <ele>405</ele>
        <time>2018-06-03T09:46:39.000Z</time>
      </trkpt>
      <trkpt lat="44.5467" lon="4.27017">
        <ele>405</ele>
        <time>2018-06-03T09:46:40.000Z</time>
      </trkpt>
      <trkpt lat="44.54673" lon="4.27019">
        <ele>405</ele>
        <time>2018-06-03T09:46:41.000Z</time>
      </trkpt>
      <trkpt lat="44.54675" lon="4.27021">
        <ele>405</ele>
        <time>2018-06-03T09:46:42.000Z</time>
      </trkpt>
      <trkpt lat="44.54678" lon="4.27023">
        <ele>405</ele>
        <time>2018-06-03T09:46:43.000Z</time>
      </trkpt>
      <trkpt lat="44.5468" lon="4.27025">
        <ele>405</ele>
        <time>2018-06-03T09:46:44.000Z</time>
      </trkpt>
      <trkpt lat="44.54683" lon="4.27028">
        <ele>405</ele>
        <time>2018-06-03T09:46:45.000Z</time>
      </trkpt>
      <trkpt lat="44.54685" lon="4.2703">
        <ele>405</ele>
        <time>2018-06-03T09:46:46.000Z</time>
      </trkpt>
      <trkpt lat="44.54688" lon="4.27032">
        <ele>405</ele>
        <time>2018-06-03T09:46:47.000Z</time>
      </trkpt>
      <trkpt lat="44.5469" lon="4.27034">
        <ele>405</ele>
        <time>2018-06-03T09:46:48.000Z</time>
      </trkpt>
      <trkpt lat="44.54693" lon="4.27036">
        <ele>405</ele>
        <time>2018-06-03T09:46:49.000Z</time>
      </trkpt>
      <trkpt lat="44.54695" lon="4.27038">
        <ele>405</ele>
        <time>2018-06-03T09:46:50.000Z</time>
      </trkpt>
      <trkpt lat="44.54698" lon="4.2704">
        <ele>406</ele>
        <time>2018-06-03T09:46:51.000Z</time>
      </trkpt>
      <trkpt lat="44.547" lon="4.27042">
        <ele>406</ele>
        <time>2018-06-03T09:46:52.000Z</time>
      </trkpt>
      <trkpt lat="44.54703" lon="4.27044">
        <ele>406</ele>
        <time>2018-06-03T09:46:53.000Z</time>
      </trkpt>
      <trkpt lat="44.54705" lon="4.27045">
        <ele>406</ele>
        <time>2018-06-03T09:46:54.000Z</time>
      </trkpt>
      <trkpt lat="44.54707" lon="4.27048">
        <ele>406</ele>
        <time>2018-06-03T09:46:55.000Z</time>
      </trkpt>
      <trkpt lat="44.5471" lon="4.2705">
        <ele>406</ele>
        <time>2018-06-03T09:46:56.000Z</time>
      </trkpt>
      <trkpt lat="44.54712" lon="4.27052">
        <ele>406</ele>
        <time>2018-06-03T09:46:57.000Z</time>
      </trkpt>
      <trkpt lat="44.54714" lon="4.27054">
        <ele>406</ele>
        <time>2018-06-03T09:46:58.000Z</time>
      </trkpt>
      <trkpt lat="44.54716" lon="4.27056">
        <ele>406</ele>
        <time>2018-06-03T09:46:59.000Z</time>
      </trkpt>
      <trkpt lat="44.54718" lon="4.27058">
        <ele>406</ele>
        <time>2018-06-03T09:47:00.000Z</time>
      </trkpt>
      <trkpt lat="44.5472" lon="4.2706">
        <ele>406</ele>
        <time>2018-06-03T09:47:01.000Z</time>
      </trkpt>
      <trkpt lat="44.54722" lon="4.27062">
        <ele>406</ele>
        <time>2018-06-03T09:47:02.000Z</time>
      </trkpt>
      <trkpt lat="44.54724" lon="4.27065">
        <ele>406</ele>
        <time>2018-06-03T09:47:03.000Z</time>
      </trkpt>
      <trkpt lat="44.54726" lon="4.27067">
        <ele>406</ele>
        <time>2018-06-03T09:47:04.000Z</time>
      </trkpt>
      <trkpt lat="44.54729" lon="4.27069">
        <ele>406</ele>
        <time>2018-06-03T09:47:05.000Z</time>
      </trkpt>
      <trkpt lat="44.54731" lon="4.2707">
        <ele>406</ele>
        <time>2018-06-03T09:47:06.000Z</time>
      </trkpt>
      <trkpt lat="44.54733" lon="4.27072">
        <ele>406</ele>
        <time>2018-06-03T09:47:07.000Z</time>
      </trkpt>
      <trkpt lat="44.54735" lon="4.27074">
        <ele>406</ele>
        <time>2018-06-03T09:47:08.000Z</time>
      </trkpt>
      <trkpt lat="44.54737" lon="4.27076">
        <ele>406</ele>
        <time>2018-06-03T09:47:09.000Z</time>
      </trkpt>
      <trkpt lat="44.5474" lon="4.27078">
        <ele>406</ele>
        <time>2018-06-03T09:47:10.000Z</time>
      </trkpt>
      <trkpt lat="44.54742" lon="4.27079">
        <ele>407</ele>
        <time>2018-06-03T09:47:11.000Z</time>
      </trkpt>
      <trkpt lat="44.54744" lon="4.27081">
        <ele>407</ele>
        <time>2018-06-03T09:47:12.000Z</time>
      </trkpt>
      <trkpt lat="44.54746" lon="4.27083">
        <ele>407</ele>
        <time>2018-06-03T09:47:13.000Z</time>
      </trkpt>
      <trkpt lat="44.54748" lon="4.27084">
        <ele>407</ele>
        <time>2018-06-03T09:47:14.000Z</time>
      </trkpt>
      <trkpt lat="44.5475" lon="4.27086">
        <ele>407</ele>
        <time>2018-06-03T09:47:15.000Z</time>
      </trkpt>
      <trkpt lat="44.54753" lon="4.27088">
        <ele>407</ele>
        <time>2018-06-03T09:47:16.000Z</time>
      </trkpt>
      <trkpt lat="44.54755" lon="4.2709">
        <ele>407</ele>
        <time>2018-06-03T09:47:17.000Z</time>
      </trkpt>
      <trkpt lat="44.54757" lon="4.27091">
        <ele>407</ele>
        <time>2018-06-03T09:47:18.000Z</time>
      </trkpt>
      <trkpt lat="44.54759" lon="4.27093">
        <ele>407</ele>
        <time>2018-06-03T09:47:19.000Z</time>
      </trkpt>
      <trkpt lat="44.54761" lon="4.27095">
        <ele>408</ele>
        <time>2018-06-03T09:47:20.000Z</time>
      </trkpt>
      <trkpt lat="44.54764" lon="4.27097">
        <ele>408</ele>
        <time>2018-06-03T09:47:21.000Z</time>
      </trkpt>
      <trkpt lat="44.54766" lon="4.271">
        <ele>408</ele>
        <time>2018-06-03T09:47:22.000Z</time>
      </trkpt>
      <trkpt lat="44.54769" lon="4.27102">
        <ele>408</ele>
        <time>2018-06-03T09:47:23.000Z</time>
      </trkpt>
      <trkpt lat="44.54772" lon="4.27104">
        <ele>408</ele>
        <time>2018-06-03T09:47:24.000Z</time>
      </trkpt>
      <trkpt lat="44.54775" lon="4.27106">
        <ele>408</ele>
        <time>2018-06-03T09:47:25.000Z</time>
      </trkpt>
      <trkpt lat="44.54778" lon="4.27108">
        <ele>408</ele>
        <time>2018-06-03T09:47:26.000Z</time>
      </trkpt>
      <trkpt lat="44.54781" lon="4.2711">
        <ele>408</ele>
        <time>2018-06-03T09:47:27.000Z</time>
      </trkpt>
      <trkpt lat="44.54784" lon="4.27112">
        <ele>408</ele>
        <time>2018-06-03T09:47:28.000Z</time>
      </trkpt>
      <trkpt lat="44.54787" lon="4.27114">
        <ele>408</ele>
        <time>2018-06-03T09:47:29.000Z</time>
      </trkpt>
      <trkpt lat="44.5479" lon="4.27116">
        <ele>408</ele>
        <time>2018-06-03T09:47:30.000Z</time>
      </trkpt>
      <trkpt lat="44.54793" lon="4.27118">
        <ele>409</ele>
        <time>2018-06-03T09:47:31.000Z</time>
      </trkpt>
      <trkpt lat="44.54796" lon="4.2712">
        <ele>409</ele>
        <time>2018-06-03T09:47:32.000Z</time>
      </trkpt>
      <trkpt lat="44.54799" lon="4.27122">
        <ele>409</ele>
        <time>2018-06-03T09:47:33.000Z</time>
      </trkpt>
      <trkpt lat="44.54801" lon="4.27124">
        <ele>409</ele>
        <time>2018-06-03T09:47:34.000Z</time>
      </trkpt>
      <trkpt lat="44.54804" lon="4.27125">
        <ele>409</ele>
        <time>2018-06-03T09:47:35.000Z</time>
      </trkpt>
      <trkpt lat="44.54806" lon="4.27126">
        <ele>409</ele>
        <time>2018-06-03T09:47:36.000Z</time>
      </trkpt>
      <trkpt lat="44.54808" lon="4.27127">
        <ele>409</ele>
        <time>2018-06-03T09:47:37.000Z</time>
      </trkpt>
      <trkpt lat="44.54809" lon="4.27128">
        <ele>409</ele>
        <time>2018-06-03T09:47:38.000Z</time>
      </trkpt>
      <trkpt lat="44.54811" lon="4.2713">
        <ele>409</ele>
        <time>2018-06-03T09:47:39.000Z</time>
      </trkpt>
      <trkpt lat="44.54813" lon="4.27131">
        <ele>409</ele>
        <time>2018-06-03T09:47:40.000Z</time>
      </trkpt>
      <trkpt lat="44.54815" lon="4.27132">
        <ele>409</ele>
        <time>2018-06-03T09:47:41.000Z</time>
      </trkpt>
      <trkpt lat="44.54817" lon="4.27133">
        <ele>409</ele>
        <time>2018-06-03T09:47:42.000Z</time>
      </trkpt>
      <trkpt lat="44.54819" lon="4.27135">
        <ele>409</ele>
        <time>2018-06-03T09:47:43.000Z</time>
      </trkpt>
      <trkpt lat="44.54822" lon="4.27137">
        <ele>409</ele>
        <time>2018-06-03T09:47:44.000Z</time>
      </trkpt>
      <trkpt lat="44.54824" lon="4.27138">
        <ele>409</ele>
        <time>2018-06-03T09:47:45.000Z</time>
      </trkpt>
      <trkpt lat="44.54827" lon="4.2714">
        <ele>410</ele>
        <time>2018-06-03T09:47:46.000Z</time>
      </trkpt>
      <trkpt lat="44.5483" lon="4.27142">
        <ele>410</ele>
        <time>2018-06-03T09:47:47.000Z</time>
      </trkpt>
      <trkpt lat="44.54833" lon="4.27143">
        <ele>410</ele>
        <time>2018-06-03T09:47:48.000Z</time>
      </trkpt>
      <trkpt lat="44.54835" lon="4.27145">
        <ele>413</ele>
        <time>2018-06-03T09:47:49.000Z</time>
      </trkpt>
      <trkpt lat="44.54838" lon="4.27146">
        <ele>413</ele>
        <time>2018-06-03T09:47:50.000Z</time>
      </trkpt>
      <trkpt lat="44.54841" lon="4.27148">
        <ele>413</ele>
        <time>2018-06-03T09:47:51.000Z</time>
      </trkpt>
      <trkpt lat="44.54845" lon="4.27151">
        <ele>413</ele>
        <time>2018-06-03T09:47:52.000Z</time>
      </trkpt>
      <trkpt lat="44.54848" lon="4.27153">
        <ele>413</ele>
        <time>2018-06-03T09:47:53.000Z</time>
      </trkpt>
      <trkpt lat="44.54852" lon="4.27155">
        <ele>413</ele>
        <time>2018-06-03T09:47:54.000Z</time>
      </trkpt>
      <trkpt lat="44.54856" lon="4.27157">
        <ele>414</ele>
        <time>2018-06-03T09:47:55.000Z</time>
      </trkpt>
      <trkpt lat="44.54859" lon="4.2716">
        <ele>414</ele>
        <time>2018-06-03T09:47:56.000Z</time>
      </trkpt>
      <trkpt lat="44.54863" lon="4.27162">
        <ele>414</ele>
        <time>2018-06-03T09:47:57.000Z</time>
      </trkpt>
      <trkpt lat="44.54867" lon="4.27164">
        <ele>414</ele>
        <time>2018-06-03T09:47:58.000Z</time>
      </trkpt>
      <trkpt lat="44.5487" lon="4.27165">
        <ele>414</ele>
        <time>2018-06-03T09:47:59.000Z</time>
      </trkpt>
      <trkpt lat="44.54873" lon="4.27167">
        <ele>411</ele>
        <time>2018-06-03T09:48:00.000Z</time>
      </trkpt>
      <trkpt lat="44.54876" lon="4.2717">
        <ele>411</ele>
        <time>2018-06-03T09:48:01.000Z</time>
      </trkpt>
      <trkpt lat="44.54878" lon="4.27173">
        <ele>412</ele>
        <time>2018-06-03T09:48:02.000Z</time>
      </trkpt>
      <trkpt lat="44.5488" lon="4.27177">
        <ele>412</ele>
        <time>2018-06-03T09:48:03.000Z</time>
      </trkpt>
      <trkpt lat="44.54882" lon="4.27181">
        <ele>412</ele>
        <time>2018-06-03T09:48:04.000Z</time>
      </trkpt>
      <trkpt lat="44.54884" lon="4.27186">
        <ele>411</ele>
        <time>2018-06-03T09:48:05.000Z</time>
      </trkpt>
      <trkpt lat="44.54886" lon="4.2719">
        <ele>411</ele>
        <time>2018-06-03T09:48:06.000Z</time>
      </trkpt>
      <trkpt lat="44.54888" lon="4.27195">
        <ele>411</ele>
        <time>2018-06-03T09:48:07.000Z</time>
      </trkpt>
      <trkpt lat="44.54891" lon="4.27199">
        <ele>411</ele>
        <time>2018-06-03T09:48:08.000Z</time>
      </trkpt>
      <trkpt lat="44.54893" lon="4.27204">
        <ele>411</ele>
        <time>2018-06-03T09:48:09.000Z</time>
      </trkpt>
      <trkpt lat="44.54896" lon="4.27208">
        <ele>411</ele>
        <time>2018-06-03T09:48:10.000Z</time>
      </trkpt>
      <trkpt lat="44.54899" lon="4.27213">
        <ele>411</ele>
        <time>2018-06-03T09:48:11.000Z</time>
      </trkpt>
      <trkpt lat="44.54901" lon="4.27218">
        <ele>411</ele>
        <time>2018-06-03T09:48:12.000Z</time>
      </trkpt>
      <trkpt lat="44.54904" lon="4.27222">
        <ele>411</ele>
        <time>2018-06-03T09:48:13.000Z</time>
      </trkpt>
      <trkpt lat="44.54906" lon="4.27226">
        <ele>411</ele>
        <time>2018-06-03T09:48:14.000Z</time>
      </trkpt>
      <trkpt lat="44.54908" lon="4.27231">
        <ele>411</ele>
        <time>2018-06-03T09:48:15.000Z</time>
      </trkpt>
      <trkpt lat="44.54911" lon="4.27235">
        <ele>411</ele>
        <time>2018-06-03T09:48:16.000Z</time>
      </trkpt>
      <trkpt lat="44.54914" lon="4.27239">
        <ele>411</ele>
        <time>2018-06-03T09:48:17.000Z</time>
      </trkpt>
      <trkpt lat="44.54917" lon="4.27243">
        <ele>412</ele>
        <time>2018-06-03T09:48:18.000Z</time>
      </trkpt>
      <trkpt lat="44.54919" lon="4.27247">
        <ele>412</ele>
        <time>2018-06-03T09:48:19.000Z</time>
      </trkpt>
      <trkpt lat="44.54922" lon="4.27252">
        <ele>412</ele>
        <time>2018-06-03T09:48:20.000Z</time>
      </trkpt>
      <trkpt lat="44.54925" lon="4.27256">
        <ele>412</ele>
        <time>2018-06-03T09:48:21.000Z</time>
      </trkpt>
      <trkpt lat="44.54928" lon="4.27261">
        <ele>412</ele>
        <time>2018-06-03T09:48:22.000Z</time>
      </trkpt>
      <trkpt lat="44.5493" lon="4.27265">
        <ele>412</ele>
        <time>2018-06-03T09:48:23.000Z</time>
      </trkpt>
      <trkpt lat="44.54933" lon="4.27269">
        <ele>413</ele>
        <time>2018-06-03T09:48:24.000Z</time>
      </trkpt>
      <trkpt lat="44.54935" lon="4.27274">
        <ele>413</ele>
        <time>2018-06-03T09:48:25.000Z</time>
      </trkpt>
      <trkpt lat="44.54938" lon="4.27278">
        <ele>413</ele>
        <time>2018-06-03T09:48:26.000Z</time>
      </trkpt>
      <trkpt lat="44.5494" lon="4.27283">
        <ele>413</ele>
        <time>2018-06-03T09:48:27.000Z</time>
      </trkpt>
      <trkpt lat="44.54943" lon="4.27288">
        <ele>413</ele>
        <time>2018-06-03T09:48:28.000Z</time>
      </trkpt>
      <trkpt lat="44.54945" lon="4.27293">
        <ele>413</ele>
        <time>2018-06-03T09:48:29.000Z</time>
      </trkpt>
      <trkpt lat="44.54948" lon="4.27297">
        <ele>413</ele>
        <time>2018-06-03T09:48:30.000Z</time>
      </trkpt>
      <trkpt lat="44.54951" lon="4.27302">
        <ele>413</ele>
        <time>2018-06-03T09:48:31.000Z</time>
      </trkpt>
      <trkpt lat="44.54953" lon="4.27308">
        <ele>413</ele>
        <time>2018-06-03T09:48:32.000Z</time>
      </trkpt>
      <trkpt lat="44.54955" lon="4.27314">
        <ele>413</ele>
        <time>2018-06-03T09:48:33.000Z</time>
      </trkpt>
      <trkpt lat="44.54957" lon="4.2732">
        <ele>413</ele>
        <time>2018-06-03T09:48:34.000Z</time>
      </trkpt>
      <trkpt lat="44.54958" lon="4.27327">
        <ele>413</ele>
        <time>2018-06-03T09:48:35.000Z</time>
      </trkpt>
      <trkpt lat="44.54958" lon="4.27333">
        <ele>413</ele>
        <time>2018-06-03T09:48:36.000Z</time>
      </trkpt>
      <trkpt lat="44.54959" lon="4.2734">
        <ele>411</ele>
        <time>2018-06-03T09:48:37.000Z</time>
      </trkpt>
      <trkpt lat="44.5496" lon="4.27347">
        <ele>411</ele>
        <time>2018-06-03T09:48:38.000Z</time>
      </trkpt>
      <trkpt lat="44.54961" lon="4.27354">
        <ele>411</ele>
        <time>2018-06-03T09:48:39.000Z</time>
      </trkpt>
      <trkpt lat="44.54962" lon="4.27361">
        <ele>411</ele>
        <time>2018-06-03T09:48:40.000Z</time>
      </trkpt>
      <trkpt lat="44.54963" lon="4.27368">
        <ele>411</ele>
        <time>2018-06-03T09:48:41.000Z</time>
      </trkpt>
      <trkpt lat="44.54963" lon="4.27375">
        <ele>411</ele>
        <time>2018-06-03T09:48:42.000Z</time>
      </trkpt>
      <trkpt lat="44.54965" lon="4.27382">
        <ele>411</ele>
        <time>2018-06-03T09:48:43.000Z</time>
      </trkpt>
      <trkpt lat="44.54966" lon="4.27389">
        <ele>411</ele>
        <time>2018-06-03T09:48:44.000Z</time>
      </trkpt>
      <trkpt lat="44.54968" lon="4.27396">
        <ele>411</ele>
        <time>2018-06-03T09:48:45.000Z</time>
      </trkpt>
      <trkpt lat="44.54969" lon="4.27402">
        <ele>411</ele>
        <time>2018-06-03T09:48:46.000Z</time>
      </trkpt>
      <trkpt lat="44.54971" lon="4.27409">
        <ele>411</ele>
        <time>2018-06-03T09:48:47.000Z</time>
      </trkpt>
      <trkpt lat="44.54972" lon="4.27416">
        <ele>411</ele>
        <time>2018-06-03T09:48:48.000Z</time>
      </trkpt>
      <trkpt lat="44.54973" lon="4.27422">
        <ele>410</ele>
        <time>2018-06-03T09:48:49.000Z</time>
      </trkpt>
      <trkpt lat="44.54974" lon="4.27428">
        <ele>410</ele>
        <time>2018-06-03T09:48:50.000Z</time>
      </trkpt>
      <trkpt lat="44.54976" lon="4.27434">
        <ele>410</ele>
        <time>2018-06-03T09:48:51.000Z</time>
      </trkpt>
      <trkpt lat="44.54978" lon="4.2744">
        <ele>410</ele>
        <time>2018-06-03T09:48:52.000Z</time>
      </trkpt>
      <trkpt lat="44.5498" lon="4.27444">
        <ele>410</ele>
        <time>2018-06-03T09:48:53.000Z</time>
      </trkpt>
      <trkpt lat="44.54982" lon="4.27449">
        <ele>410</ele>
        <time>2018-06-03T09:48:54.000Z</time>
      </trkpt>
      <trkpt lat="44.54984" lon="4.27454">
        <ele>410</ele>
        <time>2018-06-03T09:48:55.000Z</time>
      </trkpt>
      <trkpt lat="44.54986" lon="4.27458">
        <ele>410</ele>
        <time>2018-06-03T09:48:56.000Z</time>
      </trkpt>
      <trkpt lat="44.54989" lon="4.27463">
        <ele>410</ele>
        <time>2018-06-03T09:48:57.000Z</time>
      </trkpt>
      <trkpt lat="44.54991" lon="4.27467">
        <ele>410</ele>
        <time>2018-06-03T09:48:58.000Z</time>
      </trkpt>
      <trkpt lat="44.54993" lon="4.27471">
        <ele>410</ele>
        <time>2018-06-03T09:48:59.000Z</time>
      </trkpt>
      <trkpt lat="44.54995" lon="4.27474">
        <ele>410</ele>
        <time>2018-06-03T09:49:00.000Z</time>
      </trkpt>
      <trkpt lat="44.54997" lon="4.27478">
        <ele>410</ele>
        <time>2018-06-03T09:49:01.000Z</time>
      </trkpt>
      <trkpt lat="44.54999" lon="4.27482">
        <ele>411</ele>
        <time>2018-06-03T09:49:02.000Z</time>
      </trkpt>
      <trkpt lat="44.55002" lon="4.27486">
        <ele>415</ele>
        <time>2018-06-03T09:49:03.000Z</time>
      </trkpt>
      <trkpt lat="44.55004" lon="4.2749">
        <ele>415</ele>
        <time>2018-06-03T09:49:04.000Z</time>
      </trkpt>
      <trkpt lat="44.55006" lon="4.27494">
        <ele>415</ele>
        <time>2018-06-03T09:49:05.000Z</time>
      </trkpt>
      <trkpt lat="44.55009" lon="4.27498">
        <ele>415</ele>
        <time>2018-06-03T09:49:06.000Z</time>
      </trkpt>
      <trkpt lat="44.55011" lon="4.27502">
        <ele>414</ele>
        <time>2018-06-03T09:49:07.000Z</time>
      </trkpt>
      <trkpt lat="44.55014" lon="4.27506">
        <ele>414</ele>
        <time>2018-06-03T09:49:08.000Z</time>
      </trkpt>
      <trkpt lat="44.55017" lon="4.2751">
        <ele>415</ele>
        <time>2018-06-03T09:49:09.000Z</time>
      </trkpt>
      <trkpt lat="44.5502" lon="4.27513">
        <ele>415</ele>
        <time>2018-06-03T09:49:10.000Z</time>
      </trkpt>
      <trkpt lat="44.55022" lon="4.27516">
        <ele>415</ele>
        <time>2018-06-03T09:49:11.000Z</time>
      </trkpt>
      <trkpt lat="44.55025" lon="4.27519">
        <ele>415</ele>
        <time>2018-06-03T09:49:12.000Z</time>
      </trkpt>
      <trkpt lat="44.55028" lon="4.27522">
        <ele>415</ele>
        <time>2018-06-03T09:49:13.000Z</time>
      </trkpt>
      <trkpt lat="44.55031" lon="4.27526">
        <ele>415</ele>
        <time>2018-06-03T09:49:14.000Z</time>
      </trkpt>
      <trkpt lat="44.55033" lon="4.27529">
        <ele>415</ele>
        <time>2018-06-03T09:49:15.000Z</time>
      </trkpt>
      <trkpt lat="44.55036" lon="4.27532">
        <ele>416</ele>
        <time>2018-06-03T09:49:16.000Z</time>
      </trkpt>
      <trkpt lat="44.55039" lon="4.27535">
        <ele>416</ele>
        <time>2018-06-03T09:49:17.000Z</time>
      </trkpt>
      <trkpt lat="44.55041" lon="4.27538">
        <ele>416</ele>
        <time>2018-06-03T09:49:18.000Z</time>
      </trkpt>
      <trkpt lat="44.55044" lon="4.27541">
        <ele>416</ele>
        <time>2018-06-03T09:49:19.000Z</time>
      </trkpt>
      <trkpt lat="44.55046" lon="4.27544">
        <ele>416</ele>
        <time>2018-06-03T09:49:20.000Z</time>
      </trkpt>
      <trkpt lat="44.55049" lon="4.27547">
        <ele>416</ele>
        <time>2018-06-03T09:49:21.000Z</time>
      </trkpt>
      <trkpt lat="44.55051" lon="4.27549">
        <ele>416</ele>
        <time>2018-06-03T09:49:22.000Z</time>
      </trkpt>
      <trkpt lat="44.55051" lon="4.27552">
        <ele>416</ele>
        <time>2018-06-03T09:49:23.000Z</time>
      </trkpt>
      <trkpt lat="44.5505" lon="4.27555">
        <ele>415</ele>
        <time>2018-06-03T09:49:24.000Z</time>
      </trkpt>
      <trkpt lat="44.55047" lon="4.27556">
        <ele>415</ele>
        <time>2018-06-03T09:49:25.000Z</time>
      </trkpt>
      <trkpt lat="44.55044" lon="4.27557">
        <ele>415</ele>
        <time>2018-06-03T09:49:26.000Z</time>
      </trkpt>
      <trkpt lat="44.5504" lon="4.27558">
        <ele>415</ele>
        <time>2018-06-03T09:49:27.000Z</time>
      </trkpt>
      <trkpt lat="44.55037" lon="4.27561">
        <ele>414</ele>
        <time>2018-06-03T09:49:28.000Z</time>
      </trkpt>
      <trkpt lat="44.55033" lon="4.27565">
        <ele>414</ele>
        <time>2018-06-03T09:49:29.000Z</time>
      </trkpt>
      <trkpt lat="44.55031" lon="4.27571">
        <ele>414</ele>
        <time>2018-06-03T09:49:30.000Z</time>
      </trkpt>
      <trkpt lat="44.55028" lon="4.27578">
        <ele>413</ele>
        <time>2018-06-03T09:49:31.000Z</time>
      </trkpt>
      <trkpt lat="44.55025" lon="4.27585">
        <ele>409</ele>
        <time>2018-06-03T09:49:32.000Z</time>
      </trkpt>
      <trkpt lat="44.55022" lon="4.27592">
        <ele>409</ele>
        <time>2018-06-03T09:49:33.000Z</time>
      </trkpt>
      <trkpt lat="44.55018" lon="4.27596">
        <ele>409</ele>
        <time>2018-06-03T09:49:34.000Z</time>
      </trkpt>
      <trkpt lat="44.55014" lon="4.27601">
        <ele>408</ele>
        <time>2018-06-03T09:49:35.000Z</time>
      </trkpt>
      <trkpt lat="44.5501" lon="4.27606">
        <ele>408</ele>
        <time>2018-06-03T09:49:36.000Z</time>
      </trkpt>
      <trkpt lat="44.55006" lon="4.27611">
        <ele>408</ele>
        <time>2018-06-03T09:49:37.000Z</time>
      </trkpt>
      <trkpt lat="44.55002" lon="4.27613">
        <ele>408</ele>
        <time>2018-06-03T09:49:38.000Z</time>
      </trkpt>
      <trkpt lat="44.54997" lon="4.27615">
        <ele>404</ele>
        <time>2018-06-03T09:49:39.000Z</time>
      </trkpt>
      <trkpt lat="44.54993" lon="4.27614">
        <ele>404</ele>
        <time>2018-06-03T09:49:40.000Z</time>
      </trkpt>
      <trkpt lat="44.54988" lon="4.27611">
        <ele>404</ele>
        <time>2018-06-03T09:49:41.000Z</time>
      </trkpt>
      <trkpt lat="44.54984" lon="4.27608">
        <ele>404</ele>
        <time>2018-06-03T09:49:42.000Z</time>
      </trkpt>
      <trkpt lat="44.54978" lon="4.27605">
        <ele>404</ele>
        <time>2018-06-03T09:49:43.000Z</time>
      </trkpt>
      <trkpt lat="44.54972" lon="4.27604">
        <ele>403</ele>
        <time>2018-06-03T09:49:44.000Z</time>
      </trkpt>
      <trkpt lat="44.54966" lon="4.27606">
        <ele>403</ele>
        <time>2018-06-03T09:49:45.000Z</time>
      </trkpt>
      <trkpt lat="44.54959" lon="4.27609">
        <ele>402</ele>
        <time>2018-06-03T09:49:46.000Z</time>
      </trkpt>
      <trkpt lat="44.54952" lon="4.27614">
        <ele>402</ele>
        <time>2018-06-03T09:49:47.000Z</time>
      </trkpt>
      <trkpt lat="44.54945" lon="4.2762">
        <ele>401</ele>
        <time>2018-06-03T09:49:48.000Z</time>
      </trkpt>
      <trkpt lat="44.54937" lon="4.27627">
        <ele>401</ele>
        <time>2018-06-03T09:49:49.000Z</time>
      </trkpt>
      <trkpt lat="44.5493" lon="4.27633">
        <ele>401</ele>
        <time>2018-06-03T09:49:50.000Z</time>
      </trkpt>
      <trkpt lat="44.54924" lon="4.27637">
        <ele>400</ele>
        <time>2018-06-03T09:49:51.000Z</time>
      </trkpt>
      <trkpt lat="44.54919" lon="4.27641">
        <ele>400</ele>
        <time>2018-06-03T09:49:52.000Z</time>
      </trkpt>
      <trkpt lat="44.54913" lon="4.27643">
        <ele>394</ele>
        <time>2018-06-03T09:49:53.000Z</time>
      </trkpt>
      <trkpt lat="44.54907" lon="4.27643">
        <ele>394</ele>
        <time>2018-06-03T09:49:54.000Z</time>
      </trkpt>
      <trkpt lat="44.54901" lon="4.27643">
        <ele>394</ele>
        <time>2018-06-03T09:49:55.000Z</time>
      </trkpt>
      <trkpt lat="44.54895" lon="4.27645">
        <ele>393</ele>
        <time>2018-06-03T09:49:56.000Z</time>
      </trkpt>
      <trkpt lat="44.54888" lon="4.27648">
        <ele>393</ele>
        <time>2018-06-03T09:49:57.000Z</time>
      </trkpt>
      <trkpt lat="44.5488" lon="4.27652">
        <ele>392</ele>
        <time>2018-06-03T09:49:58.000Z</time>
      </trkpt>
      <trkpt lat="44.54873" lon="4.27656">
        <ele>391</ele>
        <time>2018-06-03T09:49:59.000Z</time>
      </trkpt>
      <trkpt lat="44.54865" lon="4.2766">
        <ele>390</ele>
        <time>2018-06-03T09:50:00.000Z</time>
      </trkpt>
      <trkpt lat="44.54856" lon="4.27666">
        <ele>389</ele>
        <time>2018-06-03T09:50:01.000Z</time>
      </trkpt>
      <trkpt lat="44.54848" lon="4.27671">
        <ele>387</ele>
        <time>2018-06-03T09:50:02.000Z</time>
      </trkpt>
      <trkpt lat="44.54841" lon="4.27677">
        <ele>386</ele>
        <time>2018-06-03T09:50:03.000Z</time>
      </trkpt>
      <trkpt lat="44.54835" lon="4.27683">
        <ele>387</ele>
        <time>2018-06-03T09:50:04.000Z</time>
      </trkpt>
      <trkpt lat="44.5483" lon="4.2769">
        <ele>381</ele>
        <time>2018-06-03T09:50:05.000Z</time>
      </trkpt>
      <trkpt lat="44.54828" lon="4.27698">
        <ele>381</ele>
        <time>2018-06-03T09:50:06.000Z</time>
      </trkpt>
      <trkpt lat="44.54825" lon="4.27706">
        <ele>380</ele>
        <time>2018-06-03T09:50:07.000Z</time>
      </trkpt>
      <trkpt lat="44.54821" lon="4.27714">
        <ele>380</ele>
        <time>2018-06-03T09:50:08.000Z</time>
      </trkpt>
      <trkpt lat="44.54816" lon="4.27722">
        <ele>380</ele>
        <time>2018-06-03T09:50:09.000Z</time>
      </trkpt>
      <trkpt lat="44.54811" lon="4.2773">
        <ele>379</ele>
        <time>2018-06-03T09:50:10.000Z</time>
      </trkpt>
      <trkpt lat="44.54807" lon="4.27738">
        <ele>379</ele>
        <time>2018-06-03T09:50:11.000Z</time>
      </trkpt>
      <trkpt lat="44.54804" lon="4.27746">
        <ele>379</ele>
        <time>2018-06-03T09:50:12.000Z</time>
      </trkpt>
      <trkpt lat="44.54802" lon="4.27756">
        <ele>378</ele>
        <time>2018-06-03T09:50:13.000Z</time>
      </trkpt>
      <trkpt lat="44.54801" lon="4.27765">
        <ele>378</ele>
        <time>2018-06-03T09:50:14.000Z</time>
      </trkpt>
      <trkpt lat="44.54801" lon="4.27773">
        <ele>378</ele>
        <time>2018-06-03T09:50:15.000Z</time>
      </trkpt>
      <trkpt lat="44.54802" lon="4.27779">
        <ele>378</ele>
        <time>2018-06-03T09:50:16.000Z</time>
      </trkpt>
      <trkpt lat="44.54804" lon="4.27782">
        <ele>378</ele>
        <time>2018-06-03T09:50:17.000Z</time>
      </trkpt>
      <trkpt lat="44.54807" lon="4.27784">
        <ele>379</ele>
        <time>2018-06-03T09:50:18.000Z</time>
      </trkpt>
      <trkpt lat="44.5481" lon="4.27786">
        <ele>379</ele>
        <time>2018-06-03T09:50:19.000Z</time>
      </trkpt>
      <trkpt lat="44.54814" lon="4.27786">
        <ele>379</ele>
        <time>2018-06-03T09:50:20.000Z</time>
      </trkpt>
      <trkpt lat="44.54817" lon="4.27786">
        <ele>379</ele>
        <time>2018-06-03T09:50:21.000Z</time>
      </trkpt>
      <trkpt lat="44.5482" lon="4.27786">
        <ele>379</ele>
        <time>2018-06-03T09:50:22.000Z</time>
      </trkpt>
      <trkpt lat="44.54823" lon="4.27787">
        <ele>379</ele>
        <time>2018-06-03T09:50:23.000Z</time>
      </trkpt>
      <trkpt lat="44.54825" lon="4.27788">
        <ele>379</ele>
        <time>2018-06-03T09:50:24.000Z</time>
      </trkpt>
      <trkpt lat="44.54828" lon="4.27789">
        <ele>379</ele>
        <time>2018-06-03T09:50:25.000Z</time>
      </trkpt>
      <trkpt lat="44.5483" lon="4.27791">
        <ele>379</ele>
        <time>2018-06-03T09:50:26.000Z</time>
      </trkpt>
      <trkpt lat="44.54833" lon="4.27793">
        <ele>379</ele>
        <time>2018-06-03T09:50:27.000Z</time>
      </trkpt>
      <trkpt lat="44.54836" lon="4.27795">
        <ele>383</ele>
        <time>2018-06-03T09:50:28.000Z</time>
      </trkpt>
      <trkpt lat="44.54838" lon="4.27797">
        <ele>383</ele>
        <time>2018-06-03T09:50:29.000Z</time>
      </trkpt>
      <trkpt lat="44.54841" lon="4.27799">
        <ele>383</ele>
        <time>2018-06-03T09:50:30.000Z</time>
      </trkpt>
      <trkpt lat="44.54844" lon="4.27801">
        <ele>383</ele>
        <time>2018-06-03T09:50:31.000Z</time>
      </trkpt>
      <trkpt lat="44.54847" lon="4.27803">
        <ele>383</ele>
        <time>2018-06-03T09:50:32.000Z</time>
      </trkpt>
      <trkpt lat="44.5485" lon="4.27804">
        <ele>383</ele>
        <time>2018-06-03T09:50:33.000Z</time>
      </trkpt>
      <trkpt lat="44.54853" lon="4.27806">
        <ele>383</ele>
        <time>2018-06-03T09:50:34.000Z</time>
      </trkpt>
      <trkpt lat="44.54856" lon="4.27807">
        <ele>383</ele>
        <time>2018-06-03T09:50:35.000Z</time>
      </trkpt>
      <trkpt lat="44.54858" lon="4.27809">
        <ele>383</ele>
        <time>2018-06-03T09:50:36.000Z</time>
      </trkpt>
      <trkpt lat="44.54861" lon="4.2781">
        <ele>383</ele>
        <time>2018-06-03T09:50:37.000Z</time>
      </trkpt>
      <trkpt lat="44.54864" lon="4.27812">
        <ele>383</ele>
        <time>2018-06-03T09:50:38.000Z</time>
      </trkpt>
      <trkpt lat="44.54866" lon="4.27814">
        <ele>383</ele>
        <time>2018-06-03T09:50:39.000Z</time>
      </trkpt>
      <trkpt lat="44.54869" lon="4.27815">
        <ele>383</ele>
        <time>2018-06-03T09:50:40.000Z</time>
      </trkpt>
      <trkpt lat="44.54872" lon="4.27817">
        <ele>383</ele>
        <time>2018-06-03T09:50:41.000Z</time>
      </trkpt>
      <trkpt lat="44.54875" lon="4.27819">
        <ele>384</ele>
        <time>2018-06-03T09:50:42.000Z</time>
      </trkpt>
      <trkpt lat="44.54878" lon="4.2782">
        <ele>384</ele>
        <time>2018-06-03T09:50:43.000Z</time>
      </trkpt>
      <trkpt lat="44.54881" lon="4.27822">
        <ele>384</ele>
        <time>2018-06-03T09:50:44.000Z</time>
      </trkpt>
      <trkpt lat="44.54883" lon="4.27823">
        <ele>384</ele>
        <time>2018-06-03T09:50:45.000Z</time>
      </trkpt>
      <trkpt lat="44.54885" lon="4.27825">
        <ele>384</ele>
        <time>2018-06-03T09:50:46.000Z</time>
      </trkpt>
      <trkpt lat="44.54887" lon="4.27827">
        <ele>384</ele>
        <time>2018-06-03T09:50:47.000Z</time>
      </trkpt>
      <trkpt lat="44.54889" lon="4.27828">
        <ele>384</ele>
        <time>2018-06-03T09:50:48.000Z</time>
      </trkpt>
      <trkpt lat="44.54889" lon="4.27829">
        <ele>384</ele>
        <time>2018-06-03T09:50:49.000Z</time>
      </trkpt>
      <trkpt lat="44.5489" lon="4.2783">
        <ele>384</ele>
        <time>2018-06-03T09:50:50.000Z</time>
      </trkpt>
      <trkpt lat="44.5489" lon="4.27832">
        <ele>384</ele>
        <time>2018-06-03T09:50:51.000Z</time>
      </trkpt>
      <trkpt lat="44.54891" lon="4.27834">
        <ele>387</ele>
        <time>2018-06-03T09:50:52.000Z</time>
      </trkpt>
      <trkpt lat="44.54892" lon="4.27836">
        <ele>387</ele>
        <time>2018-06-03T09:50:53.000Z</time>
      </trkpt>
      <trkpt lat="44.54893" lon="4.27838">
        <ele>387</ele>
        <time>2018-06-03T09:50:54.000Z</time>
      </trkpt>
      <trkpt lat="44.54893" lon="4.2784">
        <ele>387</ele>
        <time>2018-06-03T09:50:55.000Z</time>
      </trkpt>
      <trkpt lat="44.54893" lon="4.27843">
        <ele>387</ele>
        <time>2018-06-03T09:50:56.000Z</time>
      </trkpt>
      <trkpt lat="44.54894" lon="4.27845">
        <ele>387</ele>
        <time>2018-06-03T09:50:57.000Z</time>
      </trkpt>
      <trkpt lat="44.54894" lon="4.27848">
        <ele>387</ele>
        <time>2018-06-03T09:50:58.000Z</time>
      </trkpt>
      <trkpt lat="44.54895" lon="4.2785">
        <ele>387</ele>
        <time>2018-06-03T09:50:59.000Z</time>
      </trkpt>
      <trkpt lat="44.54896" lon="4.27852">
        <ele>387</ele>
        <time>2018-06-03T09:51:00.000Z</time>
      </trkpt>
      <trkpt lat="44.54896" lon="4.27853">
        <ele>387</ele>
        <time>2018-06-03T09:51:01.000Z</time>
      </trkpt>
      <trkpt lat="44.54897" lon="4.27854">
        <ele>387</ele>
        <time>2018-06-03T09:51:02.000Z</time>
      </trkpt>
      <trkpt lat="44.54897" lon="4.27855">
        <ele>387</ele>
        <time>2018-06-03T09:51:03.000Z</time>
      </trkpt>
      <trkpt lat="44.54898" lon="4.27857">
        <ele>388</ele>
        <time>2018-06-03T09:51:04.000Z</time>
      </trkpt>
      <trkpt lat="44.54899" lon="4.27859">
        <ele>388</ele>
        <time>2018-06-03T09:51:05.000Z</time>
      </trkpt>
      <trkpt lat="44.549" lon="4.2786">
        <ele>388</ele>
        <time>2018-06-03T09:51:06.000Z</time>
      </trkpt>
      <trkpt lat="44.54902" lon="4.27861">
        <ele>388</ele>
        <time>2018-06-03T09:51:07.000Z</time>
      </trkpt>
      <trkpt lat="44.54903" lon="4.27862">
        <ele>388</ele>
        <time>2018-06-03T09:51:08.000Z</time>
      </trkpt>
      <trkpt lat="44.54905" lon="4.27864">
        <ele>388</ele>
        <time>2018-06-03T09:51:09.000Z</time>
      </trkpt>
      <trkpt lat="44.54907" lon="4.27865">
        <ele>388</ele>
        <time>2018-06-03T09:51:10.000Z</time>
      </trkpt>
      <trkpt lat="44.54909" lon="4.27866">
        <ele>388</ele>
        <time>2018-06-03T09:51:11.000Z</time>
      </trkpt>
      <trkpt lat="44.54911" lon="4.27866">
        <ele>388</ele>
        <time>2018-06-03T09:51:12.000Z</time>
      </trkpt>
      <trkpt lat="44.54913" lon="4.27868">
        <ele>388</ele>
        <time>2018-06-03T09:51:13.000Z</time>
      </trkpt>
      <trkpt lat="44.54915" lon="4.27869">
        <ele>388</ele>
        <time>2018-06-03T09:51:14.000Z</time>
      </trkpt>
      <trkpt lat="44.54918" lon="4.27871">
        <ele>389</ele>
        <time>2018-06-03T09:51:15.000Z</time>
      </trkpt>
      <trkpt lat="44.5492" lon="4.27872">
        <ele>390</ele>
        <time>2018-06-03T09:51:16.000Z</time>
      </trkpt>
      <trkpt lat="44.54922" lon="4.27873">
        <ele>390</ele>
        <time>2018-06-03T09:51:17.000Z</time>
      </trkpt>
      <trkpt lat="44.54923" lon="4.27875">
        <ele>390</ele>
        <time>2018-06-03T09:51:18.000Z</time>
      </trkpt>
      <trkpt lat="44.54925" lon="4.27877">
        <ele>390</ele>
        <time>2018-06-03T09:51:19.000Z</time>
      </trkpt>
      <trkpt lat="44.54928" lon="4.27877">
        <ele>390</ele>
        <time>2018-06-03T09:51:20.000Z</time>
      </trkpt>
      <trkpt lat="44.5493" lon="4.27877">
        <ele>390</ele>
        <time>2018-06-03T09:51:21.000Z</time>
      </trkpt>
      <trkpt lat="44.54933" lon="4.27877">
        <ele>390</ele>
        <time>2018-06-03T09:51:22.000Z</time>
      </trkpt>
      <trkpt lat="44.54935" lon="4.27877">
        <ele>390</ele>
        <time>2018-06-03T09:51:23.000Z</time>
      </trkpt>
      <trkpt lat="44.54937" lon="4.27878">
        <ele>390</ele>
        <time>2018-06-03T09:51:24.000Z</time>
      </trkpt>
      <trkpt lat="44.5494" lon="4.27879">
        <ele>390</ele>
        <time>2018-06-03T09:51:25.000Z</time>
      </trkpt>
      <trkpt lat="44.54942" lon="4.2788">
        <ele>390</ele>
        <time>2018-06-03T09:51:26.000Z</time>
      </trkpt>
      <trkpt lat="44.54944" lon="4.2788">
        <ele>390</ele>
        <time>2018-06-03T09:51:27.000Z</time>
      </trkpt>
      <trkpt lat="44.54946" lon="4.27881">
        <ele>390</ele>
        <time>2018-06-03T09:51:28.000Z</time>
      </trkpt>
      <trkpt lat="44.54949" lon="4.27881">
        <ele>390</ele>
        <time>2018-06-03T09:51:29.000Z</time>
      </trkpt>
      <trkpt lat="44.54952" lon="4.27881">
        <ele>390</ele>
        <time>2018-06-03T09:51:30.000Z</time>
      </trkpt>
      <trkpt lat="44.54954" lon="4.27882">
        <ele>390</ele>
        <time>2018-06-03T09:51:31.000Z</time>
      </trkpt>
      <trkpt lat="44.54957" lon="4.27882">
        <ele>390</ele>
        <time>2018-06-03T09:51:32.000Z</time>
      </trkpt>
      <trkpt lat="44.54959" lon="4.27882">
        <ele>390</ele>
        <time>2018-06-03T09:51:33.000Z</time>
      </trkpt>
      <trkpt lat="44.54962" lon="4.27882">
        <ele>391</ele>
        <time>2018-06-03T09:51:34.000Z</time>
      </trkpt>
      <trkpt lat="44.54964" lon="4.27883">
        <ele>391</ele>
        <time>2018-06-03T09:51:35.000Z</time>
      </trkpt>
      <trkpt lat="44.54966" lon="4.27883">
        <ele>391</ele>
        <time>2018-06-03T09:51:36.000Z</time>
      </trkpt>
      <trkpt lat="44.54969" lon="4.27882">
        <ele>391</ele>
        <time>2018-06-03T09:51:37.000Z</time>
      </trkpt>
      <trkpt lat="44.54971" lon="4.27882">
        <ele>391</ele>
        <time>2018-06-03T09:51:38.000Z</time>
      </trkpt>
      <trkpt lat="44.54973" lon="4.27882">
        <ele>391</ele>
        <time>2018-06-03T09:51:39.000Z</time>
      </trkpt>
      <trkpt lat="44.54974" lon="4.27881">
        <ele>391</ele>
        <time>2018-06-03T09:51:40.000Z</time>
      </trkpt>
      <trkpt lat="44.54976" lon="4.27881">
        <ele>391</ele>
        <time>2018-06-03T09:51:41.000Z</time>
      </trkpt>
      <trkpt lat="44.54977" lon="4.27881">
        <ele>391</ele>
        <time>2018-06-03T09:51:42.000Z</time>
      </trkpt>
      <trkpt lat="44.54979" lon="4.27881">
        <ele>391</ele>
        <time>2018-06-03T09:51:43.000Z</time>
      </trkpt>
      <trkpt lat="44.54981" lon="4.27882">
        <ele>391</ele>
        <time>2018-06-03T09:51:44.000Z</time>
      </trkpt>
      <trkpt lat="44.54983" lon="4.27883">
        <ele>391</ele>
        <time>2018-06-03T09:51:45.000Z</time>
      </trkpt>
      <trkpt lat="44.54985" lon="4.27884">
        <ele>391</ele>
        <time>2018-06-03T09:51:46.000Z</time>
      </trkpt>
      <trkpt lat="44.54986" lon="4.27886">
        <ele>391</ele>
        <time>2018-06-03T09:51:47.000Z</time>
      </trkpt>
      <trkpt lat="44.54988" lon="4.27887">
        <ele>391</ele>
        <time>2018-06-03T09:51:48.000Z</time>
      </trkpt>
      <trkpt lat="44.5499" lon="4.27888">
        <ele>391</ele>
        <time>2018-06-03T09:51:49.000Z</time>
      </trkpt>
      <trkpt lat="44.54991" lon="4.27889">
        <ele>391</ele>
        <time>2018-06-03T09:51:50.000Z</time>
      </trkpt>
      <trkpt lat="44.54993" lon="4.2789">
        <ele>391</ele>
        <time>2018-06-03T09:51:51.000Z</time>
      </trkpt>
      <trkpt lat="44.54995" lon="4.27891">
        <ele>391</ele>
        <time>2018-06-03T09:51:52.000Z</time>
      </trkpt>
      <trkpt lat="44.54997" lon="4.27893">
        <ele>391</ele>
        <time>2018-06-03T09:51:53.000Z</time>
      </trkpt>
      <trkpt lat="44.54999" lon="4.27894">
        <ele>391</ele>
        <time>2018-06-03T09:51:54.000Z</time>
      </trkpt>
      <trkpt lat="44.55001" lon="4.27894">
        <ele>393</ele>
        <time>2018-06-03T09:51:55.000Z</time>
      </trkpt>
      <trkpt lat="44.55002" lon="4.27893">
        <ele>393</ele>
        <time>2018-06-03T09:51:56.000Z</time>
      </trkpt>
      <trkpt lat="44.55004" lon="4.27892">
        <ele>393</ele>
        <time>2018-06-03T09:51:57.000Z</time>
      </trkpt>
      <trkpt lat="44.55006" lon="4.27892">
        <ele>393</ele>
        <time>2018-06-03T09:51:58.000Z</time>
      </trkpt>
      <trkpt lat="44.55009" lon="4.27892">
        <ele>393</ele>
        <time>2018-06-03T09:51:59.000Z</time>
      </trkpt>
      <trkpt lat="44.55011" lon="4.27892">
        <ele>393</ele>
        <time>2018-06-03T09:52:00.000Z</time>
      </trkpt>
      <trkpt lat="44.55013" lon="4.27892">
        <ele>393</ele>
        <time>2018-06-03T09:52:01.000Z</time>
      </trkpt>
      <trkpt lat="44.55014" lon="4.27892">
        <ele>393</ele>
        <time>2018-06-03T09:52:02.000Z</time>
      </trkpt>
      <trkpt lat="44.55016" lon="4.27892">
        <ele>393</ele>
        <time>2018-06-03T09:52:03.000Z</time>
      </trkpt>
      <trkpt lat="44.55018" lon="4.27891">
        <ele>393</ele>
        <time>2018-06-03T09:52:04.000Z</time>
      </trkpt>
      <trkpt lat="44.5502" lon="4.27892">
        <ele>393</ele>
        <time>2018-06-03T09:52:05.000Z</time>
      </trkpt>
      <trkpt lat="44.55021" lon="4.27893">
        <ele>393</ele>
        <time>2018-06-03T09:52:06.000Z</time>
      </trkpt>
      <trkpt lat="44.55022" lon="4.27894">
        <ele>393</ele>
        <time>2018-06-03T09:52:07.000Z</time>
      </trkpt>
      <trkpt lat="44.55022" lon="4.27896">
        <ele>393</ele>
        <time>2018-06-03T09:52:08.000Z</time>
      </trkpt>
      <trkpt lat="44.55023" lon="4.27897">
        <ele>393</ele>
        <time>2018-06-03T09:52:09.000Z</time>
      </trkpt>
      <trkpt lat="44.55023" lon="4.27898">
        <ele>393</ele>
        <time>2018-06-03T09:52:10.000Z</time>
      </trkpt>
      <trkpt lat="44.55024" lon="4.279">
        <ele>393</ele>
        <time>2018-06-03T09:52:11.000Z</time>
      </trkpt>
      <trkpt lat="44.55024" lon="4.27901">
        <ele>393</ele>
        <time>2018-06-03T09:52:12.000Z</time>
      </trkpt>
      <trkpt lat="44.55025" lon="4.27903">
        <ele>393</ele>
        <time>2018-06-03T09:52:13.000Z</time>
      </trkpt>
      <trkpt lat="44.55026" lon="4.27904">
        <ele>393</ele>
        <time>2018-06-03T09:52:14.000Z</time>
      </trkpt>
      <trkpt lat="44.55027" lon="4.27906">
        <ele>393</ele>
        <time>2018-06-03T09:52:15.000Z</time>
      </trkpt>
      <trkpt lat="44.55028" lon="4.27908">
        <ele>393</ele>
        <time>2018-06-03T09:52:16.000Z</time>
      </trkpt>
      <trkpt lat="44.55029" lon="4.27909">
        <ele>393</ele>
        <time>2018-06-03T09:52:17.000Z</time>
      </trkpt>
      <trkpt lat="44.5503" lon="4.27911">
        <ele>393</ele>
        <time>2018-06-03T09:52:18.000Z</time>
      </trkpt>
      <trkpt lat="44.5503" lon="4.27912">
        <ele>393</ele>
        <time>2018-06-03T09:52:19.000Z</time>
      </trkpt>
      <trkpt lat="44.55031" lon="4.27914">
        <ele>393</ele>
        <time>2018-06-03T09:52:20.000Z</time>
      </trkpt>
      <trkpt lat="44.55032" lon="4.27915">
        <ele>393</ele>
        <time>2018-06-03T09:52:21.000Z</time>
      </trkpt>
      <trkpt lat="44.55033" lon="4.27916">
        <ele>393</ele>
        <time>2018-06-03T09:52:22.000Z</time>
      </trkpt>
      <trkpt lat="44.55034" lon="4.27918">
        <ele>399</ele>
        <time>2018-06-03T09:52:23.000Z</time>
      </trkpt>
      <trkpt lat="44.55034" lon="4.2792">
        <ele>399</ele>
        <time>2018-06-03T09:52:24.000Z</time>
      </trkpt>
      <trkpt lat="44.55034" lon="4.27921">
        <ele>399</ele>
        <time>2018-06-03T09:52:25.000Z</time>
      </trkpt>
      <trkpt lat="44.55034" lon="4.27923">
        <ele>399</ele>
        <time>2018-06-03T09:52:26.000Z</time>
      </trkpt>
      <trkpt lat="44.55035" lon="4.27925">
        <ele>399</ele>
        <time>2018-06-03T09:52:27.000Z</time>
      </trkpt>
      <trkpt lat="44.55035" lon="4.27926">
        <ele>400</ele>
        <time>2018-06-03T09:52:28.000Z</time>
      </trkpt>
      <trkpt lat="44.55035" lon="4.27928">
        <ele>400</ele>
        <time>2018-06-03T09:52:29.000Z</time>
      </trkpt>
      <trkpt lat="44.55035" lon="4.2793">
        <ele>400</ele>
        <time>2018-06-03T09:52:30.000Z</time>
      </trkpt>
      <trkpt lat="44.55036" lon="4.27931">
        <ele>400</ele>
        <time>2018-06-03T09:52:31.000Z</time>
      </trkpt>
      <trkpt lat="44.55036" lon="4.27933">
        <ele>400</ele>
        <time>2018-06-03T09:52:32.000Z</time>
      </trkpt>
      <trkpt lat="44.55036" lon="4.27935">
        <ele>400</ele>
        <time>2018-06-03T09:52:33.000Z</time>
      </trkpt>
      <trkpt lat="44.55036" lon="4.27936">
        <ele>400</ele>
        <time>2018-06-03T09:52:34.000Z</time>
      </trkpt>
      <trkpt lat="44.55037" lon="4.27938">
        <ele>401</ele>
        <time>2018-06-03T09:52:35.000Z</time>
      </trkpt>
      <trkpt lat="44.55037" lon="4.2794">
        <ele>401</ele>
        <time>2018-06-03T09:52:36.000Z</time>
      </trkpt>
      <trkpt lat="44.55038" lon="4.27941">
        <ele>401</ele>
        <time>2018-06-03T09:52:37.000Z</time>
      </trkpt>
      <trkpt lat="44.55038" lon="4.27943">
        <ele>401</ele>
        <time>2018-06-03T09:52:38.000Z</time>
      </trkpt>
      <trkpt lat="44.55039" lon="4.27944">
        <ele>401</ele>
        <time>2018-06-03T09:52:39.000Z</time>
      </trkpt>
      <trkpt lat="44.5504" lon="4.27945">
        <ele>401</ele>
        <time>2018-06-03T09:52:40.000Z</time>
      </trkpt>
      <trkpt lat="44.55041" lon="4.27946">
        <ele>401</ele>
        <time>2018-06-03T09:52:41.000Z</time>
      </trkpt>
      <trkpt lat="44.55042" lon="4.27947">
        <ele>401</ele>
        <time>2018-06-03T09:52:42.000Z</time>
      </trkpt>
      <trkpt lat="44.55043" lon="4.27948">
        <ele>401</ele>
        <time>2018-06-03T09:52:43.000Z</time>
      </trkpt>
      <trkpt lat="44.55044" lon="4.27949">
        <ele>402</ele>
        <time>2018-06-03T09:52:44.000Z</time>
      </trkpt>
      <trkpt lat="44.55045" lon="4.2795">
        <ele>402</ele>
        <time>2018-06-03T09:52:45.000Z</time>
      </trkpt>
      <trkpt lat="44.55045" lon="4.27952">
        <ele>402</ele>
        <time>2018-06-03T09:52:46.000Z</time>
      </trkpt>
      <trkpt lat="44.55046" lon="4.27954">
        <ele>402</ele>
        <time>2018-06-03T09:52:47.000Z</time>
      </trkpt>
      <trkpt lat="44.55047" lon="4.27956">
        <ele>402</ele>
        <time>2018-06-03T09:52:48.000Z</time>
      </trkpt>
      <trkpt lat="44.55048" lon="4.27957">
        <ele>402</ele>
        <time>2018-06-03T09:52:49.000Z</time>
      </trkpt>
      <trkpt lat="44.55049" lon="4.27958">
        <ele>402</ele>
        <time>2018-06-03T09:52:50.000Z</time>
      </trkpt>
      <trkpt lat="44.55049" lon="4.27959">
        <ele>402</ele>
        <time>2018-06-03T09:52:51.000Z</time>
      </trkpt>
      <trkpt lat="44.5505" lon="4.2796">
        <ele>403</ele>
        <time>2018-06-03T09:52:52.000Z</time>
      </trkpt>
      <trkpt lat="44.5505" lon="4.27961">
        <ele>403</ele>
        <time>2018-06-03T09:52:53.000Z</time>
      </trkpt>
      <trkpt lat="44.55051" lon="4.27962">
        <ele>403</ele>
        <time>2018-06-03T09:52:54.000Z</time>
      </trkpt>
      <trkpt lat="44.55052" lon="4.27963">
        <ele>403</ele>
        <time>2018-06-03T09:52:55.000Z</time>
      </trkpt>
      <trkpt lat="44.55053" lon="4.27964">
        <ele>403</ele>
        <time>2018-06-03T09:52:56.000Z</time>
      </trkpt>
      <trkpt lat="44.55053" lon="4.27965">
        <ele>403</ele>
        <time>2018-06-03T09:52:57.000Z</time>
      </trkpt>
      <trkpt lat="44.55055" lon="4.27965">
        <ele>403</ele>
        <time>2018-06-03T09:52:58.000Z</time>
      </trkpt>
      <trkpt lat="44.55056" lon="4.27965">
        <ele>403</ele>
        <time>2018-06-03T09:52:59.000Z</time>
      </trkpt>
      <trkpt lat="44.55057" lon="4.27966">
        <ele>403</ele>
        <time>2018-06-03T09:53:00.000Z</time>
      </trkpt>
      <trkpt lat="44.55058" lon="4.27967">
        <ele>403</ele>
        <time>2018-06-03T09:53:01.000Z</time>
      </trkpt>
      <trkpt lat="44.55059" lon="4.27967">
        <ele>403</ele>
        <time>2018-06-03T09:53:02.000Z</time>
      </trkpt>
      <trkpt lat="44.5506" lon="4.27968">
        <ele>403</ele>
        <time>2018-06-03T09:53:03.000Z</time>
      </trkpt>
      <trkpt lat="44.5506" lon="4.2797">
        <ele>403</ele>
        <time>2018-06-03T09:53:04.000Z</time>
      </trkpt>
      <trkpt lat="44.55061" lon="4.27971">
        <ele>403</ele>
        <time>2018-06-03T09:53:05.000Z</time>
      </trkpt>
      <trkpt lat="44.55062" lon="4.27972">
        <ele>403</ele>
        <time>2018-06-03T09:53:06.000Z</time>
      </trkpt>
      <trkpt lat="44.55063" lon="4.27973">
        <ele>404</ele>
        <time>2018-06-03T09:53:07.000Z</time>
      </trkpt>
      <trkpt lat="44.55064" lon="4.27973">
        <ele>404</ele>
        <time>2018-06-03T09:53:08.000Z</time>
      </trkpt>
      <trkpt lat="44.55065" lon="4.27975">
        <ele>404</ele>
        <time>2018-06-03T09:53:09.000Z</time>
      </trkpt>
      <trkpt lat="44.55066" lon="4.27976">
        <ele>404</ele>
        <time>2018-06-03T09:53:10.000Z</time>
      </trkpt>
      <trkpt lat="44.55068" lon="4.27977">
        <ele>404</ele>
        <time>2018-06-03T09:53:11.000Z</time>
      </trkpt>
      <trkpt lat="44.5507" lon="4.27977">
        <ele>404</ele>
        <time>2018-06-03T09:53:12.000Z</time>
      </trkpt>
      <trkpt lat="44.55071" lon="4.27977">
        <ele>404</ele>
        <time>2018-06-03T09:53:13.000Z</time>
      </trkpt>
      <trkpt lat="44.55072" lon="4.27978">
        <ele>404</ele>
        <time>2018-06-03T09:53:14.000Z</time>
      </trkpt>
      <trkpt lat="44.55073" lon="4.27979">
        <ele>404</ele>
        <time>2018-06-03T09:53:15.000Z</time>
      </trkpt>
      <trkpt lat="44.55074" lon="4.2798">
        <ele>404</ele>
        <time>2018-06-03T09:53:16.000Z</time>
      </trkpt>
      <trkpt lat="44.55076" lon="4.27981">
        <ele>404</ele>
        <time>2018-06-03T09:53:17.000Z</time>
      </trkpt>
      <trkpt lat="44.55077" lon="4.27982">
        <ele>404</ele>
        <time>2018-06-03T09:53:18.000Z</time>
      </trkpt>
      <trkpt lat="44.55077" lon="4.27983">
        <ele>405</ele>
        <time>2018-06-03T09:53:19.000Z</time>
      </trkpt>
      <trkpt lat="44.55078" lon="4.27984">
        <ele>405</ele>
        <time>2018-06-03T09:53:20.000Z</time>
      </trkpt>
      <trkpt lat="44.55079" lon="4.27985">
        <ele>405</ele>
        <time>2018-06-03T09:53:21.000Z</time>
      </trkpt>
      <trkpt lat="44.5508" lon="4.27986">
        <ele>405</ele>
        <time>2018-06-03T09:53:22.000Z</time>
      </trkpt>
      <trkpt lat="44.55081" lon="4.27987">
        <ele>405</ele>
        <time>2018-06-03T09:53:23.000Z</time>
      </trkpt>
      <trkpt lat="44.55082" lon="4.27988">
        <ele>405</ele>
        <time>2018-06-03T09:53:24.000Z</time>
      </trkpt>
      <trkpt lat="44.55083" lon="4.27989">
        <ele>405</ele>
        <time>2018-06-03T09:53:25.000Z</time>
      </trkpt>
      <trkpt lat="44.55084" lon="4.2799">
        <ele>406</ele>
        <time>2018-06-03T09:53:26.000Z</time>
      </trkpt>
      <trkpt lat="44.55085" lon="4.27991">
        <ele>406</ele>
        <time>2018-06-03T09:53:27.000Z</time>
      </trkpt>
      <trkpt lat="44.55086" lon="4.27991">
        <ele>406</ele>
        <time>2018-06-03T09:53:28.000Z</time>
      </trkpt>
      <trkpt lat="44.55086" lon="4.27992">
        <ele>406</ele>
        <time>2018-06-03T09:53:29.000Z</time>
      </trkpt>
      <trkpt lat="44.55087" lon="4.27994">
        <ele>406</ele>
        <time>2018-06-03T09:53:30.000Z</time>
      </trkpt>
      <trkpt lat="44.55088" lon="4.27995">
        <ele>406</ele>
        <time>2018-06-03T09:53:31.000Z</time>
      </trkpt>
      <trkpt lat="44.55088" lon="4.27996">
        <ele>406</ele>
        <time>2018-06-03T09:53:32.000Z</time>
      </trkpt>
      <trkpt lat="44.55089" lon="4.27996">
        <ele>406</ele>
        <time>2018-06-03T09:53:33.000Z</time>
      </trkpt>
      <trkpt lat="44.5509" lon="4.27997">
        <ele>406</ele>
        <time>2018-06-03T09:53:34.000Z</time>
      </trkpt>
      <trkpt lat="44.55091" lon="4.27998">
        <ele>406</ele>
        <time>2018-06-03T09:53:35.000Z</time>
      </trkpt>
      <trkpt lat="44.55091" lon="4.27999">
        <ele>406</ele>
        <time>2018-06-03T09:53:36.000Z</time>
      </trkpt>
      <trkpt lat="44.55092" lon="4.28">
        <ele>410</ele>
        <time>2018-06-03T09:53:37.000Z</time>
      </trkpt>
      <trkpt lat="44.55092" lon="4.28002">
        <ele>410</ele>
        <time>2018-06-03T09:53:38.000Z</time>
      </trkpt>
      <trkpt lat="44.55091" lon="4.28004">
        <ele>410</ele>
        <time>2018-06-03T09:53:39.000Z</time>
      </trkpt>
      <trkpt lat="44.5509" lon="4.28005">
        <ele>410</ele>
        <time>2018-06-03T09:53:40.000Z</time>
      </trkpt>
      <trkpt lat="44.55089" lon="4.28005">
        <ele>410</ele>
        <time>2018-06-03T09:53:41.000Z</time>
      </trkpt>
      <trkpt lat="44.55088" lon="4.28005">
        <ele>409</ele>
        <time>2018-06-03T09:53:42.000Z</time>
      </trkpt>
      <trkpt lat="44.55086" lon="4.28005">
        <ele>409</ele>
        <time>2018-06-03T09:53:43.000Z</time>
      </trkpt>
      <trkpt lat="44.55085" lon="4.28004">
        <ele>409</ele>
        <time>2018-06-03T09:53:44.000Z</time>
      </trkpt>
      <trkpt lat="44.55083" lon="4.28004">
        <ele>409</ele>
        <time>2018-06-03T09:53:45.000Z</time>
      </trkpt>
      <trkpt lat="44.55081" lon="4.28004">
        <ele>409</ele>
        <time>2018-06-03T09:53:46.000Z</time>
      </trkpt>
      <trkpt lat="44.5508" lon="4.28004">
        <ele>410</ele>
        <time>2018-06-03T09:53:47.000Z</time>
      </trkpt>
      <trkpt lat="44.55078" lon="4.28004">
        <ele>410</ele>
        <time>2018-06-03T09:53:48.000Z</time>
      </trkpt>
      <trkpt lat="44.55076" lon="4.28003">
        <ele>411</ele>
        <time>2018-06-03T09:53:49.000Z</time>
      </trkpt>
      <trkpt lat="44.55074" lon="4.28003">
        <ele>412</ele>
        <time>2018-06-03T09:53:50.000Z</time>
      </trkpt>
      <trkpt lat="44.55072" lon="4.28003">
        <ele>412</ele>
        <time>2018-06-03T09:53:51.000Z</time>
      </trkpt>
      <trkpt lat="44.5507" lon="4.28003">
        <ele>413</ele>
        <time>2018-06-03T09:53:52.000Z</time>
      </trkpt>
      <trkpt lat="44.55068" lon="4.28002">
        <ele>413</ele>
        <time>2018-06-03T09:53:53.000Z</time>
      </trkpt>
      <trkpt lat="44.55066" lon="4.28001">
        <ele>414</ele>
        <time>2018-06-03T09:53:54.000Z</time>
      </trkpt>
      <trkpt lat="44.55064" lon="4.28001">
        <ele>414</ele>
        <time>2018-06-03T09:53:55.000Z</time>
      </trkpt>
      <trkpt lat="44.55063" lon="4.28002">
        <ele>415</ele>
        <time>2018-06-03T09:53:56.000Z</time>
      </trkpt>
      <trkpt lat="44.55061" lon="4.28004">
        <ele>415</ele>
        <time>2018-06-03T09:53:57.000Z</time>
      </trkpt>
      <trkpt lat="44.55061" lon="4.28005">
        <ele>415</ele>
        <time>2018-06-03T09:53:58.000Z</time>
      </trkpt>
      <trkpt lat="44.55062" lon="4.28007">
        <ele>415</ele>
        <time>2018-06-03T09:53:59.000Z</time>
      </trkpt>
      <trkpt lat="44.55064" lon="4.28007">
        <ele>415</ele>
        <time>2018-06-03T09:54:00.000Z</time>
      </trkpt>
      <trkpt lat="44.55065" lon="4.28008">
        <ele>415</ele>
        <time>2018-06-03T09:54:01.000Z</time>
      </trkpt>
      <trkpt lat="44.55066" lon="4.28009">
        <ele>415</ele>
        <time>2018-06-03T09:54:02.000Z</time>
      </trkpt>
      <trkpt lat="44.55067" lon="4.2801">
        <ele>415</ele>
        <time>2018-06-03T09:54:03.000Z</time>
      </trkpt>
      <trkpt lat="44.55069" lon="4.28011">
        <ele>415</ele>
        <time>2018-06-03T09:54:04.000Z</time>
      </trkpt>
      <trkpt lat="44.5507" lon="4.28012">
        <ele>415</ele>
        <time>2018-06-03T09:54:05.000Z</time>
      </trkpt>
      <trkpt lat="44.55071" lon="4.28013">
        <ele>415</ele>
        <time>2018-06-03T09:54:06.000Z</time>
      </trkpt>
      <trkpt lat="44.55072" lon="4.28014">
        <ele>415</ele>
        <time>2018-06-03T09:54:07.000Z</time>
      </trkpt>
      <trkpt lat="44.55073" lon="4.28015">
        <ele>415</ele>
        <time>2018-06-03T09:54:08.000Z</time>
      </trkpt>
      <trkpt lat="44.55075" lon="4.28016">
        <ele>415</ele>
        <time>2018-06-03T09:54:09.000Z</time>
      </trkpt>
      <trkpt lat="44.55076" lon="4.28017">
        <ele>415</ele>
        <time>2018-06-03T09:54:10.000Z</time>
      </trkpt>
      <trkpt lat="44.55077" lon="4.28018">
        <ele>415</ele>
        <time>2018-06-03T09:54:11.000Z</time>
      </trkpt>
      <trkpt lat="44.55079" lon="4.28019">
        <ele>415</ele>
        <time>2018-06-03T09:54:12.000Z</time>
      </trkpt>
      <trkpt lat="44.5508" lon="4.2802">
        <ele>415</ele>
        <time>2018-06-03T09:54:13.000Z</time>
      </trkpt>
      <trkpt lat="44.55081" lon="4.28021">
        <ele>416</ele>
        <time>2018-06-03T09:54:14.000Z</time>
      </trkpt>
      <trkpt lat="44.55082" lon="4.28022">
        <ele>416</ele>
        <time>2018-06-03T09:54:15.000Z</time>
      </trkpt>
      <trkpt lat="44.55084" lon="4.28022">
        <ele>413</ele>
        <time>2018-06-03T09:54:16.000Z</time>
      </trkpt>
      <trkpt lat="44.55085" lon="4.28023">
        <ele>413</ele>
        <time>2018-06-03T09:54:17.000Z</time>
      </trkpt>
      <trkpt lat="44.55086" lon="4.28024">
        <ele>414</ele>
        <time>2018-06-03T09:54:18.000Z</time>
      </trkpt>
      <trkpt lat="44.55088" lon="4.28025">
        <ele>414</ele>
        <time>2018-06-03T09:54:19.000Z</time>
      </trkpt>
      <trkpt lat="44.55089" lon="4.28026">
        <ele>414</ele>
        <time>2018-06-03T09:54:20.000Z</time>
      </trkpt>
      <trkpt lat="44.55091" lon="4.28027">
        <ele>414</ele>
        <time>2018-06-03T09:54:21.000Z</time>
      </trkpt>
      <trkpt lat="44.55092" lon="4.28027">
        <ele>414</ele>
        <time>2018-06-03T09:54:22.000Z</time>
      </trkpt>
      <trkpt lat="44.55093" lon="4.28028">
        <ele>415</ele>
        <time>2018-06-03T09:54:23.000Z</time>
      </trkpt>
      <trkpt lat="44.55095" lon="4.28029">
        <ele>415</ele>
        <time>2018-06-03T09:54:24.000Z</time>
      </trkpt>
      <trkpt lat="44.55096" lon="4.2803">
        <ele>415</ele>
        <time>2018-06-03T09:54:25.000Z</time>
      </trkpt>
      <trkpt lat="44.55097" lon="4.2803">
        <ele>415</ele>
        <time>2018-06-03T09:54:26.000Z</time>
      </trkpt>
      <trkpt lat="44.55099" lon="4.28031">
        <ele>415</ele>
        <time>2018-06-03T09:54:27.000Z</time>
      </trkpt>
      <trkpt lat="44.551" lon="4.28032">
        <ele>415</ele>
        <time>2018-06-03T09:54:28.000Z</time>
      </trkpt>
      <trkpt lat="44.55102" lon="4.28032">
        <ele>415</ele>
        <time>2018-06-03T09:54:29.000Z</time>
      </trkpt>
      <trkpt lat="44.55103" lon="4.28033">
        <ele>415</ele>
        <time>2018-06-03T09:54:30.000Z</time>
      </trkpt>
      <trkpt lat="44.55104" lon="4.28033">
        <ele>416</ele>
        <time>2018-06-03T09:54:31.000Z</time>
      </trkpt>
      <trkpt lat="44.55106" lon="4.28034">
        <ele>416</ele>
        <time>2018-06-03T09:54:32.000Z</time>
      </trkpt>
      <trkpt lat="44.55107" lon="4.28035">
        <ele>416</ele>
        <time>2018-06-03T09:54:33.000Z</time>
      </trkpt>
      <trkpt lat="44.55108" lon="4.28035">
        <ele>416</ele>
        <time>2018-06-03T09:54:34.000Z</time>
      </trkpt>
      <trkpt lat="44.5511" lon="4.28036">
        <ele>416</ele>
        <time>2018-06-03T09:54:35.000Z</time>
      </trkpt>
      <trkpt lat="44.55111" lon="4.28037">
        <ele>416</ele>
        <time>2018-06-03T09:54:36.000Z</time>
      </trkpt>
      <trkpt lat="44.55111" lon="4.28038">
        <ele>416</ele>
        <time>2018-06-03T09:54:37.000Z</time>
      </trkpt>
      <trkpt lat="44.55111" lon="4.2804">
        <ele>416</ele>
        <time>2018-06-03T09:54:38.000Z</time>
      </trkpt>
      <trkpt lat="44.5511" lon="4.28041">
        <ele>417</ele>
        <time>2018-06-03T09:54:39.000Z</time>
      </trkpt>
      <trkpt lat="44.55109" lon="4.28042">
        <ele>417</ele>
        <time>2018-06-03T09:54:40.000Z</time>
      </trkpt>
      <trkpt lat="44.55107" lon="4.28041">
        <ele>417</ele>
        <time>2018-06-03T09:54:41.000Z</time>
      </trkpt>
      <trkpt lat="44.55106" lon="4.28041">
        <ele>417</ele>
        <time>2018-06-03T09:54:42.000Z</time>
      </trkpt>
      <trkpt lat="44.55104" lon="4.28041">
        <ele>417</ele>
        <time>2018-06-03T09:54:43.000Z</time>
      </trkpt>
      <trkpt lat="44.55102" lon="4.28041">
        <ele>417</ele>
        <time>2018-06-03T09:54:44.000Z</time>
      </trkpt>
      <trkpt lat="44.551" lon="4.28041">
        <ele>417</ele>
        <time>2018-06-03T09:54:45.000Z</time>
      </trkpt>
      <trkpt lat="44.55099" lon="4.28041">
        <ele>417</ele>
        <time>2018-06-03T09:54:46.000Z</time>
      </trkpt>
      <trkpt lat="44.55097" lon="4.28041">
        <ele>417</ele>
        <time>2018-06-03T09:54:47.000Z</time>
      </trkpt>
      <trkpt lat="44.55095" lon="4.28042">
        <ele>417</ele>
        <time>2018-06-03T09:54:48.000Z</time>
      </trkpt>
      <trkpt lat="44.55094" lon="4.28042">
        <ele>417</ele>
        <time>2018-06-03T09:54:49.000Z</time>
      </trkpt>
      <trkpt lat="44.55092" lon="4.28042">
        <ele>417</ele>
        <time>2018-06-03T09:54:50.000Z</time>
      </trkpt>
      <trkpt lat="44.5509" lon="4.28042">
        <ele>417</ele>
        <time>2018-06-03T09:54:51.000Z</time>
      </trkpt>
      <trkpt lat="44.55088" lon="4.28042">
        <ele>417</ele>
        <time>2018-06-03T09:54:52.000Z</time>
      </trkpt>
      <trkpt lat="44.55087" lon="4.28042">
        <ele>417</ele>
        <time>2018-06-03T09:54:53.000Z</time>
      </trkpt>
      <trkpt lat="44.55085" lon="4.28043">
        <ele>417</ele>
        <time>2018-06-03T09:54:54.000Z</time>
      </trkpt>
      <trkpt lat="44.55083" lon="4.28043">
        <ele>420</ele>
        <time>2018-06-03T09:54:55.000Z</time>
      </trkpt>
      <trkpt lat="44.55081" lon="4.28043">
        <ele>421</ele>
        <time>2018-06-03T09:54:56.000Z</time>
      </trkpt>
      <trkpt lat="44.5508" lon="4.28043">
        <ele>421</ele>
        <time>2018-06-03T09:54:57.000Z</time>
      </trkpt>
      <trkpt lat="44.55078" lon="4.28044">
        <ele>421</ele>
        <time>2018-06-03T09:54:58.000Z</time>
      </trkpt>
      <trkpt lat="44.55076" lon="4.28044">
        <ele>421</ele>
        <time>2018-06-03T09:54:59.000Z</time>
      </trkpt>
      <trkpt lat="44.55074" lon="4.28044">
        <ele>421</ele>
        <time>2018-06-03T09:55:00.000Z</time>
      </trkpt>
      <trkpt lat="44.55072" lon="4.28044">
        <ele>421</ele>
        <time>2018-06-03T09:55:01.000Z</time>
      </trkpt>
      <trkpt lat="44.55071" lon="4.28043">
        <ele>421</ele>
        <time>2018-06-03T09:55:02.000Z</time>
      </trkpt>
      <trkpt lat="44.55069" lon="4.28043">
        <ele>421</ele>
        <time>2018-06-03T09:55:03.000Z</time>
      </trkpt>
      <trkpt lat="44.55067" lon="4.28043">
        <ele>421</ele>
        <time>2018-06-03T09:55:04.000Z</time>
      </trkpt>
      <trkpt lat="44.55065" lon="4.28044">
        <ele>421</ele>
        <time>2018-06-03T09:55:05.000Z</time>
      </trkpt>
      <trkpt lat="44.55064" lon="4.28045">
        <ele>421</ele>
        <time>2018-06-03T09:55:06.000Z</time>
      </trkpt>
      <trkpt lat="44.55062" lon="4.28045">
        <ele>421</ele>
        <time>2018-06-03T09:55:07.000Z</time>
      </trkpt>
      <trkpt lat="44.5506" lon="4.28046">
        <ele>422</ele>
        <time>2018-06-03T09:55:08.000Z</time>
      </trkpt>
      <trkpt lat="44.55058" lon="4.28046">
        <ele>422</ele>
        <time>2018-06-03T09:55:09.000Z</time>
      </trkpt>
      <trkpt lat="44.55056" lon="4.28046">
        <ele>422</ele>
        <time>2018-06-03T09:55:10.000Z</time>
      </trkpt>
      <trkpt lat="44.55054" lon="4.28046">
        <ele>422</ele>
        <time>2018-06-03T09:55:11.000Z</time>
      </trkpt>
      <trkpt lat="44.55051" lon="4.28046">
        <ele>422</ele>
        <time>2018-06-03T09:55:12.000Z</time>
      </trkpt>
      <trkpt lat="44.55049" lon="4.28045">
        <ele>422</ele>
        <time>2018-06-03T09:55:13.000Z</time>
      </trkpt>
      <trkpt lat="44.55047" lon="4.28045">
        <ele>422</ele>
        <time>2018-06-03T09:55:14.000Z</time>
      </trkpt>
      <trkpt lat="44.55045" lon="4.28044">
        <ele>422</ele>
        <time>2018-06-03T09:55:15.000Z</time>
      </trkpt>
      <trkpt lat="44.55042" lon="4.28043">
        <ele>422</ele>
        <time>2018-06-03T09:55:16.000Z</time>
      </trkpt>
      <trkpt lat="44.55039" lon="4.28041">
        <ele>422</ele>
        <time>2018-06-03T09:55:17.000Z</time>
      </trkpt>
      <trkpt lat="44.55037" lon="4.28039">
        <ele>422</ele>
        <time>2018-06-03T09:55:18.000Z</time>
      </trkpt>
      <trkpt lat="44.55035" lon="4.28038">
        <ele>422</ele>
        <time>2018-06-03T09:55:19.000Z</time>
      </trkpt>
      <trkpt lat="44.55034" lon="4.28039">
        <ele>422</ele>
        <time>2018-06-03T09:55:20.000Z</time>
      </trkpt>
      <trkpt lat="44.55035" lon="4.2804">
        <ele>422</ele>
        <time>2018-06-03T09:55:21.000Z</time>
      </trkpt>
      <trkpt lat="44.55035" lon="4.2804">
        <ele>422</ele>
        <time>2018-06-03T09:55:22.000Z</time>
      </trkpt>
      <trkpt lat="44.55036" lon="4.28041">
        <ele>422</ele>
        <time>2018-06-03T09:55:23.000Z</time>
      </trkpt>
      <trkpt lat="44.55038" lon="4.2804">
        <ele>422</ele>
        <time>2018-06-03T09:55:24.000Z</time>
      </trkpt>
      <trkpt lat="44.55039" lon="4.2804">
        <ele>422</ele>
        <time>2018-06-03T09:55:25.000Z</time>
      </trkpt>
      <trkpt lat="44.55041" lon="4.2804">
        <ele>422</ele>
        <time>2018-06-03T09:55:26.000Z</time>
      </trkpt>
      <trkpt lat="44.55043" lon="4.2804">
        <ele>422</ele>
        <time>2018-06-03T09:55:27.000Z</time>
      </trkpt>
      <trkpt lat="44.55044" lon="4.28041">
        <ele>422</ele>
        <time>2018-06-03T09:55:28.000Z</time>
      </trkpt>
      <trkpt lat="44.55045" lon="4.28041">
        <ele>422</ele>
        <time>2018-06-03T09:55:29.000Z</time>
      </trkpt>
      <trkpt lat="44.55047" lon="4.28041">
        <ele>422</ele>
        <time>2018-06-03T09:55:30.000Z</time>
      </trkpt>
      <trkpt lat="44.55048" lon="4.2804">
        <ele>421</ele>
        <time>2018-06-03T09:55:31.000Z</time>
      </trkpt>
      <trkpt lat="44.55049" lon="4.28038">
        <ele>421</ele>
        <time>2018-06-03T09:55:32.000Z</time>
      </trkpt>
      <trkpt lat="44.55048" lon="4.28038">
        <ele>421</ele>
        <time>2018-06-03T09:55:33.000Z</time>
      </trkpt>
      <trkpt lat="44.55048" lon="4.28037">
        <ele>421</ele>
        <time>2018-06-03T09:55:34.000Z</time>
      </trkpt>
      <trkpt lat="44.55048" lon="4.28037">
        <ele>421</ele>
        <time>2018-06-03T09:55:35.000Z</time>
      </trkpt>
      <trkpt lat="44.55048" lon="4.28037">
        <ele>421</ele>
        <time>2018-06-03T09:55:36.000Z</time>
      </trkpt>
      <trkpt lat="44.55048" lon="4.28037">
        <ele>421</ele>
        <time>2018-06-03T09:55:37.000Z</time>
      </trkpt>
      <trkpt lat="44.55048" lon="4.28037">
        <ele>421</ele>
        <time>2018-06-03T09:55:38.000Z</time>
      </trkpt>
      <trkpt lat="44.55048" lon="4.28037">
        <ele>421</ele>
        <time>2018-06-03T09:55:39.000Z</time>
      </trkpt>
      <trkpt lat="44.55048" lon="4.28037">
        <ele>421</ele>
        <time>2018-06-03T09:55:40.000Z</time>
      </trkpt>
      <trkpt lat="44.55048" lon="4.28037">
        <ele>421</ele>
        <time>2018-06-03T09:55:41.000Z</time>
      </trkpt>
      <trkpt lat="44.55048" lon="4.28036">
        <ele>421</ele>
        <time>2018-06-03T09:55:42.000Z</time>
      </trkpt>
      <trkpt lat="44.55048" lon="4.28036">
        <ele>421</ele>
        <time>2018-06-03T09:55:43.000Z</time>
      </trkpt>
      <trkpt lat="44.55048" lon="4.28036">
        <ele>421</ele>
        <time>2018-06-03T09:55:44.000Z</time>
      </trkpt>
      <trkpt lat="44.55048" lon="4.28036">
        <ele>421</ele>
        <time>2018-06-03T09:55:45.000Z</time>
      </trkpt>
      <trkpt lat="44.55049" lon="4.28037">
        <ele>421</ele>
        <time>2018-06-03T09:55:46.000Z</time>
      </trkpt>
      <trkpt lat="44.55049" lon="4.28037">
        <ele>421</ele>
        <time>2018-06-03T09:55:47.000Z</time>
      </trkpt>
      <trkpt lat="44.5505" lon="4.28038">
        <ele>421</ele>
        <time>2018-06-03T09:55:48.000Z</time>
      </trkpt>
      <trkpt lat="44.5505" lon="4.2804">
        <ele>421</ele>
        <time>2018-06-03T09:55:49.000Z</time>
      </trkpt>
      <trkpt lat="44.55049" lon="4.28042">
        <ele>422</ele>
        <time>2018-06-03T09:55:50.000Z</time>
      </trkpt>
      <trkpt lat="44.55047" lon="4.28042">
        <ele>422</ele>
        <time>2018-06-03T09:55:51.000Z</time>
      </trkpt>
      <trkpt lat="44.55045" lon="4.28041">
        <ele>422</ele>
        <time>2018-06-03T09:55:52.000Z</time>
      </trkpt>
      <trkpt lat="44.55042" lon="4.2804">
        <ele>422</ele>
        <time>2018-06-03T09:55:53.000Z</time>
      </trkpt>
      <trkpt lat="44.5504" lon="4.28038">
        <ele>422</ele>
        <time>2018-06-03T09:55:54.000Z</time>
      </trkpt>
      <trkpt lat="44.55036" lon="4.28035">
        <ele>421</ele>
        <time>2018-06-03T09:55:55.000Z</time>
      </trkpt>
      <trkpt lat="44.55032" lon="4.28033">
        <ele>421</ele>
        <time>2018-06-03T09:55:56.000Z</time>
      </trkpt>
      <trkpt lat="44.55028" lon="4.28031">
        <ele>421</ele>
        <time>2018-06-03T09:55:57.000Z</time>
      </trkpt>
      <trkpt lat="44.55024" lon="4.28029">
        <ele>421</ele>
        <time>2018-06-03T09:55:58.000Z</time>
      </trkpt>
      <trkpt lat="44.5502" lon="4.28027">
        <ele>421</ele>
        <time>2018-06-03T09:55:59.000Z</time>
      </trkpt>
      <trkpt lat="44.55016" lon="4.28025">
        <ele>421</ele>
        <time>2018-06-03T09:56:00.000Z</time>
      </trkpt>
      <trkpt lat="44.55013" lon="4.28024">
        <ele>420</ele>
        <time>2018-06-03T09:56:01.000Z</time>
      </trkpt>
      <trkpt lat="44.55009" lon="4.28022">
        <ele>420</ele>
        <time>2018-06-03T09:56:02.000Z</time>
      </trkpt>
      <trkpt lat="44.55004" lon="4.2802">
        <ele>420</ele>
        <time>2018-06-03T09:56:03.000Z</time>
      </trkpt>
      <trkpt lat="44.55" lon="4.28019">
        <ele>423</ele>
        <time>2018-06-03T09:56:04.000Z</time>
      </trkpt>
      <trkpt lat="44.54995" lon="4.28018">
        <ele>423</ele>
        <time>2018-06-03T09:56:05.000Z</time>
      </trkpt>
      <trkpt lat="44.54991" lon="4.28018">
        <ele>423</ele>
        <time>2018-06-03T09:56:06.000Z</time>
      </trkpt>
      <trkpt lat="44.54986" lon="4.28017">
        <ele>423</ele>
        <time>2018-06-03T09:56:07.000Z</time>
      </trkpt>
      <trkpt lat="44.54982" lon="4.28016">
        <ele>424</ele>
        <time>2018-06-03T09:56:08.000Z</time>
      </trkpt>
      <trkpt lat="44.54978" lon="4.28016">
        <ele>424</ele>
        <time>2018-06-03T09:56:09.000Z</time>
      </trkpt>
      <trkpt lat="44.54974" lon="4.28015">
        <ele>425</ele>
        <time>2018-06-03T09:56:10.000Z</time>
      </trkpt>
      <trkpt lat="44.5497" lon="4.28014">
        <ele>425</ele>
        <time>2018-06-03T09:56:11.000Z</time>
      </trkpt>
      <trkpt lat="44.54966" lon="4.28015">
        <ele>425</ele>
        <time>2018-06-03T09:56:12.000Z</time>
      </trkpt>
      <trkpt lat="44.54961" lon="4.28014">
        <ele>426</ele>
        <time>2018-06-03T09:56:13.000Z</time>
      </trkpt>
      <trkpt lat="44.54956" lon="4.28013">
        <ele>426</ele>
        <time>2018-06-03T09:56:14.000Z</time>
      </trkpt>
      <trkpt lat="44.54951" lon="4.28012">
        <ele>426</ele>
        <time>2018-06-03T09:56:15.000Z</time>
      </trkpt>
      <trkpt lat="44.54945" lon="4.28011">
        <ele>426</ele>
        <time>2018-06-03T09:56:16.000Z</time>
      </trkpt>
      <trkpt lat="44.5494" lon="4.28011">
        <ele>426</ele>
        <time>2018-06-03T09:56:17.000Z</time>
      </trkpt>
      <trkpt lat="44.54934" lon="4.28011">
        <ele>425</ele>
        <time>2018-06-03T09:56:18.000Z</time>
      </trkpt>
      <trkpt lat="44.54928" lon="4.28011">
        <ele>425</ele>
        <time>2018-06-03T09:56:19.000Z</time>
      </trkpt>
      <trkpt lat="44.54922" lon="4.28011">
        <ele>424</ele>
        <time>2018-06-03T09:56:20.000Z</time>
      </trkpt>
      <trkpt lat="44.54916" lon="4.28011">
        <ele>425</ele>
        <time>2018-06-03T09:56:21.000Z</time>
      </trkpt>
      <trkpt lat="44.54909" lon="4.28011">
        <ele>426</ele>
        <time>2018-06-03T09:56:22.000Z</time>
      </trkpt>
      <trkpt lat="44.54904" lon="4.28011">
        <ele>427</ele>
        <time>2018-06-03T09:56:23.000Z</time>
      </trkpt>
      <trkpt lat="44.54898" lon="4.28012">
        <ele>428</ele>
        <time>2018-06-03T09:56:24.000Z</time>
      </trkpt>
      <trkpt lat="44.54892" lon="4.28012">
        <ele>429</ele>
        <time>2018-06-03T09:56:25.000Z</time>
      </trkpt>
      <trkpt lat="44.54886" lon="4.28013">
        <ele>429</ele>
        <time>2018-06-03T09:56:26.000Z</time>
      </trkpt>
      <trkpt lat="44.54879" lon="4.28013">
        <ele>430</ele>
        <time>2018-06-03T09:56:27.000Z</time>
      </trkpt>
      <trkpt lat="44.54873" lon="4.28013">
        <ele>430</ele>
        <time>2018-06-03T09:56:28.000Z</time>
      </trkpt>
      <trkpt lat="44.54865" lon="4.28012">
        <ele>430</ele>
        <time>2018-06-03T09:56:29.000Z</time>
      </trkpt>
      <trkpt lat="44.54858" lon="4.28011">
        <ele>429</ele>
        <time>2018-06-03T09:56:30.000Z</time>
      </trkpt>
      <trkpt lat="44.54852" lon="4.2801">
        <ele>429</ele>
        <time>2018-06-03T09:56:31.000Z</time>
      </trkpt>
      <trkpt lat="44.54848" lon="4.28008">
        <ele>428</ele>
        <time>2018-06-03T09:56:32.000Z</time>
      </trkpt>
      <trkpt lat="44.54843" lon="4.28007">
        <ele>427</ele>
        <time>2018-06-03T09:56:33.000Z</time>
      </trkpt>
      <trkpt lat="44.5484" lon="4.28005">
        <ele>426</ele>
        <time>2018-06-03T09:56:34.000Z</time>
      </trkpt>
      <trkpt lat="44.54837" lon="4.28004">
        <ele>425</ele>
        <time>2018-06-03T09:56:35.000Z</time>
      </trkpt>
      <trkpt lat="44.54834" lon="4.28003">
        <ele>424</ele>
        <time>2018-06-03T09:56:36.000Z</time>
      </trkpt>
      <trkpt lat="44.54832" lon="4.28003">
        <ele>425</ele>
        <time>2018-06-03T09:56:37.000Z</time>
      </trkpt>
      <trkpt lat="44.5483" lon="4.28004">
        <ele>425</ele>
        <time>2018-06-03T09:56:38.000Z</time>
      </trkpt>
      <trkpt lat="44.54829" lon="4.28005">
        <ele>426</ele>
        <time>2018-06-03T09:56:39.000Z</time>
      </trkpt>
      <trkpt lat="44.54829" lon="4.28005">
        <ele>426</ele>
        <time>2018-06-03T09:56:40.000Z</time>
      </trkpt>
      <trkpt lat="44.54829" lon="4.28006">
        <ele>426</ele>
        <time>2018-06-03T09:56:41.000Z</time>
      </trkpt>
      <trkpt lat="44.5483" lon="4.28007">
        <ele>426</ele>
        <time>2018-06-03T09:56:42.000Z</time>
      </trkpt>
      <trkpt lat="44.54831" lon="4.28008">
        <ele>427</ele>
        <time>2018-06-03T09:56:43.000Z</time>
      </trkpt>
      <trkpt lat="44.54832" lon="4.28008">
        <ele>427</ele>
        <time>2018-06-03T09:56:44.000Z</time>
      </trkpt>
      <trkpt lat="44.54833" lon="4.28008">
        <ele>426</ele>
        <time>2018-06-03T09:56:45.000Z</time>
      </trkpt>
      <trkpt lat="44.54834" lon="4.28008">
        <ele>426</ele>
        <time>2018-06-03T09:56:46.000Z</time>
      </trkpt>
      <trkpt lat="44.54836" lon="4.28008">
        <ele>426</ele>
        <time>2018-06-03T09:56:47.000Z</time>
      </trkpt>
      <trkpt lat="44.54837" lon="4.28008">
        <ele>426</ele>
        <time>2018-06-03T09:56:48.000Z</time>
      </trkpt>
      <trkpt lat="44.54838" lon="4.28008">
        <ele>426</ele>
        <time>2018-06-03T09:56:49.000Z</time>
      </trkpt>
      <trkpt lat="44.5484" lon="4.28009">
        <ele>427</ele>
        <time>2018-06-03T09:56:50.000Z</time>
      </trkpt>
      <trkpt lat="44.54841" lon="4.28009">
        <ele>427</ele>
        <time>2018-06-03T09:56:51.000Z</time>
      </trkpt>
      <trkpt lat="44.54843" lon="4.28009">
        <ele>427</ele>
        <time>2018-06-03T09:56:52.000Z</time>
      </trkpt>
      <trkpt lat="44.54844" lon="4.28009">
        <ele>428</ele>
        <time>2018-06-03T09:56:53.000Z</time>
      </trkpt>
      <trkpt lat="44.54846" lon="4.2801">
        <ele>428</ele>
        <time>2018-06-03T09:56:54.000Z</time>
      </trkpt>
      <trkpt lat="44.54847" lon="4.2801">
        <ele>428</ele>
        <time>2018-06-03T09:56:55.000Z</time>
      </trkpt>
      <trkpt lat="44.54849" lon="4.2801">
        <ele>428</ele>
        <time>2018-06-03T09:56:56.000Z</time>
      </trkpt>
      <trkpt lat="44.5485" lon="4.2801">
        <ele>428</ele>
        <time>2018-06-03T09:56:57.000Z</time>
      </trkpt>
      <trkpt lat="44.54851" lon="4.2801">
        <ele>429</ele>
        <time>2018-06-03T09:56:58.000Z</time>
      </trkpt>
      <trkpt lat="44.54853" lon="4.28011">
        <ele>429</ele>
        <time>2018-06-03T09:56:59.000Z</time>
      </trkpt>
      <trkpt lat="44.54854" lon="4.28011">
        <ele>429</ele>
        <time>2018-06-03T09:57:00.000Z</time>
      </trkpt>
      <trkpt lat="44.54856" lon="4.28011">
        <ele>429</ele>
        <time>2018-06-03T09:57:01.000Z</time>
      </trkpt>
      <trkpt lat="44.54857" lon="4.28011">
        <ele>429</ele>
        <time>2018-06-03T09:57:02.000Z</time>
      </trkpt>
      <trkpt lat="44.54859" lon="4.28011">
        <ele>429</ele>
        <time>2018-06-03T09:57:03.000Z</time>
      </trkpt>
      <trkpt lat="44.5486" lon="4.28011">
        <ele>430</ele>
        <time>2018-06-03T09:57:04.000Z</time>
      </trkpt>
      <trkpt lat="44.54862" lon="4.28012">
        <ele>430</ele>
        <time>2018-06-03T09:57:05.000Z</time>
      </trkpt>
      <trkpt lat="44.54864" lon="4.28012">
        <ele>430</ele>
        <time>2018-06-03T09:57:06.000Z</time>
      </trkpt>
      <trkpt lat="44.54865" lon="4.28012">
        <ele>430</ele>
        <time>2018-06-03T09:57:07.000Z</time>
      </trkpt>
      <trkpt lat="44.54867" lon="4.28013">
        <ele>430</ele>
        <time>2018-06-03T09:57:08.000Z</time>
      </trkpt>
      <trkpt lat="44.54868" lon="4.28013">
        <ele>430</ele>
        <time>2018-06-03T09:57:09.000Z</time>
      </trkpt>
      <trkpt lat="44.54869" lon="4.28013">
        <ele>430</ele>
        <time>2018-06-03T09:57:10.000Z</time>
      </trkpt>
      <trkpt lat="44.5487" lon="4.28013">
        <ele>430</ele>
        <time>2018-06-03T09:57:11.000Z</time>
      </trkpt>
      <trkpt lat="44.54871" lon="4.28012">
        <ele>430</ele>
        <time>2018-06-03T09:57:12.000Z</time>
      </trkpt>
      <trkpt lat="44.54872" lon="4.28013">
        <ele>430</ele>
        <time>2018-06-03T09:57:13.000Z</time>
      </trkpt>
      <trkpt lat="44.54874" lon="4.28013">
        <ele>430</ele>
        <time>2018-06-03T09:57:14.000Z</time>
      </trkpt>
      <trkpt lat="44.54875" lon="4.28014">
        <ele>430</ele>
        <time>2018-06-03T09:57:15.000Z</time>
      </trkpt>
      <trkpt lat="44.54876" lon="4.28014">
        <ele>430</ele>
        <time>2018-06-03T09:57:16.000Z</time>
      </trkpt>
      <trkpt lat="44.54877" lon="4.28013">
        <ele>430</ele>
        <time>2018-06-03T09:57:17.000Z</time>
      </trkpt>
      <trkpt lat="44.54879" lon="4.28013">
        <ele>430</ele>
        <time>2018-06-03T09:57:18.000Z</time>
      </trkpt>
      <trkpt lat="44.5488" lon="4.28013">
        <ele>430</ele>
        <time>2018-06-03T09:57:19.000Z</time>
      </trkpt>
      <trkpt lat="44.54882" lon="4.28013">
        <ele>430</ele>
        <time>2018-06-03T09:57:20.000Z</time>
      </trkpt>
      <trkpt lat="44.54883" lon="4.28013">
        <ele>430</ele>
        <time>2018-06-03T09:57:21.000Z</time>
      </trkpt>
      <trkpt lat="44.54885" lon="4.28013">
        <ele>430</ele>
        <time>2018-06-03T09:57:22.000Z</time>
      </trkpt>
      <trkpt lat="44.54887" lon="4.28013">
        <ele>429</ele>
        <time>2018-06-03T09:57:23.000Z</time>
      </trkpt>
      <trkpt lat="44.54888" lon="4.28012">
        <ele>429</ele>
        <time>2018-06-03T09:57:24.000Z</time>
      </trkpt>
      <trkpt lat="44.54889" lon="4.28013">
        <ele>429</ele>
        <time>2018-06-03T09:57:25.000Z</time>
      </trkpt>
      <trkpt lat="44.54891" lon="4.28013">
        <ele>429</ele>
        <time>2018-06-03T09:57:26.000Z</time>
      </trkpt>
      <trkpt lat="44.54893" lon="4.28014">
        <ele>429</ele>
        <time>2018-06-03T09:57:27.000Z</time>
      </trkpt>
      <trkpt lat="44.54894" lon="4.28014">
        <ele>429</ele>
        <time>2018-06-03T09:57:28.000Z</time>
      </trkpt>
      <trkpt lat="44.54895" lon="4.28014">
        <ele>429</ele>
        <time>2018-06-03T09:57:29.000Z</time>
      </trkpt>
      <trkpt lat="44.54897" lon="4.28014">
        <ele>429</ele>
        <time>2018-06-03T09:57:30.000Z</time>
      </trkpt>
      <trkpt lat="44.54898" lon="4.28014">
        <ele>428</ele>
        <time>2018-06-03T09:57:31.000Z</time>
      </trkpt>
      <trkpt lat="44.549" lon="4.28015">
        <ele>428</ele>
        <time>2018-06-03T09:57:32.000Z</time>
      </trkpt>
      <trkpt lat="44.54901" lon="4.28015">
        <ele>428</ele>
        <time>2018-06-03T09:57:33.000Z</time>
      </trkpt>
      <trkpt lat="44.54903" lon="4.28015">
        <ele>428</ele>
        <time>2018-06-03T09:57:34.000Z</time>
      </trkpt>
      <trkpt lat="44.54904" lon="4.28015">
        <ele>428</ele>
        <time>2018-06-03T09:57:35.000Z</time>
      </trkpt>
      <trkpt lat="44.54906" lon="4.28015">
        <ele>428</ele>
        <time>2018-06-03T09:57:36.000Z</time>
      </trkpt>
      <trkpt lat="44.54907" lon="4.28016">
        <ele>428</ele>
        <time>2018-06-03T09:57:37.000Z</time>
      </trkpt>
      <trkpt lat="44.54909" lon="4.28015">
        <ele>427</ele>
        <time>2018-06-03T09:57:38.000Z</time>
      </trkpt>
      <trkpt lat="44.5491" lon="4.28015">
        <ele>427</ele>
        <time>2018-06-03T09:57:39.000Z</time>
      </trkpt>
      <trkpt lat="44.54911" lon="4.28016">
        <ele>427</ele>
        <time>2018-06-03T09:57:40.000Z</time>
      </trkpt>
      <trkpt lat="44.54913" lon="4.28016">
        <ele>427</ele>
        <time>2018-06-03T09:57:41.000Z</time>
      </trkpt>
      <trkpt lat="44.54915" lon="4.28016">
        <ele>427</ele>
        <time>2018-06-03T09:57:42.000Z</time>
      </trkpt>
      <trkpt lat="44.54917" lon="4.28017">
        <ele>427</ele>
        <time>2018-06-03T09:57:43.000Z</time>
      </trkpt>
      <trkpt lat="44.54919" lon="4.28017">
        <ele>425</ele>
        <time>2018-06-03T09:57:44.000Z</time>
      </trkpt>
      <trkpt lat="44.5492" lon="4.28018">
        <ele>426</ele>
        <time>2018-06-03T09:57:45.000Z</time>
      </trkpt>
      <trkpt lat="44.54922" lon="4.28018">
        <ele>426</ele>
        <time>2018-06-03T09:57:46.000Z</time>
      </trkpt>
      <trkpt lat="44.54924" lon="4.28018">
        <ele>426</ele>
        <time>2018-06-03T09:57:47.000Z</time>
      </trkpt>
      <trkpt lat="44.54925" lon="4.28019">
        <ele>426</ele>
        <time>2018-06-03T09:57:48.000Z</time>
      </trkpt>
      <trkpt lat="44.54927" lon="4.28019">
        <ele>426</ele>
        <time>2018-06-03T09:57:49.000Z</time>
      </trkpt>
      <trkpt lat="44.54929" lon="4.2802">
        <ele>426</ele>
        <time>2018-06-03T09:57:50.000Z</time>
      </trkpt>
      <trkpt lat="44.54931" lon="4.28021">
        <ele>427</ele>
        <time>2018-06-03T09:57:51.000Z</time>
      </trkpt>
      <trkpt lat="44.54932" lon="4.28021">
        <ele>427</ele>
        <time>2018-06-03T09:57:52.000Z</time>
      </trkpt>
      <trkpt lat="44.54934" lon="4.28022">
        <ele>427</ele>
        <time>2018-06-03T09:57:53.000Z</time>
      </trkpt>
      <trkpt lat="44.54936" lon="4.28023">
        <ele>427</ele>
        <time>2018-06-03T09:57:54.000Z</time>
      </trkpt>
      <trkpt lat="44.54937" lon="4.28024">
        <ele>427</ele>
        <time>2018-06-03T09:57:55.000Z</time>
      </trkpt>
      <trkpt lat="44.54939" lon="4.28024">
        <ele>427</ele>
        <time>2018-06-03T09:57:56.000Z</time>
      </trkpt>
      <trkpt lat="44.5494" lon="4.28025">
        <ele>427</ele>
        <time>2018-06-03T09:57:57.000Z</time>
      </trkpt>
      <trkpt lat="44.54942" lon="4.28025">
        <ele>427</ele>
        <time>2018-06-03T09:57:58.000Z</time>
      </trkpt>
      <trkpt lat="44.54944" lon="4.28026">
        <ele>428</ele>
        <time>2018-06-03T09:57:59.000Z</time>
      </trkpt>
      <trkpt lat="44.54945" lon="4.28027">
        <ele>428</ele>
        <time>2018-06-03T09:58:00.000Z</time>
      </trkpt>
      <trkpt lat="44.54947" lon="4.28027">
        <ele>428</ele>
        <time>2018-06-03T09:58:01.000Z</time>
      </trkpt>
      <trkpt lat="44.54948" lon="4.28028">
        <ele>428</ele>
        <time>2018-06-03T09:58:02.000Z</time>
      </trkpt>
      <trkpt lat="44.5495" lon="4.28029">
        <ele>428</ele>
        <time>2018-06-03T09:58:03.000Z</time>
      </trkpt>
      <trkpt lat="44.54951" lon="4.28029">
        <ele>428</ele>
        <time>2018-06-03T09:58:04.000Z</time>
      </trkpt>
      <trkpt lat="44.54953" lon="4.28029">
        <ele>428</ele>
        <time>2018-06-03T09:58:05.000Z</time>
      </trkpt>
      <trkpt lat="44.54954" lon="4.2803">
        <ele>428</ele>
        <time>2018-06-03T09:58:06.000Z</time>
      </trkpt>
      <trkpt lat="44.54955" lon="4.2803">
        <ele>428</ele>
        <time>2018-06-03T09:58:07.000Z</time>
      </trkpt>
      <trkpt lat="44.54957" lon="4.2803">
        <ele>428</ele>
        <time>2018-06-03T09:58:08.000Z</time>
      </trkpt>
      <trkpt lat="44.54959" lon="4.28031">
        <ele>428</ele>
        <time>2018-06-03T09:58:09.000Z</time>
      </trkpt>
      <trkpt lat="44.54961" lon="4.28033">
        <ele>428</ele>
        <time>2018-06-03T09:58:10.000Z</time>
      </trkpt>
      <trkpt lat="44.54962" lon="4.28034">
        <ele>428</ele>
        <time>2018-06-03T09:58:11.000Z</time>
      </trkpt>
      <trkpt lat="44.54964" lon="4.28035">
        <ele>428</ele>
        <time>2018-06-03T09:58:12.000Z</time>
      </trkpt>
      <trkpt lat="44.54966" lon="4.28036">
        <ele>428</ele>
        <time>2018-06-03T09:58:13.000Z</time>
      </trkpt>
      <trkpt lat="44.54967" lon="4.28037">
        <ele>428</ele>
        <time>2018-06-03T09:58:14.000Z</time>
      </trkpt>
      <trkpt lat="44.54969" lon="4.28039">
        <ele>429</ele>
        <time>2018-06-03T09:58:15.000Z</time>
      </trkpt>
      <trkpt lat="44.5497" lon="4.28041">
        <ele>429</ele>
        <time>2018-06-03T09:58:16.000Z</time>
      </trkpt>
      <trkpt lat="44.54972" lon="4.28042">
        <ele>429</ele>
        <time>2018-06-03T09:58:17.000Z</time>
      </trkpt>
      <trkpt lat="44.54973" lon="4.28044">
        <ele>429</ele>
        <time>2018-06-03T09:58:18.000Z</time>
      </trkpt>
      <trkpt lat="44.54975" lon="4.28046">
        <ele>429</ele>
        <time>2018-06-03T09:58:19.000Z</time>
      </trkpt>
      <trkpt lat="44.54976" lon="4.28047">
        <ele>430</ele>
        <time>2018-06-03T09:58:20.000Z</time>
      </trkpt>
      <trkpt lat="44.54977" lon="4.28048">
        <ele>430</ele>
        <time>2018-06-03T09:58:21.000Z</time>
      </trkpt>
      <trkpt lat="44.54979" lon="4.28049">
        <ele>430</ele>
        <time>2018-06-03T09:58:22.000Z</time>
      </trkpt>
      <trkpt lat="44.5498" lon="4.2805">
        <ele>430</ele>
        <time>2018-06-03T09:58:23.000Z</time>
      </trkpt>
      <trkpt lat="44.54982" lon="4.28051">
        <ele>430</ele>
        <time>2018-06-03T09:58:24.000Z</time>
      </trkpt>
      <trkpt lat="44.54983" lon="4.28052">
        <ele>430</ele>
        <time>2018-06-03T09:58:25.000Z</time>
      </trkpt>
      <trkpt lat="44.54984" lon="4.28053">
        <ele>430</ele>
        <time>2018-06-03T09:58:26.000Z</time>
      </trkpt>
      <trkpt lat="44.54985" lon="4.28055">
        <ele>431</ele>
        <time>2018-06-03T09:58:27.000Z</time>
      </trkpt>
      <trkpt lat="44.54987" lon="4.28056">
        <ele>431</ele>
        <time>2018-06-03T09:58:28.000Z</time>
      </trkpt>
      <trkpt lat="44.54988" lon="4.28058">
        <ele>431</ele>
        <time>2018-06-03T09:58:29.000Z</time>
      </trkpt>
      <trkpt lat="44.54989" lon="4.28059">
        <ele>432</ele>
        <time>2018-06-03T09:58:30.000Z</time>
      </trkpt>
      <trkpt lat="44.54991" lon="4.2806">
        <ele>432</ele>
        <time>2018-06-03T09:58:31.000Z</time>
      </trkpt>
      <trkpt lat="44.54992" lon="4.28062">
        <ele>432</ele>
        <time>2018-06-03T09:58:32.000Z</time>
      </trkpt>
      <trkpt lat="44.54994" lon="4.28064">
        <ele>433</ele>
        <time>2018-06-03T09:58:33.000Z</time>
      </trkpt>
      <trkpt lat="44.54995" lon="4.28066">
        <ele>433</ele>
        <time>2018-06-03T09:58:34.000Z</time>
      </trkpt>
      <trkpt lat="44.54997" lon="4.28068">
        <ele>434</ele>
        <time>2018-06-03T09:58:35.000Z</time>
      </trkpt>
      <trkpt lat="44.54998" lon="4.2807">
        <ele>434</ele>
        <time>2018-06-03T09:58:36.000Z</time>
      </trkpt>
      <trkpt lat="44.54999" lon="4.28072">
        <ele>435</ele>
        <time>2018-06-03T09:58:37.000Z</time>
      </trkpt>
      <trkpt lat="44.55001" lon="4.28075">
        <ele>433</ele>
        <time>2018-06-03T09:58:38.000Z</time>
      </trkpt>
      <trkpt lat="44.55002" lon="4.28077">
        <ele>434</ele>
        <time>2018-06-03T09:58:39.000Z</time>
      </trkpt>
      <trkpt lat="44.55003" lon="4.2808">
        <ele>435</ele>
        <time>2018-06-03T09:58:40.000Z</time>
      </trkpt>
      <trkpt lat="44.55003" lon="4.28083">
        <ele>436</ele>
        <time>2018-06-03T09:58:41.000Z</time>
      </trkpt>
      <trkpt lat="44.55004" lon="4.28085">
        <ele>437</ele>
        <time>2018-06-03T09:58:42.000Z</time>
      </trkpt>
      <trkpt lat="44.55004" lon="4.28088">
        <ele>437</ele>
        <time>2018-06-03T09:58:43.000Z</time>
      </trkpt>
      <trkpt lat="44.55005" lon="4.2809">
        <ele>437</ele>
        <time>2018-06-03T09:58:44.000Z</time>
      </trkpt>
      <trkpt lat="44.55005" lon="4.28093">
        <ele>436</ele>
        <time>2018-06-03T09:58:45.000Z</time>
      </trkpt>
      <trkpt lat="44.55005" lon="4.28096">
        <ele>436</ele>
        <time>2018-06-03T09:58:46.000Z</time>
      </trkpt>
      <trkpt lat="44.55006" lon="4.28099">
        <ele>436</ele>
        <time>2018-06-03T09:58:47.000Z</time>
      </trkpt>
      <trkpt lat="44.55006" lon="4.28102">
        <ele>436</ele>
        <time>2018-06-03T09:58:48.000Z</time>
      </trkpt>
      <trkpt lat="44.55006" lon="4.28105">
        <ele>435</ele>
        <time>2018-06-03T09:58:49.000Z</time>
      </trkpt>
      <trkpt lat="44.55007" lon="4.28108">
        <ele>435</ele>
        <time>2018-06-03T09:58:50.000Z</time>
      </trkpt>
      <trkpt lat="44.55007" lon="4.28111">
        <ele>435</ele>
        <time>2018-06-03T09:58:51.000Z</time>
      </trkpt>
      <trkpt lat="44.55007" lon="4.28114">
        <ele>435</ele>
        <time>2018-06-03T09:58:52.000Z</time>
      </trkpt>
      <trkpt lat="44.55006" lon="4.28117">
        <ele>435</ele>
        <time>2018-06-03T09:58:53.000Z</time>
      </trkpt>
      <trkpt lat="44.55004" lon="4.28119">
        <ele>435</ele>
        <time>2018-06-03T09:58:54.000Z</time>
      </trkpt>
      <trkpt lat="44.55002" lon="4.2812">
        <ele>435</ele>
        <time>2018-06-03T09:58:55.000Z</time>
      </trkpt>
      <trkpt lat="44.55" lon="4.28122">
        <ele>435</ele>
        <time>2018-06-03T09:58:56.000Z</time>
      </trkpt>
      <trkpt lat="44.54998" lon="4.28123">
        <ele>439</ele>
        <time>2018-06-03T09:58:57.000Z</time>
      </trkpt>
      <trkpt lat="44.54997" lon="4.28125">
        <ele>439</ele>
        <time>2018-06-03T09:58:58.000Z</time>
      </trkpt>
      <trkpt lat="44.54995" lon="4.28126">
        <ele>439</ele>
        <time>2018-06-03T09:58:59.000Z</time>
      </trkpt>
      <trkpt lat="44.54993" lon="4.28127">
        <ele>439</ele>
        <time>2018-06-03T09:59:00.000Z</time>
      </trkpt>
      <trkpt lat="44.54991" lon="4.28128">
        <ele>439</ele>
        <time>2018-06-03T09:59:01.000Z</time>
      </trkpt>
      <trkpt lat="44.54989" lon="4.28128">
        <ele>440</ele>
        <time>2018-06-03T09:59:02.000Z</time>
      </trkpt>
      <trkpt lat="44.54988" lon="4.28128">
        <ele>440</ele>
        <time>2018-06-03T09:59:03.000Z</time>
      </trkpt>
      <trkpt lat="44.54986" lon="4.28128">
        <ele>440</ele>
        <time>2018-06-03T09:59:04.000Z</time>
      </trkpt>
      <trkpt lat="44.54984" lon="4.28128">
        <ele>440</ele>
        <time>2018-06-03T09:59:05.000Z</time>
      </trkpt>
      <trkpt lat="44.54982" lon="4.28128">
        <ele>440</ele>
        <time>2018-06-03T09:59:06.000Z</time>
      </trkpt>
      <trkpt lat="44.54981" lon="4.28128">
        <ele>440</ele>
        <time>2018-06-03T09:59:07.000Z</time>
      </trkpt>
      <trkpt lat="44.54979" lon="4.28127">
        <ele>440</ele>
        <time>2018-06-03T09:59:08.000Z</time>
      </trkpt>
      <trkpt lat="44.54978" lon="4.28127">
        <ele>440</ele>
        <time>2018-06-03T09:59:09.000Z</time>
      </trkpt>
      <trkpt lat="44.54977" lon="4.28127">
        <ele>440</ele>
        <time>2018-06-03T09:59:10.000Z</time>
      </trkpt>
      <trkpt lat="44.54975" lon="4.28127">
        <ele>440</ele>
        <time>2018-06-03T09:59:11.000Z</time>
      </trkpt>
      <trkpt lat="44.54973" lon="4.28127">
        <ele>440</ele>
        <time>2018-06-03T09:59:12.000Z</time>
      </trkpt>
      <trkpt lat="44.54972" lon="4.28126">
        <ele>440</ele>
        <time>2018-06-03T09:59:13.000Z</time>
      </trkpt>
      <trkpt lat="44.54971" lon="4.28126">
        <ele>440</ele>
        <time>2018-06-03T09:59:14.000Z</time>
      </trkpt>
      <trkpt lat="44.54969" lon="4.28125">
        <ele>440</ele>
        <time>2018-06-03T09:59:15.000Z</time>
      </trkpt>
      <trkpt lat="44.54967" lon="4.28124">
        <ele>440</ele>
        <time>2018-06-03T09:59:16.000Z</time>
      </trkpt>
      <trkpt lat="44.54965" lon="4.28123">
        <ele>440</ele>
        <time>2018-06-03T09:59:17.000Z</time>
      </trkpt>
      <trkpt lat="44.54964" lon="4.28122">
        <ele>440</ele>
        <time>2018-06-03T09:59:18.000Z</time>
      </trkpt>
      <trkpt lat="44.54962" lon="4.28121">
        <ele>440</ele>
        <time>2018-06-03T09:59:19.000Z</time>
      </trkpt>
      <trkpt lat="44.5496" lon="4.28121">
        <ele>440</ele>
        <time>2018-06-03T09:59:20.000Z</time>
      </trkpt>
      <trkpt lat="44.54959" lon="4.28121">
        <ele>440</ele>
        <time>2018-06-03T09:59:21.000Z</time>
      </trkpt>
      <trkpt lat="44.54957" lon="4.2812">
        <ele>441</ele>
        <time>2018-06-03T09:59:22.000Z</time>
      </trkpt>
      <trkpt lat="44.54955" lon="4.28119">
        <ele>441</ele>
        <time>2018-06-03T09:59:23.000Z</time>
      </trkpt>
      <trkpt lat="44.54954" lon="4.28119">
        <ele>441</ele>
        <time>2018-06-03T09:59:24.000Z</time>
      </trkpt>
      <trkpt lat="44.54952" lon="4.28119">
        <ele>441</ele>
        <time>2018-06-03T09:59:25.000Z</time>
      </trkpt>
      <trkpt lat="44.54951" lon="4.2812">
        <ele>441</ele>
        <time>2018-06-03T09:59:26.000Z</time>
      </trkpt>
      <trkpt lat="44.54949" lon="4.28119">
        <ele>441</ele>
        <time>2018-06-03T09:59:27.000Z</time>
      </trkpt>
      <trkpt lat="44.54947" lon="4.2812">
        <ele>441</ele>
        <time>2018-06-03T09:59:28.000Z</time>
      </trkpt>
      <trkpt lat="44.54945" lon="4.28121">
        <ele>441</ele>
        <time>2018-06-03T09:59:29.000Z</time>
      </trkpt>
      <trkpt lat="44.54942" lon="4.28121">
        <ele>441</ele>
        <time>2018-06-03T09:59:30.000Z</time>
      </trkpt>
      <trkpt lat="44.5494" lon="4.28122">
        <ele>441</ele>
        <time>2018-06-03T09:59:31.000Z</time>
      </trkpt>
      <trkpt lat="44.54938" lon="4.28123">
        <ele>441</ele>
        <time>2018-06-03T09:59:32.000Z</time>
      </trkpt>
      <trkpt lat="44.54935" lon="4.28123">
        <ele>441</ele>
        <time>2018-06-03T09:59:33.000Z</time>
      </trkpt>
      <trkpt lat="44.54933" lon="4.28123">
        <ele>441</ele>
        <time>2018-06-03T09:59:34.000Z</time>
      </trkpt>
      <trkpt lat="44.54931" lon="4.28124">
        <ele>441</ele>
        <time>2018-06-03T09:59:35.000Z</time>
      </trkpt>
      <trkpt lat="44.54929" lon="4.28124">
        <ele>441</ele>
        <time>2018-06-03T09:59:36.000Z</time>
      </trkpt>
      <trkpt lat="44.54927" lon="4.28124">
        <ele>441</ele>
        <time>2018-06-03T09:59:37.000Z</time>
      </trkpt>
      <trkpt lat="44.54925" lon="4.28124">
        <ele>442</ele>
        <time>2018-06-03T09:59:38.000Z</time>
      </trkpt>
      <trkpt lat="44.54923" lon="4.28125">
        <ele>442</ele>
        <time>2018-06-03T09:59:39.000Z</time>
      </trkpt>
      <trkpt lat="44.54922" lon="4.28126">
        <ele>442</ele>
        <time>2018-06-03T09:59:40.000Z</time>
      </trkpt>
      <trkpt lat="44.54921" lon="4.28126">
        <ele>442</ele>
        <time>2018-06-03T09:59:41.000Z</time>
      </trkpt>
      <trkpt lat="44.54919" lon="4.28126">
        <ele>442</ele>
        <time>2018-06-03T09:59:42.000Z</time>
      </trkpt>
      <trkpt lat="44.54918" lon="4.28126">
        <ele>442</ele>
        <time>2018-06-03T09:59:43.000Z</time>
      </trkpt>
      <trkpt lat="44.54916" lon="4.28127">
        <ele>446</ele>
        <time>2018-06-03T09:59:44.000Z</time>
      </trkpt>
      <trkpt lat="44.54915" lon="4.28127">
        <ele>446</ele>
        <time>2018-06-03T09:59:45.000Z</time>
      </trkpt>
      <trkpt lat="44.54913" lon="4.28127">
        <ele>446</ele>
        <time>2018-06-03T09:59:46.000Z</time>
      </trkpt>
      <trkpt lat="44.54912" lon="4.28127">
        <ele>446</ele>
        <time>2018-06-03T09:59:47.000Z</time>
      </trkpt>
      <trkpt lat="44.54911" lon="4.28127">
        <ele>446</ele>
        <time>2018-06-03T09:59:48.000Z</time>
      </trkpt>
      <trkpt lat="44.54909" lon="4.28125">
        <ele>446</ele>
        <time>2018-06-03T09:59:49.000Z</time>
      </trkpt>
      <trkpt lat="44.54908" lon="4.28124">
        <ele>446</ele>
        <time>2018-06-03T09:59:50.000Z</time>
      </trkpt>
      <trkpt lat="44.54906" lon="4.28124">
        <ele>446</ele>
        <time>2018-06-03T09:59:51.000Z</time>
      </trkpt>
      <trkpt lat="44.54904" lon="4.28123">
        <ele>446</ele>
        <time>2018-06-03T09:59:52.000Z</time>
      </trkpt>
      <trkpt lat="44.54903" lon="4.28122">
        <ele>446</ele>
        <time>2018-06-03T09:59:53.000Z</time>
      </trkpt>
      <trkpt lat="44.54901" lon="4.28122">
        <ele>446</ele>
        <time>2018-06-03T09:59:54.000Z</time>
      </trkpt>
      <trkpt lat="44.54899" lon="4.28122">
        <ele>446</ele>
        <time>2018-06-03T09:59:55.000Z</time>
      </trkpt>
      <trkpt lat="44.54898" lon="4.28122">
        <ele>446</ele>
        <time>2018-06-03T09:59:56.000Z</time>
      </trkpt>
      <trkpt lat="44.54896" lon="4.28123">
        <ele>446</ele>
        <time>2018-06-03T09:59:57.000Z</time>
      </trkpt>
      <trkpt lat="44.54895" lon="4.28124">
        <ele>446</ele>
        <time>2018-06-03T09:59:58.000Z</time>
      </trkpt>
      <trkpt lat="44.54894" lon="4.28125">
        <ele>446</ele>
        <time>2018-06-03T09:59:59.000Z</time>
      </trkpt>
      <trkpt lat="44.54892" lon="4.28126">
        <ele>446</ele>
        <time>2018-06-03T10:00:00.000Z</time>
      </trkpt>
      <trkpt lat="44.5489" lon="4.28127">
        <ele>446</ele>
        <time>2018-06-03T10:00:01.000Z</time>
      </trkpt>
      <trkpt lat="44.54888" lon="4.28128">
        <ele>446</ele>
        <time>2018-06-03T10:00:02.000Z</time>
      </trkpt>
      <trkpt lat="44.54886" lon="4.28128">
        <ele>446</ele>
        <time>2018-06-03T10:00:03.000Z</time>
      </trkpt>
      <trkpt lat="44.54884" lon="4.28128">
        <ele>446</ele>
        <time>2018-06-03T10:00:04.000Z</time>
      </trkpt>
      <trkpt lat="44.54882" lon="4.28127">
        <ele>447</ele>
        <time>2018-06-03T10:00:05.000Z</time>
      </trkpt>
      <trkpt lat="44.5488" lon="4.28126">
        <ele>447</ele>
        <time>2018-06-03T10:00:06.000Z</time>
      </trkpt>
      <trkpt lat="44.54878" lon="4.28126">
        <ele>447</ele>
        <time>2018-06-03T10:00:07.000Z</time>
      </trkpt>
      <trkpt lat="44.54876" lon="4.28125">
        <ele>447</ele>
        <time>2018-06-03T10:00:08.000Z</time>
      </trkpt>
      <trkpt lat="44.54875" lon="4.28125">
        <ele>447</ele>
        <time>2018-06-03T10:00:09.000Z</time>
      </trkpt>
      <trkpt lat="44.54873" lon="4.28125">
        <ele>447</ele>
        <time>2018-06-03T10:00:10.000Z</time>
      </trkpt>
      <trkpt lat="44.54872" lon="4.28124">
        <ele>447</ele>
        <time>2018-06-03T10:00:11.000Z</time>
      </trkpt>
      <trkpt lat="44.54871" lon="4.28124">
        <ele>447</ele>
        <time>2018-06-03T10:00:12.000Z</time>
      </trkpt>
      <trkpt lat="44.5487" lon="4.28125">
        <ele>447</ele>
        <time>2018-06-03T10:00:13.000Z</time>
      </trkpt>
      <trkpt lat="44.54868" lon="4.28125">
        <ele>447</ele>
        <time>2018-06-03T10:00:14.000Z</time>
      </trkpt>
      <trkpt lat="44.54866" lon="4.28125">
        <ele>447</ele>
        <time>2018-06-03T10:00:15.000Z</time>
      </trkpt>
      <trkpt lat="44.54864" lon="4.28125">
        <ele>447</ele>
        <time>2018-06-03T10:00:16.000Z</time>
      </trkpt>
      <trkpt lat="44.54862" lon="4.28125">
        <ele>447</ele>
        <time>2018-06-03T10:00:17.000Z</time>
      </trkpt>
      <trkpt lat="44.5486" lon="4.28126">
        <ele>447</ele>
        <time>2018-06-03T10:00:18.000Z</time>
      </trkpt>
      <trkpt lat="44.54858" lon="4.28127">
        <ele>447</ele>
        <time>2018-06-03T10:00:19.000Z</time>
      </trkpt>
      <trkpt lat="44.54856" lon="4.28128">
        <ele>448</ele>
        <time>2018-06-03T10:00:20.000Z</time>
      </trkpt>
      <trkpt lat="44.54853" lon="4.28129">
        <ele>448</ele>
        <time>2018-06-03T10:00:21.000Z</time>
      </trkpt>
      <trkpt lat="44.5485" lon="4.2813">
        <ele>448</ele>
        <time>2018-06-03T10:00:22.000Z</time>
      </trkpt>
      <trkpt lat="44.54847" lon="4.2813">
        <ele>448</ele>
        <time>2018-06-03T10:00:23.000Z</time>
      </trkpt>
      <trkpt lat="44.54844" lon="4.2813">
        <ele>448</ele>
        <time>2018-06-03T10:00:24.000Z</time>
      </trkpt>
      <trkpt lat="44.54842" lon="4.2813">
        <ele>448</ele>
        <time>2018-06-03T10:00:25.000Z</time>
      </trkpt>
      <trkpt lat="44.54839" lon="4.28131">
        <ele>448</ele>
        <time>2018-06-03T10:00:26.000Z</time>
      </trkpt>
      <trkpt lat="44.54837" lon="4.28131">
        <ele>448</ele>
        <time>2018-06-03T10:00:27.000Z</time>
      </trkpt>
      <trkpt lat="44.54835" lon="4.28132">
        <ele>448</ele>
        <time>2018-06-03T10:00:28.000Z</time>
      </trkpt>
      <trkpt lat="44.54833" lon="4.28132">
        <ele>451</ele>
        <time>2018-06-03T10:00:29.000Z</time>
      </trkpt>
      <trkpt lat="44.54833" lon="4.28132">
        <ele>451</ele>
        <time>2018-06-03T10:00:30.000Z</time>
      </trkpt>
      <trkpt lat="44.54832" lon="4.28132">
        <ele>451</ele>
        <time>2018-06-03T10:00:31.000Z</time>
      </trkpt>
      <trkpt lat="44.54831" lon="4.28132">
        <ele>451</ele>
        <time>2018-06-03T10:00:32.000Z</time>
      </trkpt>
      <trkpt lat="44.54829" lon="4.28132">
        <ele>451</ele>
        <time>2018-06-03T10:00:33.000Z</time>
      </trkpt>
      <trkpt lat="44.54826" lon="4.28132">
        <ele>452</ele>
        <time>2018-06-03T10:00:34.000Z</time>
      </trkpt>
      <trkpt lat="44.54824" lon="4.28133">
        <ele>452</ele>
        <time>2018-06-03T10:00:35.000Z</time>
      </trkpt>
      <trkpt lat="44.54822" lon="4.28133">
        <ele>452</ele>
        <time>2018-06-03T10:00:36.000Z</time>
      </trkpt>
      <trkpt lat="44.54821" lon="4.28133">
        <ele>452</ele>
        <time>2018-06-03T10:00:37.000Z</time>
      </trkpt>
      <trkpt lat="44.54818" lon="4.28133">
        <ele>452</ele>
        <time>2018-06-03T10:00:38.000Z</time>
      </trkpt>
      <trkpt lat="44.54815" lon="4.28133">
        <ele>452</ele>
        <time>2018-06-03T10:00:39.000Z</time>
      </trkpt>
      <trkpt lat="44.54813" lon="4.28134">
        <ele>452</ele>
        <time>2018-06-03T10:00:40.000Z</time>
      </trkpt>
      <trkpt lat="44.5481" lon="4.28134">
        <ele>452</ele>
        <time>2018-06-03T10:00:41.000Z</time>
      </trkpt>
      <trkpt lat="44.54808" lon="4.28135">
        <ele>452</ele>
        <time>2018-06-03T10:00:42.000Z</time>
      </trkpt>
      <trkpt lat="44.54807" lon="4.28137">
        <ele>452</ele>
        <time>2018-06-03T10:00:43.000Z</time>
      </trkpt>
      <trkpt lat="44.54807" lon="4.2814">
        <ele>452</ele>
        <time>2018-06-03T10:00:44.000Z</time>
      </trkpt>
      <trkpt lat="44.54806" lon="4.28143">
        <ele>452</ele>
        <time>2018-06-03T10:00:45.000Z</time>
      </trkpt>
      <trkpt lat="44.54805" lon="4.28146">
        <ele>452</ele>
        <time>2018-06-03T10:00:46.000Z</time>
      </trkpt>
      <trkpt lat="44.54804" lon="4.28148">
        <ele>452</ele>
        <time>2018-06-03T10:00:47.000Z</time>
      </trkpt>
      <trkpt lat="44.54803" lon="4.28149">
        <ele>452</ele>
        <time>2018-06-03T10:00:48.000Z</time>
      </trkpt>
      <trkpt lat="44.54802" lon="4.2815">
        <ele>452</ele>
        <time>2018-06-03T10:00:49.000Z</time>
      </trkpt>
      <trkpt lat="44.54801" lon="4.28152">
        <ele>453</ele>
        <time>2018-06-03T10:00:50.000Z</time>
      </trkpt>
      <trkpt lat="44.548" lon="4.28152">
        <ele>453</ele>
        <time>2018-06-03T10:00:51.000Z</time>
      </trkpt>
      <trkpt lat="44.54798" lon="4.28153">
        <ele>453</ele>
        <time>2018-06-03T10:00:52.000Z</time>
      </trkpt>
      <trkpt lat="44.54796" lon="4.28154">
        <ele>453</ele>
        <time>2018-06-03T10:00:53.000Z</time>
      </trkpt>
      <trkpt lat="44.54794" lon="4.28155">
        <ele>453</ele>
        <time>2018-06-03T10:00:54.000Z</time>
      </trkpt>
      <trkpt lat="44.54791" lon="4.28156">
        <ele>453</ele>
        <time>2018-06-03T10:00:55.000Z</time>
      </trkpt>
      <trkpt lat="44.54788" lon="4.28156">
        <ele>453</ele>
        <time>2018-06-03T10:00:56.000Z</time>
      </trkpt>
      <trkpt lat="44.54786" lon="4.28158">
        <ele>453</ele>
        <time>2018-06-03T10:00:57.000Z</time>
      </trkpt>
      <trkpt lat="44.54783" lon="4.28159">
        <ele>453</ele>
        <time>2018-06-03T10:00:58.000Z</time>
      </trkpt>
      <trkpt lat="44.5478" lon="4.2816">
        <ele>454</ele>
        <time>2018-06-03T10:00:59.000Z</time>
      </trkpt>
      <trkpt lat="44.54777" lon="4.28161">
        <ele>454</ele>
        <time>2018-06-03T10:01:00.000Z</time>
      </trkpt>
      <trkpt lat="44.54775" lon="4.28162">
        <ele>454</ele>
        <time>2018-06-03T10:01:01.000Z</time>
      </trkpt>
      <trkpt lat="44.54772" lon="4.28164">
        <ele>454</ele>
        <time>2018-06-03T10:01:02.000Z</time>
      </trkpt>
      <trkpt lat="44.5477" lon="4.28167">
        <ele>453</ele>
        <time>2018-06-03T10:01:03.000Z</time>
      </trkpt>
      <trkpt lat="44.54768" lon="4.2817">
        <ele>454</ele>
        <time>2018-06-03T10:01:04.000Z</time>
      </trkpt>
      <trkpt lat="44.54766" lon="4.28173">
        <ele>454</ele>
        <time>2018-06-03T10:01:05.000Z</time>
      </trkpt>
      <trkpt lat="44.54763" lon="4.28177">
        <ele>454</ele>
        <time>2018-06-03T10:01:06.000Z</time>
      </trkpt>
      <trkpt lat="44.54761" lon="4.2818">
        <ele>454</ele>
        <time>2018-06-03T10:01:07.000Z</time>
      </trkpt>
      <trkpt lat="44.54759" lon="4.28182">
        <ele>454</ele>
        <time>2018-06-03T10:01:08.000Z</time>
      </trkpt>
      <trkpt lat="44.54756" lon="4.28183">
        <ele>454</ele>
        <time>2018-06-03T10:01:09.000Z</time>
      </trkpt>
      <trkpt lat="44.54753" lon="4.28184">
        <ele>454</ele>
        <time>2018-06-03T10:01:10.000Z</time>
      </trkpt>
      <trkpt lat="44.54749" lon="4.28183">
        <ele>456</ele>
        <time>2018-06-03T10:01:11.000Z</time>
      </trkpt>
      <trkpt lat="44.54746" lon="4.28183">
        <ele>456</ele>
        <time>2018-06-03T10:01:12.000Z</time>
      </trkpt>
      <trkpt lat="44.54744" lon="4.28183">
        <ele>456</ele>
        <time>2018-06-03T10:01:13.000Z</time>
      </trkpt>
      <trkpt lat="44.54741" lon="4.28181">
        <ele>456</ele>
        <time>2018-06-03T10:01:14.000Z</time>
      </trkpt>
      <trkpt lat="44.54738" lon="4.28179">
        <ele>456</ele>
        <time>2018-06-03T10:01:15.000Z</time>
      </trkpt>
      <trkpt lat="44.54735" lon="4.28178">
        <ele>456</ele>
        <time>2018-06-03T10:01:16.000Z</time>
      </trkpt>
      <trkpt lat="44.54733" lon="4.28179">
        <ele>456</ele>
        <time>2018-06-03T10:01:17.000Z</time>
      </trkpt>
      <trkpt lat="44.5473" lon="4.2818">
        <ele>456</ele>
        <time>2018-06-03T10:01:18.000Z</time>
      </trkpt>
      <trkpt lat="44.54727" lon="4.28182">
        <ele>456</ele>
        <time>2018-06-03T10:01:19.000Z</time>
      </trkpt>
      <trkpt lat="44.54723" lon="4.28183">
        <ele>456</ele>
        <time>2018-06-03T10:01:20.000Z</time>
      </trkpt>
      <trkpt lat="44.54718" lon="4.28183">
        <ele>456</ele>
        <time>2018-06-03T10:01:21.000Z</time>
      </trkpt>
      <trkpt lat="44.54715" lon="4.28184">
        <ele>456</ele>
        <time>2018-06-03T10:01:22.000Z</time>
      </trkpt>
      <trkpt lat="44.54711" lon="4.28183">
        <ele>456</ele>
        <time>2018-06-03T10:01:23.000Z</time>
      </trkpt>
      <trkpt lat="44.54708" lon="4.28182">
        <ele>456</ele>
        <time>2018-06-03T10:01:24.000Z</time>
      </trkpt>
      <trkpt lat="44.54705" lon="4.28181">
        <ele>456</ele>
        <time>2018-06-03T10:01:25.000Z</time>
      </trkpt>
      <trkpt lat="44.54702" lon="4.2818">
        <ele>456</ele>
        <time>2018-06-03T10:01:26.000Z</time>
      </trkpt>
      <trkpt lat="44.54699" lon="4.28178">
        <ele>457</ele>
        <time>2018-06-03T10:01:27.000Z</time>
      </trkpt>
      <trkpt lat="44.54695" lon="4.28176">
        <ele>457</ele>
        <time>2018-06-03T10:01:28.000Z</time>
      </trkpt>
      <trkpt lat="44.5469" lon="4.28174">
        <ele>457</ele>
        <time>2018-06-03T10:01:29.000Z</time>
      </trkpt>
      <trkpt lat="44.54686" lon="4.28172">
        <ele>457</ele>
        <time>2018-06-03T10:01:30.000Z</time>
      </trkpt>
      <trkpt lat="44.54683" lon="4.28171">
        <ele>458</ele>
        <time>2018-06-03T10:01:31.000Z</time>
      </trkpt>
      <trkpt lat="44.54679" lon="4.28169">
        <ele>458</ele>
        <time>2018-06-03T10:01:32.000Z</time>
      </trkpt>
      <trkpt lat="44.54676" lon="4.28168">
        <ele>458</ele>
        <time>2018-06-03T10:01:33.000Z</time>
      </trkpt>
      <trkpt lat="44.54673" lon="4.28166">
        <ele>459</ele>
        <time>2018-06-03T10:01:34.000Z</time>
      </trkpt>
      <trkpt lat="44.54668" lon="4.28162">
        <ele>459</ele>
        <time>2018-06-03T10:01:35.000Z</time>
      </trkpt>
      <trkpt lat="44.54664" lon="4.28159">
        <ele>458</ele>
        <time>2018-06-03T10:01:36.000Z</time>
      </trkpt>
      <trkpt lat="44.54659" lon="4.28158">
        <ele>457</ele>
        <time>2018-06-03T10:01:37.000Z</time>
      </trkpt>
      <trkpt lat="44.54653" lon="4.28157">
        <ele>456</ele>
        <time>2018-06-03T10:01:38.000Z</time>
      </trkpt>
      <trkpt lat="44.54648" lon="4.28154">
        <ele>455</ele>
        <time>2018-06-03T10:01:39.000Z</time>
      </trkpt>
      <trkpt lat="44.54644" lon="4.2815">
        <ele>455</ele>
        <time>2018-06-03T10:01:40.000Z</time>
      </trkpt>
      <trkpt lat="44.54639" lon="4.28146">
        <ele>454</ele>
        <time>2018-06-03T10:01:41.000Z</time>
      </trkpt>
      <trkpt lat="44.54636" lon="4.28142">
        <ele>454</ele>
        <time>2018-06-03T10:01:42.000Z</time>
      </trkpt>
      <trkpt lat="44.54631" lon="4.28141">
        <ele>453</ele>
        <time>2018-06-03T10:01:43.000Z</time>
      </trkpt>
      <trkpt lat="44.54627" lon="4.28141">
        <ele>453</ele>
        <time>2018-06-03T10:01:44.000Z</time>
      </trkpt>
      <trkpt lat="44.54622" lon="4.28139">
        <ele>453</ele>
        <time>2018-06-03T10:01:45.000Z</time>
      </trkpt>
      <trkpt lat="44.54617" lon="4.28139">
        <ele>452</ele>
        <time>2018-06-03T10:01:46.000Z</time>
      </trkpt>
      <trkpt lat="44.54612" lon="4.28136">
        <ele>452</ele>
        <time>2018-06-03T10:01:47.000Z</time>
      </trkpt>
      <trkpt lat="44.54607" lon="4.28134">
        <ele>452</ele>
        <time>2018-06-03T10:01:48.000Z</time>
      </trkpt>
      <trkpt lat="44.54602" lon="4.28133">
        <ele>452</ele>
        <time>2018-06-03T10:01:49.000Z</time>
      </trkpt>
      <trkpt lat="44.54597" lon="4.28132">
        <ele>451</ele>
        <time>2018-06-03T10:01:50.000Z</time>
      </trkpt>
      <trkpt lat="44.54592" lon="4.2813">
        <ele>451</ele>
        <time>2018-06-03T10:01:51.000Z</time>
      </trkpt>
      <trkpt lat="44.54588" lon="4.28128">
        <ele>451</ele>
        <time>2018-06-03T10:01:52.000Z</time>
      </trkpt>
      <trkpt lat="44.54583" lon="4.28125">
        <ele>444</ele>
        <time>2018-06-03T10:01:53.000Z</time>
      </trkpt>
      <trkpt lat="44.54577" lon="4.28122">
        <ele>444</ele>
        <time>2018-06-03T10:01:54.000Z</time>
      </trkpt>
      <trkpt lat="44.54572" lon="4.2812">
        <ele>443</ele>
        <time>2018-06-03T10:01:55.000Z</time>
      </trkpt>
      <trkpt lat="44.54566" lon="4.28117">
        <ele>443</ele>
        <time>2018-06-03T10:01:56.000Z</time>
      </trkpt>
      <trkpt lat="44.5456" lon="4.28115">
        <ele>442</ele>
        <time>2018-06-03T10:01:57.000Z</time>
      </trkpt>
      <trkpt lat="44.54553" lon="4.28115">
        <ele>442</ele>
        <time>2018-06-03T10:01:58.000Z</time>
      </trkpt>
      <trkpt lat="44.54546" lon="4.28116">
        <ele>441</ele>
        <time>2018-06-03T10:01:59.000Z</time>
      </trkpt>
      <trkpt lat="44.54539" lon="4.28117">
        <ele>441</ele>
        <time>2018-06-03T10:02:00.000Z</time>
      </trkpt>
      <trkpt lat="44.54533" lon="4.28119">
        <ele>440</ele>
        <time>2018-06-03T10:02:01.000Z</time>
      </trkpt>
      <trkpt lat="44.54528" lon="4.28121">
        <ele>440</ele>
        <time>2018-06-03T10:02:02.000Z</time>
      </trkpt>
      <trkpt lat="44.54523" lon="4.28125">
        <ele>439</ele>
        <time>2018-06-03T10:02:03.000Z</time>
      </trkpt>
      <trkpt lat="44.54519" lon="4.2813">
        <ele>439</ele>
        <time>2018-06-03T10:02:04.000Z</time>
      </trkpt>
      <trkpt lat="44.54518" lon="4.28134">
        <ele>439</ele>
        <time>2018-06-03T10:02:05.000Z</time>
      </trkpt>
      <trkpt lat="44.54517" lon="4.28137">
        <ele>439</ele>
        <time>2018-06-03T10:02:06.000Z</time>
      </trkpt>
      <trkpt lat="44.54516" lon="4.28139">
        <ele>439</ele>
        <time>2018-06-03T10:02:07.000Z</time>
      </trkpt>
      <trkpt lat="44.54516" lon="4.28142">
        <ele>439</ele>
        <time>2018-06-03T10:02:08.000Z</time>
      </trkpt>
      <trkpt lat="44.54517" lon="4.28145">
        <ele>439</ele>
        <time>2018-06-03T10:02:09.000Z</time>
      </trkpt>
      <trkpt lat="44.54517" lon="4.28148">
        <ele>439</ele>
        <time>2018-06-03T10:02:10.000Z</time>
      </trkpt>
      <trkpt lat="44.54518" lon="4.28151">
        <ele>438</ele>
        <time>2018-06-03T10:02:11.000Z</time>
      </trkpt>
      <trkpt lat="44.54519" lon="4.28155">
        <ele>438</ele>
        <time>2018-06-03T10:02:12.000Z</time>
      </trkpt>
      <trkpt lat="44.5452" lon="4.28157">
        <ele>438</ele>
        <time>2018-06-03T10:02:13.000Z</time>
      </trkpt>
      <trkpt lat="44.54521" lon="4.2816">
        <ele>439</ele>
        <time>2018-06-03T10:02:14.000Z</time>
      </trkpt>
      <trkpt lat="44.54523" lon="4.28163">
        <ele>439</ele>
        <time>2018-06-03T10:02:15.000Z</time>
      </trkpt>
      <trkpt lat="44.54524" lon="4.28166">
        <ele>439</ele>
        <time>2018-06-03T10:02:16.000Z</time>
      </trkpt>
      <trkpt lat="44.54525" lon="4.28169">
        <ele>439</ele>
        <time>2018-06-03T10:02:17.000Z</time>
      </trkpt>
      <trkpt lat="44.54526" lon="4.28173">
        <ele>439</ele>
        <time>2018-06-03T10:02:18.000Z</time>
      </trkpt>
      <trkpt lat="44.54528" lon="4.28177">
        <ele>439</ele>
        <time>2018-06-03T10:02:19.000Z</time>
      </trkpt>
      <trkpt lat="44.54529" lon="4.28182">
        <ele>439</ele>
        <time>2018-06-03T10:02:20.000Z</time>
      </trkpt>
      <trkpt lat="44.54531" lon="4.28187">
        <ele>440</ele>
        <time>2018-06-03T10:02:21.000Z</time>
      </trkpt>
      <trkpt lat="44.54532" lon="4.28191">
        <ele>440</ele>
        <time>2018-06-03T10:02:22.000Z</time>
      </trkpt>
      <trkpt lat="44.54534" lon="4.28194">
        <ele>440</ele>
        <time>2018-06-03T10:02:23.000Z</time>
      </trkpt>
      <trkpt lat="44.54535" lon="4.28198">
        <ele>440</ele>
        <time>2018-06-03T10:02:24.000Z</time>
      </trkpt>
      <trkpt lat="44.54535" lon="4.28203">
        <ele>440</ele>
        <time>2018-06-03T10:02:25.000Z</time>
      </trkpt>
      <trkpt lat="44.54537" lon="4.28208">
        <ele>440</ele>
        <time>2018-06-03T10:02:26.000Z</time>
      </trkpt>
      <trkpt lat="44.54539" lon="4.28213">
        <ele>440</ele>
        <time>2018-06-03T10:02:27.000Z</time>
      </trkpt>
      <trkpt lat="44.54541" lon="4.28218">
        <ele>441</ele>
        <time>2018-06-03T10:02:28.000Z</time>
      </trkpt>
      <trkpt lat="44.54543" lon="4.28225">
        <ele>441</ele>
        <time>2018-06-03T10:02:29.000Z</time>
      </trkpt>
      <trkpt lat="44.54545" lon="4.28232">
        <ele>441</ele>
        <time>2018-06-03T10:02:30.000Z</time>
      </trkpt>
      <trkpt lat="44.54547" lon="4.28241">
        <ele>441</ele>
        <time>2018-06-03T10:02:31.000Z</time>
      </trkpt>
      <trkpt lat="44.54549" lon="4.2825">
        <ele>442</ele>
        <time>2018-06-03T10:02:32.000Z</time>
      </trkpt>
      <trkpt lat="44.54552" lon="4.28258">
        <ele>439</ele>
        <time>2018-06-03T10:02:33.000Z</time>
      </trkpt>
      <trkpt lat="44.54554" lon="4.28266">
        <ele>439</ele>
        <time>2018-06-03T10:02:34.000Z</time>
      </trkpt>
      <trkpt lat="44.54556" lon="4.28275">
        <ele>438</ele>
        <time>2018-06-03T10:02:35.000Z</time>
      </trkpt>
      <trkpt lat="44.54558" lon="4.28283">
        <ele>438</ele>
        <time>2018-06-03T10:02:36.000Z</time>
      </trkpt>
      <trkpt lat="44.5456" lon="4.2829">
        <ele>438</ele>
        <time>2018-06-03T10:02:37.000Z</time>
      </trkpt>
      <trkpt lat="44.54562" lon="4.28298">
        <ele>437</ele>
        <time>2018-06-03T10:02:38.000Z</time>
      </trkpt>
      <trkpt lat="44.54564" lon="4.28305">
        <ele>437</ele>
        <time>2018-06-03T10:02:39.000Z</time>
      </trkpt>
      <trkpt lat="44.54567" lon="4.28311">
        <ele>438</ele>
        <time>2018-06-03T10:02:40.000Z</time>
      </trkpt>
      <trkpt lat="44.54569" lon="4.28317">
        <ele>438</ele>
        <time>2018-06-03T10:02:41.000Z</time>
      </trkpt>
      <trkpt lat="44.54571" lon="4.28323">
        <ele>438</ele>
        <time>2018-06-03T10:02:42.000Z</time>
      </trkpt>
      <trkpt lat="44.54573" lon="4.2833">
        <ele>439</ele>
        <time>2018-06-03T10:02:43.000Z</time>
      </trkpt>
      <trkpt lat="44.54575" lon="4.28336">
        <ele>437</ele>
        <time>2018-06-03T10:02:44.000Z</time>
      </trkpt>
      <trkpt lat="44.54576" lon="4.28342">
        <ele>436</ele>
        <time>2018-06-03T10:02:45.000Z</time>
      </trkpt>
      <trkpt lat="44.54578" lon="4.28349">
        <ele>435</ele>
        <time>2018-06-03T10:02:46.000Z</time>
      </trkpt>
      <trkpt lat="44.54579" lon="4.28356">
        <ele>434</ele>
        <time>2018-06-03T10:02:47.000Z</time>
      </trkpt>
      <trkpt lat="44.5458" lon="4.28363">
        <ele>433</ele>
        <time>2018-06-03T10:02:48.000Z</time>
      </trkpt>
      <trkpt lat="44.54581" lon="4.2837">
        <ele>432</ele>
        <time>2018-06-03T10:02:49.000Z</time>
      </trkpt>
      <trkpt lat="44.54582" lon="4.28378">
        <ele>432</ele>
        <time>2018-06-03T10:02:50.000Z</time>
      </trkpt>
      <trkpt lat="44.54584" lon="4.28386">
        <ele>437</ele>
        <time>2018-06-03T10:02:51.000Z</time>
      </trkpt>
      <trkpt lat="44.54586" lon="4.28394">
        <ele>436</ele>
        <time>2018-06-03T10:02:52.000Z</time>
      </trkpt>
      <trkpt lat="44.54588" lon="4.28403">
        <ele>436</ele>
        <time>2018-06-03T10:02:53.000Z</time>
      </trkpt>
      <trkpt lat="44.54591" lon="4.28411">
        <ele>435</ele>
        <time>2018-06-03T10:02:54.000Z</time>
      </trkpt>
      <trkpt lat="44.54594" lon="4.28419">
        <ele>431</ele>
        <time>2018-06-03T10:02:55.000Z</time>
      </trkpt>
      <trkpt lat="44.54597" lon="4.28427">
        <ele>429</ele>
        <time>2018-06-03T10:02:56.000Z</time>
      </trkpt>
      <trkpt lat="44.54599" lon="4.28436">
        <ele>428</ele>
        <time>2018-06-03T10:02:57.000Z</time>
      </trkpt>
      <trkpt lat="44.54602" lon="4.28444">
        <ele>426</ele>
        <time>2018-06-03T10:02:58.000Z</time>
      </trkpt>
      <trkpt lat="44.54604" lon="4.28452">
        <ele>425</ele>
        <time>2018-06-03T10:02:59.000Z</time>
      </trkpt>
      <trkpt lat="44.54606" lon="4.28457">
        <ele>425</ele>
        <time>2018-06-03T10:03:00.000Z</time>
      </trkpt>
      <trkpt lat="44.54607" lon="4.2846">
        <ele>424</ele>
        <time>2018-06-03T10:03:01.000Z</time>
      </trkpt>
      <trkpt lat="44.5461" lon="4.28462">
        <ele>424</ele>
        <time>2018-06-03T10:03:02.000Z</time>
      </trkpt>
      <trkpt lat="44.54611" lon="4.28465">
        <ele>424</ele>
        <time>2018-06-03T10:03:03.000Z</time>
      </trkpt>
      <trkpt lat="44.54613" lon="4.28469">
        <ele>423</ele>
        <time>2018-06-03T10:03:04.000Z</time>
      </trkpt>
      <trkpt lat="44.54614" lon="4.28473">
        <ele>423</ele>
        <time>2018-06-03T10:03:05.000Z</time>
      </trkpt>
      <trkpt lat="44.54617" lon="4.28476">
        <ele>422</ele>
        <time>2018-06-03T10:03:06.000Z</time>
      </trkpt>
      <trkpt lat="44.5462" lon="4.28478">
        <ele>422</ele>
        <time>2018-06-03T10:03:07.000Z</time>
      </trkpt>
      <trkpt lat="44.54624" lon="4.2848">
        <ele>422</ele>
        <time>2018-06-03T10:03:08.000Z</time>
      </trkpt>
      <trkpt lat="44.54628" lon="4.2848">
        <ele>421</ele>
        <time>2018-06-03T10:03:09.000Z</time>
      </trkpt>
      <trkpt lat="44.54633" lon="4.28478">
        <ele>421</ele>
        <time>2018-06-03T10:03:10.000Z</time>
      </trkpt>
      <trkpt lat="44.54638" lon="4.28476">
        <ele>421</ele>
        <time>2018-06-03T10:03:11.000Z</time>
      </trkpt>
      <trkpt lat="44.54643" lon="4.28473">
        <ele>421</ele>
        <time>2018-06-03T10:03:12.000Z</time>
      </trkpt>
      <trkpt lat="44.54647" lon="4.2847">
        <ele>421</ele>
        <time>2018-06-03T10:03:13.000Z</time>
      </trkpt>
      <trkpt lat="44.54652" lon="4.28466">
        <ele>422</ele>
        <time>2018-06-03T10:03:14.000Z</time>
      </trkpt>
      <trkpt lat="44.54657" lon="4.28461">
        <ele>422</ele>
        <time>2018-06-03T10:03:15.000Z</time>
      </trkpt>
      <trkpt lat="44.54661" lon="4.28456">
        <ele>423</ele>
        <time>2018-06-03T10:03:16.000Z</time>
      </trkpt>
      <trkpt lat="44.54664" lon="4.28451">
        <ele>424</ele>
        <time>2018-06-03T10:03:17.000Z</time>
      </trkpt>
      <trkpt lat="44.54668" lon="4.28446">
        <ele>416</ele>
        <time>2018-06-03T10:03:18.000Z</time>
      </trkpt>
      <trkpt lat="44.54671" lon="4.28441">
        <ele>417</ele>
        <time>2018-06-03T10:03:19.000Z</time>
      </trkpt>
      <trkpt lat="44.54675" lon="4.28436">
        <ele>418</ele>
        <time>2018-06-03T10:03:20.000Z</time>
      </trkpt>
      <trkpt lat="44.54678" lon="4.28431">
        <ele>419</ele>
        <time>2018-06-03T10:03:21.000Z</time>
      </trkpt>
      <trkpt lat="44.54682" lon="4.28426">
        <ele>419</ele>
        <time>2018-06-03T10:03:22.000Z</time>
      </trkpt>
      <trkpt lat="44.54686" lon="4.28422">
        <ele>419</ele>
        <time>2018-06-03T10:03:23.000Z</time>
      </trkpt>
      <trkpt lat="44.54689" lon="4.28418">
        <ele>418</ele>
        <time>2018-06-03T10:03:24.000Z</time>
      </trkpt>
      <trkpt lat="44.54694" lon="4.28414">
        <ele>428</ele>
        <time>2018-06-03T10:03:25.000Z</time>
      </trkpt>
      <trkpt lat="44.54698" lon="4.2841">
        <ele>427</ele>
        <time>2018-06-03T10:03:26.000Z</time>
      </trkpt>
      <trkpt lat="44.54703" lon="4.28406">
        <ele>427</ele>
        <time>2018-06-03T10:03:27.000Z</time>
      </trkpt>
      <trkpt lat="44.54707" lon="4.28402">
        <ele>426</ele>
        <time>2018-06-03T10:03:28.000Z</time>
      </trkpt>
      <trkpt lat="44.54711" lon="4.28399">
        <ele>426</ele>
        <time>2018-06-03T10:03:29.000Z</time>
      </trkpt>
      <trkpt lat="44.54715" lon="4.28395">
        <ele>425</ele>
        <time>2018-06-03T10:03:30.000Z</time>
      </trkpt>
      <trkpt lat="44.54718" lon="4.28392">
        <ele>425</ele>
        <time>2018-06-03T10:03:31.000Z</time>
      </trkpt>
      <trkpt lat="44.5472" lon="4.28388">
        <ele>425</ele>
        <time>2018-06-03T10:03:32.000Z</time>
      </trkpt>
      <trkpt lat="44.54723" lon="4.28385">
        <ele>425</ele>
        <time>2018-06-03T10:03:33.000Z</time>
      </trkpt>
      <trkpt lat="44.54725" lon="4.28382">
        <ele>426</ele>
        <time>2018-06-03T10:03:34.000Z</time>
      </trkpt>
      <trkpt lat="44.54728" lon="4.28379">
        <ele>426</ele>
        <time>2018-06-03T10:03:35.000Z</time>
      </trkpt>
      <trkpt lat="44.54731" lon="4.28377">
        <ele>426</ele>
        <time>2018-06-03T10:03:36.000Z</time>
      </trkpt>
      <trkpt lat="44.54734" lon="4.28375">
        <ele>426</ele>
        <time>2018-06-03T10:03:37.000Z</time>
      </trkpt>
      <trkpt lat="44.54736" lon="4.28373">
        <ele>426</ele>
        <time>2018-06-03T10:03:38.000Z</time>
      </trkpt>
      <trkpt lat="44.54738" lon="4.2837">
        <ele>426</ele>
        <time>2018-06-03T10:03:39.000Z</time>
      </trkpt>
      <trkpt lat="44.5474" lon="4.28368">
        <ele>426</ele>
        <time>2018-06-03T10:03:40.000Z</time>
      </trkpt>
      <trkpt lat="44.54743" lon="4.28366">
        <ele>426</ele>
        <time>2018-06-03T10:03:41.000Z</time>
      </trkpt>
      <trkpt lat="44.54746" lon="4.28364">
        <ele>427</ele>
        <time>2018-06-03T10:03:42.000Z</time>
      </trkpt>
      <trkpt lat="44.54748" lon="4.28362">
        <ele>427</ele>
        <time>2018-06-03T10:03:43.000Z</time>
      </trkpt>
      <trkpt lat="44.5475" lon="4.28359">
        <ele>427</ele>
        <time>2018-06-03T10:03:44.000Z</time>
      </trkpt>
      <trkpt lat="44.54751" lon="4.28357">
        <ele>417</ele>
        <time>2018-06-03T10:03:45.000Z</time>
      </trkpt>
      <trkpt lat="44.54753" lon="4.28355">
        <ele>418</ele>
        <time>2018-06-03T10:03:46.000Z</time>
      </trkpt>
      <trkpt lat="44.54754" lon="4.28352">
        <ele>419</ele>
        <time>2018-06-03T10:03:47.000Z</time>
      </trkpt>
      <trkpt lat="44.54757" lon="4.2835">
        <ele>419</ele>
        <time>2018-06-03T10:03:48.000Z</time>
      </trkpt>
      <trkpt lat="44.54759" lon="4.28347">
        <ele>420</ele>
        <time>2018-06-03T10:03:49.000Z</time>
      </trkpt>
      <trkpt lat="44.54761" lon="4.28345">
        <ele>420</ele>
        <time>2018-06-03T10:03:50.000Z</time>
      </trkpt>
      <trkpt lat="44.54763" lon="4.28343">
        <ele>420</ele>
        <time>2018-06-03T10:03:51.000Z</time>
      </trkpt>
      <trkpt lat="44.54765" lon="4.28341">
        <ele>420</ele>
        <time>2018-06-03T10:03:52.000Z</time>
      </trkpt>
      <trkpt lat="44.54767" lon="4.28338">
        <ele>420</ele>
        <time>2018-06-03T10:03:53.000Z</time>
      </trkpt>
      <trkpt lat="44.5477" lon="4.28336">
        <ele>419</ele>
        <time>2018-06-03T10:03:54.000Z</time>
      </trkpt>
      <trkpt lat="44.54772" lon="4.28335">
        <ele>418</ele>
        <time>2018-06-03T10:03:55.000Z</time>
      </trkpt>
      <trkpt lat="44.54774" lon="4.28333">
        <ele>430</ele>
        <time>2018-06-03T10:03:56.000Z</time>
      </trkpt>
      <trkpt lat="44.54777" lon="4.28331">
        <ele>430</ele>
        <time>2018-06-03T10:03:57.000Z</time>
      </trkpt>
      <trkpt lat="44.54779" lon="4.28329">
        <ele>430</ele>
        <time>2018-06-03T10:03:58.000Z</time>
      </trkpt>
      <trkpt lat="44.54781" lon="4.28327">
        <ele>430</ele>
        <time>2018-06-03T10:03:59.000Z</time>
      </trkpt>
      <trkpt lat="44.54783" lon="4.28325">
        <ele>430</ele>
        <time>2018-06-03T10:04:00.000Z</time>
      </trkpt>
      <trkpt lat="44.54785" lon="4.28323">
        <ele>430</ele>
        <time>2018-06-03T10:04:01.000Z</time>
      </trkpt>
      <trkpt lat="44.54786" lon="4.28321">
        <ele>430</ele>
        <time>2018-06-03T10:04:02.000Z</time>
      </trkpt>
      <trkpt lat="44.54787" lon="4.28319">
        <ele>430</ele>
        <time>2018-06-03T10:04:03.000Z</time>
      </trkpt>
      <trkpt lat="44.54789" lon="4.28318">
        <ele>430</ele>
        <time>2018-06-03T10:04:04.000Z</time>
      </trkpt>
      <trkpt lat="44.54791" lon="4.28316">
        <ele>430</ele>
        <time>2018-06-03T10:04:05.000Z</time>
      </trkpt>
      <trkpt lat="44.54793" lon="4.28314">
        <ele>430</ele>
        <time>2018-06-03T10:04:06.000Z</time>
      </trkpt>
      <trkpt lat="44.54795" lon="4.28312">
        <ele>430</ele>
        <time>2018-06-03T10:04:07.000Z</time>
      </trkpt>
      <trkpt lat="44.54796" lon="4.28311">
        <ele>430</ele>
        <time>2018-06-03T10:04:08.000Z</time>
      </trkpt>
      <trkpt lat="44.54798" lon="4.28309">
        <ele>430</ele>
        <time>2018-06-03T10:04:09.000Z</time>
      </trkpt>
      <trkpt lat="44.548" lon="4.28307">
        <ele>430</ele>
        <time>2018-06-03T10:04:10.000Z</time>
      </trkpt>
      <trkpt lat="44.54802" lon="4.28306">
        <ele>430</ele>
        <time>2018-06-03T10:04:11.000Z</time>
      </trkpt>
      <trkpt lat="44.54804" lon="4.28305">
        <ele>430</ele>
        <time>2018-06-03T10:04:12.000Z</time>
      </trkpt>
      <trkpt lat="44.54806" lon="4.28303">
        <ele>430</ele>
        <time>2018-06-03T10:04:13.000Z</time>
      </trkpt>
      <trkpt lat="44.54809" lon="4.28301">
        <ele>430</ele>
        <time>2018-06-03T10:04:14.000Z</time>
      </trkpt>
      <trkpt lat="44.54812" lon="4.283">
        <ele>430</ele>
        <time>2018-06-03T10:04:15.000Z</time>
      </trkpt>
      <trkpt lat="44.54814" lon="4.28298">
        <ele>430</ele>
        <time>2018-06-03T10:04:16.000Z</time>
      </trkpt>
      <trkpt lat="44.54816" lon="4.28296">
        <ele>430</ele>
        <time>2018-06-03T10:04:17.000Z</time>
      </trkpt>
      <trkpt lat="44.54819" lon="4.28294">
        <ele>430</ele>
        <time>2018-06-03T10:04:18.000Z</time>
      </trkpt>
      <trkpt lat="44.54822" lon="4.28291">
        <ele>431</ele>
        <time>2018-06-03T10:04:19.000Z</time>
      </trkpt>
      <trkpt lat="44.54825" lon="4.28289">
        <ele>431</ele>
        <time>2018-06-03T10:04:20.000Z</time>
      </trkpt>
      <trkpt lat="44.54828" lon="4.28287">
        <ele>431</ele>
        <time>2018-06-03T10:04:21.000Z</time>
      </trkpt>
      <trkpt lat="44.54831" lon="4.28285">
        <ele>431</ele>
        <time>2018-06-03T10:04:22.000Z</time>
      </trkpt>
      <trkpt lat="44.54833" lon="4.28283">
        <ele>432</ele>
        <time>2018-06-03T10:04:23.000Z</time>
      </trkpt>
      <trkpt lat="44.54836" lon="4.2828">
        <ele>426</ele>
        <time>2018-06-03T10:04:24.000Z</time>
      </trkpt>
      <trkpt lat="44.54838" lon="4.28279">
        <ele>426</ele>
        <time>2018-06-03T10:04:25.000Z</time>
      </trkpt>
      <trkpt lat="44.5484" lon="4.28277">
        <ele>427</ele>
        <time>2018-06-03T10:04:26.000Z</time>
      </trkpt>
      <trkpt lat="44.54842" lon="4.28275">
        <ele>427</ele>
        <time>2018-06-03T10:04:27.000Z</time>
      </trkpt>
      <trkpt lat="44.54844" lon="4.28273">
        <ele>427</ele>
        <time>2018-06-03T10:04:28.000Z</time>
      </trkpt>
      <trkpt lat="44.54847" lon="4.28272">
        <ele>428</ele>
        <time>2018-06-03T10:04:29.000Z</time>
      </trkpt>
      <trkpt lat="44.54849" lon="4.2827">
        <ele>428</ele>
        <time>2018-06-03T10:04:30.000Z</time>
      </trkpt>
      <trkpt lat="44.5485" lon="4.28269">
        <ele>428</ele>
        <time>2018-06-03T10:04:31.000Z</time>
      </trkpt>
      <trkpt lat="44.54852" lon="4.28268">
        <ele>428</ele>
        <time>2018-06-03T10:04:32.000Z</time>
      </trkpt>
      <trkpt lat="44.54855" lon="4.28267">
        <ele>427</ele>
        <time>2018-06-03T10:04:33.000Z</time>
      </trkpt>
      <trkpt lat="44.54856" lon="4.28265">
        <ele>427</ele>
        <time>2018-06-03T10:04:34.000Z</time>
      </trkpt>
      <trkpt lat="44.54859" lon="4.28264">
        <ele>427</ele>
        <time>2018-06-03T10:04:35.000Z</time>
      </trkpt>
      <trkpt lat="44.54862" lon="4.28262">
        <ele>427</ele>
        <time>2018-06-03T10:04:36.000Z</time>
      </trkpt>
      <trkpt lat="44.54866" lon="4.28261">
        <ele>427</ele>
        <time>2018-06-03T10:04:37.000Z</time>
      </trkpt>
      <trkpt lat="44.5487" lon="4.2826">
        <ele>426</ele>
        <time>2018-06-03T10:04:38.000Z</time>
      </trkpt>
      <trkpt lat="44.54873" lon="4.2826">
        <ele>426</ele>
        <time>2018-06-03T10:04:39.000Z</time>
      </trkpt>
      <trkpt lat="44.54876" lon="4.28258">
        <ele>426</ele>
        <time>2018-06-03T10:04:40.000Z</time>
      </trkpt>
      <trkpt lat="44.54879" lon="4.28256">
        <ele>426</ele>
        <time>2018-06-03T10:04:41.000Z</time>
      </trkpt>
      <trkpt lat="44.54881" lon="4.28255">
        <ele>426</ele>
        <time>2018-06-03T10:04:42.000Z</time>
      </trkpt>
      <trkpt lat="44.54884" lon="4.28254">
        <ele>426</ele>
        <time>2018-06-03T10:04:43.000Z</time>
      </trkpt>
      <trkpt lat="44.54886" lon="4.28253">
        <ele>426</ele>
        <time>2018-06-03T10:04:44.000Z</time>
      </trkpt>
      <trkpt lat="44.54888" lon="4.28251">
        <ele>426</ele>
        <time>2018-06-03T10:04:45.000Z</time>
      </trkpt>
      <trkpt lat="44.54891" lon="4.2825">
        <ele>437</ele>
        <time>2018-06-03T10:04:46.000Z</time>
      </trkpt>
      <trkpt lat="44.54893" lon="4.28249">
        <ele>437</ele>
        <time>2018-06-03T10:04:47.000Z</time>
      </trkpt>
      <trkpt lat="44.54895" lon="4.28248">
        <ele>436</ele>
        <time>2018-06-03T10:04:48.000Z</time>
      </trkpt>
      <trkpt lat="44.54898" lon="4.28247">
        <ele>436</ele>
        <time>2018-06-03T10:04:49.000Z</time>
      </trkpt>
      <trkpt lat="44.549" lon="4.28246">
        <ele>435</ele>
        <time>2018-06-03T10:04:50.000Z</time>
      </trkpt>
      <trkpt lat="44.54902" lon="4.28245">
        <ele>435</ele>
        <time>2018-06-03T10:04:51.000Z</time>
      </trkpt>
      <trkpt lat="44.54904" lon="4.28244">
        <ele>435</ele>
        <time>2018-06-03T10:04:52.000Z</time>
      </trkpt>
      <trkpt lat="44.54906" lon="4.28243">
        <ele>434</ele>
        <time>2018-06-03T10:04:53.000Z</time>
      </trkpt>
      <trkpt lat="44.54908" lon="4.28243">
        <ele>434</ele>
        <time>2018-06-03T10:04:54.000Z</time>
      </trkpt>
      <trkpt lat="44.5491" lon="4.28243">
        <ele>434</ele>
        <time>2018-06-03T10:04:55.000Z</time>
      </trkpt>
      <trkpt lat="44.54913" lon="4.28243">
        <ele>433</ele>
        <time>2018-06-03T10:04:56.000Z</time>
      </trkpt>
      <trkpt lat="44.54915" lon="4.28242">
        <ele>433</ele>
        <time>2018-06-03T10:04:57.000Z</time>
      </trkpt>
      <trkpt lat="44.54918" lon="4.28242">
        <ele>431</ele>
        <time>2018-06-03T10:04:58.000Z</time>
      </trkpt>
      <trkpt lat="44.54921" lon="4.28241">
        <ele>431</ele>
        <time>2018-06-03T10:04:59.000Z</time>
      </trkpt>
      <trkpt lat="44.54924" lon="4.2824">
        <ele>432</ele>
        <time>2018-06-03T10:05:00.000Z</time>
      </trkpt>
      <trkpt lat="44.54927" lon="4.28241">
        <ele>432</ele>
        <time>2018-06-03T10:05:01.000Z</time>
      </trkpt>
      <trkpt lat="44.54929" lon="4.28241">
        <ele>432</ele>
        <time>2018-06-03T10:05:02.000Z</time>
      </trkpt>
      <trkpt lat="44.54933" lon="4.28242">
        <ele>432</ele>
        <time>2018-06-03T10:05:03.000Z</time>
      </trkpt>
      <trkpt lat="44.54936" lon="4.28241">
        <ele>432</ele>
        <time>2018-06-03T10:05:04.000Z</time>
      </trkpt>
      <trkpt lat="44.5494" lon="4.2824">
        <ele>432</ele>
        <time>2018-06-03T10:05:05.000Z</time>
      </trkpt>
      <trkpt lat="44.54944" lon="4.2824">
        <ele>432</ele>
        <time>2018-06-03T10:05:06.000Z</time>
      </trkpt>
      <trkpt lat="44.54948" lon="4.2824">
        <ele>432</ele>
        <time>2018-06-03T10:05:07.000Z</time>
      </trkpt>
      <trkpt lat="44.54952" lon="4.2824">
        <ele>432</ele>
        <time>2018-06-03T10:05:08.000Z</time>
      </trkpt>
      <trkpt lat="44.54956" lon="4.2824">
        <ele>432</ele>
        <time>2018-06-03T10:05:09.000Z</time>
      </trkpt>
      <trkpt lat="44.54959" lon="4.2824">
        <ele>432</ele>
        <time>2018-06-03T10:05:10.000Z</time>
      </trkpt>
      <trkpt lat="44.54963" lon="4.2824">
        <ele>432</ele>
        <time>2018-06-03T10:05:11.000Z</time>
      </trkpt>
      <trkpt lat="44.54967" lon="4.2824">
        <ele>431</ele>
        <time>2018-06-03T10:05:12.000Z</time>
      </trkpt>
      <trkpt lat="44.54971" lon="4.28239">
        <ele>431</ele>
        <time>2018-06-03T10:05:13.000Z</time>
      </trkpt>
      <trkpt lat="44.54974" lon="4.2824">
        <ele>431</ele>
        <time>2018-06-03T10:05:14.000Z</time>
      </trkpt>
      <trkpt lat="44.54977" lon="4.2824">
        <ele>430</ele>
        <time>2018-06-03T10:05:15.000Z</time>
      </trkpt>
      <trkpt lat="44.5498" lon="4.28241">
        <ele>430</ele>
        <time>2018-06-03T10:05:16.000Z</time>
      </trkpt>
      <trkpt lat="44.54983" lon="4.28243">
        <ele>430</ele>
        <time>2018-06-03T10:05:17.000Z</time>
      </trkpt>
      <trkpt lat="44.54984" lon="4.28245">
        <ele>429</ele>
        <time>2018-06-03T10:05:18.000Z</time>
      </trkpt>
      <trkpt lat="44.54983" lon="4.28247">
        <ele>429</ele>
        <time>2018-06-03T10:05:19.000Z</time>
      </trkpt>
      <trkpt lat="44.54982" lon="4.28249">
        <ele>429</ele>
        <time>2018-06-03T10:05:20.000Z</time>
      </trkpt>
      <trkpt lat="44.5498" lon="4.28252">
        <ele>421</ele>
        <time>2018-06-03T10:05:21.000Z</time>
      </trkpt>
      <trkpt lat="44.54977" lon="4.28256">
        <ele>420</ele>
        <time>2018-06-03T10:05:22.000Z</time>
      </trkpt>
      <trkpt lat="44.54974" lon="4.28259">
        <ele>420</ele>
        <time>2018-06-03T10:05:23.000Z</time>
      </trkpt>
      <trkpt lat="44.54972" lon="4.28261">
        <ele>420</ele>
        <time>2018-06-03T10:05:24.000Z</time>
      </trkpt>
      <trkpt lat="44.54971" lon="4.28264">
        <ele>419</ele>
        <time>2018-06-03T10:05:25.000Z</time>
      </trkpt>
      <trkpt lat="44.54971" lon="4.28267">
        <ele>419</ele>
        <time>2018-06-03T10:05:26.000Z</time>
      </trkpt>
      <trkpt lat="44.54971" lon="4.28271">
        <ele>419</ele>
        <time>2018-06-03T10:05:27.000Z</time>
      </trkpt>
      <trkpt lat="44.5497" lon="4.28274">
        <ele>418</ele>
        <time>2018-06-03T10:05:28.000Z</time>
      </trkpt>
      <trkpt lat="44.54968" lon="4.28276">
        <ele>418</ele>
        <time>2018-06-03T10:05:29.000Z</time>
      </trkpt>
      <trkpt lat="44.54967" lon="4.28277">
        <ele>418</ele>
        <time>2018-06-03T10:05:30.000Z</time>
      </trkpt>
      <trkpt lat="44.54967" lon="4.28279">
        <ele>418</ele>
        <time>2018-06-03T10:05:31.000Z</time>
      </trkpt>
      <trkpt lat="44.54965" lon="4.28281">
        <ele>417</ele>
        <time>2018-06-03T10:05:32.000Z</time>
      </trkpt>
      <trkpt lat="44.54964" lon="4.28284">
        <ele>417</ele>
        <time>2018-06-03T10:05:33.000Z</time>
      </trkpt>
      <trkpt lat="44.54961" lon="4.28286">
        <ele>417</ele>
        <time>2018-06-03T10:05:34.000Z</time>
      </trkpt>
      <trkpt lat="44.54959" lon="4.28288">
        <ele>416</ele>
        <time>2018-06-03T10:05:35.000Z</time>
      </trkpt>
      <trkpt lat="44.54957" lon="4.2829">
        <ele>416</ele>
        <time>2018-06-03T10:05:36.000Z</time>
      </trkpt>
      <trkpt lat="44.54954" lon="4.28292">
        <ele>416</ele>
        <time>2018-06-03T10:05:37.000Z</time>
      </trkpt>
      <trkpt lat="44.54952" lon="4.28294">
        <ele>416</ele>
        <time>2018-06-03T10:05:38.000Z</time>
      </trkpt>
      <trkpt lat="44.54949" lon="4.28296">
        <ele>416</ele>
        <time>2018-06-03T10:05:39.000Z</time>
      </trkpt>
      <trkpt lat="44.54946" lon="4.28297">
        <ele>415</ele>
        <time>2018-06-03T10:05:40.000Z</time>
      </trkpt>
      <trkpt lat="44.54943" lon="4.28297">
        <ele>415</ele>
        <time>2018-06-03T10:05:41.000Z</time>
      </trkpt>
      <trkpt lat="44.5494" lon="4.28298">
        <ele>415</ele>
        <time>2018-06-03T10:05:42.000Z</time>
      </trkpt>
      <trkpt lat="44.54937" lon="4.28299">
        <ele>415</ele>
        <time>2018-06-03T10:05:43.000Z</time>
      </trkpt>
      <trkpt lat="44.54934" lon="4.28299">
        <ele>415</ele>
        <time>2018-06-03T10:05:44.000Z</time>
      </trkpt>
      <trkpt lat="44.54931" lon="4.28299">
        <ele>415</ele>
        <time>2018-06-03T10:05:45.000Z</time>
      </trkpt>
      <trkpt lat="44.54927" lon="4.283">
        <ele>415</ele>
        <time>2018-06-03T10:05:46.000Z</time>
      </trkpt>
      <trkpt lat="44.54923" lon="4.283">
        <ele>415</ele>
        <time>2018-06-03T10:05:47.000Z</time>
      </trkpt>
      <trkpt lat="44.54919" lon="4.283">
        <ele>414</ele>
        <time>2018-06-03T10:05:48.000Z</time>
      </trkpt>
      <trkpt lat="44.54916" lon="4.283">
        <ele>418</ele>
        <time>2018-06-03T10:05:49.000Z</time>
      </trkpt>
      <trkpt lat="44.54913" lon="4.28301">
        <ele>418</ele>
        <time>2018-06-03T10:05:50.000Z</time>
      </trkpt>
      <trkpt lat="44.5491" lon="4.28301">
        <ele>418</ele>
        <time>2018-06-03T10:05:51.000Z</time>
      </trkpt>
      <trkpt lat="44.54907" lon="4.28302">
        <ele>418</ele>
        <time>2018-06-03T10:05:52.000Z</time>
      </trkpt>
      <trkpt lat="44.54903" lon="4.28302">
        <ele>418</ele>
        <time>2018-06-03T10:05:53.000Z</time>
      </trkpt>
      <trkpt lat="44.54901" lon="4.28303">
        <ele>418</ele>
        <time>2018-06-03T10:05:54.000Z</time>
      </trkpt>
      <trkpt lat="44.54898" lon="4.28303">
        <ele>418</ele>
        <time>2018-06-03T10:05:55.000Z</time>
      </trkpt>
      <trkpt lat="44.54895" lon="4.28305">
        <ele>418</ele>
        <time>2018-06-03T10:05:56.000Z</time>
      </trkpt>
      <trkpt lat="44.54891" lon="4.28305">
        <ele>418</ele>
        <time>2018-06-03T10:05:57.000Z</time>
      </trkpt>
      <trkpt lat="44.54888" lon="4.28307">
        <ele>419</ele>
        <time>2018-06-03T10:05:58.000Z</time>
      </trkpt>
      <trkpt lat="44.54885" lon="4.28308">
        <ele>419</ele>
        <time>2018-06-03T10:05:59.000Z</time>
      </trkpt>
      <trkpt lat="44.54882" lon="4.28309">
        <ele>419</ele>
        <time>2018-06-03T10:06:00.000Z</time>
      </trkpt>
      <trkpt lat="44.5488" lon="4.28309">
        <ele>419</ele>
        <time>2018-06-03T10:06:01.000Z</time>
      </trkpt>
      <trkpt lat="44.54878" lon="4.28309">
        <ele>419</ele>
        <time>2018-06-03T10:06:02.000Z</time>
      </trkpt>
      <trkpt lat="44.54876" lon="4.2831">
        <ele>419</ele>
        <time>2018-06-03T10:06:03.000Z</time>
      </trkpt>
      <trkpt lat="44.54875" lon="4.28311">
        <ele>419</ele>
        <time>2018-06-03T10:06:04.000Z</time>
      </trkpt>
      <trkpt lat="44.54874" lon="4.28314">
        <ele>419</ele>
        <time>2018-06-03T10:06:05.000Z</time>
      </trkpt>
      <trkpt lat="44.54872" lon="4.28315">
        <ele>419</ele>
        <time>2018-06-03T10:06:06.000Z</time>
      </trkpt>
      <trkpt lat="44.5487" lon="4.28315">
        <ele>419</ele>
        <time>2018-06-03T10:06:07.000Z</time>
      </trkpt>
      <trkpt lat="44.54868" lon="4.28317">
        <ele>419</ele>
        <time>2018-06-03T10:06:08.000Z</time>
      </trkpt>
      <trkpt lat="44.54866" lon="4.28319">
        <ele>419</ele>
        <time>2018-06-03T10:06:09.000Z</time>
      </trkpt>
      <trkpt lat="44.54863" lon="4.28321">
        <ele>419</ele>
        <time>2018-06-03T10:06:10.000Z</time>
      </trkpt>
      <trkpt lat="44.5486" lon="4.28323">
        <ele>419</ele>
        <time>2018-06-03T10:06:11.000Z</time>
      </trkpt>
      <trkpt lat="44.54857" lon="4.28325">
        <ele>418</ele>
        <time>2018-06-03T10:06:12.000Z</time>
      </trkpt>
      <trkpt lat="44.54854" lon="4.28328">
        <ele>418</ele>
        <time>2018-06-03T10:06:13.000Z</time>
      </trkpt>
      <trkpt lat="44.54851" lon="4.28331">
        <ele>418</ele>
        <time>2018-06-03T10:06:14.000Z</time>
      </trkpt>
      <trkpt lat="44.54848" lon="4.28334">
        <ele>407</ele>
        <time>2018-06-03T10:06:15.000Z</time>
      </trkpt>
      <trkpt lat="44.54844" lon="4.28336">
        <ele>408</ele>
        <time>2018-06-03T10:06:16.000Z</time>
      </trkpt>
      <trkpt lat="44.54842" lon="4.28339">
        <ele>409</ele>
        <time>2018-06-03T10:06:17.000Z</time>
      </trkpt>
      <trkpt lat="44.5484" lon="4.28342">
        <ele>408</ele>
        <time>2018-06-03T10:06:18.000Z</time>
      </trkpt>
      <trkpt lat="44.54837" lon="4.28344">
        <ele>408</ele>
        <time>2018-06-03T10:06:19.000Z</time>
      </trkpt>
      <trkpt lat="44.54834" lon="4.28348">
        <ele>406</ele>
        <time>2018-06-03T10:06:20.000Z</time>
      </trkpt>
      <trkpt lat="44.54832" lon="4.28351">
        <ele>412</ele>
        <time>2018-06-03T10:06:21.000Z</time>
      </trkpt>
      <trkpt lat="44.54829" lon="4.28355">
        <ele>411</ele>
        <time>2018-06-03T10:06:22.000Z</time>
      </trkpt>
      <trkpt lat="44.54825" lon="4.28358">
        <ele>410</ele>
        <time>2018-06-03T10:06:23.000Z</time>
      </trkpt>
      <trkpt lat="44.54823" lon="4.28361">
        <ele>410</ele>
        <time>2018-06-03T10:06:24.000Z</time>
      </trkpt>
      <trkpt lat="44.5482" lon="4.28364">
        <ele>409</ele>
        <time>2018-06-03T10:06:25.000Z</time>
      </trkpt>
      <trkpt lat="44.54818" lon="4.28367">
        <ele>409</ele>
        <time>2018-06-03T10:06:26.000Z</time>
      </trkpt>
      <trkpt lat="44.54815" lon="4.2837">
        <ele>408</ele>
        <time>2018-06-03T10:06:27.000Z</time>
      </trkpt>
      <trkpt lat="44.54813" lon="4.28374">
        <ele>408</ele>
        <time>2018-06-03T10:06:28.000Z</time>
      </trkpt>
      <trkpt lat="44.5481" lon="4.28377">
        <ele>408</ele>
        <time>2018-06-03T10:06:29.000Z</time>
      </trkpt>
      <trkpt lat="44.54806" lon="4.2838">
        <ele>407</ele>
        <time>2018-06-03T10:06:30.000Z</time>
      </trkpt>
      <trkpt lat="44.54802" lon="4.28382">
        <ele>408</ele>
        <time>2018-06-03T10:06:31.000Z</time>
      </trkpt>
      <trkpt lat="44.54798" lon="4.28385">
        <ele>407</ele>
        <time>2018-06-03T10:06:32.000Z</time>
      </trkpt>
      <trkpt lat="44.54794" lon="4.28389">
        <ele>407</ele>
        <time>2018-06-03T10:06:33.000Z</time>
      </trkpt>
      <trkpt lat="44.5479" lon="4.28392">
        <ele>408</ele>
        <time>2018-06-03T10:06:34.000Z</time>
      </trkpt>
      <trkpt lat="44.54787" lon="4.28396">
        <ele>408</ele>
        <time>2018-06-03T10:06:35.000Z</time>
      </trkpt>
      <trkpt lat="44.54784" lon="4.28399">
        <ele>408</ele>
        <time>2018-06-03T10:06:36.000Z</time>
      </trkpt>
      <trkpt lat="44.54782" lon="4.28401">
        <ele>408</ele>
        <time>2018-06-03T10:06:37.000Z</time>
      </trkpt>
      <trkpt lat="44.5478" lon="4.28404">
        <ele>408</ele>
        <time>2018-06-03T10:06:38.000Z</time>
      </trkpt>
      <trkpt lat="44.54778" lon="4.28406">
        <ele>408</ele>
        <time>2018-06-03T10:06:39.000Z</time>
      </trkpt>
      <trkpt lat="44.54776" lon="4.28407">
        <ele>408</ele>
        <time>2018-06-03T10:06:40.000Z</time>
      </trkpt>
      <trkpt lat="44.54775" lon="4.28408">
        <ele>408</ele>
        <time>2018-06-03T10:06:41.000Z</time>
      </trkpt>
      <trkpt lat="44.54773" lon="4.2841">
        <ele>408</ele>
        <time>2018-06-03T10:06:42.000Z</time>
      </trkpt>
      <trkpt lat="44.54772" lon="4.28411">
        <ele>408</ele>
        <time>2018-06-03T10:06:43.000Z</time>
      </trkpt>
      <trkpt lat="44.54771" lon="4.28411">
        <ele>408</ele>
        <time>2018-06-03T10:06:44.000Z</time>
      </trkpt>
      <trkpt lat="44.54771" lon="4.28412">
        <ele>408</ele>
        <time>2018-06-03T10:06:45.000Z</time>
      </trkpt>
      <trkpt lat="44.54771" lon="4.28412">
        <ele>408</ele>
        <time>2018-06-03T10:06:46.000Z</time>
      </trkpt>
      <trkpt lat="44.54771" lon="4.28412">
        <ele>408</ele>
        <time>2018-06-03T10:06:47.000Z</time>
      </trkpt>
      <trkpt lat="44.5477" lon="4.28412">
        <ele>408</ele>
        <time>2018-06-03T10:06:48.000Z</time>
      </trkpt>
      <trkpt lat="44.5477" lon="4.28413">
        <ele>408</ele>
        <time>2018-06-03T10:06:49.000Z</time>
      </trkpt>
      <trkpt lat="44.5477" lon="4.28413">
        <ele>408</ele>
        <time>2018-06-03T10:06:50.000Z</time>
      </trkpt>
      <trkpt lat="44.54769" lon="4.28414">
        <ele>408</ele>
        <time>2018-06-03T10:06:51.000Z</time>
      </trkpt>
      <trkpt lat="44.54768" lon="4.28414">
        <ele>408</ele>
        <time>2018-06-03T10:06:52.000Z</time>
      </trkpt>
      <trkpt lat="44.54767" lon="4.28415">
        <ele>408</ele>
        <time>2018-06-03T10:06:53.000Z</time>
      </trkpt>
      <trkpt lat="44.54766" lon="4.28415">
        <ele>408</ele>
        <time>2018-06-03T10:06:54.000Z</time>
      </trkpt>
      <trkpt lat="44.54765" lon="4.28416">
        <ele>408</ele>
        <time>2018-06-03T10:06:55.000Z</time>
      </trkpt>
      <trkpt lat="44.54764" lon="4.28416">
        <ele>408</ele>
        <time>2018-06-03T10:06:56.000Z</time>
      </trkpt>
      <trkpt lat="44.54763" lon="4.28416">
        <ele>408</ele>
        <time>2018-06-03T10:06:57.000Z</time>
      </trkpt>
      <trkpt lat="44.54763" lon="4.28417">
        <ele>399</ele>
        <time>2018-06-03T10:06:58.000Z</time>
      </trkpt>
      <trkpt lat="44.54762" lon="4.28417">
        <ele>400</ele>
        <time>2018-06-03T10:06:59.000Z</time>
      </trkpt>
      <trkpt lat="44.54762" lon="4.28417">
        <ele>400</ele>
        <time>2018-06-03T10:07:00.000Z</time>
      </trkpt>
      <trkpt lat="44.54761" lon="4.28418">
        <ele>400</ele>
        <time>2018-06-03T10:07:01.000Z</time>
      </trkpt>
      <trkpt lat="44.5476" lon="4.28418">
        <ele>401</ele>
        <time>2018-06-03T10:07:02.000Z</time>
      </trkpt>
      <trkpt lat="44.54758" lon="4.28419">
        <ele>402</ele>
        <time>2018-06-03T10:07:03.000Z</time>
      </trkpt>
      <trkpt lat="44.54757" lon="4.2842">
        <ele>402</ele>
        <time>2018-06-03T10:07:04.000Z</time>
      </trkpt>
      <trkpt lat="44.54755" lon="4.28422">
        <ele>402</ele>
        <time>2018-06-03T10:07:05.000Z</time>
      </trkpt>
      <trkpt lat="44.54753" lon="4.28424">
        <ele>402</ele>
        <time>2018-06-03T10:07:06.000Z</time>
      </trkpt>
      <trkpt lat="44.54751" lon="4.28426">
        <ele>401</ele>
        <time>2018-06-03T10:07:07.000Z</time>
      </trkpt>
      <trkpt lat="44.54749" lon="4.28428">
        <ele>408</ele>
        <time>2018-06-03T10:07:08.000Z</time>
      </trkpt>
      <trkpt lat="44.54748" lon="4.28429">
        <ele>408</ele>
        <time>2018-06-03T10:07:09.000Z</time>
      </trkpt>
      <trkpt lat="44.54747" lon="4.2843">
        <ele>407</ele>
        <time>2018-06-03T10:07:10.000Z</time>
      </trkpt>
      <trkpt lat="44.54746" lon="4.28432">
        <ele>407</ele>
        <time>2018-06-03T10:07:11.000Z</time>
      </trkpt>
      <trkpt lat="44.54746" lon="4.28434">
        <ele>407</ele>
        <time>2018-06-03T10:07:12.000Z</time>
      </trkpt>
      <trkpt lat="44.54746" lon="4.28437">
        <ele>407</ele>
        <time>2018-06-03T10:07:13.000Z</time>
      </trkpt>
      <trkpt lat="44.54746" lon="4.28442">
        <ele>406</ele>
        <time>2018-06-03T10:07:14.000Z</time>
      </trkpt>
      <trkpt lat="44.54745" lon="4.28446">
        <ele>406</ele>
        <time>2018-06-03T10:07:15.000Z</time>
      </trkpt>
      <trkpt lat="44.54743" lon="4.28451">
        <ele>405</ele>
        <time>2018-06-03T10:07:16.000Z</time>
      </trkpt>
      <trkpt lat="44.54741" lon="4.28456">
        <ele>404</ele>
        <time>2018-06-03T10:07:17.000Z</time>
      </trkpt>
      <trkpt lat="44.54739" lon="4.28459">
        <ele>404</ele>
        <time>2018-06-03T10:07:18.000Z</time>
      </trkpt>
      <trkpt lat="44.54738" lon="4.28462">
        <ele>403</ele>
        <time>2018-06-03T10:07:19.000Z</time>
      </trkpt>
      <trkpt lat="44.54736" lon="4.28466">
        <ele>403</ele>
        <time>2018-06-03T10:07:20.000Z</time>
      </trkpt>
      <trkpt lat="44.54736" lon="4.2847">
        <ele>402</ele>
        <time>2018-06-03T10:07:21.000Z</time>
      </trkpt>
      <trkpt lat="44.54736" lon="4.28472">
        <ele>401</ele>
        <time>2018-06-03T10:07:22.000Z</time>
      </trkpt>
      <trkpt lat="44.54736" lon="4.28472">
        <ele>401</ele>
        <time>2018-06-03T10:07:23.000Z</time>
      </trkpt>
      <trkpt lat="44.54738" lon="4.28472">
        <ele>401</ele>
        <time>2018-06-03T10:07:24.000Z</time>
      </trkpt>
      <trkpt lat="44.5474" lon="4.2847">
        <ele>401</ele>
        <time>2018-06-03T10:07:25.000Z</time>
      </trkpt>
      <trkpt lat="44.54742" lon="4.28467">
        <ele>402</ele>
        <time>2018-06-03T10:07:26.000Z</time>
      </trkpt>
      <trkpt lat="44.54744" lon="4.28463">
        <ele>402</ele>
        <time>2018-06-03T10:07:27.000Z</time>
      </trkpt>
      <trkpt lat="44.54745" lon="4.2846">
        <ele>403</ele>
        <time>2018-06-03T10:07:28.000Z</time>
      </trkpt>
      <trkpt lat="44.54746" lon="4.28457">
        <ele>404</ele>
        <time>2018-06-03T10:07:29.000Z</time>
      </trkpt>
      <trkpt lat="44.54747" lon="4.28457">
        <ele>404</ele>
        <time>2018-06-03T10:07:30.000Z</time>
      </trkpt>
      <trkpt lat="44.54748" lon="4.28459">
        <ele>403</ele>
        <time>2018-06-03T10:07:31.000Z</time>
      </trkpt>
      <trkpt lat="44.54747" lon="4.28461">
        <ele>403</ele>
        <time>2018-06-03T10:07:32.000Z</time>
      </trkpt>
      <trkpt lat="44.54746" lon="4.28464">
        <ele>402</ele>
        <time>2018-06-03T10:07:33.000Z</time>
      </trkpt>
      <trkpt lat="44.54746" lon="4.28466">
        <ele>402</ele>
        <time>2018-06-03T10:07:34.000Z</time>
      </trkpt>
      <trkpt lat="44.54746" lon="4.28467">
        <ele>401</ele>
        <time>2018-06-03T10:07:35.000Z</time>
      </trkpt>
      <trkpt lat="44.54745" lon="4.28467">
        <ele>401</ele>
        <time>2018-06-03T10:07:36.000Z</time>
      </trkpt>
      <trkpt lat="44.54745" lon="4.28467">
        <ele>401</ele>
        <time>2018-06-03T10:07:37.000Z</time>
      </trkpt>
      <trkpt lat="44.54745" lon="4.28467">
        <ele>401</ele>
        <time>2018-06-03T10:07:38.000Z</time>
      </trkpt>
      <trkpt lat="44.54745" lon="4.28466">
        <ele>402</ele>
        <time>2018-06-03T10:07:39.000Z</time>
      </trkpt>
      <trkpt lat="44.54745" lon="4.28466">
        <ele>402</ele>
        <time>2018-06-03T10:07:40.000Z</time>
      </trkpt>
      <trkpt lat="44.54745" lon="4.28466">
        <ele>402</ele>
        <time>2018-06-03T10:07:41.000Z</time>
      </trkpt>
      <trkpt lat="44.54745" lon="4.28466">
        <ele>402</ele>
        <time>2018-06-03T10:07:42.000Z</time>
      </trkpt>
      <trkpt lat="44.54745" lon="4.28466">
        <ele>402</ele>
        <time>2018-06-03T10:07:43.000Z</time>
      </trkpt>
      <trkpt lat="44.54745" lon="4.28466">
        <ele>402</ele>
        <time>2018-06-03T10:07:44.000Z</time>
      </trkpt>
      <trkpt lat="44.54745" lon="4.28468">
        <ele>401</ele>
        <time>2018-06-03T10:07:45.000Z</time>
      </trkpt>
      <trkpt lat="44.54744" lon="4.2847">
        <ele>401</ele>
        <time>2018-06-03T10:07:46.000Z</time>
      </trkpt>
      <trkpt lat="44.54742" lon="4.28473">
        <ele>400</ele>
        <time>2018-06-03T10:07:47.000Z</time>
      </trkpt>
      <trkpt lat="44.54741" lon="4.28477">
        <ele>399</ele>
        <time>2018-06-03T10:07:48.000Z</time>
      </trkpt>
      <trkpt lat="44.54739" lon="4.2848">
        <ele>398</ele>
        <time>2018-06-03T10:07:49.000Z</time>
      </trkpt>
      <trkpt lat="44.54738" lon="4.28485">
        <ele>396</ele>
        <time>2018-06-03T10:07:50.000Z</time>
      </trkpt>
      <trkpt lat="44.54736" lon="4.28491">
        <ele>395</ele>
        <time>2018-06-03T10:07:51.000Z</time>
      </trkpt>
      <trkpt lat="44.54734" lon="4.28498">
        <ele>395</ele>
        <time>2018-06-03T10:07:52.000Z</time>
      </trkpt>
      <trkpt lat="44.54734" lon="4.28504">
        <ele>385</ele>
        <time>2018-06-03T10:07:53.000Z</time>
      </trkpt>
      <trkpt lat="44.54733" lon="4.28509">
        <ele>385</ele>
        <time>2018-06-03T10:07:54.000Z</time>
      </trkpt>
      <trkpt lat="44.54734" lon="4.28511">
        <ele>385</ele>
        <time>2018-06-03T10:07:55.000Z</time>
      </trkpt>
      <trkpt lat="44.54735" lon="4.28512">
        <ele>384</ele>
        <time>2018-06-03T10:07:56.000Z</time>
      </trkpt>
      <trkpt lat="44.54736" lon="4.28511">
        <ele>384</ele>
        <time>2018-06-03T10:07:57.000Z</time>
      </trkpt>
      <trkpt lat="44.54736" lon="4.2851">
        <ele>384</ele>
        <time>2018-06-03T10:07:58.000Z</time>
      </trkpt>
      <trkpt lat="44.54736" lon="4.28508">
        <ele>384</ele>
        <time>2018-06-03T10:07:59.000Z</time>
      </trkpt>
      <trkpt lat="44.54737" lon="4.28507">
        <ele>384</ele>
        <time>2018-06-03T10:08:00.000Z</time>
      </trkpt>
      <trkpt lat="44.54737" lon="4.28507">
        <ele>384</ele>
        <time>2018-06-03T10:08:01.000Z</time>
      </trkpt>
      <trkpt lat="44.54737" lon="4.28508">
        <ele>384</ele>
        <time>2018-06-03T10:08:02.000Z</time>
      </trkpt>
      <trkpt lat="44.54738" lon="4.28509">
        <ele>384</ele>
        <time>2018-06-03T10:08:03.000Z</time>
      </trkpt>
      <trkpt lat="44.54739" lon="4.28512">
        <ele>384</ele>
        <time>2018-06-03T10:08:04.000Z</time>
      </trkpt>
      <trkpt lat="44.5474" lon="4.28517">
        <ele>384</ele>
        <time>2018-06-03T10:08:05.000Z</time>
      </trkpt>
      <trkpt lat="44.54741" lon="4.28522">
        <ele>384</ele>
        <time>2018-06-03T10:08:06.000Z</time>
      </trkpt>
      <trkpt lat="44.5474" lon="4.28528">
        <ele>383</ele>
        <time>2018-06-03T10:08:07.000Z</time>
      </trkpt>
      <trkpt lat="44.54739" lon="4.28533">
        <ele>383</ele>
        <time>2018-06-03T10:08:08.000Z</time>
      </trkpt>
      <trkpt lat="44.54738" lon="4.2854">
        <ele>382</ele>
        <time>2018-06-03T10:08:09.000Z</time>
      </trkpt>
      <trkpt lat="44.54736" lon="4.28547">
        <ele>381</ele>
        <time>2018-06-03T10:08:10.000Z</time>
      </trkpt>
      <trkpt lat="44.54735" lon="4.28554">
        <ele>379</ele>
        <time>2018-06-03T10:08:11.000Z</time>
      </trkpt>
      <trkpt lat="44.54735" lon="4.28559">
        <ele>378</ele>
        <time>2018-06-03T10:08:12.000Z</time>
      </trkpt>
      <trkpt lat="44.54737" lon="4.28558">
        <ele>378</ele>
        <time>2018-06-03T10:08:13.000Z</time>
      </trkpt>
      <trkpt lat="44.54739" lon="4.28555">
        <ele>379</ele>
        <time>2018-06-03T10:08:14.000Z</time>
      </trkpt>
      <trkpt lat="44.54742" lon="4.28551">
        <ele>379</ele>
        <time>2018-06-03T10:08:15.000Z</time>
      </trkpt>
      <trkpt lat="44.54745" lon="4.28546">
        <ele>380</ele>
        <time>2018-06-03T10:08:16.000Z</time>
      </trkpt>
      <trkpt lat="44.54748" lon="4.28541">
        <ele>381</ele>
        <time>2018-06-03T10:08:17.000Z</time>
      </trkpt>
      <trkpt lat="44.54751" lon="4.28535">
        <ele>369</ele>
        <time>2018-06-03T10:08:18.000Z</time>
      </trkpt>
      <trkpt lat="44.54756" lon="4.28529">
        <ele>370</ele>
        <time>2018-06-03T10:08:19.000Z</time>
      </trkpt>
      <trkpt lat="44.54761" lon="4.28525">
        <ele>371</ele>
        <time>2018-06-03T10:08:20.000Z</time>
      </trkpt>
      <trkpt lat="44.54766" lon="4.2852">
        <ele>371</ele>
        <time>2018-06-03T10:08:21.000Z</time>
      </trkpt>
      <trkpt lat="44.5477" lon="4.28514">
        <ele>372</ele>
        <time>2018-06-03T10:08:22.000Z</time>
      </trkpt>
      <trkpt lat="44.54775" lon="4.28508">
        <ele>371</ele>
        <time>2018-06-03T10:08:23.000Z</time>
      </trkpt>
      <trkpt lat="44.5478" lon="4.28502">
        <ele>370</ele>
        <time>2018-06-03T10:08:24.000Z</time>
      </trkpt>
      <trkpt lat="44.54785" lon="4.28497">
        <ele>382</ele>
        <time>2018-06-03T10:08:25.000Z</time>
      </trkpt>
      <trkpt lat="44.5479" lon="4.28494">
        <ele>382</ele>
        <time>2018-06-03T10:08:26.000Z</time>
      </trkpt>
      <trkpt lat="44.54793" lon="4.28492">
        <ele>381</ele>
        <time>2018-06-03T10:08:27.000Z</time>
      </trkpt>
      <trkpt lat="44.54797" lon="4.28492">
        <ele>381</ele>
        <time>2018-06-03T10:08:28.000Z</time>
      </trkpt>
      <trkpt lat="44.548" lon="4.28493">
        <ele>380</ele>
        <time>2018-06-03T10:08:29.000Z</time>
      </trkpt>
      <trkpt lat="44.54802" lon="4.28495">
        <ele>379</ele>
        <time>2018-06-03T10:08:30.000Z</time>
      </trkpt>
      <trkpt lat="44.54802" lon="4.28496">
        <ele>379</ele>
        <time>2018-06-03T10:08:31.000Z</time>
      </trkpt>
      <trkpt lat="44.548" lon="4.28498">
        <ele>379</ele>
        <time>2018-06-03T10:08:32.000Z</time>
      </trkpt>
      <trkpt lat="44.54797" lon="4.28499">
        <ele>380</ele>
        <time>2018-06-03T10:08:33.000Z</time>
      </trkpt>
      <trkpt lat="44.54793" lon="4.28502">
        <ele>368</ele>
        <time>2018-06-03T10:08:34.000Z</time>
      </trkpt>
      <trkpt lat="44.54789" lon="4.28505">
        <ele>368</ele>
        <time>2018-06-03T10:08:35.000Z</time>
      </trkpt>
      <trkpt lat="44.54786" lon="4.2851">
        <ele>369</ele>
        <time>2018-06-03T10:08:36.000Z</time>
      </trkpt>
      <trkpt lat="44.54783" lon="4.28516">
        <ele>369</ele>
        <time>2018-06-03T10:08:37.000Z</time>
      </trkpt>
      <trkpt lat="44.5478" lon="4.28523">
        <ele>368</ele>
        <time>2018-06-03T10:08:38.000Z</time>
      </trkpt>
      <trkpt lat="44.54778" lon="4.2853">
        <ele>368</ele>
        <time>2018-06-03T10:08:39.000Z</time>
      </trkpt>
      <trkpt lat="44.54776" lon="4.28537">
        <ele>367</ele>
        <time>2018-06-03T10:08:40.000Z</time>
      </trkpt>
      <trkpt lat="44.54774" lon="4.28543">
        <ele>366</ele>
        <time>2018-06-03T10:08:41.000Z</time>
      </trkpt>
      <trkpt lat="44.54773" lon="4.28548">
        <ele>366</ele>
        <time>2018-06-03T10:08:42.000Z</time>
      </trkpt>
      <trkpt lat="44.54772" lon="4.28553">
        <ele>365</ele>
        <time>2018-06-03T10:08:43.000Z</time>
      </trkpt>
      <trkpt lat="44.5477" lon="4.28559">
        <ele>365</ele>
        <time>2018-06-03T10:08:44.000Z</time>
      </trkpt>
      <trkpt lat="44.54769" lon="4.28565">
        <ele>365</ele>
        <time>2018-06-03T10:08:45.000Z</time>
      </trkpt>
      <trkpt lat="44.54767" lon="4.28572">
        <ele>364</ele>
        <time>2018-06-03T10:08:46.000Z</time>
      </trkpt>
      <trkpt lat="44.54765" lon="4.28579">
        <ele>364</ele>
        <time>2018-06-03T10:08:47.000Z</time>
      </trkpt>
      <trkpt lat="44.54762" lon="4.28586">
        <ele>358</ele>
        <time>2018-06-03T10:08:48.000Z</time>
      </trkpt>
      <trkpt lat="44.54759" lon="4.28594">
        <ele>357</ele>
        <time>2018-06-03T10:08:49.000Z</time>
      </trkpt>
      <trkpt lat="44.54756" lon="4.28602">
        <ele>355</ele>
        <time>2018-06-03T10:08:50.000Z</time>
      </trkpt>
      <trkpt lat="44.54753" lon="4.2861">
        <ele>353</ele>
        <time>2018-06-03T10:08:51.000Z</time>
      </trkpt>
      <trkpt lat="44.5475" lon="4.28617">
        <ele>361</ele>
        <time>2018-06-03T10:08:52.000Z</time>
      </trkpt>
      <trkpt lat="44.54748" lon="4.28623">
        <ele>360</ele>
        <time>2018-06-03T10:08:53.000Z</time>
      </trkpt>
      <trkpt lat="44.54747" lon="4.28628">
        <ele>359</ele>
        <time>2018-06-03T10:08:54.000Z</time>
      </trkpt>
      <trkpt lat="44.54747" lon="4.28631">
        <ele>359</ele>
        <time>2018-06-03T10:08:55.000Z</time>
      </trkpt>
      <trkpt lat="44.54746" lon="4.28632">
        <ele>358</ele>
        <time>2018-06-03T10:08:56.000Z</time>
      </trkpt>
      <trkpt lat="44.54744" lon="4.28633">
        <ele>358</ele>
        <time>2018-06-03T10:08:57.000Z</time>
      </trkpt>
      <trkpt lat="44.54743" lon="4.28635">
        <ele>358</ele>
        <time>2018-06-03T10:08:58.000Z</time>
      </trkpt>
      <trkpt lat="44.54742" lon="4.28636">
        <ele>358</ele>
        <time>2018-06-03T10:08:59.000Z</time>
      </trkpt>
      <trkpt lat="44.54742" lon="4.28637">
        <ele>358</ele>
        <time>2018-06-03T10:09:00.000Z</time>
      </trkpt>
      <trkpt lat="44.54742" lon="4.28639">
        <ele>357</ele>
        <time>2018-06-03T10:09:01.000Z</time>
      </trkpt>
      <trkpt lat="44.54743" lon="4.28641">
        <ele>357</ele>
        <time>2018-06-03T10:09:02.000Z</time>
      </trkpt>
      <trkpt lat="44.54743" lon="4.28644">
        <ele>356</ele>
        <time>2018-06-03T10:09:03.000Z</time>
      </trkpt>
      <trkpt lat="44.54741" lon="4.28648">
        <ele>355</ele>
        <time>2018-06-03T10:09:04.000Z</time>
      </trkpt>
      <trkpt lat="44.54739" lon="4.28653">
        <ele>354</ele>
        <time>2018-06-03T10:09:05.000Z</time>
      </trkpt>
      <trkpt lat="44.54737" lon="4.28658">
        <ele>354</ele>
        <time>2018-06-03T10:09:06.000Z</time>
      </trkpt>
      <trkpt lat="44.54735" lon="4.28663">
        <ele>353</ele>
        <time>2018-06-03T10:09:07.000Z</time>
      </trkpt>
      <trkpt lat="44.54733" lon="4.28668">
        <ele>345</ele>
        <time>2018-06-03T10:09:08.000Z</time>
      </trkpt>
      <trkpt lat="44.5473" lon="4.28672">
        <ele>345</ele>
        <time>2018-06-03T10:09:09.000Z</time>
      </trkpt>
      <trkpt lat="44.54728" lon="4.28676">
        <ele>344</ele>
        <time>2018-06-03T10:09:10.000Z</time>
      </trkpt>
      <trkpt lat="44.54725" lon="4.28681">
        <ele>344</ele>
        <time>2018-06-03T10:09:11.000Z</time>
      </trkpt>
      <trkpt lat="44.54723" lon="4.28686">
        <ele>344</ele>
        <time>2018-06-03T10:09:12.000Z</time>
      </trkpt>
      <trkpt lat="44.5472" lon="4.2869">
        <ele>343</ele>
        <time>2018-06-03T10:09:13.000Z</time>
      </trkpt>
      <trkpt lat="44.54716" lon="4.28696">
        <ele>343</ele>
        <time>2018-06-03T10:09:14.000Z</time>
      </trkpt>
      <trkpt lat="44.54711" lon="4.28703">
        <ele>342</ele>
        <time>2018-06-03T10:09:15.000Z</time>
      </trkpt>
      <trkpt lat="44.54705" lon="4.2871">
        <ele>342</ele>
        <time>2018-06-03T10:09:16.000Z</time>
      </trkpt>
      <trkpt lat="44.54698" lon="4.28717">
        <ele>341</ele>
        <time>2018-06-03T10:09:17.000Z</time>
      </trkpt>
      <trkpt lat="44.54692" lon="4.28723">
        <ele>340</ele>
        <time>2018-06-03T10:09:18.000Z</time>
      </trkpt>
      <trkpt lat="44.54685" lon="4.2873">
        <ele>340</ele>
        <time>2018-06-03T10:09:19.000Z</time>
      </trkpt>
      <trkpt lat="44.5468" lon="4.28736">
        <ele>339</ele>
        <time>2018-06-03T10:09:20.000Z</time>
      </trkpt>
      <trkpt lat="44.54674" lon="4.28741">
        <ele>338</ele>
        <time>2018-06-03T10:09:21.000Z</time>
      </trkpt>
      <trkpt lat="44.5467" lon="4.28745">
        <ele>336</ele>
        <time>2018-06-03T10:09:22.000Z</time>
      </trkpt>
      <trkpt lat="44.54666" lon="4.28748">
        <ele>336</ele>
        <time>2018-06-03T10:09:23.000Z</time>
      </trkpt>
      <trkpt lat="44.54663" lon="4.2875">
        <ele>334</ele>
        <time>2018-06-03T10:09:24.000Z</time>
      </trkpt>
      <trkpt lat="44.5466" lon="4.28753">
        <ele>333</ele>
        <time>2018-06-03T10:09:25.000Z</time>
      </trkpt>
      <trkpt lat="44.54655" lon="4.28756">
        <ele>331</ele>
        <time>2018-06-03T10:09:26.000Z</time>
      </trkpt>
      <trkpt lat="44.5465" lon="4.2876">
        <ele>330</ele>
        <time>2018-06-03T10:09:27.000Z</time>
      </trkpt>
      <trkpt lat="44.54644" lon="4.28764">
        <ele>329</ele>
        <time>2018-06-03T10:09:28.000Z</time>
      </trkpt>
      <trkpt lat="44.54638" lon="4.28769">
        <ele>329</ele>
        <time>2018-06-03T10:09:29.000Z</time>
      </trkpt>
      <trkpt lat="44.54634" lon="4.28773">
        <ele>328</ele>
        <time>2018-06-03T10:09:30.000Z</time>
      </trkpt>
      <trkpt lat="44.5463" lon="4.28776">
        <ele>328</ele>
        <time>2018-06-03T10:09:31.000Z</time>
      </trkpt>
      <trkpt lat="44.54626" lon="4.2878">
        <ele>327</ele>
        <time>2018-06-03T10:09:32.000Z</time>
      </trkpt>
      <trkpt lat="44.54623" lon="4.28783">
        <ele>327</ele>
        <time>2018-06-03T10:09:33.000Z</time>
      </trkpt>
      <trkpt lat="44.5462" lon="4.28786">
        <ele>327</ele>
        <time>2018-06-03T10:09:34.000Z</time>
      </trkpt>
      <trkpt lat="44.54616" lon="4.28789">
        <ele>326</ele>
        <time>2018-06-03T10:09:35.000Z</time>
      </trkpt>
      <trkpt lat="44.54612" lon="4.28792">
        <ele>326</ele>
        <time>2018-06-03T10:09:36.000Z</time>
      </trkpt>
      <trkpt lat="44.54608" lon="4.28795">
        <ele>326</ele>
        <time>2018-06-03T10:09:37.000Z</time>
      </trkpt>
      <trkpt lat="44.54604" lon="4.28799">
        <ele>325</ele>
        <time>2018-06-03T10:09:38.000Z</time>
      </trkpt>
      <trkpt lat="44.546" lon="4.28803">
        <ele>324</ele>
        <time>2018-06-03T10:09:39.000Z</time>
      </trkpt>
      <trkpt lat="44.54596" lon="4.28806">
        <ele>324</ele>
        <time>2018-06-03T10:09:40.000Z</time>
      </trkpt>
      <trkpt lat="44.54594" lon="4.28808">
        <ele>323</ele>
        <time>2018-06-03T10:09:41.000Z</time>
      </trkpt>
      <trkpt lat="44.54591" lon="4.2881">
        <ele>323</ele>
        <time>2018-06-03T10:09:42.000Z</time>
      </trkpt>
      <trkpt lat="44.54588" lon="4.28812">
        <ele>322</ele>
        <time>2018-06-03T10:09:43.000Z</time>
      </trkpt>
      <trkpt lat="44.54585" lon="4.28815">
        <ele>322</ele>
        <time>2018-06-03T10:09:44.000Z</time>
      </trkpt>
      <trkpt lat="44.54583" lon="4.28818">
        <ele>323</ele>
        <time>2018-06-03T10:09:45.000Z</time>
      </trkpt>
      <trkpt lat="44.5458" lon="4.2882">
        <ele>322</ele>
        <time>2018-06-03T10:09:46.000Z</time>
      </trkpt>
      <trkpt lat="44.54578" lon="4.28823">
        <ele>321</ele>
        <time>2018-06-03T10:09:47.000Z</time>
      </trkpt>
      <trkpt lat="44.54575" lon="4.28827">
        <ele>321</ele>
        <time>2018-06-03T10:09:48.000Z</time>
      </trkpt>
      <trkpt lat="44.54573" lon="4.2883">
        <ele>321</ele>
        <time>2018-06-03T10:09:49.000Z</time>
      </trkpt>
      <trkpt lat="44.54571" lon="4.28833">
        <ele>321</ele>
        <time>2018-06-03T10:09:50.000Z</time>
      </trkpt>
      <trkpt lat="44.54569" lon="4.28836">
        <ele>311</ele>
        <time>2018-06-03T10:09:51.000Z</time>
      </trkpt>
      <trkpt lat="44.54566" lon="4.28839">
        <ele>310</ele>
        <time>2018-06-03T10:09:52.000Z</time>
      </trkpt>
      <trkpt lat="44.54562" lon="4.28842">
        <ele>309</ele>
        <time>2018-06-03T10:09:53.000Z</time>
      </trkpt>
      <trkpt lat="44.5456" lon="4.28846">
        <ele>308</ele>
        <time>2018-06-03T10:09:54.000Z</time>
      </trkpt>
      <trkpt lat="44.54556" lon="4.28851">
        <ele>307</ele>
        <time>2018-06-03T10:09:55.000Z</time>
      </trkpt>
      <trkpt lat="44.54552" lon="4.28855">
        <ele>307</ele>
        <time>2018-06-03T10:09:56.000Z</time>
      </trkpt>
      <trkpt lat="44.54549" lon="4.28859">
        <ele>306</ele>
        <time>2018-06-03T10:09:57.000Z</time>
      </trkpt>
      <trkpt lat="44.54547" lon="4.28862">
        <ele>306</ele>
        <time>2018-06-03T10:09:58.000Z</time>
      </trkpt>
      <trkpt lat="44.54543" lon="4.28865">
        <ele>305</ele>
        <time>2018-06-03T10:09:59.000Z</time>
      </trkpt>
      <trkpt lat="44.54538" lon="4.28868">
        <ele>305</ele>
        <time>2018-06-03T10:10:00.000Z</time>
      </trkpt>
      <trkpt lat="44.54533" lon="4.28871">
        <ele>305</ele>
        <time>2018-06-03T10:10:01.000Z</time>
      </trkpt>
      <trkpt lat="44.54527" lon="4.28873">
        <ele>304</ele>
        <time>2018-06-03T10:10:02.000Z</time>
      </trkpt>
      <trkpt lat="44.54521" lon="4.28875">
        <ele>304</ele>
        <time>2018-06-03T10:10:03.000Z</time>
      </trkpt>
      <trkpt lat="44.54516" lon="4.28877">
        <ele>304</ele>
        <time>2018-06-03T10:10:04.000Z</time>
      </trkpt>
      <trkpt lat="44.5451" lon="4.28879">
        <ele>304</ele>
        <time>2018-06-03T10:10:05.000Z</time>
      </trkpt>
      <trkpt lat="44.54505" lon="4.28881">
        <ele>303</ele>
        <time>2018-06-03T10:10:06.000Z</time>
      </trkpt>
      <trkpt lat="44.54501" lon="4.28882">
        <ele>303</ele>
        <time>2018-06-03T10:10:07.000Z</time>
      </trkpt>
      <trkpt lat="44.54498" lon="4.28885">
        <ele>306</ele>
        <time>2018-06-03T10:10:08.000Z</time>
      </trkpt>
      <trkpt lat="44.54496" lon="4.28887">
        <ele>306</ele>
        <time>2018-06-03T10:10:09.000Z</time>
      </trkpt>
      <trkpt lat="44.54493" lon="4.28888">
        <ele>306</ele>
        <time>2018-06-03T10:10:10.000Z</time>
      </trkpt>
      <trkpt lat="44.5449" lon="4.2889">
        <ele>305</ele>
        <time>2018-06-03T10:10:11.000Z</time>
      </trkpt>
      <trkpt lat="44.54486" lon="4.28893">
        <ele>305</ele>
        <time>2018-06-03T10:10:12.000Z</time>
      </trkpt>
      <trkpt lat="44.54482" lon="4.28895">
        <ele>305</ele>
        <time>2018-06-03T10:10:13.000Z</time>
      </trkpt>
      <trkpt lat="44.54479" lon="4.28898">
        <ele>305</ele>
        <time>2018-06-03T10:10:14.000Z</time>
      </trkpt>
      <trkpt lat="44.54477" lon="4.28902">
        <ele>304</ele>
        <time>2018-06-03T10:10:15.000Z</time>
      </trkpt>
      <trkpt lat="44.54475" lon="4.28906">
        <ele>304</ele>
        <time>2018-06-03T10:10:16.000Z</time>
      </trkpt>
      <trkpt lat="44.54472" lon="4.2891">
        <ele>304</ele>
        <time>2018-06-03T10:10:17.000Z</time>
      </trkpt>
      <trkpt lat="44.54468" lon="4.28914">
        <ele>305</ele>
        <time>2018-06-03T10:10:18.000Z</time>
      </trkpt>
      <trkpt lat="44.54463" lon="4.28917">
        <ele>288</ele>
        <time>2018-06-03T10:10:19.000Z</time>
      </trkpt>
      <trkpt lat="44.54458" lon="4.2892">
        <ele>288</ele>
        <time>2018-06-03T10:10:20.000Z</time>
      </trkpt>
      <trkpt lat="44.54452" lon="4.28923">
        <ele>289</ele>
        <time>2018-06-03T10:10:21.000Z</time>
      </trkpt>
      <trkpt lat="44.54447" lon="4.28927">
        <ele>289</ele>
        <time>2018-06-03T10:10:22.000Z</time>
      </trkpt>
      <trkpt lat="44.54441" lon="4.28931">
        <ele>290</ele>
        <time>2018-06-03T10:10:23.000Z</time>
      </trkpt>
      <trkpt lat="44.54436" lon="4.28933">
        <ele>290</ele>
        <time>2018-06-03T10:10:24.000Z</time>
      </trkpt>
      <trkpt lat="44.54432" lon="4.28935">
        <ele>291</ele>
        <time>2018-06-03T10:10:25.000Z</time>
      </trkpt>
      <trkpt lat="44.54429" lon="4.28936">
        <ele>291</ele>
        <time>2018-06-03T10:10:26.000Z</time>
      </trkpt>
      <trkpt lat="44.54427" lon="4.28939">
        <ele>290</ele>
        <time>2018-06-03T10:10:27.000Z</time>
      </trkpt>
      <trkpt lat="44.54425" lon="4.28942">
        <ele>289</ele>
        <time>2018-06-03T10:10:28.000Z</time>
      </trkpt>
      <trkpt lat="44.54422" lon="4.28947">
        <ele>288</ele>
        <time>2018-06-03T10:10:29.000Z</time>
      </trkpt>
      <trkpt lat="44.54419" lon="4.28953">
        <ele>286</ele>
        <time>2018-06-03T10:10:30.000Z</time>
      </trkpt>
      <trkpt lat="44.54417" lon="4.28959">
        <ele>285</ele>
        <time>2018-06-03T10:10:31.000Z</time>
      </trkpt>
      <trkpt lat="44.54415" lon="4.28967">
        <ele>286</ele>
        <time>2018-06-03T10:10:32.000Z</time>
      </trkpt>
      <trkpt lat="44.54413" lon="4.28974">
        <ele>284</ele>
        <time>2018-06-03T10:10:33.000Z</time>
      </trkpt>
      <trkpt lat="44.5441" lon="4.28982">
        <ele>282</ele>
        <time>2018-06-03T10:10:34.000Z</time>
      </trkpt>
      <trkpt lat="44.54407" lon="4.28989">
        <ele>281</ele>
        <time>2018-06-03T10:10:35.000Z</time>
      </trkpt>
      <trkpt lat="44.54403" lon="4.28996">
        <ele>280</ele>
        <time>2018-06-03T10:10:36.000Z</time>
      </trkpt>
      <trkpt lat="44.54398" lon="4.29004">
        <ele>270</ele>
        <time>2018-06-03T10:10:37.000Z</time>
      </trkpt>
      <trkpt lat="44.54394" lon="4.29013">
        <ele>268</ele>
        <time>2018-06-03T10:10:38.000Z</time>
      </trkpt>
      <trkpt lat="44.54391" lon="4.2902">
        <ele>267</ele>
        <time>2018-06-03T10:10:39.000Z</time>
      </trkpt>
      <trkpt lat="44.54388" lon="4.29026">
        <ele>266</ele>
        <time>2018-06-03T10:10:40.000Z</time>
      </trkpt>
      <trkpt lat="44.54385" lon="4.29031">
        <ele>265</ele>
        <time>2018-06-03T10:10:41.000Z</time>
      </trkpt>
      <trkpt lat="44.54381" lon="4.29034">
        <ele>265</ele>
        <time>2018-06-03T10:10:42.000Z</time>
      </trkpt>
      <trkpt lat="44.54376" lon="4.29035">
        <ele>265</ele>
        <time>2018-06-03T10:10:43.000Z</time>
      </trkpt>
      <trkpt lat="44.54371" lon="4.29034">
        <ele>265</ele>
        <time>2018-06-03T10:10:44.000Z</time>
      </trkpt>
      <trkpt lat="44.54367" lon="4.29034">
        <ele>265</ele>
        <time>2018-06-03T10:10:45.000Z</time>
      </trkpt>
      <trkpt lat="44.54364" lon="4.29033">
        <ele>266</ele>
        <time>2018-06-03T10:10:46.000Z</time>
      </trkpt>
      <trkpt lat="44.54361" lon="4.29033">
        <ele>266</ele>
        <time>2018-06-03T10:10:47.000Z</time>
      </trkpt>
      <trkpt lat="44.54357" lon="4.29033">
        <ele>266</ele>
        <time>2018-06-03T10:10:48.000Z</time>
      </trkpt>
      <trkpt lat="44.54353" lon="4.29034">
        <ele>266</ele>
        <time>2018-06-03T10:10:49.000Z</time>
      </trkpt>
      <trkpt lat="44.54348" lon="4.29034">
        <ele>266</ele>
        <time>2018-06-03T10:10:50.000Z</time>
      </trkpt>
      <trkpt lat="44.54341" lon="4.29033">
        <ele>266</ele>
        <time>2018-06-03T10:10:51.000Z</time>
      </trkpt>
      <trkpt lat="44.54334" lon="4.29031">
        <ele>267</ele>
        <time>2018-06-03T10:10:52.000Z</time>
      </trkpt>
      <trkpt lat="44.54328" lon="4.29029">
        <ele>262</ele>
        <time>2018-06-03T10:10:53.000Z</time>
      </trkpt>
      <trkpt lat="44.54321" lon="4.29027">
        <ele>262</ele>
        <time>2018-06-03T10:10:54.000Z</time>
      </trkpt>
      <trkpt lat="44.54315" lon="4.29024">
        <ele>262</ele>
        <time>2018-06-03T10:10:55.000Z</time>
      </trkpt>
      <trkpt lat="44.5431" lon="4.29022">
        <ele>261</ele>
        <time>2018-06-03T10:10:56.000Z</time>
      </trkpt>
      <trkpt lat="44.54306" lon="4.2902">
        <ele>261</ele>
        <time>2018-06-03T10:10:57.000Z</time>
      </trkpt>
      <trkpt lat="44.54302" lon="4.29019">
        <ele>260</ele>
        <time>2018-06-03T10:10:58.000Z</time>
      </trkpt>
      <trkpt lat="44.543" lon="4.29018">
        <ele>260</ele>
        <time>2018-06-03T10:10:59.000Z</time>
      </trkpt>
      <trkpt lat="44.54298" lon="4.29017">
        <ele>259</ele>
        <time>2018-06-03T10:11:00.000Z</time>
      </trkpt>
      <trkpt lat="44.54296" lon="4.29017">
        <ele>259</ele>
        <time>2018-06-03T10:11:01.000Z</time>
      </trkpt>
      <trkpt lat="44.54295" lon="4.29016">
        <ele>259</ele>
        <time>2018-06-03T10:11:02.000Z</time>
      </trkpt>
      <trkpt lat="44.54293" lon="4.29016">
        <ele>259</ele>
        <time>2018-06-03T10:11:03.000Z</time>
      </trkpt>
      <trkpt lat="44.54292" lon="4.29015">
        <ele>259</ele>
        <time>2018-06-03T10:11:04.000Z</time>
      </trkpt>
      <trkpt lat="44.54291" lon="4.29015">
        <ele>258</ele>
        <time>2018-06-03T10:11:05.000Z</time>
      </trkpt>
      <trkpt lat="44.54289" lon="4.29015">
        <ele>258</ele>
        <time>2018-06-03T10:11:06.000Z</time>
      </trkpt>
      <trkpt lat="44.54287" lon="4.29014">
        <ele>258</ele>
        <time>2018-06-03T10:11:07.000Z</time>
      </trkpt>
      <trkpt lat="44.54284" lon="4.29014">
        <ele>257</ele>
        <time>2018-06-03T10:11:08.000Z</time>
      </trkpt>
      <trkpt lat="44.5428" lon="4.29014">
        <ele>257</ele>
        <time>2018-06-03T10:11:09.000Z</time>
      </trkpt>
      <trkpt lat="44.54277" lon="4.29013">
        <ele>256</ele>
        <time>2018-06-03T10:11:10.000Z</time>
      </trkpt>
      <trkpt lat="44.54275" lon="4.29012">
        <ele>256</ele>
        <time>2018-06-03T10:11:11.000Z</time>
      </trkpt>
      <trkpt lat="44.54273" lon="4.2901">
        <ele>256</ele>
        <time>2018-06-03T10:11:12.000Z</time>
      </trkpt>
      <trkpt lat="44.54272" lon="4.2901">
        <ele>256</ele>
        <time>2018-06-03T10:11:13.000Z</time>
      </trkpt>
      <trkpt lat="44.54271" lon="4.29009">
        <ele>256</ele>
        <time>2018-06-03T10:11:14.000Z</time>
      </trkpt>
      <trkpt lat="44.54271" lon="4.29009">
        <ele>256</ele>
        <time>2018-06-03T10:11:15.000Z</time>
      </trkpt>
      <trkpt lat="44.54271" lon="4.29008">
        <ele>256</ele>
        <time>2018-06-03T10:11:16.000Z</time>
      </trkpt>
      <trkpt lat="44.54271" lon="4.29008">
        <ele>256</ele>
        <time>2018-06-03T10:11:17.000Z</time>
      </trkpt>
      <trkpt lat="44.5427" lon="4.29008">
        <ele>256</ele>
        <time>2018-06-03T10:11:18.000Z</time>
      </trkpt>
      <trkpt lat="44.5427" lon="4.29007">
        <ele>256</ele>
        <time>2018-06-03T10:11:19.000Z</time>
      </trkpt>
      <trkpt lat="44.5427" lon="4.29007">
        <ele>256</ele>
        <time>2018-06-03T10:11:20.000Z</time>
      </trkpt>
      <trkpt lat="44.5427" lon="4.29007">
        <ele>256</ele>
        <time>2018-06-03T10:11:21.000Z</time>
      </trkpt>
      <trkpt lat="44.5427" lon="4.29006">
        <ele>256</ele>
        <time>2018-06-03T10:11:22.000Z</time>
      </trkpt>
      <trkpt lat="44.5427" lon="4.29006">
        <ele>256</ele>
        <time>2018-06-03T10:11:23.000Z</time>
      </trkpt>
      <trkpt lat="44.5427" lon="4.29006">
        <ele>256</ele>
        <time>2018-06-03T10:11:24.000Z</time>
      </trkpt>
      <trkpt lat="44.54269" lon="4.29006">
        <ele>256</ele>
        <time>2018-06-03T10:11:25.000Z</time>
      </trkpt>
      <trkpt lat="44.54269" lon="4.29005">
        <ele>256</ele>
        <time>2018-06-03T10:11:26.000Z</time>
      </trkpt>
      <trkpt lat="44.54269" lon="4.29005">
        <ele>256</ele>
        <time>2018-06-03T10:11:27.000Z</time>
      </trkpt>
      <trkpt lat="44.54269" lon="4.29005">
        <ele>256</ele>
        <time>2018-06-03T10:11:28.000Z</time>
      </trkpt>
      <trkpt lat="44.54269" lon="4.29004">
        <ele>256</ele>
        <time>2018-06-03T10:11:29.000Z</time>
      </trkpt>
      <trkpt lat="44.54267" lon="4.29004">
        <ele>256</ele>
        <time>2018-06-03T10:11:30.000Z</time>
      </trkpt>
      <trkpt lat="44.54266" lon="4.29003">
        <ele>255</ele>
        <time>2018-06-03T10:11:31.000Z</time>
      </trkpt>
      <trkpt lat="44.54265" lon="4.29003">
        <ele>255</ele>
        <time>2018-06-03T10:11:32.000Z</time>
      </trkpt>
      <trkpt lat="44.54263" lon="4.29002">
        <ele>255</ele>
        <time>2018-06-03T10:11:33.000Z</time>
      </trkpt>
      <trkpt lat="44.54261" lon="4.29002">
        <ele>255</ele>
        <time>2018-06-03T10:11:34.000Z</time>
      </trkpt>
      <trkpt lat="44.5426" lon="4.29002">
        <ele>255</ele>
        <time>2018-06-03T10:11:35.000Z</time>
      </trkpt>
      <trkpt lat="44.5426" lon="4.29002">
        <ele>255</ele>
        <time>2018-06-03T10:11:36.000Z</time>
      </trkpt>
      <trkpt lat="44.5426" lon="4.29002">
        <ele>255</ele>
        <time>2018-06-03T10:11:37.000Z</time>
      </trkpt>
      <trkpt lat="44.5426" lon="4.29002">
        <ele>255</ele>
        <time>2018-06-03T10:11:38.000Z</time>
      </trkpt>
      <trkpt lat="44.5426" lon="4.29002">
        <ele>255</ele>
        <time>2018-06-03T10:11:39.000Z</time>
      </trkpt>
      <trkpt lat="44.5426" lon="4.29002">
        <ele>255</ele>
        <time>2018-06-03T10:11:40.000Z</time>
      </trkpt>
      <trkpt lat="44.5426" lon="4.29001">
        <ele>255</ele>
        <time>2018-06-03T10:11:41.000Z</time>
      </trkpt>
      <trkpt lat="44.5426" lon="4.29001">
        <ele>255</ele>
        <time>2018-06-03T10:11:42.000Z</time>
      </trkpt>
      <trkpt lat="44.5426" lon="4.29001">
        <ele>255</ele>
        <time>2018-06-03T10:11:43.000Z</time>
      </trkpt>
      <trkpt lat="44.54261" lon="4.29001">
        <ele>255</ele>
        <time>2018-06-03T10:11:44.000Z</time>
      </trkpt>
      <trkpt lat="44.54261" lon="4.29001">
        <ele>255</ele>
        <time>2018-06-03T10:11:45.000Z</time>
      </trkpt>
      <trkpt lat="44.54261" lon="4.29001">
        <ele>255</ele>
        <time>2018-06-03T10:11:46.000Z</time>
      </trkpt>
      <trkpt lat="44.54261" lon="4.29001">
        <ele>255</ele>
        <time>2018-06-03T10:11:47.000Z</time>
      </trkpt>
      <trkpt lat="44.54261" lon="4.29001">
        <ele>255</ele>
        <time>2018-06-03T10:11:48.000Z</time>
      </trkpt>
      <trkpt lat="44.54261" lon="4.29001">
        <ele>255</ele>
        <time>2018-06-03T10:11:49.000Z</time>
      </trkpt>
      <trkpt lat="44.54261" lon="4.29001">
        <ele>255</ele>
        <time>2018-06-03T10:11:50.000Z</time>
      </trkpt>
      <trkpt lat="44.54261" lon="4.29001">
        <ele>255</ele>
        <time>2018-06-03T10:11:51.000Z</time>
      </trkpt>
      <trkpt lat="44.54261" lon="4.29001">
        <ele>255</ele>
        <time>2018-06-03T10:11:52.000Z</time>
      </trkpt>
      <trkpt lat="44.54261" lon="4.29001">
        <ele>255</ele>
        <time>2018-06-03T10:11:53.000Z</time>
      </trkpt>
      <trkpt lat="44.54261" lon="4.29001">
        <ele>255</ele>
        <time>2018-06-03T10:11:54.000Z</time>
      </trkpt>
      <trkpt lat="44.54261" lon="4.29001">
        <ele>255</ele>
        <time>2018-06-03T10:11:55.000Z</time>
      </trkpt>
      <trkpt lat="44.54261" lon="4.29001">
        <ele>255</ele>
        <time>2018-06-03T10:11:56.000Z</time>
      </trkpt>
      <trkpt lat="44.54261" lon="4.29001">
        <ele>255</ele>
        <time>2018-06-03T10:11:57.000Z</time>
      </trkpt>
      <trkpt lat="44.54262" lon="4.29001">
        <ele>255</ele>
        <time>2018-06-03T10:11:58.000Z</time>
      </trkpt>
      <trkpt lat="44.54262" lon="4.29001">
        <ele>255</ele>
        <time>2018-06-03T10:11:59.000Z</time>
      </trkpt>
      <trkpt lat="44.54262" lon="4.29001">
        <ele>255</ele>
        <time>2018-06-03T10:12:00.000Z</time>
      </trkpt>
      <trkpt lat="44.54262" lon="4.29001">
        <ele>255</ele>
        <time>2018-06-03T10:12:01.000Z</time>
      </trkpt>
      <trkpt lat="44.54262" lon="4.29001">
        <ele>255</ele>
        <time>2018-06-03T10:12:02.000Z</time>
      </trkpt>
      <trkpt lat="44.54262" lon="4.29001">
        <ele>255</ele>
        <time>2018-06-03T10:12:03.000Z</time>
      </trkpt>
      <trkpt lat="44.54262" lon="4.29001">
        <ele>255</ele>
        <time>2018-06-03T10:12:04.000Z</time>
      </trkpt>
      <trkpt lat="44.54262" lon="4.29001">
        <ele>255</ele>
        <time>2018-06-03T10:12:05.000Z</time>
      </trkpt>
      <trkpt lat="44.54262" lon="4.29001">
        <ele>255</ele>
        <time>2018-06-03T10:12:06.000Z</time>
      </trkpt>
      <trkpt lat="44.54262" lon="4.29001">
        <ele>255</ele>
        <time>2018-06-03T10:12:07.000Z</time>
      </trkpt>
      <trkpt lat="44.54262" lon="4.29001">
        <ele>255</ele>
        <time>2018-06-03T10:12:08.000Z</time>
      </trkpt>
      <trkpt lat="44.54262" lon="4.29001">
        <ele>255</ele>
        <time>2018-06-03T10:12:09.000Z</time>
      </trkpt>
      <trkpt lat="44.54262" lon="4.29001">
        <ele>255</ele>
        <time>2018-06-03T10:12:10.000Z</time>
      </trkpt>
      <trkpt lat="44.54262" lon="4.29001">
        <ele>255</ele>
        <time>2018-06-03T10:12:11.000Z</time>
      </trkpt>
      <trkpt lat="44.54262" lon="4.29001">
        <ele>255</ele>
        <time>2018-06-03T10:12:12.000Z</time>
      </trkpt>
      <trkpt lat="44.54262" lon="4.29001">
        <ele>255</ele>
        <time>2018-06-03T10:12:13.000Z</time>
      </trkpt>
      <trkpt lat="44.54262" lon="4.29001">
        <ele>255</ele>
        <time>2018-06-03T10:12:14.000Z</time>
      </trkpt>
      <trkpt lat="44.54262" lon="4.29001">
        <ele>255</ele>
        <time>2018-06-03T10:12:15.000Z</time>
      </trkpt>
      <trkpt lat="44.54262" lon="4.29001">
        <ele>255</ele>
        <time>2018-06-03T10:12:16.000Z</time>
      </trkpt>
      <trkpt lat="44.54263" lon="4.29001">
        <ele>255</ele>
        <time>2018-06-03T10:12:17.000Z</time>
      </trkpt>
      <trkpt lat="44.54263" lon="4.29001">
        <ele>255</ele>
        <time>2018-06-03T10:12:18.000Z</time>
      </trkpt>
      <trkpt lat="44.54263" lon="4.29001">
        <ele>255</ele>
        <time>2018-06-03T10:12:19.000Z</time>
      </trkpt>
      <trkpt lat="44.54263" lon="4.29001">
        <ele>255</ele>
        <time>2018-06-03T10:12:20.000Z</time>
      </trkpt>
      <trkpt lat="44.54263" lon="4.29001">
        <ele>255</ele>
        <time>2018-06-03T10:12:21.000Z</time>
      </trkpt>
      <trkpt lat="44.54263" lon="4.29001">
        <ele>255</ele>
        <time>2018-06-03T10:12:22.000Z</time>
      </trkpt>
      <trkpt lat="44.54263" lon="4.29001">
        <ele>255</ele>
        <time>2018-06-03T10:12:23.000Z</time>
      </trkpt>
      <trkpt lat="44.54263" lon="4.29001">
        <ele>255</ele>
        <time>2018-06-03T10:12:24.000Z</time>
      </trkpt>
      <trkpt lat="44.54263" lon="4.29001">
        <ele>255</ele>
        <time>2018-06-03T10:12:25.000Z</time>
      </trkpt>
      <trkpt lat="44.54263" lon="4.29001">
        <ele>255</ele>
        <time>2018-06-03T10:12:26.000Z</time>
      </trkpt>
      <trkpt lat="44.54263" lon="4.29001">
        <ele>255</ele>
        <time>2018-06-03T10:12:27.000Z</time>
      </trkpt>
      <trkpt lat="44.54263" lon="4.29001">
        <ele>255</ele>
        <time>2018-06-03T10:12:28.000Z</time>
      </trkpt>
      <trkpt lat="44.54263" lon="4.29001">
        <ele>255</ele>
        <time>2018-06-03T10:12:29.000Z</time>
      </trkpt>
      <trkpt lat="44.54263" lon="4.29001">
        <ele>255</ele>
        <time>2018-06-03T10:12:30.000Z</time>
      </trkpt>
      <trkpt lat="44.54263" lon="4.29">
        <ele>255</ele>
        <time>2018-06-03T10:12:31.000Z</time>
      </trkpt>
      <trkpt lat="44.54263" lon="4.29">
        <ele>255</ele>
        <time>2018-06-03T10:12:32.000Z</time>
      </trkpt>
      <trkpt lat="44.54263" lon="4.29">
        <ele>255</ele>
        <time>2018-06-03T10:12:33.000Z</time>
      </trkpt>
      <trkpt lat="44.54263" lon="4.29">
        <ele>255</ele>
        <time>2018-06-03T10:12:34.000Z</time>
      </trkpt>
      <trkpt lat="44.54263" lon="4.29">
        <ele>258</ele>
        <time>2018-06-03T10:12:35.000Z</time>
      </trkpt>
      <trkpt lat="44.54263" lon="4.29">
        <ele>258</ele>
        <time>2018-06-03T10:12:36.000Z</time>
      </trkpt>
      <trkpt lat="44.54263" lon="4.29">
        <ele>258</ele>
        <time>2018-06-03T10:12:37.000Z</time>
      </trkpt>
      <trkpt lat="44.54263" lon="4.29">
        <ele>258</ele>
        <time>2018-06-03T10:12:38.000Z</time>
      </trkpt>
      <trkpt lat="44.54263" lon="4.29">
        <ele>258</ele>
        <time>2018-06-03T10:12:39.000Z</time>
      </trkpt>
      <trkpt lat="44.54263" lon="4.29">
        <ele>258</ele>
        <time>2018-06-03T10:12:40.000Z</time>
      </trkpt>
      <trkpt lat="44.54263" lon="4.29">
        <ele>257</ele>
        <time>2018-06-03T10:12:41.000Z</time>
      </trkpt>
      <trkpt lat="44.54262" lon="4.29">
        <ele>255</ele>
        <time>2018-06-03T10:12:42.000Z</time>
      </trkpt>
      <trkpt lat="44.5426" lon="4.29">
        <ele>261</ele>
        <time>2018-06-03T10:12:43.000Z</time>
      </trkpt>
      <trkpt lat="44.54258" lon="4.28999">
        <ele>260</ele>
        <time>2018-06-03T10:12:44.000Z</time>
      </trkpt>
      <trkpt lat="44.54256" lon="4.28998">
        <ele>259</ele>
        <time>2018-06-03T10:12:45.000Z</time>
      </trkpt>
      <trkpt lat="44.54255" lon="4.28997">
        <ele>258</ele>
        <time>2018-06-03T10:12:46.000Z</time>
      </trkpt>
      <trkpt lat="44.54253" lon="4.28998">
        <ele>257</ele>
        <time>2018-06-03T10:12:47.000Z</time>
      </trkpt>
      <trkpt lat="44.54252" lon="4.28999">
        <ele>256</ele>
        <time>2018-06-03T10:12:48.000Z</time>
      </trkpt>
      <trkpt lat="44.54251" lon="4.29001">
        <ele>254</ele>
        <time>2018-06-03T10:12:49.000Z</time>
      </trkpt>
      <trkpt lat="44.54252" lon="4.29003">
        <ele>254</ele>
        <time>2018-06-03T10:12:50.000Z</time>
      </trkpt>
      <trkpt lat="44.54252" lon="4.29004">
        <ele>254</ele>
        <time>2018-06-03T10:12:51.000Z</time>
      </trkpt>
      <trkpt lat="44.54253" lon="4.29006">
        <ele>254</ele>
        <time>2018-06-03T10:12:52.000Z</time>
      </trkpt>
      <trkpt lat="44.54254" lon="4.29008">
        <ele>254</ele>
        <time>2018-06-03T10:12:53.000Z</time>
      </trkpt>
      <trkpt lat="44.54254" lon="4.29011">
        <ele>255</ele>
        <time>2018-06-03T10:12:54.000Z</time>
      </trkpt>
      <trkpt lat="44.54255" lon="4.29013">
        <ele>255</ele>
        <time>2018-06-03T10:12:55.000Z</time>
      </trkpt>
      <trkpt lat="44.54256" lon="4.29016">
        <ele>255</ele>
        <time>2018-06-03T10:12:56.000Z</time>
      </trkpt>
      <trkpt lat="44.54257" lon="4.29018">
        <ele>255</ele>
        <time>2018-06-03T10:12:57.000Z</time>
      </trkpt>
      <trkpt lat="44.54259" lon="4.29021">
        <ele>254</ele>
        <time>2018-06-03T10:12:58.000Z</time>
      </trkpt>
      <trkpt lat="44.5426" lon="4.29024">
        <ele>254</ele>
        <time>2018-06-03T10:12:59.000Z</time>
      </trkpt>
      <trkpt lat="44.54261" lon="4.29027">
        <ele>254</ele>
        <time>2018-06-03T10:13:00.000Z</time>
      </trkpt>
      <trkpt lat="44.54263" lon="4.29031">
        <ele>254</ele>
        <time>2018-06-03T10:13:01.000Z</time>
      </trkpt>
      <trkpt lat="44.54265" lon="4.29034">
        <ele>254</ele>
        <time>2018-06-03T10:13:02.000Z</time>
      </trkpt>
      <trkpt lat="44.54267" lon="4.29038">
        <ele>253</ele>
        <time>2018-06-03T10:13:03.000Z</time>
      </trkpt>
      <trkpt lat="44.54269" lon="4.29041">
        <ele>253</ele>
        <time>2018-06-03T10:13:04.000Z</time>
      </trkpt>
      <trkpt lat="44.54272" lon="4.29045">
        <ele>253</ele>
        <time>2018-06-03T10:13:05.000Z</time>
      </trkpt>
      <trkpt lat="44.54275" lon="4.29048">
        <ele>253</ele>
        <time>2018-06-03T10:13:06.000Z</time>
      </trkpt>
      <trkpt lat="44.54279" lon="4.29051">
        <ele>253</ele>
        <time>2018-06-03T10:13:07.000Z</time>
      </trkpt>
      <trkpt lat="44.54282" lon="4.29054">
        <ele>253</ele>
        <time>2018-06-03T10:13:08.000Z</time>
      </trkpt>
      <trkpt lat="44.54285" lon="4.29057">
        <ele>253</ele>
        <time>2018-06-03T10:13:09.000Z</time>
      </trkpt>
      <trkpt lat="44.54288" lon="4.2906">
        <ele>253</ele>
        <time>2018-06-03T10:13:10.000Z</time>
      </trkpt>
      <trkpt lat="44.54291" lon="4.29063">
        <ele>253</ele>
        <time>2018-06-03T10:13:11.000Z</time>
      </trkpt>
      <trkpt lat="44.54294" lon="4.29066">
        <ele>253</ele>
        <time>2018-06-03T10:13:12.000Z</time>
      </trkpt>
      <trkpt lat="44.54296" lon="4.29069">
        <ele>254</ele>
        <time>2018-06-03T10:13:13.000Z</time>
      </trkpt>
      <trkpt lat="44.54298" lon="4.29071">
        <ele>254</ele>
        <time>2018-06-03T10:13:14.000Z</time>
      </trkpt>
      <trkpt lat="44.543" lon="4.29074">
        <ele>254</ele>
        <time>2018-06-03T10:13:15.000Z</time>
      </trkpt>
      <trkpt lat="44.54301" lon="4.29077">
        <ele>254</ele>
        <time>2018-06-03T10:13:16.000Z</time>
      </trkpt>
      <trkpt lat="44.54302" lon="4.2908">
        <ele>254</ele>
        <time>2018-06-03T10:13:17.000Z</time>
      </trkpt>
      <trkpt lat="44.54301" lon="4.29083">
        <ele>253</ele>
        <time>2018-06-03T10:13:18.000Z</time>
      </trkpt>
      <trkpt lat="44.543" lon="4.29085">
        <ele>244</ele>
        <time>2018-06-03T10:13:19.000Z</time>
      </trkpt>
      <trkpt lat="44.54297" lon="4.29086">
        <ele>244</ele>
        <time>2018-06-03T10:13:20.000Z</time>
      </trkpt>
      <trkpt lat="44.54294" lon="4.29085">
        <ele>243</ele>
        <time>2018-06-03T10:13:21.000Z</time>
      </trkpt>
      <trkpt lat="44.5429" lon="4.29083">
        <ele>252</ele>
        <time>2018-06-03T10:13:22.000Z</time>
      </trkpt>
      <trkpt lat="44.54287" lon="4.29079">
        <ele>251</ele>
        <time>2018-06-03T10:13:23.000Z</time>
      </trkpt>
      <trkpt lat="44.54283" lon="4.29078">
        <ele>251</ele>
        <time>2018-06-03T10:13:24.000Z</time>
      </trkpt>
      <trkpt lat="44.5428" lon="4.2908">
        <ele>250</ele>
        <time>2018-06-03T10:13:25.000Z</time>
      </trkpt>
      <trkpt lat="44.54278" lon="4.29084">
        <ele>241</ele>
        <time>2018-06-03T10:13:26.000Z</time>
      </trkpt>
      <trkpt lat="44.54277" lon="4.29086">
        <ele>241</ele>
        <time>2018-06-03T10:13:27.000Z</time>
      </trkpt>
      <trkpt lat="44.54276" lon="4.29089">
        <ele>240</ele>
        <time>2018-06-03T10:13:28.000Z</time>
      </trkpt>
      <trkpt lat="44.54275" lon="4.29091">
        <ele>240</ele>
        <time>2018-06-03T10:13:29.000Z</time>
      </trkpt>
      <trkpt lat="44.54274" lon="4.29094">
        <ele>240</ele>
        <time>2018-06-03T10:13:30.000Z</time>
      </trkpt>
      <trkpt lat="44.54272" lon="4.29097">
        <ele>240</ele>
        <time>2018-06-03T10:13:31.000Z</time>
      </trkpt>
      <trkpt lat="44.54271" lon="4.291">
        <ele>240</ele>
        <time>2018-06-03T10:13:32.000Z</time>
      </trkpt>
      <trkpt lat="44.54269" lon="4.29104">
        <ele>240</ele>
        <time>2018-06-03T10:13:33.000Z</time>
      </trkpt>
      <trkpt lat="44.54267" lon="4.29107">
        <ele>239</ele>
        <time>2018-06-03T10:13:34.000Z</time>
      </trkpt>
      <trkpt lat="44.54266" lon="4.2911">
        <ele>239</ele>
        <time>2018-06-03T10:13:35.000Z</time>
      </trkpt>
      <trkpt lat="44.54265" lon="4.29112">
        <ele>239</ele>
        <time>2018-06-03T10:13:36.000Z</time>
      </trkpt>
      <trkpt lat="44.54263" lon="4.29115">
        <ele>239</ele>
        <time>2018-06-03T10:13:37.000Z</time>
      </trkpt>
      <trkpt lat="44.54261" lon="4.29118">
        <ele>239</ele>
        <time>2018-06-03T10:13:38.000Z</time>
      </trkpt>
      <trkpt lat="44.5426" lon="4.29121">
        <ele>238</ele>
        <time>2018-06-03T10:13:39.000Z</time>
      </trkpt>
      <trkpt lat="44.54258" lon="4.29124">
        <ele>238</ele>
        <time>2018-06-03T10:13:40.000Z</time>
      </trkpt>
      <trkpt lat="44.54257" lon="4.29126">
        <ele>238</ele>
        <time>2018-06-03T10:13:41.000Z</time>
      </trkpt>
      <trkpt lat="44.54256" lon="4.29128">
        <ele>238</ele>
        <time>2018-06-03T10:13:42.000Z</time>
      </trkpt>
      <trkpt lat="44.54255" lon="4.2913">
        <ele>237</ele>
        <time>2018-06-03T10:13:43.000Z</time>
      </trkpt>
      <trkpt lat="44.54254" lon="4.29132">
        <ele>237</ele>
        <time>2018-06-03T10:13:44.000Z</time>
      </trkpt>
      <trkpt lat="44.54253" lon="4.29133">
        <ele>237</ele>
        <time>2018-06-03T10:13:45.000Z</time>
      </trkpt>
      <trkpt lat="44.54254" lon="4.29135">
        <ele>237</ele>
        <time>2018-06-03T10:13:46.000Z</time>
      </trkpt>
      <trkpt lat="44.54255" lon="4.29136">
        <ele>237</ele>
        <time>2018-06-03T10:13:47.000Z</time>
      </trkpt>
      <trkpt lat="44.54257" lon="4.29137">
        <ele>237</ele>
        <time>2018-06-03T10:13:48.000Z</time>
      </trkpt>
      <trkpt lat="44.54259" lon="4.29138">
        <ele>237</ele>
        <time>2018-06-03T10:13:49.000Z</time>
      </trkpt>
      <trkpt lat="44.54261" lon="4.2914">
        <ele>237</ele>
        <time>2018-06-03T10:13:50.000Z</time>
      </trkpt>
      <trkpt lat="44.54264" lon="4.29142">
        <ele>237</ele>
        <time>2018-06-03T10:13:51.000Z</time>
      </trkpt>
      <trkpt lat="44.54266" lon="4.29144">
        <ele>236</ele>
        <time>2018-06-03T10:13:52.000Z</time>
      </trkpt>
      <trkpt lat="44.54269" lon="4.29147">
        <ele>236</ele>
        <time>2018-06-03T10:13:53.000Z</time>
      </trkpt>
      <trkpt lat="44.54271" lon="4.2915">
        <ele>236</ele>
        <time>2018-06-03T10:13:54.000Z</time>
      </trkpt>
      <trkpt lat="44.54274" lon="4.29152">
        <ele>237</ele>
        <time>2018-06-03T10:13:55.000Z</time>
      </trkpt>
      <trkpt lat="44.54276" lon="4.29155">
        <ele>237</ele>
        <time>2018-06-03T10:13:56.000Z</time>
      </trkpt>
      <trkpt lat="44.54277" lon="4.29158">
        <ele>237</ele>
        <time>2018-06-03T10:13:57.000Z</time>
      </trkpt>
      <trkpt lat="44.54278" lon="4.2916">
        <ele>237</ele>
        <time>2018-06-03T10:13:58.000Z</time>
      </trkpt>
      <trkpt lat="44.5428" lon="4.2916">
        <ele>237</ele>
        <time>2018-06-03T10:13:59.000Z</time>
      </trkpt>
      <trkpt lat="44.54281" lon="4.29159">
        <ele>237</ele>
        <time>2018-06-03T10:14:00.000Z</time>
      </trkpt>
      <trkpt lat="44.5428" lon="4.29157">
        <ele>237</ele>
        <time>2018-06-03T10:14:01.000Z</time>
      </trkpt>
      <trkpt lat="44.54278" lon="4.29155">
        <ele>237</ele>
        <time>2018-06-03T10:14:02.000Z</time>
      </trkpt>
      <trkpt lat="44.54276" lon="4.29153">
        <ele>237</ele>
        <time>2018-06-03T10:14:03.000Z</time>
      </trkpt>
      <trkpt lat="44.54273" lon="4.2915">
        <ele>237</ele>
        <time>2018-06-03T10:14:04.000Z</time>
      </trkpt>
      <trkpt lat="44.54271" lon="4.29148">
        <ele>237</ele>
        <time>2018-06-03T10:14:05.000Z</time>
      </trkpt>
      <trkpt lat="44.54268" lon="4.29145">
        <ele>237</ele>
        <time>2018-06-03T10:14:06.000Z</time>
      </trkpt>
      <trkpt lat="44.54266" lon="4.29143">
        <ele>237</ele>
        <time>2018-06-03T10:14:07.000Z</time>
      </trkpt>
      <trkpt lat="44.54263" lon="4.29141">
        <ele>237</ele>
        <time>2018-06-03T10:14:08.000Z</time>
      </trkpt>
      <trkpt lat="44.5426" lon="4.29138">
        <ele>237</ele>
        <time>2018-06-03T10:14:09.000Z</time>
      </trkpt>
      <trkpt lat="44.54256" lon="4.29136">
        <ele>237</ele>
        <time>2018-06-03T10:14:10.000Z</time>
      </trkpt>
      <trkpt lat="44.54253" lon="4.29135">
        <ele>237</ele>
        <time>2018-06-03T10:14:11.000Z</time>
      </trkpt>
      <trkpt lat="44.5425" lon="4.29133">
        <ele>229</ele>
        <time>2018-06-03T10:14:12.000Z</time>
      </trkpt>
      <trkpt lat="44.54246" lon="4.29132">
        <ele>229</ele>
        <time>2018-06-03T10:14:13.000Z</time>
      </trkpt>
      <trkpt lat="44.54243" lon="4.2913">
        <ele>229</ele>
        <time>2018-06-03T10:14:14.000Z</time>
      </trkpt>
      <trkpt lat="44.54239" lon="4.29128">
        <ele>229</ele>
        <time>2018-06-03T10:14:15.000Z</time>
      </trkpt>
      <trkpt lat="44.54235" lon="4.29125">
        <ele>229</ele>
        <time>2018-06-03T10:14:16.000Z</time>
      </trkpt>
      <trkpt lat="44.54231" lon="4.29123">
        <ele>229</ele>
        <time>2018-06-03T10:14:17.000Z</time>
      </trkpt>
      <trkpt lat="44.54228" lon="4.2912">
        <ele>229</ele>
        <time>2018-06-03T10:14:18.000Z</time>
      </trkpt>
      <trkpt lat="44.54224" lon="4.29117">
        <ele>229</ele>
        <time>2018-06-03T10:14:19.000Z</time>
      </trkpt>
      <trkpt lat="44.5422" lon="4.29114">
        <ele>229</ele>
        <time>2018-06-03T10:14:20.000Z</time>
      </trkpt>
      <trkpt lat="44.54216" lon="4.29111">
        <ele>229</ele>
        <time>2018-06-03T10:14:21.000Z</time>
      </trkpt>
      <trkpt lat="44.54212" lon="4.29107">
        <ele>229</ele>
        <time>2018-06-03T10:14:22.000Z</time>
      </trkpt>
      <trkpt lat="44.54208" lon="4.29104">
        <ele>229</ele>
        <time>2018-06-03T10:14:23.000Z</time>
      </trkpt>
      <trkpt lat="44.54204" lon="4.29101">
        <ele>229</ele>
        <time>2018-06-03T10:14:24.000Z</time>
      </trkpt>
      <trkpt lat="44.542" lon="4.29097">
        <ele>228</ele>
        <time>2018-06-03T10:14:25.000Z</time>
      </trkpt>
      <trkpt lat="44.54196" lon="4.29094">
        <ele>228</ele>
        <time>2018-06-03T10:14:26.000Z</time>
      </trkpt>
      <trkpt lat="44.54194" lon="4.29091">
        <ele>228</ele>
        <time>2018-06-03T10:14:27.000Z</time>
      </trkpt>
      <trkpt lat="44.54191" lon="4.29087">
        <ele>228</ele>
        <time>2018-06-03T10:14:28.000Z</time>
      </trkpt>
      <trkpt lat="44.54187" lon="4.29083">
        <ele>233</ele>
        <time>2018-06-03T10:14:29.000Z</time>
      </trkpt>
      <trkpt lat="44.54184" lon="4.29079">
        <ele>233</ele>
        <time>2018-06-03T10:14:30.000Z</time>
      </trkpt>
      <trkpt lat="44.54181" lon="4.29076">
        <ele>233</ele>
        <time>2018-06-03T10:14:31.000Z</time>
      </trkpt>
      <trkpt lat="44.54178" lon="4.29072">
        <ele>232</ele>
        <time>2018-06-03T10:14:32.000Z</time>
      </trkpt>
      <trkpt lat="44.54174" lon="4.29071">
        <ele>232</ele>
        <time>2018-06-03T10:14:33.000Z</time>
      </trkpt>
      <trkpt lat="44.54171" lon="4.29071">
        <ele>232</ele>
        <time>2018-06-03T10:14:34.000Z</time>
      </trkpt>
      <trkpt lat="44.54168" lon="4.29071">
        <ele>231</ele>
        <time>2018-06-03T10:14:35.000Z</time>
      </trkpt>
      <trkpt lat="44.54165" lon="4.29072">
        <ele>228</ele>
        <time>2018-06-03T10:14:36.000Z</time>
      </trkpt>
      <trkpt lat="44.54163" lon="4.29073">
        <ele>227</ele>
        <time>2018-06-03T10:14:37.000Z</time>
      </trkpt>
      <trkpt lat="44.54161" lon="4.29073">
        <ele>227</ele>
        <time>2018-06-03T10:14:38.000Z</time>
      </trkpt>
      <trkpt lat="44.54159" lon="4.29074">
        <ele>227</ele>
        <time>2018-06-03T10:14:39.000Z</time>
      </trkpt>
      <trkpt lat="44.54157" lon="4.29076">
        <ele>227</ele>
        <time>2018-06-03T10:14:40.000Z</time>
      </trkpt>
      <trkpt lat="44.54154" lon="4.29077">
        <ele>227</ele>
        <time>2018-06-03T10:14:41.000Z</time>
      </trkpt>
      <trkpt lat="44.54152" lon="4.29077">
        <ele>227</ele>
        <time>2018-06-03T10:14:42.000Z</time>
      </trkpt>
      <trkpt lat="44.5415" lon="4.29077">
        <ele>227</ele>
        <time>2018-06-03T10:14:43.000Z</time>
      </trkpt>
      <trkpt lat="44.54148" lon="4.29077">
        <ele>227</ele>
        <time>2018-06-03T10:14:44.000Z</time>
      </trkpt>
      <trkpt lat="44.54146" lon="4.29076">
        <ele>227</ele>
        <time>2018-06-03T10:14:45.000Z</time>
      </trkpt>
      <trkpt lat="44.54144" lon="4.29073">
        <ele>227</ele>
        <time>2018-06-03T10:14:46.000Z</time>
      </trkpt>
      <trkpt lat="44.54143" lon="4.2907">
        <ele>227</ele>
        <time>2018-06-03T10:14:47.000Z</time>
      </trkpt>
      <trkpt lat="44.54141" lon="4.29067">
        <ele>227</ele>
        <time>2018-06-03T10:14:48.000Z</time>
      </trkpt>
      <trkpt lat="44.5414" lon="4.29065">
        <ele>227</ele>
        <time>2018-06-03T10:14:49.000Z</time>
      </trkpt>
      <trkpt lat="44.54139" lon="4.29063">
        <ele>227</ele>
        <time>2018-06-03T10:14:50.000Z</time>
      </trkpt>
      <trkpt lat="44.54137" lon="4.29062">
        <ele>227</ele>
        <time>2018-06-03T10:14:51.000Z</time>
      </trkpt>
      <trkpt lat="44.54136" lon="4.29061">
        <ele>227</ele>
        <time>2018-06-03T10:14:52.000Z</time>
      </trkpt>
      <trkpt lat="44.54136" lon="4.2906">
        <ele>228</ele>
        <time>2018-06-03T10:14:53.000Z</time>
      </trkpt>
      <trkpt lat="44.54135" lon="4.29058">
        <ele>228</ele>
        <time>2018-06-03T10:14:54.000Z</time>
      </trkpt>
      <trkpt lat="44.54135" lon="4.29056">
        <ele>228</ele>
        <time>2018-06-03T10:14:55.000Z</time>
      </trkpt>
      <trkpt lat="44.54135" lon="4.29053">
        <ele>228</ele>
        <time>2018-06-03T10:14:56.000Z</time>
      </trkpt>
      <trkpt lat="44.54134" lon="4.2905">
        <ele>228</ele>
        <time>2018-06-03T10:14:57.000Z</time>
      </trkpt>
      <trkpt lat="44.54134" lon="4.29046">
        <ele>228</ele>
        <time>2018-06-03T10:14:58.000Z</time>
      </trkpt>
      <trkpt lat="44.54133" lon="4.29041">
        <ele>228</ele>
        <time>2018-06-03T10:14:59.000Z</time>
      </trkpt>
      <trkpt lat="44.54132" lon="4.29037">
        <ele>229</ele>
        <time>2018-06-03T10:15:00.000Z</time>
      </trkpt>
      <trkpt lat="44.54131" lon="4.29033">
        <ele>229</ele>
        <time>2018-06-03T10:15:01.000Z</time>
      </trkpt>
      <trkpt lat="44.54131" lon="4.29029">
        <ele>229</ele>
        <time>2018-06-03T10:15:02.000Z</time>
      </trkpt>
      <trkpt lat="44.5413" lon="4.29025">
        <ele>229</ele>
        <time>2018-06-03T10:15:03.000Z</time>
      </trkpt>
      <trkpt lat="44.54129" lon="4.29021">
        <ele>229</ele>
        <time>2018-06-03T10:15:04.000Z</time>
      </trkpt>
      <trkpt lat="44.54128" lon="4.29017">
        <ele>230</ele>
        <time>2018-06-03T10:15:05.000Z</time>
      </trkpt>
      <trkpt lat="44.54125" lon="4.29015">
        <ele>229</ele>
        <time>2018-06-03T10:15:06.000Z</time>
      </trkpt>
      <trkpt lat="44.54123" lon="4.29014">
        <ele>229</ele>
        <time>2018-06-03T10:15:07.000Z</time>
      </trkpt>
      <trkpt lat="44.5412" lon="4.29015">
        <ele>229</ele>
        <time>2018-06-03T10:15:08.000Z</time>
      </trkpt>
      <trkpt lat="44.54116" lon="4.29017">
        <ele>229</ele>
        <time>2018-06-03T10:15:09.000Z</time>
      </trkpt>
      <trkpt lat="44.54113" lon="4.2902">
        <ele>228</ele>
        <time>2018-06-03T10:15:10.000Z</time>
      </trkpt>
      <trkpt lat="44.5411" lon="4.29024">
        <ele>228</ele>
        <time>2018-06-03T10:15:11.000Z</time>
      </trkpt>
      <trkpt lat="44.54109" lon="4.29028">
        <ele>228</ele>
        <time>2018-06-03T10:15:12.000Z</time>
      </trkpt>
      <trkpt lat="44.54108" lon="4.29031">
        <ele>228</ele>
        <time>2018-06-03T10:15:13.000Z</time>
      </trkpt>
      <trkpt lat="44.54107" lon="4.29032">
        <ele>228</ele>
        <time>2018-06-03T10:15:14.000Z</time>
      </trkpt>
      <trkpt lat="44.54107" lon="4.29033">
        <ele>228</ele>
        <time>2018-06-03T10:15:15.000Z</time>
      </trkpt>
      <trkpt lat="44.54107" lon="4.29033">
        <ele>228</ele>
        <time>2018-06-03T10:15:16.000Z</time>
      </trkpt>
      <trkpt lat="44.54106" lon="4.29034">
        <ele>227</ele>
        <time>2018-06-03T10:15:17.000Z</time>
      </trkpt>
      <trkpt lat="44.54107" lon="4.29037">
        <ele>227</ele>
        <time>2018-06-03T10:15:18.000Z</time>
      </trkpt>
      <trkpt lat="44.54109" lon="4.29039">
        <ele>227</ele>
        <time>2018-06-03T10:15:19.000Z</time>
      </trkpt>
      <trkpt lat="44.54111" lon="4.29042">
        <ele>227</ele>
        <time>2018-06-03T10:15:20.000Z</time>
      </trkpt>
      <trkpt lat="44.54114" lon="4.29045">
        <ele>227</ele>
        <time>2018-06-03T10:15:21.000Z</time>
      </trkpt>
      <trkpt lat="44.54118" lon="4.29047">
        <ele>227</ele>
        <time>2018-06-03T10:15:22.000Z</time>
      </trkpt>
      <trkpt lat="44.54121" lon="4.29048">
        <ele>227</ele>
        <time>2018-06-03T10:15:23.000Z</time>
      </trkpt>
      <trkpt lat="44.54123" lon="4.29051">
        <ele>227</ele>
        <time>2018-06-03T10:15:24.000Z</time>
      </trkpt>
      <trkpt lat="44.54124" lon="4.29056">
        <ele>227</ele>
        <time>2018-06-03T10:15:25.000Z</time>
      </trkpt>
      <trkpt lat="44.54123" lon="4.29061">
        <ele>227</ele>
        <time>2018-06-03T10:15:26.000Z</time>
      </trkpt>
      <trkpt lat="44.54121" lon="4.29067">
        <ele>226</ele>
        <time>2018-06-03T10:15:27.000Z</time>
      </trkpt>
      <trkpt lat="44.54118" lon="4.29075">
        <ele>226</ele>
        <time>2018-06-03T10:15:28.000Z</time>
      </trkpt>
      <trkpt lat="44.54114" lon="4.29084">
        <ele>219</ele>
        <time>2018-06-03T10:15:29.000Z</time>
      </trkpt>
      <trkpt lat="44.54111" lon="4.29093">
        <ele>219</ele>
        <time>2018-06-03T10:15:30.000Z</time>
      </trkpt>
      <trkpt lat="44.54108" lon="4.29101">
        <ele>218</ele>
        <time>2018-06-03T10:15:31.000Z</time>
      </trkpt>
      <trkpt lat="44.54106" lon="4.29108">
        <ele>218</ele>
        <time>2018-06-03T10:15:32.000Z</time>
      </trkpt>
      <trkpt lat="44.54104" lon="4.29113">
        <ele>217</ele>
        <time>2018-06-03T10:15:33.000Z</time>
      </trkpt>
      <trkpt lat="44.54103" lon="4.29118">
        <ele>217</ele>
        <time>2018-06-03T10:15:34.000Z</time>
      </trkpt>
      <trkpt lat="44.54101" lon="4.29122">
        <ele>217</ele>
        <time>2018-06-03T10:15:35.000Z</time>
      </trkpt>
      <trkpt lat="44.541" lon="4.29126">
        <ele>216</ele>
        <time>2018-06-03T10:15:36.000Z</time>
      </trkpt>
      <trkpt lat="44.54099" lon="4.2913">
        <ele>216</ele>
        <time>2018-06-03T10:15:37.000Z</time>
      </trkpt>
      <trkpt lat="44.54099" lon="4.29135">
        <ele>215</ele>
        <time>2018-06-03T10:15:38.000Z</time>
      </trkpt>
      <trkpt lat="44.54098" lon="4.29139">
        <ele>215</ele>
        <time>2018-06-03T10:15:39.000Z</time>
      </trkpt>
      <trkpt lat="44.54098" lon="4.29143">
        <ele>214</ele>
        <time>2018-06-03T10:15:40.000Z</time>
      </trkpt>
      <trkpt lat="44.54097" lon="4.29146">
        <ele>213</ele>
        <time>2018-06-03T10:15:41.000Z</time>
      </trkpt>
      <trkpt lat="44.54096" lon="4.29149">
        <ele>213</ele>
        <time>2018-06-03T10:15:42.000Z</time>
      </trkpt>
      <trkpt lat="44.54095" lon="4.29152">
        <ele>212</ele>
        <time>2018-06-03T10:15:43.000Z</time>
      </trkpt>
      <trkpt lat="44.54095" lon="4.29154">
        <ele>212</ele>
        <time>2018-06-03T10:15:44.000Z</time>
      </trkpt>
      <trkpt lat="44.54095" lon="4.29157">
        <ele>211</ele>
        <time>2018-06-03T10:15:45.000Z</time>
      </trkpt>
      <trkpt lat="44.54095" lon="4.29158">
        <ele>211</ele>
        <time>2018-06-03T10:15:46.000Z</time>
      </trkpt>
      <trkpt lat="44.54095" lon="4.29158">
        <ele>211</ele>
        <time>2018-06-03T10:15:47.000Z</time>
      </trkpt>
      <trkpt lat="44.54095" lon="4.2916">
        <ele>211</ele>
        <time>2018-06-03T10:15:48.000Z</time>
      </trkpt>
      <trkpt lat="44.54095" lon="4.29163">
        <ele>211</ele>
        <time>2018-06-03T10:15:49.000Z</time>
      </trkpt>
      <trkpt lat="44.54094" lon="4.29164">
        <ele>210</ele>
        <time>2018-06-03T10:15:50.000Z</time>
      </trkpt>
      <trkpt lat="44.54094" lon="4.29166">
        <ele>210</ele>
        <time>2018-06-03T10:15:51.000Z</time>
      </trkpt>
      <trkpt lat="44.54093" lon="4.29168">
        <ele>208</ele>
        <time>2018-06-03T10:15:52.000Z</time>
      </trkpt>
      <trkpt lat="44.54093" lon="4.29169">
        <ele>208</ele>
        <time>2018-06-03T10:15:53.000Z</time>
      </trkpt>
      <trkpt lat="44.54092" lon="4.29171">
        <ele>208</ele>
        <time>2018-06-03T10:15:54.000Z</time>
      </trkpt>
      <trkpt lat="44.54091" lon="4.29172">
        <ele>208</ele>
        <time>2018-06-03T10:15:55.000Z</time>
      </trkpt>
      <trkpt lat="44.5409" lon="4.29174">
        <ele>208</ele>
        <time>2018-06-03T10:15:56.000Z</time>
      </trkpt>
      <trkpt lat="44.54088" lon="4.29177">
        <ele>209</ele>
        <time>2018-06-03T10:15:57.000Z</time>
      </trkpt>
      <trkpt lat="44.54086" lon="4.2918">
        <ele>209</ele>
        <time>2018-06-03T10:15:58.000Z</time>
      </trkpt>
      <trkpt lat="44.54085" lon="4.29184">
        <ele>210</ele>
        <time>2018-06-03T10:15:59.000Z</time>
      </trkpt>
      <trkpt lat="44.54083" lon="4.29188">
        <ele>209</ele>
        <time>2018-06-03T10:16:00.000Z</time>
      </trkpt>
      <trkpt lat="44.54081" lon="4.29192">
        <ele>209</ele>
        <time>2018-06-03T10:16:01.000Z</time>
      </trkpt>
      <trkpt lat="44.54079" lon="4.29195">
        <ele>209</ele>
        <time>2018-06-03T10:16:02.000Z</time>
      </trkpt>
      <trkpt lat="44.54076" lon="4.29199">
        <ele>210</ele>
        <time>2018-06-03T10:16:03.000Z</time>
      </trkpt>
      <trkpt lat="44.54074" lon="4.29202">
        <ele>210</ele>
        <time>2018-06-03T10:16:04.000Z</time>
      </trkpt>
      <trkpt lat="44.54073" lon="4.29204">
        <ele>210</ele>
        <time>2018-06-03T10:16:05.000Z</time>
      </trkpt>
      <trkpt lat="44.5407" lon="4.29206">
        <ele>210</ele>
        <time>2018-06-03T10:16:06.000Z</time>
      </trkpt>
      <trkpt lat="44.54068" lon="4.29206">
        <ele>210</ele>
        <time>2018-06-03T10:16:07.000Z</time>
      </trkpt>
      <trkpt lat="44.54066" lon="4.29206">
        <ele>210</ele>
        <time>2018-06-03T10:16:08.000Z</time>
      </trkpt>
      <trkpt lat="44.54064" lon="4.29205">
        <ele>210</ele>
        <time>2018-06-03T10:16:09.000Z</time>
      </trkpt>
      <trkpt lat="44.54061" lon="4.29204">
        <ele>210</ele>
        <time>2018-06-03T10:16:10.000Z</time>
      </trkpt>
      <trkpt lat="44.54058" lon="4.29202">
        <ele>210</ele>
        <time>2018-06-03T10:16:11.000Z</time>
      </trkpt>
      <trkpt lat="44.54054" lon="4.29201">
        <ele>210</ele>
        <time>2018-06-03T10:16:12.000Z</time>
      </trkpt>
      <trkpt lat="44.54051" lon="4.292">
        <ele>210</ele>
        <time>2018-06-03T10:16:13.000Z</time>
      </trkpt>
      <trkpt lat="44.54048" lon="4.29198">
        <ele>210</ele>
        <time>2018-06-03T10:16:14.000Z</time>
      </trkpt>
      <trkpt lat="44.54044" lon="4.29197">
        <ele>210</ele>
        <time>2018-06-03T10:16:15.000Z</time>
      </trkpt>
      <trkpt lat="44.54041" lon="4.29196">
        <ele>210</ele>
        <time>2018-06-03T10:16:16.000Z</time>
      </trkpt>
      <trkpt lat="44.54037" lon="4.29195">
        <ele>210</ele>
        <time>2018-06-03T10:16:17.000Z</time>
      </trkpt>
      <trkpt lat="44.54034" lon="4.29194">
        <ele>210</ele>
        <time>2018-06-03T10:16:18.000Z</time>
      </trkpt>
      <trkpt lat="44.54031" lon="4.29193">
        <ele>210</ele>
        <time>2018-06-03T10:16:19.000Z</time>
      </trkpt>
      <trkpt lat="44.54027" lon="4.29193">
        <ele>210</ele>
        <time>2018-06-03T10:16:20.000Z</time>
      </trkpt>
      <trkpt lat="44.54024" lon="4.29192">
        <ele>209</ele>
        <time>2018-06-03T10:16:21.000Z</time>
      </trkpt>
      <trkpt lat="44.5402" lon="4.29192">
        <ele>209</ele>
        <time>2018-06-03T10:16:22.000Z</time>
      </trkpt>
      <trkpt lat="44.54017" lon="4.29191">
        <ele>209</ele>
        <time>2018-06-03T10:16:23.000Z</time>
      </trkpt>
      <trkpt lat="44.54015" lon="4.29191">
        <ele>209</ele>
        <time>2018-06-03T10:16:24.000Z</time>
      </trkpt>
      <trkpt lat="44.54012" lon="4.2919">
        <ele>209</ele>
        <time>2018-06-03T10:16:25.000Z</time>
      </trkpt>
      <trkpt lat="44.5401" lon="4.2919">
        <ele>209</ele>
        <time>2018-06-03T10:16:26.000Z</time>
      </trkpt>
      <trkpt lat="44.54008" lon="4.2919">
        <ele>208</ele>
        <time>2018-06-03T10:16:27.000Z</time>
      </trkpt>
      <trkpt lat="44.54005" lon="4.29189">
        <ele>208</ele>
        <time>2018-06-03T10:16:28.000Z</time>
      </trkpt>
      <trkpt lat="44.54001" lon="4.29189">
        <ele>208</ele>
        <time>2018-06-03T10:16:29.000Z</time>
      </trkpt>
      <trkpt lat="44.53998" lon="4.29189">
        <ele>208</ele>
        <time>2018-06-03T10:16:30.000Z</time>
      </trkpt>
      <trkpt lat="44.53994" lon="4.29188">
        <ele>208</ele>
        <time>2018-06-03T10:16:31.000Z</time>
      </trkpt>
      <trkpt lat="44.53991" lon="4.29189">
        <ele>208</ele>
        <time>2018-06-03T10:16:32.000Z</time>
      </trkpt>
      <trkpt lat="44.53987" lon="4.29189">
        <ele>208</ele>
        <time>2018-06-03T10:16:33.000Z</time>
      </trkpt>
      <trkpt lat="44.53983" lon="4.29188">
        <ele>208</ele>
        <time>2018-06-03T10:16:34.000Z</time>
      </trkpt>
      <trkpt lat="44.5398" lon="4.29188">
        <ele>208</ele>
        <time>2018-06-03T10:16:35.000Z</time>
      </trkpt>
      <trkpt lat="44.53977" lon="4.29188">
        <ele>208</ele>
        <time>2018-06-03T10:16:36.000Z</time>
      </trkpt>
      <trkpt lat="44.53973" lon="4.29187">
        <ele>208</ele>
        <time>2018-06-03T10:16:37.000Z</time>
      </trkpt>
      <trkpt lat="44.5397" lon="4.29187">
        <ele>208</ele>
        <time>2018-06-03T10:16:38.000Z</time>
      </trkpt>
      <trkpt lat="44.53966" lon="4.29187">
        <ele>208</ele>
        <time>2018-06-03T10:16:39.000Z</time>
      </trkpt>
      <trkpt lat="44.53961" lon="4.29187">
        <ele>208</ele>
        <time>2018-06-03T10:16:40.000Z</time>
      </trkpt>
      <trkpt lat="44.53957" lon="4.29187">
        <ele>208</ele>
        <time>2018-06-03T10:16:41.000Z</time>
      </trkpt>
      <trkpt lat="44.53953" lon="4.29187">
        <ele>208</ele>
        <time>2018-06-03T10:16:42.000Z</time>
      </trkpt>
      <trkpt lat="44.53949" lon="4.29186">
        <ele>208</ele>
        <time>2018-06-03T10:16:43.000Z</time>
      </trkpt>
      <trkpt lat="44.53945" lon="4.29186">
        <ele>208</ele>
        <time>2018-06-03T10:16:44.000Z</time>
      </trkpt>
      <trkpt lat="44.53942" lon="4.29186">
        <ele>207</ele>
        <time>2018-06-03T10:16:45.000Z</time>
      </trkpt>
      <trkpt lat="44.53938" lon="4.29187">
        <ele>207</ele>
        <time>2018-06-03T10:16:46.000Z</time>
      </trkpt>
      <trkpt lat="44.53934" lon="4.29188">
        <ele>207</ele>
        <time>2018-06-03T10:16:47.000Z</time>
      </trkpt>
      <trkpt lat="44.5393" lon="4.29189">
        <ele>207</ele>
        <time>2018-06-03T10:16:48.000Z</time>
      </trkpt>
      <trkpt lat="44.53926" lon="4.2919">
        <ele>207</ele>
        <time>2018-06-03T10:16:49.000Z</time>
      </trkpt>
      <trkpt lat="44.53922" lon="4.29191">
        <ele>207</ele>
        <time>2018-06-03T10:16:50.000Z</time>
      </trkpt>
      <trkpt lat="44.53919" lon="4.29193">
        <ele>207</ele>
        <time>2018-06-03T10:16:51.000Z</time>
      </trkpt>
      <trkpt lat="44.53915" lon="4.29194">
        <ele>205</ele>
        <time>2018-06-03T10:16:52.000Z</time>
      </trkpt>
      <trkpt lat="44.53912" lon="4.29196">
        <ele>205</ele>
        <time>2018-06-03T10:16:53.000Z</time>
      </trkpt>
      <trkpt lat="44.53909" lon="4.29199">
        <ele>205</ele>
        <time>2018-06-03T10:16:54.000Z</time>
      </trkpt>
      <trkpt lat="44.53907" lon="4.29203">
        <ele>206</ele>
        <time>2018-06-03T10:16:55.000Z</time>
      </trkpt>
      <trkpt lat="44.53905" lon="4.29207">
        <ele>206</ele>
        <time>2018-06-03T10:16:56.000Z</time>
      </trkpt>
      <trkpt lat="44.53902" lon="4.29211">
        <ele>206</ele>
        <time>2018-06-03T10:16:57.000Z</time>
      </trkpt>
      <trkpt lat="44.539" lon="4.29214">
        <ele>207</ele>
        <time>2018-06-03T10:16:58.000Z</time>
      </trkpt>
      <trkpt lat="44.53897" lon="4.29217">
        <ele>207</ele>
        <time>2018-06-03T10:16:59.000Z</time>
      </trkpt>
      <trkpt lat="44.53894" lon="4.2922">
        <ele>207</ele>
        <time>2018-06-03T10:17:00.000Z</time>
      </trkpt>
      <trkpt lat="44.53891" lon="4.29223">
        <ele>207</ele>
        <time>2018-06-03T10:17:01.000Z</time>
      </trkpt>
      <trkpt lat="44.53887" lon="4.29226">
        <ele>207</ele>
        <time>2018-06-03T10:17:02.000Z</time>
      </trkpt>
      <trkpt lat="44.53884" lon="4.29229">
        <ele>207</ele>
        <time>2018-06-03T10:17:03.000Z</time>
      </trkpt>
      <trkpt lat="44.53881" lon="4.29232">
        <ele>207</ele>
        <time>2018-06-03T10:17:04.000Z</time>
      </trkpt>
      <trkpt lat="44.53878" lon="4.29235">
        <ele>207</ele>
        <time>2018-06-03T10:17:05.000Z</time>
      </trkpt>
      <trkpt lat="44.53875" lon="4.29238">
        <ele>206</ele>
        <time>2018-06-03T10:17:06.000Z</time>
      </trkpt>
      <trkpt lat="44.53872" lon="4.29241">
        <ele>206</ele>
        <time>2018-06-03T10:17:07.000Z</time>
      </trkpt>
      <trkpt lat="44.53869" lon="4.29244">
        <ele>206</ele>
        <time>2018-06-03T10:17:08.000Z</time>
      </trkpt>
      <trkpt lat="44.53866" lon="4.29247">
        <ele>206</ele>
        <time>2018-06-03T10:17:09.000Z</time>
      </trkpt>
      <trkpt lat="44.53864" lon="4.2925">
        <ele>205</ele>
        <time>2018-06-03T10:17:10.000Z</time>
      </trkpt>
      <trkpt lat="44.53861" lon="4.29253">
        <ele>210</ele>
        <time>2018-06-03T10:17:11.000Z</time>
      </trkpt>
      <trkpt lat="44.53858" lon="4.29256">
        <ele>210</ele>
        <time>2018-06-03T10:17:12.000Z</time>
      </trkpt>
      <trkpt lat="44.53855" lon="4.29259">
        <ele>210</ele>
        <time>2018-06-03T10:17:13.000Z</time>
      </trkpt>
      <trkpt lat="44.53852" lon="4.29262">
        <ele>209</ele>
        <time>2018-06-03T10:17:14.000Z</time>
      </trkpt>
      <trkpt lat="44.53849" lon="4.29265">
        <ele>209</ele>
        <time>2018-06-03T10:17:15.000Z</time>
      </trkpt>
      <trkpt lat="44.53846" lon="4.29268">
        <ele>209</ele>
        <time>2018-06-03T10:17:16.000Z</time>
      </trkpt>
      <trkpt lat="44.53843" lon="4.29271">
        <ele>209</ele>
        <time>2018-06-03T10:17:17.000Z</time>
      </trkpt>
      <trkpt lat="44.5384" lon="4.29274">
        <ele>209</ele>
        <time>2018-06-03T10:17:18.000Z</time>
      </trkpt>
      <trkpt lat="44.53837" lon="4.29278">
        <ele>210</ele>
        <time>2018-06-03T10:17:19.000Z</time>
      </trkpt>
      <trkpt lat="44.53834" lon="4.29281">
        <ele>210</ele>
        <time>2018-06-03T10:17:20.000Z</time>
      </trkpt>
      <trkpt lat="44.53831" lon="4.29285">
        <ele>205</ele>
        <time>2018-06-03T10:17:21.000Z</time>
      </trkpt>
      <trkpt lat="44.53828" lon="4.29289">
        <ele>206</ele>
        <time>2018-06-03T10:17:22.000Z</time>
      </trkpt>
      <trkpt lat="44.53825" lon="4.29292">
        <ele>206</ele>
        <time>2018-06-03T10:17:23.000Z</time>
      </trkpt>
      <trkpt lat="44.53821" lon="4.29295">
        <ele>206</ele>
        <time>2018-06-03T10:17:24.000Z</time>
      </trkpt>
      <trkpt lat="44.53818" lon="4.29299">
        <ele>206</ele>
        <time>2018-06-03T10:17:25.000Z</time>
      </trkpt>
      <trkpt lat="44.53816" lon="4.29302">
        <ele>206</ele>
        <time>2018-06-03T10:17:26.000Z</time>
      </trkpt>
      <trkpt lat="44.53813" lon="4.29306">
        <ele>206</ele>
        <time>2018-06-03T10:17:27.000Z</time>
      </trkpt>
      <trkpt lat="44.5381" lon="4.2931">
        <ele>206</ele>
        <time>2018-06-03T10:17:28.000Z</time>
      </trkpt>
      <trkpt lat="44.53807" lon="4.29314">
        <ele>206</ele>
        <time>2018-06-03T10:17:29.000Z</time>
      </trkpt>
      <trkpt lat="44.53805" lon="4.29318">
        <ele>206</ele>
        <time>2018-06-03T10:17:30.000Z</time>
      </trkpt>
      <trkpt lat="44.53802" lon="4.29322">
        <ele>206</ele>
        <time>2018-06-03T10:17:31.000Z</time>
      </trkpt>
      <trkpt lat="44.538" lon="4.29326">
        <ele>206</ele>
        <time>2018-06-03T10:17:32.000Z</time>
      </trkpt>
      <trkpt lat="44.53798" lon="4.29329">
        <ele>206</ele>
        <time>2018-06-03T10:17:33.000Z</time>
      </trkpt>
      <trkpt lat="44.53795" lon="4.29333">
        <ele>206</ele>
        <time>2018-06-03T10:17:34.000Z</time>
      </trkpt>
      <trkpt lat="44.53793" lon="4.29337">
        <ele>207</ele>
        <time>2018-06-03T10:17:35.000Z</time>
      </trkpt>
      <trkpt lat="44.53791" lon="4.29341">
        <ele>207</ele>
        <time>2018-06-03T10:17:36.000Z</time>
      </trkpt>
      <trkpt lat="44.53789" lon="4.29345">
        <ele>207</ele>
        <time>2018-06-03T10:17:37.000Z</time>
      </trkpt>
      <trkpt lat="44.53787" lon="4.29349">
        <ele>207</ele>
        <time>2018-06-03T10:17:38.000Z</time>
      </trkpt>
      <trkpt lat="44.53784" lon="4.29353">
        <ele>207</ele>
        <time>2018-06-03T10:17:39.000Z</time>
      </trkpt>
      <trkpt lat="44.53782" lon="4.29357">
        <ele>207</ele>
        <time>2018-06-03T10:17:40.000Z</time>
      </trkpt>
      <trkpt lat="44.5378" lon="4.29361">
        <ele>207</ele>
        <time>2018-06-03T10:17:41.000Z</time>
      </trkpt>
      <trkpt lat="44.53777" lon="4.29366">
        <ele>207</ele>
        <time>2018-06-03T10:17:42.000Z</time>
      </trkpt>
      <trkpt lat="44.53775" lon="4.2937">
        <ele>207</ele>
        <time>2018-06-03T10:17:43.000Z</time>
      </trkpt>
      <trkpt lat="44.53773" lon="4.29375">
        <ele>207</ele>
        <time>2018-06-03T10:17:44.000Z</time>
      </trkpt>
      <trkpt lat="44.5377" lon="4.2938">
        <ele>207</ele>
        <time>2018-06-03T10:17:45.000Z</time>
      </trkpt>
      <trkpt lat="44.53768" lon="4.29385">
        <ele>207</ele>
        <time>2018-06-03T10:17:46.000Z</time>
      </trkpt>
      <trkpt lat="44.53766" lon="4.29389">
        <ele>206</ele>
        <time>2018-06-03T10:17:47.000Z</time>
      </trkpt>
      <trkpt lat="44.53764" lon="4.29394">
        <ele>206</ele>
        <time>2018-06-03T10:17:48.000Z</time>
      </trkpt>
      <trkpt lat="44.53762" lon="4.29399">
        <ele>206</ele>
        <time>2018-06-03T10:17:49.000Z</time>
      </trkpt>
      <trkpt lat="44.5376" lon="4.29403">
        <ele>205</ele>
        <time>2018-06-03T10:17:50.000Z</time>
      </trkpt>
      <trkpt lat="44.53757" lon="4.29408">
        <ele>204</ele>
        <time>2018-06-03T10:17:51.000Z</time>
      </trkpt>
      <trkpt lat="44.53755" lon="4.29412">
        <ele>204</ele>
        <time>2018-06-03T10:17:52.000Z</time>
      </trkpt>
      <trkpt lat="44.53753" lon="4.29417">
        <ele>204</ele>
        <time>2018-06-03T10:17:53.000Z</time>
      </trkpt>
      <trkpt lat="44.53751" lon="4.29421">
        <ele>205</ele>
        <time>2018-06-03T10:17:54.000Z</time>
      </trkpt>
      <trkpt lat="44.53749" lon="4.29426">
        <ele>203</ele>
        <time>2018-06-03T10:17:55.000Z</time>
      </trkpt>
      <trkpt lat="44.53747" lon="4.29431">
        <ele>204</ele>
        <time>2018-06-03T10:17:56.000Z</time>
      </trkpt>
      <trkpt lat="44.53745" lon="4.29435">
        <ele>204</ele>
        <time>2018-06-03T10:17:57.000Z</time>
      </trkpt>
      <trkpt lat="44.53743" lon="4.29439">
        <ele>205</ele>
        <time>2018-06-03T10:17:58.000Z</time>
      </trkpt>
      <trkpt lat="44.5374" lon="4.29444">
        <ele>205</ele>
        <time>2018-06-03T10:17:59.000Z</time>
      </trkpt>
      <trkpt lat="44.53738" lon="4.29449">
        <ele>205</ele>
        <time>2018-06-03T10:18:00.000Z</time>
      </trkpt>
      <trkpt lat="44.53736" lon="4.29454">
        <ele>206</ele>
        <time>2018-06-03T10:18:01.000Z</time>
      </trkpt>
      <trkpt lat="44.53734" lon="4.29458">
        <ele>206</ele>
        <time>2018-06-03T10:18:02.000Z</time>
      </trkpt>
      <trkpt lat="44.53732" lon="4.29463">
        <ele>206</ele>
        <time>2018-06-03T10:18:03.000Z</time>
      </trkpt>
      <trkpt lat="44.53729" lon="4.29467">
        <ele>206</ele>
        <time>2018-06-03T10:18:04.000Z</time>
      </trkpt>
      <trkpt lat="44.53727" lon="4.29472">
        <ele>207</ele>
        <time>2018-06-03T10:18:05.000Z</time>
      </trkpt>
      <trkpt lat="44.53725" lon="4.29476">
        <ele>207</ele>
        <time>2018-06-03T10:18:06.000Z</time>
      </trkpt>
      <trkpt lat="44.53723" lon="4.29481">
        <ele>207</ele>
        <time>2018-06-03T10:18:07.000Z</time>
      </trkpt>
      <trkpt lat="44.53721" lon="4.29485">
        <ele>207</ele>
        <time>2018-06-03T10:18:08.000Z</time>
      </trkpt>
      <trkpt lat="44.53718" lon="4.29489">
        <ele>207</ele>
        <time>2018-06-03T10:18:09.000Z</time>
      </trkpt>
      <trkpt lat="44.53716" lon="4.29494">
        <ele>206</ele>
        <time>2018-06-03T10:18:10.000Z</time>
      </trkpt>
      <trkpt lat="44.53714" lon="4.29498">
        <ele>206</ele>
        <time>2018-06-03T10:18:11.000Z</time>
      </trkpt>
      <trkpt lat="44.53711" lon="4.29502">
        <ele>214</ele>
        <time>2018-06-03T10:18:12.000Z</time>
      </trkpt>
      <trkpt lat="44.53709" lon="4.29506">
        <ele>214</ele>
        <time>2018-06-03T10:18:13.000Z</time>
      </trkpt>
      <trkpt lat="44.53706" lon="4.2951">
        <ele>214</ele>
        <time>2018-06-03T10:18:14.000Z</time>
      </trkpt>
      <trkpt lat="44.53703" lon="4.29514">
        <ele>214</ele>
        <time>2018-06-03T10:18:15.000Z</time>
      </trkpt>
      <trkpt lat="44.537" lon="4.29518">
        <ele>214</ele>
        <time>2018-06-03T10:18:16.000Z</time>
      </trkpt>
      <trkpt lat="44.53697" lon="4.29521">
        <ele>214</ele>
        <time>2018-06-03T10:18:17.000Z</time>
      </trkpt>
      <trkpt lat="44.53694" lon="4.29525">
        <ele>214</ele>
        <time>2018-06-03T10:18:18.000Z</time>
      </trkpt>
      <trkpt lat="44.53691" lon="4.29529">
        <ele>214</ele>
        <time>2018-06-03T10:18:19.000Z</time>
      </trkpt>
      <trkpt lat="44.53688" lon="4.29533">
        <ele>214</ele>
        <time>2018-06-03T10:18:20.000Z</time>
      </trkpt>
      <trkpt lat="44.53685" lon="4.29536">
        <ele>215</ele>
        <time>2018-06-03T10:18:21.000Z</time>
      </trkpt>
      <trkpt lat="44.53682" lon="4.2954">
        <ele>215</ele>
        <time>2018-06-03T10:18:22.000Z</time>
      </trkpt>
      <trkpt lat="44.53678" lon="4.29542">
        <ele>215</ele>
        <time>2018-06-03T10:18:23.000Z</time>
      </trkpt>
      <trkpt lat="44.53675" lon="4.29544">
        <ele>215</ele>
        <time>2018-06-03T10:18:24.000Z</time>
      </trkpt>
      <trkpt lat="44.53671" lon="4.29547">
        <ele>215</ele>
        <time>2018-06-03T10:18:25.000Z</time>
      </trkpt>
      <trkpt lat="44.53667" lon="4.29548">
        <ele>215</ele>
        <time>2018-06-03T10:18:26.000Z</time>
      </trkpt>
      <trkpt lat="44.53663" lon="4.29551">
        <ele>207</ele>
        <time>2018-06-03T10:18:27.000Z</time>
      </trkpt>
      <trkpt lat="44.53659" lon="4.29553">
        <ele>207</ele>
        <time>2018-06-03T10:18:28.000Z</time>
      </trkpt>
      <trkpt lat="44.53654" lon="4.29555">
        <ele>207</ele>
        <time>2018-06-03T10:18:29.000Z</time>
      </trkpt>
      <trkpt lat="44.5365" lon="4.29558">
        <ele>207</ele>
        <time>2018-06-03T10:18:30.000Z</time>
      </trkpt>
      <trkpt lat="44.53645" lon="4.2956">
        <ele>207</ele>
        <time>2018-06-03T10:18:31.000Z</time>
      </trkpt>
      <trkpt lat="44.53641" lon="4.29562">
        <ele>207</ele>
        <time>2018-06-03T10:18:32.000Z</time>
      </trkpt>
      <trkpt lat="44.53636" lon="4.29564">
        <ele>206</ele>
        <time>2018-06-03T10:18:33.000Z</time>
      </trkpt>
      <trkpt lat="44.53631" lon="4.29566">
        <ele>206</ele>
        <time>2018-06-03T10:18:34.000Z</time>
      </trkpt>
      <trkpt lat="44.53625" lon="4.29568">
        <ele>205</ele>
        <time>2018-06-03T10:18:35.000Z</time>
      </trkpt>
      <trkpt lat="44.53619" lon="4.2957">
        <ele>204</ele>
        <time>2018-06-03T10:18:36.000Z</time>
      </trkpt>
      <trkpt lat="44.53613" lon="4.29572">
        <ele>204</ele>
        <time>2018-06-03T10:18:37.000Z</time>
      </trkpt>
      <trkpt lat="44.53608" lon="4.29573">
        <ele>203</ele>
        <time>2018-06-03T10:18:38.000Z</time>
      </trkpt>
      <trkpt lat="44.53602" lon="4.29574">
        <ele>202</ele>
        <time>2018-06-03T10:18:39.000Z</time>
      </trkpt>
      <trkpt lat="44.53596" lon="4.29575">
        <ele>201</ele>
        <time>2018-06-03T10:18:40.000Z</time>
      </trkpt>
      <trkpt lat="44.5359" lon="4.29576">
        <ele>200</ele>
        <time>2018-06-03T10:18:41.000Z</time>
      </trkpt>
      <trkpt lat="44.53584" lon="4.29577">
        <ele>199</ele>
        <time>2018-06-03T10:18:42.000Z</time>
      </trkpt>
      <trkpt lat="44.53578" lon="4.29578">
        <ele>200</ele>
        <time>2018-06-03T10:18:43.000Z</time>
      </trkpt>
      <trkpt lat="44.53572" lon="4.29578">
        <ele>202</ele>
        <time>2018-06-03T10:18:44.000Z</time>
      </trkpt>
      <trkpt lat="44.53566" lon="4.29579">
        <ele>204</ele>
        <time>2018-06-03T10:18:45.000Z</time>
      </trkpt>
      <trkpt lat="44.5356" lon="4.29579">
        <ele>205</ele>
        <time>2018-06-03T10:18:46.000Z</time>
      </trkpt>
      <trkpt lat="44.53554" lon="4.29579">
        <ele>206</ele>
        <time>2018-06-03T10:18:47.000Z</time>
      </trkpt>
      <trkpt lat="44.53548" lon="4.29579">
        <ele>207</ele>
        <time>2018-06-03T10:18:48.000Z</time>
      </trkpt>
      <trkpt lat="44.53542" lon="4.29578">
        <ele>207</ele>
        <time>2018-06-03T10:18:49.000Z</time>
      </trkpt>
      <trkpt lat="44.53535" lon="4.29578">
        <ele>208</ele>
        <time>2018-06-03T10:18:50.000Z</time>
      </trkpt>
      <trkpt lat="44.5353" lon="4.29578">
        <ele>208</ele>
        <time>2018-06-03T10:18:51.000Z</time>
      </trkpt>
      <trkpt lat="44.53524" lon="4.29578">
        <ele>208</ele>
        <time>2018-06-03T10:18:52.000Z</time>
      </trkpt>
      <trkpt lat="44.53519" lon="4.29578">
        <ele>208</ele>
        <time>2018-06-03T10:18:53.000Z</time>
      </trkpt>
      <trkpt lat="44.53513" lon="4.29578">
        <ele>207</ele>
        <time>2018-06-03T10:18:54.000Z</time>
      </trkpt>
      <trkpt lat="44.53507" lon="4.29579">
        <ele>206</ele>
        <time>2018-06-03T10:18:55.000Z</time>
      </trkpt>
      <trkpt lat="44.53502" lon="4.29578">
        <ele>206</ele>
        <time>2018-06-03T10:18:56.000Z</time>
      </trkpt>
      <trkpt lat="44.53497" lon="4.29578">
        <ele>208</ele>
        <time>2018-06-03T10:18:57.000Z</time>
      </trkpt>
      <trkpt lat="44.53492" lon="4.29579">
        <ele>209</ele>
        <time>2018-06-03T10:18:58.000Z</time>
      </trkpt>
      <trkpt lat="44.53486" lon="4.29579">
        <ele>211</ele>
        <time>2018-06-03T10:18:59.000Z</time>
      </trkpt>
      <trkpt lat="44.5348" lon="4.29579">
        <ele>213</ele>
        <time>2018-06-03T10:19:00.000Z</time>
      </trkpt>
      <trkpt lat="44.53473" lon="4.29579">
        <ele>214</ele>
        <time>2018-06-03T10:19:01.000Z</time>
      </trkpt>
      <trkpt lat="44.53467" lon="4.29579">
        <ele>215</ele>
        <time>2018-06-03T10:19:02.000Z</time>
      </trkpt>
      <trkpt lat="44.5346" lon="4.29579">
        <ele>215</ele>
        <time>2018-06-03T10:19:03.000Z</time>
      </trkpt>
      <trkpt lat="44.53454" lon="4.29578">
        <ele>215</ele>
        <time>2018-06-03T10:19:04.000Z</time>
      </trkpt>
      <trkpt lat="44.53447" lon="4.29578">
        <ele>215</ele>
        <time>2018-06-03T10:19:05.000Z</time>
      </trkpt>
      <trkpt lat="44.5344" lon="4.29578">
        <ele>214</ele>
        <time>2018-06-03T10:19:06.000Z</time>
      </trkpt>
      <trkpt lat="44.53434" lon="4.29578">
        <ele>212</ele>
        <time>2018-06-03T10:19:07.000Z</time>
      </trkpt>
      <trkpt lat="44.53427" lon="4.29578">
        <ele>210</ele>
        <time>2018-06-03T10:19:08.000Z</time>
      </trkpt>
      <trkpt lat="44.5342" lon="4.29578">
        <ele>208</ele>
        <time>2018-06-03T10:19:09.000Z</time>
      </trkpt>
      <trkpt lat="44.53413" lon="4.29579">
        <ele>208</ele>
        <time>2018-06-03T10:19:10.000Z</time>
      </trkpt>
      <trkpt lat="44.53406" lon="4.2958">
        <ele>211</ele>
        <time>2018-06-03T10:19:11.000Z</time>
      </trkpt>
      <trkpt lat="44.53399" lon="4.29581">
        <ele>213</ele>
        <time>2018-06-03T10:19:12.000Z</time>
      </trkpt>
      <trkpt lat="44.53393" lon="4.29583">
        <ele>214</ele>
        <time>2018-06-03T10:19:13.000Z</time>
      </trkpt>
      <trkpt lat="44.53386" lon="4.29585">
        <ele>203</ele>
        <time>2018-06-03T10:19:14.000Z</time>
      </trkpt>
      <trkpt lat="44.5338" lon="4.29587">
        <ele>203</ele>
        <time>2018-06-03T10:19:15.000Z</time>
      </trkpt>
      <trkpt lat="44.53373" lon="4.29589">
        <ele>203</ele>
        <time>2018-06-03T10:19:16.000Z</time>
      </trkpt>
      <trkpt lat="44.53367" lon="4.29591">
        <ele>203</ele>
        <time>2018-06-03T10:19:17.000Z</time>
      </trkpt>
      <trkpt lat="44.5336" lon="4.29593">
        <ele>203</ele>
        <time>2018-06-03T10:19:18.000Z</time>
      </trkpt>
      <trkpt lat="44.53354" lon="4.29596">
        <ele>204</ele>
        <time>2018-06-03T10:19:19.000Z</time>
      </trkpt>
      <trkpt lat="44.53348" lon="4.29598">
        <ele>204</ele>
        <time>2018-06-03T10:19:20.000Z</time>
      </trkpt>
      <trkpt lat="44.53341" lon="4.296">
        <ele>204</ele>
        <time>2018-06-03T10:19:21.000Z</time>
      </trkpt>
      <trkpt lat="44.53335" lon="4.29602">
        <ele>204</ele>
        <time>2018-06-03T10:19:22.000Z</time>
      </trkpt>
      <trkpt lat="44.53329" lon="4.29604">
        <ele>205</ele>
        <time>2018-06-03T10:19:23.000Z</time>
      </trkpt>
      <trkpt lat="44.53323" lon="4.29606">
        <ele>205</ele>
        <time>2018-06-03T10:19:24.000Z</time>
      </trkpt>
      <trkpt lat="44.53317" lon="4.29608">
        <ele>204</ele>
        <time>2018-06-03T10:19:25.000Z</time>
      </trkpt>
      <trkpt lat="44.53311" lon="4.29611">
        <ele>204</ele>
        <time>2018-06-03T10:19:26.000Z</time>
      </trkpt>
      <trkpt lat="44.53305" lon="4.29614">
        <ele>204</ele>
        <time>2018-06-03T10:19:27.000Z</time>
      </trkpt>
      <trkpt lat="44.53299" lon="4.29617">
        <ele>204</ele>
        <time>2018-06-03T10:19:28.000Z</time>
      </trkpt>
      <trkpt lat="44.53292" lon="4.29619">
        <ele>204</ele>
        <time>2018-06-03T10:19:29.000Z</time>
      </trkpt>
      <trkpt lat="44.53286" lon="4.29622">
        <ele>204</ele>
        <time>2018-06-03T10:19:30.000Z</time>
      </trkpt>
      <trkpt lat="44.5328" lon="4.29624">
        <ele>204</ele>
        <time>2018-06-03T10:19:31.000Z</time>
      </trkpt>
      <trkpt lat="44.53274" lon="4.29626">
        <ele>204</ele>
        <time>2018-06-03T10:19:32.000Z</time>
      </trkpt>
      <trkpt lat="44.53267" lon="4.29628">
        <ele>204</ele>
        <time>2018-06-03T10:19:33.000Z</time>
      </trkpt>
      <trkpt lat="44.53261" lon="4.2963">
        <ele>203</ele>
        <time>2018-06-03T10:19:34.000Z</time>
      </trkpt>
      <trkpt lat="44.53254" lon="4.29631">
        <ele>203</ele>
        <time>2018-06-03T10:19:35.000Z</time>
      </trkpt>
      <trkpt lat="44.53248" lon="4.29632">
        <ele>200</ele>
        <time>2018-06-03T10:19:36.000Z</time>
      </trkpt>
      <trkpt lat="44.53242" lon="4.29632">
        <ele>200</ele>
        <time>2018-06-03T10:19:37.000Z</time>
      </trkpt>
      <trkpt lat="44.53235" lon="4.29633">
        <ele>200</ele>
        <time>2018-06-03T10:19:38.000Z</time>
      </trkpt>
      <trkpt lat="44.53229" lon="4.29634">
        <ele>200</ele>
        <time>2018-06-03T10:19:39.000Z</time>
      </trkpt>
      <trkpt lat="44.53223" lon="4.29634">
        <ele>199</ele>
        <time>2018-06-03T10:19:40.000Z</time>
      </trkpt>
      <trkpt lat="44.53217" lon="4.29635">
        <ele>199</ele>
        <time>2018-06-03T10:19:41.000Z</time>
      </trkpt>
      <trkpt lat="44.5321" lon="4.29635">
        <ele>199</ele>
        <time>2018-06-03T10:19:42.000Z</time>
      </trkpt>
      <trkpt lat="44.53204" lon="4.29634">
        <ele>198</ele>
        <time>2018-06-03T10:19:43.000Z</time>
      </trkpt>
      <trkpt lat="44.53198" lon="4.29634">
        <ele>198</ele>
        <time>2018-06-03T10:19:44.000Z</time>
      </trkpt>
      <trkpt lat="44.53192" lon="4.29634">
        <ele>197</ele>
        <time>2018-06-03T10:19:45.000Z</time>
      </trkpt>
      <trkpt lat="44.53186" lon="4.29634">
        <ele>197</ele>
        <time>2018-06-03T10:19:46.000Z</time>
      </trkpt>
      <trkpt lat="44.53179" lon="4.29634">
        <ele>196</ele>
        <time>2018-06-03T10:19:47.000Z</time>
      </trkpt>
      <trkpt lat="44.53174" lon="4.29633">
        <ele>196</ele>
        <time>2018-06-03T10:19:48.000Z</time>
      </trkpt>
      <trkpt lat="44.53168" lon="4.29633">
        <ele>196</ele>
        <time>2018-06-03T10:19:49.000Z</time>
      </trkpt>
      <trkpt lat="44.53163" lon="4.29633">
        <ele>191</ele>
        <time>2018-06-03T10:19:50.000Z</time>
      </trkpt>
      <trkpt lat="44.53158" lon="4.29632">
        <ele>191</ele>
        <time>2018-06-03T10:19:51.000Z</time>
      </trkpt>
      <trkpt lat="44.53153" lon="4.29632">
        <ele>191</ele>
        <time>2018-06-03T10:19:52.000Z</time>
      </trkpt>
      <trkpt lat="44.53148" lon="4.29631">
        <ele>191</ele>
        <time>2018-06-03T10:19:53.000Z</time>
      </trkpt>
      <trkpt lat="44.53145" lon="4.29629">
        <ele>191</ele>
        <time>2018-06-03T10:19:54.000Z</time>
      </trkpt>
      <trkpt lat="44.53144" lon="4.29626">
        <ele>191</ele>
        <time>2018-06-03T10:19:55.000Z</time>
      </trkpt>
      <trkpt lat="44.53144" lon="4.29623">
        <ele>191</ele>
        <time>2018-06-03T10:19:56.000Z</time>
      </trkpt>
      <trkpt lat="44.53143" lon="4.29619">
        <ele>191</ele>
        <time>2018-06-03T10:19:57.000Z</time>
      </trkpt>
      <trkpt lat="44.53143" lon="4.29617">
        <ele>191</ele>
        <time>2018-06-03T10:19:58.000Z</time>
      </trkpt>
      <trkpt lat="44.53141" lon="4.29614">
        <ele>191</ele>
        <time>2018-06-03T10:19:59.000Z</time>
      </trkpt>
      <trkpt lat="44.53138" lon="4.29613">
        <ele>191</ele>
        <time>2018-06-03T10:20:00.000Z</time>
      </trkpt>
      <trkpt lat="44.53135" lon="4.29613">
        <ele>191</ele>
        <time>2018-06-03T10:20:01.000Z</time>
      </trkpt>
      <trkpt lat="44.53131" lon="4.29612">
        <ele>191</ele>
        <time>2018-06-03T10:20:02.000Z</time>
      </trkpt>
      <trkpt lat="44.53127" lon="4.29612">
        <ele>190</ele>
        <time>2018-06-03T10:20:03.000Z</time>
      </trkpt>
      <trkpt lat="44.53123" lon="4.29612">
        <ele>190</ele>
        <time>2018-06-03T10:20:04.000Z</time>
      </trkpt>
      <trkpt lat="44.53119" lon="4.29612">
        <ele>190</ele>
        <time>2018-06-03T10:20:05.000Z</time>
      </trkpt>
      <trkpt lat="44.53116" lon="4.29612">
        <ele>190</ele>
        <time>2018-06-03T10:20:06.000Z</time>
      </trkpt>
      <trkpt lat="44.53114" lon="4.29611">
        <ele>190</ele>
        <time>2018-06-03T10:20:07.000Z</time>
      </trkpt>
      <trkpt lat="44.53111" lon="4.29609">
        <ele>189</ele>
        <time>2018-06-03T10:20:08.000Z</time>
      </trkpt>
      <trkpt lat="44.53109" lon="4.29605">
        <ele>189</ele>
        <time>2018-06-03T10:20:09.000Z</time>
      </trkpt>
      <trkpt lat="44.53107" lon="4.29602">
        <ele>188</ele>
        <time>2018-06-03T10:20:10.000Z</time>
      </trkpt>
      <trkpt lat="44.53105" lon="4.29597">
        <ele>188</ele>
        <time>2018-06-03T10:20:11.000Z</time>
      </trkpt>
      <trkpt lat="44.53104" lon="4.29593">
        <ele>187</ele>
        <time>2018-06-03T10:20:12.000Z</time>
      </trkpt>
      <trkpt lat="44.53102" lon="4.29588">
        <ele>187</ele>
        <time>2018-06-03T10:20:13.000Z</time>
      </trkpt>
      <trkpt lat="44.53101" lon="4.29584">
        <ele>186</ele>
        <time>2018-06-03T10:20:14.000Z</time>
      </trkpt>
      <trkpt lat="44.53099" lon="4.29579">
        <ele>185</ele>
        <time>2018-06-03T10:20:15.000Z</time>
      </trkpt>
      <trkpt lat="44.53098" lon="4.29575">
        <ele>186</ele>
        <time>2018-06-03T10:20:16.000Z</time>
      </trkpt>
      <trkpt lat="44.53096" lon="4.2957">
        <ele>186</ele>
        <time>2018-06-03T10:20:17.000Z</time>
      </trkpt>
      <trkpt lat="44.53095" lon="4.29565">
        <ele>186</ele>
        <time>2018-06-03T10:20:18.000Z</time>
      </trkpt>
      <trkpt lat="44.53094" lon="4.29561">
        <ele>187</ele>
        <time>2018-06-03T10:20:19.000Z</time>
      </trkpt>
      <trkpt lat="44.53092" lon="4.29557">
        <ele>187</ele>
        <time>2018-06-03T10:20:20.000Z</time>
      </trkpt>
      <trkpt lat="44.53091" lon="4.29552">
        <ele>187</ele>
        <time>2018-06-03T10:20:21.000Z</time>
      </trkpt>
      <trkpt lat="44.5309" lon="4.29547">
        <ele>187</ele>
        <time>2018-06-03T10:20:22.000Z</time>
      </trkpt>
      <trkpt lat="44.53088" lon="4.29542">
        <ele>188</ele>
        <time>2018-06-03T10:20:23.000Z</time>
      </trkpt>
      <trkpt lat="44.53087" lon="4.29538">
        <ele>188</ele>
        <time>2018-06-03T10:20:24.000Z</time>
      </trkpt>
      <trkpt lat="44.53086" lon="4.29533">
        <ele>188</ele>
        <time>2018-06-03T10:20:25.000Z</time>
      </trkpt>
      <trkpt lat="44.53084" lon="4.29528">
        <ele>188</ele>
        <time>2018-06-03T10:20:26.000Z</time>
      </trkpt>
      <trkpt lat="44.53083" lon="4.29523">
        <ele>186</ele>
        <time>2018-06-03T10:20:27.000Z</time>
      </trkpt>
      <trkpt lat="44.53081" lon="4.29518">
        <ele>186</ele>
        <time>2018-06-03T10:20:28.000Z</time>
      </trkpt>
      <trkpt lat="44.5308" lon="4.29513">
        <ele>186</ele>
        <time>2018-06-03T10:20:29.000Z</time>
      </trkpt>
      <trkpt lat="44.53078" lon="4.29509">
        <ele>186</ele>
        <time>2018-06-03T10:20:30.000Z</time>
      </trkpt>
      <trkpt lat="44.53077" lon="4.29504">
        <ele>187</ele>
        <time>2018-06-03T10:20:31.000Z</time>
      </trkpt>
      <trkpt lat="44.53075" lon="4.295">
        <ele>190</ele>
        <time>2018-06-03T10:20:32.000Z</time>
      </trkpt>
      <trkpt lat="44.53073" lon="4.29496">
        <ele>191</ele>
        <time>2018-06-03T10:20:33.000Z</time>
      </trkpt>
      <trkpt lat="44.53071" lon="4.29492">
        <ele>192</ele>
        <time>2018-06-03T10:20:34.000Z</time>
      </trkpt>
      <trkpt lat="44.53068" lon="4.29488">
        <ele>193</ele>
        <time>2018-06-03T10:20:35.000Z</time>
      </trkpt>
      <trkpt lat="44.53066" lon="4.29486">
        <ele>194</ele>
        <time>2018-06-03T10:20:36.000Z</time>
      </trkpt>
      <trkpt lat="44.53063" lon="4.29483">
        <ele>194</ele>
        <time>2018-06-03T10:20:37.000Z</time>
      </trkpt>
      <trkpt lat="44.53059" lon="4.29481">
        <ele>195</ele>
        <time>2018-06-03T10:20:38.000Z</time>
      </trkpt>
      <trkpt lat="44.53056" lon="4.2948">
        <ele>195</ele>
        <time>2018-06-03T10:20:39.000Z</time>
      </trkpt>
      <trkpt lat="44.53053" lon="4.29479">
        <ele>196</ele>
        <time>2018-06-03T10:20:40.000Z</time>
      </trkpt>
      <trkpt lat="44.53049" lon="4.29479">
        <ele>196</ele>
        <time>2018-06-03T10:20:41.000Z</time>
      </trkpt>
      <trkpt lat="44.53046" lon="4.29479">
        <ele>196</ele>
        <time>2018-06-03T10:20:42.000Z</time>
      </trkpt>
      <trkpt lat="44.53042" lon="4.2948">
        <ele>196</ele>
        <time>2018-06-03T10:20:43.000Z</time>
      </trkpt>
      <trkpt lat="44.53039" lon="4.29481">
        <ele>197</ele>
        <time>2018-06-03T10:20:44.000Z</time>
      </trkpt>
      <trkpt lat="44.53036" lon="4.29482">
        <ele>197</ele>
        <time>2018-06-03T10:20:45.000Z</time>
      </trkpt>
      <trkpt lat="44.53032" lon="4.29484">
        <ele>197</ele>
        <time>2018-06-03T10:20:46.000Z</time>
      </trkpt>
      <trkpt lat="44.53029" lon="4.29486">
        <ele>196</ele>
        <time>2018-06-03T10:20:47.000Z</time>
      </trkpt>
      <trkpt lat="44.53026" lon="4.29487">
        <ele>196</ele>
        <time>2018-06-03T10:20:48.000Z</time>
      </trkpt>
      <trkpt lat="44.53022" lon="4.29489">
        <ele>196</ele>
        <time>2018-06-03T10:20:49.000Z</time>
      </trkpt>
      <trkpt lat="44.53019" lon="4.29491">
        <ele>196</ele>
        <time>2018-06-03T10:20:50.000Z</time>
      </trkpt>
      <trkpt lat="44.53016" lon="4.29493">
        <ele>195</ele>
        <time>2018-06-03T10:20:51.000Z</time>
      </trkpt>
      <trkpt lat="44.53012" lon="4.29495">
        <ele>195</ele>
        <time>2018-06-03T10:20:52.000Z</time>
      </trkpt>
      <trkpt lat="44.53009" lon="4.29497">
        <ele>194</ele>
        <time>2018-06-03T10:20:53.000Z</time>
      </trkpt>
      <trkpt lat="44.53007" lon="4.29498">
        <ele>194</ele>
        <time>2018-06-03T10:20:54.000Z</time>
      </trkpt>
      <trkpt lat="44.53005" lon="4.29499">
        <ele>193</ele>
        <time>2018-06-03T10:20:55.000Z</time>
      </trkpt>
      <trkpt lat="44.53003" lon="4.29499">
        <ele>193</ele>
        <time>2018-06-03T10:20:56.000Z</time>
      </trkpt>
      <trkpt lat="44.53001" lon="4.29498">
        <ele>193</ele>
        <time>2018-06-03T10:20:57.000Z</time>
      </trkpt>
      <trkpt lat="44.53001" lon="4.29496">
        <ele>193</ele>
        <time>2018-06-03T10:20:58.000Z</time>
      </trkpt>
      <trkpt lat="44.53002" lon="4.29494">
        <ele>194</ele>
        <time>2018-06-03T10:20:59.000Z</time>
      </trkpt>
      <trkpt lat="44.53004" lon="4.29491">
        <ele>194</ele>
        <time>2018-06-03T10:21:00.000Z</time>
      </trkpt>
      <trkpt lat="44.53006" lon="4.29489">
        <ele>195</ele>
        <time>2018-06-03T10:21:01.000Z</time>
      </trkpt>
      <trkpt lat="44.53007" lon="4.29487">
        <ele>196</ele>
        <time>2018-06-03T10:21:02.000Z</time>
      </trkpt>
      <trkpt lat="44.53009" lon="4.29485">
        <ele>196</ele>
        <time>2018-06-03T10:21:03.000Z</time>
      </trkpt>
      <trkpt lat="44.5301" lon="4.29483">
        <ele>196</ele>
        <time>2018-06-03T10:21:04.000Z</time>
      </trkpt>
      <trkpt lat="44.53011" lon="4.29481">
        <ele>197</ele>
        <time>2018-06-03T10:21:05.000Z</time>
      </trkpt>
      <trkpt lat="44.53013" lon="4.29479">
        <ele>197</ele>
        <time>2018-06-03T10:21:06.000Z</time>
      </trkpt>
      <trkpt lat="44.53014" lon="4.29477">
        <ele>197</ele>
        <time>2018-06-03T10:21:07.000Z</time>
      </trkpt>
      <trkpt lat="44.53015" lon="4.29475">
        <ele>198</ele>
        <time>2018-06-03T10:21:08.000Z</time>
      </trkpt>
      <trkpt lat="44.53016" lon="4.29473">
        <ele>198</ele>
        <time>2018-06-03T10:21:09.000Z</time>
      </trkpt>
      <trkpt lat="44.53018" lon="4.29471">
        <ele>198</ele>
        <time>2018-06-03T10:21:10.000Z</time>
      </trkpt>
      <trkpt lat="44.53019" lon="4.29469">
        <ele>199</ele>
        <time>2018-06-03T10:21:11.000Z</time>
      </trkpt>
      <trkpt lat="44.5302" lon="4.29466">
        <ele>199</ele>
        <time>2018-06-03T10:21:12.000Z</time>
      </trkpt>
      <trkpt lat="44.53021" lon="4.29464">
        <ele>199</ele>
        <time>2018-06-03T10:21:13.000Z</time>
      </trkpt>
      <trkpt lat="44.53022" lon="4.29462">
        <ele>200</ele>
        <time>2018-06-03T10:21:14.000Z</time>
      </trkpt>
      <trkpt lat="44.53023" lon="4.2946">
        <ele>200</ele>
        <time>2018-06-03T10:21:15.000Z</time>
      </trkpt>
      <trkpt lat="44.53024" lon="4.29458">
        <ele>200</ele>
        <time>2018-06-03T10:21:16.000Z</time>
      </trkpt>
      <trkpt lat="44.53026" lon="4.29456">
        <ele>200</ele>
        <time>2018-06-03T10:21:17.000Z</time>
      </trkpt>
      <trkpt lat="44.53027" lon="4.29454">
        <ele>200</ele>
        <time>2018-06-03T10:21:18.000Z</time>
      </trkpt>
      <trkpt lat="44.53029" lon="4.29452">
        <ele>201</ele>
        <time>2018-06-03T10:21:19.000Z</time>
      </trkpt>
      <trkpt lat="44.5303" lon="4.2945">
        <ele>201</ele>
        <time>2018-06-03T10:21:20.000Z</time>
      </trkpt>
      <trkpt lat="44.53031" lon="4.29448">
        <ele>201</ele>
        <time>2018-06-03T10:21:21.000Z</time>
      </trkpt>
      <trkpt lat="44.53032" lon="4.29447">
        <ele>201</ele>
        <time>2018-06-03T10:21:22.000Z</time>
      </trkpt>
      <trkpt lat="44.53034" lon="4.29445">
        <ele>201</ele>
        <time>2018-06-03T10:21:23.000Z</time>
      </trkpt>
      <trkpt lat="44.53035" lon="4.29443">
        <ele>201</ele>
        <time>2018-06-03T10:21:24.000Z</time>
      </trkpt>
      <trkpt lat="44.53037" lon="4.29442">
        <ele>201</ele>
        <time>2018-06-03T10:21:25.000Z</time>
      </trkpt>
      <trkpt lat="44.53038" lon="4.2944">
        <ele>201</ele>
        <time>2018-06-03T10:21:26.000Z</time>
      </trkpt>
      <trkpt lat="44.53039" lon="4.29438">
        <ele>201</ele>
        <time>2018-06-03T10:21:27.000Z</time>
      </trkpt>
      <trkpt lat="44.5304" lon="4.29436">
        <ele>201</ele>
        <time>2018-06-03T10:21:28.000Z</time>
      </trkpt>
      <trkpt lat="44.53041" lon="4.29434">
        <ele>201</ele>
        <time>2018-06-03T10:21:29.000Z</time>
      </trkpt>
      <trkpt lat="44.53042" lon="4.29432">
        <ele>201</ele>
        <time>2018-06-03T10:21:30.000Z</time>
      </trkpt>
      <trkpt lat="44.53043" lon="4.2943">
        <ele>201</ele>
        <time>2018-06-03T10:21:31.000Z</time>
      </trkpt>
      <trkpt lat="44.53044" lon="4.29427">
        <ele>201</ele>
        <time>2018-06-03T10:21:32.000Z</time>
      </trkpt>
      <trkpt lat="44.53045" lon="4.29425">
        <ele>201</ele>
        <time>2018-06-03T10:21:33.000Z</time>
      </trkpt>
      <trkpt lat="44.53046" lon="4.29423">
        <ele>201</ele>
        <time>2018-06-03T10:21:34.000Z</time>
      </trkpt>
      <trkpt lat="44.53047" lon="4.29421">
        <ele>201</ele>
        <time>2018-06-03T10:21:35.000Z</time>
      </trkpt>
      <trkpt lat="44.53048" lon="4.29418">
        <ele>201</ele>
        <time>2018-06-03T10:21:36.000Z</time>
      </trkpt>
      <trkpt lat="44.53049" lon="4.29416">
        <ele>211</ele>
        <time>2018-06-03T10:21:37.000Z</time>
      </trkpt>
      <trkpt lat="44.5305" lon="4.29414">
        <ele>210</ele>
        <time>2018-06-03T10:21:38.000Z</time>
      </trkpt>
      <trkpt lat="44.53051" lon="4.29412">
        <ele>210</ele>
        <time>2018-06-03T10:21:39.000Z</time>
      </trkpt>
      <trkpt lat="44.53053" lon="4.2941">
        <ele>210</ele>
        <time>2018-06-03T10:21:40.000Z</time>
      </trkpt>
      <trkpt lat="44.53054" lon="4.29408">
        <ele>210</ele>
        <time>2018-06-03T10:21:41.000Z</time>
      </trkpt>
      <trkpt lat="44.53055" lon="4.29406">
        <ele>210</ele>
        <time>2018-06-03T10:21:42.000Z</time>
      </trkpt>
      <trkpt lat="44.53056" lon="4.29404">
        <ele>210</ele>
        <time>2018-06-03T10:21:43.000Z</time>
      </trkpt>
      <trkpt lat="44.53057" lon="4.29402">
        <ele>210</ele>
        <time>2018-06-03T10:21:44.000Z</time>
      </trkpt>
      <trkpt lat="44.53059" lon="4.294">
        <ele>210</ele>
        <time>2018-06-03T10:21:45.000Z</time>
      </trkpt>
      <trkpt lat="44.5306" lon="4.29398">
        <ele>210</ele>
        <time>2018-06-03T10:21:46.000Z</time>
      </trkpt>
      <trkpt lat="44.53061" lon="4.29396">
        <ele>210</ele>
        <time>2018-06-03T10:21:47.000Z</time>
      </trkpt>
      <trkpt lat="44.53062" lon="4.29394">
        <ele>210</ele>
        <time>2018-06-03T10:21:48.000Z</time>
      </trkpt>
      <trkpt lat="44.53063" lon="4.29392">
        <ele>210</ele>
        <time>2018-06-03T10:21:49.000Z</time>
      </trkpt>
      <trkpt lat="44.53064" lon="4.2939">
        <ele>210</ele>
        <time>2018-06-03T10:21:50.000Z</time>
      </trkpt>
      <trkpt lat="44.53065" lon="4.29388">
        <ele>210</ele>
        <time>2018-06-03T10:21:51.000Z</time>
      </trkpt>
      <trkpt lat="44.53066" lon="4.29386">
        <ele>210</ele>
        <time>2018-06-03T10:21:52.000Z</time>
      </trkpt>
      <trkpt lat="44.53067" lon="4.29384">
        <ele>210</ele>
        <time>2018-06-03T10:21:53.000Z</time>
      </trkpt>
      <trkpt lat="44.53068" lon="4.29382">
        <ele>210</ele>
        <time>2018-06-03T10:21:54.000Z</time>
      </trkpt>
      <trkpt lat="44.53069" lon="4.2938">
        <ele>210</ele>
        <time>2018-06-03T10:21:55.000Z</time>
      </trkpt>
      <trkpt lat="44.53071" lon="4.29378">
        <ele>210</ele>
        <time>2018-06-03T10:21:56.000Z</time>
      </trkpt>
      <trkpt lat="44.53072" lon="4.29376">
        <ele>210</ele>
        <time>2018-06-03T10:21:57.000Z</time>
      </trkpt>
      <trkpt lat="44.53073" lon="4.29375">
        <ele>210</ele>
        <time>2018-06-03T10:21:58.000Z</time>
      </trkpt>
      <trkpt lat="44.53073" lon="4.29373">
        <ele>210</ele>
        <time>2018-06-03T10:21:59.000Z</time>
      </trkpt>
      <trkpt lat="44.53074" lon="4.29371">
        <ele>210</ele>
        <time>2018-06-03T10:22:00.000Z</time>
      </trkpt>
      <trkpt lat="44.53075" lon="4.29369">
        <ele>210</ele>
        <time>2018-06-03T10:22:01.000Z</time>
      </trkpt>
      <trkpt lat="44.53076" lon="4.29367">
        <ele>210</ele>
        <time>2018-06-03T10:22:02.000Z</time>
      </trkpt>
      <trkpt lat="44.53076" lon="4.29364">
        <ele>210</ele>
        <time>2018-06-03T10:22:03.000Z</time>
      </trkpt>
      <trkpt lat="44.53077" lon="4.29362">
        <ele>210</ele>
        <time>2018-06-03T10:22:04.000Z</time>
      </trkpt>
      <trkpt lat="44.53077" lon="4.2936">
        <ele>209</ele>
        <time>2018-06-03T10:22:05.000Z</time>
      </trkpt>
      <trkpt lat="44.53077" lon="4.29358">
        <ele>209</ele>
        <time>2018-06-03T10:22:06.000Z</time>
      </trkpt>
      <trkpt lat="44.53077" lon="4.29355">
        <ele>209</ele>
        <time>2018-06-03T10:22:07.000Z</time>
      </trkpt>
      <trkpt lat="44.53077" lon="4.29353">
        <ele>209</ele>
        <time>2018-06-03T10:22:08.000Z</time>
      </trkpt>
      <trkpt lat="44.53077" lon="4.2935">
        <ele>208</ele>
        <time>2018-06-03T10:22:09.000Z</time>
      </trkpt>
      <trkpt lat="44.53078" lon="4.29348">
        <ele>208</ele>
        <time>2018-06-03T10:22:10.000Z</time>
      </trkpt>
      <trkpt lat="44.53078" lon="4.29345">
        <ele>207</ele>
        <time>2018-06-03T10:22:11.000Z</time>
      </trkpt>
      <trkpt lat="44.53078" lon="4.29343">
        <ele>207</ele>
        <time>2018-06-03T10:22:12.000Z</time>
      </trkpt>
      <trkpt lat="44.53078" lon="4.2934">
        <ele>206</ele>
        <time>2018-06-03T10:22:13.000Z</time>
      </trkpt>
      <trkpt lat="44.53078" lon="4.29338">
        <ele>205</ele>
        <time>2018-06-03T10:22:14.000Z</time>
      </trkpt>
      <trkpt lat="44.53079" lon="4.29335">
        <ele>205</ele>
        <time>2018-06-03T10:22:15.000Z</time>
      </trkpt>
      <trkpt lat="44.53078" lon="4.29333">
        <ele>205</ele>
        <time>2018-06-03T10:22:16.000Z</time>
      </trkpt>
      <trkpt lat="44.53078" lon="4.29331">
        <ele>206</ele>
        <time>2018-06-03T10:22:17.000Z</time>
      </trkpt>
      <trkpt lat="44.53078" lon="4.29328">
        <ele>206</ele>
        <time>2018-06-03T10:22:18.000Z</time>
      </trkpt>
      <trkpt lat="44.53077" lon="4.29326">
        <ele>207</ele>
        <time>2018-06-03T10:22:19.000Z</time>
      </trkpt>
      <trkpt lat="44.53076" lon="4.29324">
        <ele>208</ele>
        <time>2018-06-03T10:22:20.000Z</time>
      </trkpt>
      <trkpt lat="44.53075" lon="4.29321">
        <ele>209</ele>
        <time>2018-06-03T10:22:21.000Z</time>
      </trkpt>
      <trkpt lat="44.53074" lon="4.29318">
        <ele>210</ele>
        <time>2018-06-03T10:22:22.000Z</time>
      </trkpt>
      <trkpt lat="44.53072" lon="4.29316">
        <ele>211</ele>
        <time>2018-06-03T10:22:23.000Z</time>
      </trkpt>
      <trkpt lat="44.53071" lon="4.29312">
        <ele>212</ele>
        <time>2018-06-03T10:22:24.000Z</time>
      </trkpt>
      <trkpt lat="44.5307" lon="4.29309">
        <ele>212</ele>
        <time>2018-06-03T10:22:25.000Z</time>
      </trkpt>
      <trkpt lat="44.53069" lon="4.29305">
        <ele>213</ele>
        <time>2018-06-03T10:22:26.000Z</time>
      </trkpt>
      <trkpt lat="44.53067" lon="4.29301">
        <ele>213</ele>
        <time>2018-06-03T10:22:27.000Z</time>
      </trkpt>
      <trkpt lat="44.53065" lon="4.29298">
        <ele>214</ele>
        <time>2018-06-03T10:22:28.000Z</time>
      </trkpt>
      <trkpt lat="44.53064" lon="4.29294">
        <ele>214</ele>
        <time>2018-06-03T10:22:29.000Z</time>
      </trkpt>
      <trkpt lat="44.53063" lon="4.2929">
        <ele>214</ele>
        <time>2018-06-03T10:22:30.000Z</time>
      </trkpt>
      <trkpt lat="44.53061" lon="4.29286">
        <ele>214</ele>
        <time>2018-06-03T10:22:31.000Z</time>
      </trkpt>
      <trkpt lat="44.53059" lon="4.29282">
        <ele>214</ele>
        <time>2018-06-03T10:22:32.000Z</time>
      </trkpt>
      <trkpt lat="44.53058" lon="4.29279">
        <ele>214</ele>
        <time>2018-06-03T10:22:33.000Z</time>
      </trkpt>
      <trkpt lat="44.53056" lon="4.29275">
        <ele>214</ele>
        <time>2018-06-03T10:22:34.000Z</time>
      </trkpt>
      <trkpt lat="44.53055" lon="4.2927">
        <ele>214</ele>
        <time>2018-06-03T10:22:35.000Z</time>
      </trkpt>
      <trkpt lat="44.53054" lon="4.29266">
        <ele>214</ele>
        <time>2018-06-03T10:22:36.000Z</time>
      </trkpt>
      <trkpt lat="44.53052" lon="4.29262">
        <ele>214</ele>
        <time>2018-06-03T10:22:37.000Z</time>
      </trkpt>
      <trkpt lat="44.53051" lon="4.29257">
        <ele>214</ele>
        <time>2018-06-03T10:22:38.000Z</time>
      </trkpt>
      <trkpt lat="44.53049" lon="4.29253">
        <ele>215</ele>
        <time>2018-06-03T10:22:39.000Z</time>
      </trkpt>
      <trkpt lat="44.53048" lon="4.29249">
        <ele>210</ele>
        <time>2018-06-03T10:22:40.000Z</time>
      </trkpt>
      <trkpt lat="44.53047" lon="4.29245">
        <ele>211</ele>
        <time>2018-06-03T10:22:41.000Z</time>
      </trkpt>
      <trkpt lat="44.53045" lon="4.29242">
        <ele>211</ele>
        <time>2018-06-03T10:22:42.000Z</time>
      </trkpt>
      <trkpt lat="44.53043" lon="4.29239">
        <ele>212</ele>
        <time>2018-06-03T10:22:43.000Z</time>
      </trkpt>
      <trkpt lat="44.53041" lon="4.29236">
        <ele>212</ele>
        <time>2018-06-03T10:22:44.000Z</time>
      </trkpt>
      <trkpt lat="44.53039" lon="4.29234">
        <ele>213</ele>
        <time>2018-06-03T10:22:45.000Z</time>
      </trkpt>
      <trkpt lat="44.53038" lon="4.29231">
        <ele>213</ele>
        <time>2018-06-03T10:22:46.000Z</time>
      </trkpt>
      <trkpt lat="44.53037" lon="4.29227">
        <ele>213</ele>
        <time>2018-06-03T10:22:47.000Z</time>
      </trkpt>
      <trkpt lat="44.53036" lon="4.29223">
        <ele>213</ele>
        <time>2018-06-03T10:22:48.000Z</time>
      </trkpt>
      <trkpt lat="44.53035" lon="4.29219">
        <ele>213</ele>
        <time>2018-06-03T10:22:49.000Z</time>
      </trkpt>
      <trkpt lat="44.53034" lon="4.29216">
        <ele>213</ele>
        <time>2018-06-03T10:22:50.000Z</time>
      </trkpt>
      <trkpt lat="44.53032" lon="4.29212">
        <ele>213</ele>
        <time>2018-06-03T10:22:51.000Z</time>
      </trkpt>
      <trkpt lat="44.5303" lon="4.29209">
        <ele>213</ele>
        <time>2018-06-03T10:22:52.000Z</time>
      </trkpt>
      <trkpt lat="44.53028" lon="4.29206">
        <ele>213</ele>
        <time>2018-06-03T10:22:53.000Z</time>
      </trkpt>
      <trkpt lat="44.53027" lon="4.29204">
        <ele>213</ele>
        <time>2018-06-03T10:22:54.000Z</time>
      </trkpt>
      <trkpt lat="44.53025" lon="4.29201">
        <ele>213</ele>
        <time>2018-06-03T10:22:55.000Z</time>
      </trkpt>
      <trkpt lat="44.53022" lon="4.29198">
        <ele>213</ele>
        <time>2018-06-03T10:22:56.000Z</time>
      </trkpt>
      <trkpt lat="44.5302" lon="4.29195">
        <ele>213</ele>
        <time>2018-06-03T10:22:57.000Z</time>
      </trkpt>
      <trkpt lat="44.53018" lon="4.29192">
        <ele>214</ele>
        <time>2018-06-03T10:22:58.000Z</time>
      </trkpt>
      <trkpt lat="44.53016" lon="4.29189">
        <ele>214</ele>
        <time>2018-06-03T10:22:59.000Z</time>
      </trkpt>
      <trkpt lat="44.53013" lon="4.29186">
        <ele>214</ele>
        <time>2018-06-03T10:23:00.000Z</time>
      </trkpt>
      <trkpt lat="44.53011" lon="4.29182">
        <ele>214</ele>
        <time>2018-06-03T10:23:01.000Z</time>
      </trkpt>
      <trkpt lat="44.53009" lon="4.29178">
        <ele>215</ele>
        <time>2018-06-03T10:23:02.000Z</time>
      </trkpt>
      <trkpt lat="44.53007" lon="4.29174">
        <ele>216</ele>
        <time>2018-06-03T10:23:03.000Z</time>
      </trkpt>
      <trkpt lat="44.53005" lon="4.2917">
        <ele>217</ele>
        <time>2018-06-03T10:23:04.000Z</time>
      </trkpt>
      <trkpt lat="44.53002" lon="4.29165">
        <ele>216</ele>
        <time>2018-06-03T10:23:05.000Z</time>
      </trkpt>
      <trkpt lat="44.52999" lon="4.29161">
        <ele>222</ele>
        <time>2018-06-03T10:23:06.000Z</time>
      </trkpt>
      <trkpt lat="44.52998" lon="4.29156">
        <ele>224</ele>
        <time>2018-06-03T10:23:07.000Z</time>
      </trkpt>
      <trkpt lat="44.52996" lon="4.29151">
        <ele>226</ele>
        <time>2018-06-03T10:23:08.000Z</time>
      </trkpt>
      <trkpt lat="44.52995" lon="4.29146">
        <ele>228</ele>
        <time>2018-06-03T10:23:09.000Z</time>
      </trkpt>
      <trkpt lat="44.52993" lon="4.29142">
        <ele>229</ele>
        <time>2018-06-03T10:23:10.000Z</time>
      </trkpt>
      <trkpt lat="44.52992" lon="4.29137">
        <ele>229</ele>
        <time>2018-06-03T10:23:11.000Z</time>
      </trkpt>
      <trkpt lat="44.52991" lon="4.29133">
        <ele>229</ele>
        <time>2018-06-03T10:23:12.000Z</time>
      </trkpt>
      <trkpt lat="44.5299" lon="4.29128">
        <ele>229</ele>
        <time>2018-06-03T10:23:13.000Z</time>
      </trkpt>
      <trkpt lat="44.52989" lon="4.29123">
        <ele>229</ele>
        <time>2018-06-03T10:23:14.000Z</time>
      </trkpt>
      <trkpt lat="44.52988" lon="4.29119">
        <ele>229</ele>
        <time>2018-06-03T10:23:15.000Z</time>
      </trkpt>
      <trkpt lat="44.52986" lon="4.29116">
        <ele>229</ele>
        <time>2018-06-03T10:23:16.000Z</time>
      </trkpt>
      <trkpt lat="44.52983" lon="4.29112">
        <ele>229</ele>
        <time>2018-06-03T10:23:17.000Z</time>
      </trkpt>
      <trkpt lat="44.52981" lon="4.29108">
        <ele>229</ele>
        <time>2018-06-03T10:23:18.000Z</time>
      </trkpt>
      <trkpt lat="44.5298" lon="4.29104">
        <ele>228</ele>
        <time>2018-06-03T10:23:19.000Z</time>
      </trkpt>
      <trkpt lat="44.5298" lon="4.29099">
        <ele>227</ele>
        <time>2018-06-03T10:23:20.000Z</time>
      </trkpt>
      <trkpt lat="44.52979" lon="4.29093">
        <ele>226</ele>
        <time>2018-06-03T10:23:21.000Z</time>
      </trkpt>
      <trkpt lat="44.52979" lon="4.29088">
        <ele>225</ele>
        <time>2018-06-03T10:23:22.000Z</time>
      </trkpt>
      <trkpt lat="44.52978" lon="4.29083">
        <ele>223</ele>
        <time>2018-06-03T10:23:23.000Z</time>
      </trkpt>
      <trkpt lat="44.52978" lon="4.29079">
        <ele>224</ele>
        <time>2018-06-03T10:23:24.000Z</time>
      </trkpt>
      <trkpt lat="44.52977" lon="4.29076">
        <ele>225</ele>
        <time>2018-06-03T10:23:25.000Z</time>
      </trkpt>
      <trkpt lat="44.52975" lon="4.29071">
        <ele>226</ele>
        <time>2018-06-03T10:23:26.000Z</time>
      </trkpt>
      <trkpt lat="44.52974" lon="4.29067">
        <ele>227</ele>
        <time>2018-06-03T10:23:27.000Z</time>
      </trkpt>
      <trkpt lat="44.52973" lon="4.29063">
        <ele>228</ele>
        <time>2018-06-03T10:23:28.000Z</time>
      </trkpt>
      <trkpt lat="44.52972" lon="4.29059">
        <ele>228</ele>
        <time>2018-06-03T10:23:29.000Z</time>
      </trkpt>
      <trkpt lat="44.52971" lon="4.29054">
        <ele>229</ele>
        <time>2018-06-03T10:23:30.000Z</time>
      </trkpt>
      <trkpt lat="44.5297" lon="4.29049">
        <ele>229</ele>
        <time>2018-06-03T10:23:31.000Z</time>
      </trkpt>
      <trkpt lat="44.5297" lon="4.29044">
        <ele>230</ele>
        <time>2018-06-03T10:23:32.000Z</time>
      </trkpt>
      <trkpt lat="44.5297" lon="4.29039">
        <ele>229</ele>
        <time>2018-06-03T10:23:33.000Z</time>
      </trkpt>
      <trkpt lat="44.52971" lon="4.29033">
        <ele>229</ele>
        <time>2018-06-03T10:23:34.000Z</time>
      </trkpt>
      <trkpt lat="44.52971" lon="4.29028">
        <ele>229</ele>
        <time>2018-06-03T10:23:35.000Z</time>
      </trkpt>
      <trkpt lat="44.52972" lon="4.29023">
        <ele>228</ele>
        <time>2018-06-03T10:23:36.000Z</time>
      </trkpt>
      <trkpt lat="44.52973" lon="4.29018">
        <ele>228</ele>
        <time>2018-06-03T10:23:37.000Z</time>
      </trkpt>
      <trkpt lat="44.52975" lon="4.29013">
        <ele>227</ele>
        <time>2018-06-03T10:23:38.000Z</time>
      </trkpt>
      <trkpt lat="44.52976" lon="4.29008">
        <ele>226</ele>
        <time>2018-06-03T10:23:39.000Z</time>
      </trkpt>
      <trkpt lat="44.52977" lon="4.29003">
        <ele>225</ele>
        <time>2018-06-03T10:23:40.000Z</time>
      </trkpt>
      <trkpt lat="44.52977" lon="4.28998">
        <ele>229</ele>
        <time>2018-06-03T10:23:41.000Z</time>
      </trkpt>
      <trkpt lat="44.52978" lon="4.28993">
        <ele>230</ele>
        <time>2018-06-03T10:23:42.000Z</time>
      </trkpt>
      <trkpt lat="44.52979" lon="4.28988">
        <ele>230</ele>
        <time>2018-06-03T10:23:43.000Z</time>
      </trkpt>
      <trkpt lat="44.5298" lon="4.28983">
        <ele>231</ele>
        <time>2018-06-03T10:23:44.000Z</time>
      </trkpt>
      <trkpt lat="44.52981" lon="4.28978">
        <ele>232</ele>
        <time>2018-06-03T10:23:45.000Z</time>
      </trkpt>
      <trkpt lat="44.52982" lon="4.28974">
        <ele>233</ele>
        <time>2018-06-03T10:23:46.000Z</time>
      </trkpt>
      <trkpt lat="44.52982" lon="4.2897">
        <ele>234</ele>
        <time>2018-06-03T10:23:47.000Z</time>
      </trkpt>
      <trkpt lat="44.52984" lon="4.28965">
        <ele>235</ele>
        <time>2018-06-03T10:23:48.000Z</time>
      </trkpt>
      <trkpt lat="44.52985" lon="4.28961">
        <ele>235</ele>
        <time>2018-06-03T10:23:49.000Z</time>
      </trkpt>
      <trkpt lat="44.52986" lon="4.28957">
        <ele>236</ele>
        <time>2018-06-03T10:23:50.000Z</time>
      </trkpt>
      <trkpt lat="44.52987" lon="4.28952">
        <ele>236</ele>
        <time>2018-06-03T10:23:51.000Z</time>
      </trkpt>
      <trkpt lat="44.52989" lon="4.28948">
        <ele>236</ele>
        <time>2018-06-03T10:23:52.000Z</time>
      </trkpt>
      <trkpt lat="44.5299" lon="4.28943">
        <ele>236</ele>
        <time>2018-06-03T10:23:53.000Z</time>
      </trkpt>
      <trkpt lat="44.52992" lon="4.28939">
        <ele>236</ele>
        <time>2018-06-03T10:23:54.000Z</time>
      </trkpt>
      <trkpt lat="44.52993" lon="4.28935">
        <ele>236</ele>
        <time>2018-06-03T10:23:55.000Z</time>
      </trkpt>
      <trkpt lat="44.52995" lon="4.28931">
        <ele>236</ele>
        <time>2018-06-03T10:23:56.000Z</time>
      </trkpt>
      <trkpt lat="44.52996" lon="4.28926">
        <ele>235</ele>
        <time>2018-06-03T10:23:57.000Z</time>
      </trkpt>
      <trkpt lat="44.52997" lon="4.28922">
        <ele>234</ele>
        <time>2018-06-03T10:23:58.000Z</time>
      </trkpt>
      <trkpt lat="44.52998" lon="4.28917">
        <ele>233</ele>
        <time>2018-06-03T10:23:59.000Z</time>
      </trkpt>
      <trkpt lat="44.52998" lon="4.28912">
        <ele>237</ele>
        <time>2018-06-03T10:24:00.000Z</time>
      </trkpt>
      <trkpt lat="44.52999" lon="4.28908">
        <ele>240</ele>
        <time>2018-06-03T10:24:01.000Z</time>
      </trkpt>
      <trkpt lat="44.53001" lon="4.28904">
        <ele>228</ele>
        <time>2018-06-03T10:24:02.000Z</time>
      </trkpt>
      <trkpt lat="44.53002" lon="4.289">
        <ele>227</ele>
        <time>2018-06-03T10:24:03.000Z</time>
      </trkpt>
      <trkpt lat="44.53004" lon="4.28897">
        <ele>227</ele>
        <time>2018-06-03T10:24:04.000Z</time>
      </trkpt>
      <trkpt lat="44.53006" lon="4.28894">
        <ele>227</ele>
        <time>2018-06-03T10:24:05.000Z</time>
      </trkpt>
      <trkpt lat="44.53007" lon="4.28891">
        <ele>226</ele>
        <time>2018-06-03T10:24:06.000Z</time>
      </trkpt>
      <trkpt lat="44.53009" lon="4.28888">
        <ele>226</ele>
        <time>2018-06-03T10:24:07.000Z</time>
      </trkpt>
      <trkpt lat="44.53011" lon="4.28884">
        <ele>226</ele>
        <time>2018-06-03T10:24:08.000Z</time>
      </trkpt>
      <trkpt lat="44.53013" lon="4.28881">
        <ele>226</ele>
        <time>2018-06-03T10:24:09.000Z</time>
      </trkpt>
      <trkpt lat="44.53015" lon="4.28877">
        <ele>226</ele>
        <time>2018-06-03T10:24:10.000Z</time>
      </trkpt>
      <trkpt lat="44.53018" lon="4.28873">
        <ele>226</ele>
        <time>2018-06-03T10:24:11.000Z</time>
      </trkpt>
      <trkpt lat="44.5302" lon="4.28869">
        <ele>226</ele>
        <time>2018-06-03T10:24:12.000Z</time>
      </trkpt>
      <trkpt lat="44.53022" lon="4.28865">
        <ele>227</ele>
        <time>2018-06-03T10:24:13.000Z</time>
      </trkpt>
      <trkpt lat="44.53023" lon="4.28861">
        <ele>227</ele>
        <time>2018-06-03T10:24:14.000Z</time>
      </trkpt>
      <trkpt lat="44.53025" lon="4.28856">
        <ele>228</ele>
        <time>2018-06-03T10:24:15.000Z</time>
      </trkpt>
      <trkpt lat="44.53026" lon="4.28852">
        <ele>228</ele>
        <time>2018-06-03T10:24:16.000Z</time>
      </trkpt>
      <trkpt lat="44.53028" lon="4.28848">
        <ele>228</ele>
        <time>2018-06-03T10:24:17.000Z</time>
      </trkpt>
      <trkpt lat="44.53029" lon="4.28844">
        <ele>228</ele>
        <time>2018-06-03T10:24:18.000Z</time>
      </trkpt>
      <trkpt lat="44.5303" lon="4.2884">
        <ele>228</ele>
        <time>2018-06-03T10:24:19.000Z</time>
      </trkpt>
      <trkpt lat="44.53031" lon="4.28836">
        <ele>228</ele>
        <time>2018-06-03T10:24:20.000Z</time>
      </trkpt>
      <trkpt lat="44.53032" lon="4.28833">
        <ele>233</ele>
        <time>2018-06-03T10:24:21.000Z</time>
      </trkpt>
      <trkpt lat="44.53033" lon="4.28829">
        <ele>233</ele>
        <time>2018-06-03T10:24:22.000Z</time>
      </trkpt>
      <trkpt lat="44.53034" lon="4.28825">
        <ele>233</ele>
        <time>2018-06-03T10:24:23.000Z</time>
      </trkpt>
      <trkpt lat="44.53035" lon="4.2882">
        <ele>232</ele>
        <time>2018-06-03T10:24:24.000Z</time>
      </trkpt>
      <trkpt lat="44.53036" lon="4.28815">
        <ele>232</ele>
        <time>2018-06-03T10:24:25.000Z</time>
      </trkpt>
      <trkpt lat="44.53036" lon="4.2881">
        <ele>231</ele>
        <time>2018-06-03T10:24:26.000Z</time>
      </trkpt>
      <trkpt lat="44.53037" lon="4.28806">
        <ele>231</ele>
        <time>2018-06-03T10:24:27.000Z</time>
      </trkpt>
      <trkpt lat="44.53037" lon="4.288">
        <ele>231</ele>
        <time>2018-06-03T10:24:28.000Z</time>
      </trkpt>
      <trkpt lat="44.53036" lon="4.28794">
        <ele>231</ele>
        <time>2018-06-03T10:24:29.000Z</time>
      </trkpt>
      <trkpt lat="44.53036" lon="4.28788">
        <ele>232</ele>
        <time>2018-06-03T10:24:30.000Z</time>
      </trkpt>
      <trkpt lat="44.53036" lon="4.28783">
        <ele>232</ele>
        <time>2018-06-03T10:24:31.000Z</time>
      </trkpt>
      <trkpt lat="44.53036" lon="4.28778">
        <ele>232</ele>
        <time>2018-06-03T10:24:32.000Z</time>
      </trkpt>
      <trkpt lat="44.53035" lon="4.28774">
        <ele>233</ele>
        <time>2018-06-03T10:24:33.000Z</time>
      </trkpt>
      <trkpt lat="44.53035" lon="4.28769">
        <ele>233</ele>
        <time>2018-06-03T10:24:34.000Z</time>
      </trkpt>
      <trkpt lat="44.53034" lon="4.28764">
        <ele>234</ele>
        <time>2018-06-03T10:24:35.000Z</time>
      </trkpt>
      <trkpt lat="44.53033" lon="4.28759">
        <ele>234</ele>
        <time>2018-06-03T10:24:36.000Z</time>
      </trkpt>
      <trkpt lat="44.53032" lon="4.28755">
        <ele>235</ele>
        <time>2018-06-03T10:24:37.000Z</time>
      </trkpt>
      <trkpt lat="44.5303" lon="4.2875">
        <ele>236</ele>
        <time>2018-06-03T10:24:38.000Z</time>
      </trkpt>
      <trkpt lat="44.53028" lon="4.28745">
        <ele>236</ele>
        <time>2018-06-03T10:24:39.000Z</time>
      </trkpt>
      <trkpt lat="44.53027" lon="4.28741">
        <ele>237</ele>
        <time>2018-06-03T10:24:40.000Z</time>
      </trkpt>
      <trkpt lat="44.53025" lon="4.28735">
        <ele>237</ele>
        <time>2018-06-03T10:24:41.000Z</time>
      </trkpt>
      <trkpt lat="44.53024" lon="4.2873">
        <ele>236</ele>
        <time>2018-06-03T10:24:42.000Z</time>
      </trkpt>
      <trkpt lat="44.53023" lon="4.28725">
        <ele>236</ele>
        <time>2018-06-03T10:24:43.000Z</time>
      </trkpt>
      <trkpt lat="44.53022" lon="4.2872">
        <ele>235</ele>
        <time>2018-06-03T10:24:44.000Z</time>
      </trkpt>
      <trkpt lat="44.53021" lon="4.28715">
        <ele>235</ele>
        <time>2018-06-03T10:24:45.000Z</time>
      </trkpt>
      <trkpt lat="44.53021" lon="4.28711">
        <ele>234</ele>
        <time>2018-06-03T10:24:46.000Z</time>
      </trkpt>
      <trkpt lat="44.53019" lon="4.28706">
        <ele>234</ele>
        <time>2018-06-03T10:24:47.000Z</time>
      </trkpt>
      <trkpt lat="44.53018" lon="4.28701">
        <ele>234</ele>
        <time>2018-06-03T10:24:48.000Z</time>
      </trkpt>
      <trkpt lat="44.53018" lon="4.28696">
        <ele>234</ele>
        <time>2018-06-03T10:24:49.000Z</time>
      </trkpt>
      <trkpt lat="44.53017" lon="4.28691">
        <ele>235</ele>
        <time>2018-06-03T10:24:50.000Z</time>
      </trkpt>
      <trkpt lat="44.53016" lon="4.28687">
        <ele>235</ele>
        <time>2018-06-03T10:24:51.000Z</time>
      </trkpt>
      <trkpt lat="44.53015" lon="4.28683">
        <ele>235</ele>
        <time>2018-06-03T10:24:52.000Z</time>
      </trkpt>
      <trkpt lat="44.53014" lon="4.2868">
        <ele>236</ele>
        <time>2018-06-03T10:24:53.000Z</time>
      </trkpt>
      <trkpt lat="44.53013" lon="4.28676">
        <ele>237</ele>
        <time>2018-06-03T10:24:54.000Z</time>
      </trkpt>
      <trkpt lat="44.53013" lon="4.28672">
        <ele>237</ele>
        <time>2018-06-03T10:24:55.000Z</time>
      </trkpt>
      <trkpt lat="44.53013" lon="4.28668">
        <ele>237</ele>
        <time>2018-06-03T10:24:56.000Z</time>
      </trkpt>
      <trkpt lat="44.53013" lon="4.28663">
        <ele>236</ele>
        <time>2018-06-03T10:24:57.000Z</time>
      </trkpt>
      <trkpt lat="44.53013" lon="4.28659">
        <ele>236</ele>
        <time>2018-06-03T10:24:58.000Z</time>
      </trkpt>
      <trkpt lat="44.53012" lon="4.28656">
        <ele>236</ele>
        <time>2018-06-03T10:24:59.000Z</time>
      </trkpt>
      <trkpt lat="44.53011" lon="4.28652">
        <ele>236</ele>
        <time>2018-06-03T10:25:00.000Z</time>
      </trkpt>
      <trkpt lat="44.53009" lon="4.28649">
        <ele>235</ele>
        <time>2018-06-03T10:25:01.000Z</time>
      </trkpt>
      <trkpt lat="44.53008" lon="4.28645">
        <ele>235</ele>
        <time>2018-06-03T10:25:02.000Z</time>
      </trkpt>
      <trkpt lat="44.53008" lon="4.28641">
        <ele>234</ele>
        <time>2018-06-03T10:25:03.000Z</time>
      </trkpt>
      <trkpt lat="44.53008" lon="4.28637">
        <ele>234</ele>
        <time>2018-06-03T10:25:04.000Z</time>
      </trkpt>
      <trkpt lat="44.53007" lon="4.28633">
        <ele>234</ele>
        <time>2018-06-03T10:25:05.000Z</time>
      </trkpt>
      <trkpt lat="44.53007" lon="4.28629">
        <ele>234</ele>
        <time>2018-06-03T10:25:06.000Z</time>
      </trkpt>
      <trkpt lat="44.53006" lon="4.28624">
        <ele>234</ele>
        <time>2018-06-03T10:25:07.000Z</time>
      </trkpt>
      <trkpt lat="44.53006" lon="4.2862">
        <ele>234</ele>
        <time>2018-06-03T10:25:08.000Z</time>
      </trkpt>
      <trkpt lat="44.53005" lon="4.28616">
        <ele>234</ele>
        <time>2018-06-03T10:25:09.000Z</time>
      </trkpt>
      <trkpt lat="44.53004" lon="4.28611">
        <ele>234</ele>
        <time>2018-06-03T10:25:10.000Z</time>
      </trkpt>
      <trkpt lat="44.53004" lon="4.28607">
        <ele>235</ele>
        <time>2018-06-03T10:25:11.000Z</time>
      </trkpt>
      <trkpt lat="44.53004" lon="4.28602">
        <ele>235</ele>
        <time>2018-06-03T10:25:12.000Z</time>
      </trkpt>
      <trkpt lat="44.53004" lon="4.28597">
        <ele>236</ele>
        <time>2018-06-03T10:25:13.000Z</time>
      </trkpt>
      <trkpt lat="44.53004" lon="4.28592">
        <ele>237</ele>
        <time>2018-06-03T10:25:14.000Z</time>
      </trkpt>
      <trkpt lat="44.53004" lon="4.28587">
        <ele>238</ele>
        <time>2018-06-03T10:25:15.000Z</time>
      </trkpt>
      <trkpt lat="44.53004" lon="4.28582">
        <ele>239</ele>
        <time>2018-06-03T10:25:16.000Z</time>
      </trkpt>
      <trkpt lat="44.53005" lon="4.28577">
        <ele>239</ele>
        <time>2018-06-03T10:25:17.000Z</time>
      </trkpt>
      <trkpt lat="44.53005" lon="4.28573">
        <ele>238</ele>
        <time>2018-06-03T10:25:18.000Z</time>
      </trkpt>
      <trkpt lat="44.53006" lon="4.28568">
        <ele>238</ele>
        <time>2018-06-03T10:25:19.000Z</time>
      </trkpt>
      <trkpt lat="44.53006" lon="4.28563">
        <ele>237</ele>
        <time>2018-06-03T10:25:20.000Z</time>
      </trkpt>
      <trkpt lat="44.53007" lon="4.28558">
        <ele>237</ele>
        <time>2018-06-03T10:25:21.000Z</time>
      </trkpt>
      <trkpt lat="44.53007" lon="4.28553">
        <ele>237</ele>
        <time>2018-06-03T10:25:22.000Z</time>
      </trkpt>
      <trkpt lat="44.53007" lon="4.28548">
        <ele>238</ele>
        <time>2018-06-03T10:25:23.000Z</time>
      </trkpt>
      <trkpt lat="44.53007" lon="4.28543">
        <ele>238</ele>
        <time>2018-06-03T10:25:24.000Z</time>
      </trkpt>
      <trkpt lat="44.53007" lon="4.28538">
        <ele>238</ele>
        <time>2018-06-03T10:25:25.000Z</time>
      </trkpt>
      <trkpt lat="44.53008" lon="4.28533">
        <ele>239</ele>
        <time>2018-06-03T10:25:26.000Z</time>
      </trkpt>
      <trkpt lat="44.53008" lon="4.28527">
        <ele>240</ele>
        <time>2018-06-03T10:25:27.000Z</time>
      </trkpt>
      <trkpt lat="44.53009" lon="4.28521">
        <ele>241</ele>
        <time>2018-06-03T10:25:28.000Z</time>
      </trkpt>
      <trkpt lat="44.5301" lon="4.28516">
        <ele>242</ele>
        <time>2018-06-03T10:25:29.000Z</time>
      </trkpt>
      <trkpt lat="44.53011" lon="4.28511">
        <ele>242</ele>
        <time>2018-06-03T10:25:30.000Z</time>
      </trkpt>
      <trkpt lat="44.53013" lon="4.28507">
        <ele>243</ele>
        <time>2018-06-03T10:25:31.000Z</time>
      </trkpt>
      <trkpt lat="44.53015" lon="4.28502">
        <ele>243</ele>
        <time>2018-06-03T10:25:32.000Z</time>
      </trkpt>
      <trkpt lat="44.53017" lon="4.28499">
        <ele>247</ele>
        <time>2018-06-03T10:25:33.000Z</time>
      </trkpt>
      <trkpt lat="44.53018" lon="4.28494">
        <ele>246</ele>
        <time>2018-06-03T10:25:34.000Z</time>
      </trkpt>
      <trkpt lat="44.53019" lon="4.28489">
        <ele>246</ele>
        <time>2018-06-03T10:25:35.000Z</time>
      </trkpt>
      <trkpt lat="44.5302" lon="4.28484">
        <ele>246</ele>
        <time>2018-06-03T10:25:36.000Z</time>
      </trkpt>
      <trkpt lat="44.53022" lon="4.2848">
        <ele>246</ele>
        <time>2018-06-03T10:25:37.000Z</time>
      </trkpt>
      <trkpt lat="44.53025" lon="4.28475">
        <ele>245</ele>
        <time>2018-06-03T10:25:38.000Z</time>
      </trkpt>
      <trkpt lat="44.53026" lon="4.28471">
        <ele>245</ele>
        <time>2018-06-03T10:25:39.000Z</time>
      </trkpt>
      <trkpt lat="44.53028" lon="4.28466">
        <ele>245</ele>
        <time>2018-06-03T10:25:40.000Z</time>
      </trkpt>
      <trkpt lat="44.5303" lon="4.28461">
        <ele>245</ele>
        <time>2018-06-03T10:25:41.000Z</time>
      </trkpt>
      <trkpt lat="44.53033" lon="4.28457">
        <ele>245</ele>
        <time>2018-06-03T10:25:42.000Z</time>
      </trkpt>
      <trkpt lat="44.53035" lon="4.28452">
        <ele>246</ele>
        <time>2018-06-03T10:25:43.000Z</time>
      </trkpt>
      <trkpt lat="44.53037" lon="4.28448">
        <ele>246</ele>
        <time>2018-06-03T10:25:44.000Z</time>
      </trkpt>
      <trkpt lat="44.53039" lon="4.28443">
        <ele>245</ele>
        <time>2018-06-03T10:25:45.000Z</time>
      </trkpt>
      <trkpt lat="44.53041" lon="4.28439">
        <ele>245</ele>
        <time>2018-06-03T10:25:46.000Z</time>
      </trkpt>
      <trkpt lat="44.53043" lon="4.28435">
        <ele>245</ele>
        <time>2018-06-03T10:25:47.000Z</time>
      </trkpt>
      <trkpt lat="44.53045" lon="4.28431">
        <ele>244</ele>
        <time>2018-06-03T10:25:48.000Z</time>
      </trkpt>
      <trkpt lat="44.53047" lon="4.28428">
        <ele>244</ele>
        <time>2018-06-03T10:25:49.000Z</time>
      </trkpt>
      <trkpt lat="44.53049" lon="4.28425">
        <ele>243</ele>
        <time>2018-06-03T10:25:50.000Z</time>
      </trkpt>
      <trkpt lat="44.53051" lon="4.28421">
        <ele>243</ele>
        <time>2018-06-03T10:25:51.000Z</time>
      </trkpt>
      <trkpt lat="44.53053" lon="4.28418">
        <ele>242</ele>
        <time>2018-06-03T10:25:52.000Z</time>
      </trkpt>
      <trkpt lat="44.53055" lon="4.28414">
        <ele>253</ele>
        <time>2018-06-03T10:25:53.000Z</time>
      </trkpt>
      <trkpt lat="44.53058" lon="4.2841">
        <ele>253</ele>
        <time>2018-06-03T10:25:54.000Z</time>
      </trkpt>
      <trkpt lat="44.53061" lon="4.28406">
        <ele>252</ele>
        <time>2018-06-03T10:25:55.000Z</time>
      </trkpt>
      <trkpt lat="44.53063" lon="4.28402">
        <ele>252</ele>
        <time>2018-06-03T10:25:56.000Z</time>
      </trkpt>
      <trkpt lat="44.53065" lon="4.28399">
        <ele>252</ele>
        <time>2018-06-03T10:25:57.000Z</time>
      </trkpt>
      <trkpt lat="44.53067" lon="4.28395">
        <ele>253</ele>
        <time>2018-06-03T10:25:58.000Z</time>
      </trkpt>
      <trkpt lat="44.53069" lon="4.28392">
        <ele>253</ele>
        <time>2018-06-03T10:25:59.000Z</time>
      </trkpt>
      <trkpt lat="44.53071" lon="4.28389">
        <ele>254</ele>
        <time>2018-06-03T10:26:00.000Z</time>
      </trkpt>
      <trkpt lat="44.53073" lon="4.28385">
        <ele>255</ele>
        <time>2018-06-03T10:26:01.000Z</time>
      </trkpt>
      <trkpt lat="44.53075" lon="4.28382">
        <ele>256</ele>
        <time>2018-06-03T10:26:02.000Z</time>
      </trkpt>
      <trkpt lat="44.53077" lon="4.28379">
        <ele>257</ele>
        <time>2018-06-03T10:26:03.000Z</time>
      </trkpt>
      <trkpt lat="44.5308" lon="4.28375">
        <ele>258</ele>
        <time>2018-06-03T10:26:04.000Z</time>
      </trkpt>
      <trkpt lat="44.53081" lon="4.28372">
        <ele>258</ele>
        <time>2018-06-03T10:26:05.000Z</time>
      </trkpt>
      <trkpt lat="44.53083" lon="4.28368">
        <ele>259</ele>
        <time>2018-06-03T10:26:06.000Z</time>
      </trkpt>
      <trkpt lat="44.53085" lon="4.28365">
        <ele>246</ele>
        <time>2018-06-03T10:26:07.000Z</time>
      </trkpt>
      <trkpt lat="44.53087" lon="4.28362">
        <ele>247</ele>
        <time>2018-06-03T10:26:08.000Z</time>
      </trkpt>
      <trkpt lat="44.53089" lon="4.28359">
        <ele>248</ele>
        <time>2018-06-03T10:26:09.000Z</time>
      </trkpt>
      <trkpt lat="44.53092" lon="4.28356">
        <ele>248</ele>
        <time>2018-06-03T10:26:10.000Z</time>
      </trkpt>
      <trkpt lat="44.53094" lon="4.28354">
        <ele>249</ele>
        <time>2018-06-03T10:26:11.000Z</time>
      </trkpt>
      <trkpt lat="44.53097" lon="4.28352">
        <ele>249</ele>
        <time>2018-06-03T10:26:12.000Z</time>
      </trkpt>
      <trkpt lat="44.53099" lon="4.2835">
        <ele>249</ele>
        <time>2018-06-03T10:26:13.000Z</time>
      </trkpt>
      <trkpt lat="44.53102" lon="4.28348">
        <ele>249</ele>
        <time>2018-06-03T10:26:14.000Z</time>
      </trkpt>
      <trkpt lat="44.53105" lon="4.28347">
        <ele>249</ele>
        <time>2018-06-03T10:26:15.000Z</time>
      </trkpt>
      <trkpt lat="44.53107" lon="4.28345">
        <ele>248</ele>
        <time>2018-06-03T10:26:16.000Z</time>
      </trkpt>
      <trkpt lat="44.53109" lon="4.28344">
        <ele>248</ele>
        <time>2018-06-03T10:26:17.000Z</time>
      </trkpt>
      <trkpt lat="44.53111" lon="4.28344">
        <ele>248</ele>
        <time>2018-06-03T10:26:18.000Z</time>
      </trkpt>
      <trkpt lat="44.53113" lon="4.28343">
        <ele>247</ele>
        <time>2018-06-03T10:26:19.000Z</time>
      </trkpt>
      <trkpt lat="44.53116" lon="4.28341">
        <ele>247</ele>
        <time>2018-06-03T10:26:20.000Z</time>
      </trkpt>
      <trkpt lat="44.53119" lon="4.2834">
        <ele>246</ele>
        <time>2018-06-03T10:26:21.000Z</time>
      </trkpt>
      <trkpt lat="44.53122" lon="4.28338">
        <ele>246</ele>
        <time>2018-06-03T10:26:22.000Z</time>
      </trkpt>
      <trkpt lat="44.53124" lon="4.28336">
        <ele>246</ele>
        <time>2018-06-03T10:26:23.000Z</time>
      </trkpt>
      <trkpt lat="44.53125" lon="4.28335">
        <ele>246</ele>
        <time>2018-06-03T10:26:24.000Z</time>
      </trkpt>
      <trkpt lat="44.53127" lon="4.28334">
        <ele>246</ele>
        <time>2018-06-03T10:26:25.000Z</time>
      </trkpt>
      <trkpt lat="44.5313" lon="4.28333">
        <ele>263</ele>
        <time>2018-06-03T10:26:26.000Z</time>
      </trkpt>
      <trkpt lat="44.53133" lon="4.28332">
        <ele>262</ele>
        <time>2018-06-03T10:26:27.000Z</time>
      </trkpt>
      <trkpt lat="44.53136" lon="4.28331">
        <ele>262</ele>
        <time>2018-06-03T10:26:28.000Z</time>
      </trkpt>
      <trkpt lat="44.53139" lon="4.28329">
        <ele>261</ele>
        <time>2018-06-03T10:26:29.000Z</time>
      </trkpt>
      <trkpt lat="44.53143" lon="4.28328">
        <ele>260</ele>
        <time>2018-06-03T10:26:30.000Z</time>
      </trkpt>
      <trkpt lat="44.53146" lon="4.28328">
        <ele>259</ele>
        <time>2018-06-03T10:26:31.000Z</time>
      </trkpt>
      <trkpt lat="44.5315" lon="4.28326">
        <ele>258</ele>
        <time>2018-06-03T10:26:32.000Z</time>
      </trkpt>
      <trkpt lat="44.53154" lon="4.28325">
        <ele>257</ele>
        <time>2018-06-03T10:26:33.000Z</time>
      </trkpt>
      <trkpt lat="44.53158" lon="4.28324">
        <ele>255</ele>
        <time>2018-06-03T10:26:34.000Z</time>
      </trkpt>
      <trkpt lat="44.53161" lon="4.28323">
        <ele>255</ele>
        <time>2018-06-03T10:26:35.000Z</time>
      </trkpt>
      <trkpt lat="44.53165" lon="4.28323">
        <ele>254</ele>
        <time>2018-06-03T10:26:36.000Z</time>
      </trkpt>
      <trkpt lat="44.53169" lon="4.28322">
        <ele>252</ele>
        <time>2018-06-03T10:26:37.000Z</time>
      </trkpt>
      <trkpt lat="44.53173" lon="4.28321">
        <ele>252</ele>
        <time>2018-06-03T10:26:38.000Z</time>
      </trkpt>
      <trkpt lat="44.53176" lon="4.28321">
        <ele>253</ele>
        <time>2018-06-03T10:26:39.000Z</time>
      </trkpt>
      <trkpt lat="44.53179" lon="4.28321">
        <ele>254</ele>
        <time>2018-06-03T10:26:40.000Z</time>
      </trkpt>
      <trkpt lat="44.53182" lon="4.2832">
        <ele>255</ele>
        <time>2018-06-03T10:26:41.000Z</time>
      </trkpt>
      <trkpt lat="44.53185" lon="4.28319">
        <ele>256</ele>
        <time>2018-06-03T10:26:42.000Z</time>
      </trkpt>
      <trkpt lat="44.53188" lon="4.28318">
        <ele>256</ele>
        <time>2018-06-03T10:26:43.000Z</time>
      </trkpt>
      <trkpt lat="44.53191" lon="4.28318">
        <ele>257</ele>
        <time>2018-06-03T10:26:44.000Z</time>
      </trkpt>
      <trkpt lat="44.53193" lon="4.28318">
        <ele>257</ele>
        <time>2018-06-03T10:26:45.000Z</time>
      </trkpt>
      <trkpt lat="44.53195" lon="4.28318">
        <ele>257</ele>
        <time>2018-06-03T10:26:46.000Z</time>
      </trkpt>
      <trkpt lat="44.53197" lon="4.28319">
        <ele>257</ele>
        <time>2018-06-03T10:26:47.000Z</time>
      </trkpt>
      <trkpt lat="44.53199" lon="4.2832">
        <ele>257</ele>
        <time>2018-06-03T10:26:48.000Z</time>
      </trkpt>
      <trkpt lat="44.53202" lon="4.2832">
        <ele>257</ele>
        <time>2018-06-03T10:26:49.000Z</time>
      </trkpt>
      <trkpt lat="44.53204" lon="4.28321">
        <ele>257</ele>
        <time>2018-06-03T10:26:50.000Z</time>
      </trkpt>
      <trkpt lat="44.53206" lon="4.28321">
        <ele>258</ele>
        <time>2018-06-03T10:26:51.000Z</time>
      </trkpt>
      <trkpt lat="44.53208" lon="4.28319">
        <ele>258</ele>
        <time>2018-06-03T10:26:52.000Z</time>
      </trkpt>
      <trkpt lat="44.5321" lon="4.28317">
        <ele>258</ele>
        <time>2018-06-03T10:26:53.000Z</time>
      </trkpt>
      <trkpt lat="44.53211" lon="4.28314">
        <ele>258</ele>
        <time>2018-06-03T10:26:54.000Z</time>
      </trkpt>
      <trkpt lat="44.53211" lon="4.28313">
        <ele>259</ele>
        <time>2018-06-03T10:26:55.000Z</time>
      </trkpt>
      <trkpt lat="44.5321" lon="4.28312">
        <ele>259</ele>
        <time>2018-06-03T10:26:56.000Z</time>
      </trkpt>
      <trkpt lat="44.53209" lon="4.28311">
        <ele>259</ele>
        <time>2018-06-03T10:26:57.000Z</time>
      </trkpt>
      <trkpt lat="44.53209" lon="4.28311">
        <ele>259</ele>
        <time>2018-06-03T10:26:58.000Z</time>
      </trkpt>
      <trkpt lat="44.53208" lon="4.2831">
        <ele>259</ele>
        <time>2018-06-03T10:26:59.000Z</time>
      </trkpt>
      <trkpt lat="44.53207" lon="4.2831">
        <ele>259</ele>
        <time>2018-06-03T10:27:00.000Z</time>
      </trkpt>
      <trkpt lat="44.53205" lon="4.28309">
        <ele>259</ele>
        <time>2018-06-03T10:27:01.000Z</time>
      </trkpt>
      <trkpt lat="44.53203" lon="4.28309">
        <ele>259</ele>
        <time>2018-06-03T10:27:02.000Z</time>
      </trkpt>
      <trkpt lat="44.53202" lon="4.28309">
        <ele>259</ele>
        <time>2018-06-03T10:27:03.000Z</time>
      </trkpt>
      <trkpt lat="44.53201" lon="4.28309">
        <ele>259</ele>
        <time>2018-06-03T10:27:04.000Z</time>
      </trkpt>
      <trkpt lat="44.532" lon="4.28309">
        <ele>259</ele>
        <time>2018-06-03T10:27:05.000Z</time>
      </trkpt>
      <trkpt lat="44.53198" lon="4.2831">
        <ele>259</ele>
        <time>2018-06-03T10:27:06.000Z</time>
      </trkpt>
      <trkpt lat="44.53197" lon="4.2831">
        <ele>259</ele>
        <time>2018-06-03T10:27:07.000Z</time>
      </trkpt>
      <trkpt lat="44.53195" lon="4.2831">
        <ele>259</ele>
        <time>2018-06-03T10:27:08.000Z</time>
      </trkpt>
      <trkpt lat="44.53194" lon="4.2831">
        <ele>258</ele>
        <time>2018-06-03T10:27:09.000Z</time>
      </trkpt>
      <trkpt lat="44.53193" lon="4.2831">
        <ele>258</ele>
        <time>2018-06-03T10:27:10.000Z</time>
      </trkpt>
      <trkpt lat="44.53192" lon="4.2831">
        <ele>258</ele>
        <time>2018-06-03T10:27:11.000Z</time>
      </trkpt>
      <trkpt lat="44.53191" lon="4.2831">
        <ele>258</ele>
        <time>2018-06-03T10:27:12.000Z</time>
      </trkpt>
      <trkpt lat="44.53189" lon="4.2831">
        <ele>258</ele>
        <time>2018-06-03T10:27:13.000Z</time>
      </trkpt>
      <trkpt lat="44.53187" lon="4.28311">
        <ele>258</ele>
        <time>2018-06-03T10:27:14.000Z</time>
      </trkpt>
      <trkpt lat="44.53186" lon="4.28311">
        <ele>258</ele>
        <time>2018-06-03T10:27:15.000Z</time>
      </trkpt>
      <trkpt lat="44.53184" lon="4.2831">
        <ele>258</ele>
        <time>2018-06-03T10:27:16.000Z</time>
      </trkpt>
      <trkpt lat="44.53182" lon="4.2831">
        <ele>257</ele>
        <time>2018-06-03T10:27:17.000Z</time>
      </trkpt>
      <trkpt lat="44.53181" lon="4.28311">
        <ele>257</ele>
        <time>2018-06-03T10:27:18.000Z</time>
      </trkpt>
      <trkpt lat="44.53179" lon="4.28311">
        <ele>257</ele>
        <time>2018-06-03T10:27:19.000Z</time>
      </trkpt>
      <trkpt lat="44.53177" lon="4.28311">
        <ele>257</ele>
        <time>2018-06-03T10:27:20.000Z</time>
      </trkpt>
      <trkpt lat="44.53175" lon="4.28312">
        <ele>256</ele>
        <time>2018-06-03T10:27:21.000Z</time>
      </trkpt>
      <trkpt lat="44.53173" lon="4.28312">
        <ele>256</ele>
        <time>2018-06-03T10:27:22.000Z</time>
      </trkpt>
      <trkpt lat="44.5317" lon="4.28312">
        <ele>256</ele>
        <time>2018-06-03T10:27:23.000Z</time>
      </trkpt>
      <trkpt lat="44.53168" lon="4.28312">
        <ele>256</ele>
        <time>2018-06-03T10:27:24.000Z</time>
      </trkpt>
      <trkpt lat="44.53166" lon="4.28312">
        <ele>260</ele>
        <time>2018-06-03T10:27:25.000Z</time>
      </trkpt>
      <trkpt lat="44.53164" lon="4.28312">
        <ele>260</ele>
        <time>2018-06-03T10:27:26.000Z</time>
      </trkpt>
      <trkpt lat="44.53162" lon="4.28312">
        <ele>260</ele>
        <time>2018-06-03T10:27:27.000Z</time>
      </trkpt>
      <trkpt lat="44.5316" lon="4.28312">
        <ele>260</ele>
        <time>2018-06-03T10:27:28.000Z</time>
      </trkpt>
      <trkpt lat="44.53157" lon="4.28312">
        <ele>261</ele>
        <time>2018-06-03T10:27:29.000Z</time>
      </trkpt>
      <trkpt lat="44.53155" lon="4.28312">
        <ele>261</ele>
        <time>2018-06-03T10:27:30.000Z</time>
      </trkpt>
      <trkpt lat="44.53153" lon="4.28313">
        <ele>261</ele>
        <time>2018-06-03T10:27:31.000Z</time>
      </trkpt>
      <trkpt lat="44.53151" lon="4.28313">
        <ele>262</ele>
        <time>2018-06-03T10:27:32.000Z</time>
      </trkpt>
      <trkpt lat="44.5315" lon="4.28313">
        <ele>262</ele>
        <time>2018-06-03T10:27:33.000Z</time>
      </trkpt>
      <trkpt lat="44.53149" lon="4.28313">
        <ele>262</ele>
        <time>2018-06-03T10:27:34.000Z</time>
      </trkpt>
      <trkpt lat="44.53148" lon="4.28313">
        <ele>262</ele>
        <time>2018-06-03T10:27:35.000Z</time>
      </trkpt>
      <trkpt lat="44.53147" lon="4.28313">
        <ele>263</ele>
        <time>2018-06-03T10:27:36.000Z</time>
      </trkpt>
      <trkpt lat="44.53146" lon="4.28313">
        <ele>263</ele>
        <time>2018-06-03T10:27:37.000Z</time>
      </trkpt>
      <trkpt lat="44.53144" lon="4.28313">
        <ele>263</ele>
        <time>2018-06-03T10:27:38.000Z</time>
      </trkpt>
      <trkpt lat="44.53142" lon="4.28313">
        <ele>264</ele>
        <time>2018-06-03T10:27:39.000Z</time>
      </trkpt>
      <trkpt lat="44.53141" lon="4.28312">
        <ele>264</ele>
        <time>2018-06-03T10:27:40.000Z</time>
      </trkpt>
      <trkpt lat="44.53139" lon="4.28312">
        <ele>264</ele>
        <time>2018-06-03T10:27:41.000Z</time>
      </trkpt>
      <trkpt lat="44.53137" lon="4.28312">
        <ele>265</ele>
        <time>2018-06-03T10:27:42.000Z</time>
      </trkpt>
      <trkpt lat="44.53135" lon="4.28311">
        <ele>265</ele>
        <time>2018-06-03T10:27:43.000Z</time>
      </trkpt>
      <trkpt lat="44.53132" lon="4.28311">
        <ele>266</ele>
        <time>2018-06-03T10:27:44.000Z</time>
      </trkpt>
      <trkpt lat="44.5313" lon="4.2831">
        <ele>266</ele>
        <time>2018-06-03T10:27:45.000Z</time>
      </trkpt>
      <trkpt lat="44.53128" lon="4.2831">
        <ele>266</ele>
        <time>2018-06-03T10:27:46.000Z</time>
      </trkpt>
      <trkpt lat="44.53126" lon="4.28311">
        <ele>266</ele>
        <time>2018-06-03T10:27:47.000Z</time>
      </trkpt>
      <trkpt lat="44.53125" lon="4.28311">
        <ele>267</ele>
        <time>2018-06-03T10:27:48.000Z</time>
      </trkpt>
      <trkpt lat="44.53124" lon="4.28311">
        <ele>267</ele>
        <time>2018-06-03T10:27:49.000Z</time>
      </trkpt>
      <trkpt lat="44.53122" lon="4.28312">
        <ele>267</ele>
        <time>2018-06-03T10:27:50.000Z</time>
      </trkpt>
      <trkpt lat="44.5312" lon="4.28313">
        <ele>267</ele>
        <time>2018-06-03T10:27:51.000Z</time>
      </trkpt>
      <trkpt lat="44.53118" lon="4.28314">
        <ele>267</ele>
        <time>2018-06-03T10:27:52.000Z</time>
      </trkpt>
      <trkpt lat="44.53116" lon="4.28315">
        <ele>267</ele>
        <time>2018-06-03T10:27:53.000Z</time>
      </trkpt>
      <trkpt lat="44.53115" lon="4.28316">
        <ele>267</ele>
        <time>2018-06-03T10:27:54.000Z</time>
      </trkpt>
      <trkpt lat="44.53113" lon="4.28317">
        <ele>267</ele>
        <time>2018-06-03T10:27:55.000Z</time>
      </trkpt>
      <trkpt lat="44.53111" lon="4.28318">
        <ele>267</ele>
        <time>2018-06-03T10:27:56.000Z</time>
      </trkpt>
      <trkpt lat="44.53109" lon="4.28319">
        <ele>267</ele>
        <time>2018-06-03T10:27:57.000Z</time>
      </trkpt>
      <trkpt lat="44.53107" lon="4.2832">
        <ele>267</ele>
        <time>2018-06-03T10:27:58.000Z</time>
      </trkpt>
      <trkpt lat="44.53106" lon="4.28321">
        <ele>266</ele>
        <time>2018-06-03T10:27:59.000Z</time>
      </trkpt>
      <trkpt lat="44.53104" lon="4.28321">
        <ele>266</ele>
        <time>2018-06-03T10:28:00.000Z</time>
      </trkpt>
      <trkpt lat="44.53103" lon="4.28322">
        <ele>266</ele>
        <time>2018-06-03T10:28:01.000Z</time>
      </trkpt>
      <trkpt lat="44.53101" lon="4.28323">
        <ele>266</ele>
        <time>2018-06-03T10:28:02.000Z</time>
      </trkpt>
      <trkpt lat="44.531" lon="4.28324">
        <ele>266</ele>
        <time>2018-06-03T10:28:03.000Z</time>
      </trkpt>
      <trkpt lat="44.53098" lon="4.28325">
        <ele>266</ele>
        <time>2018-06-03T10:28:04.000Z</time>
      </trkpt>
      <trkpt lat="44.53096" lon="4.28326">
        <ele>265</ele>
        <time>2018-06-03T10:28:05.000Z</time>
      </trkpt>
      <trkpt lat="44.53094" lon="4.28327">
        <ele>265</ele>
        <time>2018-06-03T10:28:06.000Z</time>
      </trkpt>
      <trkpt lat="44.53093" lon="4.28328">
        <ele>265</ele>
        <time>2018-06-03T10:28:07.000Z</time>
      </trkpt>
      <trkpt lat="44.53092" lon="4.28329">
        <ele>264</ele>
        <time>2018-06-03T10:28:08.000Z</time>
      </trkpt>
      <trkpt lat="44.5309" lon="4.2833">
        <ele>264</ele>
        <time>2018-06-03T10:28:09.000Z</time>
      </trkpt>
      <trkpt lat="44.53088" lon="4.28331">
        <ele>263</ele>
        <time>2018-06-03T10:28:10.000Z</time>
      </trkpt>
      <trkpt lat="44.53086" lon="4.28333">
        <ele>263</ele>
        <time>2018-06-03T10:28:11.000Z</time>
      </trkpt>
      <trkpt lat="44.53084" lon="4.28334">
        <ele>261</ele>
        <time>2018-06-03T10:28:12.000Z</time>
      </trkpt>
      <trkpt lat="44.53082" lon="4.28336">
        <ele>262</ele>
        <time>2018-06-03T10:28:13.000Z</time>
      </trkpt>
      <trkpt lat="44.53081" lon="4.28337">
        <ele>262</ele>
        <time>2018-06-03T10:28:14.000Z</time>
      </trkpt>
      <trkpt lat="44.53079" lon="4.28339">
        <ele>262</ele>
        <time>2018-06-03T10:28:15.000Z</time>
      </trkpt>
      <trkpt lat="44.53078" lon="4.28341">
        <ele>263</ele>
        <time>2018-06-03T10:28:16.000Z</time>
      </trkpt>
      <trkpt lat="44.53076" lon="4.28342">
        <ele>263</ele>
        <time>2018-06-03T10:28:17.000Z</time>
      </trkpt>
      <trkpt lat="44.53074" lon="4.28344">
        <ele>263</ele>
        <time>2018-06-03T10:28:18.000Z</time>
      </trkpt>
      <trkpt lat="44.53073" lon="4.28346">
        <ele>263</ele>
        <time>2018-06-03T10:28:19.000Z</time>
      </trkpt>
      <trkpt lat="44.53072" lon="4.28348">
        <ele>263</ele>
        <time>2018-06-03T10:28:20.000Z</time>
      </trkpt>
      <trkpt lat="44.53071" lon="4.2835">
        <ele>263</ele>
        <time>2018-06-03T10:28:21.000Z</time>
      </trkpt>
      <trkpt lat="44.5307" lon="4.28353">
        <ele>263</ele>
        <time>2018-06-03T10:28:22.000Z</time>
      </trkpt>
      <trkpt lat="44.53069" lon="4.28355">
        <ele>263</ele>
        <time>2018-06-03T10:28:23.000Z</time>
      </trkpt>
      <trkpt lat="44.53068" lon="4.28357">
        <ele>262</ele>
        <time>2018-06-03T10:28:24.000Z</time>
      </trkpt>
      <trkpt lat="44.53067" lon="4.28359">
        <ele>262</ele>
        <time>2018-06-03T10:28:25.000Z</time>
      </trkpt>
      <trkpt lat="44.53066" lon="4.28361">
        <ele>262</ele>
        <time>2018-06-03T10:28:26.000Z</time>
      </trkpt>
      <trkpt lat="44.53064" lon="4.28363">
        <ele>262</ele>
        <time>2018-06-03T10:28:27.000Z</time>
      </trkpt>
      <trkpt lat="44.53063" lon="4.28364">
        <ele>262</ele>
        <time>2018-06-03T10:28:28.000Z</time>
      </trkpt>
      <trkpt lat="44.53061" lon="4.28366">
        <ele>262</ele>
        <time>2018-06-03T10:28:29.000Z</time>
      </trkpt>
      <trkpt lat="44.5306" lon="4.28367">
        <ele>262</ele>
        <time>2018-06-03T10:28:30.000Z</time>
      </trkpt>
      <trkpt lat="44.53059" lon="4.28369">
        <ele>262</ele>
        <time>2018-06-03T10:28:31.000Z</time>
      </trkpt>
      <trkpt lat="44.53057" lon="4.2837">
        <ele>262</ele>
        <time>2018-06-03T10:28:32.000Z</time>
      </trkpt>
      <trkpt lat="44.53055" lon="4.28371">
        <ele>262</ele>
        <time>2018-06-03T10:28:33.000Z</time>
      </trkpt>
      <trkpt lat="44.53054" lon="4.28372">
        <ele>262</ele>
        <time>2018-06-03T10:28:34.000Z</time>
      </trkpt>
      <trkpt lat="44.53052" lon="4.28374">
        <ele>262</ele>
        <time>2018-06-03T10:28:35.000Z</time>
      </trkpt>
      <trkpt lat="44.53051" lon="4.28375">
        <ele>263</ele>
        <time>2018-06-03T10:28:36.000Z</time>
      </trkpt>
      <trkpt lat="44.53049" lon="4.28376">
        <ele>263</ele>
        <time>2018-06-03T10:28:37.000Z</time>
      </trkpt>
      <trkpt lat="44.53047" lon="4.28377">
        <ele>263</ele>
        <time>2018-06-03T10:28:38.000Z</time>
      </trkpt>
      <trkpt lat="44.53046" lon="4.28378">
        <ele>263</ele>
        <time>2018-06-03T10:28:39.000Z</time>
      </trkpt>
      <trkpt lat="44.53044" lon="4.2838">
        <ele>263</ele>
        <time>2018-06-03T10:28:40.000Z</time>
      </trkpt>
      <trkpt lat="44.53043" lon="4.28381">
        <ele>263</ele>
        <time>2018-06-03T10:28:41.000Z</time>
      </trkpt>
      <trkpt lat="44.53043" lon="4.28383">
        <ele>263</ele>
        <time>2018-06-03T10:28:42.000Z</time>
      </trkpt>
      <trkpt lat="44.53041" lon="4.28384">
        <ele>263</ele>
        <time>2018-06-03T10:28:43.000Z</time>
      </trkpt>
      <trkpt lat="44.5304" lon="4.28386">
        <ele>263</ele>
        <time>2018-06-03T10:28:44.000Z</time>
      </trkpt>
      <trkpt lat="44.53038" lon="4.28387">
        <ele>263</ele>
        <time>2018-06-03T10:28:45.000Z</time>
      </trkpt>
      <trkpt lat="44.53037" lon="4.28389">
        <ele>264</ele>
        <time>2018-06-03T10:28:46.000Z</time>
      </trkpt>
      <trkpt lat="44.53035" lon="4.2839">
        <ele>264</ele>
        <time>2018-06-03T10:28:47.000Z</time>
      </trkpt>
      <trkpt lat="44.53034" lon="4.28392">
        <ele>264</ele>
        <time>2018-06-03T10:28:48.000Z</time>
      </trkpt>
      <trkpt lat="44.53032" lon="4.28394">
        <ele>264</ele>
        <time>2018-06-03T10:28:49.000Z</time>
      </trkpt>
      <trkpt lat="44.53031" lon="4.28395">
        <ele>264</ele>
        <time>2018-06-03T10:28:50.000Z</time>
      </trkpt>
      <trkpt lat="44.53029" lon="4.28397">
        <ele>264</ele>
        <time>2018-06-03T10:28:51.000Z</time>
      </trkpt>
      <trkpt lat="44.53028" lon="4.28398">
        <ele>265</ele>
        <time>2018-06-03T10:28:52.000Z</time>
      </trkpt>
      <trkpt lat="44.53026" lon="4.28399">
        <ele>265</ele>
        <time>2018-06-03T10:28:53.000Z</time>
      </trkpt>
      <trkpt lat="44.53024" lon="4.28401">
        <ele>265</ele>
        <time>2018-06-03T10:28:54.000Z</time>
      </trkpt>
      <trkpt lat="44.53022" lon="4.28402">
        <ele>266</ele>
        <time>2018-06-03T10:28:55.000Z</time>
      </trkpt>
      <trkpt lat="44.53021" lon="4.28404">
        <ele>266</ele>
        <time>2018-06-03T10:28:56.000Z</time>
      </trkpt>
      <trkpt lat="44.53019" lon="4.28405">
        <ele>266</ele>
        <time>2018-06-03T10:28:57.000Z</time>
      </trkpt>
      <trkpt lat="44.53017" lon="4.28407">
        <ele>267</ele>
        <time>2018-06-03T10:28:58.000Z</time>
      </trkpt>
      <trkpt lat="44.53016" lon="4.28409">
        <ele>267</ele>
        <time>2018-06-03T10:28:59.000Z</time>
      </trkpt>
      <trkpt lat="44.53015" lon="4.2841">
        <ele>267</ele>
        <time>2018-06-03T10:29:00.000Z</time>
      </trkpt>
      <trkpt lat="44.53013" lon="4.28412">
        <ele>268</ele>
        <time>2018-06-03T10:29:01.000Z</time>
      </trkpt>
      <trkpt lat="44.53011" lon="4.28414">
        <ele>268</ele>
        <time>2018-06-03T10:29:02.000Z</time>
      </trkpt>
      <trkpt lat="44.5301" lon="4.28417">
        <ele>262</ele>
        <time>2018-06-03T10:29:03.000Z</time>
      </trkpt>
      <trkpt lat="44.53009" lon="4.28419">
        <ele>262</ele>
        <time>2018-06-03T10:29:04.000Z</time>
      </trkpt>
      <trkpt lat="44.53007" lon="4.28422">
        <ele>263</ele>
        <time>2018-06-03T10:29:05.000Z</time>
      </trkpt>
      <trkpt lat="44.53006" lon="4.28425">
        <ele>262</ele>
        <time>2018-06-03T10:29:06.000Z</time>
      </trkpt>
      <trkpt lat="44.53005" lon="4.28427">
        <ele>261</ele>
        <time>2018-06-03T10:29:07.000Z</time>
      </trkpt>
      <trkpt lat="44.53003" lon="4.28429">
        <ele>260</ele>
        <time>2018-06-03T10:29:08.000Z</time>
      </trkpt>
      <trkpt lat="44.53002" lon="4.28431">
        <ele>259</ele>
        <time>2018-06-03T10:29:09.000Z</time>
      </trkpt>
      <trkpt lat="44.53" lon="4.28433">
        <ele>258</ele>
        <time>2018-06-03T10:29:10.000Z</time>
      </trkpt>
      <trkpt lat="44.52999" lon="4.28435">
        <ele>274</ele>
        <time>2018-06-03T10:29:11.000Z</time>
      </trkpt>
      <trkpt lat="44.52998" lon="4.28438">
        <ele>275</ele>
        <time>2018-06-03T10:29:12.000Z</time>
      </trkpt>
      <trkpt lat="44.52996" lon="4.2844">
        <ele>275</ele>
        <time>2018-06-03T10:29:13.000Z</time>
      </trkpt>
      <trkpt lat="44.52995" lon="4.28442">
        <ele>275</ele>
        <time>2018-06-03T10:29:14.000Z</time>
      </trkpt>
      <trkpt lat="44.52994" lon="4.28444">
        <ele>275</ele>
        <time>2018-06-03T10:29:15.000Z</time>
      </trkpt>
      <trkpt lat="44.52992" lon="4.28445">
        <ele>275</ele>
        <time>2018-06-03T10:29:16.000Z</time>
      </trkpt>
      <trkpt lat="44.52991" lon="4.28447">
        <ele>275</ele>
        <time>2018-06-03T10:29:17.000Z</time>
      </trkpt>
      <trkpt lat="44.52989" lon="4.28449">
        <ele>275</ele>
        <time>2018-06-03T10:29:18.000Z</time>
      </trkpt>
      <trkpt lat="44.52988" lon="4.28451">
        <ele>275</ele>
        <time>2018-06-03T10:29:19.000Z</time>
      </trkpt>
      <trkpt lat="44.52987" lon="4.28453">
        <ele>275</ele>
        <time>2018-06-03T10:29:20.000Z</time>
      </trkpt>
      <trkpt lat="44.52985" lon="4.28455">
        <ele>275</ele>
        <time>2018-06-03T10:29:21.000Z</time>
      </trkpt>
      <trkpt lat="44.52984" lon="4.28456">
        <ele>275</ele>
        <time>2018-06-03T10:29:22.000Z</time>
      </trkpt>
      <trkpt lat="44.52982" lon="4.28458">
        <ele>275</ele>
        <time>2018-06-03T10:29:23.000Z</time>
      </trkpt>
      <trkpt lat="44.52981" lon="4.2846">
        <ele>275</ele>
        <time>2018-06-03T10:29:24.000Z</time>
      </trkpt>
      <trkpt lat="44.52979" lon="4.28461">
        <ele>275</ele>
        <time>2018-06-03T10:29:25.000Z</time>
      </trkpt>
      <trkpt lat="44.52978" lon="4.28462">
        <ele>275</ele>
        <time>2018-06-03T10:29:26.000Z</time>
      </trkpt>
      <trkpt lat="44.52976" lon="4.28464">
        <ele>275</ele>
        <time>2018-06-03T10:29:27.000Z</time>
      </trkpt>
      <trkpt lat="44.52975" lon="4.28466">
        <ele>275</ele>
        <time>2018-06-03T10:29:28.000Z</time>
      </trkpt>
      <trkpt lat="44.52973" lon="4.28467">
        <ele>276</ele>
        <time>2018-06-03T10:29:29.000Z</time>
      </trkpt>
      <trkpt lat="44.52972" lon="4.28469">
        <ele>276</ele>
        <time>2018-06-03T10:29:30.000Z</time>
      </trkpt>
      <trkpt lat="44.5297" lon="4.28471">
        <ele>276</ele>
        <time>2018-06-03T10:29:31.000Z</time>
      </trkpt>
      <trkpt lat="44.52969" lon="4.28473">
        <ele>276</ele>
        <time>2018-06-03T10:29:32.000Z</time>
      </trkpt>
      <trkpt lat="44.52968" lon="4.28475">
        <ele>276</ele>
        <time>2018-06-03T10:29:33.000Z</time>
      </trkpt>
      <trkpt lat="44.52967" lon="4.28478">
        <ele>276</ele>
        <time>2018-06-03T10:29:34.000Z</time>
      </trkpt>
      <trkpt lat="44.52966" lon="4.2848">
        <ele>276</ele>
        <time>2018-06-03T10:29:35.000Z</time>
      </trkpt>
      <trkpt lat="44.52965" lon="4.28483">
        <ele>276</ele>
        <time>2018-06-03T10:29:36.000Z</time>
      </trkpt>
      <trkpt lat="44.52964" lon="4.28485">
        <ele>276</ele>
        <time>2018-06-03T10:29:37.000Z</time>
      </trkpt>
      <trkpt lat="44.52964" lon="4.28488">
        <ele>276</ele>
        <time>2018-06-03T10:29:38.000Z</time>
      </trkpt>
      <trkpt lat="44.52963" lon="4.28491">
        <ele>276</ele>
        <time>2018-06-03T10:29:39.000Z</time>
      </trkpt>
      <trkpt lat="44.52963" lon="4.28494">
        <ele>276</ele>
        <time>2018-06-03T10:29:40.000Z</time>
      </trkpt>
      <trkpt lat="44.52962" lon="4.28496">
        <ele>276</ele>
        <time>2018-06-03T10:29:41.000Z</time>
      </trkpt>
      <trkpt lat="44.52961" lon="4.28498">
        <ele>276</ele>
        <time>2018-06-03T10:29:42.000Z</time>
      </trkpt>
      <trkpt lat="44.5296" lon="4.28501">
        <ele>268</ele>
        <time>2018-06-03T10:29:43.000Z</time>
      </trkpt>
      <trkpt lat="44.52959" lon="4.28503">
        <ele>269</ele>
        <time>2018-06-03T10:29:44.000Z</time>
      </trkpt>
      <trkpt lat="44.52958" lon="4.28505">
        <ele>269</ele>
        <time>2018-06-03T10:29:45.000Z</time>
      </trkpt>
      <trkpt lat="44.52957" lon="4.28507">
        <ele>269</ele>
        <time>2018-06-03T10:29:46.000Z</time>
      </trkpt>
      <trkpt lat="44.52956" lon="4.28509">
        <ele>269</ele>
        <time>2018-06-03T10:29:47.000Z</time>
      </trkpt>
      <trkpt lat="44.52955" lon="4.28511">
        <ele>270</ele>
        <time>2018-06-03T10:29:48.000Z</time>
      </trkpt>
      <trkpt lat="44.52955" lon="4.28513">
        <ele>270</ele>
        <time>2018-06-03T10:29:49.000Z</time>
      </trkpt>
      <trkpt lat="44.52954" lon="4.28516">
        <ele>270</ele>
        <time>2018-06-03T10:29:50.000Z</time>
      </trkpt>
      <trkpt lat="44.52953" lon="4.28518">
        <ele>270</ele>
        <time>2018-06-03T10:29:51.000Z</time>
      </trkpt>
      <trkpt lat="44.52953" lon="4.28521">
        <ele>270</ele>
        <time>2018-06-03T10:29:52.000Z</time>
      </trkpt>
      <trkpt lat="44.52951" lon="4.28523">
        <ele>270</ele>
        <time>2018-06-03T10:29:53.000Z</time>
      </trkpt>
      <trkpt lat="44.5295" lon="4.28525">
        <ele>270</ele>
        <time>2018-06-03T10:29:54.000Z</time>
      </trkpt>
      <trkpt lat="44.52949" lon="4.28527">
        <ele>270</ele>
        <time>2018-06-03T10:29:55.000Z</time>
      </trkpt>
      <trkpt lat="44.52948" lon="4.28529">
        <ele>270</ele>
        <time>2018-06-03T10:29:56.000Z</time>
      </trkpt>
      <trkpt lat="44.52947" lon="4.28532">
        <ele>270</ele>
        <time>2018-06-03T10:29:57.000Z</time>
      </trkpt>
      <trkpt lat="44.52947" lon="4.28534">
        <ele>270</ele>
        <time>2018-06-03T10:29:58.000Z</time>
      </trkpt>
      <trkpt lat="44.52947" lon="4.28537">
        <ele>270</ele>
        <time>2018-06-03T10:29:59.000Z</time>
      </trkpt>
      <trkpt lat="44.52946" lon="4.28539">
        <ele>270</ele>
        <time>2018-06-03T10:30:00.000Z</time>
      </trkpt>
      <trkpt lat="44.52945" lon="4.28541">
        <ele>270</ele>
        <time>2018-06-03T10:30:01.000Z</time>
      </trkpt>
      <trkpt lat="44.52944" lon="4.28544">
        <ele>270</ele>
        <time>2018-06-03T10:30:02.000Z</time>
      </trkpt>
      <trkpt lat="44.52943" lon="4.28546">
        <ele>270</ele>
        <time>2018-06-03T10:30:03.000Z</time>
      </trkpt>
      <trkpt lat="44.52941" lon="4.28549">
        <ele>271</ele>
        <time>2018-06-03T10:30:04.000Z</time>
      </trkpt>
      <trkpt lat="44.5294" lon="4.28552">
        <ele>271</ele>
        <time>2018-06-03T10:30:05.000Z</time>
      </trkpt>
      <trkpt lat="44.5294" lon="4.28554">
        <ele>271</ele>
        <time>2018-06-03T10:30:06.000Z</time>
      </trkpt>
      <trkpt lat="44.52939" lon="4.28556">
        <ele>271</ele>
        <time>2018-06-03T10:30:07.000Z</time>
      </trkpt>
      <trkpt lat="44.52938" lon="4.28558">
        <ele>271</ele>
        <time>2018-06-03T10:30:08.000Z</time>
      </trkpt>
      <trkpt lat="44.52937" lon="4.28561">
        <ele>272</ele>
        <time>2018-06-03T10:30:09.000Z</time>
      </trkpt>
      <trkpt lat="44.52937" lon="4.28563">
        <ele>272</ele>
        <time>2018-06-03T10:30:10.000Z</time>
      </trkpt>
      <trkpt lat="44.52936" lon="4.28565">
        <ele>272</ele>
        <time>2018-06-03T10:30:11.000Z</time>
      </trkpt>
      <trkpt lat="44.52935" lon="4.28567">
        <ele>273</ele>
        <time>2018-06-03T10:30:12.000Z</time>
      </trkpt>
      <trkpt lat="44.52933" lon="4.28569">
        <ele>273</ele>
        <time>2018-06-03T10:30:13.000Z</time>
      </trkpt>
      <trkpt lat="44.52932" lon="4.28571">
        <ele>274</ele>
        <time>2018-06-03T10:30:14.000Z</time>
      </trkpt>
      <trkpt lat="44.52931" lon="4.28573">
        <ele>275</ele>
        <time>2018-06-03T10:30:15.000Z</time>
      </trkpt>
      <trkpt lat="44.5293" lon="4.28576">
        <ele>275</ele>
        <time>2018-06-03T10:30:16.000Z</time>
      </trkpt>
      <trkpt lat="44.52929" lon="4.28578">
        <ele>276</ele>
        <time>2018-06-03T10:30:17.000Z</time>
      </trkpt>
      <trkpt lat="44.52928" lon="4.2858">
        <ele>277</ele>
        <time>2018-06-03T10:30:18.000Z</time>
      </trkpt>
      <trkpt lat="44.52927" lon="4.28583">
        <ele>277</ele>
        <time>2018-06-03T10:30:19.000Z</time>
      </trkpt>
      <trkpt lat="44.52926" lon="4.28585">
        <ele>276</ele>
        <time>2018-06-03T10:30:20.000Z</time>
      </trkpt>
      <trkpt lat="44.52925" lon="4.28587">
        <ele>277</ele>
        <time>2018-06-03T10:30:21.000Z</time>
      </trkpt>
      <trkpt lat="44.52924" lon="4.28589">
        <ele>276</ele>
        <time>2018-06-03T10:30:22.000Z</time>
      </trkpt>
      <trkpt lat="44.52923" lon="4.28591">
        <ele>276</ele>
        <time>2018-06-03T10:30:23.000Z</time>
      </trkpt>
      <trkpt lat="44.52922" lon="4.28593">
        <ele>276</ele>
        <time>2018-06-03T10:30:24.000Z</time>
      </trkpt>
      <trkpt lat="44.52921" lon="4.28596">
        <ele>275</ele>
        <time>2018-06-03T10:30:25.000Z</time>
      </trkpt>
      <trkpt lat="44.5292" lon="4.28598">
        <ele>274</ele>
        <time>2018-06-03T10:30:26.000Z</time>
      </trkpt>
      <trkpt lat="44.52919" lon="4.286">
        <ele>274</ele>
        <time>2018-06-03T10:30:27.000Z</time>
      </trkpt>
      <trkpt lat="44.52918" lon="4.28602">
        <ele>273</ele>
        <time>2018-06-03T10:30:28.000Z</time>
      </trkpt>
      <trkpt lat="44.52917" lon="4.28604">
        <ele>273</ele>
        <time>2018-06-03T10:30:29.000Z</time>
      </trkpt>
      <trkpt lat="44.52917" lon="4.28607">
        <ele>272</ele>
        <time>2018-06-03T10:30:30.000Z</time>
      </trkpt>
      <trkpt lat="44.52917" lon="4.2861">
        <ele>271</ele>
        <time>2018-06-03T10:30:31.000Z</time>
      </trkpt>
      <trkpt lat="44.52917" lon="4.28613">
        <ele>271</ele>
        <time>2018-06-03T10:30:32.000Z</time>
      </trkpt>
      <trkpt lat="44.52917" lon="4.28615">
        <ele>271</ele>
        <time>2018-06-03T10:30:33.000Z</time>
      </trkpt>
      <trkpt lat="44.52917" lon="4.28618">
        <ele>271</ele>
        <time>2018-06-03T10:30:34.000Z</time>
      </trkpt>
      <trkpt lat="44.52917" lon="4.28621">
        <ele>270</ele>
        <time>2018-06-03T10:30:35.000Z</time>
      </trkpt>
      <trkpt lat="44.52917" lon="4.28623">
        <ele>270</ele>
        <time>2018-06-03T10:30:36.000Z</time>
      </trkpt>
      <trkpt lat="44.52917" lon="4.28626">
        <ele>287</ele>
        <time>2018-06-03T10:30:37.000Z</time>
      </trkpt>
      <trkpt lat="44.52917" lon="4.28629">
        <ele>270</ele>
        <time>2018-06-03T10:30:38.000Z</time>
      </trkpt>
      <trkpt lat="44.52917" lon="4.28632">
        <ele>271</ele>
        <time>2018-06-03T10:30:39.000Z</time>
      </trkpt>
      <trkpt lat="44.52917" lon="4.28634">
        <ele>271</ele>
        <time>2018-06-03T10:30:40.000Z</time>
      </trkpt>
      <trkpt lat="44.52917" lon="4.28637">
        <ele>271</ele>
        <time>2018-06-03T10:30:41.000Z</time>
      </trkpt>
      <trkpt lat="44.52918" lon="4.28639">
        <ele>272</ele>
        <time>2018-06-03T10:30:42.000Z</time>
      </trkpt>
      <trkpt lat="44.52918" lon="4.28642">
        <ele>272</ele>
        <time>2018-06-03T10:30:43.000Z</time>
      </trkpt>
      <trkpt lat="44.52918" lon="4.28644">
        <ele>273</ele>
        <time>2018-06-03T10:30:44.000Z</time>
      </trkpt>
      <trkpt lat="44.52918" lon="4.28647">
        <ele>273</ele>
        <time>2018-06-03T10:30:45.000Z</time>
      </trkpt>
      <trkpt lat="44.52918" lon="4.28649">
        <ele>274</ele>
        <time>2018-06-03T10:30:46.000Z</time>
      </trkpt>
      <trkpt lat="44.52919" lon="4.28652">
        <ele>275</ele>
        <time>2018-06-03T10:30:47.000Z</time>
      </trkpt>
      <trkpt lat="44.52919" lon="4.28654">
        <ele>276</ele>
        <time>2018-06-03T10:30:48.000Z</time>
      </trkpt>
      <trkpt lat="44.52918" lon="4.28656">
        <ele>277</ele>
        <time>2018-06-03T10:30:49.000Z</time>
      </trkpt>
      <trkpt lat="44.52918" lon="4.28659">
        <ele>278</ele>
        <time>2018-06-03T10:30:50.000Z</time>
      </trkpt>
      <trkpt lat="44.52918" lon="4.28662">
        <ele>280</ele>
        <time>2018-06-03T10:30:51.000Z</time>
      </trkpt>
      <trkpt lat="44.52918" lon="4.28664">
        <ele>282</ele>
        <time>2018-06-03T10:30:52.000Z</time>
      </trkpt>
      <trkpt lat="44.52918" lon="4.28667">
        <ele>283</ele>
        <time>2018-06-03T10:30:53.000Z</time>
      </trkpt>
      <trkpt lat="44.52919" lon="4.2867">
        <ele>282</ele>
        <time>2018-06-03T10:30:54.000Z</time>
      </trkpt>
      <trkpt lat="44.52919" lon="4.28672">
        <ele>281</ele>
        <time>2018-06-03T10:30:55.000Z</time>
      </trkpt>
      <trkpt lat="44.52919" lon="4.28675">
        <ele>279</ele>
        <time>2018-06-03T10:30:56.000Z</time>
      </trkpt>
      <trkpt lat="44.52919" lon="4.28678">
        <ele>278</ele>
        <time>2018-06-03T10:30:57.000Z</time>
      </trkpt>
      <trkpt lat="44.5292" lon="4.28681">
        <ele>278</ele>
        <time>2018-06-03T10:30:58.000Z</time>
      </trkpt>
      <trkpt lat="44.5292" lon="4.28683">
        <ele>277</ele>
        <time>2018-06-03T10:30:59.000Z</time>
      </trkpt>
      <trkpt lat="44.5292" lon="4.28686">
        <ele>276</ele>
        <time>2018-06-03T10:31:00.000Z</time>
      </trkpt>
      <trkpt lat="44.5292" lon="4.28689">
        <ele>276</ele>
        <time>2018-06-03T10:31:01.000Z</time>
      </trkpt>
      <trkpt lat="44.5292" lon="4.28691">
        <ele>276</ele>
        <time>2018-06-03T10:31:02.000Z</time>
      </trkpt>
      <trkpt lat="44.5292" lon="4.28694">
        <ele>275</ele>
        <time>2018-06-03T10:31:03.000Z</time>
      </trkpt>
      <trkpt lat="44.52921" lon="4.28696">
        <ele>275</ele>
        <time>2018-06-03T10:31:04.000Z</time>
      </trkpt>
      <trkpt lat="44.52921" lon="4.28699">
        <ele>275</ele>
        <time>2018-06-03T10:31:05.000Z</time>
      </trkpt>
      <trkpt lat="44.52921" lon="4.28701">
        <ele>275</ele>
        <time>2018-06-03T10:31:06.000Z</time>
      </trkpt>
      <trkpt lat="44.52921" lon="4.28704">
        <ele>275</ele>
        <time>2018-06-03T10:31:07.000Z</time>
      </trkpt>
      <trkpt lat="44.52921" lon="4.28706">
        <ele>275</ele>
        <time>2018-06-03T10:31:08.000Z</time>
      </trkpt>
      <trkpt lat="44.52921" lon="4.28709">
        <ele>275</ele>
        <time>2018-06-03T10:31:09.000Z</time>
      </trkpt>
      <trkpt lat="44.52921" lon="4.28712">
        <ele>276</ele>
        <time>2018-06-03T10:31:10.000Z</time>
      </trkpt>
      <trkpt lat="44.52921" lon="4.28715">
        <ele>276</ele>
        <time>2018-06-03T10:31:11.000Z</time>
      </trkpt>
      <trkpt lat="44.52921" lon="4.28718">
        <ele>276</ele>
        <time>2018-06-03T10:31:12.000Z</time>
      </trkpt>
      <trkpt lat="44.52922" lon="4.2872">
        <ele>277</ele>
        <time>2018-06-03T10:31:13.000Z</time>
      </trkpt>
      <trkpt lat="44.52923" lon="4.28722">
        <ele>277</ele>
        <time>2018-06-03T10:31:14.000Z</time>
      </trkpt>
      <trkpt lat="44.52924" lon="4.28724">
        <ele>277</ele>
        <time>2018-06-03T10:31:15.000Z</time>
      </trkpt>
      <trkpt lat="44.52924" lon="4.28727">
        <ele>278</ele>
        <time>2018-06-03T10:31:16.000Z</time>
      </trkpt>
      <trkpt lat="44.52925" lon="4.28729">
        <ele>278</ele>
        <time>2018-06-03T10:31:17.000Z</time>
      </trkpt>
      <trkpt lat="44.52925" lon="4.28732">
        <ele>279</ele>
        <time>2018-06-03T10:31:18.000Z</time>
      </trkpt>
      <trkpt lat="44.52926" lon="4.28734">
        <ele>280</ele>
        <time>2018-06-03T10:31:19.000Z</time>
      </trkpt>
      <trkpt lat="44.52927" lon="4.28736">
        <ele>280</ele>
        <time>2018-06-03T10:31:20.000Z</time>
      </trkpt>
      <trkpt lat="44.52928" lon="4.28739">
        <ele>281</ele>
        <time>2018-06-03T10:31:21.000Z</time>
      </trkpt>
      <trkpt lat="44.52929" lon="4.28742">
        <ele>281</ele>
        <time>2018-06-03T10:31:22.000Z</time>
      </trkpt>
      <trkpt lat="44.52929" lon="4.28744">
        <ele>281</ele>
        <time>2018-06-03T10:31:23.000Z</time>
      </trkpt>
      <trkpt lat="44.5293" lon="4.28747">
        <ele>281</ele>
        <time>2018-06-03T10:31:24.000Z</time>
      </trkpt>
      <trkpt lat="44.52931" lon="4.2875">
        <ele>281</ele>
        <time>2018-06-03T10:31:25.000Z</time>
      </trkpt>
      <trkpt lat="44.52931" lon="4.28751">
        <ele>282</ele>
        <time>2018-06-03T10:31:26.000Z</time>
      </trkpt>
      <trkpt lat="44.52932" lon="4.28754">
        <ele>281</ele>
        <time>2018-06-03T10:31:27.000Z</time>
      </trkpt>
      <trkpt lat="44.52933" lon="4.28757">
        <ele>281</ele>
        <time>2018-06-03T10:31:28.000Z</time>
      </trkpt>
      <trkpt lat="44.52933" lon="4.28759">
        <ele>280</ele>
        <time>2018-06-03T10:31:29.000Z</time>
      </trkpt>
      <trkpt lat="44.52934" lon="4.28761">
        <ele>279</ele>
        <time>2018-06-03T10:31:30.000Z</time>
      </trkpt>
      <trkpt lat="44.52936" lon="4.28764">
        <ele>278</ele>
        <time>2018-06-03T10:31:31.000Z</time>
      </trkpt>
      <trkpt lat="44.52936" lon="4.28767">
        <ele>278</ele>
        <time>2018-06-03T10:31:32.000Z</time>
      </trkpt>
      <trkpt lat="44.52937" lon="4.28771">
        <ele>277</ele>
        <time>2018-06-03T10:31:33.000Z</time>
      </trkpt>
      <trkpt lat="44.52937" lon="4.28774">
        <ele>277</ele>
        <time>2018-06-03T10:31:34.000Z</time>
      </trkpt>
      <trkpt lat="44.52937" lon="4.28777">
        <ele>276</ele>
        <time>2018-06-03T10:31:35.000Z</time>
      </trkpt>
      <trkpt lat="44.52936" lon="4.2878">
        <ele>276</ele>
        <time>2018-06-03T10:31:36.000Z</time>
      </trkpt>
      <trkpt lat="44.52936" lon="4.28783">
        <ele>276</ele>
        <time>2018-06-03T10:31:37.000Z</time>
      </trkpt>
      <trkpt lat="44.52935" lon="4.28786">
        <ele>275</ele>
        <time>2018-06-03T10:31:38.000Z</time>
      </trkpt>
      <trkpt lat="44.52934" lon="4.2879">
        <ele>275</ele>
        <time>2018-06-03T10:31:39.000Z</time>
      </trkpt>
      <trkpt lat="44.52933" lon="4.28793">
        <ele>275</ele>
        <time>2018-06-03T10:31:40.000Z</time>
      </trkpt>
      <trkpt lat="44.52931" lon="4.28797">
        <ele>276</ele>
        <time>2018-06-03T10:31:41.000Z</time>
      </trkpt>
      <trkpt lat="44.52929" lon="4.288">
        <ele>276</ele>
        <time>2018-06-03T10:31:42.000Z</time>
      </trkpt>
      <trkpt lat="44.52927" lon="4.28804">
        <ele>276</ele>
        <time>2018-06-03T10:31:43.000Z</time>
      </trkpt>
      <trkpt lat="44.52924" lon="4.28807">
        <ele>277</ele>
        <time>2018-06-03T10:31:44.000Z</time>
      </trkpt>
      <trkpt lat="44.52922" lon="4.2881">
        <ele>277</ele>
        <time>2018-06-03T10:31:45.000Z</time>
      </trkpt>
      <trkpt lat="44.52919" lon="4.28813">
        <ele>278</ele>
        <time>2018-06-03T10:31:46.000Z</time>
      </trkpt>
      <trkpt lat="44.52916" lon="4.28816">
        <ele>286</ele>
        <time>2018-06-03T10:31:47.000Z</time>
      </trkpt>
      <trkpt lat="44.52914" lon="4.28818">
        <ele>286</ele>
        <time>2018-06-03T10:31:48.000Z</time>
      </trkpt>
      <trkpt lat="44.52911" lon="4.28821">
        <ele>286</ele>
        <time>2018-06-03T10:31:49.000Z</time>
      </trkpt>
      <trkpt lat="44.52908" lon="4.28825">
        <ele>286</ele>
        <time>2018-06-03T10:31:50.000Z</time>
      </trkpt>
      <trkpt lat="44.52906" lon="4.28828">
        <ele>286</ele>
        <time>2018-06-03T10:31:51.000Z</time>
      </trkpt>
      <trkpt lat="44.52904" lon="4.28832">
        <ele>286</ele>
        <time>2018-06-03T10:31:52.000Z</time>
      </trkpt>
      <trkpt lat="44.52902" lon="4.28835">
        <ele>283</ele>
        <time>2018-06-03T10:31:53.000Z</time>
      </trkpt>
      <trkpt lat="44.529" lon="4.28838">
        <ele>283</ele>
        <time>2018-06-03T10:31:54.000Z</time>
      </trkpt>
      <trkpt lat="44.52898" lon="4.28841">
        <ele>282</ele>
        <time>2018-06-03T10:31:55.000Z</time>
      </trkpt>
      <trkpt lat="44.52896" lon="4.28845">
        <ele>282</ele>
        <time>2018-06-03T10:31:56.000Z</time>
      </trkpt>
      <trkpt lat="44.52894" lon="4.28848">
        <ele>282</ele>
        <time>2018-06-03T10:31:57.000Z</time>
      </trkpt>
      <trkpt lat="44.52892" lon="4.28851">
        <ele>282</ele>
        <time>2018-06-03T10:31:58.000Z</time>
      </trkpt>
      <trkpt lat="44.52891" lon="4.28854">
        <ele>282</ele>
        <time>2018-06-03T10:31:59.000Z</time>
      </trkpt>
      <trkpt lat="44.52889" lon="4.28857">
        <ele>282</ele>
        <time>2018-06-03T10:32:00.000Z</time>
      </trkpt>
      <trkpt lat="44.52887" lon="4.28859">
        <ele>282</ele>
        <time>2018-06-03T10:32:01.000Z</time>
      </trkpt>
      <trkpt lat="44.52884" lon="4.28862">
        <ele>282</ele>
        <time>2018-06-03T10:32:02.000Z</time>
      </trkpt>
      <trkpt lat="44.52882" lon="4.28864">
        <ele>282</ele>
        <time>2018-06-03T10:32:03.000Z</time>
      </trkpt>
      <trkpt lat="44.52879" lon="4.28866">
        <ele>281</ele>
        <time>2018-06-03T10:32:04.000Z</time>
      </trkpt>
      <trkpt lat="44.52877" lon="4.2887">
        <ele>281</ele>
        <time>2018-06-03T10:32:05.000Z</time>
      </trkpt>
      <trkpt lat="44.52875" lon="4.28874">
        <ele>281</ele>
        <time>2018-06-03T10:32:06.000Z</time>
      </trkpt>
      <trkpt lat="44.52872" lon="4.28878">
        <ele>281</ele>
        <time>2018-06-03T10:32:07.000Z</time>
      </trkpt>
      <trkpt lat="44.5287" lon="4.28883">
        <ele>281</ele>
        <time>2018-06-03T10:32:08.000Z</time>
      </trkpt>
      <trkpt lat="44.52868" lon="4.28888">
        <ele>281</ele>
        <time>2018-06-03T10:32:09.000Z</time>
      </trkpt>
      <trkpt lat="44.52866" lon="4.28892">
        <ele>281</ele>
        <time>2018-06-03T10:32:10.000Z</time>
      </trkpt>
      <trkpt lat="44.52864" lon="4.28897">
        <ele>281</ele>
        <time>2018-06-03T10:32:11.000Z</time>
      </trkpt>
      <trkpt lat="44.52862" lon="4.28902">
        <ele>281</ele>
        <time>2018-06-03T10:32:12.000Z</time>
      </trkpt>
      <trkpt lat="44.5286" lon="4.28907">
        <ele>282</ele>
        <time>2018-06-03T10:32:13.000Z</time>
      </trkpt>
      <trkpt lat="44.5286" lon="4.28913">
        <ele>282</ele>
        <time>2018-06-03T10:32:14.000Z</time>
      </trkpt>
      <trkpt lat="44.52861" lon="4.28919">
        <ele>278</ele>
        <time>2018-06-03T10:32:15.000Z</time>
      </trkpt>
      <trkpt lat="44.52862" lon="4.28924">
        <ele>277</ele>
        <time>2018-06-03T10:32:16.000Z</time>
      </trkpt>
      <trkpt lat="44.52862" lon="4.2893">
        <ele>277</ele>
        <time>2018-06-03T10:32:17.000Z</time>
      </trkpt>
      <trkpt lat="44.52861" lon="4.28936">
        <ele>277</ele>
        <time>2018-06-03T10:32:18.000Z</time>
      </trkpt>
      <trkpt lat="44.5286" lon="4.28942">
        <ele>277</ele>
        <time>2018-06-03T10:32:19.000Z</time>
      </trkpt>
      <trkpt lat="44.52859" lon="4.28948">
        <ele>277</ele>
        <time>2018-06-03T10:32:20.000Z</time>
      </trkpt>
      <trkpt lat="44.52858" lon="4.28953">
        <ele>277</ele>
        <time>2018-06-03T10:32:21.000Z</time>
      </trkpt>
      <trkpt lat="44.52856" lon="4.28959">
        <ele>277</ele>
        <time>2018-06-03T10:32:22.000Z</time>
      </trkpt>
      <trkpt lat="44.52854" lon="4.28964">
        <ele>277</ele>
        <time>2018-06-03T10:32:23.000Z</time>
      </trkpt>
      <trkpt lat="44.52854" lon="4.2897">
        <ele>277</ele>
        <time>2018-06-03T10:32:24.000Z</time>
      </trkpt>
      <trkpt lat="44.52853" lon="4.28975">
        <ele>277</ele>
        <time>2018-06-03T10:32:25.000Z</time>
      </trkpt>
      <trkpt lat="44.52852" lon="4.2898">
        <ele>278</ele>
        <time>2018-06-03T10:32:26.000Z</time>
      </trkpt>
      <trkpt lat="44.52852" lon="4.28986">
        <ele>278</ele>
        <time>2018-06-03T10:32:27.000Z</time>
      </trkpt>
      <trkpt lat="44.52851" lon="4.28991">
        <ele>279</ele>
        <time>2018-06-03T10:32:28.000Z</time>
      </trkpt>
      <trkpt lat="44.5285" lon="4.28996">
        <ele>280</ele>
        <time>2018-06-03T10:32:29.000Z</time>
      </trkpt>
      <trkpt lat="44.52849" lon="4.29">
        <ele>279</ele>
        <time>2018-06-03T10:32:30.000Z</time>
      </trkpt>
      <trkpt lat="44.52848" lon="4.29005">
        <ele>279</ele>
        <time>2018-06-03T10:32:31.000Z</time>
      </trkpt>
      <trkpt lat="44.52847" lon="4.2901">
        <ele>279</ele>
        <time>2018-06-03T10:32:32.000Z</time>
      </trkpt>
      <trkpt lat="44.52846" lon="4.29015">
        <ele>278</ele>
        <time>2018-06-03T10:32:33.000Z</time>
      </trkpt>
      <trkpt lat="44.52845" lon="4.2902">
        <ele>278</ele>
        <time>2018-06-03T10:32:34.000Z</time>
      </trkpt>
      <trkpt lat="44.52844" lon="4.29025">
        <ele>277</ele>
        <time>2018-06-03T10:32:35.000Z</time>
      </trkpt>
      <trkpt lat="44.52844" lon="4.29029">
        <ele>277</ele>
        <time>2018-06-03T10:32:36.000Z</time>
      </trkpt>
      <trkpt lat="44.52843" lon="4.29034">
        <ele>277</ele>
        <time>2018-06-03T10:32:37.000Z</time>
      </trkpt>
      <trkpt lat="44.52842" lon="4.29039">
        <ele>277</ele>
        <time>2018-06-03T10:32:38.000Z</time>
      </trkpt>
      <trkpt lat="44.5284" lon="4.29044">
        <ele>277</ele>
        <time>2018-06-03T10:32:39.000Z</time>
      </trkpt>
      <trkpt lat="44.52839" lon="4.29049">
        <ele>277</ele>
        <time>2018-06-03T10:32:40.000Z</time>
      </trkpt>
      <trkpt lat="44.52838" lon="4.29053">
        <ele>278</ele>
        <time>2018-06-03T10:32:41.000Z</time>
      </trkpt>
      <trkpt lat="44.52837" lon="4.29058">
        <ele>279</ele>
        <time>2018-06-03T10:32:42.000Z</time>
      </trkpt>
      <trkpt lat="44.52835" lon="4.29062">
        <ele>280</ele>
        <time>2018-06-03T10:32:43.000Z</time>
      </trkpt>
      <trkpt lat="44.52833" lon="4.29067">
        <ele>287</ele>
        <time>2018-06-03T10:32:44.000Z</time>
      </trkpt>
      <trkpt lat="44.52832" lon="4.29071">
        <ele>287</ele>
        <time>2018-06-03T10:32:45.000Z</time>
      </trkpt>
      <trkpt lat="44.5283" lon="4.29072">
        <ele>287</ele>
        <time>2018-06-03T10:32:46.000Z</time>
      </trkpt>
      <trkpt lat="44.5283" lon="4.29072">
        <ele>287</ele>
        <time>2018-06-03T10:32:47.000Z</time>
      </trkpt>
      <trkpt lat="44.5283" lon="4.29073">
        <ele>287</ele>
        <time>2018-06-03T10:32:48.000Z</time>
      </trkpt>
      <trkpt lat="44.52829" lon="4.29073">
        <ele>287</ele>
        <time>2018-06-03T10:32:49.000Z</time>
      </trkpt>
      <trkpt lat="44.52829" lon="4.29073">
        <ele>287</ele>
        <time>2018-06-03T10:32:50.000Z</time>
      </trkpt>
      <trkpt lat="44.52829" lon="4.29073">
        <ele>287</ele>
        <time>2018-06-03T10:32:51.000Z</time>
      </trkpt>
      <trkpt lat="44.52829" lon="4.29073">
        <ele>287</ele>
        <time>2018-06-03T10:32:52.000Z</time>
      </trkpt>
      <trkpt lat="44.52829" lon="4.29073">
        <ele>287</ele>
        <time>2018-06-03T10:32:53.000Z</time>
      </trkpt>
      <trkpt lat="44.52829" lon="4.29074">
        <ele>287</ele>
        <time>2018-06-03T10:32:54.000Z</time>
      </trkpt>
      <trkpt lat="44.52829" lon="4.29074">
        <ele>287</ele>
        <time>2018-06-03T10:32:55.000Z</time>
      </trkpt>
      <trkpt lat="44.52828" lon="4.29074">
        <ele>287</ele>
        <time>2018-06-03T10:32:56.000Z</time>
      </trkpt>
      <trkpt lat="44.52828" lon="4.29074">
        <ele>287</ele>
        <time>2018-06-03T10:32:57.000Z</time>
      </trkpt>
      <trkpt lat="44.52828" lon="4.29074">
        <ele>287</ele>
        <time>2018-06-03T10:32:58.000Z</time>
      </trkpt>
      <trkpt lat="44.52828" lon="4.29074">
        <ele>287</ele>
        <time>2018-06-03T10:32:59.000Z</time>
      </trkpt>
      <trkpt lat="44.52828" lon="4.29074">
        <ele>287</ele>
        <time>2018-06-03T10:33:00.000Z</time>
      </trkpt>
      <trkpt lat="44.52828" lon="4.29074">
        <ele>287</ele>
        <time>2018-06-03T10:33:01.000Z</time>
      </trkpt>
      <trkpt lat="44.52828" lon="4.29074">
        <ele>287</ele>
        <time>2018-06-03T10:33:02.000Z</time>
      </trkpt>
      <trkpt lat="44.52828" lon="4.29074">
        <ele>287</ele>
        <time>2018-06-03T10:33:03.000Z</time>
      </trkpt>
      <trkpt lat="44.52828" lon="4.29074">
        <ele>287</ele>
        <time>2018-06-03T10:33:04.000Z</time>
      </trkpt>
      <trkpt lat="44.52827" lon="4.29074">
        <ele>287</ele>
        <time>2018-06-03T10:33:05.000Z</time>
      </trkpt>
      <trkpt lat="44.52827" lon="4.29074">
        <ele>287</ele>
        <time>2018-06-03T10:33:06.000Z</time>
      </trkpt>
      <trkpt lat="44.52827" lon="4.29074">
        <ele>287</ele>
        <time>2018-06-03T10:33:07.000Z</time>
      </trkpt>
      <trkpt lat="44.52827" lon="4.29074">
        <ele>287</ele>
        <time>2018-06-03T10:33:08.000Z</time>
      </trkpt>
      <trkpt lat="44.52827" lon="4.29074">
        <ele>287</ele>
        <time>2018-06-03T10:33:09.000Z</time>
      </trkpt>
      <trkpt lat="44.52827" lon="4.29074">
        <ele>287</ele>
        <time>2018-06-03T10:33:10.000Z</time>
      </trkpt>
      <trkpt lat="44.52827" lon="4.29074">
        <ele>287</ele>
        <time>2018-06-03T10:33:11.000Z</time>
      </trkpt>
      <trkpt lat="44.52827" lon="4.29074">
        <ele>287</ele>
        <time>2018-06-03T10:33:12.000Z</time>
      </trkpt>
      <trkpt lat="44.52827" lon="4.29074">
        <ele>287</ele>
        <time>2018-06-03T10:33:13.000Z</time>
      </trkpt>
      <trkpt lat="44.52827" lon="4.29073">
        <ele>287</ele>
        <time>2018-06-03T10:33:14.000Z</time>
      </trkpt>
      <trkpt lat="44.52827" lon="4.29073">
        <ele>287</ele>
        <time>2018-06-03T10:33:15.000Z</time>
      </trkpt>
      <trkpt lat="44.52827" lon="4.29073">
        <ele>287</ele>
        <time>2018-06-03T10:33:16.000Z</time>
      </trkpt>
      <trkpt lat="44.52827" lon="4.29073">
        <ele>287</ele>
        <time>2018-06-03T10:33:17.000Z</time>
      </trkpt>
      <trkpt lat="44.52827" lon="4.29073">
        <ele>287</ele>
        <time>2018-06-03T10:33:18.000Z</time>
      </trkpt>
      <trkpt lat="44.52827" lon="4.29073">
        <ele>287</ele>
        <time>2018-06-03T10:33:19.000Z</time>
      </trkpt>
      <trkpt lat="44.52827" lon="4.29073">
        <ele>287</ele>
        <time>2018-06-03T10:33:20.000Z</time>
      </trkpt>
      <trkpt lat="44.52827" lon="4.29073">
        <ele>287</ele>
        <time>2018-06-03T10:33:21.000Z</time>
      </trkpt>
      <trkpt lat="44.52827" lon="4.29073">
        <ele>287</ele>
        <time>2018-06-03T10:33:22.000Z</time>
      </trkpt>
      <trkpt lat="44.52827" lon="4.29073">
        <ele>287</ele>
        <time>2018-06-03T10:33:23.000Z</time>
      </trkpt>
      <trkpt lat="44.52827" lon="4.29073">
        <ele>287</ele>
        <time>2018-06-03T10:33:24.000Z</time>
      </trkpt>
      <trkpt lat="44.52827" lon="4.29073">
        <ele>287</ele>
        <time>2018-06-03T10:33:25.000Z</time>
      </trkpt>
      <trkpt lat="44.52827" lon="4.29073">
        <ele>287</ele>
        <time>2018-06-03T10:33:26.000Z</time>
      </trkpt>
      <trkpt lat="44.52827" lon="4.29073">
        <ele>287</ele>
        <time>2018-06-03T10:33:27.000Z</time>
      </trkpt>
      <trkpt lat="44.52827" lon="4.29073">
        <ele>287</ele>
        <time>2018-06-03T10:33:28.000Z</time>
      </trkpt>
      <trkpt lat="44.52827" lon="4.29073">
        <ele>287</ele>
        <time>2018-06-03T10:33:29.000Z</time>
      </trkpt>
      <trkpt lat="44.52827" lon="4.29073">
        <ele>287</ele>
        <time>2018-06-03T10:33:30.000Z</time>
      </trkpt>
      <trkpt lat="44.52827" lon="4.29073">
        <ele>287</ele>
        <time>2018-06-03T10:33:31.000Z</time>
      </trkpt>
      <trkpt lat="44.52827" lon="4.29073">
        <ele>287</ele>
        <time>2018-06-03T10:33:32.000Z</time>
      </trkpt>
      <trkpt lat="44.52827" lon="4.29073">
        <ele>287</ele>
        <time>2018-06-03T10:33:33.000Z</time>
      </trkpt>
      <trkpt lat="44.52827" lon="4.29073">
        <ele>287</ele>
        <time>2018-06-03T10:33:34.000Z</time>
      </trkpt>
      <trkpt lat="44.52827" lon="4.29073">
        <ele>287</ele>
        <time>2018-06-03T10:33:35.000Z</time>
      </trkpt>
      <trkpt lat="44.52827" lon="4.29074">
        <ele>287</ele>
        <time>2018-06-03T10:33:36.000Z</time>
      </trkpt>
      <trkpt lat="44.52827" lon="4.29074">
        <ele>287</ele>
        <time>2018-06-03T10:33:37.000Z</time>
      </trkpt>
      <trkpt lat="44.52827" lon="4.29074">
        <ele>287</ele>
        <time>2018-06-03T10:33:38.000Z</time>
      </trkpt>
      <trkpt lat="44.52827" lon="4.29074">
        <ele>287</ele>
        <time>2018-06-03T10:33:39.000Z</time>
      </trkpt>
      <trkpt lat="44.52827" lon="4.29074">
        <ele>287</ele>
        <time>2018-06-03T10:33:40.000Z</time>
      </trkpt>
      <trkpt lat="44.52827" lon="4.29074">
        <ele>287</ele>
        <time>2018-06-03T10:33:41.000Z</time>
      </trkpt>
      <trkpt lat="44.52827" lon="4.29074">
        <ele>287</ele>
        <time>2018-06-03T10:33:42.000Z</time>
      </trkpt>
      <trkpt lat="44.52827" lon="4.29074">
        <ele>287</ele>
        <time>2018-06-03T10:33:43.000Z</time>
      </trkpt>
      <trkpt lat="44.52827" lon="4.29074">
        <ele>287</ele>
        <time>2018-06-03T10:33:44.000Z</time>
      </trkpt>
      <trkpt lat="44.52827" lon="4.29074">
        <ele>287</ele>
        <time>2018-06-03T10:33:45.000Z</time>
      </trkpt>
      <trkpt lat="44.52827" lon="4.29074">
        <ele>287</ele>
        <time>2018-06-03T10:33:46.000Z</time>
      </trkpt>
      <trkpt lat="44.52827" lon="4.29074">
        <ele>287</ele>
        <time>2018-06-03T10:33:47.000Z</time>
      </trkpt>
      <trkpt lat="44.52827" lon="4.29074">
        <ele>287</ele>
        <time>2018-06-03T10:33:48.000Z</time>
      </trkpt>
      <trkpt lat="44.52827" lon="4.29074">
        <ele>287</ele>
        <time>2018-06-03T10:33:49.000Z</time>
      </trkpt>
      <trkpt lat="44.52827" lon="4.29074">
        <ele>287</ele>
        <time>2018-06-03T10:33:50.000Z</time>
      </trkpt>
      <trkpt lat="44.52827" lon="4.29074">
        <ele>287</ele>
        <time>2018-06-03T10:33:51.000Z</time>
      </trkpt>
      <trkpt lat="44.52827" lon="4.29074">
        <ele>287</ele>
        <time>2018-06-03T10:33:52.000Z</time>
      </trkpt>
      <trkpt lat="44.52827" lon="4.29074">
        <ele>287</ele>
        <time>2018-06-03T10:33:53.000Z</time>
      </trkpt>
      <trkpt lat="44.52827" lon="4.29074">
        <ele>287</ele>
        <time>2018-06-03T10:33:54.000Z</time>
      </trkpt>
      <trkpt lat="44.52828" lon="4.29074">
        <ele>287</ele>
        <time>2018-06-03T10:33:55.000Z</time>
      </trkpt>
      <trkpt lat="44.52828" lon="4.29074">
        <ele>287</ele>
        <time>2018-06-03T10:33:56.000Z</time>
      </trkpt>
      <trkpt lat="44.52828" lon="4.29074">
        <ele>287</ele>
        <time>2018-06-03T10:33:57.000Z</time>
      </trkpt>
      <trkpt lat="44.52828" lon="4.29074">
        <ele>287</ele>
        <time>2018-06-03T10:33:58.000Z</time>
      </trkpt>
      <trkpt lat="44.52828" lon="4.29074">
        <ele>287</ele>
        <time>2018-06-03T10:33:59.000Z</time>
      </trkpt>
      <trkpt lat="44.52828" lon="4.29074">
        <ele>287</ele>
        <time>2018-06-03T10:34:00.000Z</time>
      </trkpt>
      <trkpt lat="44.52828" lon="4.29074">
        <ele>287</ele>
        <time>2018-06-03T10:34:01.000Z</time>
      </trkpt>
      <trkpt lat="44.52828" lon="4.29074">
        <ele>287</ele>
        <time>2018-06-03T10:34:02.000Z</time>
      </trkpt>
      <trkpt lat="44.52828" lon="4.29074">
        <ele>287</ele>
        <time>2018-06-03T10:34:03.000Z</time>
      </trkpt>
      <trkpt lat="44.52828" lon="4.29074">
        <ele>287</ele>
        <time>2018-06-03T10:34:04.000Z</time>
      </trkpt>
      <trkpt lat="44.52828" lon="4.29074">
        <ele>287</ele>
        <time>2018-06-03T10:34:05.000Z</time>
      </trkpt>
      <trkpt lat="44.52828" lon="4.29074">
        <ele>287</ele>
        <time>2018-06-03T10:34:06.000Z</time>
      </trkpt>
      <trkpt lat="44.52828" lon="4.29074">
        <ele>287</ele>
        <time>2018-06-03T10:34:07.000Z</time>
      </trkpt>
      <trkpt lat="44.52828" lon="4.29074">
        <ele>287</ele>
        <time>2018-06-03T10:34:08.000Z</time>
      </trkpt>
      <trkpt lat="44.52828" lon="4.29074">
        <ele>287</ele>
        <time>2018-06-03T10:34:09.000Z</time>
      </trkpt>
      <trkpt lat="44.52828" lon="4.29074">
        <ele>287</ele>
        <time>2018-06-03T10:34:10.000Z</time>
      </trkpt>
      <trkpt lat="44.52828" lon="4.29074">
        <ele>287</ele>
        <time>2018-06-03T10:34:11.000Z</time>
      </trkpt>
      <trkpt lat="44.52829" lon="4.29074">
        <ele>287</ele>
        <time>2018-06-03T10:34:12.000Z</time>
      </trkpt>
      <trkpt lat="44.52829" lon="4.29074">
        <ele>287</ele>
        <time>2018-06-03T10:34:13.000Z</time>
      </trkpt>
      <trkpt lat="44.52829" lon="4.29074">
        <ele>287</ele>
        <time>2018-06-03T10:34:14.000Z</time>
      </trkpt>
      <trkpt lat="44.52829" lon="4.29074">
        <ele>287</ele>
        <time>2018-06-03T10:34:15.000Z</time>
      </trkpt>
      <trkpt lat="44.52829" lon="4.29074">
        <ele>287</ele>
        <time>2018-06-03T10:34:16.000Z</time>
      </trkpt>
      <trkpt lat="44.52829" lon="4.29074">
        <ele>287</ele>
        <time>2018-06-03T10:34:17.000Z</time>
      </trkpt>
      <trkpt lat="44.52829" lon="4.29074">
        <ele>287</ele>
        <time>2018-06-03T10:34:18.000Z</time>
      </trkpt>
      <trkpt lat="44.52829" lon="4.29074">
        <ele>287</ele>
        <time>2018-06-03T10:34:19.000Z</time>
      </trkpt>
      <trkpt lat="44.52829" lon="4.29074">
        <ele>287</ele>
        <time>2018-06-03T10:34:20.000Z</time>
      </trkpt>
      <trkpt lat="44.52829" lon="4.29074">
        <ele>287</ele>
        <time>2018-06-03T10:34:21.000Z</time>
      </trkpt>
      <trkpt lat="44.52829" lon="4.29074">
        <ele>287</ele>
        <time>2018-06-03T10:34:22.000Z</time>
      </trkpt>
      <trkpt lat="44.52829" lon="4.29074">
        <ele>287</ele>
        <time>2018-06-03T10:34:23.000Z</time>
      </trkpt>
      <trkpt lat="44.52829" lon="4.29074">
        <ele>287</ele>
        <time>2018-06-03T10:34:24.000Z</time>
      </trkpt>
      <trkpt lat="44.52829" lon="4.29074">
        <ele>287</ele>
        <time>2018-06-03T10:34:25.000Z</time>
      </trkpt>
      <trkpt lat="44.52829" lon="4.29074">
        <ele>287</ele>
        <time>2018-06-03T10:34:26.000Z</time>
      </trkpt>
      <trkpt lat="44.52829" lon="4.29074">
        <ele>287</ele>
        <time>2018-06-03T10:34:27.000Z</time>
      </trkpt>
      <trkpt lat="44.52829" lon="4.29074">
        <ele>287</ele>
        <time>2018-06-03T10:34:28.000Z</time>
      </trkpt>
      <trkpt lat="44.52829" lon="4.29074">
        <ele>287</ele>
        <time>2018-06-03T10:34:29.000Z</time>
      </trkpt>
      <trkpt lat="44.52829" lon="4.29074">
        <ele>287</ele>
        <time>2018-06-03T10:34:30.000Z</time>
      </trkpt>
      <trkpt lat="44.52829" lon="4.29074">
        <ele>287</ele>
        <time>2018-06-03T10:34:31.000Z</time>
      </trkpt>
      <trkpt lat="44.52829" lon="4.29074">
        <ele>287</ele>
        <time>2018-06-03T10:34:32.000Z</time>
      </trkpt>
      <trkpt lat="44.52829" lon="4.29074">
        <ele>287</ele>
        <time>2018-06-03T10:34:33.000Z</time>
      </trkpt>
      <trkpt lat="44.52829" lon="4.29074">
        <ele>287</ele>
        <time>2018-06-03T10:34:34.000Z</time>
      </trkpt>
      <trkpt lat="44.52829" lon="4.29074">
        <ele>287</ele>
        <time>2018-06-03T10:34:35.000Z</time>
      </trkpt>
      <trkpt lat="44.52829" lon="4.29074">
        <ele>287</ele>
        <time>2018-06-03T10:34:36.000Z</time>
      </trkpt>
      <trkpt lat="44.52829" lon="4.29074">
        <ele>287</ele>
        <time>2018-06-03T10:34:37.000Z</time>
      </trkpt>
      <trkpt lat="44.52829" lon="4.29074">
        <ele>287</ele>
        <time>2018-06-03T10:34:38.000Z</time>
      </trkpt>
      <trkpt lat="44.52829" lon="4.29074">
        <ele>287</ele>
        <time>2018-06-03T10:34:39.000Z</time>
      </trkpt>
      <trkpt lat="44.52829" lon="4.29074">
        <ele>287</ele>
        <time>2018-06-03T10:34:40.000Z</time>
      </trkpt>
      <trkpt lat="44.52829" lon="4.29074">
        <ele>287</ele>
        <time>2018-06-03T10:34:41.000Z</time>
      </trkpt>
      <trkpt lat="44.52829" lon="4.29074">
        <ele>287</ele>
        <time>2018-06-03T10:34:42.000Z</time>
      </trkpt>
      <trkpt lat="44.52829" lon="4.29074">
        <ele>287</ele>
        <time>2018-06-03T10:34:43.000Z</time>
      </trkpt>
      <trkpt lat="44.52829" lon="4.29074">
        <ele>287</ele>
        <time>2018-06-03T10:34:44.000Z</time>
      </trkpt>
      <trkpt lat="44.52828" lon="4.29074">
        <ele>287</ele>
        <time>2018-06-03T10:34:45.000Z</time>
      </trkpt>
      <trkpt lat="44.52828" lon="4.29074">
        <ele>287</ele>
        <time>2018-06-03T10:34:46.000Z</time>
      </trkpt>
      <trkpt lat="44.52829" lon="4.29074">
        <ele>287</ele>
        <time>2018-06-03T10:34:47.000Z</time>
      </trkpt>
      <trkpt lat="44.52828" lon="4.29074">
        <ele>287</ele>
        <time>2018-06-03T10:34:48.000Z</time>
      </trkpt>
      <trkpt lat="44.52828" lon="4.29074">
        <ele>287</ele>
        <time>2018-06-03T10:34:49.000Z</time>
      </trkpt>
      <trkpt lat="44.52828" lon="4.29074">
        <ele>287</ele>
        <time>2018-06-03T10:34:50.000Z</time>
      </trkpt>
      <trkpt lat="44.52828" lon="4.29074">
        <ele>287</ele>
        <time>2018-06-03T10:34:51.000Z</time>
      </trkpt>
      <trkpt lat="44.52828" lon="4.29074">
        <ele>287</ele>
        <time>2018-06-03T10:34:52.000Z</time>
      </trkpt>
      <trkpt lat="44.52828" lon="4.29074">
        <ele>287</ele>
        <time>2018-06-03T10:34:53.000Z</time>
      </trkpt>
      <trkpt lat="44.52828" lon="4.29074">
        <ele>287</ele>
        <time>2018-06-03T10:34:54.000Z</time>
      </trkpt>
      <trkpt lat="44.52828" lon="4.29074">
        <ele>287</ele>
        <time>2018-06-03T10:34:55.000Z</time>
      </trkpt>
      <trkpt lat="44.52828" lon="4.29074">
        <ele>287</ele>
        <time>2018-06-03T10:34:56.000Z</time>
      </trkpt>
      <trkpt lat="44.52828" lon="4.29074">
        <ele>287</ele>
        <time>2018-06-03T10:34:57.000Z</time>
      </trkpt>
      <trkpt lat="44.52828" lon="4.29074">
        <ele>287</ele>
        <time>2018-06-03T10:34:58.000Z</time>
      </trkpt>
      <trkpt lat="44.52828" lon="4.29074">
        <ele>287</ele>
        <time>2018-06-03T10:34:59.000Z</time>
      </trkpt>
      <trkpt lat="44.52828" lon="4.29074">
        <ele>287</ele>
        <time>2018-06-03T10:35:00.000Z</time>
      </trkpt>
      <trkpt lat="44.52828" lon="4.29074">
        <ele>287</ele>
        <time>2018-06-03T10:35:01.000Z</time>
      </trkpt>
      <trkpt lat="44.52828" lon="4.29074">
        <ele>287</ele>
        <time>2018-06-03T10:35:02.000Z</time>
      </trkpt>
      <trkpt lat="44.52828" lon="4.29074">
        <ele>287</ele>
        <time>2018-06-03T10:35:03.000Z</time>
      </trkpt>
      <trkpt lat="44.52828" lon="4.29074">
        <ele>287</ele>
        <time>2018-06-03T10:35:04.000Z</time>
      </trkpt>
      <trkpt lat="44.52828" lon="4.29074">
        <ele>287</ele>
        <time>2018-06-03T10:35:05.000Z</time>
      </trkpt>
      <trkpt lat="44.52828" lon="4.29074">
        <ele>287</ele>
        <time>2018-06-03T10:35:06.000Z</time>
      </trkpt>
      <trkpt lat="44.52828" lon="4.29074">
        <ele>287</ele>
        <time>2018-06-03T10:35:07.000Z</time>
      </trkpt>
      <trkpt lat="44.52828" lon="4.29074">
        <ele>287</ele>
        <time>2018-06-03T10:35:08.000Z</time>
      </trkpt>
      <trkpt lat="44.52828" lon="4.29074">
        <ele>287</ele>
        <time>2018-06-03T10:35:09.000Z</time>
      </trkpt>
      <trkpt lat="44.52828" lon="4.29074">
        <ele>287</ele>
        <time>2018-06-03T10:35:10.000Z</time>
      </trkpt>
      <trkpt lat="44.52828" lon="4.29074">
        <ele>287</ele>
        <time>2018-06-03T10:35:11.000Z</time>
      </trkpt>
      <trkpt lat="44.52828" lon="4.29074">
        <ele>287</ele>
        <time>2018-06-03T10:35:12.000Z</time>
      </trkpt>
      <trkpt lat="44.52828" lon="4.29074">
        <ele>287</ele>
        <time>2018-06-03T10:35:13.000Z</time>
      </trkpt>
      <trkpt lat="44.52828" lon="4.29075">
        <ele>287</ele>
        <time>2018-06-03T10:35:14.000Z</time>
      </trkpt>
      <trkpt lat="44.52828" lon="4.29075">
        <ele>287</ele>
        <time>2018-06-03T10:35:15.000Z</time>
      </trkpt>
      <trkpt lat="44.52828" lon="4.29075">
        <ele>287</ele>
        <time>2018-06-03T10:35:16.000Z</time>
      </trkpt>
      <trkpt lat="44.52828" lon="4.29075">
        <ele>287</ele>
        <time>2018-06-03T10:35:17.000Z</time>
      </trkpt>
      <trkpt lat="44.52828" lon="4.29075">
        <ele>287</ele>
        <time>2018-06-03T10:35:18.000Z</time>
      </trkpt>
      <trkpt lat="44.52828" lon="4.29075">
        <ele>287</ele>
        <time>2018-06-03T10:35:19.000Z</time>
      </trkpt>
      <trkpt lat="44.52828" lon="4.29075">
        <ele>287</ele>
        <time>2018-06-03T10:35:20.000Z</time>
      </trkpt>
      <trkpt lat="44.52828" lon="4.29075">
        <ele>287</ele>
        <time>2018-06-03T10:35:21.000Z</time>
      </trkpt>
      <trkpt lat="44.52828" lon="4.29075">
        <ele>287</ele>
        <time>2018-06-03T10:35:22.000Z</time>
      </trkpt>
      <trkpt lat="44.52828" lon="4.29075">
        <ele>287</ele>
        <time>2018-06-03T10:35:23.000Z</time>
      </trkpt>
      <trkpt lat="44.52828" lon="4.29076">
        <ele>287</ele>
        <time>2018-06-03T10:35:24.000Z</time>
      </trkpt>
      <trkpt lat="44.52829" lon="4.29078">
        <ele>287</ele>
        <time>2018-06-03T10:35:25.000Z</time>
      </trkpt>
      <trkpt lat="44.52829" lon="4.2908">
        <ele>287</ele>
        <time>2018-06-03T10:35:26.000Z</time>
      </trkpt>
      <trkpt lat="44.52829" lon="4.29084">
        <ele>288</ele>
        <time>2018-06-03T10:35:27.000Z</time>
      </trkpt>
      <trkpt lat="44.5283" lon="4.29089">
        <ele>288</ele>
        <time>2018-06-03T10:35:28.000Z</time>
      </trkpt>
      <trkpt lat="44.52831" lon="4.29094">
        <ele>288</ele>
        <time>2018-06-03T10:35:29.000Z</time>
      </trkpt>
      <trkpt lat="44.52831" lon="4.291">
        <ele>288</ele>
        <time>2018-06-03T10:35:30.000Z</time>
      </trkpt>
      <trkpt lat="44.52832" lon="4.29107">
        <ele>288</ele>
        <time>2018-06-03T10:35:31.000Z</time>
      </trkpt>
      <trkpt lat="44.52833" lon="4.29113">
        <ele>288</ele>
        <time>2018-06-03T10:35:32.000Z</time>
      </trkpt>
      <trkpt lat="44.52833" lon="4.2912">
        <ele>288</ele>
        <time>2018-06-03T10:35:33.000Z</time>
      </trkpt>
      <trkpt lat="44.52834" lon="4.29127">
        <ele>281</ele>
        <time>2018-06-03T10:35:34.000Z</time>
      </trkpt>
      <trkpt lat="44.52834" lon="4.29134">
        <ele>281</ele>
        <time>2018-06-03T10:35:35.000Z</time>
      </trkpt>
      <trkpt lat="44.52834" lon="4.2914">
        <ele>282</ele>
        <time>2018-06-03T10:35:36.000Z</time>
      </trkpt>
      <trkpt lat="44.52835" lon="4.29147">
        <ele>283</ele>
        <time>2018-06-03T10:35:37.000Z</time>
      </trkpt>
      <trkpt lat="44.52836" lon="4.29153">
        <ele>285</ele>
        <time>2018-06-03T10:35:38.000Z</time>
      </trkpt>
      <trkpt lat="44.52836" lon="4.2916">
        <ele>287</ele>
        <time>2018-06-03T10:35:39.000Z</time>
      </trkpt>
      <trkpt lat="44.52836" lon="4.29166">
        <ele>289</ele>
        <time>2018-06-03T10:35:40.000Z</time>
      </trkpt>
      <trkpt lat="44.52836" lon="4.29172">
        <ele>289</ele>
        <time>2018-06-03T10:35:41.000Z</time>
      </trkpt>
      <trkpt lat="44.52836" lon="4.29178">
        <ele>288</ele>
        <time>2018-06-03T10:35:42.000Z</time>
      </trkpt>
      <trkpt lat="44.52836" lon="4.29185">
        <ele>288</ele>
        <time>2018-06-03T10:35:43.000Z</time>
      </trkpt>
      <trkpt lat="44.52836" lon="4.29191">
        <ele>287</ele>
        <time>2018-06-03T10:35:44.000Z</time>
      </trkpt>
      <trkpt lat="44.52837" lon="4.29197">
        <ele>287</ele>
        <time>2018-06-03T10:35:45.000Z</time>
      </trkpt>
      <trkpt lat="44.52838" lon="4.29203">
        <ele>287</ele>
        <time>2018-06-03T10:35:46.000Z</time>
      </trkpt>
      <trkpt lat="44.52839" lon="4.29207">
        <ele>287</ele>
        <time>2018-06-03T10:35:47.000Z</time>
      </trkpt>
      <trkpt lat="44.5284" lon="4.29212">
        <ele>287</ele>
        <time>2018-06-03T10:35:48.000Z</time>
      </trkpt>
      <trkpt lat="44.52841" lon="4.29215">
        <ele>287</ele>
        <time>2018-06-03T10:35:49.000Z</time>
      </trkpt>
      <trkpt lat="44.52841" lon="4.29219">
        <ele>288</ele>
        <time>2018-06-03T10:35:50.000Z</time>
      </trkpt>
      <trkpt lat="44.52841" lon="4.29222">
        <ele>288</ele>
        <time>2018-06-03T10:35:51.000Z</time>
      </trkpt>
      <trkpt lat="44.52841" lon="4.29224">
        <ele>288</ele>
        <time>2018-06-03T10:35:52.000Z</time>
      </trkpt>
      <trkpt lat="44.52841" lon="4.29227">
        <ele>289</ele>
        <time>2018-06-03T10:35:53.000Z</time>
      </trkpt>
      <trkpt lat="44.52841" lon="4.29229">
        <ele>289</ele>
        <time>2018-06-03T10:35:54.000Z</time>
      </trkpt>
      <trkpt lat="44.5284" lon="4.29231">
        <ele>289</ele>
        <time>2018-06-03T10:35:55.000Z</time>
      </trkpt>
      <trkpt lat="44.52839" lon="4.29233">
        <ele>290</ele>
        <time>2018-06-03T10:35:56.000Z</time>
      </trkpt>
      <trkpt lat="44.52839" lon="4.29235">
        <ele>290</ele>
        <time>2018-06-03T10:35:57.000Z</time>
      </trkpt>
      <trkpt lat="44.52839" lon="4.29236">
        <ele>290</ele>
        <time>2018-06-03T10:35:58.000Z</time>
      </trkpt>
    </trkseg>
  </trk>
  <trk>
    <name><![CDATA[20180807221000-MJqCB]]></name>
    <trkseg>
      <trkpt lat="44.50338" lon="4.29516">
        <ele>180</ele>
        <time>2016-05-15T06:17:13.000Z</time>
      </trkpt>
      <trkpt lat="44.50338" lon="4.29516">
        <ele>180</ele>
        <time>2016-05-15T06:17:14.000Z</time>
      </trkpt>
      <trkpt lat="44.50338" lon="4.29516">
        <ele>180</ele>
        <time>2016-05-15T06:17:15.000Z</time>
      </trkpt>
      <trkpt lat="44.50338" lon="4.29516">
        <ele>180</ele>
        <time>2016-05-15T06:17:16.000Z</time>
      </trkpt>
      <trkpt lat="44.50339" lon="4.29517">
        <ele>180</ele>
        <time>2016-05-15T06:17:17.000Z</time>
      </trkpt>
      <trkpt lat="44.5034" lon="4.29517">
        <ele>180</ele>
        <time>2016-05-15T06:17:18.000Z</time>
      </trkpt>
      <trkpt lat="44.50341" lon="4.29517">
        <ele>180</ele>
        <time>2016-05-15T06:17:19.000Z</time>
      </trkpt>
      <trkpt lat="44.50343" lon="4.29517">
        <ele>180</ele>
        <time>2016-05-15T06:17:20.000Z</time>
      </trkpt>
      <trkpt lat="44.50345" lon="4.29517">
        <ele>180</ele>
        <time>2016-05-15T06:17:21.000Z</time>
      </trkpt>
      <trkpt lat="44.50347" lon="4.29516">
        <ele>180</ele>
        <time>2016-05-15T06:17:22.000Z</time>
      </trkpt>
      <trkpt lat="44.50349" lon="4.29515">
        <ele>180</ele>
        <time>2016-05-15T06:17:23.000Z</time>
      </trkpt>
      <trkpt lat="44.50351" lon="4.29513">
        <ele>180</ele>
        <time>2016-05-15T06:17:24.000Z</time>
      </trkpt>
      <trkpt lat="44.50351" lon="4.2951">
        <ele>181</ele>
        <time>2016-05-15T06:17:25.000Z</time>
      </trkpt>
      <trkpt lat="44.5035" lon="4.29507">
        <ele>181</ele>
        <time>2016-05-15T06:17:26.000Z</time>
      </trkpt>
      <trkpt lat="44.50349" lon="4.29505">
        <ele>181</ele>
        <time>2016-05-15T06:17:27.000Z</time>
      </trkpt>
      <trkpt lat="44.50348" lon="4.29503">
        <ele>181</ele>
        <time>2016-05-15T06:17:28.000Z</time>
      </trkpt>
      <trkpt lat="44.50346" lon="4.29501">
        <ele>181</ele>
        <time>2016-05-15T06:17:29.000Z</time>
      </trkpt>
      <trkpt lat="44.50343" lon="4.29498">
        <ele>183</ele>
        <time>2016-05-15T06:17:30.000Z</time>
      </trkpt>
      <trkpt lat="44.50341" lon="4.29496">
        <ele>182</ele>
        <time>2016-05-15T06:17:31.000Z</time>
      </trkpt>
      <trkpt lat="44.50339" lon="4.29493">
        <ele>183</ele>
        <time>2016-05-15T06:17:32.000Z</time>
      </trkpt>
      <trkpt lat="44.50337" lon="4.29488">
        <ele>183</ele>
        <time>2016-05-15T06:17:33.000Z</time>
      </trkpt>
      <trkpt lat="44.50336" lon="4.29483">
        <ele>183</ele>
        <time>2016-05-15T06:17:34.000Z</time>
      </trkpt>
      <trkpt lat="44.50336" lon="4.29477">
        <ele>184</ele>
        <time>2016-05-15T06:17:35.000Z</time>
      </trkpt>
      <trkpt lat="44.50336" lon="4.29471">
        <ele>184</ele>
        <time>2016-05-15T06:17:36.000Z</time>
      </trkpt>
      <trkpt lat="44.50337" lon="4.29465">
        <ele>185</ele>
        <time>2016-05-15T06:17:37.000Z</time>
      </trkpt>
      <trkpt lat="44.50338" lon="4.2946">
        <ele>185</ele>
        <time>2016-05-15T06:17:38.000Z</time>
      </trkpt>
      <trkpt lat="44.5034" lon="4.29456">
        <ele>185</ele>
        <time>2016-05-15T06:17:39.000Z</time>
      </trkpt>
      <trkpt lat="44.50343" lon="4.29454">
        <ele>185</ele>
        <time>2016-05-15T06:17:40.000Z</time>
      </trkpt>
      <trkpt lat="44.50345" lon="4.29453">
        <ele>185</ele>
        <time>2016-05-15T06:17:41.000Z</time>
      </trkpt>
      <trkpt lat="44.50347" lon="4.29451">
        <ele>186</ele>
        <time>2016-05-15T06:17:42.000Z</time>
      </trkpt>
      <trkpt lat="44.5035" lon="4.2945">
        <ele>186</ele>
        <time>2016-05-15T06:17:43.000Z</time>
      </trkpt>
      <trkpt lat="44.50352" lon="4.2945">
        <ele>186</ele>
        <time>2016-05-15T06:17:44.000Z</time>
      </trkpt>
      <trkpt lat="44.50353" lon="4.29449">
        <ele>186</ele>
        <time>2016-05-15T06:17:45.000Z</time>
      </trkpt>
      <trkpt lat="44.50355" lon="4.29448">
        <ele>186</ele>
        <time>2016-05-15T06:17:46.000Z</time>
      </trkpt>
      <trkpt lat="44.50356" lon="4.29447">
        <ele>186</ele>
        <time>2016-05-15T06:17:47.000Z</time>
      </trkpt>
      <trkpt lat="44.50357" lon="4.29446">
        <ele>186</ele>
        <time>2016-05-15T06:17:48.000Z</time>
      </trkpt>
      <trkpt lat="44.50358" lon="4.29444">
        <ele>186</ele>
        <time>2016-05-15T06:17:49.000Z</time>
      </trkpt>
      <trkpt lat="44.50358" lon="4.29443">
        <ele>186</ele>
        <time>2016-05-15T06:17:50.000Z</time>
      </trkpt>
      <trkpt lat="44.50359" lon="4.29441">
        <ele>186</ele>
        <time>2016-05-15T06:17:51.000Z</time>
      </trkpt>
      <trkpt lat="44.50359" lon="4.2944">
        <ele>186</ele>
        <time>2016-05-15T06:17:52.000Z</time>
      </trkpt>
      <trkpt lat="44.50359" lon="4.29438">
        <ele>186</ele>
        <time>2016-05-15T06:17:53.000Z</time>
      </trkpt>
      <trkpt lat="44.50359" lon="4.29435">
        <ele>186</ele>
        <time>2016-05-15T06:17:54.000Z</time>
      </trkpt>
      <trkpt lat="44.50359" lon="4.29433">
        <ele>186</ele>
        <time>2016-05-15T06:17:55.000Z</time>
      </trkpt>
      <trkpt lat="44.5036" lon="4.29431">
        <ele>186</ele>
        <time>2016-05-15T06:17:56.000Z</time>
      </trkpt>
      <trkpt lat="44.50362" lon="4.29429">
        <ele>186</ele>
        <time>2016-05-15T06:17:57.000Z</time>
      </trkpt>
      <trkpt lat="44.50363" lon="4.29428">
        <ele>186</ele>
        <time>2016-05-15T06:17:58.000Z</time>
      </trkpt>
      <trkpt lat="44.50365" lon="4.29428">
        <ele>186</ele>
        <time>2016-05-15T06:17:59.000Z</time>
      </trkpt>
      <trkpt lat="44.50367" lon="4.29427">
        <ele>186</ele>
        <time>2016-05-15T06:18:00.000Z</time>
      </trkpt>
      <trkpt lat="44.50369" lon="4.29427">
        <ele>186</ele>
        <time>2016-05-15T06:18:01.000Z</time>
      </trkpt>
      <trkpt lat="44.50371" lon="4.29426">
        <ele>187</ele>
        <time>2016-05-15T06:18:02.000Z</time>
      </trkpt>
      <trkpt lat="44.50373" lon="4.29425">
        <ele>187</ele>
        <time>2016-05-15T06:18:03.000Z</time>
      </trkpt>
      <trkpt lat="44.50375" lon="4.29425">
        <ele>187</ele>
        <time>2016-05-15T06:18:04.000Z</time>
      </trkpt>
      <trkpt lat="44.50378" lon="4.29424">
        <ele>187</ele>
        <time>2016-05-15T06:18:05.000Z</time>
      </trkpt>
      <trkpt lat="44.50379" lon="4.29424">
        <ele>187</ele>
        <time>2016-05-15T06:18:06.000Z</time>
      </trkpt>
      <trkpt lat="44.50381" lon="4.29423">
        <ele>187</ele>
        <time>2016-05-15T06:18:07.000Z</time>
      </trkpt>
      <trkpt lat="44.50383" lon="4.29422">
        <ele>187</ele>
        <time>2016-05-15T06:18:08.000Z</time>
      </trkpt>
      <trkpt lat="44.50386" lon="4.29422">
        <ele>187</ele>
        <time>2016-05-15T06:18:09.000Z</time>
      </trkpt>
      <trkpt lat="44.50388" lon="4.29421">
        <ele>187</ele>
        <time>2016-05-15T06:18:10.000Z</time>
      </trkpt>
      <trkpt lat="44.5039" lon="4.29422">
        <ele>187</ele>
        <time>2016-05-15T06:18:11.000Z</time>
      </trkpt>
      <trkpt lat="44.50392" lon="4.29422">
        <ele>188</ele>
        <time>2016-05-15T06:18:12.000Z</time>
      </trkpt>
      <trkpt lat="44.50394" lon="4.29422">
        <ele>188</ele>
        <time>2016-05-15T06:18:13.000Z</time>
      </trkpt>
      <trkpt lat="44.50396" lon="4.29421">
        <ele>188</ele>
        <time>2016-05-15T06:18:14.000Z</time>
      </trkpt>
      <trkpt lat="44.50397" lon="4.29421">
        <ele>188</ele>
        <time>2016-05-15T06:18:15.000Z</time>
      </trkpt>
      <trkpt lat="44.50399" lon="4.2942">
        <ele>188</ele>
        <time>2016-05-15T06:18:16.000Z</time>
      </trkpt>
      <trkpt lat="44.50401" lon="4.2942">
        <ele>188</ele>
        <time>2016-05-15T06:18:17.000Z</time>
      </trkpt>
      <trkpt lat="44.50404" lon="4.29419">
        <ele>188</ele>
        <time>2016-05-15T06:18:18.000Z</time>
      </trkpt>
      <trkpt lat="44.50406" lon="4.29419">
        <ele>189</ele>
        <time>2016-05-15T06:18:19.000Z</time>
      </trkpt>
      <trkpt lat="44.50408" lon="4.29418">
        <ele>189</ele>
        <time>2016-05-15T06:18:20.000Z</time>
      </trkpt>
      <trkpt lat="44.5041" lon="4.29418">
        <ele>189</ele>
        <time>2016-05-15T06:18:21.000Z</time>
      </trkpt>
      <trkpt lat="44.50413" lon="4.29417">
        <ele>189</ele>
        <time>2016-05-15T06:18:22.000Z</time>
      </trkpt>
      <trkpt lat="44.50415" lon="4.29417">
        <ele>190</ele>
        <time>2016-05-15T06:18:23.000Z</time>
      </trkpt>
      <trkpt lat="44.50417" lon="4.29416">
        <ele>190</ele>
        <time>2016-05-15T06:18:24.000Z</time>
      </trkpt>
      <trkpt lat="44.50419" lon="4.29415">
        <ele>190</ele>
        <time>2016-05-15T06:18:25.000Z</time>
      </trkpt>
      <trkpt lat="44.50421" lon="4.29415">
        <ele>190</ele>
        <time>2016-05-15T06:18:26.000Z</time>
      </trkpt>
      <trkpt lat="44.50424" lon="4.29414">
        <ele>191</ele>
        <time>2016-05-15T06:18:27.000Z</time>
      </trkpt>
      <trkpt lat="44.50427" lon="4.29414">
        <ele>191</ele>
        <time>2016-05-15T06:18:28.000Z</time>
      </trkpt>
      <trkpt lat="44.50429" lon="4.29413">
        <ele>191</ele>
        <time>2016-05-15T06:18:29.000Z</time>
      </trkpt>
      <trkpt lat="44.50432" lon="4.29412">
        <ele>191</ele>
        <time>2016-05-15T06:18:30.000Z</time>
      </trkpt>
      <trkpt lat="44.50435" lon="4.29411">
        <ele>191</ele>
        <time>2016-05-15T06:18:31.000Z</time>
      </trkpt>
      <trkpt lat="44.50437" lon="4.29411">
        <ele>191</ele>
        <time>2016-05-15T06:18:32.000Z</time>
      </trkpt>
      <trkpt lat="44.50439" lon="4.2941">
        <ele>191</ele>
        <time>2016-05-15T06:18:33.000Z</time>
      </trkpt>
      <trkpt lat="44.50441" lon="4.29408">
        <ele>191</ele>
        <time>2016-05-15T06:18:34.000Z</time>
      </trkpt>
      <trkpt lat="44.50444" lon="4.29407">
        <ele>191</ele>
        <time>2016-05-15T06:18:35.000Z</time>
      </trkpt>
      <trkpt lat="44.50446" lon="4.29406">
        <ele>192</ele>
        <time>2016-05-15T06:18:36.000Z</time>
      </trkpt>
      <trkpt lat="44.50449" lon="4.29405">
        <ele>192</ele>
        <time>2016-05-15T06:18:37.000Z</time>
      </trkpt>
      <trkpt lat="44.50451" lon="4.29403">
        <ele>192</ele>
        <time>2016-05-15T06:18:38.000Z</time>
      </trkpt>
      <trkpt lat="44.50454" lon="4.29402">
        <ele>192</ele>
        <time>2016-05-15T06:18:39.000Z</time>
      </trkpt>
      <trkpt lat="44.50456" lon="4.294">
        <ele>192</ele>
        <time>2016-05-15T06:18:40.000Z</time>
      </trkpt>
      <trkpt lat="44.50458" lon="4.29398">
        <ele>192</ele>
        <time>2016-05-15T06:18:41.000Z</time>
      </trkpt>
      <trkpt lat="44.50461" lon="4.29396">
        <ele>192</ele>
        <time>2016-05-15T06:18:42.000Z</time>
      </trkpt>
      <trkpt lat="44.50463" lon="4.29394">
        <ele>192</ele>
        <time>2016-05-15T06:18:43.000Z</time>
      </trkpt>
      <trkpt lat="44.50465" lon="4.29392">
        <ele>192</ele>
        <time>2016-05-15T06:18:44.000Z</time>
      </trkpt>
      <trkpt lat="44.50467" lon="4.2939">
        <ele>192</ele>
        <time>2016-05-15T06:18:45.000Z</time>
      </trkpt>
      <trkpt lat="44.50469" lon="4.29389">
        <ele>192</ele>
        <time>2016-05-15T06:18:46.000Z</time>
      </trkpt>
      <trkpt lat="44.50471" lon="4.29387">
        <ele>192</ele>
        <time>2016-05-15T06:18:47.000Z</time>
      </trkpt>
      <trkpt lat="44.50473" lon="4.29384">
        <ele>192</ele>
        <time>2016-05-15T06:18:48.000Z</time>
      </trkpt>
      <trkpt lat="44.50475" lon="4.29382">
        <ele>192</ele>
        <time>2016-05-15T06:18:49.000Z</time>
      </trkpt>
      <trkpt lat="44.50477" lon="4.2938">
        <ele>192</ele>
        <time>2016-05-15T06:18:50.000Z</time>
      </trkpt>
      <trkpt lat="44.5048" lon="4.29378">
        <ele>192</ele>
        <time>2016-05-15T06:18:51.000Z</time>
      </trkpt>
      <trkpt lat="44.50482" lon="4.29376">
        <ele>192</ele>
        <time>2016-05-15T06:18:52.000Z</time>
      </trkpt>
      <trkpt lat="44.50484" lon="4.29374">
        <ele>192</ele>
        <time>2016-05-15T06:18:53.000Z</time>
      </trkpt>
      <trkpt lat="44.50486" lon="4.29372">
        <ele>193</ele>
        <time>2016-05-15T06:18:54.000Z</time>
      </trkpt>
      <trkpt lat="44.50488" lon="4.2937">
        <ele>193</ele>
        <time>2016-05-15T06:18:55.000Z</time>
      </trkpt>
      <trkpt lat="44.5049" lon="4.29368">
        <ele>193</ele>
        <time>2016-05-15T06:18:56.000Z</time>
      </trkpt>
      <trkpt lat="44.50492" lon="4.29366">
        <ele>193</ele>
        <time>2016-05-15T06:18:57.000Z</time>
      </trkpt>
      <trkpt lat="44.50494" lon="4.29363">
        <ele>193</ele>
        <time>2016-05-15T06:18:58.000Z</time>
      </trkpt>
      <trkpt lat="44.50497" lon="4.2936">
        <ele>193</ele>
        <time>2016-05-15T06:18:59.000Z</time>
      </trkpt>
      <trkpt lat="44.505" lon="4.29357">
        <ele>194</ele>
        <time>2016-05-15T06:19:00.000Z</time>
      </trkpt>
      <trkpt lat="44.50504" lon="4.29355">
        <ele>195</ele>
        <time>2016-05-15T06:19:01.000Z</time>
      </trkpt>
      <trkpt lat="44.50508" lon="4.29353">
        <ele>195</ele>
        <time>2016-05-15T06:19:02.000Z</time>
      </trkpt>
      <trkpt lat="44.50512" lon="4.29352">
        <ele>195</ele>
        <time>2016-05-15T06:19:03.000Z</time>
      </trkpt>
      <trkpt lat="44.50517" lon="4.2935">
        <ele>195</ele>
        <time>2016-05-15T06:19:04.000Z</time>
      </trkpt>
      <trkpt lat="44.50521" lon="4.2935">
        <ele>195</ele>
        <time>2016-05-15T06:19:05.000Z</time>
      </trkpt>
      <trkpt lat="44.50525" lon="4.29349">
        <ele>195</ele>
        <time>2016-05-15T06:19:06.000Z</time>
      </trkpt>
      <trkpt lat="44.50529" lon="4.29348">
        <ele>195</ele>
        <time>2016-05-15T06:19:07.000Z</time>
      </trkpt>
      <trkpt lat="44.50534" lon="4.29348">
        <ele>195</ele>
        <time>2016-05-15T06:19:08.000Z</time>
      </trkpt>
      <trkpt lat="44.50537" lon="4.29347">
        <ele>195</ele>
        <time>2016-05-15T06:19:09.000Z</time>
      </trkpt>
      <trkpt lat="44.50541" lon="4.29346">
        <ele>195</ele>
        <time>2016-05-15T06:19:10.000Z</time>
      </trkpt>
      <trkpt lat="44.50545" lon="4.29345">
        <ele>195</ele>
        <time>2016-05-15T06:19:11.000Z</time>
      </trkpt>
      <trkpt lat="44.50548" lon="4.29343">
        <ele>195</ele>
        <time>2016-05-15T06:19:12.000Z</time>
      </trkpt>
      <trkpt lat="44.50552" lon="4.29341">
        <ele>195</ele>
        <time>2016-05-15T06:19:13.000Z</time>
      </trkpt>
      <trkpt lat="44.50555" lon="4.29339">
        <ele>195</ele>
        <time>2016-05-15T06:19:14.000Z</time>
      </trkpt>
      <trkpt lat="44.50558" lon="4.29337">
        <ele>195</ele>
        <time>2016-05-15T06:19:15.000Z</time>
      </trkpt>
      <trkpt lat="44.50561" lon="4.29335">
        <ele>196</ele>
        <time>2016-05-15T06:19:16.000Z</time>
      </trkpt>
      <trkpt lat="44.50564" lon="4.29333">
        <ele>197</ele>
        <time>2016-05-15T06:19:17.000Z</time>
      </trkpt>
      <trkpt lat="44.50566" lon="4.2933">
        <ele>197</ele>
        <time>2016-05-15T06:19:18.000Z</time>
      </trkpt>
      <trkpt lat="44.50568" lon="4.29327">
        <ele>197</ele>
        <time>2016-05-15T06:19:19.000Z</time>
      </trkpt>
      <trkpt lat="44.5057" lon="4.29324">
        <ele>197</ele>
        <time>2016-05-15T06:19:20.000Z</time>
      </trkpt>
      <trkpt lat="44.50572" lon="4.29321">
        <ele>197</ele>
        <time>2016-05-15T06:19:21.000Z</time>
      </trkpt>
      <trkpt lat="44.50574" lon="4.29317">
        <ele>197</ele>
        <time>2016-05-15T06:19:22.000Z</time>
      </trkpt>
      <trkpt lat="44.50576" lon="4.29314">
        <ele>197</ele>
        <time>2016-05-15T06:19:23.000Z</time>
      </trkpt>
      <trkpt lat="44.50579" lon="4.2931">
        <ele>197</ele>
        <time>2016-05-15T06:19:24.000Z</time>
      </trkpt>
      <trkpt lat="44.50581" lon="4.29307">
        <ele>197</ele>
        <time>2016-05-15T06:19:25.000Z</time>
      </trkpt>
      <trkpt lat="44.50584" lon="4.29304">
        <ele>199</ele>
        <time>2016-05-15T06:19:26.000Z</time>
      </trkpt>
      <trkpt lat="44.50586" lon="4.29301">
        <ele>199</ele>
        <time>2016-05-15T06:19:27.000Z</time>
      </trkpt>
      <trkpt lat="44.50588" lon="4.29298">
        <ele>199</ele>
        <time>2016-05-15T06:19:28.000Z</time>
      </trkpt>
      <trkpt lat="44.5059" lon="4.29295">
        <ele>199</ele>
        <time>2016-05-15T06:19:29.000Z</time>
      </trkpt>
      <trkpt lat="44.50592" lon="4.29293">
        <ele>199</ele>
        <time>2016-05-15T06:19:30.000Z</time>
      </trkpt>
      <trkpt lat="44.50594" lon="4.2929">
        <ele>199</ele>
        <time>2016-05-15T06:19:31.000Z</time>
      </trkpt>
      <trkpt lat="44.50596" lon="4.29288">
        <ele>199</ele>
        <time>2016-05-15T06:19:32.000Z</time>
      </trkpt>
      <trkpt lat="44.50598" lon="4.29286">
        <ele>199</ele>
        <time>2016-05-15T06:19:33.000Z</time>
      </trkpt>
      <trkpt lat="44.506" lon="4.29284">
        <ele>199</ele>
        <time>2016-05-15T06:19:34.000Z</time>
      </trkpt>
      <trkpt lat="44.50602" lon="4.29281">
        <ele>199</ele>
        <time>2016-05-15T06:19:35.000Z</time>
      </trkpt>
      <trkpt lat="44.50604" lon="4.29279">
        <ele>200</ele>
        <time>2016-05-15T06:19:36.000Z</time>
      </trkpt>
      <trkpt lat="44.50606" lon="4.29276">
        <ele>200</ele>
        <time>2016-05-15T06:19:37.000Z</time>
      </trkpt>
      <trkpt lat="44.50607" lon="4.29274">
        <ele>200</ele>
        <time>2016-05-15T06:19:38.000Z</time>
      </trkpt>
      <trkpt lat="44.50609" lon="4.29271">
        <ele>200</ele>
        <time>2016-05-15T06:19:39.000Z</time>
      </trkpt>
      <trkpt lat="44.5061" lon="4.29269">
        <ele>200</ele>
        <time>2016-05-15T06:19:40.000Z</time>
      </trkpt>
      <trkpt lat="44.50612" lon="4.29267">
        <ele>200</ele>
        <time>2016-05-15T06:19:41.000Z</time>
      </trkpt>
      <trkpt lat="44.50613" lon="4.29264">
        <ele>200</ele>
        <time>2016-05-15T06:19:42.000Z</time>
      </trkpt>
      <trkpt lat="44.50615" lon="4.29262">
        <ele>200</ele>
        <time>2016-05-15T06:19:43.000Z</time>
      </trkpt>
      <trkpt lat="44.50617" lon="4.2926">
        <ele>200</ele>
        <time>2016-05-15T06:19:44.000Z</time>
      </trkpt>
      <trkpt lat="44.50618" lon="4.29258">
        <ele>200</ele>
        <time>2016-05-15T06:19:45.000Z</time>
      </trkpt>
      <trkpt lat="44.5062" lon="4.29255">
        <ele>200</ele>
        <time>2016-05-15T06:19:46.000Z</time>
      </trkpt>
      <trkpt lat="44.50622" lon="4.29253">
        <ele>200</ele>
        <time>2016-05-15T06:19:47.000Z</time>
      </trkpt>
      <trkpt lat="44.50624" lon="4.2925">
        <ele>200</ele>
        <time>2016-05-15T06:19:48.000Z</time>
      </trkpt>
      <trkpt lat="44.50626" lon="4.29248">
        <ele>202</ele>
        <time>2016-05-15T06:19:49.000Z</time>
      </trkpt>
      <trkpt lat="44.50627" lon="4.29246">
        <ele>202</ele>
        <time>2016-05-15T06:19:50.000Z</time>
      </trkpt>
      <trkpt lat="44.50629" lon="4.29243">
        <ele>202</ele>
        <time>2016-05-15T06:19:51.000Z</time>
      </trkpt>
      <trkpt lat="44.5063" lon="4.29241">
        <ele>202</ele>
        <time>2016-05-15T06:19:52.000Z</time>
      </trkpt>
      <trkpt lat="44.50632" lon="4.29239">
        <ele>202</ele>
        <time>2016-05-15T06:19:53.000Z</time>
      </trkpt>
      <trkpt lat="44.50634" lon="4.29237">
        <ele>202</ele>
        <time>2016-05-15T06:19:54.000Z</time>
      </trkpt>
      <trkpt lat="44.50636" lon="4.29234">
        <ele>202</ele>
        <time>2016-05-15T06:19:55.000Z</time>
      </trkpt>
      <trkpt lat="44.50637" lon="4.29232">
        <ele>202</ele>
        <time>2016-05-15T06:19:56.000Z</time>
      </trkpt>
      <trkpt lat="44.50639" lon="4.2923">
        <ele>202</ele>
        <time>2016-05-15T06:19:57.000Z</time>
      </trkpt>
      <trkpt lat="44.50641" lon="4.29227">
        <ele>202</ele>
        <time>2016-05-15T06:19:58.000Z</time>
      </trkpt>
      <trkpt lat="44.50642" lon="4.29225">
        <ele>202</ele>
        <time>2016-05-15T06:19:59.000Z</time>
      </trkpt>
      <trkpt lat="44.50644" lon="4.29223">
        <ele>202</ele>
        <time>2016-05-15T06:20:00.000Z</time>
      </trkpt>
      <trkpt lat="44.50646" lon="4.2922">
        <ele>202</ele>
        <time>2016-05-15T06:20:01.000Z</time>
      </trkpt>
      <trkpt lat="44.50647" lon="4.29218">
        <ele>202</ele>
        <time>2016-05-15T06:20:02.000Z</time>
      </trkpt>
      <trkpt lat="44.50649" lon="4.29215">
        <ele>202</ele>
        <time>2016-05-15T06:20:03.000Z</time>
      </trkpt>
      <trkpt lat="44.5065" lon="4.29212">
        <ele>202</ele>
        <time>2016-05-15T06:20:04.000Z</time>
      </trkpt>
      <trkpt lat="44.50652" lon="4.2921">
        <ele>202</ele>
        <time>2016-05-15T06:20:05.000Z</time>
      </trkpt>
      <trkpt lat="44.50653" lon="4.29207">
        <ele>202</ele>
        <time>2016-05-15T06:20:06.000Z</time>
      </trkpt>
      <trkpt lat="44.50655" lon="4.29205">
        <ele>202</ele>
        <time>2016-05-15T06:20:07.000Z</time>
      </trkpt>
      <trkpt lat="44.50656" lon="4.29202">
        <ele>202</ele>
        <time>2016-05-15T06:20:08.000Z</time>
      </trkpt>
      <trkpt lat="44.50658" lon="4.29199">
        <ele>202</ele>
        <time>2016-05-15T06:20:09.000Z</time>
      </trkpt>
      <trkpt lat="44.50659" lon="4.29196">
        <ele>202</ele>
        <time>2016-05-15T06:20:10.000Z</time>
      </trkpt>
      <trkpt lat="44.50661" lon="4.29193">
        <ele>202</ele>
        <time>2016-05-15T06:20:11.000Z</time>
      </trkpt>
      <trkpt lat="44.50662" lon="4.2919">
        <ele>202</ele>
        <time>2016-05-15T06:20:12.000Z</time>
      </trkpt>
      <trkpt lat="44.50664" lon="4.29187">
        <ele>202</ele>
        <time>2016-05-15T06:20:13.000Z</time>
      </trkpt>
      <trkpt lat="44.50665" lon="4.29184">
        <ele>203</ele>
        <time>2016-05-15T06:20:14.000Z</time>
      </trkpt>
      <trkpt lat="44.50667" lon="4.29181">
        <ele>203</ele>
        <time>2016-05-15T06:20:15.000Z</time>
      </trkpt>
      <trkpt lat="44.50668" lon="4.29178">
        <ele>203</ele>
        <time>2016-05-15T06:20:16.000Z</time>
      </trkpt>
      <trkpt lat="44.5067" lon="4.29175">
        <ele>203</ele>
        <time>2016-05-15T06:20:17.000Z</time>
      </trkpt>
      <trkpt lat="44.50671" lon="4.29172">
        <ele>203</ele>
        <time>2016-05-15T06:20:18.000Z</time>
      </trkpt>
      <trkpt lat="44.50673" lon="4.29169">
        <ele>203</ele>
        <time>2016-05-15T06:20:19.000Z</time>
      </trkpt>
      <trkpt lat="44.50674" lon="4.29166">
        <ele>204</ele>
        <time>2016-05-15T06:20:20.000Z</time>
      </trkpt>
      <trkpt lat="44.50676" lon="4.29163">
        <ele>204</ele>
        <time>2016-05-15T06:20:21.000Z</time>
      </trkpt>
      <trkpt lat="44.50677" lon="4.2916">
        <ele>204</ele>
        <time>2016-05-15T06:20:22.000Z</time>
      </trkpt>
      <trkpt lat="44.50679" lon="4.29158">
        <ele>204</ele>
        <time>2016-05-15T06:20:23.000Z</time>
      </trkpt>
      <trkpt lat="44.5068" lon="4.29155">
        <ele>204</ele>
        <time>2016-05-15T06:20:24.000Z</time>
      </trkpt>
      <trkpt lat="44.50682" lon="4.29151">
        <ele>204</ele>
        <time>2016-05-15T06:20:25.000Z</time>
      </trkpt>
      <trkpt lat="44.50683" lon="4.29148">
        <ele>205</ele>
        <time>2016-05-15T06:20:26.000Z</time>
      </trkpt>
      <trkpt lat="44.50685" lon="4.29145">
        <ele>205</ele>
        <time>2016-05-15T06:20:27.000Z</time>
      </trkpt>
      <trkpt lat="44.50687" lon="4.29142">
        <ele>205</ele>
        <time>2016-05-15T06:20:28.000Z</time>
      </trkpt>
      <trkpt lat="44.50688" lon="4.29139">
        <ele>205</ele>
        <time>2016-05-15T06:20:29.000Z</time>
      </trkpt>
      <trkpt lat="44.5069" lon="4.29136">
        <ele>205</ele>
        <time>2016-05-15T06:20:30.000Z</time>
      </trkpt>
      <trkpt lat="44.50691" lon="4.29133">
        <ele>205</ele>
        <time>2016-05-15T06:20:31.000Z</time>
      </trkpt>
      <trkpt lat="44.50693" lon="4.2913">
        <ele>205</ele>
        <time>2016-05-15T06:20:32.000Z</time>
      </trkpt>
      <trkpt lat="44.50694" lon="4.29127">
        <ele>205</ele>
        <time>2016-05-15T06:20:33.000Z</time>
      </trkpt>
      <trkpt lat="44.50696" lon="4.29124">
        <ele>205</ele>
        <time>2016-05-15T06:20:34.000Z</time>
      </trkpt>
      <trkpt lat="44.50698" lon="4.29121">
        <ele>205</ele>
        <time>2016-05-15T06:20:35.000Z</time>
      </trkpt>
      <trkpt lat="44.50699" lon="4.29118">
        <ele>205</ele>
        <time>2016-05-15T06:20:36.000Z</time>
      </trkpt>
      <trkpt lat="44.50701" lon="4.29115">
        <ele>205</ele>
        <time>2016-05-15T06:20:37.000Z</time>
      </trkpt>
      <trkpt lat="44.50702" lon="4.29112">
        <ele>205</ele>
        <time>2016-05-15T06:20:38.000Z</time>
      </trkpt>
      <trkpt lat="44.50704" lon="4.29109">
        <ele>206</ele>
        <time>2016-05-15T06:20:39.000Z</time>
      </trkpt>
      <trkpt lat="44.50706" lon="4.29106">
        <ele>206</ele>
        <time>2016-05-15T06:20:40.000Z</time>
      </trkpt>
      <trkpt lat="44.50708" lon="4.29103">
        <ele>206</ele>
        <time>2016-05-15T06:20:41.000Z</time>
      </trkpt>
      <trkpt lat="44.50709" lon="4.291">
        <ele>206</ele>
        <time>2016-05-15T06:20:42.000Z</time>
      </trkpt>
      <trkpt lat="44.50711" lon="4.29097">
        <ele>206</ele>
        <time>2016-05-15T06:20:43.000Z</time>
      </trkpt>
      <trkpt lat="44.50713" lon="4.29095">
        <ele>206</ele>
        <time>2016-05-15T06:20:44.000Z</time>
      </trkpt>
      <trkpt lat="44.50715" lon="4.29092">
        <ele>206</ele>
        <time>2016-05-15T06:20:45.000Z</time>
      </trkpt>
      <trkpt lat="44.50717" lon="4.29089">
        <ele>206</ele>
        <time>2016-05-15T06:20:46.000Z</time>
      </trkpt>
      <trkpt lat="44.50719" lon="4.29086">
        <ele>206</ele>
        <time>2016-05-15T06:20:47.000Z</time>
      </trkpt>
      <trkpt lat="44.5072" lon="4.29083">
        <ele>206</ele>
        <time>2016-05-15T06:20:48.000Z</time>
      </trkpt>
      <trkpt lat="44.50722" lon="4.2908">
        <ele>206</ele>
        <time>2016-05-15T06:20:49.000Z</time>
      </trkpt>
      <trkpt lat="44.50724" lon="4.29076">
        <ele>206</ele>
        <time>2016-05-15T06:20:50.000Z</time>
      </trkpt>
      <trkpt lat="44.50726" lon="4.29073">
        <ele>206</ele>
        <time>2016-05-15T06:20:51.000Z</time>
      </trkpt>
      <trkpt lat="44.50728" lon="4.2907">
        <ele>206</ele>
        <time>2016-05-15T06:20:52.000Z</time>
      </trkpt>
      <trkpt lat="44.5073" lon="4.29066">
        <ele>206</ele>
        <time>2016-05-15T06:20:53.000Z</time>
      </trkpt>
      <trkpt lat="44.50732" lon="4.29063">
        <ele>206</ele>
        <time>2016-05-15T06:20:54.000Z</time>
      </trkpt>
      <trkpt lat="44.50733" lon="4.29059">
        <ele>206</ele>
        <time>2016-05-15T06:20:55.000Z</time>
      </trkpt>
      <trkpt lat="44.50735" lon="4.29055">
        <ele>206</ele>
        <time>2016-05-15T06:20:56.000Z</time>
      </trkpt>
      <trkpt lat="44.50737" lon="4.29051">
        <ele>206</ele>
        <time>2016-05-15T06:20:57.000Z</time>
      </trkpt>
      <trkpt lat="44.50739" lon="4.29046">
        <ele>206</ele>
        <time>2016-05-15T06:20:58.000Z</time>
      </trkpt>
      <trkpt lat="44.50741" lon="4.29041">
        <ele>206</ele>
        <time>2016-05-15T06:20:59.000Z</time>
      </trkpt>
      <trkpt lat="44.50744" lon="4.29035">
        <ele>207</ele>
        <time>2016-05-15T06:21:00.000Z</time>
      </trkpt>
      <trkpt lat="44.50746" lon="4.2903">
        <ele>207</ele>
        <time>2016-05-15T06:21:01.000Z</time>
      </trkpt>
      <trkpt lat="44.50749" lon="4.29025">
        <ele>207</ele>
        <time>2016-05-15T06:21:02.000Z</time>
      </trkpt>
      <trkpt lat="44.50752" lon="4.2902">
        <ele>206</ele>
        <time>2016-05-15T06:21:03.000Z</time>
      </trkpt>
      <trkpt lat="44.50755" lon="4.29014">
        <ele>206</ele>
        <time>2016-05-15T06:21:04.000Z</time>
      </trkpt>
      <trkpt lat="44.50758" lon="4.29009">
        <ele>206</ele>
        <time>2016-05-15T06:21:05.000Z</time>
      </trkpt>
      <trkpt lat="44.50761" lon="4.29003">
        <ele>206</ele>
        <time>2016-05-15T06:21:06.000Z</time>
      </trkpt>
      <trkpt lat="44.50764" lon="4.28996">
        <ele>207</ele>
        <time>2016-05-15T06:21:07.000Z</time>
      </trkpt>
      <trkpt lat="44.50768" lon="4.2899">
        <ele>207</ele>
        <time>2016-05-15T06:21:08.000Z</time>
      </trkpt>
      <trkpt lat="44.50772" lon="4.28985">
        <ele>207</ele>
        <time>2016-05-15T06:21:09.000Z</time>
      </trkpt>
      <trkpt lat="44.50775" lon="4.28979">
        <ele>207</ele>
        <time>2016-05-15T06:21:10.000Z</time>
      </trkpt>
      <trkpt lat="44.50779" lon="4.28974">
        <ele>207</ele>
        <time>2016-05-15T06:21:11.000Z</time>
      </trkpt>
      <trkpt lat="44.50783" lon="4.28969">
        <ele>207</ele>
        <time>2016-05-15T06:21:12.000Z</time>
      </trkpt>
      <trkpt lat="44.50786" lon="4.28965">
        <ele>207</ele>
        <time>2016-05-15T06:21:13.000Z</time>
      </trkpt>
      <trkpt lat="44.5079" lon="4.2896">
        <ele>207</ele>
        <time>2016-05-15T06:21:14.000Z</time>
      </trkpt>
      <trkpt lat="44.50793" lon="4.28956">
        <ele>207</ele>
        <time>2016-05-15T06:21:15.000Z</time>
      </trkpt>
      <trkpt lat="44.50796" lon="4.28952">
        <ele>207</ele>
        <time>2016-05-15T06:21:16.000Z</time>
      </trkpt>
      <trkpt lat="44.50798" lon="4.28948">
        <ele>207</ele>
        <time>2016-05-15T06:21:17.000Z</time>
      </trkpt>
      <trkpt lat="44.50801" lon="4.28944">
        <ele>207</ele>
        <time>2016-05-15T06:21:18.000Z</time>
      </trkpt>
      <trkpt lat="44.50804" lon="4.28941">
        <ele>207</ele>
        <time>2016-05-15T06:21:19.000Z</time>
      </trkpt>
      <trkpt lat="44.50807" lon="4.28937">
        <ele>207</ele>
        <time>2016-05-15T06:21:20.000Z</time>
      </trkpt>
      <trkpt lat="44.50809" lon="4.28933">
        <ele>207</ele>
        <time>2016-05-15T06:21:21.000Z</time>
      </trkpt>
      <trkpt lat="44.50811" lon="4.28929">
        <ele>207</ele>
        <time>2016-05-15T06:21:22.000Z</time>
      </trkpt>
      <trkpt lat="44.50814" lon="4.28925">
        <ele>207</ele>
        <time>2016-05-15T06:21:23.000Z</time>
      </trkpt>
      <trkpt lat="44.50816" lon="4.28922">
        <ele>207</ele>
        <time>2016-05-15T06:21:24.000Z</time>
      </trkpt>
      <trkpt lat="44.50818" lon="4.28918">
        <ele>207</ele>
        <time>2016-05-15T06:21:25.000Z</time>
      </trkpt>
      <trkpt lat="44.5082" lon="4.28915">
        <ele>207</ele>
        <time>2016-05-15T06:21:26.000Z</time>
      </trkpt>
      <trkpt lat="44.50822" lon="4.28912">
        <ele>207</ele>
        <time>2016-05-15T06:21:27.000Z</time>
      </trkpt>
      <trkpt lat="44.50825" lon="4.28909">
        <ele>207</ele>
        <time>2016-05-15T06:21:28.000Z</time>
      </trkpt>
      <trkpt lat="44.50828" lon="4.28907">
        <ele>207</ele>
        <time>2016-05-15T06:21:29.000Z</time>
      </trkpt>
      <trkpt lat="44.50831" lon="4.28907">
        <ele>207</ele>
        <time>2016-05-15T06:21:30.000Z</time>
      </trkpt>
      <trkpt lat="44.50835" lon="4.28906">
        <ele>207</ele>
        <time>2016-05-15T06:21:31.000Z</time>
      </trkpt>
      <trkpt lat="44.50838" lon="4.28906">
        <ele>207</ele>
        <time>2016-05-15T06:21:32.000Z</time>
      </trkpt>
      <trkpt lat="44.50841" lon="4.28905">
        <ele>207</ele>
        <time>2016-05-15T06:21:33.000Z</time>
      </trkpt>
      <trkpt lat="44.50844" lon="4.28904">
        <ele>207</ele>
        <time>2016-05-15T06:21:34.000Z</time>
      </trkpt>
      <trkpt lat="44.50847" lon="4.28903">
        <ele>207</ele>
        <time>2016-05-15T06:21:35.000Z</time>
      </trkpt>
      <trkpt lat="44.50851" lon="4.28902">
        <ele>207</ele>
        <time>2016-05-15T06:21:36.000Z</time>
      </trkpt>
      <trkpt lat="44.50854" lon="4.28901">
        <ele>207</ele>
        <time>2016-05-15T06:21:37.000Z</time>
      </trkpt>
      <trkpt lat="44.50858" lon="4.289">
        <ele>207</ele>
        <time>2016-05-15T06:21:38.000Z</time>
      </trkpt>
      <trkpt lat="44.50861" lon="4.28899">
        <ele>206</ele>
        <time>2016-05-15T06:21:39.000Z</time>
      </trkpt>
      <trkpt lat="44.50865" lon="4.28898">
        <ele>206</ele>
        <time>2016-05-15T06:21:40.000Z</time>
      </trkpt>
      <trkpt lat="44.50869" lon="4.28897">
        <ele>206</ele>
        <time>2016-05-15T06:21:41.000Z</time>
      </trkpt>
      <trkpt lat="44.50873" lon="4.28896">
        <ele>206</ele>
        <time>2016-05-15T06:21:42.000Z</time>
      </trkpt>
      <trkpt lat="44.50877" lon="4.28895">
        <ele>206</ele>
        <time>2016-05-15T06:21:43.000Z</time>
      </trkpt>
      <trkpt lat="44.50881" lon="4.28895">
        <ele>206</ele>
        <time>2016-05-15T06:21:44.000Z</time>
      </trkpt>
      <trkpt lat="44.50886" lon="4.28894">
        <ele>206</ele>
        <time>2016-05-15T06:21:45.000Z</time>
      </trkpt>
      <trkpt lat="44.5089" lon="4.28893">
        <ele>206</ele>
        <time>2016-05-15T06:21:46.000Z</time>
      </trkpt>
      <trkpt lat="44.50894" lon="4.28892">
        <ele>206</ele>
        <time>2016-05-15T06:21:47.000Z</time>
      </trkpt>
      <trkpt lat="44.50898" lon="4.28891">
        <ele>206</ele>
        <time>2016-05-15T06:21:48.000Z</time>
      </trkpt>
      <trkpt lat="44.50902" lon="4.2889">
        <ele>206</ele>
        <time>2016-05-15T06:21:49.000Z</time>
      </trkpt>
      <trkpt lat="44.50906" lon="4.28889">
        <ele>206</ele>
        <time>2016-05-15T06:21:50.000Z</time>
      </trkpt>
      <trkpt lat="44.5091" lon="4.28888">
        <ele>206</ele>
        <time>2016-05-15T06:21:51.000Z</time>
      </trkpt>
      <trkpt lat="44.50915" lon="4.28888">
        <ele>206</ele>
        <time>2016-05-15T06:21:52.000Z</time>
      </trkpt>
      <trkpt lat="44.50919" lon="4.28887">
        <ele>206</ele>
        <time>2016-05-15T06:21:53.000Z</time>
      </trkpt>
      <trkpt lat="44.50923" lon="4.28886">
        <ele>206</ele>
        <time>2016-05-15T06:21:54.000Z</time>
      </trkpt>
      <trkpt lat="44.50926" lon="4.28885">
        <ele>206</ele>
        <time>2016-05-15T06:21:55.000Z</time>
      </trkpt>
      <trkpt lat="44.5093" lon="4.28883">
        <ele>206</ele>
        <time>2016-05-15T06:21:56.000Z</time>
      </trkpt>
      <trkpt lat="44.50934" lon="4.28881">
        <ele>206</ele>
        <time>2016-05-15T06:21:57.000Z</time>
      </trkpt>
      <trkpt lat="44.50938" lon="4.28879">
        <ele>206</ele>
        <time>2016-05-15T06:21:58.000Z</time>
      </trkpt>
      <trkpt lat="44.50941" lon="4.28876">
        <ele>206</ele>
        <time>2016-05-15T06:21:59.000Z</time>
      </trkpt>
      <trkpt lat="44.50945" lon="4.28873">
        <ele>206</ele>
        <time>2016-05-15T06:22:00.000Z</time>
      </trkpt>
      <trkpt lat="44.50948" lon="4.2887">
        <ele>206</ele>
        <time>2016-05-15T06:22:01.000Z</time>
      </trkpt>
      <trkpt lat="44.50952" lon="4.28867">
        <ele>206</ele>
        <time>2016-05-15T06:22:02.000Z</time>
      </trkpt>
      <trkpt lat="44.50955" lon="4.28864">
        <ele>206</ele>
        <time>2016-05-15T06:22:03.000Z</time>
      </trkpt>
      <trkpt lat="44.50958" lon="4.2886">
        <ele>206</ele>
        <time>2016-05-15T06:22:04.000Z</time>
      </trkpt>
      <trkpt lat="44.50961" lon="4.28857">
        <ele>206</ele>
        <time>2016-05-15T06:22:05.000Z</time>
      </trkpt>
      <trkpt lat="44.50964" lon="4.28853">
        <ele>206</ele>
        <time>2016-05-15T06:22:06.000Z</time>
      </trkpt>
      <trkpt lat="44.50966" lon="4.2885">
        <ele>206</ele>
        <time>2016-05-15T06:22:07.000Z</time>
      </trkpt>
      <trkpt lat="44.50969" lon="4.28847">
        <ele>206</ele>
        <time>2016-05-15T06:22:08.000Z</time>
      </trkpt>
      <trkpt lat="44.50972" lon="4.28843">
        <ele>206</ele>
        <time>2016-05-15T06:22:09.000Z</time>
      </trkpt>
      <trkpt lat="44.50975" lon="4.2884">
        <ele>206</ele>
        <time>2016-05-15T06:22:10.000Z</time>
      </trkpt>
      <trkpt lat="44.50978" lon="4.28837">
        <ele>206</ele>
        <time>2016-05-15T06:22:11.000Z</time>
      </trkpt>
      <trkpt lat="44.50981" lon="4.28834">
        <ele>206</ele>
        <time>2016-05-15T06:22:12.000Z</time>
      </trkpt>
      <trkpt lat="44.50984" lon="4.28831">
        <ele>206</ele>
        <time>2016-05-15T06:22:13.000Z</time>
      </trkpt>
      <trkpt lat="44.50986" lon="4.28828">
        <ele>206</ele>
        <time>2016-05-15T06:22:14.000Z</time>
      </trkpt>
      <trkpt lat="44.50989" lon="4.28824">
        <ele>206</ele>
        <time>2016-05-15T06:22:15.000Z</time>
      </trkpt>
      <trkpt lat="44.50992" lon="4.28821">
        <ele>206</ele>
        <time>2016-05-15T06:22:16.000Z</time>
      </trkpt>
      <trkpt lat="44.50994" lon="4.28819">
        <ele>206</ele>
        <time>2016-05-15T06:22:17.000Z</time>
      </trkpt>
      <trkpt lat="44.50996" lon="4.28815">
        <ele>206</ele>
        <time>2016-05-15T06:22:18.000Z</time>
      </trkpt>
      <trkpt lat="44.50998" lon="4.28811">
        <ele>206</ele>
        <time>2016-05-15T06:22:19.000Z</time>
      </trkpt>
      <trkpt lat="44.50999" lon="4.28807">
        <ele>206</ele>
        <time>2016-05-15T06:22:20.000Z</time>
      </trkpt>
      <trkpt lat="44.50998" lon="4.28803">
        <ele>206</ele>
        <time>2016-05-15T06:22:21.000Z</time>
      </trkpt>
      <trkpt lat="44.50997" lon="4.28799">
        <ele>206</ele>
        <time>2016-05-15T06:22:22.000Z</time>
      </trkpt>
      <trkpt lat="44.50995" lon="4.28795">
        <ele>206</ele>
        <time>2016-05-15T06:22:23.000Z</time>
      </trkpt>
      <trkpt lat="44.50993" lon="4.28791">
        <ele>206</ele>
        <time>2016-05-15T06:22:24.000Z</time>
      </trkpt>
      <trkpt lat="44.50991" lon="4.28786">
        <ele>206</ele>
        <time>2016-05-15T06:22:25.000Z</time>
      </trkpt>
      <trkpt lat="44.50989" lon="4.28783">
        <ele>206</ele>
        <time>2016-05-15T06:22:26.000Z</time>
      </trkpt>
      <trkpt lat="44.50987" lon="4.28779">
        <ele>206</ele>
        <time>2016-05-15T06:22:27.000Z</time>
      </trkpt>
      <trkpt lat="44.50984" lon="4.28776">
        <ele>206</ele>
        <time>2016-05-15T06:22:28.000Z</time>
      </trkpt>
      <trkpt lat="44.50981" lon="4.28773">
        <ele>206</ele>
        <time>2016-05-15T06:22:29.000Z</time>
      </trkpt>
      <trkpt lat="44.50978" lon="4.2877">
        <ele>206</ele>
        <time>2016-05-15T06:22:30.000Z</time>
      </trkpt>
      <trkpt lat="44.50976" lon="4.28767">
        <ele>206</ele>
        <time>2016-05-15T06:22:31.000Z</time>
      </trkpt>
      <trkpt lat="44.50973" lon="4.28763">
        <ele>206</ele>
        <time>2016-05-15T06:22:32.000Z</time>
      </trkpt>
      <trkpt lat="44.50972" lon="4.28759">
        <ele>206</ele>
        <time>2016-05-15T06:22:33.000Z</time>
      </trkpt>
      <trkpt lat="44.5097" lon="4.28754">
        <ele>206</ele>
        <time>2016-05-15T06:22:34.000Z</time>
      </trkpt>
      <trkpt lat="44.50969" lon="4.28748">
        <ele>204</ele>
        <time>2016-05-15T06:22:35.000Z</time>
      </trkpt>
      <trkpt lat="44.50969" lon="4.28743">
        <ele>204</ele>
        <time>2016-05-15T06:22:36.000Z</time>
      </trkpt>
      <trkpt lat="44.50969" lon="4.28737">
        <ele>204</ele>
        <time>2016-05-15T06:22:37.000Z</time>
      </trkpt>
      <trkpt lat="44.50969" lon="4.28731">
        <ele>204</ele>
        <time>2016-05-15T06:22:38.000Z</time>
      </trkpt>
      <trkpt lat="44.50969" lon="4.28725">
        <ele>204</ele>
        <time>2016-05-15T06:22:39.000Z</time>
      </trkpt>
      <trkpt lat="44.5097" lon="4.28718">
        <ele>204</ele>
        <time>2016-05-15T06:22:40.000Z</time>
      </trkpt>
      <trkpt lat="44.5097" lon="4.2871">
        <ele>203</ele>
        <time>2016-05-15T06:22:41.000Z</time>
      </trkpt>
      <trkpt lat="44.5097" lon="4.28702">
        <ele>203</ele>
        <time>2016-05-15T06:22:42.000Z</time>
      </trkpt>
      <trkpt lat="44.50969" lon="4.28694">
        <ele>203</ele>
        <time>2016-05-15T06:22:43.000Z</time>
      </trkpt>
      <trkpt lat="44.50969" lon="4.28686">
        <ele>203</ele>
        <time>2016-05-15T06:22:44.000Z</time>
      </trkpt>
      <trkpt lat="44.50969" lon="4.28677">
        <ele>203</ele>
        <time>2016-05-15T06:22:45.000Z</time>
      </trkpt>
      <trkpt lat="44.50969" lon="4.28668">
        <ele>203</ele>
        <time>2016-05-15T06:22:46.000Z</time>
      </trkpt>
      <trkpt lat="44.50969" lon="4.2866">
        <ele>201</ele>
        <time>2016-05-15T06:22:47.000Z</time>
      </trkpt>
      <trkpt lat="44.5097" lon="4.28651">
        <ele>201</ele>
        <time>2016-05-15T06:22:48.000Z</time>
      </trkpt>
      <trkpt lat="44.50971" lon="4.28642">
        <ele>201</ele>
        <time>2016-05-15T06:22:49.000Z</time>
      </trkpt>
      <trkpt lat="44.50972" lon="4.28634">
        <ele>201</ele>
        <time>2016-05-15T06:22:50.000Z</time>
      </trkpt>
      <trkpt lat="44.50972" lon="4.28626">
        <ele>201</ele>
        <time>2016-05-15T06:22:51.000Z</time>
      </trkpt>
      <trkpt lat="44.50972" lon="4.28619">
        <ele>201</ele>
        <time>2016-05-15T06:22:52.000Z</time>
      </trkpt>
      <trkpt lat="44.50973" lon="4.28612">
        <ele>201</ele>
        <time>2016-05-15T06:22:53.000Z</time>
      </trkpt>
      <trkpt lat="44.50973" lon="4.28605">
        <ele>201</ele>
        <time>2016-05-15T06:22:54.000Z</time>
      </trkpt>
      <trkpt lat="44.50974" lon="4.28599">
        <ele>201</ele>
        <time>2016-05-15T06:22:55.000Z</time>
      </trkpt>
      <trkpt lat="44.50975" lon="4.28593">
        <ele>201</ele>
        <time>2016-05-15T06:22:56.000Z</time>
      </trkpt>
      <trkpt lat="44.50976" lon="4.28589">
        <ele>201</ele>
        <time>2016-05-15T06:22:57.000Z</time>
      </trkpt>
      <trkpt lat="44.50976" lon="4.28585">
        <ele>201</ele>
        <time>2016-05-15T06:22:58.000Z</time>
      </trkpt>
      <trkpt lat="44.50977" lon="4.28581">
        <ele>202</ele>
        <time>2016-05-15T06:22:59.000Z</time>
      </trkpt>
      <trkpt lat="44.50978" lon="4.28577">
        <ele>202</ele>
        <time>2016-05-15T06:23:00.000Z</time>
      </trkpt>
      <trkpt lat="44.50978" lon="4.28572">
        <ele>202</ele>
        <time>2016-05-15T06:23:01.000Z</time>
      </trkpt>
      <trkpt lat="44.50979" lon="4.28567">
        <ele>202</ele>
        <time>2016-05-15T06:23:02.000Z</time>
      </trkpt>
      <trkpt lat="44.50979" lon="4.28563">
        <ele>202</ele>
        <time>2016-05-15T06:23:03.000Z</time>
      </trkpt>
      <trkpt lat="44.5098" lon="4.28558">
        <ele>202</ele>
        <time>2016-05-15T06:23:04.000Z</time>
      </trkpt>
      <trkpt lat="44.5098" lon="4.28553">
        <ele>202</ele>
        <time>2016-05-15T06:23:05.000Z</time>
      </trkpt>
      <trkpt lat="44.5098" lon="4.28549">
        <ele>202</ele>
        <time>2016-05-15T06:23:06.000Z</time>
      </trkpt>
      <trkpt lat="44.5098" lon="4.28545">
        <ele>202</ele>
        <time>2016-05-15T06:23:07.000Z</time>
      </trkpt>
      <trkpt lat="44.5098" lon="4.2854">
        <ele>202</ele>
        <time>2016-05-15T06:23:08.000Z</time>
      </trkpt>
      <trkpt lat="44.5098" lon="4.28535">
        <ele>203</ele>
        <time>2016-05-15T06:23:09.000Z</time>
      </trkpt>
      <trkpt lat="44.50979" lon="4.28531">
        <ele>203</ele>
        <time>2016-05-15T06:23:10.000Z</time>
      </trkpt>
      <trkpt lat="44.50978" lon="4.28526">
        <ele>203</ele>
        <time>2016-05-15T06:23:11.000Z</time>
      </trkpt>
      <trkpt lat="44.50977" lon="4.28522">
        <ele>203</ele>
        <time>2016-05-15T06:23:12.000Z</time>
      </trkpt>
      <trkpt lat="44.50977" lon="4.28518">
        <ele>203</ele>
        <time>2016-05-15T06:23:13.000Z</time>
      </trkpt>
      <trkpt lat="44.50976" lon="4.28514">
        <ele>203</ele>
        <time>2016-05-15T06:23:14.000Z</time>
      </trkpt>
      <trkpt lat="44.50976" lon="4.28511">
        <ele>203</ele>
        <time>2016-05-15T06:23:15.000Z</time>
      </trkpt>
      <trkpt lat="44.50975" lon="4.28507">
        <ele>203</ele>
        <time>2016-05-15T06:23:16.000Z</time>
      </trkpt>
      <trkpt lat="44.50974" lon="4.28503">
        <ele>203</ele>
        <time>2016-05-15T06:23:17.000Z</time>
      </trkpt>
      <trkpt lat="44.50973" lon="4.28499">
        <ele>205</ele>
        <time>2016-05-15T06:23:18.000Z</time>
      </trkpt>
      <trkpt lat="44.50972" lon="4.28495">
        <ele>205</ele>
        <time>2016-05-15T06:23:19.000Z</time>
      </trkpt>
      <trkpt lat="44.50971" lon="4.28491">
        <ele>205</ele>
        <time>2016-05-15T06:23:20.000Z</time>
      </trkpt>
      <trkpt lat="44.5097" lon="4.28487">
        <ele>205</ele>
        <time>2016-05-15T06:23:21.000Z</time>
      </trkpt>
      <trkpt lat="44.50969" lon="4.28483">
        <ele>205</ele>
        <time>2016-05-15T06:23:22.000Z</time>
      </trkpt>
      <trkpt lat="44.50968" lon="4.28479">
        <ele>205</ele>
        <time>2016-05-15T06:23:23.000Z</time>
      </trkpt>
      <trkpt lat="44.50966" lon="4.28475">
        <ele>205</ele>
        <time>2016-05-15T06:23:24.000Z</time>
      </trkpt>
      <trkpt lat="44.50965" lon="4.28473">
        <ele>205</ele>
        <time>2016-05-15T06:23:25.000Z</time>
      </trkpt>
      <trkpt lat="44.50964" lon="4.2847">
        <ele>205</ele>
        <time>2016-05-15T06:23:26.000Z</time>
      </trkpt>
      <trkpt lat="44.50963" lon="4.28465">
        <ele>205</ele>
        <time>2016-05-15T06:23:27.000Z</time>
      </trkpt>
      <trkpt lat="44.50962" lon="4.28461">
        <ele>205</ele>
        <time>2016-05-15T06:23:28.000Z</time>
      </trkpt>
      <trkpt lat="44.50961" lon="4.28457">
        <ele>205</ele>
        <time>2016-05-15T06:23:29.000Z</time>
      </trkpt>
      <trkpt lat="44.50961" lon="4.28452">
        <ele>205</ele>
        <time>2016-05-15T06:23:30.000Z</time>
      </trkpt>
      <trkpt lat="44.5096" lon="4.28448">
        <ele>206</ele>
        <time>2016-05-15T06:23:31.000Z</time>
      </trkpt>
      <trkpt lat="44.5096" lon="4.28443">
        <ele>206</ele>
        <time>2016-05-15T06:23:32.000Z</time>
      </trkpt>
      <trkpt lat="44.5096" lon="4.28439">
        <ele>206</ele>
        <time>2016-05-15T06:23:33.000Z</time>
      </trkpt>
      <trkpt lat="44.5096" lon="4.28435">
        <ele>206</ele>
        <time>2016-05-15T06:23:34.000Z</time>
      </trkpt>
      <trkpt lat="44.50961" lon="4.28431">
        <ele>206</ele>
        <time>2016-05-15T06:23:35.000Z</time>
      </trkpt>
      <trkpt lat="44.50962" lon="4.28427">
        <ele>206</ele>
        <time>2016-05-15T06:23:36.000Z</time>
      </trkpt>
      <trkpt lat="44.50963" lon="4.28423">
        <ele>206</ele>
        <time>2016-05-15T06:23:37.000Z</time>
      </trkpt>
      <trkpt lat="44.50964" lon="4.28419">
        <ele>206</ele>
        <time>2016-05-15T06:23:38.000Z</time>
      </trkpt>
      <trkpt lat="44.50965" lon="4.28415">
        <ele>208</ele>
        <time>2016-05-15T06:23:39.000Z</time>
      </trkpt>
      <trkpt lat="44.50966" lon="4.28411">
        <ele>209</ele>
        <time>2016-05-15T06:23:40.000Z</time>
      </trkpt>
      <trkpt lat="44.50968" lon="4.28408">
        <ele>209</ele>
        <time>2016-05-15T06:23:41.000Z</time>
      </trkpt>
      <trkpt lat="44.50969" lon="4.28405">
        <ele>209</ele>
        <time>2016-05-15T06:23:42.000Z</time>
      </trkpt>
      <trkpt lat="44.5097" lon="4.28402">
        <ele>209</ele>
        <time>2016-05-15T06:23:43.000Z</time>
      </trkpt>
      <trkpt lat="44.50972" lon="4.28398">
        <ele>209</ele>
        <time>2016-05-15T06:23:44.000Z</time>
      </trkpt>
      <trkpt lat="44.50974" lon="4.28395">
        <ele>209</ele>
        <time>2016-05-15T06:23:45.000Z</time>
      </trkpt>
      <trkpt lat="44.50975" lon="4.28392">
        <ele>209</ele>
        <time>2016-05-15T06:23:46.000Z</time>
      </trkpt>
      <trkpt lat="44.50976" lon="4.28389">
        <ele>209</ele>
        <time>2016-05-15T06:23:47.000Z</time>
      </trkpt>
      <trkpt lat="44.50978" lon="4.28386">
        <ele>209</ele>
        <time>2016-05-15T06:23:48.000Z</time>
      </trkpt>
      <trkpt lat="44.50979" lon="4.28383">
        <ele>209</ele>
        <time>2016-05-15T06:23:49.000Z</time>
      </trkpt>
      <trkpt lat="44.5098" lon="4.2838">
        <ele>209</ele>
        <time>2016-05-15T06:23:50.000Z</time>
      </trkpt>
      <trkpt lat="44.50981" lon="4.28378">
        <ele>209</ele>
        <time>2016-05-15T06:23:51.000Z</time>
      </trkpt>
      <trkpt lat="44.50982" lon="4.28375">
        <ele>209</ele>
        <time>2016-05-15T06:23:52.000Z</time>
      </trkpt>
      <trkpt lat="44.50983" lon="4.28373">
        <ele>210</ele>
        <time>2016-05-15T06:23:53.000Z</time>
      </trkpt>
      <trkpt lat="44.50984" lon="4.28371">
        <ele>210</ele>
        <time>2016-05-15T06:23:54.000Z</time>
      </trkpt>
      <trkpt lat="44.50985" lon="4.28368">
        <ele>210</ele>
        <time>2016-05-15T06:23:55.000Z</time>
      </trkpt>
      <trkpt lat="44.50986" lon="4.28366">
        <ele>210</ele>
        <time>2016-05-15T06:23:56.000Z</time>
      </trkpt>
      <trkpt lat="44.50987" lon="4.28363">
        <ele>210</ele>
        <time>2016-05-15T06:23:57.000Z</time>
      </trkpt>
      <trkpt lat="44.50988" lon="4.2836">
        <ele>210</ele>
        <time>2016-05-15T06:23:58.000Z</time>
      </trkpt>
      <trkpt lat="44.50989" lon="4.28358">
        <ele>210</ele>
        <time>2016-05-15T06:23:59.000Z</time>
      </trkpt>
      <trkpt lat="44.50989" lon="4.28355">
        <ele>210</ele>
        <time>2016-05-15T06:24:00.000Z</time>
      </trkpt>
      <trkpt lat="44.5099" lon="4.28353">
        <ele>211</ele>
        <time>2016-05-15T06:24:01.000Z</time>
      </trkpt>
      <trkpt lat="44.50991" lon="4.2835">
        <ele>211</ele>
        <time>2016-05-15T06:24:02.000Z</time>
      </trkpt>
      <trkpt lat="44.50991" lon="4.28348">
        <ele>211</ele>
        <time>2016-05-15T06:24:03.000Z</time>
      </trkpt>
      <trkpt lat="44.50992" lon="4.28345">
        <ele>211</ele>
        <time>2016-05-15T06:24:04.000Z</time>
      </trkpt>
      <trkpt lat="44.50992" lon="4.28342">
        <ele>211</ele>
        <time>2016-05-15T06:24:05.000Z</time>
      </trkpt>
      <trkpt lat="44.50992" lon="4.2834">
        <ele>212</ele>
        <time>2016-05-15T06:24:06.000Z</time>
      </trkpt>
      <trkpt lat="44.50991" lon="4.28337">
        <ele>212</ele>
        <time>2016-05-15T06:24:07.000Z</time>
      </trkpt>
      <trkpt lat="44.5099" lon="4.28335">
        <ele>212</ele>
        <time>2016-05-15T06:24:08.000Z</time>
      </trkpt>
      <trkpt lat="44.50989" lon="4.28332">
        <ele>213</ele>
        <time>2016-05-15T06:24:09.000Z</time>
      </trkpt>
      <trkpt lat="44.50987" lon="4.2833">
        <ele>213</ele>
        <time>2016-05-15T06:24:10.000Z</time>
      </trkpt>
      <trkpt lat="44.50986" lon="4.28327">
        <ele>213</ele>
        <time>2016-05-15T06:24:11.000Z</time>
      </trkpt>
      <trkpt lat="44.50984" lon="4.28324">
        <ele>213</ele>
        <time>2016-05-15T06:24:12.000Z</time>
      </trkpt>
      <trkpt lat="44.50983" lon="4.28321">
        <ele>213</ele>
        <time>2016-05-15T06:24:13.000Z</time>
      </trkpt>
      <trkpt lat="44.50981" lon="4.28319">
        <ele>213</ele>
        <time>2016-05-15T06:24:14.000Z</time>
      </trkpt>
      <trkpt lat="44.5098" lon="4.28316">
        <ele>213</ele>
        <time>2016-05-15T06:24:15.000Z</time>
      </trkpt>
      <trkpt lat="44.50978" lon="4.28313">
        <ele>214</ele>
        <time>2016-05-15T06:24:16.000Z</time>
      </trkpt>
      <trkpt lat="44.50977" lon="4.2831">
        <ele>214</ele>
        <time>2016-05-15T06:24:17.000Z</time>
      </trkpt>
      <trkpt lat="44.50975" lon="4.28308">
        <ele>214</ele>
        <time>2016-05-15T06:24:18.000Z</time>
      </trkpt>
      <trkpt lat="44.50973" lon="4.28306">
        <ele>214</ele>
        <time>2016-05-15T06:24:19.000Z</time>
      </trkpt>
      <trkpt lat="44.50972" lon="4.28303">
        <ele>214</ele>
        <time>2016-05-15T06:24:20.000Z</time>
      </trkpt>
      <trkpt lat="44.5097" lon="4.28301">
        <ele>214</ele>
        <time>2016-05-15T06:24:21.000Z</time>
      </trkpt>
      <trkpt lat="44.50969" lon="4.28298">
        <ele>214</ele>
        <time>2016-05-15T06:24:22.000Z</time>
      </trkpt>
      <trkpt lat="44.50967" lon="4.28296">
        <ele>214</ele>
        <time>2016-05-15T06:24:23.000Z</time>
      </trkpt>
      <trkpt lat="44.50966" lon="4.28293">
        <ele>214</ele>
        <time>2016-05-15T06:24:24.000Z</time>
      </trkpt>
      <trkpt lat="44.50965" lon="4.28291">
        <ele>214</ele>
        <time>2016-05-15T06:24:25.000Z</time>
      </trkpt>
      <trkpt lat="44.50964" lon="4.28288">
        <ele>214</ele>
        <time>2016-05-15T06:24:26.000Z</time>
      </trkpt>
      <trkpt lat="44.50962" lon="4.28285">
        <ele>214</ele>
        <time>2016-05-15T06:24:27.000Z</time>
      </trkpt>
      <trkpt lat="44.50961" lon="4.28282">
        <ele>214</ele>
        <time>2016-05-15T06:24:28.000Z</time>
      </trkpt>
      <trkpt lat="44.5096" lon="4.28279">
        <ele>214</ele>
        <time>2016-05-15T06:24:29.000Z</time>
      </trkpt>
      <trkpt lat="44.5096" lon="4.28276">
        <ele>214</ele>
        <time>2016-05-15T06:24:30.000Z</time>
      </trkpt>
      <trkpt lat="44.50959" lon="4.28273">
        <ele>214</ele>
        <time>2016-05-15T06:24:31.000Z</time>
      </trkpt>
      <trkpt lat="44.50958" lon="4.2827">
        <ele>215</ele>
        <time>2016-05-15T06:24:32.000Z</time>
      </trkpt>
      <trkpt lat="44.50957" lon="4.28268">
        <ele>215</ele>
        <time>2016-05-15T06:24:33.000Z</time>
      </trkpt>
      <trkpt lat="44.50957" lon="4.28265">
        <ele>215</ele>
        <time>2016-05-15T06:24:34.000Z</time>
      </trkpt>
      <trkpt lat="44.50957" lon="4.28261">
        <ele>215</ele>
        <time>2016-05-15T06:24:35.000Z</time>
      </trkpt>
      <trkpt lat="44.50957" lon="4.28259">
        <ele>215</ele>
        <time>2016-05-15T06:24:36.000Z</time>
      </trkpt>
      <trkpt lat="44.50958" lon="4.28256">
        <ele>215</ele>
        <time>2016-05-15T06:24:37.000Z</time>
      </trkpt>
      <trkpt lat="44.50959" lon="4.28254">
        <ele>215</ele>
        <time>2016-05-15T06:24:38.000Z</time>
      </trkpt>
      <trkpt lat="44.5096" lon="4.28251">
        <ele>215</ele>
        <time>2016-05-15T06:24:39.000Z</time>
      </trkpt>
      <trkpt lat="44.5096" lon="4.28249">
        <ele>219</ele>
        <time>2016-05-15T06:24:40.000Z</time>
      </trkpt>
      <trkpt lat="44.5096" lon="4.28246">
        <ele>219</ele>
        <time>2016-05-15T06:24:41.000Z</time>
      </trkpt>
      <trkpt lat="44.50961" lon="4.28245">
        <ele>220</ele>
        <time>2016-05-15T06:24:42.000Z</time>
      </trkpt>
      <trkpt lat="44.50963" lon="4.28243">
        <ele>220</ele>
        <time>2016-05-15T06:24:43.000Z</time>
      </trkpt>
      <trkpt lat="44.50965" lon="4.28242">
        <ele>220</ele>
        <time>2016-05-15T06:24:44.000Z</time>
      </trkpt>
      <trkpt lat="44.50966" lon="4.28241">
        <ele>220</ele>
        <time>2016-05-15T06:24:45.000Z</time>
      </trkpt>
      <trkpt lat="44.50968" lon="4.28239">
        <ele>220</ele>
        <time>2016-05-15T06:24:46.000Z</time>
      </trkpt>
      <trkpt lat="44.50969" lon="4.28238">
        <ele>220</ele>
        <time>2016-05-15T06:24:47.000Z</time>
      </trkpt>
      <trkpt lat="44.50971" lon="4.28236">
        <ele>220</ele>
        <time>2016-05-15T06:24:48.000Z</time>
      </trkpt>
      <trkpt lat="44.50972" lon="4.28233">
        <ele>220</ele>
        <time>2016-05-15T06:24:49.000Z</time>
      </trkpt>
      <trkpt lat="44.50974" lon="4.28231">
        <ele>220</ele>
        <time>2016-05-15T06:24:50.000Z</time>
      </trkpt>
      <trkpt lat="44.50975" lon="4.2823">
        <ele>220</ele>
        <time>2016-05-15T06:24:51.000Z</time>
      </trkpt>
      <trkpt lat="44.50977" lon="4.28228">
        <ele>221</ele>
        <time>2016-05-15T06:24:52.000Z</time>
      </trkpt>
      <trkpt lat="44.50978" lon="4.28227">
        <ele>221</ele>
        <time>2016-05-15T06:24:53.000Z</time>
      </trkpt>
      <trkpt lat="44.50979" lon="4.28224">
        <ele>221</ele>
        <time>2016-05-15T06:24:54.000Z</time>
      </trkpt>
      <trkpt lat="44.5098" lon="4.28222">
        <ele>221</ele>
        <time>2016-05-15T06:24:55.000Z</time>
      </trkpt>
      <trkpt lat="44.50981" lon="4.28219">
        <ele>221</ele>
        <time>2016-05-15T06:24:56.000Z</time>
      </trkpt>
      <trkpt lat="44.50983" lon="4.28217">
        <ele>221</ele>
        <time>2016-05-15T06:24:57.000Z</time>
      </trkpt>
      <trkpt lat="44.50984" lon="4.28214">
        <ele>221</ele>
        <time>2016-05-15T06:24:58.000Z</time>
      </trkpt>
      <trkpt lat="44.50985" lon="4.28212">
        <ele>221</ele>
        <time>2016-05-15T06:24:59.000Z</time>
      </trkpt>
      <trkpt lat="44.50986" lon="4.2821">
        <ele>222</ele>
        <time>2016-05-15T06:25:00.000Z</time>
      </trkpt>
      <trkpt lat="44.50987" lon="4.28208">
        <ele>222</ele>
        <time>2016-05-15T06:25:01.000Z</time>
      </trkpt>
      <trkpt lat="44.50988" lon="4.28206">
        <ele>222</ele>
        <time>2016-05-15T06:25:02.000Z</time>
      </trkpt>
      <trkpt lat="44.50989" lon="4.28203">
        <ele>222</ele>
        <time>2016-05-15T06:25:03.000Z</time>
      </trkpt>
      <trkpt lat="44.5099" lon="4.28201">
        <ele>222</ele>
        <time>2016-05-15T06:25:04.000Z</time>
      </trkpt>
      <trkpt lat="44.5099" lon="4.28198">
        <ele>223</ele>
        <time>2016-05-15T06:25:05.000Z</time>
      </trkpt>
      <trkpt lat="44.50991" lon="4.28196">
        <ele>223</ele>
        <time>2016-05-15T06:25:06.000Z</time>
      </trkpt>
      <trkpt lat="44.50992" lon="4.28193">
        <ele>223</ele>
        <time>2016-05-15T06:25:07.000Z</time>
      </trkpt>
      <trkpt lat="44.50993" lon="4.28191">
        <ele>223</ele>
        <time>2016-05-15T06:25:08.000Z</time>
      </trkpt>
      <trkpt lat="44.50995" lon="4.28189">
        <ele>224</ele>
        <time>2016-05-15T06:25:09.000Z</time>
      </trkpt>
      <trkpt lat="44.50996" lon="4.28187">
        <ele>224</ele>
        <time>2016-05-15T06:25:10.000Z</time>
      </trkpt>
      <trkpt lat="44.50998" lon="4.28185">
        <ele>224</ele>
        <time>2016-05-15T06:25:11.000Z</time>
      </trkpt>
      <trkpt lat="44.50999" lon="4.28183">
        <ele>225</ele>
        <time>2016-05-15T06:25:12.000Z</time>
      </trkpt>
      <trkpt lat="44.51" lon="4.28181">
        <ele>225</ele>
        <time>2016-05-15T06:25:13.000Z</time>
      </trkpt>
      <trkpt lat="44.51002" lon="4.28179">
        <ele>227</ele>
        <time>2016-05-15T06:25:14.000Z</time>
      </trkpt>
      <trkpt lat="44.51003" lon="4.28176">
        <ele>227</ele>
        <time>2016-05-15T06:25:15.000Z</time>
      </trkpt>
      <trkpt lat="44.51004" lon="4.28173">
        <ele>227</ele>
        <time>2016-05-15T06:25:16.000Z</time>
      </trkpt>
      <trkpt lat="44.51005" lon="4.28171">
        <ele>227</ele>
        <time>2016-05-15T06:25:17.000Z</time>
      </trkpt>
      <trkpt lat="44.51005" lon="4.28171">
        <ele>227</ele>
        <time>2016-05-15T06:25:18.000Z</time>
      </trkpt>
      <trkpt lat="44.51005" lon="4.2817">
        <ele>227</ele>
        <time>2016-05-15T06:25:19.000Z</time>
      </trkpt>
      <trkpt lat="44.51005" lon="4.28169">
        <ele>227</ele>
        <time>2016-05-15T06:25:20.000Z</time>
      </trkpt>
      <trkpt lat="44.51004" lon="4.28169">
        <ele>227</ele>
        <time>2016-05-15T06:25:21.000Z</time>
      </trkpt>
      <trkpt lat="44.51004" lon="4.28168">
        <ele>228</ele>
        <time>2016-05-15T06:25:22.000Z</time>
      </trkpt>
      <trkpt lat="44.51003" lon="4.28168">
        <ele>228</ele>
        <time>2016-05-15T06:25:23.000Z</time>
      </trkpt>
      <trkpt lat="44.51002" lon="4.28167">
        <ele>228</ele>
        <time>2016-05-15T06:25:24.000Z</time>
      </trkpt>
      <trkpt lat="44.51001" lon="4.28166">
        <ele>228</ele>
        <time>2016-05-15T06:25:25.000Z</time>
      </trkpt>
      <trkpt lat="44.51" lon="4.28165">
        <ele>228</ele>
        <time>2016-05-15T06:25:26.000Z</time>
      </trkpt>
      <trkpt lat="44.50999" lon="4.28164">
        <ele>228</ele>
        <time>2016-05-15T06:25:27.000Z</time>
      </trkpt>
      <trkpt lat="44.50998" lon="4.28163">
        <ele>228</ele>
        <time>2016-05-15T06:25:28.000Z</time>
      </trkpt>
      <trkpt lat="44.50997" lon="4.28162">
        <ele>228</ele>
        <time>2016-05-15T06:25:29.000Z</time>
      </trkpt>
      <trkpt lat="44.50996" lon="4.28161">
        <ele>229</ele>
        <time>2016-05-15T06:25:30.000Z</time>
      </trkpt>
      <trkpt lat="44.50995" lon="4.28159">
        <ele>229</ele>
        <time>2016-05-15T06:25:31.000Z</time>
      </trkpt>
      <trkpt lat="44.50994" lon="4.28158">
        <ele>229</ele>
        <time>2016-05-15T06:25:32.000Z</time>
      </trkpt>
      <trkpt lat="44.50994" lon="4.28156">
        <ele>229</ele>
        <time>2016-05-15T06:25:33.000Z</time>
      </trkpt>
      <trkpt lat="44.50993" lon="4.28153">
        <ele>229</ele>
        <time>2016-05-15T06:25:34.000Z</time>
      </trkpt>
      <trkpt lat="44.50992" lon="4.2815">
        <ele>229</ele>
        <time>2016-05-15T06:25:35.000Z</time>
      </trkpt>
      <trkpt lat="44.50992" lon="4.28148">
        <ele>229</ele>
        <time>2016-05-15T06:25:36.000Z</time>
      </trkpt>
      <trkpt lat="44.50992" lon="4.28147">
        <ele>229</ele>
        <time>2016-05-15T06:25:37.000Z</time>
      </trkpt>
      <trkpt lat="44.50992" lon="4.28144">
        <ele>230</ele>
        <time>2016-05-15T06:25:38.000Z</time>
      </trkpt>
      <trkpt lat="44.50991" lon="4.28142">
        <ele>230</ele>
        <time>2016-05-15T06:25:39.000Z</time>
      </trkpt>
      <trkpt lat="44.50991" lon="4.2814">
        <ele>230</ele>
        <time>2016-05-15T06:25:40.000Z</time>
      </trkpt>
      <trkpt lat="44.50991" lon="4.28138">
        <ele>230</ele>
        <time>2016-05-15T06:25:41.000Z</time>
      </trkpt>
      <trkpt lat="44.50991" lon="4.28136">
        <ele>230</ele>
        <time>2016-05-15T06:25:42.000Z</time>
      </trkpt>
      <trkpt lat="44.50991" lon="4.28134">
        <ele>230</ele>
        <time>2016-05-15T06:25:43.000Z</time>
      </trkpt>
      <trkpt lat="44.5099" lon="4.28132">
        <ele>231</ele>
        <time>2016-05-15T06:25:44.000Z</time>
      </trkpt>
      <trkpt lat="44.50991" lon="4.2813">
        <ele>231</ele>
        <time>2016-05-15T06:25:45.000Z</time>
      </trkpt>
      <trkpt lat="44.50991" lon="4.28128">
        <ele>231</ele>
        <time>2016-05-15T06:25:46.000Z</time>
      </trkpt>
      <trkpt lat="44.50991" lon="4.28126">
        <ele>231</ele>
        <time>2016-05-15T06:25:47.000Z</time>
      </trkpt>
      <trkpt lat="44.50991" lon="4.28124">
        <ele>231</ele>
        <time>2016-05-15T06:25:48.000Z</time>
      </trkpt>
      <trkpt lat="44.50991" lon="4.28122">
        <ele>231</ele>
        <time>2016-05-15T06:25:49.000Z</time>
      </trkpt>
      <trkpt lat="44.5099" lon="4.2812">
        <ele>232</ele>
        <time>2016-05-15T06:25:50.000Z</time>
      </trkpt>
      <trkpt lat="44.5099" lon="4.28118">
        <ele>232</ele>
        <time>2016-05-15T06:25:51.000Z</time>
      </trkpt>
      <trkpt lat="44.50991" lon="4.28117">
        <ele>232</ele>
        <time>2016-05-15T06:25:52.000Z</time>
      </trkpt>
      <trkpt lat="44.50992" lon="4.28116">
        <ele>232</ele>
        <time>2016-05-15T06:25:53.000Z</time>
      </trkpt>
      <trkpt lat="44.50993" lon="4.28113">
        <ele>232</ele>
        <time>2016-05-15T06:25:54.000Z</time>
      </trkpt>
      <trkpt lat="44.50994" lon="4.28112">
        <ele>233</ele>
        <time>2016-05-15T06:25:55.000Z</time>
      </trkpt>
      <trkpt lat="44.50994" lon="4.28111">
        <ele>233</ele>
        <time>2016-05-15T06:25:56.000Z</time>
      </trkpt>
      <trkpt lat="44.50996" lon="4.2811">
        <ele>233</ele>
        <time>2016-05-15T06:25:57.000Z</time>
      </trkpt>
      <trkpt lat="44.50997" lon="4.28108">
        <ele>233</ele>
        <time>2016-05-15T06:25:58.000Z</time>
      </trkpt>
      <trkpt lat="44.50998" lon="4.28107">
        <ele>233</ele>
        <time>2016-05-15T06:25:59.000Z</time>
      </trkpt>
      <trkpt lat="44.50999" lon="4.28106">
        <ele>234</ele>
        <time>2016-05-15T06:26:00.000Z</time>
      </trkpt>
      <trkpt lat="44.51" lon="4.28105">
        <ele>236</ele>
        <time>2016-05-15T06:26:01.000Z</time>
      </trkpt>
      <trkpt lat="44.51001" lon="4.28103">
        <ele>236</ele>
        <time>2016-05-15T06:26:02.000Z</time>
      </trkpt>
      <trkpt lat="44.51002" lon="4.28102">
        <ele>236</ele>
        <time>2016-05-15T06:26:03.000Z</time>
      </trkpt>
      <trkpt lat="44.51003" lon="4.28101">
        <ele>236</ele>
        <time>2016-05-15T06:26:04.000Z</time>
      </trkpt>
      <trkpt lat="44.51004" lon="4.281">
        <ele>236</ele>
        <time>2016-05-15T06:26:05.000Z</time>
      </trkpt>
      <trkpt lat="44.51005" lon="4.281">
        <ele>236</ele>
        <time>2016-05-15T06:26:06.000Z</time>
      </trkpt>
      <trkpt lat="44.51007" lon="4.28098">
        <ele>237</ele>
        <time>2016-05-15T06:26:07.000Z</time>
      </trkpt>
      <trkpt lat="44.51008" lon="4.28096">
        <ele>237</ele>
        <time>2016-05-15T06:26:08.000Z</time>
      </trkpt>
      <trkpt lat="44.51009" lon="4.28095">
        <ele>237</ele>
        <time>2016-05-15T06:26:09.000Z</time>
      </trkpt>
      <trkpt lat="44.5101" lon="4.28094">
        <ele>237</ele>
        <time>2016-05-15T06:26:10.000Z</time>
      </trkpt>
      <trkpt lat="44.51011" lon="4.28093">
        <ele>237</ele>
        <time>2016-05-15T06:26:11.000Z</time>
      </trkpt>
      <trkpt lat="44.51012" lon="4.28092">
        <ele>237</ele>
        <time>2016-05-15T06:26:12.000Z</time>
      </trkpt>
      <trkpt lat="44.51013" lon="4.28091">
        <ele>237</ele>
        <time>2016-05-15T06:26:13.000Z</time>
      </trkpt>
      <trkpt lat="44.51015" lon="4.28091">
        <ele>237</ele>
        <time>2016-05-15T06:26:14.000Z</time>
      </trkpt>
      <trkpt lat="44.51016" lon="4.2809">
        <ele>237</ele>
        <time>2016-05-15T06:26:15.000Z</time>
      </trkpt>
      <trkpt lat="44.51018" lon="4.28089">
        <ele>237</ele>
        <time>2016-05-15T06:26:16.000Z</time>
      </trkpt>
      <trkpt lat="44.51019" lon="4.28088">
        <ele>237</ele>
        <time>2016-05-15T06:26:17.000Z</time>
      </trkpt>
      <trkpt lat="44.5102" lon="4.28087">
        <ele>237</ele>
        <time>2016-05-15T06:26:18.000Z</time>
      </trkpt>
      <trkpt lat="44.51021" lon="4.28085">
        <ele>237</ele>
        <time>2016-05-15T06:26:19.000Z</time>
      </trkpt>
      <trkpt lat="44.51022" lon="4.28083">
        <ele>241</ele>
        <time>2016-05-15T06:26:20.000Z</time>
      </trkpt>
      <trkpt lat="44.51022" lon="4.28081">
        <ele>241</ele>
        <time>2016-05-15T06:26:21.000Z</time>
      </trkpt>
      <trkpt lat="44.51022" lon="4.28079">
        <ele>241</ele>
        <time>2016-05-15T06:26:22.000Z</time>
      </trkpt>
      <trkpt lat="44.51022" lon="4.28077">
        <ele>241</ele>
        <time>2016-05-15T06:26:23.000Z</time>
      </trkpt>
      <trkpt lat="44.51022" lon="4.28075">
        <ele>241</ele>
        <time>2016-05-15T06:26:24.000Z</time>
      </trkpt>
      <trkpt lat="44.51022" lon="4.28072">
        <ele>241</ele>
        <time>2016-05-15T06:26:25.000Z</time>
      </trkpt>
      <trkpt lat="44.51022" lon="4.2807">
        <ele>241</ele>
        <time>2016-05-15T06:26:26.000Z</time>
      </trkpt>
      <trkpt lat="44.51022" lon="4.28068">
        <ele>242</ele>
        <time>2016-05-15T06:26:27.000Z</time>
      </trkpt>
      <trkpt lat="44.51022" lon="4.28066">
        <ele>242</ele>
        <time>2016-05-15T06:26:28.000Z</time>
      </trkpt>
      <trkpt lat="44.51022" lon="4.28064">
        <ele>242</ele>
        <time>2016-05-15T06:26:29.000Z</time>
      </trkpt>
      <trkpt lat="44.51021" lon="4.28062">
        <ele>242</ele>
        <time>2016-05-15T06:26:30.000Z</time>
      </trkpt>
      <trkpt lat="44.51021" lon="4.28061">
        <ele>242</ele>
        <time>2016-05-15T06:26:31.000Z</time>
      </trkpt>
      <trkpt lat="44.51021" lon="4.28059">
        <ele>242</ele>
        <time>2016-05-15T06:26:32.000Z</time>
      </trkpt>
      <trkpt lat="44.5102" lon="4.28058">
        <ele>242</ele>
        <time>2016-05-15T06:26:33.000Z</time>
      </trkpt>
      <trkpt lat="44.51019" lon="4.28056">
        <ele>242</ele>
        <time>2016-05-15T06:26:34.000Z</time>
      </trkpt>
      <trkpt lat="44.51018" lon="4.28054">
        <ele>242</ele>
        <time>2016-05-15T06:26:35.000Z</time>
      </trkpt>
      <trkpt lat="44.51017" lon="4.28052">
        <ele>242</ele>
        <time>2016-05-15T06:26:36.000Z</time>
      </trkpt>
      <trkpt lat="44.51015" lon="4.2805">
        <ele>243</ele>
        <time>2016-05-15T06:26:37.000Z</time>
      </trkpt>
      <trkpt lat="44.51014" lon="4.28048">
        <ele>243</ele>
        <time>2016-05-15T06:26:38.000Z</time>
      </trkpt>
      <trkpt lat="44.51013" lon="4.28047">
        <ele>243</ele>
        <time>2016-05-15T06:26:39.000Z</time>
      </trkpt>
      <trkpt lat="44.51012" lon="4.28045">
        <ele>243</ele>
        <time>2016-05-15T06:26:40.000Z</time>
      </trkpt>
      <trkpt lat="44.51012" lon="4.28043">
        <ele>243</ele>
        <time>2016-05-15T06:26:41.000Z</time>
      </trkpt>
      <trkpt lat="44.51011" lon="4.28042">
        <ele>243</ele>
        <time>2016-05-15T06:26:42.000Z</time>
      </trkpt>
      <trkpt lat="44.5101" lon="4.2804">
        <ele>243</ele>
        <time>2016-05-15T06:26:43.000Z</time>
      </trkpt>
      <trkpt lat="44.51009" lon="4.28037">
        <ele>244</ele>
        <time>2016-05-15T06:26:44.000Z</time>
      </trkpt>
      <trkpt lat="44.51008" lon="4.28036">
        <ele>244</ele>
        <time>2016-05-15T06:26:45.000Z</time>
      </trkpt>
      <trkpt lat="44.51007" lon="4.28035">
        <ele>244</ele>
        <time>2016-05-15T06:26:46.000Z</time>
      </trkpt>
      <trkpt lat="44.51007" lon="4.28033">
        <ele>244</ele>
        <time>2016-05-15T06:26:47.000Z</time>
      </trkpt>
      <trkpt lat="44.51006" lon="4.28031">
        <ele>244</ele>
        <time>2016-05-15T06:26:48.000Z</time>
      </trkpt>
      <trkpt lat="44.51006" lon="4.28029">
        <ele>244</ele>
        <time>2016-05-15T06:26:49.000Z</time>
      </trkpt>
      <trkpt lat="44.51006" lon="4.28028">
        <ele>244</ele>
        <time>2016-05-15T06:26:50.000Z</time>
      </trkpt>
      <trkpt lat="44.51006" lon="4.28026">
        <ele>244</ele>
        <time>2016-05-15T06:26:51.000Z</time>
      </trkpt>
      <trkpt lat="44.51006" lon="4.28024">
        <ele>245</ele>
        <time>2016-05-15T06:26:52.000Z</time>
      </trkpt>
      <trkpt lat="44.51006" lon="4.28022">
        <ele>245</ele>
        <time>2016-05-15T06:26:53.000Z</time>
      </trkpt>
      <trkpt lat="44.51005" lon="4.2802">
        <ele>245</ele>
        <time>2016-05-15T06:26:54.000Z</time>
      </trkpt>
      <trkpt lat="44.51005" lon="4.28019">
        <ele>245</ele>
        <time>2016-05-15T06:26:55.000Z</time>
      </trkpt>
      <trkpt lat="44.51005" lon="4.28018">
        <ele>245</ele>
        <time>2016-05-15T06:26:56.000Z</time>
      </trkpt>
      <trkpt lat="44.51004" lon="4.28016">
        <ele>245</ele>
        <time>2016-05-15T06:26:57.000Z</time>
      </trkpt>
      <trkpt lat="44.51003" lon="4.28015">
        <ele>246</ele>
        <time>2016-05-15T06:26:58.000Z</time>
      </trkpt>
      <trkpt lat="44.51002" lon="4.28015">
        <ele>246</ele>
        <time>2016-05-15T06:26:59.000Z</time>
      </trkpt>
      <trkpt lat="44.51002" lon="4.28013">
        <ele>246</ele>
        <time>2016-05-15T06:27:00.000Z</time>
      </trkpt>
      <trkpt lat="44.51001" lon="4.28012">
        <ele>246</ele>
        <time>2016-05-15T06:27:01.000Z</time>
      </trkpt>
      <trkpt lat="44.51001" lon="4.28011">
        <ele>246</ele>
        <time>2016-05-15T06:27:02.000Z</time>
      </trkpt>
      <trkpt lat="44.51001" lon="4.28009">
        <ele>247</ele>
        <time>2016-05-15T06:27:03.000Z</time>
      </trkpt>
      <trkpt lat="44.51001" lon="4.28007">
        <ele>247</ele>
        <time>2016-05-15T06:27:04.000Z</time>
      </trkpt>
      <trkpt lat="44.51001" lon="4.28005">
        <ele>247</ele>
        <time>2016-05-15T06:27:05.000Z</time>
      </trkpt>
      <trkpt lat="44.51" lon="4.28003">
        <ele>248</ele>
        <time>2016-05-15T06:27:06.000Z</time>
      </trkpt>
      <trkpt lat="44.51" lon="4.28001">
        <ele>248</ele>
        <time>2016-05-15T06:27:07.000Z</time>
      </trkpt>
      <trkpt lat="44.51" lon="4.27998">
        <ele>248</ele>
        <time>2016-05-15T06:27:08.000Z</time>
      </trkpt>
      <trkpt lat="44.51" lon="4.27995">
        <ele>248</ele>
        <time>2016-05-15T06:27:09.000Z</time>
      </trkpt>
      <trkpt lat="44.51" lon="4.27993">
        <ele>248</ele>
        <time>2016-05-15T06:27:10.000Z</time>
      </trkpt>
      <trkpt lat="44.51" lon="4.2799">
        <ele>248</ele>
        <time>2016-05-15T06:27:11.000Z</time>
      </trkpt>
      <trkpt lat="44.50999" lon="4.27988">
        <ele>248</ele>
        <time>2016-05-15T06:27:12.000Z</time>
      </trkpt>
      <trkpt lat="44.50999" lon="4.27986">
        <ele>248</ele>
        <time>2016-05-15T06:27:13.000Z</time>
      </trkpt>
      <trkpt lat="44.50999" lon="4.27985">
        <ele>248</ele>
        <time>2016-05-15T06:27:14.000Z</time>
      </trkpt>
      <trkpt lat="44.50999" lon="4.27982">
        <ele>248</ele>
        <time>2016-05-15T06:27:15.000Z</time>
      </trkpt>
      <trkpt lat="44.50999" lon="4.27979">
        <ele>248</ele>
        <time>2016-05-15T06:27:16.000Z</time>
      </trkpt>
      <trkpt lat="44.50998" lon="4.27977">
        <ele>248</ele>
        <time>2016-05-15T06:27:17.000Z</time>
      </trkpt>
      <trkpt lat="44.50997" lon="4.27974">
        <ele>248</ele>
        <time>2016-05-15T06:27:18.000Z</time>
      </trkpt>
      <trkpt lat="44.50996" lon="4.27972">
        <ele>248</ele>
        <time>2016-05-15T06:27:19.000Z</time>
      </trkpt>
      <trkpt lat="44.50996" lon="4.2797">
        <ele>248</ele>
        <time>2016-05-15T06:27:20.000Z</time>
      </trkpt>
      <trkpt lat="44.50995" lon="4.27968">
        <ele>248</ele>
        <time>2016-05-15T06:27:21.000Z</time>
      </trkpt>
      <trkpt lat="44.50995" lon="4.27966">
        <ele>248</ele>
        <time>2016-05-15T06:27:22.000Z</time>
      </trkpt>
      <trkpt lat="44.50995" lon="4.27963">
        <ele>248</ele>
        <time>2016-05-15T06:27:23.000Z</time>
      </trkpt>
      <trkpt lat="44.50995" lon="4.27961">
        <ele>248</ele>
        <time>2016-05-15T06:27:24.000Z</time>
      </trkpt>
      <trkpt lat="44.50994" lon="4.27959">
        <ele>248</ele>
        <time>2016-05-15T06:27:25.000Z</time>
      </trkpt>
      <trkpt lat="44.50994" lon="4.27957">
        <ele>248</ele>
        <time>2016-05-15T06:27:26.000Z</time>
      </trkpt>
      <trkpt lat="44.50993" lon="4.27955">
        <ele>248</ele>
        <time>2016-05-15T06:27:27.000Z</time>
      </trkpt>
      <trkpt lat="44.50993" lon="4.27954">
        <ele>248</ele>
        <time>2016-05-15T06:27:28.000Z</time>
      </trkpt>
      <trkpt lat="44.50994" lon="4.27952">
        <ele>248</ele>
        <time>2016-05-15T06:27:29.000Z</time>
      </trkpt>
      <trkpt lat="44.50994" lon="4.2795">
        <ele>248</ele>
        <time>2016-05-15T06:27:30.000Z</time>
      </trkpt>
      <trkpt lat="44.50993" lon="4.27948">
        <ele>248</ele>
        <time>2016-05-15T06:27:31.000Z</time>
      </trkpt>
      <trkpt lat="44.50992" lon="4.27945">
        <ele>248</ele>
        <time>2016-05-15T06:27:32.000Z</time>
      </trkpt>
      <trkpt lat="44.50992" lon="4.27943">
        <ele>248</ele>
        <time>2016-05-15T06:27:33.000Z</time>
      </trkpt>
      <trkpt lat="44.50991" lon="4.27941">
        <ele>248</ele>
        <time>2016-05-15T06:27:34.000Z</time>
      </trkpt>
      <trkpt lat="44.5099" lon="4.27939">
        <ele>248</ele>
        <time>2016-05-15T06:27:35.000Z</time>
      </trkpt>
      <trkpt lat="44.5099" lon="4.27937">
        <ele>248</ele>
        <time>2016-05-15T06:27:36.000Z</time>
      </trkpt>
      <trkpt lat="44.50989" lon="4.27935">
        <ele>248</ele>
        <time>2016-05-15T06:27:37.000Z</time>
      </trkpt>
      <trkpt lat="44.50988" lon="4.27933">
        <ele>248</ele>
        <time>2016-05-15T06:27:38.000Z</time>
      </trkpt>
      <trkpt lat="44.50988" lon="4.27931">
        <ele>248</ele>
        <time>2016-05-15T06:27:39.000Z</time>
      </trkpt>
      <trkpt lat="44.50987" lon="4.27929">
        <ele>248</ele>
        <time>2016-05-15T06:27:40.000Z</time>
      </trkpt>
      <trkpt lat="44.50986" lon="4.27927">
        <ele>248</ele>
        <time>2016-05-15T06:27:41.000Z</time>
      </trkpt>
      <trkpt lat="44.50984" lon="4.27925">
        <ele>248</ele>
        <time>2016-05-15T06:27:42.000Z</time>
      </trkpt>
      <trkpt lat="44.50983" lon="4.27922">
        <ele>248</ele>
        <time>2016-05-15T06:27:43.000Z</time>
      </trkpt>
      <trkpt lat="44.50982" lon="4.27921">
        <ele>248</ele>
        <time>2016-05-15T06:27:44.000Z</time>
      </trkpt>
      <trkpt lat="44.50981" lon="4.27919">
        <ele>248</ele>
        <time>2016-05-15T06:27:45.000Z</time>
      </trkpt>
      <trkpt lat="44.50979" lon="4.27917">
        <ele>248</ele>
        <time>2016-05-15T06:27:46.000Z</time>
      </trkpt>
      <trkpt lat="44.50978" lon="4.27915">
        <ele>248</ele>
        <time>2016-05-15T06:27:47.000Z</time>
      </trkpt>
      <trkpt lat="44.50976" lon="4.27914">
        <ele>248</ele>
        <time>2016-05-15T06:27:48.000Z</time>
      </trkpt>
      <trkpt lat="44.50974" lon="4.27912">
        <ele>248</ele>
        <time>2016-05-15T06:27:49.000Z</time>
      </trkpt>
      <trkpt lat="44.50973" lon="4.2791">
        <ele>248</ele>
        <time>2016-05-15T06:27:50.000Z</time>
      </trkpt>
      <trkpt lat="44.50971" lon="4.27908">
        <ele>248</ele>
        <time>2016-05-15T06:27:51.000Z</time>
      </trkpt>
      <trkpt lat="44.5097" lon="4.27906">
        <ele>249</ele>
        <time>2016-05-15T06:27:52.000Z</time>
      </trkpt>
      <trkpt lat="44.50968" lon="4.27904">
        <ele>249</ele>
        <time>2016-05-15T06:27:53.000Z</time>
      </trkpt>
      <trkpt lat="44.50967" lon="4.27902">
        <ele>249</ele>
        <time>2016-05-15T06:27:54.000Z</time>
      </trkpt>
      <trkpt lat="44.50966" lon="4.27899">
        <ele>249</ele>
        <time>2016-05-15T06:27:55.000Z</time>
      </trkpt>
      <trkpt lat="44.50965" lon="4.27897">
        <ele>249</ele>
        <time>2016-05-15T06:27:56.000Z</time>
      </trkpt>
      <trkpt lat="44.50963" lon="4.27895">
        <ele>249</ele>
        <time>2016-05-15T06:27:57.000Z</time>
      </trkpt>
      <trkpt lat="44.50961" lon="4.27892">
        <ele>249</ele>
        <time>2016-05-15T06:27:58.000Z</time>
      </trkpt>
      <trkpt lat="44.5096" lon="4.27888">
        <ele>249</ele>
        <time>2016-05-15T06:27:59.000Z</time>
      </trkpt>
      <trkpt lat="44.50958" lon="4.27885">
        <ele>249</ele>
        <time>2016-05-15T06:28:00.000Z</time>
      </trkpt>
      <trkpt lat="44.50957" lon="4.27882">
        <ele>249</ele>
        <time>2016-05-15T06:28:01.000Z</time>
      </trkpt>
      <trkpt lat="44.50955" lon="4.27879">
        <ele>249</ele>
        <time>2016-05-15T06:28:02.000Z</time>
      </trkpt>
      <trkpt lat="44.50954" lon="4.27876">
        <ele>249</ele>
        <time>2016-05-15T06:28:03.000Z</time>
      </trkpt>
      <trkpt lat="44.50953" lon="4.27874">
        <ele>249</ele>
        <time>2016-05-15T06:28:04.000Z</time>
      </trkpt>
      <trkpt lat="44.50952" lon="4.27871">
        <ele>249</ele>
        <time>2016-05-15T06:28:05.000Z</time>
      </trkpt>
      <trkpt lat="44.50951" lon="4.27869">
        <ele>249</ele>
        <time>2016-05-15T06:28:06.000Z</time>
      </trkpt>
      <trkpt lat="44.5095" lon="4.27866">
        <ele>249</ele>
        <time>2016-05-15T06:28:07.000Z</time>
      </trkpt>
      <trkpt lat="44.50949" lon="4.27864">
        <ele>249</ele>
        <time>2016-05-15T06:28:08.000Z</time>
      </trkpt>
      <trkpt lat="44.50948" lon="4.27861">
        <ele>249</ele>
        <time>2016-05-15T06:28:09.000Z</time>
      </trkpt>
      <trkpt lat="44.50947" lon="4.27858">
        <ele>249</ele>
        <time>2016-05-15T06:28:10.000Z</time>
      </trkpt>
      <trkpt lat="44.50945" lon="4.27855">
        <ele>249</ele>
        <time>2016-05-15T06:28:11.000Z</time>
      </trkpt>
      <trkpt lat="44.50944" lon="4.27852">
        <ele>249</ele>
        <time>2016-05-15T06:28:12.000Z</time>
      </trkpt>
      <trkpt lat="44.50943" lon="4.27849">
        <ele>249</ele>
        <time>2016-05-15T06:28:13.000Z</time>
      </trkpt>
      <trkpt lat="44.50942" lon="4.27846">
        <ele>249</ele>
        <time>2016-05-15T06:28:14.000Z</time>
      </trkpt>
      <trkpt lat="44.5094" lon="4.27843">
        <ele>249</ele>
        <time>2016-05-15T06:28:15.000Z</time>
      </trkpt>
      <trkpt lat="44.50939" lon="4.2784">
        <ele>249</ele>
        <time>2016-05-15T06:28:16.000Z</time>
      </trkpt>
      <trkpt lat="44.50938" lon="4.27838">
        <ele>249</ele>
        <time>2016-05-15T06:28:17.000Z</time>
      </trkpt>
      <trkpt lat="44.50936" lon="4.27835">
        <ele>249</ele>
        <time>2016-05-15T06:28:18.000Z</time>
      </trkpt>
      <trkpt lat="44.50934" lon="4.27833">
        <ele>249</ele>
        <time>2016-05-15T06:28:19.000Z</time>
      </trkpt>
      <trkpt lat="44.50933" lon="4.2783">
        <ele>249</ele>
        <time>2016-05-15T06:28:20.000Z</time>
      </trkpt>
      <trkpt lat="44.50931" lon="4.27827">
        <ele>249</ele>
        <time>2016-05-15T06:28:21.000Z</time>
      </trkpt>
      <trkpt lat="44.50929" lon="4.27825">
        <ele>249</ele>
        <time>2016-05-15T06:28:22.000Z</time>
      </trkpt>
      <trkpt lat="44.50928" lon="4.27822">
        <ele>249</ele>
        <time>2016-05-15T06:28:23.000Z</time>
      </trkpt>
      <trkpt lat="44.50926" lon="4.2782">
        <ele>249</ele>
        <time>2016-05-15T06:28:24.000Z</time>
      </trkpt>
      <trkpt lat="44.50925" lon="4.27817">
        <ele>249</ele>
        <time>2016-05-15T06:28:25.000Z</time>
      </trkpt>
      <trkpt lat="44.50924" lon="4.27815">
        <ele>249</ele>
        <time>2016-05-15T06:28:26.000Z</time>
      </trkpt>
      <trkpt lat="44.50923" lon="4.27813">
        <ele>249</ele>
        <time>2016-05-15T06:28:27.000Z</time>
      </trkpt>
      <trkpt lat="44.50922" lon="4.27811">
        <ele>249</ele>
        <time>2016-05-15T06:28:28.000Z</time>
      </trkpt>
      <trkpt lat="44.50921" lon="4.2781">
        <ele>249</ele>
        <time>2016-05-15T06:28:29.000Z</time>
      </trkpt>
      <trkpt lat="44.50921" lon="4.27808">
        <ele>249</ele>
        <time>2016-05-15T06:28:30.000Z</time>
      </trkpt>
      <trkpt lat="44.50921" lon="4.27806">
        <ele>249</ele>
        <time>2016-05-15T06:28:31.000Z</time>
      </trkpt>
      <trkpt lat="44.50921" lon="4.27804">
        <ele>249</ele>
        <time>2016-05-15T06:28:32.000Z</time>
      </trkpt>
      <trkpt lat="44.50921" lon="4.27802">
        <ele>249</ele>
        <time>2016-05-15T06:28:33.000Z</time>
      </trkpt>
      <trkpt lat="44.50922" lon="4.278">
        <ele>249</ele>
        <time>2016-05-15T06:28:34.000Z</time>
      </trkpt>
      <trkpt lat="44.50923" lon="4.27799">
        <ele>249</ele>
        <time>2016-05-15T06:28:35.000Z</time>
      </trkpt>
      <trkpt lat="44.50924" lon="4.27797">
        <ele>249</ele>
        <time>2016-05-15T06:28:36.000Z</time>
      </trkpt>
      <trkpt lat="44.50924" lon="4.27795">
        <ele>249</ele>
        <time>2016-05-15T06:28:37.000Z</time>
      </trkpt>
      <trkpt lat="44.50925" lon="4.27793">
        <ele>249</ele>
        <time>2016-05-15T06:28:38.000Z</time>
      </trkpt>
      <trkpt lat="44.50926" lon="4.27791">
        <ele>249</ele>
        <time>2016-05-15T06:28:39.000Z</time>
      </trkpt>
      <trkpt lat="44.50927" lon="4.27789">
        <ele>249</ele>
        <time>2016-05-15T06:28:40.000Z</time>
      </trkpt>
      <trkpt lat="44.50927" lon="4.27787">
        <ele>249</ele>
        <time>2016-05-15T06:28:41.000Z</time>
      </trkpt>
      <trkpt lat="44.50928" lon="4.27785">
        <ele>249</ele>
        <time>2016-05-15T06:28:42.000Z</time>
      </trkpt>
      <trkpt lat="44.50929" lon="4.27782">
        <ele>249</ele>
        <time>2016-05-15T06:28:43.000Z</time>
      </trkpt>
      <trkpt lat="44.5093" lon="4.2778">
        <ele>249</ele>
        <time>2016-05-15T06:28:44.000Z</time>
      </trkpt>
      <trkpt lat="44.50931" lon="4.27778">
        <ele>249</ele>
        <time>2016-05-15T06:28:45.000Z</time>
      </trkpt>
      <trkpt lat="44.50931" lon="4.27775">
        <ele>249</ele>
        <time>2016-05-15T06:28:46.000Z</time>
      </trkpt>
      <trkpt lat="44.50932" lon="4.27773">
        <ele>249</ele>
        <time>2016-05-15T06:28:47.000Z</time>
      </trkpt>
      <trkpt lat="44.50933" lon="4.2777">
        <ele>249</ele>
        <time>2016-05-15T06:28:48.000Z</time>
      </trkpt>
      <trkpt lat="44.50934" lon="4.27768">
        <ele>249</ele>
        <time>2016-05-15T06:28:49.000Z</time>
      </trkpt>
      <trkpt lat="44.50935" lon="4.27765">
        <ele>249</ele>
        <time>2016-05-15T06:28:50.000Z</time>
      </trkpt>
      <trkpt lat="44.50936" lon="4.27763">
        <ele>249</ele>
        <time>2016-05-15T06:28:51.000Z</time>
      </trkpt>
      <trkpt lat="44.50937" lon="4.2776">
        <ele>249</ele>
        <time>2016-05-15T06:28:52.000Z</time>
      </trkpt>
      <trkpt lat="44.50937" lon="4.27758">
        <ele>249</ele>
        <time>2016-05-15T06:28:53.000Z</time>
      </trkpt>
      <trkpt lat="44.50938" lon="4.27755">
        <ele>249</ele>
        <time>2016-05-15T06:28:54.000Z</time>
      </trkpt>
      <trkpt lat="44.50939" lon="4.27752">
        <ele>249</ele>
        <time>2016-05-15T06:28:55.000Z</time>
      </trkpt>
      <trkpt lat="44.50939" lon="4.2775">
        <ele>250</ele>
        <time>2016-05-15T06:28:56.000Z</time>
      </trkpt>
      <trkpt lat="44.5094" lon="4.27747">
        <ele>250</ele>
        <time>2016-05-15T06:28:57.000Z</time>
      </trkpt>
      <trkpt lat="44.50941" lon="4.27745">
        <ele>250</ele>
        <time>2016-05-15T06:28:58.000Z</time>
      </trkpt>
      <trkpt lat="44.50941" lon="4.27742">
        <ele>250</ele>
        <time>2016-05-15T06:28:59.000Z</time>
      </trkpt>
      <trkpt lat="44.50942" lon="4.2774">
        <ele>250</ele>
        <time>2016-05-15T06:29:00.000Z</time>
      </trkpt>
      <trkpt lat="44.50943" lon="4.27737">
        <ele>250</ele>
        <time>2016-05-15T06:29:01.000Z</time>
      </trkpt>
      <trkpt lat="44.50943" lon="4.27734">
        <ele>250</ele>
        <time>2016-05-15T06:29:02.000Z</time>
      </trkpt>
      <trkpt lat="44.50944" lon="4.27732">
        <ele>250</ele>
        <time>2016-05-15T06:29:03.000Z</time>
      </trkpt>
      <trkpt lat="44.50945" lon="4.27729">
        <ele>250</ele>
        <time>2016-05-15T06:29:04.000Z</time>
      </trkpt>
      <trkpt lat="44.50945" lon="4.27726">
        <ele>250</ele>
        <time>2016-05-15T06:29:05.000Z</time>
      </trkpt>
      <trkpt lat="44.50946" lon="4.27723">
        <ele>250</ele>
        <time>2016-05-15T06:29:06.000Z</time>
      </trkpt>
      <trkpt lat="44.50946" lon="4.2772">
        <ele>250</ele>
        <time>2016-05-15T06:29:07.000Z</time>
      </trkpt>
      <trkpt lat="44.50946" lon="4.27717">
        <ele>250</ele>
        <time>2016-05-15T06:29:08.000Z</time>
      </trkpt>
      <trkpt lat="44.50946" lon="4.27714">
        <ele>250</ele>
        <time>2016-05-15T06:29:09.000Z</time>
      </trkpt>
      <trkpt lat="44.50946" lon="4.27712">
        <ele>250</ele>
        <time>2016-05-15T06:29:10.000Z</time>
      </trkpt>
      <trkpt lat="44.50947" lon="4.27709">
        <ele>250</ele>
        <time>2016-05-15T06:29:11.000Z</time>
      </trkpt>
      <trkpt lat="44.50947" lon="4.27706">
        <ele>250</ele>
        <time>2016-05-15T06:29:12.000Z</time>
      </trkpt>
      <trkpt lat="44.50947" lon="4.27703">
        <ele>250</ele>
        <time>2016-05-15T06:29:13.000Z</time>
      </trkpt>
      <trkpt lat="44.50947" lon="4.27699">
        <ele>250</ele>
        <time>2016-05-15T06:29:14.000Z</time>
      </trkpt>
      <trkpt lat="44.50947" lon="4.27696">
        <ele>250</ele>
        <time>2016-05-15T06:29:15.000Z</time>
      </trkpt>
      <trkpt lat="44.50948" lon="4.27693">
        <ele>250</ele>
        <time>2016-05-15T06:29:16.000Z</time>
      </trkpt>
      <trkpt lat="44.50948" lon="4.2769">
        <ele>250</ele>
        <time>2016-05-15T06:29:17.000Z</time>
      </trkpt>
      <trkpt lat="44.50949" lon="4.27687">
        <ele>250</ele>
        <time>2016-05-15T06:29:18.000Z</time>
      </trkpt>
      <trkpt lat="44.50949" lon="4.27684">
        <ele>250</ele>
        <time>2016-05-15T06:29:19.000Z</time>
      </trkpt>
      <trkpt lat="44.5095" lon="4.27681">
        <ele>250</ele>
        <time>2016-05-15T06:29:20.000Z</time>
      </trkpt>
      <trkpt lat="44.50951" lon="4.27677">
        <ele>250</ele>
        <time>2016-05-15T06:29:21.000Z</time>
      </trkpt>
      <trkpt lat="44.50951" lon="4.27674">
        <ele>250</ele>
        <time>2016-05-15T06:29:22.000Z</time>
      </trkpt>
      <trkpt lat="44.50952" lon="4.27671">
        <ele>250</ele>
        <time>2016-05-15T06:29:23.000Z</time>
      </trkpt>
      <trkpt lat="44.50953" lon="4.27668">
        <ele>250</ele>
        <time>2016-05-15T06:29:24.000Z</time>
      </trkpt>
      <trkpt lat="44.50953" lon="4.27665">
        <ele>251</ele>
        <time>2016-05-15T06:29:25.000Z</time>
      </trkpt>
      <trkpt lat="44.50954" lon="4.27662">
        <ele>251</ele>
        <time>2016-05-15T06:29:26.000Z</time>
      </trkpt>
      <trkpt lat="44.50955" lon="4.27659">
        <ele>251</ele>
        <time>2016-05-15T06:29:27.000Z</time>
      </trkpt>
      <trkpt lat="44.50955" lon="4.27656">
        <ele>251</ele>
        <time>2016-05-15T06:29:28.000Z</time>
      </trkpt>
      <trkpt lat="44.50956" lon="4.27653">
        <ele>251</ele>
        <time>2016-05-15T06:29:29.000Z</time>
      </trkpt>
      <trkpt lat="44.50957" lon="4.2765">
        <ele>251</ele>
        <time>2016-05-15T06:29:30.000Z</time>
      </trkpt>
      <trkpt lat="44.50957" lon="4.27646">
        <ele>251</ele>
        <time>2016-05-15T06:29:31.000Z</time>
      </trkpt>
      <trkpt lat="44.50958" lon="4.27643">
        <ele>251</ele>
        <time>2016-05-15T06:29:32.000Z</time>
      </trkpt>
      <trkpt lat="44.50959" lon="4.2764">
        <ele>252</ele>
        <time>2016-05-15T06:29:33.000Z</time>
      </trkpt>
      <trkpt lat="44.5096" lon="4.27637">
        <ele>252</ele>
        <time>2016-05-15T06:29:34.000Z</time>
      </trkpt>
      <trkpt lat="44.50961" lon="4.27634">
        <ele>252</ele>
        <time>2016-05-15T06:29:35.000Z</time>
      </trkpt>
      <trkpt lat="44.50962" lon="4.27631">
        <ele>252</ele>
        <time>2016-05-15T06:29:36.000Z</time>
      </trkpt>
      <trkpt lat="44.50963" lon="4.27627">
        <ele>252</ele>
        <time>2016-05-15T06:29:37.000Z</time>
      </trkpt>
      <trkpt lat="44.50964" lon="4.27624">
        <ele>252</ele>
        <time>2016-05-15T06:29:38.000Z</time>
      </trkpt>
      <trkpt lat="44.50965" lon="4.27621">
        <ele>252</ele>
        <time>2016-05-15T06:29:39.000Z</time>
      </trkpt>
      <trkpt lat="44.50966" lon="4.27618">
        <ele>252</ele>
        <time>2016-05-15T06:29:40.000Z</time>
      </trkpt>
      <trkpt lat="44.50967" lon="4.27616">
        <ele>252</ele>
        <time>2016-05-15T06:29:41.000Z</time>
      </trkpt>
      <trkpt lat="44.50968" lon="4.27613">
        <ele>252</ele>
        <time>2016-05-15T06:29:42.000Z</time>
      </trkpt>
      <trkpt lat="44.50969" lon="4.2761">
        <ele>252</ele>
        <time>2016-05-15T06:29:43.000Z</time>
      </trkpt>
      <trkpt lat="44.5097" lon="4.27607">
        <ele>253</ele>
        <time>2016-05-15T06:29:44.000Z</time>
      </trkpt>
      <trkpt lat="44.50971" lon="4.27604">
        <ele>253</ele>
        <time>2016-05-15T06:29:45.000Z</time>
      </trkpt>
      <trkpt lat="44.50972" lon="4.27602">
        <ele>253</ele>
        <time>2016-05-15T06:29:46.000Z</time>
      </trkpt>
      <trkpt lat="44.50973" lon="4.27599">
        <ele>253</ele>
        <time>2016-05-15T06:29:47.000Z</time>
      </trkpt>
      <trkpt lat="44.50974" lon="4.27596">
        <ele>253</ele>
        <time>2016-05-15T06:29:48.000Z</time>
      </trkpt>
      <trkpt lat="44.50974" lon="4.27593">
        <ele>253</ele>
        <time>2016-05-15T06:29:49.000Z</time>
      </trkpt>
      <trkpt lat="44.50975" lon="4.2759">
        <ele>253</ele>
        <time>2016-05-15T06:29:50.000Z</time>
      </trkpt>
      <trkpt lat="44.50975" lon="4.27587">
        <ele>254</ele>
        <time>2016-05-15T06:29:51.000Z</time>
      </trkpt>
      <trkpt lat="44.50976" lon="4.27583">
        <ele>255</ele>
        <time>2016-05-15T06:29:52.000Z</time>
      </trkpt>
      <trkpt lat="44.50976" lon="4.2758">
        <ele>255</ele>
        <time>2016-05-15T06:29:53.000Z</time>
      </trkpt>
      <trkpt lat="44.50976" lon="4.27577">
        <ele>255</ele>
        <time>2016-05-15T06:29:54.000Z</time>
      </trkpt>
      <trkpt lat="44.50976" lon="4.27574">
        <ele>255</ele>
        <time>2016-05-15T06:29:55.000Z</time>
      </trkpt>
      <trkpt lat="44.50977" lon="4.27569">
        <ele>255</ele>
        <time>2016-05-15T06:29:56.000Z</time>
      </trkpt>
      <trkpt lat="44.50977" lon="4.27565">
        <ele>255</ele>
        <time>2016-05-15T06:29:57.000Z</time>
      </trkpt>
      <trkpt lat="44.50977" lon="4.27561">
        <ele>255</ele>
        <time>2016-05-15T06:29:58.000Z</time>
      </trkpt>
      <trkpt lat="44.50977" lon="4.27557">
        <ele>255</ele>
        <time>2016-05-15T06:29:59.000Z</time>
      </trkpt>
      <trkpt lat="44.50978" lon="4.27553">
        <ele>255</ele>
        <time>2016-05-15T06:30:00.000Z</time>
      </trkpt>
      <trkpt lat="44.50978" lon="4.27549">
        <ele>255</ele>
        <time>2016-05-15T06:30:01.000Z</time>
      </trkpt>
      <trkpt lat="44.50979" lon="4.27545">
        <ele>255</ele>
        <time>2016-05-15T06:30:02.000Z</time>
      </trkpt>
      <trkpt lat="44.50979" lon="4.27541">
        <ele>255</ele>
        <time>2016-05-15T06:30:03.000Z</time>
      </trkpt>
      <trkpt lat="44.5098" lon="4.27537">
        <ele>255</ele>
        <time>2016-05-15T06:30:04.000Z</time>
      </trkpt>
      <trkpt lat="44.5098" lon="4.27532">
        <ele>256</ele>
        <time>2016-05-15T06:30:05.000Z</time>
      </trkpt>
      <trkpt lat="44.5098" lon="4.27528">
        <ele>256</ele>
        <time>2016-05-15T06:30:06.000Z</time>
      </trkpt>
      <trkpt lat="44.50981" lon="4.27524">
        <ele>256</ele>
        <time>2016-05-15T06:30:07.000Z</time>
      </trkpt>
      <trkpt lat="44.50981" lon="4.2752">
        <ele>256</ele>
        <time>2016-05-15T06:30:08.000Z</time>
      </trkpt>
      <trkpt lat="44.50981" lon="4.27516">
        <ele>256</ele>
        <time>2016-05-15T06:30:09.000Z</time>
      </trkpt>
      <trkpt lat="44.50982" lon="4.27512">
        <ele>257</ele>
        <time>2016-05-15T06:30:10.000Z</time>
      </trkpt>
      <trkpt lat="44.50982" lon="4.27508">
        <ele>257</ele>
        <time>2016-05-15T06:30:11.000Z</time>
      </trkpt>
      <trkpt lat="44.50983" lon="4.27504">
        <ele>257</ele>
        <time>2016-05-15T06:30:12.000Z</time>
      </trkpt>
      <trkpt lat="44.50983" lon="4.27499">
        <ele>258</ele>
        <time>2016-05-15T06:30:13.000Z</time>
      </trkpt>
      <trkpt lat="44.50984" lon="4.27495">
        <ele>258</ele>
        <time>2016-05-15T06:30:14.000Z</time>
      </trkpt>
      <trkpt lat="44.50984" lon="4.27491">
        <ele>258</ele>
        <time>2016-05-15T06:30:15.000Z</time>
      </trkpt>
      <trkpt lat="44.50984" lon="4.27488">
        <ele>258</ele>
        <time>2016-05-15T06:30:16.000Z</time>
      </trkpt>
      <trkpt lat="44.50985" lon="4.27484">
        <ele>258</ele>
        <time>2016-05-15T06:30:17.000Z</time>
      </trkpt>
      <trkpt lat="44.50986" lon="4.2748">
        <ele>258</ele>
        <time>2016-05-15T06:30:18.000Z</time>
      </trkpt>
      <trkpt lat="44.50986" lon="4.27476">
        <ele>258</ele>
        <time>2016-05-15T06:30:19.000Z</time>
      </trkpt>
      <trkpt lat="44.50987" lon="4.27472">
        <ele>258</ele>
        <time>2016-05-15T06:30:20.000Z</time>
      </trkpt>
      <trkpt lat="44.50987" lon="4.27468">
        <ele>258</ele>
        <time>2016-05-15T06:30:21.000Z</time>
      </trkpt>
      <trkpt lat="44.50988" lon="4.27465">
        <ele>258</ele>
        <time>2016-05-15T06:30:22.000Z</time>
      </trkpt>
      <trkpt lat="44.50989" lon="4.27461">
        <ele>258</ele>
        <time>2016-05-15T06:30:23.000Z</time>
      </trkpt>
      <trkpt lat="44.5099" lon="4.27457">
        <ele>258</ele>
        <time>2016-05-15T06:30:24.000Z</time>
      </trkpt>
      <trkpt lat="44.50991" lon="4.27454">
        <ele>258</ele>
        <time>2016-05-15T06:30:25.000Z</time>
      </trkpt>
      <trkpt lat="44.50992" lon="4.2745">
        <ele>258</ele>
        <time>2016-05-15T06:30:26.000Z</time>
      </trkpt>
      <trkpt lat="44.50993" lon="4.27446">
        <ele>258</ele>
        <time>2016-05-15T06:30:27.000Z</time>
      </trkpt>
      <trkpt lat="44.50994" lon="4.27442">
        <ele>259</ele>
        <time>2016-05-15T06:30:28.000Z</time>
      </trkpt>
      <trkpt lat="44.50995" lon="4.27437">
        <ele>259</ele>
        <time>2016-05-15T06:30:29.000Z</time>
      </trkpt>
      <trkpt lat="44.50996" lon="4.27432">
        <ele>259</ele>
        <time>2016-05-15T06:30:30.000Z</time>
      </trkpt>
      <trkpt lat="44.50997" lon="4.27428">
        <ele>260</ele>
        <time>2016-05-15T06:30:31.000Z</time>
      </trkpt>
      <trkpt lat="44.50999" lon="4.27423">
        <ele>261</ele>
        <time>2016-05-15T06:30:32.000Z</time>
      </trkpt>
      <trkpt lat="44.51" lon="4.27419">
        <ele>262</ele>
        <time>2016-05-15T06:30:33.000Z</time>
      </trkpt>
      <trkpt lat="44.51001" lon="4.27414">
        <ele>262</ele>
        <time>2016-05-15T06:30:34.000Z</time>
      </trkpt>
      <trkpt lat="44.51003" lon="4.27409">
        <ele>263</ele>
        <time>2016-05-15T06:30:35.000Z</time>
      </trkpt>
      <trkpt lat="44.51004" lon="4.27405">
        <ele>263</ele>
        <time>2016-05-15T06:30:36.000Z</time>
      </trkpt>
      <trkpt lat="44.51006" lon="4.274">
        <ele>263</ele>
        <time>2016-05-15T06:30:37.000Z</time>
      </trkpt>
      <trkpt lat="44.51007" lon="4.27396">
        <ele>263</ele>
        <time>2016-05-15T06:30:38.000Z</time>
      </trkpt>
      <trkpt lat="44.51009" lon="4.27392">
        <ele>263</ele>
        <time>2016-05-15T06:30:39.000Z</time>
      </trkpt>
      <trkpt lat="44.51011" lon="4.27387">
        <ele>263</ele>
        <time>2016-05-15T06:30:40.000Z</time>
      </trkpt>
      <trkpt lat="44.51012" lon="4.27382">
        <ele>264</ele>
        <time>2016-05-15T06:30:41.000Z</time>
      </trkpt>
      <trkpt lat="44.51014" lon="4.27376">
        <ele>264</ele>
        <time>2016-05-15T06:30:42.000Z</time>
      </trkpt>
      <trkpt lat="44.51017" lon="4.27371">
        <ele>264</ele>
        <time>2016-05-15T06:30:43.000Z</time>
      </trkpt>
      <trkpt lat="44.51019" lon="4.27365">
        <ele>264</ele>
        <time>2016-05-15T06:30:44.000Z</time>
      </trkpt>
      <trkpt lat="44.51021" lon="4.27359">
        <ele>264</ele>
        <time>2016-05-15T06:30:45.000Z</time>
      </trkpt>
      <trkpt lat="44.51023" lon="4.27353">
        <ele>264</ele>
        <time>2016-05-15T06:30:46.000Z</time>
      </trkpt>
      <trkpt lat="44.51025" lon="4.27346">
        <ele>264</ele>
        <time>2016-05-15T06:30:47.000Z</time>
      </trkpt>
      <trkpt lat="44.51028" lon="4.27339">
        <ele>264</ele>
        <time>2016-05-15T06:30:48.000Z</time>
      </trkpt>
      <trkpt lat="44.5103" lon="4.27332">
        <ele>264</ele>
        <time>2016-05-15T06:30:49.000Z</time>
      </trkpt>
      <trkpt lat="44.51032" lon="4.27325">
        <ele>264</ele>
        <time>2016-05-15T06:30:50.000Z</time>
      </trkpt>
      <trkpt lat="44.51033" lon="4.27318">
        <ele>264</ele>
        <time>2016-05-15T06:30:51.000Z</time>
      </trkpt>
      <trkpt lat="44.51035" lon="4.27311">
        <ele>264</ele>
        <time>2016-05-15T06:30:52.000Z</time>
      </trkpt>
      <trkpt lat="44.51035" lon="4.27304">
        <ele>264</ele>
        <time>2016-05-15T06:30:53.000Z</time>
      </trkpt>
      <trkpt lat="44.51036" lon="4.27297">
        <ele>264</ele>
        <time>2016-05-15T06:30:54.000Z</time>
      </trkpt>
      <trkpt lat="44.51036" lon="4.2729">
        <ele>264</ele>
        <time>2016-05-15T06:30:55.000Z</time>
      </trkpt>
      <trkpt lat="44.51036" lon="4.27284">
        <ele>263</ele>
        <time>2016-05-15T06:30:56.000Z</time>
      </trkpt>
      <trkpt lat="44.51036" lon="4.27278">
        <ele>263</ele>
        <time>2016-05-15T06:30:57.000Z</time>
      </trkpt>
      <trkpt lat="44.51035" lon="4.27273">
        <ele>263</ele>
        <time>2016-05-15T06:30:58.000Z</time>
      </trkpt>
      <trkpt lat="44.51034" lon="4.27267">
        <ele>263</ele>
        <time>2016-05-15T06:30:59.000Z</time>
      </trkpt>
      <trkpt lat="44.51033" lon="4.27261">
        <ele>263</ele>
        <time>2016-05-15T06:31:00.000Z</time>
      </trkpt>
      <trkpt lat="44.51032" lon="4.27256">
        <ele>263</ele>
        <time>2016-05-15T06:31:01.000Z</time>
      </trkpt>
      <trkpt lat="44.51032" lon="4.2725">
        <ele>262</ele>
        <time>2016-05-15T06:31:02.000Z</time>
      </trkpt>
      <trkpt lat="44.51031" lon="4.27244">
        <ele>262</ele>
        <time>2016-05-15T06:31:03.000Z</time>
      </trkpt>
      <trkpt lat="44.51032" lon="4.27238">
        <ele>262</ele>
        <time>2016-05-15T06:31:04.000Z</time>
      </trkpt>
      <trkpt lat="44.51032" lon="4.27232">
        <ele>262</ele>
        <time>2016-05-15T06:31:05.000Z</time>
      </trkpt>
      <trkpt lat="44.51032" lon="4.27226">
        <ele>262</ele>
        <time>2016-05-15T06:31:06.000Z</time>
      </trkpt>
      <trkpt lat="44.51033" lon="4.27221">
        <ele>262</ele>
        <time>2016-05-15T06:31:07.000Z</time>
      </trkpt>
      <trkpt lat="44.51034" lon="4.27215">
        <ele>263</ele>
        <time>2016-05-15T06:31:08.000Z</time>
      </trkpt>
      <trkpt lat="44.51035" lon="4.27209">
        <ele>263</ele>
        <time>2016-05-15T06:31:09.000Z</time>
      </trkpt>
      <trkpt lat="44.51037" lon="4.27203">
        <ele>263</ele>
        <time>2016-05-15T06:31:10.000Z</time>
      </trkpt>
      <trkpt lat="44.51038" lon="4.27197">
        <ele>263</ele>
        <time>2016-05-15T06:31:11.000Z</time>
      </trkpt>
      <trkpt lat="44.51039" lon="4.27192">
        <ele>263</ele>
        <time>2016-05-15T06:31:12.000Z</time>
      </trkpt>
      <trkpt lat="44.5104" lon="4.27186">
        <ele>263</ele>
        <time>2016-05-15T06:31:13.000Z</time>
      </trkpt>
      <trkpt lat="44.51041" lon="4.2718">
        <ele>263</ele>
        <time>2016-05-15T06:31:14.000Z</time>
      </trkpt>
      <trkpt lat="44.51042" lon="4.27174">
        <ele>263</ele>
        <time>2016-05-15T06:31:15.000Z</time>
      </trkpt>
      <trkpt lat="44.51043" lon="4.27168">
        <ele>263</ele>
        <time>2016-05-15T06:31:16.000Z</time>
      </trkpt>
      <trkpt lat="44.51044" lon="4.27163">
        <ele>264</ele>
        <time>2016-05-15T06:31:17.000Z</time>
      </trkpt>
      <trkpt lat="44.51045" lon="4.27157">
        <ele>264</ele>
        <time>2016-05-15T06:31:18.000Z</time>
      </trkpt>
      <trkpt lat="44.51045" lon="4.27151">
        <ele>264</ele>
        <time>2016-05-15T06:31:19.000Z</time>
      </trkpt>
      <trkpt lat="44.51046" lon="4.27145">
        <ele>264</ele>
        <time>2016-05-15T06:31:20.000Z</time>
      </trkpt>
      <trkpt lat="44.51046" lon="4.27139">
        <ele>264</ele>
        <time>2016-05-15T06:31:21.000Z</time>
      </trkpt>
      <trkpt lat="44.51046" lon="4.27134">
        <ele>264</ele>
        <time>2016-05-15T06:31:22.000Z</time>
      </trkpt>
      <trkpt lat="44.51047" lon="4.27128">
        <ele>264</ele>
        <time>2016-05-15T06:31:23.000Z</time>
      </trkpt>
      <trkpt lat="44.51048" lon="4.27123">
        <ele>264</ele>
        <time>2016-05-15T06:31:24.000Z</time>
      </trkpt>
      <trkpt lat="44.51049" lon="4.27117">
        <ele>265</ele>
        <time>2016-05-15T06:31:25.000Z</time>
      </trkpt>
      <trkpt lat="44.5105" lon="4.27112">
        <ele>265</ele>
        <time>2016-05-15T06:31:26.000Z</time>
      </trkpt>
      <trkpt lat="44.51051" lon="4.27106">
        <ele>265</ele>
        <time>2016-05-15T06:31:27.000Z</time>
      </trkpt>
      <trkpt lat="44.51052" lon="4.27101">
        <ele>265</ele>
        <time>2016-05-15T06:31:28.000Z</time>
      </trkpt>
      <trkpt lat="44.51052" lon="4.27095">
        <ele>265</ele>
        <time>2016-05-15T06:31:29.000Z</time>
      </trkpt>
      <trkpt lat="44.51053" lon="4.2709">
        <ele>265</ele>
        <time>2016-05-15T06:31:30.000Z</time>
      </trkpt>
      <trkpt lat="44.51053" lon="4.27085">
        <ele>265</ele>
        <time>2016-05-15T06:31:31.000Z</time>
      </trkpt>
      <trkpt lat="44.51054" lon="4.2708">
        <ele>265</ele>
        <time>2016-05-15T06:31:32.000Z</time>
      </trkpt>
      <trkpt lat="44.51054" lon="4.27076">
        <ele>265</ele>
        <time>2016-05-15T06:31:33.000Z</time>
      </trkpt>
      <trkpt lat="44.51054" lon="4.27071">
        <ele>265</ele>
        <time>2016-05-15T06:31:34.000Z</time>
      </trkpt>
      <trkpt lat="44.51054" lon="4.27067">
        <ele>265</ele>
        <time>2016-05-15T06:31:35.000Z</time>
      </trkpt>
      <trkpt lat="44.51054" lon="4.27063">
        <ele>265</ele>
        <time>2016-05-15T06:31:36.000Z</time>
      </trkpt>
      <trkpt lat="44.51054" lon="4.27058">
        <ele>264</ele>
        <time>2016-05-15T06:31:37.000Z</time>
      </trkpt>
      <trkpt lat="44.51054" lon="4.27054">
        <ele>264</ele>
        <time>2016-05-15T06:31:38.000Z</time>
      </trkpt>
      <trkpt lat="44.51055" lon="4.2705">
        <ele>264</ele>
        <time>2016-05-15T06:31:39.000Z</time>
      </trkpt>
      <trkpt lat="44.51055" lon="4.27046">
        <ele>264</ele>
        <time>2016-05-15T06:31:40.000Z</time>
      </trkpt>
      <trkpt lat="44.51055" lon="4.27041">
        <ele>264</ele>
        <time>2016-05-15T06:31:41.000Z</time>
      </trkpt>
      <trkpt lat="44.51055" lon="4.27037">
        <ele>264</ele>
        <time>2016-05-15T06:31:42.000Z</time>
      </trkpt>
      <trkpt lat="44.51056" lon="4.27033">
        <ele>264</ele>
        <time>2016-05-15T06:31:43.000Z</time>
      </trkpt>
      <trkpt lat="44.51056" lon="4.27029">
        <ele>264</ele>
        <time>2016-05-15T06:31:44.000Z</time>
      </trkpt>
      <trkpt lat="44.51057" lon="4.27025">
        <ele>264</ele>
        <time>2016-05-15T06:31:45.000Z</time>
      </trkpt>
      <trkpt lat="44.51058" lon="4.27021">
        <ele>264</ele>
        <time>2016-05-15T06:31:46.000Z</time>
      </trkpt>
      <trkpt lat="44.51059" lon="4.27017">
        <ele>264</ele>
        <time>2016-05-15T06:31:47.000Z</time>
      </trkpt>
      <trkpt lat="44.51061" lon="4.27013">
        <ele>264</ele>
        <time>2016-05-15T06:31:48.000Z</time>
      </trkpt>
      <trkpt lat="44.51063" lon="4.27009">
        <ele>264</ele>
        <time>2016-05-15T06:31:49.000Z</time>
      </trkpt>
      <trkpt lat="44.51065" lon="4.27005">
        <ele>264</ele>
        <time>2016-05-15T06:31:50.000Z</time>
      </trkpt>
      <trkpt lat="44.51068" lon="4.27001">
        <ele>264</ele>
        <time>2016-05-15T06:31:51.000Z</time>
      </trkpt>
      <trkpt lat="44.51072" lon="4.26997">
        <ele>260</ele>
        <time>2016-05-15T06:31:52.000Z</time>
      </trkpt>
      <trkpt lat="44.51076" lon="4.26992">
        <ele>260</ele>
        <time>2016-05-15T06:31:53.000Z</time>
      </trkpt>
      <trkpt lat="44.51081" lon="4.26987">
        <ele>259</ele>
        <time>2016-05-15T06:31:54.000Z</time>
      </trkpt>
      <trkpt lat="44.51085" lon="4.26981">
        <ele>261</ele>
        <time>2016-05-15T06:31:55.000Z</time>
      </trkpt>
      <trkpt lat="44.5109" lon="4.26975">
        <ele>261</ele>
        <time>2016-05-15T06:31:56.000Z</time>
      </trkpt>
      <trkpt lat="44.51094" lon="4.26971">
        <ele>260</ele>
        <time>2016-05-15T06:31:57.000Z</time>
      </trkpt>
      <trkpt lat="44.51097" lon="4.26967">
        <ele>260</ele>
        <time>2016-05-15T06:31:58.000Z</time>
      </trkpt>
      <trkpt lat="44.51098" lon="4.26964">
        <ele>260</ele>
        <time>2016-05-15T06:31:59.000Z</time>
      </trkpt>
      <trkpt lat="44.51097" lon="4.26962">
        <ele>259</ele>
        <time>2016-05-15T06:32:00.000Z</time>
      </trkpt>
      <trkpt lat="44.51096" lon="4.26961">
        <ele>259</ele>
        <time>2016-05-15T06:32:01.000Z</time>
      </trkpt>
      <trkpt lat="44.51094" lon="4.26961">
        <ele>259</ele>
        <time>2016-05-15T06:32:02.000Z</time>
      </trkpt>
      <trkpt lat="44.5109" lon="4.26961">
        <ele>259</ele>
        <time>2016-05-15T06:32:03.000Z</time>
      </trkpt>
      <trkpt lat="44.51086" lon="4.26962">
        <ele>259</ele>
        <time>2016-05-15T06:32:04.000Z</time>
      </trkpt>
      <trkpt lat="44.51082" lon="4.26964">
        <ele>254</ele>
        <time>2016-05-15T06:32:05.000Z</time>
      </trkpt>
      <trkpt lat="44.51078" lon="4.26965">
        <ele>254</ele>
        <time>2016-05-15T06:32:06.000Z</time>
      </trkpt>
      <trkpt lat="44.51074" lon="4.26966">
        <ele>254</ele>
        <time>2016-05-15T06:32:07.000Z</time>
      </trkpt>
      <trkpt lat="44.51069" lon="4.26965">
        <ele>254</ele>
        <time>2016-05-15T06:32:08.000Z</time>
      </trkpt>
      <trkpt lat="44.51065" lon="4.26965">
        <ele>254</ele>
        <time>2016-05-15T06:32:09.000Z</time>
      </trkpt>
      <trkpt lat="44.5106" lon="4.26963">
        <ele>253</ele>
        <time>2016-05-15T06:32:10.000Z</time>
      </trkpt>
      <trkpt lat="44.51055" lon="4.2696">
        <ele>252</ele>
        <time>2016-05-15T06:32:11.000Z</time>
      </trkpt>
      <trkpt lat="44.51051" lon="4.26956">
        <ele>252</ele>
        <time>2016-05-15T06:32:12.000Z</time>
      </trkpt>
      <trkpt lat="44.51045" lon="4.26953">
        <ele>251</ele>
        <time>2016-05-15T06:32:13.000Z</time>
      </trkpt>
      <trkpt lat="44.51039" lon="4.2695">
        <ele>251</ele>
        <time>2016-05-15T06:32:14.000Z</time>
      </trkpt>
      <trkpt lat="44.51033" lon="4.26948">
        <ele>250</ele>
        <time>2016-05-15T06:32:15.000Z</time>
      </trkpt>
      <trkpt lat="44.51026" lon="4.26946">
        <ele>249</ele>
        <time>2016-05-15T06:32:16.000Z</time>
      </trkpt>
      <trkpt lat="44.5102" lon="4.26944">
        <ele>248</ele>
        <time>2016-05-15T06:32:17.000Z</time>
      </trkpt>
      <trkpt lat="44.51013" lon="4.26944">
        <ele>248</ele>
        <time>2016-05-15T06:32:18.000Z</time>
      </trkpt>
      <trkpt lat="44.51006" lon="4.26945">
        <ele>247</ele>
        <time>2016-05-15T06:32:19.000Z</time>
      </trkpt>
      <trkpt lat="44.50998" lon="4.26946">
        <ele>243</ele>
        <time>2016-05-15T06:32:20.000Z</time>
      </trkpt>
      <trkpt lat="44.50991" lon="4.26946">
        <ele>244</ele>
        <time>2016-05-15T06:32:21.000Z</time>
      </trkpt>
      <trkpt lat="44.50984" lon="4.26947">
        <ele>244</ele>
        <time>2016-05-15T06:32:22.000Z</time>
      </trkpt>
      <trkpt lat="44.50977" lon="4.26948">
        <ele>244</ele>
        <time>2016-05-15T06:32:23.000Z</time>
      </trkpt>
      <trkpt lat="44.50969" lon="4.26949">
        <ele>244</ele>
        <time>2016-05-15T06:32:24.000Z</time>
      </trkpt>
      <trkpt lat="44.50962" lon="4.26951">
        <ele>244</ele>
        <time>2016-05-15T06:32:25.000Z</time>
      </trkpt>
      <trkpt lat="44.50954" lon="4.26951">
        <ele>244</ele>
        <time>2016-05-15T06:32:26.000Z</time>
      </trkpt>
      <trkpt lat="44.50948" lon="4.26952">
        <ele>244</ele>
        <time>2016-05-15T06:32:27.000Z</time>
      </trkpt>
      <trkpt lat="44.50941" lon="4.26951">
        <ele>243</ele>
        <time>2016-05-15T06:32:28.000Z</time>
      </trkpt>
      <trkpt lat="44.50935" lon="4.26947">
        <ele>242</ele>
        <time>2016-05-15T06:32:29.000Z</time>
      </trkpt>
      <trkpt lat="44.50928" lon="4.26941">
        <ele>241</ele>
        <time>2016-05-15T06:32:30.000Z</time>
      </trkpt>
      <trkpt lat="44.50922" lon="4.26934">
        <ele>239</ele>
        <time>2016-05-15T06:32:31.000Z</time>
      </trkpt>
      <trkpt lat="44.50916" lon="4.26927">
        <ele>235</ele>
        <time>2016-05-15T06:32:32.000Z</time>
      </trkpt>
      <trkpt lat="44.50911" lon="4.2692">
        <ele>235</ele>
        <time>2016-05-15T06:32:33.000Z</time>
      </trkpt>
      <trkpt lat="44.50906" lon="4.26914">
        <ele>231</ele>
        <time>2016-05-15T06:32:34.000Z</time>
      </trkpt>
      <trkpt lat="44.50901" lon="4.26907">
        <ele>231</ele>
        <time>2016-05-15T06:32:35.000Z</time>
      </trkpt>
      <trkpt lat="44.50895" lon="4.26901">
        <ele>230</ele>
        <time>2016-05-15T06:32:36.000Z</time>
      </trkpt>
      <trkpt lat="44.50891" lon="4.26894">
        <ele>229</ele>
        <time>2016-05-15T06:32:37.000Z</time>
      </trkpt>
      <trkpt lat="44.50887" lon="4.26886">
        <ele>229</ele>
        <time>2016-05-15T06:32:38.000Z</time>
      </trkpt>
      <trkpt lat="44.50884" lon="4.26877">
        <ele>228</ele>
        <time>2016-05-15T06:32:39.000Z</time>
      </trkpt>
      <trkpt lat="44.50882" lon="4.26868">
        <ele>227</ele>
        <time>2016-05-15T06:32:40.000Z</time>
      </trkpt>
      <trkpt lat="44.5088" lon="4.2686">
        <ele>227</ele>
        <time>2016-05-15T06:32:41.000Z</time>
      </trkpt>
      <trkpt lat="44.50877" lon="4.26852">
        <ele>226</ele>
        <time>2016-05-15T06:32:42.000Z</time>
      </trkpt>
      <trkpt lat="44.50874" lon="4.26844">
        <ele>226</ele>
        <time>2016-05-15T06:32:43.000Z</time>
      </trkpt>
      <trkpt lat="44.50873" lon="4.26835">
        <ele>226</ele>
        <time>2016-05-15T06:32:44.000Z</time>
      </trkpt>
      <trkpt lat="44.50872" lon="4.26827">
        <ele>220</ele>
        <time>2016-05-15T06:32:45.000Z</time>
      </trkpt>
      <trkpt lat="44.50871" lon="4.26819">
        <ele>220</ele>
        <time>2016-05-15T06:32:46.000Z</time>
      </trkpt>
      <trkpt lat="44.50869" lon="4.26811">
        <ele>220</ele>
        <time>2016-05-15T06:32:47.000Z</time>
      </trkpt>
      <trkpt lat="44.50868" lon="4.26804">
        <ele>220</ele>
        <time>2016-05-15T06:32:48.000Z</time>
      </trkpt>
      <trkpt lat="44.50866" lon="4.26796">
        <ele>220</ele>
        <time>2016-05-15T06:32:49.000Z</time>
      </trkpt>
      <trkpt lat="44.50865" lon="4.26788">
        <ele>220</ele>
        <time>2016-05-15T06:32:50.000Z</time>
      </trkpt>
      <trkpt lat="44.50863" lon="4.26781">
        <ele>219</ele>
        <time>2016-05-15T06:32:51.000Z</time>
      </trkpt>
      <trkpt lat="44.50861" lon="4.26774">
        <ele>219</ele>
        <time>2016-05-15T06:32:52.000Z</time>
      </trkpt>
      <trkpt lat="44.50859" lon="4.26767">
        <ele>218</ele>
        <time>2016-05-15T06:32:53.000Z</time>
      </trkpt>
      <trkpt lat="44.50859" lon="4.26761">
        <ele>218</ele>
        <time>2016-05-15T06:32:54.000Z</time>
      </trkpt>
      <trkpt lat="44.50858" lon="4.26755">
        <ele>218</ele>
        <time>2016-05-15T06:32:55.000Z</time>
      </trkpt>
      <trkpt lat="44.50858" lon="4.2675">
        <ele>220</ele>
        <time>2016-05-15T06:32:56.000Z</time>
      </trkpt>
      <trkpt lat="44.50858" lon="4.26745">
        <ele>220</ele>
        <time>2016-05-15T06:32:57.000Z</time>
      </trkpt>
      <trkpt lat="44.50857" lon="4.26742">
        <ele>220</ele>
        <time>2016-05-15T06:32:58.000Z</time>
      </trkpt>
      <trkpt lat="44.50854" lon="4.2674">
        <ele>220</ele>
        <time>2016-05-15T06:32:59.000Z</time>
      </trkpt>
      <trkpt lat="44.50851" lon="4.2674">
        <ele>220</ele>
        <time>2016-05-15T06:33:00.000Z</time>
      </trkpt>
      <trkpt lat="44.50848" lon="4.26742">
        <ele>219</ele>
        <time>2016-05-15T06:33:01.000Z</time>
      </trkpt>
      <trkpt lat="44.50845" lon="4.26746">
        <ele>218</ele>
        <time>2016-05-15T06:33:02.000Z</time>
      </trkpt>
      <trkpt lat="44.5084" lon="4.26751">
        <ele>216</ele>
        <time>2016-05-15T06:33:03.000Z</time>
      </trkpt>
      <trkpt lat="44.50837" lon="4.26757">
        <ele>216</ele>
        <time>2016-05-15T06:33:04.000Z</time>
      </trkpt>
      <trkpt lat="44.50833" lon="4.26763">
        <ele>215</ele>
        <time>2016-05-15T06:33:05.000Z</time>
      </trkpt>
      <trkpt lat="44.50829" lon="4.26768">
        <ele>215</ele>
        <time>2016-05-15T06:33:06.000Z</time>
      </trkpt>
      <trkpt lat="44.50825" lon="4.26774">
        <ele>216</ele>
        <time>2016-05-15T06:33:07.000Z</time>
      </trkpt>
      <trkpt lat="44.50821" lon="4.2678">
        <ele>216</ele>
        <time>2016-05-15T06:33:08.000Z</time>
      </trkpt>
      <trkpt lat="44.50817" lon="4.26786">
        <ele>216</ele>
        <time>2016-05-15T06:33:09.000Z</time>
      </trkpt>
      <trkpt lat="44.50814" lon="4.26793">
        <ele>217</ele>
        <time>2016-05-15T06:33:10.000Z</time>
      </trkpt>
      <trkpt lat="44.5081" lon="4.26799">
        <ele>217</ele>
        <time>2016-05-15T06:33:11.000Z</time>
      </trkpt>
      <trkpt lat="44.50805" lon="4.26804">
        <ele>217</ele>
        <time>2016-05-15T06:33:12.000Z</time>
      </trkpt>
      <trkpt lat="44.508" lon="4.26811">
        <ele>217</ele>
        <time>2016-05-15T06:33:13.000Z</time>
      </trkpt>
      <trkpt lat="44.50794" lon="4.26818">
        <ele>217</ele>
        <time>2016-05-15T06:33:14.000Z</time>
      </trkpt>
      <trkpt lat="44.50788" lon="4.26824">
        <ele>216</ele>
        <time>2016-05-15T06:33:15.000Z</time>
      </trkpt>
      <trkpt lat="44.50783" lon="4.2683">
        <ele>216</ele>
        <time>2016-05-15T06:33:16.000Z</time>
      </trkpt>
      <trkpt lat="44.50777" lon="4.26834">
        <ele>219</ele>
        <time>2016-05-15T06:33:17.000Z</time>
      </trkpt>
      <trkpt lat="44.50773" lon="4.26837">
        <ele>218</ele>
        <time>2016-05-15T06:33:18.000Z</time>
      </trkpt>
      <trkpt lat="44.5077" lon="4.26842">
        <ele>218</ele>
        <time>2016-05-15T06:33:19.000Z</time>
      </trkpt>
      <trkpt lat="44.50766" lon="4.26847">
        <ele>218</ele>
        <time>2016-05-15T06:33:20.000Z</time>
      </trkpt>
      <trkpt lat="44.50762" lon="4.26853">
        <ele>218</ele>
        <time>2016-05-15T06:33:21.000Z</time>
      </trkpt>
      <trkpt lat="44.50757" lon="4.26859">
        <ele>218</ele>
        <time>2016-05-15T06:33:22.000Z</time>
      </trkpt>
      <trkpt lat="44.50752" lon="4.26865">
        <ele>219</ele>
        <time>2016-05-15T06:33:23.000Z</time>
      </trkpt>
      <trkpt lat="44.50747" lon="4.26871">
        <ele>214</ele>
        <time>2016-05-15T06:33:24.000Z</time>
      </trkpt>
      <trkpt lat="44.50742" lon="4.26877">
        <ele>214</ele>
        <time>2016-05-15T06:33:25.000Z</time>
      </trkpt>
      <trkpt lat="44.50737" lon="4.26884">
        <ele>214</ele>
        <time>2016-05-15T06:33:26.000Z</time>
      </trkpt>
      <trkpt lat="44.50734" lon="4.26892">
        <ele>214</ele>
        <time>2016-05-15T06:33:27.000Z</time>
      </trkpt>
      <trkpt lat="44.50733" lon="4.26899">
        <ele>214</ele>
        <time>2016-05-15T06:33:28.000Z</time>
      </trkpt>
      <trkpt lat="44.50733" lon="4.26905">
        <ele>215</ele>
        <time>2016-05-15T06:33:29.000Z</time>
      </trkpt>
      <trkpt lat="44.50734" lon="4.26911">
        <ele>215</ele>
        <time>2016-05-15T06:33:30.000Z</time>
      </trkpt>
      <trkpt lat="44.50736" lon="4.26916">
        <ele>215</ele>
        <time>2016-05-15T06:33:31.000Z</time>
      </trkpt>
      <trkpt lat="44.50738" lon="4.26922">
        <ele>216</ele>
        <time>2016-05-15T06:33:32.000Z</time>
      </trkpt>
      <trkpt lat="44.5074" lon="4.26926">
        <ele>216</ele>
        <time>2016-05-15T06:33:33.000Z</time>
      </trkpt>
      <trkpt lat="44.50742" lon="4.26931">
        <ele>216</ele>
        <time>2016-05-15T06:33:34.000Z</time>
      </trkpt>
      <trkpt lat="44.50744" lon="4.26935">
        <ele>217</ele>
        <time>2016-05-15T06:33:35.000Z</time>
      </trkpt>
      <trkpt lat="44.50745" lon="4.26938">
        <ele>217</ele>
        <time>2016-05-15T06:33:36.000Z</time>
      </trkpt>
      <trkpt lat="44.50745" lon="4.26942">
        <ele>217</ele>
        <time>2016-05-15T06:33:37.000Z</time>
      </trkpt>
      <trkpt lat="44.50742" lon="4.26945">
        <ele>217</ele>
        <time>2016-05-15T06:33:38.000Z</time>
      </trkpt>
      <trkpt lat="44.50736" lon="4.26948">
        <ele>217</ele>
        <time>2016-05-15T06:33:39.000Z</time>
      </trkpt>
      <trkpt lat="44.50729" lon="4.26951">
        <ele>217</ele>
        <time>2016-05-15T06:33:40.000Z</time>
      </trkpt>
      <trkpt lat="44.50723" lon="4.26952">
        <ele>217</ele>
        <time>2016-05-15T06:33:41.000Z</time>
      </trkpt>
      <trkpt lat="44.50718" lon="4.26954">
        <ele>217</ele>
        <time>2016-05-15T06:33:42.000Z</time>
      </trkpt>
      <trkpt lat="44.50714" lon="4.26953">
        <ele>217</ele>
        <time>2016-05-15T06:33:43.000Z</time>
      </trkpt>
      <trkpt lat="44.50712" lon="4.26951">
        <ele>217</ele>
        <time>2016-05-15T06:33:44.000Z</time>
      </trkpt>
      <trkpt lat="44.50711" lon="4.26948">
        <ele>217</ele>
        <time>2016-05-15T06:33:45.000Z</time>
      </trkpt>
      <trkpt lat="44.5071" lon="4.26945">
        <ele>217</ele>
        <time>2016-05-15T06:33:46.000Z</time>
      </trkpt>
      <trkpt lat="44.5071" lon="4.26941">
        <ele>217</ele>
        <time>2016-05-15T06:33:47.000Z</time>
      </trkpt>
      <trkpt lat="44.50709" lon="4.26937">
        <ele>217</ele>
        <time>2016-05-15T06:33:48.000Z</time>
      </trkpt>
      <trkpt lat="44.50709" lon="4.26932">
        <ele>217</ele>
        <time>2016-05-15T06:33:49.000Z</time>
      </trkpt>
      <trkpt lat="44.5071" lon="4.26926">
        <ele>217</ele>
        <time>2016-05-15T06:33:50.000Z</time>
      </trkpt>
      <trkpt lat="44.5071" lon="4.26921">
        <ele>216</ele>
        <time>2016-05-15T06:33:51.000Z</time>
      </trkpt>
      <trkpt lat="44.50711" lon="4.26917">
        <ele>216</ele>
        <time>2016-05-15T06:33:52.000Z</time>
      </trkpt>
      <trkpt lat="44.50712" lon="4.26913">
        <ele>214</ele>
        <time>2016-05-15T06:33:53.000Z</time>
      </trkpt>
      <trkpt lat="44.50712" lon="4.26909">
        <ele>214</ele>
        <time>2016-05-15T06:33:54.000Z</time>
      </trkpt>
      <trkpt lat="44.50711" lon="4.26906">
        <ele>214</ele>
        <time>2016-05-15T06:33:55.000Z</time>
      </trkpt>
      <trkpt lat="44.50711" lon="4.26904">
        <ele>214</ele>
        <time>2016-05-15T06:33:56.000Z</time>
      </trkpt>
      <trkpt lat="44.5071" lon="4.26903">
        <ele>214</ele>
        <time>2016-05-15T06:33:57.000Z</time>
      </trkpt>
      <trkpt lat="44.50708" lon="4.26901">
        <ele>214</ele>
        <time>2016-05-15T06:33:58.000Z</time>
      </trkpt>
      <trkpt lat="44.50706" lon="4.26899">
        <ele>214</ele>
        <time>2016-05-15T06:33:59.000Z</time>
      </trkpt>
      <trkpt lat="44.50704" lon="4.26897">
        <ele>214</ele>
        <time>2016-05-15T06:34:00.000Z</time>
      </trkpt>
      <trkpt lat="44.50702" lon="4.26896">
        <ele>214</ele>
        <time>2016-05-15T06:34:01.000Z</time>
      </trkpt>
      <trkpt lat="44.50701" lon="4.26894">
        <ele>214</ele>
        <time>2016-05-15T06:34:02.000Z</time>
      </trkpt>
      <trkpt lat="44.507" lon="4.26891">
        <ele>214</ele>
        <time>2016-05-15T06:34:03.000Z</time>
      </trkpt>
      <trkpt lat="44.50701" lon="4.26888">
        <ele>214</ele>
        <time>2016-05-15T06:34:04.000Z</time>
      </trkpt>
      <trkpt lat="44.50701" lon="4.26886">
        <ele>214</ele>
        <time>2016-05-15T06:34:05.000Z</time>
      </trkpt>
      <trkpt lat="44.50702" lon="4.26884">
        <ele>214</ele>
        <time>2016-05-15T06:34:06.000Z</time>
      </trkpt>
      <trkpt lat="44.50704" lon="4.26882">
        <ele>214</ele>
        <time>2016-05-15T06:34:07.000Z</time>
      </trkpt>
      <trkpt lat="44.50706" lon="4.26881">
        <ele>214</ele>
        <time>2016-05-15T06:34:08.000Z</time>
      </trkpt>
      <trkpt lat="44.50707" lon="4.26878">
        <ele>214</ele>
        <time>2016-05-15T06:34:09.000Z</time>
      </trkpt>
      <trkpt lat="44.50707" lon="4.26875">
        <ele>214</ele>
        <time>2016-05-15T06:34:10.000Z</time>
      </trkpt>
      <trkpt lat="44.50708" lon="4.26873">
        <ele>214</ele>
        <time>2016-05-15T06:34:11.000Z</time>
      </trkpt>
      <trkpt lat="44.50709" lon="4.26871">
        <ele>214</ele>
        <time>2016-05-15T06:34:12.000Z</time>
      </trkpt>
      <trkpt lat="44.5071" lon="4.26869">
        <ele>214</ele>
        <time>2016-05-15T06:34:13.000Z</time>
      </trkpt>
      <trkpt lat="44.50711" lon="4.26868">
        <ele>214</ele>
        <time>2016-05-15T06:34:14.000Z</time>
      </trkpt>
      <trkpt lat="44.50713" lon="4.26868">
        <ele>214</ele>
        <time>2016-05-15T06:34:15.000Z</time>
      </trkpt>
      <trkpt lat="44.50714" lon="4.26867">
        <ele>214</ele>
        <time>2016-05-15T06:34:16.000Z</time>
      </trkpt>
      <trkpt lat="44.50715" lon="4.26866">
        <ele>214</ele>
        <time>2016-05-15T06:34:17.000Z</time>
      </trkpt>
      <trkpt lat="44.50716" lon="4.26864">
        <ele>214</ele>
        <time>2016-05-15T06:34:18.000Z</time>
      </trkpt>
      <trkpt lat="44.50717" lon="4.26863">
        <ele>214</ele>
        <time>2016-05-15T06:34:19.000Z</time>
      </trkpt>
      <trkpt lat="44.50717" lon="4.26862">
        <ele>214</ele>
        <time>2016-05-15T06:34:20.000Z</time>
      </trkpt>
      <trkpt lat="44.50717" lon="4.26861">
        <ele>214</ele>
        <time>2016-05-15T06:34:21.000Z</time>
      </trkpt>
      <trkpt lat="44.50717" lon="4.26859">
        <ele>214</ele>
        <time>2016-05-15T06:34:22.000Z</time>
      </trkpt>
      <trkpt lat="44.50718" lon="4.26858">
        <ele>214</ele>
        <time>2016-05-15T06:34:23.000Z</time>
      </trkpt>
      <trkpt lat="44.50718" lon="4.26858">
        <ele>214</ele>
        <time>2016-05-15T06:34:24.000Z</time>
      </trkpt>
      <trkpt lat="44.50718" lon="4.26857">
        <ele>214</ele>
        <time>2016-05-15T06:34:25.000Z</time>
      </trkpt>
      <trkpt lat="44.50718" lon="4.26855">
        <ele>214</ele>
        <time>2016-05-15T06:34:26.000Z</time>
      </trkpt>
      <trkpt lat="44.50718" lon="4.26853">
        <ele>213</ele>
        <time>2016-05-15T06:34:27.000Z</time>
      </trkpt>
      <trkpt lat="44.50718" lon="4.26852">
        <ele>213</ele>
        <time>2016-05-15T06:34:28.000Z</time>
      </trkpt>
      <trkpt lat="44.50718" lon="4.26851">
        <ele>213</ele>
        <time>2016-05-15T06:34:29.000Z</time>
      </trkpt>
      <trkpt lat="44.50718" lon="4.26851">
        <ele>213</ele>
        <time>2016-05-15T06:34:30.000Z</time>
      </trkpt>
      <trkpt lat="44.50718" lon="4.2685">
        <ele>213</ele>
        <time>2016-05-15T06:34:31.000Z</time>
      </trkpt>
      <trkpt lat="44.50718" lon="4.26849">
        <ele>213</ele>
        <time>2016-05-15T06:34:32.000Z</time>
      </trkpt>
      <trkpt lat="44.50718" lon="4.26848">
        <ele>213</ele>
        <time>2016-05-15T06:34:33.000Z</time>
      </trkpt>
      <trkpt lat="44.50719" lon="4.26847">
        <ele>213</ele>
        <time>2016-05-15T06:34:34.000Z</time>
      </trkpt>
      <trkpt lat="44.50719" lon="4.26845">
        <ele>213</ele>
        <time>2016-05-15T06:34:35.000Z</time>
      </trkpt>
      <trkpt lat="44.50719" lon="4.26844">
        <ele>213</ele>
        <time>2016-05-15T06:34:36.000Z</time>
      </trkpt>
      <trkpt lat="44.50719" lon="4.26843">
        <ele>213</ele>
        <time>2016-05-15T06:34:37.000Z</time>
      </trkpt>
      <trkpt lat="44.5072" lon="4.26842">
        <ele>213</ele>
        <time>2016-05-15T06:34:38.000Z</time>
      </trkpt>
      <trkpt lat="44.5072" lon="4.26841">
        <ele>213</ele>
        <time>2016-05-15T06:34:39.000Z</time>
      </trkpt>
      <trkpt lat="44.5072" lon="4.26839">
        <ele>213</ele>
        <time>2016-05-15T06:34:40.000Z</time>
      </trkpt>
      <trkpt lat="44.5072" lon="4.26838">
        <ele>213</ele>
        <time>2016-05-15T06:34:41.000Z</time>
      </trkpt>
      <trkpt lat="44.5072" lon="4.26837">
        <ele>213</ele>
        <time>2016-05-15T06:34:42.000Z</time>
      </trkpt>
      <trkpt lat="44.5072" lon="4.26837">
        <ele>213</ele>
        <time>2016-05-15T06:34:43.000Z</time>
      </trkpt>
      <trkpt lat="44.5072" lon="4.26837">
        <ele>213</ele>
        <time>2016-05-15T06:34:44.000Z</time>
      </trkpt>
      <trkpt lat="44.5072" lon="4.26836">
        <ele>213</ele>
        <time>2016-05-15T06:34:45.000Z</time>
      </trkpt>
      <trkpt lat="44.5072" lon="4.26835">
        <ele>213</ele>
        <time>2016-05-15T06:34:46.000Z</time>
      </trkpt>
      <trkpt lat="44.50719" lon="4.26835">
        <ele>213</ele>
        <time>2016-05-15T06:34:47.000Z</time>
      </trkpt>
      <trkpt lat="44.50718" lon="4.26834">
        <ele>213</ele>
        <time>2016-05-15T06:34:48.000Z</time>
      </trkpt>
      <trkpt lat="44.50718" lon="4.26832">
        <ele>214</ele>
        <time>2016-05-15T06:34:49.000Z</time>
      </trkpt>
      <trkpt lat="44.50717" lon="4.2683">
        <ele>214</ele>
        <time>2016-05-15T06:34:50.000Z</time>
      </trkpt>
      <trkpt lat="44.50717" lon="4.26828">
        <ele>214</ele>
        <time>2016-05-15T06:34:51.000Z</time>
      </trkpt>
      <trkpt lat="44.50718" lon="4.26826">
        <ele>214</ele>
        <time>2016-05-15T06:34:52.000Z</time>
      </trkpt>
      <trkpt lat="44.50719" lon="4.26825">
        <ele>214</ele>
        <time>2016-05-15T06:34:53.000Z</time>
      </trkpt>
      <trkpt lat="44.5072" lon="4.26824">
        <ele>214</ele>
        <time>2016-05-15T06:34:54.000Z</time>
      </trkpt>
      <trkpt lat="44.50721" lon="4.26824">
        <ele>214</ele>
        <time>2016-05-15T06:34:55.000Z</time>
      </trkpt>
      <trkpt lat="44.50722" lon="4.26822">
        <ele>214</ele>
        <time>2016-05-15T06:34:56.000Z</time>
      </trkpt>
      <trkpt lat="44.50723" lon="4.26821">
        <ele>214</ele>
        <time>2016-05-15T06:34:57.000Z</time>
      </trkpt>
      <trkpt lat="44.50724" lon="4.26819">
        <ele>214</ele>
        <time>2016-05-15T06:34:58.000Z</time>
      </trkpt>
      <trkpt lat="44.50725" lon="4.26817">
        <ele>214</ele>
        <time>2016-05-15T06:34:59.000Z</time>
      </trkpt>
      <trkpt lat="44.50725" lon="4.26815">
        <ele>214</ele>
        <time>2016-05-15T06:35:00.000Z</time>
      </trkpt>
      <trkpt lat="44.50725" lon="4.26814">
        <ele>214</ele>
        <time>2016-05-15T06:35:01.000Z</time>
      </trkpt>
      <trkpt lat="44.50726" lon="4.26812">
        <ele>214</ele>
        <time>2016-05-15T06:35:02.000Z</time>
      </trkpt>
      <trkpt lat="44.50726" lon="4.2681">
        <ele>214</ele>
        <time>2016-05-15T06:35:03.000Z</time>
      </trkpt>
      <trkpt lat="44.50727" lon="4.26808">
        <ele>214</ele>
        <time>2016-05-15T06:35:04.000Z</time>
      </trkpt>
      <trkpt lat="44.50728" lon="4.26806">
        <ele>214</ele>
        <time>2016-05-15T06:35:05.000Z</time>
      </trkpt>
      <trkpt lat="44.50729" lon="4.26804">
        <ele>214</ele>
        <time>2016-05-15T06:35:06.000Z</time>
      </trkpt>
      <trkpt lat="44.5073" lon="4.26801">
        <ele>214</ele>
        <time>2016-05-15T06:35:07.000Z</time>
      </trkpt>
      <trkpt lat="44.5073" lon="4.26799">
        <ele>214</ele>
        <time>2016-05-15T06:35:08.000Z</time>
      </trkpt>
      <trkpt lat="44.50731" lon="4.26797">
        <ele>214</ele>
        <time>2016-05-15T06:35:09.000Z</time>
      </trkpt>
      <trkpt lat="44.50732" lon="4.26795">
        <ele>214</ele>
        <time>2016-05-15T06:35:10.000Z</time>
      </trkpt>
      <trkpt lat="44.50733" lon="4.26793">
        <ele>214</ele>
        <time>2016-05-15T06:35:11.000Z</time>
      </trkpt>
      <trkpt lat="44.50734" lon="4.26791">
        <ele>214</ele>
        <time>2016-05-15T06:35:12.000Z</time>
      </trkpt>
      <trkpt lat="44.50735" lon="4.26789">
        <ele>214</ele>
        <time>2016-05-15T06:35:13.000Z</time>
      </trkpt>
      <trkpt lat="44.50735" lon="4.26787">
        <ele>214</ele>
        <time>2016-05-15T06:35:14.000Z</time>
      </trkpt>
      <trkpt lat="44.50736" lon="4.26784">
        <ele>214</ele>
        <time>2016-05-15T06:35:15.000Z</time>
      </trkpt>
      <trkpt lat="44.50736" lon="4.26782">
        <ele>214</ele>
        <time>2016-05-15T06:35:16.000Z</time>
      </trkpt>
      <trkpt lat="44.50737" lon="4.2678">
        <ele>214</ele>
        <time>2016-05-15T06:35:17.000Z</time>
      </trkpt>
      <trkpt lat="44.50738" lon="4.26778">
        <ele>214</ele>
        <time>2016-05-15T06:35:18.000Z</time>
      </trkpt>
      <trkpt lat="44.50738" lon="4.26776">
        <ele>214</ele>
        <time>2016-05-15T06:35:19.000Z</time>
      </trkpt>
      <trkpt lat="44.50739" lon="4.26774">
        <ele>214</ele>
        <time>2016-05-15T06:35:20.000Z</time>
      </trkpt>
      <trkpt lat="44.5074" lon="4.26772">
        <ele>214</ele>
        <time>2016-05-15T06:35:21.000Z</time>
      </trkpt>
      <trkpt lat="44.50742" lon="4.26771">
        <ele>214</ele>
        <time>2016-05-15T06:35:22.000Z</time>
      </trkpt>
      <trkpt lat="44.50743" lon="4.26769">
        <ele>214</ele>
        <time>2016-05-15T06:35:23.000Z</time>
      </trkpt>
      <trkpt lat="44.50744" lon="4.26768">
        <ele>214</ele>
        <time>2016-05-15T06:35:24.000Z</time>
      </trkpt>
      <trkpt lat="44.50745" lon="4.26766">
        <ele>214</ele>
        <time>2016-05-15T06:35:25.000Z</time>
      </trkpt>
      <trkpt lat="44.50746" lon="4.26764">
        <ele>214</ele>
        <time>2016-05-15T06:35:26.000Z</time>
      </trkpt>
      <trkpt lat="44.50747" lon="4.26763">
        <ele>214</ele>
        <time>2016-05-15T06:35:27.000Z</time>
      </trkpt>
      <trkpt lat="44.50749" lon="4.26761">
        <ele>214</ele>
        <time>2016-05-15T06:35:28.000Z</time>
      </trkpt>
      <trkpt lat="44.5075" lon="4.2676">
        <ele>214</ele>
        <time>2016-05-15T06:35:29.000Z</time>
      </trkpt>
      <trkpt lat="44.50751" lon="4.26759">
        <ele>214</ele>
        <time>2016-05-15T06:35:30.000Z</time>
      </trkpt>
      <trkpt lat="44.50752" lon="4.26757">
        <ele>214</ele>
        <time>2016-05-15T06:35:31.000Z</time>
      </trkpt>
      <trkpt lat="44.50753" lon="4.26755">
        <ele>213</ele>
        <time>2016-05-15T06:35:32.000Z</time>
      </trkpt>
      <trkpt lat="44.50753" lon="4.26754">
        <ele>213</ele>
        <time>2016-05-15T06:35:33.000Z</time>
      </trkpt>
      <trkpt lat="44.50753" lon="4.26752">
        <ele>213</ele>
        <time>2016-05-15T06:35:34.000Z</time>
      </trkpt>
      <trkpt lat="44.50753" lon="4.26751">
        <ele>213</ele>
        <time>2016-05-15T06:35:35.000Z</time>
      </trkpt>
      <trkpt lat="44.50753" lon="4.26749">
        <ele>214</ele>
        <time>2016-05-15T06:35:36.000Z</time>
      </trkpt>
      <trkpt lat="44.50753" lon="4.26748">
        <ele>214</ele>
        <time>2016-05-15T06:35:37.000Z</time>
      </trkpt>
      <trkpt lat="44.50754" lon="4.26746">
        <ele>214</ele>
        <time>2016-05-15T06:35:38.000Z</time>
      </trkpt>
      <trkpt lat="44.50754" lon="4.26745">
        <ele>214</ele>
        <time>2016-05-15T06:35:39.000Z</time>
      </trkpt>
      <trkpt lat="44.50755" lon="4.26743">
        <ele>214</ele>
        <time>2016-05-15T06:35:40.000Z</time>
      </trkpt>
      <trkpt lat="44.50756" lon="4.26742">
        <ele>215</ele>
        <time>2016-05-15T06:35:41.000Z</time>
      </trkpt>
      <trkpt lat="44.50756" lon="4.2674">
        <ele>215</ele>
        <time>2016-05-15T06:35:42.000Z</time>
      </trkpt>
      <trkpt lat="44.50757" lon="4.26738">
        <ele>215</ele>
        <time>2016-05-15T06:35:43.000Z</time>
      </trkpt>
      <trkpt lat="44.50757" lon="4.26736">
        <ele>215</ele>
        <time>2016-05-15T06:35:44.000Z</time>
      </trkpt>
      <trkpt lat="44.50757" lon="4.26736">
        <ele>215</ele>
        <time>2016-05-15T06:35:45.000Z</time>
      </trkpt>
      <trkpt lat="44.50758" lon="4.26736">
        <ele>215</ele>
        <time>2016-05-15T06:35:46.000Z</time>
      </trkpt>
      <trkpt lat="44.50758" lon="4.26735">
        <ele>215</ele>
        <time>2016-05-15T06:35:47.000Z</time>
      </trkpt>
      <trkpt lat="44.50758" lon="4.26735">
        <ele>215</ele>
        <time>2016-05-15T06:35:48.000Z</time>
      </trkpt>
      <trkpt lat="44.50758" lon="4.26734">
        <ele>216</ele>
        <time>2016-05-15T06:35:49.000Z</time>
      </trkpt>
      <trkpt lat="44.50758" lon="4.26734">
        <ele>216</ele>
        <time>2016-05-15T06:35:50.000Z</time>
      </trkpt>
      <trkpt lat="44.50758" lon="4.26733">
        <ele>216</ele>
        <time>2016-05-15T06:35:51.000Z</time>
      </trkpt>
      <trkpt lat="44.50758" lon="4.26733">
        <ele>216</ele>
        <time>2016-05-15T06:35:52.000Z</time>
      </trkpt>
      <trkpt lat="44.50759" lon="4.26733">
        <ele>216</ele>
        <time>2016-05-15T06:35:53.000Z</time>
      </trkpt>
      <trkpt lat="44.50759" lon="4.26733">
        <ele>216</ele>
        <time>2016-05-15T06:35:54.000Z</time>
      </trkpt>
      <trkpt lat="44.50759" lon="4.26733">
        <ele>216</ele>
        <time>2016-05-15T06:35:55.000Z</time>
      </trkpt>
      <trkpt lat="44.50759" lon="4.26733">
        <ele>216</ele>
        <time>2016-05-15T06:35:56.000Z</time>
      </trkpt>
      <trkpt lat="44.50759" lon="4.26733">
        <ele>216</ele>
        <time>2016-05-15T06:35:57.000Z</time>
      </trkpt>
      <trkpt lat="44.50759" lon="4.26733">
        <ele>216</ele>
        <time>2016-05-15T06:35:58.000Z</time>
      </trkpt>
      <trkpt lat="44.50759" lon="4.26733">
        <ele>216</ele>
        <time>2016-05-15T06:35:59.000Z</time>
      </trkpt>
      <trkpt lat="44.50759" lon="4.26733">
        <ele>216</ele>
        <time>2016-05-15T06:36:00.000Z</time>
      </trkpt>
      <trkpt lat="44.50759" lon="4.26732">
        <ele>216</ele>
        <time>2016-05-15T06:36:01.000Z</time>
      </trkpt>
      <trkpt lat="44.50759" lon="4.26732">
        <ele>216</ele>
        <time>2016-05-15T06:36:02.000Z</time>
      </trkpt>
      <trkpt lat="44.50759" lon="4.26732">
        <ele>216</ele>
        <time>2016-05-15T06:36:03.000Z</time>
      </trkpt>
      <trkpt lat="44.5076" lon="4.26731">
        <ele>216</ele>
        <time>2016-05-15T06:36:04.000Z</time>
      </trkpt>
      <trkpt lat="44.5076" lon="4.2673">
        <ele>216</ele>
        <time>2016-05-15T06:36:05.000Z</time>
      </trkpt>
      <trkpt lat="44.5076" lon="4.26729">
        <ele>216</ele>
        <time>2016-05-15T06:36:06.000Z</time>
      </trkpt>
      <trkpt lat="44.50761" lon="4.26728">
        <ele>216</ele>
        <time>2016-05-15T06:36:07.000Z</time>
      </trkpt>
      <trkpt lat="44.50761" lon="4.26727">
        <ele>216</ele>
        <time>2016-05-15T06:36:08.000Z</time>
      </trkpt>
      <trkpt lat="44.50761" lon="4.26727">
        <ele>216</ele>
        <time>2016-05-15T06:36:09.000Z</time>
      </trkpt>
      <trkpt lat="44.50762" lon="4.26726">
        <ele>216</ele>
        <time>2016-05-15T06:36:10.000Z</time>
      </trkpt>
      <trkpt lat="44.50762" lon="4.26725">
        <ele>216</ele>
        <time>2016-05-15T06:36:11.000Z</time>
      </trkpt>
      <trkpt lat="44.50762" lon="4.26724">
        <ele>216</ele>
        <time>2016-05-15T06:36:12.000Z</time>
      </trkpt>
      <trkpt lat="44.50762" lon="4.26723">
        <ele>217</ele>
        <time>2016-05-15T06:36:13.000Z</time>
      </trkpt>
      <trkpt lat="44.50762" lon="4.26723">
        <ele>217</ele>
        <time>2016-05-15T06:36:14.000Z</time>
      </trkpt>
      <trkpt lat="44.50763" lon="4.26722">
        <ele>217</ele>
        <time>2016-05-15T06:36:15.000Z</time>
      </trkpt>
      <trkpt lat="44.50763" lon="4.26721">
        <ele>217</ele>
        <time>2016-05-15T06:36:16.000Z</time>
      </trkpt>
      <trkpt lat="44.50763" lon="4.2672">
        <ele>217</ele>
        <time>2016-05-15T06:36:17.000Z</time>
      </trkpt>
      <trkpt lat="44.50763" lon="4.2672">
        <ele>217</ele>
        <time>2016-05-15T06:36:18.000Z</time>
      </trkpt>
      <trkpt lat="44.50763" lon="4.26719">
        <ele>217</ele>
        <time>2016-05-15T06:36:19.000Z</time>
      </trkpt>
      <trkpt lat="44.50764" lon="4.26718">
        <ele>217</ele>
        <time>2016-05-15T06:36:20.000Z</time>
      </trkpt>
      <trkpt lat="44.50764" lon="4.26718">
        <ele>217</ele>
        <time>2016-05-15T06:36:21.000Z</time>
      </trkpt>
      <trkpt lat="44.50765" lon="4.26717">
        <ele>217</ele>
        <time>2016-05-15T06:36:22.000Z</time>
      </trkpt>
      <trkpt lat="44.50765" lon="4.26716">
        <ele>217</ele>
        <time>2016-05-15T06:36:23.000Z</time>
      </trkpt>
      <trkpt lat="44.50766" lon="4.26715">
        <ele>217</ele>
        <time>2016-05-15T06:36:24.000Z</time>
      </trkpt>
      <trkpt lat="44.50766" lon="4.26714">
        <ele>217</ele>
        <time>2016-05-15T06:36:25.000Z</time>
      </trkpt>
      <trkpt lat="44.50767" lon="4.26712">
        <ele>217</ele>
        <time>2016-05-15T06:36:26.000Z</time>
      </trkpt>
      <trkpt lat="44.50767" lon="4.26711">
        <ele>217</ele>
        <time>2016-05-15T06:36:27.000Z</time>
      </trkpt>
      <trkpt lat="44.50768" lon="4.2671">
        <ele>217</ele>
        <time>2016-05-15T06:36:28.000Z</time>
      </trkpt>
      <trkpt lat="44.50769" lon="4.2671">
        <ele>218</ele>
        <time>2016-05-15T06:36:29.000Z</time>
      </trkpt>
      <trkpt lat="44.50769" lon="4.26709">
        <ele>218</ele>
        <time>2016-05-15T06:36:30.000Z</time>
      </trkpt>
      <trkpt lat="44.5077" lon="4.26709">
        <ele>218</ele>
        <time>2016-05-15T06:36:31.000Z</time>
      </trkpt>
      <trkpt lat="44.50771" lon="4.26708">
        <ele>218</ele>
        <time>2016-05-15T06:36:32.000Z</time>
      </trkpt>
      <trkpt lat="44.50771" lon="4.26708">
        <ele>218</ele>
        <time>2016-05-15T06:36:33.000Z</time>
      </trkpt>
      <trkpt lat="44.50772" lon="4.26707">
        <ele>218</ele>
        <time>2016-05-15T06:36:34.000Z</time>
      </trkpt>
      <trkpt lat="44.50772" lon="4.26707">
        <ele>218</ele>
        <time>2016-05-15T06:36:35.000Z</time>
      </trkpt>
      <trkpt lat="44.50774" lon="4.26707">
        <ele>218</ele>
        <time>2016-05-15T06:36:36.000Z</time>
      </trkpt>
      <trkpt lat="44.50775" lon="4.26706">
        <ele>218</ele>
        <time>2016-05-15T06:36:37.000Z</time>
      </trkpt>
      <trkpt lat="44.50777" lon="4.26705">
        <ele>218</ele>
        <time>2016-05-15T06:36:38.000Z</time>
      </trkpt>
      <trkpt lat="44.50778" lon="4.26703">
        <ele>218</ele>
        <time>2016-05-15T06:36:39.000Z</time>
      </trkpt>
      <trkpt lat="44.5078" lon="4.26701">
        <ele>218</ele>
        <time>2016-05-15T06:36:40.000Z</time>
      </trkpt>
      <trkpt lat="44.50781" lon="4.26698">
        <ele>218</ele>
        <time>2016-05-15T06:36:41.000Z</time>
      </trkpt>
      <trkpt lat="44.50782" lon="4.26696">
        <ele>218</ele>
        <time>2016-05-15T06:36:42.000Z</time>
      </trkpt>
      <trkpt lat="44.50783" lon="4.26693">
        <ele>219</ele>
        <time>2016-05-15T06:36:43.000Z</time>
      </trkpt>
      <trkpt lat="44.50784" lon="4.26691">
        <ele>219</ele>
        <time>2016-05-15T06:36:44.000Z</time>
      </trkpt>
      <trkpt lat="44.50785" lon="4.26688">
        <ele>219</ele>
        <time>2016-05-15T06:36:45.000Z</time>
      </trkpt>
      <trkpt lat="44.50786" lon="4.26685">
        <ele>219</ele>
        <time>2016-05-15T06:36:46.000Z</time>
      </trkpt>
      <trkpt lat="44.50788" lon="4.26682">
        <ele>219</ele>
        <time>2016-05-15T06:36:47.000Z</time>
      </trkpt>
      <trkpt lat="44.50788" lon="4.2668">
        <ele>219</ele>
        <time>2016-05-15T06:36:48.000Z</time>
      </trkpt>
      <trkpt lat="44.50789" lon="4.26678">
        <ele>219</ele>
        <time>2016-05-15T06:36:49.000Z</time>
      </trkpt>
      <trkpt lat="44.5079" lon="4.26675">
        <ele>219</ele>
        <time>2016-05-15T06:36:50.000Z</time>
      </trkpt>
      <trkpt lat="44.50791" lon="4.26673">
        <ele>220</ele>
        <time>2016-05-15T06:36:51.000Z</time>
      </trkpt>
      <trkpt lat="44.50792" lon="4.26671">
        <ele>220</ele>
        <time>2016-05-15T06:36:52.000Z</time>
      </trkpt>
      <trkpt lat="44.50793" lon="4.26669">
        <ele>220</ele>
        <time>2016-05-15T06:36:53.000Z</time>
      </trkpt>
      <trkpt lat="44.50794" lon="4.26667">
        <ele>220</ele>
        <time>2016-05-15T06:36:54.000Z</time>
      </trkpt>
      <trkpt lat="44.50796" lon="4.26665">
        <ele>227</ele>
        <time>2016-05-15T06:36:55.000Z</time>
      </trkpt>
      <trkpt lat="44.50797" lon="4.26663">
        <ele>227</ele>
        <time>2016-05-15T06:36:56.000Z</time>
      </trkpt>
      <trkpt lat="44.50798" lon="4.26661">
        <ele>227</ele>
        <time>2016-05-15T06:36:57.000Z</time>
      </trkpt>
      <trkpt lat="44.508" lon="4.26659">
        <ele>227</ele>
        <time>2016-05-15T06:36:58.000Z</time>
      </trkpt>
      <trkpt lat="44.50801" lon="4.26658">
        <ele>227</ele>
        <time>2016-05-15T06:36:59.000Z</time>
      </trkpt>
      <trkpt lat="44.50802" lon="4.26656">
        <ele>227</ele>
        <time>2016-05-15T06:37:00.000Z</time>
      </trkpt>
      <trkpt lat="44.50803" lon="4.26655">
        <ele>227</ele>
        <time>2016-05-15T06:37:01.000Z</time>
      </trkpt>
      <trkpt lat="44.50805" lon="4.26653">
        <ele>227</ele>
        <time>2016-05-15T06:37:02.000Z</time>
      </trkpt>
      <trkpt lat="44.50806" lon="4.26652">
        <ele>228</ele>
        <time>2016-05-15T06:37:03.000Z</time>
      </trkpt>
      <trkpt lat="44.50807" lon="4.26651">
        <ele>228</ele>
        <time>2016-05-15T06:37:04.000Z</time>
      </trkpt>
      <trkpt lat="44.50808" lon="4.2665">
        <ele>228</ele>
        <time>2016-05-15T06:37:05.000Z</time>
      </trkpt>
      <trkpt lat="44.5081" lon="4.26648">
        <ele>228</ele>
        <time>2016-05-15T06:37:06.000Z</time>
      </trkpt>
      <trkpt lat="44.50812" lon="4.26646">
        <ele>228</ele>
        <time>2016-05-15T06:37:07.000Z</time>
      </trkpt>
      <trkpt lat="44.50813" lon="4.26644">
        <ele>228</ele>
        <time>2016-05-15T06:37:08.000Z</time>
      </trkpt>
      <trkpt lat="44.50814" lon="4.26643">
        <ele>228</ele>
        <time>2016-05-15T06:37:09.000Z</time>
      </trkpt>
      <trkpt lat="44.50815" lon="4.26641">
        <ele>228</ele>
        <time>2016-05-15T06:37:10.000Z</time>
      </trkpt>
      <trkpt lat="44.50816" lon="4.2664">
        <ele>228</ele>
        <time>2016-05-15T06:37:11.000Z</time>
      </trkpt>
      <trkpt lat="44.50818" lon="4.26639">
        <ele>228</ele>
        <time>2016-05-15T06:37:12.000Z</time>
      </trkpt>
      <trkpt lat="44.50819" lon="4.26637">
        <ele>228</ele>
        <time>2016-05-15T06:37:13.000Z</time>
      </trkpt>
      <trkpt lat="44.5082" lon="4.26636">
        <ele>229</ele>
        <time>2016-05-15T06:37:14.000Z</time>
      </trkpt>
      <trkpt lat="44.50822" lon="4.26635">
        <ele>229</ele>
        <time>2016-05-15T06:37:15.000Z</time>
      </trkpt>
      <trkpt lat="44.50823" lon="4.26634">
        <ele>229</ele>
        <time>2016-05-15T06:37:16.000Z</time>
      </trkpt>
      <trkpt lat="44.50825" lon="4.26632">
        <ele>229</ele>
        <time>2016-05-15T06:37:17.000Z</time>
      </trkpt>
      <trkpt lat="44.50826" lon="4.2663">
        <ele>229</ele>
        <time>2016-05-15T06:37:18.000Z</time>
      </trkpt>
      <trkpt lat="44.50827" lon="4.26629">
        <ele>229</ele>
        <time>2016-05-15T06:37:19.000Z</time>
      </trkpt>
      <trkpt lat="44.50827" lon="4.26627">
        <ele>229</ele>
        <time>2016-05-15T06:37:20.000Z</time>
      </trkpt>
      <trkpt lat="44.50828" lon="4.26626">
        <ele>230</ele>
        <time>2016-05-15T06:37:21.000Z</time>
      </trkpt>
      <trkpt lat="44.50827" lon="4.26624">
        <ele>230</ele>
        <time>2016-05-15T06:37:22.000Z</time>
      </trkpt>
      <trkpt lat="44.50828" lon="4.26623">
        <ele>230</ele>
        <time>2016-05-15T06:37:23.000Z</time>
      </trkpt>
      <trkpt lat="44.50828" lon="4.26623">
        <ele>230</ele>
        <time>2016-05-15T06:37:24.000Z</time>
      </trkpt>
      <trkpt lat="44.50828" lon="4.26623">
        <ele>230</ele>
        <time>2016-05-15T06:37:25.000Z</time>
      </trkpt>
      <trkpt lat="44.50829" lon="4.26623">
        <ele>230</ele>
        <time>2016-05-15T06:37:26.000Z</time>
      </trkpt>
      <trkpt lat="44.50829" lon="4.26623">
        <ele>230</ele>
        <time>2016-05-15T06:37:27.000Z</time>
      </trkpt>
      <trkpt lat="44.50829" lon="4.26622">
        <ele>230</ele>
        <time>2016-05-15T06:37:28.000Z</time>
      </trkpt>
      <trkpt lat="44.5083" lon="4.26621">
        <ele>230</ele>
        <time>2016-05-15T06:37:29.000Z</time>
      </trkpt>
      <trkpt lat="44.5083" lon="4.26621">
        <ele>230</ele>
        <time>2016-05-15T06:37:30.000Z</time>
      </trkpt>
      <trkpt lat="44.50831" lon="4.26619">
        <ele>230</ele>
        <time>2016-05-15T06:37:31.000Z</time>
      </trkpt>
      <trkpt lat="44.50831" lon="4.26619">
        <ele>230</ele>
        <time>2016-05-15T06:37:32.000Z</time>
      </trkpt>
      <trkpt lat="44.50831" lon="4.26618">
        <ele>230</ele>
        <time>2016-05-15T06:37:33.000Z</time>
      </trkpt>
      <trkpt lat="44.50831" lon="4.26617">
        <ele>231</ele>
        <time>2016-05-15T06:37:34.000Z</time>
      </trkpt>
      <trkpt lat="44.50832" lon="4.26616">
        <ele>231</ele>
        <time>2016-05-15T06:37:35.000Z</time>
      </trkpt>
      <trkpt lat="44.50832" lon="4.26615">
        <ele>231</ele>
        <time>2016-05-15T06:37:36.000Z</time>
      </trkpt>
      <trkpt lat="44.50833" lon="4.26614">
        <ele>231</ele>
        <time>2016-05-15T06:37:37.000Z</time>
      </trkpt>
      <trkpt lat="44.50833" lon="4.26614">
        <ele>231</ele>
        <time>2016-05-15T06:37:38.000Z</time>
      </trkpt>
      <trkpt lat="44.50833" lon="4.26613">
        <ele>231</ele>
        <time>2016-05-15T06:37:39.000Z</time>
      </trkpt>
      <trkpt lat="44.50833" lon="4.26612">
        <ele>231</ele>
        <time>2016-05-15T06:37:40.000Z</time>
      </trkpt>
      <trkpt lat="44.50834" lon="4.26611">
        <ele>235</ele>
        <time>2016-05-15T06:37:41.000Z</time>
      </trkpt>
      <trkpt lat="44.50834" lon="4.2661">
        <ele>235</ele>
        <time>2016-05-15T06:37:42.000Z</time>
      </trkpt>
      <trkpt lat="44.50834" lon="4.26608">
        <ele>235</ele>
        <time>2016-05-15T06:37:43.000Z</time>
      </trkpt>
      <trkpt lat="44.50834" lon="4.26607">
        <ele>235</ele>
        <time>2016-05-15T06:37:44.000Z</time>
      </trkpt>
      <trkpt lat="44.50834" lon="4.26606">
        <ele>235</ele>
        <time>2016-05-15T06:37:45.000Z</time>
      </trkpt>
      <trkpt lat="44.50834" lon="4.26604">
        <ele>235</ele>
        <time>2016-05-15T06:37:46.000Z</time>
      </trkpt>
      <trkpt lat="44.50835" lon="4.26603">
        <ele>235</ele>
        <time>2016-05-15T06:37:47.000Z</time>
      </trkpt>
      <trkpt lat="44.50834" lon="4.26602">
        <ele>235</ele>
        <time>2016-05-15T06:37:48.000Z</time>
      </trkpt>
      <trkpt lat="44.50834" lon="4.26601">
        <ele>235</ele>
        <time>2016-05-15T06:37:49.000Z</time>
      </trkpt>
      <trkpt lat="44.50834" lon="4.266">
        <ele>235</ele>
        <time>2016-05-15T06:37:50.000Z</time>
      </trkpt>
      <trkpt lat="44.50834" lon="4.26599">
        <ele>235</ele>
        <time>2016-05-15T06:37:51.000Z</time>
      </trkpt>
      <trkpt lat="44.50834" lon="4.26599">
        <ele>235</ele>
        <time>2016-05-15T06:37:52.000Z</time>
      </trkpt>
      <trkpt lat="44.50835" lon="4.26598">
        <ele>235</ele>
        <time>2016-05-15T06:37:53.000Z</time>
      </trkpt>
      <trkpt lat="44.50835" lon="4.26597">
        <ele>235</ele>
        <time>2016-05-15T06:37:54.000Z</time>
      </trkpt>
      <trkpt lat="44.50836" lon="4.26596">
        <ele>236</ele>
        <time>2016-05-15T06:37:55.000Z</time>
      </trkpt>
      <trkpt lat="44.50836" lon="4.26594">
        <ele>236</ele>
        <time>2016-05-15T06:37:56.000Z</time>
      </trkpt>
      <trkpt lat="44.50837" lon="4.26592">
        <ele>236</ele>
        <time>2016-05-15T06:37:57.000Z</time>
      </trkpt>
      <trkpt lat="44.50837" lon="4.26589">
        <ele>236</ele>
        <time>2016-05-15T06:37:58.000Z</time>
      </trkpt>
      <trkpt lat="44.50839" lon="4.26587">
        <ele>236</ele>
        <time>2016-05-15T06:37:59.000Z</time>
      </trkpt>
      <trkpt lat="44.5084" lon="4.26584">
        <ele>236</ele>
        <time>2016-05-15T06:38:00.000Z</time>
      </trkpt>
      <trkpt lat="44.5084" lon="4.26582">
        <ele>238</ele>
        <time>2016-05-15T06:38:01.000Z</time>
      </trkpt>
      <trkpt lat="44.50841" lon="4.2658">
        <ele>238</ele>
        <time>2016-05-15T06:38:02.000Z</time>
      </trkpt>
      <trkpt lat="44.50842" lon="4.26578">
        <ele>238</ele>
        <time>2016-05-15T06:38:03.000Z</time>
      </trkpt>
      <trkpt lat="44.50843" lon="4.26576">
        <ele>239</ele>
        <time>2016-05-15T06:38:04.000Z</time>
      </trkpt>
      <trkpt lat="44.50844" lon="4.26575">
        <ele>239</ele>
        <time>2016-05-15T06:38:05.000Z</time>
      </trkpt>
      <trkpt lat="44.50846" lon="4.26575">
        <ele>239</ele>
        <time>2016-05-15T06:38:06.000Z</time>
      </trkpt>
      <trkpt lat="44.50848" lon="4.26575">
        <ele>239</ele>
        <time>2016-05-15T06:38:07.000Z</time>
      </trkpt>
      <trkpt lat="44.50849" lon="4.26576">
        <ele>239</ele>
        <time>2016-05-15T06:38:08.000Z</time>
      </trkpt>
      <trkpt lat="44.50851" lon="4.26577">
        <ele>240</ele>
        <time>2016-05-15T06:38:09.000Z</time>
      </trkpt>
      <trkpt lat="44.50853" lon="4.26578">
        <ele>240</ele>
        <time>2016-05-15T06:38:10.000Z</time>
      </trkpt>
      <trkpt lat="44.50855" lon="4.26578">
        <ele>240</ele>
        <time>2016-05-15T06:38:11.000Z</time>
      </trkpt>
      <trkpt lat="44.50857" lon="4.2658">
        <ele>240</ele>
        <time>2016-05-15T06:38:12.000Z</time>
      </trkpt>
      <trkpt lat="44.50858" lon="4.2658">
        <ele>240</ele>
        <time>2016-05-15T06:38:13.000Z</time>
      </trkpt>
      <trkpt lat="44.50859" lon="4.26581">
        <ele>240</ele>
        <time>2016-05-15T06:38:14.000Z</time>
      </trkpt>
      <trkpt lat="44.50861" lon="4.26581">
        <ele>241</ele>
        <time>2016-05-15T06:38:15.000Z</time>
      </trkpt>
      <trkpt lat="44.50862" lon="4.26582">
        <ele>241</ele>
        <time>2016-05-15T06:38:16.000Z</time>
      </trkpt>
      <trkpt lat="44.50864" lon="4.26583">
        <ele>241</ele>
        <time>2016-05-15T06:38:17.000Z</time>
      </trkpt>
      <trkpt lat="44.50865" lon="4.26585">
        <ele>237</ele>
        <time>2016-05-15T06:38:18.000Z</time>
      </trkpt>
      <trkpt lat="44.50865" lon="4.26587">
        <ele>237</ele>
        <time>2016-05-15T06:38:19.000Z</time>
      </trkpt>
      <trkpt lat="44.50866" lon="4.26589">
        <ele>236</ele>
        <time>2016-05-15T06:38:20.000Z</time>
      </trkpt>
      <trkpt lat="44.50867" lon="4.26591">
        <ele>236</ele>
        <time>2016-05-15T06:38:21.000Z</time>
      </trkpt>
      <trkpt lat="44.50868" lon="4.26591">
        <ele>237</ele>
        <time>2016-05-15T06:38:22.000Z</time>
      </trkpt>
      <trkpt lat="44.50869" lon="4.26591">
        <ele>237</ele>
        <time>2016-05-15T06:38:23.000Z</time>
      </trkpt>
      <trkpt lat="44.50871" lon="4.2659">
        <ele>237</ele>
        <time>2016-05-15T06:38:24.000Z</time>
      </trkpt>
      <trkpt lat="44.50872" lon="4.2659">
        <ele>237</ele>
        <time>2016-05-15T06:38:25.000Z</time>
      </trkpt>
      <trkpt lat="44.50873" lon="4.26589">
        <ele>237</ele>
        <time>2016-05-15T06:38:26.000Z</time>
      </trkpt>
      <trkpt lat="44.50875" lon="4.26589">
        <ele>237</ele>
        <time>2016-05-15T06:38:27.000Z</time>
      </trkpt>
      <trkpt lat="44.50877" lon="4.26589">
        <ele>237</ele>
        <time>2016-05-15T06:38:28.000Z</time>
      </trkpt>
      <trkpt lat="44.50878" lon="4.26589">
        <ele>237</ele>
        <time>2016-05-15T06:38:29.000Z</time>
      </trkpt>
      <trkpt lat="44.5088" lon="4.2659">
        <ele>238</ele>
        <time>2016-05-15T06:38:30.000Z</time>
      </trkpt>
      <trkpt lat="44.50882" lon="4.2659">
        <ele>238</ele>
        <time>2016-05-15T06:38:31.000Z</time>
      </trkpt>
      <trkpt lat="44.50884" lon="4.26591">
        <ele>238</ele>
        <time>2016-05-15T06:38:32.000Z</time>
      </trkpt>
      <trkpt lat="44.50886" lon="4.26591">
        <ele>238</ele>
        <time>2016-05-15T06:38:33.000Z</time>
      </trkpt>
      <trkpt lat="44.50888" lon="4.26591">
        <ele>238</ele>
        <time>2016-05-15T06:38:34.000Z</time>
      </trkpt>
      <trkpt lat="44.5089" lon="4.26592">
        <ele>238</ele>
        <time>2016-05-15T06:38:35.000Z</time>
      </trkpt>
      <trkpt lat="44.50891" lon="4.26592">
        <ele>239</ele>
        <time>2016-05-15T06:38:36.000Z</time>
      </trkpt>
      <trkpt lat="44.50893" lon="4.26593">
        <ele>239</ele>
        <time>2016-05-15T06:38:37.000Z</time>
      </trkpt>
      <trkpt lat="44.50895" lon="4.26593">
        <ele>239</ele>
        <time>2016-05-15T06:38:38.000Z</time>
      </trkpt>
      <trkpt lat="44.50895" lon="4.26593">
        <ele>239</ele>
        <time>2016-05-15T06:38:39.000Z</time>
      </trkpt>
      <trkpt lat="44.50897" lon="4.26594">
        <ele>239</ele>
        <time>2016-05-15T06:38:40.000Z</time>
      </trkpt>
      <trkpt lat="44.50899" lon="4.26594">
        <ele>240</ele>
        <time>2016-05-15T06:38:41.000Z</time>
      </trkpt>
      <trkpt lat="44.509" lon="4.26594">
        <ele>240</ele>
        <time>2016-05-15T06:38:42.000Z</time>
      </trkpt>
      <trkpt lat="44.50902" lon="4.26595">
        <ele>240</ele>
        <time>2016-05-15T06:38:43.000Z</time>
      </trkpt>
      <trkpt lat="44.50904" lon="4.26595">
        <ele>240</ele>
        <time>2016-05-15T06:38:44.000Z</time>
      </trkpt>
      <trkpt lat="44.50906" lon="4.26595">
        <ele>240</ele>
        <time>2016-05-15T06:38:45.000Z</time>
      </trkpt>
      <trkpt lat="44.50908" lon="4.26596">
        <ele>241</ele>
        <time>2016-05-15T06:38:46.000Z</time>
      </trkpt>
      <trkpt lat="44.5091" lon="4.26596">
        <ele>241</ele>
        <time>2016-05-15T06:38:47.000Z</time>
      </trkpt>
      <trkpt lat="44.50912" lon="4.26597">
        <ele>241</ele>
        <time>2016-05-15T06:38:48.000Z</time>
      </trkpt>
      <trkpt lat="44.50914" lon="4.26597">
        <ele>241</ele>
        <time>2016-05-15T06:38:49.000Z</time>
      </trkpt>
      <trkpt lat="44.50915" lon="4.26597">
        <ele>241</ele>
        <time>2016-05-15T06:38:50.000Z</time>
      </trkpt>
      <trkpt lat="44.50917" lon="4.26597">
        <ele>245</ele>
        <time>2016-05-15T06:38:51.000Z</time>
      </trkpt>
      <trkpt lat="44.50918" lon="4.26597">
        <ele>245</ele>
        <time>2016-05-15T06:38:52.000Z</time>
      </trkpt>
      <trkpt lat="44.50919" lon="4.26597">
        <ele>245</ele>
        <time>2016-05-15T06:38:53.000Z</time>
      </trkpt>
      <trkpt lat="44.5092" lon="4.26598">
        <ele>245</ele>
        <time>2016-05-15T06:38:54.000Z</time>
      </trkpt>
      <trkpt lat="44.50922" lon="4.26598">
        <ele>245</ele>
        <time>2016-05-15T06:38:55.000Z</time>
      </trkpt>
      <trkpt lat="44.50923" lon="4.26599">
        <ele>245</ele>
        <time>2016-05-15T06:38:56.000Z</time>
      </trkpt>
      <trkpt lat="44.50924" lon="4.26599">
        <ele>245</ele>
        <time>2016-05-15T06:38:57.000Z</time>
      </trkpt>
      <trkpt lat="44.50926" lon="4.266">
        <ele>246</ele>
        <time>2016-05-15T06:38:58.000Z</time>
      </trkpt>
      <trkpt lat="44.50927" lon="4.266">
        <ele>246</ele>
        <time>2016-05-15T06:38:59.000Z</time>
      </trkpt>
      <trkpt lat="44.50929" lon="4.26601">
        <ele>246</ele>
        <time>2016-05-15T06:39:00.000Z</time>
      </trkpt>
      <trkpt lat="44.5093" lon="4.26601">
        <ele>246</ele>
        <time>2016-05-15T06:39:01.000Z</time>
      </trkpt>
      <trkpt lat="44.50932" lon="4.26601">
        <ele>246</ele>
        <time>2016-05-15T06:39:02.000Z</time>
      </trkpt>
      <trkpt lat="44.50933" lon="4.26601">
        <ele>246</ele>
        <time>2016-05-15T06:39:03.000Z</time>
      </trkpt>
      <trkpt lat="44.50934" lon="4.26601">
        <ele>246</ele>
        <time>2016-05-15T06:39:04.000Z</time>
      </trkpt>
      <trkpt lat="44.50935" lon="4.26601">
        <ele>246</ele>
        <time>2016-05-15T06:39:05.000Z</time>
      </trkpt>
      <trkpt lat="44.50936" lon="4.26601">
        <ele>246</ele>
        <time>2016-05-15T06:39:06.000Z</time>
      </trkpt>
      <trkpt lat="44.50938" lon="4.26601">
        <ele>246</ele>
        <time>2016-05-15T06:39:07.000Z</time>
      </trkpt>
      <trkpt lat="44.5094" lon="4.26602">
        <ele>246</ele>
        <time>2016-05-15T06:39:08.000Z</time>
      </trkpt>
      <trkpt lat="44.50941" lon="4.26602">
        <ele>246</ele>
        <time>2016-05-15T06:39:09.000Z</time>
      </trkpt>
      <trkpt lat="44.50943" lon="4.26602">
        <ele>246</ele>
        <time>2016-05-15T06:39:10.000Z</time>
      </trkpt>
      <trkpt lat="44.50945" lon="4.26602">
        <ele>246</ele>
        <time>2016-05-15T06:39:11.000Z</time>
      </trkpt>
      <trkpt lat="44.50947" lon="4.26602">
        <ele>247</ele>
        <time>2016-05-15T06:39:12.000Z</time>
      </trkpt>
      <trkpt lat="44.50948" lon="4.26603">
        <ele>247</ele>
        <time>2016-05-15T06:39:13.000Z</time>
      </trkpt>
      <trkpt lat="44.50951" lon="4.26603">
        <ele>247</ele>
        <time>2016-05-15T06:39:14.000Z</time>
      </trkpt>
      <trkpt lat="44.50953" lon="4.26604">
        <ele>247</ele>
        <time>2016-05-15T06:39:15.000Z</time>
      </trkpt>
      <trkpt lat="44.50955" lon="4.26604">
        <ele>247</ele>
        <time>2016-05-15T06:39:16.000Z</time>
      </trkpt>
      <trkpt lat="44.50958" lon="4.26605">
        <ele>247</ele>
        <time>2016-05-15T06:39:17.000Z</time>
      </trkpt>
      <trkpt lat="44.5096" lon="4.26606">
        <ele>247</ele>
        <time>2016-05-15T06:39:18.000Z</time>
      </trkpt>
      <trkpt lat="44.50962" lon="4.26606">
        <ele>247</ele>
        <time>2016-05-15T06:39:19.000Z</time>
      </trkpt>
      <trkpt lat="44.50965" lon="4.26607">
        <ele>248</ele>
        <time>2016-05-15T06:39:20.000Z</time>
      </trkpt>
      <trkpt lat="44.50968" lon="4.26608">
        <ele>248</ele>
        <time>2016-05-15T06:39:21.000Z</time>
      </trkpt>
      <trkpt lat="44.50971" lon="4.26609">
        <ele>248</ele>
        <time>2016-05-15T06:39:22.000Z</time>
      </trkpt>
      <trkpt lat="44.50973" lon="4.2661">
        <ele>248</ele>
        <time>2016-05-15T06:39:23.000Z</time>
      </trkpt>
      <trkpt lat="44.50977" lon="4.26611">
        <ele>248</ele>
        <time>2016-05-15T06:39:24.000Z</time>
      </trkpt>
      <trkpt lat="44.5098" lon="4.26612">
        <ele>249</ele>
        <time>2016-05-15T06:39:25.000Z</time>
      </trkpt>
      <trkpt lat="44.50983" lon="4.26613">
        <ele>249</ele>
        <time>2016-05-15T06:39:26.000Z</time>
      </trkpt>
      <trkpt lat="44.50986" lon="4.26614">
        <ele>249</ele>
        <time>2016-05-15T06:39:27.000Z</time>
      </trkpt>
      <trkpt lat="44.50989" lon="4.26615">
        <ele>249</ele>
        <time>2016-05-15T06:39:28.000Z</time>
      </trkpt>
      <trkpt lat="44.50992" lon="4.26616">
        <ele>249</ele>
        <time>2016-05-15T06:39:29.000Z</time>
      </trkpt>
      <trkpt lat="44.50995" lon="4.26618">
        <ele>249</ele>
        <time>2016-05-15T06:39:30.000Z</time>
      </trkpt>
      <trkpt lat="44.50998" lon="4.26619">
        <ele>249</ele>
        <time>2016-05-15T06:39:31.000Z</time>
      </trkpt>
      <trkpt lat="44.51" lon="4.2662">
        <ele>249</ele>
        <time>2016-05-15T06:39:32.000Z</time>
      </trkpt>
      <trkpt lat="44.51002" lon="4.26621">
        <ele>253</ele>
        <time>2016-05-15T06:39:33.000Z</time>
      </trkpt>
      <trkpt lat="44.51004" lon="4.26623">
        <ele>253</ele>
        <time>2016-05-15T06:39:34.000Z</time>
      </trkpt>
      <trkpt lat="44.51006" lon="4.26623">
        <ele>253</ele>
        <time>2016-05-15T06:39:35.000Z</time>
      </trkpt>
      <trkpt lat="44.51007" lon="4.26624">
        <ele>253</ele>
        <time>2016-05-15T06:39:36.000Z</time>
      </trkpt>
      <trkpt lat="44.51009" lon="4.26624">
        <ele>253</ele>
        <time>2016-05-15T06:39:37.000Z</time>
      </trkpt>
      <trkpt lat="44.5101" lon="4.26624">
        <ele>253</ele>
        <time>2016-05-15T06:39:38.000Z</time>
      </trkpt>
      <trkpt lat="44.51012" lon="4.26625">
        <ele>253</ele>
        <time>2016-05-15T06:39:39.000Z</time>
      </trkpt>
      <trkpt lat="44.51014" lon="4.26626">
        <ele>253</ele>
        <time>2016-05-15T06:39:40.000Z</time>
      </trkpt>
      <trkpt lat="44.51016" lon="4.26626">
        <ele>253</ele>
        <time>2016-05-15T06:39:41.000Z</time>
      </trkpt>
      <trkpt lat="44.51018" lon="4.26627">
        <ele>253</ele>
        <time>2016-05-15T06:39:42.000Z</time>
      </trkpt>
      <trkpt lat="44.5102" lon="4.26627">
        <ele>253</ele>
        <time>2016-05-15T06:39:43.000Z</time>
      </trkpt>
      <trkpt lat="44.51022" lon="4.26628">
        <ele>253</ele>
        <time>2016-05-15T06:39:44.000Z</time>
      </trkpt>
      <trkpt lat="44.51025" lon="4.26628">
        <ele>253</ele>
        <time>2016-05-15T06:39:45.000Z</time>
      </trkpt>
      <trkpt lat="44.51027" lon="4.26628">
        <ele>253</ele>
        <time>2016-05-15T06:39:46.000Z</time>
      </trkpt>
      <trkpt lat="44.51029" lon="4.26629">
        <ele>253</ele>
        <time>2016-05-15T06:39:47.000Z</time>
      </trkpt>
      <trkpt lat="44.5103" lon="4.26629">
        <ele>253</ele>
        <time>2016-05-15T06:39:48.000Z</time>
      </trkpt>
      <trkpt lat="44.51032" lon="4.2663">
        <ele>253</ele>
        <time>2016-05-15T06:39:49.000Z</time>
      </trkpt>
      <trkpt lat="44.51034" lon="4.26631">
        <ele>253</ele>
        <time>2016-05-15T06:39:50.000Z</time>
      </trkpt>
      <trkpt lat="44.51036" lon="4.26632">
        <ele>253</ele>
        <time>2016-05-15T06:39:51.000Z</time>
      </trkpt>
      <trkpt lat="44.51039" lon="4.26633">
        <ele>253</ele>
        <time>2016-05-15T06:39:52.000Z</time>
      </trkpt>
      <trkpt lat="44.51041" lon="4.26634">
        <ele>253</ele>
        <time>2016-05-15T06:39:53.000Z</time>
      </trkpt>
      <trkpt lat="44.51044" lon="4.26635">
        <ele>253</ele>
        <time>2016-05-15T06:39:54.000Z</time>
      </trkpt>
      <trkpt lat="44.51046" lon="4.26635">
        <ele>253</ele>
        <time>2016-05-15T06:39:55.000Z</time>
      </trkpt>
      <trkpt lat="44.51049" lon="4.26636">
        <ele>253</ele>
        <time>2016-05-15T06:39:56.000Z</time>
      </trkpt>
      <trkpt lat="44.51051" lon="4.26637">
        <ele>253</ele>
        <time>2016-05-15T06:39:57.000Z</time>
      </trkpt>
      <trkpt lat="44.51054" lon="4.26637">
        <ele>252</ele>
        <time>2016-05-15T06:39:58.000Z</time>
      </trkpt>
      <trkpt lat="44.51057" lon="4.26637">
        <ele>252</ele>
        <time>2016-05-15T06:39:59.000Z</time>
      </trkpt>
      <trkpt lat="44.5106" lon="4.26637">
        <ele>252</ele>
        <time>2016-05-15T06:40:00.000Z</time>
      </trkpt>
      <trkpt lat="44.51063" lon="4.26637">
        <ele>252</ele>
        <time>2016-05-15T06:40:01.000Z</time>
      </trkpt>
      <trkpt lat="44.51066" lon="4.26637">
        <ele>252</ele>
        <time>2016-05-15T06:40:02.000Z</time>
      </trkpt>
      <trkpt lat="44.51069" lon="4.26637">
        <ele>252</ele>
        <time>2016-05-15T06:40:03.000Z</time>
      </trkpt>
      <trkpt lat="44.51072" lon="4.26636">
        <ele>252</ele>
        <time>2016-05-15T06:40:04.000Z</time>
      </trkpt>
      <trkpt lat="44.51075" lon="4.26636">
        <ele>252</ele>
        <time>2016-05-15T06:40:05.000Z</time>
      </trkpt>
      <trkpt lat="44.51078" lon="4.26635">
        <ele>252</ele>
        <time>2016-05-15T06:40:06.000Z</time>
      </trkpt>
      <trkpt lat="44.51081" lon="4.26634">
        <ele>252</ele>
        <time>2016-05-15T06:40:07.000Z</time>
      </trkpt>
      <trkpt lat="44.51084" lon="4.26633">
        <ele>253</ele>
        <time>2016-05-15T06:40:08.000Z</time>
      </trkpt>
      <trkpt lat="44.51086" lon="4.26632">
        <ele>253</ele>
        <time>2016-05-15T06:40:09.000Z</time>
      </trkpt>
      <trkpt lat="44.51089" lon="4.26631">
        <ele>253</ele>
        <time>2016-05-15T06:40:10.000Z</time>
      </trkpt>
      <trkpt lat="44.51092" lon="4.2663">
        <ele>253</ele>
        <time>2016-05-15T06:40:11.000Z</time>
      </trkpt>
      <trkpt lat="44.51094" lon="4.26629">
        <ele>253</ele>
        <time>2016-05-15T06:40:12.000Z</time>
      </trkpt>
      <trkpt lat="44.51097" lon="4.26628">
        <ele>253</ele>
        <time>2016-05-15T06:40:13.000Z</time>
      </trkpt>
      <trkpt lat="44.511" lon="4.26627">
        <ele>253</ele>
        <time>2016-05-15T06:40:14.000Z</time>
      </trkpt>
      <trkpt lat="44.51102" lon="4.26626">
        <ele>253</ele>
        <time>2016-05-15T06:40:15.000Z</time>
      </trkpt>
      <trkpt lat="44.51105" lon="4.26625">
        <ele>253</ele>
        <time>2016-05-15T06:40:16.000Z</time>
      </trkpt>
      <trkpt lat="44.51107" lon="4.26624">
        <ele>254</ele>
        <time>2016-05-15T06:40:17.000Z</time>
      </trkpt>
      <trkpt lat="44.5111" lon="4.26623">
        <ele>254</ele>
        <time>2016-05-15T06:40:18.000Z</time>
      </trkpt>
      <trkpt lat="44.51113" lon="4.26623">
        <ele>254</ele>
        <time>2016-05-15T06:40:19.000Z</time>
      </trkpt>
      <trkpt lat="44.51116" lon="4.26622">
        <ele>254</ele>
        <time>2016-05-15T06:40:20.000Z</time>
      </trkpt>
      <trkpt lat="44.51118" lon="4.26622">
        <ele>254</ele>
        <time>2016-05-15T06:40:21.000Z</time>
      </trkpt>
      <trkpt lat="44.51121" lon="4.26621">
        <ele>254</ele>
        <time>2016-05-15T06:40:22.000Z</time>
      </trkpt>
      <trkpt lat="44.51124" lon="4.26619">
        <ele>254</ele>
        <time>2016-05-15T06:40:23.000Z</time>
      </trkpt>
      <trkpt lat="44.51127" lon="4.26618">
        <ele>254</ele>
        <time>2016-05-15T06:40:24.000Z</time>
      </trkpt>
      <trkpt lat="44.51129" lon="4.26616">
        <ele>254</ele>
        <time>2016-05-15T06:40:25.000Z</time>
      </trkpt>
      <trkpt lat="44.51132" lon="4.26614">
        <ele>255</ele>
        <time>2016-05-15T06:40:26.000Z</time>
      </trkpt>
      <trkpt lat="44.51134" lon="4.26612">
        <ele>255</ele>
        <time>2016-05-15T06:40:27.000Z</time>
      </trkpt>
      <trkpt lat="44.51136" lon="4.26609">
        <ele>255</ele>
        <time>2016-05-15T06:40:28.000Z</time>
      </trkpt>
      <trkpt lat="44.51139" lon="4.26607">
        <ele>255</ele>
        <time>2016-05-15T06:40:29.000Z</time>
      </trkpt>
      <trkpt lat="44.51142" lon="4.26606">
        <ele>256</ele>
        <time>2016-05-15T06:40:30.000Z</time>
      </trkpt>
      <trkpt lat="44.51145" lon="4.26604">
        <ele>256</ele>
        <time>2016-05-15T06:40:31.000Z</time>
      </trkpt>
      <trkpt lat="44.51147" lon="4.26603">
        <ele>256</ele>
        <time>2016-05-15T06:40:32.000Z</time>
      </trkpt>
      <trkpt lat="44.5115" lon="4.26602">
        <ele>256</ele>
        <time>2016-05-15T06:40:33.000Z</time>
      </trkpt>
      <trkpt lat="44.51152" lon="4.266">
        <ele>257</ele>
        <time>2016-05-15T06:40:34.000Z</time>
      </trkpt>
      <trkpt lat="44.51155" lon="4.26599">
        <ele>257</ele>
        <time>2016-05-15T06:40:35.000Z</time>
      </trkpt>
      <trkpt lat="44.51158" lon="4.26598">
        <ele>257</ele>
        <time>2016-05-15T06:40:36.000Z</time>
      </trkpt>
      <trkpt lat="44.5116" lon="4.26597">
        <ele>258</ele>
        <time>2016-05-15T06:40:37.000Z</time>
      </trkpt>
      <trkpt lat="44.51163" lon="4.26596">
        <ele>258</ele>
        <time>2016-05-15T06:40:38.000Z</time>
      </trkpt>
      <trkpt lat="44.51165" lon="4.26595">
        <ele>258</ele>
        <time>2016-05-15T06:40:39.000Z</time>
      </trkpt>
      <trkpt lat="44.51168" lon="4.26595">
        <ele>259</ele>
        <time>2016-05-15T06:40:40.000Z</time>
      </trkpt>
      <trkpt lat="44.5117" lon="4.26594">
        <ele>259</ele>
        <time>2016-05-15T06:40:41.000Z</time>
      </trkpt>
      <trkpt lat="44.51173" lon="4.26594">
        <ele>259</ele>
        <time>2016-05-15T06:40:42.000Z</time>
      </trkpt>
      <trkpt lat="44.51175" lon="4.26594">
        <ele>259</ele>
        <time>2016-05-15T06:40:43.000Z</time>
      </trkpt>
      <trkpt lat="44.51177" lon="4.26594">
        <ele>259</ele>
        <time>2016-05-15T06:40:44.000Z</time>
      </trkpt>
      <trkpt lat="44.51179" lon="4.26593">
        <ele>259</ele>
        <time>2016-05-15T06:40:45.000Z</time>
      </trkpt>
      <trkpt lat="44.51181" lon="4.26593">
        <ele>258</ele>
        <time>2016-05-15T06:40:46.000Z</time>
      </trkpt>
      <trkpt lat="44.51182" lon="4.26593">
        <ele>258</ele>
        <time>2016-05-15T06:40:47.000Z</time>
      </trkpt>
      <trkpt lat="44.51184" lon="4.26593">
        <ele>258</ele>
        <time>2016-05-15T06:40:48.000Z</time>
      </trkpt>
      <trkpt lat="44.51186" lon="4.26592">
        <ele>258</ele>
        <time>2016-05-15T06:40:49.000Z</time>
      </trkpt>
      <trkpt lat="44.51187" lon="4.26592">
        <ele>258</ele>
        <time>2016-05-15T06:40:50.000Z</time>
      </trkpt>
      <trkpt lat="44.51189" lon="4.26592">
        <ele>258</ele>
        <time>2016-05-15T06:40:51.000Z</time>
      </trkpt>
      <trkpt lat="44.51191" lon="4.26591">
        <ele>258</ele>
        <time>2016-05-15T06:40:52.000Z</time>
      </trkpt>
      <trkpt lat="44.51192" lon="4.26591">
        <ele>258</ele>
        <time>2016-05-15T06:40:53.000Z</time>
      </trkpt>
      <trkpt lat="44.51194" lon="4.2659">
        <ele>258</ele>
        <time>2016-05-15T06:40:54.000Z</time>
      </trkpt>
      <trkpt lat="44.51196" lon="4.26589">
        <ele>258</ele>
        <time>2016-05-15T06:40:55.000Z</time>
      </trkpt>
      <trkpt lat="44.51197" lon="4.26589">
        <ele>258</ele>
        <time>2016-05-15T06:40:56.000Z</time>
      </trkpt>
      <trkpt lat="44.51199" lon="4.26588">
        <ele>258</ele>
        <time>2016-05-15T06:40:57.000Z</time>
      </trkpt>
      <trkpt lat="44.51201" lon="4.26586">
        <ele>258</ele>
        <time>2016-05-15T06:40:58.000Z</time>
      </trkpt>
      <trkpt lat="44.51202" lon="4.26584">
        <ele>258</ele>
        <time>2016-05-15T06:40:59.000Z</time>
      </trkpt>
      <trkpt lat="44.51204" lon="4.26583">
        <ele>263</ele>
        <time>2016-05-15T06:41:00.000Z</time>
      </trkpt>
      <trkpt lat="44.51206" lon="4.26581">
        <ele>263</ele>
        <time>2016-05-15T06:41:01.000Z</time>
      </trkpt>
      <trkpt lat="44.51208" lon="4.2658">
        <ele>263</ele>
        <time>2016-05-15T06:41:02.000Z</time>
      </trkpt>
      <trkpt lat="44.51209" lon="4.26579">
        <ele>263</ele>
        <time>2016-05-15T06:41:03.000Z</time>
      </trkpt>
      <trkpt lat="44.51211" lon="4.26577">
        <ele>263</ele>
        <time>2016-05-15T06:41:04.000Z</time>
      </trkpt>
      <trkpt lat="44.51213" lon="4.26576">
        <ele>263</ele>
        <time>2016-05-15T06:41:05.000Z</time>
      </trkpt>
      <trkpt lat="44.51215" lon="4.26574">
        <ele>263</ele>
        <time>2016-05-15T06:41:06.000Z</time>
      </trkpt>
      <trkpt lat="44.51216" lon="4.26573">
        <ele>263</ele>
        <time>2016-05-15T06:41:07.000Z</time>
      </trkpt>
      <trkpt lat="44.51218" lon="4.26572">
        <ele>263</ele>
        <time>2016-05-15T06:41:08.000Z</time>
      </trkpt>
      <trkpt lat="44.5122" lon="4.26571">
        <ele>263</ele>
        <time>2016-05-15T06:41:09.000Z</time>
      </trkpt>
      <trkpt lat="44.51221" lon="4.26569">
        <ele>263</ele>
        <time>2016-05-15T06:41:10.000Z</time>
      </trkpt>
      <trkpt lat="44.51223" lon="4.26568">
        <ele>264</ele>
        <time>2016-05-15T06:41:11.000Z</time>
      </trkpt>
      <trkpt lat="44.51225" lon="4.26567">
        <ele>264</ele>
        <time>2016-05-15T06:41:12.000Z</time>
      </trkpt>
      <trkpt lat="44.51227" lon="4.26566">
        <ele>264</ele>
        <time>2016-05-15T06:41:13.000Z</time>
      </trkpt>
      <trkpt lat="44.51229" lon="4.26565">
        <ele>264</ele>
        <time>2016-05-15T06:41:14.000Z</time>
      </trkpt>
      <trkpt lat="44.51231" lon="4.26563">
        <ele>264</ele>
        <time>2016-05-15T06:41:15.000Z</time>
      </trkpt>
      <trkpt lat="44.51233" lon="4.26562">
        <ele>264</ele>
        <time>2016-05-15T06:41:16.000Z</time>
      </trkpt>
      <trkpt lat="44.51235" lon="4.26561">
        <ele>264</ele>
        <time>2016-05-15T06:41:17.000Z</time>
      </trkpt>
      <trkpt lat="44.51237" lon="4.26559">
        <ele>264</ele>
        <time>2016-05-15T06:41:18.000Z</time>
      </trkpt>
      <trkpt lat="44.51238" lon="4.26558">
        <ele>264</ele>
        <time>2016-05-15T06:41:19.000Z</time>
      </trkpt>
      <trkpt lat="44.5124" lon="4.26557">
        <ele>264</ele>
        <time>2016-05-15T06:41:20.000Z</time>
      </trkpt>
      <trkpt lat="44.51242" lon="4.26557">
        <ele>264</ele>
        <time>2016-05-15T06:41:21.000Z</time>
      </trkpt>
      <trkpt lat="44.51245" lon="4.26556">
        <ele>264</ele>
        <time>2016-05-15T06:41:22.000Z</time>
      </trkpt>
      <trkpt lat="44.51247" lon="4.26556">
        <ele>264</ele>
        <time>2016-05-15T06:41:23.000Z</time>
      </trkpt>
      <trkpt lat="44.51249" lon="4.26556">
        <ele>264</ele>
        <time>2016-05-15T06:41:24.000Z</time>
      </trkpt>
      <trkpt lat="44.51251" lon="4.26557">
        <ele>265</ele>
        <time>2016-05-15T06:41:25.000Z</time>
      </trkpt>
      <trkpt lat="44.51253" lon="4.26557">
        <ele>265</ele>
        <time>2016-05-15T06:41:26.000Z</time>
      </trkpt>
      <trkpt lat="44.51255" lon="4.26557">
        <ele>265</ele>
        <time>2016-05-15T06:41:27.000Z</time>
      </trkpt>
      <trkpt lat="44.51257" lon="4.26557">
        <ele>265</ele>
        <time>2016-05-15T06:41:28.000Z</time>
      </trkpt>
      <trkpt lat="44.51259" lon="4.26558">
        <ele>265</ele>
        <time>2016-05-15T06:41:29.000Z</time>
      </trkpt>
      <trkpt lat="44.51262" lon="4.26558">
        <ele>265</ele>
        <time>2016-05-15T06:41:30.000Z</time>
      </trkpt>
      <trkpt lat="44.51265" lon="4.26559">
        <ele>265</ele>
        <time>2016-05-15T06:41:31.000Z</time>
      </trkpt>
      <trkpt lat="44.51268" lon="4.26559">
        <ele>264</ele>
        <time>2016-05-15T06:41:32.000Z</time>
      </trkpt>
      <trkpt lat="44.51272" lon="4.26558">
        <ele>264</ele>
        <time>2016-05-15T06:41:33.000Z</time>
      </trkpt>
      <trkpt lat="44.51275" lon="4.26557">
        <ele>264</ele>
        <time>2016-05-15T06:41:34.000Z</time>
      </trkpt>
      <trkpt lat="44.51279" lon="4.26556">
        <ele>264</ele>
        <time>2016-05-15T06:41:35.000Z</time>
      </trkpt>
      <trkpt lat="44.51283" lon="4.26554">
        <ele>264</ele>
        <time>2016-05-15T06:41:36.000Z</time>
      </trkpt>
      <trkpt lat="44.51286" lon="4.26551">
        <ele>264</ele>
        <time>2016-05-15T06:41:37.000Z</time>
      </trkpt>
      <trkpt lat="44.5129" lon="4.2655">
        <ele>264</ele>
        <time>2016-05-15T06:41:38.000Z</time>
      </trkpt>
      <trkpt lat="44.51294" lon="4.26548">
        <ele>264</ele>
        <time>2016-05-15T06:41:39.000Z</time>
      </trkpt>
      <trkpt lat="44.51298" lon="4.26547">
        <ele>264</ele>
        <time>2016-05-15T06:41:40.000Z</time>
      </trkpt>
      <trkpt lat="44.51301" lon="4.26545">
        <ele>264</ele>
        <time>2016-05-15T06:41:41.000Z</time>
      </trkpt>
      <trkpt lat="44.51305" lon="4.26544">
        <ele>264</ele>
        <time>2016-05-15T06:41:42.000Z</time>
      </trkpt>
      <trkpt lat="44.51308" lon="4.26542">
        <ele>264</ele>
        <time>2016-05-15T06:41:43.000Z</time>
      </trkpt>
      <trkpt lat="44.51312" lon="4.2654">
        <ele>264</ele>
        <time>2016-05-15T06:41:44.000Z</time>
      </trkpt>
      <trkpt lat="44.51315" lon="4.26537">
        <ele>265</ele>
        <time>2016-05-15T06:41:45.000Z</time>
      </trkpt>
      <trkpt lat="44.51319" lon="4.26536">
        <ele>265</ele>
        <time>2016-05-15T06:41:46.000Z</time>
      </trkpt>
      <trkpt lat="44.51322" lon="4.26534">
        <ele>265</ele>
        <time>2016-05-15T06:41:47.000Z</time>
      </trkpt>
      <trkpt lat="44.51325" lon="4.26532">
        <ele>265</ele>
        <time>2016-05-15T06:41:48.000Z</time>
      </trkpt>
      <trkpt lat="44.51327" lon="4.2653">
        <ele>265</ele>
        <time>2016-05-15T06:41:49.000Z</time>
      </trkpt>
      <trkpt lat="44.5133" lon="4.26528">
        <ele>266</ele>
        <time>2016-05-15T06:41:50.000Z</time>
      </trkpt>
      <trkpt lat="44.51332" lon="4.26526">
        <ele>266</ele>
        <time>2016-05-15T06:41:51.000Z</time>
      </trkpt>
      <trkpt lat="44.51335" lon="4.26523">
        <ele>263</ele>
        <time>2016-05-15T06:41:52.000Z</time>
      </trkpt>
      <trkpt lat="44.51338" lon="4.26521">
        <ele>264</ele>
        <time>2016-05-15T06:41:53.000Z</time>
      </trkpt>
      <trkpt lat="44.51341" lon="4.26519">
        <ele>264</ele>
        <time>2016-05-15T06:41:54.000Z</time>
      </trkpt>
      <trkpt lat="44.51344" lon="4.26517">
        <ele>264</ele>
        <time>2016-05-15T06:41:55.000Z</time>
      </trkpt>
      <trkpt lat="44.51346" lon="4.26515">
        <ele>264</ele>
        <time>2016-05-15T06:41:56.000Z</time>
      </trkpt>
      <trkpt lat="44.51348" lon="4.26513">
        <ele>264</ele>
        <time>2016-05-15T06:41:57.000Z</time>
      </trkpt>
      <trkpt lat="44.51351" lon="4.26511">
        <ele>264</ele>
        <time>2016-05-15T06:41:58.000Z</time>
      </trkpt>
      <trkpt lat="44.51353" lon="4.26508">
        <ele>264</ele>
        <time>2016-05-15T06:41:59.000Z</time>
      </trkpt>
      <trkpt lat="44.51355" lon="4.26507">
        <ele>264</ele>
        <time>2016-05-15T06:42:00.000Z</time>
      </trkpt>
      <trkpt lat="44.51357" lon="4.26505">
        <ele>264</ele>
        <time>2016-05-15T06:42:01.000Z</time>
      </trkpt>
      <trkpt lat="44.51359" lon="4.26503">
        <ele>263</ele>
        <time>2016-05-15T06:42:02.000Z</time>
      </trkpt>
      <trkpt lat="44.51361" lon="4.26501">
        <ele>263</ele>
        <time>2016-05-15T06:42:03.000Z</time>
      </trkpt>
      <trkpt lat="44.51364" lon="4.26499">
        <ele>269</ele>
        <time>2016-05-15T06:42:04.000Z</time>
      </trkpt>
      <trkpt lat="44.51366" lon="4.26496">
        <ele>269</ele>
        <time>2016-05-15T06:42:05.000Z</time>
      </trkpt>
      <trkpt lat="44.51369" lon="4.26493">
        <ele>269</ele>
        <time>2016-05-15T06:42:06.000Z</time>
      </trkpt>
      <trkpt lat="44.51372" lon="4.26491">
        <ele>269</ele>
        <time>2016-05-15T06:42:07.000Z</time>
      </trkpt>
      <trkpt lat="44.51374" lon="4.26488">
        <ele>269</ele>
        <time>2016-05-15T06:42:08.000Z</time>
      </trkpt>
      <trkpt lat="44.51377" lon="4.26485">
        <ele>269</ele>
        <time>2016-05-15T06:42:09.000Z</time>
      </trkpt>
      <trkpt lat="44.51379" lon="4.26482">
        <ele>269</ele>
        <time>2016-05-15T06:42:10.000Z</time>
      </trkpt>
      <trkpt lat="44.51382" lon="4.26479">
        <ele>269</ele>
        <time>2016-05-15T06:42:11.000Z</time>
      </trkpt>
      <trkpt lat="44.51385" lon="4.26476">
        <ele>269</ele>
        <time>2016-05-15T06:42:12.000Z</time>
      </trkpt>
      <trkpt lat="44.51387" lon="4.26474">
        <ele>269</ele>
        <time>2016-05-15T06:42:13.000Z</time>
      </trkpt>
      <trkpt lat="44.5139" lon="4.26471">
        <ele>269</ele>
        <time>2016-05-15T06:42:14.000Z</time>
      </trkpt>
      <trkpt lat="44.51392" lon="4.26469">
        <ele>269</ele>
        <time>2016-05-15T06:42:15.000Z</time>
      </trkpt>
      <trkpt lat="44.51394" lon="4.26466">
        <ele>269</ele>
        <time>2016-05-15T06:42:16.000Z</time>
      </trkpt>
      <trkpt lat="44.51397" lon="4.26464">
        <ele>269</ele>
        <time>2016-05-15T06:42:17.000Z</time>
      </trkpt>
      <trkpt lat="44.51399" lon="4.26461">
        <ele>270</ele>
        <time>2016-05-15T06:42:18.000Z</time>
      </trkpt>
      <trkpt lat="44.51401" lon="4.26458">
        <ele>270</ele>
        <time>2016-05-15T06:42:19.000Z</time>
      </trkpt>
      <trkpt lat="44.51404" lon="4.26454">
        <ele>270</ele>
        <time>2016-05-15T06:42:20.000Z</time>
      </trkpt>
      <trkpt lat="44.51406" lon="4.26451">
        <ele>270</ele>
        <time>2016-05-15T06:42:21.000Z</time>
      </trkpt>
      <trkpt lat="44.51409" lon="4.26447">
        <ele>271</ele>
        <time>2016-05-15T06:42:22.000Z</time>
      </trkpt>
      <trkpt lat="44.51411" lon="4.26444">
        <ele>271</ele>
        <time>2016-05-15T06:42:23.000Z</time>
      </trkpt>
      <trkpt lat="44.51413" lon="4.2644">
        <ele>271</ele>
        <time>2016-05-15T06:42:24.000Z</time>
      </trkpt>
      <trkpt lat="44.51416" lon="4.26437">
        <ele>272</ele>
        <time>2016-05-15T06:42:25.000Z</time>
      </trkpt>
      <trkpt lat="44.51418" lon="4.26434">
        <ele>267</ele>
        <time>2016-05-15T06:42:26.000Z</time>
      </trkpt>
      <trkpt lat="44.5142" lon="4.2643">
        <ele>268</ele>
        <time>2016-05-15T06:42:27.000Z</time>
      </trkpt>
      <trkpt lat="44.51422" lon="4.26427">
        <ele>268</ele>
        <time>2016-05-15T06:42:28.000Z</time>
      </trkpt>
      <trkpt lat="44.51424" lon="4.26424">
        <ele>269</ele>
        <time>2016-05-15T06:42:29.000Z</time>
      </trkpt>
      <trkpt lat="44.51426" lon="4.26421">
        <ele>269</ele>
        <time>2016-05-15T06:42:30.000Z</time>
      </trkpt>
      <trkpt lat="44.51426" lon="4.26417">
        <ele>269</ele>
        <time>2016-05-15T06:42:31.000Z</time>
      </trkpt>
      <trkpt lat="44.51428" lon="4.26413">
        <ele>270</ele>
        <time>2016-05-15T06:42:32.000Z</time>
      </trkpt>
      <trkpt lat="44.51428" lon="4.2641">
        <ele>270</ele>
        <time>2016-05-15T06:42:33.000Z</time>
      </trkpt>
      <trkpt lat="44.51429" lon="4.26407">
        <ele>269</ele>
        <time>2016-05-15T06:42:34.000Z</time>
      </trkpt>
      <trkpt lat="44.51429" lon="4.26405">
        <ele>269</ele>
        <time>2016-05-15T06:42:35.000Z</time>
      </trkpt>
      <trkpt lat="44.5143" lon="4.26402">
        <ele>268</ele>
        <time>2016-05-15T06:42:36.000Z</time>
      </trkpt>
      <trkpt lat="44.51431" lon="4.264">
        <ele>268</ele>
        <time>2016-05-15T06:42:37.000Z</time>
      </trkpt>
      <trkpt lat="44.51431" lon="4.26397">
        <ele>268</ele>
        <time>2016-05-15T06:42:38.000Z</time>
      </trkpt>
      <trkpt lat="44.51431" lon="4.26393">
        <ele>267</ele>
        <time>2016-05-15T06:42:39.000Z</time>
      </trkpt>
      <trkpt lat="44.51432" lon="4.2639">
        <ele>267</ele>
        <time>2016-05-15T06:42:40.000Z</time>
      </trkpt>
      <trkpt lat="44.51432" lon="4.26387">
        <ele>267</ele>
        <time>2016-05-15T06:42:41.000Z</time>
      </trkpt>
      <trkpt lat="44.51432" lon="4.26383">
        <ele>267</ele>
        <time>2016-05-15T06:42:42.000Z</time>
      </trkpt>
      <trkpt lat="44.51433" lon="4.2638">
        <ele>267</ele>
        <time>2016-05-15T06:42:43.000Z</time>
      </trkpt>
      <trkpt lat="44.51434" lon="4.26376">
        <ele>267</ele>
        <time>2016-05-15T06:42:44.000Z</time>
      </trkpt>
      <trkpt lat="44.51434" lon="4.26373">
        <ele>267</ele>
        <time>2016-05-15T06:42:45.000Z</time>
      </trkpt>
      <trkpt lat="44.51435" lon="4.26369">
        <ele>267</ele>
        <time>2016-05-15T06:42:46.000Z</time>
      </trkpt>
      <trkpt lat="44.51435" lon="4.26366">
        <ele>267</ele>
        <time>2016-05-15T06:42:47.000Z</time>
      </trkpt>
      <trkpt lat="44.51436" lon="4.26362">
        <ele>267</ele>
        <time>2016-05-15T06:42:48.000Z</time>
      </trkpt>
      <trkpt lat="44.51436" lon="4.26359">
        <ele>267</ele>
        <time>2016-05-15T06:42:49.000Z</time>
      </trkpt>
      <trkpt lat="44.51437" lon="4.26356">
        <ele>268</ele>
        <time>2016-05-15T06:42:50.000Z</time>
      </trkpt>
      <trkpt lat="44.51437" lon="4.26352">
        <ele>268</ele>
        <time>2016-05-15T06:42:51.000Z</time>
      </trkpt>
      <trkpt lat="44.51438" lon="4.26348">
        <ele>268</ele>
        <time>2016-05-15T06:42:52.000Z</time>
      </trkpt>
      <trkpt lat="44.51438" lon="4.26344">
        <ele>268</ele>
        <time>2016-05-15T06:42:53.000Z</time>
      </trkpt>
      <trkpt lat="44.51438" lon="4.26341">
        <ele>269</ele>
        <time>2016-05-15T06:42:54.000Z</time>
      </trkpt>
      <trkpt lat="44.51438" lon="4.26337">
        <ele>269</ele>
        <time>2016-05-15T06:42:55.000Z</time>
      </trkpt>
      <trkpt lat="44.51438" lon="4.26333">
        <ele>272</ele>
        <time>2016-05-15T06:42:56.000Z</time>
      </trkpt>
      <trkpt lat="44.51438" lon="4.26329">
        <ele>272</ele>
        <time>2016-05-15T06:42:57.000Z</time>
      </trkpt>
      <trkpt lat="44.51437" lon="4.26325">
        <ele>272</ele>
        <time>2016-05-15T06:42:58.000Z</time>
      </trkpt>
      <trkpt lat="44.51436" lon="4.26321">
        <ele>272</ele>
        <time>2016-05-15T06:42:59.000Z</time>
      </trkpt>
      <trkpt lat="44.51436" lon="4.26318">
        <ele>271</ele>
        <time>2016-05-15T06:43:00.000Z</time>
      </trkpt>
      <trkpt lat="44.51435" lon="4.26314">
        <ele>271</ele>
        <time>2016-05-15T06:43:01.000Z</time>
      </trkpt>
      <trkpt lat="44.51435" lon="4.26309">
        <ele>271</ele>
        <time>2016-05-15T06:43:02.000Z</time>
      </trkpt>
      <trkpt lat="44.51435" lon="4.26305">
        <ele>271</ele>
        <time>2016-05-15T06:43:03.000Z</time>
      </trkpt>
      <trkpt lat="44.51435" lon="4.26301">
        <ele>271</ele>
        <time>2016-05-15T06:43:04.000Z</time>
      </trkpt>
      <trkpt lat="44.51435" lon="4.26297">
        <ele>271</ele>
        <time>2016-05-15T06:43:05.000Z</time>
      </trkpt>
      <trkpt lat="44.51435" lon="4.26293">
        <ele>271</ele>
        <time>2016-05-15T06:43:06.000Z</time>
      </trkpt>
      <trkpt lat="44.51435" lon="4.26289">
        <ele>271</ele>
        <time>2016-05-15T06:43:07.000Z</time>
      </trkpt>
      <trkpt lat="44.51435" lon="4.26285">
        <ele>271</ele>
        <time>2016-05-15T06:43:08.000Z</time>
      </trkpt>
      <trkpt lat="44.51436" lon="4.26281">
        <ele>271</ele>
        <time>2016-05-15T06:43:09.000Z</time>
      </trkpt>
      <trkpt lat="44.51436" lon="4.26277">
        <ele>272</ele>
        <time>2016-05-15T06:43:10.000Z</time>
      </trkpt>
      <trkpt lat="44.51436" lon="4.26273">
        <ele>272</ele>
        <time>2016-05-15T06:43:11.000Z</time>
      </trkpt>
      <trkpt lat="44.51436" lon="4.26269">
        <ele>272</ele>
        <time>2016-05-15T06:43:12.000Z</time>
      </trkpt>
      <trkpt lat="44.51436" lon="4.26265">
        <ele>273</ele>
        <time>2016-05-15T06:43:13.000Z</time>
      </trkpt>
      <trkpt lat="44.51436" lon="4.26262">
        <ele>273</ele>
        <time>2016-05-15T06:43:14.000Z</time>
      </trkpt>
      <trkpt lat="44.51436" lon="4.26258">
        <ele>273</ele>
        <time>2016-05-15T06:43:15.000Z</time>
      </trkpt>
      <trkpt lat="44.51436" lon="4.26254">
        <ele>274</ele>
        <time>2016-05-15T06:43:16.000Z</time>
      </trkpt>
      <trkpt lat="44.51436" lon="4.2625">
        <ele>278</ele>
        <time>2016-05-15T06:43:17.000Z</time>
      </trkpt>
      <trkpt lat="44.51436" lon="4.26246">
        <ele>278</ele>
        <time>2016-05-15T06:43:18.000Z</time>
      </trkpt>
      <trkpt lat="44.51437" lon="4.26241">
        <ele>277</ele>
        <time>2016-05-15T06:43:19.000Z</time>
      </trkpt>
      <trkpt lat="44.51438" lon="4.26237">
        <ele>277</ele>
        <time>2016-05-15T06:43:20.000Z</time>
      </trkpt>
      <trkpt lat="44.51438" lon="4.26233">
        <ele>277</ele>
        <time>2016-05-15T06:43:21.000Z</time>
      </trkpt>
      <trkpt lat="44.51439" lon="4.26229">
        <ele>277</ele>
        <time>2016-05-15T06:43:22.000Z</time>
      </trkpt>
      <trkpt lat="44.51439" lon="4.26225">
        <ele>278</ele>
        <time>2016-05-15T06:43:23.000Z</time>
      </trkpt>
      <trkpt lat="44.5144" lon="4.26221">
        <ele>278</ele>
        <time>2016-05-15T06:43:24.000Z</time>
      </trkpt>
      <trkpt lat="44.5144" lon="4.26217">
        <ele>278</ele>
        <time>2016-05-15T06:43:25.000Z</time>
      </trkpt>
      <trkpt lat="44.51441" lon="4.26214">
        <ele>278</ele>
        <time>2016-05-15T06:43:26.000Z</time>
      </trkpt>
      <trkpt lat="44.51443" lon="4.2621">
        <ele>278</ele>
        <time>2016-05-15T06:43:27.000Z</time>
      </trkpt>
      <trkpt lat="44.51444" lon="4.26207">
        <ele>278</ele>
        <time>2016-05-15T06:43:28.000Z</time>
      </trkpt>
      <trkpt lat="44.51445" lon="4.26204">
        <ele>278</ele>
        <time>2016-05-15T06:43:29.000Z</time>
      </trkpt>
      <trkpt lat="44.51447" lon="4.26201">
        <ele>278</ele>
        <time>2016-05-15T06:43:30.000Z</time>
      </trkpt>
      <trkpt lat="44.51448" lon="4.26198">
        <ele>278</ele>
        <time>2016-05-15T06:43:31.000Z</time>
      </trkpt>
      <trkpt lat="44.51449" lon="4.26196">
        <ele>278</ele>
        <time>2016-05-15T06:43:32.000Z</time>
      </trkpt>
      <trkpt lat="44.5145" lon="4.26192">
        <ele>279</ele>
        <time>2016-05-15T06:43:33.000Z</time>
      </trkpt>
      <trkpt lat="44.51452" lon="4.26189">
        <ele>279</ele>
        <time>2016-05-15T06:43:34.000Z</time>
      </trkpt>
      <trkpt lat="44.51453" lon="4.26186">
        <ele>279</ele>
        <time>2016-05-15T06:43:35.000Z</time>
      </trkpt>
      <trkpt lat="44.51455" lon="4.26183">
        <ele>279</ele>
        <time>2016-05-15T06:43:36.000Z</time>
      </trkpt>
      <trkpt lat="44.51457" lon="4.2618">
        <ele>279</ele>
        <time>2016-05-15T06:43:37.000Z</time>
      </trkpt>
      <trkpt lat="44.51458" lon="4.26177">
        <ele>279</ele>
        <time>2016-05-15T06:43:38.000Z</time>
      </trkpt>
      <trkpt lat="44.5146" lon="4.26174">
        <ele>279</ele>
        <time>2016-05-15T06:43:39.000Z</time>
      </trkpt>
      <trkpt lat="44.51462" lon="4.26171">
        <ele>279</ele>
        <time>2016-05-15T06:43:40.000Z</time>
      </trkpt>
      <trkpt lat="44.51464" lon="4.26169">
        <ele>280</ele>
        <time>2016-05-15T06:43:41.000Z</time>
      </trkpt>
      <trkpt lat="44.51466" lon="4.26166">
        <ele>285</ele>
        <time>2016-05-15T06:43:42.000Z</time>
      </trkpt>
      <trkpt lat="44.51468" lon="4.26163">
        <ele>285</ele>
        <time>2016-05-15T06:43:43.000Z</time>
      </trkpt>
      <trkpt lat="44.5147" lon="4.2616">
        <ele>285</ele>
        <time>2016-05-15T06:43:44.000Z</time>
      </trkpt>
      <trkpt lat="44.51472" lon="4.26158">
        <ele>285</ele>
        <time>2016-05-15T06:43:45.000Z</time>
      </trkpt>
      <trkpt lat="44.51473" lon="4.26155">
        <ele>285</ele>
        <time>2016-05-15T06:43:46.000Z</time>
      </trkpt>
      <trkpt lat="44.51475" lon="4.26153">
        <ele>285</ele>
        <time>2016-05-15T06:43:47.000Z</time>
      </trkpt>
      <trkpt lat="44.51476" lon="4.26151">
        <ele>285</ele>
        <time>2016-05-15T06:43:48.000Z</time>
      </trkpt>
      <trkpt lat="44.51477" lon="4.26149">
        <ele>285</ele>
        <time>2016-05-15T06:43:49.000Z</time>
      </trkpt>
      <trkpt lat="44.51478" lon="4.26147">
        <ele>286</ele>
        <time>2016-05-15T06:43:50.000Z</time>
      </trkpt>
      <trkpt lat="44.5148" lon="4.26146">
        <ele>286</ele>
        <time>2016-05-15T06:43:51.000Z</time>
      </trkpt>
      <trkpt lat="44.51482" lon="4.26145">
        <ele>286</ele>
        <time>2016-05-15T06:43:52.000Z</time>
      </trkpt>
      <trkpt lat="44.51484" lon="4.26143">
        <ele>286</ele>
        <time>2016-05-15T06:43:53.000Z</time>
      </trkpt>
      <trkpt lat="44.51487" lon="4.26143">
        <ele>286</ele>
        <time>2016-05-15T06:43:54.000Z</time>
      </trkpt>
      <trkpt lat="44.5149" lon="4.26142">
        <ele>286</ele>
        <time>2016-05-15T06:43:55.000Z</time>
      </trkpt>
      <trkpt lat="44.51492" lon="4.26141">
        <ele>286</ele>
        <time>2016-05-15T06:43:56.000Z</time>
      </trkpt>
      <trkpt lat="44.51495" lon="4.26141">
        <ele>286</ele>
        <time>2016-05-15T06:43:57.000Z</time>
      </trkpt>
      <trkpt lat="44.51498" lon="4.26141">
        <ele>286</ele>
        <time>2016-05-15T06:43:58.000Z</time>
      </trkpt>
      <trkpt lat="44.51501" lon="4.2614">
        <ele>287</ele>
        <time>2016-05-15T06:43:59.000Z</time>
      </trkpt>
      <trkpt lat="44.51504" lon="4.2614">
        <ele>287</ele>
        <time>2016-05-15T06:44:00.000Z</time>
      </trkpt>
      <trkpt lat="44.51508" lon="4.2614">
        <ele>288</ele>
        <time>2016-05-15T06:44:01.000Z</time>
      </trkpt>
      <trkpt lat="44.51511" lon="4.2614">
        <ele>288</ele>
        <time>2016-05-15T06:44:02.000Z</time>
      </trkpt>
      <trkpt lat="44.51515" lon="4.26139">
        <ele>288</ele>
        <time>2016-05-15T06:44:03.000Z</time>
      </trkpt>
      <trkpt lat="44.51519" lon="4.26139">
        <ele>288</ele>
        <time>2016-05-15T06:44:04.000Z</time>
      </trkpt>
      <trkpt lat="44.51523" lon="4.26138">
        <ele>288</ele>
        <time>2016-05-15T06:44:05.000Z</time>
      </trkpt>
      <trkpt lat="44.51527" lon="4.26137">
        <ele>288</ele>
        <time>2016-05-15T06:44:06.000Z</time>
      </trkpt>
      <trkpt lat="44.51531" lon="4.26136">
        <ele>288</ele>
        <time>2016-05-15T06:44:07.000Z</time>
      </trkpt>
      <trkpt lat="44.51534" lon="4.26135">
        <ele>288</ele>
        <time>2016-05-15T06:44:08.000Z</time>
      </trkpt>
      <trkpt lat="44.51538" lon="4.26134">
        <ele>288</ele>
        <time>2016-05-15T06:44:09.000Z</time>
      </trkpt>
      <trkpt lat="44.51541" lon="4.26133">
        <ele>288</ele>
        <time>2016-05-15T06:44:10.000Z</time>
      </trkpt>
      <trkpt lat="44.51545" lon="4.26132">
        <ele>288</ele>
        <time>2016-05-15T06:44:11.000Z</time>
      </trkpt>
      <trkpt lat="44.51549" lon="4.26131">
        <ele>288</ele>
        <time>2016-05-15T06:44:12.000Z</time>
      </trkpt>
      <trkpt lat="44.51552" lon="4.26131">
        <ele>288</ele>
        <time>2016-05-15T06:44:13.000Z</time>
      </trkpt>
      <trkpt lat="44.51556" lon="4.2613">
        <ele>288</ele>
        <time>2016-05-15T06:44:14.000Z</time>
      </trkpt>
      <trkpt lat="44.51561" lon="4.26131">
        <ele>288</ele>
        <time>2016-05-15T06:44:15.000Z</time>
      </trkpt>
      <trkpt lat="44.51565" lon="4.26132">
        <ele>288</ele>
        <time>2016-05-15T06:44:16.000Z</time>
      </trkpt>
      <trkpt lat="44.51571" lon="4.26133">
        <ele>288</ele>
        <time>2016-05-15T06:44:17.000Z</time>
      </trkpt>
      <trkpt lat="44.51576" lon="4.26135">
        <ele>287</ele>
        <time>2016-05-15T06:44:18.000Z</time>
      </trkpt>
      <trkpt lat="44.51582" lon="4.26136">
        <ele>287</ele>
        <time>2016-05-15T06:44:19.000Z</time>
      </trkpt>
      <trkpt lat="44.51587" lon="4.26138">
        <ele>289</ele>
        <time>2016-05-15T06:44:20.000Z</time>
      </trkpt>
      <trkpt lat="44.51593" lon="4.26139">
        <ele>289</ele>
        <time>2016-05-15T06:44:21.000Z</time>
      </trkpt>
      <trkpt lat="44.51598" lon="4.26141">
        <ele>289</ele>
        <time>2016-05-15T06:44:22.000Z</time>
      </trkpt>
      <trkpt lat="44.51602" lon="4.26141">
        <ele>289</ele>
        <time>2016-05-15T06:44:23.000Z</time>
      </trkpt>
      <trkpt lat="44.51606" lon="4.26142">
        <ele>290</ele>
        <time>2016-05-15T06:44:24.000Z</time>
      </trkpt>
      <trkpt lat="44.5161" lon="4.26143">
        <ele>290</ele>
        <time>2016-05-15T06:44:25.000Z</time>
      </trkpt>
      <trkpt lat="44.51614" lon="4.26144">
        <ele>290</ele>
        <time>2016-05-15T06:44:26.000Z</time>
      </trkpt>
      <trkpt lat="44.51618" lon="4.26144">
        <ele>291</ele>
        <time>2016-05-15T06:44:27.000Z</time>
      </trkpt>
      <trkpt lat="44.51622" lon="4.26144">
        <ele>291</ele>
        <time>2016-05-15T06:44:28.000Z</time>
      </trkpt>
      <trkpt lat="44.51625" lon="4.26144">
        <ele>291</ele>
        <time>2016-05-15T06:44:29.000Z</time>
      </trkpt>
      <trkpt lat="44.51629" lon="4.26145">
        <ele>291</ele>
        <time>2016-05-15T06:44:30.000Z</time>
      </trkpt>
      <trkpt lat="44.51631" lon="4.26147">
        <ele>291</ele>
        <time>2016-05-15T06:44:31.000Z</time>
      </trkpt>
      <trkpt lat="44.51634" lon="4.26147">
        <ele>291</ele>
        <time>2016-05-15T06:44:32.000Z</time>
      </trkpt>
      <trkpt lat="44.51636" lon="4.26148">
        <ele>291</ele>
        <time>2016-05-15T06:44:33.000Z</time>
      </trkpt>
      <trkpt lat="44.51638" lon="4.26148">
        <ele>291</ele>
        <time>2016-05-15T06:44:34.000Z</time>
      </trkpt>
      <trkpt lat="44.5164" lon="4.26149">
        <ele>291</ele>
        <time>2016-05-15T06:44:35.000Z</time>
      </trkpt>
      <trkpt lat="44.51642" lon="4.26149">
        <ele>291</ele>
        <time>2016-05-15T06:44:36.000Z</time>
      </trkpt>
      <trkpt lat="44.51645" lon="4.2615">
        <ele>291</ele>
        <time>2016-05-15T06:44:37.000Z</time>
      </trkpt>
      <trkpt lat="44.51647" lon="4.26151">
        <ele>291</ele>
        <time>2016-05-15T06:44:38.000Z</time>
      </trkpt>
      <trkpt lat="44.51649" lon="4.26151">
        <ele>291</ele>
        <time>2016-05-15T06:44:39.000Z</time>
      </trkpt>
      <trkpt lat="44.51651" lon="4.26151">
        <ele>291</ele>
        <time>2016-05-15T06:44:40.000Z</time>
      </trkpt>
      <trkpt lat="44.51653" lon="4.26152">
        <ele>291</ele>
        <time>2016-05-15T06:44:41.000Z</time>
      </trkpt>
      <trkpt lat="44.51654" lon="4.26152">
        <ele>291</ele>
        <time>2016-05-15T06:44:42.000Z</time>
      </trkpt>
      <trkpt lat="44.51655" lon="4.26152">
        <ele>291</ele>
        <time>2016-05-15T06:44:43.000Z</time>
      </trkpt>
      <trkpt lat="44.51656" lon="4.26153">
        <ele>291</ele>
        <time>2016-05-15T06:44:44.000Z</time>
      </trkpt>
      <trkpt lat="44.51657" lon="4.26153">
        <ele>290</ele>
        <time>2016-05-15T06:44:45.000Z</time>
      </trkpt>
      <trkpt lat="44.51658" lon="4.26153">
        <ele>290</ele>
        <time>2016-05-15T06:44:46.000Z</time>
      </trkpt>
      <trkpt lat="44.51659" lon="4.26153">
        <ele>290</ele>
        <time>2016-05-15T06:44:47.000Z</time>
      </trkpt>
      <trkpt lat="44.5166" lon="4.26152">
        <ele>290</ele>
        <time>2016-05-15T06:44:48.000Z</time>
      </trkpt>
      <trkpt lat="44.51661" lon="4.26152">
        <ele>290</ele>
        <time>2016-05-15T06:44:49.000Z</time>
      </trkpt>
      <trkpt lat="44.51662" lon="4.26152">
        <ele>290</ele>
        <time>2016-05-15T06:44:50.000Z</time>
      </trkpt>
      <trkpt lat="44.51663" lon="4.26151">
        <ele>291</ele>
        <time>2016-05-15T06:44:51.000Z</time>
      </trkpt>
      <trkpt lat="44.51664" lon="4.26151">
        <ele>291</ele>
        <time>2016-05-15T06:44:52.000Z</time>
      </trkpt>
      <trkpt lat="44.51665" lon="4.26151">
        <ele>291</ele>
        <time>2016-05-15T06:44:53.000Z</time>
      </trkpt>
      <trkpt lat="44.51665" lon="4.26151">
        <ele>291</ele>
        <time>2016-05-15T06:44:54.000Z</time>
      </trkpt>
      <trkpt lat="44.51665" lon="4.26151">
        <ele>290</ele>
        <time>2016-05-15T06:44:55.000Z</time>
      </trkpt>
      <trkpt lat="44.51666" lon="4.26151">
        <ele>290</ele>
        <time>2016-05-15T06:44:56.000Z</time>
      </trkpt>
      <trkpt lat="44.51666" lon="4.26152">
        <ele>290</ele>
        <time>2016-05-15T06:44:57.000Z</time>
      </trkpt>
      <trkpt lat="44.51666" lon="4.26152">
        <ele>290</ele>
        <time>2016-05-15T06:44:58.000Z</time>
      </trkpt>
      <trkpt lat="44.51667" lon="4.26152">
        <ele>294</ele>
        <time>2016-05-15T06:44:59.000Z</time>
      </trkpt>
      <trkpt lat="44.51667" lon="4.26152">
        <ele>294</ele>
        <time>2016-05-15T06:45:00.000Z</time>
      </trkpt>
      <trkpt lat="44.51668" lon="4.26152">
        <ele>294</ele>
        <time>2016-05-15T06:45:01.000Z</time>
      </trkpt>
      <trkpt lat="44.51669" lon="4.26152">
        <ele>294</ele>
        <time>2016-05-15T06:45:02.000Z</time>
      </trkpt>
      <trkpt lat="44.5167" lon="4.26152">
        <ele>294</ele>
        <time>2016-05-15T06:45:03.000Z</time>
      </trkpt>
      <trkpt lat="44.51671" lon="4.26152">
        <ele>294</ele>
        <time>2016-05-15T06:45:04.000Z</time>
      </trkpt>
      <trkpt lat="44.51672" lon="4.26153">
        <ele>294</ele>
        <time>2016-05-15T06:45:05.000Z</time>
      </trkpt>
      <trkpt lat="44.51674" lon="4.26153">
        <ele>294</ele>
        <time>2016-05-15T06:45:06.000Z</time>
      </trkpt>
      <trkpt lat="44.51675" lon="4.26154">
        <ele>294</ele>
        <time>2016-05-15T06:45:07.000Z</time>
      </trkpt>
      <trkpt lat="44.51677" lon="4.26155">
        <ele>294</ele>
        <time>2016-05-15T06:45:08.000Z</time>
      </trkpt>
      <trkpt lat="44.51678" lon="4.26155">
        <ele>294</ele>
        <time>2016-05-15T06:45:09.000Z</time>
      </trkpt>
      <trkpt lat="44.5168" lon="4.26156">
        <ele>295</ele>
        <time>2016-05-15T06:45:10.000Z</time>
      </trkpt>
      <trkpt lat="44.51681" lon="4.26157">
        <ele>295</ele>
        <time>2016-05-15T06:45:11.000Z</time>
      </trkpt>
      <trkpt lat="44.51682" lon="4.26158">
        <ele>295</ele>
        <time>2016-05-15T06:45:12.000Z</time>
      </trkpt>
      <trkpt lat="44.51684" lon="4.26159">
        <ele>295</ele>
        <time>2016-05-15T06:45:13.000Z</time>
      </trkpt>
      <trkpt lat="44.51686" lon="4.26161">
        <ele>295</ele>
        <time>2016-05-15T06:45:14.000Z</time>
      </trkpt>
      <trkpt lat="44.51689" lon="4.26164">
        <ele>296</ele>
        <time>2016-05-15T06:45:15.000Z</time>
      </trkpt>
      <trkpt lat="44.51692" lon="4.26166">
        <ele>296</ele>
        <time>2016-05-15T06:45:16.000Z</time>
      </trkpt>
      <trkpt lat="44.51695" lon="4.26168">
        <ele>285</ele>
        <time>2016-05-15T06:45:17.000Z</time>
      </trkpt>
      <trkpt lat="44.51698" lon="4.2617">
        <ele>285</ele>
        <time>2016-05-15T06:45:18.000Z</time>
      </trkpt>
      <trkpt lat="44.51701" lon="4.26173">
        <ele>285</ele>
        <time>2016-05-15T06:45:19.000Z</time>
      </trkpt>
      <trkpt lat="44.51704" lon="4.26175">
        <ele>285</ele>
        <time>2016-05-15T06:45:20.000Z</time>
      </trkpt>
      <trkpt lat="44.51706" lon="4.26178">
        <ele>286</ele>
        <time>2016-05-15T06:45:21.000Z</time>
      </trkpt>
      <trkpt lat="44.5171" lon="4.26181">
        <ele>286</ele>
        <time>2016-05-15T06:45:22.000Z</time>
      </trkpt>
      <trkpt lat="44.51713" lon="4.26184">
        <ele>286</ele>
        <time>2016-05-15T06:45:23.000Z</time>
      </trkpt>
      <trkpt lat="44.51716" lon="4.26187">
        <ele>286</ele>
        <time>2016-05-15T06:45:24.000Z</time>
      </trkpt>
      <trkpt lat="44.51719" lon="4.2619">
        <ele>286</ele>
        <time>2016-05-15T06:45:25.000Z</time>
      </trkpt>
      <trkpt lat="44.51721" lon="4.26194">
        <ele>286</ele>
        <time>2016-05-15T06:45:26.000Z</time>
      </trkpt>
      <trkpt lat="44.51723" lon="4.26198">
        <ele>285</ele>
        <time>2016-05-15T06:45:27.000Z</time>
      </trkpt>
      <trkpt lat="44.51725" lon="4.26201">
        <ele>285</ele>
        <time>2016-05-15T06:45:28.000Z</time>
      </trkpt>
      <trkpt lat="44.51727" lon="4.26204">
        <ele>285</ele>
        <time>2016-05-15T06:45:29.000Z</time>
      </trkpt>
      <trkpt lat="44.51729" lon="4.26206">
        <ele>285</ele>
        <time>2016-05-15T06:45:30.000Z</time>
      </trkpt>
      <trkpt lat="44.51731" lon="4.26208">
        <ele>285</ele>
        <time>2016-05-15T06:45:31.000Z</time>
      </trkpt>
      <trkpt lat="44.51732" lon="4.26209">
        <ele>285</ele>
        <time>2016-05-15T06:45:32.000Z</time>
      </trkpt>
      <trkpt lat="44.51734" lon="4.2621">
        <ele>285</ele>
        <time>2016-05-15T06:45:33.000Z</time>
      </trkpt>
      <trkpt lat="44.51735" lon="4.26211">
        <ele>285</ele>
        <time>2016-05-15T06:45:34.000Z</time>
      </trkpt>
      <trkpt lat="44.51737" lon="4.26212">
        <ele>285</ele>
        <time>2016-05-15T06:45:35.000Z</time>
      </trkpt>
      <trkpt lat="44.51738" lon="4.26213">
        <ele>285</ele>
        <time>2016-05-15T06:45:36.000Z</time>
      </trkpt>
      <trkpt lat="44.5174" lon="4.26215">
        <ele>285</ele>
        <time>2016-05-15T06:45:37.000Z</time>
      </trkpt>
      <trkpt lat="44.51741" lon="4.26217">
        <ele>284</ele>
        <time>2016-05-15T06:45:38.000Z</time>
      </trkpt>
      <trkpt lat="44.51742" lon="4.26219">
        <ele>284</ele>
        <time>2016-05-15T06:45:39.000Z</time>
      </trkpt>
      <trkpt lat="44.51743" lon="4.26221">
        <ele>284</ele>
        <time>2016-05-15T06:45:40.000Z</time>
      </trkpt>
      <trkpt lat="44.51745" lon="4.26222">
        <ele>284</ele>
        <time>2016-05-15T06:45:41.000Z</time>
      </trkpt>
      <trkpt lat="44.51746" lon="4.26223">
        <ele>284</ele>
        <time>2016-05-15T06:45:42.000Z</time>
      </trkpt>
      <trkpt lat="44.51748" lon="4.26225">
        <ele>284</ele>
        <time>2016-05-15T06:45:43.000Z</time>
      </trkpt>
      <trkpt lat="44.51749" lon="4.26227">
        <ele>284</ele>
        <time>2016-05-15T06:45:44.000Z</time>
      </trkpt>
      <trkpt lat="44.51751" lon="4.26229">
        <ele>288</ele>
        <time>2016-05-15T06:45:45.000Z</time>
      </trkpt>
      <trkpt lat="44.51752" lon="4.2623">
        <ele>288</ele>
        <time>2016-05-15T06:45:46.000Z</time>
      </trkpt>
      <trkpt lat="44.51754" lon="4.26232">
        <ele>288</ele>
        <time>2016-05-15T06:45:47.000Z</time>
      </trkpt>
      <trkpt lat="44.51755" lon="4.26234">
        <ele>288</ele>
        <time>2016-05-15T06:45:48.000Z</time>
      </trkpt>
      <trkpt lat="44.51756" lon="4.26236">
        <ele>287</ele>
        <time>2016-05-15T06:45:49.000Z</time>
      </trkpt>
      <trkpt lat="44.51758" lon="4.26238">
        <ele>287</ele>
        <time>2016-05-15T06:45:50.000Z</time>
      </trkpt>
      <trkpt lat="44.51759" lon="4.26239">
        <ele>287</ele>
        <time>2016-05-15T06:45:51.000Z</time>
      </trkpt>
      <trkpt lat="44.5176" lon="4.26242">
        <ele>287</ele>
        <time>2016-05-15T06:45:52.000Z</time>
      </trkpt>
      <trkpt lat="44.51761" lon="4.26243">
        <ele>287</ele>
        <time>2016-05-15T06:45:53.000Z</time>
      </trkpt>
      <trkpt lat="44.51763" lon="4.26245">
        <ele>287</ele>
        <time>2016-05-15T06:45:54.000Z</time>
      </trkpt>
      <trkpt lat="44.51764" lon="4.26247">
        <ele>287</ele>
        <time>2016-05-15T06:45:55.000Z</time>
      </trkpt>
      <trkpt lat="44.51766" lon="4.2625">
        <ele>287</ele>
        <time>2016-05-15T06:45:56.000Z</time>
      </trkpt>
      <trkpt lat="44.51768" lon="4.26253">
        <ele>284</ele>
        <time>2016-05-15T06:45:57.000Z</time>
      </trkpt>
      <trkpt lat="44.51769" lon="4.26257">
        <ele>284</ele>
        <time>2016-05-15T06:45:58.000Z</time>
      </trkpt>
      <trkpt lat="44.51771" lon="4.26261">
        <ele>284</ele>
        <time>2016-05-15T06:45:59.000Z</time>
      </trkpt>
      <trkpt lat="44.51773" lon="4.26264">
        <ele>284</ele>
        <time>2016-05-15T06:46:00.000Z</time>
      </trkpt>
      <trkpt lat="44.51773" lon="4.26267">
        <ele>284</ele>
        <time>2016-05-15T06:46:01.000Z</time>
      </trkpt>
      <trkpt lat="44.51774" lon="4.26271">
        <ele>284</ele>
        <time>2016-05-15T06:46:02.000Z</time>
      </trkpt>
      <trkpt lat="44.51775" lon="4.26275">
        <ele>284</ele>
        <time>2016-05-15T06:46:03.000Z</time>
      </trkpt>
      <trkpt lat="44.51776" lon="4.26279">
        <ele>283</ele>
        <time>2016-05-15T06:46:04.000Z</time>
      </trkpt>
      <trkpt lat="44.51778" lon="4.26284">
        <ele>283</ele>
        <time>2016-05-15T06:46:05.000Z</time>
      </trkpt>
      <trkpt lat="44.51779" lon="4.26289">
        <ele>283</ele>
        <time>2016-05-15T06:46:06.000Z</time>
      </trkpt>
      <trkpt lat="44.51781" lon="4.26294">
        <ele>283</ele>
        <time>2016-05-15T06:46:07.000Z</time>
      </trkpt>
      <trkpt lat="44.51782" lon="4.26299">
        <ele>282</ele>
        <time>2016-05-15T06:46:08.000Z</time>
      </trkpt>
      <trkpt lat="44.51784" lon="4.26304">
        <ele>282</ele>
        <time>2016-05-15T06:46:09.000Z</time>
      </trkpt>
      <trkpt lat="44.51786" lon="4.26309">
        <ele>282</ele>
        <time>2016-05-15T06:46:10.000Z</time>
      </trkpt>
      <trkpt lat="44.51788" lon="4.26313">
        <ele>282</ele>
        <time>2016-05-15T06:46:11.000Z</time>
      </trkpt>
      <trkpt lat="44.51789" lon="4.26318">
        <ele>282</ele>
        <time>2016-05-15T06:46:12.000Z</time>
      </trkpt>
      <trkpt lat="44.51792" lon="4.26323">
        <ele>283</ele>
        <time>2016-05-15T06:46:13.000Z</time>
      </trkpt>
      <trkpt lat="44.51794" lon="4.26328">
        <ele>283</ele>
        <time>2016-05-15T06:46:14.000Z</time>
      </trkpt>
      <trkpt lat="44.51796" lon="4.26332">
        <ele>283</ele>
        <time>2016-05-15T06:46:15.000Z</time>
      </trkpt>
      <trkpt lat="44.51798" lon="4.26335">
        <ele>279</ele>
        <time>2016-05-15T06:46:16.000Z</time>
      </trkpt>
      <trkpt lat="44.51801" lon="4.26337">
        <ele>279</ele>
        <time>2016-05-15T06:46:17.000Z</time>
      </trkpt>
      <trkpt lat="44.51804" lon="4.2634">
        <ele>280</ele>
        <time>2016-05-15T06:46:18.000Z</time>
      </trkpt>
      <trkpt lat="44.51805" lon="4.26342">
        <ele>280</ele>
        <time>2016-05-15T06:46:19.000Z</time>
      </trkpt>
      <trkpt lat="44.51807" lon="4.26344">
        <ele>280</ele>
        <time>2016-05-15T06:46:20.000Z</time>
      </trkpt>
      <trkpt lat="44.51808" lon="4.26346">
        <ele>281</ele>
        <time>2016-05-15T06:46:21.000Z</time>
      </trkpt>
      <trkpt lat="44.51809" lon="4.26348">
        <ele>281</ele>
        <time>2016-05-15T06:46:22.000Z</time>
      </trkpt>
      <trkpt lat="44.5181" lon="4.26349">
        <ele>281</ele>
        <time>2016-05-15T06:46:23.000Z</time>
      </trkpt>
      <trkpt lat="44.51811" lon="4.2635">
        <ele>281</ele>
        <time>2016-05-15T06:46:24.000Z</time>
      </trkpt>
      <trkpt lat="44.51812" lon="4.26351">
        <ele>281</ele>
        <time>2016-05-15T06:46:25.000Z</time>
      </trkpt>
      <trkpt lat="44.51813" lon="4.26351">
        <ele>281</ele>
        <time>2016-05-15T06:46:26.000Z</time>
      </trkpt>
      <trkpt lat="44.51814" lon="4.26351">
        <ele>281</ele>
        <time>2016-05-15T06:46:27.000Z</time>
      </trkpt>
      <trkpt lat="44.51815" lon="4.26352">
        <ele>282</ele>
        <time>2016-05-15T06:46:28.000Z</time>
      </trkpt>
      <trkpt lat="44.51816" lon="4.26352">
        <ele>282</ele>
        <time>2016-05-15T06:46:29.000Z</time>
      </trkpt>
      <trkpt lat="44.51817" lon="4.26352">
        <ele>282</ele>
        <time>2016-05-15T06:46:30.000Z</time>
      </trkpt>
      <trkpt lat="44.51818" lon="4.26353">
        <ele>282</ele>
        <time>2016-05-15T06:46:31.000Z</time>
      </trkpt>
      <trkpt lat="44.5182" lon="4.26354">
        <ele>282</ele>
        <time>2016-05-15T06:46:32.000Z</time>
      </trkpt>
      <trkpt lat="44.51822" lon="4.26355">
        <ele>282</ele>
        <time>2016-05-15T06:46:33.000Z</time>
      </trkpt>
      <trkpt lat="44.51824" lon="4.26356">
        <ele>282</ele>
        <time>2016-05-15T06:46:34.000Z</time>
      </trkpt>
      <trkpt lat="44.51825" lon="4.26357">
        <ele>282</ele>
        <time>2016-05-15T06:46:35.000Z</time>
      </trkpt>
      <trkpt lat="44.51827" lon="4.26358">
        <ele>282</ele>
        <time>2016-05-15T06:46:36.000Z</time>
      </trkpt>
      <trkpt lat="44.51829" lon="4.26358">
        <ele>282</ele>
        <time>2016-05-15T06:46:37.000Z</time>
      </trkpt>
      <trkpt lat="44.51831" lon="4.26357">
        <ele>283</ele>
        <time>2016-05-15T06:46:38.000Z</time>
      </trkpt>
      <trkpt lat="44.51832" lon="4.26356">
        <ele>283</ele>
        <time>2016-05-15T06:46:39.000Z</time>
      </trkpt>
      <trkpt lat="44.51833" lon="4.26356">
        <ele>283</ele>
        <time>2016-05-15T06:46:40.000Z</time>
      </trkpt>
      <trkpt lat="44.51834" lon="4.26355">
        <ele>284</ele>
        <time>2016-05-15T06:46:41.000Z</time>
      </trkpt>
      <trkpt lat="44.51836" lon="4.26354">
        <ele>285</ele>
        <time>2016-05-15T06:46:42.000Z</time>
      </trkpt>
      <trkpt lat="44.51837" lon="4.26353">
        <ele>285</ele>
        <time>2016-05-15T06:46:43.000Z</time>
      </trkpt>
      <trkpt lat="44.51838" lon="4.26352">
        <ele>285</ele>
        <time>2016-05-15T06:46:44.000Z</time>
      </trkpt>
      <trkpt lat="44.5184" lon="4.2635">
        <ele>285</ele>
        <time>2016-05-15T06:46:45.000Z</time>
      </trkpt>
      <trkpt lat="44.51841" lon="4.26348">
        <ele>286</ele>
        <time>2016-05-15T06:46:46.000Z</time>
      </trkpt>
      <trkpt lat="44.51842" lon="4.26345">
        <ele>286</ele>
        <time>2016-05-15T06:46:47.000Z</time>
      </trkpt>
      <trkpt lat="44.51843" lon="4.26342">
        <ele>287</ele>
        <time>2016-05-15T06:46:48.000Z</time>
      </trkpt>
      <trkpt lat="44.51844" lon="4.2634">
        <ele>287</ele>
        <time>2016-05-15T06:46:49.000Z</time>
      </trkpt>
      <trkpt lat="44.51844" lon="4.26337">
        <ele>287</ele>
        <time>2016-05-15T06:46:50.000Z</time>
      </trkpt>
      <trkpt lat="44.51845" lon="4.26335">
        <ele>287</ele>
        <time>2016-05-15T06:46:51.000Z</time>
      </trkpt>
      <trkpt lat="44.51845" lon="4.26332">
        <ele>288</ele>
        <time>2016-05-15T06:46:52.000Z</time>
      </trkpt>
      <trkpt lat="44.51846" lon="4.26329">
        <ele>288</ele>
        <time>2016-05-15T06:46:53.000Z</time>
      </trkpt>
      <trkpt lat="44.51846" lon="4.26327">
        <ele>288</ele>
        <time>2016-05-15T06:46:54.000Z</time>
      </trkpt>
      <trkpt lat="44.51846" lon="4.26324">
        <ele>287</ele>
        <time>2016-05-15T06:46:55.000Z</time>
      </trkpt>
      <trkpt lat="44.51846" lon="4.26321">
        <ele>287</ele>
        <time>2016-05-15T06:46:56.000Z</time>
      </trkpt>
      <trkpt lat="44.51846" lon="4.26318">
        <ele>287</ele>
        <time>2016-05-15T06:46:57.000Z</time>
      </trkpt>
      <trkpt lat="44.51846" lon="4.26316">
        <ele>286</ele>
        <time>2016-05-15T06:46:58.000Z</time>
      </trkpt>
      <trkpt lat="44.51845" lon="4.26313">
        <ele>286</ele>
        <time>2016-05-15T06:46:59.000Z</time>
      </trkpt>
      <trkpt lat="44.51845" lon="4.26311">
        <ele>286</ele>
        <time>2016-05-15T06:47:00.000Z</time>
      </trkpt>
      <trkpt lat="44.51844" lon="4.26308">
        <ele>286</ele>
        <time>2016-05-15T06:47:01.000Z</time>
      </trkpt>
      <trkpt lat="44.51843" lon="4.26306">
        <ele>286</ele>
        <time>2016-05-15T06:47:02.000Z</time>
      </trkpt>
      <trkpt lat="44.51843" lon="4.26303">
        <ele>285</ele>
        <time>2016-05-15T06:47:03.000Z</time>
      </trkpt>
      <trkpt lat="44.51842" lon="4.26301">
        <ele>285</ele>
        <time>2016-05-15T06:47:04.000Z</time>
      </trkpt>
      <trkpt lat="44.51841" lon="4.26299">
        <ele>285</ele>
        <time>2016-05-15T06:47:05.000Z</time>
      </trkpt>
      <trkpt lat="44.51839" lon="4.26297">
        <ele>285</ele>
        <time>2016-05-15T06:47:06.000Z</time>
      </trkpt>
      <trkpt lat="44.51838" lon="4.26295">
        <ele>285</ele>
        <time>2016-05-15T06:47:07.000Z</time>
      </trkpt>
      <trkpt lat="44.51836" lon="4.26293">
        <ele>285</ele>
        <time>2016-05-15T06:47:08.000Z</time>
      </trkpt>
      <trkpt lat="44.51834" lon="4.26291">
        <ele>286</ele>
        <time>2016-05-15T06:47:09.000Z</time>
      </trkpt>
      <trkpt lat="44.51832" lon="4.26289">
        <ele>287</ele>
        <time>2016-05-15T06:47:10.000Z</time>
      </trkpt>
      <trkpt lat="44.5183" lon="4.26287">
        <ele>287</ele>
        <time>2016-05-15T06:47:11.000Z</time>
      </trkpt>
      <trkpt lat="44.51828" lon="4.26285">
        <ele>287</ele>
        <time>2016-05-15T06:47:12.000Z</time>
      </trkpt>
      <trkpt lat="44.51826" lon="4.26283">
        <ele>287</ele>
        <time>2016-05-15T06:47:13.000Z</time>
      </trkpt>
      <trkpt lat="44.51824" lon="4.2628">
        <ele>287</ele>
        <time>2016-05-15T06:47:14.000Z</time>
      </trkpt>
      <trkpt lat="44.51822" lon="4.26278">
        <ele>287</ele>
        <time>2016-05-15T06:47:15.000Z</time>
      </trkpt>
      <trkpt lat="44.5182" lon="4.26275">
        <ele>287</ele>
        <time>2016-05-15T06:47:16.000Z</time>
      </trkpt>
      <trkpt lat="44.51819" lon="4.26272">
        <ele>287</ele>
        <time>2016-05-15T06:47:17.000Z</time>
      </trkpt>
      <trkpt lat="44.51817" lon="4.2627">
        <ele>287</ele>
        <time>2016-05-15T06:47:18.000Z</time>
      </trkpt>
      <trkpt lat="44.51815" lon="4.26267">
        <ele>287</ele>
        <time>2016-05-15T06:47:19.000Z</time>
      </trkpt>
      <trkpt lat="44.51814" lon="4.26264">
        <ele>287</ele>
        <time>2016-05-15T06:47:20.000Z</time>
      </trkpt>
      <trkpt lat="44.51812" lon="4.26261">
        <ele>287</ele>
        <time>2016-05-15T06:47:21.000Z</time>
      </trkpt>
      <trkpt lat="44.51811" lon="4.26258">
        <ele>287</ele>
        <time>2016-05-15T06:47:22.000Z</time>
      </trkpt>
      <trkpt lat="44.5181" lon="4.26255">
        <ele>287</ele>
        <time>2016-05-15T06:47:23.000Z</time>
      </trkpt>
      <trkpt lat="44.51808" lon="4.26251">
        <ele>287</ele>
        <time>2016-05-15T06:47:24.000Z</time>
      </trkpt>
      <trkpt lat="44.51807" lon="4.26248">
        <ele>290</ele>
        <time>2016-05-15T06:47:25.000Z</time>
      </trkpt>
      <trkpt lat="44.51806" lon="4.26244">
        <ele>290</ele>
        <time>2016-05-15T06:47:26.000Z</time>
      </trkpt>
      <trkpt lat="44.51804" lon="4.26241">
        <ele>290</ele>
        <time>2016-05-15T06:47:27.000Z</time>
      </trkpt>
      <trkpt lat="44.51803" lon="4.26237">
        <ele>290</ele>
        <time>2016-05-15T06:47:28.000Z</time>
      </trkpt>
      <trkpt lat="44.51802" lon="4.26234">
        <ele>290</ele>
        <time>2016-05-15T06:47:29.000Z</time>
      </trkpt>
      <trkpt lat="44.51801" lon="4.26231">
        <ele>290</ele>
        <time>2016-05-15T06:47:30.000Z</time>
      </trkpt>
      <trkpt lat="44.518" lon="4.26227">
        <ele>290</ele>
        <time>2016-05-15T06:47:31.000Z</time>
      </trkpt>
      <trkpt lat="44.51799" lon="4.26224">
        <ele>290</ele>
        <time>2016-05-15T06:47:32.000Z</time>
      </trkpt>
      <trkpt lat="44.51799" lon="4.26221">
        <ele>290</ele>
        <time>2016-05-15T06:47:33.000Z</time>
      </trkpt>
      <trkpt lat="44.51798" lon="4.26218">
        <ele>290</ele>
        <time>2016-05-15T06:47:34.000Z</time>
      </trkpt>
      <trkpt lat="44.51798" lon="4.26215">
        <ele>290</ele>
        <time>2016-05-15T06:47:35.000Z</time>
      </trkpt>
      <trkpt lat="44.51797" lon="4.26213">
        <ele>290</ele>
        <time>2016-05-15T06:47:36.000Z</time>
      </trkpt>
      <trkpt lat="44.51797" lon="4.2621">
        <ele>290</ele>
        <time>2016-05-15T06:47:37.000Z</time>
      </trkpt>
      <trkpt lat="44.51797" lon="4.26208">
        <ele>290</ele>
        <time>2016-05-15T06:47:38.000Z</time>
      </trkpt>
      <trkpt lat="44.51796" lon="4.26206">
        <ele>290</ele>
        <time>2016-05-15T06:47:39.000Z</time>
      </trkpt>
      <trkpt lat="44.51796" lon="4.26203">
        <ele>290</ele>
        <time>2016-05-15T06:47:40.000Z</time>
      </trkpt>
      <trkpt lat="44.51796" lon="4.26201">
        <ele>290</ele>
        <time>2016-05-15T06:47:41.000Z</time>
      </trkpt>
      <trkpt lat="44.51795" lon="4.26198">
        <ele>290</ele>
        <time>2016-05-15T06:47:42.000Z</time>
      </trkpt>
      <trkpt lat="44.51795" lon="4.26195">
        <ele>290</ele>
        <time>2016-05-15T06:47:43.000Z</time>
      </trkpt>
      <trkpt lat="44.51795" lon="4.26193">
        <ele>290</ele>
        <time>2016-05-15T06:47:44.000Z</time>
      </trkpt>
      <trkpt lat="44.51795" lon="4.2619">
        <ele>291</ele>
        <time>2016-05-15T06:47:45.000Z</time>
      </trkpt>
      <trkpt lat="44.51794" lon="4.26187">
        <ele>291</ele>
        <time>2016-05-15T06:47:46.000Z</time>
      </trkpt>
      <trkpt lat="44.51794" lon="4.26184">
        <ele>291</ele>
        <time>2016-05-15T06:47:47.000Z</time>
      </trkpt>
      <trkpt lat="44.51793" lon="4.26181">
        <ele>291</ele>
        <time>2016-05-15T06:47:48.000Z</time>
      </trkpt>
      <trkpt lat="44.51793" lon="4.26178">
        <ele>291</ele>
        <time>2016-05-15T06:47:49.000Z</time>
      </trkpt>
      <trkpt lat="44.51792" lon="4.26175">
        <ele>291</ele>
        <time>2016-05-15T06:47:50.000Z</time>
      </trkpt>
      <trkpt lat="44.51791" lon="4.26173">
        <ele>291</ele>
        <time>2016-05-15T06:47:51.000Z</time>
      </trkpt>
      <trkpt lat="44.5179" lon="4.2617">
        <ele>291</ele>
        <time>2016-05-15T06:47:52.000Z</time>
      </trkpt>
      <trkpt lat="44.51789" lon="4.26167">
        <ele>291</ele>
        <time>2016-05-15T06:47:53.000Z</time>
      </trkpt>
      <trkpt lat="44.51788" lon="4.26165">
        <ele>296</ele>
        <time>2016-05-15T06:47:54.000Z</time>
      </trkpt>
      <trkpt lat="44.51787" lon="4.26163">
        <ele>296</ele>
        <time>2016-05-15T06:47:55.000Z</time>
      </trkpt>
      <trkpt lat="44.51786" lon="4.26161">
        <ele>296</ele>
        <time>2016-05-15T06:47:56.000Z</time>
      </trkpt>
      <trkpt lat="44.51784" lon="4.26159">
        <ele>297</ele>
        <time>2016-05-15T06:47:57.000Z</time>
      </trkpt>
      <trkpt lat="44.51783" lon="4.26157">
        <ele>297</ele>
        <time>2016-05-15T06:47:58.000Z</time>
      </trkpt>
      <trkpt lat="44.51782" lon="4.26155">
        <ele>297</ele>
        <time>2016-05-15T06:47:59.000Z</time>
      </trkpt>
      <trkpt lat="44.5178" lon="4.26153">
        <ele>297</ele>
        <time>2016-05-15T06:48:00.000Z</time>
      </trkpt>
      <trkpt lat="44.51779" lon="4.26151">
        <ele>298</ele>
        <time>2016-05-15T06:48:01.000Z</time>
      </trkpt>
      <trkpt lat="44.51778" lon="4.2615">
        <ele>298</ele>
        <time>2016-05-15T06:48:02.000Z</time>
      </trkpt>
      <trkpt lat="44.51776" lon="4.26148">
        <ele>298</ele>
        <time>2016-05-15T06:48:03.000Z</time>
      </trkpt>
      <trkpt lat="44.51775" lon="4.26146">
        <ele>298</ele>
        <time>2016-05-15T06:48:04.000Z</time>
      </trkpt>
      <trkpt lat="44.51773" lon="4.26145">
        <ele>298</ele>
        <time>2016-05-15T06:48:05.000Z</time>
      </trkpt>
      <trkpt lat="44.51772" lon="4.26143">
        <ele>298</ele>
        <time>2016-05-15T06:48:06.000Z</time>
      </trkpt>
      <trkpt lat="44.5177" lon="4.26141">
        <ele>299</ele>
        <time>2016-05-15T06:48:07.000Z</time>
      </trkpt>
      <trkpt lat="44.51769" lon="4.26139">
        <ele>299</ele>
        <time>2016-05-15T06:48:08.000Z</time>
      </trkpt>
      <trkpt lat="44.51768" lon="4.26138">
        <ele>299</ele>
        <time>2016-05-15T06:48:09.000Z</time>
      </trkpt>
      <trkpt lat="44.51766" lon="4.26136">
        <ele>299</ele>
        <time>2016-05-15T06:48:10.000Z</time>
      </trkpt>
      <trkpt lat="44.51765" lon="4.26134">
        <ele>299</ele>
        <time>2016-05-15T06:48:11.000Z</time>
      </trkpt>
      <trkpt lat="44.51763" lon="4.26132">
        <ele>299</ele>
        <time>2016-05-15T06:48:12.000Z</time>
      </trkpt>
      <trkpt lat="44.51762" lon="4.2613">
        <ele>300</ele>
        <time>2016-05-15T06:48:13.000Z</time>
      </trkpt>
      <trkpt lat="44.51762" lon="4.26128">
        <ele>300</ele>
        <time>2016-05-15T06:48:14.000Z</time>
      </trkpt>
      <trkpt lat="44.51761" lon="4.26126">
        <ele>300</ele>
        <time>2016-05-15T06:48:15.000Z</time>
      </trkpt>
      <trkpt lat="44.5176" lon="4.26124">
        <ele>300</ele>
        <time>2016-05-15T06:48:16.000Z</time>
      </trkpt>
      <trkpt lat="44.51759" lon="4.26123">
        <ele>301</ele>
        <time>2016-05-15T06:48:17.000Z</time>
      </trkpt>
      <trkpt lat="44.51758" lon="4.26121">
        <ele>301</ele>
        <time>2016-05-15T06:48:18.000Z</time>
      </trkpt>
      <trkpt lat="44.51757" lon="4.2612">
        <ele>301</ele>
        <time>2016-05-15T06:48:19.000Z</time>
      </trkpt>
      <trkpt lat="44.51757" lon="4.26118">
        <ele>301</ele>
        <time>2016-05-15T06:48:20.000Z</time>
      </trkpt>
      <trkpt lat="44.51756" lon="4.26116">
        <ele>302</ele>
        <time>2016-05-15T06:48:21.000Z</time>
      </trkpt>
      <trkpt lat="44.51756" lon="4.26115">
        <ele>302</ele>
        <time>2016-05-15T06:48:22.000Z</time>
      </trkpt>
      <trkpt lat="44.51755" lon="4.26113">
        <ele>302</ele>
        <time>2016-05-15T06:48:23.000Z</time>
      </trkpt>
      <trkpt lat="44.51755" lon="4.26111">
        <ele>302</ele>
        <time>2016-05-15T06:48:24.000Z</time>
      </trkpt>
      <trkpt lat="44.51755" lon="4.2611">
        <ele>303</ele>
        <time>2016-05-15T06:48:25.000Z</time>
      </trkpt>
      <trkpt lat="44.51755" lon="4.26107">
        <ele>303</ele>
        <time>2016-05-15T06:48:26.000Z</time>
      </trkpt>
      <trkpt lat="44.51755" lon="4.26105">
        <ele>304</ele>
        <time>2016-05-15T06:48:27.000Z</time>
      </trkpt>
      <trkpt lat="44.51756" lon="4.26103">
        <ele>304</ele>
        <time>2016-05-15T06:48:28.000Z</time>
      </trkpt>
      <trkpt lat="44.51756" lon="4.26101">
        <ele>305</ele>
        <time>2016-05-15T06:48:29.000Z</time>
      </trkpt>
      <trkpt lat="44.51756" lon="4.26098">
        <ele>305</ele>
        <time>2016-05-15T06:48:30.000Z</time>
      </trkpt>
      <trkpt lat="44.51757" lon="4.26096">
        <ele>306</ele>
        <time>2016-05-15T06:48:31.000Z</time>
      </trkpt>
      <trkpt lat="44.51757" lon="4.26093">
        <ele>306</ele>
        <time>2016-05-15T06:48:32.000Z</time>
      </trkpt>
      <trkpt lat="44.51758" lon="4.26091">
        <ele>307</ele>
        <time>2016-05-15T06:48:33.000Z</time>
      </trkpt>
      <trkpt lat="44.51758" lon="4.26089">
        <ele>307</ele>
        <time>2016-05-15T06:48:34.000Z</time>
      </trkpt>
      <trkpt lat="44.51758" lon="4.26087">
        <ele>308</ele>
        <time>2016-05-15T06:48:35.000Z</time>
      </trkpt>
      <trkpt lat="44.51758" lon="4.26085">
        <ele>308</ele>
        <time>2016-05-15T06:48:36.000Z</time>
      </trkpt>
      <trkpt lat="44.51759" lon="4.26083">
        <ele>311</ele>
        <time>2016-05-15T06:48:37.000Z</time>
      </trkpt>
      <trkpt lat="44.51759" lon="4.26081">
        <ele>310</ele>
        <time>2016-05-15T06:48:38.000Z</time>
      </trkpt>
      <trkpt lat="44.5176" lon="4.26079">
        <ele>310</ele>
        <time>2016-05-15T06:48:39.000Z</time>
      </trkpt>
      <trkpt lat="44.5176" lon="4.26077">
        <ele>310</ele>
        <time>2016-05-15T06:48:40.000Z</time>
      </trkpt>
      <trkpt lat="44.51761" lon="4.26075">
        <ele>310</ele>
        <time>2016-05-15T06:48:41.000Z</time>
      </trkpt>
      <trkpt lat="44.51761" lon="4.26073">
        <ele>310</ele>
        <time>2016-05-15T06:48:42.000Z</time>
      </trkpt>
      <trkpt lat="44.51761" lon="4.26071">
        <ele>310</ele>
        <time>2016-05-15T06:48:43.000Z</time>
      </trkpt>
      <trkpt lat="44.51762" lon="4.26068">
        <ele>310</ele>
        <time>2016-05-15T06:48:44.000Z</time>
      </trkpt>
      <trkpt lat="44.51763" lon="4.26066">
        <ele>309</ele>
        <time>2016-05-15T06:48:45.000Z</time>
      </trkpt>
      <trkpt lat="44.51763" lon="4.26064">
        <ele>309</ele>
        <time>2016-05-15T06:48:46.000Z</time>
      </trkpt>
      <trkpt lat="44.51764" lon="4.26062">
        <ele>309</ele>
        <time>2016-05-15T06:48:47.000Z</time>
      </trkpt>
      <trkpt lat="44.51765" lon="4.2606">
        <ele>309</ele>
        <time>2016-05-15T06:48:48.000Z</time>
      </trkpt>
      <trkpt lat="44.51765" lon="4.26057">
        <ele>309</ele>
        <time>2016-05-15T06:48:49.000Z</time>
      </trkpt>
      <trkpt lat="44.51766" lon="4.26055">
        <ele>309</ele>
        <time>2016-05-15T06:48:50.000Z</time>
      </trkpt>
      <trkpt lat="44.51766" lon="4.26053">
        <ele>309</ele>
        <time>2016-05-15T06:48:51.000Z</time>
      </trkpt>
      <trkpt lat="44.51767" lon="4.2605">
        <ele>309</ele>
        <time>2016-05-15T06:48:52.000Z</time>
      </trkpt>
      <trkpt lat="44.51768" lon="4.26048">
        <ele>309</ele>
        <time>2016-05-15T06:48:53.000Z</time>
      </trkpt>
      <trkpt lat="44.51769" lon="4.26046">
        <ele>309</ele>
        <time>2016-05-15T06:48:54.000Z</time>
      </trkpt>
      <trkpt lat="44.51769" lon="4.26044">
        <ele>309</ele>
        <time>2016-05-15T06:48:55.000Z</time>
      </trkpt>
      <trkpt lat="44.5177" lon="4.26041">
        <ele>310</ele>
        <time>2016-05-15T06:48:56.000Z</time>
      </trkpt>
      <trkpt lat="44.51771" lon="4.26039">
        <ele>310</ele>
        <time>2016-05-15T06:48:57.000Z</time>
      </trkpt>
      <trkpt lat="44.51772" lon="4.26036">
        <ele>310</ele>
        <time>2016-05-15T06:48:58.000Z</time>
      </trkpt>
      <trkpt lat="44.51772" lon="4.26033">
        <ele>310</ele>
        <time>2016-05-15T06:48:59.000Z</time>
      </trkpt>
      <trkpt lat="44.51773" lon="4.2603">
        <ele>310</ele>
        <time>2016-05-15T06:49:00.000Z</time>
      </trkpt>
      <trkpt lat="44.51773" lon="4.26027">
        <ele>310</ele>
        <time>2016-05-15T06:49:01.000Z</time>
      </trkpt>
      <trkpt lat="44.51774" lon="4.26023">
        <ele>311</ele>
        <time>2016-05-15T06:49:02.000Z</time>
      </trkpt>
      <trkpt lat="44.51775" lon="4.2602">
        <ele>311</ele>
        <time>2016-05-15T06:49:03.000Z</time>
      </trkpt>
      <trkpt lat="44.51775" lon="4.26016">
        <ele>311</ele>
        <time>2016-05-15T06:49:04.000Z</time>
      </trkpt>
      <trkpt lat="44.51776" lon="4.26013">
        <ele>311</ele>
        <time>2016-05-15T06:49:05.000Z</time>
      </trkpt>
      <trkpt lat="44.51776" lon="4.2601">
        <ele>312</ele>
        <time>2016-05-15T06:49:06.000Z</time>
      </trkpt>
      <trkpt lat="44.51777" lon="4.26006">
        <ele>312</ele>
        <time>2016-05-15T06:49:07.000Z</time>
      </trkpt>
      <trkpt lat="44.51777" lon="4.26003">
        <ele>312</ele>
        <time>2016-05-15T06:49:08.000Z</time>
      </trkpt>
      <trkpt lat="44.51778" lon="4.26001">
        <ele>312</ele>
        <time>2016-05-15T06:49:09.000Z</time>
      </trkpt>
      <trkpt lat="44.51778" lon="4.25998">
        <ele>316</ele>
        <time>2016-05-15T06:49:10.000Z</time>
      </trkpt>
      <trkpt lat="44.51779" lon="4.25995">
        <ele>316</ele>
        <time>2016-05-15T06:49:11.000Z</time>
      </trkpt>
      <trkpt lat="44.5178" lon="4.25992">
        <ele>316</ele>
        <time>2016-05-15T06:49:12.000Z</time>
      </trkpt>
      <trkpt lat="44.5178" lon="4.25989">
        <ele>316</ele>
        <time>2016-05-15T06:49:13.000Z</time>
      </trkpt>
      <trkpt lat="44.51781" lon="4.25986">
        <ele>316</ele>
        <time>2016-05-15T06:49:14.000Z</time>
      </trkpt>
      <trkpt lat="44.51782" lon="4.25982">
        <ele>316</ele>
        <time>2016-05-15T06:49:15.000Z</time>
      </trkpt>
      <trkpt lat="44.51783" lon="4.25978">
        <ele>316</ele>
        <time>2016-05-15T06:49:16.000Z</time>
      </trkpt>
      <trkpt lat="44.51784" lon="4.25974">
        <ele>315</ele>
        <time>2016-05-15T06:49:17.000Z</time>
      </trkpt>
      <trkpt lat="44.51786" lon="4.2597">
        <ele>315</ele>
        <time>2016-05-15T06:49:18.000Z</time>
      </trkpt>
      <trkpt lat="44.51788" lon="4.25967">
        <ele>315</ele>
        <time>2016-05-15T06:49:19.000Z</time>
      </trkpt>
      <trkpt lat="44.51789" lon="4.25963">
        <ele>315</ele>
        <time>2016-05-15T06:49:20.000Z</time>
      </trkpt>
      <trkpt lat="44.51791" lon="4.25959">
        <ele>315</ele>
        <time>2016-05-15T06:49:21.000Z</time>
      </trkpt>
      <trkpt lat="44.51792" lon="4.25955">
        <ele>315</ele>
        <time>2016-05-15T06:49:22.000Z</time>
      </trkpt>
      <trkpt lat="44.51794" lon="4.25951">
        <ele>315</ele>
        <time>2016-05-15T06:49:23.000Z</time>
      </trkpt>
      <trkpt lat="44.51795" lon="4.25947">
        <ele>315</ele>
        <time>2016-05-15T06:49:24.000Z</time>
      </trkpt>
      <trkpt lat="44.51797" lon="4.25943">
        <ele>315</ele>
        <time>2016-05-15T06:49:25.000Z</time>
      </trkpt>
      <trkpt lat="44.51799" lon="4.2594">
        <ele>315</ele>
        <time>2016-05-15T06:49:26.000Z</time>
      </trkpt>
      <trkpt lat="44.51801" lon="4.25937">
        <ele>315</ele>
        <time>2016-05-15T06:49:27.000Z</time>
      </trkpt>
      <trkpt lat="44.51802" lon="4.25934">
        <ele>315</ele>
        <time>2016-05-15T06:49:28.000Z</time>
      </trkpt>
      <trkpt lat="44.51804" lon="4.25931">
        <ele>315</ele>
        <time>2016-05-15T06:49:29.000Z</time>
      </trkpt>
      <trkpt lat="44.51805" lon="4.25928">
        <ele>315</ele>
        <time>2016-05-15T06:49:30.000Z</time>
      </trkpt>
      <trkpt lat="44.51806" lon="4.25924">
        <ele>315</ele>
        <time>2016-05-15T06:49:31.000Z</time>
      </trkpt>
      <trkpt lat="44.51807" lon="4.25921">
        <ele>314</ele>
        <time>2016-05-15T06:49:32.000Z</time>
      </trkpt>
      <trkpt lat="44.51809" lon="4.25918">
        <ele>314</ele>
        <time>2016-05-15T06:49:33.000Z</time>
      </trkpt>
      <trkpt lat="44.5181" lon="4.25914">
        <ele>319</ele>
        <time>2016-05-15T06:49:34.000Z</time>
      </trkpt>
      <trkpt lat="44.51811" lon="4.25911">
        <ele>319</ele>
        <time>2016-05-15T06:49:35.000Z</time>
      </trkpt>
      <trkpt lat="44.51812" lon="4.25908">
        <ele>319</ele>
        <time>2016-05-15T06:49:36.000Z</time>
      </trkpt>
      <trkpt lat="44.51813" lon="4.25905">
        <ele>319</ele>
        <time>2016-05-15T06:49:37.000Z</time>
      </trkpt>
      <trkpt lat="44.51814" lon="4.25902">
        <ele>319</ele>
        <time>2016-05-15T06:49:38.000Z</time>
      </trkpt>
      <trkpt lat="44.51815" lon="4.25899">
        <ele>319</ele>
        <time>2016-05-15T06:49:39.000Z</time>
      </trkpt>
      <trkpt lat="44.51816" lon="4.25896">
        <ele>320</ele>
        <time>2016-05-15T06:49:40.000Z</time>
      </trkpt>
      <trkpt lat="44.51817" lon="4.25892">
        <ele>320</ele>
        <time>2016-05-15T06:49:41.000Z</time>
      </trkpt>
      <trkpt lat="44.51818" lon="4.25889">
        <ele>321</ele>
        <time>2016-05-15T06:49:42.000Z</time>
      </trkpt>
      <trkpt lat="44.51819" lon="4.25886">
        <ele>321</ele>
        <time>2016-05-15T06:49:43.000Z</time>
      </trkpt>
      <trkpt lat="44.5182" lon="4.25883">
        <ele>321</ele>
        <time>2016-05-15T06:49:44.000Z</time>
      </trkpt>
      <trkpt lat="44.51821" lon="4.25879">
        <ele>322</ele>
        <time>2016-05-15T06:49:45.000Z</time>
      </trkpt>
      <trkpt lat="44.51823" lon="4.25876">
        <ele>322</ele>
        <time>2016-05-15T06:49:46.000Z</time>
      </trkpt>
      <trkpt lat="44.51824" lon="4.25873">
        <ele>322</ele>
        <time>2016-05-15T06:49:47.000Z</time>
      </trkpt>
      <trkpt lat="44.51825" lon="4.25871">
        <ele>323</ele>
        <time>2016-05-15T06:49:48.000Z</time>
      </trkpt>
      <trkpt lat="44.51827" lon="4.25868">
        <ele>323</ele>
        <time>2016-05-15T06:49:49.000Z</time>
      </trkpt>
      <trkpt lat="44.51828" lon="4.25866">
        <ele>323</ele>
        <time>2016-05-15T06:49:50.000Z</time>
      </trkpt>
      <trkpt lat="44.51829" lon="4.25864">
        <ele>323</ele>
        <time>2016-05-15T06:49:51.000Z</time>
      </trkpt>
      <trkpt lat="44.51831" lon="4.25861">
        <ele>324</ele>
        <time>2016-05-15T06:49:52.000Z</time>
      </trkpt>
      <trkpt lat="44.51832" lon="4.2586">
        <ele>324</ele>
        <time>2016-05-15T06:49:53.000Z</time>
      </trkpt>
      <trkpt lat="44.51834" lon="4.25858">
        <ele>315</ele>
        <time>2016-05-15T06:49:54.000Z</time>
      </trkpt>
      <trkpt lat="44.51835" lon="4.25856">
        <ele>316</ele>
        <time>2016-05-15T06:49:55.000Z</time>
      </trkpt>
      <trkpt lat="44.51836" lon="4.25854">
        <ele>316</ele>
        <time>2016-05-15T06:49:56.000Z</time>
      </trkpt>
      <trkpt lat="44.51838" lon="4.25852">
        <ele>317</ele>
        <time>2016-05-15T06:49:57.000Z</time>
      </trkpt>
      <trkpt lat="44.51839" lon="4.25851">
        <ele>317</ele>
        <time>2016-05-15T06:49:58.000Z</time>
      </trkpt>
      <trkpt lat="44.5184" lon="4.25848">
        <ele>318</ele>
        <time>2016-05-15T06:49:59.000Z</time>
      </trkpt>
      <trkpt lat="44.51841" lon="4.25846">
        <ele>318</ele>
        <time>2016-05-15T06:50:00.000Z</time>
      </trkpt>
      <trkpt lat="44.51842" lon="4.25844">
        <ele>319</ele>
        <time>2016-05-15T06:50:01.000Z</time>
      </trkpt>
      <trkpt lat="44.51843" lon="4.25842">
        <ele>319</ele>
        <time>2016-05-15T06:50:02.000Z</time>
      </trkpt>
      <trkpt lat="44.51844" lon="4.2584">
        <ele>319</ele>
        <time>2016-05-15T06:50:03.000Z</time>
      </trkpt>
      <trkpt lat="44.51845" lon="4.25838">
        <ele>319</ele>
        <time>2016-05-15T06:50:04.000Z</time>
      </trkpt>
      <trkpt lat="44.51846" lon="4.25836">
        <ele>319</ele>
        <time>2016-05-15T06:50:05.000Z</time>
      </trkpt>
      <trkpt lat="44.51846" lon="4.25834">
        <ele>319</ele>
        <time>2016-05-15T06:50:06.000Z</time>
      </trkpt>
      <trkpt lat="44.51847" lon="4.25832">
        <ele>326</ele>
        <time>2016-05-15T06:50:07.000Z</time>
      </trkpt>
      <trkpt lat="44.51847" lon="4.2583">
        <ele>326</ele>
        <time>2016-05-15T06:50:08.000Z</time>
      </trkpt>
      <trkpt lat="44.51848" lon="4.25828">
        <ele>326</ele>
        <time>2016-05-15T06:50:09.000Z</time>
      </trkpt>
      <trkpt lat="44.51849" lon="4.25826">
        <ele>326</ele>
        <time>2016-05-15T06:50:10.000Z</time>
      </trkpt>
      <trkpt lat="44.51849" lon="4.25824">
        <ele>326</ele>
        <time>2016-05-15T06:50:11.000Z</time>
      </trkpt>
      <trkpt lat="44.5185" lon="4.25822">
        <ele>325</ele>
        <time>2016-05-15T06:50:12.000Z</time>
      </trkpt>
      <trkpt lat="44.51851" lon="4.2582">
        <ele>325</ele>
        <time>2016-05-15T06:50:13.000Z</time>
      </trkpt>
      <trkpt lat="44.51852" lon="4.25818">
        <ele>325</ele>
        <time>2016-05-15T06:50:14.000Z</time>
      </trkpt>
      <trkpt lat="44.51853" lon="4.25816">
        <ele>325</ele>
        <time>2016-05-15T06:50:15.000Z</time>
      </trkpt>
      <trkpt lat="44.51854" lon="4.25814">
        <ele>325</ele>
        <time>2016-05-15T06:50:16.000Z</time>
      </trkpt>
      <trkpt lat="44.51855" lon="4.25812">
        <ele>325</ele>
        <time>2016-05-15T06:50:17.000Z</time>
      </trkpt>
      <trkpt lat="44.51856" lon="4.2581">
        <ele>325</ele>
        <time>2016-05-15T06:50:18.000Z</time>
      </trkpt>
      <trkpt lat="44.51856" lon="4.25809">
        <ele>325</ele>
        <time>2016-05-15T06:50:19.000Z</time>
      </trkpt>
      <trkpt lat="44.51857" lon="4.25807">
        <ele>326</ele>
        <time>2016-05-15T06:50:20.000Z</time>
      </trkpt>
      <trkpt lat="44.51858" lon="4.25805">
        <ele>326</ele>
        <time>2016-05-15T06:50:21.000Z</time>
      </trkpt>
      <trkpt lat="44.51859" lon="4.25803">
        <ele>326</ele>
        <time>2016-05-15T06:50:22.000Z</time>
      </trkpt>
      <trkpt lat="44.51859" lon="4.25801">
        <ele>326</ele>
        <time>2016-05-15T06:50:23.000Z</time>
      </trkpt>
      <trkpt lat="44.5186" lon="4.258">
        <ele>326</ele>
        <time>2016-05-15T06:50:24.000Z</time>
      </trkpt>
      <trkpt lat="44.51861" lon="4.25798">
        <ele>326</ele>
        <time>2016-05-15T06:50:25.000Z</time>
      </trkpt>
      <trkpt lat="44.51862" lon="4.25796">
        <ele>326</ele>
        <time>2016-05-15T06:50:26.000Z</time>
      </trkpt>
      <trkpt lat="44.51863" lon="4.25795">
        <ele>326</ele>
        <time>2016-05-15T06:50:27.000Z</time>
      </trkpt>
      <trkpt lat="44.51863" lon="4.25793">
        <ele>326</ele>
        <time>2016-05-15T06:50:28.000Z</time>
      </trkpt>
      <trkpt lat="44.51864" lon="4.25791">
        <ele>326</ele>
        <time>2016-05-15T06:50:29.000Z</time>
      </trkpt>
      <trkpt lat="44.51865" lon="4.25789">
        <ele>326</ele>
        <time>2016-05-15T06:50:30.000Z</time>
      </trkpt>
      <trkpt lat="44.51866" lon="4.25787">
        <ele>327</ele>
        <time>2016-05-15T06:50:31.000Z</time>
      </trkpt>
      <trkpt lat="44.51867" lon="4.25785">
        <ele>327</ele>
        <time>2016-05-15T06:50:32.000Z</time>
      </trkpt>
      <trkpt lat="44.51868" lon="4.25784">
        <ele>327</ele>
        <time>2016-05-15T06:50:33.000Z</time>
      </trkpt>
      <trkpt lat="44.51869" lon="4.25782">
        <ele>327</ele>
        <time>2016-05-15T06:50:34.000Z</time>
      </trkpt>
      <trkpt lat="44.5187" lon="4.2578">
        <ele>327</ele>
        <time>2016-05-15T06:50:35.000Z</time>
      </trkpt>
      <trkpt lat="44.5187" lon="4.25777">
        <ele>327</ele>
        <time>2016-05-15T06:50:36.000Z</time>
      </trkpt>
      <trkpt lat="44.51871" lon="4.25776">
        <ele>327</ele>
        <time>2016-05-15T06:50:37.000Z</time>
      </trkpt>
      <trkpt lat="44.51872" lon="4.25774">
        <ele>327</ele>
        <time>2016-05-15T06:50:38.000Z</time>
      </trkpt>
      <trkpt lat="44.51873" lon="4.25772">
        <ele>327</ele>
        <time>2016-05-15T06:50:39.000Z</time>
      </trkpt>
      <trkpt lat="44.51873" lon="4.2577">
        <ele>327</ele>
        <time>2016-05-15T06:50:40.000Z</time>
      </trkpt>
      <trkpt lat="44.51874" lon="4.25768">
        <ele>327</ele>
        <time>2016-05-15T06:50:41.000Z</time>
      </trkpt>
      <trkpt lat="44.51874" lon="4.25767">
        <ele>328</ele>
        <time>2016-05-15T06:50:42.000Z</time>
      </trkpt>
      <trkpt lat="44.51875" lon="4.25764">
        <ele>328</ele>
        <time>2016-05-15T06:50:43.000Z</time>
      </trkpt>
      <trkpt lat="44.51876" lon="4.25763">
        <ele>328</ele>
        <time>2016-05-15T06:50:44.000Z</time>
      </trkpt>
      <trkpt lat="44.51877" lon="4.25761">
        <ele>328</ele>
        <time>2016-05-15T06:50:45.000Z</time>
      </trkpt>
      <trkpt lat="44.51878" lon="4.2576">
        <ele>328</ele>
        <time>2016-05-15T06:50:46.000Z</time>
      </trkpt>
      <trkpt lat="44.51879" lon="4.25759">
        <ele>328</ele>
        <time>2016-05-15T06:50:47.000Z</time>
      </trkpt>
      <trkpt lat="44.51879" lon="4.25757">
        <ele>328</ele>
        <time>2016-05-15T06:50:48.000Z</time>
      </trkpt>
      <trkpt lat="44.5188" lon="4.25755">
        <ele>328</ele>
        <time>2016-05-15T06:50:49.000Z</time>
      </trkpt>
      <trkpt lat="44.51881" lon="4.25753">
        <ele>328</ele>
        <time>2016-05-15T06:50:50.000Z</time>
      </trkpt>
      <trkpt lat="44.51881" lon="4.25752">
        <ele>328</ele>
        <time>2016-05-15T06:50:51.000Z</time>
      </trkpt>
      <trkpt lat="44.51882" lon="4.2575">
        <ele>328</ele>
        <time>2016-05-15T06:50:52.000Z</time>
      </trkpt>
      <trkpt lat="44.51883" lon="4.25748">
        <ele>335</ele>
        <time>2016-05-15T06:50:53.000Z</time>
      </trkpt>
      <trkpt lat="44.51883" lon="4.25746">
        <ele>335</ele>
        <time>2016-05-15T06:50:54.000Z</time>
      </trkpt>
      <trkpt lat="44.51884" lon="4.25744">
        <ele>334</ele>
        <time>2016-05-15T06:50:55.000Z</time>
      </trkpt>
      <trkpt lat="44.51885" lon="4.25742">
        <ele>334</ele>
        <time>2016-05-15T06:50:56.000Z</time>
      </trkpt>
      <trkpt lat="44.51886" lon="4.2574">
        <ele>334</ele>
        <time>2016-05-15T06:50:57.000Z</time>
      </trkpt>
      <trkpt lat="44.51886" lon="4.25738">
        <ele>334</ele>
        <time>2016-05-15T06:50:58.000Z</time>
      </trkpt>
      <trkpt lat="44.51887" lon="4.25736">
        <ele>334</ele>
        <time>2016-05-15T06:50:59.000Z</time>
      </trkpt>
      <trkpt lat="44.51887" lon="4.25734">
        <ele>334</ele>
        <time>2016-05-15T06:51:00.000Z</time>
      </trkpt>
      <trkpt lat="44.51887" lon="4.25732">
        <ele>334</ele>
        <time>2016-05-15T06:51:01.000Z</time>
      </trkpt>
      <trkpt lat="44.51888" lon="4.2573">
        <ele>335</ele>
        <time>2016-05-15T06:51:02.000Z</time>
      </trkpt>
      <trkpt lat="44.51889" lon="4.25728">
        <ele>335</ele>
        <time>2016-05-15T06:51:03.000Z</time>
      </trkpt>
      <trkpt lat="44.51889" lon="4.25725">
        <ele>335</ele>
        <time>2016-05-15T06:51:04.000Z</time>
      </trkpt>
      <trkpt lat="44.5189" lon="4.25723">
        <ele>335</ele>
        <time>2016-05-15T06:51:05.000Z</time>
      </trkpt>
      <trkpt lat="44.5189" lon="4.25721">
        <ele>335</ele>
        <time>2016-05-15T06:51:06.000Z</time>
      </trkpt>
      <trkpt lat="44.5189" lon="4.25718">
        <ele>335</ele>
        <time>2016-05-15T06:51:07.000Z</time>
      </trkpt>
      <trkpt lat="44.5189" lon="4.25715">
        <ele>335</ele>
        <time>2016-05-15T06:51:08.000Z</time>
      </trkpt>
      <trkpt lat="44.5189" lon="4.25713">
        <ele>335</ele>
        <time>2016-05-15T06:51:09.000Z</time>
      </trkpt>
      <trkpt lat="44.5189" lon="4.2571">
        <ele>335</ele>
        <time>2016-05-15T06:51:10.000Z</time>
      </trkpt>
      <trkpt lat="44.51889" lon="4.25708">
        <ele>336</ele>
        <time>2016-05-15T06:51:11.000Z</time>
      </trkpt>
      <trkpt lat="44.51888" lon="4.25706">
        <ele>336</ele>
        <time>2016-05-15T06:51:12.000Z</time>
      </trkpt>
      <trkpt lat="44.51888" lon="4.25704">
        <ele>336</ele>
        <time>2016-05-15T06:51:13.000Z</time>
      </trkpt>
      <trkpt lat="44.51887" lon="4.25702">
        <ele>336</ele>
        <time>2016-05-15T06:51:14.000Z</time>
      </trkpt>
      <trkpt lat="44.51886" lon="4.25699">
        <ele>336</ele>
        <time>2016-05-15T06:51:15.000Z</time>
      </trkpt>
      <trkpt lat="44.51886" lon="4.25697">
        <ele>336</ele>
        <time>2016-05-15T06:51:16.000Z</time>
      </trkpt>
      <trkpt lat="44.51885" lon="4.25694">
        <ele>336</ele>
        <time>2016-05-15T06:51:17.000Z</time>
      </trkpt>
      <trkpt lat="44.51885" lon="4.25691">
        <ele>336</ele>
        <time>2016-05-15T06:51:18.000Z</time>
      </trkpt>
      <trkpt lat="44.51885" lon="4.25689">
        <ele>336</ele>
        <time>2016-05-15T06:51:19.000Z</time>
      </trkpt>
      <trkpt lat="44.51884" lon="4.25686">
        <ele>336</ele>
        <time>2016-05-15T06:51:20.000Z</time>
      </trkpt>
      <trkpt lat="44.51884" lon="4.25683">
        <ele>336</ele>
        <time>2016-05-15T06:51:21.000Z</time>
      </trkpt>
      <trkpt lat="44.51883" lon="4.25681">
        <ele>337</ele>
        <time>2016-05-15T06:51:22.000Z</time>
      </trkpt>
      <trkpt lat="44.51883" lon="4.25679">
        <ele>337</ele>
        <time>2016-05-15T06:51:23.000Z</time>
      </trkpt>
      <trkpt lat="44.51882" lon="4.25676">
        <ele>337</ele>
        <time>2016-05-15T06:51:24.000Z</time>
      </trkpt>
      <trkpt lat="44.51881" lon="4.25674">
        <ele>337</ele>
        <time>2016-05-15T06:51:25.000Z</time>
      </trkpt>
      <trkpt lat="44.5188" lon="4.25672">
        <ele>337</ele>
        <time>2016-05-15T06:51:26.000Z</time>
      </trkpt>
      <trkpt lat="44.51879" lon="4.25669">
        <ele>337</ele>
        <time>2016-05-15T06:51:27.000Z</time>
      </trkpt>
      <trkpt lat="44.51878" lon="4.25667">
        <ele>337</ele>
        <time>2016-05-15T06:51:28.000Z</time>
      </trkpt>
      <trkpt lat="44.51877" lon="4.25665">
        <ele>337</ele>
        <time>2016-05-15T06:51:29.000Z</time>
      </trkpt>
      <trkpt lat="44.51875" lon="4.25663">
        <ele>337</ele>
        <time>2016-05-15T06:51:30.000Z</time>
      </trkpt>
      <trkpt lat="44.51874" lon="4.25661">
        <ele>337</ele>
        <time>2016-05-15T06:51:31.000Z</time>
      </trkpt>
      <trkpt lat="44.51872" lon="4.25659">
        <ele>337</ele>
        <time>2016-05-15T06:51:32.000Z</time>
      </trkpt>
      <trkpt lat="44.5187" lon="4.25657">
        <ele>338</ele>
        <time>2016-05-15T06:51:33.000Z</time>
      </trkpt>
      <trkpt lat="44.51868" lon="4.25654">
        <ele>338</ele>
        <time>2016-05-15T06:51:34.000Z</time>
      </trkpt>
      <trkpt lat="44.51866" lon="4.25651">
        <ele>338</ele>
        <time>2016-05-15T06:51:35.000Z</time>
      </trkpt>
      <trkpt lat="44.51863" lon="4.25648">
        <ele>338</ele>
        <time>2016-05-15T06:51:36.000Z</time>
      </trkpt>
      <trkpt lat="44.51861" lon="4.25644">
        <ele>338</ele>
        <time>2016-05-15T06:51:37.000Z</time>
      </trkpt>
      <trkpt lat="44.5186" lon="4.2564">
        <ele>338</ele>
        <time>2016-05-15T06:51:38.000Z</time>
      </trkpt>
      <trkpt lat="44.51859" lon="4.25636">
        <ele>338</ele>
        <time>2016-05-15T06:51:39.000Z</time>
      </trkpt>
      <trkpt lat="44.51857" lon="4.25632">
        <ele>338</ele>
        <time>2016-05-15T06:51:40.000Z</time>
      </trkpt>
      <trkpt lat="44.51856" lon="4.25629">
        <ele>338</ele>
        <time>2016-05-15T06:51:41.000Z</time>
      </trkpt>
      <trkpt lat="44.51854" lon="4.25625">
        <ele>338</ele>
        <time>2016-05-15T06:51:42.000Z</time>
      </trkpt>
      <trkpt lat="44.51852" lon="4.25622">
        <ele>338</ele>
        <time>2016-05-15T06:51:43.000Z</time>
      </trkpt>
      <trkpt lat="44.51851" lon="4.25617">
        <ele>338</ele>
        <time>2016-05-15T06:51:44.000Z</time>
      </trkpt>
      <trkpt lat="44.5185" lon="4.25613">
        <ele>338</ele>
        <time>2016-05-15T06:51:45.000Z</time>
      </trkpt>
      <trkpt lat="44.51848" lon="4.25609">
        <ele>338</ele>
        <time>2016-05-15T06:51:46.000Z</time>
      </trkpt>
      <trkpt lat="44.51846" lon="4.25604">
        <ele>338</ele>
        <time>2016-05-15T06:51:47.000Z</time>
      </trkpt>
      <trkpt lat="44.51844" lon="4.256">
        <ele>339</ele>
        <time>2016-05-15T06:51:48.000Z</time>
      </trkpt>
      <trkpt lat="44.51843" lon="4.25596">
        <ele>339</ele>
        <time>2016-05-15T06:51:49.000Z</time>
      </trkpt>
      <trkpt lat="44.51842" lon="4.25592">
        <ele>340</ele>
        <time>2016-05-15T06:51:50.000Z</time>
      </trkpt>
      <trkpt lat="44.51841" lon="4.25588">
        <ele>340</ele>
        <time>2016-05-15T06:51:51.000Z</time>
      </trkpt>
      <trkpt lat="44.51841" lon="4.25583">
        <ele>338</ele>
        <time>2016-05-15T06:51:52.000Z</time>
      </trkpt>
      <trkpt lat="44.5184" lon="4.25578">
        <ele>338</ele>
        <time>2016-05-15T06:51:53.000Z</time>
      </trkpt>
      <trkpt lat="44.5184" lon="4.25572">
        <ele>336</ele>
        <time>2016-05-15T06:51:54.000Z</time>
      </trkpt>
      <trkpt lat="44.5184" lon="4.25565">
        <ele>334</ele>
        <time>2016-05-15T06:51:55.000Z</time>
      </trkpt>
      <trkpt lat="44.5184" lon="4.25557">
        <ele>333</ele>
        <time>2016-05-15T06:51:56.000Z</time>
      </trkpt>
      <trkpt lat="44.51839" lon="4.25548">
        <ele>332</ele>
        <time>2016-05-15T06:51:57.000Z</time>
      </trkpt>
      <trkpt lat="44.51838" lon="4.2554">
        <ele>332</ele>
        <time>2016-05-15T06:51:58.000Z</time>
      </trkpt>
      <trkpt lat="44.51837" lon="4.25534">
        <ele>331</ele>
        <time>2016-05-15T06:51:59.000Z</time>
      </trkpt>
      <trkpt lat="44.51836" lon="4.25529">
        <ele>332</ele>
        <time>2016-05-15T06:52:00.000Z</time>
      </trkpt>
      <trkpt lat="44.51834" lon="4.25525">
        <ele>332</ele>
        <time>2016-05-15T06:52:01.000Z</time>
      </trkpt>
      <trkpt lat="44.51832" lon="4.25522">
        <ele>340</ele>
        <time>2016-05-15T06:52:02.000Z</time>
      </trkpt>
      <trkpt lat="44.5183" lon="4.25517">
        <ele>339</ele>
        <time>2016-05-15T06:52:03.000Z</time>
      </trkpt>
      <trkpt lat="44.51829" lon="4.25513">
        <ele>339</ele>
        <time>2016-05-15T06:52:04.000Z</time>
      </trkpt>
      <trkpt lat="44.51827" lon="4.25508">
        <ele>339</ele>
        <time>2016-05-15T06:52:05.000Z</time>
      </trkpt>
      <trkpt lat="44.51826" lon="4.25505">
        <ele>338</ele>
        <time>2016-05-15T06:52:06.000Z</time>
      </trkpt>
      <trkpt lat="44.51824" lon="4.25501">
        <ele>338</ele>
        <time>2016-05-15T06:52:07.000Z</time>
      </trkpt>
      <trkpt lat="44.51823" lon="4.25496">
        <ele>336</ele>
        <time>2016-05-15T06:52:08.000Z</time>
      </trkpt>
      <trkpt lat="44.51822" lon="4.25492">
        <ele>336</ele>
        <time>2016-05-15T06:52:09.000Z</time>
      </trkpt>
      <trkpt lat="44.51821" lon="4.25487">
        <ele>336</ele>
        <time>2016-05-15T06:52:10.000Z</time>
      </trkpt>
      <trkpt lat="44.5182" lon="4.25482">
        <ele>335</ele>
        <time>2016-05-15T06:52:11.000Z</time>
      </trkpt>
      <trkpt lat="44.51819" lon="4.25477">
        <ele>335</ele>
        <time>2016-05-15T06:52:12.000Z</time>
      </trkpt>
      <trkpt lat="44.51818" lon="4.25471">
        <ele>335</ele>
        <time>2016-05-15T06:52:13.000Z</time>
      </trkpt>
      <trkpt lat="44.51816" lon="4.25465">
        <ele>334</ele>
        <time>2016-05-15T06:52:14.000Z</time>
      </trkpt>
      <trkpt lat="44.51814" lon="4.2546">
        <ele>334</ele>
        <time>2016-05-15T06:52:15.000Z</time>
      </trkpt>
      <trkpt lat="44.51812" lon="4.25455">
        <ele>333</ele>
        <time>2016-05-15T06:52:16.000Z</time>
      </trkpt>
      <trkpt lat="44.5181" lon="4.25449">
        <ele>333</ele>
        <time>2016-05-15T06:52:17.000Z</time>
      </trkpt>
      <trkpt lat="44.51807" lon="4.25444">
        <ele>333</ele>
        <time>2016-05-15T06:52:18.000Z</time>
      </trkpt>
      <trkpt lat="44.51804" lon="4.25439">
        <ele>332</ele>
        <time>2016-05-15T06:52:19.000Z</time>
      </trkpt>
      <trkpt lat="44.51801" lon="4.25434">
        <ele>332</ele>
        <time>2016-05-15T06:52:20.000Z</time>
      </trkpt>
      <trkpt lat="44.51797" lon="4.2543">
        <ele>333</ele>
        <time>2016-05-15T06:52:21.000Z</time>
      </trkpt>
      <trkpt lat="44.51793" lon="4.25426">
        <ele>333</ele>
        <time>2016-05-15T06:52:22.000Z</time>
      </trkpt>
      <trkpt lat="44.51789" lon="4.2542">
        <ele>333</ele>
        <time>2016-05-15T06:52:23.000Z</time>
      </trkpt>
      <trkpt lat="44.51785" lon="4.25416">
        <ele>326</ele>
        <time>2016-05-15T06:52:24.000Z</time>
      </trkpt>
      <trkpt lat="44.51781" lon="4.25411">
        <ele>326</ele>
        <time>2016-05-15T06:52:25.000Z</time>
      </trkpt>
      <trkpt lat="44.51777" lon="4.25407">
        <ele>327</ele>
        <time>2016-05-15T06:52:26.000Z</time>
      </trkpt>
      <trkpt lat="44.51773" lon="4.25402">
        <ele>327</ele>
        <time>2016-05-15T06:52:27.000Z</time>
      </trkpt>
      <trkpt lat="44.51769" lon="4.25398">
        <ele>327</ele>
        <time>2016-05-15T06:52:28.000Z</time>
      </trkpt>
      <trkpt lat="44.51765" lon="4.25394">
        <ele>327</ele>
        <time>2016-05-15T06:52:29.000Z</time>
      </trkpt>
      <trkpt lat="44.5176" lon="4.25389">
        <ele>327</ele>
        <time>2016-05-15T06:52:30.000Z</time>
      </trkpt>
      <trkpt lat="44.51755" lon="4.25386">
        <ele>327</ele>
        <time>2016-05-15T06:52:31.000Z</time>
      </trkpt>
      <trkpt lat="44.5175" lon="4.25381">
        <ele>334</ele>
        <time>2016-05-15T06:52:32.000Z</time>
      </trkpt>
      <trkpt lat="44.51744" lon="4.25377">
        <ele>334</ele>
        <time>2016-05-15T06:52:33.000Z</time>
      </trkpt>
      <trkpt lat="44.51739" lon="4.25373">
        <ele>334</ele>
        <time>2016-05-15T06:52:34.000Z</time>
      </trkpt>
      <trkpt lat="44.51734" lon="4.2537">
        <ele>334</ele>
        <time>2016-05-15T06:52:35.000Z</time>
      </trkpt>
      <trkpt lat="44.51728" lon="4.25366">
        <ele>334</ele>
        <time>2016-05-15T06:52:36.000Z</time>
      </trkpt>
      <trkpt lat="44.51724" lon="4.25362">
        <ele>334</ele>
        <time>2016-05-15T06:52:37.000Z</time>
      </trkpt>
      <trkpt lat="44.51719" lon="4.25358">
        <ele>334</ele>
        <time>2016-05-15T06:52:38.000Z</time>
      </trkpt>
      <trkpt lat="44.51714" lon="4.25355">
        <ele>334</ele>
        <time>2016-05-15T06:52:39.000Z</time>
      </trkpt>
      <trkpt lat="44.5171" lon="4.25352">
        <ele>335</ele>
        <time>2016-05-15T06:52:40.000Z</time>
      </trkpt>
      <trkpt lat="44.51707" lon="4.25349">
        <ele>335</ele>
        <time>2016-05-15T06:52:41.000Z</time>
      </trkpt>
      <trkpt lat="44.51703" lon="4.25347">
        <ele>335</ele>
        <time>2016-05-15T06:52:42.000Z</time>
      </trkpt>
      <trkpt lat="44.517" lon="4.25345">
        <ele>335</ele>
        <time>2016-05-15T06:52:43.000Z</time>
      </trkpt>
      <trkpt lat="44.51697" lon="4.25342">
        <ele>336</ele>
        <time>2016-05-15T06:52:44.000Z</time>
      </trkpt>
      <trkpt lat="44.51694" lon="4.25341">
        <ele>336</ele>
        <time>2016-05-15T06:52:45.000Z</time>
      </trkpt>
      <trkpt lat="44.51691" lon="4.25339">
        <ele>336</ele>
        <time>2016-05-15T06:52:46.000Z</time>
      </trkpt>
      <trkpt lat="44.51688" lon="4.25339">
        <ele>337</ele>
        <time>2016-05-15T06:52:47.000Z</time>
      </trkpt>
      <trkpt lat="44.51685" lon="4.25339">
        <ele>337</ele>
        <time>2016-05-15T06:52:48.000Z</time>
      </trkpt>
      <trkpt lat="44.51682" lon="4.25339">
        <ele>337</ele>
        <time>2016-05-15T06:52:49.000Z</time>
      </trkpt>
      <trkpt lat="44.5168" lon="4.25339">
        <ele>338</ele>
        <time>2016-05-15T06:52:50.000Z</time>
      </trkpt>
      <trkpt lat="44.51677" lon="4.2534">
        <ele>338</ele>
        <time>2016-05-15T06:52:51.000Z</time>
      </trkpt>
      <trkpt lat="44.51674" lon="4.25341">
        <ele>338</ele>
        <time>2016-05-15T06:52:52.000Z</time>
      </trkpt>
      <trkpt lat="44.51672" lon="4.25343">
        <ele>338</ele>
        <time>2016-05-15T06:52:53.000Z</time>
      </trkpt>
      <trkpt lat="44.5167" lon="4.25343">
        <ele>338</ele>
        <time>2016-05-15T06:52:54.000Z</time>
      </trkpt>
      <trkpt lat="44.51667" lon="4.25344">
        <ele>338</ele>
        <time>2016-05-15T06:52:55.000Z</time>
      </trkpt>
      <trkpt lat="44.51665" lon="4.25345">
        <ele>340</ele>
        <time>2016-05-15T06:52:56.000Z</time>
      </trkpt>
      <trkpt lat="44.51663" lon="4.25345">
        <ele>340</ele>
        <time>2016-05-15T06:52:57.000Z</time>
      </trkpt>
      <trkpt lat="44.51661" lon="4.25346">
        <ele>340</ele>
        <time>2016-05-15T06:52:58.000Z</time>
      </trkpt>
      <trkpt lat="44.51658" lon="4.25346">
        <ele>340</ele>
        <time>2016-05-15T06:52:59.000Z</time>
      </trkpt>
      <trkpt lat="44.51655" lon="4.25346">
        <ele>340</ele>
        <time>2016-05-15T06:53:00.000Z</time>
      </trkpt>
      <trkpt lat="44.51652" lon="4.25346">
        <ele>340</ele>
        <time>2016-05-15T06:53:01.000Z</time>
      </trkpt>
      <trkpt lat="44.5165" lon="4.25346">
        <ele>340</ele>
        <time>2016-05-15T06:53:02.000Z</time>
      </trkpt>
      <trkpt lat="44.51647" lon="4.25345">
        <ele>340</ele>
        <time>2016-05-15T06:53:03.000Z</time>
      </trkpt>
      <trkpt lat="44.51644" lon="4.25345">
        <ele>339</ele>
        <time>2016-05-15T06:53:04.000Z</time>
      </trkpt>
      <trkpt lat="44.51642" lon="4.25345">
        <ele>339</ele>
        <time>2016-05-15T06:53:05.000Z</time>
      </trkpt>
      <trkpt lat="44.51639" lon="4.25344">
        <ele>339</ele>
        <time>2016-05-15T06:53:06.000Z</time>
      </trkpt>
      <trkpt lat="44.51636" lon="4.25343">
        <ele>339</ele>
        <time>2016-05-15T06:53:07.000Z</time>
      </trkpt>
      <trkpt lat="44.51634" lon="4.25342">
        <ele>339</ele>
        <time>2016-05-15T06:53:08.000Z</time>
      </trkpt>
      <trkpt lat="44.51631" lon="4.25341">
        <ele>339</ele>
        <time>2016-05-15T06:53:09.000Z</time>
      </trkpt>
      <trkpt lat="44.51628" lon="4.2534">
        <ele>340</ele>
        <time>2016-05-15T06:53:10.000Z</time>
      </trkpt>
      <trkpt lat="44.51625" lon="4.25338">
        <ele>340</ele>
        <time>2016-05-15T06:53:11.000Z</time>
      </trkpt>
      <trkpt lat="44.51623" lon="4.25337">
        <ele>340</ele>
        <time>2016-05-15T06:53:12.000Z</time>
      </trkpt>
      <trkpt lat="44.5162" lon="4.25335">
        <ele>340</ele>
        <time>2016-05-15T06:53:13.000Z</time>
      </trkpt>
      <trkpt lat="44.51617" lon="4.25333">
        <ele>342</ele>
        <time>2016-05-15T06:53:14.000Z</time>
      </trkpt>
      <trkpt lat="44.51615" lon="4.25332">
        <ele>342</ele>
        <time>2016-05-15T06:53:15.000Z</time>
      </trkpt>
      <trkpt lat="44.51612" lon="4.2533">
        <ele>342</ele>
        <time>2016-05-15T06:53:16.000Z</time>
      </trkpt>
      <trkpt lat="44.5161" lon="4.25329">
        <ele>342</ele>
        <time>2016-05-15T06:53:17.000Z</time>
      </trkpt>
      <trkpt lat="44.51608" lon="4.25327">
        <ele>342</ele>
        <time>2016-05-15T06:53:18.000Z</time>
      </trkpt>
      <trkpt lat="44.51606" lon="4.25325">
        <ele>342</ele>
        <time>2016-05-15T06:53:19.000Z</time>
      </trkpt>
      <trkpt lat="44.51604" lon="4.25323">
        <ele>342</ele>
        <time>2016-05-15T06:53:20.000Z</time>
      </trkpt>
      <trkpt lat="44.51601" lon="4.25321">
        <ele>342</ele>
        <time>2016-05-15T06:53:21.000Z</time>
      </trkpt>
      <trkpt lat="44.51599" lon="4.2532">
        <ele>342</ele>
        <time>2016-05-15T06:53:22.000Z</time>
      </trkpt>
      <trkpt lat="44.51597" lon="4.25318">
        <ele>342</ele>
        <time>2016-05-15T06:53:23.000Z</time>
      </trkpt>
      <trkpt lat="44.51595" lon="4.25316">
        <ele>342</ele>
        <time>2016-05-15T06:53:24.000Z</time>
      </trkpt>
      <trkpt lat="44.51593" lon="4.25314">
        <ele>342</ele>
        <time>2016-05-15T06:53:25.000Z</time>
      </trkpt>
      <trkpt lat="44.51592" lon="4.25311">
        <ele>342</ele>
        <time>2016-05-15T06:53:26.000Z</time>
      </trkpt>
      <trkpt lat="44.51591" lon="4.25308">
        <ele>342</ele>
        <time>2016-05-15T06:53:27.000Z</time>
      </trkpt>
      <trkpt lat="44.51589" lon="4.25305">
        <ele>342</ele>
        <time>2016-05-15T06:53:28.000Z</time>
      </trkpt>
      <trkpt lat="44.51588" lon="4.25302">
        <ele>342</ele>
        <time>2016-05-15T06:53:29.000Z</time>
      </trkpt>
      <trkpt lat="44.51586" lon="4.253">
        <ele>342</ele>
        <time>2016-05-15T06:53:30.000Z</time>
      </trkpt>
      <trkpt lat="44.51585" lon="4.25297">
        <ele>343</ele>
        <time>2016-05-15T06:53:31.000Z</time>
      </trkpt>
      <trkpt lat="44.51584" lon="4.25295">
        <ele>343</ele>
        <time>2016-05-15T06:53:32.000Z</time>
      </trkpt>
      <trkpt lat="44.51582" lon="4.25292">
        <ele>343</ele>
        <time>2016-05-15T06:53:33.000Z</time>
      </trkpt>
      <trkpt lat="44.51581" lon="4.2529">
        <ele>343</ele>
        <time>2016-05-15T06:53:34.000Z</time>
      </trkpt>
      <trkpt lat="44.5158" lon="4.25287">
        <ele>343</ele>
        <time>2016-05-15T06:53:35.000Z</time>
      </trkpt>
      <trkpt lat="44.51579" lon="4.25284">
        <ele>343</ele>
        <time>2016-05-15T06:53:36.000Z</time>
      </trkpt>
      <trkpt lat="44.51578" lon="4.25281">
        <ele>343</ele>
        <time>2016-05-15T06:53:37.000Z</time>
      </trkpt>
      <trkpt lat="44.51576" lon="4.25278">
        <ele>343</ele>
        <time>2016-05-15T06:53:38.000Z</time>
      </trkpt>
      <trkpt lat="44.51575" lon="4.25276">
        <ele>344</ele>
        <time>2016-05-15T06:53:39.000Z</time>
      </trkpt>
      <trkpt lat="44.51574" lon="4.25273">
        <ele>344</ele>
        <time>2016-05-15T06:53:40.000Z</time>
      </trkpt>
      <trkpt lat="44.51572" lon="4.2527">
        <ele>344</ele>
        <time>2016-05-15T06:53:41.000Z</time>
      </trkpt>
      <trkpt lat="44.51571" lon="4.25267">
        <ele>344</ele>
        <time>2016-05-15T06:53:42.000Z</time>
      </trkpt>
      <trkpt lat="44.5157" lon="4.25264">
        <ele>344</ele>
        <time>2016-05-15T06:53:43.000Z</time>
      </trkpt>
      <trkpt lat="44.51568" lon="4.25261">
        <ele>344</ele>
        <time>2016-05-15T06:53:44.000Z</time>
      </trkpt>
      <trkpt lat="44.51567" lon="4.25258">
        <ele>344</ele>
        <time>2016-05-15T06:53:45.000Z</time>
      </trkpt>
      <trkpt lat="44.51566" lon="4.25255">
        <ele>344</ele>
        <time>2016-05-15T06:53:46.000Z</time>
      </trkpt>
      <trkpt lat="44.51565" lon="4.25253">
        <ele>344</ele>
        <time>2016-05-15T06:53:47.000Z</time>
      </trkpt>
      <trkpt lat="44.51564" lon="4.2525">
        <ele>344</ele>
        <time>2016-05-15T06:53:48.000Z</time>
      </trkpt>
      <trkpt lat="44.51562" lon="4.25248">
        <ele>346</ele>
        <time>2016-05-15T06:53:49.000Z</time>
      </trkpt>
      <trkpt lat="44.51561" lon="4.25245">
        <ele>346</ele>
        <time>2016-05-15T06:53:50.000Z</time>
      </trkpt>
      <trkpt lat="44.5156" lon="4.25243">
        <ele>346</ele>
        <time>2016-05-15T06:53:51.000Z</time>
      </trkpt>
      <trkpt lat="44.51558" lon="4.2524">
        <ele>346</ele>
        <time>2016-05-15T06:53:52.000Z</time>
      </trkpt>
      <trkpt lat="44.51557" lon="4.25237">
        <ele>346</ele>
        <time>2016-05-15T06:53:53.000Z</time>
      </trkpt>
      <trkpt lat="44.51556" lon="4.25235">
        <ele>346</ele>
        <time>2016-05-15T06:53:54.000Z</time>
      </trkpt>
      <trkpt lat="44.51554" lon="4.25233">
        <ele>346</ele>
        <time>2016-05-15T06:53:55.000Z</time>
      </trkpt>
      <trkpt lat="44.51552" lon="4.2523">
        <ele>346</ele>
        <time>2016-05-15T06:53:56.000Z</time>
      </trkpt>
      <trkpt lat="44.5155" lon="4.25227">
        <ele>346</ele>
        <time>2016-05-15T06:53:57.000Z</time>
      </trkpt>
      <trkpt lat="44.51549" lon="4.25225">
        <ele>346</ele>
        <time>2016-05-15T06:53:58.000Z</time>
      </trkpt>
      <trkpt lat="44.51547" lon="4.25222">
        <ele>346</ele>
        <time>2016-05-15T06:53:59.000Z</time>
      </trkpt>
      <trkpt lat="44.51546" lon="4.25219">
        <ele>346</ele>
        <time>2016-05-15T06:54:00.000Z</time>
      </trkpt>
      <trkpt lat="44.51545" lon="4.25216">
        <ele>346</ele>
        <time>2016-05-15T06:54:01.000Z</time>
      </trkpt>
      <trkpt lat="44.51544" lon="4.25213">
        <ele>346</ele>
        <time>2016-05-15T06:54:02.000Z</time>
      </trkpt>
      <trkpt lat="44.51543" lon="4.2521">
        <ele>346</ele>
        <time>2016-05-15T06:54:03.000Z</time>
      </trkpt>
      <trkpt lat="44.51542" lon="4.25207">
        <ele>346</ele>
        <time>2016-05-15T06:54:04.000Z</time>
      </trkpt>
      <trkpt lat="44.51541" lon="4.25204">
        <ele>346</ele>
        <time>2016-05-15T06:54:05.000Z</time>
      </trkpt>
      <trkpt lat="44.51541" lon="4.25201">
        <ele>346</ele>
        <time>2016-05-15T06:54:06.000Z</time>
      </trkpt>
      <trkpt lat="44.51541" lon="4.25198">
        <ele>346</ele>
        <time>2016-05-15T06:54:07.000Z</time>
      </trkpt>
      <trkpt lat="44.51541" lon="4.25194">
        <ele>346</ele>
        <time>2016-05-15T06:54:08.000Z</time>
      </trkpt>
      <trkpt lat="44.51541" lon="4.25191">
        <ele>346</ele>
        <time>2016-05-15T06:54:09.000Z</time>
      </trkpt>
      <trkpt lat="44.51541" lon="4.25188">
        <ele>346</ele>
        <time>2016-05-15T06:54:10.000Z</time>
      </trkpt>
      <trkpt lat="44.51541" lon="4.25184">
        <ele>346</ele>
        <time>2016-05-15T06:54:11.000Z</time>
      </trkpt>
      <trkpt lat="44.51541" lon="4.25181">
        <ele>346</ele>
        <time>2016-05-15T06:54:12.000Z</time>
      </trkpt>
      <trkpt lat="44.51541" lon="4.25178">
        <ele>346</ele>
        <time>2016-05-15T06:54:13.000Z</time>
      </trkpt>
      <trkpt lat="44.51541" lon="4.25174">
        <ele>346</ele>
        <time>2016-05-15T06:54:14.000Z</time>
      </trkpt>
      <trkpt lat="44.5154" lon="4.25171">
        <ele>346</ele>
        <time>2016-05-15T06:54:15.000Z</time>
      </trkpt>
      <trkpt lat="44.5154" lon="4.25167">
        <ele>346</ele>
        <time>2016-05-15T06:54:16.000Z</time>
      </trkpt>
      <trkpt lat="44.51539" lon="4.25163">
        <ele>345</ele>
        <time>2016-05-15T06:54:17.000Z</time>
      </trkpt>
      <trkpt lat="44.51538" lon="4.2516">
        <ele>345</ele>
        <time>2016-05-15T06:54:18.000Z</time>
      </trkpt>
      <trkpt lat="44.51536" lon="4.25157">
        <ele>345</ele>
        <time>2016-05-15T06:54:19.000Z</time>
      </trkpt>
      <trkpt lat="44.51535" lon="4.25154">
        <ele>345</ele>
        <time>2016-05-15T06:54:20.000Z</time>
      </trkpt>
      <trkpt lat="44.51533" lon="4.25151">
        <ele>345</ele>
        <time>2016-05-15T06:54:21.000Z</time>
      </trkpt>
      <trkpt lat="44.51531" lon="4.25148">
        <ele>345</ele>
        <time>2016-05-15T06:54:22.000Z</time>
      </trkpt>
      <trkpt lat="44.51529" lon="4.25145">
        <ele>345</ele>
        <time>2016-05-15T06:54:23.000Z</time>
      </trkpt>
      <trkpt lat="44.51528" lon="4.25143">
        <ele>345</ele>
        <time>2016-05-15T06:54:24.000Z</time>
      </trkpt>
      <trkpt lat="44.51526" lon="4.2514">
        <ele>345</ele>
        <time>2016-05-15T06:54:25.000Z</time>
      </trkpt>
      <trkpt lat="44.51524" lon="4.25138">
        <ele>345</ele>
        <time>2016-05-15T06:54:26.000Z</time>
      </trkpt>
      <trkpt lat="44.51522" lon="4.25135">
        <ele>345</ele>
        <time>2016-05-15T06:54:27.000Z</time>
      </trkpt>
      <trkpt lat="44.5152" lon="4.25132">
        <ele>345</ele>
        <time>2016-05-15T06:54:28.000Z</time>
      </trkpt>
      <trkpt lat="44.51518" lon="4.2513">
        <ele>345</ele>
        <time>2016-05-15T06:54:29.000Z</time>
      </trkpt>
      <trkpt lat="44.51516" lon="4.25127">
        <ele>345</ele>
        <time>2016-05-15T06:54:30.000Z</time>
      </trkpt>
      <trkpt lat="44.51514" lon="4.25125">
        <ele>345</ele>
        <time>2016-05-15T06:54:31.000Z</time>
      </trkpt>
      <trkpt lat="44.51512" lon="4.25122">
        <ele>345</ele>
        <time>2016-05-15T06:54:32.000Z</time>
      </trkpt>
      <trkpt lat="44.5151" lon="4.2512">
        <ele>345</ele>
        <time>2016-05-15T06:54:33.000Z</time>
      </trkpt>
      <trkpt lat="44.51508" lon="4.25117">
        <ele>345</ele>
        <time>2016-05-15T06:54:34.000Z</time>
      </trkpt>
      <trkpt lat="44.51506" lon="4.25114">
        <ele>346</ele>
        <time>2016-05-15T06:54:35.000Z</time>
      </trkpt>
      <trkpt lat="44.51503" lon="4.25112">
        <ele>346</ele>
        <time>2016-05-15T06:54:36.000Z</time>
      </trkpt>
      <trkpt lat="44.51501" lon="4.25109">
        <ele>346</ele>
        <time>2016-05-15T06:54:37.000Z</time>
      </trkpt>
      <trkpt lat="44.51499" lon="4.25107">
        <ele>350</ele>
        <time>2016-05-15T06:54:38.000Z</time>
      </trkpt>
      <trkpt lat="44.51496" lon="4.25105">
        <ele>350</ele>
        <time>2016-05-15T06:54:39.000Z</time>
      </trkpt>
      <trkpt lat="44.51494" lon="4.25103">
        <ele>350</ele>
        <time>2016-05-15T06:54:40.000Z</time>
      </trkpt>
      <trkpt lat="44.51491" lon="4.25101">
        <ele>350</ele>
        <time>2016-05-15T06:54:41.000Z</time>
      </trkpt>
      <trkpt lat="44.51488" lon="4.251">
        <ele>350</ele>
        <time>2016-05-15T06:54:42.000Z</time>
      </trkpt>
      <trkpt lat="44.51486" lon="4.25099">
        <ele>350</ele>
        <time>2016-05-15T06:54:43.000Z</time>
      </trkpt>
      <trkpt lat="44.51484" lon="4.25098">
        <ele>350</ele>
        <time>2016-05-15T06:54:44.000Z</time>
      </trkpt>
      <trkpt lat="44.51482" lon="4.25096">
        <ele>350</ele>
        <time>2016-05-15T06:54:45.000Z</time>
      </trkpt>
      <trkpt lat="44.51479" lon="4.25095">
        <ele>350</ele>
        <time>2016-05-15T06:54:46.000Z</time>
      </trkpt>
      <trkpt lat="44.51477" lon="4.25094">
        <ele>350</ele>
        <time>2016-05-15T06:54:47.000Z</time>
      </trkpt>
      <trkpt lat="44.51475" lon="4.25092">
        <ele>350</ele>
        <time>2016-05-15T06:54:48.000Z</time>
      </trkpt>
      <trkpt lat="44.51473" lon="4.25091">
        <ele>350</ele>
        <time>2016-05-15T06:54:49.000Z</time>
      </trkpt>
      <trkpt lat="44.51471" lon="4.2509">
        <ele>350</ele>
        <time>2016-05-15T06:54:50.000Z</time>
      </trkpt>
      <trkpt lat="44.51469" lon="4.25087">
        <ele>351</ele>
        <time>2016-05-15T06:54:51.000Z</time>
      </trkpt>
      <trkpt lat="44.51467" lon="4.25084">
        <ele>351</ele>
        <time>2016-05-15T06:54:52.000Z</time>
      </trkpt>
      <trkpt lat="44.51465" lon="4.25082">
        <ele>352</ele>
        <time>2016-05-15T06:54:53.000Z</time>
      </trkpt>
      <trkpt lat="44.51463" lon="4.25079">
        <ele>352</ele>
        <time>2016-05-15T06:54:54.000Z</time>
      </trkpt>
      <trkpt lat="44.51462" lon="4.25076">
        <ele>352</ele>
        <time>2016-05-15T06:54:55.000Z</time>
      </trkpt>
      <trkpt lat="44.5146" lon="4.25073">
        <ele>352</ele>
        <time>2016-05-15T06:54:56.000Z</time>
      </trkpt>
      <trkpt lat="44.51458" lon="4.2507">
        <ele>352</ele>
        <time>2016-05-15T06:54:57.000Z</time>
      </trkpt>
      <trkpt lat="44.51456" lon="4.25068">
        <ele>352</ele>
        <time>2016-05-15T06:54:58.000Z</time>
      </trkpt>
      <trkpt lat="44.51455" lon="4.25066">
        <ele>353</ele>
        <time>2016-05-15T06:54:59.000Z</time>
      </trkpt>
      <trkpt lat="44.51453" lon="4.25063">
        <ele>353</ele>
        <time>2016-05-15T06:55:00.000Z</time>
      </trkpt>
      <trkpt lat="44.51452" lon="4.2506">
        <ele>353</ele>
        <time>2016-05-15T06:55:01.000Z</time>
      </trkpt>
      <trkpt lat="44.5145" lon="4.25057">
        <ele>353</ele>
        <time>2016-05-15T06:55:02.000Z</time>
      </trkpt>
      <trkpt lat="44.51448" lon="4.25054">
        <ele>353</ele>
        <time>2016-05-15T06:55:03.000Z</time>
      </trkpt>
      <trkpt lat="44.51447" lon="4.25051">
        <ele>353</ele>
        <time>2016-05-15T06:55:04.000Z</time>
      </trkpt>
      <trkpt lat="44.51445" lon="4.25048">
        <ele>353</ele>
        <time>2016-05-15T06:55:05.000Z</time>
      </trkpt>
      <trkpt lat="44.51444" lon="4.25045">
        <ele>353</ele>
        <time>2016-05-15T06:55:06.000Z</time>
      </trkpt>
      <trkpt lat="44.51442" lon="4.25042">
        <ele>353</ele>
        <time>2016-05-15T06:55:07.000Z</time>
      </trkpt>
      <trkpt lat="44.5144" lon="4.25038">
        <ele>353</ele>
        <time>2016-05-15T06:55:08.000Z</time>
      </trkpt>
      <trkpt lat="44.51438" lon="4.25036">
        <ele>353</ele>
        <time>2016-05-15T06:55:09.000Z</time>
      </trkpt>
      <trkpt lat="44.51436" lon="4.25033">
        <ele>353</ele>
        <time>2016-05-15T06:55:10.000Z</time>
      </trkpt>
      <trkpt lat="44.51435" lon="4.2503">
        <ele>353</ele>
        <time>2016-05-15T06:55:11.000Z</time>
      </trkpt>
      <trkpt lat="44.51433" lon="4.25027">
        <ele>354</ele>
        <time>2016-05-15T06:55:12.000Z</time>
      </trkpt>
      <trkpt lat="44.51431" lon="4.25024">
        <ele>354</ele>
        <time>2016-05-15T06:55:13.000Z</time>
      </trkpt>
      <trkpt lat="44.51429" lon="4.25021">
        <ele>354</ele>
        <time>2016-05-15T06:55:14.000Z</time>
      </trkpt>
      <trkpt lat="44.51427" lon="4.25018">
        <ele>354</ele>
        <time>2016-05-15T06:55:15.000Z</time>
      </trkpt>
      <trkpt lat="44.51426" lon="4.25015">
        <ele>354</ele>
        <time>2016-05-15T06:55:16.000Z</time>
      </trkpt>
      <trkpt lat="44.51424" lon="4.25012">
        <ele>355</ele>
        <time>2016-05-15T06:55:17.000Z</time>
      </trkpt>
      <trkpt lat="44.51423" lon="4.25009">
        <ele>355</ele>
        <time>2016-05-15T06:55:18.000Z</time>
      </trkpt>
      <trkpt lat="44.51421" lon="4.25006">
        <ele>355</ele>
        <time>2016-05-15T06:55:19.000Z</time>
      </trkpt>
      <trkpt lat="44.5142" lon="4.25003">
        <ele>355</ele>
        <time>2016-05-15T06:55:20.000Z</time>
      </trkpt>
      <trkpt lat="44.51418" lon="4.24999">
        <ele>356</ele>
        <time>2016-05-15T06:55:21.000Z</time>
      </trkpt>
      <trkpt lat="44.51416" lon="4.24996">
        <ele>356</ele>
        <time>2016-05-15T06:55:22.000Z</time>
      </trkpt>
      <trkpt lat="44.51414" lon="4.24992">
        <ele>356</ele>
        <time>2016-05-15T06:55:23.000Z</time>
      </trkpt>
      <trkpt lat="44.51412" lon="4.24989">
        <ele>355</ele>
        <time>2016-05-15T06:55:24.000Z</time>
      </trkpt>
      <trkpt lat="44.5141" lon="4.24986">
        <ele>355</ele>
        <time>2016-05-15T06:55:25.000Z</time>
      </trkpt>
      <trkpt lat="44.51408" lon="4.24983">
        <ele>355</ele>
        <time>2016-05-15T06:55:26.000Z</time>
      </trkpt>
      <trkpt lat="44.51405" lon="4.24979">
        <ele>355</ele>
        <time>2016-05-15T06:55:27.000Z</time>
      </trkpt>
      <trkpt lat="44.51403" lon="4.24976">
        <ele>355</ele>
        <time>2016-05-15T06:55:28.000Z</time>
      </trkpt>
      <trkpt lat="44.51401" lon="4.24972">
        <ele>355</ele>
        <time>2016-05-15T06:55:29.000Z</time>
      </trkpt>
      <trkpt lat="44.51399" lon="4.24969">
        <ele>355</ele>
        <time>2016-05-15T06:55:30.000Z</time>
      </trkpt>
      <trkpt lat="44.51397" lon="4.24965">
        <ele>355</ele>
        <time>2016-05-15T06:55:31.000Z</time>
      </trkpt>
      <trkpt lat="44.51395" lon="4.24961">
        <ele>355</ele>
        <time>2016-05-15T06:55:32.000Z</time>
      </trkpt>
      <trkpt lat="44.51393" lon="4.24958">
        <ele>355</ele>
        <time>2016-05-15T06:55:33.000Z</time>
      </trkpt>
      <trkpt lat="44.51392" lon="4.24954">
        <ele>355</ele>
        <time>2016-05-15T06:55:34.000Z</time>
      </trkpt>
      <trkpt lat="44.5139" lon="4.2495">
        <ele>355</ele>
        <time>2016-05-15T06:55:35.000Z</time>
      </trkpt>
      <trkpt lat="44.51388" lon="4.24946">
        <ele>355</ele>
        <time>2016-05-15T06:55:36.000Z</time>
      </trkpt>
      <trkpt lat="44.51387" lon="4.24941">
        <ele>355</ele>
        <time>2016-05-15T06:55:37.000Z</time>
      </trkpt>
      <trkpt lat="44.51385" lon="4.24937">
        <ele>355</ele>
        <time>2016-05-15T06:55:38.000Z</time>
      </trkpt>
      <trkpt lat="44.51384" lon="4.24933">
        <ele>355</ele>
        <time>2016-05-15T06:55:39.000Z</time>
      </trkpt>
      <trkpt lat="44.51383" lon="4.24928">
        <ele>355</ele>
        <time>2016-05-15T06:55:40.000Z</time>
      </trkpt>
      <trkpt lat="44.51381" lon="4.24924">
        <ele>355</ele>
        <time>2016-05-15T06:55:41.000Z</time>
      </trkpt>
      <trkpt lat="44.5138" lon="4.24919">
        <ele>355</ele>
        <time>2016-05-15T06:55:42.000Z</time>
      </trkpt>
      <trkpt lat="44.51379" lon="4.24915">
        <ele>354</ele>
        <time>2016-05-15T06:55:43.000Z</time>
      </trkpt>
      <trkpt lat="44.51377" lon="4.2491">
        <ele>354</ele>
        <time>2016-05-15T06:55:44.000Z</time>
      </trkpt>
      <trkpt lat="44.51376" lon="4.24906">
        <ele>354</ele>
        <time>2016-05-15T06:55:45.000Z</time>
      </trkpt>
      <trkpt lat="44.51374" lon="4.24901">
        <ele>354</ele>
        <time>2016-05-15T06:55:46.000Z</time>
      </trkpt>
      <trkpt lat="44.51373" lon="4.24897">
        <ele>354</ele>
        <time>2016-05-15T06:55:47.000Z</time>
      </trkpt>
      <trkpt lat="44.51372" lon="4.24893">
        <ele>354</ele>
        <time>2016-05-15T06:55:48.000Z</time>
      </trkpt>
      <trkpt lat="44.5137" lon="4.24889">
        <ele>354</ele>
        <time>2016-05-15T06:55:49.000Z</time>
      </trkpt>
      <trkpt lat="44.51369" lon="4.24885">
        <ele>354</ele>
        <time>2016-05-15T06:55:50.000Z</time>
      </trkpt>
      <trkpt lat="44.51367" lon="4.24881">
        <ele>354</ele>
        <time>2016-05-15T06:55:51.000Z</time>
      </trkpt>
      <trkpt lat="44.51365" lon="4.24877">
        <ele>354</ele>
        <time>2016-05-15T06:55:52.000Z</time>
      </trkpt>
      <trkpt lat="44.51363" lon="4.24873">
        <ele>353</ele>
        <time>2016-05-15T06:55:53.000Z</time>
      </trkpt>
      <trkpt lat="44.51361" lon="4.2487">
        <ele>353</ele>
        <time>2016-05-15T06:55:54.000Z</time>
      </trkpt>
      <trkpt lat="44.51359" lon="4.24866">
        <ele>353</ele>
        <time>2016-05-15T06:55:55.000Z</time>
      </trkpt>
      <trkpt lat="44.51356" lon="4.24862">
        <ele>353</ele>
        <time>2016-05-15T06:55:56.000Z</time>
      </trkpt>
      <trkpt lat="44.51354" lon="4.24858">
        <ele>353</ele>
        <time>2016-05-15T06:55:57.000Z</time>
      </trkpt>
      <trkpt lat="44.51352" lon="4.24854">
        <ele>353</ele>
        <time>2016-05-15T06:55:58.000Z</time>
      </trkpt>
      <trkpt lat="44.5135" lon="4.2485">
        <ele>353</ele>
        <time>2016-05-15T06:55:59.000Z</time>
      </trkpt>
      <trkpt lat="44.51348" lon="4.24846">
        <ele>353</ele>
        <time>2016-05-15T06:56:00.000Z</time>
      </trkpt>
      <trkpt lat="44.51346" lon="4.24842">
        <ele>353</ele>
        <time>2016-05-15T06:56:01.000Z</time>
      </trkpt>
      <trkpt lat="44.51343" lon="4.24838">
        <ele>352</ele>
        <time>2016-05-15T06:56:02.000Z</time>
      </trkpt>
      <trkpt lat="44.51342" lon="4.24834">
        <ele>352</ele>
        <time>2016-05-15T06:56:03.000Z</time>
      </trkpt>
      <trkpt lat="44.5134" lon="4.24829">
        <ele>352</ele>
        <time>2016-05-15T06:56:04.000Z</time>
      </trkpt>
      <trkpt lat="44.51338" lon="4.24824">
        <ele>352</ele>
        <time>2016-05-15T06:56:05.000Z</time>
      </trkpt>
      <trkpt lat="44.51336" lon="4.24819">
        <ele>352</ele>
        <time>2016-05-15T06:56:06.000Z</time>
      </trkpt>
      <trkpt lat="44.51334" lon="4.24813">
        <ele>352</ele>
        <time>2016-05-15T06:56:07.000Z</time>
      </trkpt>
      <trkpt lat="44.51332" lon="4.24807">
        <ele>352</ele>
        <time>2016-05-15T06:56:08.000Z</time>
      </trkpt>
      <trkpt lat="44.5133" lon="4.24801">
        <ele>352</ele>
        <time>2016-05-15T06:56:09.000Z</time>
      </trkpt>
      <trkpt lat="44.51328" lon="4.24795">
        <ele>352</ele>
        <time>2016-05-15T06:56:10.000Z</time>
      </trkpt>
      <trkpt lat="44.51326" lon="4.24789">
        <ele>352</ele>
        <time>2016-05-15T06:56:11.000Z</time>
      </trkpt>
      <trkpt lat="44.51324" lon="4.24783">
        <ele>352</ele>
        <time>2016-05-15T06:56:12.000Z</time>
      </trkpt>
      <trkpt lat="44.51323" lon="4.24777">
        <ele>352</ele>
        <time>2016-05-15T06:56:13.000Z</time>
      </trkpt>
      <trkpt lat="44.51321" lon="4.24771">
        <ele>352</ele>
        <time>2016-05-15T06:56:14.000Z</time>
      </trkpt>
      <trkpt lat="44.5132" lon="4.24766">
        <ele>353</ele>
        <time>2016-05-15T06:56:15.000Z</time>
      </trkpt>
      <trkpt lat="44.51319" lon="4.24761">
        <ele>353</ele>
        <time>2016-05-15T06:56:16.000Z</time>
      </trkpt>
      <trkpt lat="44.51318" lon="4.24756">
        <ele>353</ele>
        <time>2016-05-15T06:56:17.000Z</time>
      </trkpt>
      <trkpt lat="44.51316" lon="4.24751">
        <ele>353</ele>
        <time>2016-05-15T06:56:18.000Z</time>
      </trkpt>
      <trkpt lat="44.51314" lon="4.24745">
        <ele>354</ele>
        <time>2016-05-15T06:56:19.000Z</time>
      </trkpt>
      <trkpt lat="44.51312" lon="4.2474">
        <ele>354</ele>
        <time>2016-05-15T06:56:20.000Z</time>
      </trkpt>
      <trkpt lat="44.51311" lon="4.24734">
        <ele>354</ele>
        <time>2016-05-15T06:56:21.000Z</time>
      </trkpt>
      <trkpt lat="44.51309" lon="4.24729">
        <ele>354</ele>
        <time>2016-05-15T06:56:22.000Z</time>
      </trkpt>
      <trkpt lat="44.51307" lon="4.24723">
        <ele>354</ele>
        <time>2016-05-15T06:56:23.000Z</time>
      </trkpt>
      <trkpt lat="44.51306" lon="4.24718">
        <ele>354</ele>
        <time>2016-05-15T06:56:24.000Z</time>
      </trkpt>
      <trkpt lat="44.51305" lon="4.24712">
        <ele>354</ele>
        <time>2016-05-15T06:56:25.000Z</time>
      </trkpt>
      <trkpt lat="44.51304" lon="4.24707">
        <ele>354</ele>
        <time>2016-05-15T06:56:26.000Z</time>
      </trkpt>
      <trkpt lat="44.51303" lon="4.24701">
        <ele>354</ele>
        <time>2016-05-15T06:56:27.000Z</time>
      </trkpt>
      <trkpt lat="44.51302" lon="4.24696">
        <ele>354</ele>
        <time>2016-05-15T06:56:28.000Z</time>
      </trkpt>
      <trkpt lat="44.513" lon="4.24691">
        <ele>354</ele>
        <time>2016-05-15T06:56:29.000Z</time>
      </trkpt>
      <trkpt lat="44.513" lon="4.24685">
        <ele>354</ele>
        <time>2016-05-15T06:56:30.000Z</time>
      </trkpt>
      <trkpt lat="44.51299" lon="4.2468">
        <ele>354</ele>
        <time>2016-05-15T06:56:31.000Z</time>
      </trkpt>
      <trkpt lat="44.51298" lon="4.24675">
        <ele>354</ele>
        <time>2016-05-15T06:56:32.000Z</time>
      </trkpt>
      <trkpt lat="44.51297" lon="4.2467">
        <ele>354</ele>
        <time>2016-05-15T06:56:33.000Z</time>
      </trkpt>
      <trkpt lat="44.51297" lon="4.24665">
        <ele>356</ele>
        <time>2016-05-15T06:56:34.000Z</time>
      </trkpt>
      <trkpt lat="44.51297" lon="4.24659">
        <ele>356</ele>
        <time>2016-05-15T06:56:35.000Z</time>
      </trkpt>
      <trkpt lat="44.51297" lon="4.24654">
        <ele>356</ele>
        <time>2016-05-15T06:56:36.000Z</time>
      </trkpt>
      <trkpt lat="44.51297" lon="4.24649">
        <ele>356</ele>
        <time>2016-05-15T06:56:37.000Z</time>
      </trkpt>
      <trkpt lat="44.51297" lon="4.24644">
        <ele>356</ele>
        <time>2016-05-15T06:56:38.000Z</time>
      </trkpt>
      <trkpt lat="44.51297" lon="4.24639">
        <ele>357</ele>
        <time>2016-05-15T06:56:39.000Z</time>
      </trkpt>
      <trkpt lat="44.51297" lon="4.24634">
        <ele>357</ele>
        <time>2016-05-15T06:56:40.000Z</time>
      </trkpt>
      <trkpt lat="44.51297" lon="4.24629">
        <ele>357</ele>
        <time>2016-05-15T06:56:41.000Z</time>
      </trkpt>
      <trkpt lat="44.51297" lon="4.24624">
        <ele>357</ele>
        <time>2016-05-15T06:56:42.000Z</time>
      </trkpt>
      <trkpt lat="44.51297" lon="4.24618">
        <ele>357</ele>
        <time>2016-05-15T06:56:43.000Z</time>
      </trkpt>
      <trkpt lat="44.51297" lon="4.24614">
        <ele>357</ele>
        <time>2016-05-15T06:56:44.000Z</time>
      </trkpt>
      <trkpt lat="44.51298" lon="4.24609">
        <ele>357</ele>
        <time>2016-05-15T06:56:45.000Z</time>
      </trkpt>
      <trkpt lat="44.51298" lon="4.24604">
        <ele>357</ele>
        <time>2016-05-15T06:56:46.000Z</time>
      </trkpt>
      <trkpt lat="44.51298" lon="4.24599">
        <ele>357</ele>
        <time>2016-05-15T06:56:47.000Z</time>
      </trkpt>
      <trkpt lat="44.51298" lon="4.24594">
        <ele>357</ele>
        <time>2016-05-15T06:56:48.000Z</time>
      </trkpt>
      <trkpt lat="44.51299" lon="4.2459">
        <ele>357</ele>
        <time>2016-05-15T06:56:49.000Z</time>
      </trkpt>
      <trkpt lat="44.51299" lon="4.24585">
        <ele>357</ele>
        <time>2016-05-15T06:56:50.000Z</time>
      </trkpt>
      <trkpt lat="44.51299" lon="4.2458">
        <ele>360</ele>
        <time>2016-05-15T06:56:51.000Z</time>
      </trkpt>
      <trkpt lat="44.51299" lon="4.24575">
        <ele>360</ele>
        <time>2016-05-15T06:56:52.000Z</time>
      </trkpt>
      <trkpt lat="44.51299" lon="4.24571">
        <ele>360</ele>
        <time>2016-05-15T06:56:53.000Z</time>
      </trkpt>
      <trkpt lat="44.51299" lon="4.24566">
        <ele>361</ele>
        <time>2016-05-15T06:56:54.000Z</time>
      </trkpt>
      <trkpt lat="44.51299" lon="4.24561">
        <ele>361</ele>
        <time>2016-05-15T06:56:55.000Z</time>
      </trkpt>
      <trkpt lat="44.51299" lon="4.24557">
        <ele>361</ele>
        <time>2016-05-15T06:56:56.000Z</time>
      </trkpt>
      <trkpt lat="44.513" lon="4.24552">
        <ele>361</ele>
        <time>2016-05-15T06:56:57.000Z</time>
      </trkpt>
      <trkpt lat="44.513" lon="4.24548">
        <ele>361</ele>
        <time>2016-05-15T06:56:58.000Z</time>
      </trkpt>
      <trkpt lat="44.513" lon="4.24544">
        <ele>361</ele>
        <time>2016-05-15T06:56:59.000Z</time>
      </trkpt>
      <trkpt lat="44.513" lon="4.2454">
        <ele>361</ele>
        <time>2016-05-15T06:57:00.000Z</time>
      </trkpt>
      <trkpt lat="44.513" lon="4.24536">
        <ele>361</ele>
        <time>2016-05-15T06:57:01.000Z</time>
      </trkpt>
      <trkpt lat="44.513" lon="4.24532">
        <ele>362</ele>
        <time>2016-05-15T06:57:02.000Z</time>
      </trkpt>
      <trkpt lat="44.51298" lon="4.24528">
        <ele>362</ele>
        <time>2016-05-15T06:57:03.000Z</time>
      </trkpt>
      <trkpt lat="44.51297" lon="4.24524">
        <ele>362</ele>
        <time>2016-05-15T06:57:04.000Z</time>
      </trkpt>
      <trkpt lat="44.51296" lon="4.24521">
        <ele>362</ele>
        <time>2016-05-15T06:57:05.000Z</time>
      </trkpt>
      <trkpt lat="44.51295" lon="4.24517">
        <ele>362</ele>
        <time>2016-05-15T06:57:06.000Z</time>
      </trkpt>
      <trkpt lat="44.51295" lon="4.24512">
        <ele>362</ele>
        <time>2016-05-15T06:57:07.000Z</time>
      </trkpt>
      <trkpt lat="44.51295" lon="4.24508">
        <ele>362</ele>
        <time>2016-05-15T06:57:08.000Z</time>
      </trkpt>
      <trkpt lat="44.51295" lon="4.24504">
        <ele>362</ele>
        <time>2016-05-15T06:57:09.000Z</time>
      </trkpt>
      <trkpt lat="44.51296" lon="4.245">
        <ele>362</ele>
        <time>2016-05-15T06:57:10.000Z</time>
      </trkpt>
      <trkpt lat="44.51296" lon="4.24498">
        <ele>365</ele>
        <time>2016-05-15T06:57:11.000Z</time>
      </trkpt>
      <trkpt lat="44.51296" lon="4.24495">
        <ele>365</ele>
        <time>2016-05-15T06:57:12.000Z</time>
      </trkpt>
      <trkpt lat="44.51297" lon="4.24492">
        <ele>365</ele>
        <time>2016-05-15T06:57:13.000Z</time>
      </trkpt>
      <trkpt lat="44.51297" lon="4.24488">
        <ele>365</ele>
        <time>2016-05-15T06:57:14.000Z</time>
      </trkpt>
      <trkpt lat="44.51298" lon="4.24485">
        <ele>365</ele>
        <time>2016-05-15T06:57:15.000Z</time>
      </trkpt>
      <trkpt lat="44.51298" lon="4.24482">
        <ele>365</ele>
        <time>2016-05-15T06:57:16.000Z</time>
      </trkpt>
      <trkpt lat="44.51299" lon="4.24479">
        <ele>365</ele>
        <time>2016-05-15T06:57:17.000Z</time>
      </trkpt>
      <trkpt lat="44.51299" lon="4.24475">
        <ele>365</ele>
        <time>2016-05-15T06:57:18.000Z</time>
      </trkpt>
      <trkpt lat="44.513" lon="4.24471">
        <ele>365</ele>
        <time>2016-05-15T06:57:19.000Z</time>
      </trkpt>
      <trkpt lat="44.51301" lon="4.24467">
        <ele>365</ele>
        <time>2016-05-15T06:57:20.000Z</time>
      </trkpt>
      <trkpt lat="44.51301" lon="4.24463">
        <ele>365</ele>
        <time>2016-05-15T06:57:21.000Z</time>
      </trkpt>
      <trkpt lat="44.51301" lon="4.24459">
        <ele>366</ele>
        <time>2016-05-15T06:57:22.000Z</time>
      </trkpt>
      <trkpt lat="44.51301" lon="4.24456">
        <ele>366</ele>
        <time>2016-05-15T06:57:23.000Z</time>
      </trkpt>
      <trkpt lat="44.51301" lon="4.24452">
        <ele>366</ele>
        <time>2016-05-15T06:57:24.000Z</time>
      </trkpt>
      <trkpt lat="44.51302" lon="4.24449">
        <ele>366</ele>
        <time>2016-05-15T06:57:25.000Z</time>
      </trkpt>
      <trkpt lat="44.51301" lon="4.24445">
        <ele>366</ele>
        <time>2016-05-15T06:57:26.000Z</time>
      </trkpt>
      <trkpt lat="44.51301" lon="4.24442">
        <ele>366</ele>
        <time>2016-05-15T06:57:27.000Z</time>
      </trkpt>
      <trkpt lat="44.51301" lon="4.24439">
        <ele>366</ele>
        <time>2016-05-15T06:57:28.000Z</time>
      </trkpt>
      <trkpt lat="44.51301" lon="4.24435">
        <ele>366</ele>
        <time>2016-05-15T06:57:29.000Z</time>
      </trkpt>
      <trkpt lat="44.51301" lon="4.24432">
        <ele>366</ele>
        <time>2016-05-15T06:57:30.000Z</time>
      </trkpt>
      <trkpt lat="44.51302" lon="4.24428">
        <ele>366</ele>
        <time>2016-05-15T06:57:31.000Z</time>
      </trkpt>
      <trkpt lat="44.51302" lon="4.24424">
        <ele>366</ele>
        <time>2016-05-15T06:57:32.000Z</time>
      </trkpt>
      <trkpt lat="44.51302" lon="4.24421">
        <ele>366</ele>
        <time>2016-05-15T06:57:33.000Z</time>
      </trkpt>
      <trkpt lat="44.51303" lon="4.24417">
        <ele>366</ele>
        <time>2016-05-15T06:57:34.000Z</time>
      </trkpt>
      <trkpt lat="44.51303" lon="4.24413">
        <ele>365</ele>
        <time>2016-05-15T06:57:35.000Z</time>
      </trkpt>
      <trkpt lat="44.51304" lon="4.2441">
        <ele>365</ele>
        <time>2016-05-15T06:57:36.000Z</time>
      </trkpt>
      <trkpt lat="44.51304" lon="4.24407">
        <ele>365</ele>
        <time>2016-05-15T06:57:37.000Z</time>
      </trkpt>
      <trkpt lat="44.51305" lon="4.24403">
        <ele>365</ele>
        <time>2016-05-15T06:57:38.000Z</time>
      </trkpt>
      <trkpt lat="44.51305" lon="4.24399">
        <ele>365</ele>
        <time>2016-05-15T06:57:39.000Z</time>
      </trkpt>
      <trkpt lat="44.51306" lon="4.24394">
        <ele>365</ele>
        <time>2016-05-15T06:57:40.000Z</time>
      </trkpt>
      <trkpt lat="44.51307" lon="4.24389">
        <ele>365</ele>
        <time>2016-05-15T06:57:41.000Z</time>
      </trkpt>
      <trkpt lat="44.51308" lon="4.24384">
        <ele>365</ele>
        <time>2016-05-15T06:57:42.000Z</time>
      </trkpt>
      <trkpt lat="44.51308" lon="4.2438">
        <ele>364</ele>
        <time>2016-05-15T06:57:43.000Z</time>
      </trkpt>
      <trkpt lat="44.51309" lon="4.24375">
        <ele>364</ele>
        <time>2016-05-15T06:57:44.000Z</time>
      </trkpt>
      <trkpt lat="44.5131" lon="4.24369">
        <ele>364</ele>
        <time>2016-05-15T06:57:45.000Z</time>
      </trkpt>
      <trkpt lat="44.5131" lon="4.24363">
        <ele>364</ele>
        <time>2016-05-15T06:57:46.000Z</time>
      </trkpt>
      <trkpt lat="44.51311" lon="4.24358">
        <ele>363</ele>
        <time>2016-05-15T06:57:47.000Z</time>
      </trkpt>
      <trkpt lat="44.51311" lon="4.24352">
        <ele>363</ele>
        <time>2016-05-15T06:57:48.000Z</time>
      </trkpt>
      <trkpt lat="44.51312" lon="4.24347">
        <ele>363</ele>
        <time>2016-05-15T06:57:49.000Z</time>
      </trkpt>
      <trkpt lat="44.51312" lon="4.24341">
        <ele>363</ele>
        <time>2016-05-15T06:57:50.000Z</time>
      </trkpt>
      <trkpt lat="44.51313" lon="4.24336">
        <ele>363</ele>
        <time>2016-05-15T06:57:51.000Z</time>
      </trkpt>
      <trkpt lat="44.51313" lon="4.24331">
        <ele>361</ele>
        <time>2016-05-15T06:57:52.000Z</time>
      </trkpt>
      <trkpt lat="44.51314" lon="4.24326">
        <ele>361</ele>
        <time>2016-05-15T06:57:53.000Z</time>
      </trkpt>
      <trkpt lat="44.51314" lon="4.2432">
        <ele>361</ele>
        <time>2016-05-15T06:57:54.000Z</time>
      </trkpt>
      <trkpt lat="44.51314" lon="4.24315">
        <ele>361</ele>
        <time>2016-05-15T06:57:55.000Z</time>
      </trkpt>
      <trkpt lat="44.51315" lon="4.2431">
        <ele>361</ele>
        <time>2016-05-15T06:57:56.000Z</time>
      </trkpt>
      <trkpt lat="44.51315" lon="4.24305">
        <ele>361</ele>
        <time>2016-05-15T06:57:57.000Z</time>
      </trkpt>
      <trkpt lat="44.51315" lon="4.243">
        <ele>361</ele>
        <time>2016-05-15T06:57:58.000Z</time>
      </trkpt>
      <trkpt lat="44.51316" lon="4.24295">
        <ele>361</ele>
        <time>2016-05-15T06:57:59.000Z</time>
      </trkpt>
      <trkpt lat="44.51316" lon="4.24291">
        <ele>361</ele>
        <time>2016-05-15T06:58:00.000Z</time>
      </trkpt>
      <trkpt lat="44.51316" lon="4.24286">
        <ele>361</ele>
        <time>2016-05-15T06:58:01.000Z</time>
      </trkpt>
      <trkpt lat="44.51317" lon="4.24281">
        <ele>362</ele>
        <time>2016-05-15T06:58:02.000Z</time>
      </trkpt>
      <trkpt lat="44.51317" lon="4.24277">
        <ele>362</ele>
        <time>2016-05-15T06:58:03.000Z</time>
      </trkpt>
      <trkpt lat="44.51317" lon="4.24272">
        <ele>362</ele>
        <time>2016-05-15T06:58:04.000Z</time>
      </trkpt>
      <trkpt lat="44.51318" lon="4.24267">
        <ele>362</ele>
        <time>2016-05-15T06:58:05.000Z</time>
      </trkpt>
      <trkpt lat="44.51318" lon="4.24263">
        <ele>362</ele>
        <time>2016-05-15T06:58:06.000Z</time>
      </trkpt>
      <trkpt lat="44.51318" lon="4.24258">
        <ele>362</ele>
        <time>2016-05-15T06:58:07.000Z</time>
      </trkpt>
      <trkpt lat="44.51318" lon="4.24253">
        <ele>362</ele>
        <time>2016-05-15T06:58:08.000Z</time>
      </trkpt>
      <trkpt lat="44.51318" lon="4.24249">
        <ele>363</ele>
        <time>2016-05-15T06:58:09.000Z</time>
      </trkpt>
      <trkpt lat="44.51319" lon="4.24244">
        <ele>363</ele>
        <time>2016-05-15T06:58:10.000Z</time>
      </trkpt>
      <trkpt lat="44.51319" lon="4.24239">
        <ele>364</ele>
        <time>2016-05-15T06:58:11.000Z</time>
      </trkpt>
      <trkpt lat="44.51319" lon="4.24234">
        <ele>364</ele>
        <time>2016-05-15T06:58:12.000Z</time>
      </trkpt>
      <trkpt lat="44.51319" lon="4.24229">
        <ele>364</ele>
        <time>2016-05-15T06:58:13.000Z</time>
      </trkpt>
      <trkpt lat="44.51319" lon="4.24225">
        <ele>364</ele>
        <time>2016-05-15T06:58:14.000Z</time>
      </trkpt>
      <trkpt lat="44.51319" lon="4.2422">
        <ele>364</ele>
        <time>2016-05-15T06:58:15.000Z</time>
      </trkpt>
      <trkpt lat="44.51318" lon="4.24215">
        <ele>364</ele>
        <time>2016-05-15T06:58:16.000Z</time>
      </trkpt>
      <trkpt lat="44.51318" lon="4.2421">
        <ele>365</ele>
        <time>2016-05-15T06:58:17.000Z</time>
      </trkpt>
      <trkpt lat="44.51318" lon="4.24206">
        <ele>365</ele>
        <time>2016-05-15T06:58:18.000Z</time>
      </trkpt>
      <trkpt lat="44.51317" lon="4.24201">
        <ele>365</ele>
        <time>2016-05-15T06:58:19.000Z</time>
      </trkpt>
      <trkpt lat="44.51317" lon="4.24197">
        <ele>365</ele>
        <time>2016-05-15T06:58:20.000Z</time>
      </trkpt>
      <trkpt lat="44.51317" lon="4.24193">
        <ele>365</ele>
        <time>2016-05-15T06:58:21.000Z</time>
      </trkpt>
      <trkpt lat="44.51316" lon="4.24188">
        <ele>365</ele>
        <time>2016-05-15T06:58:22.000Z</time>
      </trkpt>
      <trkpt lat="44.51317" lon="4.24184">
        <ele>366</ele>
        <time>2016-05-15T06:58:23.000Z</time>
      </trkpt>
      <trkpt lat="44.51316" lon="4.2418">
        <ele>366</ele>
        <time>2016-05-15T06:58:24.000Z</time>
      </trkpt>
      <trkpt lat="44.51316" lon="4.24176">
        <ele>366</ele>
        <time>2016-05-15T06:58:25.000Z</time>
      </trkpt>
      <trkpt lat="44.51316" lon="4.24173">
        <ele>366</ele>
        <time>2016-05-15T06:58:26.000Z</time>
      </trkpt>
      <trkpt lat="44.51316" lon="4.24169">
        <ele>366</ele>
        <time>2016-05-15T06:58:27.000Z</time>
      </trkpt>
      <trkpt lat="44.51316" lon="4.24164">
        <ele>368</ele>
        <time>2016-05-15T06:58:28.000Z</time>
      </trkpt>
      <trkpt lat="44.51317" lon="4.24159">
        <ele>368</ele>
        <time>2016-05-15T06:58:29.000Z</time>
      </trkpt>
      <trkpt lat="44.51317" lon="4.24155">
        <ele>368</ele>
        <time>2016-05-15T06:58:30.000Z</time>
      </trkpt>
      <trkpt lat="44.51318" lon="4.2415">
        <ele>368</ele>
        <time>2016-05-15T06:58:31.000Z</time>
      </trkpt>
      <trkpt lat="44.51317" lon="4.24145">
        <ele>368</ele>
        <time>2016-05-15T06:58:32.000Z</time>
      </trkpt>
      <trkpt lat="44.51318" lon="4.2414">
        <ele>368</ele>
        <time>2016-05-15T06:58:33.000Z</time>
      </trkpt>
      <trkpt lat="44.51318" lon="4.24136">
        <ele>368</ele>
        <time>2016-05-15T06:58:34.000Z</time>
      </trkpt>
      <trkpt lat="44.51318" lon="4.24132">
        <ele>368</ele>
        <time>2016-05-15T06:58:35.000Z</time>
      </trkpt>
      <trkpt lat="44.51318" lon="4.24128">
        <ele>368</ele>
        <time>2016-05-15T06:58:36.000Z</time>
      </trkpt>
      <trkpt lat="44.51317" lon="4.24124">
        <ele>368</ele>
        <time>2016-05-15T06:58:37.000Z</time>
      </trkpt>
      <trkpt lat="44.51317" lon="4.24121">
        <ele>368</ele>
        <time>2016-05-15T06:58:38.000Z</time>
      </trkpt>
      <trkpt lat="44.51317" lon="4.24116">
        <ele>368</ele>
        <time>2016-05-15T06:58:39.000Z</time>
      </trkpt>
      <trkpt lat="44.51316" lon="4.24112">
        <ele>368</ele>
        <time>2016-05-15T06:58:40.000Z</time>
      </trkpt>
      <trkpt lat="44.51316" lon="4.24108">
        <ele>368</ele>
        <time>2016-05-15T06:58:41.000Z</time>
      </trkpt>
      <trkpt lat="44.51315" lon="4.24103">
        <ele>368</ele>
        <time>2016-05-15T06:58:42.000Z</time>
      </trkpt>
      <trkpt lat="44.51315" lon="4.24099">
        <ele>368</ele>
        <time>2016-05-15T06:58:43.000Z</time>
      </trkpt>
      <trkpt lat="44.51314" lon="4.24095">
        <ele>368</ele>
        <time>2016-05-15T06:58:44.000Z</time>
      </trkpt>
      <trkpt lat="44.51312" lon="4.24091">
        <ele>368</ele>
        <time>2016-05-15T06:58:45.000Z</time>
      </trkpt>
      <trkpt lat="44.51311" lon="4.24087">
        <ele>368</ele>
        <time>2016-05-15T06:58:46.000Z</time>
      </trkpt>
      <trkpt lat="44.5131" lon="4.24083">
        <ele>369</ele>
        <time>2016-05-15T06:58:47.000Z</time>
      </trkpt>
      <trkpt lat="44.51309" lon="4.24079">
        <ele>369</ele>
        <time>2016-05-15T06:58:48.000Z</time>
      </trkpt>
      <trkpt lat="44.51307" lon="4.24075">
        <ele>370</ele>
        <time>2016-05-15T06:58:49.000Z</time>
      </trkpt>
      <trkpt lat="44.51305" lon="4.24071">
        <ele>370</ele>
        <time>2016-05-15T06:58:50.000Z</time>
      </trkpt>
      <trkpt lat="44.51303" lon="4.24067">
        <ele>370</ele>
        <time>2016-05-15T06:58:51.000Z</time>
      </trkpt>
      <trkpt lat="44.51301" lon="4.24064">
        <ele>370</ele>
        <time>2016-05-15T06:58:52.000Z</time>
      </trkpt>
      <trkpt lat="44.51299" lon="4.2406">
        <ele>370</ele>
        <time>2016-05-15T06:58:53.000Z</time>
      </trkpt>
      <trkpt lat="44.51296" lon="4.24056">
        <ele>370</ele>
        <time>2016-05-15T06:58:54.000Z</time>
      </trkpt>
      <trkpt lat="44.51295" lon="4.24053">
        <ele>370</ele>
        <time>2016-05-15T06:58:55.000Z</time>
      </trkpt>
      <trkpt lat="44.51293" lon="4.24049">
        <ele>370</ele>
        <time>2016-05-15T06:58:56.000Z</time>
      </trkpt>
      <trkpt lat="44.51291" lon="4.24046">
        <ele>370</ele>
        <time>2016-05-15T06:58:57.000Z</time>
      </trkpt>
      <trkpt lat="44.5129" lon="4.24042">
        <ele>370</ele>
        <time>2016-05-15T06:58:58.000Z</time>
      </trkpt>
      <trkpt lat="44.51288" lon="4.24038">
        <ele>371</ele>
        <time>2016-05-15T06:58:59.000Z</time>
      </trkpt>
      <trkpt lat="44.51286" lon="4.24035">
        <ele>371</ele>
        <time>2016-05-15T06:59:00.000Z</time>
      </trkpt>
      <trkpt lat="44.51284" lon="4.24031">
        <ele>371</ele>
        <time>2016-05-15T06:59:01.000Z</time>
      </trkpt>
      <trkpt lat="44.51282" lon="4.24028">
        <ele>371</ele>
        <time>2016-05-15T06:59:02.000Z</time>
      </trkpt>
      <trkpt lat="44.5128" lon="4.24025">
        <ele>371</ele>
        <time>2016-05-15T06:59:03.000Z</time>
      </trkpt>
      <trkpt lat="44.51278" lon="4.24022">
        <ele>371</ele>
        <time>2016-05-15T06:59:04.000Z</time>
      </trkpt>
      <trkpt lat="44.51276" lon="4.24018">
        <ele>371</ele>
        <time>2016-05-15T06:59:05.000Z</time>
      </trkpt>
      <trkpt lat="44.51274" lon="4.24014">
        <ele>371</ele>
        <time>2016-05-15T06:59:06.000Z</time>
      </trkpt>
      <trkpt lat="44.51273" lon="4.2401">
        <ele>371</ele>
        <time>2016-05-15T06:59:07.000Z</time>
      </trkpt>
      <trkpt lat="44.51272" lon="4.24005">
        <ele>371</ele>
        <time>2016-05-15T06:59:08.000Z</time>
      </trkpt>
      <trkpt lat="44.5127" lon="4.24001">
        <ele>371</ele>
        <time>2016-05-15T06:59:09.000Z</time>
      </trkpt>
      <trkpt lat="44.51269" lon="4.23997">
        <ele>375</ele>
        <time>2016-05-15T06:59:10.000Z</time>
      </trkpt>
      <trkpt lat="44.51268" lon="4.23992">
        <ele>375</ele>
        <time>2016-05-15T06:59:11.000Z</time>
      </trkpt>
      <trkpt lat="44.51267" lon="4.23988">
        <ele>375</ele>
        <time>2016-05-15T06:59:12.000Z</time>
      </trkpt>
      <trkpt lat="44.51265" lon="4.23984">
        <ele>376</ele>
        <time>2016-05-15T06:59:13.000Z</time>
      </trkpt>
      <trkpt lat="44.51264" lon="4.2398">
        <ele>376</ele>
        <time>2016-05-15T06:59:14.000Z</time>
      </trkpt>
      <trkpt lat="44.51262" lon="4.23976">
        <ele>376</ele>
        <time>2016-05-15T06:59:15.000Z</time>
      </trkpt>
      <trkpt lat="44.5126" lon="4.23972">
        <ele>377</ele>
        <time>2016-05-15T06:59:16.000Z</time>
      </trkpt>
      <trkpt lat="44.51259" lon="4.23969">
        <ele>377</ele>
        <time>2016-05-15T06:59:17.000Z</time>
      </trkpt>
      <trkpt lat="44.51257" lon="4.23965">
        <ele>377</ele>
        <time>2016-05-15T06:59:18.000Z</time>
      </trkpt>
      <trkpt lat="44.51256" lon="4.23962">
        <ele>377</ele>
        <time>2016-05-15T06:59:19.000Z</time>
      </trkpt>
      <trkpt lat="44.51254" lon="4.23959">
        <ele>378</ele>
        <time>2016-05-15T06:59:20.000Z</time>
      </trkpt>
      <trkpt lat="44.51253" lon="4.23955">
        <ele>378</ele>
        <time>2016-05-15T06:59:21.000Z</time>
      </trkpt>
      <trkpt lat="44.51251" lon="4.23952">
        <ele>378</ele>
        <time>2016-05-15T06:59:22.000Z</time>
      </trkpt>
      <trkpt lat="44.5125" lon="4.23949">
        <ele>375</ele>
        <time>2016-05-15T06:59:23.000Z</time>
      </trkpt>
      <trkpt lat="44.51249" lon="4.23946">
        <ele>375</ele>
        <time>2016-05-15T06:59:24.000Z</time>
      </trkpt>
      <trkpt lat="44.51247" lon="4.23942">
        <ele>376</ele>
        <time>2016-05-15T06:59:25.000Z</time>
      </trkpt>
      <trkpt lat="44.51246" lon="4.23939">
        <ele>376</ele>
        <time>2016-05-15T06:59:26.000Z</time>
      </trkpt>
      <trkpt lat="44.51245" lon="4.23936">
        <ele>377</ele>
        <time>2016-05-15T06:59:27.000Z</time>
      </trkpt>
      <trkpt lat="44.51243" lon="4.23933">
        <ele>377</ele>
        <time>2016-05-15T06:59:28.000Z</time>
      </trkpt>
      <trkpt lat="44.51242" lon="4.2393">
        <ele>377</ele>
        <time>2016-05-15T06:59:29.000Z</time>
      </trkpt>
      <trkpt lat="44.5124" lon="4.23928">
        <ele>378</ele>
        <time>2016-05-15T06:59:30.000Z</time>
      </trkpt>
      <trkpt lat="44.51238" lon="4.23925">
        <ele>378</ele>
        <time>2016-05-15T06:59:31.000Z</time>
      </trkpt>
      <trkpt lat="44.51237" lon="4.23923">
        <ele>378</ele>
        <time>2016-05-15T06:59:32.000Z</time>
      </trkpt>
      <trkpt lat="44.51235" lon="4.23921">
        <ele>377</ele>
        <time>2016-05-15T06:59:33.000Z</time>
      </trkpt>
      <trkpt lat="44.51232" lon="4.23918">
        <ele>377</ele>
        <time>2016-05-15T06:59:34.000Z</time>
      </trkpt>
      <trkpt lat="44.5123" lon="4.23916">
        <ele>379</ele>
        <time>2016-05-15T06:59:35.000Z</time>
      </trkpt>
      <trkpt lat="44.51228" lon="4.23914">
        <ele>379</ele>
        <time>2016-05-15T06:59:36.000Z</time>
      </trkpt>
      <trkpt lat="44.51226" lon="4.23912">
        <ele>379</ele>
        <time>2016-05-15T06:59:37.000Z</time>
      </trkpt>
      <trkpt lat="44.51224" lon="4.2391">
        <ele>378</ele>
        <time>2016-05-15T06:59:38.000Z</time>
      </trkpt>
      <trkpt lat="44.51221" lon="4.23907">
        <ele>378</ele>
        <time>2016-05-15T06:59:39.000Z</time>
      </trkpt>
      <trkpt lat="44.51219" lon="4.23905">
        <ele>378</ele>
        <time>2016-05-15T06:59:40.000Z</time>
      </trkpt>
      <trkpt lat="44.51216" lon="4.23903">
        <ele>378</ele>
        <time>2016-05-15T06:59:41.000Z</time>
      </trkpt>
      <trkpt lat="44.51214" lon="4.239">
        <ele>377</ele>
        <time>2016-05-15T06:59:42.000Z</time>
      </trkpt>
      <trkpt lat="44.51212" lon="4.23897">
        <ele>377</ele>
        <time>2016-05-15T06:59:43.000Z</time>
      </trkpt>
      <trkpt lat="44.5121" lon="4.23894">
        <ele>377</ele>
        <time>2016-05-15T06:59:44.000Z</time>
      </trkpt>
      <trkpt lat="44.51207" lon="4.23891">
        <ele>377</ele>
        <time>2016-05-15T06:59:45.000Z</time>
      </trkpt>
      <trkpt lat="44.51205" lon="4.23887">
        <ele>377</ele>
        <time>2016-05-15T06:59:46.000Z</time>
      </trkpt>
      <trkpt lat="44.51203" lon="4.23884">
        <ele>377</ele>
        <time>2016-05-15T06:59:47.000Z</time>
      </trkpt>
      <trkpt lat="44.512" lon="4.2388">
        <ele>377</ele>
        <time>2016-05-15T06:59:48.000Z</time>
      </trkpt>
      <trkpt lat="44.51198" lon="4.23877">
        <ele>376</ele>
        <time>2016-05-15T06:59:49.000Z</time>
      </trkpt>
      <trkpt lat="44.51195" lon="4.23874">
        <ele>376</ele>
        <time>2016-05-15T06:59:50.000Z</time>
      </trkpt>
      <trkpt lat="44.51192" lon="4.2387">
        <ele>376</ele>
        <time>2016-05-15T06:59:51.000Z</time>
      </trkpt>
      <trkpt lat="44.5119" lon="4.23867">
        <ele>376</ele>
        <time>2016-05-15T06:59:52.000Z</time>
      </trkpt>
      <trkpt lat="44.51187" lon="4.23863">
        <ele>376</ele>
        <time>2016-05-15T06:59:53.000Z</time>
      </trkpt>
      <trkpt lat="44.51184" lon="4.2386">
        <ele>376</ele>
        <time>2016-05-15T06:59:54.000Z</time>
      </trkpt>
      <trkpt lat="44.51181" lon="4.23857">
        <ele>376</ele>
        <time>2016-05-15T06:59:55.000Z</time>
      </trkpt>
      <trkpt lat="44.51179" lon="4.23854">
        <ele>375</ele>
        <time>2016-05-15T06:59:56.000Z</time>
      </trkpt>
      <trkpt lat="44.51176" lon="4.23851">
        <ele>375</ele>
        <time>2016-05-15T06:59:57.000Z</time>
      </trkpt>
      <trkpt lat="44.51173" lon="4.23847">
        <ele>375</ele>
        <time>2016-05-15T06:59:58.000Z</time>
      </trkpt>
      <trkpt lat="44.5117" lon="4.23843">
        <ele>374</ele>
        <time>2016-05-15T06:59:59.000Z</time>
      </trkpt>
      <trkpt lat="44.51168" lon="4.2384">
        <ele>374</ele>
        <time>2016-05-15T07:00:00.000Z</time>
      </trkpt>
      <trkpt lat="44.51165" lon="4.23836">
        <ele>372</ele>
        <time>2016-05-15T07:00:01.000Z</time>
      </trkpt>
      <trkpt lat="44.51163" lon="4.23833">
        <ele>373</ele>
        <time>2016-05-15T07:00:02.000Z</time>
      </trkpt>
      <trkpt lat="44.51162" lon="4.23829">
        <ele>372</ele>
        <time>2016-05-15T07:00:03.000Z</time>
      </trkpt>
      <trkpt lat="44.51162" lon="4.23825">
        <ele>372</ele>
        <time>2016-05-15T07:00:04.000Z</time>
      </trkpt>
      <trkpt lat="44.51162" lon="4.2382">
        <ele>372</ele>
        <time>2016-05-15T07:00:05.000Z</time>
      </trkpt>
      <trkpt lat="44.51163" lon="4.23816">
        <ele>372</ele>
        <time>2016-05-15T07:00:06.000Z</time>
      </trkpt>
      <trkpt lat="44.51164" lon="4.23813">
        <ele>372</ele>
        <time>2016-05-15T07:00:07.000Z</time>
      </trkpt>
      <trkpt lat="44.51166" lon="4.2381">
        <ele>372</ele>
        <time>2016-05-15T07:00:08.000Z</time>
      </trkpt>
      <trkpt lat="44.51168" lon="4.23808">
        <ele>375</ele>
        <time>2016-05-15T07:00:09.000Z</time>
      </trkpt>
      <trkpt lat="44.5117" lon="4.23807">
        <ele>375</ele>
        <time>2016-05-15T07:00:10.000Z</time>
      </trkpt>
      <trkpt lat="44.51173" lon="4.23804">
        <ele>375</ele>
        <time>2016-05-15T07:00:11.000Z</time>
      </trkpt>
      <trkpt lat="44.51175" lon="4.23802">
        <ele>375</ele>
        <time>2016-05-15T07:00:12.000Z</time>
      </trkpt>
      <trkpt lat="44.51177" lon="4.238">
        <ele>375</ele>
        <time>2016-05-15T07:00:13.000Z</time>
      </trkpt>
      <trkpt lat="44.5118" lon="4.23798">
        <ele>375</ele>
        <time>2016-05-15T07:00:14.000Z</time>
      </trkpt>
      <trkpt lat="44.51183" lon="4.23797">
        <ele>375</ele>
        <time>2016-05-15T07:00:15.000Z</time>
      </trkpt>
      <trkpt lat="44.51186" lon="4.23796">
        <ele>375</ele>
        <time>2016-05-15T07:00:16.000Z</time>
      </trkpt>
      <trkpt lat="44.51189" lon="4.23794">
        <ele>375</ele>
        <time>2016-05-15T07:00:17.000Z</time>
      </trkpt>
      <trkpt lat="44.51192" lon="4.23794">
        <ele>376</ele>
        <time>2016-05-15T07:00:18.000Z</time>
      </trkpt>
      <trkpt lat="44.51194" lon="4.23793">
        <ele>376</ele>
        <time>2016-05-15T07:00:19.000Z</time>
      </trkpt>
      <trkpt lat="44.51197" lon="4.23793">
        <ele>376</ele>
        <time>2016-05-15T07:00:20.000Z</time>
      </trkpt>
      <trkpt lat="44.512" lon="4.23793">
        <ele>376</ele>
        <time>2016-05-15T07:00:21.000Z</time>
      </trkpt>
      <trkpt lat="44.51203" lon="4.23791">
        <ele>376</ele>
        <time>2016-05-15T07:00:22.000Z</time>
      </trkpt>
      <trkpt lat="44.51205" lon="4.23789">
        <ele>376</ele>
        <time>2016-05-15T07:00:23.000Z</time>
      </trkpt>
      <trkpt lat="44.51207" lon="4.23787">
        <ele>376</ele>
        <time>2016-05-15T07:00:24.000Z</time>
      </trkpt>
      <trkpt lat="44.5121" lon="4.23786">
        <ele>376</ele>
        <time>2016-05-15T07:00:25.000Z</time>
      </trkpt>
      <trkpt lat="44.51212" lon="4.23785">
        <ele>376</ele>
        <time>2016-05-15T07:00:26.000Z</time>
      </trkpt>
      <trkpt lat="44.51215" lon="4.23785">
        <ele>376</ele>
        <time>2016-05-15T07:00:27.000Z</time>
      </trkpt>
      <trkpt lat="44.51218" lon="4.23785">
        <ele>376</ele>
        <time>2016-05-15T07:00:28.000Z</time>
      </trkpt>
      <trkpt lat="44.51221" lon="4.23785">
        <ele>377</ele>
        <time>2016-05-15T07:00:29.000Z</time>
      </trkpt>
      <trkpt lat="44.51224" lon="4.23786">
        <ele>377</ele>
        <time>2016-05-15T07:00:30.000Z</time>
      </trkpt>
      <trkpt lat="44.51226" lon="4.23786">
        <ele>377</ele>
        <time>2016-05-15T07:00:31.000Z</time>
      </trkpt>
      <trkpt lat="44.51229" lon="4.23786">
        <ele>377</ele>
        <time>2016-05-15T07:00:32.000Z</time>
      </trkpt>
      <trkpt lat="44.51232" lon="4.23786">
        <ele>377</ele>
        <time>2016-05-15T07:00:33.000Z</time>
      </trkpt>
      <trkpt lat="44.51234" lon="4.23786">
        <ele>377</ele>
        <time>2016-05-15T07:00:34.000Z</time>
      </trkpt>
      <trkpt lat="44.51236" lon="4.23786">
        <ele>377</ele>
        <time>2016-05-15T07:00:35.000Z</time>
      </trkpt>
      <trkpt lat="44.51238" lon="4.23786">
        <ele>377</ele>
        <time>2016-05-15T07:00:36.000Z</time>
      </trkpt>
      <trkpt lat="44.51241" lon="4.23786">
        <ele>377</ele>
        <time>2016-05-15T07:00:37.000Z</time>
      </trkpt>
      <trkpt lat="44.51244" lon="4.23786">
        <ele>377</ele>
        <time>2016-05-15T07:00:38.000Z</time>
      </trkpt>
      <trkpt lat="44.51246" lon="4.23786">
        <ele>377</ele>
        <time>2016-05-15T07:00:39.000Z</time>
      </trkpt>
      <trkpt lat="44.51249" lon="4.23786">
        <ele>377</ele>
        <time>2016-05-15T07:00:40.000Z</time>
      </trkpt>
      <trkpt lat="44.51251" lon="4.23786">
        <ele>382</ele>
        <time>2016-05-15T07:00:41.000Z</time>
      </trkpt>
      <trkpt lat="44.51254" lon="4.23785">
        <ele>382</ele>
        <time>2016-05-15T07:00:42.000Z</time>
      </trkpt>
      <trkpt lat="44.51256" lon="4.23785">
        <ele>382</ele>
        <time>2016-05-15T07:00:43.000Z</time>
      </trkpt>
      <trkpt lat="44.51258" lon="4.23785">
        <ele>382</ele>
        <time>2016-05-15T07:00:44.000Z</time>
      </trkpt>
      <trkpt lat="44.51261" lon="4.23785">
        <ele>382</ele>
        <time>2016-05-15T07:00:45.000Z</time>
      </trkpt>
      <trkpt lat="44.51263" lon="4.23785">
        <ele>382</ele>
        <time>2016-05-15T07:00:46.000Z</time>
      </trkpt>
      <trkpt lat="44.51266" lon="4.23784">
        <ele>382</ele>
        <time>2016-05-15T07:00:47.000Z</time>
      </trkpt>
      <trkpt lat="44.51268" lon="4.23784">
        <ele>382</ele>
        <time>2016-05-15T07:00:48.000Z</time>
      </trkpt>
      <trkpt lat="44.5127" lon="4.23783">
        <ele>382</ele>
        <time>2016-05-15T07:00:49.000Z</time>
      </trkpt>
      <trkpt lat="44.51273" lon="4.23783">
        <ele>382</ele>
        <time>2016-05-15T07:00:50.000Z</time>
      </trkpt>
      <trkpt lat="44.51276" lon="4.23782">
        <ele>382</ele>
        <time>2016-05-15T07:00:51.000Z</time>
      </trkpt>
      <trkpt lat="44.51278" lon="4.23782">
        <ele>382</ele>
        <time>2016-05-15T07:00:52.000Z</time>
      </trkpt>
      <trkpt lat="44.51281" lon="4.23781">
        <ele>383</ele>
        <time>2016-05-15T07:00:53.000Z</time>
      </trkpt>
      <trkpt lat="44.51283" lon="4.2378">
        <ele>383</ele>
        <time>2016-05-15T07:00:54.000Z</time>
      </trkpt>
      <trkpt lat="44.51284" lon="4.2378">
        <ele>383</ele>
        <time>2016-05-15T07:00:55.000Z</time>
      </trkpt>
      <trkpt lat="44.51286" lon="4.2378">
        <ele>383</ele>
        <time>2016-05-15T07:00:56.000Z</time>
      </trkpt>
      <trkpt lat="44.51288" lon="4.23779">
        <ele>383</ele>
        <time>2016-05-15T07:00:57.000Z</time>
      </trkpt>
      <trkpt lat="44.5129" lon="4.23779">
        <ele>383</ele>
        <time>2016-05-15T07:00:58.000Z</time>
      </trkpt>
      <trkpt lat="44.51292" lon="4.23779">
        <ele>383</ele>
        <time>2016-05-15T07:00:59.000Z</time>
      </trkpt>
      <trkpt lat="44.51295" lon="4.23778">
        <ele>383</ele>
        <time>2016-05-15T07:01:00.000Z</time>
      </trkpt>
      <trkpt lat="44.51297" lon="4.23777">
        <ele>383</ele>
        <time>2016-05-15T07:01:01.000Z</time>
      </trkpt>
      <trkpt lat="44.51299" lon="4.23777">
        <ele>383</ele>
        <time>2016-05-15T07:01:02.000Z</time>
      </trkpt>
      <trkpt lat="44.51301" lon="4.23776">
        <ele>383</ele>
        <time>2016-05-15T07:01:03.000Z</time>
      </trkpt>
      <trkpt lat="44.51304" lon="4.23775">
        <ele>384</ele>
        <time>2016-05-15T07:01:04.000Z</time>
      </trkpt>
      <trkpt lat="44.51306" lon="4.23775">
        <ele>384</ele>
        <time>2016-05-15T07:01:05.000Z</time>
      </trkpt>
      <trkpt lat="44.51308" lon="4.23775">
        <ele>384</ele>
        <time>2016-05-15T07:01:06.000Z</time>
      </trkpt>
      <trkpt lat="44.5131" lon="4.23774">
        <ele>384</ele>
        <time>2016-05-15T07:01:07.000Z</time>
      </trkpt>
      <trkpt lat="44.51313" lon="4.23775">
        <ele>384</ele>
        <time>2016-05-15T07:01:08.000Z</time>
      </trkpt>
      <trkpt lat="44.51315" lon="4.23775">
        <ele>384</ele>
        <time>2016-05-15T07:01:09.000Z</time>
      </trkpt>
      <trkpt lat="44.51318" lon="4.23776">
        <ele>384</ele>
        <time>2016-05-15T07:01:10.000Z</time>
      </trkpt>
      <trkpt lat="44.5132" lon="4.23776">
        <ele>384</ele>
        <time>2016-05-15T07:01:11.000Z</time>
      </trkpt>
      <trkpt lat="44.51323" lon="4.23776">
        <ele>384</ele>
        <time>2016-05-15T07:01:12.000Z</time>
      </trkpt>
      <trkpt lat="44.51325" lon="4.23776">
        <ele>384</ele>
        <time>2016-05-15T07:01:13.000Z</time>
      </trkpt>
      <trkpt lat="44.51327" lon="4.23776">
        <ele>384</ele>
        <time>2016-05-15T07:01:14.000Z</time>
      </trkpt>
      <trkpt lat="44.51329" lon="4.23776">
        <ele>384</ele>
        <time>2016-05-15T07:01:15.000Z</time>
      </trkpt>
      <trkpt lat="44.51332" lon="4.23775">
        <ele>384</ele>
        <time>2016-05-15T07:01:16.000Z</time>
      </trkpt>
      <trkpt lat="44.51334" lon="4.23774">
        <ele>387</ele>
        <time>2016-05-15T07:01:17.000Z</time>
      </trkpt>
      <trkpt lat="44.51336" lon="4.23774">
        <ele>387</ele>
        <time>2016-05-15T07:01:18.000Z</time>
      </trkpt>
      <trkpt lat="44.51337" lon="4.23774">
        <ele>387</ele>
        <time>2016-05-15T07:01:19.000Z</time>
      </trkpt>
      <trkpt lat="44.51339" lon="4.23773">
        <ele>387</ele>
        <time>2016-05-15T07:01:20.000Z</time>
      </trkpt>
      <trkpt lat="44.51341" lon="4.23773">
        <ele>387</ele>
        <time>2016-05-15T07:01:21.000Z</time>
      </trkpt>
      <trkpt lat="44.51343" lon="4.23772">
        <ele>387</ele>
        <time>2016-05-15T07:01:22.000Z</time>
      </trkpt>
      <trkpt lat="44.51346" lon="4.23771">
        <ele>387</ele>
        <time>2016-05-15T07:01:23.000Z</time>
      </trkpt>
      <trkpt lat="44.51348" lon="4.2377">
        <ele>387</ele>
        <time>2016-05-15T07:01:24.000Z</time>
      </trkpt>
      <trkpt lat="44.5135" lon="4.2377">
        <ele>387</ele>
        <time>2016-05-15T07:01:25.000Z</time>
      </trkpt>
      <trkpt lat="44.51353" lon="4.23769">
        <ele>387</ele>
        <time>2016-05-15T07:01:26.000Z</time>
      </trkpt>
      <trkpt lat="44.51355" lon="4.23768">
        <ele>387</ele>
        <time>2016-05-15T07:01:27.000Z</time>
      </trkpt>
      <trkpt lat="44.51357" lon="4.23768">
        <ele>387</ele>
        <time>2016-05-15T07:01:28.000Z</time>
      </trkpt>
      <trkpt lat="44.5136" lon="4.23767">
        <ele>387</ele>
        <time>2016-05-15T07:01:29.000Z</time>
      </trkpt>
      <trkpt lat="44.51362" lon="4.23766">
        <ele>388</ele>
        <time>2016-05-15T07:01:30.000Z</time>
      </trkpt>
      <trkpt lat="44.51364" lon="4.23765">
        <ele>388</ele>
        <time>2016-05-15T07:01:31.000Z</time>
      </trkpt>
      <trkpt lat="44.51366" lon="4.23764">
        <ele>388</ele>
        <time>2016-05-15T07:01:32.000Z</time>
      </trkpt>
      <trkpt lat="44.51367" lon="4.23763">
        <ele>388</ele>
        <time>2016-05-15T07:01:33.000Z</time>
      </trkpt>
      <trkpt lat="44.5137" lon="4.23761">
        <ele>388</ele>
        <time>2016-05-15T07:01:34.000Z</time>
      </trkpt>
      <trkpt lat="44.51372" lon="4.2376">
        <ele>388</ele>
        <time>2016-05-15T07:01:35.000Z</time>
      </trkpt>
      <trkpt lat="44.51374" lon="4.2376">
        <ele>388</ele>
        <time>2016-05-15T07:01:36.000Z</time>
      </trkpt>
      <trkpt lat="44.51376" lon="4.2376">
        <ele>388</ele>
        <time>2016-05-15T07:01:37.000Z</time>
      </trkpt>
      <trkpt lat="44.51378" lon="4.23759">
        <ele>388</ele>
        <time>2016-05-15T07:01:38.000Z</time>
      </trkpt>
      <trkpt lat="44.51381" lon="4.23759">
        <ele>388</ele>
        <time>2016-05-15T07:01:39.000Z</time>
      </trkpt>
      <trkpt lat="44.51383" lon="4.23758">
        <ele>388</ele>
        <time>2016-05-15T07:01:40.000Z</time>
      </trkpt>
      <trkpt lat="44.51385" lon="4.23758">
        <ele>388</ele>
        <time>2016-05-15T07:01:41.000Z</time>
      </trkpt>
      <trkpt lat="44.51386" lon="4.23757">
        <ele>388</ele>
        <time>2016-05-15T07:01:42.000Z</time>
      </trkpt>
      <trkpt lat="44.51388" lon="4.23756">
        <ele>388</ele>
        <time>2016-05-15T07:01:43.000Z</time>
      </trkpt>
      <trkpt lat="44.5139" lon="4.23756">
        <ele>389</ele>
        <time>2016-05-15T07:01:44.000Z</time>
      </trkpt>
      <trkpt lat="44.51392" lon="4.23755">
        <ele>389</ele>
        <time>2016-05-15T07:01:45.000Z</time>
      </trkpt>
      <trkpt lat="44.51394" lon="4.23754">
        <ele>389</ele>
        <time>2016-05-15T07:01:46.000Z</time>
      </trkpt>
      <trkpt lat="44.51395" lon="4.23754">
        <ele>389</ele>
        <time>2016-05-15T07:01:47.000Z</time>
      </trkpt>
      <trkpt lat="44.51397" lon="4.23753">
        <ele>389</ele>
        <time>2016-05-15T07:01:48.000Z</time>
      </trkpt>
      <trkpt lat="44.51399" lon="4.23752">
        <ele>389</ele>
        <time>2016-05-15T07:01:49.000Z</time>
      </trkpt>
      <trkpt lat="44.51401" lon="4.23752">
        <ele>389</ele>
        <time>2016-05-15T07:01:50.000Z</time>
      </trkpt>
      <trkpt lat="44.51403" lon="4.23752">
        <ele>389</ele>
        <time>2016-05-15T07:01:51.000Z</time>
      </trkpt>
      <trkpt lat="44.51404" lon="4.23752">
        <ele>389</ele>
        <time>2016-05-15T07:01:52.000Z</time>
      </trkpt>
      <trkpt lat="44.51406" lon="4.23752">
        <ele>389</ele>
        <time>2016-05-15T07:01:53.000Z</time>
      </trkpt>
      <trkpt lat="44.51407" lon="4.23751">
        <ele>389</ele>
        <time>2016-05-15T07:01:54.000Z</time>
      </trkpt>
      <trkpt lat="44.51408" lon="4.2375">
        <ele>389</ele>
        <time>2016-05-15T07:01:55.000Z</time>
      </trkpt>
      <trkpt lat="44.5141" lon="4.2375">
        <ele>390</ele>
        <time>2016-05-15T07:01:56.000Z</time>
      </trkpt>
      <trkpt lat="44.51412" lon="4.2375">
        <ele>390</ele>
        <time>2016-05-15T07:01:57.000Z</time>
      </trkpt>
      <trkpt lat="44.51413" lon="4.23749">
        <ele>390</ele>
        <time>2016-05-15T07:01:58.000Z</time>
      </trkpt>
      <trkpt lat="44.51415" lon="4.23749">
        <ele>390</ele>
        <time>2016-05-15T07:01:59.000Z</time>
      </trkpt>
      <trkpt lat="44.51416" lon="4.23748">
        <ele>390</ele>
        <time>2016-05-15T07:02:00.000Z</time>
      </trkpt>
      <trkpt lat="44.51417" lon="4.23748">
        <ele>391</ele>
        <time>2016-05-15T07:02:01.000Z</time>
      </trkpt>
      <trkpt lat="44.51419" lon="4.23747">
        <ele>391</ele>
        <time>2016-05-15T07:02:02.000Z</time>
      </trkpt>
      <trkpt lat="44.51421" lon="4.23746">
        <ele>391</ele>
        <time>2016-05-15T07:02:03.000Z</time>
      </trkpt>
      <trkpt lat="44.51423" lon="4.23745">
        <ele>392</ele>
        <time>2016-05-15T07:02:04.000Z</time>
      </trkpt>
      <trkpt lat="44.51425" lon="4.23744">
        <ele>392</ele>
        <time>2016-05-15T07:02:05.000Z</time>
      </trkpt>
      <trkpt lat="44.51427" lon="4.23743">
        <ele>392</ele>
        <time>2016-05-15T07:02:06.000Z</time>
      </trkpt>
      <trkpt lat="44.51429" lon="4.23741">
        <ele>393</ele>
        <time>2016-05-15T07:02:07.000Z</time>
      </trkpt>
      <trkpt lat="44.5143" lon="4.2374">
        <ele>393</ele>
        <time>2016-05-15T07:02:08.000Z</time>
      </trkpt>
      <trkpt lat="44.51432" lon="4.23739">
        <ele>393</ele>
        <time>2016-05-15T07:02:09.000Z</time>
      </trkpt>
      <trkpt lat="44.51434" lon="4.23738">
        <ele>394</ele>
        <time>2016-05-15T07:02:10.000Z</time>
      </trkpt>
      <trkpt lat="44.51435" lon="4.23736">
        <ele>394</ele>
        <time>2016-05-15T07:02:11.000Z</time>
      </trkpt>
      <trkpt lat="44.51437" lon="4.23734">
        <ele>394</ele>
        <time>2016-05-15T07:02:12.000Z</time>
      </trkpt>
      <trkpt lat="44.51439" lon="4.23733">
        <ele>394</ele>
        <time>2016-05-15T07:02:13.000Z</time>
      </trkpt>
      <trkpt lat="44.5144" lon="4.23732">
        <ele>394</ele>
        <time>2016-05-15T07:02:14.000Z</time>
      </trkpt>
      <trkpt lat="44.51442" lon="4.23731">
        <ele>395</ele>
        <time>2016-05-15T07:02:15.000Z</time>
      </trkpt>
      <trkpt lat="44.51443" lon="4.23729">
        <ele>395</ele>
        <time>2016-05-15T07:02:16.000Z</time>
      </trkpt>
      <trkpt lat="44.51445" lon="4.23728">
        <ele>395</ele>
        <time>2016-05-15T07:02:17.000Z</time>
      </trkpt>
      <trkpt lat="44.51447" lon="4.23727">
        <ele>395</ele>
        <time>2016-05-15T07:02:18.000Z</time>
      </trkpt>
      <trkpt lat="44.51449" lon="4.23727">
        <ele>395</ele>
        <time>2016-05-15T07:02:19.000Z</time>
      </trkpt>
      <trkpt lat="44.51451" lon="4.23726">
        <ele>395</ele>
        <time>2016-05-15T07:02:20.000Z</time>
      </trkpt>
      <trkpt lat="44.51453" lon="4.23726">
        <ele>396</ele>
        <time>2016-05-15T07:02:21.000Z</time>
      </trkpt>
      <trkpt lat="44.51454" lon="4.23725">
        <ele>396</ele>
        <time>2016-05-15T07:02:22.000Z</time>
      </trkpt>
      <trkpt lat="44.51456" lon="4.23725">
        <ele>396</ele>
        <time>2016-05-15T07:02:23.000Z</time>
      </trkpt>
      <trkpt lat="44.51457" lon="4.23725">
        <ele>396</ele>
        <time>2016-05-15T07:02:24.000Z</time>
      </trkpt>
      <trkpt lat="44.51459" lon="4.23725">
        <ele>396</ele>
        <time>2016-05-15T07:02:25.000Z</time>
      </trkpt>
      <trkpt lat="44.51461" lon="4.23724">
        <ele>396</ele>
        <time>2016-05-15T07:02:26.000Z</time>
      </trkpt>
      <trkpt lat="44.51463" lon="4.23722">
        <ele>396</ele>
        <time>2016-05-15T07:02:27.000Z</time>
      </trkpt>
      <trkpt lat="44.51465" lon="4.23721">
        <ele>396</ele>
        <time>2016-05-15T07:02:28.000Z</time>
      </trkpt>
      <trkpt lat="44.51467" lon="4.2372">
        <ele>396</ele>
        <time>2016-05-15T07:02:29.000Z</time>
      </trkpt>
      <trkpt lat="44.51469" lon="4.23719">
        <ele>397</ele>
        <time>2016-05-15T07:02:30.000Z</time>
      </trkpt>
      <trkpt lat="44.51471" lon="4.23718">
        <ele>397</ele>
        <time>2016-05-15T07:02:31.000Z</time>
      </trkpt>
      <trkpt lat="44.51473" lon="4.23718">
        <ele>397</ele>
        <time>2016-05-15T07:02:32.000Z</time>
      </trkpt>
      <trkpt lat="44.51475" lon="4.23717">
        <ele>397</ele>
        <time>2016-05-15T07:02:33.000Z</time>
      </trkpt>
      <trkpt lat="44.51477" lon="4.23715">
        <ele>397</ele>
        <time>2016-05-15T07:02:34.000Z</time>
      </trkpt>
      <trkpt lat="44.51479" lon="4.23714">
        <ele>397</ele>
        <time>2016-05-15T07:02:35.000Z</time>
      </trkpt>
      <trkpt lat="44.51481" lon="4.23713">
        <ele>397</ele>
        <time>2016-05-15T07:02:36.000Z</time>
      </trkpt>
      <trkpt lat="44.51483" lon="4.23711">
        <ele>397</ele>
        <time>2016-05-15T07:02:37.000Z</time>
      </trkpt>
      <trkpt lat="44.51485" lon="4.2371">
        <ele>397</ele>
        <time>2016-05-15T07:02:38.000Z</time>
      </trkpt>
      <trkpt lat="44.51487" lon="4.2371">
        <ele>397</ele>
        <time>2016-05-15T07:02:39.000Z</time>
      </trkpt>
      <trkpt lat="44.51488" lon="4.23709">
        <ele>398</ele>
        <time>2016-05-15T07:02:40.000Z</time>
      </trkpt>
      <trkpt lat="44.5149" lon="4.23708">
        <ele>398</ele>
        <time>2016-05-15T07:02:41.000Z</time>
      </trkpt>
      <trkpt lat="44.51491" lon="4.23706">
        <ele>398</ele>
        <time>2016-05-15T07:02:42.000Z</time>
      </trkpt>
      <trkpt lat="44.51493" lon="4.23705">
        <ele>398</ele>
        <time>2016-05-15T07:02:43.000Z</time>
      </trkpt>
      <trkpt lat="44.51495" lon="4.23704">
        <ele>398</ele>
        <time>2016-05-15T07:02:44.000Z</time>
      </trkpt>
      <trkpt lat="44.51496" lon="4.23704">
        <ele>398</ele>
        <time>2016-05-15T07:02:45.000Z</time>
      </trkpt>
      <trkpt lat="44.51498" lon="4.23703">
        <ele>398</ele>
        <time>2016-05-15T07:02:46.000Z</time>
      </trkpt>
      <trkpt lat="44.515" lon="4.23703">
        <ele>398</ele>
        <time>2016-05-15T07:02:47.000Z</time>
      </trkpt>
      <trkpt lat="44.51501" lon="4.23702">
        <ele>401</ele>
        <time>2016-05-15T07:02:48.000Z</time>
      </trkpt>
      <trkpt lat="44.51503" lon="4.23701">
        <ele>401</ele>
        <time>2016-05-15T07:02:49.000Z</time>
      </trkpt>
      <trkpt lat="44.51504" lon="4.237">
        <ele>401</ele>
        <time>2016-05-15T07:02:50.000Z</time>
      </trkpt>
      <trkpt lat="44.51506" lon="4.23699">
        <ele>401</ele>
        <time>2016-05-15T07:02:51.000Z</time>
      </trkpt>
      <trkpt lat="44.51507" lon="4.23699">
        <ele>401</ele>
        <time>2016-05-15T07:02:52.000Z</time>
      </trkpt>
      <trkpt lat="44.51509" lon="4.23698">
        <ele>401</ele>
        <time>2016-05-15T07:02:53.000Z</time>
      </trkpt>
      <trkpt lat="44.5151" lon="4.23697">
        <ele>401</ele>
        <time>2016-05-15T07:02:54.000Z</time>
      </trkpt>
      <trkpt lat="44.51512" lon="4.23696">
        <ele>401</ele>
        <time>2016-05-15T07:02:55.000Z</time>
      </trkpt>
      <trkpt lat="44.51513" lon="4.23695">
        <ele>401</ele>
        <time>2016-05-15T07:02:56.000Z</time>
      </trkpt>
      <trkpt lat="44.51515" lon="4.23694">
        <ele>401</ele>
        <time>2016-05-15T07:02:57.000Z</time>
      </trkpt>
      <trkpt lat="44.51516" lon="4.23694">
        <ele>401</ele>
        <time>2016-05-15T07:02:58.000Z</time>
      </trkpt>
      <trkpt lat="44.51518" lon="4.23693">
        <ele>401</ele>
        <time>2016-05-15T07:02:59.000Z</time>
      </trkpt>
      <trkpt lat="44.5152" lon="4.23693">
        <ele>401</ele>
        <time>2016-05-15T07:03:00.000Z</time>
      </trkpt>
      <trkpt lat="44.51521" lon="4.23693">
        <ele>401</ele>
        <time>2016-05-15T07:03:01.000Z</time>
      </trkpt>
      <trkpt lat="44.51522" lon="4.23693">
        <ele>401</ele>
        <time>2016-05-15T07:03:02.000Z</time>
      </trkpt>
      <trkpt lat="44.51523" lon="4.23692">
        <ele>401</ele>
        <time>2016-05-15T07:03:03.000Z</time>
      </trkpt>
      <trkpt lat="44.51525" lon="4.23692">
        <ele>401</ele>
        <time>2016-05-15T07:03:04.000Z</time>
      </trkpt>
      <trkpt lat="44.51526" lon="4.23691">
        <ele>401</ele>
        <time>2016-05-15T07:03:05.000Z</time>
      </trkpt>
      <trkpt lat="44.51527" lon="4.23691">
        <ele>401</ele>
        <time>2016-05-15T07:03:06.000Z</time>
      </trkpt>
      <trkpt lat="44.51529" lon="4.2369">
        <ele>401</ele>
        <time>2016-05-15T07:03:07.000Z</time>
      </trkpt>
      <trkpt lat="44.5153" lon="4.2369">
        <ele>401</ele>
        <time>2016-05-15T07:03:08.000Z</time>
      </trkpt>
      <trkpt lat="44.51531" lon="4.2369">
        <ele>401</ele>
        <time>2016-05-15T07:03:09.000Z</time>
      </trkpt>
      <trkpt lat="44.51533" lon="4.2369">
        <ele>401</ele>
        <time>2016-05-15T07:03:10.000Z</time>
      </trkpt>
      <trkpt lat="44.51534" lon="4.23689">
        <ele>401</ele>
        <time>2016-05-15T07:03:11.000Z</time>
      </trkpt>
      <trkpt lat="44.51536" lon="4.23689">
        <ele>401</ele>
        <time>2016-05-15T07:03:12.000Z</time>
      </trkpt>
      <trkpt lat="44.51538" lon="4.23688">
        <ele>402</ele>
        <time>2016-05-15T07:03:13.000Z</time>
      </trkpt>
      <trkpt lat="44.51539" lon="4.23688">
        <ele>402</ele>
        <time>2016-05-15T07:03:14.000Z</time>
      </trkpt>
      <trkpt lat="44.5154" lon="4.23687">
        <ele>402</ele>
        <time>2016-05-15T07:03:15.000Z</time>
      </trkpt>
      <trkpt lat="44.51541" lon="4.23686">
        <ele>402</ele>
        <time>2016-05-15T07:03:16.000Z</time>
      </trkpt>
      <trkpt lat="44.51542" lon="4.23685">
        <ele>402</ele>
        <time>2016-05-15T07:03:17.000Z</time>
      </trkpt>
      <trkpt lat="44.51543" lon="4.23683">
        <ele>402</ele>
        <time>2016-05-15T07:03:18.000Z</time>
      </trkpt>
      <trkpt lat="44.51545" lon="4.23682">
        <ele>402</ele>
        <time>2016-05-15T07:03:19.000Z</time>
      </trkpt>
      <trkpt lat="44.51546" lon="4.23681">
        <ele>402</ele>
        <time>2016-05-15T07:03:20.000Z</time>
      </trkpt>
      <trkpt lat="44.51547" lon="4.2368">
        <ele>402</ele>
        <time>2016-05-15T07:03:21.000Z</time>
      </trkpt>
      <trkpt lat="44.51548" lon="4.23679">
        <ele>402</ele>
        <time>2016-05-15T07:03:22.000Z</time>
      </trkpt>
      <trkpt lat="44.51549" lon="4.23678">
        <ele>402</ele>
        <time>2016-05-15T07:03:23.000Z</time>
      </trkpt>
      <trkpt lat="44.5155" lon="4.23677">
        <ele>402</ele>
        <time>2016-05-15T07:03:24.000Z</time>
      </trkpt>
      <trkpt lat="44.51551" lon="4.23676">
        <ele>402</ele>
        <time>2016-05-15T07:03:25.000Z</time>
      </trkpt>
      <trkpt lat="44.51551" lon="4.23675">
        <ele>402</ele>
        <time>2016-05-15T07:03:26.000Z</time>
      </trkpt>
      <trkpt lat="44.51553" lon="4.23673">
        <ele>402</ele>
        <time>2016-05-15T07:03:27.000Z</time>
      </trkpt>
      <trkpt lat="44.51554" lon="4.23672">
        <ele>402</ele>
        <time>2016-05-15T07:03:28.000Z</time>
      </trkpt>
      <trkpt lat="44.51555" lon="4.23671">
        <ele>402</ele>
        <time>2016-05-15T07:03:29.000Z</time>
      </trkpt>
      <trkpt lat="44.51556" lon="4.2367">
        <ele>402</ele>
        <time>2016-05-15T07:03:30.000Z</time>
      </trkpt>
      <trkpt lat="44.51558" lon="4.23669">
        <ele>402</ele>
        <time>2016-05-15T07:03:31.000Z</time>
      </trkpt>
      <trkpt lat="44.51559" lon="4.23668">
        <ele>402</ele>
        <time>2016-05-15T07:03:32.000Z</time>
      </trkpt>
      <trkpt lat="44.5156" lon="4.23666">
        <ele>404</ele>
        <time>2016-05-15T07:03:33.000Z</time>
      </trkpt>
      <trkpt lat="44.51562" lon="4.23664">
        <ele>404</ele>
        <time>2016-05-15T07:03:34.000Z</time>
      </trkpt>
      <trkpt lat="44.51564" lon="4.23662">
        <ele>404</ele>
        <time>2016-05-15T07:03:35.000Z</time>
      </trkpt>
      <trkpt lat="44.51565" lon="4.23659">
        <ele>404</ele>
        <time>2016-05-15T07:03:36.000Z</time>
      </trkpt>
      <trkpt lat="44.51566" lon="4.23657">
        <ele>404</ele>
        <time>2016-05-15T07:03:37.000Z</time>
      </trkpt>
      <trkpt lat="44.51568" lon="4.23654">
        <ele>404</ele>
        <time>2016-05-15T07:03:38.000Z</time>
      </trkpt>
      <trkpt lat="44.5157" lon="4.23652">
        <ele>404</ele>
        <time>2016-05-15T07:03:39.000Z</time>
      </trkpt>
      <trkpt lat="44.51571" lon="4.23649">
        <ele>404</ele>
        <time>2016-05-15T07:03:40.000Z</time>
      </trkpt>
      <trkpt lat="44.51572" lon="4.23647">
        <ele>404</ele>
        <time>2016-05-15T07:03:41.000Z</time>
      </trkpt>
      <trkpt lat="44.51574" lon="4.23645">
        <ele>405</ele>
        <time>2016-05-15T07:03:42.000Z</time>
      </trkpt>
      <trkpt lat="44.51575" lon="4.23643">
        <ele>405</ele>
        <time>2016-05-15T07:03:43.000Z</time>
      </trkpt>
      <trkpt lat="44.51576" lon="4.23641">
        <ele>405</ele>
        <time>2016-05-15T07:03:44.000Z</time>
      </trkpt>
      <trkpt lat="44.51577" lon="4.23639">
        <ele>405</ele>
        <time>2016-05-15T07:03:45.000Z</time>
      </trkpt>
      <trkpt lat="44.51578" lon="4.23637">
        <ele>405</ele>
        <time>2016-05-15T07:03:46.000Z</time>
      </trkpt>
      <trkpt lat="44.51579" lon="4.23634">
        <ele>405</ele>
        <time>2016-05-15T07:03:47.000Z</time>
      </trkpt>
      <trkpt lat="44.51581" lon="4.23632">
        <ele>405</ele>
        <time>2016-05-15T07:03:48.000Z</time>
      </trkpt>
      <trkpt lat="44.51582" lon="4.23631">
        <ele>405</ele>
        <time>2016-05-15T07:03:49.000Z</time>
      </trkpt>
      <trkpt lat="44.51583" lon="4.23629">
        <ele>406</ele>
        <time>2016-05-15T07:03:50.000Z</time>
      </trkpt>
      <trkpt lat="44.51584" lon="4.23627">
        <ele>402</ele>
        <time>2016-05-15T07:03:51.000Z</time>
      </trkpt>
      <trkpt lat="44.51586" lon="4.23624">
        <ele>402</ele>
        <time>2016-05-15T07:03:52.000Z</time>
      </trkpt>
      <trkpt lat="44.51588" lon="4.23621">
        <ele>402</ele>
        <time>2016-05-15T07:03:53.000Z</time>
      </trkpt>
      <trkpt lat="44.51589" lon="4.23619">
        <ele>402</ele>
        <time>2016-05-15T07:03:54.000Z</time>
      </trkpt>
      <trkpt lat="44.51591" lon="4.23617">
        <ele>403</ele>
        <time>2016-05-15T07:03:55.000Z</time>
      </trkpt>
      <trkpt lat="44.51593" lon="4.23615">
        <ele>403</ele>
        <time>2016-05-15T07:03:56.000Z</time>
      </trkpt>
      <trkpt lat="44.51594" lon="4.23613">
        <ele>403</ele>
        <time>2016-05-15T07:03:57.000Z</time>
      </trkpt>
      <trkpt lat="44.51596" lon="4.2361">
        <ele>403</ele>
        <time>2016-05-15T07:03:58.000Z</time>
      </trkpt>
      <trkpt lat="44.51597" lon="4.23608">
        <ele>403</ele>
        <time>2016-05-15T07:03:59.000Z</time>
      </trkpt>
      <trkpt lat="44.51598" lon="4.23606">
        <ele>403</ele>
        <time>2016-05-15T07:04:00.000Z</time>
      </trkpt>
      <trkpt lat="44.51598" lon="4.23604">
        <ele>404</ele>
        <time>2016-05-15T07:04:01.000Z</time>
      </trkpt>
      <trkpt lat="44.51599" lon="4.23602">
        <ele>404</ele>
        <time>2016-05-15T07:04:02.000Z</time>
      </trkpt>
      <trkpt lat="44.51598" lon="4.236">
        <ele>404</ele>
        <time>2016-05-15T07:04:03.000Z</time>
      </trkpt>
      <trkpt lat="44.51598" lon="4.23599">
        <ele>404</ele>
        <time>2016-05-15T07:04:04.000Z</time>
      </trkpt>
      <trkpt lat="44.51597" lon="4.23597">
        <ele>405</ele>
        <time>2016-05-15T07:04:05.000Z</time>
      </trkpt>
      <trkpt lat="44.51597" lon="4.23595">
        <ele>405</ele>
        <time>2016-05-15T07:04:06.000Z</time>
      </trkpt>
      <trkpt lat="44.51596" lon="4.23594">
        <ele>405</ele>
        <time>2016-05-15T07:04:07.000Z</time>
      </trkpt>
      <trkpt lat="44.51596" lon="4.23592">
        <ele>406</ele>
        <time>2016-05-15T07:04:08.000Z</time>
      </trkpt>
      <trkpt lat="44.51595" lon="4.23589">
        <ele>406</ele>
        <time>2016-05-15T07:04:09.000Z</time>
      </trkpt>
      <trkpt lat="44.51595" lon="4.23586">
        <ele>406</ele>
        <time>2016-05-15T07:04:10.000Z</time>
      </trkpt>
      <trkpt lat="44.51595" lon="4.23583">
        <ele>409</ele>
        <time>2016-05-15T07:04:11.000Z</time>
      </trkpt>
      <trkpt lat="44.51595" lon="4.23581">
        <ele>409</ele>
        <time>2016-05-15T07:04:12.000Z</time>
      </trkpt>
      <trkpt lat="44.51595" lon="4.23578">
        <ele>409</ele>
        <time>2016-05-15T07:04:13.000Z</time>
      </trkpt>
      <trkpt lat="44.51595" lon="4.23575">
        <ele>409</ele>
        <time>2016-05-15T07:04:14.000Z</time>
      </trkpt>
      <trkpt lat="44.51595" lon="4.23572">
        <ele>408</ele>
        <time>2016-05-15T07:04:15.000Z</time>
      </trkpt>
      <trkpt lat="44.51595" lon="4.2357">
        <ele>408</ele>
        <time>2016-05-15T07:04:16.000Z</time>
      </trkpt>
      <trkpt lat="44.51594" lon="4.23567">
        <ele>408</ele>
        <time>2016-05-15T07:04:17.000Z</time>
      </trkpt>
      <trkpt lat="44.51594" lon="4.23565">
        <ele>408</ele>
        <time>2016-05-15T07:04:18.000Z</time>
      </trkpt>
      <trkpt lat="44.51593" lon="4.23563">
        <ele>408</ele>
        <time>2016-05-15T07:04:19.000Z</time>
      </trkpt>
      <trkpt lat="44.51593" lon="4.23559">
        <ele>408</ele>
        <time>2016-05-15T07:04:20.000Z</time>
      </trkpt>
      <trkpt lat="44.51594" lon="4.23556">
        <ele>408</ele>
        <time>2016-05-15T07:04:21.000Z</time>
      </trkpt>
      <trkpt lat="44.51594" lon="4.23553">
        <ele>408</ele>
        <time>2016-05-15T07:04:22.000Z</time>
      </trkpt>
      <trkpt lat="44.51594" lon="4.2355">
        <ele>408</ele>
        <time>2016-05-15T07:04:23.000Z</time>
      </trkpt>
      <trkpt lat="44.51594" lon="4.23547">
        <ele>408</ele>
        <time>2016-05-15T07:04:24.000Z</time>
      </trkpt>
      <trkpt lat="44.51594" lon="4.23545">
        <ele>408</ele>
        <time>2016-05-15T07:04:25.000Z</time>
      </trkpt>
      <trkpt lat="44.51594" lon="4.23542">
        <ele>408</ele>
        <time>2016-05-15T07:04:26.000Z</time>
      </trkpt>
      <trkpt lat="44.51594" lon="4.2354">
        <ele>408</ele>
        <time>2016-05-15T07:04:27.000Z</time>
      </trkpt>
      <trkpt lat="44.51594" lon="4.23538">
        <ele>408</ele>
        <time>2016-05-15T07:04:28.000Z</time>
      </trkpt>
      <trkpt lat="44.51595" lon="4.23535">
        <ele>408</ele>
        <time>2016-05-15T07:04:29.000Z</time>
      </trkpt>
      <trkpt lat="44.51595" lon="4.23533">
        <ele>408</ele>
        <time>2016-05-15T07:04:30.000Z</time>
      </trkpt>
      <trkpt lat="44.51594" lon="4.23531">
        <ele>409</ele>
        <time>2016-05-15T07:04:31.000Z</time>
      </trkpt>
      <trkpt lat="44.51594" lon="4.23528">
        <ele>409</ele>
        <time>2016-05-15T07:04:32.000Z</time>
      </trkpt>
      <trkpt lat="44.51595" lon="4.23525">
        <ele>409</ele>
        <time>2016-05-15T07:04:33.000Z</time>
      </trkpt>
      <trkpt lat="44.51595" lon="4.23522">
        <ele>409</ele>
        <time>2016-05-15T07:04:34.000Z</time>
      </trkpt>
      <trkpt lat="44.51595" lon="4.2352">
        <ele>409</ele>
        <time>2016-05-15T07:04:35.000Z</time>
      </trkpt>
      <trkpt lat="44.51595" lon="4.23517">
        <ele>410</ele>
        <time>2016-05-15T07:04:36.000Z</time>
      </trkpt>
      <trkpt lat="44.51595" lon="4.23514">
        <ele>410</ele>
        <time>2016-05-15T07:04:37.000Z</time>
      </trkpt>
      <trkpt lat="44.51595" lon="4.23511">
        <ele>410</ele>
        <time>2016-05-15T07:04:38.000Z</time>
      </trkpt>
      <trkpt lat="44.51595" lon="4.23508">
        <ele>411</ele>
        <time>2016-05-15T07:04:39.000Z</time>
      </trkpt>
      <trkpt lat="44.51594" lon="4.23505">
        <ele>411</ele>
        <time>2016-05-15T07:04:40.000Z</time>
      </trkpt>
      <trkpt lat="44.51593" lon="4.23503">
        <ele>411</ele>
        <time>2016-05-15T07:04:41.000Z</time>
      </trkpt>
      <trkpt lat="44.51593" lon="4.235">
        <ele>412</ele>
        <time>2016-05-15T07:04:42.000Z</time>
      </trkpt>
      <trkpt lat="44.51593" lon="4.23497">
        <ele>413</ele>
        <time>2016-05-15T07:04:43.000Z</time>
      </trkpt>
      <trkpt lat="44.51593" lon="4.23494">
        <ele>413</ele>
        <time>2016-05-15T07:04:44.000Z</time>
      </trkpt>
      <trkpt lat="44.51593" lon="4.2349">
        <ele>413</ele>
        <time>2016-05-15T07:04:45.000Z</time>
      </trkpt>
      <trkpt lat="44.51593" lon="4.23487">
        <ele>412</ele>
        <time>2016-05-15T07:04:46.000Z</time>
      </trkpt>
      <trkpt lat="44.51592" lon="4.23484">
        <ele>412</ele>
        <time>2016-05-15T07:04:47.000Z</time>
      </trkpt>
      <trkpt lat="44.51591" lon="4.23481">
        <ele>412</ele>
        <time>2016-05-15T07:04:48.000Z</time>
      </trkpt>
      <trkpt lat="44.5159" lon="4.23478">
        <ele>412</ele>
        <time>2016-05-15T07:04:49.000Z</time>
      </trkpt>
      <trkpt lat="44.51589" lon="4.23474">
        <ele>412</ele>
        <time>2016-05-15T07:04:50.000Z</time>
      </trkpt>
      <trkpt lat="44.51588" lon="4.23471">
        <ele>412</ele>
        <time>2016-05-15T07:04:51.000Z</time>
      </trkpt>
      <trkpt lat="44.51587" lon="4.23468">
        <ele>412</ele>
        <time>2016-05-15T07:04:52.000Z</time>
      </trkpt>
      <trkpt lat="44.51586" lon="4.23464">
        <ele>412</ele>
        <time>2016-05-15T07:04:53.000Z</time>
      </trkpt>
      <trkpt lat="44.51586" lon="4.23461">
        <ele>412</ele>
        <time>2016-05-15T07:04:54.000Z</time>
      </trkpt>
      <trkpt lat="44.51585" lon="4.23457">
        <ele>412</ele>
        <time>2016-05-15T07:04:55.000Z</time>
      </trkpt>
      <trkpt lat="44.51584" lon="4.23453">
        <ele>412</ele>
        <time>2016-05-15T07:04:56.000Z</time>
      </trkpt>
      <trkpt lat="44.51584" lon="4.23449">
        <ele>412</ele>
        <time>2016-05-15T07:04:57.000Z</time>
      </trkpt>
      <trkpt lat="44.51583" lon="4.23446">
        <ele>413</ele>
        <time>2016-05-15T07:04:58.000Z</time>
      </trkpt>
      <trkpt lat="44.51582" lon="4.23442">
        <ele>413</ele>
        <time>2016-05-15T07:04:59.000Z</time>
      </trkpt>
      <trkpt lat="44.51581" lon="4.23439">
        <ele>413</ele>
        <time>2016-05-15T07:05:00.000Z</time>
      </trkpt>
      <trkpt lat="44.5158" lon="4.23435">
        <ele>413</ele>
        <time>2016-05-15T07:05:01.000Z</time>
      </trkpt>
      <trkpt lat="44.51579" lon="4.23431">
        <ele>413</ele>
        <time>2016-05-15T07:05:02.000Z</time>
      </trkpt>
      <trkpt lat="44.51578" lon="4.23428">
        <ele>413</ele>
        <time>2016-05-15T07:05:03.000Z</time>
      </trkpt>
      <trkpt lat="44.51577" lon="4.23424">
        <ele>413</ele>
        <time>2016-05-15T07:05:04.000Z</time>
      </trkpt>
      <trkpt lat="44.51576" lon="4.2342">
        <ele>413</ele>
        <time>2016-05-15T07:05:05.000Z</time>
      </trkpt>
      <trkpt lat="44.51575" lon="4.23416">
        <ele>414</ele>
        <time>2016-05-15T07:05:06.000Z</time>
      </trkpt>
      <trkpt lat="44.51574" lon="4.23412">
        <ele>414</ele>
        <time>2016-05-15T07:05:07.000Z</time>
      </trkpt>
      <trkpt lat="44.51574" lon="4.23408">
        <ele>414</ele>
        <time>2016-05-15T07:05:08.000Z</time>
      </trkpt>
      <trkpt lat="44.51573" lon="4.23404">
        <ele>414</ele>
        <time>2016-05-15T07:05:09.000Z</time>
      </trkpt>
      <trkpt lat="44.51572" lon="4.234">
        <ele>414</ele>
        <time>2016-05-15T07:05:10.000Z</time>
      </trkpt>
      <trkpt lat="44.51571" lon="4.23396">
        <ele>414</ele>
        <time>2016-05-15T07:05:11.000Z</time>
      </trkpt>
      <trkpt lat="44.5157" lon="4.23393">
        <ele>414</ele>
        <time>2016-05-15T07:05:12.000Z</time>
      </trkpt>
      <trkpt lat="44.51569" lon="4.23389">
        <ele>414</ele>
        <time>2016-05-15T07:05:13.000Z</time>
      </trkpt>
      <trkpt lat="44.51568" lon="4.23386">
        <ele>414</ele>
        <time>2016-05-15T07:05:14.000Z</time>
      </trkpt>
      <trkpt lat="44.51567" lon="4.23382">
        <ele>414</ele>
        <time>2016-05-15T07:05:15.000Z</time>
      </trkpt>
      <trkpt lat="44.51566" lon="4.23379">
        <ele>414</ele>
        <time>2016-05-15T07:05:16.000Z</time>
      </trkpt>
      <trkpt lat="44.51565" lon="4.23375">
        <ele>414</ele>
        <time>2016-05-15T07:05:17.000Z</time>
      </trkpt>
      <trkpt lat="44.51563" lon="4.23371">
        <ele>414</ele>
        <time>2016-05-15T07:05:18.000Z</time>
      </trkpt>
      <trkpt lat="44.51562" lon="4.23368">
        <ele>414</ele>
        <time>2016-05-15T07:05:19.000Z</time>
      </trkpt>
      <trkpt lat="44.51561" lon="4.23364">
        <ele>414</ele>
        <time>2016-05-15T07:05:20.000Z</time>
      </trkpt>
      <trkpt lat="44.5156" lon="4.23361">
        <ele>414</ele>
        <time>2016-05-15T07:05:21.000Z</time>
      </trkpt>
      <trkpt lat="44.51559" lon="4.23357">
        <ele>414</ele>
        <time>2016-05-15T07:05:22.000Z</time>
      </trkpt>
      <trkpt lat="44.51558" lon="4.23353">
        <ele>414</ele>
        <time>2016-05-15T07:05:23.000Z</time>
      </trkpt>
      <trkpt lat="44.51559" lon="4.23349">
        <ele>414</ele>
        <time>2016-05-15T07:05:24.000Z</time>
      </trkpt>
      <trkpt lat="44.5156" lon="4.23346">
        <ele>414</ele>
        <time>2016-05-15T07:05:25.000Z</time>
      </trkpt>
      <trkpt lat="44.51562" lon="4.23344">
        <ele>414</ele>
        <time>2016-05-15T07:05:26.000Z</time>
      </trkpt>
      <trkpt lat="44.51564" lon="4.23343">
        <ele>414</ele>
        <time>2016-05-15T07:05:27.000Z</time>
      </trkpt>
      <trkpt lat="44.51567" lon="4.23343">
        <ele>414</ele>
        <time>2016-05-15T07:05:28.000Z</time>
      </trkpt>
      <trkpt lat="44.5157" lon="4.23343">
        <ele>415</ele>
        <time>2016-05-15T07:05:29.000Z</time>
      </trkpt>
      <trkpt lat="44.51573" lon="4.23343">
        <ele>415</ele>
        <time>2016-05-15T07:05:30.000Z</time>
      </trkpt>
      <trkpt lat="44.51575" lon="4.23343">
        <ele>415</ele>
        <time>2016-05-15T07:05:31.000Z</time>
      </trkpt>
      <trkpt lat="44.51578" lon="4.23343">
        <ele>415</ele>
        <time>2016-05-15T07:05:32.000Z</time>
      </trkpt>
      <trkpt lat="44.51581" lon="4.23343">
        <ele>415</ele>
        <time>2016-05-15T07:05:33.000Z</time>
      </trkpt>
      <trkpt lat="44.51583" lon="4.23343">
        <ele>415</ele>
        <time>2016-05-15T07:05:34.000Z</time>
      </trkpt>
      <trkpt lat="44.51586" lon="4.23343">
        <ele>415</ele>
        <time>2016-05-15T07:05:35.000Z</time>
      </trkpt>
      <trkpt lat="44.51588" lon="4.23341">
        <ele>415</ele>
        <time>2016-05-15T07:05:36.000Z</time>
      </trkpt>
      <trkpt lat="44.5159" lon="4.23339">
        <ele>415</ele>
        <time>2016-05-15T07:05:37.000Z</time>
      </trkpt>
      <trkpt lat="44.51592" lon="4.23336">
        <ele>415</ele>
        <time>2016-05-15T07:05:38.000Z</time>
      </trkpt>
      <trkpt lat="44.51592" lon="4.23333">
        <ele>415</ele>
        <time>2016-05-15T07:05:39.000Z</time>
      </trkpt>
      <trkpt lat="44.51593" lon="4.2333">
        <ele>415</ele>
        <time>2016-05-15T07:05:40.000Z</time>
      </trkpt>
      <trkpt lat="44.51594" lon="4.23327">
        <ele>415</ele>
        <time>2016-05-15T07:05:41.000Z</time>
      </trkpt>
      <trkpt lat="44.51595" lon="4.23324">
        <ele>414</ele>
        <time>2016-05-15T07:05:42.000Z</time>
      </trkpt>
      <trkpt lat="44.51595" lon="4.2332">
        <ele>414</ele>
        <time>2016-05-15T07:05:43.000Z</time>
      </trkpt>
      <trkpt lat="44.51596" lon="4.23317">
        <ele>414</ele>
        <time>2016-05-15T07:05:44.000Z</time>
      </trkpt>
      <trkpt lat="44.51597" lon="4.23315">
        <ele>414</ele>
        <time>2016-05-15T07:05:45.000Z</time>
      </trkpt>
      <trkpt lat="44.51598" lon="4.23312">
        <ele>414</ele>
        <time>2016-05-15T07:05:46.000Z</time>
      </trkpt>
      <trkpt lat="44.51599" lon="4.23309">
        <ele>414</ele>
        <time>2016-05-15T07:05:47.000Z</time>
      </trkpt>
      <trkpt lat="44.516" lon="4.23306">
        <ele>414</ele>
        <time>2016-05-15T07:05:48.000Z</time>
      </trkpt>
      <trkpt lat="44.51601" lon="4.23302">
        <ele>414</ele>
        <time>2016-05-15T07:05:49.000Z</time>
      </trkpt>
      <trkpt lat="44.51602" lon="4.23299">
        <ele>413</ele>
        <time>2016-05-15T07:05:50.000Z</time>
      </trkpt>
      <trkpt lat="44.51603" lon="4.23295">
        <ele>413</ele>
        <time>2016-05-15T07:05:51.000Z</time>
      </trkpt>
      <trkpt lat="44.51604" lon="4.23293">
        <ele>413</ele>
        <time>2016-05-15T07:05:52.000Z</time>
      </trkpt>
      <trkpt lat="44.51605" lon="4.2329">
        <ele>413</ele>
        <time>2016-05-15T07:05:53.000Z</time>
      </trkpt>
      <trkpt lat="44.51605" lon="4.23286">
        <ele>413</ele>
        <time>2016-05-15T07:05:54.000Z</time>
      </trkpt>
      <trkpt lat="44.51606" lon="4.23283">
        <ele>414</ele>
        <time>2016-05-15T07:05:55.000Z</time>
      </trkpt>
      <trkpt lat="44.51607" lon="4.2328">
        <ele>414</ele>
        <time>2016-05-15T07:05:56.000Z</time>
      </trkpt>
      <trkpt lat="44.51608" lon="4.23277">
        <ele>414</ele>
        <time>2016-05-15T07:05:57.000Z</time>
      </trkpt>
      <trkpt lat="44.51608" lon="4.23274">
        <ele>414</ele>
        <time>2016-05-15T07:05:58.000Z</time>
      </trkpt>
      <trkpt lat="44.51609" lon="4.23271">
        <ele>414</ele>
        <time>2016-05-15T07:05:59.000Z</time>
      </trkpt>
      <trkpt lat="44.5161" lon="4.23268">
        <ele>414</ele>
        <time>2016-05-15T07:06:00.000Z</time>
      </trkpt>
      <trkpt lat="44.5161" lon="4.23265">
        <ele>414</ele>
        <time>2016-05-15T07:06:01.000Z</time>
      </trkpt>
      <trkpt lat="44.51611" lon="4.23262">
        <ele>414</ele>
        <time>2016-05-15T07:06:02.000Z</time>
      </trkpt>
      <trkpt lat="44.51612" lon="4.23259">
        <ele>414</ele>
        <time>2016-05-15T07:06:03.000Z</time>
      </trkpt>
      <trkpt lat="44.51612" lon="4.23256">
        <ele>414</ele>
        <time>2016-05-15T07:06:04.000Z</time>
      </trkpt>
      <trkpt lat="44.51613" lon="4.23253">
        <ele>414</ele>
        <time>2016-05-15T07:06:05.000Z</time>
      </trkpt>
      <trkpt lat="44.51613" lon="4.2325">
        <ele>418</ele>
        <time>2016-05-15T07:06:06.000Z</time>
      </trkpt>
      <trkpt lat="44.51614" lon="4.23246">
        <ele>418</ele>
        <time>2016-05-15T07:06:07.000Z</time>
      </trkpt>
      <trkpt lat="44.51614" lon="4.23243">
        <ele>418</ele>
        <time>2016-05-15T07:06:08.000Z</time>
      </trkpt>
      <trkpt lat="44.51615" lon="4.2324">
        <ele>418</ele>
        <time>2016-05-15T07:06:09.000Z</time>
      </trkpt>
      <trkpt lat="44.51616" lon="4.23237">
        <ele>418</ele>
        <time>2016-05-15T07:06:10.000Z</time>
      </trkpt>
      <trkpt lat="44.51617" lon="4.23234">
        <ele>418</ele>
        <time>2016-05-15T07:06:11.000Z</time>
      </trkpt>
      <trkpt lat="44.51617" lon="4.2323">
        <ele>418</ele>
        <time>2016-05-15T07:06:12.000Z</time>
      </trkpt>
      <trkpt lat="44.51618" lon="4.23228">
        <ele>418</ele>
        <time>2016-05-15T07:06:13.000Z</time>
      </trkpt>
      <trkpt lat="44.51618" lon="4.23225">
        <ele>418</ele>
        <time>2016-05-15T07:06:14.000Z</time>
      </trkpt>
      <trkpt lat="44.51619" lon="4.23221">
        <ele>419</ele>
        <time>2016-05-15T07:06:15.000Z</time>
      </trkpt>
      <trkpt lat="44.51619" lon="4.23218">
        <ele>419</ele>
        <time>2016-05-15T07:06:16.000Z</time>
      </trkpt>
      <trkpt lat="44.5162" lon="4.23215">
        <ele>419</ele>
        <time>2016-05-15T07:06:17.000Z</time>
      </trkpt>
      <trkpt lat="44.5162" lon="4.23212">
        <ele>419</ele>
        <time>2016-05-15T07:06:18.000Z</time>
      </trkpt>
      <trkpt lat="44.51621" lon="4.23209">
        <ele>419</ele>
        <time>2016-05-15T07:06:19.000Z</time>
      </trkpt>
      <trkpt lat="44.51621" lon="4.23207">
        <ele>419</ele>
        <time>2016-05-15T07:06:20.000Z</time>
      </trkpt>
      <trkpt lat="44.51622" lon="4.23203">
        <ele>420</ele>
        <time>2016-05-15T07:06:21.000Z</time>
      </trkpt>
      <trkpt lat="44.51623" lon="4.232">
        <ele>420</ele>
        <time>2016-05-15T07:06:22.000Z</time>
      </trkpt>
      <trkpt lat="44.51623" lon="4.23197">
        <ele>420</ele>
        <time>2016-05-15T07:06:23.000Z</time>
      </trkpt>
      <trkpt lat="44.51624" lon="4.23195">
        <ele>420</ele>
        <time>2016-05-15T07:06:24.000Z</time>
      </trkpt>
      <trkpt lat="44.51625" lon="4.23192">
        <ele>420</ele>
        <time>2016-05-15T07:06:25.000Z</time>
      </trkpt>
      <trkpt lat="44.51626" lon="4.23189">
        <ele>420</ele>
        <time>2016-05-15T07:06:26.000Z</time>
      </trkpt>
      <trkpt lat="44.51627" lon="4.23187">
        <ele>421</ele>
        <time>2016-05-15T07:06:27.000Z</time>
      </trkpt>
      <trkpt lat="44.51628" lon="4.23185">
        <ele>421</ele>
        <time>2016-05-15T07:06:28.000Z</time>
      </trkpt>
      <trkpt lat="44.51629" lon="4.23183">
        <ele>421</ele>
        <time>2016-05-15T07:06:29.000Z</time>
      </trkpt>
      <trkpt lat="44.51631" lon="4.23182">
        <ele>421</ele>
        <time>2016-05-15T07:06:30.000Z</time>
      </trkpt>
      <trkpt lat="44.51632" lon="4.2318">
        <ele>421</ele>
        <time>2016-05-15T07:06:31.000Z</time>
      </trkpt>
      <trkpt lat="44.51633" lon="4.23179">
        <ele>421</ele>
        <time>2016-05-15T07:06:32.000Z</time>
      </trkpt>
      <trkpt lat="44.51634" lon="4.23177">
        <ele>421</ele>
        <time>2016-05-15T07:06:33.000Z</time>
      </trkpt>
      <trkpt lat="44.51635" lon="4.23176">
        <ele>421</ele>
        <time>2016-05-15T07:06:34.000Z</time>
      </trkpt>
      <trkpt lat="44.51636" lon="4.23175">
        <ele>422</ele>
        <time>2016-05-15T07:06:35.000Z</time>
      </trkpt>
      <trkpt lat="44.51637" lon="4.23173">
        <ele>422</ele>
        <time>2016-05-15T07:06:36.000Z</time>
      </trkpt>
      <trkpt lat="44.51639" lon="4.23172">
        <ele>422</ele>
        <time>2016-05-15T07:06:37.000Z</time>
      </trkpt>
      <trkpt lat="44.51641" lon="4.2317">
        <ele>422</ele>
        <time>2016-05-15T07:06:38.000Z</time>
      </trkpt>
      <trkpt lat="44.51642" lon="4.23168">
        <ele>422</ele>
        <time>2016-05-15T07:06:39.000Z</time>
      </trkpt>
      <trkpt lat="44.51643" lon="4.23166">
        <ele>427</ele>
        <time>2016-05-15T07:06:40.000Z</time>
      </trkpt>
      <trkpt lat="44.51645" lon="4.23164">
        <ele>427</ele>
        <time>2016-05-15T07:06:41.000Z</time>
      </trkpt>
      <trkpt lat="44.51646" lon="4.23162">
        <ele>427</ele>
        <time>2016-05-15T07:06:42.000Z</time>
      </trkpt>
      <trkpt lat="44.51648" lon="4.2316">
        <ele>427</ele>
        <time>2016-05-15T07:06:43.000Z</time>
      </trkpt>
      <trkpt lat="44.51649" lon="4.23158">
        <ele>427</ele>
        <time>2016-05-15T07:06:44.000Z</time>
      </trkpt>
      <trkpt lat="44.51651" lon="4.23155">
        <ele>427</ele>
        <time>2016-05-15T07:06:45.000Z</time>
      </trkpt>
      <trkpt lat="44.51652" lon="4.23153">
        <ele>427</ele>
        <time>2016-05-15T07:06:46.000Z</time>
      </trkpt>
      <trkpt lat="44.51654" lon="4.23151">
        <ele>427</ele>
        <time>2016-05-15T07:06:47.000Z</time>
      </trkpt>
      <trkpt lat="44.51655" lon="4.23148">
        <ele>427</ele>
        <time>2016-05-15T07:06:48.000Z</time>
      </trkpt>
      <trkpt lat="44.51656" lon="4.23146">
        <ele>427</ele>
        <time>2016-05-15T07:06:49.000Z</time>
      </trkpt>
      <trkpt lat="44.51657" lon="4.23143">
        <ele>428</ele>
        <time>2016-05-15T07:06:50.000Z</time>
      </trkpt>
      <trkpt lat="44.51659" lon="4.23141">
        <ele>428</ele>
        <time>2016-05-15T07:06:51.000Z</time>
      </trkpt>
      <trkpt lat="44.51661" lon="4.23139">
        <ele>428</ele>
        <time>2016-05-15T07:06:52.000Z</time>
      </trkpt>
      <trkpt lat="44.51662" lon="4.23136">
        <ele>428</ele>
        <time>2016-05-15T07:06:53.000Z</time>
      </trkpt>
      <trkpt lat="44.51664" lon="4.23134">
        <ele>428</ele>
        <time>2016-05-15T07:06:54.000Z</time>
      </trkpt>
      <trkpt lat="44.51665" lon="4.23132">
        <ele>428</ele>
        <time>2016-05-15T07:06:55.000Z</time>
      </trkpt>
      <trkpt lat="44.51666" lon="4.2313">
        <ele>429</ele>
        <time>2016-05-15T07:06:56.000Z</time>
      </trkpt>
      <trkpt lat="44.51667" lon="4.23128">
        <ele>428</ele>
        <time>2016-05-15T07:06:57.000Z</time>
      </trkpt>
      <trkpt lat="44.51669" lon="4.23125">
        <ele>428</ele>
        <time>2016-05-15T07:06:58.000Z</time>
      </trkpt>
      <trkpt lat="44.5167" lon="4.23123">
        <ele>428</ele>
        <time>2016-05-15T07:06:59.000Z</time>
      </trkpt>
      <trkpt lat="44.51672" lon="4.2312">
        <ele>428</ele>
        <time>2016-05-15T07:07:00.000Z</time>
      </trkpt>
      <trkpt lat="44.51673" lon="4.23118">
        <ele>429</ele>
        <time>2016-05-15T07:07:01.000Z</time>
      </trkpt>
      <trkpt lat="44.51674" lon="4.23116">
        <ele>429</ele>
        <time>2016-05-15T07:07:02.000Z</time>
      </trkpt>
      <trkpt lat="44.51676" lon="4.23115">
        <ele>429</ele>
        <time>2016-05-15T07:07:03.000Z</time>
      </trkpt>
      <trkpt lat="44.51676" lon="4.23113">
        <ele>429</ele>
        <time>2016-05-15T07:07:04.000Z</time>
      </trkpt>
      <trkpt lat="44.51677" lon="4.23111">
        <ele>429</ele>
        <time>2016-05-15T07:07:05.000Z</time>
      </trkpt>
      <trkpt lat="44.51679" lon="4.23109">
        <ele>430</ele>
        <time>2016-05-15T07:07:06.000Z</time>
      </trkpt>
      <trkpt lat="44.51681" lon="4.23107">
        <ele>430</ele>
        <time>2016-05-15T07:07:07.000Z</time>
      </trkpt>
      <trkpt lat="44.51682" lon="4.23105">
        <ele>430</ele>
        <time>2016-05-15T07:07:08.000Z</time>
      </trkpt>
      <trkpt lat="44.51683" lon="4.23103">
        <ele>430</ele>
        <time>2016-05-15T07:07:09.000Z</time>
      </trkpt>
      <trkpt lat="44.51685" lon="4.23101">
        <ele>430</ele>
        <time>2016-05-15T07:07:10.000Z</time>
      </trkpt>
      <trkpt lat="44.51686" lon="4.23099">
        <ele>430</ele>
        <time>2016-05-15T07:07:11.000Z</time>
      </trkpt>
      <trkpt lat="44.51688" lon="4.23096">
        <ele>430</ele>
        <time>2016-05-15T07:07:12.000Z</time>
      </trkpt>
      <trkpt lat="44.51689" lon="4.23094">
        <ele>430</ele>
        <time>2016-05-15T07:07:13.000Z</time>
      </trkpt>
      <trkpt lat="44.5169" lon="4.23092">
        <ele>430</ele>
        <time>2016-05-15T07:07:14.000Z</time>
      </trkpt>
      <trkpt lat="44.51692" lon="4.2309">
        <ele>430</ele>
        <time>2016-05-15T07:07:15.000Z</time>
      </trkpt>
      <trkpt lat="44.51694" lon="4.23087">
        <ele>430</ele>
        <time>2016-05-15T07:07:16.000Z</time>
      </trkpt>
      <trkpt lat="44.51695" lon="4.23085">
        <ele>430</ele>
        <time>2016-05-15T07:07:17.000Z</time>
      </trkpt>
      <trkpt lat="44.51696" lon="4.23083">
        <ele>437</ele>
        <time>2016-05-15T07:07:18.000Z</time>
      </trkpt>
      <trkpt lat="44.51698" lon="4.23081">
        <ele>437</ele>
        <time>2016-05-15T07:07:19.000Z</time>
      </trkpt>
      <trkpt lat="44.51698" lon="4.2308">
        <ele>437</ele>
        <time>2016-05-15T07:07:20.000Z</time>
      </trkpt>
      <trkpt lat="44.51699" lon="4.23079">
        <ele>437</ele>
        <time>2016-05-15T07:07:21.000Z</time>
      </trkpt>
      <trkpt lat="44.51701" lon="4.23076">
        <ele>437</ele>
        <time>2016-05-15T07:07:22.000Z</time>
      </trkpt>
      <trkpt lat="44.51702" lon="4.23074">
        <ele>437</ele>
        <time>2016-05-15T07:07:23.000Z</time>
      </trkpt>
      <trkpt lat="44.51704" lon="4.23072">
        <ele>437</ele>
        <time>2016-05-15T07:07:24.000Z</time>
      </trkpt>
      <trkpt lat="44.51704" lon="4.2307">
        <ele>437</ele>
        <time>2016-05-15T07:07:25.000Z</time>
      </trkpt>
      <trkpt lat="44.51706" lon="4.23068">
        <ele>437</ele>
        <time>2016-05-15T07:07:26.000Z</time>
      </trkpt>
      <trkpt lat="44.51707" lon="4.23066">
        <ele>437</ele>
        <time>2016-05-15T07:07:27.000Z</time>
      </trkpt>
      <trkpt lat="44.51708" lon="4.23063">
        <ele>437</ele>
        <time>2016-05-15T07:07:28.000Z</time>
      </trkpt>
      <trkpt lat="44.51709" lon="4.23061">
        <ele>437</ele>
        <time>2016-05-15T07:07:29.000Z</time>
      </trkpt>
      <trkpt lat="44.51709" lon="4.23059">
        <ele>437</ele>
        <time>2016-05-15T07:07:30.000Z</time>
      </trkpt>
      <trkpt lat="44.5171" lon="4.23057">
        <ele>437</ele>
        <time>2016-05-15T07:07:31.000Z</time>
      </trkpt>
      <trkpt lat="44.5171" lon="4.23055">
        <ele>437</ele>
        <time>2016-05-15T07:07:32.000Z</time>
      </trkpt>
      <trkpt lat="44.5171" lon="4.23054">
        <ele>437</ele>
        <time>2016-05-15T07:07:33.000Z</time>
      </trkpt>
      <trkpt lat="44.51711" lon="4.23052">
        <ele>437</ele>
        <time>2016-05-15T07:07:34.000Z</time>
      </trkpt>
      <trkpt lat="44.51712" lon="4.23049">
        <ele>437</ele>
        <time>2016-05-15T07:07:35.000Z</time>
      </trkpt>
      <trkpt lat="44.51713" lon="4.23047">
        <ele>437</ele>
        <time>2016-05-15T07:07:36.000Z</time>
      </trkpt>
      <trkpt lat="44.51714" lon="4.23045">
        <ele>438</ele>
        <time>2016-05-15T07:07:37.000Z</time>
      </trkpt>
      <trkpt lat="44.51715" lon="4.23043">
        <ele>438</ele>
        <time>2016-05-15T07:07:38.000Z</time>
      </trkpt>
      <trkpt lat="44.51716" lon="4.23041">
        <ele>438</ele>
        <time>2016-05-15T07:07:39.000Z</time>
      </trkpt>
      <trkpt lat="44.51717" lon="4.23038">
        <ele>438</ele>
        <time>2016-05-15T07:07:40.000Z</time>
      </trkpt>
      <trkpt lat="44.51718" lon="4.23036">
        <ele>438</ele>
        <time>2016-05-15T07:07:41.000Z</time>
      </trkpt>
      <trkpt lat="44.51719" lon="4.23033">
        <ele>438</ele>
        <time>2016-05-15T07:07:42.000Z</time>
      </trkpt>
      <trkpt lat="44.51721" lon="4.23032">
        <ele>438</ele>
        <time>2016-05-15T07:07:43.000Z</time>
      </trkpt>
      <trkpt lat="44.51722" lon="4.2303">
        <ele>438</ele>
        <time>2016-05-15T07:07:44.000Z</time>
      </trkpt>
      <trkpt lat="44.51723" lon="4.23028">
        <ele>438</ele>
        <time>2016-05-15T07:07:45.000Z</time>
      </trkpt>
      <trkpt lat="44.51724" lon="4.23026">
        <ele>438</ele>
        <time>2016-05-15T07:07:46.000Z</time>
      </trkpt>
      <trkpt lat="44.51725" lon="4.23024">
        <ele>439</ele>
        <time>2016-05-15T07:07:47.000Z</time>
      </trkpt>
      <trkpt lat="44.51726" lon="4.23023">
        <ele>439</ele>
        <time>2016-05-15T07:07:48.000Z</time>
      </trkpt>
      <trkpt lat="44.51727" lon="4.2302">
        <ele>439</ele>
        <time>2016-05-15T07:07:49.000Z</time>
      </trkpt>
      <trkpt lat="44.51728" lon="4.23018">
        <ele>439</ele>
        <time>2016-05-15T07:07:50.000Z</time>
      </trkpt>
      <trkpt lat="44.51729" lon="4.23016">
        <ele>439</ele>
        <time>2016-05-15T07:07:51.000Z</time>
      </trkpt>
      <trkpt lat="44.5173" lon="4.23013">
        <ele>439</ele>
        <time>2016-05-15T07:07:52.000Z</time>
      </trkpt>
      <trkpt lat="44.51731" lon="4.23011">
        <ele>439</ele>
        <time>2016-05-15T07:07:53.000Z</time>
      </trkpt>
      <trkpt lat="44.51732" lon="4.23009">
        <ele>440</ele>
        <time>2016-05-15T07:07:54.000Z</time>
      </trkpt>
      <trkpt lat="44.51733" lon="4.23007">
        <ele>440</ele>
        <time>2016-05-15T07:07:55.000Z</time>
      </trkpt>
      <trkpt lat="44.51734" lon="4.23005">
        <ele>440</ele>
        <time>2016-05-15T07:07:56.000Z</time>
      </trkpt>
      <trkpt lat="44.51735" lon="4.23003">
        <ele>440</ele>
        <time>2016-05-15T07:07:57.000Z</time>
      </trkpt>
      <trkpt lat="44.51736" lon="4.23001">
        <ele>440</ele>
        <time>2016-05-15T07:07:58.000Z</time>
      </trkpt>
      <trkpt lat="44.51737" lon="4.23">
        <ele>440</ele>
        <time>2016-05-15T07:07:59.000Z</time>
      </trkpt>
      <trkpt lat="44.51737" lon="4.22998">
        <ele>442</ele>
        <time>2016-05-15T07:08:00.000Z</time>
      </trkpt>
      <trkpt lat="44.51737" lon="4.22996">
        <ele>442</ele>
        <time>2016-05-15T07:08:01.000Z</time>
      </trkpt>
      <trkpt lat="44.51738" lon="4.22995">
        <ele>442</ele>
        <time>2016-05-15T07:08:02.000Z</time>
      </trkpt>
      <trkpt lat="44.51738" lon="4.22992">
        <ele>442</ele>
        <time>2016-05-15T07:08:03.000Z</time>
      </trkpt>
      <trkpt lat="44.51737" lon="4.22991">
        <ele>442</ele>
        <time>2016-05-15T07:08:04.000Z</time>
      </trkpt>
      <trkpt lat="44.51737" lon="4.22989">
        <ele>442</ele>
        <time>2016-05-15T07:08:05.000Z</time>
      </trkpt>
      <trkpt lat="44.51737" lon="4.22987">
        <ele>443</ele>
        <time>2016-05-15T07:08:06.000Z</time>
      </trkpt>
      <trkpt lat="44.51738" lon="4.22985">
        <ele>443</ele>
        <time>2016-05-15T07:08:07.000Z</time>
      </trkpt>
      <trkpt lat="44.51738" lon="4.22983">
        <ele>443</ele>
        <time>2016-05-15T07:08:08.000Z</time>
      </trkpt>
      <trkpt lat="44.51738" lon="4.22981">
        <ele>443</ele>
        <time>2016-05-15T07:08:09.000Z</time>
      </trkpt>
      <trkpt lat="44.51738" lon="4.2298">
        <ele>443</ele>
        <time>2016-05-15T07:08:10.000Z</time>
      </trkpt>
      <trkpt lat="44.51738" lon="4.22977">
        <ele>443</ele>
        <time>2016-05-15T07:08:11.000Z</time>
      </trkpt>
      <trkpt lat="44.51738" lon="4.22975">
        <ele>443</ele>
        <time>2016-05-15T07:08:12.000Z</time>
      </trkpt>
      <trkpt lat="44.51739" lon="4.22973">
        <ele>443</ele>
        <time>2016-05-15T07:08:13.000Z</time>
      </trkpt>
      <trkpt lat="44.51739" lon="4.22971">
        <ele>443</ele>
        <time>2016-05-15T07:08:14.000Z</time>
      </trkpt>
      <trkpt lat="44.51739" lon="4.22968">
        <ele>443</ele>
        <time>2016-05-15T07:08:15.000Z</time>
      </trkpt>
      <trkpt lat="44.51739" lon="4.22966">
        <ele>443</ele>
        <time>2016-05-15T07:08:16.000Z</time>
      </trkpt>
      <trkpt lat="44.5174" lon="4.22964">
        <ele>443</ele>
        <time>2016-05-15T07:08:17.000Z</time>
      </trkpt>
      <trkpt lat="44.5174" lon="4.22962">
        <ele>443</ele>
        <time>2016-05-15T07:08:18.000Z</time>
      </trkpt>
      <trkpt lat="44.51741" lon="4.2296">
        <ele>443</ele>
        <time>2016-05-15T07:08:19.000Z</time>
      </trkpt>
      <trkpt lat="44.51741" lon="4.22958">
        <ele>443</ele>
        <time>2016-05-15T07:08:20.000Z</time>
      </trkpt>
      <trkpt lat="44.51741" lon="4.22956">
        <ele>444</ele>
        <time>2016-05-15T07:08:21.000Z</time>
      </trkpt>
      <trkpt lat="44.51741" lon="4.22954">
        <ele>444</ele>
        <time>2016-05-15T07:08:22.000Z</time>
      </trkpt>
      <trkpt lat="44.51742" lon="4.22952">
        <ele>444</ele>
        <time>2016-05-15T07:08:23.000Z</time>
      </trkpt>
      <trkpt lat="44.51742" lon="4.22949">
        <ele>444</ele>
        <time>2016-05-15T07:08:24.000Z</time>
      </trkpt>
      <trkpt lat="44.51743" lon="4.22947">
        <ele>444</ele>
        <time>2016-05-15T07:08:25.000Z</time>
      </trkpt>
      <trkpt lat="44.51743" lon="4.22945">
        <ele>444</ele>
        <time>2016-05-15T07:08:26.000Z</time>
      </trkpt>
      <trkpt lat="44.51744" lon="4.22942">
        <ele>444</ele>
        <time>2016-05-15T07:08:27.000Z</time>
      </trkpt>
      <trkpt lat="44.51744" lon="4.2294">
        <ele>445</ele>
        <time>2016-05-15T07:08:28.000Z</time>
      </trkpt>
      <trkpt lat="44.51745" lon="4.22937">
        <ele>445</ele>
        <time>2016-05-15T07:08:29.000Z</time>
      </trkpt>
      <trkpt lat="44.51746" lon="4.22935">
        <ele>445</ele>
        <time>2016-05-15T07:08:30.000Z</time>
      </trkpt>
      <trkpt lat="44.51747" lon="4.22933">
        <ele>445</ele>
        <time>2016-05-15T07:08:31.000Z</time>
      </trkpt>
      <trkpt lat="44.51747" lon="4.2293">
        <ele>446</ele>
        <time>2016-05-15T07:08:32.000Z</time>
      </trkpt>
      <trkpt lat="44.51747" lon="4.22928">
        <ele>446</ele>
        <time>2016-05-15T07:08:33.000Z</time>
      </trkpt>
      <trkpt lat="44.51748" lon="4.22927">
        <ele>446</ele>
        <time>2016-05-15T07:08:34.000Z</time>
      </trkpt>
      <trkpt lat="44.51748" lon="4.22924">
        <ele>447</ele>
        <time>2016-05-15T07:08:35.000Z</time>
      </trkpt>
      <trkpt lat="44.51749" lon="4.22922">
        <ele>447</ele>
        <time>2016-05-15T07:08:36.000Z</time>
      </trkpt>
      <trkpt lat="44.51749" lon="4.2292">
        <ele>447</ele>
        <time>2016-05-15T07:08:37.000Z</time>
      </trkpt>
      <trkpt lat="44.51749" lon="4.22918">
        <ele>448</ele>
        <time>2016-05-15T07:08:38.000Z</time>
      </trkpt>
      <trkpt lat="44.51749" lon="4.22916">
        <ele>448</ele>
        <time>2016-05-15T07:08:39.000Z</time>
      </trkpt>
      <trkpt lat="44.51749" lon="4.22914">
        <ele>448</ele>
        <time>2016-05-15T07:08:40.000Z</time>
      </trkpt>
      <trkpt lat="44.51748" lon="4.22913">
        <ele>448</ele>
        <time>2016-05-15T07:08:41.000Z</time>
      </trkpt>
      <trkpt lat="44.51747" lon="4.22911">
        <ele>447</ele>
        <time>2016-05-15T07:08:42.000Z</time>
      </trkpt>
      <trkpt lat="44.51747" lon="4.22908">
        <ele>447</ele>
        <time>2016-05-15T07:08:43.000Z</time>
      </trkpt>
      <trkpt lat="44.51748" lon="4.22905">
        <ele>447</ele>
        <time>2016-05-15T07:08:44.000Z</time>
      </trkpt>
      <trkpt lat="44.51748" lon="4.22902">
        <ele>447</ele>
        <time>2016-05-15T07:08:45.000Z</time>
      </trkpt>
      <trkpt lat="44.51749" lon="4.229">
        <ele>447</ele>
        <time>2016-05-15T07:08:46.000Z</time>
      </trkpt>
      <trkpt lat="44.5175" lon="4.22897">
        <ele>447</ele>
        <time>2016-05-15T07:08:47.000Z</time>
      </trkpt>
      <trkpt lat="44.51751" lon="4.22895">
        <ele>445</ele>
        <time>2016-05-15T07:08:48.000Z</time>
      </trkpt>
      <trkpt lat="44.51752" lon="4.22892">
        <ele>445</ele>
        <time>2016-05-15T07:08:49.000Z</time>
      </trkpt>
      <trkpt lat="44.51753" lon="4.2289">
        <ele>445</ele>
        <time>2016-05-15T07:08:50.000Z</time>
      </trkpt>
      <trkpt lat="44.51754" lon="4.22887">
        <ele>445</ele>
        <time>2016-05-15T07:08:51.000Z</time>
      </trkpt>
      <trkpt lat="44.51756" lon="4.22884">
        <ele>445</ele>
        <time>2016-05-15T07:08:52.000Z</time>
      </trkpt>
      <trkpt lat="44.51757" lon="4.22881">
        <ele>445</ele>
        <time>2016-05-15T07:08:53.000Z</time>
      </trkpt>
      <trkpt lat="44.51759" lon="4.22878">
        <ele>445</ele>
        <time>2016-05-15T07:08:54.000Z</time>
      </trkpt>
      <trkpt lat="44.51761" lon="4.22875">
        <ele>445</ele>
        <time>2016-05-15T07:08:55.000Z</time>
      </trkpt>
      <trkpt lat="44.51763" lon="4.22873">
        <ele>445</ele>
        <time>2016-05-15T07:08:56.000Z</time>
      </trkpt>
      <trkpt lat="44.51765" lon="4.2287">
        <ele>445</ele>
        <time>2016-05-15T07:08:57.000Z</time>
      </trkpt>
      <trkpt lat="44.51766" lon="4.22868">
        <ele>445</ele>
        <time>2016-05-15T07:08:58.000Z</time>
      </trkpt>
      <trkpt lat="44.51768" lon="4.22866">
        <ele>445</ele>
        <time>2016-05-15T07:08:59.000Z</time>
      </trkpt>
      <trkpt lat="44.5177" lon="4.22863">
        <ele>446</ele>
        <time>2016-05-15T07:09:00.000Z</time>
      </trkpt>
      <trkpt lat="44.51772" lon="4.22861">
        <ele>446</ele>
        <time>2016-05-15T07:09:01.000Z</time>
      </trkpt>
      <trkpt lat="44.51773" lon="4.22858">
        <ele>446</ele>
        <time>2016-05-15T07:09:02.000Z</time>
      </trkpt>
      <trkpt lat="44.51775" lon="4.22856">
        <ele>446</ele>
        <time>2016-05-15T07:09:03.000Z</time>
      </trkpt>
      <trkpt lat="44.51777" lon="4.22853">
        <ele>446</ele>
        <time>2016-05-15T07:09:04.000Z</time>
      </trkpt>
      <trkpt lat="44.51778" lon="4.22851">
        <ele>446</ele>
        <time>2016-05-15T07:09:05.000Z</time>
      </trkpt>
      <trkpt lat="44.5178" lon="4.22849">
        <ele>446</ele>
        <time>2016-05-15T07:09:06.000Z</time>
      </trkpt>
      <trkpt lat="44.51781" lon="4.22848">
        <ele>446</ele>
        <time>2016-05-15T07:09:07.000Z</time>
      </trkpt>
      <trkpt lat="44.51783" lon="4.22846">
        <ele>445</ele>
        <time>2016-05-15T07:09:08.000Z</time>
      </trkpt>
      <trkpt lat="44.51785" lon="4.22845">
        <ele>445</ele>
        <time>2016-05-15T07:09:09.000Z</time>
      </trkpt>
      <trkpt lat="44.51786" lon="4.22843">
        <ele>445</ele>
        <time>2016-05-15T07:09:10.000Z</time>
      </trkpt>
      <trkpt lat="44.51789" lon="4.2284">
        <ele>445</ele>
        <time>2016-05-15T07:09:11.000Z</time>
      </trkpt>
      <trkpt lat="44.51791" lon="4.22838">
        <ele>445</ele>
        <time>2016-05-15T07:09:12.000Z</time>
      </trkpt>
      <trkpt lat="44.51794" lon="4.22835">
        <ele>445</ele>
        <time>2016-05-15T07:09:13.000Z</time>
      </trkpt>
      <trkpt lat="44.51797" lon="4.22833">
        <ele>453</ele>
        <time>2016-05-15T07:09:14.000Z</time>
      </trkpt>
      <trkpt lat="44.51799" lon="4.2283">
        <ele>452</ele>
        <time>2016-05-15T07:09:15.000Z</time>
      </trkpt>
      <trkpt lat="44.51802" lon="4.22828">
        <ele>452</ele>
        <time>2016-05-15T07:09:16.000Z</time>
      </trkpt>
      <trkpt lat="44.51804" lon="4.22826">
        <ele>452</ele>
        <time>2016-05-15T07:09:17.000Z</time>
      </trkpt>
      <trkpt lat="44.51806" lon="4.22824">
        <ele>452</ele>
        <time>2016-05-15T07:09:18.000Z</time>
      </trkpt>
      <trkpt lat="44.51808" lon="4.22821">
        <ele>452</ele>
        <time>2016-05-15T07:09:19.000Z</time>
      </trkpt>
      <trkpt lat="44.51811" lon="4.22819">
        <ele>452</ele>
        <time>2016-05-15T07:09:20.000Z</time>
      </trkpt>
      <trkpt lat="44.51813" lon="4.22817">
        <ele>452</ele>
        <time>2016-05-15T07:09:21.000Z</time>
      </trkpt>
      <trkpt lat="44.51816" lon="4.22814">
        <ele>452</ele>
        <time>2016-05-15T07:09:22.000Z</time>
      </trkpt>
      <trkpt lat="44.51819" lon="4.22811">
        <ele>452</ele>
        <time>2016-05-15T07:09:23.000Z</time>
      </trkpt>
      <trkpt lat="44.51821" lon="4.22808">
        <ele>452</ele>
        <time>2016-05-15T07:09:24.000Z</time>
      </trkpt>
      <trkpt lat="44.51824" lon="4.22805">
        <ele>452</ele>
        <time>2016-05-15T07:09:25.000Z</time>
      </trkpt>
      <trkpt lat="44.51827" lon="4.22802">
        <ele>453</ele>
        <time>2016-05-15T07:09:26.000Z</time>
      </trkpt>
      <trkpt lat="44.5183" lon="4.22799">
        <ele>453</ele>
        <time>2016-05-15T07:09:27.000Z</time>
      </trkpt>
      <trkpt lat="44.51833" lon="4.22795">
        <ele>454</ele>
        <time>2016-05-15T07:09:28.000Z</time>
      </trkpt>
      <trkpt lat="44.51835" lon="4.22792">
        <ele>446</ele>
        <time>2016-05-15T07:09:29.000Z</time>
      </trkpt>
      <trkpt lat="44.51838" lon="4.22788">
        <ele>447</ele>
        <time>2016-05-15T07:09:30.000Z</time>
      </trkpt>
      <trkpt lat="44.51841" lon="4.22786">
        <ele>447</ele>
        <time>2016-05-15T07:09:31.000Z</time>
      </trkpt>
      <trkpt lat="44.51844" lon="4.22783">
        <ele>448</ele>
        <time>2016-05-15T07:09:32.000Z</time>
      </trkpt>
      <trkpt lat="44.51846" lon="4.22779">
        <ele>448</ele>
        <time>2016-05-15T07:09:33.000Z</time>
      </trkpt>
      <trkpt lat="44.5185" lon="4.22776">
        <ele>448</ele>
        <time>2016-05-15T07:09:34.000Z</time>
      </trkpt>
      <trkpt lat="44.51853" lon="4.22773">
        <ele>448</ele>
        <time>2016-05-15T07:09:35.000Z</time>
      </trkpt>
      <trkpt lat="44.51856" lon="4.22769">
        <ele>448</ele>
        <time>2016-05-15T07:09:36.000Z</time>
      </trkpt>
      <trkpt lat="44.51859" lon="4.22766">
        <ele>448</ele>
        <time>2016-05-15T07:09:37.000Z</time>
      </trkpt>
      <trkpt lat="44.51862" lon="4.22762">
        <ele>448</ele>
        <time>2016-05-15T07:09:38.000Z</time>
      </trkpt>
      <trkpt lat="44.51865" lon="4.22758">
        <ele>448</ele>
        <time>2016-05-15T07:09:39.000Z</time>
      </trkpt>
      <trkpt lat="44.51868" lon="4.22754">
        <ele>447</ele>
        <time>2016-05-15T07:09:40.000Z</time>
      </trkpt>
      <trkpt lat="44.51871" lon="4.2275">
        <ele>447</ele>
        <time>2016-05-15T07:09:41.000Z</time>
      </trkpt>
      <trkpt lat="44.51874" lon="4.22747">
        <ele>457</ele>
        <time>2016-05-15T07:09:42.000Z</time>
      </trkpt>
      <trkpt lat="44.51877" lon="4.22743">
        <ele>457</ele>
        <time>2016-05-15T07:09:43.000Z</time>
      </trkpt>
      <trkpt lat="44.5188" lon="4.22739">
        <ele>457</ele>
        <time>2016-05-15T07:09:44.000Z</time>
      </trkpt>
      <trkpt lat="44.51883" lon="4.22736">
        <ele>456</ele>
        <time>2016-05-15T07:09:45.000Z</time>
      </trkpt>
      <trkpt lat="44.51885" lon="4.22733">
        <ele>456</ele>
        <time>2016-05-15T07:09:46.000Z</time>
      </trkpt>
      <trkpt lat="44.51888" lon="4.22729">
        <ele>456</ele>
        <time>2016-05-15T07:09:47.000Z</time>
      </trkpt>
      <trkpt lat="44.51891" lon="4.22726">
        <ele>456</ele>
        <time>2016-05-15T07:09:48.000Z</time>
      </trkpt>
      <trkpt lat="44.51894" lon="4.22722">
        <ele>456</ele>
        <time>2016-05-15T07:09:49.000Z</time>
      </trkpt>
      <trkpt lat="44.51898" lon="4.22718">
        <ele>457</ele>
        <time>2016-05-15T07:09:50.000Z</time>
      </trkpt>
      <trkpt lat="44.51901" lon="4.22715">
        <ele>457</ele>
        <time>2016-05-15T07:09:51.000Z</time>
      </trkpt>
      <trkpt lat="44.51904" lon="4.22711">
        <ele>457</ele>
        <time>2016-05-15T07:09:52.000Z</time>
      </trkpt>
      <trkpt lat="44.51907" lon="4.22708">
        <ele>458</ele>
        <time>2016-05-15T07:09:53.000Z</time>
      </trkpt>
      <trkpt lat="44.5191" lon="4.22704">
        <ele>458</ele>
        <time>2016-05-15T07:09:54.000Z</time>
      </trkpt>
      <trkpt lat="44.51914" lon="4.22701">
        <ele>459</ele>
        <time>2016-05-15T07:09:55.000Z</time>
      </trkpt>
      <trkpt lat="44.51917" lon="4.22699">
        <ele>448</ele>
        <time>2016-05-15T07:09:56.000Z</time>
      </trkpt>
      <trkpt lat="44.51921" lon="4.22697">
        <ele>449</ele>
        <time>2016-05-15T07:09:57.000Z</time>
      </trkpt>
      <trkpt lat="44.51924" lon="4.22695">
        <ele>449</ele>
        <time>2016-05-15T07:09:58.000Z</time>
      </trkpt>
      <trkpt lat="44.51927" lon="4.22694">
        <ele>449</ele>
        <time>2016-05-15T07:09:59.000Z</time>
      </trkpt>
      <trkpt lat="44.5193" lon="4.22692">
        <ele>449</ele>
        <time>2016-05-15T07:10:00.000Z</time>
      </trkpt>
      <trkpt lat="44.51933" lon="4.2269">
        <ele>449</ele>
        <time>2016-05-15T07:10:01.000Z</time>
      </trkpt>
      <trkpt lat="44.51936" lon="4.22689">
        <ele>449</ele>
        <time>2016-05-15T07:10:02.000Z</time>
      </trkpt>
      <trkpt lat="44.51939" lon="4.22687">
        <ele>449</ele>
        <time>2016-05-15T07:10:03.000Z</time>
      </trkpt>
      <trkpt lat="44.51942" lon="4.22685">
        <ele>448</ele>
        <time>2016-05-15T07:10:04.000Z</time>
      </trkpt>
      <trkpt lat="44.51945" lon="4.22682">
        <ele>448</ele>
        <time>2016-05-15T07:10:05.000Z</time>
      </trkpt>
      <trkpt lat="44.51948" lon="4.22679">
        <ele>448</ele>
        <time>2016-05-15T07:10:06.000Z</time>
      </trkpt>
      <trkpt lat="44.5195" lon="4.22676">
        <ele>448</ele>
        <time>2016-05-15T07:10:07.000Z</time>
      </trkpt>
      <trkpt lat="44.51952" lon="4.22672">
        <ele>447</ele>
        <time>2016-05-15T07:10:08.000Z</time>
      </trkpt>
      <trkpt lat="44.51954" lon="4.2267">
        <ele>447</ele>
        <time>2016-05-15T07:10:09.000Z</time>
      </trkpt>
      <trkpt lat="44.51955" lon="4.22666">
        <ele>460</ele>
        <time>2016-05-15T07:10:10.000Z</time>
      </trkpt>
      <trkpt lat="44.51957" lon="4.22662">
        <ele>460</ele>
        <time>2016-05-15T07:10:11.000Z</time>
      </trkpt>
      <trkpt lat="44.51959" lon="4.22659">
        <ele>460</ele>
        <time>2016-05-15T07:10:12.000Z</time>
      </trkpt>
      <trkpt lat="44.51961" lon="4.22655">
        <ele>460</ele>
        <time>2016-05-15T07:10:13.000Z</time>
      </trkpt>
      <trkpt lat="44.51964" lon="4.22652">
        <ele>460</ele>
        <time>2016-05-15T07:10:14.000Z</time>
      </trkpt>
      <trkpt lat="44.51966" lon="4.22648">
        <ele>460</ele>
        <time>2016-05-15T07:10:15.000Z</time>
      </trkpt>
      <trkpt lat="44.51969" lon="4.22644">
        <ele>460</ele>
        <time>2016-05-15T07:10:16.000Z</time>
      </trkpt>
      <trkpt lat="44.51972" lon="4.22641">
        <ele>460</ele>
        <time>2016-05-15T07:10:17.000Z</time>
      </trkpt>
      <trkpt lat="44.51975" lon="4.22638">
        <ele>460</ele>
        <time>2016-05-15T07:10:18.000Z</time>
      </trkpt>
      <trkpt lat="44.51978" lon="4.22634">
        <ele>460</ele>
        <time>2016-05-15T07:10:19.000Z</time>
      </trkpt>
      <trkpt lat="44.51982" lon="4.22631">
        <ele>461</ele>
        <time>2016-05-15T07:10:20.000Z</time>
      </trkpt>
      <trkpt lat="44.51985" lon="4.22629">
        <ele>461</ele>
        <time>2016-05-15T07:10:21.000Z</time>
      </trkpt>
      <trkpt lat="44.51989" lon="4.22627">
        <ele>461</ele>
        <time>2016-05-15T07:10:22.000Z</time>
      </trkpt>
      <trkpt lat="44.51993" lon="4.22624">
        <ele>461</ele>
        <time>2016-05-15T07:10:23.000Z</time>
      </trkpt>
      <trkpt lat="44.51997" lon="4.2262">
        <ele>462</ele>
        <time>2016-05-15T07:10:24.000Z</time>
      </trkpt>
      <trkpt lat="44.52" lon="4.22618">
        <ele>457</ele>
        <time>2016-05-15T07:10:25.000Z</time>
      </trkpt>
      <trkpt lat="44.52003" lon="4.22615">
        <ele>458</ele>
        <time>2016-05-15T07:10:26.000Z</time>
      </trkpt>
      <trkpt lat="44.52006" lon="4.22612">
        <ele>458</ele>
        <time>2016-05-15T07:10:27.000Z</time>
      </trkpt>
      <trkpt lat="44.52009" lon="4.2261">
        <ele>459</ele>
        <time>2016-05-15T07:10:28.000Z</time>
      </trkpt>
      <trkpt lat="44.52011" lon="4.22607">
        <ele>459</ele>
        <time>2016-05-15T07:10:29.000Z</time>
      </trkpt>
      <trkpt lat="44.52014" lon="4.22605">
        <ele>459</ele>
        <time>2016-05-15T07:10:30.000Z</time>
      </trkpt>
      <trkpt lat="44.52017" lon="4.22602">
        <ele>460</ele>
        <time>2016-05-15T07:10:31.000Z</time>
      </trkpt>
      <trkpt lat="44.5202" lon="4.226">
        <ele>460</ele>
        <time>2016-05-15T07:10:32.000Z</time>
      </trkpt>
      <trkpt lat="44.52023" lon="4.22598">
        <ele>460</ele>
        <time>2016-05-15T07:10:33.000Z</time>
      </trkpt>
      <trkpt lat="44.52027" lon="4.22596">
        <ele>460</ele>
        <time>2016-05-15T07:10:34.000Z</time>
      </trkpt>
      <trkpt lat="44.5203" lon="4.22595">
        <ele>460</ele>
        <time>2016-05-15T07:10:35.000Z</time>
      </trkpt>
      <trkpt lat="44.52033" lon="4.22593">
        <ele>459</ele>
        <time>2016-05-15T07:10:36.000Z</time>
      </trkpt>
      <trkpt lat="44.52036" lon="4.22593">
        <ele>459</ele>
        <time>2016-05-15T07:10:37.000Z</time>
      </trkpt>
      <trkpt lat="44.52039" lon="4.22593">
        <ele>459</ele>
        <time>2016-05-15T07:10:38.000Z</time>
      </trkpt>
      <trkpt lat="44.52042" lon="4.22594">
        <ele>459</ele>
        <time>2016-05-15T07:10:39.000Z</time>
      </trkpt>
      <trkpt lat="44.52045" lon="4.22595">
        <ele>459</ele>
        <time>2016-05-15T07:10:40.000Z</time>
      </trkpt>
      <trkpt lat="44.52048" lon="4.22596">
        <ele>459</ele>
        <time>2016-05-15T07:10:41.000Z</time>
      </trkpt>
      <trkpt lat="44.52051" lon="4.22598">
        <ele>459</ele>
        <time>2016-05-15T07:10:42.000Z</time>
      </trkpt>
      <trkpt lat="44.52054" lon="4.22599">
        <ele>459</ele>
        <time>2016-05-15T07:10:43.000Z</time>
      </trkpt>
      <trkpt lat="44.52057" lon="4.22601">
        <ele>459</ele>
        <time>2016-05-15T07:10:44.000Z</time>
      </trkpt>
      <trkpt lat="44.5206" lon="4.22602">
        <ele>459</ele>
        <time>2016-05-15T07:10:45.000Z</time>
      </trkpt>
      <trkpt lat="44.52064" lon="4.22603">
        <ele>459</ele>
        <time>2016-05-15T07:10:46.000Z</time>
      </trkpt>
      <trkpt lat="44.52067" lon="4.22604">
        <ele>459</ele>
        <time>2016-05-15T07:10:47.000Z</time>
      </trkpt>
      <trkpt lat="44.5207" lon="4.22605">
        <ele>459</ele>
        <time>2016-05-15T07:10:48.000Z</time>
      </trkpt>
      <trkpt lat="44.52074" lon="4.22605">
        <ele>459</ele>
        <time>2016-05-15T07:10:49.000Z</time>
      </trkpt>
      <trkpt lat="44.52077" lon="4.22605">
        <ele>459</ele>
        <time>2016-05-15T07:10:50.000Z</time>
      </trkpt>
      <trkpt lat="44.52081" lon="4.22606">
        <ele>459</ele>
        <time>2016-05-15T07:10:51.000Z</time>
      </trkpt>
      <trkpt lat="44.52084" lon="4.22606">
        <ele>461</ele>
        <time>2016-05-15T07:10:52.000Z</time>
      </trkpt>
      <trkpt lat="44.52087" lon="4.22606">
        <ele>460</ele>
        <time>2016-05-15T07:10:53.000Z</time>
      </trkpt>
      <trkpt lat="44.52091" lon="4.22606">
        <ele>460</ele>
        <time>2016-05-15T07:10:54.000Z</time>
      </trkpt>
      <trkpt lat="44.52094" lon="4.22606">
        <ele>460</ele>
        <time>2016-05-15T07:10:55.000Z</time>
      </trkpt>
      <trkpt lat="44.52097" lon="4.22606">
        <ele>460</ele>
        <time>2016-05-15T07:10:56.000Z</time>
      </trkpt>
      <trkpt lat="44.52101" lon="4.22607">
        <ele>460</ele>
        <time>2016-05-15T07:10:57.000Z</time>
      </trkpt>
      <trkpt lat="44.52104" lon="4.22607">
        <ele>460</ele>
        <time>2016-05-15T07:10:58.000Z</time>
      </trkpt>
      <trkpt lat="44.52108" lon="4.22607">
        <ele>460</ele>
        <time>2016-05-15T07:10:59.000Z</time>
      </trkpt>
      <trkpt lat="44.52111" lon="4.22608">
        <ele>459</ele>
        <time>2016-05-15T07:11:00.000Z</time>
      </trkpt>
      <trkpt lat="44.52115" lon="4.22609">
        <ele>459</ele>
        <time>2016-05-15T07:11:01.000Z</time>
      </trkpt>
      <trkpt lat="44.52119" lon="4.22611">
        <ele>459</ele>
        <time>2016-05-15T07:11:02.000Z</time>
      </trkpt>
      <trkpt lat="44.52124" lon="4.22613">
        <ele>459</ele>
        <time>2016-05-15T07:11:03.000Z</time>
      </trkpt>
      <trkpt lat="44.52129" lon="4.22615">
        <ele>459</ele>
        <time>2016-05-15T07:11:04.000Z</time>
      </trkpt>
      <trkpt lat="44.52134" lon="4.22617">
        <ele>459</ele>
        <time>2016-05-15T07:11:05.000Z</time>
      </trkpt>
      <trkpt lat="44.5214" lon="4.2262">
        <ele>459</ele>
        <time>2016-05-15T07:11:06.000Z</time>
      </trkpt>
      <trkpt lat="44.52146" lon="4.22622">
        <ele>459</ele>
        <time>2016-05-15T07:11:07.000Z</time>
      </trkpt>
      <trkpt lat="44.52151" lon="4.22622">
        <ele>459</ele>
        <time>2016-05-15T07:11:08.000Z</time>
      </trkpt>
      <trkpt lat="44.52156" lon="4.22622">
        <ele>459</ele>
        <time>2016-05-15T07:11:09.000Z</time>
      </trkpt>
      <trkpt lat="44.52161" lon="4.22622">
        <ele>459</ele>
        <time>2016-05-15T07:11:10.000Z</time>
      </trkpt>
      <trkpt lat="44.52166" lon="4.22622">
        <ele>459</ele>
        <time>2016-05-15T07:11:11.000Z</time>
      </trkpt>
      <trkpt lat="44.5217" lon="4.22621">
        <ele>461</ele>
        <time>2016-05-15T07:11:12.000Z</time>
      </trkpt>
      <trkpt lat="44.52173" lon="4.22621">
        <ele>461</ele>
        <time>2016-05-15T07:11:13.000Z</time>
      </trkpt>
      <trkpt lat="44.52176" lon="4.22621">
        <ele>461</ele>
        <time>2016-05-15T07:11:14.000Z</time>
      </trkpt>
      <trkpt lat="44.52179" lon="4.22621">
        <ele>461</ele>
        <time>2016-05-15T07:11:15.000Z</time>
      </trkpt>
      <trkpt lat="44.52182" lon="4.2262">
        <ele>461</ele>
        <time>2016-05-15T07:11:16.000Z</time>
      </trkpt>
      <trkpt lat="44.52185" lon="4.2262">
        <ele>461</ele>
        <time>2016-05-15T07:11:17.000Z</time>
      </trkpt>
      <trkpt lat="44.52188" lon="4.2262">
        <ele>461</ele>
        <time>2016-05-15T07:11:18.000Z</time>
      </trkpt>
      <trkpt lat="44.5219" lon="4.2262">
        <ele>461</ele>
        <time>2016-05-15T07:11:19.000Z</time>
      </trkpt>
      <trkpt lat="44.52193" lon="4.2262">
        <ele>461</ele>
        <time>2016-05-15T07:11:20.000Z</time>
      </trkpt>
      <trkpt lat="44.52196" lon="4.2262">
        <ele>461</ele>
        <time>2016-05-15T07:11:21.000Z</time>
      </trkpt>
      <trkpt lat="44.52199" lon="4.2262">
        <ele>461</ele>
        <time>2016-05-15T07:11:22.000Z</time>
      </trkpt>
      <trkpt lat="44.52202" lon="4.22619">
        <ele>461</ele>
        <time>2016-05-15T07:11:23.000Z</time>
      </trkpt>
      <trkpt lat="44.52204" lon="4.22619">
        <ele>461</ele>
        <time>2016-05-15T07:11:24.000Z</time>
      </trkpt>
      <trkpt lat="44.52207" lon="4.22619">
        <ele>461</ele>
        <time>2016-05-15T07:11:25.000Z</time>
      </trkpt>
      <trkpt lat="44.5221" lon="4.22618">
        <ele>461</ele>
        <time>2016-05-15T07:11:26.000Z</time>
      </trkpt>
      <trkpt lat="44.52213" lon="4.22617">
        <ele>461</ele>
        <time>2016-05-15T07:11:27.000Z</time>
      </trkpt>
      <trkpt lat="44.52216" lon="4.22616">
        <ele>461</ele>
        <time>2016-05-15T07:11:28.000Z</time>
      </trkpt>
      <trkpt lat="44.52219" lon="4.22615">
        <ele>461</ele>
        <time>2016-05-15T07:11:29.000Z</time>
      </trkpt>
      <trkpt lat="44.52221" lon="4.22614">
        <ele>461</ele>
        <time>2016-05-15T07:11:30.000Z</time>
      </trkpt>
      <trkpt lat="44.52223" lon="4.22613">
        <ele>461</ele>
        <time>2016-05-15T07:11:31.000Z</time>
      </trkpt>
      <trkpt lat="44.52226" lon="4.22612">
        <ele>462</ele>
        <time>2016-05-15T07:11:32.000Z</time>
      </trkpt>
      <trkpt lat="44.52228" lon="4.2261">
        <ele>462</ele>
        <time>2016-05-15T07:11:33.000Z</time>
      </trkpt>
      <trkpt lat="44.52231" lon="4.22609">
        <ele>462</ele>
        <time>2016-05-15T07:11:34.000Z</time>
      </trkpt>
      <trkpt lat="44.52233" lon="4.22606">
        <ele>462</ele>
        <time>2016-05-15T07:11:35.000Z</time>
      </trkpt>
      <trkpt lat="44.52235" lon="4.22604">
        <ele>463</ele>
        <time>2016-05-15T07:11:36.000Z</time>
      </trkpt>
      <trkpt lat="44.52237" lon="4.22602">
        <ele>463</ele>
        <time>2016-05-15T07:11:37.000Z</time>
      </trkpt>
      <trkpt lat="44.52239" lon="4.226">
        <ele>463</ele>
        <time>2016-05-15T07:11:38.000Z</time>
      </trkpt>
      <trkpt lat="44.5224" lon="4.22598">
        <ele>464</ele>
        <time>2016-05-15T07:11:39.000Z</time>
      </trkpt>
      <trkpt lat="44.52242" lon="4.22597">
        <ele>464</ele>
        <time>2016-05-15T07:11:40.000Z</time>
      </trkpt>
      <trkpt lat="44.52243" lon="4.22595">
        <ele>464</ele>
        <time>2016-05-15T07:11:41.000Z</time>
      </trkpt>
      <trkpt lat="44.52245" lon="4.22593">
        <ele>465</ele>
        <time>2016-05-15T07:11:42.000Z</time>
      </trkpt>
      <trkpt lat="44.52246" lon="4.22592">
        <ele>465</ele>
        <time>2016-05-15T07:11:43.000Z</time>
      </trkpt>
      <trkpt lat="44.52248" lon="4.2259">
        <ele>465</ele>
        <time>2016-05-15T07:11:44.000Z</time>
      </trkpt>
      <trkpt lat="44.52249" lon="4.22588">
        <ele>466</ele>
        <time>2016-05-15T07:11:45.000Z</time>
      </trkpt>
      <trkpt lat="44.5225" lon="4.22586">
        <ele>465</ele>
        <time>2016-05-15T07:11:46.000Z</time>
      </trkpt>
      <trkpt lat="44.52252" lon="4.22585">
        <ele>466</ele>
        <time>2016-05-15T07:11:47.000Z</time>
      </trkpt>
      <trkpt lat="44.52253" lon="4.22584">
        <ele>465</ele>
        <time>2016-05-15T07:11:48.000Z</time>
      </trkpt>
      <trkpt lat="44.52254" lon="4.22583">
        <ele>467</ele>
        <time>2016-05-15T07:11:49.000Z</time>
      </trkpt>
      <trkpt lat="44.52255" lon="4.22583">
        <ele>467</ele>
        <time>2016-05-15T07:11:50.000Z</time>
      </trkpt>
      <trkpt lat="44.52257" lon="4.22582">
        <ele>467</ele>
        <time>2016-05-15T07:11:51.000Z</time>
      </trkpt>
      <trkpt lat="44.52259" lon="4.22581">
        <ele>467</ele>
        <time>2016-05-15T07:11:52.000Z</time>
      </trkpt>
      <trkpt lat="44.52261" lon="4.2258">
        <ele>467</ele>
        <time>2016-05-15T07:11:53.000Z</time>
      </trkpt>
      <trkpt lat="44.52263" lon="4.22579">
        <ele>467</ele>
        <time>2016-05-15T07:11:54.000Z</time>
      </trkpt>
      <trkpt lat="44.52266" lon="4.22577">
        <ele>467</ele>
        <time>2016-05-15T07:11:55.000Z</time>
      </trkpt>
      <trkpt lat="44.52269" lon="4.22575">
        <ele>466</ele>
        <time>2016-05-15T07:11:56.000Z</time>
      </trkpt>
      <trkpt lat="44.52272" lon="4.22573">
        <ele>466</ele>
        <time>2016-05-15T07:11:57.000Z</time>
      </trkpt>
      <trkpt lat="44.52274" lon="4.22571">
        <ele>466</ele>
        <time>2016-05-15T07:11:58.000Z</time>
      </trkpt>
      <trkpt lat="44.52277" lon="4.22569">
        <ele>466</ele>
        <time>2016-05-15T07:11:59.000Z</time>
      </trkpt>
      <trkpt lat="44.52279" lon="4.22567">
        <ele>466</ele>
        <time>2016-05-15T07:12:00.000Z</time>
      </trkpt>
      <trkpt lat="44.52282" lon="4.22566">
        <ele>466</ele>
        <time>2016-05-15T07:12:01.000Z</time>
      </trkpt>
      <trkpt lat="44.52284" lon="4.22564">
        <ele>466</ele>
        <time>2016-05-15T07:12:02.000Z</time>
      </trkpt>
      <trkpt lat="44.52287" lon="4.22563">
        <ele>465</ele>
        <time>2016-05-15T07:12:03.000Z</time>
      </trkpt>
      <trkpt lat="44.52289" lon="4.22561">
        <ele>465</ele>
        <time>2016-05-15T07:12:04.000Z</time>
      </trkpt>
      <trkpt lat="44.52292" lon="4.22559">
        <ele>465</ele>
        <time>2016-05-15T07:12:05.000Z</time>
      </trkpt>
      <trkpt lat="44.52295" lon="4.22558">
        <ele>465</ele>
        <time>2016-05-15T07:12:06.000Z</time>
      </trkpt>
      <trkpt lat="44.52297" lon="4.22556">
        <ele>465</ele>
        <time>2016-05-15T07:12:07.000Z</time>
      </trkpt>
      <trkpt lat="44.52298" lon="4.22554">
        <ele>464</ele>
        <time>2016-05-15T07:12:08.000Z</time>
      </trkpt>
      <trkpt lat="44.52299" lon="4.22554">
        <ele>464</ele>
        <time>2016-05-15T07:12:09.000Z</time>
      </trkpt>
      <trkpt lat="44.52299" lon="4.22554">
        <ele>464</ele>
        <time>2016-05-15T07:12:10.000Z</time>
      </trkpt>
      <trkpt lat="44.523" lon="4.22553">
        <ele>464</ele>
        <time>2016-05-15T07:12:11.000Z</time>
      </trkpt>
      <trkpt lat="44.523" lon="4.22553">
        <ele>464</ele>
        <time>2016-05-15T07:12:12.000Z</time>
      </trkpt>
      <trkpt lat="44.523" lon="4.22553">
        <ele>464</ele>
        <time>2016-05-15T07:12:13.000Z</time>
      </trkpt>
      <trkpt lat="44.52301" lon="4.22553">
        <ele>464</ele>
        <time>2016-05-15T07:12:14.000Z</time>
      </trkpt>
      <trkpt lat="44.52301" lon="4.22552">
        <ele>464</ele>
        <time>2016-05-15T07:12:15.000Z</time>
      </trkpt>
      <trkpt lat="44.52301" lon="4.22552">
        <ele>464</ele>
        <time>2016-05-15T07:12:16.000Z</time>
      </trkpt>
      <trkpt lat="44.52301" lon="4.22552">
        <ele>464</ele>
        <time>2016-05-15T07:12:17.000Z</time>
      </trkpt>
      <trkpt lat="44.52301" lon="4.22552">
        <ele>464</ele>
        <time>2016-05-15T07:12:18.000Z</time>
      </trkpt>
      <trkpt lat="44.52301" lon="4.22552">
        <ele>464</ele>
        <time>2016-05-15T07:12:19.000Z</time>
      </trkpt>
      <trkpt lat="44.52301" lon="4.22552">
        <ele>464</ele>
        <time>2016-05-15T07:12:20.000Z</time>
      </trkpt>
      <trkpt lat="44.52301" lon="4.22551">
        <ele>464</ele>
        <time>2016-05-15T07:12:21.000Z</time>
      </trkpt>
      <trkpt lat="44.52302" lon="4.22551">
        <ele>464</ele>
        <time>2016-05-15T07:12:22.000Z</time>
      </trkpt>
      <trkpt lat="44.52302" lon="4.22551">
        <ele>464</ele>
        <time>2016-05-15T07:12:23.000Z</time>
      </trkpt>
      <trkpt lat="44.52302" lon="4.22551">
        <ele>464</ele>
        <time>2016-05-15T07:12:24.000Z</time>
      </trkpt>
      <trkpt lat="44.52302" lon="4.22551">
        <ele>464</ele>
        <time>2016-05-15T07:12:25.000Z</time>
      </trkpt>
      <trkpt lat="44.52302" lon="4.22551">
        <ele>464</ele>
        <time>2016-05-15T07:12:26.000Z</time>
      </trkpt>
      <trkpt lat="44.52302" lon="4.22551">
        <ele>464</ele>
        <time>2016-05-15T07:12:27.000Z</time>
      </trkpt>
      <trkpt lat="44.52302" lon="4.22551">
        <ele>464</ele>
        <time>2016-05-15T07:12:28.000Z</time>
      </trkpt>
      <trkpt lat="44.52302" lon="4.22551">
        <ele>464</ele>
        <time>2016-05-15T07:12:29.000Z</time>
      </trkpt>
      <trkpt lat="44.52302" lon="4.22551">
        <ele>464</ele>
        <time>2016-05-15T07:12:30.000Z</time>
      </trkpt>
      <trkpt lat="44.52302" lon="4.22551">
        <ele>464</ele>
        <time>2016-05-15T07:12:31.000Z</time>
      </trkpt>
      <trkpt lat="44.52302" lon="4.22551">
        <ele>464</ele>
        <time>2016-05-15T07:12:32.000Z</time>
      </trkpt>
      <trkpt lat="44.52303" lon="4.22551">
        <ele>464</ele>
        <time>2016-05-15T07:12:33.000Z</time>
      </trkpt>
      <trkpt lat="44.52303" lon="4.22551">
        <ele>464</ele>
        <time>2016-05-15T07:12:34.000Z</time>
      </trkpt>
      <trkpt lat="44.52303" lon="4.22551">
        <ele>464</ele>
        <time>2016-05-15T07:12:35.000Z</time>
      </trkpt>
      <trkpt lat="44.52303" lon="4.22551">
        <ele>464</ele>
        <time>2016-05-15T07:12:36.000Z</time>
      </trkpt>
      <trkpt lat="44.52303" lon="4.22551">
        <ele>464</ele>
        <time>2016-05-15T07:12:37.000Z</time>
      </trkpt>
      <trkpt lat="44.52303" lon="4.22551">
        <ele>464</ele>
        <time>2016-05-15T07:12:38.000Z</time>
      </trkpt>
      <trkpt lat="44.52303" lon="4.22551">
        <ele>464</ele>
        <time>2016-05-15T07:12:39.000Z</time>
      </trkpt>
      <trkpt lat="44.52303" lon="4.22551">
        <ele>464</ele>
        <time>2016-05-15T07:12:40.000Z</time>
      </trkpt>
      <trkpt lat="44.52303" lon="4.2255">
        <ele>464</ele>
        <time>2016-05-15T07:12:41.000Z</time>
      </trkpt>
      <trkpt lat="44.52304" lon="4.2255">
        <ele>464</ele>
        <time>2016-05-15T07:12:42.000Z</time>
      </trkpt>
      <trkpt lat="44.52304" lon="4.2255">
        <ele>464</ele>
        <time>2016-05-15T07:12:43.000Z</time>
      </trkpt>
      <trkpt lat="44.52304" lon="4.2255">
        <ele>464</ele>
        <time>2016-05-15T07:12:44.000Z</time>
      </trkpt>
      <trkpt lat="44.52304" lon="4.2255">
        <ele>464</ele>
        <time>2016-05-15T07:12:45.000Z</time>
      </trkpt>
      <trkpt lat="44.52304" lon="4.2255">
        <ele>464</ele>
        <time>2016-05-15T07:12:46.000Z</time>
      </trkpt>
      <trkpt lat="44.52304" lon="4.2255">
        <ele>464</ele>
        <time>2016-05-15T07:12:47.000Z</time>
      </trkpt>
      <trkpt lat="44.52304" lon="4.2255">
        <ele>464</ele>
        <time>2016-05-15T07:12:48.000Z</time>
      </trkpt>
      <trkpt lat="44.52304" lon="4.2255">
        <ele>464</ele>
        <time>2016-05-15T07:12:49.000Z</time>
      </trkpt>
      <trkpt lat="44.52304" lon="4.2255">
        <ele>464</ele>
        <time>2016-05-15T07:12:50.000Z</time>
      </trkpt>
      <trkpt lat="44.52304" lon="4.2255">
        <ele>464</ele>
        <time>2016-05-15T07:12:51.000Z</time>
      </trkpt>
      <trkpt lat="44.52304" lon="4.2255">
        <ele>464</ele>
        <time>2016-05-15T07:12:52.000Z</time>
      </trkpt>
      <trkpt lat="44.52304" lon="4.2255">
        <ele>464</ele>
        <time>2016-05-15T07:12:53.000Z</time>
      </trkpt>
      <trkpt lat="44.52304" lon="4.2255">
        <ele>464</ele>
        <time>2016-05-15T07:12:54.000Z</time>
      </trkpt>
      <trkpt lat="44.52304" lon="4.2255">
        <ele>464</ele>
        <time>2016-05-15T07:12:55.000Z</time>
      </trkpt>
      <trkpt lat="44.52304" lon="4.22549">
        <ele>464</ele>
        <time>2016-05-15T07:12:56.000Z</time>
      </trkpt>
      <trkpt lat="44.52304" lon="4.22549">
        <ele>464</ele>
        <time>2016-05-15T07:12:57.000Z</time>
      </trkpt>
      <trkpt lat="44.52304" lon="4.22549">
        <ele>464</ele>
        <time>2016-05-15T07:12:58.000Z</time>
      </trkpt>
      <trkpt lat="44.52304" lon="4.22549">
        <ele>464</ele>
        <time>2016-05-15T07:12:59.000Z</time>
      </trkpt>
      <trkpt lat="44.52304" lon="4.22549">
        <ele>464</ele>
        <time>2016-05-15T07:13:00.000Z</time>
      </trkpt>
      <trkpt lat="44.52304" lon="4.22549">
        <ele>464</ele>
        <time>2016-05-15T07:13:01.000Z</time>
      </trkpt>
      <trkpt lat="44.52304" lon="4.22549">
        <ele>464</ele>
        <time>2016-05-15T07:13:02.000Z</time>
      </trkpt>
      <trkpt lat="44.52304" lon="4.22549">
        <ele>464</ele>
        <time>2016-05-15T07:13:03.000Z</time>
      </trkpt>
      <trkpt lat="44.52304" lon="4.22549">
        <ele>464</ele>
        <time>2016-05-15T07:13:04.000Z</time>
      </trkpt>
      <trkpt lat="44.52304" lon="4.22548">
        <ele>464</ele>
        <time>2016-05-15T07:13:05.000Z</time>
      </trkpt>
      <trkpt lat="44.52304" lon="4.22548">
        <ele>464</ele>
        <time>2016-05-15T07:13:06.000Z</time>
      </trkpt>
      <trkpt lat="44.52304" lon="4.22548">
        <ele>464</ele>
        <time>2016-05-15T07:13:07.000Z</time>
      </trkpt>
      <trkpt lat="44.52304" lon="4.22548">
        <ele>464</ele>
        <time>2016-05-15T07:13:08.000Z</time>
      </trkpt>
      <trkpt lat="44.52304" lon="4.22548">
        <ele>464</ele>
        <time>2016-05-15T07:13:09.000Z</time>
      </trkpt>
      <trkpt lat="44.52304" lon="4.22548">
        <ele>464</ele>
        <time>2016-05-15T07:13:10.000Z</time>
      </trkpt>
      <trkpt lat="44.52304" lon="4.22548">
        <ele>464</ele>
        <time>2016-05-15T07:13:11.000Z</time>
      </trkpt>
      <trkpt lat="44.52304" lon="4.22548">
        <ele>464</ele>
        <time>2016-05-15T07:13:12.000Z</time>
      </trkpt>
      <trkpt lat="44.52304" lon="4.22548">
        <ele>464</ele>
        <time>2016-05-15T07:13:13.000Z</time>
      </trkpt>
      <trkpt lat="44.52304" lon="4.22548">
        <ele>464</ele>
        <time>2016-05-15T07:13:14.000Z</time>
      </trkpt>
      <trkpt lat="44.52304" lon="4.22548">
        <ele>464</ele>
        <time>2016-05-15T07:13:15.000Z</time>
      </trkpt>
      <trkpt lat="44.52304" lon="4.22548">
        <ele>464</ele>
        <time>2016-05-15T07:13:16.000Z</time>
      </trkpt>
      <trkpt lat="44.52304" lon="4.22548">
        <ele>464</ele>
        <time>2016-05-15T07:13:17.000Z</time>
      </trkpt>
      <trkpt lat="44.52304" lon="4.22548">
        <ele>464</ele>
        <time>2016-05-15T07:13:18.000Z</time>
      </trkpt>
      <trkpt lat="44.52304" lon="4.22548">
        <ele>464</ele>
        <time>2016-05-15T07:13:19.000Z</time>
      </trkpt>
      <trkpt lat="44.52304" lon="4.22548">
        <ele>464</ele>
        <time>2016-05-15T07:13:20.000Z</time>
      </trkpt>
      <trkpt lat="44.52304" lon="4.22548">
        <ele>464</ele>
        <time>2016-05-15T07:13:21.000Z</time>
      </trkpt>
      <trkpt lat="44.52304" lon="4.22548">
        <ele>464</ele>
        <time>2016-05-15T07:13:22.000Z</time>
      </trkpt>
      <trkpt lat="44.52304" lon="4.22548">
        <ele>464</ele>
        <time>2016-05-15T07:13:23.000Z</time>
      </trkpt>
      <trkpt lat="44.52304" lon="4.22548">
        <ele>464</ele>
        <time>2016-05-15T07:13:24.000Z</time>
      </trkpt>
      <trkpt lat="44.52304" lon="4.22548">
        <ele>464</ele>
        <time>2016-05-15T07:13:25.000Z</time>
      </trkpt>
      <trkpt lat="44.52304" lon="4.22548">
        <ele>464</ele>
        <time>2016-05-15T07:13:26.000Z</time>
      </trkpt>
      <trkpt lat="44.52304" lon="4.22547">
        <ele>464</ele>
        <time>2016-05-15T07:13:27.000Z</time>
      </trkpt>
      <trkpt lat="44.52303" lon="4.22547">
        <ele>465</ele>
        <time>2016-05-15T07:13:28.000Z</time>
      </trkpt>
      <trkpt lat="44.52303" lon="4.22546">
        <ele>465</ele>
        <time>2016-05-15T07:13:29.000Z</time>
      </trkpt>
      <trkpt lat="44.52304" lon="4.22546">
        <ele>465</ele>
        <time>2016-05-15T07:13:30.000Z</time>
      </trkpt>
      <trkpt lat="44.52304" lon="4.22545">
        <ele>465</ele>
        <time>2016-05-15T07:13:31.000Z</time>
      </trkpt>
      <trkpt lat="44.52304" lon="4.22545">
        <ele>465</ele>
        <time>2016-05-15T07:13:32.000Z</time>
      </trkpt>
      <trkpt lat="44.52304" lon="4.22545">
        <ele>465</ele>
        <time>2016-05-15T07:13:33.000Z</time>
      </trkpt>
      <trkpt lat="44.52304" lon="4.22544">
        <ele>465</ele>
        <time>2016-05-15T07:13:34.000Z</time>
      </trkpt>
      <trkpt lat="44.52304" lon="4.22544">
        <ele>465</ele>
        <time>2016-05-15T07:13:35.000Z</time>
      </trkpt>
      <trkpt lat="44.52305" lon="4.22544">
        <ele>465</ele>
        <time>2016-05-15T07:13:36.000Z</time>
      </trkpt>
      <trkpt lat="44.52306" lon="4.22543">
        <ele>465</ele>
        <time>2016-05-15T07:13:37.000Z</time>
      </trkpt>
      <trkpt lat="44.52307" lon="4.22541">
        <ele>465</ele>
        <time>2016-05-15T07:13:38.000Z</time>
      </trkpt>
      <trkpt lat="44.52309" lon="4.2254">
        <ele>465</ele>
        <time>2016-05-15T07:13:39.000Z</time>
      </trkpt>
      <trkpt lat="44.5231" lon="4.22538">
        <ele>465</ele>
        <time>2016-05-15T07:13:40.000Z</time>
      </trkpt>
      <trkpt lat="44.52312" lon="4.22536">
        <ele>465</ele>
        <time>2016-05-15T07:13:41.000Z</time>
      </trkpt>
      <trkpt lat="44.52313" lon="4.22534">
        <ele>465</ele>
        <time>2016-05-15T07:13:42.000Z</time>
      </trkpt>
      <trkpt lat="44.52315" lon="4.22532">
        <ele>465</ele>
        <time>2016-05-15T07:13:43.000Z</time>
      </trkpt>
      <trkpt lat="44.52316" lon="4.2253">
        <ele>465</ele>
        <time>2016-05-15T07:13:44.000Z</time>
      </trkpt>
      <trkpt lat="44.52318" lon="4.22528">
        <ele>465</ele>
        <time>2016-05-15T07:13:45.000Z</time>
      </trkpt>
      <trkpt lat="44.52319" lon="4.22525">
        <ele>465</ele>
        <time>2016-05-15T07:13:46.000Z</time>
      </trkpt>
      <trkpt lat="44.52321" lon="4.22523">
        <ele>465</ele>
        <time>2016-05-15T07:13:47.000Z</time>
      </trkpt>
      <trkpt lat="44.52322" lon="4.2252">
        <ele>465</ele>
        <time>2016-05-15T07:13:48.000Z</time>
      </trkpt>
      <trkpt lat="44.52324" lon="4.22516">
        <ele>464</ele>
        <time>2016-05-15T07:13:49.000Z</time>
      </trkpt>
      <trkpt lat="44.52325" lon="4.22513">
        <ele>464</ele>
        <time>2016-05-15T07:13:50.000Z</time>
      </trkpt>
      <trkpt lat="44.52326" lon="4.2251">
        <ele>464</ele>
        <time>2016-05-15T07:13:51.000Z</time>
      </trkpt>
      <trkpt lat="44.52327" lon="4.22506">
        <ele>464</ele>
        <time>2016-05-15T07:13:52.000Z</time>
      </trkpt>
      <trkpt lat="44.52328" lon="4.22503">
        <ele>463</ele>
        <time>2016-05-15T07:13:53.000Z</time>
      </trkpt>
      <trkpt lat="44.52329" lon="4.225">
        <ele>465</ele>
        <time>2016-05-15T07:13:54.000Z</time>
      </trkpt>
      <trkpt lat="44.52331" lon="4.22496">
        <ele>465</ele>
        <time>2016-05-15T07:13:55.000Z</time>
      </trkpt>
      <trkpt lat="44.52332" lon="4.22493">
        <ele>467</ele>
        <time>2016-05-15T07:13:56.000Z</time>
      </trkpt>
      <trkpt lat="44.52333" lon="4.2249">
        <ele>469</ele>
        <time>2016-05-15T07:13:57.000Z</time>
      </trkpt>
      <trkpt lat="44.52335" lon="4.22488">
        <ele>461</ele>
        <time>2016-05-15T07:13:58.000Z</time>
      </trkpt>
      <trkpt lat="44.52335" lon="4.22485">
        <ele>461</ele>
        <time>2016-05-15T07:13:59.000Z</time>
      </trkpt>
      <trkpt lat="44.52336" lon="4.22482">
        <ele>461</ele>
        <time>2016-05-15T07:14:00.000Z</time>
      </trkpt>
      <trkpt lat="44.52337" lon="4.22479">
        <ele>461</ele>
        <time>2016-05-15T07:14:01.000Z</time>
      </trkpt>
      <trkpt lat="44.52338" lon="4.22477">
        <ele>461</ele>
        <time>2016-05-15T07:14:02.000Z</time>
      </trkpt>
      <trkpt lat="44.52339" lon="4.22474">
        <ele>461</ele>
        <time>2016-05-15T07:14:03.000Z</time>
      </trkpt>
      <trkpt lat="44.52339" lon="4.22471">
        <ele>461</ele>
        <time>2016-05-15T07:14:04.000Z</time>
      </trkpt>
      <trkpt lat="44.5234" lon="4.22468">
        <ele>461</ele>
        <time>2016-05-15T07:14:05.000Z</time>
      </trkpt>
      <trkpt lat="44.52341" lon="4.22465">
        <ele>461</ele>
        <time>2016-05-15T07:14:06.000Z</time>
      </trkpt>
      <trkpt lat="44.52342" lon="4.22462">
        <ele>462</ele>
        <time>2016-05-15T07:14:07.000Z</time>
      </trkpt>
      <trkpt lat="44.52343" lon="4.22459">
        <ele>462</ele>
        <time>2016-05-15T07:14:08.000Z</time>
      </trkpt>
      <trkpt lat="44.52345" lon="4.22456">
        <ele>462</ele>
        <time>2016-05-15T07:14:09.000Z</time>
      </trkpt>
      <trkpt lat="44.52346" lon="4.22453">
        <ele>462</ele>
        <time>2016-05-15T07:14:10.000Z</time>
      </trkpt>
      <trkpt lat="44.52347" lon="4.2245">
        <ele>463</ele>
        <time>2016-05-15T07:14:11.000Z</time>
      </trkpt>
      <trkpt lat="44.52348" lon="4.22447">
        <ele>463</ele>
        <time>2016-05-15T07:14:12.000Z</time>
      </trkpt>
      <trkpt lat="44.52349" lon="4.22445">
        <ele>464</ele>
        <time>2016-05-15T07:14:13.000Z</time>
      </trkpt>
      <trkpt lat="44.5235" lon="4.22442">
        <ele>464</ele>
        <time>2016-05-15T07:14:14.000Z</time>
      </trkpt>
      <trkpt lat="44.52351" lon="4.2244">
        <ele>464</ele>
        <time>2016-05-15T07:14:15.000Z</time>
      </trkpt>
      <trkpt lat="44.52353" lon="4.22437">
        <ele>464</ele>
        <time>2016-05-15T07:14:16.000Z</time>
      </trkpt>
      <trkpt lat="44.52354" lon="4.22435">
        <ele>465</ele>
        <time>2016-05-15T07:14:17.000Z</time>
      </trkpt>
      <trkpt lat="44.52355" lon="4.22433">
        <ele>465</ele>
        <time>2016-05-15T07:14:18.000Z</time>
      </trkpt>
      <trkpt lat="44.52357" lon="4.2243">
        <ele>465</ele>
        <time>2016-05-15T07:14:19.000Z</time>
      </trkpt>
      <trkpt lat="44.52358" lon="4.22428">
        <ele>465</ele>
        <time>2016-05-15T07:14:20.000Z</time>
      </trkpt>
      <trkpt lat="44.52359" lon="4.22425">
        <ele>464</ele>
        <time>2016-05-15T07:14:21.000Z</time>
      </trkpt>
      <trkpt lat="44.52361" lon="4.22423">
        <ele>464</ele>
        <time>2016-05-15T07:14:22.000Z</time>
      </trkpt>
      <trkpt lat="44.52362" lon="4.2242">
        <ele>464</ele>
        <time>2016-05-15T07:14:23.000Z</time>
      </trkpt>
      <trkpt lat="44.52363" lon="4.22418">
        <ele>464</ele>
        <time>2016-05-15T07:14:24.000Z</time>
      </trkpt>
      <trkpt lat="44.52365" lon="4.22416">
        <ele>472</ele>
        <time>2016-05-15T07:14:25.000Z</time>
      </trkpt>
      <trkpt lat="44.52366" lon="4.22413">
        <ele>471</ele>
        <time>2016-05-15T07:14:26.000Z</time>
      </trkpt>
      <trkpt lat="44.52367" lon="4.2241">
        <ele>471</ele>
        <time>2016-05-15T07:14:27.000Z</time>
      </trkpt>
      <trkpt lat="44.52369" lon="4.22406">
        <ele>471</ele>
        <time>2016-05-15T07:14:28.000Z</time>
      </trkpt>
      <trkpt lat="44.52371" lon="4.22403">
        <ele>471</ele>
        <time>2016-05-15T07:14:29.000Z</time>
      </trkpt>
      <trkpt lat="44.52372" lon="4.22401">
        <ele>470</ele>
        <time>2016-05-15T07:14:30.000Z</time>
      </trkpt>
      <trkpt lat="44.52372" lon="4.22398">
        <ele>470</ele>
        <time>2016-05-15T07:14:31.000Z</time>
      </trkpt>
      <trkpt lat="44.52373" lon="4.22395">
        <ele>470</ele>
        <time>2016-05-15T07:14:32.000Z</time>
      </trkpt>
      <trkpt lat="44.52374" lon="4.22392">
        <ele>470</ele>
        <time>2016-05-15T07:14:33.000Z</time>
      </trkpt>
      <trkpt lat="44.52375" lon="4.22389">
        <ele>470</ele>
        <time>2016-05-15T07:14:34.000Z</time>
      </trkpt>
      <trkpt lat="44.52376" lon="4.22386">
        <ele>470</ele>
        <time>2016-05-15T07:14:35.000Z</time>
      </trkpt>
      <trkpt lat="44.52378" lon="4.22383">
        <ele>470</ele>
        <time>2016-05-15T07:14:36.000Z</time>
      </trkpt>
      <trkpt lat="44.52379" lon="4.22379">
        <ele>471</ele>
        <time>2016-05-15T07:14:37.000Z</time>
      </trkpt>
      <trkpt lat="44.5238" lon="4.22376">
        <ele>471</ele>
        <time>2016-05-15T07:14:38.000Z</time>
      </trkpt>
      <trkpt lat="44.52381" lon="4.22373">
        <ele>471</ele>
        <time>2016-05-15T07:14:39.000Z</time>
      </trkpt>
      <trkpt lat="44.52382" lon="4.2237">
        <ele>471</ele>
        <time>2016-05-15T07:14:40.000Z</time>
      </trkpt>
      <trkpt lat="44.52383" lon="4.22367">
        <ele>471</ele>
        <time>2016-05-15T07:14:41.000Z</time>
      </trkpt>
      <trkpt lat="44.52384" lon="4.22364">
        <ele>471</ele>
        <time>2016-05-15T07:14:42.000Z</time>
      </trkpt>
      <trkpt lat="44.52386" lon="4.2236">
        <ele>471</ele>
        <time>2016-05-15T07:14:43.000Z</time>
      </trkpt>
      <trkpt lat="44.52387" lon="4.22357">
        <ele>471</ele>
        <time>2016-05-15T07:14:44.000Z</time>
      </trkpt>
      <trkpt lat="44.52388" lon="4.22354">
        <ele>471</ele>
        <time>2016-05-15T07:14:45.000Z</time>
      </trkpt>
      <trkpt lat="44.5239" lon="4.22351">
        <ele>471</ele>
        <time>2016-05-15T07:14:46.000Z</time>
      </trkpt>
      <trkpt lat="44.52391" lon="4.22348">
        <ele>471</ele>
        <time>2016-05-15T07:14:47.000Z</time>
      </trkpt>
      <trkpt lat="44.52392" lon="4.22344">
        <ele>471</ele>
        <time>2016-05-15T07:14:48.000Z</time>
      </trkpt>
      <trkpt lat="44.52393" lon="4.22341">
        <ele>471</ele>
        <time>2016-05-15T07:14:49.000Z</time>
      </trkpt>
      <trkpt lat="44.52395" lon="4.22337">
        <ele>470</ele>
        <time>2016-05-15T07:14:50.000Z</time>
      </trkpt>
      <trkpt lat="44.52396" lon="4.22334">
        <ele>470</ele>
        <time>2016-05-15T07:14:51.000Z</time>
      </trkpt>
      <trkpt lat="44.52398" lon="4.22331">
        <ele>473</ele>
        <time>2016-05-15T07:14:52.000Z</time>
      </trkpt>
      <trkpt lat="44.52399" lon="4.22327">
        <ele>473</ele>
        <time>2016-05-15T07:14:53.000Z</time>
      </trkpt>
      <trkpt lat="44.52399" lon="4.22324">
        <ele>473</ele>
        <time>2016-05-15T07:14:54.000Z</time>
      </trkpt>
      <trkpt lat="44.52401" lon="4.2232">
        <ele>473</ele>
        <time>2016-05-15T07:14:55.000Z</time>
      </trkpt>
      <trkpt lat="44.52402" lon="4.22317">
        <ele>474</ele>
        <time>2016-05-15T07:14:56.000Z</time>
      </trkpt>
      <trkpt lat="44.52403" lon="4.22313">
        <ele>474</ele>
        <time>2016-05-15T07:14:57.000Z</time>
      </trkpt>
      <trkpt lat="44.52404" lon="4.2231">
        <ele>474</ele>
        <time>2016-05-15T07:14:58.000Z</time>
      </trkpt>
      <trkpt lat="44.52405" lon="4.22306">
        <ele>474</ele>
        <time>2016-05-15T07:14:59.000Z</time>
      </trkpt>
      <trkpt lat="44.52406" lon="4.22303">
        <ele>475</ele>
        <time>2016-05-15T07:15:00.000Z</time>
      </trkpt>
      <trkpt lat="44.52407" lon="4.22299">
        <ele>475</ele>
        <time>2016-05-15T07:15:01.000Z</time>
      </trkpt>
      <trkpt lat="44.52408" lon="4.22295">
        <ele>475</ele>
        <time>2016-05-15T07:15:02.000Z</time>
      </trkpt>
      <trkpt lat="44.52409" lon="4.22292">
        <ele>475</ele>
        <time>2016-05-15T07:15:03.000Z</time>
      </trkpt>
      <trkpt lat="44.5241" lon="4.22288">
        <ele>475</ele>
        <time>2016-05-15T07:15:04.000Z</time>
      </trkpt>
      <trkpt lat="44.52411" lon="4.22284">
        <ele>475</ele>
        <time>2016-05-15T07:15:05.000Z</time>
      </trkpt>
      <trkpt lat="44.52412" lon="4.22281">
        <ele>475</ele>
        <time>2016-05-15T07:15:06.000Z</time>
      </trkpt>
      <trkpt lat="44.52412" lon="4.22277">
        <ele>475</ele>
        <time>2016-05-15T07:15:07.000Z</time>
      </trkpt>
      <trkpt lat="44.52413" lon="4.22274">
        <ele>475</ele>
        <time>2016-05-15T07:15:08.000Z</time>
      </trkpt>
      <trkpt lat="44.52414" lon="4.2227">
        <ele>475</ele>
        <time>2016-05-15T07:15:09.000Z</time>
      </trkpt>
      <trkpt lat="44.52414" lon="4.22266">
        <ele>474</ele>
        <time>2016-05-15T07:15:10.000Z</time>
      </trkpt>
      <trkpt lat="44.52415" lon="4.22263">
        <ele>474</ele>
        <time>2016-05-15T07:15:11.000Z</time>
      </trkpt>
      <trkpt lat="44.52415" lon="4.22259">
        <ele>474</ele>
        <time>2016-05-15T07:15:12.000Z</time>
      </trkpt>
      <trkpt lat="44.52415" lon="4.22255">
        <ele>473</ele>
        <time>2016-05-15T07:15:13.000Z</time>
      </trkpt>
      <trkpt lat="44.52416" lon="4.22251">
        <ele>472</ele>
        <time>2016-05-15T07:15:14.000Z</time>
      </trkpt>
      <trkpt lat="44.52416" lon="4.22248">
        <ele>472</ele>
        <time>2016-05-15T07:15:15.000Z</time>
      </trkpt>
      <trkpt lat="44.52416" lon="4.22244">
        <ele>472</ele>
        <time>2016-05-15T07:15:16.000Z</time>
      </trkpt>
      <trkpt lat="44.52416" lon="4.2224">
        <ele>472</ele>
        <time>2016-05-15T07:15:17.000Z</time>
      </trkpt>
      <trkpt lat="44.52416" lon="4.22237">
        <ele>472</ele>
        <time>2016-05-15T07:15:18.000Z</time>
      </trkpt>
      <trkpt lat="44.52416" lon="4.22233">
        <ele>472</ele>
        <time>2016-05-15T07:15:19.000Z</time>
      </trkpt>
      <trkpt lat="44.52417" lon="4.22229">
        <ele>472</ele>
        <time>2016-05-15T07:15:20.000Z</time>
      </trkpt>
      <trkpt lat="44.52417" lon="4.22225">
        <ele>469</ele>
        <time>2016-05-15T07:15:21.000Z</time>
      </trkpt>
      <trkpt lat="44.52417" lon="4.22221">
        <ele>469</ele>
        <time>2016-05-15T07:15:22.000Z</time>
      </trkpt>
      <trkpt lat="44.52417" lon="4.22217">
        <ele>469</ele>
        <time>2016-05-15T07:15:23.000Z</time>
      </trkpt>
      <trkpt lat="44.52417" lon="4.22212">
        <ele>469</ele>
        <time>2016-05-15T07:15:24.000Z</time>
      </trkpt>
      <trkpt lat="44.52418" lon="4.22208">
        <ele>469</ele>
        <time>2016-05-15T07:15:25.000Z</time>
      </trkpt>
      <trkpt lat="44.52418" lon="4.22204">
        <ele>469</ele>
        <time>2016-05-15T07:15:26.000Z</time>
      </trkpt>
      <trkpt lat="44.52418" lon="4.22199">
        <ele>469</ele>
        <time>2016-05-15T07:15:27.000Z</time>
      </trkpt>
      <trkpt lat="44.52419" lon="4.22195">
        <ele>469</ele>
        <time>2016-05-15T07:15:28.000Z</time>
      </trkpt>
      <trkpt lat="44.52419" lon="4.22191">
        <ele>469</ele>
        <time>2016-05-15T07:15:29.000Z</time>
      </trkpt>
      <trkpt lat="44.52419" lon="4.22186">
        <ele>469</ele>
        <time>2016-05-15T07:15:30.000Z</time>
      </trkpt>
      <trkpt lat="44.52419" lon="4.22182">
        <ele>469</ele>
        <time>2016-05-15T07:15:31.000Z</time>
      </trkpt>
      <trkpt lat="44.5242" lon="4.22179">
        <ele>469</ele>
        <time>2016-05-15T07:15:32.000Z</time>
      </trkpt>
      <trkpt lat="44.5242" lon="4.22175">
        <ele>469</ele>
        <time>2016-05-15T07:15:33.000Z</time>
      </trkpt>
      <trkpt lat="44.52421" lon="4.22171">
        <ele>469</ele>
        <time>2016-05-15T07:15:34.000Z</time>
      </trkpt>
      <trkpt lat="44.52422" lon="4.22167">
        <ele>469</ele>
        <time>2016-05-15T07:15:35.000Z</time>
      </trkpt>
      <trkpt lat="44.52422" lon="4.22163">
        <ele>470</ele>
        <time>2016-05-15T07:15:36.000Z</time>
      </trkpt>
      <trkpt lat="44.52422" lon="4.22159">
        <ele>470</ele>
        <time>2016-05-15T07:15:37.000Z</time>
      </trkpt>
      <trkpt lat="44.52423" lon="4.22155">
        <ele>470</ele>
        <time>2016-05-15T07:15:38.000Z</time>
      </trkpt>
      <trkpt lat="44.52423" lon="4.22151">
        <ele>470</ele>
        <time>2016-05-15T07:15:39.000Z</time>
      </trkpt>
      <trkpt lat="44.52423" lon="4.22147">
        <ele>470</ele>
        <time>2016-05-15T07:15:40.000Z</time>
      </trkpt>
      <trkpt lat="44.52423" lon="4.22143">
        <ele>471</ele>
        <time>2016-05-15T07:15:41.000Z</time>
      </trkpt>
      <trkpt lat="44.52424" lon="4.22139">
        <ele>471</ele>
        <time>2016-05-15T07:15:42.000Z</time>
      </trkpt>
      <trkpt lat="44.52424" lon="4.22135">
        <ele>471</ele>
        <time>2016-05-15T07:15:43.000Z</time>
      </trkpt>
      <trkpt lat="44.52424" lon="4.22131">
        <ele>471</ele>
        <time>2016-05-15T07:15:44.000Z</time>
      </trkpt>
      <trkpt lat="44.52424" lon="4.22127">
        <ele>471</ele>
        <time>2016-05-15T07:15:45.000Z</time>
      </trkpt>
      <trkpt lat="44.52424" lon="4.22123">
        <ele>471</ele>
        <time>2016-05-15T07:15:46.000Z</time>
      </trkpt>
      <trkpt lat="44.52424" lon="4.22119">
        <ele>471</ele>
        <time>2016-05-15T07:15:47.000Z</time>
      </trkpt>
      <trkpt lat="44.52424" lon="4.22115">
        <ele>471</ele>
        <time>2016-05-15T07:15:48.000Z</time>
      </trkpt>
      <trkpt lat="44.52424" lon="4.2211">
        <ele>471</ele>
        <time>2016-05-15T07:15:49.000Z</time>
      </trkpt>
      <trkpt lat="44.52423" lon="4.22106">
        <ele>471</ele>
        <time>2016-05-15T07:15:50.000Z</time>
      </trkpt>
      <trkpt lat="44.52423" lon="4.22102">
        <ele>471</ele>
        <time>2016-05-15T07:15:51.000Z</time>
      </trkpt>
      <trkpt lat="44.52423" lon="4.22098">
        <ele>471</ele>
        <time>2016-05-15T07:15:52.000Z</time>
      </trkpt>
      <trkpt lat="44.52423" lon="4.22094">
        <ele>471</ele>
        <time>2016-05-15T07:15:53.000Z</time>
      </trkpt>
      <trkpt lat="44.52424" lon="4.2209">
        <ele>471</ele>
        <time>2016-05-15T07:15:54.000Z</time>
      </trkpt>
      <trkpt lat="44.52424" lon="4.22086">
        <ele>471</ele>
        <time>2016-05-15T07:15:55.000Z</time>
      </trkpt>
      <trkpt lat="44.52424" lon="4.22082">
        <ele>472</ele>
        <time>2016-05-15T07:15:56.000Z</time>
      </trkpt>
      <trkpt lat="44.52424" lon="4.22078">
        <ele>473</ele>
        <time>2016-05-15T07:15:57.000Z</time>
      </trkpt>
      <trkpt lat="44.52424" lon="4.22074">
        <ele>473</ele>
        <time>2016-05-15T07:15:58.000Z</time>
      </trkpt>
      <trkpt lat="44.52425" lon="4.22071">
        <ele>474</ele>
        <time>2016-05-15T07:15:59.000Z</time>
      </trkpt>
      <trkpt lat="44.52425" lon="4.22067">
        <ele>475</ele>
        <time>2016-05-15T07:16:00.000Z</time>
      </trkpt>
      <trkpt lat="44.52425" lon="4.22063">
        <ele>475</ele>
        <time>2016-05-15T07:16:01.000Z</time>
      </trkpt>
      <trkpt lat="44.52425" lon="4.2206">
        <ele>476</ele>
        <time>2016-05-15T07:16:02.000Z</time>
      </trkpt>
      <trkpt lat="44.52426" lon="4.22056">
        <ele>476</ele>
        <time>2016-05-15T07:16:03.000Z</time>
      </trkpt>
      <trkpt lat="44.52426" lon="4.22053">
        <ele>476</ele>
        <time>2016-05-15T07:16:04.000Z</time>
      </trkpt>
      <trkpt lat="44.52427" lon="4.2205">
        <ele>477</ele>
        <time>2016-05-15T07:16:05.000Z</time>
      </trkpt>
      <trkpt lat="44.52427" lon="4.22047">
        <ele>477</ele>
        <time>2016-05-15T07:16:06.000Z</time>
      </trkpt>
      <trkpt lat="44.52428" lon="4.22044">
        <ele>477</ele>
        <time>2016-05-15T07:16:07.000Z</time>
      </trkpt>
      <trkpt lat="44.52428" lon="4.2204">
        <ele>478</ele>
        <time>2016-05-15T07:16:08.000Z</time>
      </trkpt>
      <trkpt lat="44.52429" lon="4.22037">
        <ele>478</ele>
        <time>2016-05-15T07:16:09.000Z</time>
      </trkpt>
      <trkpt lat="44.52429" lon="4.22034">
        <ele>478</ele>
        <time>2016-05-15T07:16:10.000Z</time>
      </trkpt>
      <trkpt lat="44.5243" lon="4.22031">
        <ele>478</ele>
        <time>2016-05-15T07:16:11.000Z</time>
      </trkpt>
      <trkpt lat="44.52431" lon="4.22028">
        <ele>478</ele>
        <time>2016-05-15T07:16:12.000Z</time>
      </trkpt>
      <trkpt lat="44.52431" lon="4.22026">
        <ele>478</ele>
        <time>2016-05-15T07:16:13.000Z</time>
      </trkpt>
      <trkpt lat="44.52432" lon="4.22023">
        <ele>479</ele>
        <time>2016-05-15T07:16:14.000Z</time>
      </trkpt>
      <trkpt lat="44.52433" lon="4.2202">
        <ele>479</ele>
        <time>2016-05-15T07:16:15.000Z</time>
      </trkpt>
      <trkpt lat="44.52433" lon="4.22018">
        <ele>479</ele>
        <time>2016-05-15T07:16:16.000Z</time>
      </trkpt>
      <trkpt lat="44.52434" lon="4.22015">
        <ele>479</ele>
        <time>2016-05-15T07:16:17.000Z</time>
      </trkpt>
      <trkpt lat="44.52435" lon="4.22013">
        <ele>479</ele>
        <time>2016-05-15T07:16:18.000Z</time>
      </trkpt>
      <trkpt lat="44.52436" lon="4.22011">
        <ele>479</ele>
        <time>2016-05-15T07:16:19.000Z</time>
      </trkpt>
      <trkpt lat="44.52437" lon="4.22008">
        <ele>479</ele>
        <time>2016-05-15T07:16:20.000Z</time>
      </trkpt>
      <trkpt lat="44.52438" lon="4.22006">
        <ele>479</ele>
        <time>2016-05-15T07:16:21.000Z</time>
      </trkpt>
      <trkpt lat="44.52439" lon="4.22004">
        <ele>479</ele>
        <time>2016-05-15T07:16:22.000Z</time>
      </trkpt>
      <trkpt lat="44.5244" lon="4.22002">
        <ele>479</ele>
        <time>2016-05-15T07:16:23.000Z</time>
      </trkpt>
      <trkpt lat="44.52441" lon="4.22">
        <ele>485</ele>
        <time>2016-05-15T07:16:24.000Z</time>
      </trkpt>
      <trkpt lat="44.52442" lon="4.21997">
        <ele>485</ele>
        <time>2016-05-15T07:16:25.000Z</time>
      </trkpt>
      <trkpt lat="44.52442" lon="4.21996">
        <ele>486</ele>
        <time>2016-05-15T07:16:26.000Z</time>
      </trkpt>
      <trkpt lat="44.52443" lon="4.21993">
        <ele>486</ele>
        <time>2016-05-15T07:16:27.000Z</time>
      </trkpt>
      <trkpt lat="44.52443" lon="4.21991">
        <ele>486</ele>
        <time>2016-05-15T07:16:28.000Z</time>
      </trkpt>
      <trkpt lat="44.52442" lon="4.21989">
        <ele>486</ele>
        <time>2016-05-15T07:16:29.000Z</time>
      </trkpt>
      <trkpt lat="44.52441" lon="4.21986">
        <ele>486</ele>
        <time>2016-05-15T07:16:30.000Z</time>
      </trkpt>
      <trkpt lat="44.5244" lon="4.21983">
        <ele>486</ele>
        <time>2016-05-15T07:16:31.000Z</time>
      </trkpt>
      <trkpt lat="44.52439" lon="4.21981">
        <ele>486</ele>
        <time>2016-05-15T07:16:32.000Z</time>
      </trkpt>
      <trkpt lat="44.52438" lon="4.21979">
        <ele>487</ele>
        <time>2016-05-15T07:16:33.000Z</time>
      </trkpt>
      <trkpt lat="44.52437" lon="4.21977">
        <ele>487</ele>
        <time>2016-05-15T07:16:34.000Z</time>
      </trkpt>
      <trkpt lat="44.52436" lon="4.21976">
        <ele>487</ele>
        <time>2016-05-15T07:16:35.000Z</time>
      </trkpt>
      <trkpt lat="44.52435" lon="4.21974">
        <ele>487</ele>
        <time>2016-05-15T07:16:36.000Z</time>
      </trkpt>
      <trkpt lat="44.52434" lon="4.21972">
        <ele>487</ele>
        <time>2016-05-15T07:16:37.000Z</time>
      </trkpt>
      <trkpt lat="44.52433" lon="4.2197">
        <ele>487</ele>
        <time>2016-05-15T07:16:38.000Z</time>
      </trkpt>
      <trkpt lat="44.52432" lon="4.21968">
        <ele>487</ele>
        <time>2016-05-15T07:16:39.000Z</time>
      </trkpt>
      <trkpt lat="44.5243" lon="4.21967">
        <ele>487</ele>
        <time>2016-05-15T07:16:40.000Z</time>
      </trkpt>
      <trkpt lat="44.52429" lon="4.21965">
        <ele>488</ele>
        <time>2016-05-15T07:16:41.000Z</time>
      </trkpt>
      <trkpt lat="44.52428" lon="4.21963">
        <ele>488</ele>
        <time>2016-05-15T07:16:42.000Z</time>
      </trkpt>
      <trkpt lat="44.52427" lon="4.21961">
        <ele>488</ele>
        <time>2016-05-15T07:16:43.000Z</time>
      </trkpt>
      <trkpt lat="44.52425" lon="4.21958">
        <ele>488</ele>
        <time>2016-05-15T07:16:44.000Z</time>
      </trkpt>
      <trkpt lat="44.52424" lon="4.21956">
        <ele>489</ele>
        <time>2016-05-15T07:16:45.000Z</time>
      </trkpt>
      <trkpt lat="44.52423" lon="4.21954">
        <ele>489</ele>
        <time>2016-05-15T07:16:46.000Z</time>
      </trkpt>
      <trkpt lat="44.52422" lon="4.21951">
        <ele>489</ele>
        <time>2016-05-15T07:16:47.000Z</time>
      </trkpt>
      <trkpt lat="44.5242" lon="4.21949">
        <ele>489</ele>
        <time>2016-05-15T07:16:48.000Z</time>
      </trkpt>
      <trkpt lat="44.52419" lon="4.21947">
        <ele>490</ele>
        <time>2016-05-15T07:16:49.000Z</time>
      </trkpt>
      <trkpt lat="44.52418" lon="4.21944">
        <ele>490</ele>
        <time>2016-05-15T07:16:50.000Z</time>
      </trkpt>
      <trkpt lat="44.52416" lon="4.21942">
        <ele>486</ele>
        <time>2016-05-15T07:16:51.000Z</time>
      </trkpt>
      <trkpt lat="44.52415" lon="4.21941">
        <ele>486</ele>
        <time>2016-05-15T07:16:52.000Z</time>
      </trkpt>
      <trkpt lat="44.52413" lon="4.21939">
        <ele>486</ele>
        <time>2016-05-15T07:16:53.000Z</time>
      </trkpt>
      <trkpt lat="44.52411" lon="4.21937">
        <ele>486</ele>
        <time>2016-05-15T07:16:54.000Z</time>
      </trkpt>
      <trkpt lat="44.52409" lon="4.21936">
        <ele>487</ele>
        <time>2016-05-15T07:16:55.000Z</time>
      </trkpt>
      <trkpt lat="44.52407" lon="4.21935">
        <ele>487</ele>
        <time>2016-05-15T07:16:56.000Z</time>
      </trkpt>
      <trkpt lat="44.52406" lon="4.21934">
        <ele>487</ele>
        <time>2016-05-15T07:16:57.000Z</time>
      </trkpt>
      <trkpt lat="44.52403" lon="4.21932">
        <ele>487</ele>
        <time>2016-05-15T07:16:58.000Z</time>
      </trkpt>
      <trkpt lat="44.52401" lon="4.21932">
        <ele>486</ele>
        <time>2016-05-15T07:16:59.000Z</time>
      </trkpt>
      <trkpt lat="44.52399" lon="4.21931">
        <ele>486</ele>
        <time>2016-05-15T07:17:00.000Z</time>
      </trkpt>
      <trkpt lat="44.52398" lon="4.2193">
        <ele>486</ele>
        <time>2016-05-15T07:17:01.000Z</time>
      </trkpt>
      <trkpt lat="44.52396" lon="4.2193">
        <ele>486</ele>
        <time>2016-05-15T07:17:02.000Z</time>
      </trkpt>
      <trkpt lat="44.52394" lon="4.21929">
        <ele>486</ele>
        <time>2016-05-15T07:17:03.000Z</time>
      </trkpt>
      <trkpt lat="44.52392" lon="4.21928">
        <ele>486</ele>
        <time>2016-05-15T07:17:04.000Z</time>
      </trkpt>
      <trkpt lat="44.5239" lon="4.21927">
        <ele>485</ele>
        <time>2016-05-15T07:17:05.000Z</time>
      </trkpt>
      <trkpt lat="44.52389" lon="4.21926">
        <ele>485</ele>
        <time>2016-05-15T07:17:06.000Z</time>
      </trkpt>
      <trkpt lat="44.52387" lon="4.21926">
        <ele>485</ele>
        <time>2016-05-15T07:17:07.000Z</time>
      </trkpt>
      <trkpt lat="44.52385" lon="4.21925">
        <ele>485</ele>
        <time>2016-05-15T07:17:08.000Z</time>
      </trkpt>
      <trkpt lat="44.52383" lon="4.21925">
        <ele>485</ele>
        <time>2016-05-15T07:17:09.000Z</time>
      </trkpt>
      <trkpt lat="44.52381" lon="4.21925">
        <ele>484</ele>
        <time>2016-05-15T07:17:10.000Z</time>
      </trkpt>
      <trkpt lat="44.52379" lon="4.21924">
        <ele>484</ele>
        <time>2016-05-15T07:17:11.000Z</time>
      </trkpt>
      <trkpt lat="44.52377" lon="4.21923">
        <ele>484</ele>
        <time>2016-05-15T07:17:12.000Z</time>
      </trkpt>
      <trkpt lat="44.52376" lon="4.21922">
        <ele>484</ele>
        <time>2016-05-15T07:17:13.000Z</time>
      </trkpt>
      <trkpt lat="44.52374" lon="4.21922">
        <ele>484</ele>
        <time>2016-05-15T07:17:14.000Z</time>
      </trkpt>
      <trkpt lat="44.52372" lon="4.21921">
        <ele>484</ele>
        <time>2016-05-15T07:17:15.000Z</time>
      </trkpt>
      <trkpt lat="44.5237" lon="4.2192">
        <ele>484</ele>
        <time>2016-05-15T07:17:16.000Z</time>
      </trkpt>
      <trkpt lat="44.52368" lon="4.2192">
        <ele>484</ele>
        <time>2016-05-15T07:17:17.000Z</time>
      </trkpt>
      <trkpt lat="44.52366" lon="4.21919">
        <ele>483</ele>
        <time>2016-05-15T07:17:18.000Z</time>
      </trkpt>
      <trkpt lat="44.52365" lon="4.21918">
        <ele>483</ele>
        <time>2016-05-15T07:17:19.000Z</time>
      </trkpt>
      <trkpt lat="44.52363" lon="4.21917">
        <ele>483</ele>
        <time>2016-05-15T07:17:20.000Z</time>
      </trkpt>
      <trkpt lat="44.52362" lon="4.21916">
        <ele>492</ele>
        <time>2016-05-15T07:17:21.000Z</time>
      </trkpt>
      <trkpt lat="44.52361" lon="4.21915">
        <ele>492</ele>
        <time>2016-05-15T07:17:22.000Z</time>
      </trkpt>
      <trkpt lat="44.5236" lon="4.21913">
        <ele>492</ele>
        <time>2016-05-15T07:17:23.000Z</time>
      </trkpt>
      <trkpt lat="44.52361" lon="4.21911">
        <ele>492</ele>
        <time>2016-05-15T07:17:24.000Z</time>
      </trkpt>
      <trkpt lat="44.52362" lon="4.2191">
        <ele>492</ele>
        <time>2016-05-15T07:17:25.000Z</time>
      </trkpt>
      <trkpt lat="44.52363" lon="4.21909">
        <ele>492</ele>
        <time>2016-05-15T07:17:26.000Z</time>
      </trkpt>
      <trkpt lat="44.52365" lon="4.21909">
        <ele>492</ele>
        <time>2016-05-15T07:17:27.000Z</time>
      </trkpt>
      <trkpt lat="44.52366" lon="4.21909">
        <ele>493</ele>
        <time>2016-05-15T07:17:28.000Z</time>
      </trkpt>
      <trkpt lat="44.52368" lon="4.21909">
        <ele>493</ele>
        <time>2016-05-15T07:17:29.000Z</time>
      </trkpt>
      <trkpt lat="44.5237" lon="4.21909">
        <ele>493</ele>
        <time>2016-05-15T07:17:30.000Z</time>
      </trkpt>
      <trkpt lat="44.52372" lon="4.21909">
        <ele>493</ele>
        <time>2016-05-15T07:17:31.000Z</time>
      </trkpt>
      <trkpt lat="44.52373" lon="4.21908">
        <ele>493</ele>
        <time>2016-05-15T07:17:32.000Z</time>
      </trkpt>
      <trkpt lat="44.52375" lon="4.21908">
        <ele>494</ele>
        <time>2016-05-15T07:17:33.000Z</time>
      </trkpt>
      <trkpt lat="44.52377" lon="4.21907">
        <ele>494</ele>
        <time>2016-05-15T07:17:34.000Z</time>
      </trkpt>
      <trkpt lat="44.52379" lon="4.21907">
        <ele>494</ele>
        <time>2016-05-15T07:17:35.000Z</time>
      </trkpt>
      <trkpt lat="44.52381" lon="4.21907">
        <ele>494</ele>
        <time>2016-05-15T07:17:36.000Z</time>
      </trkpt>
      <trkpt lat="44.52383" lon="4.21906">
        <ele>494</ele>
        <time>2016-05-15T07:17:37.000Z</time>
      </trkpt>
      <trkpt lat="44.52384" lon="4.21906">
        <ele>494</ele>
        <time>2016-05-15T07:17:38.000Z</time>
      </trkpt>
      <trkpt lat="44.52386" lon="4.21906">
        <ele>495</ele>
        <time>2016-05-15T07:17:39.000Z</time>
      </trkpt>
      <trkpt lat="44.52388" lon="4.21905">
        <ele>495</ele>
        <time>2016-05-15T07:17:40.000Z</time>
      </trkpt>
      <trkpt lat="44.5239" lon="4.21905">
        <ele>495</ele>
        <time>2016-05-15T07:17:41.000Z</time>
      </trkpt>
      <trkpt lat="44.52392" lon="4.21905">
        <ele>495</ele>
        <time>2016-05-15T07:17:42.000Z</time>
      </trkpt>
      <trkpt lat="44.52394" lon="4.21904">
        <ele>495</ele>
        <time>2016-05-15T07:17:43.000Z</time>
      </trkpt>
      <trkpt lat="44.52395" lon="4.21903">
        <ele>495</ele>
        <time>2016-05-15T07:17:44.000Z</time>
      </trkpt>
      <trkpt lat="44.52397" lon="4.21902">
        <ele>495</ele>
        <time>2016-05-15T07:17:45.000Z</time>
      </trkpt>
      <trkpt lat="44.52399" lon="4.21901">
        <ele>495</ele>
        <time>2016-05-15T07:17:46.000Z</time>
      </trkpt>
      <trkpt lat="44.52401" lon="4.21901">
        <ele>495</ele>
        <time>2016-05-15T07:17:47.000Z</time>
      </trkpt>
      <trkpt lat="44.52403" lon="4.219">
        <ele>495</ele>
        <time>2016-05-15T07:17:48.000Z</time>
      </trkpt>
      <trkpt lat="44.52405" lon="4.21899">
        <ele>495</ele>
        <time>2016-05-15T07:17:49.000Z</time>
      </trkpt>
      <trkpt lat="44.52407" lon="4.21899">
        <ele>495</ele>
        <time>2016-05-15T07:17:50.000Z</time>
      </trkpt>
      <trkpt lat="44.52409" lon="4.21898">
        <ele>495</ele>
        <time>2016-05-15T07:17:51.000Z</time>
      </trkpt>
      <trkpt lat="44.52411" lon="4.21898">
        <ele>496</ele>
        <time>2016-05-15T07:17:52.000Z</time>
      </trkpt>
      <trkpt lat="44.52413" lon="4.21897">
        <ele>496</ele>
        <time>2016-05-15T07:17:53.000Z</time>
      </trkpt>
      <trkpt lat="44.52415" lon="4.21897">
        <ele>496</ele>
        <time>2016-05-15T07:17:54.000Z</time>
      </trkpt>
      <trkpt lat="44.52417" lon="4.21897">
        <ele>500</ele>
        <time>2016-05-15T07:17:55.000Z</time>
      </trkpt>
      <trkpt lat="44.52419" lon="4.21897">
        <ele>500</ele>
        <time>2016-05-15T07:17:56.000Z</time>
      </trkpt>
      <trkpt lat="44.52421" lon="4.21897">
        <ele>500</ele>
        <time>2016-05-15T07:17:57.000Z</time>
      </trkpt>
      <trkpt lat="44.52423" lon="4.21897">
        <ele>500</ele>
        <time>2016-05-15T07:17:58.000Z</time>
      </trkpt>
      <trkpt lat="44.52425" lon="4.21897">
        <ele>500</ele>
        <time>2016-05-15T07:17:59.000Z</time>
      </trkpt>
      <trkpt lat="44.52427" lon="4.21897">
        <ele>500</ele>
        <time>2016-05-15T07:18:00.000Z</time>
      </trkpt>
      <trkpt lat="44.52429" lon="4.21897">
        <ele>500</ele>
        <time>2016-05-15T07:18:01.000Z</time>
      </trkpt>
      <trkpt lat="44.52431" lon="4.21897">
        <ele>500</ele>
        <time>2016-05-15T07:18:02.000Z</time>
      </trkpt>
      <trkpt lat="44.52433" lon="4.21897">
        <ele>501</ele>
        <time>2016-05-15T07:18:03.000Z</time>
      </trkpt>
      <trkpt lat="44.52435" lon="4.21897">
        <ele>501</ele>
        <time>2016-05-15T07:18:04.000Z</time>
      </trkpt>
      <trkpt lat="44.52437" lon="4.21897">
        <ele>501</ele>
        <time>2016-05-15T07:18:05.000Z</time>
      </trkpt>
      <trkpt lat="44.52438" lon="4.21898">
        <ele>501</ele>
        <time>2016-05-15T07:18:06.000Z</time>
      </trkpt>
      <trkpt lat="44.5244" lon="4.21897">
        <ele>501</ele>
        <time>2016-05-15T07:18:07.000Z</time>
      </trkpt>
      <trkpt lat="44.52442" lon="4.21895">
        <ele>502</ele>
        <time>2016-05-15T07:18:08.000Z</time>
      </trkpt>
      <trkpt lat="44.52442" lon="4.21893">
        <ele>502</ele>
        <time>2016-05-15T07:18:09.000Z</time>
      </trkpt>
      <trkpt lat="44.5244" lon="4.21892">
        <ele>502</ele>
        <time>2016-05-15T07:18:10.000Z</time>
      </trkpt>
      <trkpt lat="44.52439" lon="4.21891">
        <ele>502</ele>
        <time>2016-05-15T07:18:11.000Z</time>
      </trkpt>
      <trkpt lat="44.52437" lon="4.2189">
        <ele>502</ele>
        <time>2016-05-15T07:18:12.000Z</time>
      </trkpt>
      <trkpt lat="44.52435" lon="4.2189">
        <ele>502</ele>
        <time>2016-05-15T07:18:13.000Z</time>
      </trkpt>
      <trkpt lat="44.52433" lon="4.2189">
        <ele>502</ele>
        <time>2016-05-15T07:18:14.000Z</time>
      </trkpt>
      <trkpt lat="44.52431" lon="4.21889">
        <ele>502</ele>
        <time>2016-05-15T07:18:15.000Z</time>
      </trkpt>
      <trkpt lat="44.52429" lon="4.21889">
        <ele>502</ele>
        <time>2016-05-15T07:18:16.000Z</time>
      </trkpt>
      <trkpt lat="44.52426" lon="4.21889">
        <ele>502</ele>
        <time>2016-05-15T07:18:17.000Z</time>
      </trkpt>
      <trkpt lat="44.52423" lon="4.21889">
        <ele>501</ele>
        <time>2016-05-15T07:18:18.000Z</time>
      </trkpt>
      <trkpt lat="44.5242" lon="4.21889">
        <ele>501</ele>
        <time>2016-05-15T07:18:19.000Z</time>
      </trkpt>
      <trkpt lat="44.52416" lon="4.21889">
        <ele>497</ele>
        <time>2016-05-15T07:18:20.000Z</time>
      </trkpt>
      <trkpt lat="44.52413" lon="4.21889">
        <ele>497</ele>
        <time>2016-05-15T07:18:21.000Z</time>
      </trkpt>
      <trkpt lat="44.52409" lon="4.21888">
        <ele>497</ele>
        <time>2016-05-15T07:18:22.000Z</time>
      </trkpt>
      <trkpt lat="44.52405" lon="4.21888">
        <ele>497</ele>
        <time>2016-05-15T07:18:23.000Z</time>
      </trkpt>
      <trkpt lat="44.52401" lon="4.21888">
        <ele>497</ele>
        <time>2016-05-15T07:18:24.000Z</time>
      </trkpt>
      <trkpt lat="44.52397" lon="4.21888">
        <ele>496</ele>
        <time>2016-05-15T07:18:25.000Z</time>
      </trkpt>
      <trkpt lat="44.52392" lon="4.21887">
        <ele>496</ele>
        <time>2016-05-15T07:18:26.000Z</time>
      </trkpt>
      <trkpt lat="44.52388" lon="4.21885">
        <ele>496</ele>
        <time>2016-05-15T07:18:27.000Z</time>
      </trkpt>
      <trkpt lat="44.52384" lon="4.21883">
        <ele>496</ele>
        <time>2016-05-15T07:18:28.000Z</time>
      </trkpt>
      <trkpt lat="44.5238" lon="4.2188">
        <ele>496</ele>
        <time>2016-05-15T07:18:29.000Z</time>
      </trkpt>
      <trkpt lat="44.52376" lon="4.21878">
        <ele>496</ele>
        <time>2016-05-15T07:18:30.000Z</time>
      </trkpt>
      <trkpt lat="44.52373" lon="4.21875">
        <ele>496</ele>
        <time>2016-05-15T07:18:31.000Z</time>
      </trkpt>
      <trkpt lat="44.52369" lon="4.21871">
        <ele>496</ele>
        <time>2016-05-15T07:18:32.000Z</time>
      </trkpt>
      <trkpt lat="44.52366" lon="4.21868">
        <ele>496</ele>
        <time>2016-05-15T07:18:33.000Z</time>
      </trkpt>
      <trkpt lat="44.52363" lon="4.21865">
        <ele>497</ele>
        <time>2016-05-15T07:18:34.000Z</time>
      </trkpt>
      <trkpt lat="44.52361" lon="4.21862">
        <ele>497</ele>
        <time>2016-05-15T07:18:35.000Z</time>
      </trkpt>
      <trkpt lat="44.52359" lon="4.21859">
        <ele>497</ele>
        <time>2016-05-15T07:18:36.000Z</time>
      </trkpt>
      <trkpt lat="44.52357" lon="4.21856">
        <ele>497</ele>
        <time>2016-05-15T07:18:37.000Z</time>
      </trkpt>
      <trkpt lat="44.52355" lon="4.21853">
        <ele>497</ele>
        <time>2016-05-15T07:18:38.000Z</time>
      </trkpt>
      <trkpt lat="44.52353" lon="4.2185">
        <ele>497</ele>
        <time>2016-05-15T07:18:39.000Z</time>
      </trkpt>
      <trkpt lat="44.52351" lon="4.21847">
        <ele>497</ele>
        <time>2016-05-15T07:18:40.000Z</time>
      </trkpt>
      <trkpt lat="44.52349" lon="4.21844">
        <ele>497</ele>
        <time>2016-05-15T07:18:41.000Z</time>
      </trkpt>
      <trkpt lat="44.52347" lon="4.21842">
        <ele>497</ele>
        <time>2016-05-15T07:18:42.000Z</time>
      </trkpt>
      <trkpt lat="44.52345" lon="4.21839">
        <ele>497</ele>
        <time>2016-05-15T07:18:43.000Z</time>
      </trkpt>
      <trkpt lat="44.52343" lon="4.21836">
        <ele>497</ele>
        <time>2016-05-15T07:18:44.000Z</time>
      </trkpt>
      <trkpt lat="44.52341" lon="4.21833">
        <ele>500</ele>
        <time>2016-05-15T07:18:45.000Z</time>
      </trkpt>
      <trkpt lat="44.52339" lon="4.2183">
        <ele>500</ele>
        <time>2016-05-15T07:18:46.000Z</time>
      </trkpt>
      <trkpt lat="44.52337" lon="4.21827">
        <ele>500</ele>
        <time>2016-05-15T07:18:47.000Z</time>
      </trkpt>
      <trkpt lat="44.52335" lon="4.21824">
        <ele>501</ele>
        <time>2016-05-15T07:18:48.000Z</time>
      </trkpt>
      <trkpt lat="44.52333" lon="4.21821">
        <ele>495</ele>
        <time>2016-05-15T07:18:49.000Z</time>
      </trkpt>
      <trkpt lat="44.52332" lon="4.21818">
        <ele>495</ele>
        <time>2016-05-15T07:18:50.000Z</time>
      </trkpt>
      <trkpt lat="44.5233" lon="4.21816">
        <ele>495</ele>
        <time>2016-05-15T07:18:51.000Z</time>
      </trkpt>
      <trkpt lat="44.52328" lon="4.21813">
        <ele>494</ele>
        <time>2016-05-15T07:18:52.000Z</time>
      </trkpt>
      <trkpt lat="44.52326" lon="4.2181">
        <ele>494</ele>
        <time>2016-05-15T07:18:53.000Z</time>
      </trkpt>
      <trkpt lat="44.52325" lon="4.21807">
        <ele>494</ele>
        <time>2016-05-15T07:18:54.000Z</time>
      </trkpt>
      <trkpt lat="44.52323" lon="4.21804">
        <ele>494</ele>
        <time>2016-05-15T07:18:55.000Z</time>
      </trkpt>
      <trkpt lat="44.52322" lon="4.21801">
        <ele>494</ele>
        <time>2016-05-15T07:18:56.000Z</time>
      </trkpt>
      <trkpt lat="44.5232" lon="4.21798">
        <ele>494</ele>
        <time>2016-05-15T07:18:57.000Z</time>
      </trkpt>
      <trkpt lat="44.52319" lon="4.21796">
        <ele>494</ele>
        <time>2016-05-15T07:18:58.000Z</time>
      </trkpt>
      <trkpt lat="44.52317" lon="4.21793">
        <ele>494</ele>
        <time>2016-05-15T07:18:59.000Z</time>
      </trkpt>
      <trkpt lat="44.52316" lon="4.2179">
        <ele>494</ele>
        <time>2016-05-15T07:19:00.000Z</time>
      </trkpt>
      <trkpt lat="44.52315" lon="4.21787">
        <ele>494</ele>
        <time>2016-05-15T07:19:01.000Z</time>
      </trkpt>
      <trkpt lat="44.52314" lon="4.21784">
        <ele>495</ele>
        <time>2016-05-15T07:19:02.000Z</time>
      </trkpt>
      <trkpt lat="44.52313" lon="4.21781">
        <ele>495</ele>
        <time>2016-05-15T07:19:03.000Z</time>
      </trkpt>
      <trkpt lat="44.52311" lon="4.21778">
        <ele>495</ele>
        <time>2016-05-15T07:19:04.000Z</time>
      </trkpt>
      <trkpt lat="44.5231" lon="4.21775">
        <ele>495</ele>
        <time>2016-05-15T07:19:05.000Z</time>
      </trkpt>
      <trkpt lat="44.52308" lon="4.21771">
        <ele>495</ele>
        <time>2016-05-15T07:19:06.000Z</time>
      </trkpt>
      <trkpt lat="44.52306" lon="4.21767">
        <ele>495</ele>
        <time>2016-05-15T07:19:07.000Z</time>
      </trkpt>
      <trkpt lat="44.52304" lon="4.21763">
        <ele>495</ele>
        <time>2016-05-15T07:19:08.000Z</time>
      </trkpt>
      <trkpt lat="44.52302" lon="4.21758">
        <ele>495</ele>
        <time>2016-05-15T07:19:09.000Z</time>
      </trkpt>
      <trkpt lat="44.523" lon="4.21753">
        <ele>495</ele>
        <time>2016-05-15T07:19:10.000Z</time>
      </trkpt>
      <trkpt lat="44.52299" lon="4.21747">
        <ele>497</ele>
        <time>2016-05-15T07:19:11.000Z</time>
      </trkpt>
      <trkpt lat="44.52299" lon="4.21742">
        <ele>497</ele>
        <time>2016-05-15T07:19:12.000Z</time>
      </trkpt>
      <trkpt lat="44.52298" lon="4.21738">
        <ele>497</ele>
        <time>2016-05-15T07:19:13.000Z</time>
      </trkpt>
      <trkpt lat="44.52298" lon="4.21734">
        <ele>496</ele>
        <time>2016-05-15T07:19:14.000Z</time>
      </trkpt>
      <trkpt lat="44.52299" lon="4.2173">
        <ele>496</ele>
        <time>2016-05-15T07:19:15.000Z</time>
      </trkpt>
      <trkpt lat="44.52299" lon="4.21727">
        <ele>496</ele>
        <time>2016-05-15T07:19:16.000Z</time>
      </trkpt>
      <trkpt lat="44.523" lon="4.21724">
        <ele>496</ele>
        <time>2016-05-15T07:19:17.000Z</time>
      </trkpt>
      <trkpt lat="44.523" lon="4.2172">
        <ele>496</ele>
        <time>2016-05-15T07:19:18.000Z</time>
      </trkpt>
      <trkpt lat="44.52301" lon="4.21716">
        <ele>496</ele>
        <time>2016-05-15T07:19:19.000Z</time>
      </trkpt>
      <trkpt lat="44.52301" lon="4.21712">
        <ele>496</ele>
        <time>2016-05-15T07:19:20.000Z</time>
      </trkpt>
      <trkpt lat="44.52301" lon="4.21708">
        <ele>496</ele>
        <time>2016-05-15T07:19:21.000Z</time>
      </trkpt>
      <trkpt lat="44.52302" lon="4.21704">
        <ele>496</ele>
        <time>2016-05-15T07:19:22.000Z</time>
      </trkpt>
      <trkpt lat="44.52302" lon="4.217">
        <ele>496</ele>
        <time>2016-05-15T07:19:23.000Z</time>
      </trkpt>
      <trkpt lat="44.52302" lon="4.21696">
        <ele>496</ele>
        <time>2016-05-15T07:19:24.000Z</time>
      </trkpt>
      <trkpt lat="44.52302" lon="4.21691">
        <ele>496</ele>
        <time>2016-05-15T07:19:25.000Z</time>
      </trkpt>
      <trkpt lat="44.52301" lon="4.21685">
        <ele>496</ele>
        <time>2016-05-15T07:19:26.000Z</time>
      </trkpt>
      <trkpt lat="44.52301" lon="4.21679">
        <ele>496</ele>
        <time>2016-05-15T07:19:27.000Z</time>
      </trkpt>
      <trkpt lat="44.523" lon="4.21672">
        <ele>496</ele>
        <time>2016-05-15T07:19:28.000Z</time>
      </trkpt>
      <trkpt lat="44.52299" lon="4.21664">
        <ele>495</ele>
        <time>2016-05-15T07:19:29.000Z</time>
      </trkpt>
      <trkpt lat="44.52299" lon="4.21658">
        <ele>495</ele>
        <time>2016-05-15T07:19:30.000Z</time>
      </trkpt>
      <trkpt lat="44.52301" lon="4.21652">
        <ele>495</ele>
        <time>2016-05-15T07:19:31.000Z</time>
      </trkpt>
      <trkpt lat="44.52304" lon="4.21646">
        <ele>495</ele>
        <time>2016-05-15T07:19:32.000Z</time>
      </trkpt>
      <trkpt lat="44.52307" lon="4.21642">
        <ele>495</ele>
        <time>2016-05-15T07:19:33.000Z</time>
      </trkpt>
      <trkpt lat="44.52311" lon="4.21639">
        <ele>495</ele>
        <time>2016-05-15T07:19:34.000Z</time>
      </trkpt>
      <trkpt lat="44.52314" lon="4.21639">
        <ele>495</ele>
        <time>2016-05-15T07:19:35.000Z</time>
      </trkpt>
      <trkpt lat="44.52316" lon="4.21638">
        <ele>496</ele>
        <time>2016-05-15T07:19:36.000Z</time>
      </trkpt>
      <trkpt lat="44.52319" lon="4.21639">
        <ele>496</ele>
        <time>2016-05-15T07:19:37.000Z</time>
      </trkpt>
      <trkpt lat="44.52321" lon="4.21639">
        <ele>496</ele>
        <time>2016-05-15T07:19:38.000Z</time>
      </trkpt>
      <trkpt lat="44.52322" lon="4.2164">
        <ele>496</ele>
        <time>2016-05-15T07:19:39.000Z</time>
      </trkpt>
      <trkpt lat="44.52324" lon="4.21641">
        <ele>496</ele>
        <time>2016-05-15T07:19:40.000Z</time>
      </trkpt>
      <trkpt lat="44.52326" lon="4.21641">
        <ele>497</ele>
        <time>2016-05-15T07:19:41.000Z</time>
      </trkpt>
      <trkpt lat="44.52328" lon="4.21641">
        <ele>497</ele>
        <time>2016-05-15T07:19:42.000Z</time>
      </trkpt>
      <trkpt lat="44.5233" lon="4.21641">
        <ele>497</ele>
        <time>2016-05-15T07:19:43.000Z</time>
      </trkpt>
      <trkpt lat="44.52332" lon="4.21641">
        <ele>497</ele>
        <time>2016-05-15T07:19:44.000Z</time>
      </trkpt>
      <trkpt lat="44.52334" lon="4.21641">
        <ele>505</ele>
        <time>2016-05-15T07:19:45.000Z</time>
      </trkpt>
      <trkpt lat="44.52335" lon="4.2164">
        <ele>505</ele>
        <time>2016-05-15T07:19:46.000Z</time>
      </trkpt>
      <trkpt lat="44.52337" lon="4.2164">
        <ele>505</ele>
        <time>2016-05-15T07:19:47.000Z</time>
      </trkpt>
      <trkpt lat="44.52339" lon="4.2164">
        <ele>505</ele>
        <time>2016-05-15T07:19:48.000Z</time>
      </trkpt>
      <trkpt lat="44.5234" lon="4.2164">
        <ele>505</ele>
        <time>2016-05-15T07:19:49.000Z</time>
      </trkpt>
      <trkpt lat="44.52342" lon="4.2164">
        <ele>505</ele>
        <time>2016-05-15T07:19:50.000Z</time>
      </trkpt>
      <trkpt lat="44.52344" lon="4.2164">
        <ele>505</ele>
        <time>2016-05-15T07:19:51.000Z</time>
      </trkpt>
      <trkpt lat="44.52345" lon="4.2164">
        <ele>505</ele>
        <time>2016-05-15T07:19:52.000Z</time>
      </trkpt>
      <trkpt lat="44.52347" lon="4.2164">
        <ele>505</ele>
        <time>2016-05-15T07:19:53.000Z</time>
      </trkpt>
      <trkpt lat="44.52349" lon="4.2164">
        <ele>505</ele>
        <time>2016-05-15T07:19:54.000Z</time>
      </trkpt>
      <trkpt lat="44.5235" lon="4.2164">
        <ele>505</ele>
        <time>2016-05-15T07:19:55.000Z</time>
      </trkpt>
      <trkpt lat="44.52352" lon="4.21641">
        <ele>506</ele>
        <time>2016-05-15T07:19:56.000Z</time>
      </trkpt>
      <trkpt lat="44.52353" lon="4.21642">
        <ele>506</ele>
        <time>2016-05-15T07:19:57.000Z</time>
      </trkpt>
      <trkpt lat="44.52355" lon="4.21642">
        <ele>506</ele>
        <time>2016-05-15T07:19:58.000Z</time>
      </trkpt>
      <trkpt lat="44.52357" lon="4.21643">
        <ele>506</ele>
        <time>2016-05-15T07:19:59.000Z</time>
      </trkpt>
      <trkpt lat="44.52358" lon="4.21643">
        <ele>506</ele>
        <time>2016-05-15T07:20:00.000Z</time>
      </trkpt>
      <trkpt lat="44.5236" lon="4.21644">
        <ele>506</ele>
        <time>2016-05-15T07:20:01.000Z</time>
      </trkpt>
      <trkpt lat="44.52362" lon="4.21644">
        <ele>506</ele>
        <time>2016-05-15T07:20:02.000Z</time>
      </trkpt>
      <trkpt lat="44.52363" lon="4.21645">
        <ele>506</ele>
        <time>2016-05-15T07:20:03.000Z</time>
      </trkpt>
      <trkpt lat="44.52365" lon="4.21645">
        <ele>507</ele>
        <time>2016-05-15T07:20:04.000Z</time>
      </trkpt>
      <trkpt lat="44.52366" lon="4.21646">
        <ele>507</ele>
        <time>2016-05-15T07:20:05.000Z</time>
      </trkpt>
      <trkpt lat="44.52368" lon="4.21646">
        <ele>507</ele>
        <time>2016-05-15T07:20:06.000Z</time>
      </trkpt>
      <trkpt lat="44.5237" lon="4.21646">
        <ele>507</ele>
        <time>2016-05-15T07:20:07.000Z</time>
      </trkpt>
      <trkpt lat="44.52371" lon="4.21646">
        <ele>507</ele>
        <time>2016-05-15T07:20:08.000Z</time>
      </trkpt>
      <trkpt lat="44.52373" lon="4.21646">
        <ele>507</ele>
        <time>2016-05-15T07:20:09.000Z</time>
      </trkpt>
      <trkpt lat="44.52375" lon="4.21646">
        <ele>507</ele>
        <time>2016-05-15T07:20:10.000Z</time>
      </trkpt>
      <trkpt lat="44.52376" lon="4.21646">
        <ele>508</ele>
        <time>2016-05-15T07:20:11.000Z</time>
      </trkpt>
      <trkpt lat="44.52378" lon="4.21646">
        <ele>508</ele>
        <time>2016-05-15T07:20:12.000Z</time>
      </trkpt>
      <trkpt lat="44.5238" lon="4.21646">
        <ele>508</ele>
        <time>2016-05-15T07:20:13.000Z</time>
      </trkpt>
      <trkpt lat="44.52382" lon="4.21647">
        <ele>508</ele>
        <time>2016-05-15T07:20:14.000Z</time>
      </trkpt>
      <trkpt lat="44.52384" lon="4.21647">
        <ele>508</ele>
        <time>2016-05-15T07:20:15.000Z</time>
      </trkpt>
      <trkpt lat="44.52386" lon="4.21648">
        <ele>509</ele>
        <time>2016-05-15T07:20:16.000Z</time>
      </trkpt>
      <trkpt lat="44.52387" lon="4.21648">
        <ele>509</ele>
        <time>2016-05-15T07:20:17.000Z</time>
      </trkpt>
      <trkpt lat="44.52389" lon="4.21649">
        <ele>509</ele>
        <time>2016-05-15T07:20:18.000Z</time>
      </trkpt>
      <trkpt lat="44.52391" lon="4.21649">
        <ele>509</ele>
        <time>2016-05-15T07:20:19.000Z</time>
      </trkpt>
      <trkpt lat="44.52392" lon="4.2165">
        <ele>509</ele>
        <time>2016-05-15T07:20:20.000Z</time>
      </trkpt>
      <trkpt lat="44.52394" lon="4.2165">
        <ele>510</ele>
        <time>2016-05-15T07:20:21.000Z</time>
      </trkpt>
      <trkpt lat="44.52396" lon="4.2165">
        <ele>510</ele>
        <time>2016-05-15T07:20:22.000Z</time>
      </trkpt>
      <trkpt lat="44.52398" lon="4.2165">
        <ele>510</ele>
        <time>2016-05-15T07:20:23.000Z</time>
      </trkpt>
      <trkpt lat="44.524" lon="4.2165">
        <ele>510</ele>
        <time>2016-05-15T07:20:24.000Z</time>
      </trkpt>
      <trkpt lat="44.52402" lon="4.2165">
        <ele>510</ele>
        <time>2016-05-15T07:20:25.000Z</time>
      </trkpt>
      <trkpt lat="44.52403" lon="4.2165">
        <ele>510</ele>
        <time>2016-05-15T07:20:26.000Z</time>
      </trkpt>
      <trkpt lat="44.52405" lon="4.21649">
        <ele>511</ele>
        <time>2016-05-15T07:20:27.000Z</time>
      </trkpt>
      <trkpt lat="44.52407" lon="4.21648">
        <ele>511</ele>
        <time>2016-05-15T07:20:28.000Z</time>
      </trkpt>
      <trkpt lat="44.52409" lon="4.21648">
        <ele>511</ele>
        <time>2016-05-15T07:20:29.000Z</time>
      </trkpt>
      <trkpt lat="44.5241" lon="4.21647">
        <ele>511</ele>
        <time>2016-05-15T07:20:30.000Z</time>
      </trkpt>
      <trkpt lat="44.52412" lon="4.21646">
        <ele>511</ele>
        <time>2016-05-15T07:20:31.000Z</time>
      </trkpt>
      <trkpt lat="44.52414" lon="4.21645">
        <ele>511</ele>
        <time>2016-05-15T07:20:32.000Z</time>
      </trkpt>
      <trkpt lat="44.52416" lon="4.21643">
        <ele>511</ele>
        <time>2016-05-15T07:20:33.000Z</time>
      </trkpt>
      <trkpt lat="44.52417" lon="4.21642">
        <ele>517</ele>
        <time>2016-05-15T07:20:34.000Z</time>
      </trkpt>
      <trkpt lat="44.52419" lon="4.2164">
        <ele>517</ele>
        <time>2016-05-15T07:20:35.000Z</time>
      </trkpt>
      <trkpt lat="44.5242" lon="4.21638">
        <ele>517</ele>
        <time>2016-05-15T07:20:36.000Z</time>
      </trkpt>
      <trkpt lat="44.52421" lon="4.21636">
        <ele>517</ele>
        <time>2016-05-15T07:20:37.000Z</time>
      </trkpt>
      <trkpt lat="44.52422" lon="4.21634">
        <ele>517</ele>
        <time>2016-05-15T07:20:38.000Z</time>
      </trkpt>
      <trkpt lat="44.52422" lon="4.21631">
        <ele>517</ele>
        <time>2016-05-15T07:20:39.000Z</time>
      </trkpt>
      <trkpt lat="44.52422" lon="4.21628">
        <ele>517</ele>
        <time>2016-05-15T07:20:40.000Z</time>
      </trkpt>
      <trkpt lat="44.52422" lon="4.21626">
        <ele>517</ele>
        <time>2016-05-15T07:20:41.000Z</time>
      </trkpt>
      <trkpt lat="44.52421" lon="4.21624">
        <ele>517</ele>
        <time>2016-05-15T07:20:42.000Z</time>
      </trkpt>
      <trkpt lat="44.52421" lon="4.21621">
        <ele>517</ele>
        <time>2016-05-15T07:20:43.000Z</time>
      </trkpt>
      <trkpt lat="44.52421" lon="4.21619">
        <ele>517</ele>
        <time>2016-05-15T07:20:44.000Z</time>
      </trkpt>
      <trkpt lat="44.52421" lon="4.21616">
        <ele>517</ele>
        <time>2016-05-15T07:20:45.000Z</time>
      </trkpt>
      <trkpt lat="44.52421" lon="4.21613">
        <ele>517</ele>
        <time>2016-05-15T07:20:46.000Z</time>
      </trkpt>
      <trkpt lat="44.52421" lon="4.21611">
        <ele>517</ele>
        <time>2016-05-15T07:20:47.000Z</time>
      </trkpt>
      <trkpt lat="44.52421" lon="4.21608">
        <ele>517</ele>
        <time>2016-05-15T07:20:48.000Z</time>
      </trkpt>
      <trkpt lat="44.5242" lon="4.21606">
        <ele>516</ele>
        <time>2016-05-15T07:20:49.000Z</time>
      </trkpt>
      <trkpt lat="44.5242" lon="4.21604">
        <ele>516</ele>
        <time>2016-05-15T07:20:50.000Z</time>
      </trkpt>
      <trkpt lat="44.5242" lon="4.21601">
        <ele>516</ele>
        <time>2016-05-15T07:20:51.000Z</time>
      </trkpt>
      <trkpt lat="44.52419" lon="4.21599">
        <ele>516</ele>
        <time>2016-05-15T07:20:52.000Z</time>
      </trkpt>
      <trkpt lat="44.52419" lon="4.21597">
        <ele>515</ele>
        <time>2016-05-15T07:20:53.000Z</time>
      </trkpt>
      <trkpt lat="44.52419" lon="4.21594">
        <ele>515</ele>
        <time>2016-05-15T07:20:54.000Z</time>
      </trkpt>
      <trkpt lat="44.52419" lon="4.21593">
        <ele>515</ele>
        <time>2016-05-15T07:20:55.000Z</time>
      </trkpt>
      <trkpt lat="44.5242" lon="4.21591">
        <ele>515</ele>
        <time>2016-05-15T07:20:56.000Z</time>
      </trkpt>
      <trkpt lat="44.5242" lon="4.21589">
        <ele>514</ele>
        <time>2016-05-15T07:20:57.000Z</time>
      </trkpt>
      <trkpt lat="44.52421" lon="4.21587">
        <ele>514</ele>
        <time>2016-05-15T07:20:58.000Z</time>
      </trkpt>
      <trkpt lat="44.52422" lon="4.21585">
        <ele>514</ele>
        <time>2016-05-15T07:20:59.000Z</time>
      </trkpt>
      <trkpt lat="44.52423" lon="4.21583">
        <ele>514</ele>
        <time>2016-05-15T07:21:00.000Z</time>
      </trkpt>
      <trkpt lat="44.52425" lon="4.21582">
        <ele>514</ele>
        <time>2016-05-15T07:21:01.000Z</time>
      </trkpt>
      <trkpt lat="44.52426" lon="4.21582">
        <ele>515</ele>
        <time>2016-05-15T07:21:02.000Z</time>
      </trkpt>
      <trkpt lat="44.52428" lon="4.21581">
        <ele>515</ele>
        <time>2016-05-15T07:21:03.000Z</time>
      </trkpt>
      <trkpt lat="44.52429" lon="4.21581">
        <ele>515</ele>
        <time>2016-05-15T07:21:04.000Z</time>
      </trkpt>
      <trkpt lat="44.52431" lon="4.2158">
        <ele>515</ele>
        <time>2016-05-15T07:21:05.000Z</time>
      </trkpt>
      <trkpt lat="44.52432" lon="4.2158">
        <ele>516</ele>
        <time>2016-05-15T07:21:06.000Z</time>
      </trkpt>
      <trkpt lat="44.52434" lon="4.21579">
        <ele>516</ele>
        <time>2016-05-15T07:21:07.000Z</time>
      </trkpt>
      <trkpt lat="44.52435" lon="4.21579">
        <ele>516</ele>
        <time>2016-05-15T07:21:08.000Z</time>
      </trkpt>
      <trkpt lat="44.52437" lon="4.21579">
        <ele>516</ele>
        <time>2016-05-15T07:21:09.000Z</time>
      </trkpt>
      <trkpt lat="44.52439" lon="4.21578">
        <ele>516</ele>
        <time>2016-05-15T07:21:10.000Z</time>
      </trkpt>
      <trkpt lat="44.5244" lon="4.21579">
        <ele>517</ele>
        <time>2016-05-15T07:21:11.000Z</time>
      </trkpt>
      <trkpt lat="44.52442" lon="4.21579">
        <ele>517</ele>
        <time>2016-05-15T07:21:12.000Z</time>
      </trkpt>
      <trkpt lat="44.52444" lon="4.21578">
        <ele>517</ele>
        <time>2016-05-15T07:21:13.000Z</time>
      </trkpt>
      <trkpt lat="44.52445" lon="4.21578">
        <ele>517</ele>
        <time>2016-05-15T07:21:14.000Z</time>
      </trkpt>
      <trkpt lat="44.52447" lon="4.21578">
        <ele>517</ele>
        <time>2016-05-15T07:21:15.000Z</time>
      </trkpt>
      <trkpt lat="44.52449" lon="4.21578">
        <ele>517</ele>
        <time>2016-05-15T07:21:16.000Z</time>
      </trkpt>
      <trkpt lat="44.5245" lon="4.21578">
        <ele>518</ele>
        <time>2016-05-15T07:21:17.000Z</time>
      </trkpt>
      <trkpt lat="44.52452" lon="4.21577">
        <ele>518</ele>
        <time>2016-05-15T07:21:18.000Z</time>
      </trkpt>
      <trkpt lat="44.52454" lon="4.21577">
        <ele>518</ele>
        <time>2016-05-15T07:21:19.000Z</time>
      </trkpt>
      <trkpt lat="44.52455" lon="4.21577">
        <ele>518</ele>
        <time>2016-05-15T07:21:20.000Z</time>
      </trkpt>
      <trkpt lat="44.52457" lon="4.21577">
        <ele>518</ele>
        <time>2016-05-15T07:21:21.000Z</time>
      </trkpt>
      <trkpt lat="44.52459" lon="4.21578">
        <ele>518</ele>
        <time>2016-05-15T07:21:22.000Z</time>
      </trkpt>
      <trkpt lat="44.52461" lon="4.21577">
        <ele>519</ele>
        <time>2016-05-15T07:21:23.000Z</time>
      </trkpt>
      <trkpt lat="44.52463" lon="4.21577">
        <ele>519</ele>
        <time>2016-05-15T07:21:24.000Z</time>
      </trkpt>
      <trkpt lat="44.52465" lon="4.21577">
        <ele>519</ele>
        <time>2016-05-15T07:21:25.000Z</time>
      </trkpt>
      <trkpt lat="44.52466" lon="4.21577">
        <ele>519</ele>
        <time>2016-05-15T07:21:26.000Z</time>
      </trkpt>
      <trkpt lat="44.52468" lon="4.21577">
        <ele>519</ele>
        <time>2016-05-15T07:21:27.000Z</time>
      </trkpt>
      <trkpt lat="44.5247" lon="4.21577">
        <ele>520</ele>
        <time>2016-05-15T07:21:28.000Z</time>
      </trkpt>
      <trkpt lat="44.52472" lon="4.21577">
        <ele>520</ele>
        <time>2016-05-15T07:21:29.000Z</time>
      </trkpt>
      <trkpt lat="44.52474" lon="4.21577">
        <ele>520</ele>
        <time>2016-05-15T07:21:30.000Z</time>
      </trkpt>
      <trkpt lat="44.52476" lon="4.21576">
        <ele>520</ele>
        <time>2016-05-15T07:21:31.000Z</time>
      </trkpt>
      <trkpt lat="44.52478" lon="4.21576">
        <ele>520</ele>
        <time>2016-05-15T07:21:32.000Z</time>
      </trkpt>
      <trkpt lat="44.5248" lon="4.21576">
        <ele>520</ele>
        <time>2016-05-15T07:21:33.000Z</time>
      </trkpt>
      <trkpt lat="44.52482" lon="4.21575">
        <ele>521</ele>
        <time>2016-05-15T07:21:34.000Z</time>
      </trkpt>
      <trkpt lat="44.52483" lon="4.21574">
        <ele>521</ele>
        <time>2016-05-15T07:21:35.000Z</time>
      </trkpt>
      <trkpt lat="44.52485" lon="4.21573">
        <ele>521</ele>
        <time>2016-05-15T07:21:36.000Z</time>
      </trkpt>
      <trkpt lat="44.52486" lon="4.21573">
        <ele>521</ele>
        <time>2016-05-15T07:21:37.000Z</time>
      </trkpt>
      <trkpt lat="44.52488" lon="4.21573">
        <ele>521</ele>
        <time>2016-05-15T07:21:38.000Z</time>
      </trkpt>
      <trkpt lat="44.5249" lon="4.21572">
        <ele>521</ele>
        <time>2016-05-15T07:21:39.000Z</time>
      </trkpt>
      <trkpt lat="44.52492" lon="4.21572">
        <ele>522</ele>
        <time>2016-05-15T07:21:40.000Z</time>
      </trkpt>
      <trkpt lat="44.52494" lon="4.21571">
        <ele>522</ele>
        <time>2016-05-15T07:21:41.000Z</time>
      </trkpt>
      <trkpt lat="44.52496" lon="4.21571">
        <ele>522</ele>
        <time>2016-05-15T07:21:42.000Z</time>
      </trkpt>
      <trkpt lat="44.52498" lon="4.21571">
        <ele>522</ele>
        <time>2016-05-15T07:21:43.000Z</time>
      </trkpt>
      <trkpt lat="44.525" lon="4.21571">
        <ele>522</ele>
        <time>2016-05-15T07:21:44.000Z</time>
      </trkpt>
      <trkpt lat="44.52501" lon="4.2157">
        <ele>525</ele>
        <time>2016-05-15T07:21:45.000Z</time>
      </trkpt>
      <trkpt lat="44.52503" lon="4.21569">
        <ele>525</ele>
        <time>2016-05-15T07:21:46.000Z</time>
      </trkpt>
      <trkpt lat="44.52505" lon="4.21568">
        <ele>525</ele>
        <time>2016-05-15T07:21:47.000Z</time>
      </trkpt>
      <trkpt lat="44.52507" lon="4.21567">
        <ele>525</ele>
        <time>2016-05-15T07:21:48.000Z</time>
      </trkpt>
      <trkpt lat="44.52508" lon="4.21567">
        <ele>525</ele>
        <time>2016-05-15T07:21:49.000Z</time>
      </trkpt>
      <trkpt lat="44.5251" lon="4.21566">
        <ele>525</ele>
        <time>2016-05-15T07:21:50.000Z</time>
      </trkpt>
      <trkpt lat="44.52512" lon="4.21565">
        <ele>526</ele>
        <time>2016-05-15T07:21:51.000Z</time>
      </trkpt>
      <trkpt lat="44.52513" lon="4.21565">
        <ele>526</ele>
        <time>2016-05-15T07:21:52.000Z</time>
      </trkpt>
      <trkpt lat="44.52515" lon="4.21564">
        <ele>526</ele>
        <time>2016-05-15T07:21:53.000Z</time>
      </trkpt>
      <trkpt lat="44.52517" lon="4.21564">
        <ele>526</ele>
        <time>2016-05-15T07:21:54.000Z</time>
      </trkpt>
      <trkpt lat="44.52519" lon="4.21563">
        <ele>526</ele>
        <time>2016-05-15T07:21:55.000Z</time>
      </trkpt>
      <trkpt lat="44.52521" lon="4.21563">
        <ele>526</ele>
        <time>2016-05-15T07:21:56.000Z</time>
      </trkpt>
      <trkpt lat="44.52523" lon="4.21563">
        <ele>526</ele>
        <time>2016-05-15T07:21:57.000Z</time>
      </trkpt>
      <trkpt lat="44.52524" lon="4.21563">
        <ele>526</ele>
        <time>2016-05-15T07:21:58.000Z</time>
      </trkpt>
      <trkpt lat="44.52526" lon="4.21563">
        <ele>526</ele>
        <time>2016-05-15T07:21:59.000Z</time>
      </trkpt>
      <trkpt lat="44.52528" lon="4.21563">
        <ele>526</ele>
        <time>2016-05-15T07:22:00.000Z</time>
      </trkpt>
      <trkpt lat="44.5253" lon="4.21564">
        <ele>526</ele>
        <time>2016-05-15T07:22:01.000Z</time>
      </trkpt>
      <trkpt lat="44.52532" lon="4.21565">
        <ele>526</ele>
        <time>2016-05-15T07:22:02.000Z</time>
      </trkpt>
      <trkpt lat="44.52533" lon="4.21566">
        <ele>526</ele>
        <time>2016-05-15T07:22:03.000Z</time>
      </trkpt>
      <trkpt lat="44.52535" lon="4.21568">
        <ele>526</ele>
        <time>2016-05-15T07:22:04.000Z</time>
      </trkpt>
      <trkpt lat="44.52536" lon="4.2157">
        <ele>526</ele>
        <time>2016-05-15T07:22:05.000Z</time>
      </trkpt>
      <trkpt lat="44.52537" lon="4.21572">
        <ele>526</ele>
        <time>2016-05-15T07:22:06.000Z</time>
      </trkpt>
      <trkpt lat="44.52538" lon="4.21574">
        <ele>526</ele>
        <time>2016-05-15T07:22:07.000Z</time>
      </trkpt>
      <trkpt lat="44.52538" lon="4.21576">
        <ele>527</ele>
        <time>2016-05-15T07:22:08.000Z</time>
      </trkpt>
      <trkpt lat="44.52539" lon="4.21578">
        <ele>527</ele>
        <time>2016-05-15T07:22:09.000Z</time>
      </trkpt>
      <trkpt lat="44.52539" lon="4.21581">
        <ele>527</ele>
        <time>2016-05-15T07:22:10.000Z</time>
      </trkpt>
      <trkpt lat="44.5254" lon="4.21583">
        <ele>527</ele>
        <time>2016-05-15T07:22:11.000Z</time>
      </trkpt>
      <trkpt lat="44.52541" lon="4.21585">
        <ele>527</ele>
        <time>2016-05-15T07:22:12.000Z</time>
      </trkpt>
      <trkpt lat="44.52542" lon="4.21587">
        <ele>527</ele>
        <time>2016-05-15T07:22:13.000Z</time>
      </trkpt>
      <trkpt lat="44.52543" lon="4.2159">
        <ele>527</ele>
        <time>2016-05-15T07:22:14.000Z</time>
      </trkpt>
      <trkpt lat="44.52544" lon="4.21592">
        <ele>527</ele>
        <time>2016-05-15T07:22:15.000Z</time>
      </trkpt>
      <trkpt lat="44.52545" lon="4.21595">
        <ele>527</ele>
        <time>2016-05-15T07:22:16.000Z</time>
      </trkpt>
      <trkpt lat="44.52546" lon="4.21598">
        <ele>527</ele>
        <time>2016-05-15T07:22:17.000Z</time>
      </trkpt>
      <trkpt lat="44.52547" lon="4.21601">
        <ele>527</ele>
        <time>2016-05-15T07:22:18.000Z</time>
      </trkpt>
      <trkpt lat="44.52548" lon="4.21604">
        <ele>527</ele>
        <time>2016-05-15T07:22:19.000Z</time>
      </trkpt>
      <trkpt lat="44.52549" lon="4.21607">
        <ele>527</ele>
        <time>2016-05-15T07:22:20.000Z</time>
      </trkpt>
      <trkpt lat="44.5255" lon="4.2161">
        <ele>527</ele>
        <time>2016-05-15T07:22:21.000Z</time>
      </trkpt>
      <trkpt lat="44.52551" lon="4.21613">
        <ele>527</ele>
        <time>2016-05-15T07:22:22.000Z</time>
      </trkpt>
      <trkpt lat="44.52551" lon="4.21616">
        <ele>527</ele>
        <time>2016-05-15T07:22:23.000Z</time>
      </trkpt>
      <trkpt lat="44.52552" lon="4.2162">
        <ele>527</ele>
        <time>2016-05-15T07:22:24.000Z</time>
      </trkpt>
      <trkpt lat="44.52553" lon="4.21623">
        <ele>527</ele>
        <time>2016-05-15T07:22:25.000Z</time>
      </trkpt>
      <trkpt lat="44.52553" lon="4.21625">
        <ele>527</ele>
        <time>2016-05-15T07:22:26.000Z</time>
      </trkpt>
      <trkpt lat="44.52554" lon="4.21629">
        <ele>527</ele>
        <time>2016-05-15T07:22:27.000Z</time>
      </trkpt>
      <trkpt lat="44.52554" lon="4.21632">
        <ele>527</ele>
        <time>2016-05-15T07:22:28.000Z</time>
      </trkpt>
      <trkpt lat="44.52555" lon="4.21634">
        <ele>527</ele>
        <time>2016-05-15T07:22:29.000Z</time>
      </trkpt>
      <trkpt lat="44.52556" lon="4.21637">
        <ele>527</ele>
        <time>2016-05-15T07:22:30.000Z</time>
      </trkpt>
      <trkpt lat="44.52556" lon="4.2164">
        <ele>527</ele>
        <time>2016-05-15T07:22:31.000Z</time>
      </trkpt>
      <trkpt lat="44.52557" lon="4.21642">
        <ele>527</ele>
        <time>2016-05-15T07:22:32.000Z</time>
      </trkpt>
      <trkpt lat="44.52557" lon="4.21645">
        <ele>527</ele>
        <time>2016-05-15T07:22:33.000Z</time>
      </trkpt>
      <trkpt lat="44.52558" lon="4.21648">
        <ele>527</ele>
        <time>2016-05-15T07:22:34.000Z</time>
      </trkpt>
      <trkpt lat="44.52559" lon="4.21651">
        <ele>527</ele>
        <time>2016-05-15T07:22:35.000Z</time>
      </trkpt>
      <trkpt lat="44.5256" lon="4.21653">
        <ele>527</ele>
        <time>2016-05-15T07:22:36.000Z</time>
      </trkpt>
      <trkpt lat="44.52561" lon="4.21656">
        <ele>528</ele>
        <time>2016-05-15T07:22:37.000Z</time>
      </trkpt>
      <trkpt lat="44.52562" lon="4.21658">
        <ele>528</ele>
        <time>2016-05-15T07:22:38.000Z</time>
      </trkpt>
      <trkpt lat="44.52563" lon="4.2166">
        <ele>528</ele>
        <time>2016-05-15T07:22:39.000Z</time>
      </trkpt>
      <trkpt lat="44.52564" lon="4.21662">
        <ele>528</ele>
        <time>2016-05-15T07:22:40.000Z</time>
      </trkpt>
      <trkpt lat="44.52565" lon="4.21663">
        <ele>528</ele>
        <time>2016-05-15T07:22:41.000Z</time>
      </trkpt>
      <trkpt lat="44.52567" lon="4.21664">
        <ele>528</ele>
        <time>2016-05-15T07:22:42.000Z</time>
      </trkpt>
      <trkpt lat="44.52569" lon="4.21663">
        <ele>528</ele>
        <time>2016-05-15T07:22:43.000Z</time>
      </trkpt>
      <trkpt lat="44.52571" lon="4.21662">
        <ele>528</ele>
        <time>2016-05-15T07:22:44.000Z</time>
      </trkpt>
      <trkpt lat="44.52572" lon="4.2166">
        <ele>528</ele>
        <time>2016-05-15T07:22:45.000Z</time>
      </trkpt>
      <trkpt lat="44.52574" lon="4.21659">
        <ele>528</ele>
        <time>2016-05-15T07:22:46.000Z</time>
      </trkpt>
      <trkpt lat="44.52576" lon="4.21658">
        <ele>528</ele>
        <time>2016-05-15T07:22:47.000Z</time>
      </trkpt>
      <trkpt lat="44.52577" lon="4.21656">
        <ele>528</ele>
        <time>2016-05-15T07:22:48.000Z</time>
      </trkpt>
      <trkpt lat="44.52579" lon="4.21655">
        <ele>528</ele>
        <time>2016-05-15T07:22:49.000Z</time>
      </trkpt>
      <trkpt lat="44.52581" lon="4.21654">
        <ele>528</ele>
        <time>2016-05-15T07:22:50.000Z</time>
      </trkpt>
      <trkpt lat="44.52583" lon="4.21652">
        <ele>528</ele>
        <time>2016-05-15T07:22:51.000Z</time>
      </trkpt>
      <trkpt lat="44.52584" lon="4.21651">
        <ele>529</ele>
        <time>2016-05-15T07:22:52.000Z</time>
      </trkpt>
      <trkpt lat="44.52586" lon="4.2165">
        <ele>530</ele>
        <time>2016-05-15T07:22:53.000Z</time>
      </trkpt>
      <trkpt lat="44.52588" lon="4.21648">
        <ele>530</ele>
        <time>2016-05-15T07:22:54.000Z</time>
      </trkpt>
      <trkpt lat="44.52589" lon="4.21647">
        <ele>530</ele>
        <time>2016-05-15T07:22:55.000Z</time>
      </trkpt>
      <trkpt lat="44.52591" lon="4.21646">
        <ele>530</ele>
        <time>2016-05-15T07:22:56.000Z</time>
      </trkpt>
      <trkpt lat="44.52593" lon="4.21645">
        <ele>530</ele>
        <time>2016-05-15T07:22:57.000Z</time>
      </trkpt>
      <trkpt lat="44.52595" lon="4.21644">
        <ele>530</ele>
        <time>2016-05-15T07:22:58.000Z</time>
      </trkpt>
      <trkpt lat="44.52597" lon="4.21643">
        <ele>530</ele>
        <time>2016-05-15T07:22:59.000Z</time>
      </trkpt>
      <trkpt lat="44.52599" lon="4.21641">
        <ele>530</ele>
        <time>2016-05-15T07:23:00.000Z</time>
      </trkpt>
      <trkpt lat="44.52601" lon="4.2164">
        <ele>530</ele>
        <time>2016-05-15T07:23:01.000Z</time>
      </trkpt>
      <trkpt lat="44.52603" lon="4.21639">
        <ele>530</ele>
        <time>2016-05-15T07:23:02.000Z</time>
      </trkpt>
      <trkpt lat="44.52605" lon="4.21637">
        <ele>530</ele>
        <time>2016-05-15T07:23:03.000Z</time>
      </trkpt>
      <trkpt lat="44.52607" lon="4.21636">
        <ele>530</ele>
        <time>2016-05-15T07:23:04.000Z</time>
      </trkpt>
      <trkpt lat="44.5261" lon="4.21635">
        <ele>530</ele>
        <time>2016-05-15T07:23:05.000Z</time>
      </trkpt>
      <trkpt lat="44.52612" lon="4.21633">
        <ele>530</ele>
        <time>2016-05-15T07:23:06.000Z</time>
      </trkpt>
      <trkpt lat="44.52614" lon="4.21632">
        <ele>530</ele>
        <time>2016-05-15T07:23:07.000Z</time>
      </trkpt>
      <trkpt lat="44.52616" lon="4.21631">
        <ele>530</ele>
        <time>2016-05-15T07:23:08.000Z</time>
      </trkpt>
      <trkpt lat="44.52618" lon="4.2163">
        <ele>530</ele>
        <time>2016-05-15T07:23:09.000Z</time>
      </trkpt>
      <trkpt lat="44.5262" lon="4.21629">
        <ele>530</ele>
        <time>2016-05-15T07:23:10.000Z</time>
      </trkpt>
      <trkpt lat="44.52623" lon="4.21628">
        <ele>530</ele>
        <time>2016-05-15T07:23:11.000Z</time>
      </trkpt>
      <trkpt lat="44.52625" lon="4.21627">
        <ele>530</ele>
        <time>2016-05-15T07:23:12.000Z</time>
      </trkpt>
      <trkpt lat="44.52628" lon="4.21626">
        <ele>530</ele>
        <time>2016-05-15T07:23:13.000Z</time>
      </trkpt>
      <trkpt lat="44.5263" lon="4.21625">
        <ele>530</ele>
        <time>2016-05-15T07:23:14.000Z</time>
      </trkpt>
      <trkpt lat="44.52633" lon="4.21623">
        <ele>530</ele>
        <time>2016-05-15T07:23:15.000Z</time>
      </trkpt>
      <trkpt lat="44.52635" lon="4.21622">
        <ele>530</ele>
        <time>2016-05-15T07:23:16.000Z</time>
      </trkpt>
      <trkpt lat="44.52638" lon="4.2162">
        <ele>531</ele>
        <time>2016-05-15T07:23:17.000Z</time>
      </trkpt>
      <trkpt lat="44.5264" lon="4.21619">
        <ele>531</ele>
        <time>2016-05-15T07:23:18.000Z</time>
      </trkpt>
      <trkpt lat="44.52642" lon="4.21617">
        <ele>531</ele>
        <time>2016-05-15T07:23:19.000Z</time>
      </trkpt>
      <trkpt lat="44.52644" lon="4.21616">
        <ele>531</ele>
        <time>2016-05-15T07:23:20.000Z</time>
      </trkpt>
      <trkpt lat="44.52646" lon="4.21614">
        <ele>531</ele>
        <time>2016-05-15T07:23:21.000Z</time>
      </trkpt>
      <trkpt lat="44.52649" lon="4.21613">
        <ele>531</ele>
        <time>2016-05-15T07:23:22.000Z</time>
      </trkpt>
      <trkpt lat="44.52651" lon="4.21611">
        <ele>531</ele>
        <time>2016-05-15T07:23:23.000Z</time>
      </trkpt>
      <trkpt lat="44.52653" lon="4.2161">
        <ele>531</ele>
        <time>2016-05-15T07:23:24.000Z</time>
      </trkpt>
      <trkpt lat="44.52655" lon="4.21608">
        <ele>531</ele>
        <time>2016-05-15T07:23:25.000Z</time>
      </trkpt>
      <trkpt lat="44.52657" lon="4.21606">
        <ele>531</ele>
        <time>2016-05-15T07:23:26.000Z</time>
      </trkpt>
      <trkpt lat="44.52659" lon="4.21604">
        <ele>531</ele>
        <time>2016-05-15T07:23:27.000Z</time>
      </trkpt>
      <trkpt lat="44.52661" lon="4.21602">
        <ele>531</ele>
        <time>2016-05-15T07:23:28.000Z</time>
      </trkpt>
      <trkpt lat="44.52662" lon="4.21599">
        <ele>532</ele>
        <time>2016-05-15T07:23:29.000Z</time>
      </trkpt>
      <trkpt lat="44.52664" lon="4.21597">
        <ele>532</ele>
        <time>2016-05-15T07:23:30.000Z</time>
      </trkpt>
      <trkpt lat="44.52665" lon="4.21594">
        <ele>532</ele>
        <time>2016-05-15T07:23:31.000Z</time>
      </trkpt>
      <trkpt lat="44.52667" lon="4.21592">
        <ele>533</ele>
        <time>2016-05-15T07:23:32.000Z</time>
      </trkpt>
      <trkpt lat="44.52669" lon="4.2159">
        <ele>533</ele>
        <time>2016-05-15T07:23:33.000Z</time>
      </trkpt>
      <trkpt lat="44.52671" lon="4.21588">
        <ele>533</ele>
        <time>2016-05-15T07:23:34.000Z</time>
      </trkpt>
      <trkpt lat="44.52674" lon="4.21586">
        <ele>533</ele>
        <time>2016-05-15T07:23:35.000Z</time>
      </trkpt>
      <trkpt lat="44.52676" lon="4.21584">
        <ele>532</ele>
        <time>2016-05-15T07:23:36.000Z</time>
      </trkpt>
      <trkpt lat="44.52678" lon="4.21582">
        <ele>534</ele>
        <time>2016-05-15T07:23:37.000Z</time>
      </trkpt>
      <trkpt lat="44.5268" lon="4.21579">
        <ele>534</ele>
        <time>2016-05-15T07:23:38.000Z</time>
      </trkpt>
      <trkpt lat="44.52682" lon="4.21576">
        <ele>534</ele>
        <time>2016-05-15T07:23:39.000Z</time>
      </trkpt>
      <trkpt lat="44.52684" lon="4.21573">
        <ele>534</ele>
        <time>2016-05-15T07:23:40.000Z</time>
      </trkpt>
      <trkpt lat="44.52686" lon="4.2157">
        <ele>534</ele>
        <time>2016-05-15T07:23:41.000Z</time>
      </trkpt>
      <trkpt lat="44.52689" lon="4.21568">
        <ele>534</ele>
        <time>2016-05-15T07:23:42.000Z</time>
      </trkpt>
      <trkpt lat="44.52691" lon="4.21566">
        <ele>534</ele>
        <time>2016-05-15T07:23:43.000Z</time>
      </trkpt>
      <trkpt lat="44.52694" lon="4.21565">
        <ele>534</ele>
        <time>2016-05-15T07:23:44.000Z</time>
      </trkpt>
      <trkpt lat="44.52698" lon="4.21565">
        <ele>534</ele>
        <time>2016-05-15T07:23:45.000Z</time>
      </trkpt>
      <trkpt lat="44.52701" lon="4.21565">
        <ele>534</ele>
        <time>2016-05-15T07:23:46.000Z</time>
      </trkpt>
      <trkpt lat="44.52705" lon="4.21565">
        <ele>534</ele>
        <time>2016-05-15T07:23:47.000Z</time>
      </trkpt>
      <trkpt lat="44.52708" lon="4.21565">
        <ele>534</ele>
        <time>2016-05-15T07:23:48.000Z</time>
      </trkpt>
      <trkpt lat="44.52712" lon="4.21565">
        <ele>534</ele>
        <time>2016-05-15T07:23:49.000Z</time>
      </trkpt>
      <trkpt lat="44.52715" lon="4.21565">
        <ele>534</ele>
        <time>2016-05-15T07:23:50.000Z</time>
      </trkpt>
      <trkpt lat="44.52718" lon="4.21565">
        <ele>534</ele>
        <time>2016-05-15T07:23:51.000Z</time>
      </trkpt>
      <trkpt lat="44.52721" lon="4.21564">
        <ele>534</ele>
        <time>2016-05-15T07:23:52.000Z</time>
      </trkpt>
      <trkpt lat="44.52724" lon="4.21563">
        <ele>534</ele>
        <time>2016-05-15T07:23:53.000Z</time>
      </trkpt>
      <trkpt lat="44.52727" lon="4.21564">
        <ele>534</ele>
        <time>2016-05-15T07:23:54.000Z</time>
      </trkpt>
      <trkpt lat="44.52731" lon="4.21564">
        <ele>534</ele>
        <time>2016-05-15T07:23:55.000Z</time>
      </trkpt>
      <trkpt lat="44.52734" lon="4.21565">
        <ele>534</ele>
        <time>2016-05-15T07:23:56.000Z</time>
      </trkpt>
      <trkpt lat="44.52738" lon="4.21565">
        <ele>534</ele>
        <time>2016-05-15T07:23:57.000Z</time>
      </trkpt>
      <trkpt lat="44.52741" lon="4.21566">
        <ele>534</ele>
        <time>2016-05-15T07:23:58.000Z</time>
      </trkpt>
      <trkpt lat="44.52744" lon="4.21566">
        <ele>534</ele>
        <time>2016-05-15T07:23:59.000Z</time>
      </trkpt>
      <trkpt lat="44.52747" lon="4.21567">
        <ele>534</ele>
        <time>2016-05-15T07:24:00.000Z</time>
      </trkpt>
      <trkpt lat="44.5275" lon="4.21567">
        <ele>535</ele>
        <time>2016-05-15T07:24:01.000Z</time>
      </trkpt>
      <trkpt lat="44.52753" lon="4.21567">
        <ele>535</ele>
        <time>2016-05-15T07:24:02.000Z</time>
      </trkpt>
      <trkpt lat="44.52756" lon="4.21568">
        <ele>535</ele>
        <time>2016-05-15T07:24:03.000Z</time>
      </trkpt>
      <trkpt lat="44.52758" lon="4.21567">
        <ele>535</ele>
        <time>2016-05-15T07:24:04.000Z</time>
      </trkpt>
      <trkpt lat="44.5276" lon="4.21567">
        <ele>535</ele>
        <time>2016-05-15T07:24:05.000Z</time>
      </trkpt>
      <trkpt lat="44.52763" lon="4.21567">
        <ele>535</ele>
        <time>2016-05-15T07:24:06.000Z</time>
      </trkpt>
      <trkpt lat="44.52765" lon="4.21565">
        <ele>535</ele>
        <time>2016-05-15T07:24:07.000Z</time>
      </trkpt>
      <trkpt lat="44.52767" lon="4.21564">
        <ele>536</ele>
        <time>2016-05-15T07:24:08.000Z</time>
      </trkpt>
      <trkpt lat="44.5277" lon="4.21563">
        <ele>536</ele>
        <time>2016-05-15T07:24:09.000Z</time>
      </trkpt>
      <trkpt lat="44.52772" lon="4.21562">
        <ele>536</ele>
        <time>2016-05-15T07:24:10.000Z</time>
      </trkpt>
      <trkpt lat="44.52774" lon="4.21561">
        <ele>536</ele>
        <time>2016-05-15T07:24:11.000Z</time>
      </trkpt>
      <trkpt lat="44.52777" lon="4.2156">
        <ele>536</ele>
        <time>2016-05-15T07:24:12.000Z</time>
      </trkpt>
      <trkpt lat="44.52779" lon="4.21559">
        <ele>536</ele>
        <time>2016-05-15T07:24:13.000Z</time>
      </trkpt>
      <trkpt lat="44.52781" lon="4.21558">
        <ele>536</ele>
        <time>2016-05-15T07:24:14.000Z</time>
      </trkpt>
      <trkpt lat="44.52783" lon="4.21558">
        <ele>536</ele>
        <time>2016-05-15T07:24:15.000Z</time>
      </trkpt>
      <trkpt lat="44.52785" lon="4.21556">
        <ele>536</ele>
        <time>2016-05-15T07:24:16.000Z</time>
      </trkpt>
      <trkpt lat="44.52787" lon="4.21554">
        <ele>537</ele>
        <time>2016-05-15T07:24:17.000Z</time>
      </trkpt>
      <trkpt lat="44.52789" lon="4.21553">
        <ele>537</ele>
        <time>2016-05-15T07:24:18.000Z</time>
      </trkpt>
      <trkpt lat="44.52791" lon="4.21551">
        <ele>537</ele>
        <time>2016-05-15T07:24:19.000Z</time>
      </trkpt>
      <trkpt lat="44.52793" lon="4.21549">
        <ele>537</ele>
        <time>2016-05-15T07:24:20.000Z</time>
      </trkpt>
      <trkpt lat="44.52794" lon="4.21548">
        <ele>537</ele>
        <time>2016-05-15T07:24:21.000Z</time>
      </trkpt>
      <trkpt lat="44.52795" lon="4.21546">
        <ele>537</ele>
        <time>2016-05-15T07:24:22.000Z</time>
      </trkpt>
      <trkpt lat="44.52797" lon="4.21545">
        <ele>537</ele>
        <time>2016-05-15T07:24:23.000Z</time>
      </trkpt>
      <trkpt lat="44.52799" lon="4.21544">
        <ele>537</ele>
        <time>2016-05-15T07:24:24.000Z</time>
      </trkpt>
      <trkpt lat="44.528" lon="4.21543">
        <ele>537</ele>
        <time>2016-05-15T07:24:25.000Z</time>
      </trkpt>
      <trkpt lat="44.52802" lon="4.21542">
        <ele>537</ele>
        <time>2016-05-15T07:24:26.000Z</time>
      </trkpt>
      <trkpt lat="44.52804" lon="4.21541">
        <ele>537</ele>
        <time>2016-05-15T07:24:27.000Z</time>
      </trkpt>
      <trkpt lat="44.52805" lon="4.21539">
        <ele>537</ele>
        <time>2016-05-15T07:24:28.000Z</time>
      </trkpt>
      <trkpt lat="44.52807" lon="4.21538">
        <ele>537</ele>
        <time>2016-05-15T07:24:29.000Z</time>
      </trkpt>
      <trkpt lat="44.52809" lon="4.21538">
        <ele>538</ele>
        <time>2016-05-15T07:24:30.000Z</time>
      </trkpt>
      <trkpt lat="44.52811" lon="4.21537">
        <ele>538</ele>
        <time>2016-05-15T07:24:31.000Z</time>
      </trkpt>
      <trkpt lat="44.52813" lon="4.21536">
        <ele>538</ele>
        <time>2016-05-15T07:24:32.000Z</time>
      </trkpt>
      <trkpt lat="44.52815" lon="4.21536">
        <ele>538</ele>
        <time>2016-05-15T07:24:33.000Z</time>
      </trkpt>
      <trkpt lat="44.52817" lon="4.21536">
        <ele>538</ele>
        <time>2016-05-15T07:24:34.000Z</time>
      </trkpt>
      <trkpt lat="44.52819" lon="4.21537">
        <ele>538</ele>
        <time>2016-05-15T07:24:35.000Z</time>
      </trkpt>
      <trkpt lat="44.52821" lon="4.21537">
        <ele>538</ele>
        <time>2016-05-15T07:24:36.000Z</time>
      </trkpt>
      <trkpt lat="44.52824" lon="4.21537">
        <ele>538</ele>
        <time>2016-05-15T07:24:37.000Z</time>
      </trkpt>
      <trkpt lat="44.52826" lon="4.21537">
        <ele>538</ele>
        <time>2016-05-15T07:24:38.000Z</time>
      </trkpt>
      <trkpt lat="44.52829" lon="4.21538">
        <ele>538</ele>
        <time>2016-05-15T07:24:39.000Z</time>
      </trkpt>
      <trkpt lat="44.52831" lon="4.21538">
        <ele>538</ele>
        <time>2016-05-15T07:24:40.000Z</time>
      </trkpt>
      <trkpt lat="44.52833" lon="4.21538">
        <ele>538</ele>
        <time>2016-05-15T07:24:41.000Z</time>
      </trkpt>
      <trkpt lat="44.52836" lon="4.21539">
        <ele>538</ele>
        <time>2016-05-15T07:24:42.000Z</time>
      </trkpt>
      <trkpt lat="44.52838" lon="4.2154">
        <ele>538</ele>
        <time>2016-05-15T07:24:43.000Z</time>
      </trkpt>
      <trkpt lat="44.5284" lon="4.2154">
        <ele>538</ele>
        <time>2016-05-15T07:24:44.000Z</time>
      </trkpt>
      <trkpt lat="44.52843" lon="4.21541">
        <ele>538</ele>
        <time>2016-05-15T07:24:45.000Z</time>
      </trkpt>
      <trkpt lat="44.52845" lon="4.21542">
        <ele>537</ele>
        <time>2016-05-15T07:24:46.000Z</time>
      </trkpt>
      <trkpt lat="44.52847" lon="4.21544">
        <ele>537</ele>
        <time>2016-05-15T07:24:47.000Z</time>
      </trkpt>
      <trkpt lat="44.5285" lon="4.21545">
        <ele>537</ele>
        <time>2016-05-15T07:24:48.000Z</time>
      </trkpt>
      <trkpt lat="44.52852" lon="4.21546">
        <ele>537</ele>
        <time>2016-05-15T07:24:49.000Z</time>
      </trkpt>
      <trkpt lat="44.52855" lon="4.21546">
        <ele>537</ele>
        <time>2016-05-15T07:24:50.000Z</time>
      </trkpt>
      <trkpt lat="44.52857" lon="4.21546">
        <ele>537</ele>
        <time>2016-05-15T07:24:51.000Z</time>
      </trkpt>
      <trkpt lat="44.5286" lon="4.21547">
        <ele>537</ele>
        <time>2016-05-15T07:24:52.000Z</time>
      </trkpt>
      <trkpt lat="44.52862" lon="4.21547">
        <ele>537</ele>
        <time>2016-05-15T07:24:53.000Z</time>
      </trkpt>
      <trkpt lat="44.52864" lon="4.21548">
        <ele>537</ele>
        <time>2016-05-15T07:24:54.000Z</time>
      </trkpt>
      <trkpt lat="44.52866" lon="4.21548">
        <ele>537</ele>
        <time>2016-05-15T07:24:55.000Z</time>
      </trkpt>
      <trkpt lat="44.52868" lon="4.21549">
        <ele>537</ele>
        <time>2016-05-15T07:24:56.000Z</time>
      </trkpt>
      <trkpt lat="44.52871" lon="4.21549">
        <ele>537</ele>
        <time>2016-05-15T07:24:57.000Z</time>
      </trkpt>
      <trkpt lat="44.52874" lon="4.2155">
        <ele>537</ele>
        <time>2016-05-15T07:24:58.000Z</time>
      </trkpt>
      <trkpt lat="44.52877" lon="4.21551">
        <ele>537</ele>
        <time>2016-05-15T07:24:59.000Z</time>
      </trkpt>
      <trkpt lat="44.5288" lon="4.21552">
        <ele>537</ele>
        <time>2016-05-15T07:25:00.000Z</time>
      </trkpt>
      <trkpt lat="44.52883" lon="4.21553">
        <ele>537</ele>
        <time>2016-05-15T07:25:01.000Z</time>
      </trkpt>
      <trkpt lat="44.52885" lon="4.21555">
        <ele>537</ele>
        <time>2016-05-15T07:25:02.000Z</time>
      </trkpt>
      <trkpt lat="44.52888" lon="4.21557">
        <ele>536</ele>
        <time>2016-05-15T07:25:03.000Z</time>
      </trkpt>
      <trkpt lat="44.52891" lon="4.21558">
        <ele>536</ele>
        <time>2016-05-15T07:25:04.000Z</time>
      </trkpt>
      <trkpt lat="44.52894" lon="4.2156">
        <ele>536</ele>
        <time>2016-05-15T07:25:05.000Z</time>
      </trkpt>
      <trkpt lat="44.52897" lon="4.21562">
        <ele>536</ele>
        <time>2016-05-15T07:25:06.000Z</time>
      </trkpt>
      <trkpt lat="44.529" lon="4.21564">
        <ele>536</ele>
        <time>2016-05-15T07:25:07.000Z</time>
      </trkpt>
      <trkpt lat="44.52903" lon="4.21567">
        <ele>536</ele>
        <time>2016-05-15T07:25:08.000Z</time>
      </trkpt>
      <trkpt lat="44.52906" lon="4.21569">
        <ele>536</ele>
        <time>2016-05-15T07:25:09.000Z</time>
      </trkpt>
      <trkpt lat="44.52909" lon="4.21572">
        <ele>536</ele>
        <time>2016-05-15T07:25:10.000Z</time>
      </trkpt>
      <trkpt lat="44.52911" lon="4.21574">
        <ele>536</ele>
        <time>2016-05-15T07:25:11.000Z</time>
      </trkpt>
      <trkpt lat="44.52914" lon="4.21578">
        <ele>536</ele>
        <time>2016-05-15T07:25:12.000Z</time>
      </trkpt>
      <trkpt lat="44.52916" lon="4.21582">
        <ele>536</ele>
        <time>2016-05-15T07:25:13.000Z</time>
      </trkpt>
      <trkpt lat="44.52918" lon="4.21585">
        <ele>536</ele>
        <time>2016-05-15T07:25:14.000Z</time>
      </trkpt>
      <trkpt lat="44.5292" lon="4.21589">
        <ele>535</ele>
        <time>2016-05-15T07:25:15.000Z</time>
      </trkpt>
      <trkpt lat="44.52922" lon="4.21594">
        <ele>535</ele>
        <time>2016-05-15T07:25:16.000Z</time>
      </trkpt>
      <trkpt lat="44.52924" lon="4.21598">
        <ele>535</ele>
        <time>2016-05-15T07:25:17.000Z</time>
      </trkpt>
      <trkpt lat="44.52927" lon="4.21602">
        <ele>535</ele>
        <time>2016-05-15T07:25:18.000Z</time>
      </trkpt>
      <trkpt lat="44.52929" lon="4.21606">
        <ele>534</ele>
        <time>2016-05-15T07:25:19.000Z</time>
      </trkpt>
      <trkpt lat="44.52931" lon="4.2161">
        <ele>534</ele>
        <time>2016-05-15T07:25:20.000Z</time>
      </trkpt>
      <trkpt lat="44.52934" lon="4.21614">
        <ele>534</ele>
        <time>2016-05-15T07:25:21.000Z</time>
      </trkpt>
      <trkpt lat="44.52936" lon="4.21617">
        <ele>534</ele>
        <time>2016-05-15T07:25:22.000Z</time>
      </trkpt>
      <trkpt lat="44.52939" lon="4.2162">
        <ele>534</ele>
        <time>2016-05-15T07:25:23.000Z</time>
      </trkpt>
      <trkpt lat="44.52942" lon="4.21623">
        <ele>534</ele>
        <time>2016-05-15T07:25:24.000Z</time>
      </trkpt>
      <trkpt lat="44.52945" lon="4.21627">
        <ele>534</ele>
        <time>2016-05-15T07:25:25.000Z</time>
      </trkpt>
      <trkpt lat="44.52948" lon="4.2163">
        <ele>534</ele>
        <time>2016-05-15T07:25:26.000Z</time>
      </trkpt>
      <trkpt lat="44.52951" lon="4.21633">
        <ele>534</ele>
        <time>2016-05-15T07:25:27.000Z</time>
      </trkpt>
      <trkpt lat="44.52953" lon="4.21636">
        <ele>534</ele>
        <time>2016-05-15T07:25:28.000Z</time>
      </trkpt>
      <trkpt lat="44.52956" lon="4.21639">
        <ele>534</ele>
        <time>2016-05-15T07:25:29.000Z</time>
      </trkpt>
      <trkpt lat="44.52958" lon="4.21641">
        <ele>534</ele>
        <time>2016-05-15T07:25:30.000Z</time>
      </trkpt>
      <trkpt lat="44.5296" lon="4.21643">
        <ele>534</ele>
        <time>2016-05-15T07:25:31.000Z</time>
      </trkpt>
      <trkpt lat="44.52962" lon="4.21645">
        <ele>534</ele>
        <time>2016-05-15T07:25:32.000Z</time>
      </trkpt>
      <trkpt lat="44.52965" lon="4.21647">
        <ele>534</ele>
        <time>2016-05-15T07:25:33.000Z</time>
      </trkpt>
      <trkpt lat="44.52967" lon="4.21651">
        <ele>534</ele>
        <time>2016-05-15T07:25:34.000Z</time>
      </trkpt>
      <trkpt lat="44.52969" lon="4.21653">
        <ele>534</ele>
        <time>2016-05-15T07:25:35.000Z</time>
      </trkpt>
      <trkpt lat="44.52972" lon="4.21656">
        <ele>534</ele>
        <time>2016-05-15T07:25:36.000Z</time>
      </trkpt>
      <trkpt lat="44.52974" lon="4.21658">
        <ele>534</ele>
        <time>2016-05-15T07:25:37.000Z</time>
      </trkpt>
      <trkpt lat="44.52977" lon="4.21659">
        <ele>534</ele>
        <time>2016-05-15T07:25:38.000Z</time>
      </trkpt>
      <trkpt lat="44.5298" lon="4.21661">
        <ele>534</ele>
        <time>2016-05-15T07:25:39.000Z</time>
      </trkpt>
      <trkpt lat="44.52983" lon="4.21664">
        <ele>534</ele>
        <time>2016-05-15T07:25:40.000Z</time>
      </trkpt>
      <trkpt lat="44.52985" lon="4.21668">
        <ele>535</ele>
        <time>2016-05-15T07:25:41.000Z</time>
      </trkpt>
      <trkpt lat="44.52988" lon="4.21671">
        <ele>535</ele>
        <time>2016-05-15T07:25:42.000Z</time>
      </trkpt>
      <trkpt lat="44.5299" lon="4.21675">
        <ele>535</ele>
        <time>2016-05-15T07:25:43.000Z</time>
      </trkpt>
      <trkpt lat="44.52992" lon="4.2168">
        <ele>535</ele>
        <time>2016-05-15T07:25:44.000Z</time>
      </trkpt>
      <trkpt lat="44.52993" lon="4.21684">
        <ele>535</ele>
        <time>2016-05-15T07:25:45.000Z</time>
      </trkpt>
      <trkpt lat="44.52994" lon="4.21689">
        <ele>535</ele>
        <time>2016-05-15T07:25:46.000Z</time>
      </trkpt>
      <trkpt lat="44.52995" lon="4.21694">
        <ele>535</ele>
        <time>2016-05-15T07:25:47.000Z</time>
      </trkpt>
      <trkpt lat="44.52996" lon="4.21698">
        <ele>535</ele>
        <time>2016-05-15T07:25:48.000Z</time>
      </trkpt>
      <trkpt lat="44.52996" lon="4.21703">
        <ele>535</ele>
        <time>2016-05-15T07:25:49.000Z</time>
      </trkpt>
      <trkpt lat="44.52997" lon="4.21708">
        <ele>535</ele>
        <time>2016-05-15T07:25:50.000Z</time>
      </trkpt>
      <trkpt lat="44.52997" lon="4.21713">
        <ele>535</ele>
        <time>2016-05-15T07:25:51.000Z</time>
      </trkpt>
      <trkpt lat="44.52997" lon="4.21718">
        <ele>535</ele>
        <time>2016-05-15T07:25:52.000Z</time>
      </trkpt>
      <trkpt lat="44.52997" lon="4.21722">
        <ele>535</ele>
        <time>2016-05-15T07:25:53.000Z</time>
      </trkpt>
      <trkpt lat="44.52997" lon="4.21726">
        <ele>535</ele>
        <time>2016-05-15T07:25:54.000Z</time>
      </trkpt>
      <trkpt lat="44.52996" lon="4.21731">
        <ele>535</ele>
        <time>2016-05-15T07:25:55.000Z</time>
      </trkpt>
      <trkpt lat="44.52995" lon="4.21736">
        <ele>535</ele>
        <time>2016-05-15T07:25:56.000Z</time>
      </trkpt>
      <trkpt lat="44.52995" lon="4.21742">
        <ele>535</ele>
        <time>2016-05-15T07:25:57.000Z</time>
      </trkpt>
      <trkpt lat="44.52996" lon="4.21747">
        <ele>536</ele>
        <time>2016-05-15T07:25:58.000Z</time>
      </trkpt>
      <trkpt lat="44.52999" lon="4.21752">
        <ele>536</ele>
        <time>2016-05-15T07:25:59.000Z</time>
      </trkpt>
      <trkpt lat="44.53002" lon="4.21754">
        <ele>536</ele>
        <time>2016-05-15T07:26:00.000Z</time>
      </trkpt>
      <trkpt lat="44.53005" lon="4.21755">
        <ele>536</ele>
        <time>2016-05-15T07:26:01.000Z</time>
      </trkpt>
      <trkpt lat="44.53009" lon="4.21756">
        <ele>535</ele>
        <time>2016-05-15T07:26:02.000Z</time>
      </trkpt>
      <trkpt lat="44.53013" lon="4.21758">
        <ele>535</ele>
        <time>2016-05-15T07:26:03.000Z</time>
      </trkpt>
      <trkpt lat="44.53016" lon="4.21761">
        <ele>535</ele>
        <time>2016-05-15T07:26:04.000Z</time>
      </trkpt>
      <trkpt lat="44.5302" lon="4.21764">
        <ele>535</ele>
        <time>2016-05-15T07:26:05.000Z</time>
      </trkpt>
      <trkpt lat="44.53023" lon="4.21768">
        <ele>535</ele>
        <time>2016-05-15T07:26:06.000Z</time>
      </trkpt>
      <trkpt lat="44.53027" lon="4.21771">
        <ele>535</ele>
        <time>2016-05-15T07:26:07.000Z</time>
      </trkpt>
      <trkpt lat="44.5303" lon="4.21775">
        <ele>535</ele>
        <time>2016-05-15T07:26:08.000Z</time>
      </trkpt>
      <trkpt lat="44.53033" lon="4.21779">
        <ele>535</ele>
        <time>2016-05-15T07:26:09.000Z</time>
      </trkpt>
      <trkpt lat="44.53036" lon="4.21783">
        <ele>535</ele>
        <time>2016-05-15T07:26:10.000Z</time>
      </trkpt>
      <trkpt lat="44.53039" lon="4.21788">
        <ele>535</ele>
        <time>2016-05-15T07:26:11.000Z</time>
      </trkpt>
      <trkpt lat="44.53042" lon="4.21792">
        <ele>535</ele>
        <time>2016-05-15T07:26:12.000Z</time>
      </trkpt>
      <trkpt lat="44.53044" lon="4.21795">
        <ele>535</ele>
        <time>2016-05-15T07:26:13.000Z</time>
      </trkpt>
      <trkpt lat="44.53046" lon="4.21798">
        <ele>535</ele>
        <time>2016-05-15T07:26:14.000Z</time>
      </trkpt>
      <trkpt lat="44.53048" lon="4.218">
        <ele>535</ele>
        <time>2016-05-15T07:26:15.000Z</time>
      </trkpt>
      <trkpt lat="44.53049" lon="4.21804">
        <ele>535</ele>
        <time>2016-05-15T07:26:16.000Z</time>
      </trkpt>
      <trkpt lat="44.5305" lon="4.21808">
        <ele>535</ele>
        <time>2016-05-15T07:26:17.000Z</time>
      </trkpt>
      <trkpt lat="44.53052" lon="4.21811">
        <ele>535</ele>
        <time>2016-05-15T07:26:18.000Z</time>
      </trkpt>
      <trkpt lat="44.53055" lon="4.21815">
        <ele>535</ele>
        <time>2016-05-15T07:26:19.000Z</time>
      </trkpt>
      <trkpt lat="44.53058" lon="4.21818">
        <ele>535</ele>
        <time>2016-05-15T07:26:20.000Z</time>
      </trkpt>
      <trkpt lat="44.5306" lon="4.21821">
        <ele>535</ele>
        <time>2016-05-15T07:26:21.000Z</time>
      </trkpt>
      <trkpt lat="44.53063" lon="4.21824">
        <ele>535</ele>
        <time>2016-05-15T07:26:22.000Z</time>
      </trkpt>
      <trkpt lat="44.53065" lon="4.21827">
        <ele>535</ele>
        <time>2016-05-15T07:26:23.000Z</time>
      </trkpt>
      <trkpt lat="44.53067" lon="4.2183">
        <ele>535</ele>
        <time>2016-05-15T07:26:24.000Z</time>
      </trkpt>
      <trkpt lat="44.53069" lon="4.21833">
        <ele>535</ele>
        <time>2016-05-15T07:26:25.000Z</time>
      </trkpt>
      <trkpt lat="44.5307" lon="4.21836">
        <ele>536</ele>
        <time>2016-05-15T07:26:26.000Z</time>
      </trkpt>
      <trkpt lat="44.53072" lon="4.21839">
        <ele>536</ele>
        <time>2016-05-15T07:26:27.000Z</time>
      </trkpt>
      <trkpt lat="44.53074" lon="4.2184">
        <ele>536</ele>
        <time>2016-05-15T07:26:28.000Z</time>
      </trkpt>
      <trkpt lat="44.53076" lon="4.21842">
        <ele>536</ele>
        <time>2016-05-15T07:26:29.000Z</time>
      </trkpt>
      <trkpt lat="44.53078" lon="4.21845">
        <ele>536</ele>
        <time>2016-05-15T07:26:30.000Z</time>
      </trkpt>
      <trkpt lat="44.53079" lon="4.21848">
        <ele>536</ele>
        <time>2016-05-15T07:26:31.000Z</time>
      </trkpt>
      <trkpt lat="44.53081" lon="4.21852">
        <ele>536</ele>
        <time>2016-05-15T07:26:32.000Z</time>
      </trkpt>
      <trkpt lat="44.53083" lon="4.21855">
        <ele>536</ele>
        <time>2016-05-15T07:26:33.000Z</time>
      </trkpt>
      <trkpt lat="44.53085" lon="4.21858">
        <ele>535</ele>
        <time>2016-05-15T07:26:34.000Z</time>
      </trkpt>
      <trkpt lat="44.53087" lon="4.2186">
        <ele>535</ele>
        <time>2016-05-15T07:26:35.000Z</time>
      </trkpt>
      <trkpt lat="44.53089" lon="4.21862">
        <ele>535</ele>
        <time>2016-05-15T07:26:36.000Z</time>
      </trkpt>
      <trkpt lat="44.53091" lon="4.21865">
        <ele>535</ele>
        <time>2016-05-15T07:26:37.000Z</time>
      </trkpt>
      <trkpt lat="44.53093" lon="4.21867">
        <ele>535</ele>
        <time>2016-05-15T07:26:38.000Z</time>
      </trkpt>
      <trkpt lat="44.53095" lon="4.2187">
        <ele>535</ele>
        <time>2016-05-15T07:26:39.000Z</time>
      </trkpt>
      <trkpt lat="44.53096" lon="4.21873">
        <ele>535</ele>
        <time>2016-05-15T07:26:40.000Z</time>
      </trkpt>
      <trkpt lat="44.53097" lon="4.21876">
        <ele>535</ele>
        <time>2016-05-15T07:26:41.000Z</time>
      </trkpt>
      <trkpt lat="44.53099" lon="4.21878">
        <ele>535</ele>
        <time>2016-05-15T07:26:42.000Z</time>
      </trkpt>
      <trkpt lat="44.53101" lon="4.21879">
        <ele>535</ele>
        <time>2016-05-15T07:26:43.000Z</time>
      </trkpt>
      <trkpt lat="44.53103" lon="4.2188">
        <ele>535</ele>
        <time>2016-05-15T07:26:44.000Z</time>
      </trkpt>
      <trkpt lat="44.53106" lon="4.21881">
        <ele>535</ele>
        <time>2016-05-15T07:26:45.000Z</time>
      </trkpt>
      <trkpt lat="44.53108" lon="4.21883">
        <ele>535</ele>
        <time>2016-05-15T07:26:46.000Z</time>
      </trkpt>
      <trkpt lat="44.53109" lon="4.21885">
        <ele>535</ele>
        <time>2016-05-15T07:26:47.000Z</time>
      </trkpt>
      <trkpt lat="44.53112" lon="4.21887">
        <ele>535</ele>
        <time>2016-05-15T07:26:48.000Z</time>
      </trkpt>
      <trkpt lat="44.53114" lon="4.21889">
        <ele>535</ele>
        <time>2016-05-15T07:26:49.000Z</time>
      </trkpt>
      <trkpt lat="44.53116" lon="4.21891">
        <ele>535</ele>
        <time>2016-05-15T07:26:50.000Z</time>
      </trkpt>
      <trkpt lat="44.53118" lon="4.21893">
        <ele>535</ele>
        <time>2016-05-15T07:26:51.000Z</time>
      </trkpt>
      <trkpt lat="44.5312" lon="4.21896">
        <ele>535</ele>
        <time>2016-05-15T07:26:52.000Z</time>
      </trkpt>
      <trkpt lat="44.53121" lon="4.21897">
        <ele>535</ele>
        <time>2016-05-15T07:26:53.000Z</time>
      </trkpt>
      <trkpt lat="44.53122" lon="4.21898">
        <ele>535</ele>
        <time>2016-05-15T07:26:54.000Z</time>
      </trkpt>
      <trkpt lat="44.53122" lon="4.219">
        <ele>535</ele>
        <time>2016-05-15T07:26:55.000Z</time>
      </trkpt>
      <trkpt lat="44.53123" lon="4.21901">
        <ele>535</ele>
        <time>2016-05-15T07:26:56.000Z</time>
      </trkpt>
      <trkpt lat="44.53124" lon="4.21903">
        <ele>535</ele>
        <time>2016-05-15T07:26:57.000Z</time>
      </trkpt>
      <trkpt lat="44.53125" lon="4.21904">
        <ele>535</ele>
        <time>2016-05-15T07:26:58.000Z</time>
      </trkpt>
      <trkpt lat="44.53126" lon="4.21905">
        <ele>535</ele>
        <time>2016-05-15T07:26:59.000Z</time>
      </trkpt>
      <trkpt lat="44.53126" lon="4.21905">
        <ele>535</ele>
        <time>2016-05-15T07:27:00.000Z</time>
      </trkpt>
      <trkpt lat="44.53127" lon="4.21906">
        <ele>535</ele>
        <time>2016-05-15T07:27:01.000Z</time>
      </trkpt>
      <trkpt lat="44.53129" lon="4.21906">
        <ele>535</ele>
        <time>2016-05-15T07:27:02.000Z</time>
      </trkpt>
      <trkpt lat="44.5313" lon="4.21907">
        <ele>535</ele>
        <time>2016-05-15T07:27:03.000Z</time>
      </trkpt>
      <trkpt lat="44.53131" lon="4.21908">
        <ele>535</ele>
        <time>2016-05-15T07:27:04.000Z</time>
      </trkpt>
      <trkpt lat="44.53132" lon="4.21908">
        <ele>535</ele>
        <time>2016-05-15T07:27:05.000Z</time>
      </trkpt>
      <trkpt lat="44.53132" lon="4.21908">
        <ele>535</ele>
        <time>2016-05-15T07:27:06.000Z</time>
      </trkpt>
      <trkpt lat="44.53132" lon="4.21908">
        <ele>535</ele>
        <time>2016-05-15T07:27:07.000Z</time>
      </trkpt>
      <trkpt lat="44.53132" lon="4.21908">
        <ele>535</ele>
        <time>2016-05-15T07:27:08.000Z</time>
      </trkpt>
      <trkpt lat="44.53132" lon="4.21909">
        <ele>535</ele>
        <time>2016-05-15T07:27:09.000Z</time>
      </trkpt>
      <trkpt lat="44.53133" lon="4.21911">
        <ele>535</ele>
        <time>2016-05-15T07:27:10.000Z</time>
      </trkpt>
      <trkpt lat="44.53134" lon="4.21912">
        <ele>535</ele>
        <time>2016-05-15T07:27:11.000Z</time>
      </trkpt>
      <trkpt lat="44.53135" lon="4.21912">
        <ele>535</ele>
        <time>2016-05-15T07:27:12.000Z</time>
      </trkpt>
      <trkpt lat="44.53135" lon="4.21912">
        <ele>535</ele>
        <time>2016-05-15T07:27:13.000Z</time>
      </trkpt>
      <trkpt lat="44.53135" lon="4.21912">
        <ele>535</ele>
        <time>2016-05-15T07:27:14.000Z</time>
      </trkpt>
      <trkpt lat="44.53136" lon="4.21913">
        <ele>535</ele>
        <time>2016-05-15T07:27:15.000Z</time>
      </trkpt>
      <trkpt lat="44.53136" lon="4.21914">
        <ele>535</ele>
        <time>2016-05-15T07:27:16.000Z</time>
      </trkpt>
      <trkpt lat="44.53136" lon="4.21915">
        <ele>535</ele>
        <time>2016-05-15T07:27:17.000Z</time>
      </trkpt>
      <trkpt lat="44.53136" lon="4.21916">
        <ele>535</ele>
        <time>2016-05-15T07:27:18.000Z</time>
      </trkpt>
      <trkpt lat="44.53136" lon="4.21917">
        <ele>537</ele>
        <time>2016-05-15T07:27:19.000Z</time>
      </trkpt>
      <trkpt lat="44.53136" lon="4.21918">
        <ele>537</ele>
        <time>2016-05-15T07:27:20.000Z</time>
      </trkpt>
      <trkpt lat="44.53137" lon="4.21919">
        <ele>537</ele>
        <time>2016-05-15T07:27:21.000Z</time>
      </trkpt>
      <trkpt lat="44.53137" lon="4.2192">
        <ele>537</ele>
        <time>2016-05-15T07:27:22.000Z</time>
      </trkpt>
      <trkpt lat="44.53137" lon="4.2192">
        <ele>537</ele>
        <time>2016-05-15T07:27:23.000Z</time>
      </trkpt>
      <trkpt lat="44.53137" lon="4.21921">
        <ele>537</ele>
        <time>2016-05-15T07:27:24.000Z</time>
      </trkpt>
      <trkpt lat="44.53137" lon="4.21921">
        <ele>537</ele>
        <time>2016-05-15T07:27:25.000Z</time>
      </trkpt>
      <trkpt lat="44.53137" lon="4.21922">
        <ele>537</ele>
        <time>2016-05-15T07:27:26.000Z</time>
      </trkpt>
      <trkpt lat="44.53137" lon="4.21923">
        <ele>537</ele>
        <time>2016-05-15T07:27:27.000Z</time>
      </trkpt>
      <trkpt lat="44.53138" lon="4.21926">
        <ele>537</ele>
        <time>2016-05-15T07:27:28.000Z</time>
      </trkpt>
      <trkpt lat="44.53139" lon="4.21928">
        <ele>537</ele>
        <time>2016-05-15T07:27:29.000Z</time>
      </trkpt>
      <trkpt lat="44.53139" lon="4.21931">
        <ele>537</ele>
        <time>2016-05-15T07:27:30.000Z</time>
      </trkpt>
      <trkpt lat="44.5314" lon="4.21934">
        <ele>537</ele>
        <time>2016-05-15T07:27:31.000Z</time>
      </trkpt>
      <trkpt lat="44.53141" lon="4.21937">
        <ele>537</ele>
        <time>2016-05-15T07:27:32.000Z</time>
      </trkpt>
      <trkpt lat="44.53141" lon="4.21941">
        <ele>537</ele>
        <time>2016-05-15T07:27:33.000Z</time>
      </trkpt>
      <trkpt lat="44.53141" lon="4.21945">
        <ele>537</ele>
        <time>2016-05-15T07:27:34.000Z</time>
      </trkpt>
      <trkpt lat="44.53142" lon="4.21948">
        <ele>537</ele>
        <time>2016-05-15T07:27:35.000Z</time>
      </trkpt>
      <trkpt lat="44.53144" lon="4.21952">
        <ele>537</ele>
        <time>2016-05-15T07:27:36.000Z</time>
      </trkpt>
      <trkpt lat="44.53145" lon="4.21955">
        <ele>537</ele>
        <time>2016-05-15T07:27:37.000Z</time>
      </trkpt>
      <trkpt lat="44.53147" lon="4.21959">
        <ele>537</ele>
        <time>2016-05-15T07:27:38.000Z</time>
      </trkpt>
      <trkpt lat="44.53149" lon="4.21962">
        <ele>537</ele>
        <time>2016-05-15T07:27:39.000Z</time>
      </trkpt>
      <trkpt lat="44.53151" lon="4.21965">
        <ele>537</ele>
        <time>2016-05-15T07:27:40.000Z</time>
      </trkpt>
      <trkpt lat="44.53154" lon="4.21969">
        <ele>537</ele>
        <time>2016-05-15T07:27:41.000Z</time>
      </trkpt>
      <trkpt lat="44.53156" lon="4.21973">
        <ele>537</ele>
        <time>2016-05-15T07:27:42.000Z</time>
      </trkpt>
      <trkpt lat="44.53158" lon="4.21977">
        <ele>537</ele>
        <time>2016-05-15T07:27:43.000Z</time>
      </trkpt>
      <trkpt lat="44.53161" lon="4.21981">
        <ele>537</ele>
        <time>2016-05-15T07:27:44.000Z</time>
      </trkpt>
      <trkpt lat="44.53164" lon="4.21984">
        <ele>538</ele>
        <time>2016-05-15T07:27:45.000Z</time>
      </trkpt>
      <trkpt lat="44.53167" lon="4.21987">
        <ele>537</ele>
        <time>2016-05-15T07:27:46.000Z</time>
      </trkpt>
      <trkpt lat="44.5317" lon="4.2199">
        <ele>538</ele>
        <time>2016-05-15T07:27:47.000Z</time>
      </trkpt>
      <trkpt lat="44.53173" lon="4.21993">
        <ele>538</ele>
        <time>2016-05-15T07:27:48.000Z</time>
      </trkpt>
      <trkpt lat="44.53177" lon="4.21996">
        <ele>538</ele>
        <time>2016-05-15T07:27:49.000Z</time>
      </trkpt>
      <trkpt lat="44.53181" lon="4.21999">
        <ele>537</ele>
        <time>2016-05-15T07:27:50.000Z</time>
      </trkpt>
      <trkpt lat="44.53185" lon="4.22001">
        <ele>537</ele>
        <time>2016-05-15T07:27:51.000Z</time>
      </trkpt>
      <trkpt lat="44.5319" lon="4.22004">
        <ele>537</ele>
        <time>2016-05-15T07:27:52.000Z</time>
      </trkpt>
      <trkpt lat="44.53194" lon="4.22007">
        <ele>537</ele>
        <time>2016-05-15T07:27:53.000Z</time>
      </trkpt>
      <trkpt lat="44.53198" lon="4.2201">
        <ele>537</ele>
        <time>2016-05-15T07:27:54.000Z</time>
      </trkpt>
      <trkpt lat="44.53202" lon="4.22013">
        <ele>536</ele>
        <time>2016-05-15T07:27:55.000Z</time>
      </trkpt>
      <trkpt lat="44.53206" lon="4.22015">
        <ele>536</ele>
        <time>2016-05-15T07:27:56.000Z</time>
      </trkpt>
      <trkpt lat="44.5321" lon="4.22017">
        <ele>536</ele>
        <time>2016-05-15T07:27:57.000Z</time>
      </trkpt>
      <trkpt lat="44.53214" lon="4.22019">
        <ele>536</ele>
        <time>2016-05-15T07:27:58.000Z</time>
      </trkpt>
      <trkpt lat="44.53218" lon="4.22022">
        <ele>536</ele>
        <time>2016-05-15T07:27:59.000Z</time>
      </trkpt>
      <trkpt lat="44.53222" lon="4.22025">
        <ele>536</ele>
        <time>2016-05-15T07:28:00.000Z</time>
      </trkpt>
      <trkpt lat="44.53226" lon="4.22028">
        <ele>536</ele>
        <time>2016-05-15T07:28:01.000Z</time>
      </trkpt>
      <trkpt lat="44.5323" lon="4.22031">
        <ele>536</ele>
        <time>2016-05-15T07:28:02.000Z</time>
      </trkpt>
      <trkpt lat="44.53234" lon="4.22034">
        <ele>535</ele>
        <time>2016-05-15T07:28:03.000Z</time>
      </trkpt>
      <trkpt lat="44.53238" lon="4.22037">
        <ele>535</ele>
        <time>2016-05-15T07:28:04.000Z</time>
      </trkpt>
      <trkpt lat="44.53242" lon="4.2204">
        <ele>535</ele>
        <time>2016-05-15T07:28:05.000Z</time>
      </trkpt>
      <trkpt lat="44.53246" lon="4.22043">
        <ele>535</ele>
        <time>2016-05-15T07:28:06.000Z</time>
      </trkpt>
      <trkpt lat="44.53249" lon="4.22047">
        <ele>535</ele>
        <time>2016-05-15T07:28:07.000Z</time>
      </trkpt>
      <trkpt lat="44.53253" lon="4.2205">
        <ele>534</ele>
        <time>2016-05-15T07:28:08.000Z</time>
      </trkpt>
      <trkpt lat="44.53257" lon="4.22053">
        <ele>534</ele>
        <time>2016-05-15T07:28:09.000Z</time>
      </trkpt>
      <trkpt lat="44.53261" lon="4.22056">
        <ele>534</ele>
        <time>2016-05-15T07:28:10.000Z</time>
      </trkpt>
      <trkpt lat="44.53265" lon="4.22057">
        <ele>534</ele>
        <time>2016-05-15T07:28:11.000Z</time>
      </trkpt>
      <trkpt lat="44.53269" lon="4.22058">
        <ele>534</ele>
        <time>2016-05-15T07:28:12.000Z</time>
      </trkpt>
      <trkpt lat="44.53274" lon="4.22059">
        <ele>534</ele>
        <time>2016-05-15T07:28:13.000Z</time>
      </trkpt>
      <trkpt lat="44.53278" lon="4.2206">
        <ele>534</ele>
        <time>2016-05-15T07:28:14.000Z</time>
      </trkpt>
      <trkpt lat="44.53282" lon="4.22061">
        <ele>534</ele>
        <time>2016-05-15T07:28:15.000Z</time>
      </trkpt>
      <trkpt lat="44.53286" lon="4.22062">
        <ele>534</ele>
        <time>2016-05-15T07:28:16.000Z</time>
      </trkpt>
      <trkpt lat="44.5329" lon="4.22063">
        <ele>534</ele>
        <time>2016-05-15T07:28:17.000Z</time>
      </trkpt>
      <trkpt lat="44.53294" lon="4.22064">
        <ele>534</ele>
        <time>2016-05-15T07:28:18.000Z</time>
      </trkpt>
      <trkpt lat="44.53299" lon="4.22064">
        <ele>534</ele>
        <time>2016-05-15T07:28:19.000Z</time>
      </trkpt>
      <trkpt lat="44.53303" lon="4.22066">
        <ele>534</ele>
        <time>2016-05-15T07:28:20.000Z</time>
      </trkpt>
      <trkpt lat="44.53307" lon="4.22067">
        <ele>534</ele>
        <time>2016-05-15T07:28:21.000Z</time>
      </trkpt>
      <trkpt lat="44.53311" lon="4.22068">
        <ele>534</ele>
        <time>2016-05-15T07:28:22.000Z</time>
      </trkpt>
      <trkpt lat="44.53314" lon="4.2207">
        <ele>534</ele>
        <time>2016-05-15T07:28:23.000Z</time>
      </trkpt>
      <trkpt lat="44.53318" lon="4.22071">
        <ele>534</ele>
        <time>2016-05-15T07:28:24.000Z</time>
      </trkpt>
      <trkpt lat="44.53321" lon="4.22072">
        <ele>534</ele>
        <time>2016-05-15T07:28:25.000Z</time>
      </trkpt>
      <trkpt lat="44.53325" lon="4.22073">
        <ele>534</ele>
        <time>2016-05-15T07:28:26.000Z</time>
      </trkpt>
      <trkpt lat="44.53328" lon="4.22075">
        <ele>534</ele>
        <time>2016-05-15T07:28:27.000Z</time>
      </trkpt>
      <trkpt lat="44.53331" lon="4.22076">
        <ele>535</ele>
        <time>2016-05-15T07:28:28.000Z</time>
      </trkpt>
      <trkpt lat="44.53335" lon="4.22078">
        <ele>535</ele>
        <time>2016-05-15T07:28:29.000Z</time>
      </trkpt>
      <trkpt lat="44.53338" lon="4.22079">
        <ele>535</ele>
        <time>2016-05-15T07:28:30.000Z</time>
      </trkpt>
      <trkpt lat="44.53341" lon="4.22081">
        <ele>535</ele>
        <time>2016-05-15T07:28:31.000Z</time>
      </trkpt>
      <trkpt lat="44.53344" lon="4.22082">
        <ele>535</ele>
        <time>2016-05-15T07:28:32.000Z</time>
      </trkpt>
      <trkpt lat="44.53347" lon="4.22084">
        <ele>535</ele>
        <time>2016-05-15T07:28:33.000Z</time>
      </trkpt>
      <trkpt lat="44.5335" lon="4.22085">
        <ele>535</ele>
        <time>2016-05-15T07:28:34.000Z</time>
      </trkpt>
      <trkpt lat="44.53353" lon="4.22087">
        <ele>535</ele>
        <time>2016-05-15T07:28:35.000Z</time>
      </trkpt>
      <trkpt lat="44.53356" lon="4.22089">
        <ele>535</ele>
        <time>2016-05-15T07:28:36.000Z</time>
      </trkpt>
      <trkpt lat="44.53359" lon="4.22091">
        <ele>535</ele>
        <time>2016-05-15T07:28:37.000Z</time>
      </trkpt>
      <trkpt lat="44.53362" lon="4.22092">
        <ele>535</ele>
        <time>2016-05-15T07:28:38.000Z</time>
      </trkpt>
      <trkpt lat="44.53366" lon="4.22094">
        <ele>536</ele>
        <time>2016-05-15T07:28:39.000Z</time>
      </trkpt>
      <trkpt lat="44.53369" lon="4.22095">
        <ele>536</ele>
        <time>2016-05-15T07:28:40.000Z</time>
      </trkpt>
      <trkpt lat="44.53372" lon="4.22097">
        <ele>536</ele>
        <time>2016-05-15T07:28:41.000Z</time>
      </trkpt>
      <trkpt lat="44.53374" lon="4.22099">
        <ele>536</ele>
        <time>2016-05-15T07:28:42.000Z</time>
      </trkpt>
      <trkpt lat="44.53377" lon="4.22101">
        <ele>536</ele>
        <time>2016-05-15T07:28:43.000Z</time>
      </trkpt>
      <trkpt lat="44.53379" lon="4.22104">
        <ele>536</ele>
        <time>2016-05-15T07:28:44.000Z</time>
      </trkpt>
      <trkpt lat="44.53382" lon="4.22105">
        <ele>536</ele>
        <time>2016-05-15T07:28:45.000Z</time>
      </trkpt>
      <trkpt lat="44.53385" lon="4.22107">
        <ele>536</ele>
        <time>2016-05-15T07:28:46.000Z</time>
      </trkpt>
      <trkpt lat="44.53387" lon="4.22109">
        <ele>536</ele>
        <time>2016-05-15T07:28:47.000Z</time>
      </trkpt>
      <trkpt lat="44.5339" lon="4.2211">
        <ele>536</ele>
        <time>2016-05-15T07:28:48.000Z</time>
      </trkpt>
      <trkpt lat="44.53393" lon="4.22111">
        <ele>536</ele>
        <time>2016-05-15T07:28:49.000Z</time>
      </trkpt>
      <trkpt lat="44.53395" lon="4.22113">
        <ele>536</ele>
        <time>2016-05-15T07:28:50.000Z</time>
      </trkpt>
      <trkpt lat="44.53398" lon="4.22114">
        <ele>536</ele>
        <time>2016-05-15T07:28:51.000Z</time>
      </trkpt>
      <trkpt lat="44.534" lon="4.22116">
        <ele>536</ele>
        <time>2016-05-15T07:28:52.000Z</time>
      </trkpt>
      <trkpt lat="44.53403" lon="4.22117">
        <ele>536</ele>
        <time>2016-05-15T07:28:53.000Z</time>
      </trkpt>
      <trkpt lat="44.53406" lon="4.22119">
        <ele>536</ele>
        <time>2016-05-15T07:28:54.000Z</time>
      </trkpt>
      <trkpt lat="44.53408" lon="4.22121">
        <ele>536</ele>
        <time>2016-05-15T07:28:55.000Z</time>
      </trkpt>
      <trkpt lat="44.53411" lon="4.22122">
        <ele>536</ele>
        <time>2016-05-15T07:28:56.000Z</time>
      </trkpt>
      <trkpt lat="44.53414" lon="4.22125">
        <ele>536</ele>
        <time>2016-05-15T07:28:57.000Z</time>
      </trkpt>
      <trkpt lat="44.53416" lon="4.22127">
        <ele>536</ele>
        <time>2016-05-15T07:28:58.000Z</time>
      </trkpt>
      <trkpt lat="44.53419" lon="4.22129">
        <ele>538</ele>
        <time>2016-05-15T07:28:59.000Z</time>
      </trkpt>
      <trkpt lat="44.53422" lon="4.22132">
        <ele>538</ele>
        <time>2016-05-15T07:29:00.000Z</time>
      </trkpt>
      <trkpt lat="44.53425" lon="4.22134">
        <ele>538</ele>
        <time>2016-05-15T07:29:01.000Z</time>
      </trkpt>
      <trkpt lat="44.53427" lon="4.22137">
        <ele>538</ele>
        <time>2016-05-15T07:29:02.000Z</time>
      </trkpt>
      <trkpt lat="44.5343" lon="4.22139">
        <ele>538</ele>
        <time>2016-05-15T07:29:03.000Z</time>
      </trkpt>
      <trkpt lat="44.53433" lon="4.22141">
        <ele>538</ele>
        <time>2016-05-15T07:29:04.000Z</time>
      </trkpt>
      <trkpt lat="44.53436" lon="4.22143">
        <ele>538</ele>
        <time>2016-05-15T07:29:05.000Z</time>
      </trkpt>
      <trkpt lat="44.53439" lon="4.22145">
        <ele>538</ele>
        <time>2016-05-15T07:29:06.000Z</time>
      </trkpt>
      <trkpt lat="44.53442" lon="4.22147">
        <ele>538</ele>
        <time>2016-05-15T07:29:07.000Z</time>
      </trkpt>
      <trkpt lat="44.53444" lon="4.22149">
        <ele>538</ele>
        <time>2016-05-15T07:29:08.000Z</time>
      </trkpt>
      <trkpt lat="44.53447" lon="4.22151">
        <ele>538</ele>
        <time>2016-05-15T07:29:09.000Z</time>
      </trkpt>
      <trkpt lat="44.5345" lon="4.22153">
        <ele>538</ele>
        <time>2016-05-15T07:29:10.000Z</time>
      </trkpt>
      <trkpt lat="44.53453" lon="4.22155">
        <ele>538</ele>
        <time>2016-05-15T07:29:11.000Z</time>
      </trkpt>
      <trkpt lat="44.53455" lon="4.22158">
        <ele>539</ele>
        <time>2016-05-15T07:29:12.000Z</time>
      </trkpt>
      <trkpt lat="44.53458" lon="4.2216">
        <ele>539</ele>
        <time>2016-05-15T07:29:13.000Z</time>
      </trkpt>
      <trkpt lat="44.53461" lon="4.22162">
        <ele>539</ele>
        <time>2016-05-15T07:29:14.000Z</time>
      </trkpt>
      <trkpt lat="44.53464" lon="4.22165">
        <ele>539</ele>
        <time>2016-05-15T07:29:15.000Z</time>
      </trkpt>
      <trkpt lat="44.53466" lon="4.22167">
        <ele>537</ele>
        <time>2016-05-15T07:29:16.000Z</time>
      </trkpt>
      <trkpt lat="44.53469" lon="4.22169">
        <ele>537</ele>
        <time>2016-05-15T07:29:17.000Z</time>
      </trkpt>
      <trkpt lat="44.53472" lon="4.22172">
        <ele>537</ele>
        <time>2016-05-15T07:29:18.000Z</time>
      </trkpt>
      <trkpt lat="44.53475" lon="4.22174">
        <ele>537</ele>
        <time>2016-05-15T07:29:19.000Z</time>
      </trkpt>
      <trkpt lat="44.53477" lon="4.22177">
        <ele>538</ele>
        <time>2016-05-15T07:29:20.000Z</time>
      </trkpt>
      <trkpt lat="44.5348" lon="4.2218">
        <ele>538</ele>
        <time>2016-05-15T07:29:21.000Z</time>
      </trkpt>
      <trkpt lat="44.53483" lon="4.22183">
        <ele>538</ele>
        <time>2016-05-15T07:29:22.000Z</time>
      </trkpt>
      <trkpt lat="44.53485" lon="4.22185">
        <ele>538</ele>
        <time>2016-05-15T07:29:23.000Z</time>
      </trkpt>
      <trkpt lat="44.53488" lon="4.22189">
        <ele>537</ele>
        <time>2016-05-15T07:29:24.000Z</time>
      </trkpt>
      <trkpt lat="44.53491" lon="4.22192">
        <ele>537</ele>
        <time>2016-05-15T07:29:25.000Z</time>
      </trkpt>
      <trkpt lat="44.53494" lon="4.22196">
        <ele>537</ele>
        <time>2016-05-15T07:29:26.000Z</time>
      </trkpt>
      <trkpt lat="44.53497" lon="4.222">
        <ele>537</ele>
        <time>2016-05-15T07:29:27.000Z</time>
      </trkpt>
      <trkpt lat="44.535" lon="4.22204">
        <ele>537</ele>
        <time>2016-05-15T07:29:28.000Z</time>
      </trkpt>
      <trkpt lat="44.53503" lon="4.22208">
        <ele>538</ele>
        <time>2016-05-15T07:29:29.000Z</time>
      </trkpt>
      <trkpt lat="44.53506" lon="4.22212">
        <ele>538</ele>
        <time>2016-05-15T07:29:30.000Z</time>
      </trkpt>
      <trkpt lat="44.53508" lon="4.22216">
        <ele>538</ele>
        <time>2016-05-15T07:29:31.000Z</time>
      </trkpt>
      <trkpt lat="44.53511" lon="4.22221">
        <ele>537</ele>
        <time>2016-05-15T07:29:32.000Z</time>
      </trkpt>
      <trkpt lat="44.53514" lon="4.22225">
        <ele>537</ele>
        <time>2016-05-15T07:29:33.000Z</time>
      </trkpt>
      <trkpt lat="44.53518" lon="4.22229">
        <ele>537</ele>
        <time>2016-05-15T07:29:34.000Z</time>
      </trkpt>
      <trkpt lat="44.53521" lon="4.22233">
        <ele>537</ele>
        <time>2016-05-15T07:29:35.000Z</time>
      </trkpt>
      <trkpt lat="44.53524" lon="4.22237">
        <ele>537</ele>
        <time>2016-05-15T07:29:36.000Z</time>
      </trkpt>
      <trkpt lat="44.53527" lon="4.22241">
        <ele>537</ele>
        <time>2016-05-15T07:29:37.000Z</time>
      </trkpt>
      <trkpt lat="44.5353" lon="4.22245">
        <ele>537</ele>
        <time>2016-05-15T07:29:38.000Z</time>
      </trkpt>
      <trkpt lat="44.53533" lon="4.22249">
        <ele>537</ele>
        <time>2016-05-15T07:29:39.000Z</time>
      </trkpt>
      <trkpt lat="44.53537" lon="4.22252">
        <ele>533</ele>
        <time>2016-05-15T07:29:40.000Z</time>
      </trkpt>
      <trkpt lat="44.53541" lon="4.22255">
        <ele>533</ele>
        <time>2016-05-15T07:29:41.000Z</time>
      </trkpt>
      <trkpt lat="44.53545" lon="4.22258">
        <ele>532</ele>
        <time>2016-05-15T07:29:42.000Z</time>
      </trkpt>
      <trkpt lat="44.5355" lon="4.22261">
        <ele>532</ele>
        <time>2016-05-15T07:29:43.000Z</time>
      </trkpt>
      <trkpt lat="44.53555" lon="4.22265">
        <ele>532</ele>
        <time>2016-05-15T07:29:44.000Z</time>
      </trkpt>
      <trkpt lat="44.5356" lon="4.22268">
        <ele>532</ele>
        <time>2016-05-15T07:29:45.000Z</time>
      </trkpt>
      <trkpt lat="44.53565" lon="4.22272">
        <ele>532</ele>
        <time>2016-05-15T07:29:46.000Z</time>
      </trkpt>
      <trkpt lat="44.53571" lon="4.22276">
        <ele>532</ele>
        <time>2016-05-15T07:29:47.000Z</time>
      </trkpt>
      <trkpt lat="44.53576" lon="4.22281">
        <ele>532</ele>
        <time>2016-05-15T07:29:48.000Z</time>
      </trkpt>
      <trkpt lat="44.53581" lon="4.22286">
        <ele>532</ele>
        <time>2016-05-15T07:29:49.000Z</time>
      </trkpt>
      <trkpt lat="44.53586" lon="4.22291">
        <ele>533</ele>
        <time>2016-05-15T07:29:50.000Z</time>
      </trkpt>
      <trkpt lat="44.53591" lon="4.22298">
        <ele>533</ele>
        <time>2016-05-15T07:29:51.000Z</time>
      </trkpt>
      <trkpt lat="44.53596" lon="4.22304">
        <ele>532</ele>
        <time>2016-05-15T07:29:52.000Z</time>
      </trkpt>
      <trkpt lat="44.53601" lon="4.22311">
        <ele>532</ele>
        <time>2016-05-15T07:29:53.000Z</time>
      </trkpt>
      <trkpt lat="44.53606" lon="4.22318">
        <ele>532</ele>
        <time>2016-05-15T07:29:54.000Z</time>
      </trkpt>
      <trkpt lat="44.53611" lon="4.22325">
        <ele>532</ele>
        <time>2016-05-15T07:29:55.000Z</time>
      </trkpt>
      <trkpt lat="44.53616" lon="4.22333">
        <ele>532</ele>
        <time>2016-05-15T07:29:56.000Z</time>
      </trkpt>
      <trkpt lat="44.53621" lon="4.2234">
        <ele>529</ele>
        <time>2016-05-15T07:29:57.000Z</time>
      </trkpt>
      <trkpt lat="44.53626" lon="4.22348">
        <ele>529</ele>
        <time>2016-05-15T07:29:58.000Z</time>
      </trkpt>
      <trkpt lat="44.5363" lon="4.22356">
        <ele>529</ele>
        <time>2016-05-15T07:29:59.000Z</time>
      </trkpt>
      <trkpt lat="44.53635" lon="4.22364">
        <ele>529</ele>
        <time>2016-05-15T07:30:00.000Z</time>
      </trkpt>
      <trkpt lat="44.5364" lon="4.22371">
        <ele>529</ele>
        <time>2016-05-15T07:30:01.000Z</time>
      </trkpt>
      <trkpt lat="44.53644" lon="4.22379">
        <ele>529</ele>
        <time>2016-05-15T07:30:02.000Z</time>
      </trkpt>
      <trkpt lat="44.53649" lon="4.22387">
        <ele>529</ele>
        <time>2016-05-15T07:30:03.000Z</time>
      </trkpt>
      <trkpt lat="44.53653" lon="4.22394">
        <ele>529</ele>
        <time>2016-05-15T07:30:04.000Z</time>
      </trkpt>
      <trkpt lat="44.53657" lon="4.22402">
        <ele>529</ele>
        <time>2016-05-15T07:30:05.000Z</time>
      </trkpt>
      <trkpt lat="44.5366" lon="4.22409">
        <ele>529</ele>
        <time>2016-05-15T07:30:06.000Z</time>
      </trkpt>
      <trkpt lat="44.53664" lon="4.22416">
        <ele>529</ele>
        <time>2016-05-15T07:30:07.000Z</time>
      </trkpt>
      <trkpt lat="44.53668" lon="4.22423">
        <ele>529</ele>
        <time>2016-05-15T07:30:08.000Z</time>
      </trkpt>
      <trkpt lat="44.53672" lon="4.2243">
        <ele>530</ele>
        <time>2016-05-15T07:30:09.000Z</time>
      </trkpt>
      <trkpt lat="44.53676" lon="4.22437">
        <ele>530</ele>
        <time>2016-05-15T07:30:10.000Z</time>
      </trkpt>
      <trkpt lat="44.53681" lon="4.22443">
        <ele>530</ele>
        <time>2016-05-15T07:30:11.000Z</time>
      </trkpt>
      <trkpt lat="44.53686" lon="4.2245">
        <ele>530</ele>
        <time>2016-05-15T07:30:12.000Z</time>
      </trkpt>
      <trkpt lat="44.5369" lon="4.22456">
        <ele>530</ele>
        <time>2016-05-15T07:30:13.000Z</time>
      </trkpt>
      <trkpt lat="44.53695" lon="4.22463">
        <ele>530</ele>
        <time>2016-05-15T07:30:14.000Z</time>
      </trkpt>
      <trkpt lat="44.53699" lon="4.22469">
        <ele>530</ele>
        <time>2016-05-15T07:30:15.000Z</time>
      </trkpt>
      <trkpt lat="44.53703" lon="4.22475">
        <ele>530</ele>
        <time>2016-05-15T07:30:16.000Z</time>
      </trkpt>
      <trkpt lat="44.53706" lon="4.22482">
        <ele>530</ele>
        <time>2016-05-15T07:30:17.000Z</time>
      </trkpt>
      <trkpt lat="44.53709" lon="4.22488">
        <ele>530</ele>
        <time>2016-05-15T07:30:18.000Z</time>
      </trkpt>
      <trkpt lat="44.53712" lon="4.22495">
        <ele>530</ele>
        <time>2016-05-15T07:30:19.000Z</time>
      </trkpt>
      <trkpt lat="44.53715" lon="4.22502">
        <ele>526</ele>
        <time>2016-05-15T07:30:20.000Z</time>
      </trkpt>
      <trkpt lat="44.53718" lon="4.22509">
        <ele>526</ele>
        <time>2016-05-15T07:30:21.000Z</time>
      </trkpt>
      <trkpt lat="44.5372" lon="4.22515">
        <ele>526</ele>
        <time>2016-05-15T07:30:22.000Z</time>
      </trkpt>
      <trkpt lat="44.53723" lon="4.22522">
        <ele>526</ele>
        <time>2016-05-15T07:30:23.000Z</time>
      </trkpt>
      <trkpt lat="44.53725" lon="4.22529">
        <ele>526</ele>
        <time>2016-05-15T07:30:24.000Z</time>
      </trkpt>
      <trkpt lat="44.53727" lon="4.22536">
        <ele>526</ele>
        <time>2016-05-15T07:30:25.000Z</time>
      </trkpt>
      <trkpt lat="44.53729" lon="4.22543">
        <ele>525</ele>
        <time>2016-05-15T07:30:26.000Z</time>
      </trkpt>
      <trkpt lat="44.53731" lon="4.2255">
        <ele>525</ele>
        <time>2016-05-15T07:30:27.000Z</time>
      </trkpt>
      <trkpt lat="44.53734" lon="4.22557">
        <ele>525</ele>
        <time>2016-05-15T07:30:28.000Z</time>
      </trkpt>
      <trkpt lat="44.53736" lon="4.22564">
        <ele>525</ele>
        <time>2016-05-15T07:30:29.000Z</time>
      </trkpt>
      <trkpt lat="44.53738" lon="4.2257">
        <ele>526</ele>
        <time>2016-05-15T07:30:30.000Z</time>
      </trkpt>
      <trkpt lat="44.5374" lon="4.22577">
        <ele>526</ele>
        <time>2016-05-15T07:30:31.000Z</time>
      </trkpt>
      <trkpt lat="44.53743" lon="4.22583">
        <ele>526</ele>
        <time>2016-05-15T07:30:32.000Z</time>
      </trkpt>
      <trkpt lat="44.53746" lon="4.22588">
        <ele>525</ele>
        <time>2016-05-15T07:30:33.000Z</time>
      </trkpt>
      <trkpt lat="44.53748" lon="4.22594">
        <ele>525</ele>
        <time>2016-05-15T07:30:34.000Z</time>
      </trkpt>
      <trkpt lat="44.5375" lon="4.226">
        <ele>530</ele>
        <time>2016-05-15T07:30:35.000Z</time>
      </trkpt>
      <trkpt lat="44.53753" lon="4.22605">
        <ele>530</ele>
        <time>2016-05-15T07:30:36.000Z</time>
      </trkpt>
      <trkpt lat="44.53755" lon="4.22611">
        <ele>530</ele>
        <time>2016-05-15T07:30:37.000Z</time>
      </trkpt>
      <trkpt lat="44.53758" lon="4.22616">
        <ele>531</ele>
        <time>2016-05-15T07:30:38.000Z</time>
      </trkpt>
      <trkpt lat="44.5376" lon="4.22621">
        <ele>531</ele>
        <time>2016-05-15T07:30:39.000Z</time>
      </trkpt>
      <trkpt lat="44.53763" lon="4.22625">
        <ele>531</ele>
        <time>2016-05-15T07:30:40.000Z</time>
      </trkpt>
      <trkpt lat="44.53765" lon="4.22629">
        <ele>531</ele>
        <time>2016-05-15T07:30:41.000Z</time>
      </trkpt>
      <trkpt lat="44.53767" lon="4.22634">
        <ele>531</ele>
        <time>2016-05-15T07:30:42.000Z</time>
      </trkpt>
      <trkpt lat="44.5377" lon="4.22639">
        <ele>531</ele>
        <time>2016-05-15T07:30:43.000Z</time>
      </trkpt>
      <trkpt lat="44.53772" lon="4.22643">
        <ele>531</ele>
        <time>2016-05-15T07:30:44.000Z</time>
      </trkpt>
      <trkpt lat="44.53774" lon="4.22648">
        <ele>531</ele>
        <time>2016-05-15T07:30:45.000Z</time>
      </trkpt>
      <trkpt lat="44.53777" lon="4.22652">
        <ele>531</ele>
        <time>2016-05-15T07:30:46.000Z</time>
      </trkpt>
      <trkpt lat="44.53779" lon="4.22657">
        <ele>531</ele>
        <time>2016-05-15T07:30:47.000Z</time>
      </trkpt>
      <trkpt lat="44.53781" lon="4.22662">
        <ele>531</ele>
        <time>2016-05-15T07:30:48.000Z</time>
      </trkpt>
      <trkpt lat="44.53783" lon="4.22666">
        <ele>531</ele>
        <time>2016-05-15T07:30:49.000Z</time>
      </trkpt>
      <trkpt lat="44.53785" lon="4.2267">
        <ele>529</ele>
        <time>2016-05-15T07:30:50.000Z</time>
      </trkpt>
      <trkpt lat="44.53787" lon="4.22675">
        <ele>529</ele>
        <time>2016-05-15T07:30:51.000Z</time>
      </trkpt>
      <trkpt lat="44.53789" lon="4.2268">
        <ele>530</ele>
        <time>2016-05-15T07:30:52.000Z</time>
      </trkpt>
      <trkpt lat="44.53791" lon="4.22684">
        <ele>530</ele>
        <time>2016-05-15T07:30:53.000Z</time>
      </trkpt>
      <trkpt lat="44.53793" lon="4.22689">
        <ele>530</ele>
        <time>2016-05-15T07:30:54.000Z</time>
      </trkpt>
      <trkpt lat="44.53795" lon="4.22693">
        <ele>530</ele>
        <time>2016-05-15T07:30:55.000Z</time>
      </trkpt>
      <trkpt lat="44.53797" lon="4.22698">
        <ele>530</ele>
        <time>2016-05-15T07:30:56.000Z</time>
      </trkpt>
      <trkpt lat="44.53799" lon="4.22703">
        <ele>530</ele>
        <time>2016-05-15T07:30:57.000Z</time>
      </trkpt>
      <trkpt lat="44.53801" lon="4.22708">
        <ele>530</ele>
        <time>2016-05-15T07:30:58.000Z</time>
      </trkpt>
      <trkpt lat="44.53803" lon="4.22713">
        <ele>530</ele>
        <time>2016-05-15T07:30:59.000Z</time>
      </trkpt>
      <trkpt lat="44.53805" lon="4.22718">
        <ele>530</ele>
        <time>2016-05-15T07:31:00.000Z</time>
      </trkpt>
      <trkpt lat="44.53807" lon="4.22723">
        <ele>530</ele>
        <time>2016-05-15T07:31:01.000Z</time>
      </trkpt>
      <trkpt lat="44.53808" lon="4.22728">
        <ele>530</ele>
        <time>2016-05-15T07:31:02.000Z</time>
      </trkpt>
      <trkpt lat="44.5381" lon="4.22733">
        <ele>530</ele>
        <time>2016-05-15T07:31:03.000Z</time>
      </trkpt>
      <trkpt lat="44.53812" lon="4.22738">
        <ele>530</ele>
        <time>2016-05-15T07:31:04.000Z</time>
      </trkpt>
      <trkpt lat="44.53814" lon="4.22743">
        <ele>530</ele>
        <time>2016-05-15T07:31:05.000Z</time>
      </trkpt>
      <trkpt lat="44.53816" lon="4.22747">
        <ele>531</ele>
        <time>2016-05-15T07:31:06.000Z</time>
      </trkpt>
      <trkpt lat="44.53818" lon="4.22753">
        <ele>529</ele>
        <time>2016-05-15T07:31:07.000Z</time>
      </trkpt>
      <trkpt lat="44.5382" lon="4.22758">
        <ele>529</ele>
        <time>2016-05-15T07:31:08.000Z</time>
      </trkpt>
      <trkpt lat="44.53822" lon="4.22763">
        <ele>529</ele>
        <time>2016-05-15T07:31:09.000Z</time>
      </trkpt>
      <trkpt lat="44.53824" lon="4.22768">
        <ele>528</ele>
        <time>2016-05-15T07:31:10.000Z</time>
      </trkpt>
      <trkpt lat="44.53826" lon="4.22773">
        <ele>528</ele>
        <time>2016-05-15T07:31:11.000Z</time>
      </trkpt>
      <trkpt lat="44.53828" lon="4.22778">
        <ele>528</ele>
        <time>2016-05-15T07:31:12.000Z</time>
      </trkpt>
      <trkpt lat="44.53828" lon="4.22782">
        <ele>527</ele>
        <time>2016-05-15T07:31:13.000Z</time>
      </trkpt>
      <trkpt lat="44.53826" lon="4.22785">
        <ele>527</ele>
        <time>2016-05-15T07:31:14.000Z</time>
      </trkpt>
      <trkpt lat="44.53824" lon="4.22787">
        <ele>527</ele>
        <time>2016-05-15T07:31:15.000Z</time>
      </trkpt>
      <trkpt lat="44.53821" lon="4.2279">
        <ele>527</ele>
        <time>2016-05-15T07:31:16.000Z</time>
      </trkpt>
      <trkpt lat="44.53818" lon="4.22793">
        <ele>527</ele>
        <time>2016-05-15T07:31:17.000Z</time>
      </trkpt>
      <trkpt lat="44.53814" lon="4.22796">
        <ele>526</ele>
        <time>2016-05-15T07:31:18.000Z</time>
      </trkpt>
      <trkpt lat="44.5381" lon="4.22799">
        <ele>526</ele>
        <time>2016-05-15T07:31:19.000Z</time>
      </trkpt>
      <trkpt lat="44.53805" lon="4.22803">
        <ele>526</ele>
        <time>2016-05-15T07:31:20.000Z</time>
      </trkpt>
      <trkpt lat="44.53799" lon="4.22807">
        <ele>525</ele>
        <time>2016-05-15T07:31:21.000Z</time>
      </trkpt>
      <trkpt lat="44.53793" lon="4.22811">
        <ele>525</ele>
        <time>2016-05-15T07:31:22.000Z</time>
      </trkpt>
      <trkpt lat="44.53787" lon="4.22815">
        <ele>524</ele>
        <time>2016-05-15T07:31:23.000Z</time>
      </trkpt>
      <trkpt lat="44.53781" lon="4.2282">
        <ele>524</ele>
        <time>2016-05-15T07:31:24.000Z</time>
      </trkpt>
      <trkpt lat="44.53774" lon="4.22824">
        <ele>523</ele>
        <time>2016-05-15T07:31:25.000Z</time>
      </trkpt>
      <trkpt lat="44.53768" lon="4.22829">
        <ele>522</ele>
        <time>2016-05-15T07:31:26.000Z</time>
      </trkpt>
      <trkpt lat="44.53762" lon="4.22835">
        <ele>519</ele>
        <time>2016-05-15T07:31:27.000Z</time>
      </trkpt>
      <trkpt lat="44.53755" lon="4.22842">
        <ele>519</ele>
        <time>2016-05-15T07:31:28.000Z</time>
      </trkpt>
      <trkpt lat="44.5375" lon="4.2285">
        <ele>513</ele>
        <time>2016-05-15T07:31:29.000Z</time>
      </trkpt>
      <trkpt lat="44.53746" lon="4.22859">
        <ele>511</ele>
        <time>2016-05-15T07:31:30.000Z</time>
      </trkpt>
      <trkpt lat="44.53742" lon="4.22869">
        <ele>510</ele>
        <time>2016-05-15T07:31:31.000Z</time>
      </trkpt>
      <trkpt lat="44.53739" lon="4.22879">
        <ele>509</ele>
        <time>2016-05-15T07:31:32.000Z</time>
      </trkpt>
      <trkpt lat="44.53735" lon="4.2289">
        <ele>509</ele>
        <time>2016-05-15T07:31:33.000Z</time>
      </trkpt>
      <trkpt lat="44.53732" lon="4.229">
        <ele>509</ele>
        <time>2016-05-15T07:31:34.000Z</time>
      </trkpt>
      <trkpt lat="44.53729" lon="4.22908">
        <ele>509</ele>
        <time>2016-05-15T07:31:35.000Z</time>
      </trkpt>
      <trkpt lat="44.53727" lon="4.22916">
        <ele>508</ele>
        <time>2016-05-15T07:31:36.000Z</time>
      </trkpt>
      <trkpt lat="44.53724" lon="4.22923">
        <ele>505</ele>
        <time>2016-05-15T07:31:37.000Z</time>
      </trkpt>
      <trkpt lat="44.53721" lon="4.2293">
        <ele>504</ele>
        <time>2016-05-15T07:31:38.000Z</time>
      </trkpt>
      <trkpt lat="44.53718" lon="4.22935">
        <ele>503</ele>
        <time>2016-05-15T07:31:39.000Z</time>
      </trkpt>
      <trkpt lat="44.53715" lon="4.22941">
        <ele>502</ele>
        <time>2016-05-15T07:31:40.000Z</time>
      </trkpt>
      <trkpt lat="44.53714" lon="4.22946">
        <ele>502</ele>
        <time>2016-05-15T07:31:41.000Z</time>
      </trkpt>
      <trkpt lat="44.53716" lon="4.22951">
        <ele>502</ele>
        <time>2016-05-15T07:31:42.000Z</time>
      </trkpt>
      <trkpt lat="44.53717" lon="4.22957">
        <ele>502</ele>
        <time>2016-05-15T07:31:43.000Z</time>
      </trkpt>
      <trkpt lat="44.5372" lon="4.22961">
        <ele>502</ele>
        <time>2016-05-15T07:31:44.000Z</time>
      </trkpt>
      <trkpt lat="44.53722" lon="4.22966">
        <ele>503</ele>
        <time>2016-05-15T07:31:45.000Z</time>
      </trkpt>
      <trkpt lat="44.53724" lon="4.22971">
        <ele>503</ele>
        <time>2016-05-15T07:31:46.000Z</time>
      </trkpt>
      <trkpt lat="44.53726" lon="4.22975">
        <ele>503</ele>
        <time>2016-05-15T07:31:47.000Z</time>
      </trkpt>
      <trkpt lat="44.53727" lon="4.22979">
        <ele>503</ele>
        <time>2016-05-15T07:31:48.000Z</time>
      </trkpt>
      <trkpt lat="44.53728" lon="4.22983">
        <ele>503</ele>
        <time>2016-05-15T07:31:49.000Z</time>
      </trkpt>
      <trkpt lat="44.53729" lon="4.22987">
        <ele>504</ele>
        <time>2016-05-15T07:31:50.000Z</time>
      </trkpt>
      <trkpt lat="44.5373" lon="4.22991">
        <ele>504</ele>
        <time>2016-05-15T07:31:51.000Z</time>
      </trkpt>
      <trkpt lat="44.5373" lon="4.22994">
        <ele>504</ele>
        <time>2016-05-15T07:31:52.000Z</time>
      </trkpt>
      <trkpt lat="44.53729" lon="4.22997">
        <ele>504</ele>
        <time>2016-05-15T07:31:53.000Z</time>
      </trkpt>
      <trkpt lat="44.53729" lon="4.23">
        <ele>503</ele>
        <time>2016-05-15T07:31:54.000Z</time>
      </trkpt>
      <trkpt lat="44.53728" lon="4.23003">
        <ele>502</ele>
        <time>2016-05-15T07:31:55.000Z</time>
      </trkpt>
      <trkpt lat="44.53727" lon="4.23006">
        <ele>502</ele>
        <time>2016-05-15T07:31:56.000Z</time>
      </trkpt>
      <trkpt lat="44.53726" lon="4.23008">
        <ele>502</ele>
        <time>2016-05-15T07:31:57.000Z</time>
      </trkpt>
      <trkpt lat="44.53725" lon="4.23011">
        <ele>502</ele>
        <time>2016-05-15T07:31:58.000Z</time>
      </trkpt>
      <trkpt lat="44.53725" lon="4.23013">
        <ele>502</ele>
        <time>2016-05-15T07:31:59.000Z</time>
      </trkpt>
      <trkpt lat="44.53725" lon="4.23015">
        <ele>501</ele>
        <time>2016-05-15T07:32:00.000Z</time>
      </trkpt>
      <trkpt lat="44.53724" lon="4.23016">
        <ele>501</ele>
        <time>2016-05-15T07:32:01.000Z</time>
      </trkpt>
      <trkpt lat="44.53722" lon="4.23018">
        <ele>501</ele>
        <time>2016-05-15T07:32:02.000Z</time>
      </trkpt>
      <trkpt lat="44.5372" lon="4.2302">
        <ele>501</ele>
        <time>2016-05-15T07:32:03.000Z</time>
      </trkpt>
      <trkpt lat="44.53719" lon="4.23022">
        <ele>500</ele>
        <time>2016-05-15T07:32:04.000Z</time>
      </trkpt>
      <trkpt lat="44.53718" lon="4.23024">
        <ele>500</ele>
        <time>2016-05-15T07:32:05.000Z</time>
      </trkpt>
      <trkpt lat="44.53717" lon="4.23026">
        <ele>500</ele>
        <time>2016-05-15T07:32:06.000Z</time>
      </trkpt>
      <trkpt lat="44.53716" lon="4.23029">
        <ele>500</ele>
        <time>2016-05-15T07:32:07.000Z</time>
      </trkpt>
      <trkpt lat="44.53714" lon="4.23032">
        <ele>499</ele>
        <time>2016-05-15T07:32:08.000Z</time>
      </trkpt>
      <trkpt lat="44.53713" lon="4.23036">
        <ele>499</ele>
        <time>2016-05-15T07:32:09.000Z</time>
      </trkpt>
      <trkpt lat="44.53711" lon="4.23039">
        <ele>499</ele>
        <time>2016-05-15T07:32:10.000Z</time>
      </trkpt>
      <trkpt lat="44.53709" lon="4.23041">
        <ele>499</ele>
        <time>2016-05-15T07:32:11.000Z</time>
      </trkpt>
      <trkpt lat="44.53708" lon="4.23044">
        <ele>499</ele>
        <time>2016-05-15T07:32:12.000Z</time>
      </trkpt>
      <trkpt lat="44.53707" lon="4.23046">
        <ele>499</ele>
        <time>2016-05-15T07:32:13.000Z</time>
      </trkpt>
      <trkpt lat="44.53705" lon="4.23049">
        <ele>498</ele>
        <time>2016-05-15T07:32:14.000Z</time>
      </trkpt>
      <trkpt lat="44.53704" lon="4.23052">
        <ele>498</ele>
        <time>2016-05-15T07:32:15.000Z</time>
      </trkpt>
      <trkpt lat="44.53702" lon="4.23054">
        <ele>498</ele>
        <time>2016-05-15T07:32:16.000Z</time>
      </trkpt>
      <trkpt lat="44.53701" lon="4.23057">
        <ele>498</ele>
        <time>2016-05-15T07:32:17.000Z</time>
      </trkpt>
      <trkpt lat="44.53699" lon="4.23059">
        <ele>498</ele>
        <time>2016-05-15T07:32:18.000Z</time>
      </trkpt>
      <trkpt lat="44.53697" lon="4.23062">
        <ele>497</ele>
        <time>2016-05-15T07:32:19.000Z</time>
      </trkpt>
      <trkpt lat="44.53695" lon="4.23064">
        <ele>497</ele>
        <time>2016-05-15T07:32:20.000Z</time>
      </trkpt>
      <trkpt lat="44.53693" lon="4.23066">
        <ele>497</ele>
        <time>2016-05-15T07:32:21.000Z</time>
      </trkpt>
      <trkpt lat="44.53692" lon="4.23068">
        <ele>497</ele>
        <time>2016-05-15T07:32:22.000Z</time>
      </trkpt>
      <trkpt lat="44.5369" lon="4.2307">
        <ele>496</ele>
        <time>2016-05-15T07:32:23.000Z</time>
      </trkpt>
      <trkpt lat="44.53688" lon="4.23073">
        <ele>496</ele>
        <time>2016-05-15T07:32:24.000Z</time>
      </trkpt>
      <trkpt lat="44.53686" lon="4.23076">
        <ele>495</ele>
        <time>2016-05-15T07:32:25.000Z</time>
      </trkpt>
      <trkpt lat="44.53684" lon="4.23079">
        <ele>495</ele>
        <time>2016-05-15T07:32:26.000Z</time>
      </trkpt>
      <trkpt lat="44.53682" lon="4.23082">
        <ele>495</ele>
        <time>2016-05-15T07:32:27.000Z</time>
      </trkpt>
      <trkpt lat="44.5368" lon="4.23084">
        <ele>496</ele>
        <time>2016-05-15T07:32:28.000Z</time>
      </trkpt>
      <trkpt lat="44.53679" lon="4.23087">
        <ele>495</ele>
        <time>2016-05-15T07:32:29.000Z</time>
      </trkpt>
      <trkpt lat="44.53677" lon="4.23089">
        <ele>495</ele>
        <time>2016-05-15T07:32:30.000Z</time>
      </trkpt>
      <trkpt lat="44.53676" lon="4.23092">
        <ele>495</ele>
        <time>2016-05-15T07:32:31.000Z</time>
      </trkpt>
      <trkpt lat="44.53674" lon="4.23095">
        <ele>496</ele>
        <time>2016-05-15T07:32:32.000Z</time>
      </trkpt>
      <trkpt lat="44.53672" lon="4.23098">
        <ele>496</ele>
        <time>2016-05-15T07:32:33.000Z</time>
      </trkpt>
      <trkpt lat="44.53671" lon="4.231">
        <ele>496</ele>
        <time>2016-05-15T07:32:34.000Z</time>
      </trkpt>
      <trkpt lat="44.53669" lon="4.23102">
        <ele>497</ele>
        <time>2016-05-15T07:32:35.000Z</time>
      </trkpt>
      <trkpt lat="44.53667" lon="4.23104">
        <ele>497</ele>
        <time>2016-05-15T07:32:36.000Z</time>
      </trkpt>
      <trkpt lat="44.53666" lon="4.23107">
        <ele>490</ele>
        <time>2016-05-15T07:32:37.000Z</time>
      </trkpt>
      <trkpt lat="44.53665" lon="4.2311">
        <ele>490</ele>
        <time>2016-05-15T07:32:38.000Z</time>
      </trkpt>
      <trkpt lat="44.53663" lon="4.23113">
        <ele>490</ele>
        <time>2016-05-15T07:32:39.000Z</time>
      </trkpt>
      <trkpt lat="44.53662" lon="4.23115">
        <ele>490</ele>
        <time>2016-05-15T07:32:40.000Z</time>
      </trkpt>
      <trkpt lat="44.53661" lon="4.23117">
        <ele>490</ele>
        <time>2016-05-15T07:32:41.000Z</time>
      </trkpt>
      <trkpt lat="44.5366" lon="4.2312">
        <ele>490</ele>
        <time>2016-05-15T07:32:42.000Z</time>
      </trkpt>
      <trkpt lat="44.53659" lon="4.23122">
        <ele>490</ele>
        <time>2016-05-15T07:32:43.000Z</time>
      </trkpt>
      <trkpt lat="44.53658" lon="4.23124">
        <ele>490</ele>
        <time>2016-05-15T07:32:44.000Z</time>
      </trkpt>
      <trkpt lat="44.53657" lon="4.23126">
        <ele>490</ele>
        <time>2016-05-15T07:32:45.000Z</time>
      </trkpt>
      <trkpt lat="44.53657" lon="4.23128">
        <ele>491</ele>
        <time>2016-05-15T07:32:46.000Z</time>
      </trkpt>
      <trkpt lat="44.53655" lon="4.2313">
        <ele>491</ele>
        <time>2016-05-15T07:32:47.000Z</time>
      </trkpt>
      <trkpt lat="44.53654" lon="4.23131">
        <ele>491</ele>
        <time>2016-05-15T07:32:48.000Z</time>
      </trkpt>
      <trkpt lat="44.53652" lon="4.23132">
        <ele>491</ele>
        <time>2016-05-15T07:32:49.000Z</time>
      </trkpt>
      <trkpt lat="44.5365" lon="4.23133">
        <ele>491</ele>
        <time>2016-05-15T07:32:50.000Z</time>
      </trkpt>
      <trkpt lat="44.53649" lon="4.23136">
        <ele>491</ele>
        <time>2016-05-15T07:32:51.000Z</time>
      </trkpt>
      <trkpt lat="44.53646" lon="4.23138">
        <ele>491</ele>
        <time>2016-05-15T07:32:52.000Z</time>
      </trkpt>
      <trkpt lat="44.53644" lon="4.23141">
        <ele>491</ele>
        <time>2016-05-15T07:32:53.000Z</time>
      </trkpt>
      <trkpt lat="44.53642" lon="4.23144">
        <ele>491</ele>
        <time>2016-05-15T07:32:54.000Z</time>
      </trkpt>
      <trkpt lat="44.53639" lon="4.23147">
        <ele>491</ele>
        <time>2016-05-15T07:32:55.000Z</time>
      </trkpt>
      <trkpt lat="44.53637" lon="4.2315">
        <ele>491</ele>
        <time>2016-05-15T07:32:56.000Z</time>
      </trkpt>
      <trkpt lat="44.53634" lon="4.23152">
        <ele>490</ele>
        <time>2016-05-15T07:32:57.000Z</time>
      </trkpt>
      <trkpt lat="44.53631" lon="4.23154">
        <ele>490</ele>
        <time>2016-05-15T07:32:58.000Z</time>
      </trkpt>
      <trkpt lat="44.53629" lon="4.23157">
        <ele>490</ele>
        <time>2016-05-15T07:32:59.000Z</time>
      </trkpt>
      <trkpt lat="44.53627" lon="4.23159">
        <ele>490</ele>
        <time>2016-05-15T07:33:00.000Z</time>
      </trkpt>
      <trkpt lat="44.53624" lon="4.23161">
        <ele>489</ele>
        <time>2016-05-15T07:33:01.000Z</time>
      </trkpt>
      <trkpt lat="44.53622" lon="4.23163">
        <ele>489</ele>
        <time>2016-05-15T07:33:02.000Z</time>
      </trkpt>
      <trkpt lat="44.5362" lon="4.23164">
        <ele>489</ele>
        <time>2016-05-15T07:33:03.000Z</time>
      </trkpt>
      <trkpt lat="44.53618" lon="4.23166">
        <ele>489</ele>
        <time>2016-05-15T07:33:04.000Z</time>
      </trkpt>
      <trkpt lat="44.53616" lon="4.23168">
        <ele>495</ele>
        <time>2016-05-15T07:33:05.000Z</time>
      </trkpt>
      <trkpt lat="44.53614" lon="4.2317">
        <ele>495</ele>
        <time>2016-05-15T07:33:06.000Z</time>
      </trkpt>
      <trkpt lat="44.53611" lon="4.23172">
        <ele>495</ele>
        <time>2016-05-15T07:33:07.000Z</time>
      </trkpt>
      <trkpt lat="44.53609" lon="4.23175">
        <ele>494</ele>
        <time>2016-05-15T07:33:08.000Z</time>
      </trkpt>
      <trkpt lat="44.53607" lon="4.23177">
        <ele>494</ele>
        <time>2016-05-15T07:33:09.000Z</time>
      </trkpt>
      <trkpt lat="44.53605" lon="4.23179">
        <ele>494</ele>
        <time>2016-05-15T07:33:10.000Z</time>
      </trkpt>
      <trkpt lat="44.53603" lon="4.23182">
        <ele>494</ele>
        <time>2016-05-15T07:33:11.000Z</time>
      </trkpt>
      <trkpt lat="44.53601" lon="4.23184">
        <ele>494</ele>
        <time>2016-05-15T07:33:12.000Z</time>
      </trkpt>
      <trkpt lat="44.53599" lon="4.23186">
        <ele>494</ele>
        <time>2016-05-15T07:33:13.000Z</time>
      </trkpt>
      <trkpt lat="44.53597" lon="4.23188">
        <ele>494</ele>
        <time>2016-05-15T07:33:14.000Z</time>
      </trkpt>
      <trkpt lat="44.53595" lon="4.2319">
        <ele>494</ele>
        <time>2016-05-15T07:33:15.000Z</time>
      </trkpt>
      <trkpt lat="44.53593" lon="4.23192">
        <ele>494</ele>
        <time>2016-05-15T07:33:16.000Z</time>
      </trkpt>
      <trkpt lat="44.5359" lon="4.23194">
        <ele>494</ele>
        <time>2016-05-15T07:33:17.000Z</time>
      </trkpt>
      <trkpt lat="44.53588" lon="4.23196">
        <ele>494</ele>
        <time>2016-05-15T07:33:18.000Z</time>
      </trkpt>
      <trkpt lat="44.53585" lon="4.23199">
        <ele>495</ele>
        <time>2016-05-15T07:33:19.000Z</time>
      </trkpt>
      <trkpt lat="44.53583" lon="4.23201">
        <ele>486</ele>
        <time>2016-05-15T07:33:20.000Z</time>
      </trkpt>
      <trkpt lat="44.5358" lon="4.23204">
        <ele>486</ele>
        <time>2016-05-15T07:33:21.000Z</time>
      </trkpt>
      <trkpt lat="44.53577" lon="4.23207">
        <ele>486</ele>
        <time>2016-05-15T07:33:22.000Z</time>
      </trkpt>
      <trkpt lat="44.53574" lon="4.2321">
        <ele>486</ele>
        <time>2016-05-15T07:33:23.000Z</time>
      </trkpt>
      <trkpt lat="44.53571" lon="4.23213">
        <ele>486</ele>
        <time>2016-05-15T07:33:24.000Z</time>
      </trkpt>
      <trkpt lat="44.53569" lon="4.23215">
        <ele>487</ele>
        <time>2016-05-15T07:33:25.000Z</time>
      </trkpt>
      <trkpt lat="44.53565" lon="4.23218">
        <ele>487</ele>
        <time>2016-05-15T07:33:26.000Z</time>
      </trkpt>
      <trkpt lat="44.53562" lon="4.23221">
        <ele>487</ele>
        <time>2016-05-15T07:33:27.000Z</time>
      </trkpt>
      <trkpt lat="44.53559" lon="4.23224">
        <ele>487</ele>
        <time>2016-05-15T07:33:28.000Z</time>
      </trkpt>
      <trkpt lat="44.53555" lon="4.23227">
        <ele>487</ele>
        <time>2016-05-15T07:33:29.000Z</time>
      </trkpt>
      <trkpt lat="44.53552" lon="4.23231">
        <ele>487</ele>
        <time>2016-05-15T07:33:30.000Z</time>
      </trkpt>
      <trkpt lat="44.53549" lon="4.23234">
        <ele>486</ele>
        <time>2016-05-15T07:33:31.000Z</time>
      </trkpt>
      <trkpt lat="44.53545" lon="4.23236">
        <ele>486</ele>
        <time>2016-05-15T07:33:32.000Z</time>
      </trkpt>
      <trkpt lat="44.53543" lon="4.23238">
        <ele>486</ele>
        <time>2016-05-15T07:33:33.000Z</time>
      </trkpt>
      <trkpt lat="44.53541" lon="4.23241">
        <ele>486</ele>
        <time>2016-05-15T07:33:34.000Z</time>
      </trkpt>
      <trkpt lat="44.53538" lon="4.23244">
        <ele>486</ele>
        <time>2016-05-15T07:33:35.000Z</time>
      </trkpt>
      <trkpt lat="44.53535" lon="4.23247">
        <ele>485</ele>
        <time>2016-05-15T07:33:36.000Z</time>
      </trkpt>
      <trkpt lat="44.53531" lon="4.2325">
        <ele>485</ele>
        <time>2016-05-15T07:33:37.000Z</time>
      </trkpt>
      <trkpt lat="44.53527" lon="4.23253">
        <ele>492</ele>
        <time>2016-05-15T07:33:38.000Z</time>
      </trkpt>
      <trkpt lat="44.53524" lon="4.23256">
        <ele>492</ele>
        <time>2016-05-15T07:33:39.000Z</time>
      </trkpt>
      <trkpt lat="44.5352" lon="4.23258">
        <ele>491</ele>
        <time>2016-05-15T07:33:40.000Z</time>
      </trkpt>
      <trkpt lat="44.53516" lon="4.2326">
        <ele>491</ele>
        <time>2016-05-15T07:33:41.000Z</time>
      </trkpt>
      <trkpt lat="44.53512" lon="4.23262">
        <ele>490</ele>
        <time>2016-05-15T07:33:42.000Z</time>
      </trkpt>
      <trkpt lat="44.53508" lon="4.23263">
        <ele>490</ele>
        <time>2016-05-15T07:33:43.000Z</time>
      </trkpt>
      <trkpt lat="44.53505" lon="4.23265">
        <ele>490</ele>
        <time>2016-05-15T07:33:44.000Z</time>
      </trkpt>
      <trkpt lat="44.53502" lon="4.23267">
        <ele>490</ele>
        <time>2016-05-15T07:33:45.000Z</time>
      </trkpt>
      <trkpt lat="44.53499" lon="4.23267">
        <ele>485</ele>
        <time>2016-05-15T07:33:46.000Z</time>
      </trkpt>
      <trkpt lat="44.53495" lon="4.23268">
        <ele>486</ele>
        <time>2016-05-15T07:33:47.000Z</time>
      </trkpt>
      <trkpt lat="44.53491" lon="4.23268">
        <ele>486</ele>
        <time>2016-05-15T07:33:48.000Z</time>
      </trkpt>
      <trkpt lat="44.53487" lon="4.23268">
        <ele>486</ele>
        <time>2016-05-15T07:33:49.000Z</time>
      </trkpt>
      <trkpt lat="44.53484" lon="4.23268">
        <ele>486</ele>
        <time>2016-05-15T07:33:50.000Z</time>
      </trkpt>
      <trkpt lat="44.53482" lon="4.23269">
        <ele>486</ele>
        <time>2016-05-15T07:33:51.000Z</time>
      </trkpt>
      <trkpt lat="44.5348" lon="4.2327">
        <ele>486</ele>
        <time>2016-05-15T07:33:52.000Z</time>
      </trkpt>
      <trkpt lat="44.53477" lon="4.2327">
        <ele>486</ele>
        <time>2016-05-15T07:33:53.000Z</time>
      </trkpt>
      <trkpt lat="44.53474" lon="4.23271">
        <ele>486</ele>
        <time>2016-05-15T07:33:54.000Z</time>
      </trkpt>
      <trkpt lat="44.53471" lon="4.23272">
        <ele>486</ele>
        <time>2016-05-15T07:33:55.000Z</time>
      </trkpt>
      <trkpt lat="44.53467" lon="4.23272">
        <ele>485</ele>
        <time>2016-05-15T07:33:56.000Z</time>
      </trkpt>
      <trkpt lat="44.53464" lon="4.23272">
        <ele>485</ele>
        <time>2016-05-15T07:33:57.000Z</time>
      </trkpt>
      <trkpt lat="44.5346" lon="4.23272">
        <ele>485</ele>
        <time>2016-05-15T07:33:58.000Z</time>
      </trkpt>
      <trkpt lat="44.53457" lon="4.23273">
        <ele>485</ele>
        <time>2016-05-15T07:33:59.000Z</time>
      </trkpt>
      <trkpt lat="44.53453" lon="4.23273">
        <ele>485</ele>
        <time>2016-05-15T07:34:00.000Z</time>
      </trkpt>
      <trkpt lat="44.5345" lon="4.23274">
        <ele>485</ele>
        <time>2016-05-15T07:34:01.000Z</time>
      </trkpt>
      <trkpt lat="44.53447" lon="4.23275">
        <ele>485</ele>
        <time>2016-05-15T07:34:02.000Z</time>
      </trkpt>
      <trkpt lat="44.53443" lon="4.23276">
        <ele>485</ele>
        <time>2016-05-15T07:34:03.000Z</time>
      </trkpt>
      <trkpt lat="44.5344" lon="4.23277">
        <ele>484</ele>
        <time>2016-05-15T07:34:04.000Z</time>
      </trkpt>
      <trkpt lat="44.53436" lon="4.23278">
        <ele>484</ele>
        <time>2016-05-15T07:34:05.000Z</time>
      </trkpt>
      <trkpt lat="44.53432" lon="4.2328">
        <ele>484</ele>
        <time>2016-05-15T07:34:06.000Z</time>
      </trkpt>
      <trkpt lat="44.53429" lon="4.23281">
        <ele>484</ele>
        <time>2016-05-15T07:34:07.000Z</time>
      </trkpt>
      <trkpt lat="44.53425" lon="4.23282">
        <ele>484</ele>
        <time>2016-05-15T07:34:08.000Z</time>
      </trkpt>
      <trkpt lat="44.53422" lon="4.23283">
        <ele>484</ele>
        <time>2016-05-15T07:34:09.000Z</time>
      </trkpt>
      <trkpt lat="44.53418" lon="4.23285">
        <ele>485</ele>
        <time>2016-05-15T07:34:10.000Z</time>
      </trkpt>
      <trkpt lat="44.53415" lon="4.23286">
        <ele>481</ele>
        <time>2016-05-15T07:34:11.000Z</time>
      </trkpt>
      <trkpt lat="44.53411" lon="4.23286">
        <ele>481</ele>
        <time>2016-05-15T07:34:12.000Z</time>
      </trkpt>
      <trkpt lat="44.53407" lon="4.23287">
        <ele>481</ele>
        <time>2016-05-15T07:34:13.000Z</time>
      </trkpt>
      <trkpt lat="44.53404" lon="4.23288">
        <ele>481</ele>
        <time>2016-05-15T07:34:14.000Z</time>
      </trkpt>
      <trkpt lat="44.534" lon="4.2329">
        <ele>481</ele>
        <time>2016-05-15T07:34:15.000Z</time>
      </trkpt>
      <trkpt lat="44.53396" lon="4.23291">
        <ele>481</ele>
        <time>2016-05-15T07:34:16.000Z</time>
      </trkpt>
      <trkpt lat="44.53392" lon="4.23292">
        <ele>481</ele>
        <time>2016-05-15T07:34:17.000Z</time>
      </trkpt>
      <trkpt lat="44.53387" lon="4.23293">
        <ele>481</ele>
        <time>2016-05-15T07:34:18.000Z</time>
      </trkpt>
      <trkpt lat="44.53382" lon="4.23294">
        <ele>481</ele>
        <time>2016-05-15T07:34:19.000Z</time>
      </trkpt>
      <trkpt lat="44.53379" lon="4.23296">
        <ele>480</ele>
        <time>2016-05-15T07:34:20.000Z</time>
      </trkpt>
      <trkpt lat="44.53375" lon="4.23298">
        <ele>480</ele>
        <time>2016-05-15T07:34:21.000Z</time>
      </trkpt>
      <trkpt lat="44.53372" lon="4.233">
        <ele>480</ele>
        <time>2016-05-15T07:34:22.000Z</time>
      </trkpt>
      <trkpt lat="44.53369" lon="4.23301">
        <ele>480</ele>
        <time>2016-05-15T07:34:23.000Z</time>
      </trkpt>
      <trkpt lat="44.53366" lon="4.23303">
        <ele>480</ele>
        <time>2016-05-15T07:34:24.000Z</time>
      </trkpt>
      <trkpt lat="44.53362" lon="4.23304">
        <ele>480</ele>
        <time>2016-05-15T07:34:25.000Z</time>
      </trkpt>
      <trkpt lat="44.53359" lon="4.23306">
        <ele>480</ele>
        <time>2016-05-15T07:34:26.000Z</time>
      </trkpt>
      <trkpt lat="44.53355" lon="4.23307">
        <ele>481</ele>
        <time>2016-05-15T07:34:27.000Z</time>
      </trkpt>
      <trkpt lat="44.53352" lon="4.23309">
        <ele>481</ele>
        <time>2016-05-15T07:34:28.000Z</time>
      </trkpt>
      <trkpt lat="44.53348" lon="4.23311">
        <ele>481</ele>
        <time>2016-05-15T07:34:29.000Z</time>
      </trkpt>
      <trkpt lat="44.53345" lon="4.23312">
        <ele>481</ele>
        <time>2016-05-15T07:34:30.000Z</time>
      </trkpt>
      <trkpt lat="44.53343" lon="4.23314">
        <ele>481</ele>
        <time>2016-05-15T07:34:31.000Z</time>
      </trkpt>
      <trkpt lat="44.5334" lon="4.23315">
        <ele>481</ele>
        <time>2016-05-15T07:34:32.000Z</time>
      </trkpt>
      <trkpt lat="44.53337" lon="4.23317">
        <ele>481</ele>
        <time>2016-05-15T07:34:33.000Z</time>
      </trkpt>
      <trkpt lat="44.53335" lon="4.23319">
        <ele>481</ele>
        <time>2016-05-15T07:34:34.000Z</time>
      </trkpt>
      <trkpt lat="44.53332" lon="4.23321">
        <ele>479</ele>
        <time>2016-05-15T07:34:35.000Z</time>
      </trkpt>
      <trkpt lat="44.53329" lon="4.23323">
        <ele>479</ele>
        <time>2016-05-15T07:34:36.000Z</time>
      </trkpt>
      <trkpt lat="44.53326" lon="4.23325">
        <ele>479</ele>
        <time>2016-05-15T07:34:37.000Z</time>
      </trkpt>
      <trkpt lat="44.53323" lon="4.23328">
        <ele>479</ele>
        <time>2016-05-15T07:34:38.000Z</time>
      </trkpt>
      <trkpt lat="44.53321" lon="4.2333">
        <ele>478</ele>
        <time>2016-05-15T07:34:39.000Z</time>
      </trkpt>
      <trkpt lat="44.53318" lon="4.23332">
        <ele>478</ele>
        <time>2016-05-15T07:34:40.000Z</time>
      </trkpt>
      <trkpt lat="44.53315" lon="4.23335">
        <ele>481</ele>
        <time>2016-05-15T07:34:41.000Z</time>
      </trkpt>
      <trkpt lat="44.53314" lon="4.23338">
        <ele>481</ele>
        <time>2016-05-15T07:34:42.000Z</time>
      </trkpt>
      <trkpt lat="44.53312" lon="4.23342">
        <ele>481</ele>
        <time>2016-05-15T07:34:43.000Z</time>
      </trkpt>
      <trkpt lat="44.5331" lon="4.23347">
        <ele>480</ele>
        <time>2016-05-15T07:34:44.000Z</time>
      </trkpt>
      <trkpt lat="44.53308" lon="4.23351">
        <ele>480</ele>
        <time>2016-05-15T07:34:45.000Z</time>
      </trkpt>
      <trkpt lat="44.53307" lon="4.23355">
        <ele>480</ele>
        <time>2016-05-15T07:34:46.000Z</time>
      </trkpt>
      <trkpt lat="44.53307" lon="4.2336">
        <ele>480</ele>
        <time>2016-05-15T07:34:47.000Z</time>
      </trkpt>
      <trkpt lat="44.53308" lon="4.23364">
        <ele>480</ele>
        <time>2016-05-15T07:34:48.000Z</time>
      </trkpt>
      <trkpt lat="44.53309" lon="4.23368">
        <ele>480</ele>
        <time>2016-05-15T07:34:49.000Z</time>
      </trkpt>
      <trkpt lat="44.5331" lon="4.23372">
        <ele>480</ele>
        <time>2016-05-15T07:34:50.000Z</time>
      </trkpt>
      <trkpt lat="44.53311" lon="4.23376">
        <ele>481</ele>
        <time>2016-05-15T07:34:51.000Z</time>
      </trkpt>
      <trkpt lat="44.53311" lon="4.23379">
        <ele>481</ele>
        <time>2016-05-15T07:34:52.000Z</time>
      </trkpt>
      <trkpt lat="44.53312" lon="4.23383">
        <ele>481</ele>
        <time>2016-05-15T07:34:53.000Z</time>
      </trkpt>
      <trkpt lat="44.53312" lon="4.23387">
        <ele>481</ele>
        <time>2016-05-15T07:34:54.000Z</time>
      </trkpt>
      <trkpt lat="44.53313" lon="4.2339">
        <ele>481</ele>
        <time>2016-05-15T07:34:55.000Z</time>
      </trkpt>
      <trkpt lat="44.53313" lon="4.23393">
        <ele>482</ele>
        <time>2016-05-15T07:34:56.000Z</time>
      </trkpt>
      <trkpt lat="44.53313" lon="4.23396">
        <ele>482</ele>
        <time>2016-05-15T07:34:57.000Z</time>
      </trkpt>
      <trkpt lat="44.53314" lon="4.23398">
        <ele>482</ele>
        <time>2016-05-15T07:34:58.000Z</time>
      </trkpt>
      <trkpt lat="44.53315" lon="4.23402">
        <ele>482</ele>
        <time>2016-05-15T07:34:59.000Z</time>
      </trkpt>
      <trkpt lat="44.53315" lon="4.23404">
        <ele>483</ele>
        <time>2016-05-15T07:35:00.000Z</time>
      </trkpt>
      <trkpt lat="44.53315" lon="4.23407">
        <ele>483</ele>
        <time>2016-05-15T07:35:01.000Z</time>
      </trkpt>
      <trkpt lat="44.53315" lon="4.23409">
        <ele>483</ele>
        <time>2016-05-15T07:35:02.000Z</time>
      </trkpt>
      <trkpt lat="44.53315" lon="4.23412">
        <ele>483</ele>
        <time>2016-05-15T07:35:03.000Z</time>
      </trkpt>
      <trkpt lat="44.53316" lon="4.23414">
        <ele>483</ele>
        <time>2016-05-15T07:35:04.000Z</time>
      </trkpt>
      <trkpt lat="44.53317" lon="4.23416">
        <ele>484</ele>
        <time>2016-05-15T07:35:05.000Z</time>
      </trkpt>
      <trkpt lat="44.53318" lon="4.23418">
        <ele>485</ele>
        <time>2016-05-15T07:35:06.000Z</time>
      </trkpt>
      <trkpt lat="44.53318" lon="4.2342">
        <ele>485</ele>
        <time>2016-05-15T07:35:07.000Z</time>
      </trkpt>
      <trkpt lat="44.53319" lon="4.23423">
        <ele>485</ele>
        <time>2016-05-15T07:35:08.000Z</time>
      </trkpt>
      <trkpt lat="44.5332" lon="4.23425">
        <ele>485</ele>
        <time>2016-05-15T07:35:09.000Z</time>
      </trkpt>
      <trkpt lat="44.5332" lon="4.23427">
        <ele>485</ele>
        <time>2016-05-15T07:35:10.000Z</time>
      </trkpt>
      <trkpt lat="44.5332" lon="4.23429">
        <ele>485</ele>
        <time>2016-05-15T07:35:11.000Z</time>
      </trkpt>
      <trkpt lat="44.5332" lon="4.23431">
        <ele>485</ele>
        <time>2016-05-15T07:35:12.000Z</time>
      </trkpt>
      <trkpt lat="44.5332" lon="4.23433">
        <ele>485</ele>
        <time>2016-05-15T07:35:13.000Z</time>
      </trkpt>
      <trkpt lat="44.53319" lon="4.23435">
        <ele>485</ele>
        <time>2016-05-15T07:35:14.000Z</time>
      </trkpt>
      <trkpt lat="44.53318" lon="4.23438">
        <ele>484</ele>
        <time>2016-05-15T07:35:15.000Z</time>
      </trkpt>
      <trkpt lat="44.53316" lon="4.23442">
        <ele>484</ele>
        <time>2016-05-15T07:35:16.000Z</time>
      </trkpt>
      <trkpt lat="44.53314" lon="4.23446">
        <ele>484</ele>
        <time>2016-05-15T07:35:17.000Z</time>
      </trkpt>
      <trkpt lat="44.53313" lon="4.2345">
        <ele>484</ele>
        <time>2016-05-15T07:35:18.000Z</time>
      </trkpt>
      <trkpt lat="44.53311" lon="4.23454">
        <ele>484</ele>
        <time>2016-05-15T07:35:19.000Z</time>
      </trkpt>
      <trkpt lat="44.53309" lon="4.23458">
        <ele>484</ele>
        <time>2016-05-15T07:35:20.000Z</time>
      </trkpt>
      <trkpt lat="44.53307" lon="4.23462">
        <ele>484</ele>
        <time>2016-05-15T07:35:21.000Z</time>
      </trkpt>
      <trkpt lat="44.53306" lon="4.23466">
        <ele>484</ele>
        <time>2016-05-15T07:35:22.000Z</time>
      </trkpt>
      <trkpt lat="44.53304" lon="4.2347">
        <ele>484</ele>
        <time>2016-05-15T07:35:23.000Z</time>
      </trkpt>
      <trkpt lat="44.53302" lon="4.23475">
        <ele>484</ele>
        <time>2016-05-15T07:35:24.000Z</time>
      </trkpt>
      <trkpt lat="44.53301" lon="4.23478">
        <ele>484</ele>
        <time>2016-05-15T07:35:25.000Z</time>
      </trkpt>
      <trkpt lat="44.533" lon="4.23483">
        <ele>484</ele>
        <time>2016-05-15T07:35:26.000Z</time>
      </trkpt>
      <trkpt lat="44.53299" lon="4.23488">
        <ele>484</ele>
        <time>2016-05-15T07:35:27.000Z</time>
      </trkpt>
      <trkpt lat="44.53298" lon="4.23493">
        <ele>484</ele>
        <time>2016-05-15T07:35:28.000Z</time>
      </trkpt>
      <trkpt lat="44.53297" lon="4.23498">
        <ele>484</ele>
        <time>2016-05-15T07:35:29.000Z</time>
      </trkpt>
      <trkpt lat="44.53295" lon="4.23501">
        <ele>485</ele>
        <time>2016-05-15T07:35:30.000Z</time>
      </trkpt>
      <trkpt lat="44.53294" lon="4.23506">
        <ele>485</ele>
        <time>2016-05-15T07:35:31.000Z</time>
      </trkpt>
      <trkpt lat="44.53294" lon="4.23511">
        <ele>485</ele>
        <time>2016-05-15T07:35:32.000Z</time>
      </trkpt>
      <trkpt lat="44.53293" lon="4.23516">
        <ele>485</ele>
        <time>2016-05-15T07:35:33.000Z</time>
      </trkpt>
      <trkpt lat="44.53293" lon="4.2352">
        <ele>485</ele>
        <time>2016-05-15T07:35:34.000Z</time>
      </trkpt>
      <trkpt lat="44.53292" lon="4.23525">
        <ele>485</ele>
        <time>2016-05-15T07:35:35.000Z</time>
      </trkpt>
      <trkpt lat="44.53291" lon="4.23529">
        <ele>485</ele>
        <time>2016-05-15T07:35:36.000Z</time>
      </trkpt>
      <trkpt lat="44.5329" lon="4.23532">
        <ele>485</ele>
        <time>2016-05-15T07:35:37.000Z</time>
      </trkpt>
      <trkpt lat="44.5329" lon="4.23535">
        <ele>485</ele>
        <time>2016-05-15T07:35:38.000Z</time>
      </trkpt>
      <trkpt lat="44.5329" lon="4.23538">
        <ele>485</ele>
        <time>2016-05-15T07:35:39.000Z</time>
      </trkpt>
      <trkpt lat="44.53289" lon="4.23541">
        <ele>485</ele>
        <time>2016-05-15T07:35:40.000Z</time>
      </trkpt>
      <trkpt lat="44.53289" lon="4.23545">
        <ele>485</ele>
        <time>2016-05-15T07:35:41.000Z</time>
      </trkpt>
      <trkpt lat="44.53287" lon="4.2355">
        <ele>485</ele>
        <time>2016-05-15T07:35:42.000Z</time>
      </trkpt>
      <trkpt lat="44.53286" lon="4.23554">
        <ele>485</ele>
        <time>2016-05-15T07:35:43.000Z</time>
      </trkpt>
      <trkpt lat="44.53284" lon="4.23558">
        <ele>484</ele>
        <time>2016-05-15T07:35:44.000Z</time>
      </trkpt>
      <trkpt lat="44.53283" lon="4.23564">
        <ele>484</ele>
        <time>2016-05-15T07:35:45.000Z</time>
      </trkpt>
      <trkpt lat="44.53282" lon="4.23572">
        <ele>484</ele>
        <time>2016-05-15T07:35:46.000Z</time>
      </trkpt>
      <trkpt lat="44.53281" lon="4.2358">
        <ele>483</ele>
        <time>2016-05-15T07:35:47.000Z</time>
      </trkpt>
      <trkpt lat="44.53279" lon="4.23587">
        <ele>483</ele>
        <time>2016-05-15T07:35:48.000Z</time>
      </trkpt>
      <trkpt lat="44.53277" lon="4.23594">
        <ele>482</ele>
        <time>2016-05-15T07:35:49.000Z</time>
      </trkpt>
      <trkpt lat="44.53276" lon="4.23601">
        <ele>482</ele>
        <time>2016-05-15T07:35:50.000Z</time>
      </trkpt>
      <trkpt lat="44.53276" lon="4.23607">
        <ele>483</ele>
        <time>2016-05-15T07:35:51.000Z</time>
      </trkpt>
      <trkpt lat="44.53277" lon="4.23613">
        <ele>483</ele>
        <time>2016-05-15T07:35:52.000Z</time>
      </trkpt>
      <trkpt lat="44.53278" lon="4.23618">
        <ele>483</ele>
        <time>2016-05-15T07:35:53.000Z</time>
      </trkpt>
      <trkpt lat="44.53278" lon="4.23623">
        <ele>483</ele>
        <time>2016-05-15T07:35:54.000Z</time>
      </trkpt>
      <trkpt lat="44.53279" lon="4.23627">
        <ele>483</ele>
        <time>2016-05-15T07:35:55.000Z</time>
      </trkpt>
      <trkpt lat="44.5328" lon="4.23631">
        <ele>483</ele>
        <time>2016-05-15T07:35:56.000Z</time>
      </trkpt>
      <trkpt lat="44.5328" lon="4.23635">
        <ele>483</ele>
        <time>2016-05-15T07:35:57.000Z</time>
      </trkpt>
      <trkpt lat="44.53281" lon="4.2364">
        <ele>483</ele>
        <time>2016-05-15T07:35:58.000Z</time>
      </trkpt>
      <trkpt lat="44.53282" lon="4.23644">
        <ele>483</ele>
        <time>2016-05-15T07:35:59.000Z</time>
      </trkpt>
      <trkpt lat="44.53283" lon="4.2365">
        <ele>483</ele>
        <time>2016-05-15T07:36:00.000Z</time>
      </trkpt>
      <trkpt lat="44.53283" lon="4.23655">
        <ele>482</ele>
        <time>2016-05-15T07:36:01.000Z</time>
      </trkpt>
      <trkpt lat="44.53283" lon="4.2366">
        <ele>482</ele>
        <time>2016-05-15T07:36:02.000Z</time>
      </trkpt>
      <trkpt lat="44.53284" lon="4.23665">
        <ele>482</ele>
        <time>2016-05-15T07:36:03.000Z</time>
      </trkpt>
      <trkpt lat="44.53284" lon="4.23669">
        <ele>478</ele>
        <time>2016-05-15T07:36:04.000Z</time>
      </trkpt>
      <trkpt lat="44.53285" lon="4.23674">
        <ele>478</ele>
        <time>2016-05-15T07:36:05.000Z</time>
      </trkpt>
      <trkpt lat="44.53286" lon="4.23678">
        <ele>479</ele>
        <time>2016-05-15T07:36:06.000Z</time>
      </trkpt>
      <trkpt lat="44.53288" lon="4.23682">
        <ele>479</ele>
        <time>2016-05-15T07:36:07.000Z</time>
      </trkpt>
      <trkpt lat="44.53288" lon="4.23684">
        <ele>479</ele>
        <time>2016-05-15T07:36:08.000Z</time>
      </trkpt>
      <trkpt lat="44.53289" lon="4.23686">
        <ele>479</ele>
        <time>2016-05-15T07:36:09.000Z</time>
      </trkpt>
      <trkpt lat="44.53289" lon="4.23688">
        <ele>479</ele>
        <time>2016-05-15T07:36:10.000Z</time>
      </trkpt>
      <trkpt lat="44.53289" lon="4.2369">
        <ele>479</ele>
        <time>2016-05-15T07:36:11.000Z</time>
      </trkpt>
      <trkpt lat="44.53288" lon="4.23692">
        <ele>479</ele>
        <time>2016-05-15T07:36:12.000Z</time>
      </trkpt>
      <trkpt lat="44.53287" lon="4.23694">
        <ele>478</ele>
        <time>2016-05-15T07:36:13.000Z</time>
      </trkpt>
      <trkpt lat="44.53286" lon="4.23696">
        <ele>478</ele>
        <time>2016-05-15T07:36:14.000Z</time>
      </trkpt>
      <trkpt lat="44.53283" lon="4.237">
        <ele>478</ele>
        <time>2016-05-15T07:36:15.000Z</time>
      </trkpt>
      <trkpt lat="44.53281" lon="4.23705">
        <ele>477</ele>
        <time>2016-05-15T07:36:16.000Z</time>
      </trkpt>
      <trkpt lat="44.53278" lon="4.2371">
        <ele>476</ele>
        <time>2016-05-15T07:36:17.000Z</time>
      </trkpt>
      <trkpt lat="44.53276" lon="4.23716">
        <ele>476</ele>
        <time>2016-05-15T07:36:18.000Z</time>
      </trkpt>
      <trkpt lat="44.53276" lon="4.2372">
        <ele>476</ele>
        <time>2016-05-15T07:36:19.000Z</time>
      </trkpt>
      <trkpt lat="44.53276" lon="4.23725">
        <ele>475</ele>
        <time>2016-05-15T07:36:20.000Z</time>
      </trkpt>
      <trkpt lat="44.53276" lon="4.2373">
        <ele>475</ele>
        <time>2016-05-15T07:36:21.000Z</time>
      </trkpt>
      <trkpt lat="44.53276" lon="4.23736">
        <ele>475</ele>
        <time>2016-05-15T07:36:22.000Z</time>
      </trkpt>
      <trkpt lat="44.53277" lon="4.23741">
        <ele>474</ele>
        <time>2016-05-15T07:36:23.000Z</time>
      </trkpt>
      <trkpt lat="44.53277" lon="4.23746">
        <ele>474</ele>
        <time>2016-05-15T07:36:24.000Z</time>
      </trkpt>
      <trkpt lat="44.53277" lon="4.23751">
        <ele>469</ele>
        <time>2016-05-15T07:36:25.000Z</time>
      </trkpt>
      <trkpt lat="44.53278" lon="4.23756">
        <ele>469</ele>
        <time>2016-05-15T07:36:26.000Z</time>
      </trkpt>
      <trkpt lat="44.53279" lon="4.2376">
        <ele>469</ele>
        <time>2016-05-15T07:36:27.000Z</time>
      </trkpt>
      <trkpt lat="44.53279" lon="4.23765">
        <ele>469</ele>
        <time>2016-05-15T07:36:28.000Z</time>
      </trkpt>
      <trkpt lat="44.5328" lon="4.23769">
        <ele>469</ele>
        <time>2016-05-15T07:36:29.000Z</time>
      </trkpt>
      <trkpt lat="44.53281" lon="4.23773">
        <ele>469</ele>
        <time>2016-05-15T07:36:30.000Z</time>
      </trkpt>
      <trkpt lat="44.53281" lon="4.23778">
        <ele>469</ele>
        <time>2016-05-15T07:36:31.000Z</time>
      </trkpt>
      <trkpt lat="44.53279" lon="4.23783">
        <ele>468</ele>
        <time>2016-05-15T07:36:32.000Z</time>
      </trkpt>
      <trkpt lat="44.53277" lon="4.23788">
        <ele>468</ele>
        <time>2016-05-15T07:36:33.000Z</time>
      </trkpt>
      <trkpt lat="44.53274" lon="4.23794">
        <ele>468</ele>
        <time>2016-05-15T07:36:34.000Z</time>
      </trkpt>
      <trkpt lat="44.53272" lon="4.23798">
        <ele>467</ele>
        <time>2016-05-15T07:36:35.000Z</time>
      </trkpt>
      <trkpt lat="44.53269" lon="4.23804">
        <ele>467</ele>
        <time>2016-05-15T07:36:36.000Z</time>
      </trkpt>
      <trkpt lat="44.53266" lon="4.23808">
        <ele>466</ele>
        <time>2016-05-15T07:36:37.000Z</time>
      </trkpt>
      <trkpt lat="44.53264" lon="4.23813">
        <ele>465</ele>
        <time>2016-05-15T07:36:38.000Z</time>
      </trkpt>
      <trkpt lat="44.53262" lon="4.23817">
        <ele>464</ele>
        <time>2016-05-15T07:36:39.000Z</time>
      </trkpt>
      <trkpt lat="44.5326" lon="4.23821">
        <ele>464</ele>
        <time>2016-05-15T07:36:40.000Z</time>
      </trkpt>
      <trkpt lat="44.53257" lon="4.23825">
        <ele>462</ele>
        <time>2016-05-15T07:36:41.000Z</time>
      </trkpt>
      <trkpt lat="44.53255" lon="4.23829">
        <ele>461</ele>
        <time>2016-05-15T07:36:42.000Z</time>
      </trkpt>
      <trkpt lat="44.53251" lon="4.23832">
        <ele>460</ele>
        <time>2016-05-15T07:36:43.000Z</time>
      </trkpt>
      <trkpt lat="44.53248" lon="4.23835">
        <ele>458</ele>
        <time>2016-05-15T07:36:44.000Z</time>
      </trkpt>
      <trkpt lat="44.53244" lon="4.23839">
        <ele>456</ele>
        <time>2016-05-15T07:36:45.000Z</time>
      </trkpt>
      <trkpt lat="44.53239" lon="4.23843">
        <ele>455</ele>
        <time>2016-05-15T07:36:46.000Z</time>
      </trkpt>
      <trkpt lat="44.53235" lon="4.23846">
        <ele>454</ele>
        <time>2016-05-15T07:36:47.000Z</time>
      </trkpt>
      <trkpt lat="44.53231" lon="4.23848">
        <ele>454</ele>
        <time>2016-05-15T07:36:48.000Z</time>
      </trkpt>
      <trkpt lat="44.53228" lon="4.23849">
        <ele>453</ele>
        <time>2016-05-15T07:36:49.000Z</time>
      </trkpt>
      <trkpt lat="44.53224" lon="4.23849">
        <ele>453</ele>
        <time>2016-05-15T07:36:50.000Z</time>
      </trkpt>
      <trkpt lat="44.53219" lon="4.23847">
        <ele>452</ele>
        <time>2016-05-15T07:36:51.000Z</time>
      </trkpt>
      <trkpt lat="44.53215" lon="4.23843">
        <ele>452</ele>
        <time>2016-05-15T07:36:52.000Z</time>
      </trkpt>
      <trkpt lat="44.53211" lon="4.23838">
        <ele>451</ele>
        <time>2016-05-15T07:36:53.000Z</time>
      </trkpt>
      <trkpt lat="44.53207" lon="4.23834">
        <ele>451</ele>
        <time>2016-05-15T07:36:54.000Z</time>
      </trkpt>
      <trkpt lat="44.53202" lon="4.23829">
        <ele>454</ele>
        <time>2016-05-15T07:36:55.000Z</time>
      </trkpt>
      <trkpt lat="44.53198" lon="4.23824">
        <ele>453</ele>
        <time>2016-05-15T07:36:56.000Z</time>
      </trkpt>
      <trkpt lat="44.53193" lon="4.23818">
        <ele>453</ele>
        <time>2016-05-15T07:36:57.000Z</time>
      </trkpt>
      <trkpt lat="44.53188" lon="4.23812">
        <ele>453</ele>
        <time>2016-05-15T07:36:58.000Z</time>
      </trkpt>
      <trkpt lat="44.53183" lon="4.23806">
        <ele>452</ele>
        <time>2016-05-15T07:36:59.000Z</time>
      </trkpt>
      <trkpt lat="44.53178" lon="4.238">
        <ele>453</ele>
        <time>2016-05-15T07:37:00.000Z</time>
      </trkpt>
      <trkpt lat="44.53174" lon="4.23793">
        <ele>453</ele>
        <time>2016-05-15T07:37:01.000Z</time>
      </trkpt>
      <trkpt lat="44.53169" lon="4.23785">
        <ele>453</ele>
        <time>2016-05-15T07:37:02.000Z</time>
      </trkpt>
      <trkpt lat="44.53164" lon="4.23778">
        <ele>446</ele>
        <time>2016-05-15T07:37:03.000Z</time>
      </trkpt>
      <trkpt lat="44.53159" lon="4.23771">
        <ele>446</ele>
        <time>2016-05-15T07:37:04.000Z</time>
      </trkpt>
      <trkpt lat="44.53153" lon="4.23764">
        <ele>446</ele>
        <time>2016-05-15T07:37:05.000Z</time>
      </trkpt>
      <trkpt lat="44.53148" lon="4.23758">
        <ele>446</ele>
        <time>2016-05-15T07:37:06.000Z</time>
      </trkpt>
      <trkpt lat="44.53142" lon="4.23752">
        <ele>445</ele>
        <time>2016-05-15T07:37:07.000Z</time>
      </trkpt>
      <trkpt lat="44.53136" lon="4.23747">
        <ele>446</ele>
        <time>2016-05-15T07:37:08.000Z</time>
      </trkpt>
      <trkpt lat="44.53129" lon="4.23743">
        <ele>446</ele>
        <time>2016-05-15T07:37:09.000Z</time>
      </trkpt>
      <trkpt lat="44.53123" lon="4.23739">
        <ele>445</ele>
        <time>2016-05-15T07:37:10.000Z</time>
      </trkpt>
      <trkpt lat="44.53116" lon="4.23737">
        <ele>445</ele>
        <time>2016-05-15T07:37:11.000Z</time>
      </trkpt>
      <trkpt lat="44.53109" lon="4.23734">
        <ele>444</ele>
        <time>2016-05-15T07:37:12.000Z</time>
      </trkpt>
      <trkpt lat="44.53103" lon="4.23732">
        <ele>444</ele>
        <time>2016-05-15T07:37:13.000Z</time>
      </trkpt>
      <trkpt lat="44.53097" lon="4.23728">
        <ele>443</ele>
        <time>2016-05-15T07:37:14.000Z</time>
      </trkpt>
      <trkpt lat="44.53091" lon="4.23723">
        <ele>443</ele>
        <time>2016-05-15T07:37:15.000Z</time>
      </trkpt>
      <trkpt lat="44.53084" lon="4.23719">
        <ele>443</ele>
        <time>2016-05-15T07:37:16.000Z</time>
      </trkpt>
      <trkpt lat="44.53077" lon="4.23714">
        <ele>438</ele>
        <time>2016-05-15T07:37:17.000Z</time>
      </trkpt>
      <trkpt lat="44.5307" lon="4.23709">
        <ele>437</ele>
        <time>2016-05-15T07:37:18.000Z</time>
      </trkpt>
      <trkpt lat="44.53064" lon="4.23704">
        <ele>437</ele>
        <time>2016-05-15T07:37:19.000Z</time>
      </trkpt>
      <trkpt lat="44.53057" lon="4.23699">
        <ele>437</ele>
        <time>2016-05-15T07:37:20.000Z</time>
      </trkpt>
      <trkpt lat="44.53051" lon="4.23695">
        <ele>437</ele>
        <time>2016-05-15T07:37:21.000Z</time>
      </trkpt>
      <trkpt lat="44.53046" lon="4.23691">
        <ele>437</ele>
        <time>2016-05-15T07:37:22.000Z</time>
      </trkpt>
      <trkpt lat="44.53043" lon="4.23689">
        <ele>437</ele>
        <time>2016-05-15T07:37:23.000Z</time>
      </trkpt>
      <trkpt lat="44.53039" lon="4.23687">
        <ele>436</ele>
        <time>2016-05-15T07:37:24.000Z</time>
      </trkpt>
      <trkpt lat="44.53036" lon="4.23686">
        <ele>436</ele>
        <time>2016-05-15T07:37:25.000Z</time>
      </trkpt>
      <trkpt lat="44.53034" lon="4.23685">
        <ele>436</ele>
        <time>2016-05-15T07:37:26.000Z</time>
      </trkpt>
      <trkpt lat="44.53032" lon="4.23685">
        <ele>436</ele>
        <time>2016-05-15T07:37:27.000Z</time>
      </trkpt>
      <trkpt lat="44.53031" lon="4.23687">
        <ele>436</ele>
        <time>2016-05-15T07:37:28.000Z</time>
      </trkpt>
      <trkpt lat="44.53031" lon="4.23689">
        <ele>436</ele>
        <time>2016-05-15T07:37:29.000Z</time>
      </trkpt>
      <trkpt lat="44.53032" lon="4.2369">
        <ele>436</ele>
        <time>2016-05-15T07:37:30.000Z</time>
      </trkpt>
      <trkpt lat="44.53033" lon="4.23693">
        <ele>436</ele>
        <time>2016-05-15T07:37:31.000Z</time>
      </trkpt>
      <trkpt lat="44.53034" lon="4.23696">
        <ele>436</ele>
        <time>2016-05-15T07:37:32.000Z</time>
      </trkpt>
      <trkpt lat="44.53036" lon="4.23699">
        <ele>436</ele>
        <time>2016-05-15T07:37:33.000Z</time>
      </trkpt>
      <trkpt lat="44.53037" lon="4.23702">
        <ele>436</ele>
        <time>2016-05-15T07:37:34.000Z</time>
      </trkpt>
      <trkpt lat="44.53039" lon="4.23705">
        <ele>436</ele>
        <time>2016-05-15T07:37:35.000Z</time>
      </trkpt>
      <trkpt lat="44.53041" lon="4.23709">
        <ele>436</ele>
        <time>2016-05-15T07:37:36.000Z</time>
      </trkpt>
      <trkpt lat="44.53043" lon="4.23713">
        <ele>436</ele>
        <time>2016-05-15T07:37:37.000Z</time>
      </trkpt>
      <trkpt lat="44.53045" lon="4.23717">
        <ele>436</ele>
        <time>2016-05-15T07:37:38.000Z</time>
      </trkpt>
      <trkpt lat="44.53047" lon="4.23721">
        <ele>436</ele>
        <time>2016-05-15T07:37:39.000Z</time>
      </trkpt>
      <trkpt lat="44.53049" lon="4.23725">
        <ele>436</ele>
        <time>2016-05-15T07:37:40.000Z</time>
      </trkpt>
      <trkpt lat="44.53051" lon="4.23728">
        <ele>436</ele>
        <time>2016-05-15T07:37:41.000Z</time>
      </trkpt>
      <trkpt lat="44.53053" lon="4.23731">
        <ele>436</ele>
        <time>2016-05-15T07:37:42.000Z</time>
      </trkpt>
      <trkpt lat="44.53055" lon="4.23734">
        <ele>436</ele>
        <time>2016-05-15T07:37:43.000Z</time>
      </trkpt>
      <trkpt lat="44.53057" lon="4.23737">
        <ele>436</ele>
        <time>2016-05-15T07:37:44.000Z</time>
      </trkpt>
      <trkpt lat="44.53058" lon="4.2374">
        <ele>437</ele>
        <time>2016-05-15T07:37:45.000Z</time>
      </trkpt>
      <trkpt lat="44.5306" lon="4.23744">
        <ele>437</ele>
        <time>2016-05-15T07:37:46.000Z</time>
      </trkpt>
      <trkpt lat="44.53062" lon="4.23747">
        <ele>437</ele>
        <time>2016-05-15T07:37:47.000Z</time>
      </trkpt>
      <trkpt lat="44.53064" lon="4.23751">
        <ele>435</ele>
        <time>2016-05-15T07:37:48.000Z</time>
      </trkpt>
      <trkpt lat="44.53065" lon="4.23755">
        <ele>435</ele>
        <time>2016-05-15T07:37:49.000Z</time>
      </trkpt>
      <trkpt lat="44.53067" lon="4.23758">
        <ele>436</ele>
        <time>2016-05-15T07:37:50.000Z</time>
      </trkpt>
      <trkpt lat="44.53069" lon="4.23761">
        <ele>436</ele>
        <time>2016-05-15T07:37:51.000Z</time>
      </trkpt>
      <trkpt lat="44.5307" lon="4.23764">
        <ele>435</ele>
        <time>2016-05-15T07:37:52.000Z</time>
      </trkpt>
      <trkpt lat="44.53071" lon="4.23767">
        <ele>435</ele>
        <time>2016-05-15T07:37:53.000Z</time>
      </trkpt>
      <trkpt lat="44.53073" lon="4.23771">
        <ele>435</ele>
        <time>2016-05-15T07:37:54.000Z</time>
      </trkpt>
      <trkpt lat="44.53074" lon="4.23775">
        <ele>435</ele>
        <time>2016-05-15T07:37:55.000Z</time>
      </trkpt>
      <trkpt lat="44.53075" lon="4.23778">
        <ele>435</ele>
        <time>2016-05-15T07:37:56.000Z</time>
      </trkpt>
      <trkpt lat="44.53077" lon="4.23782">
        <ele>435</ele>
        <time>2016-05-15T07:37:57.000Z</time>
      </trkpt>
      <trkpt lat="44.53078" lon="4.23786">
        <ele>435</ele>
        <time>2016-05-15T07:37:58.000Z</time>
      </trkpt>
      <trkpt lat="44.53079" lon="4.2379">
        <ele>435</ele>
        <time>2016-05-15T07:37:59.000Z</time>
      </trkpt>
      <trkpt lat="44.5308" lon="4.23794">
        <ele>434</ele>
        <time>2016-05-15T07:38:00.000Z</time>
      </trkpt>
      <trkpt lat="44.53081" lon="4.23799">
        <ele>434</ele>
        <time>2016-05-15T07:38:01.000Z</time>
      </trkpt>
      <trkpt lat="44.53082" lon="4.23803">
        <ele>435</ele>
        <time>2016-05-15T07:38:02.000Z</time>
      </trkpt>
      <trkpt lat="44.53083" lon="4.23808">
        <ele>435</ele>
        <time>2016-05-15T07:38:03.000Z</time>
      </trkpt>
      <trkpt lat="44.53084" lon="4.23812">
        <ele>440</ele>
        <time>2016-05-15T07:38:04.000Z</time>
      </trkpt>
      <trkpt lat="44.53084" lon="4.23817">
        <ele>440</ele>
        <time>2016-05-15T07:38:05.000Z</time>
      </trkpt>
      <trkpt lat="44.53085" lon="4.23821">
        <ele>439</ele>
        <time>2016-05-15T07:38:06.000Z</time>
      </trkpt>
      <trkpt lat="44.53086" lon="4.23825">
        <ele>439</ele>
        <time>2016-05-15T07:38:07.000Z</time>
      </trkpt>
      <trkpt lat="44.53087" lon="4.23829">
        <ele>438</ele>
        <time>2016-05-15T07:38:08.000Z</time>
      </trkpt>
      <trkpt lat="44.53087" lon="4.23833">
        <ele>438</ele>
        <time>2016-05-15T07:38:09.000Z</time>
      </trkpt>
      <trkpt lat="44.53088" lon="4.23837">
        <ele>438</ele>
        <time>2016-05-15T07:38:10.000Z</time>
      </trkpt>
      <trkpt lat="44.53089" lon="4.23842">
        <ele>438</ele>
        <time>2016-05-15T07:38:11.000Z</time>
      </trkpt>
      <trkpt lat="44.5309" lon="4.23846">
        <ele>438</ele>
        <time>2016-05-15T07:38:12.000Z</time>
      </trkpt>
      <trkpt lat="44.53091" lon="4.2385">
        <ele>438</ele>
        <time>2016-05-15T07:38:13.000Z</time>
      </trkpt>
      <trkpt lat="44.53092" lon="4.23854">
        <ele>439</ele>
        <time>2016-05-15T07:38:14.000Z</time>
      </trkpt>
      <trkpt lat="44.53094" lon="4.23859">
        <ele>439</ele>
        <time>2016-05-15T07:38:15.000Z</time>
      </trkpt>
      <trkpt lat="44.53095" lon="4.23863">
        <ele>439</ele>
        <time>2016-05-15T07:38:16.000Z</time>
      </trkpt>
      <trkpt lat="44.53097" lon="4.23867">
        <ele>439</ele>
        <time>2016-05-15T07:38:17.000Z</time>
      </trkpt>
      <trkpt lat="44.53098" lon="4.2387">
        <ele>439</ele>
        <time>2016-05-15T07:38:18.000Z</time>
      </trkpt>
      <trkpt lat="44.53099" lon="4.23874">
        <ele>439</ele>
        <time>2016-05-15T07:38:19.000Z</time>
      </trkpt>
      <trkpt lat="44.53101" lon="4.23877">
        <ele>439</ele>
        <time>2016-05-15T07:38:20.000Z</time>
      </trkpt>
      <trkpt lat="44.53102" lon="4.2388">
        <ele>439</ele>
        <time>2016-05-15T07:38:21.000Z</time>
      </trkpt>
      <trkpt lat="44.53104" lon="4.23884">
        <ele>439</ele>
        <time>2016-05-15T07:38:22.000Z</time>
      </trkpt>
      <trkpt lat="44.53106" lon="4.23888">
        <ele>439</ele>
        <time>2016-05-15T07:38:23.000Z</time>
      </trkpt>
      <trkpt lat="44.53108" lon="4.23892">
        <ele>439</ele>
        <time>2016-05-15T07:38:24.000Z</time>
      </trkpt>
      <trkpt lat="44.5311" lon="4.23896">
        <ele>439</ele>
        <time>2016-05-15T07:38:25.000Z</time>
      </trkpt>
      <trkpt lat="44.53112" lon="4.239">
        <ele>439</ele>
        <time>2016-05-15T07:38:26.000Z</time>
      </trkpt>
      <trkpt lat="44.53114" lon="4.23904">
        <ele>439</ele>
        <time>2016-05-15T07:38:27.000Z</time>
      </trkpt>
      <trkpt lat="44.53116" lon="4.23908">
        <ele>439</ele>
        <time>2016-05-15T07:38:28.000Z</time>
      </trkpt>
      <trkpt lat="44.53118" lon="4.23911">
        <ele>439</ele>
        <time>2016-05-15T07:38:29.000Z</time>
      </trkpt>
      <trkpt lat="44.53121" lon="4.23914">
        <ele>439</ele>
        <time>2016-05-15T07:38:30.000Z</time>
      </trkpt>
      <trkpt lat="44.53123" lon="4.23917">
        <ele>437</ele>
        <time>2016-05-15T07:38:31.000Z</time>
      </trkpt>
      <trkpt lat="44.53126" lon="4.2392">
        <ele>437</ele>
        <time>2016-05-15T07:38:32.000Z</time>
      </trkpt>
      <trkpt lat="44.53128" lon="4.23923">
        <ele>437</ele>
        <time>2016-05-15T07:38:33.000Z</time>
      </trkpt>
      <trkpt lat="44.5313" lon="4.23926">
        <ele>437</ele>
        <time>2016-05-15T07:38:34.000Z</time>
      </trkpt>
      <trkpt lat="44.53132" lon="4.2393">
        <ele>437</ele>
        <time>2016-05-15T07:38:35.000Z</time>
      </trkpt>
      <trkpt lat="44.53134" lon="4.23934">
        <ele>437</ele>
        <time>2016-05-15T07:38:36.000Z</time>
      </trkpt>
      <trkpt lat="44.53135" lon="4.23938">
        <ele>437</ele>
        <time>2016-05-15T07:38:37.000Z</time>
      </trkpt>
      <trkpt lat="44.53137" lon="4.23942">
        <ele>437</ele>
        <time>2016-05-15T07:38:38.000Z</time>
      </trkpt>
      <trkpt lat="44.53139" lon="4.23947">
        <ele>437</ele>
        <time>2016-05-15T07:38:39.000Z</time>
      </trkpt>
      <trkpt lat="44.5314" lon="4.23951">
        <ele>437</ele>
        <time>2016-05-15T07:38:40.000Z</time>
      </trkpt>
      <trkpt lat="44.53142" lon="4.23955">
        <ele>437</ele>
        <time>2016-05-15T07:38:41.000Z</time>
      </trkpt>
      <trkpt lat="44.53144" lon="4.2396">
        <ele>437</ele>
        <time>2016-05-15T07:38:42.000Z</time>
      </trkpt>
      <trkpt lat="44.53145" lon="4.23965">
        <ele>437</ele>
        <time>2016-05-15T07:38:43.000Z</time>
      </trkpt>
      <trkpt lat="44.53146" lon="4.2397">
        <ele>437</ele>
        <time>2016-05-15T07:38:44.000Z</time>
      </trkpt>
      <trkpt lat="44.53147" lon="4.23974">
        <ele>436</ele>
        <time>2016-05-15T07:38:45.000Z</time>
      </trkpt>
      <trkpt lat="44.53147" lon="4.23979">
        <ele>436</ele>
        <time>2016-05-15T07:38:46.000Z</time>
      </trkpt>
      <trkpt lat="44.53148" lon="4.23984">
        <ele>436</ele>
        <time>2016-05-15T07:38:47.000Z</time>
      </trkpt>
      <trkpt lat="44.53148" lon="4.23989">
        <ele>437</ele>
        <time>2016-05-15T07:38:48.000Z</time>
      </trkpt>
      <trkpt lat="44.53149" lon="4.23995">
        <ele>437</ele>
        <time>2016-05-15T07:38:49.000Z</time>
      </trkpt>
      <trkpt lat="44.5315" lon="4.24001">
        <ele>435</ele>
        <time>2016-05-15T07:38:50.000Z</time>
      </trkpt>
      <trkpt lat="44.53151" lon="4.24007">
        <ele>435</ele>
        <time>2016-05-15T07:38:51.000Z</time>
      </trkpt>
      <trkpt lat="44.53152" lon="4.24013">
        <ele>434</ele>
        <time>2016-05-15T07:38:52.000Z</time>
      </trkpt>
      <trkpt lat="44.53153" lon="4.24019">
        <ele>434</ele>
        <time>2016-05-15T07:38:53.000Z</time>
      </trkpt>
      <trkpt lat="44.53154" lon="4.24026">
        <ele>434</ele>
        <time>2016-05-15T07:38:54.000Z</time>
      </trkpt>
      <trkpt lat="44.53154" lon="4.24032">
        <ele>433</ele>
        <time>2016-05-15T07:38:55.000Z</time>
      </trkpt>
      <trkpt lat="44.53154" lon="4.24038">
        <ele>433</ele>
        <time>2016-05-15T07:38:56.000Z</time>
      </trkpt>
      <trkpt lat="44.53154" lon="4.24044">
        <ele>433</ele>
        <time>2016-05-15T07:38:57.000Z</time>
      </trkpt>
      <trkpt lat="44.53154" lon="4.2405">
        <ele>433</ele>
        <time>2016-05-15T07:38:58.000Z</time>
      </trkpt>
      <trkpt lat="44.53154" lon="4.24056">
        <ele>433</ele>
        <time>2016-05-15T07:38:59.000Z</time>
      </trkpt>
      <trkpt lat="44.53155" lon="4.24061">
        <ele>433</ele>
        <time>2016-05-15T07:39:00.000Z</time>
      </trkpt>
      <trkpt lat="44.53156" lon="4.24067">
        <ele>433</ele>
        <time>2016-05-15T07:39:01.000Z</time>
      </trkpt>
      <trkpt lat="44.53157" lon="4.24072">
        <ele>434</ele>
        <time>2016-05-15T07:39:02.000Z</time>
      </trkpt>
      <trkpt lat="44.53159" lon="4.24077">
        <ele>434</ele>
        <time>2016-05-15T07:39:03.000Z</time>
      </trkpt>
      <trkpt lat="44.53161" lon="4.24082">
        <ele>435</ele>
        <time>2016-05-15T07:39:04.000Z</time>
      </trkpt>
      <trkpt lat="44.53162" lon="4.24087">
        <ele>434</ele>
        <time>2016-05-15T07:39:05.000Z</time>
      </trkpt>
      <trkpt lat="44.53164" lon="4.24091">
        <ele>434</ele>
        <time>2016-05-15T07:39:06.000Z</time>
      </trkpt>
      <trkpt lat="44.53166" lon="4.24095">
        <ele>433</ele>
        <time>2016-05-15T07:39:07.000Z</time>
      </trkpt>
      <trkpt lat="44.53167" lon="4.241">
        <ele>437</ele>
        <time>2016-05-15T07:39:08.000Z</time>
      </trkpt>
      <trkpt lat="44.53169" lon="4.24105">
        <ele>437</ele>
        <time>2016-05-15T07:39:09.000Z</time>
      </trkpt>
      <trkpt lat="44.5317" lon="4.2411">
        <ele>437</ele>
        <time>2016-05-15T07:39:10.000Z</time>
      </trkpt>
      <trkpt lat="44.53172" lon="4.24115">
        <ele>437</ele>
        <time>2016-05-15T07:39:11.000Z</time>
      </trkpt>
      <trkpt lat="44.53173" lon="4.2412">
        <ele>437</ele>
        <time>2016-05-15T07:39:12.000Z</time>
      </trkpt>
      <trkpt lat="44.53175" lon="4.24126">
        <ele>436</ele>
        <time>2016-05-15T07:39:13.000Z</time>
      </trkpt>
      <trkpt lat="44.53176" lon="4.24131">
        <ele>436</ele>
        <time>2016-05-15T07:39:14.000Z</time>
      </trkpt>
      <trkpt lat="44.53178" lon="4.24135">
        <ele>436</ele>
        <time>2016-05-15T07:39:15.000Z</time>
      </trkpt>
      <trkpt lat="44.5318" lon="4.24139">
        <ele>436</ele>
        <time>2016-05-15T07:39:16.000Z</time>
      </trkpt>
      <trkpt lat="44.53182" lon="4.24143">
        <ele>436</ele>
        <time>2016-05-15T07:39:17.000Z</time>
      </trkpt>
      <trkpt lat="44.53184" lon="4.24148">
        <ele>436</ele>
        <time>2016-05-15T07:39:18.000Z</time>
      </trkpt>
      <trkpt lat="44.53187" lon="4.24151">
        <ele>435</ele>
        <time>2016-05-15T07:39:19.000Z</time>
      </trkpt>
      <trkpt lat="44.53188" lon="4.24154">
        <ele>435</ele>
        <time>2016-05-15T07:39:20.000Z</time>
      </trkpt>
      <trkpt lat="44.5319" lon="4.24157">
        <ele>435</ele>
        <time>2016-05-15T07:39:21.000Z</time>
      </trkpt>
      <trkpt lat="44.53191" lon="4.2416">
        <ele>436</ele>
        <time>2016-05-15T07:39:22.000Z</time>
      </trkpt>
      <trkpt lat="44.53193" lon="4.24163">
        <ele>436</ele>
        <time>2016-05-15T07:39:23.000Z</time>
      </trkpt>
      <trkpt lat="44.53194" lon="4.24165">
        <ele>436</ele>
        <time>2016-05-15T07:39:24.000Z</time>
      </trkpt>
      <trkpt lat="44.53195" lon="4.24166">
        <ele>436</ele>
        <time>2016-05-15T07:39:25.000Z</time>
      </trkpt>
      <trkpt lat="44.53195" lon="4.24167">
        <ele>433</ele>
        <time>2016-05-15T07:39:26.000Z</time>
      </trkpt>
      <trkpt lat="44.53195" lon="4.24167">
        <ele>433</ele>
        <time>2016-05-15T07:39:27.000Z</time>
      </trkpt>
      <trkpt lat="44.53195" lon="4.24168">
        <ele>433</ele>
        <time>2016-05-15T07:39:28.000Z</time>
      </trkpt>
      <trkpt lat="44.53195" lon="4.24168">
        <ele>433</ele>
        <time>2016-05-15T07:39:29.000Z</time>
      </trkpt>
      <trkpt lat="44.53196" lon="4.24169">
        <ele>433</ele>
        <time>2016-05-15T07:39:30.000Z</time>
      </trkpt>
      <trkpt lat="44.53196" lon="4.24169">
        <ele>433</ele>
        <time>2016-05-15T07:39:31.000Z</time>
      </trkpt>
      <trkpt lat="44.53196" lon="4.2417">
        <ele>433</ele>
        <time>2016-05-15T07:39:32.000Z</time>
      </trkpt>
      <trkpt lat="44.53197" lon="4.2417">
        <ele>433</ele>
        <time>2016-05-15T07:39:33.000Z</time>
      </trkpt>
      <trkpt lat="44.53197" lon="4.2417">
        <ele>433</ele>
        <time>2016-05-15T07:39:34.000Z</time>
      </trkpt>
      <trkpt lat="44.53198" lon="4.2417">
        <ele>433</ele>
        <time>2016-05-15T07:39:35.000Z</time>
      </trkpt>
      <trkpt lat="44.53198" lon="4.24171">
        <ele>433</ele>
        <time>2016-05-15T07:39:36.000Z</time>
      </trkpt>
      <trkpt lat="44.53199" lon="4.24171">
        <ele>433</ele>
        <time>2016-05-15T07:39:37.000Z</time>
      </trkpt>
      <trkpt lat="44.532" lon="4.24171">
        <ele>433</ele>
        <time>2016-05-15T07:39:38.000Z</time>
      </trkpt>
      <trkpt lat="44.53202" lon="4.24172">
        <ele>433</ele>
        <time>2016-05-15T07:39:39.000Z</time>
      </trkpt>
      <trkpt lat="44.53204" lon="4.24172">
        <ele>433</ele>
        <time>2016-05-15T07:39:40.000Z</time>
      </trkpt>
      <trkpt lat="44.53206" lon="4.24173">
        <ele>433</ele>
        <time>2016-05-15T07:39:41.000Z</time>
      </trkpt>
      <trkpt lat="44.53208" lon="4.24173">
        <ele>433</ele>
        <time>2016-05-15T07:39:42.000Z</time>
      </trkpt>
      <trkpt lat="44.5321" lon="4.24174">
        <ele>434</ele>
        <time>2016-05-15T07:39:43.000Z</time>
      </trkpt>
      <trkpt lat="44.53212" lon="4.24175">
        <ele>434</ele>
        <time>2016-05-15T07:39:44.000Z</time>
      </trkpt>
      <trkpt lat="44.53214" lon="4.24176">
        <ele>434</ele>
        <time>2016-05-15T07:39:45.000Z</time>
      </trkpt>
      <trkpt lat="44.53217" lon="4.24178">
        <ele>434</ele>
        <time>2016-05-15T07:39:46.000Z</time>
      </trkpt>
      <trkpt lat="44.53219" lon="4.24179">
        <ele>434</ele>
        <time>2016-05-15T07:39:47.000Z</time>
      </trkpt>
      <trkpt lat="44.53221" lon="4.24181">
        <ele>434</ele>
        <time>2016-05-15T07:39:48.000Z</time>
      </trkpt>
      <trkpt lat="44.53223" lon="4.24183">
        <ele>434</ele>
        <time>2016-05-15T07:39:49.000Z</time>
      </trkpt>
      <trkpt lat="44.53224" lon="4.24186">
        <ele>434</ele>
        <time>2016-05-15T07:39:50.000Z</time>
      </trkpt>
      <trkpt lat="44.53225" lon="4.24189">
        <ele>434</ele>
        <time>2016-05-15T07:39:51.000Z</time>
      </trkpt>
      <trkpt lat="44.53224" lon="4.24193">
        <ele>434</ele>
        <time>2016-05-15T07:39:52.000Z</time>
      </trkpt>
      <trkpt lat="44.53223" lon="4.24197">
        <ele>434</ele>
        <time>2016-05-15T07:39:53.000Z</time>
      </trkpt>
      <trkpt lat="44.53222" lon="4.24202">
        <ele>433</ele>
        <time>2016-05-15T07:39:54.000Z</time>
      </trkpt>
      <trkpt lat="44.5322" lon="4.24208">
        <ele>433</ele>
        <time>2016-05-15T07:39:55.000Z</time>
      </trkpt>
      <trkpt lat="44.53218" lon="4.24214">
        <ele>433</ele>
        <time>2016-05-15T07:39:56.000Z</time>
      </trkpt>
      <trkpt lat="44.53216" lon="4.24221">
        <ele>432</ele>
        <time>2016-05-15T07:39:57.000Z</time>
      </trkpt>
      <trkpt lat="44.53214" lon="4.24228">
        <ele>432</ele>
        <time>2016-05-15T07:39:58.000Z</time>
      </trkpt>
      <trkpt lat="44.53212" lon="4.24235">
        <ele>432</ele>
        <time>2016-05-15T07:39:59.000Z</time>
      </trkpt>
      <trkpt lat="44.53211" lon="4.24242">
        <ele>431</ele>
        <time>2016-05-15T07:40:00.000Z</time>
      </trkpt>
      <trkpt lat="44.53209" lon="4.24248">
        <ele>431</ele>
        <time>2016-05-15T07:40:01.000Z</time>
      </trkpt>
      <trkpt lat="44.53208" lon="4.24254">
        <ele>427</ele>
        <time>2016-05-15T07:40:02.000Z</time>
      </trkpt>
      <trkpt lat="44.53206" lon="4.2426">
        <ele>426</ele>
        <time>2016-05-15T07:40:03.000Z</time>
      </trkpt>
      <trkpt lat="44.53206" lon="4.24267">
        <ele>426</ele>
        <time>2016-05-15T07:40:04.000Z</time>
      </trkpt>
      <trkpt lat="44.53205" lon="4.24273">
        <ele>426</ele>
        <time>2016-05-15T07:40:05.000Z</time>
      </trkpt>
      <trkpt lat="44.53204" lon="4.24277">
        <ele>426</ele>
        <time>2016-05-15T07:40:06.000Z</time>
      </trkpt>
      <trkpt lat="44.53202" lon="4.24283">
        <ele>426</ele>
        <time>2016-05-15T07:40:07.000Z</time>
      </trkpt>
      <trkpt lat="44.53202" lon="4.24288">
        <ele>425</ele>
        <time>2016-05-15T07:40:08.000Z</time>
      </trkpt>
      <trkpt lat="44.53201" lon="4.24295">
        <ele>425</ele>
        <time>2016-05-15T07:40:09.000Z</time>
      </trkpt>
      <trkpt lat="44.532" lon="4.24301">
        <ele>425</ele>
        <time>2016-05-15T07:40:10.000Z</time>
      </trkpt>
      <trkpt lat="44.53199" lon="4.24306">
        <ele>424</ele>
        <time>2016-05-15T07:40:11.000Z</time>
      </trkpt>
      <trkpt lat="44.53199" lon="4.24312">
        <ele>424</ele>
        <time>2016-05-15T07:40:12.000Z</time>
      </trkpt>
      <trkpt lat="44.53199" lon="4.24317">
        <ele>424</ele>
        <time>2016-05-15T07:40:13.000Z</time>
      </trkpt>
      <trkpt lat="44.53197" lon="4.24324">
        <ele>423</ele>
        <time>2016-05-15T07:40:14.000Z</time>
      </trkpt>
      <trkpt lat="44.53196" lon="4.24331">
        <ele>423</ele>
        <time>2016-05-15T07:40:15.000Z</time>
      </trkpt>
      <trkpt lat="44.53196" lon="4.24338">
        <ele>421</ele>
        <time>2016-05-15T07:40:16.000Z</time>
      </trkpt>
      <trkpt lat="44.53198" lon="4.24345">
        <ele>422</ele>
        <time>2016-05-15T07:40:17.000Z</time>
      </trkpt>
      <trkpt lat="44.532" lon="4.24351">
        <ele>422</ele>
        <time>2016-05-15T07:40:18.000Z</time>
      </trkpt>
      <trkpt lat="44.53201" lon="4.24357">
        <ele>422</ele>
        <time>2016-05-15T07:40:19.000Z</time>
      </trkpt>
      <trkpt lat="44.532" lon="4.24363">
        <ele>422</ele>
        <time>2016-05-15T07:40:20.000Z</time>
      </trkpt>
      <trkpt lat="44.53198" lon="4.24367">
        <ele>422</ele>
        <time>2016-05-15T07:40:21.000Z</time>
      </trkpt>
      <trkpt lat="44.53196" lon="4.24371">
        <ele>422</ele>
        <time>2016-05-15T07:40:22.000Z</time>
      </trkpt>
      <trkpt lat="44.53194" lon="4.24374">
        <ele>422</ele>
        <time>2016-05-15T07:40:23.000Z</time>
      </trkpt>
      <trkpt lat="44.53191" lon="4.24376">
        <ele>422</ele>
        <time>2016-05-15T07:40:24.000Z</time>
      </trkpt>
      <trkpt lat="44.53188" lon="4.24377">
        <ele>422</ele>
        <time>2016-05-15T07:40:25.000Z</time>
      </trkpt>
      <trkpt lat="44.53185" lon="4.2438">
        <ele>421</ele>
        <time>2016-05-15T07:40:26.000Z</time>
      </trkpt>
      <trkpt lat="44.53182" lon="4.24382">
        <ele>421</ele>
        <time>2016-05-15T07:40:27.000Z</time>
      </trkpt>
      <trkpt lat="44.53179" lon="4.24383">
        <ele>421</ele>
        <time>2016-05-15T07:40:28.000Z</time>
      </trkpt>
      <trkpt lat="44.53176" lon="4.24384">
        <ele>421</ele>
        <time>2016-05-15T07:40:29.000Z</time>
      </trkpt>
      <trkpt lat="44.53173" lon="4.24386">
        <ele>421</ele>
        <time>2016-05-15T07:40:30.000Z</time>
      </trkpt>
      <trkpt lat="44.5317" lon="4.24389">
        <ele>420</ele>
        <time>2016-05-15T07:40:31.000Z</time>
      </trkpt>
      <trkpt lat="44.53167" lon="4.24392">
        <ele>420</ele>
        <time>2016-05-15T07:40:32.000Z</time>
      </trkpt>
      <trkpt lat="44.53165" lon="4.24396">
        <ele>413</ele>
        <time>2016-05-15T07:40:33.000Z</time>
      </trkpt>
      <trkpt lat="44.53162" lon="4.244">
        <ele>414</ele>
        <time>2016-05-15T07:40:34.000Z</time>
      </trkpt>
      <trkpt lat="44.53159" lon="4.24404">
        <ele>414</ele>
        <time>2016-05-15T07:40:35.000Z</time>
      </trkpt>
      <trkpt lat="44.53157" lon="4.24407">
        <ele>414</ele>
        <time>2016-05-15T07:40:36.000Z</time>
      </trkpt>
      <trkpt lat="44.53154" lon="4.24411">
        <ele>414</ele>
        <time>2016-05-15T07:40:37.000Z</time>
      </trkpt>
      <trkpt lat="44.53151" lon="4.24414">
        <ele>413</ele>
        <time>2016-05-15T07:40:38.000Z</time>
      </trkpt>
      <trkpt lat="44.53148" lon="4.24417">
        <ele>416</ele>
        <time>2016-05-15T07:40:39.000Z</time>
      </trkpt>
      <trkpt lat="44.53145" lon="4.24421">
        <ele>416</ele>
        <time>2016-05-15T07:40:40.000Z</time>
      </trkpt>
      <trkpt lat="44.53142" lon="4.24424">
        <ele>416</ele>
        <time>2016-05-15T07:40:41.000Z</time>
      </trkpt>
      <trkpt lat="44.5314" lon="4.24427">
        <ele>416</ele>
        <time>2016-05-15T07:40:42.000Z</time>
      </trkpt>
      <trkpt lat="44.53137" lon="4.24431">
        <ele>416</ele>
        <time>2016-05-15T07:40:43.000Z</time>
      </trkpt>
      <trkpt lat="44.53134" lon="4.24434">
        <ele>416</ele>
        <time>2016-05-15T07:40:44.000Z</time>
      </trkpt>
      <trkpt lat="44.53131" lon="4.24438">
        <ele>416</ele>
        <time>2016-05-15T07:40:45.000Z</time>
      </trkpt>
      <trkpt lat="44.53128" lon="4.24441">
        <ele>416</ele>
        <time>2016-05-15T07:40:46.000Z</time>
      </trkpt>
      <trkpt lat="44.53126" lon="4.24445">
        <ele>416</ele>
        <time>2016-05-15T07:40:47.000Z</time>
      </trkpt>
      <trkpt lat="44.53123" lon="4.24449">
        <ele>416</ele>
        <time>2016-05-15T07:40:48.000Z</time>
      </trkpt>
      <trkpt lat="44.5312" lon="4.24453">
        <ele>416</ele>
        <time>2016-05-15T07:40:49.000Z</time>
      </trkpt>
      <trkpt lat="44.53118" lon="4.24457">
        <ele>416</ele>
        <time>2016-05-15T07:40:50.000Z</time>
      </trkpt>
      <trkpt lat="44.53115" lon="4.24461">
        <ele>416</ele>
        <time>2016-05-15T07:40:51.000Z</time>
      </trkpt>
      <trkpt lat="44.53112" lon="4.24465">
        <ele>416</ele>
        <time>2016-05-15T07:40:52.000Z</time>
      </trkpt>
      <trkpt lat="44.53108" lon="4.24469">
        <ele>416</ele>
        <time>2016-05-15T07:40:53.000Z</time>
      </trkpt>
      <trkpt lat="44.53105" lon="4.24472">
        <ele>417</ele>
        <time>2016-05-15T07:40:54.000Z</time>
      </trkpt>
      <trkpt lat="44.53102" lon="4.24476">
        <ele>417</ele>
        <time>2016-05-15T07:40:55.000Z</time>
      </trkpt>
      <trkpt lat="44.53099" lon="4.24479">
        <ele>417</ele>
        <time>2016-05-15T07:40:56.000Z</time>
      </trkpt>
      <trkpt lat="44.53096" lon="4.24482">
        <ele>417</ele>
        <time>2016-05-15T07:40:57.000Z</time>
      </trkpt>
      <trkpt lat="44.53092" lon="4.24485">
        <ele>417</ele>
        <time>2016-05-15T07:40:58.000Z</time>
      </trkpt>
      <trkpt lat="44.53089" lon="4.24488">
        <ele>417</ele>
        <time>2016-05-15T07:40:59.000Z</time>
      </trkpt>
      <trkpt lat="44.53086" lon="4.24491">
        <ele>417</ele>
        <time>2016-05-15T07:41:00.000Z</time>
      </trkpt>
      <trkpt lat="44.53082" lon="4.24494">
        <ele>415</ele>
        <time>2016-05-15T07:41:01.000Z</time>
      </trkpt>
      <trkpt lat="44.53078" lon="4.24496">
        <ele>414</ele>
        <time>2016-05-15T07:41:02.000Z</time>
      </trkpt>
      <trkpt lat="44.53074" lon="4.24498">
        <ele>414</ele>
        <time>2016-05-15T07:41:03.000Z</time>
      </trkpt>
      <trkpt lat="44.53071" lon="4.245">
        <ele>412</ele>
        <time>2016-05-15T07:41:04.000Z</time>
      </trkpt>
      <trkpt lat="44.53067" lon="4.24502">
        <ele>420</ele>
        <time>2016-05-15T07:41:05.000Z</time>
      </trkpt>
      <trkpt lat="44.53063" lon="4.24503">
        <ele>420</ele>
        <time>2016-05-15T07:41:06.000Z</time>
      </trkpt>
      <trkpt lat="44.53058" lon="4.24504">
        <ele>420</ele>
        <time>2016-05-15T07:41:07.000Z</time>
      </trkpt>
      <trkpt lat="44.53054" lon="4.24506">
        <ele>420</ele>
        <time>2016-05-15T07:41:08.000Z</time>
      </trkpt>
      <trkpt lat="44.5305" lon="4.24507">
        <ele>419</ele>
        <time>2016-05-15T07:41:09.000Z</time>
      </trkpt>
      <trkpt lat="44.53046" lon="4.24507">
        <ele>419</ele>
        <time>2016-05-15T07:41:10.000Z</time>
      </trkpt>
      <trkpt lat="44.53041" lon="4.24508">
        <ele>419</ele>
        <time>2016-05-15T07:41:11.000Z</time>
      </trkpt>
      <trkpt lat="44.53037" lon="4.24509">
        <ele>418</ele>
        <time>2016-05-15T07:41:12.000Z</time>
      </trkpt>
      <trkpt lat="44.53033" lon="4.2451">
        <ele>418</ele>
        <time>2016-05-15T07:41:13.000Z</time>
      </trkpt>
      <trkpt lat="44.53029" lon="4.2451">
        <ele>417</ele>
        <time>2016-05-15T07:41:14.000Z</time>
      </trkpt>
      <trkpt lat="44.53024" lon="4.24511">
        <ele>416</ele>
        <time>2016-05-15T07:41:15.000Z</time>
      </trkpt>
      <trkpt lat="44.5302" lon="4.24512">
        <ele>415</ele>
        <time>2016-05-15T07:41:16.000Z</time>
      </trkpt>
      <trkpt lat="44.53016" lon="4.24513">
        <ele>415</ele>
        <time>2016-05-15T07:41:17.000Z</time>
      </trkpt>
      <trkpt lat="44.53012" lon="4.24515">
        <ele>414</ele>
        <time>2016-05-15T07:41:18.000Z</time>
      </trkpt>
      <trkpt lat="44.53009" lon="4.24516">
        <ele>414</ele>
        <time>2016-05-15T07:41:19.000Z</time>
      </trkpt>
      <trkpt lat="44.53005" lon="4.24518">
        <ele>414</ele>
        <time>2016-05-15T07:41:20.000Z</time>
      </trkpt>
      <trkpt lat="44.53001" lon="4.24519">
        <ele>414</ele>
        <time>2016-05-15T07:41:21.000Z</time>
      </trkpt>
      <trkpt lat="44.52998" lon="4.24521">
        <ele>408</ele>
        <time>2016-05-15T07:41:22.000Z</time>
      </trkpt>
      <trkpt lat="44.52994" lon="4.24523">
        <ele>409</ele>
        <time>2016-05-15T07:41:23.000Z</time>
      </trkpt>
      <trkpt lat="44.52991" lon="4.24525">
        <ele>409</ele>
        <time>2016-05-15T07:41:24.000Z</time>
      </trkpt>
      <trkpt lat="44.52987" lon="4.24527">
        <ele>409</ele>
        <time>2016-05-15T07:41:25.000Z</time>
      </trkpt>
      <trkpt lat="44.52983" lon="4.2453">
        <ele>410</ele>
        <time>2016-05-15T07:41:26.000Z</time>
      </trkpt>
      <trkpt lat="44.5298" lon="4.24532">
        <ele>410</ele>
        <time>2016-05-15T07:41:27.000Z</time>
      </trkpt>
      <trkpt lat="44.52976" lon="4.24534">
        <ele>410</ele>
        <time>2016-05-15T07:41:28.000Z</time>
      </trkpt>
      <trkpt lat="44.52972" lon="4.24536">
        <ele>410</ele>
        <time>2016-05-15T07:41:29.000Z</time>
      </trkpt>
      <trkpt lat="44.52969" lon="4.24537">
        <ele>410</ele>
        <time>2016-05-15T07:41:30.000Z</time>
      </trkpt>
      <trkpt lat="44.52965" lon="4.24539">
        <ele>410</ele>
        <time>2016-05-15T07:41:31.000Z</time>
      </trkpt>
      <trkpt lat="44.52961" lon="4.24541">
        <ele>410</ele>
        <time>2016-05-15T07:41:32.000Z</time>
      </trkpt>
      <trkpt lat="44.52958" lon="4.24543">
        <ele>410</ele>
        <time>2016-05-15T07:41:33.000Z</time>
      </trkpt>
      <trkpt lat="44.52954" lon="4.24545">
        <ele>410</ele>
        <time>2016-05-15T07:41:34.000Z</time>
      </trkpt>
      <trkpt lat="44.52951" lon="4.24547">
        <ele>410</ele>
        <time>2016-05-15T07:41:35.000Z</time>
      </trkpt>
      <trkpt lat="44.52947" lon="4.24549">
        <ele>410</ele>
        <time>2016-05-15T07:41:36.000Z</time>
      </trkpt>
      <trkpt lat="44.52943" lon="4.24551">
        <ele>410</ele>
        <time>2016-05-15T07:41:37.000Z</time>
      </trkpt>
      <trkpt lat="44.5294" lon="4.24552">
        <ele>410</ele>
        <time>2016-05-15T07:41:38.000Z</time>
      </trkpt>
      <trkpt lat="44.52936" lon="4.24553">
        <ele>410</ele>
        <time>2016-05-15T07:41:39.000Z</time>
      </trkpt>
      <trkpt lat="44.52932" lon="4.24555">
        <ele>410</ele>
        <time>2016-05-15T07:41:40.000Z</time>
      </trkpt>
      <trkpt lat="44.52928" lon="4.24557">
        <ele>410</ele>
        <time>2016-05-15T07:41:41.000Z</time>
      </trkpt>
      <trkpt lat="44.52924" lon="4.2456">
        <ele>410</ele>
        <time>2016-05-15T07:41:42.000Z</time>
      </trkpt>
      <trkpt lat="44.52921" lon="4.24563">
        <ele>411</ele>
        <time>2016-05-15T07:41:43.000Z</time>
      </trkpt>
      <trkpt lat="44.52918" lon="4.24566">
        <ele>411</ele>
        <time>2016-05-15T07:41:44.000Z</time>
      </trkpt>
      <trkpt lat="44.52914" lon="4.24569">
        <ele>404</ele>
        <time>2016-05-15T07:41:45.000Z</time>
      </trkpt>
      <trkpt lat="44.5291" lon="4.24571">
        <ele>405</ele>
        <time>2016-05-15T07:41:46.000Z</time>
      </trkpt>
      <trkpt lat="44.52906" lon="4.24574">
        <ele>404</ele>
        <time>2016-05-15T07:41:47.000Z</time>
      </trkpt>
      <trkpt lat="44.52902" lon="4.24576">
        <ele>403</ele>
        <time>2016-05-15T07:41:48.000Z</time>
      </trkpt>
      <trkpt lat="44.52897" lon="4.24578">
        <ele>402</ele>
        <time>2016-05-15T07:41:49.000Z</time>
      </trkpt>
      <trkpt lat="44.52893" lon="4.24581">
        <ele>401</ele>
        <time>2016-05-15T07:41:50.000Z</time>
      </trkpt>
      <trkpt lat="44.52889" lon="4.24584">
        <ele>405</ele>
        <time>2016-05-15T07:41:51.000Z</time>
      </trkpt>
      <trkpt lat="44.52886" lon="4.24589">
        <ele>405</ele>
        <time>2016-05-15T07:41:52.000Z</time>
      </trkpt>
      <trkpt lat="44.52883" lon="4.24594">
        <ele>404</ele>
        <time>2016-05-15T07:41:53.000Z</time>
      </trkpt>
      <trkpt lat="44.52881" lon="4.24601">
        <ele>404</ele>
        <time>2016-05-15T07:41:54.000Z</time>
      </trkpt>
      <trkpt lat="44.5288" lon="4.24608">
        <ele>404</ele>
        <time>2016-05-15T07:41:55.000Z</time>
      </trkpt>
      <trkpt lat="44.52879" lon="4.24616">
        <ele>404</ele>
        <time>2016-05-15T07:41:56.000Z</time>
      </trkpt>
      <trkpt lat="44.52879" lon="4.24624">
        <ele>404</ele>
        <time>2016-05-15T07:41:57.000Z</time>
      </trkpt>
      <trkpt lat="44.52879" lon="4.24634">
        <ele>405</ele>
        <time>2016-05-15T07:41:58.000Z</time>
      </trkpt>
      <trkpt lat="44.5288" lon="4.24643">
        <ele>405</ele>
        <time>2016-05-15T07:41:59.000Z</time>
      </trkpt>
      <trkpt lat="44.5288" lon="4.24652">
        <ele>406</ele>
        <time>2016-05-15T07:42:00.000Z</time>
      </trkpt>
      <trkpt lat="44.52879" lon="4.24661">
        <ele>406</ele>
        <time>2016-05-15T07:42:01.000Z</time>
      </trkpt>
      <trkpt lat="44.52877" lon="4.24668">
        <ele>407</ele>
        <time>2016-05-15T07:42:02.000Z</time>
      </trkpt>
      <trkpt lat="44.52874" lon="4.24674">
        <ele>407</ele>
        <time>2016-05-15T07:42:03.000Z</time>
      </trkpt>
      <trkpt lat="44.52873" lon="4.24679">
        <ele>406</ele>
        <time>2016-05-15T07:42:04.000Z</time>
      </trkpt>
      <trkpt lat="44.52871" lon="4.24683">
        <ele>406</ele>
        <time>2016-05-15T07:42:05.000Z</time>
      </trkpt>
      <trkpt lat="44.5287" lon="4.24686">
        <ele>406</ele>
        <time>2016-05-15T07:42:06.000Z</time>
      </trkpt>
      <trkpt lat="44.52869" lon="4.24689">
        <ele>405</ele>
        <time>2016-05-15T07:42:07.000Z</time>
      </trkpt>
      <trkpt lat="44.52868" lon="4.24693">
        <ele>405</ele>
        <time>2016-05-15T07:42:08.000Z</time>
      </trkpt>
      <trkpt lat="44.52867" lon="4.24695">
        <ele>405</ele>
        <time>2016-05-15T07:42:09.000Z</time>
      </trkpt>
      <trkpt lat="44.52866" lon="4.24697">
        <ele>405</ele>
        <time>2016-05-15T07:42:10.000Z</time>
      </trkpt>
      <trkpt lat="44.52866" lon="4.24698">
        <ele>405</ele>
        <time>2016-05-15T07:42:11.000Z</time>
      </trkpt>
      <trkpt lat="44.52866" lon="4.24698">
        <ele>405</ele>
        <time>2016-05-15T07:42:12.000Z</time>
      </trkpt>
      <trkpt lat="44.52866" lon="4.24698">
        <ele>405</ele>
        <time>2016-05-15T07:42:13.000Z</time>
      </trkpt>
      <trkpt lat="44.52865" lon="4.24699">
        <ele>405</ele>
        <time>2016-05-15T07:42:14.000Z</time>
      </trkpt>
      <trkpt lat="44.52865" lon="4.24701">
        <ele>405</ele>
        <time>2016-05-15T07:42:15.000Z</time>
      </trkpt>
      <trkpt lat="44.52864" lon="4.24702">
        <ele>405</ele>
        <time>2016-05-15T07:42:16.000Z</time>
      </trkpt>
      <trkpt lat="44.52864" lon="4.24704">
        <ele>405</ele>
        <time>2016-05-15T07:42:17.000Z</time>
      </trkpt>
      <trkpt lat="44.52863" lon="4.24705">
        <ele>405</ele>
        <time>2016-05-15T07:42:18.000Z</time>
      </trkpt>
      <trkpt lat="44.52863" lon="4.24706">
        <ele>405</ele>
        <time>2016-05-15T07:42:19.000Z</time>
      </trkpt>
      <trkpt lat="44.52862" lon="4.24707">
        <ele>405</ele>
        <time>2016-05-15T07:42:20.000Z</time>
      </trkpt>
      <trkpt lat="44.52862" lon="4.24708">
        <ele>404</ele>
        <time>2016-05-15T07:42:21.000Z</time>
      </trkpt>
      <trkpt lat="44.52862" lon="4.24709">
        <ele>404</ele>
        <time>2016-05-15T07:42:22.000Z</time>
      </trkpt>
      <trkpt lat="44.52862" lon="4.2471">
        <ele>404</ele>
        <time>2016-05-15T07:42:23.000Z</time>
      </trkpt>
      <trkpt lat="44.52862" lon="4.2471">
        <ele>404</ele>
        <time>2016-05-15T07:42:24.000Z</time>
      </trkpt>
      <trkpt lat="44.52862" lon="4.2471">
        <ele>404</ele>
        <time>2016-05-15T07:42:25.000Z</time>
      </trkpt>
      <trkpt lat="44.52862" lon="4.2471">
        <ele>404</ele>
        <time>2016-05-15T07:42:26.000Z</time>
      </trkpt>
      <trkpt lat="44.52862" lon="4.2471">
        <ele>405</ele>
        <time>2016-05-15T07:42:27.000Z</time>
      </trkpt>
      <trkpt lat="44.52862" lon="4.2471">
        <ele>405</ele>
        <time>2016-05-15T07:42:28.000Z</time>
      </trkpt>
      <trkpt lat="44.52862" lon="4.2471">
        <ele>405</ele>
        <time>2016-05-15T07:42:29.000Z</time>
      </trkpt>
      <trkpt lat="44.52862" lon="4.2471">
        <ele>405</ele>
        <time>2016-05-15T07:42:30.000Z</time>
      </trkpt>
      <trkpt lat="44.52862" lon="4.2471">
        <ele>405</ele>
        <time>2016-05-15T07:42:31.000Z</time>
      </trkpt>
      <trkpt lat="44.52862" lon="4.2471">
        <ele>405</ele>
        <time>2016-05-15T07:42:32.000Z</time>
      </trkpt>
      <trkpt lat="44.52862" lon="4.2471">
        <ele>405</ele>
        <time>2016-05-15T07:42:33.000Z</time>
      </trkpt>
      <trkpt lat="44.52862" lon="4.2471">
        <ele>405</ele>
        <time>2016-05-15T07:42:34.000Z</time>
      </trkpt>
      <trkpt lat="44.52862" lon="4.2471">
        <ele>405</ele>
        <time>2016-05-15T07:42:35.000Z</time>
      </trkpt>
      <trkpt lat="44.52862" lon="4.2471">
        <ele>405</ele>
        <time>2016-05-15T07:42:36.000Z</time>
      </trkpt>
      <trkpt lat="44.52862" lon="4.2471">
        <ele>405</ele>
        <time>2016-05-15T07:42:37.000Z</time>
      </trkpt>
      <trkpt lat="44.52848" lon="4.24729">
        <ele>402</ele>
        <time>2016-05-15T07:42:38.000Z</time>
      </trkpt>
      <trkpt lat="44.52848" lon="4.24734">
        <ele>401</ele>
        <time>2016-05-15T07:42:39.000Z</time>
      </trkpt>
      <trkpt lat="44.52847" lon="4.24739">
        <ele>400</ele>
        <time>2016-05-15T07:42:40.000Z</time>
      </trkpt>
      <trkpt lat="44.52848" lon="4.24745">
        <ele>400</ele>
        <time>2016-05-15T07:42:41.000Z</time>
      </trkpt>
      <trkpt lat="44.52849" lon="4.2475">
        <ele>400</ele>
        <time>2016-05-15T07:42:42.000Z</time>
      </trkpt>
      <trkpt lat="44.52851" lon="4.24754">
        <ele>398</ele>
        <time>2016-05-15T07:42:43.000Z</time>
      </trkpt>
      <trkpt lat="44.52854" lon="4.24758">
        <ele>399</ele>
        <time>2016-05-15T07:42:44.000Z</time>
      </trkpt>
      <trkpt lat="44.52856" lon="4.24762">
        <ele>400</ele>
        <time>2016-05-15T07:42:45.000Z</time>
      </trkpt>
      <trkpt lat="44.52859" lon="4.24766">
        <ele>400</ele>
        <time>2016-05-15T07:42:46.000Z</time>
      </trkpt>
      <trkpt lat="44.52861" lon="4.24771">
        <ele>400</ele>
        <time>2016-05-15T07:42:47.000Z</time>
      </trkpt>
      <trkpt lat="44.52864" lon="4.24775">
        <ele>401</ele>
        <time>2016-05-15T07:42:48.000Z</time>
      </trkpt>
      <trkpt lat="44.52867" lon="4.24779">
        <ele>401</ele>
        <time>2016-05-15T07:42:49.000Z</time>
      </trkpt>
      <trkpt lat="44.52869" lon="4.24784">
        <ele>401</ele>
        <time>2016-05-15T07:42:50.000Z</time>
      </trkpt>
      <trkpt lat="44.52872" lon="4.24788">
        <ele>401</ele>
        <time>2016-05-15T07:42:51.000Z</time>
      </trkpt>
      <trkpt lat="44.52875" lon="4.24792">
        <ele>401</ele>
        <time>2016-05-15T07:42:52.000Z</time>
      </trkpt>
      <trkpt lat="44.52878" lon="4.24796">
        <ele>402</ele>
        <time>2016-05-15T07:42:53.000Z</time>
      </trkpt>
      <trkpt lat="44.52881" lon="4.24801">
        <ele>402</ele>
        <time>2016-05-15T07:42:54.000Z</time>
      </trkpt>
      <trkpt lat="44.52884" lon="4.24806">
        <ele>402</ele>
        <time>2016-05-15T07:42:55.000Z</time>
      </trkpt>
      <trkpt lat="44.52886" lon="4.24811">
        <ele>402</ele>
        <time>2016-05-15T07:42:56.000Z</time>
      </trkpt>
      <trkpt lat="44.52889" lon="4.24816">
        <ele>402</ele>
        <time>2016-05-15T07:42:57.000Z</time>
      </trkpt>
      <trkpt lat="44.52892" lon="4.24821">
        <ele>402</ele>
        <time>2016-05-15T07:42:58.000Z</time>
      </trkpt>
      <trkpt lat="44.52894" lon="4.24826">
        <ele>403</ele>
        <time>2016-05-15T07:42:59.000Z</time>
      </trkpt>
      <trkpt lat="44.52896" lon="4.24831">
        <ele>403</ele>
        <time>2016-05-15T07:43:00.000Z</time>
      </trkpt>
      <trkpt lat="44.52898" lon="4.24835">
        <ele>398</ele>
        <time>2016-05-15T07:43:01.000Z</time>
      </trkpt>
      <trkpt lat="44.529" lon="4.2484">
        <ele>398</ele>
        <time>2016-05-15T07:43:02.000Z</time>
      </trkpt>
      <trkpt lat="44.52902" lon="4.24844">
        <ele>398</ele>
        <time>2016-05-15T07:43:03.000Z</time>
      </trkpt>
      <trkpt lat="44.52905" lon="4.24848">
        <ele>398</ele>
        <time>2016-05-15T07:43:04.000Z</time>
      </trkpt>
      <trkpt lat="44.52907" lon="4.24851">
        <ele>397</ele>
        <time>2016-05-15T07:43:05.000Z</time>
      </trkpt>
      <trkpt lat="44.52909" lon="4.24855">
        <ele>397</ele>
        <time>2016-05-15T07:43:06.000Z</time>
      </trkpt>
      <trkpt lat="44.52911" lon="4.24859">
        <ele>396</ele>
        <time>2016-05-15T07:43:07.000Z</time>
      </trkpt>
      <trkpt lat="44.52913" lon="4.24863">
        <ele>395</ele>
        <time>2016-05-15T07:43:08.000Z</time>
      </trkpt>
      <trkpt lat="44.52916" lon="4.24866">
        <ele>395</ele>
        <time>2016-05-15T07:43:09.000Z</time>
      </trkpt>
      <trkpt lat="44.52918" lon="4.24869">
        <ele>407</ele>
        <time>2016-05-15T07:43:10.000Z</time>
      </trkpt>
      <trkpt lat="44.5292" lon="4.24873">
        <ele>407</ele>
        <time>2016-05-15T07:43:11.000Z</time>
      </trkpt>
      <trkpt lat="44.52923" lon="4.24876">
        <ele>407</ele>
        <time>2016-05-15T07:43:12.000Z</time>
      </trkpt>
      <trkpt lat="44.52925" lon="4.2488">
        <ele>406</ele>
        <time>2016-05-15T07:43:13.000Z</time>
      </trkpt>
      <trkpt lat="44.52928" lon="4.24883">
        <ele>406</ele>
        <time>2016-05-15T07:43:14.000Z</time>
      </trkpt>
      <trkpt lat="44.5293" lon="4.24887">
        <ele>405</ele>
        <time>2016-05-15T07:43:15.000Z</time>
      </trkpt>
      <trkpt lat="44.52933" lon="4.24891">
        <ele>405</ele>
        <time>2016-05-15T07:43:16.000Z</time>
      </trkpt>
      <trkpt lat="44.52935" lon="4.24895">
        <ele>405</ele>
        <time>2016-05-15T07:43:17.000Z</time>
      </trkpt>
      <trkpt lat="44.52938" lon="4.24899">
        <ele>404</ele>
        <time>2016-05-15T07:43:18.000Z</time>
      </trkpt>
      <trkpt lat="44.5294" lon="4.24902">
        <ele>405</ele>
        <time>2016-05-15T07:43:19.000Z</time>
      </trkpt>
      <trkpt lat="44.52943" lon="4.24905">
        <ele>405</ele>
        <time>2016-05-15T07:43:20.000Z</time>
      </trkpt>
      <trkpt lat="44.52946" lon="4.24908">
        <ele>405</ele>
        <time>2016-05-15T07:43:21.000Z</time>
      </trkpt>
      <trkpt lat="44.52949" lon="4.24911">
        <ele>406</ele>
        <time>2016-05-15T07:43:22.000Z</time>
      </trkpt>
      <trkpt lat="44.52952" lon="4.24913">
        <ele>407</ele>
        <time>2016-05-15T07:43:23.000Z</time>
      </trkpt>
      <trkpt lat="44.52955" lon="4.24916">
        <ele>407</ele>
        <time>2016-05-15T07:43:24.000Z</time>
      </trkpt>
      <trkpt lat="44.52958" lon="4.24919">
        <ele>405</ele>
        <time>2016-05-15T07:43:25.000Z</time>
      </trkpt>
      <trkpt lat="44.52961" lon="4.24922">
        <ele>406</ele>
        <time>2016-05-15T07:43:26.000Z</time>
      </trkpt>
      <trkpt lat="44.52963" lon="4.24925">
        <ele>406</ele>
        <time>2016-05-15T07:43:27.000Z</time>
      </trkpt>
      <trkpt lat="44.52965" lon="4.24928">
        <ele>407</ele>
        <time>2016-05-15T07:43:28.000Z</time>
      </trkpt>
      <trkpt lat="44.52968" lon="4.24932">
        <ele>407</ele>
        <time>2016-05-15T07:43:29.000Z</time>
      </trkpt>
      <trkpt lat="44.52969" lon="4.24935">
        <ele>407</ele>
        <time>2016-05-15T07:43:30.000Z</time>
      </trkpt>
      <trkpt lat="44.5297" lon="4.24939">
        <ele>408</ele>
        <time>2016-05-15T07:43:31.000Z</time>
      </trkpt>
      <trkpt lat="44.52971" lon="4.24943">
        <ele>408</ele>
        <time>2016-05-15T07:43:32.000Z</time>
      </trkpt>
      <trkpt lat="44.52971" lon="4.24948">
        <ele>408</ele>
        <time>2016-05-15T07:43:33.000Z</time>
      </trkpt>
      <trkpt lat="44.5297" lon="4.24953">
        <ele>408</ele>
        <time>2016-05-15T07:43:34.000Z</time>
      </trkpt>
      <trkpt lat="44.52968" lon="4.24958">
        <ele>408</ele>
        <time>2016-05-15T07:43:35.000Z</time>
      </trkpt>
      <trkpt lat="44.52966" lon="4.24962">
        <ele>408</ele>
        <time>2016-05-15T07:43:36.000Z</time>
      </trkpt>
      <trkpt lat="44.52964" lon="4.24967">
        <ele>408</ele>
        <time>2016-05-15T07:43:37.000Z</time>
      </trkpt>
      <trkpt lat="44.52961" lon="4.24971">
        <ele>408</ele>
        <time>2016-05-15T07:43:38.000Z</time>
      </trkpt>
      <trkpt lat="44.52959" lon="4.24976">
        <ele>408</ele>
        <time>2016-05-15T07:43:39.000Z</time>
      </trkpt>
      <trkpt lat="44.52957" lon="4.2498">
        <ele>408</ele>
        <time>2016-05-15T07:43:40.000Z</time>
      </trkpt>
      <trkpt lat="44.52954" lon="4.24985">
        <ele>407</ele>
        <time>2016-05-15T07:43:41.000Z</time>
      </trkpt>
      <trkpt lat="44.52952" lon="4.24989">
        <ele>407</ele>
        <time>2016-05-15T07:43:42.000Z</time>
      </trkpt>
      <trkpt lat="44.5295" lon="4.24992">
        <ele>407</ele>
        <time>2016-05-15T07:43:43.000Z</time>
      </trkpt>
      <trkpt lat="44.52947" lon="4.24996">
        <ele>406</ele>
        <time>2016-05-15T07:43:44.000Z</time>
      </trkpt>
      <trkpt lat="44.52944" lon="4.24999">
        <ele>405</ele>
        <time>2016-05-15T07:43:45.000Z</time>
      </trkpt>
      <trkpt lat="44.52941" lon="4.25002">
        <ele>413</ele>
        <time>2016-05-15T07:43:46.000Z</time>
      </trkpt>
      <trkpt lat="44.52937" lon="4.25004">
        <ele>412</ele>
        <time>2016-05-15T07:43:47.000Z</time>
      </trkpt>
      <trkpt lat="44.52933" lon="4.25007">
        <ele>411</ele>
        <time>2016-05-15T07:43:48.000Z</time>
      </trkpt>
      <trkpt lat="44.5293" lon="4.25009">
        <ele>410</ele>
        <time>2016-05-15T07:43:49.000Z</time>
      </trkpt>
      <trkpt lat="44.52926" lon="4.25012">
        <ele>409</ele>
        <time>2016-05-15T07:43:50.000Z</time>
      </trkpt>
      <trkpt lat="44.52922" lon="4.25014">
        <ele>409</ele>
        <time>2016-05-15T07:43:51.000Z</time>
      </trkpt>
      <trkpt lat="44.52918" lon="4.25017">
        <ele>410</ele>
        <time>2016-05-15T07:43:52.000Z</time>
      </trkpt>
      <trkpt lat="44.52913" lon="4.25019">
        <ele>403</ele>
        <time>2016-05-15T07:43:53.000Z</time>
      </trkpt>
      <trkpt lat="44.52909" lon="4.25021">
        <ele>404</ele>
        <time>2016-05-15T07:43:54.000Z</time>
      </trkpt>
      <trkpt lat="44.52904" lon="4.25023">
        <ele>404</ele>
        <time>2016-05-15T07:43:55.000Z</time>
      </trkpt>
      <trkpt lat="44.529" lon="4.25025">
        <ele>404</ele>
        <time>2016-05-15T07:43:56.000Z</time>
      </trkpt>
      <trkpt lat="44.52895" lon="4.25026">
        <ele>405</ele>
        <time>2016-05-15T07:43:57.000Z</time>
      </trkpt>
      <trkpt lat="44.5289" lon="4.25028">
        <ele>405</ele>
        <time>2016-05-15T07:43:58.000Z</time>
      </trkpt>
      <trkpt lat="44.52886" lon="4.25029">
        <ele>405</ele>
        <time>2016-05-15T07:43:59.000Z</time>
      </trkpt>
      <trkpt lat="44.52881" lon="4.2503">
        <ele>405</ele>
        <time>2016-05-15T07:44:00.000Z</time>
      </trkpt>
      <trkpt lat="44.52876" lon="4.25032">
        <ele>405</ele>
        <time>2016-05-15T07:44:01.000Z</time>
      </trkpt>
      <trkpt lat="44.52871" lon="4.25033">
        <ele>405</ele>
        <time>2016-05-15T07:44:02.000Z</time>
      </trkpt>
      <trkpt lat="44.52866" lon="4.25034">
        <ele>404</ele>
        <time>2016-05-15T07:44:03.000Z</time>
      </trkpt>
      <trkpt lat="44.52861" lon="4.25035">
        <ele>404</ele>
        <time>2016-05-15T07:44:04.000Z</time>
      </trkpt>
      <trkpt lat="44.52856" lon="4.25036">
        <ele>404</ele>
        <time>2016-05-15T07:44:05.000Z</time>
      </trkpt>
      <trkpt lat="44.52851" lon="4.25036">
        <ele>404</ele>
        <time>2016-05-15T07:44:06.000Z</time>
      </trkpt>
      <trkpt lat="44.52845" lon="4.25037">
        <ele>404</ele>
        <time>2016-05-15T07:44:07.000Z</time>
      </trkpt>
      <trkpt lat="44.5284" lon="4.25038">
        <ele>403</ele>
        <time>2016-05-15T07:44:08.000Z</time>
      </trkpt>
      <trkpt lat="44.52834" lon="4.25038">
        <ele>403</ele>
        <time>2016-05-15T07:44:09.000Z</time>
      </trkpt>
      <trkpt lat="44.52828" lon="4.25039">
        <ele>398</ele>
        <time>2016-05-15T07:44:10.000Z</time>
      </trkpt>
      <trkpt lat="44.52823" lon="4.25039">
        <ele>398</ele>
        <time>2016-05-15T07:44:11.000Z</time>
      </trkpt>
      <trkpt lat="44.52817" lon="4.25039">
        <ele>398</ele>
        <time>2016-05-15T07:44:12.000Z</time>
      </trkpt>
      <trkpt lat="44.52812" lon="4.25038">
        <ele>398</ele>
        <time>2016-05-15T07:44:13.000Z</time>
      </trkpt>
      <trkpt lat="44.52806" lon="4.25037">
        <ele>398</ele>
        <time>2016-05-15T07:44:14.000Z</time>
      </trkpt>
      <trkpt lat="44.528" lon="4.25036">
        <ele>397</ele>
        <time>2016-05-15T07:44:15.000Z</time>
      </trkpt>
      <trkpt lat="44.52794" lon="4.25035">
        <ele>397</ele>
        <time>2016-05-15T07:44:16.000Z</time>
      </trkpt>
      <trkpt lat="44.52788" lon="4.25034">
        <ele>396</ele>
        <time>2016-05-15T07:44:17.000Z</time>
      </trkpt>
      <trkpt lat="44.52781" lon="4.25032">
        <ele>396</ele>
        <time>2016-05-15T07:44:18.000Z</time>
      </trkpt>
      <trkpt lat="44.52775" lon="4.25032">
        <ele>395</ele>
        <time>2016-05-15T07:44:19.000Z</time>
      </trkpt>
      <trkpt lat="44.52768" lon="4.25032">
        <ele>395</ele>
        <time>2016-05-15T07:44:20.000Z</time>
      </trkpt>
      <trkpt lat="44.52762" lon="4.25032">
        <ele>395</ele>
        <time>2016-05-15T07:44:21.000Z</time>
      </trkpt>
      <trkpt lat="44.52755" lon="4.25033">
        <ele>395</ele>
        <time>2016-05-15T07:44:22.000Z</time>
      </trkpt>
      <trkpt lat="44.52749" lon="4.25035">
        <ele>390</ele>
        <time>2016-05-15T07:44:23.000Z</time>
      </trkpt>
      <trkpt lat="44.52742" lon="4.25037">
        <ele>390</ele>
        <time>2016-05-15T07:44:24.000Z</time>
      </trkpt>
      <trkpt lat="44.52735" lon="4.25039">
        <ele>391</ele>
        <time>2016-05-15T07:44:25.000Z</time>
      </trkpt>
      <trkpt lat="44.52728" lon="4.25041">
        <ele>391</ele>
        <time>2016-05-15T07:44:26.000Z</time>
      </trkpt>
      <trkpt lat="44.52721" lon="4.25042">
        <ele>391</ele>
        <time>2016-05-15T07:44:27.000Z</time>
      </trkpt>
      <trkpt lat="44.52714" lon="4.25043">
        <ele>390</ele>
        <time>2016-05-15T07:44:28.000Z</time>
      </trkpt>
      <trkpt lat="44.52707" lon="4.25043">
        <ele>390</ele>
        <time>2016-05-15T07:44:29.000Z</time>
      </trkpt>
      <trkpt lat="44.527" lon="4.25043">
        <ele>389</ele>
        <time>2016-05-15T07:44:30.000Z</time>
      </trkpt>
      <trkpt lat="44.52692" lon="4.25043">
        <ele>389</ele>
        <time>2016-05-15T07:44:31.000Z</time>
      </trkpt>
      <trkpt lat="44.52685" lon="4.25042">
        <ele>389</ele>
        <time>2016-05-15T07:44:32.000Z</time>
      </trkpt>
      <trkpt lat="44.52679" lon="4.25042">
        <ele>388</ele>
        <time>2016-05-15T07:44:33.000Z</time>
      </trkpt>
      <trkpt lat="44.52673" lon="4.2504">
        <ele>388</ele>
        <time>2016-05-15T07:44:34.000Z</time>
      </trkpt>
      <trkpt lat="44.52668" lon="4.2504">
        <ele>388</ele>
        <time>2016-05-15T07:44:35.000Z</time>
      </trkpt>
      <trkpt lat="44.52664" lon="4.25041">
        <ele>377</ele>
        <time>2016-05-15T07:44:36.000Z</time>
      </trkpt>
      <trkpt lat="44.52661" lon="4.25043">
        <ele>378</ele>
        <time>2016-05-15T07:44:37.000Z</time>
      </trkpt>
      <trkpt lat="44.52659" lon="4.25047">
        <ele>378</ele>
        <time>2016-05-15T07:44:38.000Z</time>
      </trkpt>
      <trkpt lat="44.52658" lon="4.25049">
        <ele>379</ele>
        <time>2016-05-15T07:44:39.000Z</time>
      </trkpt>
      <trkpt lat="44.52656" lon="4.25051">
        <ele>379</ele>
        <time>2016-05-15T07:44:40.000Z</time>
      </trkpt>
      <trkpt lat="44.52654" lon="4.25052">
        <ele>379</ele>
        <time>2016-05-15T07:44:41.000Z</time>
      </trkpt>
      <trkpt lat="44.52652" lon="4.25054">
        <ele>379</ele>
        <time>2016-05-15T07:44:42.000Z</time>
      </trkpt>
      <trkpt lat="44.52652" lon="4.25055">
        <ele>379</ele>
        <time>2016-05-15T07:44:43.000Z</time>
      </trkpt>
      <trkpt lat="44.52652" lon="4.25056">
        <ele>379</ele>
        <time>2016-05-15T07:44:44.000Z</time>
      </trkpt>
      <trkpt lat="44.52653" lon="4.25056">
        <ele>379</ele>
        <time>2016-05-15T07:44:45.000Z</time>
      </trkpt>
      <trkpt lat="44.52654" lon="4.25056">
        <ele>380</ele>
        <time>2016-05-15T07:44:46.000Z</time>
      </trkpt>
      <trkpt lat="44.52655" lon="4.25055">
        <ele>380</ele>
        <time>2016-05-15T07:44:47.000Z</time>
      </trkpt>
      <trkpt lat="44.52656" lon="4.25056">
        <ele>380</ele>
        <time>2016-05-15T07:44:48.000Z</time>
      </trkpt>
      <trkpt lat="44.52657" lon="4.25058">
        <ele>380</ele>
        <time>2016-05-15T07:44:49.000Z</time>
      </trkpt>
      <trkpt lat="44.52656" lon="4.25059">
        <ele>381</ele>
        <time>2016-05-15T07:44:50.000Z</time>
      </trkpt>
      <trkpt lat="44.52655" lon="4.2506">
        <ele>381</ele>
        <time>2016-05-15T07:44:51.000Z</time>
      </trkpt>
      <trkpt lat="44.52654" lon="4.25061">
        <ele>381</ele>
        <time>2016-05-15T07:44:52.000Z</time>
      </trkpt>
      <trkpt lat="44.52652" lon="4.25062">
        <ele>381</ele>
        <time>2016-05-15T07:44:53.000Z</time>
      </trkpt>
      <trkpt lat="44.52651" lon="4.25063">
        <ele>381</ele>
        <time>2016-05-15T07:44:54.000Z</time>
      </trkpt>
      <trkpt lat="44.52649" lon="4.25065">
        <ele>381</ele>
        <time>2016-05-15T07:44:55.000Z</time>
      </trkpt>
      <trkpt lat="44.52648" lon="4.25067">
        <ele>381</ele>
        <time>2016-05-15T07:44:56.000Z</time>
      </trkpt>
      <trkpt lat="44.52646" lon="4.25068">
        <ele>381</ele>
        <time>2016-05-15T07:44:57.000Z</time>
      </trkpt>
      <trkpt lat="44.52644" lon="4.2507">
        <ele>380</ele>
        <time>2016-05-15T07:44:58.000Z</time>
      </trkpt>
      <trkpt lat="44.52643" lon="4.25071">
        <ele>380</ele>
        <time>2016-05-15T07:44:59.000Z</time>
      </trkpt>
      <trkpt lat="44.52641" lon="4.25073">
        <ele>380</ele>
        <time>2016-05-15T07:45:00.000Z</time>
      </trkpt>
      <trkpt lat="44.5264" lon="4.25074">
        <ele>380</ele>
        <time>2016-05-15T07:45:01.000Z</time>
      </trkpt>
      <trkpt lat="44.52638" lon="4.25076">
        <ele>379</ele>
        <time>2016-05-15T07:45:02.000Z</time>
      </trkpt>
      <trkpt lat="44.52637" lon="4.25078">
        <ele>379</ele>
        <time>2016-05-15T07:45:03.000Z</time>
      </trkpt>
      <trkpt lat="44.52636" lon="4.2508">
        <ele>379</ele>
        <time>2016-05-15T07:45:04.000Z</time>
      </trkpt>
      <trkpt lat="44.52635" lon="4.25082">
        <ele>379</ele>
        <time>2016-05-15T07:45:05.000Z</time>
      </trkpt>
      <trkpt lat="44.52633" lon="4.25084">
        <ele>386</ele>
        <time>2016-05-15T07:45:06.000Z</time>
      </trkpt>
      <trkpt lat="44.5263" lon="4.25087">
        <ele>385</ele>
        <time>2016-05-15T07:45:07.000Z</time>
      </trkpt>
      <trkpt lat="44.52628" lon="4.2509">
        <ele>385</ele>
        <time>2016-05-15T07:45:08.000Z</time>
      </trkpt>
      <trkpt lat="44.52626" lon="4.25094">
        <ele>384</ele>
        <time>2016-05-15T07:45:09.000Z</time>
      </trkpt>
      <trkpt lat="44.52624" lon="4.25097">
        <ele>384</ele>
        <time>2016-05-15T07:45:10.000Z</time>
      </trkpt>
      <trkpt lat="44.52623" lon="4.25101">
        <ele>384</ele>
        <time>2016-05-15T07:45:11.000Z</time>
      </trkpt>
      <trkpt lat="44.52623" lon="4.25105">
        <ele>384</ele>
        <time>2016-05-15T07:45:12.000Z</time>
      </trkpt>
      <trkpt lat="44.52623" lon="4.25108">
        <ele>384</ele>
        <time>2016-05-15T07:45:13.000Z</time>
      </trkpt>
      <trkpt lat="44.52622" lon="4.25111">
        <ele>385</ele>
        <time>2016-05-15T07:45:14.000Z</time>
      </trkpt>
      <trkpt lat="44.52621" lon="4.25113">
        <ele>385</ele>
        <time>2016-05-15T07:45:15.000Z</time>
      </trkpt>
      <trkpt lat="44.5262" lon="4.25116">
        <ele>385</ele>
        <time>2016-05-15T07:45:16.000Z</time>
      </trkpt>
      <trkpt lat="44.52619" lon="4.25119">
        <ele>385</ele>
        <time>2016-05-15T07:45:17.000Z</time>
      </trkpt>
      <trkpt lat="44.52618" lon="4.25123">
        <ele>385</ele>
        <time>2016-05-15T07:45:18.000Z</time>
      </trkpt>
      <trkpt lat="44.52617" lon="4.25126">
        <ele>385</ele>
        <time>2016-05-15T07:45:19.000Z</time>
      </trkpt>
      <trkpt lat="44.52617" lon="4.25129">
        <ele>385</ele>
        <time>2016-05-15T07:45:20.000Z</time>
      </trkpt>
      <trkpt lat="44.52617" lon="4.25132">
        <ele>385</ele>
        <time>2016-05-15T07:45:21.000Z</time>
      </trkpt>
      <trkpt lat="44.52617" lon="4.25135">
        <ele>385</ele>
        <time>2016-05-15T07:45:22.000Z</time>
      </trkpt>
      <trkpt lat="44.52617" lon="4.25138">
        <ele>385</ele>
        <time>2016-05-15T07:45:23.000Z</time>
      </trkpt>
      <trkpt lat="44.52618" lon="4.25141">
        <ele>386</ele>
        <time>2016-05-15T07:45:24.000Z</time>
      </trkpt>
      <trkpt lat="44.52618" lon="4.25144">
        <ele>386</ele>
        <time>2016-05-15T07:45:25.000Z</time>
      </trkpt>
      <trkpt lat="44.52618" lon="4.25147">
        <ele>386</ele>
        <time>2016-05-15T07:45:26.000Z</time>
      </trkpt>
      <trkpt lat="44.52618" lon="4.2515">
        <ele>386</ele>
        <time>2016-05-15T07:45:27.000Z</time>
      </trkpt>
      <trkpt lat="44.52619" lon="4.25153">
        <ele>386</ele>
        <time>2016-05-15T07:45:28.000Z</time>
      </trkpt>
      <trkpt lat="44.52619" lon="4.25156">
        <ele>386</ele>
        <time>2016-05-15T07:45:29.000Z</time>
      </trkpt>
      <trkpt lat="44.52619" lon="4.25159">
        <ele>386</ele>
        <time>2016-05-15T07:45:30.000Z</time>
      </trkpt>
      <trkpt lat="44.52619" lon="4.25162">
        <ele>387</ele>
        <time>2016-05-15T07:45:31.000Z</time>
      </trkpt>
      <trkpt lat="44.5262" lon="4.25165">
        <ele>387</ele>
        <time>2016-05-15T07:45:32.000Z</time>
      </trkpt>
      <trkpt lat="44.52621" lon="4.25168">
        <ele>390</ele>
        <time>2016-05-15T07:45:33.000Z</time>
      </trkpt>
      <trkpt lat="44.52622" lon="4.25172">
        <ele>391</ele>
        <time>2016-05-15T07:45:34.000Z</time>
      </trkpt>
      <trkpt lat="44.52623" lon="4.25175">
        <ele>391</ele>
        <time>2016-05-15T07:45:35.000Z</time>
      </trkpt>
      <trkpt lat="44.52624" lon="4.25178">
        <ele>391</ele>
        <time>2016-05-15T07:45:36.000Z</time>
      </trkpt>
      <trkpt lat="44.52625" lon="4.2518">
        <ele>392</ele>
        <time>2016-05-15T07:45:37.000Z</time>
      </trkpt>
      <trkpt lat="44.52627" lon="4.25182">
        <ele>392</ele>
        <time>2016-05-15T07:45:38.000Z</time>
      </trkpt>
      <trkpt lat="44.52629" lon="4.25184">
        <ele>392</ele>
        <time>2016-05-15T07:45:39.000Z</time>
      </trkpt>
      <trkpt lat="44.5263" lon="4.25186">
        <ele>393</ele>
        <time>2016-05-15T07:45:40.000Z</time>
      </trkpt>
      <trkpt lat="44.52632" lon="4.25187">
        <ele>393</ele>
        <time>2016-05-15T07:45:41.000Z</time>
      </trkpt>
      <trkpt lat="44.52634" lon="4.25189">
        <ele>393</ele>
        <time>2016-05-15T07:45:42.000Z</time>
      </trkpt>
      <trkpt lat="44.52635" lon="4.2519">
        <ele>393</ele>
        <time>2016-05-15T07:45:43.000Z</time>
      </trkpt>
      <trkpt lat="44.52637" lon="4.25192">
        <ele>394</ele>
        <time>2016-05-15T07:45:44.000Z</time>
      </trkpt>
      <trkpt lat="44.52638" lon="4.25193">
        <ele>394</ele>
        <time>2016-05-15T07:45:45.000Z</time>
      </trkpt>
      <trkpt lat="44.52639" lon="4.25196">
        <ele>394</ele>
        <time>2016-05-15T07:45:46.000Z</time>
      </trkpt>
      <trkpt lat="44.52641" lon="4.25198">
        <ele>394</ele>
        <time>2016-05-15T07:45:47.000Z</time>
      </trkpt>
      <trkpt lat="44.52642" lon="4.252">
        <ele>394</ele>
        <time>2016-05-15T07:45:48.000Z</time>
      </trkpt>
      <trkpt lat="44.52644" lon="4.25202">
        <ele>394</ele>
        <time>2016-05-15T07:45:49.000Z</time>
      </trkpt>
      <trkpt lat="44.52645" lon="4.25204">
        <ele>394</ele>
        <time>2016-05-15T07:45:50.000Z</time>
      </trkpt>
      <trkpt lat="44.52647" lon="4.25205">
        <ele>395</ele>
        <time>2016-05-15T07:45:51.000Z</time>
      </trkpt>
      <trkpt lat="44.52649" lon="4.25205">
        <ele>395</ele>
        <time>2016-05-15T07:45:52.000Z</time>
      </trkpt>
      <trkpt lat="44.5265" lon="4.25205">
        <ele>395</ele>
        <time>2016-05-15T07:45:53.000Z</time>
      </trkpt>
      <trkpt lat="44.52652" lon="4.25204">
        <ele>395</ele>
        <time>2016-05-15T07:45:54.000Z</time>
      </trkpt>
      <trkpt lat="44.52653" lon="4.25202">
        <ele>395</ele>
        <time>2016-05-15T07:45:55.000Z</time>
      </trkpt>
      <trkpt lat="44.52653" lon="4.252">
        <ele>395</ele>
        <time>2016-05-15T07:45:56.000Z</time>
      </trkpt>
      <trkpt lat="44.52653" lon="4.25199">
        <ele>395</ele>
        <time>2016-05-15T07:45:57.000Z</time>
      </trkpt>
      <trkpt lat="44.52652" lon="4.25197">
        <ele>395</ele>
        <time>2016-05-15T07:45:58.000Z</time>
      </trkpt>
      <trkpt lat="44.52651" lon="4.25195">
        <ele>396</ele>
        <time>2016-05-15T07:45:59.000Z</time>
      </trkpt>
      <trkpt lat="44.52651" lon="4.25192">
        <ele>396</ele>
        <time>2016-05-15T07:46:00.000Z</time>
      </trkpt>
      <trkpt lat="44.52651" lon="4.2519">
        <ele>396</ele>
        <time>2016-05-15T07:46:01.000Z</time>
      </trkpt>
      <trkpt lat="44.52651" lon="4.25188">
        <ele>396</ele>
        <time>2016-05-15T07:46:02.000Z</time>
      </trkpt>
      <trkpt lat="44.52652" lon="4.25186">
        <ele>397</ele>
        <time>2016-05-15T07:46:03.000Z</time>
      </trkpt>
      <trkpt lat="44.52653" lon="4.25184">
        <ele>397</ele>
        <time>2016-05-15T07:46:04.000Z</time>
      </trkpt>
      <trkpt lat="44.52654" lon="4.25183">
        <ele>397</ele>
        <time>2016-05-15T07:46:05.000Z</time>
      </trkpt>
      <trkpt lat="44.52656" lon="4.25182">
        <ele>398</ele>
        <time>2016-05-15T07:46:06.000Z</time>
      </trkpt>
      <trkpt lat="44.52658" lon="4.25182">
        <ele>398</ele>
        <time>2016-05-15T07:46:07.000Z</time>
      </trkpt>
      <trkpt lat="44.52659" lon="4.25181">
        <ele>399</ele>
        <time>2016-05-15T07:46:08.000Z</time>
      </trkpt>
      <trkpt lat="44.5266" lon="4.25183">
        <ele>399</ele>
        <time>2016-05-15T07:46:09.000Z</time>
      </trkpt>
      <trkpt lat="44.52661" lon="4.25184">
        <ele>398</ele>
        <time>2016-05-15T07:46:10.000Z</time>
      </trkpt>
      <trkpt lat="44.52662" lon="4.25185">
        <ele>398</ele>
        <time>2016-05-15T07:46:11.000Z</time>
      </trkpt>
      <trkpt lat="44.52664" lon="4.25186">
        <ele>398</ele>
        <time>2016-05-15T07:46:12.000Z</time>
      </trkpt>
      <trkpt lat="44.52666" lon="4.25187">
        <ele>398</ele>
        <time>2016-05-15T07:46:13.000Z</time>
      </trkpt>
      <trkpt lat="44.52667" lon="4.25188">
        <ele>408</ele>
        <time>2016-05-15T07:46:14.000Z</time>
      </trkpt>
      <trkpt lat="44.52669" lon="4.25188">
        <ele>408</ele>
        <time>2016-05-15T07:46:15.000Z</time>
      </trkpt>
      <trkpt lat="44.52671" lon="4.25188">
        <ele>408</ele>
        <time>2016-05-15T07:46:16.000Z</time>
      </trkpt>
      <trkpt lat="44.52672" lon="4.25187">
        <ele>408</ele>
        <time>2016-05-15T07:46:17.000Z</time>
      </trkpt>
      <trkpt lat="44.52674" lon="4.25185">
        <ele>408</ele>
        <time>2016-05-15T07:46:18.000Z</time>
      </trkpt>
      <trkpt lat="44.52675" lon="4.25184">
        <ele>408</ele>
        <time>2016-05-15T07:46:19.000Z</time>
      </trkpt>
      <trkpt lat="44.52675" lon="4.25182">
        <ele>407</ele>
        <time>2016-05-15T07:46:20.000Z</time>
      </trkpt>
      <trkpt lat="44.52674" lon="4.25181">
        <ele>407</ele>
        <time>2016-05-15T07:46:21.000Z</time>
      </trkpt>
      <trkpt lat="44.52674" lon="4.2518">
        <ele>407</ele>
        <time>2016-05-15T07:46:22.000Z</time>
      </trkpt>
      <trkpt lat="44.52674" lon="4.25179">
        <ele>407</ele>
        <time>2016-05-15T07:46:23.000Z</time>
      </trkpt>
      <trkpt lat="44.52675" lon="4.25178">
        <ele>407</ele>
        <time>2016-05-15T07:46:24.000Z</time>
      </trkpt>
      <trkpt lat="44.52677" lon="4.25178">
        <ele>407</ele>
        <time>2016-05-15T07:46:25.000Z</time>
      </trkpt>
      <trkpt lat="44.52678" lon="4.25178">
        <ele>407</ele>
        <time>2016-05-15T07:46:26.000Z</time>
      </trkpt>
      <trkpt lat="44.52679" lon="4.25178">
        <ele>408</ele>
        <time>2016-05-15T07:46:27.000Z</time>
      </trkpt>
      <trkpt lat="44.5268" lon="4.25179">
        <ele>408</ele>
        <time>2016-05-15T07:46:28.000Z</time>
      </trkpt>
      <trkpt lat="44.52681" lon="4.2518">
        <ele>408</ele>
        <time>2016-05-15T07:46:29.000Z</time>
      </trkpt>
      <trkpt lat="44.52683" lon="4.25182">
        <ele>408</ele>
        <time>2016-05-15T07:46:30.000Z</time>
      </trkpt>
      <trkpt lat="44.52683" lon="4.25184">
        <ele>408</ele>
        <time>2016-05-15T07:46:31.000Z</time>
      </trkpt>
      <trkpt lat="44.52685" lon="4.25185">
        <ele>408</ele>
        <time>2016-05-15T07:46:32.000Z</time>
      </trkpt>
      <trkpt lat="44.52686" lon="4.25186">
        <ele>409</ele>
        <time>2016-05-15T07:46:33.000Z</time>
      </trkpt>
      <trkpt lat="44.52688" lon="4.25187">
        <ele>409</ele>
        <time>2016-05-15T07:46:34.000Z</time>
      </trkpt>
      <trkpt lat="44.52689" lon="4.25188">
        <ele>409</ele>
        <time>2016-05-15T07:46:35.000Z</time>
      </trkpt>
      <trkpt lat="44.5269" lon="4.25191">
        <ele>409</ele>
        <time>2016-05-15T07:46:36.000Z</time>
      </trkpt>
      <trkpt lat="44.52692" lon="4.25193">
        <ele>409</ele>
        <time>2016-05-15T07:46:37.000Z</time>
      </trkpt>
      <trkpt lat="44.52693" lon="4.25196">
        <ele>409</ele>
        <time>2016-05-15T07:46:38.000Z</time>
      </trkpt>
      <trkpt lat="44.52696" lon="4.25199">
        <ele>409</ele>
        <time>2016-05-15T07:46:39.000Z</time>
      </trkpt>
      <trkpt lat="44.52698" lon="4.25201">
        <ele>410</ele>
        <time>2016-05-15T07:46:40.000Z</time>
      </trkpt>
      <trkpt lat="44.527" lon="4.25203">
        <ele>410</ele>
        <time>2016-05-15T07:46:41.000Z</time>
      </trkpt>
      <trkpt lat="44.52702" lon="4.25205">
        <ele>410</ele>
        <time>2016-05-15T07:46:42.000Z</time>
      </trkpt>
      <trkpt lat="44.52704" lon="4.25206">
        <ele>410</ele>
        <time>2016-05-15T07:46:43.000Z</time>
      </trkpt>
      <trkpt lat="44.52706" lon="4.25208">
        <ele>410</ele>
        <time>2016-05-15T07:46:44.000Z</time>
      </trkpt>
      <trkpt lat="44.52708" lon="4.2521">
        <ele>410</ele>
        <time>2016-05-15T07:46:45.000Z</time>
      </trkpt>
      <trkpt lat="44.5271" lon="4.25212">
        <ele>410</ele>
        <time>2016-05-15T07:46:46.000Z</time>
      </trkpt>
      <trkpt lat="44.52712" lon="4.25213">
        <ele>410</ele>
        <time>2016-05-15T07:46:47.000Z</time>
      </trkpt>
      <trkpt lat="44.52714" lon="4.25215">
        <ele>411</ele>
        <time>2016-05-15T07:46:48.000Z</time>
      </trkpt>
      <trkpt lat="44.52715" lon="4.25217">
        <ele>411</ele>
        <time>2016-05-15T07:46:49.000Z</time>
      </trkpt>
      <trkpt lat="44.52717" lon="4.25219">
        <ele>411</ele>
        <time>2016-05-15T07:46:50.000Z</time>
      </trkpt>
      <trkpt lat="44.52719" lon="4.25221">
        <ele>411</ele>
        <time>2016-05-15T07:46:51.000Z</time>
      </trkpt>
      <trkpt lat="44.5272" lon="4.25222">
        <ele>411</ele>
        <time>2016-05-15T07:46:52.000Z</time>
      </trkpt>
      <trkpt lat="44.52721" lon="4.25224">
        <ele>411</ele>
        <time>2016-05-15T07:46:53.000Z</time>
      </trkpt>
      <trkpt lat="44.52722" lon="4.25226">
        <ele>411</ele>
        <time>2016-05-15T07:46:54.000Z</time>
      </trkpt>
      <trkpt lat="44.52724" lon="4.25228">
        <ele>411</ele>
        <time>2016-05-15T07:46:55.000Z</time>
      </trkpt>
      <trkpt lat="44.52726" lon="4.2523">
        <ele>411</ele>
        <time>2016-05-15T07:46:56.000Z</time>
      </trkpt>
      <trkpt lat="44.52728" lon="4.25233">
        <ele>412</ele>
        <time>2016-05-15T07:46:57.000Z</time>
      </trkpt>
      <trkpt lat="44.5273" lon="4.25235">
        <ele>412</ele>
        <time>2016-05-15T07:46:58.000Z</time>
      </trkpt>
      <trkpt lat="44.52731" lon="4.25237">
        <ele>412</ele>
        <time>2016-05-15T07:46:59.000Z</time>
      </trkpt>
      <trkpt lat="44.52732" lon="4.25239">
        <ele>412</ele>
        <time>2016-05-15T07:47:00.000Z</time>
      </trkpt>
      <trkpt lat="44.52733" lon="4.25241">
        <ele>412</ele>
        <time>2016-05-15T07:47:01.000Z</time>
      </trkpt>
      <trkpt lat="44.52734" lon="4.25243">
        <ele>413</ele>
        <time>2016-05-15T07:47:02.000Z</time>
      </trkpt>
      <trkpt lat="44.52736" lon="4.25245">
        <ele>413</ele>
        <time>2016-05-15T07:47:03.000Z</time>
      </trkpt>
      <trkpt lat="44.52738" lon="4.25247">
        <ele>413</ele>
        <time>2016-05-15T07:47:04.000Z</time>
      </trkpt>
      <trkpt lat="44.52739" lon="4.25247">
        <ele>413</ele>
        <time>2016-05-15T07:47:05.000Z</time>
      </trkpt>
      <trkpt lat="44.52741" lon="4.25247">
        <ele>413</ele>
        <time>2016-05-15T07:47:06.000Z</time>
      </trkpt>
      <trkpt lat="44.52742" lon="4.25246">
        <ele>414</ele>
        <time>2016-05-15T07:47:07.000Z</time>
      </trkpt>
      <trkpt lat="44.52743" lon="4.25244">
        <ele>413</ele>
        <time>2016-05-15T07:47:08.000Z</time>
      </trkpt>
      <trkpt lat="44.52744" lon="4.25242">
        <ele>413</ele>
        <time>2016-05-15T07:47:09.000Z</time>
      </trkpt>
      <trkpt lat="44.52745" lon="4.25241">
        <ele>413</ele>
        <time>2016-05-15T07:47:10.000Z</time>
      </trkpt>
      <trkpt lat="44.52746" lon="4.2524">
        <ele>413</ele>
        <time>2016-05-15T07:47:11.000Z</time>
      </trkpt>
      <trkpt lat="44.52748" lon="4.2524">
        <ele>414</ele>
        <time>2016-05-15T07:47:12.000Z</time>
      </trkpt>
      <trkpt lat="44.5275" lon="4.2524">
        <ele>417</ele>
        <time>2016-05-15T07:47:13.000Z</time>
      </trkpt>
      <trkpt lat="44.52752" lon="4.2524">
        <ele>417</ele>
        <time>2016-05-15T07:47:14.000Z</time>
      </trkpt>
      <trkpt lat="44.52754" lon="4.25241">
        <ele>417</ele>
        <time>2016-05-15T07:47:15.000Z</time>
      </trkpt>
      <trkpt lat="44.52756" lon="4.25242">
        <ele>417</ele>
        <time>2016-05-15T07:47:16.000Z</time>
      </trkpt>
      <trkpt lat="44.52758" lon="4.25243">
        <ele>417</ele>
        <time>2016-05-15T07:47:17.000Z</time>
      </trkpt>
      <trkpt lat="44.52759" lon="4.25244">
        <ele>417</ele>
        <time>2016-05-15T07:47:18.000Z</time>
      </trkpt>
      <trkpt lat="44.5276" lon="4.25245">
        <ele>417</ele>
        <time>2016-05-15T07:47:19.000Z</time>
      </trkpt>
      <trkpt lat="44.52762" lon="4.25245">
        <ele>417</ele>
        <time>2016-05-15T07:47:20.000Z</time>
      </trkpt>
      <trkpt lat="44.52764" lon="4.25246">
        <ele>418</ele>
        <time>2016-05-15T07:47:21.000Z</time>
      </trkpt>
      <trkpt lat="44.52765" lon="4.25246">
        <ele>418</ele>
        <time>2016-05-15T07:47:22.000Z</time>
      </trkpt>
      <trkpt lat="44.52767" lon="4.25247">
        <ele>418</ele>
        <time>2016-05-15T07:47:23.000Z</time>
      </trkpt>
      <trkpt lat="44.52768" lon="4.25247">
        <ele>418</ele>
        <time>2016-05-15T07:47:24.000Z</time>
      </trkpt>
      <trkpt lat="44.5277" lon="4.25248">
        <ele>418</ele>
        <time>2016-05-15T07:47:25.000Z</time>
      </trkpt>
      <trkpt lat="44.52772" lon="4.25248">
        <ele>419</ele>
        <time>2016-05-15T07:47:26.000Z</time>
      </trkpt>
      <trkpt lat="44.52773" lon="4.25248">
        <ele>419</ele>
        <time>2016-05-15T07:47:27.000Z</time>
      </trkpt>
      <trkpt lat="44.52775" lon="4.25247">
        <ele>419</ele>
        <time>2016-05-15T07:47:28.000Z</time>
      </trkpt>
      <trkpt lat="44.52777" lon="4.25247">
        <ele>419</ele>
        <time>2016-05-15T07:47:29.000Z</time>
      </trkpt>
      <trkpt lat="44.52778" lon="4.25246">
        <ele>419</ele>
        <time>2016-05-15T07:47:30.000Z</time>
      </trkpt>
      <trkpt lat="44.5278" lon="4.25247">
        <ele>420</ele>
        <time>2016-05-15T07:47:31.000Z</time>
      </trkpt>
      <trkpt lat="44.52781" lon="4.25248">
        <ele>420</ele>
        <time>2016-05-15T07:47:32.000Z</time>
      </trkpt>
      <trkpt lat="44.52783" lon="4.25249">
        <ele>420</ele>
        <time>2016-05-15T07:47:33.000Z</time>
      </trkpt>
      <trkpt lat="44.52784" lon="4.25251">
        <ele>418</ele>
        <time>2016-05-15T07:47:34.000Z</time>
      </trkpt>
      <trkpt lat="44.52785" lon="4.25253">
        <ele>418</ele>
        <time>2016-05-15T07:47:35.000Z</time>
      </trkpt>
      <trkpt lat="44.52787" lon="4.25255">
        <ele>418</ele>
        <time>2016-05-15T07:47:36.000Z</time>
      </trkpt>
      <trkpt lat="44.52788" lon="4.25257">
        <ele>418</ele>
        <time>2016-05-15T07:47:37.000Z</time>
      </trkpt>
      <trkpt lat="44.5279" lon="4.2526">
        <ele>418</ele>
        <time>2016-05-15T07:47:38.000Z</time>
      </trkpt>
      <trkpt lat="44.52791" lon="4.25263">
        <ele>418</ele>
        <time>2016-05-15T07:47:39.000Z</time>
      </trkpt>
      <trkpt lat="44.52792" lon="4.25266">
        <ele>418</ele>
        <time>2016-05-15T07:47:40.000Z</time>
      </trkpt>
      <trkpt lat="44.52793" lon="4.25269">
        <ele>418</ele>
        <time>2016-05-15T07:47:41.000Z</time>
      </trkpt>
      <trkpt lat="44.52795" lon="4.25271">
        <ele>418</ele>
        <time>2016-05-15T07:47:42.000Z</time>
      </trkpt>
      <trkpt lat="44.52796" lon="4.25274">
        <ele>418</ele>
        <time>2016-05-15T07:47:43.000Z</time>
      </trkpt>
      <trkpt lat="44.52797" lon="4.25277">
        <ele>418</ele>
        <time>2016-05-15T07:47:44.000Z</time>
      </trkpt>
      <trkpt lat="44.52799" lon="4.2528">
        <ele>419</ele>
        <time>2016-05-15T07:47:45.000Z</time>
      </trkpt>
      <trkpt lat="44.52801" lon="4.25283">
        <ele>419</ele>
        <time>2016-05-15T07:47:46.000Z</time>
      </trkpt>
      <trkpt lat="44.52802" lon="4.25286">
        <ele>419</ele>
        <time>2016-05-15T07:47:47.000Z</time>
      </trkpt>
      <trkpt lat="44.52804" lon="4.25289">
        <ele>419</ele>
        <time>2016-05-15T07:47:48.000Z</time>
      </trkpt>
      <trkpt lat="44.52806" lon="4.25292">
        <ele>419</ele>
        <time>2016-05-15T07:47:49.000Z</time>
      </trkpt>
      <trkpt lat="44.52808" lon="4.25295">
        <ele>419</ele>
        <time>2016-05-15T07:47:50.000Z</time>
      </trkpt>
      <trkpt lat="44.5281" lon="4.25299">
        <ele>419</ele>
        <time>2016-05-15T07:47:51.000Z</time>
      </trkpt>
      <trkpt lat="44.52812" lon="4.25302">
        <ele>420</ele>
        <time>2016-05-15T07:47:52.000Z</time>
      </trkpt>
      <trkpt lat="44.52813" lon="4.25306">
        <ele>420</ele>
        <time>2016-05-15T07:47:53.000Z</time>
      </trkpt>
      <trkpt lat="44.52815" lon="4.25309">
        <ele>420</ele>
        <time>2016-05-15T07:47:54.000Z</time>
      </trkpt>
      <trkpt lat="44.52816" lon="4.25312">
        <ele>420</ele>
        <time>2016-05-15T07:47:55.000Z</time>
      </trkpt>
      <trkpt lat="44.52818" lon="4.25315">
        <ele>421</ele>
        <time>2016-05-15T07:47:56.000Z</time>
      </trkpt>
      <trkpt lat="44.52819" lon="4.25318">
        <ele>421</ele>
        <time>2016-05-15T07:47:57.000Z</time>
      </trkpt>
      <trkpt lat="44.52821" lon="4.25321">
        <ele>422</ele>
        <time>2016-05-15T07:47:58.000Z</time>
      </trkpt>
      <trkpt lat="44.52822" lon="4.25324">
        <ele>422</ele>
        <time>2016-05-15T07:47:59.000Z</time>
      </trkpt>
      <trkpt lat="44.52824" lon="4.25326">
        <ele>423</ele>
        <time>2016-05-15T07:48:00.000Z</time>
      </trkpt>
      <trkpt lat="44.52825" lon="4.25329">
        <ele>424</ele>
        <time>2016-05-15T07:48:01.000Z</time>
      </trkpt>
      <trkpt lat="44.52827" lon="4.25332">
        <ele>425</ele>
        <time>2016-05-15T07:48:02.000Z</time>
      </trkpt>
      <trkpt lat="44.52828" lon="4.25335">
        <ele>423</ele>
        <time>2016-05-15T07:48:03.000Z</time>
      </trkpt>
      <trkpt lat="44.5283" lon="4.25338">
        <ele>423</ele>
        <time>2016-05-15T07:48:04.000Z</time>
      </trkpt>
      <trkpt lat="44.52831" lon="4.25341">
        <ele>422</ele>
        <time>2016-05-15T07:48:05.000Z</time>
      </trkpt>
      <trkpt lat="44.52832" lon="4.25344">
        <ele>421</ele>
        <time>2016-05-15T07:48:06.000Z</time>
      </trkpt>
      <trkpt lat="44.52834" lon="4.25348">
        <ele>426</ele>
        <time>2016-05-15T07:48:07.000Z</time>
      </trkpt>
      <trkpt lat="44.52836" lon="4.25351">
        <ele>426</ele>
        <time>2016-05-15T07:48:08.000Z</time>
      </trkpt>
      <trkpt lat="44.52837" lon="4.25355">
        <ele>426</ele>
        <time>2016-05-15T07:48:09.000Z</time>
      </trkpt>
      <trkpt lat="44.5284" lon="4.25358">
        <ele>426</ele>
        <time>2016-05-15T07:48:10.000Z</time>
      </trkpt>
      <trkpt lat="44.52842" lon="4.25362">
        <ele>425</ele>
        <time>2016-05-15T07:48:11.000Z</time>
      </trkpt>
      <trkpt lat="44.52844" lon="4.25367">
        <ele>425</ele>
        <time>2016-05-15T07:48:12.000Z</time>
      </trkpt>
      <trkpt lat="44.52846" lon="4.25371">
        <ele>425</ele>
        <time>2016-05-15T07:48:13.000Z</time>
      </trkpt>
      <trkpt lat="44.52847" lon="4.25375">
        <ele>425</ele>
        <time>2016-05-15T07:48:14.000Z</time>
      </trkpt>
      <trkpt lat="44.52849" lon="4.25379">
        <ele>424</ele>
        <time>2016-05-15T07:48:15.000Z</time>
      </trkpt>
      <trkpt lat="44.52851" lon="4.25382">
        <ele>424</ele>
        <time>2016-05-15T07:48:16.000Z</time>
      </trkpt>
      <trkpt lat="44.52853" lon="4.25387">
        <ele>424</ele>
        <time>2016-05-15T07:48:17.000Z</time>
      </trkpt>
      <trkpt lat="44.52854" lon="4.25391">
        <ele>423</ele>
        <time>2016-05-15T07:48:18.000Z</time>
      </trkpt>
      <trkpt lat="44.52856" lon="4.25395">
        <ele>423</ele>
        <time>2016-05-15T07:48:19.000Z</time>
      </trkpt>
      <trkpt lat="44.52857" lon="4.25398">
        <ele>423</ele>
        <time>2016-05-15T07:48:20.000Z</time>
      </trkpt>
      <trkpt lat="44.52859" lon="4.25401">
        <ele>423</ele>
        <time>2016-05-15T07:48:21.000Z</time>
      </trkpt>
      <trkpt lat="44.5286" lon="4.25405">
        <ele>423</ele>
        <time>2016-05-15T07:48:22.000Z</time>
      </trkpt>
      <trkpt lat="44.52861" lon="4.25409">
        <ele>423</ele>
        <time>2016-05-15T07:48:23.000Z</time>
      </trkpt>
      <trkpt lat="44.52863" lon="4.25413">
        <ele>423</ele>
        <time>2016-05-15T07:48:24.000Z</time>
      </trkpt>
      <trkpt lat="44.52865" lon="4.25417">
        <ele>419</ele>
        <time>2016-05-15T07:48:25.000Z</time>
      </trkpt>
      <trkpt lat="44.52867" lon="4.25421">
        <ele>419</ele>
        <time>2016-05-15T07:48:26.000Z</time>
      </trkpt>
      <trkpt lat="44.52869" lon="4.25426">
        <ele>419</ele>
        <time>2016-05-15T07:48:27.000Z</time>
      </trkpt>
      <trkpt lat="44.5287" lon="4.25431">
        <ele>419</ele>
        <time>2016-05-15T07:48:28.000Z</time>
      </trkpt>
      <trkpt lat="44.52872" lon="4.25435">
        <ele>420</ele>
        <time>2016-05-15T07:48:29.000Z</time>
      </trkpt>
      <trkpt lat="44.52873" lon="4.25439">
        <ele>420</ele>
        <time>2016-05-15T07:48:30.000Z</time>
      </trkpt>
      <trkpt lat="44.52875" lon="4.25443">
        <ele>420</ele>
        <time>2016-05-15T07:48:31.000Z</time>
      </trkpt>
      <trkpt lat="44.52877" lon="4.25446">
        <ele>420</ele>
        <time>2016-05-15T07:48:32.000Z</time>
      </trkpt>
      <trkpt lat="44.5288" lon="4.2545">
        <ele>420</ele>
        <time>2016-05-15T07:48:33.000Z</time>
      </trkpt>
      <trkpt lat="44.52882" lon="4.25453">
        <ele>420</ele>
        <time>2016-05-15T07:48:34.000Z</time>
      </trkpt>
      <trkpt lat="44.52885" lon="4.25456">
        <ele>420</ele>
        <time>2016-05-15T07:48:35.000Z</time>
      </trkpt>
      <trkpt lat="44.52886" lon="4.25459">
        <ele>420</ele>
        <time>2016-05-15T07:48:36.000Z</time>
      </trkpt>
      <trkpt lat="44.52888" lon="4.25462">
        <ele>420</ele>
        <time>2016-05-15T07:48:37.000Z</time>
      </trkpt>
      <trkpt lat="44.52889" lon="4.25465">
        <ele>421</ele>
        <time>2016-05-15T07:48:38.000Z</time>
      </trkpt>
      <trkpt lat="44.5289" lon="4.25469">
        <ele>421</ele>
        <time>2016-05-15T07:48:39.000Z</time>
      </trkpt>
      <trkpt lat="44.5289" lon="4.25472">
        <ele>421</ele>
        <time>2016-05-15T07:48:40.000Z</time>
      </trkpt>
      <trkpt lat="44.52891" lon="4.25476">
        <ele>421</ele>
        <time>2016-05-15T07:48:41.000Z</time>
      </trkpt>
      <trkpt lat="44.52892" lon="4.2548">
        <ele>421</ele>
        <time>2016-05-15T07:48:42.000Z</time>
      </trkpt>
      <trkpt lat="44.52892" lon="4.25484">
        <ele>421</ele>
        <time>2016-05-15T07:48:43.000Z</time>
      </trkpt>
      <trkpt lat="44.52893" lon="4.25488">
        <ele>421</ele>
        <time>2016-05-15T07:48:44.000Z</time>
      </trkpt>
      <trkpt lat="44.52894" lon="4.2549">
        <ele>421</ele>
        <time>2016-05-15T07:48:45.000Z</time>
      </trkpt>
      <trkpt lat="44.52895" lon="4.25494">
        <ele>421</ele>
        <time>2016-05-15T07:48:46.000Z</time>
      </trkpt>
      <trkpt lat="44.52896" lon="4.25497">
        <ele>422</ele>
        <time>2016-05-15T07:48:47.000Z</time>
      </trkpt>
      <trkpt lat="44.52898" lon="4.255">
        <ele>422</ele>
        <time>2016-05-15T07:48:48.000Z</time>
      </trkpt>
      <trkpt lat="44.52899" lon="4.25502">
        <ele>421</ele>
        <time>2016-05-15T07:48:49.000Z</time>
      </trkpt>
      <trkpt lat="44.52901" lon="4.25503">
        <ele>421</ele>
        <time>2016-05-15T07:48:50.000Z</time>
      </trkpt>
      <trkpt lat="44.52903" lon="4.25504">
        <ele>422</ele>
        <time>2016-05-15T07:48:51.000Z</time>
      </trkpt>
      <trkpt lat="44.52905" lon="4.25504">
        <ele>422</ele>
        <time>2016-05-15T07:48:52.000Z</time>
      </trkpt>
      <trkpt lat="44.52906" lon="4.25504">
        <ele>422</ele>
        <time>2016-05-15T07:48:53.000Z</time>
      </trkpt>
      <trkpt lat="44.52908" lon="4.25502">
        <ele>423</ele>
        <time>2016-05-15T07:48:54.000Z</time>
      </trkpt>
      <trkpt lat="44.52909" lon="4.255">
        <ele>423</ele>
        <time>2016-05-15T07:48:55.000Z</time>
      </trkpt>
      <trkpt lat="44.5291" lon="4.25498">
        <ele>424</ele>
        <time>2016-05-15T07:48:56.000Z</time>
      </trkpt>
      <trkpt lat="44.52911" lon="4.25496">
        <ele>424</ele>
        <time>2016-05-15T07:48:57.000Z</time>
      </trkpt>
      <trkpt lat="44.52911" lon="4.25495">
        <ele>424</ele>
        <time>2016-05-15T07:48:58.000Z</time>
      </trkpt>
      <trkpt lat="44.52912" lon="4.25493">
        <ele>423</ele>
        <time>2016-05-15T07:48:59.000Z</time>
      </trkpt>
      <trkpt lat="44.52913" lon="4.25491">
        <ele>423</ele>
        <time>2016-05-15T07:49:00.000Z</time>
      </trkpt>
      <trkpt lat="44.52913" lon="4.25489">
        <ele>423</ele>
        <time>2016-05-15T07:49:01.000Z</time>
      </trkpt>
      <trkpt lat="44.52915" lon="4.25487">
        <ele>423</ele>
        <time>2016-05-15T07:49:02.000Z</time>
      </trkpt>
      <trkpt lat="44.52916" lon="4.25484">
        <ele>423</ele>
        <time>2016-05-15T07:49:03.000Z</time>
      </trkpt>
      <trkpt lat="44.52917" lon="4.25482">
        <ele>424</ele>
        <time>2016-05-15T07:49:04.000Z</time>
      </trkpt>
      <trkpt lat="44.52918" lon="4.2548">
        <ele>424</ele>
        <time>2016-05-15T07:49:05.000Z</time>
      </trkpt>
      <trkpt lat="44.5292" lon="4.25478">
        <ele>424</ele>
        <time>2016-05-15T07:49:06.000Z</time>
      </trkpt>
      <trkpt lat="44.52922" lon="4.25476">
        <ele>423</ele>
        <time>2016-05-15T07:49:07.000Z</time>
      </trkpt>
      <trkpt lat="44.52923" lon="4.25474">
        <ele>423</ele>
        <time>2016-05-15T07:49:08.000Z</time>
      </trkpt>
      <trkpt lat="44.52925" lon="4.25473">
        <ele>423</ele>
        <time>2016-05-15T07:49:09.000Z</time>
      </trkpt>
      <trkpt lat="44.52926" lon="4.25471">
        <ele>423</ele>
        <time>2016-05-15T07:49:10.000Z</time>
      </trkpt>
      <trkpt lat="44.52928" lon="4.2547">
        <ele>423</ele>
        <time>2016-05-15T07:49:11.000Z</time>
      </trkpt>
      <trkpt lat="44.5293" lon="4.25469">
        <ele>423</ele>
        <time>2016-05-15T07:49:12.000Z</time>
      </trkpt>
      <trkpt lat="44.52932" lon="4.25468">
        <ele>423</ele>
        <time>2016-05-15T07:49:13.000Z</time>
      </trkpt>
      <trkpt lat="44.52933" lon="4.25466">
        <ele>423</ele>
        <time>2016-05-15T07:49:14.000Z</time>
      </trkpt>
      <trkpt lat="44.52934" lon="4.25464">
        <ele>423</ele>
        <time>2016-05-15T07:49:15.000Z</time>
      </trkpt>
      <trkpt lat="44.52934" lon="4.25462">
        <ele>423</ele>
        <time>2016-05-15T07:49:16.000Z</time>
      </trkpt>
      <trkpt lat="44.52935" lon="4.25459">
        <ele>423</ele>
        <time>2016-05-15T07:49:17.000Z</time>
      </trkpt>
      <trkpt lat="44.52936" lon="4.25456">
        <ele>423</ele>
        <time>2016-05-15T07:49:18.000Z</time>
      </trkpt>
      <trkpt lat="44.52937" lon="4.25454">
        <ele>423</ele>
        <time>2016-05-15T07:49:19.000Z</time>
      </trkpt>
      <trkpt lat="44.52939" lon="4.25452">
        <ele>423</ele>
        <time>2016-05-15T07:49:20.000Z</time>
      </trkpt>
      <trkpt lat="44.52941" lon="4.2545">
        <ele>423</ele>
        <time>2016-05-15T07:49:21.000Z</time>
      </trkpt>
      <trkpt lat="44.52942" lon="4.25448">
        <ele>423</ele>
        <time>2016-05-15T07:49:22.000Z</time>
      </trkpt>
      <trkpt lat="44.52944" lon="4.25447">
        <ele>423</ele>
        <time>2016-05-15T07:49:23.000Z</time>
      </trkpt>
      <trkpt lat="44.52945" lon="4.25447">
        <ele>423</ele>
        <time>2016-05-15T07:49:24.000Z</time>
      </trkpt>
      <trkpt lat="44.52947" lon="4.25448">
        <ele>423</ele>
        <time>2016-05-15T07:49:25.000Z</time>
      </trkpt>
      <trkpt lat="44.52949" lon="4.25449">
        <ele>423</ele>
        <time>2016-05-15T07:49:26.000Z</time>
      </trkpt>
      <trkpt lat="44.5295" lon="4.2545">
        <ele>423</ele>
        <time>2016-05-15T07:49:27.000Z</time>
      </trkpt>
      <trkpt lat="44.5295" lon="4.25452">
        <ele>423</ele>
        <time>2016-05-15T07:49:28.000Z</time>
      </trkpt>
      <trkpt lat="44.5295" lon="4.25454">
        <ele>423</ele>
        <time>2016-05-15T07:49:29.000Z</time>
      </trkpt>
      <trkpt lat="44.52951" lon="4.25456">
        <ele>422</ele>
        <time>2016-05-15T07:49:30.000Z</time>
      </trkpt>
      <trkpt lat="44.52951" lon="4.25459">
        <ele>422</ele>
        <time>2016-05-15T07:49:31.000Z</time>
      </trkpt>
      <trkpt lat="44.52951" lon="4.25462">
        <ele>422</ele>
        <time>2016-05-15T07:49:32.000Z</time>
      </trkpt>
      <trkpt lat="44.52951" lon="4.25465">
        <ele>422</ele>
        <time>2016-05-15T07:49:33.000Z</time>
      </trkpt>
      <trkpt lat="44.5295" lon="4.25469">
        <ele>422</ele>
        <time>2016-05-15T07:49:34.000Z</time>
      </trkpt>
      <trkpt lat="44.52949" lon="4.25473">
        <ele>422</ele>
        <time>2016-05-15T07:49:35.000Z</time>
      </trkpt>
      <trkpt lat="44.52949" lon="4.25477">
        <ele>422</ele>
        <time>2016-05-15T07:49:36.000Z</time>
      </trkpt>
      <trkpt lat="44.52949" lon="4.25482">
        <ele>422</ele>
        <time>2016-05-15T07:49:37.000Z</time>
      </trkpt>
      <trkpt lat="44.5295" lon="4.25487">
        <ele>422</ele>
        <time>2016-05-15T07:49:38.000Z</time>
      </trkpt>
      <trkpt lat="44.52951" lon="4.25491">
        <ele>422</ele>
        <time>2016-05-15T07:49:39.000Z</time>
      </trkpt>
      <trkpt lat="44.52952" lon="4.25496">
        <ele>422</ele>
        <time>2016-05-15T07:49:40.000Z</time>
      </trkpt>
      <trkpt lat="44.52952" lon="4.255">
        <ele>422</ele>
        <time>2016-05-15T07:49:41.000Z</time>
      </trkpt>
      <trkpt lat="44.52953" lon="4.25504">
        <ele>420</ele>
        <time>2016-05-15T07:49:42.000Z</time>
      </trkpt>
      <trkpt lat="44.52953" lon="4.25508">
        <ele>420</ele>
        <time>2016-05-15T07:49:43.000Z</time>
      </trkpt>
      <trkpt lat="44.52954" lon="4.25513">
        <ele>420</ele>
        <time>2016-05-15T07:49:44.000Z</time>
      </trkpt>
      <trkpt lat="44.52953" lon="4.25517">
        <ele>420</ele>
        <time>2016-05-15T07:49:45.000Z</time>
      </trkpt>
      <trkpt lat="44.52953" lon="4.25522">
        <ele>420</ele>
        <time>2016-05-15T07:49:46.000Z</time>
      </trkpt>
      <trkpt lat="44.52952" lon="4.25527">
        <ele>420</ele>
        <time>2016-05-15T07:49:47.000Z</time>
      </trkpt>
      <trkpt lat="44.52952" lon="4.25532">
        <ele>420</ele>
        <time>2016-05-15T07:49:48.000Z</time>
      </trkpt>
      <trkpt lat="44.52952" lon="4.25537">
        <ele>419</ele>
        <time>2016-05-15T07:49:49.000Z</time>
      </trkpt>
      <trkpt lat="44.52951" lon="4.25542">
        <ele>419</ele>
        <time>2016-05-15T07:49:50.000Z</time>
      </trkpt>
      <trkpt lat="44.52951" lon="4.25546">
        <ele>419</ele>
        <time>2016-05-15T07:49:51.000Z</time>
      </trkpt>
      <trkpt lat="44.52951" lon="4.25552">
        <ele>419</ele>
        <time>2016-05-15T07:49:52.000Z</time>
      </trkpt>
      <trkpt lat="44.52951" lon="4.25557">
        <ele>419</ele>
        <time>2016-05-15T07:49:53.000Z</time>
      </trkpt>
      <trkpt lat="44.52951" lon="4.25563">
        <ele>419</ele>
        <time>2016-05-15T07:49:54.000Z</time>
      </trkpt>
      <trkpt lat="44.52951" lon="4.25569">
        <ele>419</ele>
        <time>2016-05-15T07:49:55.000Z</time>
      </trkpt>
      <trkpt lat="44.52951" lon="4.25575">
        <ele>419</ele>
        <time>2016-05-15T07:49:56.000Z</time>
      </trkpt>
      <trkpt lat="44.5295" lon="4.2558">
        <ele>419</ele>
        <time>2016-05-15T07:49:57.000Z</time>
      </trkpt>
      <trkpt lat="44.5295" lon="4.25586">
        <ele>418</ele>
        <time>2016-05-15T07:49:58.000Z</time>
      </trkpt>
      <trkpt lat="44.5295" lon="4.25591">
        <ele>418</ele>
        <time>2016-05-15T07:49:59.000Z</time>
      </trkpt>
      <trkpt lat="44.5295" lon="4.25596">
        <ele>418</ele>
        <time>2016-05-15T07:50:00.000Z</time>
      </trkpt>
      <trkpt lat="44.5295" lon="4.25602">
        <ele>417</ele>
        <time>2016-05-15T07:50:01.000Z</time>
      </trkpt>
      <trkpt lat="44.5295" lon="4.25608">
        <ele>417</ele>
        <time>2016-05-15T07:50:02.000Z</time>
      </trkpt>
      <trkpt lat="44.5295" lon="4.25614">
        <ele>417</ele>
        <time>2016-05-15T07:50:03.000Z</time>
      </trkpt>
      <trkpt lat="44.5295" lon="4.2562">
        <ele>417</ele>
        <time>2016-05-15T07:50:04.000Z</time>
      </trkpt>
      <trkpt lat="44.5295" lon="4.25626">
        <ele>417</ele>
        <time>2016-05-15T07:50:05.000Z</time>
      </trkpt>
      <trkpt lat="44.5295" lon="4.25631">
        <ele>417</ele>
        <time>2016-05-15T07:50:06.000Z</time>
      </trkpt>
      <trkpt lat="44.5295" lon="4.25637">
        <ele>416</ele>
        <time>2016-05-15T07:50:07.000Z</time>
      </trkpt>
      <trkpt lat="44.5295" lon="4.25643">
        <ele>416</ele>
        <time>2016-05-15T07:50:08.000Z</time>
      </trkpt>
      <trkpt lat="44.5295" lon="4.25648">
        <ele>416</ele>
        <time>2016-05-15T07:50:09.000Z</time>
      </trkpt>
      <trkpt lat="44.52951" lon="4.25654">
        <ele>416</ele>
        <time>2016-05-15T07:50:10.000Z</time>
      </trkpt>
      <trkpt lat="44.52952" lon="4.2566">
        <ele>416</ele>
        <time>2016-05-15T07:50:11.000Z</time>
      </trkpt>
      <trkpt lat="44.52953" lon="4.25666">
        <ele>416</ele>
        <time>2016-05-15T07:50:12.000Z</time>
      </trkpt>
      <trkpt lat="44.52954" lon="4.25673">
        <ele>413</ele>
        <time>2016-05-15T07:50:13.000Z</time>
      </trkpt>
      <trkpt lat="44.52955" lon="4.25681">
        <ele>413</ele>
        <time>2016-05-15T07:50:14.000Z</time>
      </trkpt>
      <trkpt lat="44.52956" lon="4.25689">
        <ele>413</ele>
        <time>2016-05-15T07:50:15.000Z</time>
      </trkpt>
      <trkpt lat="44.52956" lon="4.25697">
        <ele>413</ele>
        <time>2016-05-15T07:50:16.000Z</time>
      </trkpt>
      <trkpt lat="44.52957" lon="4.25705">
        <ele>412</ele>
        <time>2016-05-15T07:50:17.000Z</time>
      </trkpt>
      <trkpt lat="44.52958" lon="4.25713">
        <ele>412</ele>
        <time>2016-05-15T07:50:18.000Z</time>
      </trkpt>
      <trkpt lat="44.52959" lon="4.2572">
        <ele>412</ele>
        <time>2016-05-15T07:50:19.000Z</time>
      </trkpt>
      <trkpt lat="44.52958" lon="4.25727">
        <ele>412</ele>
        <time>2016-05-15T07:50:20.000Z</time>
      </trkpt>
      <trkpt lat="44.52956" lon="4.25734">
        <ele>412</ele>
        <time>2016-05-15T07:50:21.000Z</time>
      </trkpt>
      <trkpt lat="44.52953" lon="4.2574">
        <ele>412</ele>
        <time>2016-05-15T07:50:22.000Z</time>
      </trkpt>
      <trkpt lat="44.52949" lon="4.25747">
        <ele>412</ele>
        <time>2016-05-15T07:50:23.000Z</time>
      </trkpt>
      <trkpt lat="44.52946" lon="4.25752">
        <ele>408</ele>
        <time>2016-05-15T07:50:24.000Z</time>
      </trkpt>
      <trkpt lat="44.52942" lon="4.25758">
        <ele>408</ele>
        <time>2016-05-15T07:50:25.000Z</time>
      </trkpt>
      <trkpt lat="44.52939" lon="4.25765">
        <ele>408</ele>
        <time>2016-05-15T07:50:26.000Z</time>
      </trkpt>
      <trkpt lat="44.52936" lon="4.25774">
        <ele>407</ele>
        <time>2016-05-15T07:50:27.000Z</time>
      </trkpt>
      <trkpt lat="44.52933" lon="4.25781">
        <ele>407</ele>
        <time>2016-05-15T07:50:28.000Z</time>
      </trkpt>
      <trkpt lat="44.5293" lon="4.25789">
        <ele>407</ele>
        <time>2016-05-15T07:50:29.000Z</time>
      </trkpt>
      <trkpt lat="44.52929" lon="4.25795">
        <ele>406</ele>
        <time>2016-05-15T07:50:30.000Z</time>
      </trkpt>
      <trkpt lat="44.52928" lon="4.258">
        <ele>406</ele>
        <time>2016-05-15T07:50:31.000Z</time>
      </trkpt>
      <trkpt lat="44.52926" lon="4.25804">
        <ele>406</ele>
        <time>2016-05-15T07:50:32.000Z</time>
      </trkpt>
      <trkpt lat="44.52924" lon="4.25808">
        <ele>406</ele>
        <time>2016-05-15T07:50:33.000Z</time>
      </trkpt>
      <trkpt lat="44.52921" lon="4.25811">
        <ele>406</ele>
        <time>2016-05-15T07:50:34.000Z</time>
      </trkpt>
      <trkpt lat="44.52918" lon="4.25814">
        <ele>406</ele>
        <time>2016-05-15T07:50:35.000Z</time>
      </trkpt>
      <trkpt lat="44.52914" lon="4.25817">
        <ele>406</ele>
        <time>2016-05-15T07:50:36.000Z</time>
      </trkpt>
      <trkpt lat="44.52911" lon="4.2582">
        <ele>406</ele>
        <time>2016-05-15T07:50:37.000Z</time>
      </trkpt>
      <trkpt lat="44.52907" lon="4.25822">
        <ele>406</ele>
        <time>2016-05-15T07:50:38.000Z</time>
      </trkpt>
      <trkpt lat="44.52904" lon="4.25823">
        <ele>405</ele>
        <time>2016-05-15T07:50:39.000Z</time>
      </trkpt>
      <trkpt lat="44.529" lon="4.25824">
        <ele>405</ele>
        <time>2016-05-15T07:50:40.000Z</time>
      </trkpt>
      <trkpt lat="44.52897" lon="4.25825">
        <ele>405</ele>
        <time>2016-05-15T07:50:41.000Z</time>
      </trkpt>
      <trkpt lat="44.52896" lon="4.25827">
        <ele>405</ele>
        <time>2016-05-15T07:50:42.000Z</time>
      </trkpt>
      <trkpt lat="44.52895" lon="4.25829">
        <ele>405</ele>
        <time>2016-05-15T07:50:43.000Z</time>
      </trkpt>
      <trkpt lat="44.52895" lon="4.25832">
        <ele>405</ele>
        <time>2016-05-15T07:50:44.000Z</time>
      </trkpt>
      <trkpt lat="44.52896" lon="4.25836">
        <ele>404</ele>
        <time>2016-05-15T07:50:45.000Z</time>
      </trkpt>
      <trkpt lat="44.52897" lon="4.2584">
        <ele>404</ele>
        <time>2016-05-15T07:50:46.000Z</time>
      </trkpt>
      <trkpt lat="44.52898" lon="4.25845">
        <ele>404</ele>
        <time>2016-05-15T07:50:47.000Z</time>
      </trkpt>
      <trkpt lat="44.52899" lon="4.2585">
        <ele>404</ele>
        <time>2016-05-15T07:50:48.000Z</time>
      </trkpt>
      <trkpt lat="44.529" lon="4.25854">
        <ele>404</ele>
        <time>2016-05-15T07:50:49.000Z</time>
      </trkpt>
      <trkpt lat="44.529" lon="4.25859">
        <ele>404</ele>
        <time>2016-05-15T07:50:50.000Z</time>
      </trkpt>
      <trkpt lat="44.529" lon="4.25864">
        <ele>404</ele>
        <time>2016-05-15T07:50:51.000Z</time>
      </trkpt>
      <trkpt lat="44.529" lon="4.25869">
        <ele>404</ele>
        <time>2016-05-15T07:50:52.000Z</time>
      </trkpt>
      <trkpt lat="44.529" lon="4.25874">
        <ele>404</ele>
        <time>2016-05-15T07:50:53.000Z</time>
      </trkpt>
      <trkpt lat="44.529" lon="4.25879">
        <ele>403</ele>
        <time>2016-05-15T07:50:54.000Z</time>
      </trkpt>
      <trkpt lat="44.52899" lon="4.25883">
        <ele>404</ele>
        <time>2016-05-15T07:50:55.000Z</time>
      </trkpt>
      <trkpt lat="44.52899" lon="4.25888">
        <ele>404</ele>
        <time>2016-05-15T07:50:56.000Z</time>
      </trkpt>
      <trkpt lat="44.52899" lon="4.25892">
        <ele>404</ele>
        <time>2016-05-15T07:50:57.000Z</time>
      </trkpt>
      <trkpt lat="44.52899" lon="4.25897">
        <ele>404</ele>
        <time>2016-05-15T07:50:58.000Z</time>
      </trkpt>
      <trkpt lat="44.52899" lon="4.25902">
        <ele>404</ele>
        <time>2016-05-15T07:50:59.000Z</time>
      </trkpt>
      <trkpt lat="44.52899" lon="4.25906">
        <ele>404</ele>
        <time>2016-05-15T07:51:00.000Z</time>
      </trkpt>
      <trkpt lat="44.52898" lon="4.25911">
        <ele>404</ele>
        <time>2016-05-15T07:51:01.000Z</time>
      </trkpt>
      <trkpt lat="44.52897" lon="4.25916">
        <ele>404</ele>
        <time>2016-05-15T07:51:02.000Z</time>
      </trkpt>
      <trkpt lat="44.52897" lon="4.25921">
        <ele>405</ele>
        <time>2016-05-15T07:51:03.000Z</time>
      </trkpt>
      <trkpt lat="44.52897" lon="4.25926">
        <ele>405</ele>
        <time>2016-05-15T07:51:04.000Z</time>
      </trkpt>
      <trkpt lat="44.52896" lon="4.2593">
        <ele>405</ele>
        <time>2016-05-15T07:51:05.000Z</time>
      </trkpt>
      <trkpt lat="44.52894" lon="4.25932">
        <ele>405</ele>
        <time>2016-05-15T07:51:06.000Z</time>
      </trkpt>
      <trkpt lat="44.5289" lon="4.25934">
        <ele>405</ele>
        <time>2016-05-15T07:51:07.000Z</time>
      </trkpt>
      <trkpt lat="44.52887" lon="4.25935">
        <ele>405</ele>
        <time>2016-05-15T07:51:08.000Z</time>
      </trkpt>
      <trkpt lat="44.52884" lon="4.25936">
        <ele>405</ele>
        <time>2016-05-15T07:51:09.000Z</time>
      </trkpt>
      <trkpt lat="44.52882" lon="4.25936">
        <ele>405</ele>
        <time>2016-05-15T07:51:10.000Z</time>
      </trkpt>
      <trkpt lat="44.52879" lon="4.25938">
        <ele>405</ele>
        <time>2016-05-15T07:51:11.000Z</time>
      </trkpt>
      <trkpt lat="44.52878" lon="4.25941">
        <ele>405</ele>
        <time>2016-05-15T07:51:12.000Z</time>
      </trkpt>
      <trkpt lat="44.52878" lon="4.25945">
        <ele>405</ele>
        <time>2016-05-15T07:51:13.000Z</time>
      </trkpt>
      <trkpt lat="44.52876" lon="4.25948">
        <ele>405</ele>
        <time>2016-05-15T07:51:14.000Z</time>
      </trkpt>
      <trkpt lat="44.52875" lon="4.25951">
        <ele>405</ele>
        <time>2016-05-15T07:51:15.000Z</time>
      </trkpt>
      <trkpt lat="44.52874" lon="4.25955">
        <ele>405</ele>
        <time>2016-05-15T07:51:16.000Z</time>
      </trkpt>
      <trkpt lat="44.52873" lon="4.25958">
        <ele>405</ele>
        <time>2016-05-15T07:51:17.000Z</time>
      </trkpt>
      <trkpt lat="44.52873" lon="4.25961">
        <ele>405</ele>
        <time>2016-05-15T07:51:18.000Z</time>
      </trkpt>
      <trkpt lat="44.52872" lon="4.25964">
        <ele>405</ele>
        <time>2016-05-15T07:51:19.000Z</time>
      </trkpt>
      <trkpt lat="44.52872" lon="4.25967">
        <ele>405</ele>
        <time>2016-05-15T07:51:20.000Z</time>
      </trkpt>
      <trkpt lat="44.52871" lon="4.25971">
        <ele>405</ele>
        <time>2016-05-15T07:51:21.000Z</time>
      </trkpt>
      <trkpt lat="44.52871" lon="4.25975">
        <ele>405</ele>
        <time>2016-05-15T07:51:22.000Z</time>
      </trkpt>
      <trkpt lat="44.52871" lon="4.25979">
        <ele>405</ele>
        <time>2016-05-15T07:51:23.000Z</time>
      </trkpt>
      <trkpt lat="44.5287" lon="4.25983">
        <ele>405</ele>
        <time>2016-05-15T07:51:24.000Z</time>
      </trkpt>
      <trkpt lat="44.52869" lon="4.25987">
        <ele>405</ele>
        <time>2016-05-15T07:51:25.000Z</time>
      </trkpt>
      <trkpt lat="44.52869" lon="4.25991">
        <ele>405</ele>
        <time>2016-05-15T07:51:26.000Z</time>
      </trkpt>
      <trkpt lat="44.52868" lon="4.25996">
        <ele>405</ele>
        <time>2016-05-15T07:51:27.000Z</time>
      </trkpt>
      <trkpt lat="44.52867" lon="4.26001">
        <ele>405</ele>
        <time>2016-05-15T07:51:28.000Z</time>
      </trkpt>
      <trkpt lat="44.52867" lon="4.26006">
        <ele>405</ele>
        <time>2016-05-15T07:51:29.000Z</time>
      </trkpt>
      <trkpt lat="44.52867" lon="4.26011">
        <ele>405</ele>
        <time>2016-05-15T07:51:30.000Z</time>
      </trkpt>
      <trkpt lat="44.52868" lon="4.26015">
        <ele>405</ele>
        <time>2016-05-15T07:51:31.000Z</time>
      </trkpt>
      <trkpt lat="44.52867" lon="4.26019">
        <ele>405</ele>
        <time>2016-05-15T07:51:32.000Z</time>
      </trkpt>
      <trkpt lat="44.52866" lon="4.26022">
        <ele>405</ele>
        <time>2016-05-15T07:51:33.000Z</time>
      </trkpt>
      <trkpt lat="44.52864" lon="4.26024">
        <ele>405</ele>
        <time>2016-05-15T07:51:34.000Z</time>
      </trkpt>
      <trkpt lat="44.52862" lon="4.26024">
        <ele>405</ele>
        <time>2016-05-15T07:51:35.000Z</time>
      </trkpt>
      <trkpt lat="44.52859" lon="4.26024">
        <ele>405</ele>
        <time>2016-05-15T07:51:36.000Z</time>
      </trkpt>
      <trkpt lat="44.52857" lon="4.26023">
        <ele>405</ele>
        <time>2016-05-15T07:51:37.000Z</time>
      </trkpt>
      <trkpt lat="44.52854" lon="4.26022">
        <ele>405</ele>
        <time>2016-05-15T07:51:38.000Z</time>
      </trkpt>
      <trkpt lat="44.52851" lon="4.26021">
        <ele>405</ele>
        <time>2016-05-15T07:51:39.000Z</time>
      </trkpt>
      <trkpt lat="44.52848" lon="4.26019">
        <ele>406</ele>
        <time>2016-05-15T07:51:40.000Z</time>
      </trkpt>
      <trkpt lat="44.52846" lon="4.26018">
        <ele>406</ele>
        <time>2016-05-15T07:51:41.000Z</time>
      </trkpt>
      <trkpt lat="44.52844" lon="4.26017">
        <ele>406</ele>
        <time>2016-05-15T07:51:42.000Z</time>
      </trkpt>
      <trkpt lat="44.52841" lon="4.26016">
        <ele>406</ele>
        <time>2016-05-15T07:51:43.000Z</time>
      </trkpt>
      <trkpt lat="44.52837" lon="4.26016">
        <ele>406</ele>
        <time>2016-05-15T07:51:44.000Z</time>
      </trkpt>
      <trkpt lat="44.52834" lon="4.26016">
        <ele>406</ele>
        <time>2016-05-15T07:51:45.000Z</time>
      </trkpt>
      <trkpt lat="44.5283" lon="4.26017">
        <ele>406</ele>
        <time>2016-05-15T07:51:46.000Z</time>
      </trkpt>
      <trkpt lat="44.52826" lon="4.26018">
        <ele>406</ele>
        <time>2016-05-15T07:51:47.000Z</time>
      </trkpt>
      <trkpt lat="44.52823" lon="4.2602">
        <ele>405</ele>
        <time>2016-05-15T07:51:48.000Z</time>
      </trkpt>
      <trkpt lat="44.5282" lon="4.26023">
        <ele>405</ele>
        <time>2016-05-15T07:51:49.000Z</time>
      </trkpt>
      <trkpt lat="44.52816" lon="4.26025">
        <ele>405</ele>
        <time>2016-05-15T07:51:50.000Z</time>
      </trkpt>
      <trkpt lat="44.52811" lon="4.26027">
        <ele>405</ele>
        <time>2016-05-15T07:51:51.000Z</time>
      </trkpt>
      <trkpt lat="44.52807" lon="4.26029">
        <ele>404</ele>
        <time>2016-05-15T07:51:52.000Z</time>
      </trkpt>
      <trkpt lat="44.52803" lon="4.26029">
        <ele>404</ele>
        <time>2016-05-15T07:51:53.000Z</time>
      </trkpt>
      <trkpt lat="44.528" lon="4.26028">
        <ele>404</ele>
        <time>2016-05-15T07:51:54.000Z</time>
      </trkpt>
      <trkpt lat="44.52797" lon="4.26028">
        <ele>404</ele>
        <time>2016-05-15T07:51:55.000Z</time>
      </trkpt>
      <trkpt lat="44.52794" lon="4.26027">
        <ele>404</ele>
        <time>2016-05-15T07:51:56.000Z</time>
      </trkpt>
      <trkpt lat="44.5279" lon="4.26027">
        <ele>404</ele>
        <time>2016-05-15T07:51:57.000Z</time>
      </trkpt>
      <trkpt lat="44.52788" lon="4.26027">
        <ele>404</ele>
        <time>2016-05-15T07:51:58.000Z</time>
      </trkpt>
      <trkpt lat="44.52785" lon="4.26026">
        <ele>404</ele>
        <time>2016-05-15T07:51:59.000Z</time>
      </trkpt>
      <trkpt lat="44.52783" lon="4.26027">
        <ele>403</ele>
        <time>2016-05-15T07:52:00.000Z</time>
      </trkpt>
      <trkpt lat="44.5278" lon="4.26029">
        <ele>403</ele>
        <time>2016-05-15T07:52:01.000Z</time>
      </trkpt>
      <trkpt lat="44.52777" lon="4.26031">
        <ele>403</ele>
        <time>2016-05-15T07:52:02.000Z</time>
      </trkpt>
      <trkpt lat="44.52774" lon="4.26033">
        <ele>403</ele>
        <time>2016-05-15T07:52:03.000Z</time>
      </trkpt>
      <trkpt lat="44.5277" lon="4.26035">
        <ele>403</ele>
        <time>2016-05-15T07:52:04.000Z</time>
      </trkpt>
      <trkpt lat="44.52767" lon="4.26038">
        <ele>403</ele>
        <time>2016-05-15T07:52:05.000Z</time>
      </trkpt>
      <trkpt lat="44.52765" lon="4.26042">
        <ele>403</ele>
        <time>2016-05-15T07:52:06.000Z</time>
      </trkpt>
      <trkpt lat="44.52765" lon="4.26045">
        <ele>403</ele>
        <time>2016-05-15T07:52:07.000Z</time>
      </trkpt>
      <trkpt lat="44.52765" lon="4.26047">
        <ele>403</ele>
        <time>2016-05-15T07:52:08.000Z</time>
      </trkpt>
      <trkpt lat="44.52766" lon="4.2605">
        <ele>403</ele>
        <time>2016-05-15T07:52:09.000Z</time>
      </trkpt>
      <trkpt lat="44.52766" lon="4.26053">
        <ele>403</ele>
        <time>2016-05-15T07:52:10.000Z</time>
      </trkpt>
      <trkpt lat="44.52764" lon="4.26057">
        <ele>402</ele>
        <time>2016-05-15T07:52:11.000Z</time>
      </trkpt>
      <trkpt lat="44.52763" lon="4.26062">
        <ele>402</ele>
        <time>2016-05-15T07:52:12.000Z</time>
      </trkpt>
      <trkpt lat="44.52763" lon="4.26067">
        <ele>402</ele>
        <time>2016-05-15T07:52:13.000Z</time>
      </trkpt>
      <trkpt lat="44.52764" lon="4.26073">
        <ele>402</ele>
        <time>2016-05-15T07:52:14.000Z</time>
      </trkpt>
      <trkpt lat="44.52765" lon="4.26078">
        <ele>402</ele>
        <time>2016-05-15T07:52:15.000Z</time>
      </trkpt>
      <trkpt lat="44.52766" lon="4.26081">
        <ele>402</ele>
        <time>2016-05-15T07:52:16.000Z</time>
      </trkpt>
      <trkpt lat="44.52766" lon="4.26083">
        <ele>402</ele>
        <time>2016-05-15T07:52:17.000Z</time>
      </trkpt>
      <trkpt lat="44.52766" lon="4.26085">
        <ele>397</ele>
        <time>2016-05-15T07:52:18.000Z</time>
      </trkpt>
      <trkpt lat="44.52765" lon="4.26088">
        <ele>397</ele>
        <time>2016-05-15T07:52:19.000Z</time>
      </trkpt>
      <trkpt lat="44.52764" lon="4.2609">
        <ele>397</ele>
        <time>2016-05-15T07:52:20.000Z</time>
      </trkpt>
      <trkpt lat="44.52763" lon="4.26091">
        <ele>397</ele>
        <time>2016-05-15T07:52:21.000Z</time>
      </trkpt>
      <trkpt lat="44.52761" lon="4.26092">
        <ele>397</ele>
        <time>2016-05-15T07:52:22.000Z</time>
      </trkpt>
      <trkpt lat="44.52759" lon="4.26094">
        <ele>397</ele>
        <time>2016-05-15T07:52:23.000Z</time>
      </trkpt>
      <trkpt lat="44.52758" lon="4.26095">
        <ele>397</ele>
        <time>2016-05-15T07:52:24.000Z</time>
      </trkpt>
      <trkpt lat="44.52756" lon="4.26096">
        <ele>397</ele>
        <time>2016-05-15T07:52:25.000Z</time>
      </trkpt>
      <trkpt lat="44.52755" lon="4.26097">
        <ele>397</ele>
        <time>2016-05-15T07:52:26.000Z</time>
      </trkpt>
      <trkpt lat="44.52754" lon="4.26098">
        <ele>397</ele>
        <time>2016-05-15T07:52:27.000Z</time>
      </trkpt>
      <trkpt lat="44.52753" lon="4.26099">
        <ele>397</ele>
        <time>2016-05-15T07:52:28.000Z</time>
      </trkpt>
      <trkpt lat="44.52751" lon="4.261">
        <ele>397</ele>
        <time>2016-05-15T07:52:29.000Z</time>
      </trkpt>
      <trkpt lat="44.52749" lon="4.26101">
        <ele>394</ele>
        <time>2016-05-15T07:52:30.000Z</time>
      </trkpt>
      <trkpt lat="44.52748" lon="4.26102">
        <ele>393</ele>
        <time>2016-05-15T07:52:31.000Z</time>
      </trkpt>
      <trkpt lat="44.52745" lon="4.26102">
        <ele>393</ele>
        <time>2016-05-15T07:52:32.000Z</time>
      </trkpt>
      <trkpt lat="44.52744" lon="4.26102">
        <ele>393</ele>
        <time>2016-05-15T07:52:33.000Z</time>
      </trkpt>
      <trkpt lat="44.52742" lon="4.26103">
        <ele>393</ele>
        <time>2016-05-15T07:52:34.000Z</time>
      </trkpt>
      <trkpt lat="44.5274" lon="4.26103">
        <ele>393</ele>
        <time>2016-05-15T07:52:35.000Z</time>
      </trkpt>
      <trkpt lat="44.52738" lon="4.26103">
        <ele>392</ele>
        <time>2016-05-15T07:52:36.000Z</time>
      </trkpt>
      <trkpt lat="44.52736" lon="4.26103">
        <ele>392</ele>
        <time>2016-05-15T07:52:37.000Z</time>
      </trkpt>
      <trkpt lat="44.52733" lon="4.26102">
        <ele>392</ele>
        <time>2016-05-15T07:52:38.000Z</time>
      </trkpt>
      <trkpt lat="44.52731" lon="4.26102">
        <ele>392</ele>
        <time>2016-05-15T07:52:39.000Z</time>
      </trkpt>
      <trkpt lat="44.52728" lon="4.261">
        <ele>392</ele>
        <time>2016-05-15T07:52:40.000Z</time>
      </trkpt>
      <trkpt lat="44.52726" lon="4.26098">
        <ele>392</ele>
        <time>2016-05-15T07:52:41.000Z</time>
      </trkpt>
      <trkpt lat="44.52724" lon="4.26097">
        <ele>392</ele>
        <time>2016-05-15T07:52:42.000Z</time>
      </trkpt>
      <trkpt lat="44.52724" lon="4.26095">
        <ele>392</ele>
        <time>2016-05-15T07:52:43.000Z</time>
      </trkpt>
      <trkpt lat="44.52723" lon="4.26092">
        <ele>392</ele>
        <time>2016-05-15T07:52:44.000Z</time>
      </trkpt>
      <trkpt lat="44.52721" lon="4.2609">
        <ele>392</ele>
        <time>2016-05-15T07:52:45.000Z</time>
      </trkpt>
      <trkpt lat="44.5272" lon="4.26088">
        <ele>392</ele>
        <time>2016-05-15T07:52:46.000Z</time>
      </trkpt>
      <trkpt lat="44.52719" lon="4.26085">
        <ele>392</ele>
        <time>2016-05-15T07:52:47.000Z</time>
      </trkpt>
      <trkpt lat="44.52718" lon="4.26083">
        <ele>396</ele>
        <time>2016-05-15T07:52:48.000Z</time>
      </trkpt>
      <trkpt lat="44.52717" lon="4.2608">
        <ele>396</ele>
        <time>2016-05-15T07:52:49.000Z</time>
      </trkpt>
      <trkpt lat="44.52716" lon="4.26078">
        <ele>396</ele>
        <time>2016-05-15T07:52:50.000Z</time>
      </trkpt>
      <trkpt lat="44.52715" lon="4.26077">
        <ele>396</ele>
        <time>2016-05-15T07:52:51.000Z</time>
      </trkpt>
      <trkpt lat="44.52714" lon="4.26075">
        <ele>396</ele>
        <time>2016-05-15T07:52:52.000Z</time>
      </trkpt>
      <trkpt lat="44.52713" lon="4.26074">
        <ele>396</ele>
        <time>2016-05-15T07:52:53.000Z</time>
      </trkpt>
      <trkpt lat="44.52711" lon="4.26075">
        <ele>396</ele>
        <time>2016-05-15T07:52:54.000Z</time>
      </trkpt>
      <trkpt lat="44.52709" lon="4.26076">
        <ele>396</ele>
        <time>2016-05-15T07:52:55.000Z</time>
      </trkpt>
      <trkpt lat="44.52706" lon="4.26077">
        <ele>395</ele>
        <time>2016-05-15T07:52:56.000Z</time>
      </trkpt>
      <trkpt lat="44.52704" lon="4.26077">
        <ele>395</ele>
        <time>2016-05-15T07:52:57.000Z</time>
      </trkpt>
      <trkpt lat="44.52701" lon="4.26076">
        <ele>395</ele>
        <time>2016-05-15T07:52:58.000Z</time>
      </trkpt>
      <trkpt lat="44.52698" lon="4.26076">
        <ele>395</ele>
        <time>2016-05-15T07:52:59.000Z</time>
      </trkpt>
      <trkpt lat="44.52695" lon="4.26077">
        <ele>395</ele>
        <time>2016-05-15T07:53:00.000Z</time>
      </trkpt>
      <trkpt lat="44.52693" lon="4.2608">
        <ele>394</ele>
        <time>2016-05-15T07:53:01.000Z</time>
      </trkpt>
      <trkpt lat="44.5269" lon="4.26084">
        <ele>390</ele>
        <time>2016-05-15T07:53:02.000Z</time>
      </trkpt>
      <trkpt lat="44.52688" lon="4.26088">
        <ele>390</ele>
        <time>2016-05-15T07:53:03.000Z</time>
      </trkpt>
      <trkpt lat="44.52685" lon="4.26091">
        <ele>390</ele>
        <time>2016-05-15T07:53:04.000Z</time>
      </trkpt>
      <trkpt lat="44.52681" lon="4.26094">
        <ele>389</ele>
        <time>2016-05-15T07:53:05.000Z</time>
      </trkpt>
      <trkpt lat="44.52678" lon="4.26098">
        <ele>389</ele>
        <time>2016-05-15T07:53:06.000Z</time>
      </trkpt>
      <trkpt lat="44.52675" lon="4.26099">
        <ele>389</ele>
        <time>2016-05-15T07:53:07.000Z</time>
      </trkpt>
      <trkpt lat="44.5267" lon="4.261">
        <ele>389</ele>
        <time>2016-05-15T07:53:08.000Z</time>
      </trkpt>
      <trkpt lat="44.52666" lon="4.26101">
        <ele>386</ele>
        <time>2016-05-15T07:53:09.000Z</time>
      </trkpt>
      <trkpt lat="44.52662" lon="4.26102">
        <ele>386</ele>
        <time>2016-05-15T07:53:10.000Z</time>
      </trkpt>
      <trkpt lat="44.52659" lon="4.26102">
        <ele>385</ele>
        <time>2016-05-15T07:53:11.000Z</time>
      </trkpt>
      <trkpt lat="44.52655" lon="4.26103">
        <ele>385</ele>
        <time>2016-05-15T07:53:12.000Z</time>
      </trkpt>
      <trkpt lat="44.52651" lon="4.26102">
        <ele>385</ele>
        <time>2016-05-15T07:53:13.000Z</time>
      </trkpt>
      <trkpt lat="44.52647" lon="4.26099">
        <ele>385</ele>
        <time>2016-05-15T07:53:14.000Z</time>
      </trkpt>
      <trkpt lat="44.52645" lon="4.26096">
        <ele>385</ele>
        <time>2016-05-15T07:53:15.000Z</time>
      </trkpt>
      <trkpt lat="44.52643" lon="4.26092">
        <ele>385</ele>
        <time>2016-05-15T07:53:16.000Z</time>
      </trkpt>
      <trkpt lat="44.5264" lon="4.26091">
        <ele>385</ele>
        <time>2016-05-15T07:53:17.000Z</time>
      </trkpt>
      <trkpt lat="44.52637" lon="4.26091">
        <ele>384</ele>
        <time>2016-05-15T07:53:18.000Z</time>
      </trkpt>
      <trkpt lat="44.52635" lon="4.26089">
        <ele>384</ele>
        <time>2016-05-15T07:53:19.000Z</time>
      </trkpt>
      <trkpt lat="44.52632" lon="4.26088">
        <ele>384</ele>
        <time>2016-05-15T07:53:20.000Z</time>
      </trkpt>
      <trkpt lat="44.52629" lon="4.26089">
        <ele>384</ele>
        <time>2016-05-15T07:53:21.000Z</time>
      </trkpt>
      <trkpt lat="44.52625" lon="4.26091">
        <ele>383</ele>
        <time>2016-05-15T07:53:22.000Z</time>
      </trkpt>
      <trkpt lat="44.52621" lon="4.26092">
        <ele>383</ele>
        <time>2016-05-15T07:53:23.000Z</time>
      </trkpt>
      <trkpt lat="44.52619" lon="4.26091">
        <ele>383</ele>
        <time>2016-05-15T07:53:24.000Z</time>
      </trkpt>
      <trkpt lat="44.52616" lon="4.2609">
        <ele>383</ele>
        <time>2016-05-15T07:53:25.000Z</time>
      </trkpt>
      <trkpt lat="44.52613" lon="4.26088">
        <ele>383</ele>
        <time>2016-05-15T07:53:26.000Z</time>
      </trkpt>
      <trkpt lat="44.52611" lon="4.26086">
        <ele>383</ele>
        <time>2016-05-15T07:53:27.000Z</time>
      </trkpt>
      <trkpt lat="44.52609" lon="4.26085">
        <ele>383</ele>
        <time>2016-05-15T07:53:28.000Z</time>
      </trkpt>
      <trkpt lat="44.52607" lon="4.26084">
        <ele>383</ele>
        <time>2016-05-15T07:53:29.000Z</time>
      </trkpt>
      <trkpt lat="44.52604" lon="4.26082">
        <ele>385</ele>
        <time>2016-05-15T07:53:30.000Z</time>
      </trkpt>
      <trkpt lat="44.52602" lon="4.26081">
        <ele>385</ele>
        <time>2016-05-15T07:53:31.000Z</time>
      </trkpt>
      <trkpt lat="44.52599" lon="4.2608">
        <ele>385</ele>
        <time>2016-05-15T07:53:32.000Z</time>
      </trkpt>
      <trkpt lat="44.52598" lon="4.26079">
        <ele>385</ele>
        <time>2016-05-15T07:53:33.000Z</time>
      </trkpt>
      <trkpt lat="44.52595" lon="4.26078">
        <ele>385</ele>
        <time>2016-05-15T07:53:34.000Z</time>
      </trkpt>
      <trkpt lat="44.52592" lon="4.26078">
        <ele>385</ele>
        <time>2016-05-15T07:53:35.000Z</time>
      </trkpt>
      <trkpt lat="44.52589" lon="4.26079">
        <ele>384</ele>
        <time>2016-05-15T07:53:36.000Z</time>
      </trkpt>
      <trkpt lat="44.52587" lon="4.2608">
        <ele>384</ele>
        <time>2016-05-15T07:53:37.000Z</time>
      </trkpt>
      <trkpt lat="44.52584" lon="4.26078">
        <ele>384</ele>
        <time>2016-05-15T07:53:38.000Z</time>
      </trkpt>
      <trkpt lat="44.52581" lon="4.26076">
        <ele>382</ele>
        <time>2016-05-15T07:53:39.000Z</time>
      </trkpt>
      <trkpt lat="44.52577" lon="4.26074">
        <ele>382</ele>
        <time>2016-05-15T07:53:40.000Z</time>
      </trkpt>
      <trkpt lat="44.52574" lon="4.26073">
        <ele>381</ele>
        <time>2016-05-15T07:53:41.000Z</time>
      </trkpt>
      <trkpt lat="44.52571" lon="4.26073">
        <ele>381</ele>
        <time>2016-05-15T07:53:42.000Z</time>
      </trkpt>
      <trkpt lat="44.52568" lon="4.26074">
        <ele>381</ele>
        <time>2016-05-15T07:53:43.000Z</time>
      </trkpt>
      <trkpt lat="44.52565" lon="4.26075">
        <ele>381</ele>
        <time>2016-05-15T07:53:44.000Z</time>
      </trkpt>
      <trkpt lat="44.52563" lon="4.26076">
        <ele>381</ele>
        <time>2016-05-15T07:53:45.000Z</time>
      </trkpt>
      <trkpt lat="44.5256" lon="4.26076">
        <ele>380</ele>
        <time>2016-05-15T07:53:46.000Z</time>
      </trkpt>
      <trkpt lat="44.52558" lon="4.26074">
        <ele>380</ele>
        <time>2016-05-15T07:53:47.000Z</time>
      </trkpt>
      <trkpt lat="44.52556" lon="4.26072">
        <ele>380</ele>
        <time>2016-05-15T07:53:48.000Z</time>
      </trkpt>
      <trkpt lat="44.52554" lon="4.26072">
        <ele>380</ele>
        <time>2016-05-15T07:53:49.000Z</time>
      </trkpt>
      <trkpt lat="44.52552" lon="4.26072">
        <ele>380</ele>
        <time>2016-05-15T07:53:50.000Z</time>
      </trkpt>
      <trkpt lat="44.52549" lon="4.26072">
        <ele>379</ele>
        <time>2016-05-15T07:53:51.000Z</time>
      </trkpt>
      <trkpt lat="44.52546" lon="4.26074">
        <ele>379</ele>
        <time>2016-05-15T07:53:52.000Z</time>
      </trkpt>
      <trkpt lat="44.52542" lon="4.26076">
        <ele>379</ele>
        <time>2016-05-15T07:53:53.000Z</time>
      </trkpt>
      <trkpt lat="44.52538" lon="4.26078">
        <ele>379</ele>
        <time>2016-05-15T07:53:54.000Z</time>
      </trkpt>
      <trkpt lat="44.52536" lon="4.26082">
        <ele>379</ele>
        <time>2016-05-15T07:53:55.000Z</time>
      </trkpt>
      <trkpt lat="44.52534" lon="4.26086">
        <ele>379</ele>
        <time>2016-05-15T07:53:56.000Z</time>
      </trkpt>
      <trkpt lat="44.52532" lon="4.2609">
        <ele>379</ele>
        <time>2016-05-15T07:53:57.000Z</time>
      </trkpt>
      <trkpt lat="44.5253" lon="4.26093">
        <ele>379</ele>
        <time>2016-05-15T07:53:58.000Z</time>
      </trkpt>
      <trkpt lat="44.52527" lon="4.26096">
        <ele>378</ele>
        <time>2016-05-15T07:53:59.000Z</time>
      </trkpt>
      <trkpt lat="44.52524" lon="4.261">
        <ele>378</ele>
        <time>2016-05-15T07:54:00.000Z</time>
      </trkpt>
      <trkpt lat="44.5252" lon="4.26103">
        <ele>378</ele>
        <time>2016-05-15T07:54:01.000Z</time>
      </trkpt>
      <trkpt lat="44.52517" lon="4.26105">
        <ele>378</ele>
        <time>2016-05-15T07:54:02.000Z</time>
      </trkpt>
      <trkpt lat="44.52514" lon="4.26109">
        <ele>378</ele>
        <time>2016-05-15T07:54:03.000Z</time>
      </trkpt>
      <trkpt lat="44.52512" lon="4.26112">
        <ele>378</ele>
        <time>2016-05-15T07:54:04.000Z</time>
      </trkpt>
      <trkpt lat="44.5251" lon="4.26115">
        <ele>378</ele>
        <time>2016-05-15T07:54:05.000Z</time>
      </trkpt>
      <trkpt lat="44.52508" lon="4.26119">
        <ele>377</ele>
        <time>2016-05-15T07:54:06.000Z</time>
      </trkpt>
      <trkpt lat="44.52506" lon="4.26123">
        <ele>377</ele>
        <time>2016-05-15T07:54:07.000Z</time>
      </trkpt>
      <trkpt lat="44.52504" lon="4.26125">
        <ele>377</ele>
        <time>2016-05-15T07:54:08.000Z</time>
      </trkpt>
      <trkpt lat="44.525" lon="4.26126">
        <ele>377</ele>
        <time>2016-05-15T07:54:09.000Z</time>
      </trkpt>
      <trkpt lat="44.52498" lon="4.26129">
        <ele>375</ele>
        <time>2016-05-15T07:54:10.000Z</time>
      </trkpt>
      <trkpt lat="44.52497" lon="4.26132">
        <ele>374</ele>
        <time>2016-05-15T07:54:11.000Z</time>
      </trkpt>
      <trkpt lat="44.52495" lon="4.26135">
        <ele>374</ele>
        <time>2016-05-15T07:54:12.000Z</time>
      </trkpt>
      <trkpt lat="44.52492" lon="4.26138">
        <ele>374</ele>
        <time>2016-05-15T07:54:13.000Z</time>
      </trkpt>
      <trkpt lat="44.52489" lon="4.26138">
        <ele>374</ele>
        <time>2016-05-15T07:54:14.000Z</time>
      </trkpt>
      <trkpt lat="44.52486" lon="4.26138">
        <ele>374</ele>
        <time>2016-05-15T07:54:15.000Z</time>
      </trkpt>
      <trkpt lat="44.52484" lon="4.26139">
        <ele>374</ele>
        <time>2016-05-15T07:54:16.000Z</time>
      </trkpt>
      <trkpt lat="44.52482" lon="4.26142">
        <ele>374</ele>
        <time>2016-05-15T07:54:17.000Z</time>
      </trkpt>
      <trkpt lat="44.52482" lon="4.26148">
        <ele>374</ele>
        <time>2016-05-15T07:54:18.000Z</time>
      </trkpt>
      <trkpt lat="44.52482" lon="4.26154">
        <ele>374</ele>
        <time>2016-05-15T07:54:19.000Z</time>
      </trkpt>
      <trkpt lat="44.52482" lon="4.26159">
        <ele>374</ele>
        <time>2016-05-15T07:54:20.000Z</time>
      </trkpt>
      <trkpt lat="44.52481" lon="4.26163">
        <ele>374</ele>
        <time>2016-05-15T07:54:21.000Z</time>
      </trkpt>
      <trkpt lat="44.5248" lon="4.26166">
        <ele>374</ele>
        <time>2016-05-15T07:54:22.000Z</time>
      </trkpt>
      <trkpt lat="44.52478" lon="4.26166">
        <ele>374</ele>
        <time>2016-05-15T07:54:23.000Z</time>
      </trkpt>
      <trkpt lat="44.52476" lon="4.26164">
        <ele>373</ele>
        <time>2016-05-15T07:54:24.000Z</time>
      </trkpt>
      <trkpt lat="44.52475" lon="4.26161">
        <ele>373</ele>
        <time>2016-05-15T07:54:25.000Z</time>
      </trkpt>
      <trkpt lat="44.52475" lon="4.26159">
        <ele>373</ele>
        <time>2016-05-15T07:54:26.000Z</time>
      </trkpt>
      <trkpt lat="44.52473" lon="4.26158">
        <ele>373</ele>
        <time>2016-05-15T07:54:27.000Z</time>
      </trkpt>
      <trkpt lat="44.52471" lon="4.26156">
        <ele>373</ele>
        <time>2016-05-15T07:54:28.000Z</time>
      </trkpt>
      <trkpt lat="44.5247" lon="4.26154">
        <ele>373</ele>
        <time>2016-05-15T07:54:29.000Z</time>
      </trkpt>
      <trkpt lat="44.5247" lon="4.26152">
        <ele>373</ele>
        <time>2016-05-15T07:54:30.000Z</time>
      </trkpt>
      <trkpt lat="44.5247" lon="4.26151">
        <ele>373</ele>
        <time>2016-05-15T07:54:31.000Z</time>
      </trkpt>
      <trkpt lat="44.52471" lon="4.26151">
        <ele>373</ele>
        <time>2016-05-15T07:54:32.000Z</time>
      </trkpt>
      <trkpt lat="44.52471" lon="4.26151">
        <ele>373</ele>
        <time>2016-05-15T07:54:33.000Z</time>
      </trkpt>
      <trkpt lat="44.52471" lon="4.2615">
        <ele>373</ele>
        <time>2016-05-15T07:54:34.000Z</time>
      </trkpt>
      <trkpt lat="44.52471" lon="4.2615">
        <ele>373</ele>
        <time>2016-05-15T07:54:35.000Z</time>
      </trkpt>
      <trkpt lat="44.52471" lon="4.26149">
        <ele>374</ele>
        <time>2016-05-15T07:54:36.000Z</time>
      </trkpt>
      <trkpt lat="44.52471" lon="4.26148">
        <ele>374</ele>
        <time>2016-05-15T07:54:37.000Z</time>
      </trkpt>
      <trkpt lat="44.52472" lon="4.26147">
        <ele>374</ele>
        <time>2016-05-15T07:54:38.000Z</time>
      </trkpt>
      <trkpt lat="44.52472" lon="4.26146">
        <ele>374</ele>
        <time>2016-05-15T07:54:39.000Z</time>
      </trkpt>
      <trkpt lat="44.52471" lon="4.26145">
        <ele>374</ele>
        <time>2016-05-15T07:54:40.000Z</time>
      </trkpt>
      <trkpt lat="44.52472" lon="4.26144">
        <ele>374</ele>
        <time>2016-05-15T07:54:41.000Z</time>
      </trkpt>
      <trkpt lat="44.52471" lon="4.26144">
        <ele>374</ele>
        <time>2016-05-15T07:54:42.000Z</time>
      </trkpt>
      <trkpt lat="44.52471" lon="4.26144">
        <ele>374</ele>
        <time>2016-05-15T07:54:43.000Z</time>
      </trkpt>
      <trkpt lat="44.52471" lon="4.26142">
        <ele>374</ele>
        <time>2016-05-15T07:54:44.000Z</time>
      </trkpt>
      <trkpt lat="44.52471" lon="4.26141">
        <ele>374</ele>
        <time>2016-05-15T07:54:45.000Z</time>
      </trkpt>
      <trkpt lat="44.52471" lon="4.2614">
        <ele>374</ele>
        <time>2016-05-15T07:54:46.000Z</time>
      </trkpt>
      <trkpt lat="44.5247" lon="4.26138">
        <ele>374</ele>
        <time>2016-05-15T07:54:47.000Z</time>
      </trkpt>
      <trkpt lat="44.5247" lon="4.26136">
        <ele>374</ele>
        <time>2016-05-15T07:54:48.000Z</time>
      </trkpt>
      <trkpt lat="44.52469" lon="4.26134">
        <ele>374</ele>
        <time>2016-05-15T07:54:49.000Z</time>
      </trkpt>
      <trkpt lat="44.52468" lon="4.26132">
        <ele>374</ele>
        <time>2016-05-15T07:54:50.000Z</time>
      </trkpt>
      <trkpt lat="44.52467" lon="4.2613">
        <ele>374</ele>
        <time>2016-05-15T07:54:51.000Z</time>
      </trkpt>
      <trkpt lat="44.52466" lon="4.26128">
        <ele>374</ele>
        <time>2016-05-15T07:54:52.000Z</time>
      </trkpt>
      <trkpt lat="44.52463" lon="4.26127">
        <ele>374</ele>
        <time>2016-05-15T07:54:53.000Z</time>
      </trkpt>
      <trkpt lat="44.5246" lon="4.26127">
        <ele>374</ele>
        <time>2016-05-15T07:54:54.000Z</time>
      </trkpt>
      <trkpt lat="44.52457" lon="4.26126">
        <ele>374</ele>
        <time>2016-05-15T07:54:55.000Z</time>
      </trkpt>
      <trkpt lat="44.52453" lon="4.26125">
        <ele>374</ele>
        <time>2016-05-15T07:54:56.000Z</time>
      </trkpt>
      <trkpt lat="44.5245" lon="4.26123">
        <ele>374</ele>
        <time>2016-05-15T07:54:57.000Z</time>
      </trkpt>
      <trkpt lat="44.52447" lon="4.2612">
        <ele>374</ele>
        <time>2016-05-15T07:54:58.000Z</time>
      </trkpt>
      <trkpt lat="44.52443" lon="4.26118">
        <ele>374</ele>
        <time>2016-05-15T07:54:59.000Z</time>
      </trkpt>
      <trkpt lat="44.52441" lon="4.26114">
        <ele>374</ele>
        <time>2016-05-15T07:55:00.000Z</time>
      </trkpt>
      <trkpt lat="44.52439" lon="4.26112">
        <ele>374</ele>
        <time>2016-05-15T07:55:01.000Z</time>
      </trkpt>
      <trkpt lat="44.52437" lon="4.2611">
        <ele>374</ele>
        <time>2016-05-15T07:55:02.000Z</time>
      </trkpt>
      <trkpt lat="44.52436" lon="4.26107">
        <ele>374</ele>
        <time>2016-05-15T07:55:03.000Z</time>
      </trkpt>
      <trkpt lat="44.52436" lon="4.26104">
        <ele>374</ele>
        <time>2016-05-15T07:55:04.000Z</time>
      </trkpt>
      <trkpt lat="44.52436" lon="4.26102">
        <ele>374</ele>
        <time>2016-05-15T07:55:05.000Z</time>
      </trkpt>
      <trkpt lat="44.52435" lon="4.26099">
        <ele>374</ele>
        <time>2016-05-15T07:55:06.000Z</time>
      </trkpt>
      <trkpt lat="44.52434" lon="4.26097">
        <ele>374</ele>
        <time>2016-05-15T07:55:07.000Z</time>
      </trkpt>
      <trkpt lat="44.52433" lon="4.26096">
        <ele>374</ele>
        <time>2016-05-15T07:55:08.000Z</time>
      </trkpt>
      <trkpt lat="44.52431" lon="4.26094">
        <ele>374</ele>
        <time>2016-05-15T07:55:09.000Z</time>
      </trkpt>
      <trkpt lat="44.52429" lon="4.26092">
        <ele>374</ele>
        <time>2016-05-15T07:55:10.000Z</time>
      </trkpt>
      <trkpt lat="44.52428" lon="4.26092">
        <ele>374</ele>
        <time>2016-05-15T07:55:11.000Z</time>
      </trkpt>
      <trkpt lat="44.52427" lon="4.26093">
        <ele>374</ele>
        <time>2016-05-15T07:55:12.000Z</time>
      </trkpt>
      <trkpt lat="44.52426" lon="4.26095">
        <ele>374</ele>
        <time>2016-05-15T07:55:13.000Z</time>
      </trkpt>
      <trkpt lat="44.52426" lon="4.26097">
        <ele>374</ele>
        <time>2016-05-15T07:55:14.000Z</time>
      </trkpt>
      <trkpt lat="44.52425" lon="4.261">
        <ele>374</ele>
        <time>2016-05-15T07:55:15.000Z</time>
      </trkpt>
      <trkpt lat="44.52423" lon="4.26102">
        <ele>374</ele>
        <time>2016-05-15T07:55:16.000Z</time>
      </trkpt>
      <trkpt lat="44.52421" lon="4.26104">
        <ele>374</ele>
        <time>2016-05-15T07:55:17.000Z</time>
      </trkpt>
      <trkpt lat="44.52419" lon="4.26106">
        <ele>374</ele>
        <time>2016-05-15T07:55:18.000Z</time>
      </trkpt>
      <trkpt lat="44.52417" lon="4.26109">
        <ele>373</ele>
        <time>2016-05-15T07:55:19.000Z</time>
      </trkpt>
      <trkpt lat="44.52415" lon="4.26112">
        <ele>371</ele>
        <time>2016-05-15T07:55:20.000Z</time>
      </trkpt>
      <trkpt lat="44.52413" lon="4.26115">
        <ele>370</ele>
        <time>2016-05-15T07:55:21.000Z</time>
      </trkpt>
      <trkpt lat="44.5241" lon="4.26117">
        <ele>370</ele>
        <time>2016-05-15T07:55:22.000Z</time>
      </trkpt>
      <trkpt lat="44.52407" lon="4.26117">
        <ele>370</ele>
        <time>2016-05-15T07:55:23.000Z</time>
      </trkpt>
      <trkpt lat="44.52403" lon="4.26119">
        <ele>370</ele>
        <time>2016-05-15T07:55:24.000Z</time>
      </trkpt>
      <trkpt lat="44.524" lon="4.2612">
        <ele>370</ele>
        <time>2016-05-15T07:55:25.000Z</time>
      </trkpt>
      <trkpt lat="44.52397" lon="4.26119">
        <ele>370</ele>
        <time>2016-05-15T07:55:26.000Z</time>
      </trkpt>
      <trkpt lat="44.52394" lon="4.26119">
        <ele>370</ele>
        <time>2016-05-15T07:55:27.000Z</time>
      </trkpt>
      <trkpt lat="44.52392" lon="4.26121">
        <ele>370</ele>
        <time>2016-05-15T07:55:28.000Z</time>
      </trkpt>
      <trkpt lat="44.5239" lon="4.26124">
        <ele>370</ele>
        <time>2016-05-15T07:55:29.000Z</time>
      </trkpt>
      <trkpt lat="44.52387" lon="4.26127">
        <ele>369</ele>
        <time>2016-05-15T07:55:30.000Z</time>
      </trkpt>
      <trkpt lat="44.52383" lon="4.26131">
        <ele>369</ele>
        <time>2016-05-15T07:55:31.000Z</time>
      </trkpt>
      <trkpt lat="44.52379" lon="4.26133">
        <ele>369</ele>
        <time>2016-05-15T07:55:32.000Z</time>
      </trkpt>
      <trkpt lat="44.52375" lon="4.26135">
        <ele>369</ele>
        <time>2016-05-15T07:55:33.000Z</time>
      </trkpt>
      <trkpt lat="44.52373" lon="4.26135">
        <ele>369</ele>
        <time>2016-05-15T07:55:34.000Z</time>
      </trkpt>
      <trkpt lat="44.52372" lon="4.26134">
        <ele>369</ele>
        <time>2016-05-15T07:55:35.000Z</time>
      </trkpt>
      <trkpt lat="44.52372" lon="4.26134">
        <ele>369</ele>
        <time>2016-05-15T07:55:36.000Z</time>
      </trkpt>
      <trkpt lat="44.52372" lon="4.26133">
        <ele>369</ele>
        <time>2016-05-15T07:55:37.000Z</time>
      </trkpt>
      <trkpt lat="44.52372" lon="4.26132">
        <ele>369</ele>
        <time>2016-05-15T07:55:38.000Z</time>
      </trkpt>
      <trkpt lat="44.52372" lon="4.2613">
        <ele>369</ele>
        <time>2016-05-15T07:55:39.000Z</time>
      </trkpt>
      <trkpt lat="44.52372" lon="4.26128">
        <ele>369</ele>
        <time>2016-05-15T07:55:40.000Z</time>
      </trkpt>
      <trkpt lat="44.52371" lon="4.26127">
        <ele>369</ele>
        <time>2016-05-15T07:55:41.000Z</time>
      </trkpt>
      <trkpt lat="44.52371" lon="4.26126">
        <ele>369</ele>
        <time>2016-05-15T07:55:42.000Z</time>
      </trkpt>
      <trkpt lat="44.52371" lon="4.26125">
        <ele>369</ele>
        <time>2016-05-15T07:55:43.000Z</time>
      </trkpt>
      <trkpt lat="44.5237" lon="4.26124">
        <ele>369</ele>
        <time>2016-05-15T07:55:44.000Z</time>
      </trkpt>
      <trkpt lat="44.52368" lon="4.26124">
        <ele>369</ele>
        <time>2016-05-15T07:55:45.000Z</time>
      </trkpt>
      <trkpt lat="44.52367" lon="4.26124">
        <ele>369</ele>
        <time>2016-05-15T07:55:46.000Z</time>
      </trkpt>
      <trkpt lat="44.52365" lon="4.26125">
        <ele>369</ele>
        <time>2016-05-15T07:55:47.000Z</time>
      </trkpt>
      <trkpt lat="44.52363" lon="4.26126">
        <ele>369</ele>
        <time>2016-05-15T07:55:48.000Z</time>
      </trkpt>
      <trkpt lat="44.52361" lon="4.26125">
        <ele>369</ele>
        <time>2016-05-15T07:55:49.000Z</time>
      </trkpt>
      <trkpt lat="44.52359" lon="4.26123">
        <ele>369</ele>
        <time>2016-05-15T07:55:50.000Z</time>
      </trkpt>
      <trkpt lat="44.52358" lon="4.2612">
        <ele>369</ele>
        <time>2016-05-15T07:55:51.000Z</time>
      </trkpt>
      <trkpt lat="44.52356" lon="4.26117">
        <ele>369</ele>
        <time>2016-05-15T07:55:52.000Z</time>
      </trkpt>
      <trkpt lat="44.52354" lon="4.26114">
        <ele>369</ele>
        <time>2016-05-15T07:55:53.000Z</time>
      </trkpt>
      <trkpt lat="44.52351" lon="4.26111">
        <ele>369</ele>
        <time>2016-05-15T07:55:54.000Z</time>
      </trkpt>
      <trkpt lat="44.5235" lon="4.26106">
        <ele>369</ele>
        <time>2016-05-15T07:55:55.000Z</time>
      </trkpt>
      <trkpt lat="44.52348" lon="4.26102">
        <ele>370</ele>
        <time>2016-05-15T07:55:56.000Z</time>
      </trkpt>
      <trkpt lat="44.52346" lon="4.26097">
        <ele>370</ele>
        <time>2016-05-15T07:55:57.000Z</time>
      </trkpt>
      <trkpt lat="44.52344" lon="4.26093">
        <ele>370</ele>
        <time>2016-05-15T07:55:58.000Z</time>
      </trkpt>
      <trkpt lat="44.52341" lon="4.26091">
        <ele>370</ele>
        <time>2016-05-15T07:55:59.000Z</time>
      </trkpt>
      <trkpt lat="44.52338" lon="4.26091">
        <ele>370</ele>
        <time>2016-05-15T07:56:00.000Z</time>
      </trkpt>
      <trkpt lat="44.52336" lon="4.26094">
        <ele>370</ele>
        <time>2016-05-15T07:56:01.000Z</time>
      </trkpt>
      <trkpt lat="44.52334" lon="4.26099">
        <ele>370</ele>
        <time>2016-05-15T07:56:02.000Z</time>
      </trkpt>
      <trkpt lat="44.52332" lon="4.26104">
        <ele>366</ele>
        <time>2016-05-15T07:56:03.000Z</time>
      </trkpt>
      <trkpt lat="44.5233" lon="4.26108">
        <ele>366</ele>
        <time>2016-05-15T07:56:04.000Z</time>
      </trkpt>
      <trkpt lat="44.52328" lon="4.26109">
        <ele>365</ele>
        <time>2016-05-15T07:56:05.000Z</time>
      </trkpt>
      <trkpt lat="44.52326" lon="4.26109">
        <ele>365</ele>
        <time>2016-05-15T07:56:06.000Z</time>
      </trkpt>
      <trkpt lat="44.52323" lon="4.26108">
        <ele>365</ele>
        <time>2016-05-15T07:56:07.000Z</time>
      </trkpt>
      <trkpt lat="44.5232" lon="4.26108">
        <ele>365</ele>
        <time>2016-05-15T07:56:08.000Z</time>
      </trkpt>
      <trkpt lat="44.52316" lon="4.26111">
        <ele>365</ele>
        <time>2016-05-15T07:56:09.000Z</time>
      </trkpt>
      <trkpt lat="44.52312" lon="4.26114">
        <ele>364</ele>
        <time>2016-05-15T07:56:10.000Z</time>
      </trkpt>
      <trkpt lat="44.52309" lon="4.26117">
        <ele>364</ele>
        <time>2016-05-15T07:56:11.000Z</time>
      </trkpt>
      <trkpt lat="44.52305" lon="4.26119">
        <ele>364</ele>
        <time>2016-05-15T07:56:12.000Z</time>
      </trkpt>
      <trkpt lat="44.52301" lon="4.2612">
        <ele>363</ele>
        <time>2016-05-15T07:56:13.000Z</time>
      </trkpt>
      <trkpt lat="44.52296" lon="4.26122">
        <ele>363</ele>
        <time>2016-05-15T07:56:14.000Z</time>
      </trkpt>
      <trkpt lat="44.5229" lon="4.26124">
        <ele>362</ele>
        <time>2016-05-15T07:56:15.000Z</time>
      </trkpt>
      <trkpt lat="44.52286" lon="4.26126">
        <ele>362</ele>
        <time>2016-05-15T07:56:16.000Z</time>
      </trkpt>
      <trkpt lat="44.52281" lon="4.26128">
        <ele>362</ele>
        <time>2016-05-15T07:56:17.000Z</time>
      </trkpt>
      <trkpt lat="44.52278" lon="4.2613">
        <ele>361</ele>
        <time>2016-05-15T07:56:18.000Z</time>
      </trkpt>
      <trkpt lat="44.52275" lon="4.26132">
        <ele>361</ele>
        <time>2016-05-15T07:56:19.000Z</time>
      </trkpt>
      <trkpt lat="44.52271" lon="4.26134">
        <ele>361</ele>
        <time>2016-05-15T07:56:20.000Z</time>
      </trkpt>
      <trkpt lat="44.52269" lon="4.26137">
        <ele>360</ele>
        <time>2016-05-15T07:56:21.000Z</time>
      </trkpt>
      <trkpt lat="44.52267" lon="4.2614">
        <ele>360</ele>
        <time>2016-05-15T07:56:22.000Z</time>
      </trkpt>
      <trkpt lat="44.52263" lon="4.26142">
        <ele>360</ele>
        <time>2016-05-15T07:56:23.000Z</time>
      </trkpt>
      <trkpt lat="44.5226" lon="4.26145">
        <ele>359</ele>
        <time>2016-05-15T07:56:24.000Z</time>
      </trkpt>
      <trkpt lat="44.52256" lon="4.26148">
        <ele>359</ele>
        <time>2016-05-15T07:56:25.000Z</time>
      </trkpt>
      <trkpt lat="44.52253" lon="4.26151">
        <ele>358</ele>
        <time>2016-05-15T07:56:26.000Z</time>
      </trkpt>
      <trkpt lat="44.52249" lon="4.26152">
        <ele>353</ele>
        <time>2016-05-15T07:56:27.000Z</time>
      </trkpt>
      <trkpt lat="44.52246" lon="4.26154">
        <ele>353</ele>
        <time>2016-05-15T07:56:28.000Z</time>
      </trkpt>
      <trkpt lat="44.52245" lon="4.26156">
        <ele>353</ele>
        <time>2016-05-15T07:56:29.000Z</time>
      </trkpt>
      <trkpt lat="44.52244" lon="4.2616">
        <ele>353</ele>
        <time>2016-05-15T07:56:30.000Z</time>
      </trkpt>
      <trkpt lat="44.52243" lon="4.26164">
        <ele>353</ele>
        <time>2016-05-15T07:56:31.000Z</time>
      </trkpt>
      <trkpt lat="44.52242" lon="4.26167">
        <ele>351</ele>
        <time>2016-05-15T07:56:32.000Z</time>
      </trkpt>
      <trkpt lat="44.52241" lon="4.26171">
        <ele>351</ele>
        <time>2016-05-15T07:56:33.000Z</time>
      </trkpt>
      <trkpt lat="44.52241" lon="4.26173">
        <ele>350</ele>
        <time>2016-05-15T07:56:34.000Z</time>
      </trkpt>
      <trkpt lat="44.52239" lon="4.26175">
        <ele>350</ele>
        <time>2016-05-15T07:56:35.000Z</time>
      </trkpt>
      <trkpt lat="44.52238" lon="4.26176">
        <ele>349</ele>
        <time>2016-05-15T07:56:36.000Z</time>
      </trkpt>
      <trkpt lat="44.52236" lon="4.26178">
        <ele>349</ele>
        <time>2016-05-15T07:56:37.000Z</time>
      </trkpt>
      <trkpt lat="44.52234" lon="4.2618">
        <ele>348</ele>
        <time>2016-05-15T07:56:38.000Z</time>
      </trkpt>
      <trkpt lat="44.52232" lon="4.26181">
        <ele>348</ele>
        <time>2016-05-15T07:56:39.000Z</time>
      </trkpt>
      <trkpt lat="44.52231" lon="4.26181">
        <ele>348</ele>
        <time>2016-05-15T07:56:40.000Z</time>
      </trkpt>
      <trkpt lat="44.52229" lon="4.2618">
        <ele>348</ele>
        <time>2016-05-15T07:56:41.000Z</time>
      </trkpt>
      <trkpt lat="44.52227" lon="4.26181">
        <ele>348</ele>
        <time>2016-05-15T07:56:42.000Z</time>
      </trkpt>
      <trkpt lat="44.52225" lon="4.26182">
        <ele>347</ele>
        <time>2016-05-15T07:56:43.000Z</time>
      </trkpt>
      <trkpt lat="44.52223" lon="4.26182">
        <ele>347</ele>
        <time>2016-05-15T07:56:44.000Z</time>
      </trkpt>
      <trkpt lat="44.52221" lon="4.26184">
        <ele>347</ele>
        <time>2016-05-15T07:56:45.000Z</time>
      </trkpt>
      <trkpt lat="44.52219" lon="4.26186">
        <ele>346</ele>
        <time>2016-05-15T07:56:46.000Z</time>
      </trkpt>
      <trkpt lat="44.52216" lon="4.26188">
        <ele>346</ele>
        <time>2016-05-15T07:56:47.000Z</time>
      </trkpt>
      <trkpt lat="44.52214" lon="4.26189">
        <ele>346</ele>
        <time>2016-05-15T07:56:48.000Z</time>
      </trkpt>
      <trkpt lat="44.52212" lon="4.26189">
        <ele>346</ele>
        <time>2016-05-15T07:56:49.000Z</time>
      </trkpt>
      <trkpt lat="44.52209" lon="4.26189">
        <ele>346</ele>
        <time>2016-05-15T07:56:50.000Z</time>
      </trkpt>
      <trkpt lat="44.52206" lon="4.26189">
        <ele>345</ele>
        <time>2016-05-15T07:56:51.000Z</time>
      </trkpt>
      <trkpt lat="44.52203" lon="4.26191">
        <ele>345</ele>
        <time>2016-05-15T07:56:52.000Z</time>
      </trkpt>
      <trkpt lat="44.522" lon="4.26192">
        <ele>345</ele>
        <time>2016-05-15T07:56:53.000Z</time>
      </trkpt>
      <trkpt lat="44.52197" lon="4.26194">
        <ele>345</ele>
        <time>2016-05-15T07:56:54.000Z</time>
      </trkpt>
      <trkpt lat="44.52196" lon="4.26197">
        <ele>345</ele>
        <time>2016-05-15T07:56:55.000Z</time>
      </trkpt>
      <trkpt lat="44.52195" lon="4.26201">
        <ele>344</ele>
        <time>2016-05-15T07:56:56.000Z</time>
      </trkpt>
      <trkpt lat="44.52194" lon="4.26205">
        <ele>344</ele>
        <time>2016-05-15T07:56:57.000Z</time>
      </trkpt>
      <trkpt lat="44.52194" lon="4.2621">
        <ele>344</ele>
        <time>2016-05-15T07:56:58.000Z</time>
      </trkpt>
      <trkpt lat="44.52194" lon="4.26213">
        <ele>344</ele>
        <time>2016-05-15T07:56:59.000Z</time>
      </trkpt>
      <trkpt lat="44.52193" lon="4.26217">
        <ele>343</ele>
        <time>2016-05-15T07:57:00.000Z</time>
      </trkpt>
      <trkpt lat="44.52192" lon="4.2622">
        <ele>343</ele>
        <time>2016-05-15T07:57:01.000Z</time>
      </trkpt>
      <trkpt lat="44.52193" lon="4.26223">
        <ele>343</ele>
        <time>2016-05-15T07:57:02.000Z</time>
      </trkpt>
      <trkpt lat="44.52193" lon="4.26227">
        <ele>343</ele>
        <time>2016-05-15T07:57:03.000Z</time>
      </trkpt>
      <trkpt lat="44.52193" lon="4.26233">
        <ele>343</ele>
        <time>2016-05-15T07:57:04.000Z</time>
      </trkpt>
      <trkpt lat="44.52193" lon="4.26237">
        <ele>342</ele>
        <time>2016-05-15T07:57:05.000Z</time>
      </trkpt>
      <trkpt lat="44.52192" lon="4.2624">
        <ele>342</ele>
        <time>2016-05-15T07:57:06.000Z</time>
      </trkpt>
      <trkpt lat="44.52191" lon="4.26242">
        <ele>342</ele>
        <time>2016-05-15T07:57:07.000Z</time>
      </trkpt>
      <trkpt lat="44.5219" lon="4.26243">
        <ele>342</ele>
        <time>2016-05-15T07:57:08.000Z</time>
      </trkpt>
      <trkpt lat="44.52188" lon="4.26243">
        <ele>342</ele>
        <time>2016-05-15T07:57:09.000Z</time>
      </trkpt>
      <trkpt lat="44.52187" lon="4.26244">
        <ele>341</ele>
        <time>2016-05-15T07:57:10.000Z</time>
      </trkpt>
      <trkpt lat="44.52185" lon="4.26246">
        <ele>341</ele>
        <time>2016-05-15T07:57:11.000Z</time>
      </trkpt>
      <trkpt lat="44.52185" lon="4.26248">
        <ele>341</ele>
        <time>2016-05-15T07:57:12.000Z</time>
      </trkpt>
      <trkpt lat="44.52183" lon="4.2625">
        <ele>341</ele>
        <time>2016-05-15T07:57:13.000Z</time>
      </trkpt>
      <trkpt lat="44.52181" lon="4.2625">
        <ele>336</ele>
        <time>2016-05-15T07:57:14.000Z</time>
      </trkpt>
      <trkpt lat="44.52179" lon="4.26251">
        <ele>336</ele>
        <time>2016-05-15T07:57:15.000Z</time>
      </trkpt>
      <trkpt lat="44.52177" lon="4.26254">
        <ele>336</ele>
        <time>2016-05-15T07:57:16.000Z</time>
      </trkpt>
      <trkpt lat="44.52175" lon="4.26256">
        <ele>336</ele>
        <time>2016-05-15T07:57:17.000Z</time>
      </trkpt>
      <trkpt lat="44.52173" lon="4.26258">
        <ele>336</ele>
        <time>2016-05-15T07:57:18.000Z</time>
      </trkpt>
      <trkpt lat="44.52172" lon="4.2626">
        <ele>336</ele>
        <time>2016-05-15T07:57:19.000Z</time>
      </trkpt>
      <trkpt lat="44.5217" lon="4.26263">
        <ele>336</ele>
        <time>2016-05-15T07:57:20.000Z</time>
      </trkpt>
      <trkpt lat="44.52168" lon="4.26265">
        <ele>335</ele>
        <time>2016-05-15T07:57:21.000Z</time>
      </trkpt>
      <trkpt lat="44.52167" lon="4.26268">
        <ele>335</ele>
        <time>2016-05-15T07:57:22.000Z</time>
      </trkpt>
      <trkpt lat="44.52166" lon="4.2627">
        <ele>331</ele>
        <time>2016-05-15T07:57:23.000Z</time>
      </trkpt>
      <trkpt lat="44.52166" lon="4.26272">
        <ele>330</ele>
        <time>2016-05-15T07:57:24.000Z</time>
      </trkpt>
      <trkpt lat="44.52167" lon="4.26275">
        <ele>334</ele>
        <time>2016-05-15T07:57:25.000Z</time>
      </trkpt>
      <trkpt lat="44.52167" lon="4.26277">
        <ele>334</ele>
        <time>2016-05-15T07:57:26.000Z</time>
      </trkpt>
      <trkpt lat="44.52167" lon="4.2628">
        <ele>333</ele>
        <time>2016-05-15T07:57:27.000Z</time>
      </trkpt>
      <trkpt lat="44.52167" lon="4.26282">
        <ele>333</ele>
        <time>2016-05-15T07:57:28.000Z</time>
      </trkpt>
      <trkpt lat="44.52167" lon="4.26285">
        <ele>328</ele>
        <time>2016-05-15T07:57:29.000Z</time>
      </trkpt>
      <trkpt lat="44.52166" lon="4.26286">
        <ele>328</ele>
        <time>2016-05-15T07:57:30.000Z</time>
      </trkpt>
      <trkpt lat="44.52164" lon="4.26288">
        <ele>327</ele>
        <time>2016-05-15T07:57:31.000Z</time>
      </trkpt>
      <trkpt lat="44.52162" lon="4.2629">
        <ele>327</ele>
        <time>2016-05-15T07:57:32.000Z</time>
      </trkpt>
      <trkpt lat="44.5216" lon="4.26294">
        <ele>327</ele>
        <time>2016-05-15T07:57:33.000Z</time>
      </trkpt>
      <trkpt lat="44.52158" lon="4.26297">
        <ele>326</ele>
        <time>2016-05-15T07:57:34.000Z</time>
      </trkpt>
      <trkpt lat="44.52157" lon="4.263">
        <ele>326</ele>
        <time>2016-05-15T07:57:35.000Z</time>
      </trkpt>
      <trkpt lat="44.52156" lon="4.26303">
        <ele>326</ele>
        <time>2016-05-15T07:57:36.000Z</time>
      </trkpt>
      <trkpt lat="44.52157" lon="4.26306">
        <ele>326</ele>
        <time>2016-05-15T07:57:37.000Z</time>
      </trkpt>
      <trkpt lat="44.52158" lon="4.26309">
        <ele>326</ele>
        <time>2016-05-15T07:57:38.000Z</time>
      </trkpt>
      <trkpt lat="44.5216" lon="4.2631">
        <ele>326</ele>
        <time>2016-05-15T07:57:39.000Z</time>
      </trkpt>
      <trkpt lat="44.52161" lon="4.26313">
        <ele>326</ele>
        <time>2016-05-15T07:57:40.000Z</time>
      </trkpt>
      <trkpt lat="44.52162" lon="4.26316">
        <ele>326</ele>
        <time>2016-05-15T07:57:41.000Z</time>
      </trkpt>
      <trkpt lat="44.52164" lon="4.2632">
        <ele>326</ele>
        <time>2016-05-15T07:57:42.000Z</time>
      </trkpt>
      <trkpt lat="44.52164" lon="4.26325">
        <ele>326</ele>
        <time>2016-05-15T07:57:43.000Z</time>
      </trkpt>
      <trkpt lat="44.52165" lon="4.26329">
        <ele>327</ele>
        <time>2016-05-15T07:57:44.000Z</time>
      </trkpt>
      <trkpt lat="44.52166" lon="4.26332">
        <ele>327</ele>
        <time>2016-05-15T07:57:45.000Z</time>
      </trkpt>
      <trkpt lat="44.52169" lon="4.26334">
        <ele>326</ele>
        <time>2016-05-15T07:57:46.000Z</time>
      </trkpt>
      <trkpt lat="44.52172" lon="4.26335">
        <ele>324</ele>
        <time>2016-05-15T07:57:47.000Z</time>
      </trkpt>
      <trkpt lat="44.52174" lon="4.26334">
        <ele>323</ele>
        <time>2016-05-15T07:57:48.000Z</time>
      </trkpt>
      <trkpt lat="44.52178" lon="4.26333">
        <ele>329</ele>
        <time>2016-05-15T07:57:49.000Z</time>
      </trkpt>
      <trkpt lat="44.52181" lon="4.26331">
        <ele>329</ele>
        <time>2016-05-15T07:57:50.000Z</time>
      </trkpt>
      <trkpt lat="44.52184" lon="4.2633">
        <ele>329</ele>
        <time>2016-05-15T07:57:51.000Z</time>
      </trkpt>
      <trkpt lat="44.52187" lon="4.26329">
        <ele>329</ele>
        <time>2016-05-15T07:57:52.000Z</time>
      </trkpt>
      <trkpt lat="44.52191" lon="4.26328">
        <ele>329</ele>
        <time>2016-05-15T07:57:53.000Z</time>
      </trkpt>
      <trkpt lat="44.52195" lon="4.26327">
        <ele>330</ele>
        <time>2016-05-15T07:57:54.000Z</time>
      </trkpt>
      <trkpt lat="44.52199" lon="4.26325">
        <ele>330</ele>
        <time>2016-05-15T07:57:55.000Z</time>
      </trkpt>
      <trkpt lat="44.52202" lon="4.26323">
        <ele>330</ele>
        <time>2016-05-15T07:57:56.000Z</time>
      </trkpt>
      <trkpt lat="44.52205" lon="4.2632">
        <ele>330</ele>
        <time>2016-05-15T07:57:57.000Z</time>
      </trkpt>
      <trkpt lat="44.52208" lon="4.26319">
        <ele>330</ele>
        <time>2016-05-15T07:57:58.000Z</time>
      </trkpt>
      <trkpt lat="44.52211" lon="4.26318">
        <ele>330</ele>
        <time>2016-05-15T07:57:59.000Z</time>
      </trkpt>
      <trkpt lat="44.52214" lon="4.26317">
        <ele>330</ele>
        <time>2016-05-15T07:58:00.000Z</time>
      </trkpt>
      <trkpt lat="44.52216" lon="4.26317">
        <ele>330</ele>
        <time>2016-05-15T07:58:01.000Z</time>
      </trkpt>
      <trkpt lat="44.52219" lon="4.26317">
        <ele>329</ele>
        <time>2016-05-15T07:58:02.000Z</time>
      </trkpt>
      <trkpt lat="44.52222" lon="4.26317">
        <ele>329</ele>
        <time>2016-05-15T07:58:03.000Z</time>
      </trkpt>
      <trkpt lat="44.52224" lon="4.26317">
        <ele>329</ele>
        <time>2016-05-15T07:58:04.000Z</time>
      </trkpt>
      <trkpt lat="44.52227" lon="4.26317">
        <ele>329</ele>
        <time>2016-05-15T07:58:05.000Z</time>
      </trkpt>
      <trkpt lat="44.5223" lon="4.26317">
        <ele>329</ele>
        <time>2016-05-15T07:58:06.000Z</time>
      </trkpt>
      <trkpt lat="44.52234" lon="4.26316">
        <ele>328</ele>
        <time>2016-05-15T07:58:07.000Z</time>
      </trkpt>
      <trkpt lat="44.52237" lon="4.26315">
        <ele>328</ele>
        <time>2016-05-15T07:58:08.000Z</time>
      </trkpt>
      <trkpt lat="44.52241" lon="4.26314">
        <ele>328</ele>
        <time>2016-05-15T07:58:09.000Z</time>
      </trkpt>
      <trkpt lat="44.52245" lon="4.26315">
        <ele>328</ele>
        <time>2016-05-15T07:58:10.000Z</time>
      </trkpt>
      <trkpt lat="44.52249" lon="4.26315">
        <ele>328</ele>
        <time>2016-05-15T07:58:11.000Z</time>
      </trkpt>
      <trkpt lat="44.52252" lon="4.26316">
        <ele>329</ele>
        <time>2016-05-15T07:58:12.000Z</time>
      </trkpt>
      <trkpt lat="44.52256" lon="4.26317">
        <ele>329</ele>
        <time>2016-05-15T07:58:13.000Z</time>
      </trkpt>
      <trkpt lat="44.52259" lon="4.26318">
        <ele>329</ele>
        <time>2016-05-15T07:58:14.000Z</time>
      </trkpt>
      <trkpt lat="44.52262" lon="4.26319">
        <ele>329</ele>
        <time>2016-05-15T07:58:15.000Z</time>
      </trkpt>
      <trkpt lat="44.52265" lon="4.2632">
        <ele>329</ele>
        <time>2016-05-15T07:58:16.000Z</time>
      </trkpt>
      <trkpt lat="44.52268" lon="4.26322">
        <ele>329</ele>
        <time>2016-05-15T07:58:17.000Z</time>
      </trkpt>
      <trkpt lat="44.52271" lon="4.26323">
        <ele>330</ele>
        <time>2016-05-15T07:58:18.000Z</time>
      </trkpt>
      <trkpt lat="44.52274" lon="4.26325">
        <ele>330</ele>
        <time>2016-05-15T07:58:19.000Z</time>
      </trkpt>
      <trkpt lat="44.52277" lon="4.26328">
        <ele>330</ele>
        <time>2016-05-15T07:58:20.000Z</time>
      </trkpt>
      <trkpt lat="44.52281" lon="4.2633">
        <ele>331</ele>
        <time>2016-05-15T07:58:21.000Z</time>
      </trkpt>
      <trkpt lat="44.52284" lon="4.26331">
        <ele>331</ele>
        <time>2016-05-15T07:58:22.000Z</time>
      </trkpt>
      <trkpt lat="44.52287" lon="4.26333">
        <ele>331</ele>
        <time>2016-05-15T07:58:23.000Z</time>
      </trkpt>
      <trkpt lat="44.5229" lon="4.26335">
        <ele>320</ele>
        <time>2016-05-15T07:58:24.000Z</time>
      </trkpt>
      <trkpt lat="44.52293" lon="4.26336">
        <ele>320</ele>
        <time>2016-05-15T07:58:25.000Z</time>
      </trkpt>
      <trkpt lat="44.52295" lon="4.26338">
        <ele>321</ele>
        <time>2016-05-15T07:58:26.000Z</time>
      </trkpt>
      <trkpt lat="44.52298" lon="4.2634">
        <ele>321</ele>
        <time>2016-05-15T07:58:27.000Z</time>
      </trkpt>
      <trkpt lat="44.52301" lon="4.26342">
        <ele>321</ele>
        <time>2016-05-15T07:58:28.000Z</time>
      </trkpt>
      <trkpt lat="44.52304" lon="4.26344">
        <ele>321</ele>
        <time>2016-05-15T07:58:29.000Z</time>
      </trkpt>
      <trkpt lat="44.52308" lon="4.26346">
        <ele>321</ele>
        <time>2016-05-15T07:58:30.000Z</time>
      </trkpt>
      <trkpt lat="44.52311" lon="4.26348">
        <ele>321</ele>
        <time>2016-05-15T07:58:31.000Z</time>
      </trkpt>
      <trkpt lat="44.52314" lon="4.2635">
        <ele>322</ele>
        <time>2016-05-15T07:58:32.000Z</time>
      </trkpt>
      <trkpt lat="44.52317" lon="4.26352">
        <ele>322</ele>
        <time>2016-05-15T07:58:33.000Z</time>
      </trkpt>
      <trkpt lat="44.5232" lon="4.26355">
        <ele>322</ele>
        <time>2016-05-15T07:58:34.000Z</time>
      </trkpt>
      <trkpt lat="44.52323" lon="4.26357">
        <ele>321</ele>
        <time>2016-05-15T07:58:35.000Z</time>
      </trkpt>
      <trkpt lat="44.52326" lon="4.2636">
        <ele>321</ele>
        <time>2016-05-15T07:58:36.000Z</time>
      </trkpt>
      <trkpt lat="44.52328" lon="4.26363">
        <ele>321</ele>
        <time>2016-05-15T07:58:37.000Z</time>
      </trkpt>
      <trkpt lat="44.52329" lon="4.26366">
        <ele>320</ele>
        <time>2016-05-15T07:58:38.000Z</time>
      </trkpt>
      <trkpt lat="44.5233" lon="4.2637">
        <ele>320</ele>
        <time>2016-05-15T07:58:39.000Z</time>
      </trkpt>
      <trkpt lat="44.52331" lon="4.26373">
        <ele>319</ele>
        <time>2016-05-15T07:58:40.000Z</time>
      </trkpt>
      <trkpt lat="44.52332" lon="4.26376">
        <ele>319</ele>
        <time>2016-05-15T07:58:41.000Z</time>
      </trkpt>
      <trkpt lat="44.52333" lon="4.26379">
        <ele>319</ele>
        <time>2016-05-15T07:58:42.000Z</time>
      </trkpt>
      <trkpt lat="44.52335" lon="4.26381">
        <ele>325</ele>
        <time>2016-05-15T07:58:43.000Z</time>
      </trkpt>
      <trkpt lat="44.52336" lon="4.26384">
        <ele>324</ele>
        <time>2016-05-15T07:58:44.000Z</time>
      </trkpt>
      <trkpt lat="44.52338" lon="4.26387">
        <ele>324</ele>
        <time>2016-05-15T07:58:45.000Z</time>
      </trkpt>
      <trkpt lat="44.5234" lon="4.2639">
        <ele>324</ele>
        <time>2016-05-15T07:58:46.000Z</time>
      </trkpt>
      <trkpt lat="44.52342" lon="4.26392">
        <ele>324</ele>
        <time>2016-05-15T07:58:47.000Z</time>
      </trkpt>
      <trkpt lat="44.52344" lon="4.26394">
        <ele>323</ele>
        <time>2016-05-15T07:58:48.000Z</time>
      </trkpt>
      <trkpt lat="44.52347" lon="4.26395">
        <ele>323</ele>
        <time>2016-05-15T07:58:49.000Z</time>
      </trkpt>
      <trkpt lat="44.52349" lon="4.26397">
        <ele>323</ele>
        <time>2016-05-15T07:58:50.000Z</time>
      </trkpt>
      <trkpt lat="44.52351" lon="4.26398">
        <ele>323</ele>
        <time>2016-05-15T07:58:51.000Z</time>
      </trkpt>
      <trkpt lat="44.52354" lon="4.26398">
        <ele>324</ele>
        <time>2016-05-15T07:58:52.000Z</time>
      </trkpt>
      <trkpt lat="44.52357" lon="4.26398">
        <ele>324</ele>
        <time>2016-05-15T07:58:53.000Z</time>
      </trkpt>
      <trkpt lat="44.52359" lon="4.26398">
        <ele>324</ele>
        <time>2016-05-15T07:58:54.000Z</time>
      </trkpt>
      <trkpt lat="44.52361" lon="4.26398">
        <ele>325</ele>
        <time>2016-05-15T07:58:55.000Z</time>
      </trkpt>
      <trkpt lat="44.52363" lon="4.26397">
        <ele>325</ele>
        <time>2016-05-15T07:58:56.000Z</time>
      </trkpt>
      <trkpt lat="44.52365" lon="4.26397">
        <ele>325</ele>
        <time>2016-05-15T07:58:57.000Z</time>
      </trkpt>
      <trkpt lat="44.52368" lon="4.26396">
        <ele>325</ele>
        <time>2016-05-15T07:58:58.000Z</time>
      </trkpt>
      <trkpt lat="44.5237" lon="4.26395">
        <ele>326</ele>
        <time>2016-05-15T07:58:59.000Z</time>
      </trkpt>
      <trkpt lat="44.52372" lon="4.26395">
        <ele>326</ele>
        <time>2016-05-15T07:59:00.000Z</time>
      </trkpt>
      <trkpt lat="44.52374" lon="4.26394">
        <ele>326</ele>
        <time>2016-05-15T07:59:01.000Z</time>
      </trkpt>
      <trkpt lat="44.52376" lon="4.26394">
        <ele>326</ele>
        <time>2016-05-15T07:59:02.000Z</time>
      </trkpt>
      <trkpt lat="44.52378" lon="4.26393">
        <ele>326</ele>
        <time>2016-05-15T07:59:03.000Z</time>
      </trkpt>
      <trkpt lat="44.5238" lon="4.26393">
        <ele>326</ele>
        <time>2016-05-15T07:59:04.000Z</time>
      </trkpt>
      <trkpt lat="44.52382" lon="4.26393">
        <ele>326</ele>
        <time>2016-05-15T07:59:05.000Z</time>
      </trkpt>
      <trkpt lat="44.52384" lon="4.26393">
        <ele>327</ele>
        <time>2016-05-15T07:59:06.000Z</time>
      </trkpt>
      <trkpt lat="44.52386" lon="4.26392">
        <ele>327</ele>
        <time>2016-05-15T07:59:07.000Z</time>
      </trkpt>
      <trkpt lat="44.52388" lon="4.26392">
        <ele>327</ele>
        <time>2016-05-15T07:59:08.000Z</time>
      </trkpt>
      <trkpt lat="44.5239" lon="4.26392">
        <ele>327</ele>
        <time>2016-05-15T07:59:09.000Z</time>
      </trkpt>
      <trkpt lat="44.52392" lon="4.26391">
        <ele>327</ele>
        <time>2016-05-15T07:59:10.000Z</time>
      </trkpt>
      <trkpt lat="44.52394" lon="4.26391">
        <ele>327</ele>
        <time>2016-05-15T07:59:11.000Z</time>
      </trkpt>
      <trkpt lat="44.52396" lon="4.26391">
        <ele>327</ele>
        <time>2016-05-15T07:59:12.000Z</time>
      </trkpt>
      <trkpt lat="44.52398" lon="4.2639">
        <ele>327</ele>
        <time>2016-05-15T07:59:13.000Z</time>
      </trkpt>
      <trkpt lat="44.524" lon="4.2639">
        <ele>327</ele>
        <time>2016-05-15T07:59:14.000Z</time>
      </trkpt>
      <trkpt lat="44.52403" lon="4.2639">
        <ele>327</ele>
        <time>2016-05-15T07:59:15.000Z</time>
      </trkpt>
      <trkpt lat="44.52405" lon="4.2639">
        <ele>327</ele>
        <time>2016-05-15T07:59:16.000Z</time>
      </trkpt>
      <trkpt lat="44.52407" lon="4.2639">
        <ele>328</ele>
        <time>2016-05-15T07:59:17.000Z</time>
      </trkpt>
      <trkpt lat="44.52409" lon="4.2639">
        <ele>328</ele>
        <time>2016-05-15T07:59:18.000Z</time>
      </trkpt>
      <trkpt lat="44.52412" lon="4.26389">
        <ele>328</ele>
        <time>2016-05-15T07:59:19.000Z</time>
      </trkpt>
      <trkpt lat="44.52414" lon="4.26389">
        <ele>328</ele>
        <time>2016-05-15T07:59:20.000Z</time>
      </trkpt>
      <trkpt lat="44.52416" lon="4.26389">
        <ele>328</ele>
        <time>2016-05-15T07:59:21.000Z</time>
      </trkpt>
      <trkpt lat="44.52418" lon="4.26389">
        <ele>332</ele>
        <time>2016-05-15T07:59:22.000Z</time>
      </trkpt>
      <trkpt lat="44.5242" lon="4.26389">
        <ele>332</ele>
        <time>2016-05-15T07:59:23.000Z</time>
      </trkpt>
      <trkpt lat="44.52422" lon="4.26388">
        <ele>332</ele>
        <time>2016-05-15T07:59:24.000Z</time>
      </trkpt>
      <trkpt lat="44.52425" lon="4.26388">
        <ele>332</ele>
        <time>2016-05-15T07:59:25.000Z</time>
      </trkpt>
      <trkpt lat="44.52427" lon="4.26387">
        <ele>333</ele>
        <time>2016-05-15T07:59:26.000Z</time>
      </trkpt>
      <trkpt lat="44.52429" lon="4.26386">
        <ele>333</ele>
        <time>2016-05-15T07:59:27.000Z</time>
      </trkpt>
      <trkpt lat="44.52431" lon="4.26385">
        <ele>333</ele>
        <time>2016-05-15T07:59:28.000Z</time>
      </trkpt>
      <trkpt lat="44.52433" lon="4.26385">
        <ele>333</ele>
        <time>2016-05-15T07:59:29.000Z</time>
      </trkpt>
      <trkpt lat="44.52435" lon="4.26384">
        <ele>333</ele>
        <time>2016-05-15T07:59:30.000Z</time>
      </trkpt>
      <trkpt lat="44.52437" lon="4.26383">
        <ele>333</ele>
        <time>2016-05-15T07:59:31.000Z</time>
      </trkpt>
      <trkpt lat="44.52439" lon="4.26382">
        <ele>334</ele>
        <time>2016-05-15T07:59:32.000Z</time>
      </trkpt>
      <trkpt lat="44.52442" lon="4.26381">
        <ele>334</ele>
        <time>2016-05-15T07:59:33.000Z</time>
      </trkpt>
      <trkpt lat="44.52444" lon="4.2638">
        <ele>334</ele>
        <time>2016-05-15T07:59:34.000Z</time>
      </trkpt>
      <trkpt lat="44.52446" lon="4.26379">
        <ele>334</ele>
        <time>2016-05-15T07:59:35.000Z</time>
      </trkpt>
      <trkpt lat="44.52448" lon="4.26378">
        <ele>334</ele>
        <time>2016-05-15T07:59:36.000Z</time>
      </trkpt>
      <trkpt lat="44.52451" lon="4.26377">
        <ele>335</ele>
        <time>2016-05-15T07:59:37.000Z</time>
      </trkpt>
      <trkpt lat="44.52453" lon="4.26377">
        <ele>335</ele>
        <time>2016-05-15T07:59:38.000Z</time>
      </trkpt>
      <trkpt lat="44.52455" lon="4.26376">
        <ele>335</ele>
        <time>2016-05-15T07:59:39.000Z</time>
      </trkpt>
      <trkpt lat="44.52457" lon="4.26375">
        <ele>335</ele>
        <time>2016-05-15T07:59:40.000Z</time>
      </trkpt>
      <trkpt lat="44.52459" lon="4.26374">
        <ele>335</ele>
        <time>2016-05-15T07:59:41.000Z</time>
      </trkpt>
      <trkpt lat="44.52461" lon="4.26373">
        <ele>335</ele>
        <time>2016-05-15T07:59:42.000Z</time>
      </trkpt>
      <trkpt lat="44.52463" lon="4.26372">
        <ele>335</ele>
        <time>2016-05-15T07:59:43.000Z</time>
      </trkpt>
      <trkpt lat="44.52465" lon="4.26371">
        <ele>336</ele>
        <time>2016-05-15T07:59:44.000Z</time>
      </trkpt>
      <trkpt lat="44.52467" lon="4.2637">
        <ele>336</ele>
        <time>2016-05-15T07:59:45.000Z</time>
      </trkpt>
      <trkpt lat="44.52469" lon="4.26369">
        <ele>336</ele>
        <time>2016-05-15T07:59:46.000Z</time>
      </trkpt>
      <trkpt lat="44.52471" lon="4.26368">
        <ele>336</ele>
        <time>2016-05-15T07:59:47.000Z</time>
      </trkpt>
      <trkpt lat="44.52472" lon="4.26367">
        <ele>336</ele>
        <time>2016-05-15T07:59:48.000Z</time>
      </trkpt>
      <trkpt lat="44.52474" lon="4.26365">
        <ele>337</ele>
        <time>2016-05-15T07:59:49.000Z</time>
      </trkpt>
      <trkpt lat="44.52476" lon="4.26364">
        <ele>337</ele>
        <time>2016-05-15T07:59:50.000Z</time>
      </trkpt>
      <trkpt lat="44.52478" lon="4.26362">
        <ele>337</ele>
        <time>2016-05-15T07:59:51.000Z</time>
      </trkpt>
      <trkpt lat="44.52479" lon="4.26361">
        <ele>337</ele>
        <time>2016-05-15T07:59:52.000Z</time>
      </trkpt>
      <trkpt lat="44.52481" lon="4.2636">
        <ele>338</ele>
        <time>2016-05-15T07:59:53.000Z</time>
      </trkpt>
      <trkpt lat="44.52483" lon="4.26359">
        <ele>338</ele>
        <time>2016-05-15T07:59:54.000Z</time>
      </trkpt>
      <trkpt lat="44.52485" lon="4.26357">
        <ele>338</ele>
        <time>2016-05-15T07:59:55.000Z</time>
      </trkpt>
      <trkpt lat="44.52487" lon="4.26356">
        <ele>339</ele>
        <time>2016-05-15T07:59:56.000Z</time>
      </trkpt>
      <trkpt lat="44.52489" lon="4.26355">
        <ele>339</ele>
        <time>2016-05-15T07:59:57.000Z</time>
      </trkpt>
      <trkpt lat="44.5249" lon="4.26354">
        <ele>339</ele>
        <time>2016-05-15T07:59:58.000Z</time>
      </trkpt>
      <trkpt lat="44.52492" lon="4.26353">
        <ele>340</ele>
        <time>2016-05-15T07:59:59.000Z</time>
      </trkpt>
      <trkpt lat="44.52494" lon="4.26352">
        <ele>340</ele>
        <time>2016-05-15T08:00:00.000Z</time>
      </trkpt>
      <trkpt lat="44.52496" lon="4.26351">
        <ele>340</ele>
        <time>2016-05-15T08:00:01.000Z</time>
      </trkpt>
      <trkpt lat="44.52499" lon="4.2635">
        <ele>341</ele>
        <time>2016-05-15T08:00:02.000Z</time>
      </trkpt>
      <trkpt lat="44.525" lon="4.26349">
        <ele>342</ele>
        <time>2016-05-15T08:00:03.000Z</time>
      </trkpt>
      <trkpt lat="44.52502" lon="4.26347">
        <ele>342</ele>
        <time>2016-05-15T08:00:04.000Z</time>
      </trkpt>
      <trkpt lat="44.52504" lon="4.26347">
        <ele>342</ele>
        <time>2016-05-15T08:00:05.000Z</time>
      </trkpt>
      <trkpt lat="44.52506" lon="4.26346">
        <ele>342</ele>
        <time>2016-05-15T08:00:06.000Z</time>
      </trkpt>
      <trkpt lat="44.52508" lon="4.26345">
        <ele>342</ele>
        <time>2016-05-15T08:00:07.000Z</time>
      </trkpt>
      <trkpt lat="44.5251" lon="4.26344">
        <ele>342</ele>
        <time>2016-05-15T08:00:08.000Z</time>
      </trkpt>
      <trkpt lat="44.52512" lon="4.26343">
        <ele>342</ele>
        <time>2016-05-15T08:00:09.000Z</time>
      </trkpt>
      <trkpt lat="44.52514" lon="4.26342">
        <ele>342</ele>
        <time>2016-05-15T08:00:10.000Z</time>
      </trkpt>
      <trkpt lat="44.52516" lon="4.26341">
        <ele>342</ele>
        <time>2016-05-15T08:00:11.000Z</time>
      </trkpt>
      <trkpt lat="44.52519" lon="4.2634">
        <ele>341</ele>
        <time>2016-05-15T08:00:12.000Z</time>
      </trkpt>
      <trkpt lat="44.52521" lon="4.26339">
        <ele>341</ele>
        <time>2016-05-15T08:00:13.000Z</time>
      </trkpt>
      <trkpt lat="44.52523" lon="4.26338">
        <ele>341</ele>
        <time>2016-05-15T08:00:14.000Z</time>
      </trkpt>
      <trkpt lat="44.52525" lon="4.26337">
        <ele>341</ele>
        <time>2016-05-15T08:00:15.000Z</time>
      </trkpt>
      <trkpt lat="44.52527" lon="4.26336">
        <ele>341</ele>
        <time>2016-05-15T08:00:16.000Z</time>
      </trkpt>
      <trkpt lat="44.52529" lon="4.26335">
        <ele>341</ele>
        <time>2016-05-15T08:00:17.000Z</time>
      </trkpt>
      <trkpt lat="44.52531" lon="4.26334">
        <ele>340</ele>
        <time>2016-05-15T08:00:18.000Z</time>
      </trkpt>
      <trkpt lat="44.52532" lon="4.26333">
        <ele>349</ele>
        <time>2016-05-15T08:00:19.000Z</time>
      </trkpt>
      <trkpt lat="44.52534" lon="4.26331">
        <ele>349</ele>
        <time>2016-05-15T08:00:20.000Z</time>
      </trkpt>
      <trkpt lat="44.52536" lon="4.2633">
        <ele>349</ele>
        <time>2016-05-15T08:00:21.000Z</time>
      </trkpt>
      <trkpt lat="44.52538" lon="4.26329">
        <ele>349</ele>
        <time>2016-05-15T08:00:22.000Z</time>
      </trkpt>
      <trkpt lat="44.5254" lon="4.26328">
        <ele>349</ele>
        <time>2016-05-15T08:00:23.000Z</time>
      </trkpt>
      <trkpt lat="44.52542" lon="4.26326">
        <ele>349</ele>
        <time>2016-05-15T08:00:24.000Z</time>
      </trkpt>
      <trkpt lat="44.52544" lon="4.26325">
        <ele>349</ele>
        <time>2016-05-15T08:00:25.000Z</time>
      </trkpt>
      <trkpt lat="44.52545" lon="4.26323">
        <ele>349</ele>
        <time>2016-05-15T08:00:26.000Z</time>
      </trkpt>
      <trkpt lat="44.52547" lon="4.26322">
        <ele>349</ele>
        <time>2016-05-15T08:00:27.000Z</time>
      </trkpt>
      <trkpt lat="44.52549" lon="4.2632">
        <ele>349</ele>
        <time>2016-05-15T08:00:28.000Z</time>
      </trkpt>
      <trkpt lat="44.52551" lon="4.26318">
        <ele>349</ele>
        <time>2016-05-15T08:00:29.000Z</time>
      </trkpt>
      <trkpt lat="44.52553" lon="4.26317">
        <ele>349</ele>
        <time>2016-05-15T08:00:30.000Z</time>
      </trkpt>
      <trkpt lat="44.52555" lon="4.26315">
        <ele>349</ele>
        <time>2016-05-15T08:00:31.000Z</time>
      </trkpt>
      <trkpt lat="44.52557" lon="4.26313">
        <ele>349</ele>
        <time>2016-05-15T08:00:32.000Z</time>
      </trkpt>
      <trkpt lat="44.52559" lon="4.26311">
        <ele>349</ele>
        <time>2016-05-15T08:00:33.000Z</time>
      </trkpt>
      <trkpt lat="44.5256" lon="4.2631">
        <ele>349</ele>
        <time>2016-05-15T08:00:34.000Z</time>
      </trkpt>
      <trkpt lat="44.52562" lon="4.26308">
        <ele>349</ele>
        <time>2016-05-15T08:00:35.000Z</time>
      </trkpt>
      <trkpt lat="44.52564" lon="4.26306">
        <ele>349</ele>
        <time>2016-05-15T08:00:36.000Z</time>
      </trkpt>
      <trkpt lat="44.52566" lon="4.26304">
        <ele>349</ele>
        <time>2016-05-15T08:00:37.000Z</time>
      </trkpt>
      <trkpt lat="44.52568" lon="4.26303">
        <ele>349</ele>
        <time>2016-05-15T08:00:38.000Z</time>
      </trkpt>
      <trkpt lat="44.5257" lon="4.26301">
        <ele>349</ele>
        <time>2016-05-15T08:00:39.000Z</time>
      </trkpt>
      <trkpt lat="44.52572" lon="4.263">
        <ele>350</ele>
        <time>2016-05-15T08:00:40.000Z</time>
      </trkpt>
      <trkpt lat="44.52573" lon="4.26298">
        <ele>350</ele>
        <time>2016-05-15T08:00:41.000Z</time>
      </trkpt>
      <trkpt lat="44.52575" lon="4.26297">
        <ele>350</ele>
        <time>2016-05-15T08:00:42.000Z</time>
      </trkpt>
      <trkpt lat="44.52577" lon="4.26296">
        <ele>350</ele>
        <time>2016-05-15T08:00:43.000Z</time>
      </trkpt>
      <trkpt lat="44.52579" lon="4.26294">
        <ele>350</ele>
        <time>2016-05-15T08:00:44.000Z</time>
      </trkpt>
      <trkpt lat="44.52581" lon="4.26293">
        <ele>351</ele>
        <time>2016-05-15T08:00:45.000Z</time>
      </trkpt>
      <trkpt lat="44.52583" lon="4.26292">
        <ele>351</ele>
        <time>2016-05-15T08:00:46.000Z</time>
      </trkpt>
      <trkpt lat="44.52585" lon="4.2629">
        <ele>350</ele>
        <time>2016-05-15T08:00:47.000Z</time>
      </trkpt>
      <trkpt lat="44.52586" lon="4.26289">
        <ele>351</ele>
        <time>2016-05-15T08:00:48.000Z</time>
      </trkpt>
      <trkpt lat="44.52588" lon="4.26288">
        <ele>351</ele>
        <time>2016-05-15T08:00:49.000Z</time>
      </trkpt>
      <trkpt lat="44.5259" lon="4.26287">
        <ele>351</ele>
        <time>2016-05-15T08:00:50.000Z</time>
      </trkpt>
      <trkpt lat="44.52593" lon="4.26286">
        <ele>351</ele>
        <time>2016-05-15T08:00:51.000Z</time>
      </trkpt>
      <trkpt lat="44.52595" lon="4.26284">
        <ele>351</ele>
        <time>2016-05-15T08:00:52.000Z</time>
      </trkpt>
      <trkpt lat="44.52596" lon="4.26283">
        <ele>352</ele>
        <time>2016-05-15T08:00:53.000Z</time>
      </trkpt>
      <trkpt lat="44.52598" lon="4.26282">
        <ele>352</ele>
        <time>2016-05-15T08:00:54.000Z</time>
      </trkpt>
      <trkpt lat="44.526" lon="4.26281">
        <ele>352</ele>
        <time>2016-05-15T08:00:55.000Z</time>
      </trkpt>
      <trkpt lat="44.52602" lon="4.2628">
        <ele>352</ele>
        <time>2016-05-15T08:00:56.000Z</time>
      </trkpt>
      <trkpt lat="44.52605" lon="4.26279">
        <ele>352</ele>
        <time>2016-05-15T08:00:57.000Z</time>
      </trkpt>
      <trkpt lat="44.52607" lon="4.26278">
        <ele>352</ele>
        <time>2016-05-15T08:00:58.000Z</time>
      </trkpt>
      <trkpt lat="44.52609" lon="4.26277">
        <ele>352</ele>
        <time>2016-05-15T08:00:59.000Z</time>
      </trkpt>
      <trkpt lat="44.52611" lon="4.26276">
        <ele>352</ele>
        <time>2016-05-15T08:01:00.000Z</time>
      </trkpt>
      <trkpt lat="44.52613" lon="4.26275">
        <ele>352</ele>
        <time>2016-05-15T08:01:01.000Z</time>
      </trkpt>
      <trkpt lat="44.52615" lon="4.26274">
        <ele>352</ele>
        <time>2016-05-15T08:01:02.000Z</time>
      </trkpt>
      <trkpt lat="44.52617" lon="4.26274">
        <ele>353</ele>
        <time>2016-05-15T08:01:03.000Z</time>
      </trkpt>
      <trkpt lat="44.52619" lon="4.26273">
        <ele>353</ele>
        <time>2016-05-15T08:01:04.000Z</time>
      </trkpt>
      <trkpt lat="44.52621" lon="4.26273">
        <ele>353</ele>
        <time>2016-05-15T08:01:05.000Z</time>
      </trkpt>
      <trkpt lat="44.52623" lon="4.26272">
        <ele>353</ele>
        <time>2016-05-15T08:01:06.000Z</time>
      </trkpt>
      <trkpt lat="44.52625" lon="4.26272">
        <ele>353</ele>
        <time>2016-05-15T08:01:07.000Z</time>
      </trkpt>
      <trkpt lat="44.52627" lon="4.26272">
        <ele>353</ele>
        <time>2016-05-15T08:01:08.000Z</time>
      </trkpt>
      <trkpt lat="44.52629" lon="4.26271">
        <ele>353</ele>
        <time>2016-05-15T08:01:09.000Z</time>
      </trkpt>
      <trkpt lat="44.52631" lon="4.26271">
        <ele>353</ele>
        <time>2016-05-15T08:01:10.000Z</time>
      </trkpt>
      <trkpt lat="44.52633" lon="4.26271">
        <ele>353</ele>
        <time>2016-05-15T08:01:11.000Z</time>
      </trkpt>
      <trkpt lat="44.52635" lon="4.2627">
        <ele>353</ele>
        <time>2016-05-15T08:01:12.000Z</time>
      </trkpt>
      <trkpt lat="44.52637" lon="4.2627">
        <ele>353</ele>
        <time>2016-05-15T08:01:13.000Z</time>
      </trkpt>
      <trkpt lat="44.52639" lon="4.2627">
        <ele>353</ele>
        <time>2016-05-15T08:01:14.000Z</time>
      </trkpt>
      <trkpt lat="44.52641" lon="4.2627">
        <ele>354</ele>
        <time>2016-05-15T08:01:15.000Z</time>
      </trkpt>
      <trkpt lat="44.52644" lon="4.2627">
        <ele>354</ele>
        <time>2016-05-15T08:01:16.000Z</time>
      </trkpt>
      <trkpt lat="44.52646" lon="4.26269">
        <ele>354</ele>
        <time>2016-05-15T08:01:17.000Z</time>
      </trkpt>
      <trkpt lat="44.52648" lon="4.26269">
        <ele>354</ele>
        <time>2016-05-15T08:01:18.000Z</time>
      </trkpt>
      <trkpt lat="44.5265" lon="4.26268">
        <ele>354</ele>
        <time>2016-05-15T08:01:19.000Z</time>
      </trkpt>
      <trkpt lat="44.52652" lon="4.26268">
        <ele>355</ele>
        <time>2016-05-15T08:01:20.000Z</time>
      </trkpt>
      <trkpt lat="44.52654" lon="4.26268">
        <ele>355</ele>
        <time>2016-05-15T08:01:21.000Z</time>
      </trkpt>
      <trkpt lat="44.52656" lon="4.26268">
        <ele>355</ele>
        <time>2016-05-15T08:01:22.000Z</time>
      </trkpt>
      <trkpt lat="44.52658" lon="4.26267">
        <ele>355</ele>
        <time>2016-05-15T08:01:23.000Z</time>
      </trkpt>
      <trkpt lat="44.5266" lon="4.26266">
        <ele>355</ele>
        <time>2016-05-15T08:01:24.000Z</time>
      </trkpt>
      <trkpt lat="44.52662" lon="4.26266">
        <ele>356</ele>
        <time>2016-05-15T08:01:25.000Z</time>
      </trkpt>
      <trkpt lat="44.52665" lon="4.26265">
        <ele>356</ele>
        <time>2016-05-15T08:01:26.000Z</time>
      </trkpt>
      <trkpt lat="44.52667" lon="4.26265">
        <ele>359</ele>
        <time>2016-05-15T08:01:27.000Z</time>
      </trkpt>
      <trkpt lat="44.52669" lon="4.26265">
        <ele>359</ele>
        <time>2016-05-15T08:01:28.000Z</time>
      </trkpt>
      <trkpt lat="44.52672" lon="4.26264">
        <ele>359</ele>
        <time>2016-05-15T08:01:29.000Z</time>
      </trkpt>
      <trkpt lat="44.52674" lon="4.26263">
        <ele>359</ele>
        <time>2016-05-15T08:01:30.000Z</time>
      </trkpt>
      <trkpt lat="44.52676" lon="4.26262">
        <ele>359</ele>
        <time>2016-05-15T08:01:31.000Z</time>
      </trkpt>
      <trkpt lat="44.52678" lon="4.26262">
        <ele>359</ele>
        <time>2016-05-15T08:01:32.000Z</time>
      </trkpt>
      <trkpt lat="44.5268" lon="4.26261">
        <ele>359</ele>
        <time>2016-05-15T08:01:33.000Z</time>
      </trkpt>
      <trkpt lat="44.52683" lon="4.2626">
        <ele>359</ele>
        <time>2016-05-15T08:01:34.000Z</time>
      </trkpt>
      <trkpt lat="44.52685" lon="4.2626">
        <ele>359</ele>
        <time>2016-05-15T08:01:35.000Z</time>
      </trkpt>
      <trkpt lat="44.52687" lon="4.26259">
        <ele>359</ele>
        <time>2016-05-15T08:01:36.000Z</time>
      </trkpt>
      <trkpt lat="44.52689" lon="4.26258">
        <ele>359</ele>
        <time>2016-05-15T08:01:37.000Z</time>
      </trkpt>
      <trkpt lat="44.52691" lon="4.26257">
        <ele>359</ele>
        <time>2016-05-15T08:01:38.000Z</time>
      </trkpt>
      <trkpt lat="44.52694" lon="4.26256">
        <ele>359</ele>
        <time>2016-05-15T08:01:39.000Z</time>
      </trkpt>
      <trkpt lat="44.52696" lon="4.26255">
        <ele>359</ele>
        <time>2016-05-15T08:01:40.000Z</time>
      </trkpt>
      <trkpt lat="44.52698" lon="4.26254">
        <ele>359</ele>
        <time>2016-05-15T08:01:41.000Z</time>
      </trkpt>
      <trkpt lat="44.52701" lon="4.26253">
        <ele>359</ele>
        <time>2016-05-15T08:01:42.000Z</time>
      </trkpt>
      <trkpt lat="44.52703" lon="4.26252">
        <ele>360</ele>
        <time>2016-05-15T08:01:43.000Z</time>
      </trkpt>
      <trkpt lat="44.52704" lon="4.26251">
        <ele>360</ele>
        <time>2016-05-15T08:01:44.000Z</time>
      </trkpt>
      <trkpt lat="44.52706" lon="4.2625">
        <ele>360</ele>
        <time>2016-05-15T08:01:45.000Z</time>
      </trkpt>
      <trkpt lat="44.52709" lon="4.26249">
        <ele>368</ele>
        <time>2016-05-15T08:01:46.000Z</time>
      </trkpt>
      <trkpt lat="44.52711" lon="4.26248">
        <ele>368</ele>
        <time>2016-05-15T08:01:47.000Z</time>
      </trkpt>
      <trkpt lat="44.52713" lon="4.26247">
        <ele>369</ele>
        <time>2016-05-15T08:01:48.000Z</time>
      </trkpt>
      <trkpt lat="44.52715" lon="4.26246">
        <ele>369</ele>
        <time>2016-05-15T08:01:49.000Z</time>
      </trkpt>
      <trkpt lat="44.52717" lon="4.26244">
        <ele>369</ele>
        <time>2016-05-15T08:01:50.000Z</time>
      </trkpt>
      <trkpt lat="44.52719" lon="4.26243">
        <ele>369</ele>
        <time>2016-05-15T08:01:51.000Z</time>
      </trkpt>
      <trkpt lat="44.52722" lon="4.26241">
        <ele>369</ele>
        <time>2016-05-15T08:01:52.000Z</time>
      </trkpt>
      <trkpt lat="44.52724" lon="4.2624">
        <ele>369</ele>
        <time>2016-05-15T08:01:53.000Z</time>
      </trkpt>
      <trkpt lat="44.52727" lon="4.26239">
        <ele>369</ele>
        <time>2016-05-15T08:01:54.000Z</time>
      </trkpt>
      <trkpt lat="44.52729" lon="4.26239">
        <ele>369</ele>
        <time>2016-05-15T08:01:55.000Z</time>
      </trkpt>
      <trkpt lat="44.52732" lon="4.26238">
        <ele>369</ele>
        <time>2016-05-15T08:01:56.000Z</time>
      </trkpt>
      <trkpt lat="44.52734" lon="4.26237">
        <ele>369</ele>
        <time>2016-05-15T08:01:57.000Z</time>
      </trkpt>
      <trkpt lat="44.52737" lon="4.26237">
        <ele>369</ele>
        <time>2016-05-15T08:01:58.000Z</time>
      </trkpt>
      <trkpt lat="44.52739" lon="4.26236">
        <ele>369</ele>
        <time>2016-05-15T08:01:59.000Z</time>
      </trkpt>
      <trkpt lat="44.52742" lon="4.26236">
        <ele>369</ele>
        <time>2016-05-15T08:02:00.000Z</time>
      </trkpt>
      <trkpt lat="44.52744" lon="4.26236">
        <ele>369</ele>
        <time>2016-05-15T08:02:01.000Z</time>
      </trkpt>
      <trkpt lat="44.52747" lon="4.26236">
        <ele>369</ele>
        <time>2016-05-15T08:02:02.000Z</time>
      </trkpt>
      <trkpt lat="44.52749" lon="4.26236">
        <ele>369</ele>
        <time>2016-05-15T08:02:03.000Z</time>
      </trkpt>
      <trkpt lat="44.52752" lon="4.26235">
        <ele>372</ele>
        <time>2016-05-15T08:02:04.000Z</time>
      </trkpt>
      <trkpt lat="44.52754" lon="4.26235">
        <ele>372</ele>
        <time>2016-05-15T08:02:05.000Z</time>
      </trkpt>
      <trkpt lat="44.52757" lon="4.26235">
        <ele>372</ele>
        <time>2016-05-15T08:02:06.000Z</time>
      </trkpt>
      <trkpt lat="44.5276" lon="4.26235">
        <ele>372</ele>
        <time>2016-05-15T08:02:07.000Z</time>
      </trkpt>
      <trkpt lat="44.52762" lon="4.26235">
        <ele>373</ele>
        <time>2016-05-15T08:02:08.000Z</time>
      </trkpt>
      <trkpt lat="44.52765" lon="4.26235">
        <ele>373</ele>
        <time>2016-05-15T08:02:09.000Z</time>
      </trkpt>
      <trkpt lat="44.52768" lon="4.26235">
        <ele>373</ele>
        <time>2016-05-15T08:02:10.000Z</time>
      </trkpt>
      <trkpt lat="44.5277" lon="4.26235">
        <ele>374</ele>
        <time>2016-05-15T08:02:11.000Z</time>
      </trkpt>
      <trkpt lat="44.52773" lon="4.26236">
        <ele>374</ele>
        <time>2016-05-15T08:02:12.000Z</time>
      </trkpt>
      <trkpt lat="44.52775" lon="4.26236">
        <ele>374</ele>
        <time>2016-05-15T08:02:13.000Z</time>
      </trkpt>
      <trkpt lat="44.52778" lon="4.26236">
        <ele>375</ele>
        <time>2016-05-15T08:02:14.000Z</time>
      </trkpt>
      <trkpt lat="44.5278" lon="4.26237">
        <ele>375</ele>
        <time>2016-05-15T08:02:15.000Z</time>
      </trkpt>
      <trkpt lat="44.52783" lon="4.26238">
        <ele>375</ele>
        <time>2016-05-15T08:02:16.000Z</time>
      </trkpt>
      <trkpt lat="44.52785" lon="4.26239">
        <ele>375</ele>
        <time>2016-05-15T08:02:17.000Z</time>
      </trkpt>
      <trkpt lat="44.52787" lon="4.26241">
        <ele>375</ele>
        <time>2016-05-15T08:02:18.000Z</time>
      </trkpt>
      <trkpt lat="44.52789" lon="4.26242">
        <ele>376</ele>
        <time>2016-05-15T08:02:19.000Z</time>
      </trkpt>
      <trkpt lat="44.52791" lon="4.26244">
        <ele>376</ele>
        <time>2016-05-15T08:02:20.000Z</time>
      </trkpt>
      <trkpt lat="44.52793" lon="4.26246">
        <ele>376</ele>
        <time>2016-05-15T08:02:21.000Z</time>
      </trkpt>
      <trkpt lat="44.52795" lon="4.26248">
        <ele>376</ele>
        <time>2016-05-15T08:02:22.000Z</time>
      </trkpt>
      <trkpt lat="44.52797" lon="4.2625">
        <ele>376</ele>
        <time>2016-05-15T08:02:23.000Z</time>
      </trkpt>
      <trkpt lat="44.52798" lon="4.26253">
        <ele>371</ele>
        <time>2016-05-15T08:02:24.000Z</time>
      </trkpt>
      <trkpt lat="44.52799" lon="4.26256">
        <ele>371</ele>
        <time>2016-05-15T08:02:25.000Z</time>
      </trkpt>
      <trkpt lat="44.528" lon="4.26259">
        <ele>371</ele>
        <time>2016-05-15T08:02:26.000Z</time>
      </trkpt>
      <trkpt lat="44.52801" lon="4.26262">
        <ele>371</ele>
        <time>2016-05-15T08:02:27.000Z</time>
      </trkpt>
      <trkpt lat="44.52801" lon="4.26265">
        <ele>371</ele>
        <time>2016-05-15T08:02:28.000Z</time>
      </trkpt>
      <trkpt lat="44.52801" lon="4.26268">
        <ele>371</ele>
        <time>2016-05-15T08:02:29.000Z</time>
      </trkpt>
      <trkpt lat="44.52801" lon="4.26271">
        <ele>370</ele>
        <time>2016-05-15T08:02:30.000Z</time>
      </trkpt>
      <trkpt lat="44.52801" lon="4.26273">
        <ele>370</ele>
        <time>2016-05-15T08:02:31.000Z</time>
      </trkpt>
      <trkpt lat="44.52801" lon="4.26276">
        <ele>370</ele>
        <time>2016-05-15T08:02:32.000Z</time>
      </trkpt>
      <trkpt lat="44.52801" lon="4.26279">
        <ele>370</ele>
        <time>2016-05-15T08:02:33.000Z</time>
      </trkpt>
      <trkpt lat="44.52801" lon="4.26282">
        <ele>370</ele>
        <time>2016-05-15T08:02:34.000Z</time>
      </trkpt>
      <trkpt lat="44.528" lon="4.26284">
        <ele>370</ele>
        <time>2016-05-15T08:02:35.000Z</time>
      </trkpt>
      <trkpt lat="44.52799" lon="4.26287">
        <ele>370</ele>
        <time>2016-05-15T08:02:36.000Z</time>
      </trkpt>
      <trkpt lat="44.52798" lon="4.2629">
        <ele>370</ele>
        <time>2016-05-15T08:02:37.000Z</time>
      </trkpt>
      <trkpt lat="44.52797" lon="4.26293">
        <ele>370</ele>
        <time>2016-05-15T08:02:38.000Z</time>
      </trkpt>
      <trkpt lat="44.52796" lon="4.26295">
        <ele>370</ele>
        <time>2016-05-15T08:02:39.000Z</time>
      </trkpt>
      <trkpt lat="44.52795" lon="4.26298">
        <ele>369</ele>
        <time>2016-05-15T08:02:40.000Z</time>
      </trkpt>
      <trkpt lat="44.52794" lon="4.263">
        <ele>369</ele>
        <time>2016-05-15T08:02:41.000Z</time>
      </trkpt>
      <trkpt lat="44.52793" lon="4.26303">
        <ele>369</ele>
        <time>2016-05-15T08:02:42.000Z</time>
      </trkpt>
      <trkpt lat="44.52793" lon="4.26305">
        <ele>369</ele>
        <time>2016-05-15T08:02:43.000Z</time>
      </trkpt>
      <trkpt lat="44.52793" lon="4.26308">
        <ele>369</ele>
        <time>2016-05-15T08:02:44.000Z</time>
      </trkpt>
      <trkpt lat="44.52794" lon="4.2631">
        <ele>369</ele>
        <time>2016-05-15T08:02:45.000Z</time>
      </trkpt>
      <trkpt lat="44.52796" lon="4.26312">
        <ele>369</ele>
        <time>2016-05-15T08:02:46.000Z</time>
      </trkpt>
      <trkpt lat="44.52798" lon="4.26313">
        <ele>369</ele>
        <time>2016-05-15T08:02:47.000Z</time>
      </trkpt>
      <trkpt lat="44.528" lon="4.26313">
        <ele>370</ele>
        <time>2016-05-15T08:02:48.000Z</time>
      </trkpt>
      <trkpt lat="44.52802" lon="4.26313">
        <ele>370</ele>
        <time>2016-05-15T08:02:49.000Z</time>
      </trkpt>
      <trkpt lat="44.52803" lon="4.26312">
        <ele>370</ele>
        <time>2016-05-15T08:02:50.000Z</time>
      </trkpt>
      <trkpt lat="44.52804" lon="4.26311">
        <ele>370</ele>
        <time>2016-05-15T08:02:51.000Z</time>
      </trkpt>
      <trkpt lat="44.52805" lon="4.26309">
        <ele>370</ele>
        <time>2016-05-15T08:02:52.000Z</time>
      </trkpt>
      <trkpt lat="44.52807" lon="4.26307">
        <ele>370</ele>
        <time>2016-05-15T08:02:53.000Z</time>
      </trkpt>
      <trkpt lat="44.52808" lon="4.26305">
        <ele>370</ele>
        <time>2016-05-15T08:02:54.000Z</time>
      </trkpt>
      <trkpt lat="44.5281" lon="4.26303">
        <ele>370</ele>
        <time>2016-05-15T08:02:55.000Z</time>
      </trkpt>
      <trkpt lat="44.52812" lon="4.26302">
        <ele>371</ele>
        <time>2016-05-15T08:02:56.000Z</time>
      </trkpt>
      <trkpt lat="44.52814" lon="4.26302">
        <ele>371</ele>
        <time>2016-05-15T08:02:57.000Z</time>
      </trkpt>
      <trkpt lat="44.52816" lon="4.26301">
        <ele>371</ele>
        <time>2016-05-15T08:02:58.000Z</time>
      </trkpt>
      <trkpt lat="44.52816" lon="4.26299">
        <ele>371</ele>
        <time>2016-05-15T08:02:59.000Z</time>
      </trkpt>
      <trkpt lat="44.52815" lon="4.26299">
        <ele>371</ele>
        <time>2016-05-15T08:03:00.000Z</time>
      </trkpt>
      <trkpt lat="44.52816" lon="4.26299">
        <ele>371</ele>
        <time>2016-05-15T08:03:01.000Z</time>
      </trkpt>
      <trkpt lat="44.52816" lon="4.26299">
        <ele>371</ele>
        <time>2016-05-15T08:03:02.000Z</time>
      </trkpt>
      <trkpt lat="44.52816" lon="4.26299">
        <ele>371</ele>
        <time>2016-05-15T08:03:03.000Z</time>
      </trkpt>
      <trkpt lat="44.52816" lon="4.26299">
        <ele>371</ele>
        <time>2016-05-15T08:03:04.000Z</time>
      </trkpt>
      <trkpt lat="44.52816" lon="4.26299">
        <ele>371</ele>
        <time>2016-05-15T08:03:05.000Z</time>
      </trkpt>
      <trkpt lat="44.52816" lon="4.26299">
        <ele>371</ele>
        <time>2016-05-15T08:03:06.000Z</time>
      </trkpt>
      <trkpt lat="44.52816" lon="4.26299">
        <ele>371</ele>
        <time>2016-05-15T08:03:07.000Z</time>
      </trkpt>
      <trkpt lat="44.52816" lon="4.26299">
        <ele>371</ele>
        <time>2016-05-15T08:03:08.000Z</time>
      </trkpt>
      <trkpt lat="44.52816" lon="4.26299">
        <ele>371</ele>
        <time>2016-05-15T08:03:09.000Z</time>
      </trkpt>
      <trkpt lat="44.52816" lon="4.26299">
        <ele>371</ele>
        <time>2016-05-15T08:03:10.000Z</time>
      </trkpt>
      <trkpt lat="44.52816" lon="4.26299">
        <ele>371</ele>
        <time>2016-05-15T08:03:11.000Z</time>
      </trkpt>
      <trkpt lat="44.52816" lon="4.263">
        <ele>371</ele>
        <time>2016-05-15T08:03:12.000Z</time>
      </trkpt>
      <trkpt lat="44.52816" lon="4.263">
        <ele>371</ele>
        <time>2016-05-15T08:03:13.000Z</time>
      </trkpt>
      <trkpt lat="44.52816" lon="4.263">
        <ele>371</ele>
        <time>2016-05-15T08:03:14.000Z</time>
      </trkpt>
      <trkpt lat="44.52816" lon="4.263">
        <ele>371</ele>
        <time>2016-05-15T08:03:15.000Z</time>
      </trkpt>
      <trkpt lat="44.52816" lon="4.263">
        <ele>371</ele>
        <time>2016-05-15T08:03:16.000Z</time>
      </trkpt>
      <trkpt lat="44.52816" lon="4.263">
        <ele>371</ele>
        <time>2016-05-15T08:03:17.000Z</time>
      </trkpt>
      <trkpt lat="44.52816" lon="4.263">
        <ele>371</ele>
        <time>2016-05-15T08:03:18.000Z</time>
      </trkpt>
      <trkpt lat="44.52816" lon="4.263">
        <ele>371</ele>
        <time>2016-05-15T08:03:19.000Z</time>
      </trkpt>
      <trkpt lat="44.52816" lon="4.263">
        <ele>371</ele>
        <time>2016-05-15T08:03:20.000Z</time>
      </trkpt>
      <trkpt lat="44.52816" lon="4.263">
        <ele>371</ele>
        <time>2016-05-15T08:03:21.000Z</time>
      </trkpt>
      <trkpt lat="44.52816" lon="4.263">
        <ele>371</ele>
        <time>2016-05-15T08:03:22.000Z</time>
      </trkpt>
      <trkpt lat="44.52816" lon="4.263">
        <ele>371</ele>
        <time>2016-05-15T08:03:23.000Z</time>
      </trkpt>
      <trkpt lat="44.52816" lon="4.263">
        <ele>371</ele>
        <time>2016-05-15T08:03:24.000Z</time>
      </trkpt>
      <trkpt lat="44.52816" lon="4.263">
        <ele>371</ele>
        <time>2016-05-15T08:03:25.000Z</time>
      </trkpt>
      <trkpt lat="44.52816" lon="4.26301">
        <ele>371</ele>
        <time>2016-05-15T08:03:26.000Z</time>
      </trkpt>
      <trkpt lat="44.52816" lon="4.26301">
        <ele>371</ele>
        <time>2016-05-15T08:03:27.000Z</time>
      </trkpt>
      <trkpt lat="44.52816" lon="4.26301">
        <ele>371</ele>
        <time>2016-05-15T08:03:28.000Z</time>
      </trkpt>
      <trkpt lat="44.52816" lon="4.26301">
        <ele>371</ele>
        <time>2016-05-15T08:03:29.000Z</time>
      </trkpt>
      <trkpt lat="44.52816" lon="4.26301">
        <ele>371</ele>
        <time>2016-05-15T08:03:30.000Z</time>
      </trkpt>
      <trkpt lat="44.52816" lon="4.26301">
        <ele>371</ele>
        <time>2016-05-15T08:03:31.000Z</time>
      </trkpt>
      <trkpt lat="44.52816" lon="4.26301">
        <ele>371</ele>
        <time>2016-05-15T08:03:32.000Z</time>
      </trkpt>
      <trkpt lat="44.52816" lon="4.26301">
        <ele>371</ele>
        <time>2016-05-15T08:03:33.000Z</time>
      </trkpt>
      <trkpt lat="44.52816" lon="4.26301">
        <ele>371</ele>
        <time>2016-05-15T08:03:34.000Z</time>
      </trkpt>
      <trkpt lat="44.52816" lon="4.263">
        <ele>371</ele>
        <time>2016-05-15T08:03:35.000Z</time>
      </trkpt>
      <trkpt lat="44.52816" lon="4.263">
        <ele>371</ele>
        <time>2016-05-15T08:03:36.000Z</time>
      </trkpt>
      <trkpt lat="44.52816" lon="4.263">
        <ele>371</ele>
        <time>2016-05-15T08:03:37.000Z</time>
      </trkpt>
      <trkpt lat="44.52817" lon="4.263">
        <ele>371</ele>
        <time>2016-05-15T08:03:38.000Z</time>
      </trkpt>
      <trkpt lat="44.52817" lon="4.263">
        <ele>371</ele>
        <time>2016-05-15T08:03:39.000Z</time>
      </trkpt>
      <trkpt lat="44.52816" lon="4.26301">
        <ele>371</ele>
        <time>2016-05-15T08:03:40.000Z</time>
      </trkpt>
      <trkpt lat="44.52815" lon="4.26301">
        <ele>371</ele>
        <time>2016-05-15T08:03:41.000Z</time>
      </trkpt>
      <trkpt lat="44.52814" lon="4.26303">
        <ele>371</ele>
        <time>2016-05-15T08:03:42.000Z</time>
      </trkpt>
      <trkpt lat="44.52813" lon="4.26307">
        <ele>371</ele>
        <time>2016-05-15T08:03:43.000Z</time>
      </trkpt>
      <trkpt lat="44.52812" lon="4.26309">
        <ele>371</ele>
        <time>2016-05-15T08:03:44.000Z</time>
      </trkpt>
      <trkpt lat="44.52811" lon="4.26312">
        <ele>371</ele>
        <time>2016-05-15T08:03:45.000Z</time>
      </trkpt>
      <trkpt lat="44.5281" lon="4.26315">
        <ele>371</ele>
        <time>2016-05-15T08:03:46.000Z</time>
      </trkpt>
      <trkpt lat="44.52809" lon="4.26317">
        <ele>371</ele>
        <time>2016-05-15T08:03:47.000Z</time>
      </trkpt>
      <trkpt lat="44.52807" lon="4.26319">
        <ele>370</ele>
        <time>2016-05-15T08:03:48.000Z</time>
      </trkpt>
      <trkpt lat="44.52805" lon="4.26322">
        <ele>370</ele>
        <time>2016-05-15T08:03:49.000Z</time>
      </trkpt>
      <trkpt lat="44.52804" lon="4.26324">
        <ele>370</ele>
        <time>2016-05-15T08:03:50.000Z</time>
      </trkpt>
      <trkpt lat="44.52802" lon="4.26327">
        <ele>370</ele>
        <time>2016-05-15T08:03:51.000Z</time>
      </trkpt>
      <trkpt lat="44.52801" lon="4.26329">
        <ele>370</ele>
        <time>2016-05-15T08:03:52.000Z</time>
      </trkpt>
      <trkpt lat="44.528" lon="4.26331">
        <ele>370</ele>
        <time>2016-05-15T08:03:53.000Z</time>
      </trkpt>
      <trkpt lat="44.52799" lon="4.26333">
        <ele>369</ele>
        <time>2016-05-15T08:03:54.000Z</time>
      </trkpt>
      <trkpt lat="44.52797" lon="4.26334">
        <ele>370</ele>
        <time>2016-05-15T08:03:55.000Z</time>
      </trkpt>
      <trkpt lat="44.52795" lon="4.26336">
        <ele>369</ele>
        <time>2016-05-15T08:03:56.000Z</time>
      </trkpt>
      <trkpt lat="44.52792" lon="4.26337">
        <ele>369</ele>
        <time>2016-05-15T08:03:57.000Z</time>
      </trkpt>
      <trkpt lat="44.52789" lon="4.26339">
        <ele>369</ele>
        <time>2016-05-15T08:03:58.000Z</time>
      </trkpt>
      <trkpt lat="44.52787" lon="4.2634">
        <ele>369</ele>
        <time>2016-05-15T08:03:59.000Z</time>
      </trkpt>
      <trkpt lat="44.52784" lon="4.26342">
        <ele>368</ele>
        <time>2016-05-15T08:04:00.000Z</time>
      </trkpt>
      <trkpt lat="44.52783" lon="4.26345">
        <ele>368</ele>
        <time>2016-05-15T08:04:01.000Z</time>
      </trkpt>
      <trkpt lat="44.52781" lon="4.26347">
        <ele>368</ele>
        <time>2016-05-15T08:04:02.000Z</time>
      </trkpt>
      <trkpt lat="44.52781" lon="4.26349">
        <ele>368</ele>
        <time>2016-05-15T08:04:03.000Z</time>
      </trkpt>
      <trkpt lat="44.5278" lon="4.26351">
        <ele>368</ele>
        <time>2016-05-15T08:04:04.000Z</time>
      </trkpt>
      <trkpt lat="44.52778" lon="4.26354">
        <ele>368</ele>
        <time>2016-05-15T08:04:05.000Z</time>
      </trkpt>
      <trkpt lat="44.52776" lon="4.26355">
        <ele>368</ele>
        <time>2016-05-15T08:04:06.000Z</time>
      </trkpt>
      <trkpt lat="44.52775" lon="4.26355">
        <ele>368</ele>
        <time>2016-05-15T08:04:07.000Z</time>
      </trkpt>
      <trkpt lat="44.52773" lon="4.26354">
        <ele>367</ele>
        <time>2016-05-15T08:04:08.000Z</time>
      </trkpt>
      <trkpt lat="44.52772" lon="4.26355">
        <ele>367</ele>
        <time>2016-05-15T08:04:09.000Z</time>
      </trkpt>
      <trkpt lat="44.52771" lon="4.26356">
        <ele>367</ele>
        <time>2016-05-15T08:04:10.000Z</time>
      </trkpt>
      <trkpt lat="44.5277" lon="4.26358">
        <ele>367</ele>
        <time>2016-05-15T08:04:11.000Z</time>
      </trkpt>
      <trkpt lat="44.52769" lon="4.26361">
        <ele>368</ele>
        <time>2016-05-15T08:04:12.000Z</time>
      </trkpt>
      <trkpt lat="44.52768" lon="4.26365">
        <ele>368</ele>
        <time>2016-05-15T08:04:13.000Z</time>
      </trkpt>
      <trkpt lat="44.52766" lon="4.26369">
        <ele>368</ele>
        <time>2016-05-15T08:04:14.000Z</time>
      </trkpt>
      <trkpt lat="44.52765" lon="4.26372">
        <ele>368</ele>
        <time>2016-05-15T08:04:15.000Z</time>
      </trkpt>
      <trkpt lat="44.52763" lon="4.26374">
        <ele>368</ele>
        <time>2016-05-15T08:04:16.000Z</time>
      </trkpt>
      <trkpt lat="44.52761" lon="4.26375">
        <ele>368</ele>
        <time>2016-05-15T08:04:17.000Z</time>
      </trkpt>
      <trkpt lat="44.5276" lon="4.26377">
        <ele>368</ele>
        <time>2016-05-15T08:04:18.000Z</time>
      </trkpt>
      <trkpt lat="44.5276" lon="4.2638">
        <ele>368</ele>
        <time>2016-05-15T08:04:19.000Z</time>
      </trkpt>
      <trkpt lat="44.52759" lon="4.26383">
        <ele>368</ele>
        <time>2016-05-15T08:04:20.000Z</time>
      </trkpt>
      <trkpt lat="44.52759" lon="4.26385">
        <ele>368</ele>
        <time>2016-05-15T08:04:21.000Z</time>
      </trkpt>
      <trkpt lat="44.52758" lon="4.26387">
        <ele>368</ele>
        <time>2016-05-15T08:04:22.000Z</time>
      </trkpt>
      <trkpt lat="44.52757" lon="4.26388">
        <ele>368</ele>
        <time>2016-05-15T08:04:23.000Z</time>
      </trkpt>
      <trkpt lat="44.52755" lon="4.26388">
        <ele>368</ele>
        <time>2016-05-15T08:04:24.000Z</time>
      </trkpt>
      <trkpt lat="44.52753" lon="4.26387">
        <ele>368</ele>
        <time>2016-05-15T08:04:25.000Z</time>
      </trkpt>
      <trkpt lat="44.5275" lon="4.26388">
        <ele>368</ele>
        <time>2016-05-15T08:04:26.000Z</time>
      </trkpt>
      <trkpt lat="44.52748" lon="4.26391">
        <ele>360</ele>
        <time>2016-05-15T08:04:27.000Z</time>
      </trkpt>
      <trkpt lat="44.52747" lon="4.26393">
        <ele>360</ele>
        <time>2016-05-15T08:04:28.000Z</time>
      </trkpt>
      <trkpt lat="44.52746" lon="4.26394">
        <ele>360</ele>
        <time>2016-05-15T08:04:29.000Z</time>
      </trkpt>
      <trkpt lat="44.52743" lon="4.26394">
        <ele>360</ele>
        <time>2016-05-15T08:04:30.000Z</time>
      </trkpt>
      <trkpt lat="44.5274" lon="4.26395">
        <ele>360</ele>
        <time>2016-05-15T08:04:31.000Z</time>
      </trkpt>
      <trkpt lat="44.52738" lon="4.26396">
        <ele>360</ele>
        <time>2016-05-15T08:04:32.000Z</time>
      </trkpt>
      <trkpt lat="44.52735" lon="4.26398">
        <ele>360</ele>
        <time>2016-05-15T08:04:33.000Z</time>
      </trkpt>
      <trkpt lat="44.52733" lon="4.26401">
        <ele>360</ele>
        <time>2016-05-15T08:04:34.000Z</time>
      </trkpt>
      <trkpt lat="44.52731" lon="4.26404">
        <ele>360</ele>
        <time>2016-05-15T08:04:35.000Z</time>
      </trkpt>
      <trkpt lat="44.52729" lon="4.26406">
        <ele>360</ele>
        <time>2016-05-15T08:04:36.000Z</time>
      </trkpt>
      <trkpt lat="44.52727" lon="4.26407">
        <ele>359</ele>
        <time>2016-05-15T08:04:37.000Z</time>
      </trkpt>
      <trkpt lat="44.52725" lon="4.26407">
        <ele>359</ele>
        <time>2016-05-15T08:04:38.000Z</time>
      </trkpt>
      <trkpt lat="44.52723" lon="4.26408">
        <ele>358</ele>
        <time>2016-05-15T08:04:39.000Z</time>
      </trkpt>
      <trkpt lat="44.52721" lon="4.26409">
        <ele>358</ele>
        <time>2016-05-15T08:04:40.000Z</time>
      </trkpt>
      <trkpt lat="44.52718" lon="4.2641">
        <ele>358</ele>
        <time>2016-05-15T08:04:41.000Z</time>
      </trkpt>
      <trkpt lat="44.52715" lon="4.26411">
        <ele>357</ele>
        <time>2016-05-15T08:04:42.000Z</time>
      </trkpt>
      <trkpt lat="44.52713" lon="4.26413">
        <ele>357</ele>
        <time>2016-05-15T08:04:43.000Z</time>
      </trkpt>
      <trkpt lat="44.52711" lon="4.26416">
        <ele>357</ele>
        <time>2016-05-15T08:04:44.000Z</time>
      </trkpt>
      <trkpt lat="44.52709" lon="4.26419">
        <ele>360</ele>
        <time>2016-05-15T08:04:45.000Z</time>
      </trkpt>
      <trkpt lat="44.52706" lon="4.26419">
        <ele>360</ele>
        <time>2016-05-15T08:04:46.000Z</time>
      </trkpt>
      <trkpt lat="44.52704" lon="4.26419">
        <ele>359</ele>
        <time>2016-05-15T08:04:47.000Z</time>
      </trkpt>
      <trkpt lat="44.52702" lon="4.2642">
        <ele>359</ele>
        <time>2016-05-15T08:04:48.000Z</time>
      </trkpt>
      <trkpt lat="44.527" lon="4.26421">
        <ele>359</ele>
        <time>2016-05-15T08:04:49.000Z</time>
      </trkpt>
      <trkpt lat="44.52698" lon="4.26423">
        <ele>358</ele>
        <time>2016-05-15T08:04:50.000Z</time>
      </trkpt>
      <trkpt lat="44.52697" lon="4.26425">
        <ele>358</ele>
        <time>2016-05-15T08:04:51.000Z</time>
      </trkpt>
      <trkpt lat="44.52695" lon="4.26428">
        <ele>358</ele>
        <time>2016-05-15T08:04:52.000Z</time>
      </trkpt>
      <trkpt lat="44.52693" lon="4.26429">
        <ele>358</ele>
        <time>2016-05-15T08:04:53.000Z</time>
      </trkpt>
      <trkpt lat="44.5269" lon="4.26431">
        <ele>357</ele>
        <time>2016-05-15T08:04:54.000Z</time>
      </trkpt>
      <trkpt lat="44.52687" lon="4.26432">
        <ele>357</ele>
        <time>2016-05-15T08:04:55.000Z</time>
      </trkpt>
      <trkpt lat="44.52686" lon="4.26434">
        <ele>357</ele>
        <time>2016-05-15T08:04:56.000Z</time>
      </trkpt>
      <trkpt lat="44.52684" lon="4.26436">
        <ele>357</ele>
        <time>2016-05-15T08:04:57.000Z</time>
      </trkpt>
      <trkpt lat="44.52682" lon="4.26437">
        <ele>357</ele>
        <time>2016-05-15T08:04:58.000Z</time>
      </trkpt>
      <trkpt lat="44.52679" lon="4.26439">
        <ele>357</ele>
        <time>2016-05-15T08:04:59.000Z</time>
      </trkpt>
      <trkpt lat="44.52677" lon="4.26441">
        <ele>357</ele>
        <time>2016-05-15T08:05:00.000Z</time>
      </trkpt>
      <trkpt lat="44.52675" lon="4.26442">
        <ele>357</ele>
        <time>2016-05-15T08:05:01.000Z</time>
      </trkpt>
      <trkpt lat="44.52673" lon="4.26443">
        <ele>357</ele>
        <time>2016-05-15T08:05:02.000Z</time>
      </trkpt>
      <trkpt lat="44.52671" lon="4.26445">
        <ele>357</ele>
        <time>2016-05-15T08:05:03.000Z</time>
      </trkpt>
      <trkpt lat="44.52667" lon="4.26448">
        <ele>357</ele>
        <time>2016-05-15T08:05:04.000Z</time>
      </trkpt>
      <trkpt lat="44.52665" lon="4.26451">
        <ele>348</ele>
        <time>2016-05-15T08:05:05.000Z</time>
      </trkpt>
      <trkpt lat="44.52662" lon="4.26453">
        <ele>348</ele>
        <time>2016-05-15T08:05:06.000Z</time>
      </trkpt>
      <trkpt lat="44.5266" lon="4.26455">
        <ele>348</ele>
        <time>2016-05-15T08:05:07.000Z</time>
      </trkpt>
      <trkpt lat="44.52658" lon="4.26458">
        <ele>348</ele>
        <time>2016-05-15T08:05:08.000Z</time>
      </trkpt>
      <trkpt lat="44.52656" lon="4.26461">
        <ele>348</ele>
        <time>2016-05-15T08:05:09.000Z</time>
      </trkpt>
      <trkpt lat="44.52654" lon="4.26464">
        <ele>348</ele>
        <time>2016-05-15T08:05:10.000Z</time>
      </trkpt>
      <trkpt lat="44.52652" lon="4.26468">
        <ele>349</ele>
        <time>2016-05-15T08:05:11.000Z</time>
      </trkpt>
      <trkpt lat="44.52649" lon="4.26472">
        <ele>349</ele>
        <time>2016-05-15T08:05:12.000Z</time>
      </trkpt>
      <trkpt lat="44.52646" lon="4.26474">
        <ele>349</ele>
        <time>2016-05-15T08:05:13.000Z</time>
      </trkpt>
      <trkpt lat="44.52644" lon="4.26476">
        <ele>349</ele>
        <time>2016-05-15T08:05:14.000Z</time>
      </trkpt>
      <trkpt lat="44.52642" lon="4.26478">
        <ele>349</ele>
        <time>2016-05-15T08:05:15.000Z</time>
      </trkpt>
      <trkpt lat="44.5264" lon="4.2648">
        <ele>349</ele>
        <time>2016-05-15T08:05:16.000Z</time>
      </trkpt>
      <trkpt lat="44.52639" lon="4.26483">
        <ele>349</ele>
        <time>2016-05-15T08:05:17.000Z</time>
      </trkpt>
      <trkpt lat="44.52639" lon="4.26486">
        <ele>349</ele>
        <time>2016-05-15T08:05:18.000Z</time>
      </trkpt>
      <trkpt lat="44.52639" lon="4.26488">
        <ele>349</ele>
        <time>2016-05-15T08:05:19.000Z</time>
      </trkpt>
      <trkpt lat="44.52638" lon="4.26488">
        <ele>349</ele>
        <time>2016-05-15T08:05:20.000Z</time>
      </trkpt>
      <trkpt lat="44.52638" lon="4.26488">
        <ele>349</ele>
        <time>2016-05-15T08:05:21.000Z</time>
      </trkpt>
      <trkpt lat="44.52638" lon="4.26489">
        <ele>349</ele>
        <time>2016-05-15T08:05:22.000Z</time>
      </trkpt>
      <trkpt lat="44.52638" lon="4.26489">
        <ele>349</ele>
        <time>2016-05-15T08:05:23.000Z</time>
      </trkpt>
      <trkpt lat="44.52638" lon="4.26491">
        <ele>349</ele>
        <time>2016-05-15T08:05:24.000Z</time>
      </trkpt>
      <trkpt lat="44.52638" lon="4.26491">
        <ele>349</ele>
        <time>2016-05-15T08:05:25.000Z</time>
      </trkpt>
      <trkpt lat="44.52638" lon="4.26491">
        <ele>349</ele>
        <time>2016-05-15T08:05:26.000Z</time>
      </trkpt>
      <trkpt lat="44.52639" lon="4.26492">
        <ele>349</ele>
        <time>2016-05-15T08:05:27.000Z</time>
      </trkpt>
      <trkpt lat="44.52639" lon="4.26493">
        <ele>349</ele>
        <time>2016-05-15T08:05:28.000Z</time>
      </trkpt>
      <trkpt lat="44.52639" lon="4.26494">
        <ele>349</ele>
        <time>2016-05-15T08:05:29.000Z</time>
      </trkpt>
      <trkpt lat="44.5264" lon="4.26495">
        <ele>349</ele>
        <time>2016-05-15T08:05:30.000Z</time>
      </trkpt>
      <trkpt lat="44.52639" lon="4.26496">
        <ele>349</ele>
        <time>2016-05-15T08:05:31.000Z</time>
      </trkpt>
      <trkpt lat="44.52639" lon="4.26497">
        <ele>350</ele>
        <time>2016-05-15T08:05:32.000Z</time>
      </trkpt>
      <trkpt lat="44.52639" lon="4.26498">
        <ele>350</ele>
        <time>2016-05-15T08:05:33.000Z</time>
      </trkpt>
      <trkpt lat="44.52639" lon="4.26499">
        <ele>349</ele>
        <time>2016-05-15T08:05:34.000Z</time>
      </trkpt>
      <trkpt lat="44.52638" lon="4.26499">
        <ele>349</ele>
        <time>2016-05-15T08:05:35.000Z</time>
      </trkpt>
      <trkpt lat="44.52637" lon="4.26499">
        <ele>349</ele>
        <time>2016-05-15T08:05:36.000Z</time>
      </trkpt>
      <trkpt lat="44.52637" lon="4.26499">
        <ele>349</ele>
        <time>2016-05-15T08:05:37.000Z</time>
      </trkpt>
      <trkpt lat="44.52636" lon="4.26498">
        <ele>349</ele>
        <time>2016-05-15T08:05:38.000Z</time>
      </trkpt>
      <trkpt lat="44.52635" lon="4.26498">
        <ele>349</ele>
        <time>2016-05-15T08:05:39.000Z</time>
      </trkpt>
      <trkpt lat="44.52635" lon="4.26498">
        <ele>349</ele>
        <time>2016-05-15T08:05:40.000Z</time>
      </trkpt>
      <trkpt lat="44.52634" lon="4.26498">
        <ele>349</ele>
        <time>2016-05-15T08:05:41.000Z</time>
      </trkpt>
      <trkpt lat="44.52632" lon="4.265">
        <ele>348</ele>
        <time>2016-05-15T08:05:42.000Z</time>
      </trkpt>
      <trkpt lat="44.52631" lon="4.26502">
        <ele>352</ele>
        <time>2016-05-15T08:05:43.000Z</time>
      </trkpt>
      <trkpt lat="44.52628" lon="4.26505">
        <ele>352</ele>
        <time>2016-05-15T08:05:44.000Z</time>
      </trkpt>
      <trkpt lat="44.52626" lon="4.26508">
        <ele>351</ele>
        <time>2016-05-15T08:05:45.000Z</time>
      </trkpt>
      <trkpt lat="44.52624" lon="4.26509">
        <ele>351</ele>
        <time>2016-05-15T08:05:46.000Z</time>
      </trkpt>
      <trkpt lat="44.52623" lon="4.26512">
        <ele>351</ele>
        <time>2016-05-15T08:05:47.000Z</time>
      </trkpt>
      <trkpt lat="44.52624" lon="4.26515">
        <ele>351</ele>
        <time>2016-05-15T08:05:48.000Z</time>
      </trkpt>
      <trkpt lat="44.52624" lon="4.26518">
        <ele>351</ele>
        <time>2016-05-15T08:05:49.000Z</time>
      </trkpt>
      <trkpt lat="44.52624" lon="4.2652">
        <ele>351</ele>
        <time>2016-05-15T08:05:50.000Z</time>
      </trkpt>
      <trkpt lat="44.52624" lon="4.26523">
        <ele>352</ele>
        <time>2016-05-15T08:05:51.000Z</time>
      </trkpt>
      <trkpt lat="44.52623" lon="4.26525">
        <ele>352</ele>
        <time>2016-05-15T08:05:52.000Z</time>
      </trkpt>
      <trkpt lat="44.52622" lon="4.26528">
        <ele>352</ele>
        <time>2016-05-15T08:05:53.000Z</time>
      </trkpt>
      <trkpt lat="44.52621" lon="4.26531">
        <ele>351</ele>
        <time>2016-05-15T08:05:54.000Z</time>
      </trkpt>
      <trkpt lat="44.5262" lon="4.26533">
        <ele>351</ele>
        <time>2016-05-15T08:05:55.000Z</time>
      </trkpt>
      <trkpt lat="44.52619" lon="4.26536">
        <ele>351</ele>
        <time>2016-05-15T08:05:56.000Z</time>
      </trkpt>
      <trkpt lat="44.52618" lon="4.26539">
        <ele>351</ele>
        <time>2016-05-15T08:05:57.000Z</time>
      </trkpt>
      <trkpt lat="44.52618" lon="4.26541">
        <ele>352</ele>
        <time>2016-05-15T08:05:58.000Z</time>
      </trkpt>
      <trkpt lat="44.52617" lon="4.26544">
        <ele>352</ele>
        <time>2016-05-15T08:05:59.000Z</time>
      </trkpt>
      <trkpt lat="44.52616" lon="4.26546">
        <ele>351</ele>
        <time>2016-05-15T08:06:00.000Z</time>
      </trkpt>
      <trkpt lat="44.52615" lon="4.26548">
        <ele>351</ele>
        <time>2016-05-15T08:06:01.000Z</time>
      </trkpt>
      <trkpt lat="44.52613" lon="4.26551">
        <ele>351</ele>
        <time>2016-05-15T08:06:02.000Z</time>
      </trkpt>
      <trkpt lat="44.52611" lon="4.26555">
        <ele>351</ele>
        <time>2016-05-15T08:06:03.000Z</time>
      </trkpt>
      <trkpt lat="44.5261" lon="4.26558">
        <ele>351</ele>
        <time>2016-05-15T08:06:04.000Z</time>
      </trkpt>
      <trkpt lat="44.5261" lon="4.26561">
        <ele>351</ele>
        <time>2016-05-15T08:06:05.000Z</time>
      </trkpt>
      <trkpt lat="44.5261" lon="4.26564">
        <ele>351</ele>
        <time>2016-05-15T08:06:06.000Z</time>
      </trkpt>
      <trkpt lat="44.5261" lon="4.26568">
        <ele>351</ele>
        <time>2016-05-15T08:06:07.000Z</time>
      </trkpt>
      <trkpt lat="44.52609" lon="4.26572">
        <ele>351</ele>
        <time>2016-05-15T08:06:08.000Z</time>
      </trkpt>
      <trkpt lat="44.52608" lon="4.26575">
        <ele>351</ele>
        <time>2016-05-15T08:06:09.000Z</time>
      </trkpt>
      <trkpt lat="44.52607" lon="4.26579">
        <ele>350</ele>
        <time>2016-05-15T08:06:10.000Z</time>
      </trkpt>
      <trkpt lat="44.52605" lon="4.26583">
        <ele>350</ele>
        <time>2016-05-15T08:06:11.000Z</time>
      </trkpt>
      <trkpt lat="44.52604" lon="4.26587">
        <ele>352</ele>
        <time>2016-05-15T08:06:12.000Z</time>
      </trkpt>
      <trkpt lat="44.52604" lon="4.2659">
        <ele>352</ele>
        <time>2016-05-15T08:06:13.000Z</time>
      </trkpt>
      <trkpt lat="44.52604" lon="4.26594">
        <ele>353</ele>
        <time>2016-05-15T08:06:14.000Z</time>
      </trkpt>
      <trkpt lat="44.52605" lon="4.26597">
        <ele>353</ele>
        <time>2016-05-15T08:06:15.000Z</time>
      </trkpt>
      <trkpt lat="44.52605" lon="4.266">
        <ele>353</ele>
        <time>2016-05-15T08:06:16.000Z</time>
      </trkpt>
      <trkpt lat="44.52605" lon="4.26604">
        <ele>354</ele>
        <time>2016-05-15T08:06:17.000Z</time>
      </trkpt>
      <trkpt lat="44.52606" lon="4.26607">
        <ele>354</ele>
        <time>2016-05-15T08:06:18.000Z</time>
      </trkpt>
      <trkpt lat="44.52605" lon="4.26609">
        <ele>354</ele>
        <time>2016-05-15T08:06:19.000Z</time>
      </trkpt>
      <trkpt lat="44.52606" lon="4.26611">
        <ele>354</ele>
        <time>2016-05-15T08:06:20.000Z</time>
      </trkpt>
      <trkpt lat="44.52607" lon="4.26612">
        <ele>354</ele>
        <time>2016-05-15T08:06:21.000Z</time>
      </trkpt>
      <trkpt lat="44.52608" lon="4.26613">
        <ele>354</ele>
        <time>2016-05-15T08:06:22.000Z</time>
      </trkpt>
      <trkpt lat="44.52609" lon="4.26613">
        <ele>355</ele>
        <time>2016-05-15T08:06:23.000Z</time>
      </trkpt>
      <trkpt lat="44.5261" lon="4.26612">
        <ele>355</ele>
        <time>2016-05-15T08:06:24.000Z</time>
      </trkpt>
      <trkpt lat="44.52612" lon="4.26613">
        <ele>355</ele>
        <time>2016-05-15T08:06:25.000Z</time>
      </trkpt>
      <trkpt lat="44.52613" lon="4.26613">
        <ele>355</ele>
        <time>2016-05-15T08:06:26.000Z</time>
      </trkpt>
      <trkpt lat="44.52614" lon="4.26614">
        <ele>355</ele>
        <time>2016-05-15T08:06:27.000Z</time>
      </trkpt>
      <trkpt lat="44.52615" lon="4.26614">
        <ele>355</ele>
        <time>2016-05-15T08:06:28.000Z</time>
      </trkpt>
      <trkpt lat="44.52617" lon="4.26614">
        <ele>356</ele>
        <time>2016-05-15T08:06:29.000Z</time>
      </trkpt>
      <trkpt lat="44.52618" lon="4.26614">
        <ele>356</ele>
        <time>2016-05-15T08:06:30.000Z</time>
      </trkpt>
      <trkpt lat="44.52619" lon="4.26612">
        <ele>356</ele>
        <time>2016-05-15T08:06:31.000Z</time>
      </trkpt>
      <trkpt lat="44.5262" lon="4.2661">
        <ele>356</ele>
        <time>2016-05-15T08:06:32.000Z</time>
      </trkpt>
      <trkpt lat="44.52621" lon="4.26608">
        <ele>356</ele>
        <time>2016-05-15T08:06:33.000Z</time>
      </trkpt>
      <trkpt lat="44.52622" lon="4.26606">
        <ele>356</ele>
        <time>2016-05-15T08:06:34.000Z</time>
      </trkpt>
      <trkpt lat="44.52623" lon="4.26604">
        <ele>356</ele>
        <time>2016-05-15T08:06:35.000Z</time>
      </trkpt>
      <trkpt lat="44.52623" lon="4.26603">
        <ele>356</ele>
        <time>2016-05-15T08:06:36.000Z</time>
      </trkpt>
      <trkpt lat="44.52624" lon="4.26602">
        <ele>356</ele>
        <time>2016-05-15T08:06:37.000Z</time>
      </trkpt>
      <trkpt lat="44.52625" lon="4.26602">
        <ele>356</ele>
        <time>2016-05-15T08:06:38.000Z</time>
      </trkpt>
      <trkpt lat="44.52625" lon="4.26603">
        <ele>356</ele>
        <time>2016-05-15T08:06:39.000Z</time>
      </trkpt>
      <trkpt lat="44.52626" lon="4.26605">
        <ele>357</ele>
        <time>2016-05-15T08:06:40.000Z</time>
      </trkpt>
      <trkpt lat="44.52628" lon="4.26607">
        <ele>357</ele>
        <time>2016-05-15T08:06:41.000Z</time>
      </trkpt>
      <trkpt lat="44.52629" lon="4.26608">
        <ele>357</ele>
        <time>2016-05-15T08:06:42.000Z</time>
      </trkpt>
      <trkpt lat="44.5263" lon="4.2661">
        <ele>357</ele>
        <time>2016-05-15T08:06:43.000Z</time>
      </trkpt>
      <trkpt lat="44.52631" lon="4.26611">
        <ele>357</ele>
        <time>2016-05-15T08:06:44.000Z</time>
      </trkpt>
      <trkpt lat="44.52632" lon="4.26612">
        <ele>357</ele>
        <time>2016-05-15T08:06:45.000Z</time>
      </trkpt>
      <trkpt lat="44.52632" lon="4.26615">
        <ele>357</ele>
        <time>2016-05-15T08:06:46.000Z</time>
      </trkpt>
      <trkpt lat="44.52632" lon="4.26617">
        <ele>357</ele>
        <time>2016-05-15T08:06:47.000Z</time>
      </trkpt>
      <trkpt lat="44.52631" lon="4.2662">
        <ele>357</ele>
        <time>2016-05-15T08:06:48.000Z</time>
      </trkpt>
      <trkpt lat="44.52631" lon="4.26622">
        <ele>357</ele>
        <time>2016-05-15T08:06:49.000Z</time>
      </trkpt>
      <trkpt lat="44.52632" lon="4.26624">
        <ele>357</ele>
        <time>2016-05-15T08:06:50.000Z</time>
      </trkpt>
      <trkpt lat="44.52632" lon="4.26627">
        <ele>358</ele>
        <time>2016-05-15T08:06:51.000Z</time>
      </trkpt>
      <trkpt lat="44.52632" lon="4.26629">
        <ele>358</ele>
        <time>2016-05-15T08:06:52.000Z</time>
      </trkpt>
      <trkpt lat="44.52633" lon="4.26631">
        <ele>358</ele>
        <time>2016-05-15T08:06:53.000Z</time>
      </trkpt>
      <trkpt lat="44.52633" lon="4.26633">
        <ele>358</ele>
        <time>2016-05-15T08:06:54.000Z</time>
      </trkpt>
      <trkpt lat="44.52633" lon="4.26635">
        <ele>358</ele>
        <time>2016-05-15T08:06:55.000Z</time>
      </trkpt>
      <trkpt lat="44.52633" lon="4.26637">
        <ele>358</ele>
        <time>2016-05-15T08:06:56.000Z</time>
      </trkpt>
      <trkpt lat="44.52634" lon="4.26639">
        <ele>358</ele>
        <time>2016-05-15T08:06:57.000Z</time>
      </trkpt>
      <trkpt lat="44.52634" lon="4.26642">
        <ele>358</ele>
        <time>2016-05-15T08:06:58.000Z</time>
      </trkpt>
      <trkpt lat="44.52634" lon="4.26644">
        <ele>358</ele>
        <time>2016-05-15T08:06:59.000Z</time>
      </trkpt>
      <trkpt lat="44.52634" lon="4.26647">
        <ele>358</ele>
        <time>2016-05-15T08:07:00.000Z</time>
      </trkpt>
      <trkpt lat="44.52635" lon="4.26649">
        <ele>359</ele>
        <time>2016-05-15T08:07:01.000Z</time>
      </trkpt>
      <trkpt lat="44.52635" lon="4.26652">
        <ele>359</ele>
        <time>2016-05-15T08:07:02.000Z</time>
      </trkpt>
      <trkpt lat="44.52635" lon="4.26654">
        <ele>359</ele>
        <time>2016-05-15T08:07:03.000Z</time>
      </trkpt>
      <trkpt lat="44.52635" lon="4.26656">
        <ele>359</ele>
        <time>2016-05-15T08:07:04.000Z</time>
      </trkpt>
      <trkpt lat="44.52636" lon="4.26658">
        <ele>359</ele>
        <time>2016-05-15T08:07:05.000Z</time>
      </trkpt>
      <trkpt lat="44.52636" lon="4.2666">
        <ele>359</ele>
        <time>2016-05-15T08:07:06.000Z</time>
      </trkpt>
      <trkpt lat="44.52636" lon="4.26662">
        <ele>359</ele>
        <time>2016-05-15T08:07:07.000Z</time>
      </trkpt>
      <trkpt lat="44.52637" lon="4.26665">
        <ele>359</ele>
        <time>2016-05-15T08:07:08.000Z</time>
      </trkpt>
      <trkpt lat="44.52636" lon="4.26667">
        <ele>361</ele>
        <time>2016-05-15T08:07:09.000Z</time>
      </trkpt>
      <trkpt lat="44.52635" lon="4.2667">
        <ele>361</ele>
        <time>2016-05-15T08:07:10.000Z</time>
      </trkpt>
      <trkpt lat="44.52634" lon="4.26672">
        <ele>361</ele>
        <time>2016-05-15T08:07:11.000Z</time>
      </trkpt>
      <trkpt lat="44.52633" lon="4.26675">
        <ele>360</ele>
        <time>2016-05-15T08:07:12.000Z</time>
      </trkpt>
      <trkpt lat="44.52632" lon="4.26677">
        <ele>360</ele>
        <time>2016-05-15T08:07:13.000Z</time>
      </trkpt>
      <trkpt lat="44.5263" lon="4.2668">
        <ele>360</ele>
        <time>2016-05-15T08:07:14.000Z</time>
      </trkpt>
      <trkpt lat="44.52629" lon="4.26682">
        <ele>360</ele>
        <time>2016-05-15T08:07:15.000Z</time>
      </trkpt>
      <trkpt lat="44.52627" lon="4.26685">
        <ele>360</ele>
        <time>2016-05-15T08:07:16.000Z</time>
      </trkpt>
      <trkpt lat="44.52626" lon="4.26687">
        <ele>359</ele>
        <time>2016-05-15T08:07:17.000Z</time>
      </trkpt>
      <trkpt lat="44.52624" lon="4.26689">
        <ele>359</ele>
        <time>2016-05-15T08:07:18.000Z</time>
      </trkpt>
      <trkpt lat="44.52622" lon="4.26692">
        <ele>359</ele>
        <time>2016-05-15T08:07:19.000Z</time>
      </trkpt>
      <trkpt lat="44.5262" lon="4.26695">
        <ele>359</ele>
        <time>2016-05-15T08:07:20.000Z</time>
      </trkpt>
      <trkpt lat="44.52619" lon="4.26698">
        <ele>359</ele>
        <time>2016-05-15T08:07:21.000Z</time>
      </trkpt>
      <trkpt lat="44.52618" lon="4.26701">
        <ele>359</ele>
        <time>2016-05-15T08:07:22.000Z</time>
      </trkpt>
      <trkpt lat="44.52616" lon="4.26703">
        <ele>359</ele>
        <time>2016-05-15T08:07:23.000Z</time>
      </trkpt>
      <trkpt lat="44.52615" lon="4.26705">
        <ele>358</ele>
        <time>2016-05-15T08:07:24.000Z</time>
      </trkpt>
      <trkpt lat="44.52614" lon="4.26708">
        <ele>358</ele>
        <time>2016-05-15T08:07:25.000Z</time>
      </trkpt>
      <trkpt lat="44.52613" lon="4.26712">
        <ele>358</ele>
        <time>2016-05-15T08:07:26.000Z</time>
      </trkpt>
      <trkpt lat="44.52613" lon="4.26716">
        <ele>358</ele>
        <time>2016-05-15T08:07:27.000Z</time>
      </trkpt>
      <trkpt lat="44.52612" lon="4.26719">
        <ele>358</ele>
        <time>2016-05-15T08:07:28.000Z</time>
      </trkpt>
      <trkpt lat="44.52612" lon="4.26722">
        <ele>358</ele>
        <time>2016-05-15T08:07:29.000Z</time>
      </trkpt>
      <trkpt lat="44.52611" lon="4.26725">
        <ele>358</ele>
        <time>2016-05-15T08:07:30.000Z</time>
      </trkpt>
      <trkpt lat="44.52611" lon="4.26728">
        <ele>358</ele>
        <time>2016-05-15T08:07:31.000Z</time>
      </trkpt>
      <trkpt lat="44.5261" lon="4.26731">
        <ele>358</ele>
        <time>2016-05-15T08:07:32.000Z</time>
      </trkpt>
      <trkpt lat="44.5261" lon="4.26734">
        <ele>358</ele>
        <time>2016-05-15T08:07:33.000Z</time>
      </trkpt>
      <trkpt lat="44.5261" lon="4.26737">
        <ele>358</ele>
        <time>2016-05-15T08:07:34.000Z</time>
      </trkpt>
      <trkpt lat="44.52609" lon="4.2674">
        <ele>358</ele>
        <time>2016-05-15T08:07:35.000Z</time>
      </trkpt>
      <trkpt lat="44.52608" lon="4.26742">
        <ele>358</ele>
        <time>2016-05-15T08:07:36.000Z</time>
      </trkpt>
      <trkpt lat="44.52606" lon="4.26744">
        <ele>358</ele>
        <time>2016-05-15T08:07:37.000Z</time>
      </trkpt>
      <trkpt lat="44.52604" lon="4.26745">
        <ele>357</ele>
        <time>2016-05-15T08:07:38.000Z</time>
      </trkpt>
      <trkpt lat="44.52602" lon="4.26747">
        <ele>357</ele>
        <time>2016-05-15T08:07:39.000Z</time>
      </trkpt>
      <trkpt lat="44.52599" lon="4.26749">
        <ele>357</ele>
        <time>2016-05-15T08:07:40.000Z</time>
      </trkpt>
      <trkpt lat="44.52597" lon="4.26752">
        <ele>357</ele>
        <time>2016-05-15T08:07:41.000Z</time>
      </trkpt>
      <trkpt lat="44.52596" lon="4.26756">
        <ele>357</ele>
        <time>2016-05-15T08:07:42.000Z</time>
      </trkpt>
      <trkpt lat="44.52595" lon="4.2676">
        <ele>357</ele>
        <time>2016-05-15T08:07:43.000Z</time>
      </trkpt>
      <trkpt lat="44.52594" lon="4.26763">
        <ele>358</ele>
        <time>2016-05-15T08:07:44.000Z</time>
      </trkpt>
      <trkpt lat="44.52594" lon="4.26767">
        <ele>358</ele>
        <time>2016-05-15T08:07:45.000Z</time>
      </trkpt>
      <trkpt lat="44.52593" lon="4.2677">
        <ele>358</ele>
        <time>2016-05-15T08:07:46.000Z</time>
      </trkpt>
      <trkpt lat="44.52593" lon="4.26774">
        <ele>359</ele>
        <time>2016-05-15T08:07:47.000Z</time>
      </trkpt>
      <trkpt lat="44.52592" lon="4.26777">
        <ele>359</ele>
        <time>2016-05-15T08:07:48.000Z</time>
      </trkpt>
      <trkpt lat="44.52591" lon="4.2678">
        <ele>359</ele>
        <time>2016-05-15T08:07:49.000Z</time>
      </trkpt>
      <trkpt lat="44.5259" lon="4.26783">
        <ele>359</ele>
        <time>2016-05-15T08:07:50.000Z</time>
      </trkpt>
      <trkpt lat="44.5259" lon="4.26785">
        <ele>359</ele>
        <time>2016-05-15T08:07:51.000Z</time>
      </trkpt>
      <trkpt lat="44.52588" lon="4.26788">
        <ele>359</ele>
        <time>2016-05-15T08:07:52.000Z</time>
      </trkpt>
      <trkpt lat="44.52586" lon="4.26791">
        <ele>360</ele>
        <time>2016-05-15T08:07:53.000Z</time>
      </trkpt>
      <trkpt lat="44.52584" lon="4.26795">
        <ele>360</ele>
        <time>2016-05-15T08:07:54.000Z</time>
      </trkpt>
      <trkpt lat="44.52582" lon="4.26799">
        <ele>355</ele>
        <time>2016-05-15T08:07:55.000Z</time>
      </trkpt>
      <trkpt lat="44.52579" lon="4.26803">
        <ele>355</ele>
        <time>2016-05-15T08:07:56.000Z</time>
      </trkpt>
      <trkpt lat="44.52575" lon="4.26808">
        <ele>355</ele>
        <time>2016-05-15T08:07:57.000Z</time>
      </trkpt>
      <trkpt lat="44.52572" lon="4.26813">
        <ele>356</ele>
        <time>2016-05-15T08:07:58.000Z</time>
      </trkpt>
      <trkpt lat="44.5257" lon="4.26818">
        <ele>356</ele>
        <time>2016-05-15T08:07:59.000Z</time>
      </trkpt>
      <trkpt lat="44.52567" lon="4.26823">
        <ele>356</ele>
        <time>2016-05-15T08:08:00.000Z</time>
      </trkpt>
      <trkpt lat="44.52565" lon="4.26826">
        <ele>356</ele>
        <time>2016-05-15T08:08:01.000Z</time>
      </trkpt>
      <trkpt lat="44.52561" lon="4.26828">
        <ele>356</ele>
        <time>2016-05-15T08:08:02.000Z</time>
      </trkpt>
      <trkpt lat="44.52559" lon="4.26831">
        <ele>356</ele>
        <time>2016-05-15T08:08:03.000Z</time>
      </trkpt>
      <trkpt lat="44.52559" lon="4.26834">
        <ele>358</ele>
        <time>2016-05-15T08:08:04.000Z</time>
      </trkpt>
      <trkpt lat="44.52561" lon="4.26838">
        <ele>358</ele>
        <time>2016-05-15T08:08:05.000Z</time>
      </trkpt>
      <trkpt lat="44.52563" lon="4.26841">
        <ele>359</ele>
        <time>2016-05-15T08:08:06.000Z</time>
      </trkpt>
      <trkpt lat="44.52565" lon="4.26845">
        <ele>359</ele>
        <time>2016-05-15T08:08:07.000Z</time>
      </trkpt>
      <trkpt lat="44.52565" lon="4.26849">
        <ele>359</ele>
        <time>2016-05-15T08:08:08.000Z</time>
      </trkpt>
      <trkpt lat="44.52564" lon="4.26852">
        <ele>358</ele>
        <time>2016-05-15T08:08:09.000Z</time>
      </trkpt>
      <trkpt lat="44.52563" lon="4.26855">
        <ele>358</ele>
        <time>2016-05-15T08:08:10.000Z</time>
      </trkpt>
      <trkpt lat="44.52561" lon="4.26858">
        <ele>358</ele>
        <time>2016-05-15T08:08:11.000Z</time>
      </trkpt>
      <trkpt lat="44.52559" lon="4.2686">
        <ele>358</ele>
        <time>2016-05-15T08:08:12.000Z</time>
      </trkpt>
      <trkpt lat="44.52556" lon="4.26863">
        <ele>358</ele>
        <time>2016-05-15T08:08:13.000Z</time>
      </trkpt>
      <trkpt lat="44.52552" lon="4.26866">
        <ele>358</ele>
        <time>2016-05-15T08:08:14.000Z</time>
      </trkpt>
      <trkpt lat="44.52547" lon="4.26869">
        <ele>358</ele>
        <time>2016-05-15T08:08:15.000Z</time>
      </trkpt>
      <trkpt lat="44.52543" lon="4.26874">
        <ele>358</ele>
        <time>2016-05-15T08:08:16.000Z</time>
      </trkpt>
      <trkpt lat="44.52538" lon="4.26878">
        <ele>358</ele>
        <time>2016-05-15T08:08:17.000Z</time>
      </trkpt>
      <trkpt lat="44.52533" lon="4.26883">
        <ele>358</ele>
        <time>2016-05-15T08:08:18.000Z</time>
      </trkpt>
      <trkpt lat="44.52528" lon="4.26888">
        <ele>358</ele>
        <time>2016-05-15T08:08:19.000Z</time>
      </trkpt>
      <trkpt lat="44.52523" lon="4.26893">
        <ele>357</ele>
        <time>2016-05-15T08:08:20.000Z</time>
      </trkpt>
      <trkpt lat="44.5252" lon="4.269">
        <ele>357</ele>
        <time>2016-05-15T08:08:21.000Z</time>
      </trkpt>
      <trkpt lat="44.52517" lon="4.26908">
        <ele>357</ele>
        <time>2016-05-15T08:08:22.000Z</time>
      </trkpt>
      <trkpt lat="44.52513" lon="4.26916">
        <ele>357</ele>
        <time>2016-05-15T08:08:23.000Z</time>
      </trkpt>
      <trkpt lat="44.52509" lon="4.26922">
        <ele>356</ele>
        <time>2016-05-15T08:08:24.000Z</time>
      </trkpt>
      <trkpt lat="44.52504" lon="4.26926">
        <ele>356</ele>
        <time>2016-05-15T08:08:25.000Z</time>
      </trkpt>
      <trkpt lat="44.52499" lon="4.26929">
        <ele>355</ele>
        <time>2016-05-15T08:08:26.000Z</time>
      </trkpt>
      <trkpt lat="44.52494" lon="4.26931">
        <ele>354</ele>
        <time>2016-05-15T08:08:27.000Z</time>
      </trkpt>
      <trkpt lat="44.52489" lon="4.26933">
        <ele>354</ele>
        <time>2016-05-15T08:08:28.000Z</time>
      </trkpt>
      <trkpt lat="44.52484" lon="4.26933">
        <ele>354</ele>
        <time>2016-05-15T08:08:29.000Z</time>
      </trkpt>
      <trkpt lat="44.52479" lon="4.26931">
        <ele>353</ele>
        <time>2016-05-15T08:08:30.000Z</time>
      </trkpt>
      <trkpt lat="44.52474" lon="4.2693">
        <ele>353</ele>
        <time>2016-05-15T08:08:31.000Z</time>
      </trkpt>
      <trkpt lat="44.52468" lon="4.26928">
        <ele>353</ele>
        <time>2016-05-15T08:08:32.000Z</time>
      </trkpt>
      <trkpt lat="44.52462" lon="4.26928">
        <ele>352</ele>
        <time>2016-05-15T08:08:33.000Z</time>
      </trkpt>
      <trkpt lat="44.52456" lon="4.2693">
        <ele>352</ele>
        <time>2016-05-15T08:08:34.000Z</time>
      </trkpt>
      <trkpt lat="44.5245" lon="4.26932">
        <ele>351</ele>
        <time>2016-05-15T08:08:35.000Z</time>
      </trkpt>
      <trkpt lat="44.52444" lon="4.26934">
        <ele>351</ele>
        <time>2016-05-15T08:08:36.000Z</time>
      </trkpt>
      <trkpt lat="44.52437" lon="4.26937">
        <ele>351</ele>
        <time>2016-05-15T08:08:37.000Z</time>
      </trkpt>
      <trkpt lat="44.52431" lon="4.26941">
        <ele>351</ele>
        <time>2016-05-15T08:08:38.000Z</time>
      </trkpt>
      <trkpt lat="44.52426" lon="4.26947">
        <ele>350</ele>
        <time>2016-05-15T08:08:39.000Z</time>
      </trkpt>
      <trkpt lat="44.52421" lon="4.26954">
        <ele>350</ele>
        <time>2016-05-15T08:08:40.000Z</time>
      </trkpt>
      <trkpt lat="44.52417" lon="4.26961">
        <ele>344</ele>
        <time>2016-05-15T08:08:41.000Z</time>
      </trkpt>
      <trkpt lat="44.52413" lon="4.26967">
        <ele>344</ele>
        <time>2016-05-15T08:08:42.000Z</time>
      </trkpt>
      <trkpt lat="44.52409" lon="4.26972">
        <ele>344</ele>
        <time>2016-05-15T08:08:43.000Z</time>
      </trkpt>
      <trkpt lat="44.52405" lon="4.26975">
        <ele>344</ele>
        <time>2016-05-15T08:08:44.000Z</time>
      </trkpt>
      <trkpt lat="44.52403" lon="4.26976">
        <ele>344</ele>
        <time>2016-05-15T08:08:45.000Z</time>
      </trkpt>
      <trkpt lat="44.52402" lon="4.26976">
        <ele>344</ele>
        <time>2016-05-15T08:08:46.000Z</time>
      </trkpt>
      <trkpt lat="44.52401" lon="4.26975">
        <ele>344</ele>
        <time>2016-05-15T08:08:47.000Z</time>
      </trkpt>
      <trkpt lat="44.52401" lon="4.26975">
        <ele>344</ele>
        <time>2016-05-15T08:08:48.000Z</time>
      </trkpt>
      <trkpt lat="44.524" lon="4.26974">
        <ele>344</ele>
        <time>2016-05-15T08:08:49.000Z</time>
      </trkpt>
      <trkpt lat="44.52398" lon="4.26972">
        <ele>344</ele>
        <time>2016-05-15T08:08:50.000Z</time>
      </trkpt>
      <trkpt lat="44.52396" lon="4.2697">
        <ele>343</ele>
        <time>2016-05-15T08:08:51.000Z</time>
      </trkpt>
      <trkpt lat="44.52394" lon="4.26968">
        <ele>343</ele>
        <time>2016-05-15T08:08:52.000Z</time>
      </trkpt>
      <trkpt lat="44.52391" lon="4.26966">
        <ele>343</ele>
        <time>2016-05-15T08:08:53.000Z</time>
      </trkpt>
      <trkpt lat="44.52388" lon="4.26964">
        <ele>343</ele>
        <time>2016-05-15T08:08:54.000Z</time>
      </trkpt>
      <trkpt lat="44.52385" lon="4.26963">
        <ele>343</ele>
        <time>2016-05-15T08:08:55.000Z</time>
      </trkpt>
      <trkpt lat="44.52382" lon="4.26961">
        <ele>343</ele>
        <time>2016-05-15T08:08:56.000Z</time>
      </trkpt>
      <trkpt lat="44.5238" lon="4.26958">
        <ele>343</ele>
        <time>2016-05-15T08:08:57.000Z</time>
      </trkpt>
      <trkpt lat="44.52377" lon="4.26955">
        <ele>342</ele>
        <time>2016-05-15T08:08:58.000Z</time>
      </trkpt>
      <trkpt lat="44.52375" lon="4.26952">
        <ele>342</ele>
        <time>2016-05-15T08:08:59.000Z</time>
      </trkpt>
      <trkpt lat="44.52372" lon="4.26948">
        <ele>342</ele>
        <time>2016-05-15T08:09:00.000Z</time>
      </trkpt>
      <trkpt lat="44.52371" lon="4.26944">
        <ele>342</ele>
        <time>2016-05-15T08:09:01.000Z</time>
      </trkpt>
      <trkpt lat="44.5237" lon="4.2694">
        <ele>342</ele>
        <time>2016-05-15T08:09:02.000Z</time>
      </trkpt>
      <trkpt lat="44.52369" lon="4.26936">
        <ele>342</ele>
        <time>2016-05-15T08:09:03.000Z</time>
      </trkpt>
      <trkpt lat="44.52367" lon="4.26933">
        <ele>342</ele>
        <time>2016-05-15T08:09:04.000Z</time>
      </trkpt>
      <trkpt lat="44.52365" lon="4.26929">
        <ele>342</ele>
        <time>2016-05-15T08:09:05.000Z</time>
      </trkpt>
      <trkpt lat="44.52363" lon="4.26924">
        <ele>341</ele>
        <time>2016-05-15T08:09:06.000Z</time>
      </trkpt>
      <trkpt lat="44.52361" lon="4.26919">
        <ele>341</ele>
        <time>2016-05-15T08:09:07.000Z</time>
      </trkpt>
      <trkpt lat="44.52358" lon="4.26914">
        <ele>342</ele>
        <time>2016-05-15T08:09:08.000Z</time>
      </trkpt>
      <trkpt lat="44.52355" lon="4.26909">
        <ele>342</ele>
        <time>2016-05-15T08:09:09.000Z</time>
      </trkpt>
      <trkpt lat="44.52352" lon="4.26903">
        <ele>342</ele>
        <time>2016-05-15T08:09:10.000Z</time>
      </trkpt>
      <trkpt lat="44.52349" lon="4.26899">
        <ele>342</ele>
        <time>2016-05-15T08:09:11.000Z</time>
      </trkpt>
      <trkpt lat="44.52346" lon="4.26895">
        <ele>342</ele>
        <time>2016-05-15T08:09:12.000Z</time>
      </trkpt>
      <trkpt lat="44.52342" lon="4.26891">
        <ele>342</ele>
        <time>2016-05-15T08:09:13.000Z</time>
      </trkpt>
      <trkpt lat="44.52339" lon="4.26887">
        <ele>342</ele>
        <time>2016-05-15T08:09:14.000Z</time>
      </trkpt>
      <trkpt lat="44.52335" lon="4.26884">
        <ele>343</ele>
        <time>2016-05-15T08:09:15.000Z</time>
      </trkpt>
      <trkpt lat="44.52331" lon="4.26879">
        <ele>337</ele>
        <time>2016-05-15T08:09:16.000Z</time>
      </trkpt>
      <trkpt lat="44.52328" lon="4.26875">
        <ele>337</ele>
        <time>2016-05-15T08:09:17.000Z</time>
      </trkpt>
      <trkpt lat="44.52324" lon="4.26871">
        <ele>337</ele>
        <time>2016-05-15T08:09:18.000Z</time>
      </trkpt>
      <trkpt lat="44.5232" lon="4.26867">
        <ele>337</ele>
        <time>2016-05-15T08:09:19.000Z</time>
      </trkpt>
      <trkpt lat="44.52317" lon="4.26864">
        <ele>337</ele>
        <time>2016-05-15T08:09:20.000Z</time>
      </trkpt>
      <trkpt lat="44.52313" lon="4.2686">
        <ele>337</ele>
        <time>2016-05-15T08:09:21.000Z</time>
      </trkpt>
      <trkpt lat="44.5231" lon="4.26855">
        <ele>337</ele>
        <time>2016-05-15T08:09:22.000Z</time>
      </trkpt>
      <trkpt lat="44.52307" lon="4.26851">
        <ele>337</ele>
        <time>2016-05-15T08:09:23.000Z</time>
      </trkpt>
      <trkpt lat="44.52303" lon="4.26847">
        <ele>337</ele>
        <time>2016-05-15T08:09:24.000Z</time>
      </trkpt>
      <trkpt lat="44.523" lon="4.26843">
        <ele>337</ele>
        <time>2016-05-15T08:09:25.000Z</time>
      </trkpt>
      <trkpt lat="44.52296" lon="4.26839">
        <ele>336</ele>
        <time>2016-05-15T08:09:26.000Z</time>
      </trkpt>
      <trkpt lat="44.52293" lon="4.26834">
        <ele>336</ele>
        <time>2016-05-15T08:09:27.000Z</time>
      </trkpt>
      <trkpt lat="44.5229" lon="4.26831">
        <ele>336</ele>
        <time>2016-05-15T08:09:28.000Z</time>
      </trkpt>
      <trkpt lat="44.52288" lon="4.2683">
        <ele>336</ele>
        <time>2016-05-15T08:09:29.000Z</time>
      </trkpt>
      <trkpt lat="44.52286" lon="4.26832">
        <ele>336</ele>
        <time>2016-05-15T08:09:30.000Z</time>
      </trkpt>
      <trkpt lat="44.52285" lon="4.26835">
        <ele>336</ele>
        <time>2016-05-15T08:09:31.000Z</time>
      </trkpt>
      <trkpt lat="44.52285" lon="4.26839">
        <ele>336</ele>
        <time>2016-05-15T08:09:32.000Z</time>
      </trkpt>
      <trkpt lat="44.52285" lon="4.26846">
        <ele>335</ele>
        <time>2016-05-15T08:09:33.000Z</time>
      </trkpt>
      <trkpt lat="44.52286" lon="4.26852">
        <ele>335</ele>
        <time>2016-05-15T08:09:34.000Z</time>
      </trkpt>
      <trkpt lat="44.52287" lon="4.26858">
        <ele>335</ele>
        <time>2016-05-15T08:09:35.000Z</time>
      </trkpt>
      <trkpt lat="44.52287" lon="4.26865">
        <ele>335</ele>
        <time>2016-05-15T08:09:36.000Z</time>
      </trkpt>
      <trkpt lat="44.52286" lon="4.26871">
        <ele>335</ele>
        <time>2016-05-15T08:09:37.000Z</time>
      </trkpt>
      <trkpt lat="44.52283" lon="4.26875">
        <ele>335</ele>
        <time>2016-05-15T08:09:38.000Z</time>
      </trkpt>
      <trkpt lat="44.5228" lon="4.26879">
        <ele>335</ele>
        <time>2016-05-15T08:09:39.000Z</time>
      </trkpt>
      <trkpt lat="44.52275" lon="4.26881">
        <ele>334</ele>
        <time>2016-05-15T08:09:40.000Z</time>
      </trkpt>
      <trkpt lat="44.52269" lon="4.26885">
        <ele>334</ele>
        <time>2016-05-15T08:09:41.000Z</time>
      </trkpt>
      <trkpt lat="44.52264" lon="4.26889">
        <ele>333</ele>
        <time>2016-05-15T08:09:42.000Z</time>
      </trkpt>
      <trkpt lat="44.52258" lon="4.26894">
        <ele>333</ele>
        <time>2016-05-15T08:09:43.000Z</time>
      </trkpt>
      <trkpt lat="44.52254" lon="4.26898">
        <ele>332</ele>
        <time>2016-05-15T08:09:44.000Z</time>
      </trkpt>
      <trkpt lat="44.5225" lon="4.269">
        <ele>328</ele>
        <time>2016-05-15T08:09:45.000Z</time>
      </trkpt>
      <trkpt lat="44.52246" lon="4.26901">
        <ele>328</ele>
        <time>2016-05-15T08:09:46.000Z</time>
      </trkpt>
      <trkpt lat="44.52243" lon="4.26903">
        <ele>328</ele>
        <time>2016-05-15T08:09:47.000Z</time>
      </trkpt>
      <trkpt lat="44.52239" lon="4.26905">
        <ele>328</ele>
        <time>2016-05-15T08:09:48.000Z</time>
      </trkpt>
      <trkpt lat="44.52236" lon="4.26904">
        <ele>328</ele>
        <time>2016-05-15T08:09:49.000Z</time>
      </trkpt>
      <trkpt lat="44.52232" lon="4.26903">
        <ele>328</ele>
        <time>2016-05-15T08:09:50.000Z</time>
      </trkpt>
      <trkpt lat="44.52228" lon="4.26904">
        <ele>328</ele>
        <time>2016-05-15T08:09:51.000Z</time>
      </trkpt>
      <trkpt lat="44.52225" lon="4.26903">
        <ele>328</ele>
        <time>2016-05-15T08:09:52.000Z</time>
      </trkpt>
      <trkpt lat="44.52223" lon="4.269">
        <ele>328</ele>
        <time>2016-05-15T08:09:53.000Z</time>
      </trkpt>
      <trkpt lat="44.5222" lon="4.26898">
        <ele>328</ele>
        <time>2016-05-15T08:09:54.000Z</time>
      </trkpt>
      <trkpt lat="44.52216" lon="4.26897">
        <ele>327</ele>
        <time>2016-05-15T08:09:55.000Z</time>
      </trkpt>
      <trkpt lat="44.52212" lon="4.26898">
        <ele>327</ele>
        <time>2016-05-15T08:09:56.000Z</time>
      </trkpt>
      <trkpt lat="44.52207" lon="4.26901">
        <ele>327</ele>
        <time>2016-05-15T08:09:57.000Z</time>
      </trkpt>
      <trkpt lat="44.52203" lon="4.26905">
        <ele>327</ele>
        <time>2016-05-15T08:09:58.000Z</time>
      </trkpt>
      <trkpt lat="44.52198" lon="4.26911">
        <ele>326</ele>
        <time>2016-05-15T08:09:59.000Z</time>
      </trkpt>
      <trkpt lat="44.52195" lon="4.26917">
        <ele>324</ele>
        <time>2016-05-15T08:10:00.000Z</time>
      </trkpt>
      <trkpt lat="44.52191" lon="4.26921">
        <ele>324</ele>
        <time>2016-05-15T08:10:01.000Z</time>
      </trkpt>
      <trkpt lat="44.52187" lon="4.26925">
        <ele>324</ele>
        <time>2016-05-15T08:10:02.000Z</time>
      </trkpt>
      <trkpt lat="44.52183" lon="4.26929">
        <ele>323</ele>
        <time>2016-05-15T08:10:03.000Z</time>
      </trkpt>
      <trkpt lat="44.5218" lon="4.2693">
        <ele>323</ele>
        <time>2016-05-15T08:10:04.000Z</time>
      </trkpt>
      <trkpt lat="44.52176" lon="4.26932">
        <ele>323</ele>
        <time>2016-05-15T08:10:05.000Z</time>
      </trkpt>
      <trkpt lat="44.52172" lon="4.26937">
        <ele>323</ele>
        <time>2016-05-15T08:10:06.000Z</time>
      </trkpt>
      <trkpt lat="44.52168" lon="4.26943">
        <ele>323</ele>
        <time>2016-05-15T08:10:07.000Z</time>
      </trkpt>
      <trkpt lat="44.52163" lon="4.26948">
        <ele>318</ele>
        <time>2016-05-15T08:10:08.000Z</time>
      </trkpt>
      <trkpt lat="44.52158" lon="4.26951">
        <ele>318</ele>
        <time>2016-05-15T08:10:09.000Z</time>
      </trkpt>
      <trkpt lat="44.52153" lon="4.26952">
        <ele>318</ele>
        <time>2016-05-15T08:10:10.000Z</time>
      </trkpt>
      <trkpt lat="44.52149" lon="4.26956">
        <ele>318</ele>
        <time>2016-05-15T08:10:11.000Z</time>
      </trkpt>
      <trkpt lat="44.52146" lon="4.2696">
        <ele>317</ele>
        <time>2016-05-15T08:10:12.000Z</time>
      </trkpt>
      <trkpt lat="44.52144" lon="4.26964">
        <ele>317</ele>
        <time>2016-05-15T08:10:13.000Z</time>
      </trkpt>
      <trkpt lat="44.52142" lon="4.26968">
        <ele>317</ele>
        <time>2016-05-15T08:10:14.000Z</time>
      </trkpt>
      <trkpt lat="44.5214" lon="4.26972">
        <ele>317</ele>
        <time>2016-05-15T08:10:15.000Z</time>
      </trkpt>
      <trkpt lat="44.52139" lon="4.26976">
        <ele>317</ele>
        <time>2016-05-15T08:10:16.000Z</time>
      </trkpt>
      <trkpt lat="44.52138" lon="4.26981">
        <ele>317</ele>
        <time>2016-05-15T08:10:17.000Z</time>
      </trkpt>
      <trkpt lat="44.52137" lon="4.26987">
        <ele>317</ele>
        <time>2016-05-15T08:10:18.000Z</time>
      </trkpt>
      <trkpt lat="44.52136" lon="4.26994">
        <ele>317</ele>
        <time>2016-05-15T08:10:19.000Z</time>
      </trkpt>
      <trkpt lat="44.52134" lon="4.26999">
        <ele>316</ele>
        <time>2016-05-15T08:10:20.000Z</time>
      </trkpt>
      <trkpt lat="44.52131" lon="4.27">
        <ele>314</ele>
        <time>2016-05-15T08:10:21.000Z</time>
      </trkpt>
      <trkpt lat="44.52127" lon="4.27">
        <ele>314</ele>
        <time>2016-05-15T08:10:22.000Z</time>
      </trkpt>
      <trkpt lat="44.52123" lon="4.27001">
        <ele>313</ele>
        <time>2016-05-15T08:10:23.000Z</time>
      </trkpt>
      <trkpt lat="44.52118" lon="4.27003">
        <ele>313</ele>
        <time>2016-05-15T08:10:24.000Z</time>
      </trkpt>
      <trkpt lat="44.52114" lon="4.27006">
        <ele>312</ele>
        <time>2016-05-15T08:10:25.000Z</time>
      </trkpt>
      <trkpt lat="44.5211" lon="4.2701">
        <ele>312</ele>
        <time>2016-05-15T08:10:26.000Z</time>
      </trkpt>
      <trkpt lat="44.52105" lon="4.27014">
        <ele>312</ele>
        <time>2016-05-15T08:10:27.000Z</time>
      </trkpt>
      <trkpt lat="44.52102" lon="4.27018">
        <ele>312</ele>
        <time>2016-05-15T08:10:28.000Z</time>
      </trkpt>
      <trkpt lat="44.52098" lon="4.27021">
        <ele>311</ele>
        <time>2016-05-15T08:10:29.000Z</time>
      </trkpt>
      <trkpt lat="44.52095" lon="4.27025">
        <ele>311</ele>
        <time>2016-05-15T08:10:30.000Z</time>
      </trkpt>
      <trkpt lat="44.52091" lon="4.27028">
        <ele>311</ele>
        <time>2016-05-15T08:10:31.000Z</time>
      </trkpt>
      <trkpt lat="44.52088" lon="4.27031">
        <ele>311</ele>
        <time>2016-05-15T08:10:32.000Z</time>
      </trkpt>
      <trkpt lat="44.52084" lon="4.27034">
        <ele>311</ele>
        <time>2016-05-15T08:10:33.000Z</time>
      </trkpt>
      <trkpt lat="44.52081" lon="4.27037">
        <ele>305</ele>
        <time>2016-05-15T08:10:34.000Z</time>
      </trkpt>
      <trkpt lat="44.52078" lon="4.2704">
        <ele>305</ele>
        <time>2016-05-15T08:10:35.000Z</time>
      </trkpt>
      <trkpt lat="44.52074" lon="4.27044">
        <ele>305</ele>
        <time>2016-05-15T08:10:36.000Z</time>
      </trkpt>
      <trkpt lat="44.5207" lon="4.27046">
        <ele>305</ele>
        <time>2016-05-15T08:10:37.000Z</time>
      </trkpt>
      <trkpt lat="44.52066" lon="4.27048">
        <ele>305</ele>
        <time>2016-05-15T08:10:38.000Z</time>
      </trkpt>
      <trkpt lat="44.52061" lon="4.27048">
        <ele>305</ele>
        <time>2016-05-15T08:10:39.000Z</time>
      </trkpt>
      <trkpt lat="44.52056" lon="4.27047">
        <ele>304</ele>
        <time>2016-05-15T08:10:40.000Z</time>
      </trkpt>
      <trkpt lat="44.52051" lon="4.27047">
        <ele>304</ele>
        <time>2016-05-15T08:10:41.000Z</time>
      </trkpt>
      <trkpt lat="44.52046" lon="4.27046">
        <ele>304</ele>
        <time>2016-05-15T08:10:42.000Z</time>
      </trkpt>
      <trkpt lat="44.5204" lon="4.27046">
        <ele>304</ele>
        <time>2016-05-15T08:10:43.000Z</time>
      </trkpt>
      <trkpt lat="44.52034" lon="4.27044">
        <ele>303</ele>
        <time>2016-05-15T08:10:44.000Z</time>
      </trkpt>
      <trkpt lat="44.52028" lon="4.27043">
        <ele>303</ele>
        <time>2016-05-15T08:10:45.000Z</time>
      </trkpt>
      <trkpt lat="44.52022" lon="4.27043">
        <ele>303</ele>
        <time>2016-05-15T08:10:46.000Z</time>
      </trkpt>
      <trkpt lat="44.52016" lon="4.27045">
        <ele>303</ele>
        <time>2016-05-15T08:10:47.000Z</time>
      </trkpt>
      <trkpt lat="44.52011" lon="4.27048">
        <ele>302</ele>
        <time>2016-05-15T08:10:48.000Z</time>
      </trkpt>
      <trkpt lat="44.52009" lon="4.27053">
        <ele>302</ele>
        <time>2016-05-15T08:10:49.000Z</time>
      </trkpt>
      <trkpt lat="44.52006" lon="4.27057">
        <ele>302</ele>
        <time>2016-05-15T08:10:50.000Z</time>
      </trkpt>
      <trkpt lat="44.52004" lon="4.27058">
        <ele>302</ele>
        <time>2016-05-15T08:10:51.000Z</time>
      </trkpt>
      <trkpt lat="44.52001" lon="4.2706">
        <ele>302</ele>
        <time>2016-05-15T08:10:52.000Z</time>
      </trkpt>
      <trkpt lat="44.51998" lon="4.27063">
        <ele>298</ele>
        <time>2016-05-15T08:10:53.000Z</time>
      </trkpt>
      <trkpt lat="44.51994" lon="4.27067">
        <ele>298</ele>
        <time>2016-05-15T08:10:54.000Z</time>
      </trkpt>
      <trkpt lat="44.5199" lon="4.27069">
        <ele>298</ele>
        <time>2016-05-15T08:10:55.000Z</time>
      </trkpt>
      <trkpt lat="44.51986" lon="4.27073">
        <ele>298</ele>
        <time>2016-05-15T08:10:56.000Z</time>
      </trkpt>
      <trkpt lat="44.51982" lon="4.27076">
        <ele>298</ele>
        <time>2016-05-15T08:10:57.000Z</time>
      </trkpt>
      <trkpt lat="44.51978" lon="4.27081">
        <ele>297</ele>
        <time>2016-05-15T08:10:58.000Z</time>
      </trkpt>
      <trkpt lat="44.51976" lon="4.27086">
        <ele>298</ele>
        <time>2016-05-15T08:10:59.000Z</time>
      </trkpt>
      <trkpt lat="44.51974" lon="4.27091">
        <ele>298</ele>
        <time>2016-05-15T08:11:00.000Z</time>
      </trkpt>
      <trkpt lat="44.51973" lon="4.27097">
        <ele>298</ele>
        <time>2016-05-15T08:11:01.000Z</time>
      </trkpt>
      <trkpt lat="44.51972" lon="4.27103">
        <ele>298</ele>
        <time>2016-05-15T08:11:02.000Z</time>
      </trkpt>
      <trkpt lat="44.51972" lon="4.27108">
        <ele>298</ele>
        <time>2016-05-15T08:11:03.000Z</time>
      </trkpt>
      <trkpt lat="44.51972" lon="4.27113">
        <ele>298</ele>
        <time>2016-05-15T08:11:04.000Z</time>
      </trkpt>
      <trkpt lat="44.51972" lon="4.27119">
        <ele>298</ele>
        <time>2016-05-15T08:11:05.000Z</time>
      </trkpt>
      <trkpt lat="44.51972" lon="4.27124">
        <ele>298</ele>
        <time>2016-05-15T08:11:06.000Z</time>
      </trkpt>
      <trkpt lat="44.51973" lon="4.27127">
        <ele>298</ele>
        <time>2016-05-15T08:11:07.000Z</time>
      </trkpt>
      <trkpt lat="44.51972" lon="4.27132">
        <ele>298</ele>
        <time>2016-05-15T08:11:08.000Z</time>
      </trkpt>
      <trkpt lat="44.51972" lon="4.27136">
        <ele>298</ele>
        <time>2016-05-15T08:11:09.000Z</time>
      </trkpt>
      <trkpt lat="44.5197" lon="4.27139">
        <ele>298</ele>
        <time>2016-05-15T08:11:10.000Z</time>
      </trkpt>
      <trkpt lat="44.51968" lon="4.27141">
        <ele>298</ele>
        <time>2016-05-15T08:11:11.000Z</time>
      </trkpt>
      <trkpt lat="44.51966" lon="4.27144">
        <ele>298</ele>
        <time>2016-05-15T08:11:12.000Z</time>
      </trkpt>
      <trkpt lat="44.51965" lon="4.27148">
        <ele>298</ele>
        <time>2016-05-15T08:11:13.000Z</time>
      </trkpt>
      <trkpt lat="44.51965" lon="4.27151">
        <ele>298</ele>
        <time>2016-05-15T08:11:14.000Z</time>
      </trkpt>
      <trkpt lat="44.51965" lon="4.27156">
        <ele>298</ele>
        <time>2016-05-15T08:11:15.000Z</time>
      </trkpt>
      <trkpt lat="44.51966" lon="4.2716">
        <ele>298</ele>
        <time>2016-05-15T08:11:16.000Z</time>
      </trkpt>
      <trkpt lat="44.51967" lon="4.27163">
        <ele>298</ele>
        <time>2016-05-15T08:11:17.000Z</time>
      </trkpt>
      <trkpt lat="44.51969" lon="4.27164">
        <ele>298</ele>
        <time>2016-05-15T08:11:18.000Z</time>
      </trkpt>
      <trkpt lat="44.51972" lon="4.27166">
        <ele>299</ele>
        <time>2016-05-15T08:11:19.000Z</time>
      </trkpt>
      <trkpt lat="44.51974" lon="4.27168">
        <ele>299</ele>
        <time>2016-05-15T08:11:20.000Z</time>
      </trkpt>
      <trkpt lat="44.51976" lon="4.27172">
        <ele>300</ele>
        <time>2016-05-15T08:11:21.000Z</time>
      </trkpt>
      <trkpt lat="44.51977" lon="4.27176">
        <ele>300</ele>
        <time>2016-05-15T08:11:22.000Z</time>
      </trkpt>
      <trkpt lat="44.51979" lon="4.27179">
        <ele>300</ele>
        <time>2016-05-15T08:11:23.000Z</time>
      </trkpt>
      <trkpt lat="44.51981" lon="4.27182">
        <ele>300</ele>
        <time>2016-05-15T08:11:24.000Z</time>
      </trkpt>
      <trkpt lat="44.51984" lon="4.27186">
        <ele>300</ele>
        <time>2016-05-15T08:11:25.000Z</time>
      </trkpt>
      <trkpt lat="44.51986" lon="4.27189">
        <ele>300</ele>
        <time>2016-05-15T08:11:26.000Z</time>
      </trkpt>
      <trkpt lat="44.51988" lon="4.27193">
        <ele>300</ele>
        <time>2016-05-15T08:11:27.000Z</time>
      </trkpt>
      <trkpt lat="44.51991" lon="4.27196">
        <ele>300</ele>
        <time>2016-05-15T08:11:28.000Z</time>
      </trkpt>
      <trkpt lat="44.51993" lon="4.27199">
        <ele>300</ele>
        <time>2016-05-15T08:11:29.000Z</time>
      </trkpt>
      <trkpt lat="44.51996" lon="4.27203">
        <ele>300</ele>
        <time>2016-05-15T08:11:30.000Z</time>
      </trkpt>
      <trkpt lat="44.51998" lon="4.27207">
        <ele>300</ele>
        <time>2016-05-15T08:11:31.000Z</time>
      </trkpt>
      <trkpt lat="44.52" lon="4.27211">
        <ele>303</ele>
        <time>2016-05-15T08:11:32.000Z</time>
      </trkpt>
      <trkpt lat="44.52003" lon="4.27214">
        <ele>303</ele>
        <time>2016-05-15T08:11:33.000Z</time>
      </trkpt>
      <trkpt lat="44.52005" lon="4.27217">
        <ele>303</ele>
        <time>2016-05-15T08:11:34.000Z</time>
      </trkpt>
      <trkpt lat="44.52008" lon="4.27219">
        <ele>303</ele>
        <time>2016-05-15T08:11:35.000Z</time>
      </trkpt>
      <trkpt lat="44.5201" lon="4.27222">
        <ele>303</ele>
        <time>2016-05-15T08:11:36.000Z</time>
      </trkpt>
      <trkpt lat="44.52013" lon="4.27226">
        <ele>303</ele>
        <time>2016-05-15T08:11:37.000Z</time>
      </trkpt>
      <trkpt lat="44.52015" lon="4.27231">
        <ele>303</ele>
        <time>2016-05-15T08:11:38.000Z</time>
      </trkpt>
      <trkpt lat="44.52016" lon="4.27237">
        <ele>303</ele>
        <time>2016-05-15T08:11:39.000Z</time>
      </trkpt>
      <trkpt lat="44.52018" lon="4.27241">
        <ele>303</ele>
        <time>2016-05-15T08:11:40.000Z</time>
      </trkpt>
      <trkpt lat="44.52021" lon="4.27244">
        <ele>303</ele>
        <time>2016-05-15T08:11:41.000Z</time>
      </trkpt>
      <trkpt lat="44.52024" lon="4.27247">
        <ele>303</ele>
        <time>2016-05-15T08:11:42.000Z</time>
      </trkpt>
      <trkpt lat="44.52028" lon="4.27251">
        <ele>303</ele>
        <time>2016-05-15T08:11:43.000Z</time>
      </trkpt>
      <trkpt lat="44.52032" lon="4.27254">
        <ele>303</ele>
        <time>2016-05-15T08:11:44.000Z</time>
      </trkpt>
      <trkpt lat="44.52036" lon="4.27257">
        <ele>303</ele>
        <time>2016-05-15T08:11:45.000Z</time>
      </trkpt>
      <trkpt lat="44.5204" lon="4.2726">
        <ele>303</ele>
        <time>2016-05-15T08:11:46.000Z</time>
      </trkpt>
      <trkpt lat="44.52044" lon="4.27263">
        <ele>303</ele>
        <time>2016-05-15T08:11:47.000Z</time>
      </trkpt>
      <trkpt lat="44.52048" lon="4.27266">
        <ele>303</ele>
        <time>2016-05-15T08:11:48.000Z</time>
      </trkpt>
      <trkpt lat="44.52052" lon="4.2727">
        <ele>303</ele>
        <time>2016-05-15T08:11:49.000Z</time>
      </trkpt>
      <trkpt lat="44.52055" lon="4.27274">
        <ele>303</ele>
        <time>2016-05-15T08:11:50.000Z</time>
      </trkpt>
      <trkpt lat="44.52059" lon="4.27277">
        <ele>303</ele>
        <time>2016-05-15T08:11:51.000Z</time>
      </trkpt>
      <trkpt lat="44.52062" lon="4.2728">
        <ele>303</ele>
        <time>2016-05-15T08:11:52.000Z</time>
      </trkpt>
      <trkpt lat="44.52066" lon="4.27283">
        <ele>303</ele>
        <time>2016-05-15T08:11:53.000Z</time>
      </trkpt>
      <trkpt lat="44.52069" lon="4.27286">
        <ele>303</ele>
        <time>2016-05-15T08:11:54.000Z</time>
      </trkpt>
      <trkpt lat="44.52072" lon="4.2729">
        <ele>303</ele>
        <time>2016-05-15T08:11:55.000Z</time>
      </trkpt>
      <trkpt lat="44.52074" lon="4.27293">
        <ele>303</ele>
        <time>2016-05-15T08:11:56.000Z</time>
      </trkpt>
      <trkpt lat="44.52077" lon="4.27296">
        <ele>302</ele>
        <time>2016-05-15T08:11:57.000Z</time>
      </trkpt>
      <trkpt lat="44.52079" lon="4.27299">
        <ele>302</ele>
        <time>2016-05-15T08:11:58.000Z</time>
      </trkpt>
      <trkpt lat="44.52082" lon="4.27302">
        <ele>302</ele>
        <time>2016-05-15T08:11:59.000Z</time>
      </trkpt>
      <trkpt lat="44.52084" lon="4.27305">
        <ele>302</ele>
        <time>2016-05-15T08:12:00.000Z</time>
      </trkpt>
      <trkpt lat="44.52086" lon="4.27307">
        <ele>302</ele>
        <time>2016-05-15T08:12:01.000Z</time>
      </trkpt>
      <trkpt lat="44.52088" lon="4.27308">
        <ele>302</ele>
        <time>2016-05-15T08:12:02.000Z</time>
      </trkpt>
      <trkpt lat="44.5209" lon="4.27309">
        <ele>302</ele>
        <time>2016-05-15T08:12:03.000Z</time>
      </trkpt>
      <trkpt lat="44.52092" lon="4.27309">
        <ele>302</ele>
        <time>2016-05-15T08:12:04.000Z</time>
      </trkpt>
      <trkpt lat="44.52094" lon="4.2731">
        <ele>302</ele>
        <time>2016-05-15T08:12:05.000Z</time>
      </trkpt>
      <trkpt lat="44.52095" lon="4.27311">
        <ele>302</ele>
        <time>2016-05-15T08:12:06.000Z</time>
      </trkpt>
      <trkpt lat="44.52097" lon="4.27311">
        <ele>302</ele>
        <time>2016-05-15T08:12:07.000Z</time>
      </trkpt>
      <trkpt lat="44.52099" lon="4.27311">
        <ele>302</ele>
        <time>2016-05-15T08:12:08.000Z</time>
      </trkpt>
      <trkpt lat="44.52101" lon="4.27311">
        <ele>302</ele>
        <time>2016-05-15T08:12:09.000Z</time>
      </trkpt>
      <trkpt lat="44.52103" lon="4.27311">
        <ele>302</ele>
        <time>2016-05-15T08:12:10.000Z</time>
      </trkpt>
      <trkpt lat="44.52105" lon="4.27312">
        <ele>302</ele>
        <time>2016-05-15T08:12:11.000Z</time>
      </trkpt>
      <trkpt lat="44.52108" lon="4.27314">
        <ele>302</ele>
        <time>2016-05-15T08:12:12.000Z</time>
      </trkpt>
      <trkpt lat="44.52111" lon="4.27315">
        <ele>302</ele>
        <time>2016-05-15T08:12:13.000Z</time>
      </trkpt>
      <trkpt lat="44.52114" lon="4.27317">
        <ele>302</ele>
        <time>2016-05-15T08:12:14.000Z</time>
      </trkpt>
      <trkpt lat="44.52117" lon="4.27319">
        <ele>302</ele>
        <time>2016-05-15T08:12:15.000Z</time>
      </trkpt>
      <trkpt lat="44.5212" lon="4.27321">
        <ele>302</ele>
        <time>2016-05-15T08:12:16.000Z</time>
      </trkpt>
      <trkpt lat="44.52123" lon="4.27324">
        <ele>302</ele>
        <time>2016-05-15T08:12:17.000Z</time>
      </trkpt>
      <trkpt lat="44.52127" lon="4.27326">
        <ele>302</ele>
        <time>2016-05-15T08:12:18.000Z</time>
      </trkpt>
      <trkpt lat="44.5213" lon="4.2733">
        <ele>302</ele>
        <time>2016-05-15T08:12:19.000Z</time>
      </trkpt>
      <trkpt lat="44.52134" lon="4.27333">
        <ele>302</ele>
        <time>2016-05-15T08:12:20.000Z</time>
      </trkpt>
      <trkpt lat="44.52138" lon="4.27336">
        <ele>302</ele>
        <time>2016-05-15T08:12:21.000Z</time>
      </trkpt>
      <trkpt lat="44.52142" lon="4.2734">
        <ele>302</ele>
        <time>2016-05-15T08:12:22.000Z</time>
      </trkpt>
      <trkpt lat="44.52147" lon="4.27344">
        <ele>302</ele>
        <time>2016-05-15T08:12:23.000Z</time>
      </trkpt>
      <trkpt lat="44.52151" lon="4.27348">
        <ele>302</ele>
        <time>2016-05-15T08:12:24.000Z</time>
      </trkpt>
      <trkpt lat="44.52156" lon="4.27351">
        <ele>302</ele>
        <time>2016-05-15T08:12:25.000Z</time>
      </trkpt>
      <trkpt lat="44.52161" lon="4.27355">
        <ele>302</ele>
        <time>2016-05-15T08:12:26.000Z</time>
      </trkpt>
      <trkpt lat="44.52166" lon="4.27359">
        <ele>302</ele>
        <time>2016-05-15T08:12:27.000Z</time>
      </trkpt>
      <trkpt lat="44.52171" lon="4.27363">
        <ele>302</ele>
        <time>2016-05-15T08:12:28.000Z</time>
      </trkpt>
      <trkpt lat="44.52175" lon="4.27366">
        <ele>302</ele>
        <time>2016-05-15T08:12:29.000Z</time>
      </trkpt>
      <trkpt lat="44.5218" lon="4.2737">
        <ele>302</ele>
        <time>2016-05-15T08:12:30.000Z</time>
      </trkpt>
      <trkpt lat="44.52185" lon="4.27374">
        <ele>302</ele>
        <time>2016-05-15T08:12:31.000Z</time>
      </trkpt>
      <trkpt lat="44.52191" lon="4.27378">
        <ele>302</ele>
        <time>2016-05-15T08:12:32.000Z</time>
      </trkpt>
      <trkpt lat="44.52196" lon="4.27384">
        <ele>303</ele>
        <time>2016-05-15T08:12:33.000Z</time>
      </trkpt>
      <trkpt lat="44.522" lon="4.27392">
        <ele>303</ele>
        <time>2016-05-15T08:12:34.000Z</time>
      </trkpt>
      <trkpt lat="44.52205" lon="4.274">
        <ele>303</ele>
        <time>2016-05-15T08:12:35.000Z</time>
      </trkpt>
      <trkpt lat="44.52209" lon="4.27408">
        <ele>303</ele>
        <time>2016-05-15T08:12:36.000Z</time>
      </trkpt>
      <trkpt lat="44.52213" lon="4.27416">
        <ele>303</ele>
        <time>2016-05-15T08:12:37.000Z</time>
      </trkpt>
      <trkpt lat="44.52217" lon="4.27423">
        <ele>300</ele>
        <time>2016-05-15T08:12:38.000Z</time>
      </trkpt>
      <trkpt lat="44.52221" lon="4.27433">
        <ele>300</ele>
        <time>2016-05-15T08:12:39.000Z</time>
      </trkpt>
      <trkpt lat="44.52225" lon="4.27441">
        <ele>300</ele>
        <time>2016-05-15T08:12:40.000Z</time>
      </trkpt>
      <trkpt lat="44.52229" lon="4.2745">
        <ele>300</ele>
        <time>2016-05-15T08:12:41.000Z</time>
      </trkpt>
      <trkpt lat="44.52232" lon="4.27458">
        <ele>299</ele>
        <time>2016-05-15T08:12:42.000Z</time>
      </trkpt>
      <trkpt lat="44.52235" lon="4.27466">
        <ele>299</ele>
        <time>2016-05-15T08:12:43.000Z</time>
      </trkpt>
      <trkpt lat="44.52237" lon="4.27475">
        <ele>298</ele>
        <time>2016-05-15T08:12:44.000Z</time>
      </trkpt>
      <trkpt lat="44.5224" lon="4.27482">
        <ele>298</ele>
        <time>2016-05-15T08:12:45.000Z</time>
      </trkpt>
      <trkpt lat="44.52243" lon="4.2749">
        <ele>297</ele>
        <time>2016-05-15T08:12:46.000Z</time>
      </trkpt>
      <trkpt lat="44.52246" lon="4.27496">
        <ele>297</ele>
        <time>2016-05-15T08:12:47.000Z</time>
      </trkpt>
      <trkpt lat="44.52248" lon="4.27503">
        <ele>295</ele>
        <time>2016-05-15T08:12:48.000Z</time>
      </trkpt>
      <trkpt lat="44.52249" lon="4.27509">
        <ele>295</ele>
        <time>2016-05-15T08:12:49.000Z</time>
      </trkpt>
      <trkpt lat="44.5225" lon="4.27514">
        <ele>296</ele>
        <time>2016-05-15T08:12:50.000Z</time>
      </trkpt>
      <trkpt lat="44.52253" lon="4.27518">
        <ele>296</ele>
        <time>2016-05-15T08:12:51.000Z</time>
      </trkpt>
      <trkpt lat="44.52255" lon="4.2752">
        <ele>296</ele>
        <time>2016-05-15T08:12:52.000Z</time>
      </trkpt>
      <trkpt lat="44.52257" lon="4.27522">
        <ele>296</ele>
        <time>2016-05-15T08:12:53.000Z</time>
      </trkpt>
      <trkpt lat="44.5226" lon="4.27522">
        <ele>296</ele>
        <time>2016-05-15T08:12:54.000Z</time>
      </trkpt>
      <trkpt lat="44.52263" lon="4.27521">
        <ele>296</ele>
        <time>2016-05-15T08:12:55.000Z</time>
      </trkpt>
      <trkpt lat="44.52267" lon="4.2752">
        <ele>296</ele>
        <time>2016-05-15T08:12:56.000Z</time>
      </trkpt>
      <trkpt lat="44.52272" lon="4.2752">
        <ele>296</ele>
        <time>2016-05-15T08:12:57.000Z</time>
      </trkpt>
      <trkpt lat="44.52276" lon="4.27521">
        <ele>296</ele>
        <time>2016-05-15T08:12:58.000Z</time>
      </trkpt>
      <trkpt lat="44.52281" lon="4.27522">
        <ele>296</ele>
        <time>2016-05-15T08:12:59.000Z</time>
      </trkpt>
      <trkpt lat="44.52285" lon="4.27524">
        <ele>296</ele>
        <time>2016-05-15T08:13:00.000Z</time>
      </trkpt>
      <trkpt lat="44.52288" lon="4.27527">
        <ele>296</ele>
        <time>2016-05-15T08:13:01.000Z</time>
      </trkpt>
      <trkpt lat="44.52289" lon="4.2753">
        <ele>296</ele>
        <time>2016-05-15T08:13:02.000Z</time>
      </trkpt>
      <trkpt lat="44.5229" lon="4.27534">
        <ele>296</ele>
        <time>2016-05-15T08:13:03.000Z</time>
      </trkpt>
      <trkpt lat="44.52291" lon="4.27536">
        <ele>296</ele>
        <time>2016-05-15T08:13:04.000Z</time>
      </trkpt>
      <trkpt lat="44.52293" lon="4.27539">
        <ele>296</ele>
        <time>2016-05-15T08:13:05.000Z</time>
      </trkpt>
      <trkpt lat="44.52294" lon="4.27542">
        <ele>296</ele>
        <time>2016-05-15T08:13:06.000Z</time>
      </trkpt>
      <trkpt lat="44.52295" lon="4.27544">
        <ele>296</ele>
        <time>2016-05-15T08:13:07.000Z</time>
      </trkpt>
      <trkpt lat="44.52296" lon="4.27546">
        <ele>296</ele>
        <time>2016-05-15T08:13:08.000Z</time>
      </trkpt>
      <trkpt lat="44.52297" lon="4.27548">
        <ele>296</ele>
        <time>2016-05-15T08:13:09.000Z</time>
      </trkpt>
      <trkpt lat="44.52298" lon="4.2755">
        <ele>296</ele>
        <time>2016-05-15T08:13:10.000Z</time>
      </trkpt>
      <trkpt lat="44.52299" lon="4.27552">
        <ele>296</ele>
        <time>2016-05-15T08:13:11.000Z</time>
      </trkpt>
      <trkpt lat="44.52299" lon="4.27555">
        <ele>296</ele>
        <time>2016-05-15T08:13:12.000Z</time>
      </trkpt>
      <trkpt lat="44.52299" lon="4.27559">
        <ele>296</ele>
        <time>2016-05-15T08:13:13.000Z</time>
      </trkpt>
      <trkpt lat="44.52298" lon="4.2756">
        <ele>296</ele>
        <time>2016-05-15T08:13:14.000Z</time>
      </trkpt>
      <trkpt lat="44.52298" lon="4.27561">
        <ele>296</ele>
        <time>2016-05-15T08:13:15.000Z</time>
      </trkpt>
      <trkpt lat="44.52298" lon="4.27562">
        <ele>296</ele>
        <time>2016-05-15T08:13:16.000Z</time>
      </trkpt>
      <trkpt lat="44.52298" lon="4.27563">
        <ele>296</ele>
        <time>2016-05-15T08:13:17.000Z</time>
      </trkpt>
      <trkpt lat="44.52298" lon="4.27564">
        <ele>296</ele>
        <time>2016-05-15T08:13:18.000Z</time>
      </trkpt>
      <trkpt lat="44.52298" lon="4.27565">
        <ele>296</ele>
        <time>2016-05-15T08:13:19.000Z</time>
      </trkpt>
      <trkpt lat="44.52298" lon="4.27566">
        <ele>296</ele>
        <time>2016-05-15T08:13:20.000Z</time>
      </trkpt>
      <trkpt lat="44.52298" lon="4.27567">
        <ele>296</ele>
        <time>2016-05-15T08:13:21.000Z</time>
      </trkpt>
      <trkpt lat="44.52298" lon="4.27568">
        <ele>296</ele>
        <time>2016-05-15T08:13:22.000Z</time>
      </trkpt>
      <trkpt lat="44.52298" lon="4.27569">
        <ele>296</ele>
        <time>2016-05-15T08:13:23.000Z</time>
      </trkpt>
      <trkpt lat="44.52298" lon="4.2757">
        <ele>296</ele>
        <time>2016-05-15T08:13:24.000Z</time>
      </trkpt>
      <trkpt lat="44.52298" lon="4.2757">
        <ele>296</ele>
        <time>2016-05-15T08:13:25.000Z</time>
      </trkpt>
      <trkpt lat="44.52298" lon="4.2757">
        <ele>296</ele>
        <time>2016-05-15T08:13:26.000Z</time>
      </trkpt>
      <trkpt lat="44.52298" lon="4.27571">
        <ele>296</ele>
        <time>2016-05-15T08:13:27.000Z</time>
      </trkpt>
      <trkpt lat="44.52299" lon="4.27572">
        <ele>296</ele>
        <time>2016-05-15T08:13:28.000Z</time>
      </trkpt>
      <trkpt lat="44.523" lon="4.27573">
        <ele>296</ele>
        <time>2016-05-15T08:13:29.000Z</time>
      </trkpt>
      <trkpt lat="44.523" lon="4.27574">
        <ele>296</ele>
        <time>2016-05-15T08:13:30.000Z</time>
      </trkpt>
      <trkpt lat="44.52301" lon="4.27575">
        <ele>296</ele>
        <time>2016-05-15T08:13:31.000Z</time>
      </trkpt>
      <trkpt lat="44.52301" lon="4.27575">
        <ele>296</ele>
        <time>2016-05-15T08:13:32.000Z</time>
      </trkpt>
      <trkpt lat="44.52301" lon="4.27575">
        <ele>296</ele>
        <time>2016-05-15T08:13:33.000Z</time>
      </trkpt>
      <trkpt lat="44.52302" lon="4.27576">
        <ele>296</ele>
        <time>2016-05-15T08:13:34.000Z</time>
      </trkpt>
      <trkpt lat="44.52302" lon="4.27577">
        <ele>296</ele>
        <time>2016-05-15T08:13:35.000Z</time>
      </trkpt>
      <trkpt lat="44.52303" lon="4.27578">
        <ele>296</ele>
        <time>2016-05-15T08:13:36.000Z</time>
      </trkpt>
      <trkpt lat="44.52303" lon="4.27579">
        <ele>296</ele>
        <time>2016-05-15T08:13:37.000Z</time>
      </trkpt>
      <trkpt lat="44.52303" lon="4.2758">
        <ele>297</ele>
        <time>2016-05-15T08:13:38.000Z</time>
      </trkpt>
      <trkpt lat="44.52304" lon="4.2758">
        <ele>297</ele>
        <time>2016-05-15T08:13:39.000Z</time>
      </trkpt>
      <trkpt lat="44.52304" lon="4.27581">
        <ele>297</ele>
        <time>2016-05-15T08:13:40.000Z</time>
      </trkpt>
      <trkpt lat="44.52304" lon="4.27582">
        <ele>297</ele>
        <time>2016-05-15T08:13:41.000Z</time>
      </trkpt>
      <trkpt lat="44.52304" lon="4.27583">
        <ele>297</ele>
        <time>2016-05-15T08:13:42.000Z</time>
      </trkpt>
      <trkpt lat="44.52304" lon="4.27584">
        <ele>298</ele>
        <time>2016-05-15T08:13:43.000Z</time>
      </trkpt>
      <trkpt lat="44.52304" lon="4.27585">
        <ele>298</ele>
        <time>2016-05-15T08:13:44.000Z</time>
      </trkpt>
      <trkpt lat="44.52304" lon="4.27586">
        <ele>298</ele>
        <time>2016-05-15T08:13:45.000Z</time>
      </trkpt>
      <trkpt lat="44.52304" lon="4.27586">
        <ele>298</ele>
        <time>2016-05-15T08:13:46.000Z</time>
      </trkpt>
      <trkpt lat="44.52304" lon="4.27587">
        <ele>298</ele>
        <time>2016-05-15T08:13:47.000Z</time>
      </trkpt>
      <trkpt lat="44.52303" lon="4.27587">
        <ele>298</ele>
        <time>2016-05-15T08:13:48.000Z</time>
      </trkpt>
      <trkpt lat="44.52302" lon="4.27588">
        <ele>298</ele>
        <time>2016-05-15T08:13:49.000Z</time>
      </trkpt>
      <trkpt lat="44.52302" lon="4.27589">
        <ele>298</ele>
        <time>2016-05-15T08:13:50.000Z</time>
      </trkpt>
      <trkpt lat="44.52301" lon="4.27589">
        <ele>298</ele>
        <time>2016-05-15T08:13:51.000Z</time>
      </trkpt>
      <trkpt lat="44.523" lon="4.2759">
        <ele>298</ele>
        <time>2016-05-15T08:13:52.000Z</time>
      </trkpt>
      <trkpt lat="44.523" lon="4.27591">
        <ele>298</ele>
        <time>2016-05-15T08:13:53.000Z</time>
      </trkpt>
      <trkpt lat="44.52299" lon="4.27591">
        <ele>298</ele>
        <time>2016-05-15T08:13:54.000Z</time>
      </trkpt>
      <trkpt lat="44.52298" lon="4.27592">
        <ele>298</ele>
        <time>2016-05-15T08:13:55.000Z</time>
      </trkpt>
      <trkpt lat="44.52298" lon="4.27592">
        <ele>298</ele>
        <time>2016-05-15T08:13:56.000Z</time>
      </trkpt>
      <trkpt lat="44.52298" lon="4.27592">
        <ele>298</ele>
        <time>2016-05-15T08:13:57.000Z</time>
      </trkpt>
      <trkpt lat="44.52298" lon="4.27593">
        <ele>298</ele>
        <time>2016-05-15T08:13:58.000Z</time>
      </trkpt>
      <trkpt lat="44.52298" lon="4.27593">
        <ele>298</ele>
        <time>2016-05-15T08:13:59.000Z</time>
      </trkpt>
      <trkpt lat="44.52298" lon="4.27594">
        <ele>298</ele>
        <time>2016-05-15T08:14:00.000Z</time>
      </trkpt>
      <trkpt lat="44.52298" lon="4.27594">
        <ele>298</ele>
        <time>2016-05-15T08:14:01.000Z</time>
      </trkpt>
      <trkpt lat="44.52298" lon="4.27594">
        <ele>298</ele>
        <time>2016-05-15T08:14:02.000Z</time>
      </trkpt>
      <trkpt lat="44.52298" lon="4.27595">
        <ele>298</ele>
        <time>2016-05-15T08:14:03.000Z</time>
      </trkpt>
      <trkpt lat="44.52298" lon="4.27595">
        <ele>298</ele>
        <time>2016-05-15T08:14:04.000Z</time>
      </trkpt>
      <trkpt lat="44.52298" lon="4.27595">
        <ele>298</ele>
        <time>2016-05-15T08:14:05.000Z</time>
      </trkpt>
      <trkpt lat="44.52298" lon="4.27596">
        <ele>298</ele>
        <time>2016-05-15T08:14:06.000Z</time>
      </trkpt>
      <trkpt lat="44.52298" lon="4.27596">
        <ele>298</ele>
        <time>2016-05-15T08:14:07.000Z</time>
      </trkpt>
      <trkpt lat="44.52298" lon="4.27596">
        <ele>298</ele>
        <time>2016-05-15T08:14:08.000Z</time>
      </trkpt>
      <trkpt lat="44.52298" lon="4.27596">
        <ele>298</ele>
        <time>2016-05-15T08:14:09.000Z</time>
      </trkpt>
      <trkpt lat="44.52298" lon="4.27597">
        <ele>298</ele>
        <time>2016-05-15T08:14:10.000Z</time>
      </trkpt>
      <trkpt lat="44.52298" lon="4.27597">
        <ele>298</ele>
        <time>2016-05-15T08:14:11.000Z</time>
      </trkpt>
      <trkpt lat="44.52297" lon="4.27597">
        <ele>298</ele>
        <time>2016-05-15T08:14:12.000Z</time>
      </trkpt>
      <trkpt lat="44.52297" lon="4.27597">
        <ele>298</ele>
        <time>2016-05-15T08:14:13.000Z</time>
      </trkpt>
      <trkpt lat="44.52297" lon="4.27598">
        <ele>298</ele>
        <time>2016-05-15T08:14:14.000Z</time>
      </trkpt>
      <trkpt lat="44.52297" lon="4.27598">
        <ele>298</ele>
        <time>2016-05-15T08:14:15.000Z</time>
      </trkpt>
      <trkpt lat="44.52297" lon="4.27598">
        <ele>298</ele>
        <time>2016-05-15T08:14:16.000Z</time>
      </trkpt>
      <trkpt lat="44.52297" lon="4.27599">
        <ele>298</ele>
        <time>2016-05-15T08:14:17.000Z</time>
      </trkpt>
      <trkpt lat="44.52297" lon="4.27599">
        <ele>298</ele>
        <time>2016-05-15T08:14:18.000Z</time>
      </trkpt>
      <trkpt lat="44.52296" lon="4.27599">
        <ele>298</ele>
        <time>2016-05-15T08:14:19.000Z</time>
      </trkpt>
      <trkpt lat="44.52296" lon="4.27599">
        <ele>298</ele>
        <time>2016-05-15T08:14:20.000Z</time>
      </trkpt>
      <trkpt lat="44.52296" lon="4.276">
        <ele>298</ele>
        <time>2016-05-15T08:14:21.000Z</time>
      </trkpt>
      <trkpt lat="44.52296" lon="4.276">
        <ele>298</ele>
        <time>2016-05-15T08:14:22.000Z</time>
      </trkpt>
      <trkpt lat="44.52296" lon="4.276">
        <ele>298</ele>
        <time>2016-05-15T08:14:23.000Z</time>
      </trkpt>
      <trkpt lat="44.52296" lon="4.276">
        <ele>298</ele>
        <time>2016-05-15T08:14:24.000Z</time>
      </trkpt>
      <trkpt lat="44.52296" lon="4.276">
        <ele>298</ele>
        <time>2016-05-15T08:14:25.000Z</time>
      </trkpt>
      <trkpt lat="44.52296" lon="4.27601">
        <ele>298</ele>
        <time>2016-05-15T08:14:26.000Z</time>
      </trkpt>
      <trkpt lat="44.52296" lon="4.27601">
        <ele>298</ele>
        <time>2016-05-15T08:14:27.000Z</time>
      </trkpt>
      <trkpt lat="44.52296" lon="4.27601">
        <ele>298</ele>
        <time>2016-05-15T08:14:28.000Z</time>
      </trkpt>
      <trkpt lat="44.52296" lon="4.27601">
        <ele>298</ele>
        <time>2016-05-15T08:14:29.000Z</time>
      </trkpt>
      <trkpt lat="44.52296" lon="4.27601">
        <ele>298</ele>
        <time>2016-05-15T08:14:30.000Z</time>
      </trkpt>
      <trkpt lat="44.52296" lon="4.27601">
        <ele>298</ele>
        <time>2016-05-15T08:14:31.000Z</time>
      </trkpt>
      <trkpt lat="44.52296" lon="4.27601">
        <ele>298</ele>
        <time>2016-05-15T08:14:32.000Z</time>
      </trkpt>
      <trkpt lat="44.52296" lon="4.27601">
        <ele>298</ele>
        <time>2016-05-15T08:14:33.000Z</time>
      </trkpt>
      <trkpt lat="44.52296" lon="4.27602">
        <ele>298</ele>
        <time>2016-05-15T08:14:34.000Z</time>
      </trkpt>
      <trkpt lat="44.52297" lon="4.27602">
        <ele>298</ele>
        <time>2016-05-15T08:14:35.000Z</time>
      </trkpt>
      <trkpt lat="44.52296" lon="4.27602">
        <ele>298</ele>
        <time>2016-05-15T08:14:36.000Z</time>
      </trkpt>
      <trkpt lat="44.52296" lon="4.27602">
        <ele>298</ele>
        <time>2016-05-15T08:14:37.000Z</time>
      </trkpt>
      <trkpt lat="44.52295" lon="4.27602">
        <ele>298</ele>
        <time>2016-05-15T08:14:38.000Z</time>
      </trkpt>
      <trkpt lat="44.52294" lon="4.27603">
        <ele>298</ele>
        <time>2016-05-15T08:14:39.000Z</time>
      </trkpt>
      <trkpt lat="44.52293" lon="4.27604">
        <ele>298</ele>
        <time>2016-05-15T08:14:40.000Z</time>
      </trkpt>
      <trkpt lat="44.52292" lon="4.27605">
        <ele>298</ele>
        <time>2016-05-15T08:14:41.000Z</time>
      </trkpt>
      <trkpt lat="44.52291" lon="4.27606">
        <ele>298</ele>
        <time>2016-05-15T08:14:42.000Z</time>
      </trkpt>
      <trkpt lat="44.5229" lon="4.27607">
        <ele>298</ele>
        <time>2016-05-15T08:14:43.000Z</time>
      </trkpt>
      <trkpt lat="44.52289" lon="4.27609">
        <ele>298</ele>
        <time>2016-05-15T08:14:44.000Z</time>
      </trkpt>
      <trkpt lat="44.52288" lon="4.27609">
        <ele>297</ele>
        <time>2016-05-15T08:14:45.000Z</time>
      </trkpt>
      <trkpt lat="44.52286" lon="4.2761">
        <ele>297</ele>
        <time>2016-05-15T08:14:46.000Z</time>
      </trkpt>
      <trkpt lat="44.52284" lon="4.27611">
        <ele>297</ele>
        <time>2016-05-15T08:14:47.000Z</time>
      </trkpt>
      <trkpt lat="44.52281" lon="4.27613">
        <ele>297</ele>
        <time>2016-05-15T08:14:48.000Z</time>
      </trkpt>
      <trkpt lat="44.52279" lon="4.27614">
        <ele>297</ele>
        <time>2016-05-15T08:14:49.000Z</time>
      </trkpt>
      <trkpt lat="44.52276" lon="4.27616">
        <ele>297</ele>
        <time>2016-05-15T08:14:50.000Z</time>
      </trkpt>
      <trkpt lat="44.52273" lon="4.27617">
        <ele>297</ele>
        <time>2016-05-15T08:14:51.000Z</time>
      </trkpt>
      <trkpt lat="44.5227" lon="4.27618">
        <ele>297</ele>
        <time>2016-05-15T08:14:52.000Z</time>
      </trkpt>
      <trkpt lat="44.52267" lon="4.27619">
        <ele>297</ele>
        <time>2016-05-15T08:14:53.000Z</time>
      </trkpt>
      <trkpt lat="44.52264" lon="4.2762">
        <ele>296</ele>
        <time>2016-05-15T08:14:54.000Z</time>
      </trkpt>
      <trkpt lat="44.52261" lon="4.27622">
        <ele>296</ele>
        <time>2016-05-15T08:14:55.000Z</time>
      </trkpt>
      <trkpt lat="44.52257" lon="4.27624">
        <ele>296</ele>
        <time>2016-05-15T08:14:56.000Z</time>
      </trkpt>
      <trkpt lat="44.52253" lon="4.27625">
        <ele>296</ele>
        <time>2016-05-15T08:14:57.000Z</time>
      </trkpt>
      <trkpt lat="44.5225" lon="4.27627">
        <ele>296</ele>
        <time>2016-05-15T08:14:58.000Z</time>
      </trkpt>
      <trkpt lat="44.52247" lon="4.27629">
        <ele>291</ele>
        <time>2016-05-15T08:14:59.000Z</time>
      </trkpt>
      <trkpt lat="44.52243" lon="4.27631">
        <ele>291</ele>
        <time>2016-05-15T08:15:00.000Z</time>
      </trkpt>
      <trkpt lat="44.52239" lon="4.27632">
        <ele>291</ele>
        <time>2016-05-15T08:15:01.000Z</time>
      </trkpt>
      <trkpt lat="44.52235" lon="4.27633">
        <ele>291</ele>
        <time>2016-05-15T08:15:02.000Z</time>
      </trkpt>
      <trkpt lat="44.52231" lon="4.27634">
        <ele>291</ele>
        <time>2016-05-15T08:15:03.000Z</time>
      </trkpt>
      <trkpt lat="44.52227" lon="4.27636">
        <ele>291</ele>
        <time>2016-05-15T08:15:04.000Z</time>
      </trkpt>
      <trkpt lat="44.52223" lon="4.27637">
        <ele>291</ele>
        <time>2016-05-15T08:15:05.000Z</time>
      </trkpt>
      <trkpt lat="44.52218" lon="4.27638">
        <ele>291</ele>
        <time>2016-05-15T08:15:06.000Z</time>
      </trkpt>
      <trkpt lat="44.52214" lon="4.27639">
        <ele>291</ele>
        <time>2016-05-15T08:15:07.000Z</time>
      </trkpt>
      <trkpt lat="44.52209" lon="4.2764">
        <ele>290</ele>
        <time>2016-05-15T08:15:08.000Z</time>
      </trkpt>
      <trkpt lat="44.52204" lon="4.27641">
        <ele>290</ele>
        <time>2016-05-15T08:15:09.000Z</time>
      </trkpt>
      <trkpt lat="44.52199" lon="4.27641">
        <ele>290</ele>
        <time>2016-05-15T08:15:10.000Z</time>
      </trkpt>
      <trkpt lat="44.52194" lon="4.27641">
        <ele>290</ele>
        <time>2016-05-15T08:15:11.000Z</time>
      </trkpt>
      <trkpt lat="44.52189" lon="4.27642">
        <ele>290</ele>
        <time>2016-05-15T08:15:12.000Z</time>
      </trkpt>
      <trkpt lat="44.52184" lon="4.27644">
        <ele>290</ele>
        <time>2016-05-15T08:15:13.000Z</time>
      </trkpt>
      <trkpt lat="44.52179" lon="4.27645">
        <ele>290</ele>
        <time>2016-05-15T08:15:14.000Z</time>
      </trkpt>
      <trkpt lat="44.52174" lon="4.27647">
        <ele>290</ele>
        <time>2016-05-15T08:15:15.000Z</time>
      </trkpt>
      <trkpt lat="44.52169" lon="4.27647">
        <ele>290</ele>
        <time>2016-05-15T08:15:16.000Z</time>
      </trkpt>
      <trkpt lat="44.52163" lon="4.27648">
        <ele>286</ele>
        <time>2016-05-15T08:15:17.000Z</time>
      </trkpt>
      <trkpt lat="44.52158" lon="4.2765">
        <ele>285</ele>
        <time>2016-05-15T08:15:18.000Z</time>
      </trkpt>
      <trkpt lat="44.52153" lon="4.27653">
        <ele>285</ele>
        <time>2016-05-15T08:15:19.000Z</time>
      </trkpt>
      <trkpt lat="44.5215" lon="4.27655">
        <ele>285</ele>
        <time>2016-05-15T08:15:20.000Z</time>
      </trkpt>
      <trkpt lat="44.52149" lon="4.27657">
        <ele>285</ele>
        <time>2016-05-15T08:15:21.000Z</time>
      </trkpt>
      <trkpt lat="44.5215" lon="4.27658">
        <ele>285</ele>
        <time>2016-05-15T08:15:22.000Z</time>
      </trkpt>
      <trkpt lat="44.52152" lon="4.27659">
        <ele>286</ele>
        <time>2016-05-15T08:15:23.000Z</time>
      </trkpt>
      <trkpt lat="44.52155" lon="4.27659">
        <ele>286</ele>
        <time>2016-05-15T08:15:24.000Z</time>
      </trkpt>
      <trkpt lat="44.52158" lon="4.2766">
        <ele>287</ele>
        <time>2016-05-15T08:15:25.000Z</time>
      </trkpt>
      <trkpt lat="44.52162" lon="4.27661">
        <ele>288</ele>
        <time>2016-05-15T08:15:26.000Z</time>
      </trkpt>
      <trkpt lat="44.52165" lon="4.27663">
        <ele>289</ele>
        <time>2016-05-15T08:15:27.000Z</time>
      </trkpt>
      <trkpt lat="44.52168" lon="4.27664">
        <ele>290</ele>
        <time>2016-05-15T08:15:28.000Z</time>
      </trkpt>
      <trkpt lat="44.5217" lon="4.27666">
        <ele>290</ele>
        <time>2016-05-15T08:15:29.000Z</time>
      </trkpt>
      <trkpt lat="44.52173" lon="4.27667">
        <ele>291</ele>
        <time>2016-05-15T08:15:30.000Z</time>
      </trkpt>
      <trkpt lat="44.52175" lon="4.27669">
        <ele>291</ele>
        <time>2016-05-15T08:15:31.000Z</time>
      </trkpt>
      <trkpt lat="44.52177" lon="4.27671">
        <ele>291</ele>
        <time>2016-05-15T08:15:32.000Z</time>
      </trkpt>
      <trkpt lat="44.5218" lon="4.27672">
        <ele>291</ele>
        <time>2016-05-15T08:15:33.000Z</time>
      </trkpt>
      <trkpt lat="44.52182" lon="4.27674">
        <ele>291</ele>
        <time>2016-05-15T08:15:34.000Z</time>
      </trkpt>
      <trkpt lat="44.52185" lon="4.27675">
        <ele>291</ele>
        <time>2016-05-15T08:15:35.000Z</time>
      </trkpt>
      <trkpt lat="44.52187" lon="4.27676">
        <ele>292</ele>
        <time>2016-05-15T08:15:36.000Z</time>
      </trkpt>
      <trkpt lat="44.5219" lon="4.27677">
        <ele>292</ele>
        <time>2016-05-15T08:15:37.000Z</time>
      </trkpt>
      <trkpt lat="44.52193" lon="4.27678">
        <ele>292</ele>
        <time>2016-05-15T08:15:38.000Z</time>
      </trkpt>
      <trkpt lat="44.52195" lon="4.2768">
        <ele>292</ele>
        <time>2016-05-15T08:15:39.000Z</time>
      </trkpt>
      <trkpt lat="44.52197" lon="4.27681">
        <ele>292</ele>
        <time>2016-05-15T08:15:40.000Z</time>
      </trkpt>
      <trkpt lat="44.522" lon="4.27681">
        <ele>292</ele>
        <time>2016-05-15T08:15:41.000Z</time>
      </trkpt>
      <trkpt lat="44.52202" lon="4.27682">
        <ele>292</ele>
        <time>2016-05-15T08:15:42.000Z</time>
      </trkpt>
      <trkpt lat="44.52204" lon="4.27683">
        <ele>292</ele>
        <time>2016-05-15T08:15:43.000Z</time>
      </trkpt>
      <trkpt lat="44.52207" lon="4.27684">
        <ele>292</ele>
        <time>2016-05-15T08:15:44.000Z</time>
      </trkpt>
      <trkpt lat="44.52209" lon="4.27685">
        <ele>293</ele>
        <time>2016-05-15T08:15:45.000Z</time>
      </trkpt>
      <trkpt lat="44.52212" lon="4.27687">
        <ele>293</ele>
        <time>2016-05-15T08:15:46.000Z</time>
      </trkpt>
      <trkpt lat="44.52214" lon="4.27688">
        <ele>293</ele>
        <time>2016-05-15T08:15:47.000Z</time>
      </trkpt>
      <trkpt lat="44.52217" lon="4.2769">
        <ele>293</ele>
        <time>2016-05-15T08:15:48.000Z</time>
      </trkpt>
      <trkpt lat="44.5222" lon="4.27692">
        <ele>293</ele>
        <time>2016-05-15T08:15:49.000Z</time>
      </trkpt>
      <trkpt lat="44.52222" lon="4.27693">
        <ele>293</ele>
        <time>2016-05-15T08:15:50.000Z</time>
      </trkpt>
      <trkpt lat="44.52225" lon="4.27694">
        <ele>293</ele>
        <time>2016-05-15T08:15:51.000Z</time>
      </trkpt>
      <trkpt lat="44.52227" lon="4.27695">
        <ele>293</ele>
        <time>2016-05-15T08:15:52.000Z</time>
      </trkpt>
      <trkpt lat="44.5223" lon="4.27697">
        <ele>293</ele>
        <time>2016-05-15T08:15:53.000Z</time>
      </trkpt>
      <trkpt lat="44.52232" lon="4.27698">
        <ele>293</ele>
        <time>2016-05-15T08:15:54.000Z</time>
      </trkpt>
      <trkpt lat="44.52235" lon="4.27699">
        <ele>293</ele>
        <time>2016-05-15T08:15:55.000Z</time>
      </trkpt>
      <trkpt lat="44.52237" lon="4.277">
        <ele>293</ele>
        <time>2016-05-15T08:15:56.000Z</time>
      </trkpt>
      <trkpt lat="44.52239" lon="4.27701">
        <ele>293</ele>
        <time>2016-05-15T08:15:57.000Z</time>
      </trkpt>
      <trkpt lat="44.52242" lon="4.27703">
        <ele>293</ele>
        <time>2016-05-15T08:15:58.000Z</time>
      </trkpt>
      <trkpt lat="44.52244" lon="4.27704">
        <ele>294</ele>
        <time>2016-05-15T08:15:59.000Z</time>
      </trkpt>
      <trkpt lat="44.52246" lon="4.27706">
        <ele>294</ele>
        <time>2016-05-15T08:16:00.000Z</time>
      </trkpt>
      <trkpt lat="44.52248" lon="4.27707">
        <ele>294</ele>
        <time>2016-05-15T08:16:01.000Z</time>
      </trkpt>
      <trkpt lat="44.5225" lon="4.27709">
        <ele>294</ele>
        <time>2016-05-15T08:16:02.000Z</time>
      </trkpt>
      <trkpt lat="44.52252" lon="4.2771">
        <ele>300</ele>
        <time>2016-05-15T08:16:03.000Z</time>
      </trkpt>
      <trkpt lat="44.52254" lon="4.27711">
        <ele>300</ele>
        <time>2016-05-15T08:16:04.000Z</time>
      </trkpt>
      <trkpt lat="44.52256" lon="4.27712">
        <ele>300</ele>
        <time>2016-05-15T08:16:05.000Z</time>
      </trkpt>
      <trkpt lat="44.52257" lon="4.27713">
        <ele>300</ele>
        <time>2016-05-15T08:16:06.000Z</time>
      </trkpt>
      <trkpt lat="44.5226" lon="4.27714">
        <ele>300</ele>
        <time>2016-05-15T08:16:07.000Z</time>
      </trkpt>
      <trkpt lat="44.52261" lon="4.27715">
        <ele>300</ele>
        <time>2016-05-15T08:16:08.000Z</time>
      </trkpt>
      <trkpt lat="44.52263" lon="4.27716">
        <ele>300</ele>
        <time>2016-05-15T08:16:09.000Z</time>
      </trkpt>
      <trkpt lat="44.52265" lon="4.27717">
        <ele>300</ele>
        <time>2016-05-15T08:16:10.000Z</time>
      </trkpt>
      <trkpt lat="44.52267" lon="4.27718">
        <ele>300</ele>
        <time>2016-05-15T08:16:11.000Z</time>
      </trkpt>
      <trkpt lat="44.5227" lon="4.27719">
        <ele>301</ele>
        <time>2016-05-15T08:16:12.000Z</time>
      </trkpt>
      <trkpt lat="44.52271" lon="4.27721">
        <ele>301</ele>
        <time>2016-05-15T08:16:13.000Z</time>
      </trkpt>
      <trkpt lat="44.52273" lon="4.27722">
        <ele>301</ele>
        <time>2016-05-15T08:16:14.000Z</time>
      </trkpt>
      <trkpt lat="44.52275" lon="4.27723">
        <ele>301</ele>
        <time>2016-05-15T08:16:15.000Z</time>
      </trkpt>
      <trkpt lat="44.52277" lon="4.27724">
        <ele>301</ele>
        <time>2016-05-15T08:16:16.000Z</time>
      </trkpt>
      <trkpt lat="44.52279" lon="4.27725">
        <ele>301</ele>
        <time>2016-05-15T08:16:17.000Z</time>
      </trkpt>
      <trkpt lat="44.5228" lon="4.27726">
        <ele>301</ele>
        <time>2016-05-15T08:16:18.000Z</time>
      </trkpt>
      <trkpt lat="44.52282" lon="4.27728">
        <ele>302</ele>
        <time>2016-05-15T08:16:19.000Z</time>
      </trkpt>
      <trkpt lat="44.52284" lon="4.27729">
        <ele>302</ele>
        <time>2016-05-15T08:16:20.000Z</time>
      </trkpt>
      <trkpt lat="44.52286" lon="4.2773">
        <ele>302</ele>
        <time>2016-05-15T08:16:21.000Z</time>
      </trkpt>
      <trkpt lat="44.52288" lon="4.27731">
        <ele>302</ele>
        <time>2016-05-15T08:16:22.000Z</time>
      </trkpt>
      <trkpt lat="44.52289" lon="4.27731">
        <ele>302</ele>
        <time>2016-05-15T08:16:23.000Z</time>
      </trkpt>
      <trkpt lat="44.52291" lon="4.27732">
        <ele>302</ele>
        <time>2016-05-15T08:16:24.000Z</time>
      </trkpt>
      <trkpt lat="44.52292" lon="4.27733">
        <ele>303</ele>
        <time>2016-05-15T08:16:25.000Z</time>
      </trkpt>
      <trkpt lat="44.52294" lon="4.27734">
        <ele>303</ele>
        <time>2016-05-15T08:16:26.000Z</time>
      </trkpt>
      <trkpt lat="44.52295" lon="4.27735">
        <ele>303</ele>
        <time>2016-05-15T08:16:27.000Z</time>
      </trkpt>
      <trkpt lat="44.52297" lon="4.27736">
        <ele>303</ele>
        <time>2016-05-15T08:16:28.000Z</time>
      </trkpt>
      <trkpt lat="44.52299" lon="4.27737">
        <ele>304</ele>
        <time>2016-05-15T08:16:29.000Z</time>
      </trkpt>
      <trkpt lat="44.52301" lon="4.27738">
        <ele>304</ele>
        <time>2016-05-15T08:16:30.000Z</time>
      </trkpt>
      <trkpt lat="44.52303" lon="4.27739">
        <ele>304</ele>
        <time>2016-05-15T08:16:31.000Z</time>
      </trkpt>
      <trkpt lat="44.52305" lon="4.27739">
        <ele>304</ele>
        <time>2016-05-15T08:16:32.000Z</time>
      </trkpt>
      <trkpt lat="44.52306" lon="4.2774">
        <ele>305</ele>
        <time>2016-05-15T08:16:33.000Z</time>
      </trkpt>
      <trkpt lat="44.52307" lon="4.27741">
        <ele>305</ele>
        <time>2016-05-15T08:16:34.000Z</time>
      </trkpt>
      <trkpt lat="44.52309" lon="4.27742">
        <ele>305</ele>
        <time>2016-05-15T08:16:35.000Z</time>
      </trkpt>
      <trkpt lat="44.52311" lon="4.27743">
        <ele>305</ele>
        <time>2016-05-15T08:16:36.000Z</time>
      </trkpt>
      <trkpt lat="44.52312" lon="4.27744">
        <ele>306</ele>
        <time>2016-05-15T08:16:37.000Z</time>
      </trkpt>
      <trkpt lat="44.52314" lon="4.27745">
        <ele>306</ele>
        <time>2016-05-15T08:16:38.000Z</time>
      </trkpt>
      <trkpt lat="44.52316" lon="4.27746">
        <ele>306</ele>
        <time>2016-05-15T08:16:39.000Z</time>
      </trkpt>
      <trkpt lat="44.52318" lon="4.27748">
        <ele>307</ele>
        <time>2016-05-15T08:16:40.000Z</time>
      </trkpt>
      <trkpt lat="44.5232" lon="4.27749">
        <ele>307</ele>
        <time>2016-05-15T08:16:41.000Z</time>
      </trkpt>
      <trkpt lat="44.52322" lon="4.2775">
        <ele>308</ele>
        <time>2016-05-15T08:16:42.000Z</time>
      </trkpt>
      <trkpt lat="44.52323" lon="4.27751">
        <ele>309</ele>
        <time>2016-05-15T08:16:43.000Z</time>
      </trkpt>
      <trkpt lat="44.52325" lon="4.27752">
        <ele>309</ele>
        <time>2016-05-15T08:16:44.000Z</time>
      </trkpt>
      <trkpt lat="44.52327" lon="4.27753">
        <ele>310</ele>
        <time>2016-05-15T08:16:45.000Z</time>
      </trkpt>
      <trkpt lat="44.52329" lon="4.27753">
        <ele>310</ele>
        <time>2016-05-15T08:16:46.000Z</time>
      </trkpt>
      <trkpt lat="44.52332" lon="4.27752">
        <ele>310</ele>
        <time>2016-05-15T08:16:47.000Z</time>
      </trkpt>
      <trkpt lat="44.52334" lon="4.2775">
        <ele>311</ele>
        <time>2016-05-15T08:16:48.000Z</time>
      </trkpt>
      <trkpt lat="44.52335" lon="4.27748">
        <ele>311</ele>
        <time>2016-05-15T08:16:49.000Z</time>
      </trkpt>
      <trkpt lat="44.52336" lon="4.27745">
        <ele>311</ele>
        <time>2016-05-15T08:16:50.000Z</time>
      </trkpt>
      <trkpt lat="44.52338" lon="4.27743">
        <ele>311</ele>
        <time>2016-05-15T08:16:51.000Z</time>
      </trkpt>
      <trkpt lat="44.52339" lon="4.27742">
        <ele>311</ele>
        <time>2016-05-15T08:16:52.000Z</time>
      </trkpt>
      <trkpt lat="44.52341" lon="4.27741">
        <ele>311</ele>
        <time>2016-05-15T08:16:53.000Z</time>
      </trkpt>
      <trkpt lat="44.52343" lon="4.27741">
        <ele>311</ele>
        <time>2016-05-15T08:16:54.000Z</time>
      </trkpt>
      <trkpt lat="44.52345" lon="4.27742">
        <ele>311</ele>
        <time>2016-05-15T08:16:55.000Z</time>
      </trkpt>
      <trkpt lat="44.52347" lon="4.27744">
        <ele>311</ele>
        <time>2016-05-15T08:16:56.000Z</time>
      </trkpt>
      <trkpt lat="44.52348" lon="4.27746">
        <ele>311</ele>
        <time>2016-05-15T08:16:57.000Z</time>
      </trkpt>
      <trkpt lat="44.52349" lon="4.27749">
        <ele>311</ele>
        <time>2016-05-15T08:16:58.000Z</time>
      </trkpt>
      <trkpt lat="44.52351" lon="4.27752">
        <ele>312</ele>
        <time>2016-05-15T08:16:59.000Z</time>
      </trkpt>
      <trkpt lat="44.52353" lon="4.27755">
        <ele>312</ele>
        <time>2016-05-15T08:17:00.000Z</time>
      </trkpt>
      <trkpt lat="44.52355" lon="4.27757">
        <ele>313</ele>
        <time>2016-05-15T08:17:01.000Z</time>
      </trkpt>
      <trkpt lat="44.52356" lon="4.27759">
        <ele>313</ele>
        <time>2016-05-15T08:17:02.000Z</time>
      </trkpt>
      <trkpt lat="44.52358" lon="4.27761">
        <ele>313</ele>
        <time>2016-05-15T08:17:03.000Z</time>
      </trkpt>
      <trkpt lat="44.52361" lon="4.27763">
        <ele>313</ele>
        <time>2016-05-15T08:17:04.000Z</time>
      </trkpt>
      <trkpt lat="44.52362" lon="4.27764">
        <ele>313</ele>
        <time>2016-05-15T08:17:05.000Z</time>
      </trkpt>
      <trkpt lat="44.52364" lon="4.27766">
        <ele>313</ele>
        <time>2016-05-15T08:17:06.000Z</time>
      </trkpt>
      <trkpt lat="44.52366" lon="4.27768">
        <ele>313</ele>
        <time>2016-05-15T08:17:07.000Z</time>
      </trkpt>
      <trkpt lat="44.52367" lon="4.2777">
        <ele>313</ele>
        <time>2016-05-15T08:17:08.000Z</time>
      </trkpt>
      <trkpt lat="44.52368" lon="4.27771">
        <ele>313</ele>
        <time>2016-05-15T08:17:09.000Z</time>
      </trkpt>
      <trkpt lat="44.5237" lon="4.27774">
        <ele>313</ele>
        <time>2016-05-15T08:17:10.000Z</time>
      </trkpt>
      <trkpt lat="44.52372" lon="4.27777">
        <ele>313</ele>
        <time>2016-05-15T08:17:11.000Z</time>
      </trkpt>
      <trkpt lat="44.52373" lon="4.27781">
        <ele>313</ele>
        <time>2016-05-15T08:17:12.000Z</time>
      </trkpt>
      <trkpt lat="44.52375" lon="4.27783">
        <ele>313</ele>
        <time>2016-05-15T08:17:13.000Z</time>
      </trkpt>
      <trkpt lat="44.52377" lon="4.27786">
        <ele>313</ele>
        <time>2016-05-15T08:17:14.000Z</time>
      </trkpt>
      <trkpt lat="44.52379" lon="4.2779">
        <ele>314</ele>
        <time>2016-05-15T08:17:15.000Z</time>
      </trkpt>
      <trkpt lat="44.5238" lon="4.27794">
        <ele>314</ele>
        <time>2016-05-15T08:17:16.000Z</time>
      </trkpt>
      <trkpt lat="44.52382" lon="4.27798">
        <ele>314</ele>
        <time>2016-05-15T08:17:17.000Z</time>
      </trkpt>
      <trkpt lat="44.52384" lon="4.27803">
        <ele>314</ele>
        <time>2016-05-15T08:17:18.000Z</time>
      </trkpt>
      <trkpt lat="44.52386" lon="4.27807">
        <ele>314</ele>
        <time>2016-05-15T08:17:19.000Z</time>
      </trkpt>
      <trkpt lat="44.52388" lon="4.27811">
        <ele>314</ele>
        <time>2016-05-15T08:17:20.000Z</time>
      </trkpt>
      <trkpt lat="44.5239" lon="4.27815">
        <ele>314</ele>
        <time>2016-05-15T08:17:21.000Z</time>
      </trkpt>
      <trkpt lat="44.52392" lon="4.27819">
        <ele>314</ele>
        <time>2016-05-15T08:17:22.000Z</time>
      </trkpt>
      <trkpt lat="44.52394" lon="4.27822">
        <ele>314</ele>
        <time>2016-05-15T08:17:23.000Z</time>
      </trkpt>
      <trkpt lat="44.52395" lon="4.27826">
        <ele>314</ele>
        <time>2016-05-15T08:17:24.000Z</time>
      </trkpt>
      <trkpt lat="44.52396" lon="4.2783">
        <ele>314</ele>
        <time>2016-05-15T08:17:25.000Z</time>
      </trkpt>
      <trkpt lat="44.52397" lon="4.27834">
        <ele>314</ele>
        <time>2016-05-15T08:17:26.000Z</time>
      </trkpt>
      <trkpt lat="44.52399" lon="4.27838">
        <ele>314</ele>
        <time>2016-05-15T08:17:27.000Z</time>
      </trkpt>
      <trkpt lat="44.524" lon="4.27842">
        <ele>314</ele>
        <time>2016-05-15T08:17:28.000Z</time>
      </trkpt>
      <trkpt lat="44.52401" lon="4.27846">
        <ele>314</ele>
        <time>2016-05-15T08:17:29.000Z</time>
      </trkpt>
      <trkpt lat="44.52403" lon="4.2785">
        <ele>314</ele>
        <time>2016-05-15T08:17:30.000Z</time>
      </trkpt>
      <trkpt lat="44.52404" lon="4.27854">
        <ele>314</ele>
        <time>2016-05-15T08:17:31.000Z</time>
      </trkpt>
      <trkpt lat="44.52406" lon="4.27857">
        <ele>314</ele>
        <time>2016-05-15T08:17:32.000Z</time>
      </trkpt>
      <trkpt lat="44.52407" lon="4.27861">
        <ele>314</ele>
        <time>2016-05-15T08:17:33.000Z</time>
      </trkpt>
      <trkpt lat="44.52408" lon="4.27865">
        <ele>314</ele>
        <time>2016-05-15T08:17:34.000Z</time>
      </trkpt>
      <trkpt lat="44.5241" lon="4.27869">
        <ele>314</ele>
        <time>2016-05-15T08:17:35.000Z</time>
      </trkpt>
      <trkpt lat="44.52412" lon="4.27873">
        <ele>314</ele>
        <time>2016-05-15T08:17:36.000Z</time>
      </trkpt>
      <trkpt lat="44.52415" lon="4.27877">
        <ele>314</ele>
        <time>2016-05-15T08:17:37.000Z</time>
      </trkpt>
      <trkpt lat="44.52417" lon="4.27882">
        <ele>314</ele>
        <time>2016-05-15T08:17:38.000Z</time>
      </trkpt>
      <trkpt lat="44.52419" lon="4.27886">
        <ele>314</ele>
        <time>2016-05-15T08:17:39.000Z</time>
      </trkpt>
      <trkpt lat="44.52421" lon="4.27891">
        <ele>314</ele>
        <time>2016-05-15T08:17:40.000Z</time>
      </trkpt>
      <trkpt lat="44.52424" lon="4.27895">
        <ele>314</ele>
        <time>2016-05-15T08:17:41.000Z</time>
      </trkpt>
      <trkpt lat="44.52425" lon="4.27899">
        <ele>314</ele>
        <time>2016-05-15T08:17:42.000Z</time>
      </trkpt>
      <trkpt lat="44.52427" lon="4.27902">
        <ele>314</ele>
        <time>2016-05-15T08:17:43.000Z</time>
      </trkpt>
      <trkpt lat="44.52428" lon="4.27904">
        <ele>314</ele>
        <time>2016-05-15T08:17:44.000Z</time>
      </trkpt>
      <trkpt lat="44.52429" lon="4.27907">
        <ele>314</ele>
        <time>2016-05-15T08:17:45.000Z</time>
      </trkpt>
      <trkpt lat="44.5243" lon="4.27908">
        <ele>314</ele>
        <time>2016-05-15T08:17:46.000Z</time>
      </trkpt>
      <trkpt lat="44.52432" lon="4.27909">
        <ele>314</ele>
        <time>2016-05-15T08:17:47.000Z</time>
      </trkpt>
      <trkpt lat="44.52434" lon="4.27909">
        <ele>314</ele>
        <time>2016-05-15T08:17:48.000Z</time>
      </trkpt>
      <trkpt lat="44.52435" lon="4.27907">
        <ele>314</ele>
        <time>2016-05-15T08:17:49.000Z</time>
      </trkpt>
      <trkpt lat="44.52437" lon="4.27905">
        <ele>314</ele>
        <time>2016-05-15T08:17:50.000Z</time>
      </trkpt>
      <trkpt lat="44.52438" lon="4.27903">
        <ele>314</ele>
        <time>2016-05-15T08:17:51.000Z</time>
      </trkpt>
      <trkpt lat="44.5244" lon="4.27901">
        <ele>314</ele>
        <time>2016-05-15T08:17:52.000Z</time>
      </trkpt>
      <trkpt lat="44.52442" lon="4.27898">
        <ele>314</ele>
        <time>2016-05-15T08:17:53.000Z</time>
      </trkpt>
      <trkpt lat="44.52444" lon="4.27896">
        <ele>314</ele>
        <time>2016-05-15T08:17:54.000Z</time>
      </trkpt>
      <trkpt lat="44.52446" lon="4.27893">
        <ele>314</ele>
        <time>2016-05-15T08:17:55.000Z</time>
      </trkpt>
      <trkpt lat="44.52447" lon="4.27891">
        <ele>315</ele>
        <time>2016-05-15T08:17:56.000Z</time>
      </trkpt>
      <trkpt lat="44.52449" lon="4.27888">
        <ele>315</ele>
        <time>2016-05-15T08:17:57.000Z</time>
      </trkpt>
      <trkpt lat="44.52451" lon="4.27886">
        <ele>315</ele>
        <time>2016-05-15T08:17:58.000Z</time>
      </trkpt>
      <trkpt lat="44.52453" lon="4.27883">
        <ele>315</ele>
        <time>2016-05-15T08:17:59.000Z</time>
      </trkpt>
      <trkpt lat="44.52455" lon="4.27881">
        <ele>315</ele>
        <time>2016-05-15T08:18:00.000Z</time>
      </trkpt>
      <trkpt lat="44.52457" lon="4.27879">
        <ele>315</ele>
        <time>2016-05-15T08:18:01.000Z</time>
      </trkpt>
      <trkpt lat="44.52458" lon="4.27876">
        <ele>315</ele>
        <time>2016-05-15T08:18:02.000Z</time>
      </trkpt>
      <trkpt lat="44.5246" lon="4.27874">
        <ele>315</ele>
        <time>2016-05-15T08:18:03.000Z</time>
      </trkpt>
      <trkpt lat="44.52461" lon="4.27872">
        <ele>315</ele>
        <time>2016-05-15T08:18:04.000Z</time>
      </trkpt>
      <trkpt lat="44.52463" lon="4.2787">
        <ele>315</ele>
        <time>2016-05-15T08:18:05.000Z</time>
      </trkpt>
      <trkpt lat="44.52464" lon="4.27868">
        <ele>315</ele>
        <time>2016-05-15T08:18:06.000Z</time>
      </trkpt>
      <trkpt lat="44.52465" lon="4.27866">
        <ele>315</ele>
        <time>2016-05-15T08:18:07.000Z</time>
      </trkpt>
      <trkpt lat="44.52467" lon="4.27864">
        <ele>315</ele>
        <time>2016-05-15T08:18:08.000Z</time>
      </trkpt>
      <trkpt lat="44.52468" lon="4.27863">
        <ele>315</ele>
        <time>2016-05-15T08:18:09.000Z</time>
      </trkpt>
      <trkpt lat="44.52469" lon="4.27861">
        <ele>316</ele>
        <time>2016-05-15T08:18:10.000Z</time>
      </trkpt>
      <trkpt lat="44.5247" lon="4.27859">
        <ele>316</ele>
        <time>2016-05-15T08:18:11.000Z</time>
      </trkpt>
      <trkpt lat="44.52471" lon="4.27857">
        <ele>316</ele>
        <time>2016-05-15T08:18:12.000Z</time>
      </trkpt>
      <trkpt lat="44.52472" lon="4.27855">
        <ele>316</ele>
        <time>2016-05-15T08:18:13.000Z</time>
      </trkpt>
      <trkpt lat="44.52474" lon="4.27853">
        <ele>316</ele>
        <time>2016-05-15T08:18:14.000Z</time>
      </trkpt>
      <trkpt lat="44.52475" lon="4.27851">
        <ele>316</ele>
        <time>2016-05-15T08:18:15.000Z</time>
      </trkpt>
      <trkpt lat="44.52477" lon="4.27849">
        <ele>316</ele>
        <time>2016-05-15T08:18:16.000Z</time>
      </trkpt>
      <trkpt lat="44.52478" lon="4.27847">
        <ele>316</ele>
        <time>2016-05-15T08:18:17.000Z</time>
      </trkpt>
      <trkpt lat="44.5248" lon="4.27844">
        <ele>316</ele>
        <time>2016-05-15T08:18:18.000Z</time>
      </trkpt>
      <trkpt lat="44.52481" lon="4.27842">
        <ele>317</ele>
        <time>2016-05-15T08:18:19.000Z</time>
      </trkpt>
      <trkpt lat="44.52483" lon="4.2784">
        <ele>317</ele>
        <time>2016-05-15T08:18:20.000Z</time>
      </trkpt>
      <trkpt lat="44.52485" lon="4.27838">
        <ele>317</ele>
        <time>2016-05-15T08:18:21.000Z</time>
      </trkpt>
      <trkpt lat="44.52487" lon="4.27836">
        <ele>317</ele>
        <time>2016-05-15T08:18:22.000Z</time>
      </trkpt>
      <trkpt lat="44.52488" lon="4.27833">
        <ele>318</ele>
        <time>2016-05-15T08:18:23.000Z</time>
      </trkpt>
      <trkpt lat="44.5249" lon="4.27831">
        <ele>318</ele>
        <time>2016-05-15T08:18:24.000Z</time>
      </trkpt>
      <trkpt lat="44.52491" lon="4.27829">
        <ele>318</ele>
        <time>2016-05-15T08:18:25.000Z</time>
      </trkpt>
      <trkpt lat="44.52493" lon="4.27827">
        <ele>318</ele>
        <time>2016-05-15T08:18:26.000Z</time>
      </trkpt>
      <trkpt lat="44.52494" lon="4.27825">
        <ele>318</ele>
        <time>2016-05-15T08:18:27.000Z</time>
      </trkpt>
      <trkpt lat="44.52496" lon="4.27823">
        <ele>318</ele>
        <time>2016-05-15T08:18:28.000Z</time>
      </trkpt>
      <trkpt lat="44.52498" lon="4.27821">
        <ele>318</ele>
        <time>2016-05-15T08:18:29.000Z</time>
      </trkpt>
      <trkpt lat="44.52499" lon="4.2782">
        <ele>318</ele>
        <time>2016-05-15T08:18:30.000Z</time>
      </trkpt>
      <trkpt lat="44.52501" lon="4.27819">
        <ele>320</ele>
        <time>2016-05-15T08:18:31.000Z</time>
      </trkpt>
      <trkpt lat="44.52503" lon="4.27819">
        <ele>320</ele>
        <time>2016-05-15T08:18:32.000Z</time>
      </trkpt>
      <trkpt lat="44.52505" lon="4.27819">
        <ele>320</ele>
        <time>2016-05-15T08:18:33.000Z</time>
      </trkpt>
      <trkpt lat="44.52507" lon="4.27819">
        <ele>320</ele>
        <time>2016-05-15T08:18:34.000Z</time>
      </trkpt>
      <trkpt lat="44.52509" lon="4.27819">
        <ele>320</ele>
        <time>2016-05-15T08:18:35.000Z</time>
      </trkpt>
      <trkpt lat="44.52511" lon="4.2782">
        <ele>320</ele>
        <time>2016-05-15T08:18:36.000Z</time>
      </trkpt>
      <trkpt lat="44.52513" lon="4.2782">
        <ele>320</ele>
        <time>2016-05-15T08:18:37.000Z</time>
      </trkpt>
      <trkpt lat="44.52515" lon="4.2782">
        <ele>320</ele>
        <time>2016-05-15T08:18:38.000Z</time>
      </trkpt>
      <trkpt lat="44.52517" lon="4.27821">
        <ele>320</ele>
        <time>2016-05-15T08:18:39.000Z</time>
      </trkpt>
      <trkpt lat="44.52519" lon="4.27823">
        <ele>320</ele>
        <time>2016-05-15T08:18:40.000Z</time>
      </trkpt>
      <trkpt lat="44.52521" lon="4.27824">
        <ele>320</ele>
        <time>2016-05-15T08:18:41.000Z</time>
      </trkpt>
      <trkpt lat="44.52523" lon="4.27824">
        <ele>320</ele>
        <time>2016-05-15T08:18:42.000Z</time>
      </trkpt>
      <trkpt lat="44.52525" lon="4.27825">
        <ele>320</ele>
        <time>2016-05-15T08:18:43.000Z</time>
      </trkpt>
      <trkpt lat="44.52528" lon="4.27826">
        <ele>320</ele>
        <time>2016-05-15T08:18:44.000Z</time>
      </trkpt>
      <trkpt lat="44.5253" lon="4.27827">
        <ele>320</ele>
        <time>2016-05-15T08:18:45.000Z</time>
      </trkpt>
      <trkpt lat="44.52532" lon="4.27828">
        <ele>320</ele>
        <time>2016-05-15T08:18:46.000Z</time>
      </trkpt>
      <trkpt lat="44.52534" lon="4.27829">
        <ele>320</ele>
        <time>2016-05-15T08:18:47.000Z</time>
      </trkpt>
      <trkpt lat="44.52536" lon="4.27831">
        <ele>320</ele>
        <time>2016-05-15T08:18:48.000Z</time>
      </trkpt>
      <trkpt lat="44.52538" lon="4.27832">
        <ele>320</ele>
        <time>2016-05-15T08:18:49.000Z</time>
      </trkpt>
      <trkpt lat="44.5254" lon="4.27834">
        <ele>318</ele>
        <time>2016-05-15T08:18:50.000Z</time>
      </trkpt>
      <trkpt lat="44.52541" lon="4.27835">
        <ele>318</ele>
        <time>2016-05-15T08:18:51.000Z</time>
      </trkpt>
      <trkpt lat="44.52543" lon="4.27838">
        <ele>318</ele>
        <time>2016-05-15T08:18:52.000Z</time>
      </trkpt>
      <trkpt lat="44.52545" lon="4.2784">
        <ele>318</ele>
        <time>2016-05-15T08:18:53.000Z</time>
      </trkpt>
      <trkpt lat="44.52547" lon="4.27842">
        <ele>318</ele>
        <time>2016-05-15T08:18:54.000Z</time>
      </trkpt>
      <trkpt lat="44.52549" lon="4.27844">
        <ele>318</ele>
        <time>2016-05-15T08:18:55.000Z</time>
      </trkpt>
      <trkpt lat="44.52551" lon="4.27846">
        <ele>318</ele>
        <time>2016-05-15T08:18:56.000Z</time>
      </trkpt>
      <trkpt lat="44.52554" lon="4.27848">
        <ele>318</ele>
        <time>2016-05-15T08:18:57.000Z</time>
      </trkpt>
      <trkpt lat="44.52557" lon="4.27849">
        <ele>318</ele>
        <time>2016-05-15T08:18:58.000Z</time>
      </trkpt>
      <trkpt lat="44.52559" lon="4.27851">
        <ele>319</ele>
        <time>2016-05-15T08:18:59.000Z</time>
      </trkpt>
      <trkpt lat="44.52562" lon="4.27852">
        <ele>319</ele>
        <time>2016-05-15T08:19:00.000Z</time>
      </trkpt>
      <trkpt lat="44.52565" lon="4.27853">
        <ele>319</ele>
        <time>2016-05-15T08:19:01.000Z</time>
      </trkpt>
      <trkpt lat="44.52568" lon="4.27854">
        <ele>319</ele>
        <time>2016-05-15T08:19:02.000Z</time>
      </trkpt>
      <trkpt lat="44.52571" lon="4.27854">
        <ele>319</ele>
        <time>2016-05-15T08:19:03.000Z</time>
      </trkpt>
      <trkpt lat="44.52574" lon="4.27853">
        <ele>319</ele>
        <time>2016-05-15T08:19:04.000Z</time>
      </trkpt>
      <trkpt lat="44.52576" lon="4.27852">
        <ele>319</ele>
        <time>2016-05-15T08:19:05.000Z</time>
      </trkpt>
      <trkpt lat="44.52578" lon="4.2785">
        <ele>319</ele>
        <time>2016-05-15T08:19:06.000Z</time>
      </trkpt>
      <trkpt lat="44.5258" lon="4.27847">
        <ele>319</ele>
        <time>2016-05-15T08:19:07.000Z</time>
      </trkpt>
      <trkpt lat="44.52582" lon="4.27845">
        <ele>319</ele>
        <time>2016-05-15T08:19:08.000Z</time>
      </trkpt>
      <trkpt lat="44.52584" lon="4.27842">
        <ele>320</ele>
        <time>2016-05-15T08:19:09.000Z</time>
      </trkpt>
      <trkpt lat="44.52585" lon="4.27839">
        <ele>320</ele>
        <time>2016-05-15T08:19:10.000Z</time>
      </trkpt>
      <trkpt lat="44.52587" lon="4.27837">
        <ele>320</ele>
        <time>2016-05-15T08:19:11.000Z</time>
      </trkpt>
      <trkpt lat="44.52589" lon="4.27834">
        <ele>320</ele>
        <time>2016-05-15T08:19:12.000Z</time>
      </trkpt>
      <trkpt lat="44.5259" lon="4.27832">
        <ele>321</ele>
        <time>2016-05-15T08:19:13.000Z</time>
      </trkpt>
      <trkpt lat="44.52592" lon="4.27829">
        <ele>321</ele>
        <time>2016-05-15T08:19:14.000Z</time>
      </trkpt>
      <trkpt lat="44.52594" lon="4.27827">
        <ele>321</ele>
        <time>2016-05-15T08:19:15.000Z</time>
      </trkpt>
      <trkpt lat="44.52595" lon="4.27824">
        <ele>321</ele>
        <time>2016-05-15T08:19:16.000Z</time>
      </trkpt>
      <trkpt lat="44.52596" lon="4.27822">
        <ele>322</ele>
        <time>2016-05-15T08:19:17.000Z</time>
      </trkpt>
      <trkpt lat="44.52598" lon="4.27819">
        <ele>322</ele>
        <time>2016-05-15T08:19:18.000Z</time>
      </trkpt>
      <trkpt lat="44.52599" lon="4.27817">
        <ele>322</ele>
        <time>2016-05-15T08:19:19.000Z</time>
      </trkpt>
      <trkpt lat="44.52601" lon="4.27814">
        <ele>322</ele>
        <time>2016-05-15T08:19:20.000Z</time>
      </trkpt>
      <trkpt lat="44.52602" lon="4.27812">
        <ele>322</ele>
        <time>2016-05-15T08:19:21.000Z</time>
      </trkpt>
      <trkpt lat="44.52604" lon="4.27809">
        <ele>322</ele>
        <time>2016-05-15T08:19:22.000Z</time>
      </trkpt>
      <trkpt lat="44.52606" lon="4.27807">
        <ele>322</ele>
        <time>2016-05-15T08:19:23.000Z</time>
      </trkpt>
      <trkpt lat="44.52607" lon="4.27804">
        <ele>322</ele>
        <time>2016-05-15T08:19:24.000Z</time>
      </trkpt>
      <trkpt lat="44.52609" lon="4.27802">
        <ele>323</ele>
        <time>2016-05-15T08:19:25.000Z</time>
      </trkpt>
      <trkpt lat="44.5261" lon="4.278">
        <ele>323</ele>
        <time>2016-05-15T08:19:26.000Z</time>
      </trkpt>
      <trkpt lat="44.52612" lon="4.27797">
        <ele>323</ele>
        <time>2016-05-15T08:19:27.000Z</time>
      </trkpt>
      <trkpt lat="44.52614" lon="4.27794">
        <ele>323</ele>
        <time>2016-05-15T08:19:28.000Z</time>
      </trkpt>
      <trkpt lat="44.52615" lon="4.27792">
        <ele>323</ele>
        <time>2016-05-15T08:19:29.000Z</time>
      </trkpt>
      <trkpt lat="44.52617" lon="4.27789">
        <ele>323</ele>
        <time>2016-05-15T08:19:30.000Z</time>
      </trkpt>
      <trkpt lat="44.52619" lon="4.27787">
        <ele>323</ele>
        <time>2016-05-15T08:19:31.000Z</time>
      </trkpt>
      <trkpt lat="44.52621" lon="4.27784">
        <ele>323</ele>
        <time>2016-05-15T08:19:32.000Z</time>
      </trkpt>
      <trkpt lat="44.52623" lon="4.27781">
        <ele>323</ele>
        <time>2016-05-15T08:19:33.000Z</time>
      </trkpt>
      <trkpt lat="44.52625" lon="4.27778">
        <ele>323</ele>
        <time>2016-05-15T08:19:34.000Z</time>
      </trkpt>
      <trkpt lat="44.52627" lon="4.27776">
        <ele>323</ele>
        <time>2016-05-15T08:19:35.000Z</time>
      </trkpt>
      <trkpt lat="44.52629" lon="4.27773">
        <ele>323</ele>
        <time>2016-05-15T08:19:36.000Z</time>
      </trkpt>
      <trkpt lat="44.52631" lon="4.27771">
        <ele>323</ele>
        <time>2016-05-15T08:19:37.000Z</time>
      </trkpt>
      <trkpt lat="44.52632" lon="4.27768">
        <ele>323</ele>
        <time>2016-05-15T08:19:38.000Z</time>
      </trkpt>
      <trkpt lat="44.52634" lon="4.27766">
        <ele>323</ele>
        <time>2016-05-15T08:19:39.000Z</time>
      </trkpt>
      <trkpt lat="44.52636" lon="4.27764">
        <ele>324</ele>
        <time>2016-05-15T08:19:40.000Z</time>
      </trkpt>
      <trkpt lat="44.52638" lon="4.27762">
        <ele>324</ele>
        <time>2016-05-15T08:19:41.000Z</time>
      </trkpt>
      <trkpt lat="44.5264" lon="4.27759">
        <ele>324</ele>
        <time>2016-05-15T08:19:42.000Z</time>
      </trkpt>
      <trkpt lat="44.52642" lon="4.27757">
        <ele>324</ele>
        <time>2016-05-15T08:19:43.000Z</time>
      </trkpt>
      <trkpt lat="44.52644" lon="4.27755">
        <ele>324</ele>
        <time>2016-05-15T08:19:44.000Z</time>
      </trkpt>
      <trkpt lat="44.52645" lon="4.27752">
        <ele>324</ele>
        <time>2016-05-15T08:19:45.000Z</time>
      </trkpt>
      <trkpt lat="44.52647" lon="4.2775">
        <ele>324</ele>
        <time>2016-05-15T08:19:46.000Z</time>
      </trkpt>
      <trkpt lat="44.52649" lon="4.27747">
        <ele>324</ele>
        <time>2016-05-15T08:19:47.000Z</time>
      </trkpt>
      <trkpt lat="44.5265" lon="4.27744">
        <ele>324</ele>
        <time>2016-05-15T08:19:48.000Z</time>
      </trkpt>
      <trkpt lat="44.52651" lon="4.27741">
        <ele>324</ele>
        <time>2016-05-15T08:19:49.000Z</time>
      </trkpt>
      <trkpt lat="44.52652" lon="4.27737">
        <ele>324</ele>
        <time>2016-05-15T08:19:50.000Z</time>
      </trkpt>
      <trkpt lat="44.52652" lon="4.27734">
        <ele>324</ele>
        <time>2016-05-15T08:19:51.000Z</time>
      </trkpt>
      <trkpt lat="44.52652" lon="4.2773">
        <ele>324</ele>
        <time>2016-05-15T08:19:52.000Z</time>
      </trkpt>
      <trkpt lat="44.52652" lon="4.27726">
        <ele>324</ele>
        <time>2016-05-15T08:19:53.000Z</time>
      </trkpt>
      <trkpt lat="44.52652" lon="4.27722">
        <ele>324</ele>
        <time>2016-05-15T08:19:54.000Z</time>
      </trkpt>
      <trkpt lat="44.52651" lon="4.27718">
        <ele>324</ele>
        <time>2016-05-15T08:19:55.000Z</time>
      </trkpt>
      <trkpt lat="44.52651" lon="4.27714">
        <ele>324</ele>
        <time>2016-05-15T08:19:56.000Z</time>
      </trkpt>
      <trkpt lat="44.52651" lon="4.27711">
        <ele>324</ele>
        <time>2016-05-15T08:19:57.000Z</time>
      </trkpt>
      <trkpt lat="44.5265" lon="4.27706">
        <ele>324</ele>
        <time>2016-05-15T08:19:58.000Z</time>
      </trkpt>
      <trkpt lat="44.5265" lon="4.27702">
        <ele>324</ele>
        <time>2016-05-15T08:19:59.000Z</time>
      </trkpt>
      <trkpt lat="44.5265" lon="4.27698">
        <ele>324</ele>
        <time>2016-05-15T08:20:00.000Z</time>
      </trkpt>
      <trkpt lat="44.52649" lon="4.27694">
        <ele>324</ele>
        <time>2016-05-15T08:20:01.000Z</time>
      </trkpt>
      <trkpt lat="44.52649" lon="4.2769">
        <ele>324</ele>
        <time>2016-05-15T08:20:02.000Z</time>
      </trkpt>
      <trkpt lat="44.52649" lon="4.27686">
        <ele>324</ele>
        <time>2016-05-15T08:20:03.000Z</time>
      </trkpt>
      <trkpt lat="44.52649" lon="4.27682">
        <ele>324</ele>
        <time>2016-05-15T08:20:04.000Z</time>
      </trkpt>
      <trkpt lat="44.52649" lon="4.27678">
        <ele>324</ele>
        <time>2016-05-15T08:20:05.000Z</time>
      </trkpt>
      <trkpt lat="44.5265" lon="4.27676">
        <ele>324</ele>
        <time>2016-05-15T08:20:06.000Z</time>
      </trkpt>
      <trkpt lat="44.52652" lon="4.27675">
        <ele>324</ele>
        <time>2016-05-15T08:20:07.000Z</time>
      </trkpt>
      <trkpt lat="44.52654" lon="4.27674">
        <ele>324</ele>
        <time>2016-05-15T08:20:08.000Z</time>
      </trkpt>
      <trkpt lat="44.52656" lon="4.27675">
        <ele>324</ele>
        <time>2016-05-15T08:20:09.000Z</time>
      </trkpt>
      <trkpt lat="44.52659" lon="4.27675">
        <ele>325</ele>
        <time>2016-05-15T08:20:10.000Z</time>
      </trkpt>
      <trkpt lat="44.52661" lon="4.27676">
        <ele>325</ele>
        <time>2016-05-15T08:20:11.000Z</time>
      </trkpt>
      <trkpt lat="44.52663" lon="4.27677">
        <ele>325</ele>
        <time>2016-05-15T08:20:12.000Z</time>
      </trkpt>
      <trkpt lat="44.52665" lon="4.27679">
        <ele>325</ele>
        <time>2016-05-15T08:20:13.000Z</time>
      </trkpt>
      <trkpt lat="44.52667" lon="4.27679">
        <ele>326</ele>
        <time>2016-05-15T08:20:14.000Z</time>
      </trkpt>
      <trkpt lat="44.5267" lon="4.2768">
        <ele>326</ele>
        <time>2016-05-15T08:20:15.000Z</time>
      </trkpt>
      <trkpt lat="44.52672" lon="4.27681">
        <ele>326</ele>
        <time>2016-05-15T08:20:16.000Z</time>
      </trkpt>
      <trkpt lat="44.52674" lon="4.27682">
        <ele>326</ele>
        <time>2016-05-15T08:20:17.000Z</time>
      </trkpt>
      <trkpt lat="44.52676" lon="4.27683">
        <ele>326</ele>
        <time>2016-05-15T08:20:18.000Z</time>
      </trkpt>
      <trkpt lat="44.52678" lon="4.27684">
        <ele>327</ele>
        <time>2016-05-15T08:20:19.000Z</time>
      </trkpt>
      <trkpt lat="44.52681" lon="4.27685">
        <ele>327</ele>
        <time>2016-05-15T08:20:20.000Z</time>
      </trkpt>
      <trkpt lat="44.52683" lon="4.27686">
        <ele>327</ele>
        <time>2016-05-15T08:20:21.000Z</time>
      </trkpt>
      <trkpt lat="44.52685" lon="4.27687">
        <ele>327</ele>
        <time>2016-05-15T08:20:22.000Z</time>
      </trkpt>
      <trkpt lat="44.52687" lon="4.27688">
        <ele>327</ele>
        <time>2016-05-15T08:20:23.000Z</time>
      </trkpt>
      <trkpt lat="44.52689" lon="4.2769">
        <ele>327</ele>
        <time>2016-05-15T08:20:24.000Z</time>
      </trkpt>
      <trkpt lat="44.5269" lon="4.27691">
        <ele>327</ele>
        <time>2016-05-15T08:20:25.000Z</time>
      </trkpt>
      <trkpt lat="44.52692" lon="4.27692">
        <ele>327</ele>
        <time>2016-05-15T08:20:26.000Z</time>
      </trkpt>
      <trkpt lat="44.52694" lon="4.27693">
        <ele>327</ele>
        <time>2016-05-15T08:20:27.000Z</time>
      </trkpt>
      <trkpt lat="44.52697" lon="4.27695">
        <ele>327</ele>
        <time>2016-05-15T08:20:28.000Z</time>
      </trkpt>
      <trkpt lat="44.52699" lon="4.27696">
        <ele>327</ele>
        <time>2016-05-15T08:20:29.000Z</time>
      </trkpt>
      <trkpt lat="44.52701" lon="4.27697">
        <ele>328</ele>
        <time>2016-05-15T08:20:30.000Z</time>
      </trkpt>
      <trkpt lat="44.52703" lon="4.27698">
        <ele>328</ele>
        <time>2016-05-15T08:20:31.000Z</time>
      </trkpt>
      <trkpt lat="44.52706" lon="4.27699">
        <ele>328</ele>
        <time>2016-05-15T08:20:32.000Z</time>
      </trkpt>
      <trkpt lat="44.52708" lon="4.27699">
        <ele>328</ele>
        <time>2016-05-15T08:20:33.000Z</time>
      </trkpt>
      <trkpt lat="44.5271" lon="4.277">
        <ele>328</ele>
        <time>2016-05-15T08:20:34.000Z</time>
      </trkpt>
      <trkpt lat="44.52712" lon="4.277">
        <ele>328</ele>
        <time>2016-05-15T08:20:35.000Z</time>
      </trkpt>
      <trkpt lat="44.52715" lon="4.27701">
        <ele>328</ele>
        <time>2016-05-15T08:20:36.000Z</time>
      </trkpt>
      <trkpt lat="44.52717" lon="4.27701">
        <ele>328</ele>
        <time>2016-05-15T08:20:37.000Z</time>
      </trkpt>
      <trkpt lat="44.52719" lon="4.27702">
        <ele>328</ele>
        <time>2016-05-15T08:20:38.000Z</time>
      </trkpt>
      <trkpt lat="44.52721" lon="4.27703">
        <ele>328</ele>
        <time>2016-05-15T08:20:39.000Z</time>
      </trkpt>
      <trkpt lat="44.52724" lon="4.27704">
        <ele>328</ele>
        <time>2016-05-15T08:20:40.000Z</time>
      </trkpt>
      <trkpt lat="44.52726" lon="4.27704">
        <ele>328</ele>
        <time>2016-05-15T08:20:41.000Z</time>
      </trkpt>
      <trkpt lat="44.52728" lon="4.27705">
        <ele>328</ele>
        <time>2016-05-15T08:20:42.000Z</time>
      </trkpt>
      <trkpt lat="44.52731" lon="4.27705">
        <ele>328</ele>
        <time>2016-05-15T08:20:43.000Z</time>
      </trkpt>
      <trkpt lat="44.52733" lon="4.27706">
        <ele>329</ele>
        <time>2016-05-15T08:20:44.000Z</time>
      </trkpt>
      <trkpt lat="44.52735" lon="4.27707">
        <ele>329</ele>
        <time>2016-05-15T08:20:45.000Z</time>
      </trkpt>
      <trkpt lat="44.52736" lon="4.27706">
        <ele>329</ele>
        <time>2016-05-15T08:20:46.000Z</time>
      </trkpt>
      <trkpt lat="44.52738" lon="4.27706">
        <ele>329</ele>
        <time>2016-05-15T08:20:47.000Z</time>
      </trkpt>
      <trkpt lat="44.5274" lon="4.27704">
        <ele>329</ele>
        <time>2016-05-15T08:20:48.000Z</time>
      </trkpt>
      <trkpt lat="44.52741" lon="4.27701">
        <ele>329</ele>
        <time>2016-05-15T08:20:49.000Z</time>
      </trkpt>
      <trkpt lat="44.52742" lon="4.27699">
        <ele>329</ele>
        <time>2016-05-15T08:20:50.000Z</time>
      </trkpt>
      <trkpt lat="44.52742" lon="4.27696">
        <ele>329</ele>
        <time>2016-05-15T08:20:51.000Z</time>
      </trkpt>
      <trkpt lat="44.52741" lon="4.27693">
        <ele>329</ele>
        <time>2016-05-15T08:20:52.000Z</time>
      </trkpt>
      <trkpt lat="44.52741" lon="4.2769">
        <ele>329</ele>
        <time>2016-05-15T08:20:53.000Z</time>
      </trkpt>
      <trkpt lat="44.52741" lon="4.27687">
        <ele>329</ele>
        <time>2016-05-15T08:20:54.000Z</time>
      </trkpt>
      <trkpt lat="44.52741" lon="4.27685">
        <ele>329</ele>
        <time>2016-05-15T08:20:55.000Z</time>
      </trkpt>
      <trkpt lat="44.52741" lon="4.27682">
        <ele>329</ele>
        <time>2016-05-15T08:20:56.000Z</time>
      </trkpt>
      <trkpt lat="44.52741" lon="4.27679">
        <ele>330</ele>
        <time>2016-05-15T08:20:57.000Z</time>
      </trkpt>
      <trkpt lat="44.52741" lon="4.27676">
        <ele>330</ele>
        <time>2016-05-15T08:20:58.000Z</time>
      </trkpt>
      <trkpt lat="44.52741" lon="4.27673">
        <ele>330</ele>
        <time>2016-05-15T08:20:59.000Z</time>
      </trkpt>
      <trkpt lat="44.52741" lon="4.2767">
        <ele>330</ele>
        <time>2016-05-15T08:21:00.000Z</time>
      </trkpt>
      <trkpt lat="44.52741" lon="4.27667">
        <ele>330</ele>
        <time>2016-05-15T08:21:01.000Z</time>
      </trkpt>
      <trkpt lat="44.52741" lon="4.27663">
        <ele>330</ele>
        <time>2016-05-15T08:21:02.000Z</time>
      </trkpt>
      <trkpt lat="44.52741" lon="4.2766">
        <ele>330</ele>
        <time>2016-05-15T08:21:03.000Z</time>
      </trkpt>
      <trkpt lat="44.52742" lon="4.27656">
        <ele>330</ele>
        <time>2016-05-15T08:21:04.000Z</time>
      </trkpt>
      <trkpt lat="44.52742" lon="4.27653">
        <ele>330</ele>
        <time>2016-05-15T08:21:05.000Z</time>
      </trkpt>
      <trkpt lat="44.52742" lon="4.27649">
        <ele>330</ele>
        <time>2016-05-15T08:21:06.000Z</time>
      </trkpt>
      <trkpt lat="44.52742" lon="4.27646">
        <ele>330</ele>
        <time>2016-05-15T08:21:07.000Z</time>
      </trkpt>
      <trkpt lat="44.52742" lon="4.27643">
        <ele>330</ele>
        <time>2016-05-15T08:21:08.000Z</time>
      </trkpt>
      <trkpt lat="44.52742" lon="4.27639">
        <ele>330</ele>
        <time>2016-05-15T08:21:09.000Z</time>
      </trkpt>
      <trkpt lat="44.52743" lon="4.27636">
        <ele>330</ele>
        <time>2016-05-15T08:21:10.000Z</time>
      </trkpt>
      <trkpt lat="44.52743" lon="4.27633">
        <ele>330</ele>
        <time>2016-05-15T08:21:11.000Z</time>
      </trkpt>
      <trkpt lat="44.52743" lon="4.2763">
        <ele>330</ele>
        <time>2016-05-15T08:21:12.000Z</time>
      </trkpt>
      <trkpt lat="44.52743" lon="4.27626">
        <ele>330</ele>
        <time>2016-05-15T08:21:13.000Z</time>
      </trkpt>
      <trkpt lat="44.52743" lon="4.27623">
        <ele>330</ele>
        <time>2016-05-15T08:21:14.000Z</time>
      </trkpt>
      <trkpt lat="44.52745" lon="4.2762">
        <ele>330</ele>
        <time>2016-05-15T08:21:15.000Z</time>
      </trkpt>
      <trkpt lat="44.52747" lon="4.27618">
        <ele>330</ele>
        <time>2016-05-15T08:21:16.000Z</time>
      </trkpt>
      <trkpt lat="44.52749" lon="4.27617">
        <ele>330</ele>
        <time>2016-05-15T08:21:17.000Z</time>
      </trkpt>
      <trkpt lat="44.52751" lon="4.27617">
        <ele>334</ele>
        <time>2016-05-15T08:21:18.000Z</time>
      </trkpt>
      <trkpt lat="44.52753" lon="4.27617">
        <ele>334</ele>
        <time>2016-05-15T08:21:19.000Z</time>
      </trkpt>
      <trkpt lat="44.52755" lon="4.27617">
        <ele>334</ele>
        <time>2016-05-15T08:21:20.000Z</time>
      </trkpt>
      <trkpt lat="44.52757" lon="4.27619">
        <ele>334</ele>
        <time>2016-05-15T08:21:21.000Z</time>
      </trkpt>
      <trkpt lat="44.5276" lon="4.2762">
        <ele>334</ele>
        <time>2016-05-15T08:21:22.000Z</time>
      </trkpt>
      <trkpt lat="44.52762" lon="4.27622">
        <ele>334</ele>
        <time>2016-05-15T08:21:23.000Z</time>
      </trkpt>
      <trkpt lat="44.52764" lon="4.27624">
        <ele>334</ele>
        <time>2016-05-15T08:21:24.000Z</time>
      </trkpt>
      <trkpt lat="44.52765" lon="4.27626">
        <ele>334</ele>
        <time>2016-05-15T08:21:25.000Z</time>
      </trkpt>
      <trkpt lat="44.52767" lon="4.27629">
        <ele>334</ele>
        <time>2016-05-15T08:21:26.000Z</time>
      </trkpt>
      <trkpt lat="44.52769" lon="4.27631">
        <ele>334</ele>
        <time>2016-05-15T08:21:27.000Z</time>
      </trkpt>
      <trkpt lat="44.5277" lon="4.27634">
        <ele>334</ele>
        <time>2016-05-15T08:21:28.000Z</time>
      </trkpt>
      <trkpt lat="44.52772" lon="4.27637">
        <ele>334</ele>
        <time>2016-05-15T08:21:29.000Z</time>
      </trkpt>
      <trkpt lat="44.52773" lon="4.2764">
        <ele>334</ele>
        <time>2016-05-15T08:21:30.000Z</time>
      </trkpt>
      <trkpt lat="44.52774" lon="4.27643">
        <ele>334</ele>
        <time>2016-05-15T08:21:31.000Z</time>
      </trkpt>
      <trkpt lat="44.52775" lon="4.27647">
        <ele>334</ele>
        <time>2016-05-15T08:21:32.000Z</time>
      </trkpt>
      <trkpt lat="44.52776" lon="4.2765">
        <ele>334</ele>
        <time>2016-05-15T08:21:33.000Z</time>
      </trkpt>
      <trkpt lat="44.52777" lon="4.27653">
        <ele>334</ele>
        <time>2016-05-15T08:21:34.000Z</time>
      </trkpt>
      <trkpt lat="44.52778" lon="4.27657">
        <ele>334</ele>
        <time>2016-05-15T08:21:35.000Z</time>
      </trkpt>
      <trkpt lat="44.5278" lon="4.2766">
        <ele>334</ele>
        <time>2016-05-15T08:21:36.000Z</time>
      </trkpt>
      <trkpt lat="44.52781" lon="4.27664">
        <ele>334</ele>
        <time>2016-05-15T08:21:37.000Z</time>
      </trkpt>
      <trkpt lat="44.52782" lon="4.27667">
        <ele>332</ele>
        <time>2016-05-15T08:21:38.000Z</time>
      </trkpt>
      <trkpt lat="44.52782" lon="4.27671">
        <ele>331</ele>
        <time>2016-05-15T08:21:39.000Z</time>
      </trkpt>
      <trkpt lat="44.52783" lon="4.27675">
        <ele>331</ele>
        <time>2016-05-15T08:21:40.000Z</time>
      </trkpt>
      <trkpt lat="44.52784" lon="4.27678">
        <ele>331</ele>
        <time>2016-05-15T08:21:41.000Z</time>
      </trkpt>
      <trkpt lat="44.52786" lon="4.2768">
        <ele>332</ele>
        <time>2016-05-15T08:21:42.000Z</time>
      </trkpt>
      <trkpt lat="44.52789" lon="4.27682">
        <ele>332</ele>
        <time>2016-05-15T08:21:43.000Z</time>
      </trkpt>
      <trkpt lat="44.52791" lon="4.27683">
        <ele>332</ele>
        <time>2016-05-15T08:21:44.000Z</time>
      </trkpt>
      <trkpt lat="44.52794" lon="4.27685">
        <ele>332</ele>
        <time>2016-05-15T08:21:45.000Z</time>
      </trkpt>
      <trkpt lat="44.52796" lon="4.27686">
        <ele>332</ele>
        <time>2016-05-15T08:21:46.000Z</time>
      </trkpt>
      <trkpt lat="44.52799" lon="4.27687">
        <ele>332</ele>
        <time>2016-05-15T08:21:47.000Z</time>
      </trkpt>
      <trkpt lat="44.52802" lon="4.27687">
        <ele>332</ele>
        <time>2016-05-15T08:21:48.000Z</time>
      </trkpt>
      <trkpt lat="44.52804" lon="4.27685">
        <ele>332</ele>
        <time>2016-05-15T08:21:49.000Z</time>
      </trkpt>
      <trkpt lat="44.52806" lon="4.27682">
        <ele>332</ele>
        <time>2016-05-15T08:21:50.000Z</time>
      </trkpt>
      <trkpt lat="44.52807" lon="4.27679">
        <ele>332</ele>
        <time>2016-05-15T08:21:51.000Z</time>
      </trkpt>
      <trkpt lat="44.52808" lon="4.27676">
        <ele>332</ele>
        <time>2016-05-15T08:21:52.000Z</time>
      </trkpt>
      <trkpt lat="44.52809" lon="4.27672">
        <ele>332</ele>
        <time>2016-05-15T08:21:53.000Z</time>
      </trkpt>
      <trkpt lat="44.52811" lon="4.2767">
        <ele>332</ele>
        <time>2016-05-15T08:21:54.000Z</time>
      </trkpt>
      <trkpt lat="44.52813" lon="4.27668">
        <ele>332</ele>
        <time>2016-05-15T08:21:55.000Z</time>
      </trkpt>
      <trkpt lat="44.52816" lon="4.27668">
        <ele>333</ele>
        <time>2016-05-15T08:21:56.000Z</time>
      </trkpt>
      <trkpt lat="44.52818" lon="4.27668">
        <ele>333</ele>
        <time>2016-05-15T08:21:57.000Z</time>
      </trkpt>
      <trkpt lat="44.5282" lon="4.27669">
        <ele>333</ele>
        <time>2016-05-15T08:21:58.000Z</time>
      </trkpt>
      <trkpt lat="44.52823" lon="4.27669">
        <ele>333</ele>
        <time>2016-05-15T08:21:59.000Z</time>
      </trkpt>
      <trkpt lat="44.52826" lon="4.2767">
        <ele>333</ele>
        <time>2016-05-15T08:22:00.000Z</time>
      </trkpt>
      <trkpt lat="44.52828" lon="4.27671">
        <ele>333</ele>
        <time>2016-05-15T08:22:01.000Z</time>
      </trkpt>
      <trkpt lat="44.52831" lon="4.27671">
        <ele>333</ele>
        <time>2016-05-15T08:22:02.000Z</time>
      </trkpt>
      <trkpt lat="44.52834" lon="4.27672">
        <ele>335</ele>
        <time>2016-05-15T08:22:03.000Z</time>
      </trkpt>
      <trkpt lat="44.52836" lon="4.27673">
        <ele>335</ele>
        <time>2016-05-15T08:22:04.000Z</time>
      </trkpt>
      <trkpt lat="44.52839" lon="4.27673">
        <ele>335</ele>
        <time>2016-05-15T08:22:05.000Z</time>
      </trkpt>
      <trkpt lat="44.52841" lon="4.27674">
        <ele>336</ele>
        <time>2016-05-15T08:22:06.000Z</time>
      </trkpt>
      <trkpt lat="44.52844" lon="4.27675">
        <ele>336</ele>
        <time>2016-05-15T08:22:07.000Z</time>
      </trkpt>
      <trkpt lat="44.52846" lon="4.27675">
        <ele>336</ele>
        <time>2016-05-15T08:22:08.000Z</time>
      </trkpt>
      <trkpt lat="44.52849" lon="4.27676">
        <ele>337</ele>
        <time>2016-05-15T08:22:09.000Z</time>
      </trkpt>
      <trkpt lat="44.52851" lon="4.27677">
        <ele>337</ele>
        <time>2016-05-15T08:22:10.000Z</time>
      </trkpt>
      <trkpt lat="44.52853" lon="4.27677">
        <ele>337</ele>
        <time>2016-05-15T08:22:11.000Z</time>
      </trkpt>
      <trkpt lat="44.52856" lon="4.27677">
        <ele>337</ele>
        <time>2016-05-15T08:22:12.000Z</time>
      </trkpt>
      <trkpt lat="44.52858" lon="4.27678">
        <ele>338</ele>
        <time>2016-05-15T08:22:13.000Z</time>
      </trkpt>
      <trkpt lat="44.5286" lon="4.27679">
        <ele>338</ele>
        <time>2016-05-15T08:22:14.000Z</time>
      </trkpt>
      <trkpt lat="44.52862" lon="4.27679">
        <ele>338</ele>
        <time>2016-05-15T08:22:15.000Z</time>
      </trkpt>
      <trkpt lat="44.52865" lon="4.2768">
        <ele>338</ele>
        <time>2016-05-15T08:22:16.000Z</time>
      </trkpt>
      <trkpt lat="44.52867" lon="4.2768">
        <ele>339</ele>
        <time>2016-05-15T08:22:17.000Z</time>
      </trkpt>
      <trkpt lat="44.52869" lon="4.27681">
        <ele>339</ele>
        <time>2016-05-15T08:22:18.000Z</time>
      </trkpt>
      <trkpt lat="44.52872" lon="4.27681">
        <ele>339</ele>
        <time>2016-05-15T08:22:19.000Z</time>
      </trkpt>
      <trkpt lat="44.52874" lon="4.27681">
        <ele>339</ele>
        <time>2016-05-15T08:22:20.000Z</time>
      </trkpt>
      <trkpt lat="44.52876" lon="4.27681">
        <ele>340</ele>
        <time>2016-05-15T08:22:21.000Z</time>
      </trkpt>
      <trkpt lat="44.52879" lon="4.27682">
        <ele>340</ele>
        <time>2016-05-15T08:22:22.000Z</time>
      </trkpt>
      <trkpt lat="44.52881" lon="4.27683">
        <ele>340</ele>
        <time>2016-05-15T08:22:23.000Z</time>
      </trkpt>
      <trkpt lat="44.52883" lon="4.27683">
        <ele>340</ele>
        <time>2016-05-15T08:22:24.000Z</time>
      </trkpt>
      <trkpt lat="44.52886" lon="4.27683">
        <ele>341</ele>
        <time>2016-05-15T08:22:25.000Z</time>
      </trkpt>
      <trkpt lat="44.52888" lon="4.27684">
        <ele>341</ele>
        <time>2016-05-15T08:22:26.000Z</time>
      </trkpt>
      <trkpt lat="44.5289" lon="4.27684">
        <ele>341</ele>
        <time>2016-05-15T08:22:27.000Z</time>
      </trkpt>
      <trkpt lat="44.52892" lon="4.27685">
        <ele>341</ele>
        <time>2016-05-15T08:22:28.000Z</time>
      </trkpt>
      <trkpt lat="44.52894" lon="4.27686">
        <ele>342</ele>
        <time>2016-05-15T08:22:29.000Z</time>
      </trkpt>
      <trkpt lat="44.52896" lon="4.27686">
        <ele>342</ele>
        <time>2016-05-15T08:22:30.000Z</time>
      </trkpt>
      <trkpt lat="44.52898" lon="4.27687">
        <ele>342</ele>
        <time>2016-05-15T08:22:31.000Z</time>
      </trkpt>
      <trkpt lat="44.529" lon="4.27687">
        <ele>342</ele>
        <time>2016-05-15T08:22:32.000Z</time>
      </trkpt>
      <trkpt lat="44.52902" lon="4.27687">
        <ele>342</ele>
        <time>2016-05-15T08:22:33.000Z</time>
      </trkpt>
      <trkpt lat="44.52903" lon="4.27687">
        <ele>342</ele>
        <time>2016-05-15T08:22:34.000Z</time>
      </trkpt>
      <trkpt lat="44.52905" lon="4.27687">
        <ele>343</ele>
        <time>2016-05-15T08:22:35.000Z</time>
      </trkpt>
      <trkpt lat="44.52907" lon="4.27688">
        <ele>343</ele>
        <time>2016-05-15T08:22:36.000Z</time>
      </trkpt>
      <trkpt lat="44.52908" lon="4.27688">
        <ele>343</ele>
        <time>2016-05-15T08:22:37.000Z</time>
      </trkpt>
      <trkpt lat="44.5291" lon="4.27688">
        <ele>343</ele>
        <time>2016-05-15T08:22:38.000Z</time>
      </trkpt>
      <trkpt lat="44.52912" lon="4.27688">
        <ele>343</ele>
        <time>2016-05-15T08:22:39.000Z</time>
      </trkpt>
      <trkpt lat="44.52913" lon="4.27689">
        <ele>343</ele>
        <time>2016-05-15T08:22:40.000Z</time>
      </trkpt>
      <trkpt lat="44.52915" lon="4.27688">
        <ele>343</ele>
        <time>2016-05-15T08:22:41.000Z</time>
      </trkpt>
      <trkpt lat="44.52917" lon="4.27687">
        <ele>347</ele>
        <time>2016-05-15T08:22:42.000Z</time>
      </trkpt>
      <trkpt lat="44.52918" lon="4.27687">
        <ele>347</ele>
        <time>2016-05-15T08:22:43.000Z</time>
      </trkpt>
      <trkpt lat="44.52919" lon="4.27686">
        <ele>347</ele>
        <time>2016-05-15T08:22:44.000Z</time>
      </trkpt>
      <trkpt lat="44.52921" lon="4.27685">
        <ele>347</ele>
        <time>2016-05-15T08:22:45.000Z</time>
      </trkpt>
      <trkpt lat="44.52923" lon="4.27684">
        <ele>347</ele>
        <time>2016-05-15T08:22:46.000Z</time>
      </trkpt>
      <trkpt lat="44.52925" lon="4.27683">
        <ele>347</ele>
        <time>2016-05-15T08:22:47.000Z</time>
      </trkpt>
      <trkpt lat="44.52927" lon="4.27682">
        <ele>347</ele>
        <time>2016-05-15T08:22:48.000Z</time>
      </trkpt>
      <trkpt lat="44.52929" lon="4.27681">
        <ele>347</ele>
        <time>2016-05-15T08:22:49.000Z</time>
      </trkpt>
      <trkpt lat="44.52931" lon="4.27679">
        <ele>347</ele>
        <time>2016-05-15T08:22:50.000Z</time>
      </trkpt>
      <trkpt lat="44.52932" lon="4.27678">
        <ele>347</ele>
        <time>2016-05-15T08:22:51.000Z</time>
      </trkpt>
      <trkpt lat="44.52934" lon="4.27677">
        <ele>347</ele>
        <time>2016-05-15T08:22:52.000Z</time>
      </trkpt>
      <trkpt lat="44.52936" lon="4.27677">
        <ele>347</ele>
        <time>2016-05-15T08:22:53.000Z</time>
      </trkpt>
      <trkpt lat="44.52938" lon="4.27676">
        <ele>347</ele>
        <time>2016-05-15T08:22:54.000Z</time>
      </trkpt>
      <trkpt lat="44.5294" lon="4.27676">
        <ele>347</ele>
        <time>2016-05-15T08:22:55.000Z</time>
      </trkpt>
      <trkpt lat="44.52942" lon="4.27676">
        <ele>347</ele>
        <time>2016-05-15T08:22:56.000Z</time>
      </trkpt>
      <trkpt lat="44.52944" lon="4.27675">
        <ele>347</ele>
        <time>2016-05-15T08:22:57.000Z</time>
      </trkpt>
      <trkpt lat="44.52946" lon="4.27674">
        <ele>347</ele>
        <time>2016-05-15T08:22:58.000Z</time>
      </trkpt>
      <trkpt lat="44.52948" lon="4.27674">
        <ele>347</ele>
        <time>2016-05-15T08:22:59.000Z</time>
      </trkpt>
      <trkpt lat="44.5295" lon="4.27673">
        <ele>347</ele>
        <time>2016-05-15T08:23:00.000Z</time>
      </trkpt>
      <trkpt lat="44.52952" lon="4.27673">
        <ele>347</ele>
        <time>2016-05-15T08:23:01.000Z</time>
      </trkpt>
      <trkpt lat="44.52954" lon="4.27672">
        <ele>347</ele>
        <time>2016-05-15T08:23:02.000Z</time>
      </trkpt>
      <trkpt lat="44.52956" lon="4.27671">
        <ele>347</ele>
        <time>2016-05-15T08:23:03.000Z</time>
      </trkpt>
      <trkpt lat="44.52957" lon="4.27669">
        <ele>347</ele>
        <time>2016-05-15T08:23:04.000Z</time>
      </trkpt>
      <trkpt lat="44.52958" lon="4.27666">
        <ele>350</ele>
        <time>2016-05-15T08:23:05.000Z</time>
      </trkpt>
      <trkpt lat="44.52958" lon="4.27663">
        <ele>350</ele>
        <time>2016-05-15T08:23:06.000Z</time>
      </trkpt>
      <trkpt lat="44.52958" lon="4.2766">
        <ele>350</ele>
        <time>2016-05-15T08:23:07.000Z</time>
      </trkpt>
      <trkpt lat="44.52958" lon="4.27657">
        <ele>350</ele>
        <time>2016-05-15T08:23:08.000Z</time>
      </trkpt>
      <trkpt lat="44.52957" lon="4.27654">
        <ele>350</ele>
        <time>2016-05-15T08:23:09.000Z</time>
      </trkpt>
      <trkpt lat="44.52957" lon="4.2765">
        <ele>350</ele>
        <time>2016-05-15T08:23:10.000Z</time>
      </trkpt>
      <trkpt lat="44.52956" lon="4.27647">
        <ele>350</ele>
        <time>2016-05-15T08:23:11.000Z</time>
      </trkpt>
      <trkpt lat="44.52956" lon="4.27643">
        <ele>350</ele>
        <time>2016-05-15T08:23:12.000Z</time>
      </trkpt>
      <trkpt lat="44.52955" lon="4.2764">
        <ele>351</ele>
        <time>2016-05-15T08:23:13.000Z</time>
      </trkpt>
      <trkpt lat="44.52955" lon="4.27637">
        <ele>351</ele>
        <time>2016-05-15T08:23:14.000Z</time>
      </trkpt>
      <trkpt lat="44.52954" lon="4.27633">
        <ele>351</ele>
        <time>2016-05-15T08:23:15.000Z</time>
      </trkpt>
      <trkpt lat="44.52954" lon="4.2763">
        <ele>351</ele>
        <time>2016-05-15T08:23:16.000Z</time>
      </trkpt>
      <trkpt lat="44.52953" lon="4.27626">
        <ele>351</ele>
        <time>2016-05-15T08:23:17.000Z</time>
      </trkpt>
      <trkpt lat="44.52953" lon="4.27623">
        <ele>351</ele>
        <time>2016-05-15T08:23:18.000Z</time>
      </trkpt>
      <trkpt lat="44.52952" lon="4.27619">
        <ele>351</ele>
        <time>2016-05-15T08:23:19.000Z</time>
      </trkpt>
      <trkpt lat="44.52951" lon="4.27615">
        <ele>351</ele>
        <time>2016-05-15T08:23:20.000Z</time>
      </trkpt>
      <trkpt lat="44.52951" lon="4.27612">
        <ele>351</ele>
        <time>2016-05-15T08:23:21.000Z</time>
      </trkpt>
      <trkpt lat="44.52951" lon="4.27609">
        <ele>351</ele>
        <time>2016-05-15T08:23:22.000Z</time>
      </trkpt>
      <trkpt lat="44.5295" lon="4.27605">
        <ele>352</ele>
        <time>2016-05-15T08:23:23.000Z</time>
      </trkpt>
      <trkpt lat="44.5295" lon="4.27601">
        <ele>352</ele>
        <time>2016-05-15T08:23:24.000Z</time>
      </trkpt>
      <trkpt lat="44.52949" lon="4.27598">
        <ele>352</ele>
        <time>2016-05-15T08:23:25.000Z</time>
      </trkpt>
      <trkpt lat="44.52949" lon="4.27594">
        <ele>352</ele>
        <time>2016-05-15T08:23:26.000Z</time>
      </trkpt>
      <trkpt lat="44.52948" lon="4.2759">
        <ele>352</ele>
        <time>2016-05-15T08:23:27.000Z</time>
      </trkpt>
      <trkpt lat="44.52948" lon="4.27587">
        <ele>352</ele>
        <time>2016-05-15T08:23:28.000Z</time>
      </trkpt>
      <trkpt lat="44.52947" lon="4.27583">
        <ele>355</ele>
        <time>2016-05-15T08:23:29.000Z</time>
      </trkpt>
      <trkpt lat="44.52946" lon="4.2758">
        <ele>355</ele>
        <time>2016-05-15T08:23:30.000Z</time>
      </trkpt>
      <trkpt lat="44.52945" lon="4.27577">
        <ele>355</ele>
        <time>2016-05-15T08:23:31.000Z</time>
      </trkpt>
      <trkpt lat="44.52945" lon="4.27573">
        <ele>355</ele>
        <time>2016-05-15T08:23:32.000Z</time>
      </trkpt>
      <trkpt lat="44.52944" lon="4.27569">
        <ele>355</ele>
        <time>2016-05-15T08:23:33.000Z</time>
      </trkpt>
      <trkpt lat="44.52944" lon="4.27565">
        <ele>355</ele>
        <time>2016-05-15T08:23:34.000Z</time>
      </trkpt>
      <trkpt lat="44.52943" lon="4.27562">
        <ele>355</ele>
        <time>2016-05-15T08:23:35.000Z</time>
      </trkpt>
      <trkpt lat="44.52942" lon="4.27558">
        <ele>355</ele>
        <time>2016-05-15T08:23:36.000Z</time>
      </trkpt>
      <trkpt lat="44.52941" lon="4.27554">
        <ele>355</ele>
        <time>2016-05-15T08:23:37.000Z</time>
      </trkpt>
      <trkpt lat="44.5294" lon="4.27551">
        <ele>355</ele>
        <time>2016-05-15T08:23:38.000Z</time>
      </trkpt>
      <trkpt lat="44.52939" lon="4.27547">
        <ele>355</ele>
        <time>2016-05-15T08:23:39.000Z</time>
      </trkpt>
      <trkpt lat="44.52939" lon="4.27543">
        <ele>355</ele>
        <time>2016-05-15T08:23:40.000Z</time>
      </trkpt>
      <trkpt lat="44.52938" lon="4.27539">
        <ele>355</ele>
        <time>2016-05-15T08:23:41.000Z</time>
      </trkpt>
      <trkpt lat="44.52937" lon="4.27535">
        <ele>355</ele>
        <time>2016-05-15T08:23:42.000Z</time>
      </trkpt>
      <trkpt lat="44.52936" lon="4.27531">
        <ele>355</ele>
        <time>2016-05-15T08:23:43.000Z</time>
      </trkpt>
      <trkpt lat="44.52935" lon="4.27527">
        <ele>356</ele>
        <time>2016-05-15T08:23:44.000Z</time>
      </trkpt>
      <trkpt lat="44.52934" lon="4.27524">
        <ele>356</ele>
        <time>2016-05-15T08:23:45.000Z</time>
      </trkpt>
      <trkpt lat="44.52933" lon="4.2752">
        <ele>356</ele>
        <time>2016-05-15T08:23:46.000Z</time>
      </trkpt>
      <trkpt lat="44.52932" lon="4.27516">
        <ele>356</ele>
        <time>2016-05-15T08:23:47.000Z</time>
      </trkpt>
      <trkpt lat="44.52931" lon="4.27512">
        <ele>356</ele>
        <time>2016-05-15T08:23:48.000Z</time>
      </trkpt>
      <trkpt lat="44.5293" lon="4.27509">
        <ele>356</ele>
        <time>2016-05-15T08:23:49.000Z</time>
      </trkpt>
      <trkpt lat="44.52929" lon="4.27505">
        <ele>356</ele>
        <time>2016-05-15T08:23:50.000Z</time>
      </trkpt>
      <trkpt lat="44.52928" lon="4.27501">
        <ele>356</ele>
        <time>2016-05-15T08:23:51.000Z</time>
      </trkpt>
      <trkpt lat="44.52927" lon="4.27497">
        <ele>356</ele>
        <time>2016-05-15T08:23:52.000Z</time>
      </trkpt>
      <trkpt lat="44.52926" lon="4.27494">
        <ele>357</ele>
        <time>2016-05-15T08:23:53.000Z</time>
      </trkpt>
      <trkpt lat="44.52925" lon="4.2749">
        <ele>357</ele>
        <time>2016-05-15T08:23:54.000Z</time>
      </trkpt>
      <trkpt lat="44.52924" lon="4.27487">
        <ele>357</ele>
        <time>2016-05-15T08:23:55.000Z</time>
      </trkpt>
      <trkpt lat="44.52923" lon="4.27484">
        <ele>357</ele>
        <time>2016-05-15T08:23:56.000Z</time>
      </trkpt>
      <trkpt lat="44.52921" lon="4.2748">
        <ele>357</ele>
        <time>2016-05-15T08:23:57.000Z</time>
      </trkpt>
      <trkpt lat="44.5292" lon="4.27477">
        <ele>357</ele>
        <time>2016-05-15T08:23:58.000Z</time>
      </trkpt>
      <trkpt lat="44.52918" lon="4.27474">
        <ele>357</ele>
        <time>2016-05-15T08:23:59.000Z</time>
      </trkpt>
      <trkpt lat="44.52918" lon="4.2747">
        <ele>357</ele>
        <time>2016-05-15T08:24:00.000Z</time>
      </trkpt>
      <trkpt lat="44.52916" lon="4.27467">
        <ele>354</ele>
        <time>2016-05-15T08:24:01.000Z</time>
      </trkpt>
      <trkpt lat="44.52916" lon="4.27463">
        <ele>354</ele>
        <time>2016-05-15T08:24:02.000Z</time>
      </trkpt>
      <trkpt lat="44.52915" lon="4.27459">
        <ele>354</ele>
        <time>2016-05-15T08:24:03.000Z</time>
      </trkpt>
      <trkpt lat="44.52914" lon="4.27456">
        <ele>354</ele>
        <time>2016-05-15T08:24:04.000Z</time>
      </trkpt>
      <trkpt lat="44.52913" lon="4.27452">
        <ele>354</ele>
        <time>2016-05-15T08:24:05.000Z</time>
      </trkpt>
      <trkpt lat="44.52913" lon="4.27448">
        <ele>354</ele>
        <time>2016-05-15T08:24:06.000Z</time>
      </trkpt>
      <trkpt lat="44.52912" lon="4.27444">
        <ele>354</ele>
        <time>2016-05-15T08:24:07.000Z</time>
      </trkpt>
      <trkpt lat="44.52911" lon="4.2744">
        <ele>354</ele>
        <time>2016-05-15T08:24:08.000Z</time>
      </trkpt>
      <trkpt lat="44.5291" lon="4.27435">
        <ele>354</ele>
        <time>2016-05-15T08:24:09.000Z</time>
      </trkpt>
      <trkpt lat="44.52909" lon="4.27431">
        <ele>355</ele>
        <time>2016-05-15T08:24:10.000Z</time>
      </trkpt>
      <trkpt lat="44.52908" lon="4.27427">
        <ele>355</ele>
        <time>2016-05-15T08:24:11.000Z</time>
      </trkpt>
      <trkpt lat="44.52907" lon="4.27423">
        <ele>355</ele>
        <time>2016-05-15T08:24:12.000Z</time>
      </trkpt>
      <trkpt lat="44.52906" lon="4.27419">
        <ele>355</ele>
        <time>2016-05-15T08:24:13.000Z</time>
      </trkpt>
      <trkpt lat="44.52905" lon="4.27414">
        <ele>356</ele>
        <time>2016-05-15T08:24:14.000Z</time>
      </trkpt>
      <trkpt lat="44.52904" lon="4.27409">
        <ele>356</ele>
        <time>2016-05-15T08:24:15.000Z</time>
      </trkpt>
      <trkpt lat="44.52903" lon="4.27405">
        <ele>356</ele>
        <time>2016-05-15T08:24:16.000Z</time>
      </trkpt>
      <trkpt lat="44.52902" lon="4.27401">
        <ele>355</ele>
        <time>2016-05-15T08:24:17.000Z</time>
      </trkpt>
      <trkpt lat="44.52901" lon="4.27397">
        <ele>355</ele>
        <time>2016-05-15T08:24:18.000Z</time>
      </trkpt>
      <trkpt lat="44.52901" lon="4.27393">
        <ele>355</ele>
        <time>2016-05-15T08:24:19.000Z</time>
      </trkpt>
      <trkpt lat="44.529" lon="4.27388">
        <ele>355</ele>
        <time>2016-05-15T08:24:20.000Z</time>
      </trkpt>
      <trkpt lat="44.52899" lon="4.27383">
        <ele>355</ele>
        <time>2016-05-15T08:24:21.000Z</time>
      </trkpt>
      <trkpt lat="44.52899" lon="4.27378">
        <ele>355</ele>
        <time>2016-05-15T08:24:22.000Z</time>
      </trkpt>
      <trkpt lat="44.52899" lon="4.27373">
        <ele>355</ele>
        <time>2016-05-15T08:24:23.000Z</time>
      </trkpt>
      <trkpt lat="44.52898" lon="4.27368">
        <ele>355</ele>
        <time>2016-05-15T08:24:24.000Z</time>
      </trkpt>
      <trkpt lat="44.52898" lon="4.27363">
        <ele>355</ele>
        <time>2016-05-15T08:24:25.000Z</time>
      </trkpt>
      <trkpt lat="44.52898" lon="4.27359">
        <ele>355</ele>
        <time>2016-05-15T08:24:26.000Z</time>
      </trkpt>
      <trkpt lat="44.52897" lon="4.27354">
        <ele>355</ele>
        <time>2016-05-15T08:24:27.000Z</time>
      </trkpt>
      <trkpt lat="44.52897" lon="4.27349">
        <ele>356</ele>
        <time>2016-05-15T08:24:28.000Z</time>
      </trkpt>
      <trkpt lat="44.52897" lon="4.27345">
        <ele>356</ele>
        <time>2016-05-15T08:24:29.000Z</time>
      </trkpt>
      <trkpt lat="44.52896" lon="4.2734">
        <ele>356</ele>
        <time>2016-05-15T08:24:30.000Z</time>
      </trkpt>
      <trkpt lat="44.52896" lon="4.27335">
        <ele>356</ele>
        <time>2016-05-15T08:24:31.000Z</time>
      </trkpt>
      <trkpt lat="44.52896" lon="4.2733">
        <ele>356</ele>
        <time>2016-05-15T08:24:32.000Z</time>
      </trkpt>
      <trkpt lat="44.52896" lon="4.27325">
        <ele>356</ele>
        <time>2016-05-15T08:24:33.000Z</time>
      </trkpt>
      <trkpt lat="44.52895" lon="4.2732">
        <ele>356</ele>
        <time>2016-05-15T08:24:34.000Z</time>
      </trkpt>
      <trkpt lat="44.52895" lon="4.27315">
        <ele>356</ele>
        <time>2016-05-15T08:24:35.000Z</time>
      </trkpt>
      <trkpt lat="44.52895" lon="4.2731">
        <ele>356</ele>
        <time>2016-05-15T08:24:36.000Z</time>
      </trkpt>
      <trkpt lat="44.52894" lon="4.27304">
        <ele>355</ele>
        <time>2016-05-15T08:24:37.000Z</time>
      </trkpt>
      <trkpt lat="44.52894" lon="4.27299">
        <ele>355</ele>
        <time>2016-05-15T08:24:38.000Z</time>
      </trkpt>
      <trkpt lat="44.52894" lon="4.27294">
        <ele>355</ele>
        <time>2016-05-15T08:24:39.000Z</time>
      </trkpt>
      <trkpt lat="44.52893" lon="4.27289">
        <ele>355</ele>
        <time>2016-05-15T08:24:40.000Z</time>
      </trkpt>
      <trkpt lat="44.52893" lon="4.27284">
        <ele>355</ele>
        <time>2016-05-15T08:24:41.000Z</time>
      </trkpt>
      <trkpt lat="44.52893" lon="4.27279">
        <ele>355</ele>
        <time>2016-05-15T08:24:42.000Z</time>
      </trkpt>
      <trkpt lat="44.52893" lon="4.27274">
        <ele>355</ele>
        <time>2016-05-15T08:24:43.000Z</time>
      </trkpt>
      <trkpt lat="44.52893" lon="4.27269">
        <ele>355</ele>
        <time>2016-05-15T08:24:44.000Z</time>
      </trkpt>
      <trkpt lat="44.52892" lon="4.27264">
        <ele>355</ele>
        <time>2016-05-15T08:24:45.000Z</time>
      </trkpt>
      <trkpt lat="44.52892" lon="4.2726">
        <ele>355</ele>
        <time>2016-05-15T08:24:46.000Z</time>
      </trkpt>
      <trkpt lat="44.52892" lon="4.27255">
        <ele>355</ele>
        <time>2016-05-15T08:24:47.000Z</time>
      </trkpt>
      <trkpt lat="44.52892" lon="4.27251">
        <ele>355</ele>
        <time>2016-05-15T08:24:48.000Z</time>
      </trkpt>
      <trkpt lat="44.52893" lon="4.27248">
        <ele>356</ele>
        <time>2016-05-15T08:24:49.000Z</time>
      </trkpt>
      <trkpt lat="44.52893" lon="4.27244">
        <ele>356</ele>
        <time>2016-05-15T08:24:50.000Z</time>
      </trkpt>
      <trkpt lat="44.52894" lon="4.2724">
        <ele>356</ele>
        <time>2016-05-15T08:24:51.000Z</time>
      </trkpt>
      <trkpt lat="44.52895" lon="4.27237">
        <ele>356</ele>
        <time>2016-05-15T08:24:52.000Z</time>
      </trkpt>
      <trkpt lat="44.52896" lon="4.27234">
        <ele>356</ele>
        <time>2016-05-15T08:24:53.000Z</time>
      </trkpt>
      <trkpt lat="44.52897" lon="4.2723">
        <ele>356</ele>
        <time>2016-05-15T08:24:54.000Z</time>
      </trkpt>
      <trkpt lat="44.52898" lon="4.27226">
        <ele>356</ele>
        <time>2016-05-15T08:24:55.000Z</time>
      </trkpt>
      <trkpt lat="44.529" lon="4.27223">
        <ele>356</ele>
        <time>2016-05-15T08:24:56.000Z</time>
      </trkpt>
      <trkpt lat="44.52902" lon="4.27221">
        <ele>356</ele>
        <time>2016-05-15T08:24:57.000Z</time>
      </trkpt>
      <trkpt lat="44.52904" lon="4.27219">
        <ele>356</ele>
        <time>2016-05-15T08:24:58.000Z</time>
      </trkpt>
      <trkpt lat="44.52907" lon="4.27216">
        <ele>356</ele>
        <time>2016-05-15T08:24:59.000Z</time>
      </trkpt>
      <trkpt lat="44.52909" lon="4.27212">
        <ele>356</ele>
        <time>2016-05-15T08:25:00.000Z</time>
      </trkpt>
      <trkpt lat="44.5291" lon="4.27207">
        <ele>356</ele>
        <time>2016-05-15T08:25:01.000Z</time>
      </trkpt>
      <trkpt lat="44.52912" lon="4.27202">
        <ele>357</ele>
        <time>2016-05-15T08:25:02.000Z</time>
      </trkpt>
      <trkpt lat="44.52914" lon="4.27196">
        <ele>357</ele>
        <time>2016-05-15T08:25:03.000Z</time>
      </trkpt>
      <trkpt lat="44.52916" lon="4.2719">
        <ele>357</ele>
        <time>2016-05-15T08:25:04.000Z</time>
      </trkpt>
      <trkpt lat="44.52918" lon="4.27182">
        <ele>356</ele>
        <time>2016-05-15T08:25:05.000Z</time>
      </trkpt>
      <trkpt lat="44.52921" lon="4.27175">
        <ele>357</ele>
        <time>2016-05-15T08:25:06.000Z</time>
      </trkpt>
      <trkpt lat="44.52925" lon="4.27167">
        <ele>358</ele>
        <time>2016-05-15T08:25:07.000Z</time>
      </trkpt>
      <trkpt lat="44.52929" lon="4.27159">
        <ele>357</ele>
        <time>2016-05-15T08:25:08.000Z</time>
      </trkpt>
      <trkpt lat="44.52934" lon="4.27151">
        <ele>356</ele>
        <time>2016-05-15T08:25:09.000Z</time>
      </trkpt>
      <trkpt lat="44.52938" lon="4.27143">
        <ele>355</ele>
        <time>2016-05-15T08:25:10.000Z</time>
      </trkpt>
      <trkpt lat="44.52942" lon="4.27134">
        <ele>355</ele>
        <time>2016-05-15T08:25:11.000Z</time>
      </trkpt>
      <trkpt lat="44.52946" lon="4.27126">
        <ele>354</ele>
        <time>2016-05-15T08:25:12.000Z</time>
      </trkpt>
      <trkpt lat="44.52949" lon="4.27117">
        <ele>354</ele>
        <time>2016-05-15T08:25:13.000Z</time>
      </trkpt>
      <trkpt lat="44.52952" lon="4.27109">
        <ele>354</ele>
        <time>2016-05-15T08:25:14.000Z</time>
      </trkpt>
      <trkpt lat="44.52955" lon="4.271">
        <ele>354</ele>
        <time>2016-05-15T08:25:15.000Z</time>
      </trkpt>
      <trkpt lat="44.52959" lon="4.27091">
        <ele>353</ele>
        <time>2016-05-15T08:25:16.000Z</time>
      </trkpt>
      <trkpt lat="44.52962" lon="4.27082">
        <ele>355</ele>
        <time>2016-05-15T08:25:17.000Z</time>
      </trkpt>
      <trkpt lat="44.52966" lon="4.27074">
        <ele>355</ele>
        <time>2016-05-15T08:25:18.000Z</time>
      </trkpt>
      <trkpt lat="44.52969" lon="4.27066">
        <ele>355</ele>
        <time>2016-05-15T08:25:19.000Z</time>
      </trkpt>
      <trkpt lat="44.52973" lon="4.27057">
        <ele>355</ele>
        <time>2016-05-15T08:25:20.000Z</time>
      </trkpt>
      <trkpt lat="44.52976" lon="4.27049">
        <ele>355</ele>
        <time>2016-05-15T08:25:21.000Z</time>
      </trkpt>
      <trkpt lat="44.52978" lon="4.27039">
        <ele>355</ele>
        <time>2016-05-15T08:25:22.000Z</time>
      </trkpt>
      <trkpt lat="44.52981" lon="4.27029">
        <ele>355</ele>
        <time>2016-05-15T08:25:23.000Z</time>
      </trkpt>
      <trkpt lat="44.52984" lon="4.27019">
        <ele>355</ele>
        <time>2016-05-15T08:25:24.000Z</time>
      </trkpt>
      <trkpt lat="44.52986" lon="4.27011">
        <ele>355</ele>
        <time>2016-05-15T08:25:25.000Z</time>
      </trkpt>
      <trkpt lat="44.52989" lon="4.27003">
        <ele>354</ele>
        <time>2016-05-15T08:25:26.000Z</time>
      </trkpt>
      <trkpt lat="44.52992" lon="4.26995">
        <ele>354</ele>
        <time>2016-05-15T08:25:27.000Z</time>
      </trkpt>
      <trkpt lat="44.52993" lon="4.26988">
        <ele>355</ele>
        <time>2016-05-15T08:25:28.000Z</time>
      </trkpt>
      <trkpt lat="44.52996" lon="4.26981">
        <ele>355</ele>
        <time>2016-05-15T08:25:29.000Z</time>
      </trkpt>
      <trkpt lat="44.52998" lon="4.26976">
        <ele>355</ele>
        <time>2016-05-15T08:25:30.000Z</time>
      </trkpt>
      <trkpt lat="44.53" lon="4.2697">
        <ele>341</ele>
        <time>2016-05-15T08:25:31.000Z</time>
      </trkpt>
      <trkpt lat="44.53003" lon="4.26963">
        <ele>341</ele>
        <time>2016-05-15T08:25:32.000Z</time>
      </trkpt>
      <trkpt lat="44.53007" lon="4.26956">
        <ele>340</ele>
        <time>2016-05-15T08:25:33.000Z</time>
      </trkpt>
      <trkpt lat="44.53011" lon="4.2695">
        <ele>340</ele>
        <time>2016-05-15T08:25:34.000Z</time>
      </trkpt>
      <trkpt lat="44.53015" lon="4.26943">
        <ele>340</ele>
        <time>2016-05-15T08:25:35.000Z</time>
      </trkpt>
      <trkpt lat="44.53019" lon="4.26936">
        <ele>340</ele>
        <time>2016-05-15T08:25:36.000Z</time>
      </trkpt>
      <trkpt lat="44.53022" lon="4.26928">
        <ele>340</ele>
        <time>2016-05-15T08:25:37.000Z</time>
      </trkpt>
      <trkpt lat="44.53026" lon="4.2692">
        <ele>340</ele>
        <time>2016-05-15T08:25:38.000Z</time>
      </trkpt>
      <trkpt lat="44.5303" lon="4.26913">
        <ele>338</ele>
        <time>2016-05-15T08:25:39.000Z</time>
      </trkpt>
      <trkpt lat="44.53033" lon="4.26905">
        <ele>337</ele>
        <time>2016-05-15T08:25:40.000Z</time>
      </trkpt>
      <trkpt lat="44.53036" lon="4.26897">
        <ele>336</ele>
        <time>2016-05-15T08:25:41.000Z</time>
      </trkpt>
      <trkpt lat="44.53037" lon="4.26889">
        <ele>335</ele>
        <time>2016-05-15T08:25:42.000Z</time>
      </trkpt>
      <trkpt lat="44.53037" lon="4.26882">
        <ele>335</ele>
        <time>2016-05-15T08:25:43.000Z</time>
      </trkpt>
      <trkpt lat="44.53034" lon="4.26875">
        <ele>335</ele>
        <time>2016-05-15T08:25:44.000Z</time>
      </trkpt>
      <trkpt lat="44.53031" lon="4.26869">
        <ele>336</ele>
        <time>2016-05-15T08:25:45.000Z</time>
      </trkpt>
      <trkpt lat="44.53029" lon="4.26864">
        <ele>336</ele>
        <time>2016-05-15T08:25:46.000Z</time>
      </trkpt>
      <trkpt lat="44.53028" lon="4.26858">
        <ele>336</ele>
        <time>2016-05-15T08:25:47.000Z</time>
      </trkpt>
      <trkpt lat="44.53027" lon="4.26854">
        <ele>336</ele>
        <time>2016-05-15T08:25:48.000Z</time>
      </trkpt>
      <trkpt lat="44.53028" lon="4.2685">
        <ele>336</ele>
        <time>2016-05-15T08:25:49.000Z</time>
      </trkpt>
      <trkpt lat="44.53031" lon="4.26848">
        <ele>336</ele>
        <time>2016-05-15T08:25:50.000Z</time>
      </trkpt>
      <trkpt lat="44.53035" lon="4.26847">
        <ele>335</ele>
        <time>2016-05-15T08:25:51.000Z</time>
      </trkpt>
      <trkpt lat="44.5304" lon="4.26847">
        <ele>334</ele>
        <time>2016-05-15T08:25:52.000Z</time>
      </trkpt>
      <trkpt lat="44.53047" lon="4.26848">
        <ele>333</ele>
        <time>2016-05-15T08:25:53.000Z</time>
      </trkpt>
      <trkpt lat="44.53053" lon="4.2685">
        <ele>332</ele>
        <time>2016-05-15T08:25:54.000Z</time>
      </trkpt>
      <trkpt lat="44.53058" lon="4.2685">
        <ele>331</ele>
        <time>2016-05-15T08:25:55.000Z</time>
      </trkpt>
      <trkpt lat="44.53062" lon="4.26848">
        <ele>330</ele>
        <time>2016-05-15T08:25:56.000Z</time>
      </trkpt>
      <trkpt lat="44.53066" lon="4.26845">
        <ele>329</ele>
        <time>2016-05-15T08:25:57.000Z</time>
      </trkpt>
      <trkpt lat="44.53068" lon="4.26841">
        <ele>328</ele>
        <time>2016-05-15T08:25:58.000Z</time>
      </trkpt>
      <trkpt lat="44.53068" lon="4.26837">
        <ele>327</ele>
        <time>2016-05-15T08:25:59.000Z</time>
      </trkpt>
      <trkpt lat="44.53066" lon="4.26833">
        <ele>326</ele>
        <time>2016-05-15T08:26:00.000Z</time>
      </trkpt>
      <trkpt lat="44.53064" lon="4.2683">
        <ele>327</ele>
        <time>2016-05-15T08:26:01.000Z</time>
      </trkpt>
      <trkpt lat="44.5306" lon="4.26827">
        <ele>328</ele>
        <time>2016-05-15T08:26:02.000Z</time>
      </trkpt>
      <trkpt lat="44.53056" lon="4.26824">
        <ele>329</ele>
        <time>2016-05-15T08:26:03.000Z</time>
      </trkpt>
      <trkpt lat="44.53053" lon="4.2682">
        <ele>329</ele>
        <time>2016-05-15T08:26:04.000Z</time>
      </trkpt>
      <trkpt lat="44.53051" lon="4.26815">
        <ele>330</ele>
        <time>2016-05-15T08:26:05.000Z</time>
      </trkpt>
      <trkpt lat="44.53052" lon="4.26809">
        <ele>330</ele>
        <time>2016-05-15T08:26:06.000Z</time>
      </trkpt>
      <trkpt lat="44.53055" lon="4.26803">
        <ele>329</ele>
        <time>2016-05-15T08:26:07.000Z</time>
      </trkpt>
      <trkpt lat="44.5306" lon="4.26797">
        <ele>329</ele>
        <time>2016-05-15T08:26:08.000Z</time>
      </trkpt>
      <trkpt lat="44.53064" lon="4.26791">
        <ele>329</ele>
        <time>2016-05-15T08:26:09.000Z</time>
      </trkpt>
      <trkpt lat="44.53069" lon="4.26784">
        <ele>328</ele>
        <time>2016-05-15T08:26:10.000Z</time>
      </trkpt>
      <trkpt lat="44.53074" lon="4.26778">
        <ele>327</ele>
        <time>2016-05-15T08:26:11.000Z</time>
      </trkpt>
      <trkpt lat="44.5308" lon="4.26775">
        <ele>327</ele>
        <time>2016-05-15T08:26:12.000Z</time>
      </trkpt>
      <trkpt lat="44.53086" lon="4.26771">
        <ele>315</ele>
        <time>2016-05-15T08:26:13.000Z</time>
      </trkpt>
      <trkpt lat="44.53091" lon="4.26765">
        <ele>316</ele>
        <time>2016-05-15T08:26:14.000Z</time>
      </trkpt>
      <trkpt lat="44.53095" lon="4.26759">
        <ele>316</ele>
        <time>2016-05-15T08:26:15.000Z</time>
      </trkpt>
      <trkpt lat="44.53097" lon="4.26752">
        <ele>316</ele>
        <time>2016-05-15T08:26:16.000Z</time>
      </trkpt>
      <trkpt lat="44.53099" lon="4.26744">
        <ele>318</ele>
        <time>2016-05-15T08:26:17.000Z</time>
      </trkpt>
      <trkpt lat="44.53101" lon="4.26736">
        <ele>318</ele>
        <time>2016-05-15T08:26:18.000Z</time>
      </trkpt>
      <trkpt lat="44.53103" lon="4.26728">
        <ele>317</ele>
        <time>2016-05-15T08:26:19.000Z</time>
      </trkpt>
      <trkpt lat="44.53106" lon="4.2672">
        <ele>317</ele>
        <time>2016-05-15T08:26:20.000Z</time>
      </trkpt>
      <trkpt lat="44.53109" lon="4.26713">
        <ele>317</ele>
        <time>2016-05-15T08:26:21.000Z</time>
      </trkpt>
      <trkpt lat="44.53113" lon="4.26706">
        <ele>317</ele>
        <time>2016-05-15T08:26:22.000Z</time>
      </trkpt>
      <trkpt lat="44.53117" lon="4.26699">
        <ele>317</ele>
        <time>2016-05-15T08:26:23.000Z</time>
      </trkpt>
      <trkpt lat="44.5312" lon="4.26692">
        <ele>316</ele>
        <time>2016-05-15T08:26:24.000Z</time>
      </trkpt>
      <trkpt lat="44.53123" lon="4.26685">
        <ele>316</ele>
        <time>2016-05-15T08:26:25.000Z</time>
      </trkpt>
      <trkpt lat="44.53127" lon="4.26677">
        <ele>315</ele>
        <time>2016-05-15T08:26:26.000Z</time>
      </trkpt>
      <trkpt lat="44.5313" lon="4.26669">
        <ele>314</ele>
        <time>2016-05-15T08:26:27.000Z</time>
      </trkpt>
      <trkpt lat="44.53133" lon="4.26661">
        <ele>319</ele>
        <time>2016-05-15T08:26:28.000Z</time>
      </trkpt>
      <trkpt lat="44.53136" lon="4.26652">
        <ele>318</ele>
        <time>2016-05-15T08:26:29.000Z</time>
      </trkpt>
      <trkpt lat="44.53138" lon="4.26644">
        <ele>319</ele>
        <time>2016-05-15T08:26:30.000Z</time>
      </trkpt>
      <trkpt lat="44.53139" lon="4.26636">
        <ele>319</ele>
        <time>2016-05-15T08:26:31.000Z</time>
      </trkpt>
      <trkpt lat="44.5314" lon="4.26627">
        <ele>319</ele>
        <time>2016-05-15T08:26:32.000Z</time>
      </trkpt>
      <trkpt lat="44.5314" lon="4.26619">
        <ele>320</ele>
        <time>2016-05-15T08:26:33.000Z</time>
      </trkpt>
      <trkpt lat="44.53141" lon="4.26611">
        <ele>320</ele>
        <time>2016-05-15T08:26:34.000Z</time>
      </trkpt>
      <trkpt lat="44.53142" lon="4.26603">
        <ele>319</ele>
        <time>2016-05-15T08:26:35.000Z</time>
      </trkpt>
      <trkpt lat="44.53142" lon="4.26595">
        <ele>319</ele>
        <time>2016-05-15T08:26:36.000Z</time>
      </trkpt>
      <trkpt lat="44.53142" lon="4.26587">
        <ele>319</ele>
        <time>2016-05-15T08:26:37.000Z</time>
      </trkpt>
      <trkpt lat="44.53142" lon="4.26579">
        <ele>322</ele>
        <time>2016-05-15T08:26:38.000Z</time>
      </trkpt>
      <trkpt lat="44.53143" lon="4.26571">
        <ele>323</ele>
        <time>2016-05-15T08:26:39.000Z</time>
      </trkpt>
      <trkpt lat="44.53144" lon="4.26563">
        <ele>323</ele>
        <time>2016-05-15T08:26:40.000Z</time>
      </trkpt>
      <trkpt lat="44.53145" lon="4.26556">
        <ele>324</ele>
        <time>2016-05-15T08:26:41.000Z</time>
      </trkpt>
      <trkpt lat="44.53146" lon="4.26548">
        <ele>324</ele>
        <time>2016-05-15T08:26:42.000Z</time>
      </trkpt>
      <trkpt lat="44.53147" lon="4.2654">
        <ele>324</ele>
        <time>2016-05-15T08:26:43.000Z</time>
      </trkpt>
      <trkpt lat="44.53146" lon="4.26532">
        <ele>324</ele>
        <time>2016-05-15T08:26:44.000Z</time>
      </trkpt>
      <trkpt lat="44.53146" lon="4.26523">
        <ele>324</ele>
        <time>2016-05-15T08:26:45.000Z</time>
      </trkpt>
      <trkpt lat="44.53146" lon="4.26515">
        <ele>323</ele>
        <time>2016-05-15T08:26:46.000Z</time>
      </trkpt>
      <trkpt lat="44.53146" lon="4.26507">
        <ele>323</ele>
        <time>2016-05-15T08:26:47.000Z</time>
      </trkpt>
      <trkpt lat="44.53146" lon="4.26499">
        <ele>322</ele>
        <time>2016-05-15T08:26:48.000Z</time>
      </trkpt>
      <trkpt lat="44.53146" lon="4.26492">
        <ele>323</ele>
        <time>2016-05-15T08:26:49.000Z</time>
      </trkpt>
      <trkpt lat="44.53146" lon="4.26484">
        <ele>323</ele>
        <time>2016-05-15T08:26:50.000Z</time>
      </trkpt>
      <trkpt lat="44.53145" lon="4.26476">
        <ele>324</ele>
        <time>2016-05-15T08:26:51.000Z</time>
      </trkpt>
      <trkpt lat="44.53145" lon="4.26469">
        <ele>325</ele>
        <time>2016-05-15T08:26:52.000Z</time>
      </trkpt>
      <trkpt lat="44.53145" lon="4.26461">
        <ele>325</ele>
        <time>2016-05-15T08:26:53.000Z</time>
      </trkpt>
      <trkpt lat="44.53145" lon="4.26453">
        <ele>325</ele>
        <time>2016-05-15T08:26:54.000Z</time>
      </trkpt>
      <trkpt lat="44.53145" lon="4.26446">
        <ele>324</ele>
        <time>2016-05-15T08:26:55.000Z</time>
      </trkpt>
      <trkpt lat="44.53146" lon="4.26438">
        <ele>323</ele>
        <time>2016-05-15T08:26:56.000Z</time>
      </trkpt>
      <trkpt lat="44.53147" lon="4.26431">
        <ele>322</ele>
        <time>2016-05-15T08:26:57.000Z</time>
      </trkpt>
      <trkpt lat="44.53149" lon="4.26424">
        <ele>321</ele>
        <time>2016-05-15T08:26:58.000Z</time>
      </trkpt>
      <trkpt lat="44.5315" lon="4.26417">
        <ele>320</ele>
        <time>2016-05-15T08:26:59.000Z</time>
      </trkpt>
      <trkpt lat="44.53152" lon="4.26411">
        <ele>318</ele>
        <time>2016-05-15T08:27:00.000Z</time>
      </trkpt>
      <trkpt lat="44.53155" lon="4.26405">
        <ele>318</ele>
        <time>2016-05-15T08:27:01.000Z</time>
      </trkpt>
      <trkpt lat="44.53158" lon="4.264">
        <ele>318</ele>
        <time>2016-05-15T08:27:02.000Z</time>
      </trkpt>
      <trkpt lat="44.53162" lon="4.26398">
        <ele>318</ele>
        <time>2016-05-15T08:27:03.000Z</time>
      </trkpt>
      <trkpt lat="44.53167" lon="4.26399">
        <ele>314</ele>
        <time>2016-05-15T08:27:04.000Z</time>
      </trkpt>
      <trkpt lat="44.53171" lon="4.26402">
        <ele>314</ele>
        <time>2016-05-15T08:27:05.000Z</time>
      </trkpt>
      <trkpt lat="44.53174" lon="4.26406">
        <ele>313</ele>
        <time>2016-05-15T08:27:06.000Z</time>
      </trkpt>
      <trkpt lat="44.53177" lon="4.26411">
        <ele>313</ele>
        <time>2016-05-15T08:27:07.000Z</time>
      </trkpt>
      <trkpt lat="44.53178" lon="4.26416">
        <ele>313</ele>
        <time>2016-05-15T08:27:08.000Z</time>
      </trkpt>
      <trkpt lat="44.53179" lon="4.26421">
        <ele>313</ele>
        <time>2016-05-15T08:27:09.000Z</time>
      </trkpt>
      <trkpt lat="44.53179" lon="4.26426">
        <ele>313</ele>
        <time>2016-05-15T08:27:10.000Z</time>
      </trkpt>
      <trkpt lat="44.5318" lon="4.2643">
        <ele>313</ele>
        <time>2016-05-15T08:27:11.000Z</time>
      </trkpt>
      <trkpt lat="44.53182" lon="4.26431">
        <ele>314</ele>
        <time>2016-05-15T08:27:12.000Z</time>
      </trkpt>
      <trkpt lat="44.53184" lon="4.2643">
        <ele>314</ele>
        <time>2016-05-15T08:27:13.000Z</time>
      </trkpt>
      <trkpt lat="44.53185" lon="4.26427">
        <ele>314</ele>
        <time>2016-05-15T08:27:14.000Z</time>
      </trkpt>
      <trkpt lat="44.53186" lon="4.26423">
        <ele>314</ele>
        <time>2016-05-15T08:27:15.000Z</time>
      </trkpt>
      <trkpt lat="44.53186" lon="4.26419">
        <ele>314</ele>
        <time>2016-05-15T08:27:16.000Z</time>
      </trkpt>
      <trkpt lat="44.53187" lon="4.26415">
        <ele>315</ele>
        <time>2016-05-15T08:27:17.000Z</time>
      </trkpt>
      <trkpt lat="44.53188" lon="4.26411">
        <ele>315</ele>
        <time>2016-05-15T08:27:18.000Z</time>
      </trkpt>
      <trkpt lat="44.53189" lon="4.26408">
        <ele>315</ele>
        <time>2016-05-15T08:27:19.000Z</time>
      </trkpt>
      <trkpt lat="44.5319" lon="4.26406">
        <ele>315</ele>
        <time>2016-05-15T08:27:20.000Z</time>
      </trkpt>
      <trkpt lat="44.53191" lon="4.26403">
        <ele>315</ele>
        <time>2016-05-15T08:27:21.000Z</time>
      </trkpt>
      <trkpt lat="44.53192" lon="4.26401">
        <ele>315</ele>
        <time>2016-05-15T08:27:22.000Z</time>
      </trkpt>
      <trkpt lat="44.53193" lon="4.26398">
        <ele>316</ele>
        <time>2016-05-15T08:27:23.000Z</time>
      </trkpt>
      <trkpt lat="44.53193" lon="4.26395">
        <ele>316</ele>
        <time>2016-05-15T08:27:24.000Z</time>
      </trkpt>
      <trkpt lat="44.53194" lon="4.26393">
        <ele>316</ele>
        <time>2016-05-15T08:27:25.000Z</time>
      </trkpt>
      <trkpt lat="44.53195" lon="4.2639">
        <ele>316</ele>
        <time>2016-05-15T08:27:26.000Z</time>
      </trkpt>
      <trkpt lat="44.53196" lon="4.26388">
        <ele>316</ele>
        <time>2016-05-15T08:27:27.000Z</time>
      </trkpt>
      <trkpt lat="44.53197" lon="4.26385">
        <ele>316</ele>
        <time>2016-05-15T08:27:28.000Z</time>
      </trkpt>
      <trkpt lat="44.53198" lon="4.26383">
        <ele>316</ele>
        <time>2016-05-15T08:27:29.000Z</time>
      </trkpt>
      <trkpt lat="44.53198" lon="4.26381">
        <ele>316</ele>
        <time>2016-05-15T08:27:30.000Z</time>
      </trkpt>
      <trkpt lat="44.53199" lon="4.26379">
        <ele>316</ele>
        <time>2016-05-15T08:27:31.000Z</time>
      </trkpt>
      <trkpt lat="44.532" lon="4.26377">
        <ele>317</ele>
        <time>2016-05-15T08:27:32.000Z</time>
      </trkpt>
      <trkpt lat="44.53201" lon="4.26375">
        <ele>317</ele>
        <time>2016-05-15T08:27:33.000Z</time>
      </trkpt>
      <trkpt lat="44.53202" lon="4.26373">
        <ele>317</ele>
        <time>2016-05-15T08:27:34.000Z</time>
      </trkpt>
      <trkpt lat="44.53203" lon="4.26371">
        <ele>317</ele>
        <time>2016-05-15T08:27:35.000Z</time>
      </trkpt>
      <trkpt lat="44.53204" lon="4.26369">
        <ele>317</ele>
        <time>2016-05-15T08:27:36.000Z</time>
      </trkpt>
      <trkpt lat="44.53205" lon="4.26367">
        <ele>317</ele>
        <time>2016-05-15T08:27:37.000Z</time>
      </trkpt>
      <trkpt lat="44.53206" lon="4.26365">
        <ele>317</ele>
        <time>2016-05-15T08:27:38.000Z</time>
      </trkpt>
      <trkpt lat="44.53207" lon="4.26363">
        <ele>317</ele>
        <time>2016-05-15T08:27:39.000Z</time>
      </trkpt>
      <trkpt lat="44.53208" lon="4.26361">
        <ele>317</ele>
        <time>2016-05-15T08:27:40.000Z</time>
      </trkpt>
      <trkpt lat="44.53209" lon="4.26359">
        <ele>317</ele>
        <time>2016-05-15T08:27:41.000Z</time>
      </trkpt>
      <trkpt lat="44.53211" lon="4.26357">
        <ele>317</ele>
        <time>2016-05-15T08:27:42.000Z</time>
      </trkpt>
      <trkpt lat="44.53212" lon="4.26355">
        <ele>317</ele>
        <time>2016-05-15T08:27:43.000Z</time>
      </trkpt>
      <trkpt lat="44.53213" lon="4.26353">
        <ele>317</ele>
        <time>2016-05-15T08:27:44.000Z</time>
      </trkpt>
      <trkpt lat="44.53214" lon="4.26351">
        <ele>317</ele>
        <time>2016-05-15T08:27:45.000Z</time>
      </trkpt>
      <trkpt lat="44.53216" lon="4.26349">
        <ele>318</ele>
        <time>2016-05-15T08:27:46.000Z</time>
      </trkpt>
      <trkpt lat="44.53217" lon="4.26346">
        <ele>318</ele>
        <time>2016-05-15T08:27:47.000Z</time>
      </trkpt>
      <trkpt lat="44.53219" lon="4.26344">
        <ele>318</ele>
        <time>2016-05-15T08:27:48.000Z</time>
      </trkpt>
      <trkpt lat="44.53221" lon="4.26342">
        <ele>318</ele>
        <time>2016-05-15T08:27:49.000Z</time>
      </trkpt>
      <trkpt lat="44.53222" lon="4.2634">
        <ele>318</ele>
        <time>2016-05-15T08:27:50.000Z</time>
      </trkpt>
      <trkpt lat="44.53223" lon="4.26338">
        <ele>318</ele>
        <time>2016-05-15T08:27:51.000Z</time>
      </trkpt>
      <trkpt lat="44.53225" lon="4.26336">
        <ele>318</ele>
        <time>2016-05-15T08:27:52.000Z</time>
      </trkpt>
      <trkpt lat="44.53226" lon="4.26335">
        <ele>318</ele>
        <time>2016-05-15T08:27:53.000Z</time>
      </trkpt>
      <trkpt lat="44.53227" lon="4.26333">
        <ele>319</ele>
        <time>2016-05-15T08:27:54.000Z</time>
      </trkpt>
      <trkpt lat="44.53229" lon="4.26332">
        <ele>319</ele>
        <time>2016-05-15T08:27:55.000Z</time>
      </trkpt>
      <trkpt lat="44.5323" lon="4.26331">
        <ele>319</ele>
        <time>2016-05-15T08:27:56.000Z</time>
      </trkpt>
      <trkpt lat="44.53231" lon="4.2633">
        <ele>320</ele>
        <time>2016-05-15T08:27:57.000Z</time>
      </trkpt>
      <trkpt lat="44.53232" lon="4.26328">
        <ele>320</ele>
        <time>2016-05-15T08:27:58.000Z</time>
      </trkpt>
      <trkpt lat="44.53234" lon="4.26327">
        <ele>320</ele>
        <time>2016-05-15T08:27:59.000Z</time>
      </trkpt>
      <trkpt lat="44.53235" lon="4.26325">
        <ele>320</ele>
        <time>2016-05-15T08:28:00.000Z</time>
      </trkpt>
      <trkpt lat="44.53236" lon="4.26324">
        <ele>320</ele>
        <time>2016-05-15T08:28:01.000Z</time>
      </trkpt>
      <trkpt lat="44.53238" lon="4.26323">
        <ele>320</ele>
        <time>2016-05-15T08:28:02.000Z</time>
      </trkpt>
      <trkpt lat="44.53239" lon="4.26321">
        <ele>320</ele>
        <time>2016-05-15T08:28:03.000Z</time>
      </trkpt>
      <trkpt lat="44.5324" lon="4.2632">
        <ele>320</ele>
        <time>2016-05-15T08:28:04.000Z</time>
      </trkpt>
      <trkpt lat="44.53242" lon="4.26318">
        <ele>320</ele>
        <time>2016-05-15T08:28:05.000Z</time>
      </trkpt>
      <trkpt lat="44.53243" lon="4.26317">
        <ele>320</ele>
        <time>2016-05-15T08:28:06.000Z</time>
      </trkpt>
      <trkpt lat="44.53244" lon="4.26316">
        <ele>320</ele>
        <time>2016-05-15T08:28:07.000Z</time>
      </trkpt>
      <trkpt lat="44.53245" lon="4.26315">
        <ele>320</ele>
        <time>2016-05-15T08:28:08.000Z</time>
      </trkpt>
      <trkpt lat="44.53247" lon="4.26314">
        <ele>320</ele>
        <time>2016-05-15T08:28:09.000Z</time>
      </trkpt>
      <trkpt lat="44.53248" lon="4.26313">
        <ele>320</ele>
        <time>2016-05-15T08:28:10.000Z</time>
      </trkpt>
      <trkpt lat="44.53249" lon="4.26312">
        <ele>320</ele>
        <time>2016-05-15T08:28:11.000Z</time>
      </trkpt>
      <trkpt lat="44.53251" lon="4.2631">
        <ele>327</ele>
        <time>2016-05-15T08:28:12.000Z</time>
      </trkpt>
      <trkpt lat="44.53252" lon="4.26308">
        <ele>327</ele>
        <time>2016-05-15T08:28:13.000Z</time>
      </trkpt>
      <trkpt lat="44.53253" lon="4.26307">
        <ele>328</ele>
        <time>2016-05-15T08:28:14.000Z</time>
      </trkpt>
      <trkpt lat="44.53255" lon="4.26305">
        <ele>328</ele>
        <time>2016-05-15T08:28:15.000Z</time>
      </trkpt>
      <trkpt lat="44.53256" lon="4.26303">
        <ele>328</ele>
        <time>2016-05-15T08:28:16.000Z</time>
      </trkpt>
      <trkpt lat="44.53257" lon="4.26301">
        <ele>328</ele>
        <time>2016-05-15T08:28:17.000Z</time>
      </trkpt>
      <trkpt lat="44.53258" lon="4.263">
        <ele>329</ele>
        <time>2016-05-15T08:28:18.000Z</time>
      </trkpt>
      <trkpt lat="44.53259" lon="4.26298">
        <ele>329</ele>
        <time>2016-05-15T08:28:19.000Z</time>
      </trkpt>
      <trkpt lat="44.53261" lon="4.26296">
        <ele>329</ele>
        <time>2016-05-15T08:28:20.000Z</time>
      </trkpt>
      <trkpt lat="44.53262" lon="4.26295">
        <ele>329</ele>
        <time>2016-05-15T08:28:21.000Z</time>
      </trkpt>
      <trkpt lat="44.53264" lon="4.26293">
        <ele>329</ele>
        <time>2016-05-15T08:28:22.000Z</time>
      </trkpt>
      <trkpt lat="44.53265" lon="4.26291">
        <ele>329</ele>
        <time>2016-05-15T08:28:23.000Z</time>
      </trkpt>
      <trkpt lat="44.53266" lon="4.26291">
        <ele>329</ele>
        <time>2016-05-15T08:28:24.000Z</time>
      </trkpt>
      <trkpt lat="44.53268" lon="4.2629">
        <ele>329</ele>
        <time>2016-05-15T08:28:25.000Z</time>
      </trkpt>
      <trkpt lat="44.53269" lon="4.26288">
        <ele>330</ele>
        <time>2016-05-15T08:28:26.000Z</time>
      </trkpt>
      <trkpt lat="44.5327" lon="4.26287">
        <ele>330</ele>
        <time>2016-05-15T08:28:27.000Z</time>
      </trkpt>
      <trkpt lat="44.53271" lon="4.26285">
        <ele>330</ele>
        <time>2016-05-15T08:28:28.000Z</time>
      </trkpt>
      <trkpt lat="44.53272" lon="4.26284">
        <ele>330</ele>
        <time>2016-05-15T08:28:29.000Z</time>
      </trkpt>
      <trkpt lat="44.53273" lon="4.26282">
        <ele>330</ele>
        <time>2016-05-15T08:28:30.000Z</time>
      </trkpt>
      <trkpt lat="44.53275" lon="4.26281">
        <ele>330</ele>
        <time>2016-05-15T08:28:31.000Z</time>
      </trkpt>
      <trkpt lat="44.53275" lon="4.26279">
        <ele>330</ele>
        <time>2016-05-15T08:28:32.000Z</time>
      </trkpt>
      <trkpt lat="44.53276" lon="4.26277">
        <ele>330</ele>
        <time>2016-05-15T08:28:33.000Z</time>
      </trkpt>
      <trkpt lat="44.53277" lon="4.26275">
        <ele>330</ele>
        <time>2016-05-15T08:28:34.000Z</time>
      </trkpt>
      <trkpt lat="44.53278" lon="4.26273">
        <ele>330</ele>
        <time>2016-05-15T08:28:35.000Z</time>
      </trkpt>
      <trkpt lat="44.53279" lon="4.26272">
        <ele>330</ele>
        <time>2016-05-15T08:28:36.000Z</time>
      </trkpt>
      <trkpt lat="44.5328" lon="4.2627">
        <ele>330</ele>
        <time>2016-05-15T08:28:37.000Z</time>
      </trkpt>
      <trkpt lat="44.53281" lon="4.26268">
        <ele>330</ele>
        <time>2016-05-15T08:28:38.000Z</time>
      </trkpt>
      <trkpt lat="44.53282" lon="4.26266">
        <ele>330</ele>
        <time>2016-05-15T08:28:39.000Z</time>
      </trkpt>
      <trkpt lat="44.53283" lon="4.26263">
        <ele>330</ele>
        <time>2016-05-15T08:28:40.000Z</time>
      </trkpt>
      <trkpt lat="44.53284" lon="4.26261">
        <ele>330</ele>
        <time>2016-05-15T08:28:41.000Z</time>
      </trkpt>
      <trkpt lat="44.53285" lon="4.26258">
        <ele>330</ele>
        <time>2016-05-15T08:28:42.000Z</time>
      </trkpt>
      <trkpt lat="44.53286" lon="4.26256">
        <ele>330</ele>
        <time>2016-05-15T08:28:43.000Z</time>
      </trkpt>
      <trkpt lat="44.53287" lon="4.26254">
        <ele>331</ele>
        <time>2016-05-15T08:28:44.000Z</time>
      </trkpt>
      <trkpt lat="44.53288" lon="4.26252">
        <ele>331</ele>
        <time>2016-05-15T08:28:45.000Z</time>
      </trkpt>
      <trkpt lat="44.5329" lon="4.2625">
        <ele>330</ele>
        <time>2016-05-15T08:28:46.000Z</time>
      </trkpt>
      <trkpt lat="44.53291" lon="4.26248">
        <ele>331</ele>
        <time>2016-05-15T08:28:47.000Z</time>
      </trkpt>
      <trkpt lat="44.53292" lon="4.26246">
        <ele>331</ele>
        <time>2016-05-15T08:28:48.000Z</time>
      </trkpt>
      <trkpt lat="44.53293" lon="4.26244">
        <ele>331</ele>
        <time>2016-05-15T08:28:49.000Z</time>
      </trkpt>
      <trkpt lat="44.53295" lon="4.26243">
        <ele>331</ele>
        <time>2016-05-15T08:28:50.000Z</time>
      </trkpt>
      <trkpt lat="44.53296" lon="4.26241">
        <ele>331</ele>
        <time>2016-05-15T08:28:51.000Z</time>
      </trkpt>
      <trkpt lat="44.53297" lon="4.2624">
        <ele>332</ele>
        <time>2016-05-15T08:28:52.000Z</time>
      </trkpt>
      <trkpt lat="44.53299" lon="4.26239">
        <ele>332</ele>
        <time>2016-05-15T08:28:53.000Z</time>
      </trkpt>
      <trkpt lat="44.533" lon="4.26237">
        <ele>332</ele>
        <time>2016-05-15T08:28:54.000Z</time>
      </trkpt>
      <trkpt lat="44.53301" lon="4.26235">
        <ele>332</ele>
        <time>2016-05-15T08:28:55.000Z</time>
      </trkpt>
      <trkpt lat="44.53303" lon="4.26234">
        <ele>332</ele>
        <time>2016-05-15T08:28:56.000Z</time>
      </trkpt>
      <trkpt lat="44.53304" lon="4.26234">
        <ele>332</ele>
        <time>2016-05-15T08:28:57.000Z</time>
      </trkpt>
      <trkpt lat="44.53306" lon="4.26234">
        <ele>333</ele>
        <time>2016-05-15T08:28:58.000Z</time>
      </trkpt>
      <trkpt lat="44.53307" lon="4.26234">
        <ele>333</ele>
        <time>2016-05-15T08:28:59.000Z</time>
      </trkpt>
      <trkpt lat="44.53309" lon="4.26235">
        <ele>333</ele>
        <time>2016-05-15T08:29:00.000Z</time>
      </trkpt>
      <trkpt lat="44.53311" lon="4.26234">
        <ele>333</ele>
        <time>2016-05-15T08:29:01.000Z</time>
      </trkpt>
      <trkpt lat="44.53312" lon="4.26234">
        <ele>333</ele>
        <time>2016-05-15T08:29:02.000Z</time>
      </trkpt>
      <trkpt lat="44.53314" lon="4.26234">
        <ele>333</ele>
        <time>2016-05-15T08:29:03.000Z</time>
      </trkpt>
      <trkpt lat="44.53315" lon="4.26234">
        <ele>333</ele>
        <time>2016-05-15T08:29:04.000Z</time>
      </trkpt>
      <trkpt lat="44.53316" lon="4.26233">
        <ele>334</ele>
        <time>2016-05-15T08:29:05.000Z</time>
      </trkpt>
      <trkpt lat="44.53318" lon="4.26232">
        <ele>334</ele>
        <time>2016-05-15T08:29:06.000Z</time>
      </trkpt>
      <trkpt lat="44.5332" lon="4.26233">
        <ele>334</ele>
        <time>2016-05-15T08:29:07.000Z</time>
      </trkpt>
      <trkpt lat="44.53322" lon="4.26232">
        <ele>334</ele>
        <time>2016-05-15T08:29:08.000Z</time>
      </trkpt>
      <trkpt lat="44.53324" lon="4.26232">
        <ele>334</ele>
        <time>2016-05-15T08:29:09.000Z</time>
      </trkpt>
      <trkpt lat="44.53326" lon="4.26231">
        <ele>334</ele>
        <time>2016-05-15T08:29:10.000Z</time>
      </trkpt>
      <trkpt lat="44.53328" lon="4.26231">
        <ele>334</ele>
        <time>2016-05-15T08:29:11.000Z</time>
      </trkpt>
      <trkpt lat="44.53329" lon="4.2623">
        <ele>334</ele>
        <time>2016-05-15T08:29:12.000Z</time>
      </trkpt>
      <trkpt lat="44.53331" lon="4.2623">
        <ele>334</ele>
        <time>2016-05-15T08:29:13.000Z</time>
      </trkpt>
      <trkpt lat="44.53333" lon="4.2623">
        <ele>334</ele>
        <time>2016-05-15T08:29:14.000Z</time>
      </trkpt>
      <trkpt lat="44.53334" lon="4.2623">
        <ele>341</ele>
        <time>2016-05-15T08:29:15.000Z</time>
      </trkpt>
      <trkpt lat="44.53336" lon="4.2623">
        <ele>341</ele>
        <time>2016-05-15T08:29:16.000Z</time>
      </trkpt>
      <trkpt lat="44.53337" lon="4.26229">
        <ele>341</ele>
        <time>2016-05-15T08:29:17.000Z</time>
      </trkpt>
      <trkpt lat="44.53339" lon="4.26229">
        <ele>341</ele>
        <time>2016-05-15T08:29:18.000Z</time>
      </trkpt>
      <trkpt lat="44.5334" lon="4.26229">
        <ele>342</ele>
        <time>2016-05-15T08:29:19.000Z</time>
      </trkpt>
      <trkpt lat="44.53342" lon="4.26228">
        <ele>342</ele>
        <time>2016-05-15T08:29:20.000Z</time>
      </trkpt>
      <trkpt lat="44.53344" lon="4.26227">
        <ele>342</ele>
        <time>2016-05-15T08:29:21.000Z</time>
      </trkpt>
      <trkpt lat="44.53345" lon="4.26227">
        <ele>342</ele>
        <time>2016-05-15T08:29:22.000Z</time>
      </trkpt>
      <trkpt lat="44.53347" lon="4.26227">
        <ele>342</ele>
        <time>2016-05-15T08:29:23.000Z</time>
      </trkpt>
      <trkpt lat="44.53349" lon="4.26226">
        <ele>342</ele>
        <time>2016-05-15T08:29:24.000Z</time>
      </trkpt>
      <trkpt lat="44.5335" lon="4.26225">
        <ele>343</ele>
        <time>2016-05-15T08:29:25.000Z</time>
      </trkpt>
      <trkpt lat="44.53352" lon="4.26225">
        <ele>343</ele>
        <time>2016-05-15T08:29:26.000Z</time>
      </trkpt>
      <trkpt lat="44.53354" lon="4.26224">
        <ele>343</ele>
        <time>2016-05-15T08:29:27.000Z</time>
      </trkpt>
      <trkpt lat="44.53355" lon="4.26224">
        <ele>343</ele>
        <time>2016-05-15T08:29:28.000Z</time>
      </trkpt>
      <trkpt lat="44.53357" lon="4.26223">
        <ele>343</ele>
        <time>2016-05-15T08:29:29.000Z</time>
      </trkpt>
      <trkpt lat="44.53358" lon="4.26223">
        <ele>343</ele>
        <time>2016-05-15T08:29:30.000Z</time>
      </trkpt>
      <trkpt lat="44.5336" lon="4.26222">
        <ele>343</ele>
        <time>2016-05-15T08:29:31.000Z</time>
      </trkpt>
      <trkpt lat="44.53361" lon="4.26221">
        <ele>344</ele>
        <time>2016-05-15T08:29:32.000Z</time>
      </trkpt>
      <trkpt lat="44.53363" lon="4.2622">
        <ele>344</ele>
        <time>2016-05-15T08:29:33.000Z</time>
      </trkpt>
      <trkpt lat="44.53364" lon="4.26219">
        <ele>344</ele>
        <time>2016-05-15T08:29:34.000Z</time>
      </trkpt>
      <trkpt lat="44.53366" lon="4.26219">
        <ele>344</ele>
        <time>2016-05-15T08:29:35.000Z</time>
      </trkpt>
      <trkpt lat="44.53367" lon="4.26218">
        <ele>344</ele>
        <time>2016-05-15T08:29:36.000Z</time>
      </trkpt>
      <trkpt lat="44.53369" lon="4.26218">
        <ele>344</ele>
        <time>2016-05-15T08:29:37.000Z</time>
      </trkpt>
      <trkpt lat="44.5337" lon="4.26218">
        <ele>344</ele>
        <time>2016-05-15T08:29:38.000Z</time>
      </trkpt>
      <trkpt lat="44.53372" lon="4.26217">
        <ele>345</ele>
        <time>2016-05-15T08:29:39.000Z</time>
      </trkpt>
      <trkpt lat="44.53373" lon="4.26217">
        <ele>345</ele>
        <time>2016-05-15T08:29:40.000Z</time>
      </trkpt>
      <trkpt lat="44.53374" lon="4.26216">
        <ele>345</ele>
        <time>2016-05-15T08:29:41.000Z</time>
      </trkpt>
      <trkpt lat="44.53376" lon="4.26216">
        <ele>345</ele>
        <time>2016-05-15T08:29:42.000Z</time>
      </trkpt>
      <trkpt lat="44.53377" lon="4.26215">
        <ele>345</ele>
        <time>2016-05-15T08:29:43.000Z</time>
      </trkpt>
      <trkpt lat="44.53378" lon="4.26214">
        <ele>345</ele>
        <time>2016-05-15T08:29:44.000Z</time>
      </trkpt>
      <trkpt lat="44.5338" lon="4.26213">
        <ele>345</ele>
        <time>2016-05-15T08:29:45.000Z</time>
      </trkpt>
      <trkpt lat="44.53381" lon="4.26212">
        <ele>345</ele>
        <time>2016-05-15T08:29:46.000Z</time>
      </trkpt>
      <trkpt lat="44.53382" lon="4.26211">
        <ele>345</ele>
        <time>2016-05-15T08:29:47.000Z</time>
      </trkpt>
      <trkpt lat="44.53383" lon="4.2621">
        <ele>345</ele>
        <time>2016-05-15T08:29:48.000Z</time>
      </trkpt>
      <trkpt lat="44.53384" lon="4.26209">
        <ele>345</ele>
        <time>2016-05-15T08:29:49.000Z</time>
      </trkpt>
      <trkpt lat="44.53385" lon="4.26207">
        <ele>345</ele>
        <time>2016-05-15T08:29:50.000Z</time>
      </trkpt>
      <trkpt lat="44.53387" lon="4.26206">
        <ele>345</ele>
        <time>2016-05-15T08:29:51.000Z</time>
      </trkpt>
      <trkpt lat="44.53388" lon="4.26205">
        <ele>346</ele>
        <time>2016-05-15T08:29:52.000Z</time>
      </trkpt>
      <trkpt lat="44.53389" lon="4.26205">
        <ele>346</ele>
        <time>2016-05-15T08:29:53.000Z</time>
      </trkpt>
      <trkpt lat="44.53389" lon="4.26204">
        <ele>346</ele>
        <time>2016-05-15T08:29:54.000Z</time>
      </trkpt>
      <trkpt lat="44.5339" lon="4.26205">
        <ele>346</ele>
        <time>2016-05-15T08:29:55.000Z</time>
      </trkpt>
      <trkpt lat="44.5339" lon="4.26205">
        <ele>346</ele>
        <time>2016-05-15T08:29:56.000Z</time>
      </trkpt>
      <trkpt lat="44.5339" lon="4.26205">
        <ele>346</ele>
        <time>2016-05-15T08:29:57.000Z</time>
      </trkpt>
      <trkpt lat="44.5339" lon="4.26205">
        <ele>346</ele>
        <time>2016-05-15T08:29:58.000Z</time>
      </trkpt>
      <trkpt lat="44.5339" lon="4.26205">
        <ele>346</ele>
        <time>2016-05-15T08:29:59.000Z</time>
      </trkpt>
      <trkpt lat="44.5339" lon="4.26205">
        <ele>346</ele>
        <time>2016-05-15T08:30:00.000Z</time>
      </trkpt>
      <trkpt lat="44.5339" lon="4.26204">
        <ele>346</ele>
        <time>2016-05-15T08:30:01.000Z</time>
      </trkpt>
      <trkpt lat="44.5339" lon="4.26204">
        <ele>346</ele>
        <time>2016-05-15T08:30:02.000Z</time>
      </trkpt>
      <trkpt lat="44.5339" lon="4.26203">
        <ele>346</ele>
        <time>2016-05-15T08:30:03.000Z</time>
      </trkpt>
      <trkpt lat="44.53391" lon="4.26203">
        <ele>346</ele>
        <time>2016-05-15T08:30:04.000Z</time>
      </trkpt>
      <trkpt lat="44.53391" lon="4.26202">
        <ele>346</ele>
        <time>2016-05-15T08:30:05.000Z</time>
      </trkpt>
      <trkpt lat="44.53392" lon="4.26202">
        <ele>346</ele>
        <time>2016-05-15T08:30:06.000Z</time>
      </trkpt>
      <trkpt lat="44.53392" lon="4.26202">
        <ele>346</ele>
        <time>2016-05-15T08:30:07.000Z</time>
      </trkpt>
      <trkpt lat="44.53393" lon="4.26201">
        <ele>346</ele>
        <time>2016-05-15T08:30:08.000Z</time>
      </trkpt>
      <trkpt lat="44.53394" lon="4.26201">
        <ele>346</ele>
        <time>2016-05-15T08:30:09.000Z</time>
      </trkpt>
      <trkpt lat="44.53394" lon="4.26201">
        <ele>346</ele>
        <time>2016-05-15T08:30:10.000Z</time>
      </trkpt>
      <trkpt lat="44.53394" lon="4.262">
        <ele>346</ele>
        <time>2016-05-15T08:30:11.000Z</time>
      </trkpt>
      <trkpt lat="44.53395" lon="4.262">
        <ele>346</ele>
        <time>2016-05-15T08:30:12.000Z</time>
      </trkpt>
      <trkpt lat="44.53395" lon="4.262">
        <ele>346</ele>
        <time>2016-05-15T08:30:13.000Z</time>
      </trkpt>
      <trkpt lat="44.53395" lon="4.262">
        <ele>346</ele>
        <time>2016-05-15T08:30:14.000Z</time>
      </trkpt>
      <trkpt lat="44.53395" lon="4.26199">
        <ele>346</ele>
        <time>2016-05-15T08:30:15.000Z</time>
      </trkpt>
      <trkpt lat="44.53395" lon="4.26199">
        <ele>346</ele>
        <time>2016-05-15T08:30:16.000Z</time>
      </trkpt>
      <trkpt lat="44.53395" lon="4.26199">
        <ele>346</ele>
        <time>2016-05-15T08:30:17.000Z</time>
      </trkpt>
      <trkpt lat="44.53395" lon="4.26199">
        <ele>346</ele>
        <time>2016-05-15T08:30:18.000Z</time>
      </trkpt>
      <trkpt lat="44.53396" lon="4.26199">
        <ele>346</ele>
        <time>2016-05-15T08:30:19.000Z</time>
      </trkpt>
      <trkpt lat="44.53397" lon="4.26198">
        <ele>346</ele>
        <time>2016-05-15T08:30:20.000Z</time>
      </trkpt>
      <trkpt lat="44.53398" lon="4.26197">
        <ele>346</ele>
        <time>2016-05-15T08:30:21.000Z</time>
      </trkpt>
      <trkpt lat="44.53399" lon="4.26196">
        <ele>346</ele>
        <time>2016-05-15T08:30:22.000Z</time>
      </trkpt>
      <trkpt lat="44.534" lon="4.26195">
        <ele>346</ele>
        <time>2016-05-15T08:30:23.000Z</time>
      </trkpt>
      <trkpt lat="44.53402" lon="4.26194">
        <ele>346</ele>
        <time>2016-05-15T08:30:24.000Z</time>
      </trkpt>
      <trkpt lat="44.53403" lon="4.26193">
        <ele>346</ele>
        <time>2016-05-15T08:30:25.000Z</time>
      </trkpt>
      <trkpt lat="44.53404" lon="4.26191">
        <ele>346</ele>
        <time>2016-05-15T08:30:26.000Z</time>
      </trkpt>
      <trkpt lat="44.53406" lon="4.2619">
        <ele>345</ele>
        <time>2016-05-15T08:30:27.000Z</time>
      </trkpt>
      <trkpt lat="44.53407" lon="4.26189">
        <ele>345</ele>
        <time>2016-05-15T08:30:28.000Z</time>
      </trkpt>
      <trkpt lat="44.53408" lon="4.26187">
        <ele>345</ele>
        <time>2016-05-15T08:30:29.000Z</time>
      </trkpt>
      <trkpt lat="44.5341" lon="4.26186">
        <ele>345</ele>
        <time>2016-05-15T08:30:30.000Z</time>
      </trkpt>
      <trkpt lat="44.53411" lon="4.26185">
        <ele>345</ele>
        <time>2016-05-15T08:30:31.000Z</time>
      </trkpt>
      <trkpt lat="44.53412" lon="4.26183">
        <ele>345</ele>
        <time>2016-05-15T08:30:32.000Z</time>
      </trkpt>
      <trkpt lat="44.53414" lon="4.26182">
        <ele>345</ele>
        <time>2016-05-15T08:30:33.000Z</time>
      </trkpt>
      <trkpt lat="44.53415" lon="4.2618">
        <ele>345</ele>
        <time>2016-05-15T08:30:34.000Z</time>
      </trkpt>
      <trkpt lat="44.53416" lon="4.26178">
        <ele>345</ele>
        <time>2016-05-15T08:30:35.000Z</time>
      </trkpt>
      <trkpt lat="44.53417" lon="4.26177">
        <ele>351</ele>
        <time>2016-05-15T08:30:36.000Z</time>
      </trkpt>
      <trkpt lat="44.53418" lon="4.26176">
        <ele>351</ele>
        <time>2016-05-15T08:30:37.000Z</time>
      </trkpt>
      <trkpt lat="44.53419" lon="4.26174">
        <ele>350</ele>
        <time>2016-05-15T08:30:38.000Z</time>
      </trkpt>
      <trkpt lat="44.5342" lon="4.26173">
        <ele>350</ele>
        <time>2016-05-15T08:30:39.000Z</time>
      </trkpt>
      <trkpt lat="44.53421" lon="4.26172">
        <ele>350</ele>
        <time>2016-05-15T08:30:40.000Z</time>
      </trkpt>
      <trkpt lat="44.53422" lon="4.26171">
        <ele>350</ele>
        <time>2016-05-15T08:30:41.000Z</time>
      </trkpt>
      <trkpt lat="44.53424" lon="4.26169">
        <ele>350</ele>
        <time>2016-05-15T08:30:42.000Z</time>
      </trkpt>
      <trkpt lat="44.53425" lon="4.26168">
        <ele>350</ele>
        <time>2016-05-15T08:30:43.000Z</time>
      </trkpt>
      <trkpt lat="44.53426" lon="4.26167">
        <ele>351</ele>
        <time>2016-05-15T08:30:44.000Z</time>
      </trkpt>
      <trkpt lat="44.53427" lon="4.26165">
        <ele>348</ele>
        <time>2016-05-15T08:30:45.000Z</time>
      </trkpt>
      <trkpt lat="44.53428" lon="4.26164">
        <ele>349</ele>
        <time>2016-05-15T08:30:46.000Z</time>
      </trkpt>
      <trkpt lat="44.53428" lon="4.26163">
        <ele>349</ele>
        <time>2016-05-15T08:30:47.000Z</time>
      </trkpt>
      <trkpt lat="44.53429" lon="4.26162">
        <ele>349</ele>
        <time>2016-05-15T08:30:48.000Z</time>
      </trkpt>
      <trkpt lat="44.5343" lon="4.26161">
        <ele>349</ele>
        <time>2016-05-15T08:30:49.000Z</time>
      </trkpt>
      <trkpt lat="44.53431" lon="4.2616">
        <ele>350</ele>
        <time>2016-05-15T08:30:50.000Z</time>
      </trkpt>
      <trkpt lat="44.53432" lon="4.26159">
        <ele>350</ele>
        <time>2016-05-15T08:30:51.000Z</time>
      </trkpt>
      <trkpt lat="44.53433" lon="4.26158">
        <ele>350</ele>
        <time>2016-05-15T08:30:52.000Z</time>
      </trkpt>
      <trkpt lat="44.53434" lon="4.26157">
        <ele>350</ele>
        <time>2016-05-15T08:30:53.000Z</time>
      </trkpt>
      <trkpt lat="44.53436" lon="4.26156">
        <ele>351</ele>
        <time>2016-05-15T08:30:54.000Z</time>
      </trkpt>
      <trkpt lat="44.53437" lon="4.26154">
        <ele>351</ele>
        <time>2016-05-15T08:30:55.000Z</time>
      </trkpt>
      <trkpt lat="44.53438" lon="4.26152">
        <ele>351</ele>
        <time>2016-05-15T08:30:56.000Z</time>
      </trkpt>
      <trkpt lat="44.53439" lon="4.26151">
        <ele>352</ele>
        <time>2016-05-15T08:30:57.000Z</time>
      </trkpt>
      <trkpt lat="44.5344" lon="4.26149">
        <ele>352</ele>
        <time>2016-05-15T08:30:58.000Z</time>
      </trkpt>
      <trkpt lat="44.53441" lon="4.26147">
        <ele>352</ele>
        <time>2016-05-15T08:30:59.000Z</time>
      </trkpt>
      <trkpt lat="44.53442" lon="4.26146">
        <ele>352</ele>
        <time>2016-05-15T08:31:00.000Z</time>
      </trkpt>
      <trkpt lat="44.53443" lon="4.26144">
        <ele>352</ele>
        <time>2016-05-15T08:31:01.000Z</time>
      </trkpt>
      <trkpt lat="44.53444" lon="4.26143">
        <ele>353</ele>
        <time>2016-05-15T08:31:02.000Z</time>
      </trkpt>
      <trkpt lat="44.53445" lon="4.26142">
        <ele>353</ele>
        <time>2016-05-15T08:31:03.000Z</time>
      </trkpt>
      <trkpt lat="44.53446" lon="4.26141">
        <ele>353</ele>
        <time>2016-05-15T08:31:04.000Z</time>
      </trkpt>
      <trkpt lat="44.53446" lon="4.26141">
        <ele>353</ele>
        <time>2016-05-15T08:31:05.000Z</time>
      </trkpt>
      <trkpt lat="44.53446" lon="4.2614">
        <ele>353</ele>
        <time>2016-05-15T08:31:06.000Z</time>
      </trkpt>
      <trkpt lat="44.53446" lon="4.2614">
        <ele>353</ele>
        <time>2016-05-15T08:31:07.000Z</time>
      </trkpt>
      <trkpt lat="44.53446" lon="4.2614">
        <ele>353</ele>
        <time>2016-05-15T08:31:08.000Z</time>
      </trkpt>
      <trkpt lat="44.53446" lon="4.2614">
        <ele>353</ele>
        <time>2016-05-15T08:31:09.000Z</time>
      </trkpt>
      <trkpt lat="44.53446" lon="4.2614">
        <ele>353</ele>
        <time>2016-05-15T08:31:10.000Z</time>
      </trkpt>
      <trkpt lat="44.53446" lon="4.2614">
        <ele>353</ele>
        <time>2016-05-15T08:31:11.000Z</time>
      </trkpt>
      <trkpt lat="44.53446" lon="4.2614">
        <ele>353</ele>
        <time>2016-05-15T08:31:12.000Z</time>
      </trkpt>
      <trkpt lat="44.53446" lon="4.2614">
        <ele>353</ele>
        <time>2016-05-15T08:31:13.000Z</time>
      </trkpt>
      <trkpt lat="44.53446" lon="4.2614">
        <ele>353</ele>
        <time>2016-05-15T08:31:14.000Z</time>
      </trkpt>
      <trkpt lat="44.53446" lon="4.2614">
        <ele>353</ele>
        <time>2016-05-15T08:31:15.000Z</time>
      </trkpt>
      <trkpt lat="44.53446" lon="4.2614">
        <ele>353</ele>
        <time>2016-05-15T08:31:16.000Z</time>
      </trkpt>
      <trkpt lat="44.53447" lon="4.2614">
        <ele>353</ele>
        <time>2016-05-15T08:31:17.000Z</time>
      </trkpt>
      <trkpt lat="44.53446" lon="4.2614">
        <ele>353</ele>
        <time>2016-05-15T08:31:18.000Z</time>
      </trkpt>
      <trkpt lat="44.53446" lon="4.2614">
        <ele>353</ele>
        <time>2016-05-15T08:31:19.000Z</time>
      </trkpt>
      <trkpt lat="44.53446" lon="4.2614">
        <ele>353</ele>
        <time>2016-05-15T08:31:20.000Z</time>
      </trkpt>
      <trkpt lat="44.53446" lon="4.2614">
        <ele>353</ele>
        <time>2016-05-15T08:31:21.000Z</time>
      </trkpt>
      <trkpt lat="44.53446" lon="4.26139">
        <ele>353</ele>
        <time>2016-05-15T08:31:22.000Z</time>
      </trkpt>
      <trkpt lat="44.53446" lon="4.26139">
        <ele>353</ele>
        <time>2016-05-15T08:31:23.000Z</time>
      </trkpt>
      <trkpt lat="44.53446" lon="4.26139">
        <ele>353</ele>
        <time>2016-05-15T08:31:24.000Z</time>
      </trkpt>
      <trkpt lat="44.53446" lon="4.26139">
        <ele>353</ele>
        <time>2016-05-15T08:31:25.000Z</time>
      </trkpt>
      <trkpt lat="44.53446" lon="4.26139">
        <ele>353</ele>
        <time>2016-05-15T08:31:26.000Z</time>
      </trkpt>
      <trkpt lat="44.53446" lon="4.26139">
        <ele>353</ele>
        <time>2016-05-15T08:31:27.000Z</time>
      </trkpt>
      <trkpt lat="44.53446" lon="4.26139">
        <ele>353</ele>
        <time>2016-05-15T08:31:28.000Z</time>
      </trkpt>
      <trkpt lat="44.53446" lon="4.26139">
        <ele>353</ele>
        <time>2016-05-15T08:31:29.000Z</time>
      </trkpt>
      <trkpt lat="44.53447" lon="4.26139">
        <ele>353</ele>
        <time>2016-05-15T08:31:30.000Z</time>
      </trkpt>
      <trkpt lat="44.53447" lon="4.26139">
        <ele>353</ele>
        <time>2016-05-15T08:31:31.000Z</time>
      </trkpt>
      <trkpt lat="44.53447" lon="4.26139">
        <ele>353</ele>
        <time>2016-05-15T08:31:32.000Z</time>
      </trkpt>
      <trkpt lat="44.53447" lon="4.26139">
        <ele>353</ele>
        <time>2016-05-15T08:31:33.000Z</time>
      </trkpt>
      <trkpt lat="44.53447" lon="4.26139">
        <ele>353</ele>
        <time>2016-05-15T08:31:34.000Z</time>
      </trkpt>
      <trkpt lat="44.53447" lon="4.26139">
        <ele>353</ele>
        <time>2016-05-15T08:31:35.000Z</time>
      </trkpt>
      <trkpt lat="44.53447" lon="4.26139">
        <ele>353</ele>
        <time>2016-05-15T08:31:36.000Z</time>
      </trkpt>
      <trkpt lat="44.53447" lon="4.26139">
        <ele>353</ele>
        <time>2016-05-15T08:31:37.000Z</time>
      </trkpt>
      <trkpt lat="44.53447" lon="4.26139">
        <ele>353</ele>
        <time>2016-05-15T08:31:38.000Z</time>
      </trkpt>
      <trkpt lat="44.53447" lon="4.26139">
        <ele>353</ele>
        <time>2016-05-15T08:31:39.000Z</time>
      </trkpt>
      <trkpt lat="44.53447" lon="4.26139">
        <ele>353</ele>
        <time>2016-05-15T08:31:40.000Z</time>
      </trkpt>
      <trkpt lat="44.53447" lon="4.26139">
        <ele>353</ele>
        <time>2016-05-15T08:31:41.000Z</time>
      </trkpt>
      <trkpt lat="44.53447" lon="4.26139">
        <ele>353</ele>
        <time>2016-05-15T08:31:42.000Z</time>
      </trkpt>
      <trkpt lat="44.53447" lon="4.26139">
        <ele>353</ele>
        <time>2016-05-15T08:31:43.000Z</time>
      </trkpt>
      <trkpt lat="44.53447" lon="4.26139">
        <ele>353</ele>
        <time>2016-05-15T08:31:44.000Z</time>
      </trkpt>
      <trkpt lat="44.53447" lon="4.26139">
        <ele>353</ele>
        <time>2016-05-15T08:31:45.000Z</time>
      </trkpt>
      <trkpt lat="44.53447" lon="4.26139">
        <ele>353</ele>
        <time>2016-05-15T08:31:46.000Z</time>
      </trkpt>
      <trkpt lat="44.53447" lon="4.26139">
        <ele>353</ele>
        <time>2016-05-15T08:31:47.000Z</time>
      </trkpt>
      <trkpt lat="44.53447" lon="4.26139">
        <ele>353</ele>
        <time>2016-05-15T08:31:48.000Z</time>
      </trkpt>
      <trkpt lat="44.53447" lon="4.26139">
        <ele>353</ele>
        <time>2016-05-15T08:31:49.000Z</time>
      </trkpt>
      <trkpt lat="44.53447" lon="4.26138">
        <ele>353</ele>
        <time>2016-05-15T08:31:50.000Z</time>
      </trkpt>
      <trkpt lat="44.53448" lon="4.26137">
        <ele>353</ele>
        <time>2016-05-15T08:31:51.000Z</time>
      </trkpt>
      <trkpt lat="44.53449" lon="4.26136">
        <ele>353</ele>
        <time>2016-05-15T08:31:52.000Z</time>
      </trkpt>
      <trkpt lat="44.53449" lon="4.26136">
        <ele>353</ele>
        <time>2016-05-15T08:31:53.000Z</time>
      </trkpt>
      <trkpt lat="44.5345" lon="4.26135">
        <ele>353</ele>
        <time>2016-05-15T08:31:54.000Z</time>
      </trkpt>
      <trkpt lat="44.5345" lon="4.26134">
        <ele>353</ele>
        <time>2016-05-15T08:31:55.000Z</time>
      </trkpt>
      <trkpt lat="44.53451" lon="4.26133">
        <ele>353</ele>
        <time>2016-05-15T08:31:56.000Z</time>
      </trkpt>
      <trkpt lat="44.53452" lon="4.26133">
        <ele>354</ele>
        <time>2016-05-15T08:31:57.000Z</time>
      </trkpt>
      <trkpt lat="44.53453" lon="4.26132">
        <ele>354</ele>
        <time>2016-05-15T08:31:58.000Z</time>
      </trkpt>
      <trkpt lat="44.53453" lon="4.26131">
        <ele>354</ele>
        <time>2016-05-15T08:31:59.000Z</time>
      </trkpt>
      <trkpt lat="44.53453" lon="4.2613">
        <ele>354</ele>
        <time>2016-05-15T08:32:00.000Z</time>
      </trkpt>
      <trkpt lat="44.53451" lon="4.2613">
        <ele>353</ele>
        <time>2016-05-15T08:32:01.000Z</time>
      </trkpt>
      <trkpt lat="44.53451" lon="4.26131">
        <ele>353</ele>
        <time>2016-05-15T08:32:02.000Z</time>
      </trkpt>
      <trkpt lat="44.53451" lon="4.26133">
        <ele>353</ele>
        <time>2016-05-15T08:32:03.000Z</time>
      </trkpt>
      <trkpt lat="44.53451" lon="4.26133">
        <ele>353</ele>
        <time>2016-05-15T08:32:04.000Z</time>
      </trkpt>
      <trkpt lat="44.53451" lon="4.26133">
        <ele>353</ele>
        <time>2016-05-15T08:32:05.000Z</time>
      </trkpt>
      <trkpt lat="44.53451" lon="4.26133">
        <ele>353</ele>
        <time>2016-05-15T08:32:06.000Z</time>
      </trkpt>
      <trkpt lat="44.53451" lon="4.26133">
        <ele>353</ele>
        <time>2016-05-15T08:32:07.000Z</time>
      </trkpt>
      <trkpt lat="44.53451" lon="4.26133">
        <ele>353</ele>
        <time>2016-05-15T08:32:08.000Z</time>
      </trkpt>
      <trkpt lat="44.53452" lon="4.26133">
        <ele>354</ele>
        <time>2016-05-15T08:32:09.000Z</time>
      </trkpt>
      <trkpt lat="44.53452" lon="4.26133">
        <ele>354</ele>
        <time>2016-05-15T08:32:10.000Z</time>
      </trkpt>
      <trkpt lat="44.53452" lon="4.26133">
        <ele>354</ele>
        <time>2016-05-15T08:32:11.000Z</time>
      </trkpt>
      <trkpt lat="44.53452" lon="4.26133">
        <ele>354</ele>
        <time>2016-05-15T08:32:12.000Z</time>
      </trkpt>
      <trkpt lat="44.53453" lon="4.26133">
        <ele>354</ele>
        <time>2016-05-15T08:32:13.000Z</time>
      </trkpt>
      <trkpt lat="44.53453" lon="4.26134">
        <ele>354</ele>
        <time>2016-05-15T08:32:14.000Z</time>
      </trkpt>
      <trkpt lat="44.53454" lon="4.26134">
        <ele>354</ele>
        <time>2016-05-15T08:32:15.000Z</time>
      </trkpt>
      <trkpt lat="44.53455" lon="4.26134">
        <ele>354</ele>
        <time>2016-05-15T08:32:16.000Z</time>
      </trkpt>
      <trkpt lat="44.53456" lon="4.26132">
        <ele>354</ele>
        <time>2016-05-15T08:32:17.000Z</time>
      </trkpt>
      <trkpt lat="44.53458" lon="4.2613">
        <ele>354</ele>
        <time>2016-05-15T08:32:18.000Z</time>
      </trkpt>
      <trkpt lat="44.53459" lon="4.26127">
        <ele>354</ele>
        <time>2016-05-15T08:32:19.000Z</time>
      </trkpt>
      <trkpt lat="44.53461" lon="4.26124">
        <ele>354</ele>
        <time>2016-05-15T08:32:20.000Z</time>
      </trkpt>
      <trkpt lat="44.53464" lon="4.26121">
        <ele>354</ele>
        <time>2016-05-15T08:32:21.000Z</time>
      </trkpt>
      <trkpt lat="44.53466" lon="4.26118">
        <ele>354</ele>
        <time>2016-05-15T08:32:22.000Z</time>
      </trkpt>
      <trkpt lat="44.53469" lon="4.26116">
        <ele>355</ele>
        <time>2016-05-15T08:32:23.000Z</time>
      </trkpt>
      <trkpt lat="44.53471" lon="4.26115">
        <ele>355</ele>
        <time>2016-05-15T08:32:24.000Z</time>
      </trkpt>
      <trkpt lat="44.53473" lon="4.26113">
        <ele>355</ele>
        <time>2016-05-15T08:32:25.000Z</time>
      </trkpt>
      <trkpt lat="44.53475" lon="4.26111">
        <ele>355</ele>
        <time>2016-05-15T08:32:26.000Z</time>
      </trkpt>
      <trkpt lat="44.53477" lon="4.2611">
        <ele>355</ele>
        <time>2016-05-15T08:32:27.000Z</time>
      </trkpt>
      <trkpt lat="44.53479" lon="4.26108">
        <ele>355</ele>
        <time>2016-05-15T08:32:28.000Z</time>
      </trkpt>
      <trkpt lat="44.53481" lon="4.26107">
        <ele>355</ele>
        <time>2016-05-15T08:32:29.000Z</time>
      </trkpt>
      <trkpt lat="44.53483" lon="4.26106">
        <ele>355</ele>
        <time>2016-05-15T08:32:30.000Z</time>
      </trkpt>
      <trkpt lat="44.53485" lon="4.26104">
        <ele>355</ele>
        <time>2016-05-15T08:32:31.000Z</time>
      </trkpt>
      <trkpt lat="44.53487" lon="4.26102">
        <ele>355</ele>
        <time>2016-05-15T08:32:32.000Z</time>
      </trkpt>
      <trkpt lat="44.53489" lon="4.26101">
        <ele>355</ele>
        <time>2016-05-15T08:32:33.000Z</time>
      </trkpt>
      <trkpt lat="44.5349" lon="4.26099">
        <ele>355</ele>
        <time>2016-05-15T08:32:34.000Z</time>
      </trkpt>
      <trkpt lat="44.53492" lon="4.26097">
        <ele>355</ele>
        <time>2016-05-15T08:32:35.000Z</time>
      </trkpt>
      <trkpt lat="44.53494" lon="4.26095">
        <ele>355</ele>
        <time>2016-05-15T08:32:36.000Z</time>
      </trkpt>
      <trkpt lat="44.53496" lon="4.26094">
        <ele>355</ele>
        <time>2016-05-15T08:32:37.000Z</time>
      </trkpt>
      <trkpt lat="44.53497" lon="4.26092">
        <ele>355</ele>
        <time>2016-05-15T08:32:38.000Z</time>
      </trkpt>
      <trkpt lat="44.53499" lon="4.2609">
        <ele>355</ele>
        <time>2016-05-15T08:32:39.000Z</time>
      </trkpt>
      <trkpt lat="44.53501" lon="4.26089">
        <ele>358</ele>
        <time>2016-05-15T08:32:40.000Z</time>
      </trkpt>
      <trkpt lat="44.53502" lon="4.26087">
        <ele>357</ele>
        <time>2016-05-15T08:32:41.000Z</time>
      </trkpt>
      <trkpt lat="44.53504" lon="4.26085">
        <ele>358</ele>
        <time>2016-05-15T08:32:42.000Z</time>
      </trkpt>
      <trkpt lat="44.53506" lon="4.26083">
        <ele>356</ele>
        <time>2016-05-15T08:32:43.000Z</time>
      </trkpt>
      <trkpt lat="44.53508" lon="4.26082">
        <ele>357</ele>
        <time>2016-05-15T08:32:44.000Z</time>
      </trkpt>
      <trkpt lat="44.5351" lon="4.2608">
        <ele>357</ele>
        <time>2016-05-15T08:32:45.000Z</time>
      </trkpt>
      <trkpt lat="44.53512" lon="4.26078">
        <ele>358</ele>
        <time>2016-05-15T08:32:46.000Z</time>
      </trkpt>
      <trkpt lat="44.53513" lon="4.26076">
        <ele>358</ele>
        <time>2016-05-15T08:32:47.000Z</time>
      </trkpt>
      <trkpt lat="44.53515" lon="4.26074">
        <ele>358</ele>
        <time>2016-05-15T08:32:48.000Z</time>
      </trkpt>
      <trkpt lat="44.53517" lon="4.26072">
        <ele>359</ele>
        <time>2016-05-15T08:32:49.000Z</time>
      </trkpt>
      <trkpt lat="44.53519" lon="4.2607">
        <ele>359</ele>
        <time>2016-05-15T08:32:50.000Z</time>
      </trkpt>
      <trkpt lat="44.5352" lon="4.26068">
        <ele>359</ele>
        <time>2016-05-15T08:32:51.000Z</time>
      </trkpt>
      <trkpt lat="44.53522" lon="4.26067">
        <ele>359</ele>
        <time>2016-05-15T08:32:52.000Z</time>
      </trkpt>
      <trkpt lat="44.53524" lon="4.26065">
        <ele>360</ele>
        <time>2016-05-15T08:32:53.000Z</time>
      </trkpt>
      <trkpt lat="44.53525" lon="4.26062">
        <ele>360</ele>
        <time>2016-05-15T08:32:54.000Z</time>
      </trkpt>
      <trkpt lat="44.53527" lon="4.2606">
        <ele>360</ele>
        <time>2016-05-15T08:32:55.000Z</time>
      </trkpt>
      <trkpt lat="44.53529" lon="4.26057">
        <ele>360</ele>
        <time>2016-05-15T08:32:56.000Z</time>
      </trkpt>
      <trkpt lat="44.53531" lon="4.26055">
        <ele>360</ele>
        <time>2016-05-15T08:32:57.000Z</time>
      </trkpt>
      <trkpt lat="44.53533" lon="4.26053">
        <ele>360</ele>
        <time>2016-05-15T08:32:58.000Z</time>
      </trkpt>
      <trkpt lat="44.53535" lon="4.26051">
        <ele>361</ele>
        <time>2016-05-15T08:32:59.000Z</time>
      </trkpt>
      <trkpt lat="44.53536" lon="4.2605">
        <ele>361</ele>
        <time>2016-05-15T08:33:00.000Z</time>
      </trkpt>
      <trkpt lat="44.53538" lon="4.26048">
        <ele>361</ele>
        <time>2016-05-15T08:33:01.000Z</time>
      </trkpt>
      <trkpt lat="44.5354" lon="4.26047">
        <ele>361</ele>
        <time>2016-05-15T08:33:02.000Z</time>
      </trkpt>
      <trkpt lat="44.53542" lon="4.26045">
        <ele>361</ele>
        <time>2016-05-15T08:33:03.000Z</time>
      </trkpt>
      <trkpt lat="44.53543" lon="4.26042">
        <ele>361</ele>
        <time>2016-05-15T08:33:04.000Z</time>
      </trkpt>
      <trkpt lat="44.53545" lon="4.26041">
        <ele>361</ele>
        <time>2016-05-15T08:33:05.000Z</time>
      </trkpt>
      <trkpt lat="44.53546" lon="4.26039">
        <ele>361</ele>
        <time>2016-05-15T08:33:06.000Z</time>
      </trkpt>
      <trkpt lat="44.53548" lon="4.26037">
        <ele>361</ele>
        <time>2016-05-15T08:33:07.000Z</time>
      </trkpt>
      <trkpt lat="44.5355" lon="4.26036">
        <ele>361</ele>
        <time>2016-05-15T08:33:08.000Z</time>
      </trkpt>
      <trkpt lat="44.53551" lon="4.26034">
        <ele>361</ele>
        <time>2016-05-15T08:33:09.000Z</time>
      </trkpt>
      <trkpt lat="44.53553" lon="4.26032">
        <ele>361</ele>
        <time>2016-05-15T08:33:10.000Z</time>
      </trkpt>
      <trkpt lat="44.53554" lon="4.2603">
        <ele>361</ele>
        <time>2016-05-15T08:33:11.000Z</time>
      </trkpt>
      <trkpt lat="44.53556" lon="4.26029">
        <ele>361</ele>
        <time>2016-05-15T08:33:12.000Z</time>
      </trkpt>
      <trkpt lat="44.53558" lon="4.26027">
        <ele>361</ele>
        <time>2016-05-15T08:33:13.000Z</time>
      </trkpt>
      <trkpt lat="44.53559" lon="4.26025">
        <ele>361</ele>
        <time>2016-05-15T08:33:14.000Z</time>
      </trkpt>
      <trkpt lat="44.53561" lon="4.26023">
        <ele>361</ele>
        <time>2016-05-15T08:33:15.000Z</time>
      </trkpt>
      <trkpt lat="44.53562" lon="4.26021">
        <ele>361</ele>
        <time>2016-05-15T08:33:16.000Z</time>
      </trkpt>
      <trkpt lat="44.53564" lon="4.26019">
        <ele>361</ele>
        <time>2016-05-15T08:33:17.000Z</time>
      </trkpt>
      <trkpt lat="44.53565" lon="4.26017">
        <ele>361</ele>
        <time>2016-05-15T08:33:18.000Z</time>
      </trkpt>
      <trkpt lat="44.53567" lon="4.26016">
        <ele>361</ele>
        <time>2016-05-15T08:33:19.000Z</time>
      </trkpt>
      <trkpt lat="44.53569" lon="4.26013">
        <ele>361</ele>
        <time>2016-05-15T08:33:20.000Z</time>
      </trkpt>
      <trkpt lat="44.5357" lon="4.26011">
        <ele>361</ele>
        <time>2016-05-15T08:33:21.000Z</time>
      </trkpt>
      <trkpt lat="44.53572" lon="4.2601">
        <ele>361</ele>
        <time>2016-05-15T08:33:22.000Z</time>
      </trkpt>
      <trkpt lat="44.53573" lon="4.26008">
        <ele>360</ele>
        <time>2016-05-15T08:33:23.000Z</time>
      </trkpt>
      <trkpt lat="44.53575" lon="4.26005">
        <ele>360</ele>
        <time>2016-05-15T08:33:24.000Z</time>
      </trkpt>
      <trkpt lat="44.53576" lon="4.26003">
        <ele>360</ele>
        <time>2016-05-15T08:33:25.000Z</time>
      </trkpt>
      <trkpt lat="44.53578" lon="4.26001">
        <ele>360</ele>
        <time>2016-05-15T08:33:26.000Z</time>
      </trkpt>
      <trkpt lat="44.53579" lon="4.25999">
        <ele>360</ele>
        <time>2016-05-15T08:33:27.000Z</time>
      </trkpt>
      <trkpt lat="44.5358" lon="4.25997">
        <ele>360</ele>
        <time>2016-05-15T08:33:28.000Z</time>
      </trkpt>
      <trkpt lat="44.53582" lon="4.25995">
        <ele>360</ele>
        <time>2016-05-15T08:33:29.000Z</time>
      </trkpt>
      <trkpt lat="44.53583" lon="4.25993">
        <ele>360</ele>
        <time>2016-05-15T08:33:30.000Z</time>
      </trkpt>
      <trkpt lat="44.53585" lon="4.25991">
        <ele>362</ele>
        <time>2016-05-15T08:33:31.000Z</time>
      </trkpt>
      <trkpt lat="44.53586" lon="4.25989">
        <ele>363</ele>
        <time>2016-05-15T08:33:32.000Z</time>
      </trkpt>
      <trkpt lat="44.53588" lon="4.25987">
        <ele>363</ele>
        <time>2016-05-15T08:33:33.000Z</time>
      </trkpt>
      <trkpt lat="44.53589" lon="4.25985">
        <ele>363</ele>
        <time>2016-05-15T08:33:34.000Z</time>
      </trkpt>
      <trkpt lat="44.5359" lon="4.25983">
        <ele>364</ele>
        <time>2016-05-15T08:33:35.000Z</time>
      </trkpt>
      <trkpt lat="44.53592" lon="4.25981">
        <ele>364</ele>
        <time>2016-05-15T08:33:36.000Z</time>
      </trkpt>
      <trkpt lat="44.53593" lon="4.25978">
        <ele>364</ele>
        <time>2016-05-15T08:33:37.000Z</time>
      </trkpt>
      <trkpt lat="44.53595" lon="4.25976">
        <ele>365</ele>
        <time>2016-05-15T08:33:38.000Z</time>
      </trkpt>
      <trkpt lat="44.53596" lon="4.25974">
        <ele>365</ele>
        <time>2016-05-15T08:33:39.000Z</time>
      </trkpt>
      <trkpt lat="44.53597" lon="4.25972">
        <ele>365</ele>
        <time>2016-05-15T08:33:40.000Z</time>
      </trkpt>
      <trkpt lat="44.53599" lon="4.2597">
        <ele>365</ele>
        <time>2016-05-15T08:33:41.000Z</time>
      </trkpt>
      <trkpt lat="44.536" lon="4.25968">
        <ele>366</ele>
        <time>2016-05-15T08:33:42.000Z</time>
      </trkpt>
      <trkpt lat="44.53602" lon="4.25965">
        <ele>366</ele>
        <time>2016-05-15T08:33:43.000Z</time>
      </trkpt>
      <trkpt lat="44.53604" lon="4.25963">
        <ele>366</ele>
        <time>2016-05-15T08:33:44.000Z</time>
      </trkpt>
      <trkpt lat="44.53605" lon="4.25961">
        <ele>366</ele>
        <time>2016-05-15T08:33:45.000Z</time>
      </trkpt>
      <trkpt lat="44.53606" lon="4.25959">
        <ele>366</ele>
        <time>2016-05-15T08:33:46.000Z</time>
      </trkpt>
      <trkpt lat="44.53608" lon="4.25957">
        <ele>366</ele>
        <time>2016-05-15T08:33:47.000Z</time>
      </trkpt>
      <trkpt lat="44.53609" lon="4.25955">
        <ele>366</ele>
        <time>2016-05-15T08:33:48.000Z</time>
      </trkpt>
      <trkpt lat="44.53611" lon="4.25952">
        <ele>366</ele>
        <time>2016-05-15T08:33:49.000Z</time>
      </trkpt>
      <trkpt lat="44.53612" lon="4.2595">
        <ele>366</ele>
        <time>2016-05-15T08:33:50.000Z</time>
      </trkpt>
      <trkpt lat="44.53614" lon="4.25948">
        <ele>366</ele>
        <time>2016-05-15T08:33:51.000Z</time>
      </trkpt>
      <trkpt lat="44.53616" lon="4.25946">
        <ele>366</ele>
        <time>2016-05-15T08:33:52.000Z</time>
      </trkpt>
      <trkpt lat="44.53617" lon="4.25944">
        <ele>367</ele>
        <time>2016-05-15T08:33:53.000Z</time>
      </trkpt>
      <trkpt lat="44.53619" lon="4.25942">
        <ele>367</ele>
        <time>2016-05-15T08:33:54.000Z</time>
      </trkpt>
      <trkpt lat="44.5362" lon="4.2594">
        <ele>367</ele>
        <time>2016-05-15T08:33:55.000Z</time>
      </trkpt>
      <trkpt lat="44.53621" lon="4.25938">
        <ele>367</ele>
        <time>2016-05-15T08:33:56.000Z</time>
      </trkpt>
      <trkpt lat="44.53623" lon="4.25936">
        <ele>367</ele>
        <time>2016-05-15T08:33:57.000Z</time>
      </trkpt>
      <trkpt lat="44.53624" lon="4.25933">
        <ele>367</ele>
        <time>2016-05-15T08:33:58.000Z</time>
      </trkpt>
      <trkpt lat="44.53626" lon="4.25931">
        <ele>367</ele>
        <time>2016-05-15T08:33:59.000Z</time>
      </trkpt>
      <trkpt lat="44.53627" lon="4.25929">
        <ele>367</ele>
        <time>2016-05-15T08:34:00.000Z</time>
      </trkpt>
      <trkpt lat="44.53629" lon="4.25927">
        <ele>367</ele>
        <time>2016-05-15T08:34:01.000Z</time>
      </trkpt>
      <trkpt lat="44.5363" lon="4.25924">
        <ele>367</ele>
        <time>2016-05-15T08:34:02.000Z</time>
      </trkpt>
      <trkpt lat="44.53631" lon="4.25922">
        <ele>367</ele>
        <time>2016-05-15T08:34:03.000Z</time>
      </trkpt>
      <trkpt lat="44.53633" lon="4.2592">
        <ele>367</ele>
        <time>2016-05-15T08:34:04.000Z</time>
      </trkpt>
      <trkpt lat="44.53634" lon="4.25917">
        <ele>367</ele>
        <time>2016-05-15T08:34:05.000Z</time>
      </trkpt>
      <trkpt lat="44.53635" lon="4.25915">
        <ele>368</ele>
        <time>2016-05-15T08:34:06.000Z</time>
      </trkpt>
      <trkpt lat="44.53637" lon="4.25912">
        <ele>368</ele>
        <time>2016-05-15T08:34:07.000Z</time>
      </trkpt>
      <trkpt lat="44.53638" lon="4.2591">
        <ele>368</ele>
        <time>2016-05-15T08:34:08.000Z</time>
      </trkpt>
      <trkpt lat="44.53639" lon="4.25908">
        <ele>368</ele>
        <time>2016-05-15T08:34:09.000Z</time>
      </trkpt>
      <trkpt lat="44.5364" lon="4.25906">
        <ele>368</ele>
        <time>2016-05-15T08:34:10.000Z</time>
      </trkpt>
      <trkpt lat="44.53642" lon="4.25904">
        <ele>368</ele>
        <time>2016-05-15T08:34:11.000Z</time>
      </trkpt>
      <trkpt lat="44.53643" lon="4.25902">
        <ele>368</ele>
        <time>2016-05-15T08:34:12.000Z</time>
      </trkpt>
      <trkpt lat="44.53644" lon="4.25899">
        <ele>368</ele>
        <time>2016-05-15T08:34:13.000Z</time>
      </trkpt>
      <trkpt lat="44.53646" lon="4.25897">
        <ele>368</ele>
        <time>2016-05-15T08:34:14.000Z</time>
      </trkpt>
      <trkpt lat="44.53647" lon="4.25895">
        <ele>368</ele>
        <time>2016-05-15T08:34:15.000Z</time>
      </trkpt>
      <trkpt lat="44.53649" lon="4.25893">
        <ele>368</ele>
        <time>2016-05-15T08:34:16.000Z</time>
      </trkpt>
      <trkpt lat="44.5365" lon="4.25891">
        <ele>368</ele>
        <time>2016-05-15T08:34:17.000Z</time>
      </trkpt>
      <trkpt lat="44.53651" lon="4.25889">
        <ele>368</ele>
        <time>2016-05-15T08:34:18.000Z</time>
      </trkpt>
      <trkpt lat="44.53653" lon="4.25887">
        <ele>368</ele>
        <time>2016-05-15T08:34:19.000Z</time>
      </trkpt>
      <trkpt lat="44.53654" lon="4.25884">
        <ele>368</ele>
        <time>2016-05-15T08:34:20.000Z</time>
      </trkpt>
      <trkpt lat="44.53656" lon="4.25882">
        <ele>368</ele>
        <time>2016-05-15T08:34:21.000Z</time>
      </trkpt>
      <trkpt lat="44.53657" lon="4.2588">
        <ele>368</ele>
        <time>2016-05-15T08:34:22.000Z</time>
      </trkpt>
      <trkpt lat="44.53659" lon="4.25879">
        <ele>368</ele>
        <time>2016-05-15T08:34:23.000Z</time>
      </trkpt>
      <trkpt lat="44.53661" lon="4.25877">
        <ele>368</ele>
        <time>2016-05-15T08:34:24.000Z</time>
      </trkpt>
      <trkpt lat="44.53663" lon="4.25875">
        <ele>368</ele>
        <time>2016-05-15T08:34:25.000Z</time>
      </trkpt>
      <trkpt lat="44.53664" lon="4.25873">
        <ele>368</ele>
        <time>2016-05-15T08:34:26.000Z</time>
      </trkpt>
      <trkpt lat="44.53666" lon="4.25872">
        <ele>368</ele>
        <time>2016-05-15T08:34:27.000Z</time>
      </trkpt>
      <trkpt lat="44.53667" lon="4.2587">
        <ele>372</ele>
        <time>2016-05-15T08:34:28.000Z</time>
      </trkpt>
      <trkpt lat="44.53669" lon="4.25868">
        <ele>372</ele>
        <time>2016-05-15T08:34:29.000Z</time>
      </trkpt>
      <trkpt lat="44.5367" lon="4.25866">
        <ele>372</ele>
        <time>2016-05-15T08:34:30.000Z</time>
      </trkpt>
      <trkpt lat="44.53672" lon="4.25865">
        <ele>372</ele>
        <time>2016-05-15T08:34:31.000Z</time>
      </trkpt>
      <trkpt lat="44.53674" lon="4.25863">
        <ele>372</ele>
        <time>2016-05-15T08:34:32.000Z</time>
      </trkpt>
      <trkpt lat="44.53676" lon="4.25862">
        <ele>372</ele>
        <time>2016-05-15T08:34:33.000Z</time>
      </trkpt>
      <trkpt lat="44.53678" lon="4.25862">
        <ele>372</ele>
        <time>2016-05-15T08:34:34.000Z</time>
      </trkpt>
      <trkpt lat="44.5368" lon="4.25861">
        <ele>372</ele>
        <time>2016-05-15T08:34:35.000Z</time>
      </trkpt>
      <trkpt lat="44.53681" lon="4.25861">
        <ele>372</ele>
        <time>2016-05-15T08:34:36.000Z</time>
      </trkpt>
      <trkpt lat="44.53683" lon="4.2586">
        <ele>372</ele>
        <time>2016-05-15T08:34:37.000Z</time>
      </trkpt>
      <trkpt lat="44.53685" lon="4.2586">
        <ele>372</ele>
        <time>2016-05-15T08:34:38.000Z</time>
      </trkpt>
      <trkpt lat="44.53687" lon="4.2586">
        <ele>372</ele>
        <time>2016-05-15T08:34:39.000Z</time>
      </trkpt>
      <trkpt lat="44.53689" lon="4.2586">
        <ele>373</ele>
        <time>2016-05-15T08:34:40.000Z</time>
      </trkpt>
      <trkpt lat="44.5369" lon="4.25861">
        <ele>373</ele>
        <time>2016-05-15T08:34:41.000Z</time>
      </trkpt>
      <trkpt lat="44.53692" lon="4.25863">
        <ele>373</ele>
        <time>2016-05-15T08:34:42.000Z</time>
      </trkpt>
      <trkpt lat="44.53693" lon="4.25864">
        <ele>373</ele>
        <time>2016-05-15T08:34:43.000Z</time>
      </trkpt>
      <trkpt lat="44.53694" lon="4.25866">
        <ele>373</ele>
        <time>2016-05-15T08:34:44.000Z</time>
      </trkpt>
      <trkpt lat="44.53696" lon="4.25867">
        <ele>373</ele>
        <time>2016-05-15T08:34:45.000Z</time>
      </trkpt>
      <trkpt lat="44.53697" lon="4.25869">
        <ele>373</ele>
        <time>2016-05-15T08:34:46.000Z</time>
      </trkpt>
      <trkpt lat="44.53699" lon="4.25871">
        <ele>373</ele>
        <time>2016-05-15T08:34:47.000Z</time>
      </trkpt>
      <trkpt lat="44.537" lon="4.25872">
        <ele>374</ele>
        <time>2016-05-15T08:34:48.000Z</time>
      </trkpt>
      <trkpt lat="44.53702" lon="4.25874">
        <ele>374</ele>
        <time>2016-05-15T08:34:49.000Z</time>
      </trkpt>
      <trkpt lat="44.53703" lon="4.25875">
        <ele>374</ele>
        <time>2016-05-15T08:34:50.000Z</time>
      </trkpt>
      <trkpt lat="44.53705" lon="4.25877">
        <ele>374</ele>
        <time>2016-05-15T08:34:51.000Z</time>
      </trkpt>
      <trkpt lat="44.53706" lon="4.25879">
        <ele>374</ele>
        <time>2016-05-15T08:34:52.000Z</time>
      </trkpt>
      <trkpt lat="44.53707" lon="4.2588">
        <ele>374</ele>
        <time>2016-05-15T08:34:53.000Z</time>
      </trkpt>
      <trkpt lat="44.53709" lon="4.25882">
        <ele>374</ele>
        <time>2016-05-15T08:34:54.000Z</time>
      </trkpt>
      <trkpt lat="44.5371" lon="4.25884">
        <ele>375</ele>
        <time>2016-05-15T08:34:55.000Z</time>
      </trkpt>
      <trkpt lat="44.53712" lon="4.25885">
        <ele>375</ele>
        <time>2016-05-15T08:34:56.000Z</time>
      </trkpt>
      <trkpt lat="44.53713" lon="4.25887">
        <ele>375</ele>
        <time>2016-05-15T08:34:57.000Z</time>
      </trkpt>
      <trkpt lat="44.53715" lon="4.25889">
        <ele>375</ele>
        <time>2016-05-15T08:34:58.000Z</time>
      </trkpt>
      <trkpt lat="44.53716" lon="4.25891">
        <ele>375</ele>
        <time>2016-05-15T08:34:59.000Z</time>
      </trkpt>
      <trkpt lat="44.53718" lon="4.25892">
        <ele>376</ele>
        <time>2016-05-15T08:35:00.000Z</time>
      </trkpt>
      <trkpt lat="44.53719" lon="4.25894">
        <ele>376</ele>
        <time>2016-05-15T08:35:01.000Z</time>
      </trkpt>
      <trkpt lat="44.5372" lon="4.25896">
        <ele>376</ele>
        <time>2016-05-15T08:35:02.000Z</time>
      </trkpt>
      <trkpt lat="44.53722" lon="4.25897">
        <ele>376</ele>
        <time>2016-05-15T08:35:03.000Z</time>
      </trkpt>
      <trkpt lat="44.53723" lon="4.25899">
        <ele>377</ele>
        <time>2016-05-15T08:35:04.000Z</time>
      </trkpt>
      <trkpt lat="44.53725" lon="4.25901">
        <ele>377</ele>
        <time>2016-05-15T08:35:05.000Z</time>
      </trkpt>
      <trkpt lat="44.53726" lon="4.25903">
        <ele>377</ele>
        <time>2016-05-15T08:35:06.000Z</time>
      </trkpt>
      <trkpt lat="44.53728" lon="4.25904">
        <ele>377</ele>
        <time>2016-05-15T08:35:07.000Z</time>
      </trkpt>
      <trkpt lat="44.53729" lon="4.25906">
        <ele>378</ele>
        <time>2016-05-15T08:35:08.000Z</time>
      </trkpt>
      <trkpt lat="44.5373" lon="4.25909">
        <ele>378</ele>
        <time>2016-05-15T08:35:09.000Z</time>
      </trkpt>
      <trkpt lat="44.53731" lon="4.25911">
        <ele>378</ele>
        <time>2016-05-15T08:35:10.000Z</time>
      </trkpt>
      <trkpt lat="44.53731" lon="4.25913">
        <ele>379</ele>
        <time>2016-05-15T08:35:11.000Z</time>
      </trkpt>
      <trkpt lat="44.53732" lon="4.25915">
        <ele>379</ele>
        <time>2016-05-15T08:35:12.000Z</time>
      </trkpt>
      <trkpt lat="44.53732" lon="4.25917">
        <ele>382</ele>
        <time>2016-05-15T08:35:13.000Z</time>
      </trkpt>
      <trkpt lat="44.53731" lon="4.2592">
        <ele>382</ele>
        <time>2016-05-15T08:35:14.000Z</time>
      </trkpt>
      <trkpt lat="44.5373" lon="4.25922">
        <ele>382</ele>
        <time>2016-05-15T08:35:15.000Z</time>
      </trkpt>
      <trkpt lat="44.53729" lon="4.25924">
        <ele>382</ele>
        <time>2016-05-15T08:35:16.000Z</time>
      </trkpt>
      <trkpt lat="44.53728" lon="4.25927">
        <ele>382</ele>
        <time>2016-05-15T08:35:17.000Z</time>
      </trkpt>
      <trkpt lat="44.53728" lon="4.25929">
        <ele>382</ele>
        <time>2016-05-15T08:35:18.000Z</time>
      </trkpt>
      <trkpt lat="44.53727" lon="4.25932">
        <ele>382</ele>
        <time>2016-05-15T08:35:19.000Z</time>
      </trkpt>
      <trkpt lat="44.53726" lon="4.25934">
        <ele>382</ele>
        <time>2016-05-15T08:35:20.000Z</time>
      </trkpt>
      <trkpt lat="44.53725" lon="4.25937">
        <ele>382</ele>
        <time>2016-05-15T08:35:21.000Z</time>
      </trkpt>
      <trkpt lat="44.53724" lon="4.25939">
        <ele>382</ele>
        <time>2016-05-15T08:35:22.000Z</time>
      </trkpt>
      <trkpt lat="44.53723" lon="4.25942">
        <ele>382</ele>
        <time>2016-05-15T08:35:23.000Z</time>
      </trkpt>
      <trkpt lat="44.53723" lon="4.25945">
        <ele>382</ele>
        <time>2016-05-15T08:35:24.000Z</time>
      </trkpt>
      <trkpt lat="44.53722" lon="4.25947">
        <ele>382</ele>
        <time>2016-05-15T08:35:25.000Z</time>
      </trkpt>
      <trkpt lat="44.53721" lon="4.2595">
        <ele>383</ele>
        <time>2016-05-15T08:35:26.000Z</time>
      </trkpt>
      <trkpt lat="44.53721" lon="4.25953">
        <ele>383</ele>
        <time>2016-05-15T08:35:27.000Z</time>
      </trkpt>
      <trkpt lat="44.53719" lon="4.25956">
        <ele>383</ele>
        <time>2016-05-15T08:35:28.000Z</time>
      </trkpt>
      <trkpt lat="44.53718" lon="4.25958">
        <ele>383</ele>
        <time>2016-05-15T08:35:29.000Z</time>
      </trkpt>
      <trkpt lat="44.53717" lon="4.25961">
        <ele>383</ele>
        <time>2016-05-15T08:35:30.000Z</time>
      </trkpt>
      <trkpt lat="44.53716" lon="4.25963">
        <ele>383</ele>
        <time>2016-05-15T08:35:31.000Z</time>
      </trkpt>
      <trkpt lat="44.53714" lon="4.25966">
        <ele>383</ele>
        <time>2016-05-15T08:35:32.000Z</time>
      </trkpt>
      <trkpt lat="44.53713" lon="4.25968">
        <ele>383</ele>
        <time>2016-05-15T08:35:33.000Z</time>
      </trkpt>
      <trkpt lat="44.53712" lon="4.25971">
        <ele>383</ele>
        <time>2016-05-15T08:35:34.000Z</time>
      </trkpt>
      <trkpt lat="44.5371" lon="4.25973">
        <ele>383</ele>
        <time>2016-05-15T08:35:35.000Z</time>
      </trkpt>
      <trkpt lat="44.53709" lon="4.25975">
        <ele>383</ele>
        <time>2016-05-15T08:35:36.000Z</time>
      </trkpt>
      <trkpt lat="44.53708" lon="4.25978">
        <ele>383</ele>
        <time>2016-05-15T08:35:37.000Z</time>
      </trkpt>
      <trkpt lat="44.53707" lon="4.2598">
        <ele>383</ele>
        <time>2016-05-15T08:35:38.000Z</time>
      </trkpt>
      <trkpt lat="44.53706" lon="4.25983">
        <ele>383</ele>
        <time>2016-05-15T08:35:39.000Z</time>
      </trkpt>
      <trkpt lat="44.53705" lon="4.25985">
        <ele>383</ele>
        <time>2016-05-15T08:35:40.000Z</time>
      </trkpt>
      <trkpt lat="44.53704" lon="4.25988">
        <ele>383</ele>
        <time>2016-05-15T08:35:41.000Z</time>
      </trkpt>
      <trkpt lat="44.53703" lon="4.2599">
        <ele>383</ele>
        <time>2016-05-15T08:35:42.000Z</time>
      </trkpt>
      <trkpt lat="44.53702" lon="4.25993">
        <ele>383</ele>
        <time>2016-05-15T08:35:43.000Z</time>
      </trkpt>
      <trkpt lat="44.53701" lon="4.25995">
        <ele>382</ele>
        <time>2016-05-15T08:35:44.000Z</time>
      </trkpt>
      <trkpt lat="44.537" lon="4.25997">
        <ele>382</ele>
        <time>2016-05-15T08:35:45.000Z</time>
      </trkpt>
      <trkpt lat="44.53699" lon="4.26">
        <ele>382</ele>
        <time>2016-05-15T08:35:46.000Z</time>
      </trkpt>
      <trkpt lat="44.53698" lon="4.26003">
        <ele>391</ele>
        <time>2016-05-15T08:35:47.000Z</time>
      </trkpt>
      <trkpt lat="44.53696" lon="4.26005">
        <ele>390</ele>
        <time>2016-05-15T08:35:48.000Z</time>
      </trkpt>
      <trkpt lat="44.53695" lon="4.26008">
        <ele>390</ele>
        <time>2016-05-15T08:35:49.000Z</time>
      </trkpt>
      <trkpt lat="44.53694" lon="4.2601">
        <ele>390</ele>
        <time>2016-05-15T08:35:50.000Z</time>
      </trkpt>
      <trkpt lat="44.53692" lon="4.26013">
        <ele>390</ele>
        <time>2016-05-15T08:35:51.000Z</time>
      </trkpt>
      <trkpt lat="44.53691" lon="4.26016">
        <ele>390</ele>
        <time>2016-05-15T08:35:52.000Z</time>
      </trkpt>
      <trkpt lat="44.5369" lon="4.26019">
        <ele>390</ele>
        <time>2016-05-15T08:35:53.000Z</time>
      </trkpt>
      <trkpt lat="44.53688" lon="4.26021">
        <ele>391</ele>
        <time>2016-05-15T08:35:54.000Z</time>
      </trkpt>
      <trkpt lat="44.53687" lon="4.26024">
        <ele>391</ele>
        <time>2016-05-15T08:35:55.000Z</time>
      </trkpt>
      <trkpt lat="44.53686" lon="4.26027">
        <ele>391</ele>
        <time>2016-05-15T08:35:56.000Z</time>
      </trkpt>
      <trkpt lat="44.53684" lon="4.2603">
        <ele>391</ele>
        <time>2016-05-15T08:35:57.000Z</time>
      </trkpt>
      <trkpt lat="44.53683" lon="4.26033">
        <ele>392</ele>
        <time>2016-05-15T08:35:58.000Z</time>
      </trkpt>
      <trkpt lat="44.53682" lon="4.26036">
        <ele>392</ele>
        <time>2016-05-15T08:35:59.000Z</time>
      </trkpt>
      <trkpt lat="44.53681" lon="4.26038">
        <ele>392</ele>
        <time>2016-05-15T08:36:00.000Z</time>
      </trkpt>
      <trkpt lat="44.5368" lon="4.26041">
        <ele>393</ele>
        <time>2016-05-15T08:36:01.000Z</time>
      </trkpt>
      <trkpt lat="44.53679" lon="4.26043">
        <ele>393</ele>
        <time>2016-05-15T08:36:02.000Z</time>
      </trkpt>
      <trkpt lat="44.53677" lon="4.26046">
        <ele>393</ele>
        <time>2016-05-15T08:36:03.000Z</time>
      </trkpt>
      <trkpt lat="44.53676" lon="4.26049">
        <ele>393</ele>
        <time>2016-05-15T08:36:04.000Z</time>
      </trkpt>
      <trkpt lat="44.53675" lon="4.26052">
        <ele>394</ele>
        <time>2016-05-15T08:36:05.000Z</time>
      </trkpt>
      <trkpt lat="44.53674" lon="4.26054">
        <ele>394</ele>
        <time>2016-05-15T08:36:06.000Z</time>
      </trkpt>
      <trkpt lat="44.53673" lon="4.26057">
        <ele>394</ele>
        <time>2016-05-15T08:36:07.000Z</time>
      </trkpt>
      <trkpt lat="44.53671" lon="4.26059">
        <ele>394</ele>
        <time>2016-05-15T08:36:08.000Z</time>
      </trkpt>
      <trkpt lat="44.5367" lon="4.26062">
        <ele>394</ele>
        <time>2016-05-15T08:36:09.000Z</time>
      </trkpt>
      <trkpt lat="44.53669" lon="4.26065">
        <ele>394</ele>
        <time>2016-05-15T08:36:10.000Z</time>
      </trkpt>
      <trkpt lat="44.53668" lon="4.26068">
        <ele>394</ele>
        <time>2016-05-15T08:36:11.000Z</time>
      </trkpt>
      <trkpt lat="44.53667" lon="4.26071">
        <ele>394</ele>
        <time>2016-05-15T08:36:12.000Z</time>
      </trkpt>
      <trkpt lat="44.53666" lon="4.26074">
        <ele>387</ele>
        <time>2016-05-15T08:36:13.000Z</time>
      </trkpt>
      <trkpt lat="44.53665" lon="4.26077">
        <ele>389</ele>
        <time>2016-05-15T08:36:14.000Z</time>
      </trkpt>
      <trkpt lat="44.53664" lon="4.2608">
        <ele>390</ele>
        <time>2016-05-15T08:36:15.000Z</time>
      </trkpt>
      <trkpt lat="44.53663" lon="4.26083">
        <ele>390</ele>
        <time>2016-05-15T08:36:16.000Z</time>
      </trkpt>
      <trkpt lat="44.53662" lon="4.26086">
        <ele>393</ele>
        <time>2016-05-15T08:36:17.000Z</time>
      </trkpt>
      <trkpt lat="44.53661" lon="4.26088">
        <ele>393</ele>
        <time>2016-05-15T08:36:18.000Z</time>
      </trkpt>
      <trkpt lat="44.5366" lon="4.2609">
        <ele>392</ele>
        <time>2016-05-15T08:36:19.000Z</time>
      </trkpt>
      <trkpt lat="44.53658" lon="4.26093">
        <ele>392</ele>
        <time>2016-05-15T08:36:20.000Z</time>
      </trkpt>
      <trkpt lat="44.53657" lon="4.26097">
        <ele>392</ele>
        <time>2016-05-15T08:36:21.000Z</time>
      </trkpt>
      <trkpt lat="44.53655" lon="4.261">
        <ele>392</ele>
        <time>2016-05-15T08:36:22.000Z</time>
      </trkpt>
      <trkpt lat="44.53654" lon="4.26103">
        <ele>392</ele>
        <time>2016-05-15T08:36:23.000Z</time>
      </trkpt>
      <trkpt lat="44.53652" lon="4.26105">
        <ele>392</ele>
        <time>2016-05-15T08:36:24.000Z</time>
      </trkpt>
      <trkpt lat="44.53651" lon="4.26108">
        <ele>393</ele>
        <time>2016-05-15T08:36:25.000Z</time>
      </trkpt>
      <trkpt lat="44.53649" lon="4.26111">
        <ele>393</ele>
        <time>2016-05-15T08:36:26.000Z</time>
      </trkpt>
      <trkpt lat="44.53647" lon="4.26113">
        <ele>393</ele>
        <time>2016-05-15T08:36:27.000Z</time>
      </trkpt>
      <trkpt lat="44.53647" lon="4.26116">
        <ele>393</ele>
        <time>2016-05-15T08:36:28.000Z</time>
      </trkpt>
      <trkpt lat="44.53646" lon="4.26119">
        <ele>393</ele>
        <time>2016-05-15T08:36:29.000Z</time>
      </trkpt>
      <trkpt lat="44.53645" lon="4.26121">
        <ele>393</ele>
        <time>2016-05-15T08:36:30.000Z</time>
      </trkpt>
      <trkpt lat="44.53643" lon="4.26124">
        <ele>393</ele>
        <time>2016-05-15T08:36:31.000Z</time>
      </trkpt>
      <trkpt lat="44.53641" lon="4.26127">
        <ele>394</ele>
        <time>2016-05-15T08:36:32.000Z</time>
      </trkpt>
      <trkpt lat="44.5364" lon="4.2613">
        <ele>394</ele>
        <time>2016-05-15T08:36:33.000Z</time>
      </trkpt>
      <trkpt lat="44.53638" lon="4.26133">
        <ele>394</ele>
        <time>2016-05-15T08:36:34.000Z</time>
      </trkpt>
      <trkpt lat="44.53636" lon="4.26135">
        <ele>394</ele>
        <time>2016-05-15T08:36:35.000Z</time>
      </trkpt>
      <trkpt lat="44.53634" lon="4.26138">
        <ele>394</ele>
        <time>2016-05-15T08:36:36.000Z</time>
      </trkpt>
      <trkpt lat="44.53632" lon="4.26141">
        <ele>394</ele>
        <time>2016-05-15T08:36:37.000Z</time>
      </trkpt>
      <trkpt lat="44.5363" lon="4.26143">
        <ele>394</ele>
        <time>2016-05-15T08:36:38.000Z</time>
      </trkpt>
      <trkpt lat="44.53628" lon="4.26146">
        <ele>394</ele>
        <time>2016-05-15T08:36:39.000Z</time>
      </trkpt>
      <trkpt lat="44.53626" lon="4.26149">
        <ele>394</ele>
        <time>2016-05-15T08:36:40.000Z</time>
      </trkpt>
      <trkpt lat="44.53624" lon="4.26151">
        <ele>394</ele>
        <time>2016-05-15T08:36:41.000Z</time>
      </trkpt>
      <trkpt lat="44.53623" lon="4.26154">
        <ele>393</ele>
        <time>2016-05-15T08:36:42.000Z</time>
      </trkpt>
      <trkpt lat="44.53621" lon="4.26156">
        <ele>393</ele>
        <time>2016-05-15T08:36:43.000Z</time>
      </trkpt>
      <trkpt lat="44.53619" lon="4.26159">
        <ele>393</ele>
        <time>2016-05-15T08:36:44.000Z</time>
      </trkpt>
      <trkpt lat="44.53618" lon="4.26161">
        <ele>393</ele>
        <time>2016-05-15T08:36:45.000Z</time>
      </trkpt>
      <trkpt lat="44.53616" lon="4.26163">
        <ele>393</ele>
        <time>2016-05-15T08:36:46.000Z</time>
      </trkpt>
      <trkpt lat="44.53614" lon="4.26165">
        <ele>392</ele>
        <time>2016-05-15T08:36:47.000Z</time>
      </trkpt>
      <trkpt lat="44.53612" lon="4.26167">
        <ele>401</ele>
        <time>2016-05-15T08:36:48.000Z</time>
      </trkpt>
      <trkpt lat="44.53611" lon="4.26169">
        <ele>401</ele>
        <time>2016-05-15T08:36:49.000Z</time>
      </trkpt>
      <trkpt lat="44.53608" lon="4.26171">
        <ele>400</ele>
        <time>2016-05-15T08:36:50.000Z</time>
      </trkpt>
      <trkpt lat="44.53607" lon="4.26174">
        <ele>400</ele>
        <time>2016-05-15T08:36:51.000Z</time>
      </trkpt>
      <trkpt lat="44.53605" lon="4.26176">
        <ele>400</ele>
        <time>2016-05-15T08:36:52.000Z</time>
      </trkpt>
      <trkpt lat="44.53603" lon="4.26178">
        <ele>400</ele>
        <time>2016-05-15T08:36:53.000Z</time>
      </trkpt>
      <trkpt lat="44.53601" lon="4.26179">
        <ele>399</ele>
        <time>2016-05-15T08:36:54.000Z</time>
      </trkpt>
      <trkpt lat="44.53599" lon="4.26181">
        <ele>399</ele>
        <time>2016-05-15T08:36:55.000Z</time>
      </trkpt>
      <trkpt lat="44.53597" lon="4.26183">
        <ele>399</ele>
        <time>2016-05-15T08:36:56.000Z</time>
      </trkpt>
      <trkpt lat="44.53595" lon="4.26185">
        <ele>399</ele>
        <time>2016-05-15T08:36:57.000Z</time>
      </trkpt>
      <trkpt lat="44.53593" lon="4.26187">
        <ele>399</ele>
        <time>2016-05-15T08:36:58.000Z</time>
      </trkpt>
      <trkpt lat="44.53591" lon="4.2619">
        <ele>400</ele>
        <time>2016-05-15T08:36:59.000Z</time>
      </trkpt>
      <trkpt lat="44.53589" lon="4.26192">
        <ele>400</ele>
        <time>2016-05-15T08:37:00.000Z</time>
      </trkpt>
      <trkpt lat="44.53587" lon="4.26194">
        <ele>400</ele>
        <time>2016-05-15T08:37:01.000Z</time>
      </trkpt>
      <trkpt lat="44.53585" lon="4.26196">
        <ele>401</ele>
        <time>2016-05-15T08:37:02.000Z</time>
      </trkpt>
      <trkpt lat="44.53584" lon="4.26199">
        <ele>401</ele>
        <time>2016-05-15T08:37:03.000Z</time>
      </trkpt>
      <trkpt lat="44.53581" lon="4.26201">
        <ele>390</ele>
        <time>2016-05-15T08:37:04.000Z</time>
      </trkpt>
      <trkpt lat="44.53579" lon="4.26203">
        <ele>390</ele>
        <time>2016-05-15T08:37:05.000Z</time>
      </trkpt>
      <trkpt lat="44.53578" lon="4.26205">
        <ele>390</ele>
        <time>2016-05-15T08:37:06.000Z</time>
      </trkpt>
      <trkpt lat="44.53575" lon="4.26208">
        <ele>390</ele>
        <time>2016-05-15T08:37:07.000Z</time>
      </trkpt>
      <trkpt lat="44.53573" lon="4.26211">
        <ele>391</ele>
        <time>2016-05-15T08:37:08.000Z</time>
      </trkpt>
      <trkpt lat="44.53571" lon="4.26214">
        <ele>391</ele>
        <time>2016-05-15T08:37:09.000Z</time>
      </trkpt>
      <trkpt lat="44.53569" lon="4.26217">
        <ele>391</ele>
        <time>2016-05-15T08:37:10.000Z</time>
      </trkpt>
      <trkpt lat="44.53567" lon="4.2622">
        <ele>392</ele>
        <time>2016-05-15T08:37:11.000Z</time>
      </trkpt>
      <trkpt lat="44.53565" lon="4.26223">
        <ele>392</ele>
        <time>2016-05-15T08:37:12.000Z</time>
      </trkpt>
      <trkpt lat="44.53563" lon="4.26225">
        <ele>392</ele>
        <time>2016-05-15T08:37:13.000Z</time>
      </trkpt>
      <trkpt lat="44.53561" lon="4.26229">
        <ele>392</ele>
        <time>2016-05-15T08:37:14.000Z</time>
      </trkpt>
      <trkpt lat="44.5356" lon="4.26233">
        <ele>393</ele>
        <time>2016-05-15T08:37:15.000Z</time>
      </trkpt>
      <trkpt lat="44.53558" lon="4.26237">
        <ele>393</ele>
        <time>2016-05-15T08:37:16.000Z</time>
      </trkpt>
      <trkpt lat="44.53556" lon="4.26241">
        <ele>393</ele>
        <time>2016-05-15T08:37:17.000Z</time>
      </trkpt>
      <trkpt lat="44.53555" lon="4.26245">
        <ele>393</ele>
        <time>2016-05-15T08:37:18.000Z</time>
      </trkpt>
      <trkpt lat="44.53554" lon="4.26249">
        <ele>393</ele>
        <time>2016-05-15T08:37:19.000Z</time>
      </trkpt>
      <trkpt lat="44.53552" lon="4.26253">
        <ele>403</ele>
        <time>2016-05-15T08:37:20.000Z</time>
      </trkpt>
      <trkpt lat="44.53551" lon="4.26256">
        <ele>403</ele>
        <time>2016-05-15T08:37:21.000Z</time>
      </trkpt>
      <trkpt lat="44.5355" lon="4.26259">
        <ele>403</ele>
        <time>2016-05-15T08:37:22.000Z</time>
      </trkpt>
      <trkpt lat="44.53549" lon="4.26262">
        <ele>403</ele>
        <time>2016-05-15T08:37:23.000Z</time>
      </trkpt>
      <trkpt lat="44.53548" lon="4.26265">
        <ele>403</ele>
        <time>2016-05-15T08:37:24.000Z</time>
      </trkpt>
      <trkpt lat="44.53547" lon="4.26267">
        <ele>403</ele>
        <time>2016-05-15T08:37:25.000Z</time>
      </trkpt>
      <trkpt lat="44.53545" lon="4.2627">
        <ele>403</ele>
        <time>2016-05-15T08:37:26.000Z</time>
      </trkpt>
      <trkpt lat="44.53544" lon="4.26273">
        <ele>403</ele>
        <time>2016-05-15T08:37:27.000Z</time>
      </trkpt>
      <trkpt lat="44.53542" lon="4.26275">
        <ele>403</ele>
        <time>2016-05-15T08:37:28.000Z</time>
      </trkpt>
      <trkpt lat="44.53541" lon="4.26279">
        <ele>403</ele>
        <time>2016-05-15T08:37:29.000Z</time>
      </trkpt>
      <trkpt lat="44.53538" lon="4.26282">
        <ele>403</ele>
        <time>2016-05-15T08:37:30.000Z</time>
      </trkpt>
      <trkpt lat="44.53536" lon="4.26286">
        <ele>404</ele>
        <time>2016-05-15T08:37:31.000Z</time>
      </trkpt>
      <trkpt lat="44.53534" lon="4.26289">
        <ele>404</ele>
        <time>2016-05-15T08:37:32.000Z</time>
      </trkpt>
      <trkpt lat="44.53532" lon="4.26292">
        <ele>404</ele>
        <time>2016-05-15T08:37:33.000Z</time>
      </trkpt>
      <trkpt lat="44.53529" lon="4.26295">
        <ele>404</ele>
        <time>2016-05-15T08:37:34.000Z</time>
      </trkpt>
      <trkpt lat="44.53527" lon="4.26298">
        <ele>404</ele>
        <time>2016-05-15T08:37:35.000Z</time>
      </trkpt>
      <trkpt lat="44.53525" lon="4.26301">
        <ele>404</ele>
        <time>2016-05-15T08:37:36.000Z</time>
      </trkpt>
      <trkpt lat="44.53524" lon="4.26304">
        <ele>404</ele>
        <time>2016-05-15T08:37:37.000Z</time>
      </trkpt>
      <trkpt lat="44.53522" lon="4.26306">
        <ele>404</ele>
        <time>2016-05-15T08:37:38.000Z</time>
      </trkpt>
      <trkpt lat="44.5352" lon="4.26309">
        <ele>405</ele>
        <time>2016-05-15T08:37:39.000Z</time>
      </trkpt>
      <trkpt lat="44.53518" lon="4.26312">
        <ele>405</ele>
        <time>2016-05-15T08:37:40.000Z</time>
      </trkpt>
      <trkpt lat="44.53515" lon="4.26315">
        <ele>405</ele>
        <time>2016-05-15T08:37:41.000Z</time>
      </trkpt>
      <trkpt lat="44.53513" lon="4.26318">
        <ele>405</ele>
        <time>2016-05-15T08:37:42.000Z</time>
      </trkpt>
      <trkpt lat="44.53511" lon="4.26322">
        <ele>405</ele>
        <time>2016-05-15T08:37:43.000Z</time>
      </trkpt>
      <trkpt lat="44.53508" lon="4.26324">
        <ele>405</ele>
        <time>2016-05-15T08:37:44.000Z</time>
      </trkpt>
      <trkpt lat="44.53506" lon="4.26328">
        <ele>406</ele>
        <time>2016-05-15T08:37:45.000Z</time>
      </trkpt>
      <trkpt lat="44.53503" lon="4.26331">
        <ele>406</ele>
        <time>2016-05-15T08:37:46.000Z</time>
      </trkpt>
      <trkpt lat="44.53501" lon="4.26334">
        <ele>406</ele>
        <time>2016-05-15T08:37:47.000Z</time>
      </trkpt>
      <trkpt lat="44.53499" lon="4.26337">
        <ele>404</ele>
        <time>2016-05-15T08:37:48.000Z</time>
      </trkpt>
      <trkpt lat="44.53497" lon="4.26341">
        <ele>403</ele>
        <time>2016-05-15T08:37:49.000Z</time>
      </trkpt>
      <trkpt lat="44.53495" lon="4.26344">
        <ele>402</ele>
        <time>2016-05-15T08:37:50.000Z</time>
      </trkpt>
      <trkpt lat="44.53494" lon="4.26347">
        <ele>401</ele>
        <time>2016-05-15T08:37:51.000Z</time>
      </trkpt>
      <trkpt lat="44.53492" lon="4.26351">
        <ele>401</ele>
        <time>2016-05-15T08:37:52.000Z</time>
      </trkpt>
      <trkpt lat="44.5349" lon="4.26354">
        <ele>400</ele>
        <time>2016-05-15T08:37:53.000Z</time>
      </trkpt>
      <trkpt lat="44.53488" lon="4.26359">
        <ele>399</ele>
        <time>2016-05-15T08:37:54.000Z</time>
      </trkpt>
      <trkpt lat="44.53486" lon="4.26363">
        <ele>399</ele>
        <time>2016-05-15T08:37:55.000Z</time>
      </trkpt>
      <trkpt lat="44.53484" lon="4.26367">
        <ele>399</ele>
        <time>2016-05-15T08:37:56.000Z</time>
      </trkpt>
      <trkpt lat="44.53482" lon="4.26372">
        <ele>398</ele>
        <time>2016-05-15T08:37:57.000Z</time>
      </trkpt>
      <trkpt lat="44.53481" lon="4.26377">
        <ele>398</ele>
        <time>2016-05-15T08:37:58.000Z</time>
      </trkpt>
      <trkpt lat="44.53482" lon="4.26382">
        <ele>398</ele>
        <time>2016-05-15T08:37:59.000Z</time>
      </trkpt>
      <trkpt lat="44.53483" lon="4.26386">
        <ele>399</ele>
        <time>2016-05-15T08:38:00.000Z</time>
      </trkpt>
      <trkpt lat="44.53485" lon="4.26389">
        <ele>399</ele>
        <time>2016-05-15T08:38:01.000Z</time>
      </trkpt>
      <trkpt lat="44.53487" lon="4.26392">
        <ele>399</ele>
        <time>2016-05-15T08:38:02.000Z</time>
      </trkpt>
      <trkpt lat="44.5349" lon="4.26394">
        <ele>400</ele>
        <time>2016-05-15T08:38:03.000Z</time>
      </trkpt>
      <trkpt lat="44.53492" lon="4.26396">
        <ele>400</ele>
        <time>2016-05-15T08:38:04.000Z</time>
      </trkpt>
      <trkpt lat="44.53495" lon="4.26397">
        <ele>400</ele>
        <time>2016-05-15T08:38:05.000Z</time>
      </trkpt>
      <trkpt lat="44.53498" lon="4.26398">
        <ele>401</ele>
        <time>2016-05-15T08:38:06.000Z</time>
      </trkpt>
      <trkpt lat="44.53501" lon="4.26398">
        <ele>407</ele>
        <time>2016-05-15T08:38:07.000Z</time>
      </trkpt>
      <trkpt lat="44.53503" lon="4.26399">
        <ele>407</ele>
        <time>2016-05-15T08:38:08.000Z</time>
      </trkpt>
      <trkpt lat="44.53505" lon="4.264">
        <ele>407</ele>
        <time>2016-05-15T08:38:09.000Z</time>
      </trkpt>
      <trkpt lat="44.53508" lon="4.264">
        <ele>407</ele>
        <time>2016-05-15T08:38:10.000Z</time>
      </trkpt>
      <trkpt lat="44.53511" lon="4.264">
        <ele>407</ele>
        <time>2016-05-15T08:38:11.000Z</time>
      </trkpt>
      <trkpt lat="44.53513" lon="4.264">
        <ele>407</ele>
        <time>2016-05-15T08:38:12.000Z</time>
      </trkpt>
      <trkpt lat="44.53516" lon="4.264">
        <ele>407</ele>
        <time>2016-05-15T08:38:13.000Z</time>
      </trkpt>
      <trkpt lat="44.53518" lon="4.264">
        <ele>407</ele>
        <time>2016-05-15T08:38:14.000Z</time>
      </trkpt>
      <trkpt lat="44.5352" lon="4.264">
        <ele>408</ele>
        <time>2016-05-15T08:38:15.000Z</time>
      </trkpt>
      <trkpt lat="44.53523" lon="4.26399">
        <ele>408</ele>
        <time>2016-05-15T08:38:16.000Z</time>
      </trkpt>
      <trkpt lat="44.53526" lon="4.26399">
        <ele>408</ele>
        <time>2016-05-15T08:38:17.000Z</time>
      </trkpt>
      <trkpt lat="44.53529" lon="4.26399">
        <ele>408</ele>
        <time>2016-05-15T08:38:18.000Z</time>
      </trkpt>
      <trkpt lat="44.53531" lon="4.26398">
        <ele>408</ele>
        <time>2016-05-15T08:38:19.000Z</time>
      </trkpt>
      <trkpt lat="44.53534" lon="4.26398">
        <ele>408</ele>
        <time>2016-05-15T08:38:20.000Z</time>
      </trkpt>
      <trkpt lat="44.53537" lon="4.26397">
        <ele>408</ele>
        <time>2016-05-15T08:38:21.000Z</time>
      </trkpt>
      <trkpt lat="44.53539" lon="4.26397">
        <ele>409</ele>
        <time>2016-05-15T08:38:22.000Z</time>
      </trkpt>
      <trkpt lat="44.53541" lon="4.26397">
        <ele>409</ele>
        <time>2016-05-15T08:38:23.000Z</time>
      </trkpt>
      <trkpt lat="44.53544" lon="4.26397">
        <ele>409</ele>
        <time>2016-05-15T08:38:24.000Z</time>
      </trkpt>
      <trkpt lat="44.53546" lon="4.26397">
        <ele>409</ele>
        <time>2016-05-15T08:38:25.000Z</time>
      </trkpt>
      <trkpt lat="44.53548" lon="4.26397">
        <ele>409</ele>
        <time>2016-05-15T08:38:26.000Z</time>
      </trkpt>
      <trkpt lat="44.5355" lon="4.26397">
        <ele>409</ele>
        <time>2016-05-15T08:38:27.000Z</time>
      </trkpt>
      <trkpt lat="44.53553" lon="4.26397">
        <ele>409</ele>
        <time>2016-05-15T08:38:28.000Z</time>
      </trkpt>
      <trkpt lat="44.53556" lon="4.26397">
        <ele>409</ele>
        <time>2016-05-15T08:38:29.000Z</time>
      </trkpt>
      <trkpt lat="44.53559" lon="4.26396">
        <ele>409</ele>
        <time>2016-05-15T08:38:30.000Z</time>
      </trkpt>
      <trkpt lat="44.53562" lon="4.26396">
        <ele>409</ele>
        <time>2016-05-15T08:38:31.000Z</time>
      </trkpt>
      <trkpt lat="44.53566" lon="4.26396">
        <ele>409</ele>
        <time>2016-05-15T08:38:32.000Z</time>
      </trkpt>
      <trkpt lat="44.53569" lon="4.26396">
        <ele>409</ele>
        <time>2016-05-15T08:38:33.000Z</time>
      </trkpt>
      <trkpt lat="44.53573" lon="4.26396">
        <ele>410</ele>
        <time>2016-05-15T08:38:34.000Z</time>
      </trkpt>
      <trkpt lat="44.53576" lon="4.26395">
        <ele>410</ele>
        <time>2016-05-15T08:38:35.000Z</time>
      </trkpt>
      <trkpt lat="44.53578" lon="4.26395">
        <ele>410</ele>
        <time>2016-05-15T08:38:36.000Z</time>
      </trkpt>
      <trkpt lat="44.53581" lon="4.26395">
        <ele>410</ele>
        <time>2016-05-15T08:38:37.000Z</time>
      </trkpt>
      <trkpt lat="44.53584" lon="4.26394">
        <ele>413</ele>
        <time>2016-05-15T08:38:38.000Z</time>
      </trkpt>
      <trkpt lat="44.53587" lon="4.26393">
        <ele>413</ele>
        <time>2016-05-15T08:38:39.000Z</time>
      </trkpt>
      <trkpt lat="44.53589" lon="4.26393">
        <ele>413</ele>
        <time>2016-05-15T08:38:40.000Z</time>
      </trkpt>
      <trkpt lat="44.53592" lon="4.26392">
        <ele>413</ele>
        <time>2016-05-15T08:38:41.000Z</time>
      </trkpt>
      <trkpt lat="44.53594" lon="4.26391">
        <ele>413</ele>
        <time>2016-05-15T08:38:42.000Z</time>
      </trkpt>
      <trkpt lat="44.53597" lon="4.2639">
        <ele>414</ele>
        <time>2016-05-15T08:38:43.000Z</time>
      </trkpt>
      <trkpt lat="44.53599" lon="4.26389">
        <ele>414</ele>
        <time>2016-05-15T08:38:44.000Z</time>
      </trkpt>
      <trkpt lat="44.53602" lon="4.26389">
        <ele>414</ele>
        <time>2016-05-15T08:38:45.000Z</time>
      </trkpt>
      <trkpt lat="44.53604" lon="4.26387">
        <ele>414</ele>
        <time>2016-05-15T08:38:46.000Z</time>
      </trkpt>
      <trkpt lat="44.53607" lon="4.26387">
        <ele>414</ele>
        <time>2016-05-15T08:38:47.000Z</time>
      </trkpt>
      <trkpt lat="44.5361" lon="4.26386">
        <ele>414</ele>
        <time>2016-05-15T08:38:48.000Z</time>
      </trkpt>
      <trkpt lat="44.53612" lon="4.26385">
        <ele>415</ele>
        <time>2016-05-15T08:38:49.000Z</time>
      </trkpt>
      <trkpt lat="44.53615" lon="4.26384">
        <ele>415</ele>
        <time>2016-05-15T08:38:50.000Z</time>
      </trkpt>
      <trkpt lat="44.53617" lon="4.26383">
        <ele>415</ele>
        <time>2016-05-15T08:38:51.000Z</time>
      </trkpt>
      <trkpt lat="44.5362" lon="4.26383">
        <ele>415</ele>
        <time>2016-05-15T08:38:52.000Z</time>
      </trkpt>
      <trkpt lat="44.53623" lon="4.26382">
        <ele>415</ele>
        <time>2016-05-15T08:38:53.000Z</time>
      </trkpt>
      <trkpt lat="44.53626" lon="4.26382">
        <ele>415</ele>
        <time>2016-05-15T08:38:54.000Z</time>
      </trkpt>
      <trkpt lat="44.53628" lon="4.26381">
        <ele>415</ele>
        <time>2016-05-15T08:38:55.000Z</time>
      </trkpt>
      <trkpt lat="44.53631" lon="4.2638">
        <ele>415</ele>
        <time>2016-05-15T08:38:56.000Z</time>
      </trkpt>
      <trkpt lat="44.53633" lon="4.26379">
        <ele>415</ele>
        <time>2016-05-15T08:38:57.000Z</time>
      </trkpt>
      <trkpt lat="44.53635" lon="4.26378">
        <ele>416</ele>
        <time>2016-05-15T08:38:58.000Z</time>
      </trkpt>
      <trkpt lat="44.53637" lon="4.26377">
        <ele>416</ele>
        <time>2016-05-15T08:38:59.000Z</time>
      </trkpt>
      <trkpt lat="44.5364" lon="4.26376">
        <ele>416</ele>
        <time>2016-05-15T08:39:00.000Z</time>
      </trkpt>
      <trkpt lat="44.53642" lon="4.26374">
        <ele>416</ele>
        <time>2016-05-15T08:39:01.000Z</time>
      </trkpt>
      <trkpt lat="44.53645" lon="4.26373">
        <ele>416</ele>
        <time>2016-05-15T08:39:02.000Z</time>
      </trkpt>
      <trkpt lat="44.53647" lon="4.26372">
        <ele>416</ele>
        <time>2016-05-15T08:39:03.000Z</time>
      </trkpt>
      <trkpt lat="44.5365" lon="4.26371">
        <ele>417</ele>
        <time>2016-05-15T08:39:04.000Z</time>
      </trkpt>
      <trkpt lat="44.53652" lon="4.26369">
        <ele>417</ele>
        <time>2016-05-15T08:39:05.000Z</time>
      </trkpt>
      <trkpt lat="44.53653" lon="4.26366">
        <ele>417</ele>
        <time>2016-05-15T08:39:06.000Z</time>
      </trkpt>
      <trkpt lat="44.53653" lon="4.26363">
        <ele>417</ele>
        <time>2016-05-15T08:39:07.000Z</time>
      </trkpt>
      <trkpt lat="44.53652" lon="4.2636">
        <ele>418</ele>
        <time>2016-05-15T08:39:08.000Z</time>
      </trkpt>
      <trkpt lat="44.5365" lon="4.26358">
        <ele>418</ele>
        <time>2016-05-15T08:39:09.000Z</time>
      </trkpt>
      <trkpt lat="44.53648" lon="4.26357">
        <ele>418</ele>
        <time>2016-05-15T08:39:10.000Z</time>
      </trkpt>
      <trkpt lat="44.53646" lon="4.26356">
        <ele>418</ele>
        <time>2016-05-15T08:39:11.000Z</time>
      </trkpt>
      <trkpt lat="44.53644" lon="4.26355">
        <ele>418</ele>
        <time>2016-05-15T08:39:12.000Z</time>
      </trkpt>
      <trkpt lat="44.53641" lon="4.26355">
        <ele>418</ele>
        <time>2016-05-15T08:39:13.000Z</time>
      </trkpt>
      <trkpt lat="44.53639" lon="4.26355">
        <ele>417</ele>
        <time>2016-05-15T08:39:14.000Z</time>
      </trkpt>
      <trkpt lat="44.53636" lon="4.26354">
        <ele>417</ele>
        <time>2016-05-15T08:39:15.000Z</time>
      </trkpt>
      <trkpt lat="44.53634" lon="4.26353">
        <ele>417</ele>
        <time>2016-05-15T08:39:16.000Z</time>
      </trkpt>
      <trkpt lat="44.53632" lon="4.26352">
        <ele>417</ele>
        <time>2016-05-15T08:39:17.000Z</time>
      </trkpt>
      <trkpt lat="44.5363" lon="4.2635">
        <ele>417</ele>
        <time>2016-05-15T08:39:18.000Z</time>
      </trkpt>
      <trkpt lat="44.53629" lon="4.26347">
        <ele>417</ele>
        <time>2016-05-15T08:39:19.000Z</time>
      </trkpt>
      <trkpt lat="44.53629" lon="4.26345">
        <ele>417</ele>
        <time>2016-05-15T08:39:20.000Z</time>
      </trkpt>
      <trkpt lat="44.53631" lon="4.26343">
        <ele>417</ele>
        <time>2016-05-15T08:39:21.000Z</time>
      </trkpt>
      <trkpt lat="44.53632" lon="4.26341">
        <ele>418</ele>
        <time>2016-05-15T08:39:22.000Z</time>
      </trkpt>
      <trkpt lat="44.53633" lon="4.2634">
        <ele>418</ele>
        <time>2016-05-15T08:39:23.000Z</time>
      </trkpt>
      <trkpt lat="44.53635" lon="4.2634">
        <ele>418</ele>
        <time>2016-05-15T08:39:24.000Z</time>
      </trkpt>
      <trkpt lat="44.53637" lon="4.26339">
        <ele>418</ele>
        <time>2016-05-15T08:39:25.000Z</time>
      </trkpt>
      <trkpt lat="44.5364" lon="4.26339">
        <ele>418</ele>
        <time>2016-05-15T08:39:26.000Z</time>
      </trkpt>
      <trkpt lat="44.53642" lon="4.26338">
        <ele>419</ele>
        <time>2016-05-15T08:39:27.000Z</time>
      </trkpt>
      <trkpt lat="44.53644" lon="4.26336">
        <ele>419</ele>
        <time>2016-05-15T08:39:28.000Z</time>
      </trkpt>
      <trkpt lat="44.53646" lon="4.26334">
        <ele>419</ele>
        <time>2016-05-15T08:39:29.000Z</time>
      </trkpt>
      <trkpt lat="44.53648" lon="4.26332">
        <ele>421</ele>
        <time>2016-05-15T08:39:30.000Z</time>
      </trkpt>
      <trkpt lat="44.5365" lon="4.26329">
        <ele>421</ele>
        <time>2016-05-15T08:39:31.000Z</time>
      </trkpt>
      <trkpt lat="44.53651" lon="4.26326">
        <ele>421</ele>
        <time>2016-05-15T08:39:32.000Z</time>
      </trkpt>
      <trkpt lat="44.53652" lon="4.26323">
        <ele>421</ele>
        <time>2016-05-15T08:39:33.000Z</time>
      </trkpt>
      <trkpt lat="44.53653" lon="4.2632">
        <ele>421</ele>
        <time>2016-05-15T08:39:34.000Z</time>
      </trkpt>
      <trkpt lat="44.53653" lon="4.26317">
        <ele>421</ele>
        <time>2016-05-15T08:39:35.000Z</time>
      </trkpt>
      <trkpt lat="44.53654" lon="4.26314">
        <ele>420</ele>
        <time>2016-05-15T08:39:36.000Z</time>
      </trkpt>
      <trkpt lat="44.53654" lon="4.26311">
        <ele>420</ele>
        <time>2016-05-15T08:39:37.000Z</time>
      </trkpt>
      <trkpt lat="44.53655" lon="4.26307">
        <ele>420</ele>
        <time>2016-05-15T08:39:38.000Z</time>
      </trkpt>
      <trkpt lat="44.53655" lon="4.26304">
        <ele>420</ele>
        <time>2016-05-15T08:39:39.000Z</time>
      </trkpt>
      <trkpt lat="44.53656" lon="4.26301">
        <ele>420</ele>
        <time>2016-05-15T08:39:40.000Z</time>
      </trkpt>
      <trkpt lat="44.53657" lon="4.26298">
        <ele>420</ele>
        <time>2016-05-15T08:39:41.000Z</time>
      </trkpt>
      <trkpt lat="44.53658" lon="4.26295">
        <ele>420</ele>
        <time>2016-05-15T08:39:42.000Z</time>
      </trkpt>
      <trkpt lat="44.53659" lon="4.26292">
        <ele>420</ele>
        <time>2016-05-15T08:39:43.000Z</time>
      </trkpt>
      <trkpt lat="44.53661" lon="4.26291">
        <ele>420</ele>
        <time>2016-05-15T08:39:44.000Z</time>
      </trkpt>
      <trkpt lat="44.53663" lon="4.26291">
        <ele>420</ele>
        <time>2016-05-15T08:39:45.000Z</time>
      </trkpt>
      <trkpt lat="44.53664" lon="4.26293">
        <ele>420</ele>
        <time>2016-05-15T08:39:46.000Z</time>
      </trkpt>
      <trkpt lat="44.53664" lon="4.26295">
        <ele>420</ele>
        <time>2016-05-15T08:39:47.000Z</time>
      </trkpt>
      <trkpt lat="44.53665" lon="4.26299">
        <ele>420</ele>
        <time>2016-05-15T08:39:48.000Z</time>
      </trkpt>
      <trkpt lat="44.53665" lon="4.26302">
        <ele>420</ele>
        <time>2016-05-15T08:39:49.000Z</time>
      </trkpt>
      <trkpt lat="44.53665" lon="4.26305">
        <ele>420</ele>
        <time>2016-05-15T08:39:50.000Z</time>
      </trkpt>
      <trkpt lat="44.53665" lon="4.26309">
        <ele>421</ele>
        <time>2016-05-15T08:39:51.000Z</time>
      </trkpt>
      <trkpt lat="44.53665" lon="4.26312">
        <ele>421</ele>
        <time>2016-05-15T08:39:52.000Z</time>
      </trkpt>
      <trkpt lat="44.53666" lon="4.26315">
        <ele>421</ele>
        <time>2016-05-15T08:39:53.000Z</time>
      </trkpt>
      <trkpt lat="44.53667" lon="4.26318">
        <ele>428</ele>
        <time>2016-05-15T08:39:54.000Z</time>
      </trkpt>
      <trkpt lat="44.53669" lon="4.2632">
        <ele>427</ele>
        <time>2016-05-15T08:39:55.000Z</time>
      </trkpt>
      <trkpt lat="44.5367" lon="4.26323">
        <ele>427</ele>
        <time>2016-05-15T08:39:56.000Z</time>
      </trkpt>
      <trkpt lat="44.53672" lon="4.26326">
        <ele>427</ele>
        <time>2016-05-15T08:39:57.000Z</time>
      </trkpt>
      <trkpt lat="44.53674" lon="4.26328">
        <ele>427</ele>
        <time>2016-05-15T08:39:58.000Z</time>
      </trkpt>
      <trkpt lat="44.53676" lon="4.26331">
        <ele>427</ele>
        <time>2016-05-15T08:39:59.000Z</time>
      </trkpt>
      <trkpt lat="44.53678" lon="4.26333">
        <ele>427</ele>
        <time>2016-05-15T08:40:00.000Z</time>
      </trkpt>
      <trkpt lat="44.5368" lon="4.26335">
        <ele>425</ele>
        <time>2016-05-15T08:40:01.000Z</time>
      </trkpt>
      <trkpt lat="44.53683" lon="4.26337">
        <ele>425</ele>
        <time>2016-05-15T08:40:02.000Z</time>
      </trkpt>
      <trkpt lat="44.53685" lon="4.26338">
        <ele>425</ele>
        <time>2016-05-15T08:40:03.000Z</time>
      </trkpt>
      <trkpt lat="44.53687" lon="4.2634">
        <ele>426</ele>
        <time>2016-05-15T08:40:04.000Z</time>
      </trkpt>
      <trkpt lat="44.53689" lon="4.26341">
        <ele>426</ele>
        <time>2016-05-15T08:40:05.000Z</time>
      </trkpt>
      <trkpt lat="44.53692" lon="4.26342">
        <ele>426</ele>
        <time>2016-05-15T08:40:06.000Z</time>
      </trkpt>
      <trkpt lat="44.53694" lon="4.26343">
        <ele>426</ele>
        <time>2016-05-15T08:40:07.000Z</time>
      </trkpt>
      <trkpt lat="44.53697" lon="4.26344">
        <ele>426</ele>
        <time>2016-05-15T08:40:08.000Z</time>
      </trkpt>
      <trkpt lat="44.53699" lon="4.26344">
        <ele>427</ele>
        <time>2016-05-15T08:40:09.000Z</time>
      </trkpt>
      <trkpt lat="44.53702" lon="4.26345">
        <ele>427</ele>
        <time>2016-05-15T08:40:10.000Z</time>
      </trkpt>
      <trkpt lat="44.53704" lon="4.26346">
        <ele>427</ele>
        <time>2016-05-15T08:40:11.000Z</time>
      </trkpt>
      <trkpt lat="44.53707" lon="4.26346">
        <ele>428</ele>
        <time>2016-05-15T08:40:12.000Z</time>
      </trkpt>
      <trkpt lat="44.5371" lon="4.26346">
        <ele>428</ele>
        <time>2016-05-15T08:40:13.000Z</time>
      </trkpt>
      <trkpt lat="44.53712" lon="4.26347">
        <ele>428</ele>
        <time>2016-05-15T08:40:14.000Z</time>
      </trkpt>
      <trkpt lat="44.53715" lon="4.26347">
        <ele>429</ele>
        <time>2016-05-15T08:40:15.000Z</time>
      </trkpt>
      <trkpt lat="44.53717" lon="4.26347">
        <ele>429</ele>
        <time>2016-05-15T08:40:16.000Z</time>
      </trkpt>
      <trkpt lat="44.5372" lon="4.26348">
        <ele>429</ele>
        <time>2016-05-15T08:40:17.000Z</time>
      </trkpt>
      <trkpt lat="44.53722" lon="4.26349">
        <ele>430</ele>
        <time>2016-05-15T08:40:18.000Z</time>
      </trkpt>
      <trkpt lat="44.53725" lon="4.2635">
        <ele>430</ele>
        <time>2016-05-15T08:40:19.000Z</time>
      </trkpt>
      <trkpt lat="44.53727" lon="4.2635">
        <ele>430</ele>
        <time>2016-05-15T08:40:20.000Z</time>
      </trkpt>
      <trkpt lat="44.5373" lon="4.26351">
        <ele>430</ele>
        <time>2016-05-15T08:40:21.000Z</time>
      </trkpt>
      <trkpt lat="44.53732" lon="4.26352">
        <ele>431</ele>
        <time>2016-05-15T08:40:22.000Z</time>
      </trkpt>
      <trkpt lat="44.53735" lon="4.26352">
        <ele>431</ele>
        <time>2016-05-15T08:40:23.000Z</time>
      </trkpt>
      <trkpt lat="44.53737" lon="4.26353">
        <ele>431</ele>
        <time>2016-05-15T08:40:24.000Z</time>
      </trkpt>
      <trkpt lat="44.53739" lon="4.26353">
        <ele>432</ele>
        <time>2016-05-15T08:40:25.000Z</time>
      </trkpt>
      <trkpt lat="44.53742" lon="4.26354">
        <ele>432</ele>
        <time>2016-05-15T08:40:26.000Z</time>
      </trkpt>
      <trkpt lat="44.53744" lon="4.26355">
        <ele>432</ele>
        <time>2016-05-15T08:40:27.000Z</time>
      </trkpt>
      <trkpt lat="44.53746" lon="4.26356">
        <ele>432</ele>
        <time>2016-05-15T08:40:28.000Z</time>
      </trkpt>
      <trkpt lat="44.53749" lon="4.26357">
        <ele>432</ele>
        <time>2016-05-15T08:40:29.000Z</time>
      </trkpt>
      <trkpt lat="44.53751" lon="4.26358">
        <ele>440</ele>
        <time>2016-05-15T08:40:30.000Z</time>
      </trkpt>
      <trkpt lat="44.53754" lon="4.26358">
        <ele>440</ele>
        <time>2016-05-15T08:40:31.000Z</time>
      </trkpt>
      <trkpt lat="44.53757" lon="4.26359">
        <ele>440</ele>
        <time>2016-05-15T08:40:32.000Z</time>
      </trkpt>
      <trkpt lat="44.53759" lon="4.26359">
        <ele>440</ele>
        <time>2016-05-15T08:40:33.000Z</time>
      </trkpt>
      <trkpt lat="44.53762" lon="4.2636">
        <ele>440</ele>
        <time>2016-05-15T08:40:34.000Z</time>
      </trkpt>
      <trkpt lat="44.53765" lon="4.26361">
        <ele>440</ele>
        <time>2016-05-15T08:40:35.000Z</time>
      </trkpt>
      <trkpt lat="44.53767" lon="4.26362">
        <ele>440</ele>
        <time>2016-05-15T08:40:36.000Z</time>
      </trkpt>
      <trkpt lat="44.53769" lon="4.26363">
        <ele>441</ele>
        <time>2016-05-15T08:40:37.000Z</time>
      </trkpt>
      <trkpt lat="44.53772" lon="4.26364">
        <ele>441</ele>
        <time>2016-05-15T08:40:38.000Z</time>
      </trkpt>
      <trkpt lat="44.53774" lon="4.26364">
        <ele>441</ele>
        <time>2016-05-15T08:40:39.000Z</time>
      </trkpt>
      <trkpt lat="44.53776" lon="4.26365">
        <ele>441</ele>
        <time>2016-05-15T08:40:40.000Z</time>
      </trkpt>
      <trkpt lat="44.53778" lon="4.26366">
        <ele>441</ele>
        <time>2016-05-15T08:40:41.000Z</time>
      </trkpt>
      <trkpt lat="44.53778" lon="4.26366">
        <ele>441</ele>
        <time>2016-05-15T08:40:42.000Z</time>
      </trkpt>
      <trkpt lat="44.53779" lon="4.26366">
        <ele>441</ele>
        <time>2016-05-15T08:40:43.000Z</time>
      </trkpt>
      <trkpt lat="44.53779" lon="4.26366">
        <ele>441</ele>
        <time>2016-05-15T08:40:44.000Z</time>
      </trkpt>
      <trkpt lat="44.53779" lon="4.26366">
        <ele>441</ele>
        <time>2016-05-15T08:40:45.000Z</time>
      </trkpt>
      <trkpt lat="44.53779" lon="4.26366">
        <ele>441</ele>
        <time>2016-05-15T08:40:46.000Z</time>
      </trkpt>
      <trkpt lat="44.53779" lon="4.26366">
        <ele>441</ele>
        <time>2016-05-15T08:40:47.000Z</time>
      </trkpt>
      <trkpt lat="44.53779" lon="4.26367">
        <ele>441</ele>
        <time>2016-05-15T08:40:48.000Z</time>
      </trkpt>
      <trkpt lat="44.53779" lon="4.26366">
        <ele>441</ele>
        <time>2016-05-15T08:40:49.000Z</time>
      </trkpt>
      <trkpt lat="44.53779" lon="4.26367">
        <ele>441</ele>
        <time>2016-05-15T08:40:50.000Z</time>
      </trkpt>
      <trkpt lat="44.53779" lon="4.26366">
        <ele>441</ele>
        <time>2016-05-15T08:40:51.000Z</time>
      </trkpt>
      <trkpt lat="44.53779" lon="4.26367">
        <ele>441</ele>
        <time>2016-05-15T08:40:52.000Z</time>
      </trkpt>
      <trkpt lat="44.53779" lon="4.26367">
        <ele>441</ele>
        <time>2016-05-15T08:40:53.000Z</time>
      </trkpt>
      <trkpt lat="44.53779" lon="4.26367">
        <ele>441</ele>
        <time>2016-05-15T08:40:54.000Z</time>
      </trkpt>
      <trkpt lat="44.53779" lon="4.26367">
        <ele>441</ele>
        <time>2016-05-15T08:40:55.000Z</time>
      </trkpt>
      <trkpt lat="44.53779" lon="4.26367">
        <ele>441</ele>
        <time>2016-05-15T08:40:56.000Z</time>
      </trkpt>
      <trkpt lat="44.53779" lon="4.26367">
        <ele>441</ele>
        <time>2016-05-15T08:40:57.000Z</time>
      </trkpt>
      <trkpt lat="44.53779" lon="4.26367">
        <ele>441</ele>
        <time>2016-05-15T08:40:58.000Z</time>
      </trkpt>
      <trkpt lat="44.53779" lon="4.26367">
        <ele>441</ele>
        <time>2016-05-15T08:40:59.000Z</time>
      </trkpt>
      <trkpt lat="44.53779" lon="4.26367">
        <ele>441</ele>
        <time>2016-05-15T08:41:00.000Z</time>
      </trkpt>
      <trkpt lat="44.53779" lon="4.26367">
        <ele>441</ele>
        <time>2016-05-15T08:41:01.000Z</time>
      </trkpt>
      <trkpt lat="44.53779" lon="4.26367">
        <ele>441</ele>
        <time>2016-05-15T08:41:02.000Z</time>
      </trkpt>
      <trkpt lat="44.53778" lon="4.26367">
        <ele>441</ele>
        <time>2016-05-15T08:41:03.000Z</time>
      </trkpt>
      <trkpt lat="44.53778" lon="4.26367">
        <ele>441</ele>
        <time>2016-05-15T08:41:04.000Z</time>
      </trkpt>
      <trkpt lat="44.53778" lon="4.26367">
        <ele>441</ele>
        <time>2016-05-15T08:41:05.000Z</time>
      </trkpt>
      <trkpt lat="44.53778" lon="4.26367">
        <ele>441</ele>
        <time>2016-05-15T08:41:06.000Z</time>
      </trkpt>
      <trkpt lat="44.53778" lon="4.26367">
        <ele>441</ele>
        <time>2016-05-15T08:41:07.000Z</time>
      </trkpt>
      <trkpt lat="44.53778" lon="4.26367">
        <ele>441</ele>
        <time>2016-05-15T08:41:08.000Z</time>
      </trkpt>
      <trkpt lat="44.53778" lon="4.26367">
        <ele>441</ele>
        <time>2016-05-15T08:41:09.000Z</time>
      </trkpt>
      <trkpt lat="44.53778" lon="4.26367">
        <ele>441</ele>
        <time>2016-05-15T08:41:10.000Z</time>
      </trkpt>
      <trkpt lat="44.53778" lon="4.26367">
        <ele>441</ele>
        <time>2016-05-15T08:41:11.000Z</time>
      </trkpt>
      <trkpt lat="44.53778" lon="4.26367">
        <ele>441</ele>
        <time>2016-05-15T08:41:12.000Z</time>
      </trkpt>
      <trkpt lat="44.53778" lon="4.26367">
        <ele>441</ele>
        <time>2016-05-15T08:41:13.000Z</time>
      </trkpt>
      <trkpt lat="44.53778" lon="4.26367">
        <ele>441</ele>
        <time>2016-05-15T08:41:14.000Z</time>
      </trkpt>
      <trkpt lat="44.53778" lon="4.26367">
        <ele>441</ele>
        <time>2016-05-15T08:41:15.000Z</time>
      </trkpt>
      <trkpt lat="44.53778" lon="4.26367">
        <ele>441</ele>
        <time>2016-05-15T08:41:16.000Z</time>
      </trkpt>
      <trkpt lat="44.53778" lon="4.26367">
        <ele>441</ele>
        <time>2016-05-15T08:41:17.000Z</time>
      </trkpt>
      <trkpt lat="44.53778" lon="4.26366">
        <ele>441</ele>
        <time>2016-05-15T08:41:18.000Z</time>
      </trkpt>
      <trkpt lat="44.53778" lon="4.26366">
        <ele>441</ele>
        <time>2016-05-15T08:41:19.000Z</time>
      </trkpt>
      <trkpt lat="44.53778" lon="4.26366">
        <ele>441</ele>
        <time>2016-05-15T08:41:20.000Z</time>
      </trkpt>
      <trkpt lat="44.53778" lon="4.26366">
        <ele>441</ele>
        <time>2016-05-15T08:41:21.000Z</time>
      </trkpt>
      <trkpt lat="44.53778" lon="4.26366">
        <ele>441</ele>
        <time>2016-05-15T08:41:22.000Z</time>
      </trkpt>
      <trkpt lat="44.53778" lon="4.26366">
        <ele>441</ele>
        <time>2016-05-15T08:41:23.000Z</time>
      </trkpt>
      <trkpt lat="44.53778" lon="4.26366">
        <ele>441</ele>
        <time>2016-05-15T08:41:24.000Z</time>
      </trkpt>
      <trkpt lat="44.53778" lon="4.26366">
        <ele>441</ele>
        <time>2016-05-15T08:41:25.000Z</time>
      </trkpt>
      <trkpt lat="44.53778" lon="4.26366">
        <ele>441</ele>
        <time>2016-05-15T08:41:26.000Z</time>
      </trkpt>
      <trkpt lat="44.53778" lon="4.26366">
        <ele>441</ele>
        <time>2016-05-15T08:41:27.000Z</time>
      </trkpt>
      <trkpt lat="44.53778" lon="4.26366">
        <ele>441</ele>
        <time>2016-05-15T08:41:28.000Z</time>
      </trkpt>
      <trkpt lat="44.53778" lon="4.26366">
        <ele>441</ele>
        <time>2016-05-15T08:41:29.000Z</time>
      </trkpt>
      <trkpt lat="44.53778" lon="4.26366">
        <ele>441</ele>
        <time>2016-05-15T08:41:30.000Z</time>
      </trkpt>
      <trkpt lat="44.53778" lon="4.26366">
        <ele>441</ele>
        <time>2016-05-15T08:41:31.000Z</time>
      </trkpt>
      <trkpt lat="44.53778" lon="4.26366">
        <ele>441</ele>
        <time>2016-05-15T08:41:32.000Z</time>
      </trkpt>
      <trkpt lat="44.53778" lon="4.26366">
        <ele>441</ele>
        <time>2016-05-15T08:41:33.000Z</time>
      </trkpt>
      <trkpt lat="44.53778" lon="4.26366">
        <ele>441</ele>
        <time>2016-05-15T08:41:34.000Z</time>
      </trkpt>
      <trkpt lat="44.53778" lon="4.26366">
        <ele>441</ele>
        <time>2016-05-15T08:41:35.000Z</time>
      </trkpt>
      <trkpt lat="44.53778" lon="4.26365">
        <ele>441</ele>
        <time>2016-05-15T08:41:36.000Z</time>
      </trkpt>
      <trkpt lat="44.53778" lon="4.26365">
        <ele>441</ele>
        <time>2016-05-15T08:41:37.000Z</time>
      </trkpt>
      <trkpt lat="44.53778" lon="4.26365">
        <ele>441</ele>
        <time>2016-05-15T08:41:38.000Z</time>
      </trkpt>
      <trkpt lat="44.53778" lon="4.26365">
        <ele>441</ele>
        <time>2016-05-15T08:41:39.000Z</time>
      </trkpt>
      <trkpt lat="44.53778" lon="4.26365">
        <ele>441</ele>
        <time>2016-05-15T08:41:40.000Z</time>
      </trkpt>
      <trkpt lat="44.53778" lon="4.26365">
        <ele>441</ele>
        <time>2016-05-15T08:41:41.000Z</time>
      </trkpt>
      <trkpt lat="44.53778" lon="4.26365">
        <ele>441</ele>
        <time>2016-05-15T08:41:42.000Z</time>
      </trkpt>
      <trkpt lat="44.53778" lon="4.26365">
        <ele>441</ele>
        <time>2016-05-15T08:41:43.000Z</time>
      </trkpt>
      <trkpt lat="44.53778" lon="4.26365">
        <ele>441</ele>
        <time>2016-05-15T08:41:44.000Z</time>
      </trkpt>
      <trkpt lat="44.53778" lon="4.26365">
        <ele>441</ele>
        <time>2016-05-15T08:41:45.000Z</time>
      </trkpt>
      <trkpt lat="44.53778" lon="4.26365">
        <ele>441</ele>
        <time>2016-05-15T08:41:46.000Z</time>
      </trkpt>
      <trkpt lat="44.53778" lon="4.26365">
        <ele>441</ele>
        <time>2016-05-15T08:41:47.000Z</time>
      </trkpt>
      <trkpt lat="44.53778" lon="4.26365">
        <ele>441</ele>
        <time>2016-05-15T08:41:48.000Z</time>
      </trkpt>
      <trkpt lat="44.53778" lon="4.26365">
        <ele>441</ele>
        <time>2016-05-15T08:41:49.000Z</time>
      </trkpt>
      <trkpt lat="44.53778" lon="4.26365">
        <ele>441</ele>
        <time>2016-05-15T08:41:50.000Z</time>
      </trkpt>
      <trkpt lat="44.53778" lon="4.26365">
        <ele>441</ele>
        <time>2016-05-15T08:41:51.000Z</time>
      </trkpt>
      <trkpt lat="44.53778" lon="4.26365">
        <ele>441</ele>
        <time>2016-05-15T08:41:52.000Z</time>
      </trkpt>
      <trkpt lat="44.53778" lon="4.26364">
        <ele>441</ele>
        <time>2016-05-15T08:41:53.000Z</time>
      </trkpt>
      <trkpt lat="44.53778" lon="4.26364">
        <ele>441</ele>
        <time>2016-05-15T08:41:54.000Z</time>
      </trkpt>
      <trkpt lat="44.53778" lon="4.26364">
        <ele>441</ele>
        <time>2016-05-15T08:41:55.000Z</time>
      </trkpt>
      <trkpt lat="44.53778" lon="4.26364">
        <ele>441</ele>
        <time>2016-05-15T08:41:56.000Z</time>
      </trkpt>
      <trkpt lat="44.53778" lon="4.26364">
        <ele>441</ele>
        <time>2016-05-15T08:41:57.000Z</time>
      </trkpt>
      <trkpt lat="44.53778" lon="4.26364">
        <ele>441</ele>
        <time>2016-05-15T08:41:58.000Z</time>
      </trkpt>
      <trkpt lat="44.53778" lon="4.26364">
        <ele>441</ele>
        <time>2016-05-15T08:41:59.000Z</time>
      </trkpt>
      <trkpt lat="44.53778" lon="4.26364">
        <ele>441</ele>
        <time>2016-05-15T08:42:00.000Z</time>
      </trkpt>
      <trkpt lat="44.53778" lon="4.26364">
        <ele>441</ele>
        <time>2016-05-15T08:42:01.000Z</time>
      </trkpt>
      <trkpt lat="44.53778" lon="4.26364">
        <ele>441</ele>
        <time>2016-05-15T08:42:02.000Z</time>
      </trkpt>
      <trkpt lat="44.53778" lon="4.26364">
        <ele>441</ele>
        <time>2016-05-15T08:42:03.000Z</time>
      </trkpt>
      <trkpt lat="44.53778" lon="4.26364">
        <ele>441</ele>
        <time>2016-05-15T08:42:04.000Z</time>
      </trkpt>
      <trkpt lat="44.53778" lon="4.26364">
        <ele>441</ele>
        <time>2016-05-15T08:42:05.000Z</time>
      </trkpt>
      <trkpt lat="44.53778" lon="4.26364">
        <ele>441</ele>
        <time>2016-05-15T08:42:06.000Z</time>
      </trkpt>
      <trkpt lat="44.53778" lon="4.26364">
        <ele>441</ele>
        <time>2016-05-15T08:42:07.000Z</time>
      </trkpt>
      <trkpt lat="44.53778" lon="4.26364">
        <ele>441</ele>
        <time>2016-05-15T08:42:08.000Z</time>
      </trkpt>
      <trkpt lat="44.53779" lon="4.26364">
        <ele>441</ele>
        <time>2016-05-15T08:42:09.000Z</time>
      </trkpt>
      <trkpt lat="44.53779" lon="4.26364">
        <ele>441</ele>
        <time>2016-05-15T08:42:10.000Z</time>
      </trkpt>
      <trkpt lat="44.53779" lon="4.26364">
        <ele>441</ele>
        <time>2016-05-15T08:42:11.000Z</time>
      </trkpt>
      <trkpt lat="44.53779" lon="4.26364">
        <ele>441</ele>
        <time>2016-05-15T08:42:12.000Z</time>
      </trkpt>
      <trkpt lat="44.53779" lon="4.26364">
        <ele>441</ele>
        <time>2016-05-15T08:42:13.000Z</time>
      </trkpt>
      <trkpt lat="44.53779" lon="4.26364">
        <ele>441</ele>
        <time>2016-05-15T08:42:14.000Z</time>
      </trkpt>
      <trkpt lat="44.53779" lon="4.26364">
        <ele>441</ele>
        <time>2016-05-15T08:42:15.000Z</time>
      </trkpt>
      <trkpt lat="44.53779" lon="4.26364">
        <ele>441</ele>
        <time>2016-05-15T08:42:16.000Z</time>
      </trkpt>
      <trkpt lat="44.53779" lon="4.26364">
        <ele>441</ele>
        <time>2016-05-15T08:42:17.000Z</time>
      </trkpt>
      <trkpt lat="44.53779" lon="4.26364">
        <ele>441</ele>
        <time>2016-05-15T08:42:18.000Z</time>
      </trkpt>
      <trkpt lat="44.53779" lon="4.26364">
        <ele>441</ele>
        <time>2016-05-15T08:42:19.000Z</time>
      </trkpt>
      <trkpt lat="44.53779" lon="4.26364">
        <ele>441</ele>
        <time>2016-05-15T08:42:20.000Z</time>
      </trkpt>
      <trkpt lat="44.53779" lon="4.26364">
        <ele>441</ele>
        <time>2016-05-15T08:42:21.000Z</time>
      </trkpt>
      <trkpt lat="44.53779" lon="4.26364">
        <ele>441</ele>
        <time>2016-05-15T08:42:22.000Z</time>
      </trkpt>
      <trkpt lat="44.53779" lon="4.26364">
        <ele>441</ele>
        <time>2016-05-15T08:42:23.000Z</time>
      </trkpt>
      <trkpt lat="44.53779" lon="4.26364">
        <ele>441</ele>
        <time>2016-05-15T08:42:24.000Z</time>
      </trkpt>
      <trkpt lat="44.53779" lon="4.26364">
        <ele>441</ele>
        <time>2016-05-15T08:42:25.000Z</time>
      </trkpt>
      <trkpt lat="44.53779" lon="4.26364">
        <ele>441</ele>
        <time>2016-05-15T08:42:26.000Z</time>
      </trkpt>
      <trkpt lat="44.53779" lon="4.26364">
        <ele>441</ele>
        <time>2016-05-15T08:42:27.000Z</time>
      </trkpt>
      <trkpt lat="44.53779" lon="4.26364">
        <ele>441</ele>
        <time>2016-05-15T08:42:28.000Z</time>
      </trkpt>
      <trkpt lat="44.53779" lon="4.26364">
        <ele>441</ele>
        <time>2016-05-15T08:42:29.000Z</time>
      </trkpt>
      <trkpt lat="44.53779" lon="4.26364">
        <ele>441</ele>
        <time>2016-05-15T08:42:30.000Z</time>
      </trkpt>
      <trkpt lat="44.53779" lon="4.26364">
        <ele>441</ele>
        <time>2016-05-15T08:42:31.000Z</time>
      </trkpt>
      <trkpt lat="44.53779" lon="4.26364">
        <ele>441</ele>
        <time>2016-05-15T08:42:32.000Z</time>
      </trkpt>
      <trkpt lat="44.53779" lon="4.26364">
        <ele>441</ele>
        <time>2016-05-15T08:42:33.000Z</time>
      </trkpt>
      <trkpt lat="44.53779" lon="4.26364">
        <ele>441</ele>
        <time>2016-05-15T08:42:34.000Z</time>
      </trkpt>
      <trkpt lat="44.53779" lon="4.26364">
        <ele>441</ele>
        <time>2016-05-15T08:42:35.000Z</time>
      </trkpt>
      <trkpt lat="44.53779" lon="4.26364">
        <ele>441</ele>
        <time>2016-05-15T08:42:36.000Z</time>
      </trkpt>
      <trkpt lat="44.53779" lon="4.26364">
        <ele>441</ele>
        <time>2016-05-15T08:42:37.000Z</time>
      </trkpt>
      <trkpt lat="44.53779" lon="4.26364">
        <ele>441</ele>
        <time>2016-05-15T08:42:38.000Z</time>
      </trkpt>
      <trkpt lat="44.53779" lon="4.26364">
        <ele>441</ele>
        <time>2016-05-15T08:42:39.000Z</time>
      </trkpt>
      <trkpt lat="44.53779" lon="4.26364">
        <ele>441</ele>
        <time>2016-05-15T08:42:40.000Z</time>
      </trkpt>
      <trkpt lat="44.53779" lon="4.26364">
        <ele>441</ele>
        <time>2016-05-15T08:42:41.000Z</time>
      </trkpt>
      <trkpt lat="44.53779" lon="4.26364">
        <ele>441</ele>
        <time>2016-05-15T08:42:42.000Z</time>
      </trkpt>
      <trkpt lat="44.53779" lon="4.26364">
        <ele>441</ele>
        <time>2016-05-15T08:42:43.000Z</time>
      </trkpt>
      <trkpt lat="44.53779" lon="4.26364">
        <ele>441</ele>
        <time>2016-05-15T08:42:44.000Z</time>
      </trkpt>
      <trkpt lat="44.53779" lon="4.26364">
        <ele>441</ele>
        <time>2016-05-15T08:42:45.000Z</time>
      </trkpt>
      <trkpt lat="44.53779" lon="4.26364">
        <ele>441</ele>
        <time>2016-05-15T08:42:46.000Z</time>
      </trkpt>
      <trkpt lat="44.53779" lon="4.26364">
        <ele>441</ele>
        <time>2016-05-15T08:42:47.000Z</time>
      </trkpt>
      <trkpt lat="44.53779" lon="4.26364">
        <ele>441</ele>
        <time>2016-05-15T08:42:48.000Z</time>
      </trkpt>
      <trkpt lat="44.53779" lon="4.26364">
        <ele>441</ele>
        <time>2016-05-15T08:42:49.000Z</time>
      </trkpt>
      <trkpt lat="44.53779" lon="4.26365">
        <ele>441</ele>
        <time>2016-05-15T08:42:50.000Z</time>
      </trkpt>
      <trkpt lat="44.53779" lon="4.26365">
        <ele>441</ele>
        <time>2016-05-15T08:42:51.000Z</time>
      </trkpt>
      <trkpt lat="44.53779" lon="4.26365">
        <ele>441</ele>
        <time>2016-05-15T08:42:52.000Z</time>
      </trkpt>
      <trkpt lat="44.53778" lon="4.26365">
        <ele>441</ele>
        <time>2016-05-15T08:42:53.000Z</time>
      </trkpt>
      <trkpt lat="44.53778" lon="4.26365">
        <ele>441</ele>
        <time>2016-05-15T08:42:54.000Z</time>
      </trkpt>
      <trkpt lat="44.53778" lon="4.26365">
        <ele>441</ele>
        <time>2016-05-15T08:42:55.000Z</time>
      </trkpt>
      <trkpt lat="44.53778" lon="4.26365">
        <ele>441</ele>
        <time>2016-05-15T08:42:56.000Z</time>
      </trkpt>
      <trkpt lat="44.53778" lon="4.26365">
        <ele>441</ele>
        <time>2016-05-15T08:42:57.000Z</time>
      </trkpt>
      <trkpt lat="44.53778" lon="4.26365">
        <ele>441</ele>
        <time>2016-05-15T08:42:58.000Z</time>
      </trkpt>
      <trkpt lat="44.53779" lon="4.26365">
        <ele>441</ele>
        <time>2016-05-15T08:42:59.000Z</time>
      </trkpt>
      <trkpt lat="44.53779" lon="4.26365">
        <ele>441</ele>
        <time>2016-05-15T08:43:00.000Z</time>
      </trkpt>
      <trkpt lat="44.53779" lon="4.26365">
        <ele>441</ele>
        <time>2016-05-15T08:43:01.000Z</time>
      </trkpt>
      <trkpt lat="44.53779" lon="4.26365">
        <ele>441</ele>
        <time>2016-05-15T08:43:02.000Z</time>
      </trkpt>
      <trkpt lat="44.53779" lon="4.26365">
        <ele>441</ele>
        <time>2016-05-15T08:43:03.000Z</time>
      </trkpt>
      <trkpt lat="44.53779" lon="4.26366">
        <ele>441</ele>
        <time>2016-05-15T08:43:04.000Z</time>
      </trkpt>
      <trkpt lat="44.5378" lon="4.26367">
        <ele>441</ele>
        <time>2016-05-15T08:43:05.000Z</time>
      </trkpt>
      <trkpt lat="44.53782" lon="4.26367">
        <ele>441</ele>
        <time>2016-05-15T08:43:06.000Z</time>
      </trkpt>
      <trkpt lat="44.53784" lon="4.26369">
        <ele>441</ele>
        <time>2016-05-15T08:43:07.000Z</time>
      </trkpt>
      <trkpt lat="44.53786" lon="4.26371">
        <ele>441</ele>
        <time>2016-05-15T08:43:08.000Z</time>
      </trkpt>
      <trkpt lat="44.53788" lon="4.26372">
        <ele>442</ele>
        <time>2016-05-15T08:43:09.000Z</time>
      </trkpt>
      <trkpt lat="44.5379" lon="4.26374">
        <ele>442</ele>
        <time>2016-05-15T08:43:10.000Z</time>
      </trkpt>
      <trkpt lat="44.53792" lon="4.26377">
        <ele>442</ele>
        <time>2016-05-15T08:43:11.000Z</time>
      </trkpt>
      <trkpt lat="44.53795" lon="4.26379">
        <ele>442</ele>
        <time>2016-05-15T08:43:12.000Z</time>
      </trkpt>
      <trkpt lat="44.53797" lon="4.26382">
        <ele>442</ele>
        <time>2016-05-15T08:43:13.000Z</time>
      </trkpt>
      <trkpt lat="44.53799" lon="4.26385">
        <ele>442</ele>
        <time>2016-05-15T08:43:14.000Z</time>
      </trkpt>
      <trkpt lat="44.53801" lon="4.26388">
        <ele>442</ele>
        <time>2016-05-15T08:43:15.000Z</time>
      </trkpt>
      <trkpt lat="44.53803" lon="4.26391">
        <ele>442</ele>
        <time>2016-05-15T08:43:16.000Z</time>
      </trkpt>
      <trkpt lat="44.53805" lon="4.26396">
        <ele>442</ele>
        <time>2016-05-15T08:43:17.000Z</time>
      </trkpt>
      <trkpt lat="44.53805" lon="4.26402">
        <ele>442</ele>
        <time>2016-05-15T08:43:18.000Z</time>
      </trkpt>
      <trkpt lat="44.53806" lon="4.26408">
        <ele>442</ele>
        <time>2016-05-15T08:43:19.000Z</time>
      </trkpt>
      <trkpt lat="44.53805" lon="4.26414">
        <ele>442</ele>
        <time>2016-05-15T08:43:20.000Z</time>
      </trkpt>
      <trkpt lat="44.53804" lon="4.26419">
        <ele>439</ele>
        <time>2016-05-15T08:43:21.000Z</time>
      </trkpt>
      <trkpt lat="44.53802" lon="4.26425">
        <ele>439</ele>
        <time>2016-05-15T08:43:22.000Z</time>
      </trkpt>
      <trkpt lat="44.53799" lon="4.26431">
        <ele>438</ele>
        <time>2016-05-15T08:43:23.000Z</time>
      </trkpt>
      <trkpt lat="44.53797" lon="4.26437">
        <ele>438</ele>
        <time>2016-05-15T08:43:24.000Z</time>
      </trkpt>
      <trkpt lat="44.53794" lon="4.26442">
        <ele>437</ele>
        <time>2016-05-15T08:43:25.000Z</time>
      </trkpt>
      <trkpt lat="44.53791" lon="4.26448">
        <ele>437</ele>
        <time>2016-05-15T08:43:26.000Z</time>
      </trkpt>
      <trkpt lat="44.53788" lon="4.26453">
        <ele>436</ele>
        <time>2016-05-15T08:43:27.000Z</time>
      </trkpt>
      <trkpt lat="44.53785" lon="4.26459">
        <ele>436</ele>
        <time>2016-05-15T08:43:28.000Z</time>
      </trkpt>
      <trkpt lat="44.53784" lon="4.26464">
        <ele>436</ele>
        <time>2016-05-15T08:43:29.000Z</time>
      </trkpt>
      <trkpt lat="44.53783" lon="4.2647">
        <ele>436</ele>
        <time>2016-05-15T08:43:30.000Z</time>
      </trkpt>
      <trkpt lat="44.53784" lon="4.26476">
        <ele>436</ele>
        <time>2016-05-15T08:43:31.000Z</time>
      </trkpt>
      <trkpt lat="44.53785" lon="4.26482">
        <ele>436</ele>
        <time>2016-05-15T08:43:32.000Z</time>
      </trkpt>
      <trkpt lat="44.53786" lon="4.26487">
        <ele>436</ele>
        <time>2016-05-15T08:43:33.000Z</time>
      </trkpt>
      <trkpt lat="44.53787" lon="4.26491">
        <ele>436</ele>
        <time>2016-05-15T08:43:34.000Z</time>
      </trkpt>
      <trkpt lat="44.53788" lon="4.26494">
        <ele>436</ele>
        <time>2016-05-15T08:43:35.000Z</time>
      </trkpt>
      <trkpt lat="44.53791" lon="4.26496">
        <ele>436</ele>
        <time>2016-05-15T08:43:36.000Z</time>
      </trkpt>
      <trkpt lat="44.53793" lon="4.26496">
        <ele>437</ele>
        <time>2016-05-15T08:43:37.000Z</time>
      </trkpt>
      <trkpt lat="44.53794" lon="4.26494">
        <ele>437</ele>
        <time>2016-05-15T08:43:38.000Z</time>
      </trkpt>
      <trkpt lat="44.53796" lon="4.26492">
        <ele>437</ele>
        <time>2016-05-15T08:43:39.000Z</time>
      </trkpt>
      <trkpt lat="44.53798" lon="4.26489">
        <ele>438</ele>
        <time>2016-05-15T08:43:40.000Z</time>
      </trkpt>
      <trkpt lat="44.538" lon="4.26487">
        <ele>438</ele>
        <time>2016-05-15T08:43:41.000Z</time>
      </trkpt>
      <trkpt lat="44.53802" lon="4.26484">
        <ele>438</ele>
        <time>2016-05-15T08:43:42.000Z</time>
      </trkpt>
      <trkpt lat="44.53803" lon="4.26482">
        <ele>439</ele>
        <time>2016-05-15T08:43:43.000Z</time>
      </trkpt>
      <trkpt lat="44.53805" lon="4.2648">
        <ele>439</ele>
        <time>2016-05-15T08:43:44.000Z</time>
      </trkpt>
      <trkpt lat="44.53806" lon="4.26478">
        <ele>439</ele>
        <time>2016-05-15T08:43:45.000Z</time>
      </trkpt>
      <trkpt lat="44.53807" lon="4.26475">
        <ele>439</ele>
        <time>2016-05-15T08:43:46.000Z</time>
      </trkpt>
      <trkpt lat="44.53808" lon="4.26473">
        <ele>439</ele>
        <time>2016-05-15T08:43:47.000Z</time>
      </trkpt>
      <trkpt lat="44.53809" lon="4.26472">
        <ele>439</ele>
        <time>2016-05-15T08:43:48.000Z</time>
      </trkpt>
      <trkpt lat="44.5381" lon="4.2647">
        <ele>439</ele>
        <time>2016-05-15T08:43:49.000Z</time>
      </trkpt>
      <trkpt lat="44.53811" lon="4.26467">
        <ele>439</ele>
        <time>2016-05-15T08:43:50.000Z</time>
      </trkpt>
      <trkpt lat="44.53812" lon="4.26465">
        <ele>439</ele>
        <time>2016-05-15T08:43:51.000Z</time>
      </trkpt>
      <trkpt lat="44.53813" lon="4.26463">
        <ele>439</ele>
        <time>2016-05-15T08:43:52.000Z</time>
      </trkpt>
      <trkpt lat="44.53814" lon="4.26462">
        <ele>439</ele>
        <time>2016-05-15T08:43:53.000Z</time>
      </trkpt>
      <trkpt lat="44.53815" lon="4.2646">
        <ele>439</ele>
        <time>2016-05-15T08:43:54.000Z</time>
      </trkpt>
      <trkpt lat="44.53816" lon="4.26458">
        <ele>439</ele>
        <time>2016-05-15T08:43:55.000Z</time>
      </trkpt>
      <trkpt lat="44.53817" lon="4.26456">
        <ele>440</ele>
        <time>2016-05-15T08:43:56.000Z</time>
      </trkpt>
      <trkpt lat="44.53818" lon="4.26454">
        <ele>440</ele>
        <time>2016-05-15T08:43:57.000Z</time>
      </trkpt>
      <trkpt lat="44.53819" lon="4.26453">
        <ele>440</ele>
        <time>2016-05-15T08:43:58.000Z</time>
      </trkpt>
      <trkpt lat="44.5382" lon="4.26451">
        <ele>440</ele>
        <time>2016-05-15T08:43:59.000Z</time>
      </trkpt>
      <trkpt lat="44.53821" lon="4.26449">
        <ele>440</ele>
        <time>2016-05-15T08:44:00.000Z</time>
      </trkpt>
      <trkpt lat="44.53822" lon="4.26448">
        <ele>440</ele>
        <time>2016-05-15T08:44:01.000Z</time>
      </trkpt>
      <trkpt lat="44.53823" lon="4.26447">
        <ele>440</ele>
        <time>2016-05-15T08:44:02.000Z</time>
      </trkpt>
      <trkpt lat="44.53824" lon="4.26445">
        <ele>441</ele>
        <time>2016-05-15T08:44:03.000Z</time>
      </trkpt>
      <trkpt lat="44.53825" lon="4.26442">
        <ele>441</ele>
        <time>2016-05-15T08:44:04.000Z</time>
      </trkpt>
      <trkpt lat="44.53825" lon="4.2644">
        <ele>441</ele>
        <time>2016-05-15T08:44:05.000Z</time>
      </trkpt>
      <trkpt lat="44.53826" lon="4.26439">
        <ele>441</ele>
        <time>2016-05-15T08:44:06.000Z</time>
      </trkpt>
      <trkpt lat="44.53827" lon="4.26437">
        <ele>442</ele>
        <time>2016-05-15T08:44:07.000Z</time>
      </trkpt>
      <trkpt lat="44.53828" lon="4.26436">
        <ele>442</ele>
        <time>2016-05-15T08:44:08.000Z</time>
      </trkpt>
      <trkpt lat="44.53829" lon="4.26434">
        <ele>442</ele>
        <time>2016-05-15T08:44:09.000Z</time>
      </trkpt>
      <trkpt lat="44.5383" lon="4.26433">
        <ele>442</ele>
        <time>2016-05-15T08:44:10.000Z</time>
      </trkpt>
      <trkpt lat="44.53832" lon="4.26433">
        <ele>443</ele>
        <time>2016-05-15T08:44:11.000Z</time>
      </trkpt>
      <trkpt lat="44.53833" lon="4.26432">
        <ele>443</ele>
        <time>2016-05-15T08:44:12.000Z</time>
      </trkpt>
      <trkpt lat="44.53835" lon="4.26431">
        <ele>449</ele>
        <time>2016-05-15T08:44:13.000Z</time>
      </trkpt>
      <trkpt lat="44.53836" lon="4.26429">
        <ele>449</ele>
        <time>2016-05-15T08:44:14.000Z</time>
      </trkpt>
      <trkpt lat="44.53837" lon="4.26428">
        <ele>448</ele>
        <time>2016-05-15T08:44:15.000Z</time>
      </trkpt>
      <trkpt lat="44.53839" lon="4.26426">
        <ele>448</ele>
        <time>2016-05-15T08:44:16.000Z</time>
      </trkpt>
      <trkpt lat="44.5384" lon="4.26424">
        <ele>448</ele>
        <time>2016-05-15T08:44:17.000Z</time>
      </trkpt>
      <trkpt lat="44.53841" lon="4.26422">
        <ele>448</ele>
        <time>2016-05-15T08:44:18.000Z</time>
      </trkpt>
      <trkpt lat="44.53842" lon="4.2642">
        <ele>448</ele>
        <time>2016-05-15T08:44:19.000Z</time>
      </trkpt>
      <trkpt lat="44.53843" lon="4.26419">
        <ele>448</ele>
        <time>2016-05-15T08:44:20.000Z</time>
      </trkpt>
      <trkpt lat="44.53844" lon="4.26417">
        <ele>448</ele>
        <time>2016-05-15T08:44:21.000Z</time>
      </trkpt>
      <trkpt lat="44.53844" lon="4.26415">
        <ele>449</ele>
        <time>2016-05-15T08:44:22.000Z</time>
      </trkpt>
      <trkpt lat="44.53845" lon="4.26413">
        <ele>450</ele>
        <time>2016-05-15T08:44:23.000Z</time>
      </trkpt>
      <trkpt lat="44.53847" lon="4.26412">
        <ele>450</ele>
        <time>2016-05-15T08:44:24.000Z</time>
      </trkpt>
      <trkpt lat="44.53848" lon="4.26412">
        <ele>450</ele>
        <time>2016-05-15T08:44:25.000Z</time>
      </trkpt>
      <trkpt lat="44.5385" lon="4.26412">
        <ele>450</ele>
        <time>2016-05-15T08:44:26.000Z</time>
      </trkpt>
      <trkpt lat="44.53852" lon="4.26411">
        <ele>451</ele>
        <time>2016-05-15T08:44:27.000Z</time>
      </trkpt>
      <trkpt lat="44.53853" lon="4.2641">
        <ele>451</ele>
        <time>2016-05-15T08:44:28.000Z</time>
      </trkpt>
      <trkpt lat="44.53854" lon="4.26409">
        <ele>451</ele>
        <time>2016-05-15T08:44:29.000Z</time>
      </trkpt>
      <trkpt lat="44.53855" lon="4.26409">
        <ele>451</ele>
        <time>2016-05-15T08:44:30.000Z</time>
      </trkpt>
      <trkpt lat="44.53857" lon="4.26408">
        <ele>451</ele>
        <time>2016-05-15T08:44:31.000Z</time>
      </trkpt>
      <trkpt lat="44.53858" lon="4.26407">
        <ele>452</ele>
        <time>2016-05-15T08:44:32.000Z</time>
      </trkpt>
      <trkpt lat="44.5386" lon="4.26406">
        <ele>452</ele>
        <time>2016-05-15T08:44:33.000Z</time>
      </trkpt>
      <trkpt lat="44.53861" lon="4.26405">
        <ele>452</ele>
        <time>2016-05-15T08:44:34.000Z</time>
      </trkpt>
      <trkpt lat="44.53863" lon="4.26404">
        <ele>452</ele>
        <time>2016-05-15T08:44:35.000Z</time>
      </trkpt>
      <trkpt lat="44.53865" lon="4.26403">
        <ele>452</ele>
        <time>2016-05-15T08:44:36.000Z</time>
      </trkpt>
      <trkpt lat="44.53866" lon="4.26401">
        <ele>452</ele>
        <time>2016-05-15T08:44:37.000Z</time>
      </trkpt>
      <trkpt lat="44.53868" lon="4.264">
        <ele>453</ele>
        <time>2016-05-15T08:44:38.000Z</time>
      </trkpt>
      <trkpt lat="44.53869" lon="4.26399">
        <ele>453</ele>
        <time>2016-05-15T08:44:39.000Z</time>
      </trkpt>
      <trkpt lat="44.53871" lon="4.26397">
        <ele>453</ele>
        <time>2016-05-15T08:44:40.000Z</time>
      </trkpt>
      <trkpt lat="44.53872" lon="4.26396">
        <ele>453</ele>
        <time>2016-05-15T08:44:41.000Z</time>
      </trkpt>
      <trkpt lat="44.53874" lon="4.26395">
        <ele>453</ele>
        <time>2016-05-15T08:44:42.000Z</time>
      </trkpt>
      <trkpt lat="44.53875" lon="4.26394">
        <ele>453</ele>
        <time>2016-05-15T08:44:43.000Z</time>
      </trkpt>
      <trkpt lat="44.53877" lon="4.26393">
        <ele>453</ele>
        <time>2016-05-15T08:44:44.000Z</time>
      </trkpt>
      <trkpt lat="44.53878" lon="4.26392">
        <ele>453</ele>
        <time>2016-05-15T08:44:45.000Z</time>
      </trkpt>
      <trkpt lat="44.53879" lon="4.26392">
        <ele>454</ele>
        <time>2016-05-15T08:44:46.000Z</time>
      </trkpt>
      <trkpt lat="44.5388" lon="4.26391">
        <ele>454</ele>
        <time>2016-05-15T08:44:47.000Z</time>
      </trkpt>
      <trkpt lat="44.53882" lon="4.26389">
        <ele>454</ele>
        <time>2016-05-15T08:44:48.000Z</time>
      </trkpt>
      <trkpt lat="44.53883" lon="4.26388">
        <ele>454</ele>
        <time>2016-05-15T08:44:49.000Z</time>
      </trkpt>
      <trkpt lat="44.53884" lon="4.26387">
        <ele>454</ele>
        <time>2016-05-15T08:44:50.000Z</time>
      </trkpt>
      <trkpt lat="44.53885" lon="4.26387">
        <ele>454</ele>
        <time>2016-05-15T08:44:51.000Z</time>
      </trkpt>
      <trkpt lat="44.53887" lon="4.26386">
        <ele>454</ele>
        <time>2016-05-15T08:44:52.000Z</time>
      </trkpt>
      <trkpt lat="44.53888" lon="4.26385">
        <ele>454</ele>
        <time>2016-05-15T08:44:53.000Z</time>
      </trkpt>
      <trkpt lat="44.53888" lon="4.26385">
        <ele>454</ele>
        <time>2016-05-15T08:44:54.000Z</time>
      </trkpt>
      <trkpt lat="44.53889" lon="4.26384">
        <ele>454</ele>
        <time>2016-05-15T08:44:55.000Z</time>
      </trkpt>
      <trkpt lat="44.53889" lon="4.26384">
        <ele>454</ele>
        <time>2016-05-15T08:44:56.000Z</time>
      </trkpt>
      <trkpt lat="44.53889" lon="4.26384">
        <ele>454</ele>
        <time>2016-05-15T08:44:57.000Z</time>
      </trkpt>
      <trkpt lat="44.5389" lon="4.26384">
        <ele>454</ele>
        <time>2016-05-15T08:44:58.000Z</time>
      </trkpt>
      <trkpt lat="44.53891" lon="4.26383">
        <ele>454</ele>
        <time>2016-05-15T08:44:59.000Z</time>
      </trkpt>
      <trkpt lat="44.53892" lon="4.26382">
        <ele>454</ele>
        <time>2016-05-15T08:45:00.000Z</time>
      </trkpt>
      <trkpt lat="44.53893" lon="4.26381">
        <ele>454</ele>
        <time>2016-05-15T08:45:01.000Z</time>
      </trkpt>
      <trkpt lat="44.53894" lon="4.2638">
        <ele>454</ele>
        <time>2016-05-15T08:45:02.000Z</time>
      </trkpt>
      <trkpt lat="44.53895" lon="4.26379">
        <ele>455</ele>
        <time>2016-05-15T08:45:03.000Z</time>
      </trkpt>
      <trkpt lat="44.53896" lon="4.26378">
        <ele>455</ele>
        <time>2016-05-15T08:45:04.000Z</time>
      </trkpt>
      <trkpt lat="44.53898" lon="4.26376">
        <ele>455</ele>
        <time>2016-05-15T08:45:05.000Z</time>
      </trkpt>
      <trkpt lat="44.539" lon="4.26374">
        <ele>455</ele>
        <time>2016-05-15T08:45:06.000Z</time>
      </trkpt>
      <trkpt lat="44.53901" lon="4.26372">
        <ele>455</ele>
        <time>2016-05-15T08:45:07.000Z</time>
      </trkpt>
      <trkpt lat="44.53902" lon="4.26371">
        <ele>455</ele>
        <time>2016-05-15T08:45:08.000Z</time>
      </trkpt>
      <trkpt lat="44.53902" lon="4.26369">
        <ele>455</ele>
        <time>2016-05-15T08:45:09.000Z</time>
      </trkpt>
      <trkpt lat="44.53903" lon="4.26367">
        <ele>455</ele>
        <time>2016-05-15T08:45:10.000Z</time>
      </trkpt>
      <trkpt lat="44.53904" lon="4.26366">
        <ele>455</ele>
        <time>2016-05-15T08:45:11.000Z</time>
      </trkpt>
      <trkpt lat="44.53906" lon="4.26364">
        <ele>455</ele>
        <time>2016-05-15T08:45:12.000Z</time>
      </trkpt>
      <trkpt lat="44.53907" lon="4.26362">
        <ele>455</ele>
        <time>2016-05-15T08:45:13.000Z</time>
      </trkpt>
      <trkpt lat="44.53908" lon="4.26361">
        <ele>456</ele>
        <time>2016-05-15T08:45:14.000Z</time>
      </trkpt>
      <trkpt lat="44.53909" lon="4.26359">
        <ele>456</ele>
        <time>2016-05-15T08:45:15.000Z</time>
      </trkpt>
      <trkpt lat="44.5391" lon="4.26357">
        <ele>456</ele>
        <time>2016-05-15T08:45:16.000Z</time>
      </trkpt>
      <trkpt lat="44.53911" lon="4.26356">
        <ele>456</ele>
        <time>2016-05-15T08:45:17.000Z</time>
      </trkpt>
      <trkpt lat="44.53912" lon="4.26354">
        <ele>456</ele>
        <time>2016-05-15T08:45:18.000Z</time>
      </trkpt>
      <trkpt lat="44.53913" lon="4.26353">
        <ele>456</ele>
        <time>2016-05-15T08:45:19.000Z</time>
      </trkpt>
      <trkpt lat="44.53914" lon="4.26351">
        <ele>456</ele>
        <time>2016-05-15T08:45:20.000Z</time>
      </trkpt>
      <trkpt lat="44.53915" lon="4.2635">
        <ele>457</ele>
        <time>2016-05-15T08:45:21.000Z</time>
      </trkpt>
      <trkpt lat="44.53915" lon="4.26348">
        <ele>457</ele>
        <time>2016-05-15T08:45:22.000Z</time>
      </trkpt>
      <trkpt lat="44.53915" lon="4.26346">
        <ele>457</ele>
        <time>2016-05-15T08:45:23.000Z</time>
      </trkpt>
      <trkpt lat="44.53916" lon="4.26344">
        <ele>457</ele>
        <time>2016-05-15T08:45:24.000Z</time>
      </trkpt>
      <trkpt lat="44.53916" lon="4.26343">
        <ele>457</ele>
        <time>2016-05-15T08:45:25.000Z</time>
      </trkpt>
      <trkpt lat="44.53917" lon="4.26342">
        <ele>458</ele>
        <time>2016-05-15T08:45:26.000Z</time>
      </trkpt>
      <trkpt lat="44.53919" lon="4.26343">
        <ele>458</ele>
        <time>2016-05-15T08:45:27.000Z</time>
      </trkpt>
      <trkpt lat="44.5392" lon="4.26344">
        <ele>458</ele>
        <time>2016-05-15T08:45:28.000Z</time>
      </trkpt>
      <trkpt lat="44.53921" lon="4.26343">
        <ele>458</ele>
        <time>2016-05-15T08:45:29.000Z</time>
      </trkpt>
      <trkpt lat="44.53922" lon="4.26342">
        <ele>458</ele>
        <time>2016-05-15T08:45:30.000Z</time>
      </trkpt>
      <trkpt lat="44.53922" lon="4.2634">
        <ele>458</ele>
        <time>2016-05-15T08:45:31.000Z</time>
      </trkpt>
      <trkpt lat="44.53923" lon="4.26337">
        <ele>458</ele>
        <time>2016-05-15T08:45:32.000Z</time>
      </trkpt>
      <trkpt lat="44.53924" lon="4.26335">
        <ele>458</ele>
        <time>2016-05-15T08:45:33.000Z</time>
      </trkpt>
      <trkpt lat="44.53925" lon="4.26332">
        <ele>459</ele>
        <time>2016-05-15T08:45:34.000Z</time>
      </trkpt>
      <trkpt lat="44.53926" lon="4.26329">
        <ele>459</ele>
        <time>2016-05-15T08:45:35.000Z</time>
      </trkpt>
      <trkpt lat="44.53926" lon="4.26326">
        <ele>459</ele>
        <time>2016-05-15T08:45:36.000Z</time>
      </trkpt>
      <trkpt lat="44.53928" lon="4.26323">
        <ele>459</ele>
        <time>2016-05-15T08:45:37.000Z</time>
      </trkpt>
      <trkpt lat="44.53929" lon="4.2632">
        <ele>459</ele>
        <time>2016-05-15T08:45:38.000Z</time>
      </trkpt>
      <trkpt lat="44.53929" lon="4.26317">
        <ele>459</ele>
        <time>2016-05-15T08:45:39.000Z</time>
      </trkpt>
      <trkpt lat="44.5393" lon="4.26314">
        <ele>459</ele>
        <time>2016-05-15T08:45:40.000Z</time>
      </trkpt>
      <trkpt lat="44.53931" lon="4.26312">
        <ele>459</ele>
        <time>2016-05-15T08:45:41.000Z</time>
      </trkpt>
      <trkpt lat="44.53932" lon="4.2631">
        <ele>459</ele>
        <time>2016-05-15T08:45:42.000Z</time>
      </trkpt>
      <trkpt lat="44.53933" lon="4.26308">
        <ele>459</ele>
        <time>2016-05-15T08:45:43.000Z</time>
      </trkpt>
      <trkpt lat="44.53934" lon="4.26306">
        <ele>459</ele>
        <time>2016-05-15T08:45:44.000Z</time>
      </trkpt>
      <trkpt lat="44.53935" lon="4.26304">
        <ele>459</ele>
        <time>2016-05-15T08:45:45.000Z</time>
      </trkpt>
      <trkpt lat="44.53935" lon="4.26302">
        <ele>459</ele>
        <time>2016-05-15T08:45:46.000Z</time>
      </trkpt>
      <trkpt lat="44.53936" lon="4.263">
        <ele>459</ele>
        <time>2016-05-15T08:45:47.000Z</time>
      </trkpt>
      <trkpt lat="44.53936" lon="4.26298">
        <ele>459</ele>
        <time>2016-05-15T08:45:48.000Z</time>
      </trkpt>
      <trkpt lat="44.53937" lon="4.26296">
        <ele>459</ele>
        <time>2016-05-15T08:45:49.000Z</time>
      </trkpt>
      <trkpt lat="44.53938" lon="4.26293">
        <ele>459</ele>
        <time>2016-05-15T08:45:50.000Z</time>
      </trkpt>
      <trkpt lat="44.53938" lon="4.26291">
        <ele>459</ele>
        <time>2016-05-15T08:45:51.000Z</time>
      </trkpt>
      <trkpt lat="44.53938" lon="4.26288">
        <ele>459</ele>
        <time>2016-05-15T08:45:52.000Z</time>
      </trkpt>
      <trkpt lat="44.53939" lon="4.26286">
        <ele>459</ele>
        <time>2016-05-15T08:45:53.000Z</time>
      </trkpt>
      <trkpt lat="44.5394" lon="4.26283">
        <ele>459</ele>
        <time>2016-05-15T08:45:54.000Z</time>
      </trkpt>
      <trkpt lat="44.53941" lon="4.2628">
        <ele>459</ele>
        <time>2016-05-15T08:45:55.000Z</time>
      </trkpt>
      <trkpt lat="44.53942" lon="4.26277">
        <ele>459</ele>
        <time>2016-05-15T08:45:56.000Z</time>
      </trkpt>
      <trkpt lat="44.53943" lon="4.26274">
        <ele>459</ele>
        <time>2016-05-15T08:45:57.000Z</time>
      </trkpt>
      <trkpt lat="44.53945" lon="4.26271">
        <ele>459</ele>
        <time>2016-05-15T08:45:58.000Z</time>
      </trkpt>
      <trkpt lat="44.53946" lon="4.26268">
        <ele>459</ele>
        <time>2016-05-15T08:45:59.000Z</time>
      </trkpt>
      <trkpt lat="44.53948" lon="4.26264">
        <ele>459</ele>
        <time>2016-05-15T08:46:00.000Z</time>
      </trkpt>
      <trkpt lat="44.53949" lon="4.2626">
        <ele>459</ele>
        <time>2016-05-15T08:46:01.000Z</time>
      </trkpt>
      <trkpt lat="44.53951" lon="4.26257">
        <ele>459</ele>
        <time>2016-05-15T08:46:02.000Z</time>
      </trkpt>
      <trkpt lat="44.53952" lon="4.26254">
        <ele>459</ele>
        <time>2016-05-15T08:46:03.000Z</time>
      </trkpt>
      <trkpt lat="44.53953" lon="4.26251">
        <ele>459</ele>
        <time>2016-05-15T08:46:04.000Z</time>
      </trkpt>
      <trkpt lat="44.53954" lon="4.26248">
        <ele>460</ele>
        <time>2016-05-15T08:46:05.000Z</time>
      </trkpt>
      <trkpt lat="44.53955" lon="4.26246">
        <ele>460</ele>
        <time>2016-05-15T08:46:06.000Z</time>
      </trkpt>
      <trkpt lat="44.53956" lon="4.26243">
        <ele>460</ele>
        <time>2016-05-15T08:46:07.000Z</time>
      </trkpt>
      <trkpt lat="44.53957" lon="4.2624">
        <ele>460</ele>
        <time>2016-05-15T08:46:08.000Z</time>
      </trkpt>
      <trkpt lat="44.53959" lon="4.26236">
        <ele>460</ele>
        <time>2016-05-15T08:46:09.000Z</time>
      </trkpt>
      <trkpt lat="44.5396" lon="4.26233">
        <ele>460</ele>
        <time>2016-05-15T08:46:10.000Z</time>
      </trkpt>
      <trkpt lat="44.53961" lon="4.2623">
        <ele>460</ele>
        <time>2016-05-15T08:46:11.000Z</time>
      </trkpt>
      <trkpt lat="44.53963" lon="4.26227">
        <ele>460</ele>
        <time>2016-05-15T08:46:12.000Z</time>
      </trkpt>
      <trkpt lat="44.53964" lon="4.26225">
        <ele>460</ele>
        <time>2016-05-15T08:46:13.000Z</time>
      </trkpt>
      <trkpt lat="44.53965" lon="4.26222">
        <ele>460</ele>
        <time>2016-05-15T08:46:14.000Z</time>
      </trkpt>
      <trkpt lat="44.53967" lon="4.26219">
        <ele>460</ele>
        <time>2016-05-15T08:46:15.000Z</time>
      </trkpt>
      <trkpt lat="44.53968" lon="4.26216">
        <ele>460</ele>
        <time>2016-05-15T08:46:16.000Z</time>
      </trkpt>
      <trkpt lat="44.53969" lon="4.26213">
        <ele>460</ele>
        <time>2016-05-15T08:46:17.000Z</time>
      </trkpt>
      <trkpt lat="44.5397" lon="4.26211">
        <ele>460</ele>
        <time>2016-05-15T08:46:18.000Z</time>
      </trkpt>
      <trkpt lat="44.53971" lon="4.26208">
        <ele>460</ele>
        <time>2016-05-15T08:46:19.000Z</time>
      </trkpt>
      <trkpt lat="44.53971" lon="4.26206">
        <ele>460</ele>
        <time>2016-05-15T08:46:20.000Z</time>
      </trkpt>
      <trkpt lat="44.53972" lon="4.26203">
        <ele>460</ele>
        <time>2016-05-15T08:46:21.000Z</time>
      </trkpt>
      <trkpt lat="44.53974" lon="4.26199">
        <ele>460</ele>
        <time>2016-05-15T08:46:22.000Z</time>
      </trkpt>
      <trkpt lat="44.53975" lon="4.26195">
        <ele>460</ele>
        <time>2016-05-15T08:46:23.000Z</time>
      </trkpt>
      <trkpt lat="44.53977" lon="4.26192">
        <ele>460</ele>
        <time>2016-05-15T08:46:24.000Z</time>
      </trkpt>
      <trkpt lat="44.53978" lon="4.26189">
        <ele>460</ele>
        <time>2016-05-15T08:46:25.000Z</time>
      </trkpt>
      <trkpt lat="44.53979" lon="4.26185">
        <ele>460</ele>
        <time>2016-05-15T08:46:26.000Z</time>
      </trkpt>
      <trkpt lat="44.53981" lon="4.26182">
        <ele>460</ele>
        <time>2016-05-15T08:46:27.000Z</time>
      </trkpt>
      <trkpt lat="44.53983" lon="4.26178">
        <ele>460</ele>
        <time>2016-05-15T08:46:28.000Z</time>
      </trkpt>
      <trkpt lat="44.53985" lon="4.26174">
        <ele>460</ele>
        <time>2016-05-15T08:46:29.000Z</time>
      </trkpt>
      <trkpt lat="44.53986" lon="4.2617">
        <ele>460</ele>
        <time>2016-05-15T08:46:30.000Z</time>
      </trkpt>
      <trkpt lat="44.53986" lon="4.26167">
        <ele>460</ele>
        <time>2016-05-15T08:46:31.000Z</time>
      </trkpt>
      <trkpt lat="44.53985" lon="4.26163">
        <ele>459</ele>
        <time>2016-05-15T08:46:32.000Z</time>
      </trkpt>
      <trkpt lat="44.53986" lon="4.26158">
        <ele>459</ele>
        <time>2016-05-15T08:46:33.000Z</time>
      </trkpt>
      <trkpt lat="44.53987" lon="4.26155">
        <ele>459</ele>
        <time>2016-05-15T08:46:34.000Z</time>
      </trkpt>
      <trkpt lat="44.53987" lon="4.26152">
        <ele>459</ele>
        <time>2016-05-15T08:46:35.000Z</time>
      </trkpt>
      <trkpt lat="44.53988" lon="4.26149">
        <ele>458</ele>
        <time>2016-05-15T08:46:36.000Z</time>
      </trkpt>
      <trkpt lat="44.53989" lon="4.26147">
        <ele>458</ele>
        <time>2016-05-15T08:46:37.000Z</time>
      </trkpt>
      <trkpt lat="44.53989" lon="4.26145">
        <ele>458</ele>
        <time>2016-05-15T08:46:38.000Z</time>
      </trkpt>
      <trkpt lat="44.5399" lon="4.26142">
        <ele>458</ele>
        <time>2016-05-15T08:46:39.000Z</time>
      </trkpt>
      <trkpt lat="44.5399" lon="4.26139">
        <ele>458</ele>
        <time>2016-05-15T08:46:40.000Z</time>
      </trkpt>
      <trkpt lat="44.53989" lon="4.26135">
        <ele>458</ele>
        <time>2016-05-15T08:46:41.000Z</time>
      </trkpt>
      <trkpt lat="44.53989" lon="4.26132">
        <ele>458</ele>
        <time>2016-05-15T08:46:42.000Z</time>
      </trkpt>
      <trkpt lat="44.5399" lon="4.26127">
        <ele>457</ele>
        <time>2016-05-15T08:46:43.000Z</time>
      </trkpt>
      <trkpt lat="44.53991" lon="4.26124">
        <ele>457</ele>
        <time>2016-05-15T08:46:44.000Z</time>
      </trkpt>
      <trkpt lat="44.53991" lon="4.2612">
        <ele>457</ele>
        <time>2016-05-15T08:46:45.000Z</time>
      </trkpt>
      <trkpt lat="44.53991" lon="4.26116">
        <ele>457</ele>
        <time>2016-05-15T08:46:46.000Z</time>
      </trkpt>
      <trkpt lat="44.53992" lon="4.26112">
        <ele>457</ele>
        <time>2016-05-15T08:46:47.000Z</time>
      </trkpt>
      <trkpt lat="44.53992" lon="4.26107">
        <ele>457</ele>
        <time>2016-05-15T08:46:48.000Z</time>
      </trkpt>
      <trkpt lat="44.53993" lon="4.26103">
        <ele>456</ele>
        <time>2016-05-15T08:46:49.000Z</time>
      </trkpt>
      <trkpt lat="44.53995" lon="4.26099">
        <ele>456</ele>
        <time>2016-05-15T08:46:50.000Z</time>
      </trkpt>
      <trkpt lat="44.53996" lon="4.26095">
        <ele>456</ele>
        <time>2016-05-15T08:46:51.000Z</time>
      </trkpt>
      <trkpt lat="44.53998" lon="4.2609">
        <ele>456</ele>
        <time>2016-05-15T08:46:52.000Z</time>
      </trkpt>
      <trkpt lat="44.53999" lon="4.26086">
        <ele>455</ele>
        <time>2016-05-15T08:46:53.000Z</time>
      </trkpt>
      <trkpt lat="44.54001" lon="4.2608">
        <ele>454</ele>
        <time>2016-05-15T08:46:54.000Z</time>
      </trkpt>
      <trkpt lat="44.54003" lon="4.26074">
        <ele>452</ele>
        <time>2016-05-15T08:46:55.000Z</time>
      </trkpt>
      <trkpt lat="44.54005" lon="4.26068">
        <ele>450</ele>
        <time>2016-05-15T08:46:56.000Z</time>
      </trkpt>
      <trkpt lat="44.54007" lon="4.26062">
        <ele>449</ele>
        <time>2016-05-15T08:46:57.000Z</time>
      </trkpt>
      <trkpt lat="44.54008" lon="4.26057">
        <ele>448</ele>
        <time>2016-05-15T08:46:58.000Z</time>
      </trkpt>
      <trkpt lat="44.5401" lon="4.26051">
        <ele>448</ele>
        <time>2016-05-15T08:46:59.000Z</time>
      </trkpt>
      <trkpt lat="44.54012" lon="4.26046">
        <ele>447</ele>
        <time>2016-05-15T08:47:00.000Z</time>
      </trkpt>
      <trkpt lat="44.54015" lon="4.26041">
        <ele>447</ele>
        <time>2016-05-15T08:47:01.000Z</time>
      </trkpt>
      <trkpt lat="44.54017" lon="4.26036">
        <ele>447</ele>
        <time>2016-05-15T08:47:02.000Z</time>
      </trkpt>
      <trkpt lat="44.5402" lon="4.26031">
        <ele>446</ele>
        <time>2016-05-15T08:47:03.000Z</time>
      </trkpt>
      <trkpt lat="44.54022" lon="4.26026">
        <ele>446</ele>
        <time>2016-05-15T08:47:04.000Z</time>
      </trkpt>
      <trkpt lat="44.54026" lon="4.26021">
        <ele>446</ele>
        <time>2016-05-15T08:47:05.000Z</time>
      </trkpt>
      <trkpt lat="44.54029" lon="4.26017">
        <ele>446</ele>
        <time>2016-05-15T08:47:06.000Z</time>
      </trkpt>
      <trkpt lat="44.54032" lon="4.26013">
        <ele>446</ele>
        <time>2016-05-15T08:47:07.000Z</time>
      </trkpt>
      <trkpt lat="44.54036" lon="4.26009">
        <ele>445</ele>
        <time>2016-05-15T08:47:08.000Z</time>
      </trkpt>
      <trkpt lat="44.54039" lon="4.26004">
        <ele>445</ele>
        <time>2016-05-15T08:47:09.000Z</time>
      </trkpt>
      <trkpt lat="44.54041" lon="4.25999">
        <ele>443</ele>
        <time>2016-05-15T08:47:10.000Z</time>
      </trkpt>
      <trkpt lat="44.54042" lon="4.25995">
        <ele>443</ele>
        <time>2016-05-15T08:47:11.000Z</time>
      </trkpt>
      <trkpt lat="44.54044" lon="4.2599">
        <ele>443</ele>
        <time>2016-05-15T08:47:12.000Z</time>
      </trkpt>
      <trkpt lat="44.54047" lon="4.25985">
        <ele>443</ele>
        <time>2016-05-15T08:47:13.000Z</time>
      </trkpt>
      <trkpt lat="44.54049" lon="4.25981">
        <ele>442</ele>
        <time>2016-05-15T08:47:14.000Z</time>
      </trkpt>
      <trkpt lat="44.54053" lon="4.25977">
        <ele>442</ele>
        <time>2016-05-15T08:47:15.000Z</time>
      </trkpt>
      <trkpt lat="44.54057" lon="4.25973">
        <ele>442</ele>
        <time>2016-05-15T08:47:16.000Z</time>
      </trkpt>
      <trkpt lat="44.5406" lon="4.25968">
        <ele>442</ele>
        <time>2016-05-15T08:47:17.000Z</time>
      </trkpt>
      <trkpt lat="44.54063" lon="4.25963">
        <ele>442</ele>
        <time>2016-05-15T08:47:18.000Z</time>
      </trkpt>
      <trkpt lat="44.54067" lon="4.25959">
        <ele>442</ele>
        <time>2016-05-15T08:47:19.000Z</time>
      </trkpt>
      <trkpt lat="44.54071" lon="4.25954">
        <ele>442</ele>
        <time>2016-05-15T08:47:20.000Z</time>
      </trkpt>
      <trkpt lat="44.54074" lon="4.25949">
        <ele>442</ele>
        <time>2016-05-15T08:47:21.000Z</time>
      </trkpt>
      <trkpt lat="44.54077" lon="4.25942">
        <ele>442</ele>
        <time>2016-05-15T08:47:22.000Z</time>
      </trkpt>
      <trkpt lat="44.54081" lon="4.25935">
        <ele>442</ele>
        <time>2016-05-15T08:47:23.000Z</time>
      </trkpt>
      <trkpt lat="44.54083" lon="4.25927">
        <ele>443</ele>
        <time>2016-05-15T08:47:24.000Z</time>
      </trkpt>
      <trkpt lat="44.54086" lon="4.25918">
        <ele>442</ele>
        <time>2016-05-15T08:47:25.000Z</time>
      </trkpt>
      <trkpt lat="44.54088" lon="4.25911">
        <ele>442</ele>
        <time>2016-05-15T08:47:26.000Z</time>
      </trkpt>
      <trkpt lat="44.54091" lon="4.25904">
        <ele>441</ele>
        <time>2016-05-15T08:47:27.000Z</time>
      </trkpt>
      <trkpt lat="44.54094" lon="4.25896">
        <ele>440</ele>
        <time>2016-05-15T08:47:28.000Z</time>
      </trkpt>
      <trkpt lat="44.54096" lon="4.25888">
        <ele>440</ele>
        <time>2016-05-15T08:47:29.000Z</time>
      </trkpt>
      <trkpt lat="44.54098" lon="4.2588">
        <ele>440</ele>
        <time>2016-05-15T08:47:30.000Z</time>
      </trkpt>
      <trkpt lat="44.54099" lon="4.25872">
        <ele>440</ele>
        <time>2016-05-15T08:47:31.000Z</time>
      </trkpt>
      <trkpt lat="44.54101" lon="4.25866">
        <ele>439</ele>
        <time>2016-05-15T08:47:32.000Z</time>
      </trkpt>
      <trkpt lat="44.54103" lon="4.25861">
        <ele>439</ele>
        <time>2016-05-15T08:47:33.000Z</time>
      </trkpt>
      <trkpt lat="44.54106" lon="4.25857">
        <ele>439</ele>
        <time>2016-05-15T08:47:34.000Z</time>
      </trkpt>
      <trkpt lat="44.54108" lon="4.25852">
        <ele>439</ele>
        <time>2016-05-15T08:47:35.000Z</time>
      </trkpt>
      <trkpt lat="44.54109" lon="4.25847">
        <ele>439</ele>
        <time>2016-05-15T08:47:36.000Z</time>
      </trkpt>
      <trkpt lat="44.54111" lon="4.25842">
        <ele>439</ele>
        <time>2016-05-15T08:47:37.000Z</time>
      </trkpt>
      <trkpt lat="44.54112" lon="4.25838">
        <ele>439</ele>
        <time>2016-05-15T08:47:38.000Z</time>
      </trkpt>
      <trkpt lat="44.54114" lon="4.25833">
        <ele>440</ele>
        <time>2016-05-15T08:47:39.000Z</time>
      </trkpt>
      <trkpt lat="44.54115" lon="4.25828">
        <ele>440</ele>
        <time>2016-05-15T08:47:40.000Z</time>
      </trkpt>
      <trkpt lat="44.54116" lon="4.25823">
        <ele>440</ele>
        <time>2016-05-15T08:47:41.000Z</time>
      </trkpt>
      <trkpt lat="44.54118" lon="4.25818">
        <ele>440</ele>
        <time>2016-05-15T08:47:42.000Z</time>
      </trkpt>
      <trkpt lat="44.54119" lon="4.25814">
        <ele>440</ele>
        <time>2016-05-15T08:47:43.000Z</time>
      </trkpt>
      <trkpt lat="44.54121" lon="4.2581">
        <ele>440</ele>
        <time>2016-05-15T08:47:44.000Z</time>
      </trkpt>
      <trkpt lat="44.54123" lon="4.25806">
        <ele>441</ele>
        <time>2016-05-15T08:47:45.000Z</time>
      </trkpt>
      <trkpt lat="44.54125" lon="4.25803">
        <ele>441</ele>
        <time>2016-05-15T08:47:46.000Z</time>
      </trkpt>
      <trkpt lat="44.54126" lon="4.25802">
        <ele>441</ele>
        <time>2016-05-15T08:47:47.000Z</time>
      </trkpt>
      <trkpt lat="44.54128" lon="4.258">
        <ele>441</ele>
        <time>2016-05-15T08:47:48.000Z</time>
      </trkpt>
      <trkpt lat="44.54129" lon="4.25798">
        <ele>441</ele>
        <time>2016-05-15T08:47:49.000Z</time>
      </trkpt>
      <trkpt lat="44.54131" lon="4.25796">
        <ele>441</ele>
        <time>2016-05-15T08:47:50.000Z</time>
      </trkpt>
      <trkpt lat="44.54132" lon="4.25793">
        <ele>441</ele>
        <time>2016-05-15T08:47:51.000Z</time>
      </trkpt>
      <trkpt lat="44.54134" lon="4.25791">
        <ele>441</ele>
        <time>2016-05-15T08:47:52.000Z</time>
      </trkpt>
      <trkpt lat="44.54135" lon="4.25788">
        <ele>442</ele>
        <time>2016-05-15T08:47:53.000Z</time>
      </trkpt>
      <trkpt lat="44.54136" lon="4.25786">
        <ele>442</ele>
        <time>2016-05-15T08:47:54.000Z</time>
      </trkpt>
      <trkpt lat="44.54138" lon="4.25784">
        <ele>442</ele>
        <time>2016-05-15T08:47:55.000Z</time>
      </trkpt>
      <trkpt lat="44.54138" lon="4.25782">
        <ele>442</ele>
        <time>2016-05-15T08:47:56.000Z</time>
      </trkpt>
      <trkpt lat="44.54139" lon="4.2578">
        <ele>442</ele>
        <time>2016-05-15T08:47:57.000Z</time>
      </trkpt>
      <trkpt lat="44.5414" lon="4.25778">
        <ele>442</ele>
        <time>2016-05-15T08:47:58.000Z</time>
      </trkpt>
      <trkpt lat="44.54141" lon="4.25776">
        <ele>443</ele>
        <time>2016-05-15T08:47:59.000Z</time>
      </trkpt>
      <trkpt lat="44.54142" lon="4.25775">
        <ele>443</ele>
        <time>2016-05-15T08:48:00.000Z</time>
      </trkpt>
      <trkpt lat="44.54143" lon="4.25773">
        <ele>443</ele>
        <time>2016-05-15T08:48:01.000Z</time>
      </trkpt>
      <trkpt lat="44.54144" lon="4.2577">
        <ele>443</ele>
        <time>2016-05-15T08:48:02.000Z</time>
      </trkpt>
      <trkpt lat="44.54146" lon="4.25768">
        <ele>444</ele>
        <time>2016-05-15T08:48:03.000Z</time>
      </trkpt>
      <trkpt lat="44.54147" lon="4.25766">
        <ele>444</ele>
        <time>2016-05-15T08:48:04.000Z</time>
      </trkpt>
      <trkpt lat="44.54147" lon="4.25764">
        <ele>444</ele>
        <time>2016-05-15T08:48:05.000Z</time>
      </trkpt>
      <trkpt lat="44.54148" lon="4.25763">
        <ele>445</ele>
        <time>2016-05-15T08:48:06.000Z</time>
      </trkpt>
      <trkpt lat="44.54149" lon="4.25761">
        <ele>445</ele>
        <time>2016-05-15T08:48:07.000Z</time>
      </trkpt>
      <trkpt lat="44.5415" lon="4.25759">
        <ele>446</ele>
        <time>2016-05-15T08:48:08.000Z</time>
      </trkpt>
      <trkpt lat="44.54151" lon="4.25758">
        <ele>446</ele>
        <time>2016-05-15T08:48:09.000Z</time>
      </trkpt>
      <trkpt lat="44.54152" lon="4.25756">
        <ele>446</ele>
        <time>2016-05-15T08:48:10.000Z</time>
      </trkpt>
      <trkpt lat="44.54153" lon="4.25755">
        <ele>447</ele>
        <time>2016-05-15T08:48:11.000Z</time>
      </trkpt>
      <trkpt lat="44.54154" lon="4.25753">
        <ele>447</ele>
        <time>2016-05-15T08:48:12.000Z</time>
      </trkpt>
      <trkpt lat="44.54155" lon="4.25752">
        <ele>447</ele>
        <time>2016-05-15T08:48:13.000Z</time>
      </trkpt>
      <trkpt lat="44.54155" lon="4.2575">
        <ele>448</ele>
        <time>2016-05-15T08:48:14.000Z</time>
      </trkpt>
      <trkpt lat="44.54156" lon="4.25749">
        <ele>448</ele>
        <time>2016-05-15T08:48:15.000Z</time>
      </trkpt>
      <trkpt lat="44.54157" lon="4.25747">
        <ele>448</ele>
        <time>2016-05-15T08:48:16.000Z</time>
      </trkpt>
      <trkpt lat="44.54157" lon="4.25746">
        <ele>448</ele>
        <time>2016-05-15T08:48:17.000Z</time>
      </trkpt>
      <trkpt lat="44.54158" lon="4.25744">
        <ele>448</ele>
        <time>2016-05-15T08:48:18.000Z</time>
      </trkpt>
      <trkpt lat="44.54159" lon="4.25743">
        <ele>448</ele>
        <time>2016-05-15T08:48:19.000Z</time>
      </trkpt>
      <trkpt lat="44.5416" lon="4.25742">
        <ele>448</ele>
        <time>2016-05-15T08:48:20.000Z</time>
      </trkpt>
      <trkpt lat="44.54161" lon="4.25741">
        <ele>448</ele>
        <time>2016-05-15T08:48:21.000Z</time>
      </trkpt>
      <trkpt lat="44.54162" lon="4.2574">
        <ele>448</ele>
        <time>2016-05-15T08:48:22.000Z</time>
      </trkpt>
      <trkpt lat="44.54163" lon="4.25739">
        <ele>448</ele>
        <time>2016-05-15T08:48:23.000Z</time>
      </trkpt>
      <trkpt lat="44.54164" lon="4.25737">
        <ele>448</ele>
        <time>2016-05-15T08:48:24.000Z</time>
      </trkpt>
      <trkpt lat="44.54165" lon="4.25736">
        <ele>447</ele>
        <time>2016-05-15T08:48:25.000Z</time>
      </trkpt>
      <trkpt lat="44.54165" lon="4.25734">
        <ele>447</ele>
        <time>2016-05-15T08:48:26.000Z</time>
      </trkpt>
      <trkpt lat="44.54166" lon="4.25733">
        <ele>447</ele>
        <time>2016-05-15T08:48:27.000Z</time>
      </trkpt>
      <trkpt lat="44.54167" lon="4.25732">
        <ele>457</ele>
        <time>2016-05-15T08:48:28.000Z</time>
      </trkpt>
      <trkpt lat="44.54168" lon="4.25731">
        <ele>457</ele>
        <time>2016-05-15T08:48:29.000Z</time>
      </trkpt>
      <trkpt lat="44.54169" lon="4.2573">
        <ele>457</ele>
        <time>2016-05-15T08:48:30.000Z</time>
      </trkpt>
      <trkpt lat="44.5417" lon="4.25728">
        <ele>457</ele>
        <time>2016-05-15T08:48:31.000Z</time>
      </trkpt>
      <trkpt lat="44.54171" lon="4.25727">
        <ele>457</ele>
        <time>2016-05-15T08:48:32.000Z</time>
      </trkpt>
      <trkpt lat="44.54172" lon="4.25725">
        <ele>458</ele>
        <time>2016-05-15T08:48:33.000Z</time>
      </trkpt>
      <trkpt lat="44.54173" lon="4.25723">
        <ele>458</ele>
        <time>2016-05-15T08:48:34.000Z</time>
      </trkpt>
      <trkpt lat="44.54174" lon="4.25722">
        <ele>458</ele>
        <time>2016-05-15T08:48:35.000Z</time>
      </trkpt>
      <trkpt lat="44.54174" lon="4.2572">
        <ele>458</ele>
        <time>2016-05-15T08:48:36.000Z</time>
      </trkpt>
      <trkpt lat="44.54174" lon="4.25718">
        <ele>458</ele>
        <time>2016-05-15T08:48:37.000Z</time>
      </trkpt>
      <trkpt lat="44.54175" lon="4.25717">
        <ele>458</ele>
        <time>2016-05-15T08:48:38.000Z</time>
      </trkpt>
      <trkpt lat="44.54176" lon="4.25716">
        <ele>458</ele>
        <time>2016-05-15T08:48:39.000Z</time>
      </trkpt>
      <trkpt lat="44.54177" lon="4.25714">
        <ele>459</ele>
        <time>2016-05-15T08:48:40.000Z</time>
      </trkpt>
      <trkpt lat="44.54177" lon="4.25713">
        <ele>459</ele>
        <time>2016-05-15T08:48:41.000Z</time>
      </trkpt>
      <trkpt lat="44.54178" lon="4.25712">
        <ele>459</ele>
        <time>2016-05-15T08:48:42.000Z</time>
      </trkpt>
      <trkpt lat="44.54179" lon="4.25711">
        <ele>459</ele>
        <time>2016-05-15T08:48:43.000Z</time>
      </trkpt>
      <trkpt lat="44.5418" lon="4.25709">
        <ele>459</ele>
        <time>2016-05-15T08:48:44.000Z</time>
      </trkpt>
      <trkpt lat="44.54181" lon="4.25708">
        <ele>459</ele>
        <time>2016-05-15T08:48:45.000Z</time>
      </trkpt>
      <trkpt lat="44.54182" lon="4.25707">
        <ele>459</ele>
        <time>2016-05-15T08:48:46.000Z</time>
      </trkpt>
      <trkpt lat="44.54183" lon="4.25706">
        <ele>459</ele>
        <time>2016-05-15T08:48:47.000Z</time>
      </trkpt>
      <trkpt lat="44.54184" lon="4.25705">
        <ele>459</ele>
        <time>2016-05-15T08:48:48.000Z</time>
      </trkpt>
      <trkpt lat="44.54185" lon="4.25704">
        <ele>459</ele>
        <time>2016-05-15T08:48:49.000Z</time>
      </trkpt>
      <trkpt lat="44.54186" lon="4.25703">
        <ele>460</ele>
        <time>2016-05-15T08:48:50.000Z</time>
      </trkpt>
      <trkpt lat="44.54187" lon="4.25702">
        <ele>460</ele>
        <time>2016-05-15T08:48:51.000Z</time>
      </trkpt>
      <trkpt lat="44.54188" lon="4.25702">
        <ele>460</ele>
        <time>2016-05-15T08:48:52.000Z</time>
      </trkpt>
      <trkpt lat="44.5419" lon="4.25701">
        <ele>460</ele>
        <time>2016-05-15T08:48:53.000Z</time>
      </trkpt>
      <trkpt lat="44.54191" lon="4.25699">
        <ele>460</ele>
        <time>2016-05-15T08:48:54.000Z</time>
      </trkpt>
      <trkpt lat="44.54193" lon="4.25698">
        <ele>460</ele>
        <time>2016-05-15T08:48:55.000Z</time>
      </trkpt>
      <trkpt lat="44.54194" lon="4.25696">
        <ele>460</ele>
        <time>2016-05-15T08:48:56.000Z</time>
      </trkpt>
      <trkpt lat="44.54196" lon="4.25695">
        <ele>461</ele>
        <time>2016-05-15T08:48:57.000Z</time>
      </trkpt>
      <trkpt lat="44.54197" lon="4.25694">
        <ele>461</ele>
        <time>2016-05-15T08:48:58.000Z</time>
      </trkpt>
      <trkpt lat="44.54198" lon="4.25693">
        <ele>461</ele>
        <time>2016-05-15T08:48:59.000Z</time>
      </trkpt>
      <trkpt lat="44.54199" lon="4.25693">
        <ele>461</ele>
        <time>2016-05-15T08:49:00.000Z</time>
      </trkpt>
      <trkpt lat="44.54201" lon="4.25692">
        <ele>461</ele>
        <time>2016-05-15T08:49:01.000Z</time>
      </trkpt>
      <trkpt lat="44.54202" lon="4.25692">
        <ele>461</ele>
        <time>2016-05-15T08:49:02.000Z</time>
      </trkpt>
      <trkpt lat="44.54203" lon="4.25691">
        <ele>462</ele>
        <time>2016-05-15T08:49:03.000Z</time>
      </trkpt>
      <trkpt lat="44.54204" lon="4.25689">
        <ele>462</ele>
        <time>2016-05-15T08:49:04.000Z</time>
      </trkpt>
      <trkpt lat="44.54206" lon="4.25688">
        <ele>462</ele>
        <time>2016-05-15T08:49:05.000Z</time>
      </trkpt>
      <trkpt lat="44.54207" lon="4.25685">
        <ele>462</ele>
        <time>2016-05-15T08:49:06.000Z</time>
      </trkpt>
      <trkpt lat="44.54208" lon="4.25683">
        <ele>463</ele>
        <time>2016-05-15T08:49:07.000Z</time>
      </trkpt>
      <trkpt lat="44.54209" lon="4.25681">
        <ele>463</ele>
        <time>2016-05-15T08:49:08.000Z</time>
      </trkpt>
      <trkpt lat="44.54211" lon="4.2568">
        <ele>463</ele>
        <time>2016-05-15T08:49:09.000Z</time>
      </trkpt>
      <trkpt lat="44.54212" lon="4.25678">
        <ele>463</ele>
        <time>2016-05-15T08:49:10.000Z</time>
      </trkpt>
      <trkpt lat="44.54213" lon="4.25676">
        <ele>464</ele>
        <time>2016-05-15T08:49:11.000Z</time>
      </trkpt>
      <trkpt lat="44.54214" lon="4.25674">
        <ele>464</ele>
        <time>2016-05-15T08:49:12.000Z</time>
      </trkpt>
      <trkpt lat="44.54215" lon="4.25671">
        <ele>464</ele>
        <time>2016-05-15T08:49:13.000Z</time>
      </trkpt>
      <trkpt lat="44.54216" lon="4.25669">
        <ele>465</ele>
        <time>2016-05-15T08:49:14.000Z</time>
      </trkpt>
      <trkpt lat="44.54217" lon="4.25667">
        <ele>464</ele>
        <time>2016-05-15T08:49:15.000Z</time>
      </trkpt>
      <trkpt lat="44.54218" lon="4.25664">
        <ele>464</ele>
        <time>2016-05-15T08:49:16.000Z</time>
      </trkpt>
      <trkpt lat="44.54219" lon="4.25662">
        <ele>464</ele>
        <time>2016-05-15T08:49:17.000Z</time>
      </trkpt>
      <trkpt lat="44.5422" lon="4.2566">
        <ele>464</ele>
        <time>2016-05-15T08:49:18.000Z</time>
      </trkpt>
      <trkpt lat="44.54221" lon="4.25658">
        <ele>464</ele>
        <time>2016-05-15T08:49:19.000Z</time>
      </trkpt>
      <trkpt lat="44.54222" lon="4.25656">
        <ele>464</ele>
        <time>2016-05-15T08:49:20.000Z</time>
      </trkpt>
      <trkpt lat="44.54223" lon="4.25654">
        <ele>464</ele>
        <time>2016-05-15T08:49:21.000Z</time>
      </trkpt>
      <trkpt lat="44.54224" lon="4.25652">
        <ele>464</ele>
        <time>2016-05-15T08:49:22.000Z</time>
      </trkpt>
      <trkpt lat="44.54225" lon="4.2565">
        <ele>464</ele>
        <time>2016-05-15T08:49:23.000Z</time>
      </trkpt>
      <trkpt lat="44.54226" lon="4.25648">
        <ele>464</ele>
        <time>2016-05-15T08:49:24.000Z</time>
      </trkpt>
      <trkpt lat="44.54227" lon="4.25646">
        <ele>465</ele>
        <time>2016-05-15T08:49:25.000Z</time>
      </trkpt>
      <trkpt lat="44.54228" lon="4.25645">
        <ele>465</ele>
        <time>2016-05-15T08:49:26.000Z</time>
      </trkpt>
      <trkpt lat="44.5423" lon="4.25643">
        <ele>465</ele>
        <time>2016-05-15T08:49:27.000Z</time>
      </trkpt>
      <trkpt lat="44.54231" lon="4.25641">
        <ele>465</ele>
        <time>2016-05-15T08:49:28.000Z</time>
      </trkpt>
      <trkpt lat="44.54232" lon="4.2564">
        <ele>465</ele>
        <time>2016-05-15T08:49:29.000Z</time>
      </trkpt>
      <trkpt lat="44.54234" lon="4.25638">
        <ele>465</ele>
        <time>2016-05-15T08:49:30.000Z</time>
      </trkpt>
      <trkpt lat="44.54235" lon="4.25637">
        <ele>465</ele>
        <time>2016-05-15T08:49:31.000Z</time>
      </trkpt>
      <trkpt lat="44.54237" lon="4.25635">
        <ele>465</ele>
        <time>2016-05-15T08:49:32.000Z</time>
      </trkpt>
      <trkpt lat="44.54239" lon="4.25633">
        <ele>465</ele>
        <time>2016-05-15T08:49:33.000Z</time>
      </trkpt>
      <trkpt lat="44.5424" lon="4.25631">
        <ele>465</ele>
        <time>2016-05-15T08:49:34.000Z</time>
      </trkpt>
      <trkpt lat="44.54242" lon="4.25629">
        <ele>464</ele>
        <time>2016-05-15T08:49:35.000Z</time>
      </trkpt>
      <trkpt lat="44.54244" lon="4.25627">
        <ele>464</ele>
        <time>2016-05-15T08:49:36.000Z</time>
      </trkpt>
      <trkpt lat="44.54246" lon="4.25624">
        <ele>464</ele>
        <time>2016-05-15T08:49:37.000Z</time>
      </trkpt>
      <trkpt lat="44.54247" lon="4.25622">
        <ele>464</ele>
        <time>2016-05-15T08:49:38.000Z</time>
      </trkpt>
      <trkpt lat="44.54249" lon="4.25619">
        <ele>464</ele>
        <time>2016-05-15T08:49:39.000Z</time>
      </trkpt>
      <trkpt lat="44.5425" lon="4.25616">
        <ele>464</ele>
        <time>2016-05-15T08:49:40.000Z</time>
      </trkpt>
      <trkpt lat="44.54252" lon="4.25613">
        <ele>476</ele>
        <time>2016-05-15T08:49:41.000Z</time>
      </trkpt>
      <trkpt lat="44.54253" lon="4.2561">
        <ele>476</ele>
        <time>2016-05-15T08:49:42.000Z</time>
      </trkpt>
      <trkpt lat="44.54254" lon="4.25607">
        <ele>475</ele>
        <time>2016-05-15T08:49:43.000Z</time>
      </trkpt>
      <trkpt lat="44.54256" lon="4.25604">
        <ele>475</ele>
        <time>2016-05-15T08:49:44.000Z</time>
      </trkpt>
      <trkpt lat="44.54258" lon="4.25601">
        <ele>475</ele>
        <time>2016-05-15T08:49:45.000Z</time>
      </trkpt>
      <trkpt lat="44.54259" lon="4.25598">
        <ele>474</ele>
        <time>2016-05-15T08:49:46.000Z</time>
      </trkpt>
      <trkpt lat="44.54261" lon="4.25594">
        <ele>474</ele>
        <time>2016-05-15T08:49:47.000Z</time>
      </trkpt>
      <trkpt lat="44.54262" lon="4.25591">
        <ele>474</ele>
        <time>2016-05-15T08:49:48.000Z</time>
      </trkpt>
      <trkpt lat="44.54264" lon="4.25588">
        <ele>474</ele>
        <time>2016-05-15T08:49:49.000Z</time>
      </trkpt>
      <trkpt lat="44.54265" lon="4.25585">
        <ele>474</ele>
        <time>2016-05-15T08:49:50.000Z</time>
      </trkpt>
      <trkpt lat="44.54267" lon="4.25582">
        <ele>471</ele>
        <time>2016-05-15T08:49:51.000Z</time>
      </trkpt>
      <trkpt lat="44.54268" lon="4.25579">
        <ele>472</ele>
        <time>2016-05-15T08:49:52.000Z</time>
      </trkpt>
      <trkpt lat="44.54269" lon="4.25576">
        <ele>472</ele>
        <time>2016-05-15T08:49:53.000Z</time>
      </trkpt>
      <trkpt lat="44.5427" lon="4.25573">
        <ele>472</ele>
        <time>2016-05-15T08:49:54.000Z</time>
      </trkpt>
      <trkpt lat="44.54271" lon="4.25569">
        <ele>472</ele>
        <time>2016-05-15T08:49:55.000Z</time>
      </trkpt>
      <trkpt lat="44.54272" lon="4.25565">
        <ele>472</ele>
        <time>2016-05-15T08:49:56.000Z</time>
      </trkpt>
      <trkpt lat="44.54272" lon="4.2556">
        <ele>472</ele>
        <time>2016-05-15T08:49:57.000Z</time>
      </trkpt>
      <trkpt lat="44.54273" lon="4.25555">
        <ele>472</ele>
        <time>2016-05-15T08:49:58.000Z</time>
      </trkpt>
      <trkpt lat="44.54273" lon="4.25549">
        <ele>472</ele>
        <time>2016-05-15T08:49:59.000Z</time>
      </trkpt>
      <trkpt lat="44.54275" lon="4.25542">
        <ele>472</ele>
        <time>2016-05-15T08:50:00.000Z</time>
      </trkpt>
      <trkpt lat="44.54277" lon="4.25535">
        <ele>471</ele>
        <time>2016-05-15T08:50:01.000Z</time>
      </trkpt>
      <trkpt lat="44.5428" lon="4.25527">
        <ele>471</ele>
        <time>2016-05-15T08:50:02.000Z</time>
      </trkpt>
      <trkpt lat="44.54283" lon="4.25518">
        <ele>471</ele>
        <time>2016-05-15T08:50:03.000Z</time>
      </trkpt>
      <trkpt lat="44.54286" lon="4.2551">
        <ele>471</ele>
        <time>2016-05-15T08:50:04.000Z</time>
      </trkpt>
      <trkpt lat="44.54289" lon="4.25501">
        <ele>472</ele>
        <time>2016-05-15T08:50:05.000Z</time>
      </trkpt>
      <trkpt lat="44.54292" lon="4.25493">
        <ele>466</ele>
        <time>2016-05-15T08:50:06.000Z</time>
      </trkpt>
      <trkpt lat="44.54295" lon="4.25486">
        <ele>467</ele>
        <time>2016-05-15T08:50:07.000Z</time>
      </trkpt>
      <trkpt lat="44.54298" lon="4.25479">
        <ele>467</ele>
        <time>2016-05-15T08:50:08.000Z</time>
      </trkpt>
      <trkpt lat="44.54302" lon="4.25472">
        <ele>467</ele>
        <time>2016-05-15T08:50:09.000Z</time>
      </trkpt>
      <trkpt lat="44.54305" lon="4.25466">
        <ele>467</ele>
        <time>2016-05-15T08:50:10.000Z</time>
      </trkpt>
      <trkpt lat="44.54308" lon="4.25462">
        <ele>467</ele>
        <time>2016-05-15T08:50:11.000Z</time>
      </trkpt>
      <trkpt lat="44.54311" lon="4.25458">
        <ele>467</ele>
        <time>2016-05-15T08:50:12.000Z</time>
      </trkpt>
      <trkpt lat="44.54314" lon="4.25454">
        <ele>467</ele>
        <time>2016-05-15T08:50:13.000Z</time>
      </trkpt>
      <trkpt lat="44.54316" lon="4.25452">
        <ele>467</ele>
        <time>2016-05-15T08:50:14.000Z</time>
      </trkpt>
      <trkpt lat="44.54319" lon="4.25449">
        <ele>468</ele>
        <time>2016-05-15T08:50:15.000Z</time>
      </trkpt>
      <trkpt lat="44.54321" lon="4.25446">
        <ele>468</ele>
        <time>2016-05-15T08:50:16.000Z</time>
      </trkpt>
      <trkpt lat="44.54323" lon="4.25442">
        <ele>468</ele>
        <time>2016-05-15T08:50:17.000Z</time>
      </trkpt>
      <trkpt lat="44.54325" lon="4.25439">
        <ele>468</ele>
        <time>2016-05-15T08:50:18.000Z</time>
      </trkpt>
      <trkpt lat="44.54327" lon="4.25435">
        <ele>468</ele>
        <time>2016-05-15T08:50:19.000Z</time>
      </trkpt>
      <trkpt lat="44.54329" lon="4.25432">
        <ele>469</ele>
        <time>2016-05-15T08:50:20.000Z</time>
      </trkpt>
      <trkpt lat="44.54331" lon="4.25429">
        <ele>469</ele>
        <time>2016-05-15T08:50:21.000Z</time>
      </trkpt>
      <trkpt lat="44.54333" lon="4.25425">
        <ele>469</ele>
        <time>2016-05-15T08:50:22.000Z</time>
      </trkpt>
      <trkpt lat="44.54335" lon="4.25422">
        <ele>472</ele>
        <time>2016-05-15T08:50:23.000Z</time>
      </trkpt>
      <trkpt lat="44.54337" lon="4.25418">
        <ele>472</ele>
        <time>2016-05-15T08:50:24.000Z</time>
      </trkpt>
      <trkpt lat="44.54339" lon="4.25414">
        <ele>471</ele>
        <time>2016-05-15T08:50:25.000Z</time>
      </trkpt>
      <trkpt lat="44.54341" lon="4.25411">
        <ele>471</ele>
        <time>2016-05-15T08:50:26.000Z</time>
      </trkpt>
      <trkpt lat="44.54343" lon="4.25409">
        <ele>471</ele>
        <time>2016-05-15T08:50:27.000Z</time>
      </trkpt>
      <trkpt lat="44.54346" lon="4.25406">
        <ele>471</ele>
        <time>2016-05-15T08:50:28.000Z</time>
      </trkpt>
      <trkpt lat="44.54349" lon="4.25405">
        <ele>471</ele>
        <time>2016-05-15T08:50:29.000Z</time>
      </trkpt>
      <trkpt lat="44.54352" lon="4.25403">
        <ele>471</ele>
        <time>2016-05-15T08:50:30.000Z</time>
      </trkpt>
      <trkpt lat="44.54355" lon="4.25402">
        <ele>472</ele>
        <time>2016-05-15T08:50:31.000Z</time>
      </trkpt>
      <trkpt lat="44.54358" lon="4.25401">
        <ele>472</ele>
        <time>2016-05-15T08:50:32.000Z</time>
      </trkpt>
      <trkpt lat="44.54361" lon="4.254">
        <ele>472</ele>
        <time>2016-05-15T08:50:33.000Z</time>
      </trkpt>
      <trkpt lat="44.54363" lon="4.25399">
        <ele>472</ele>
        <time>2016-05-15T08:50:34.000Z</time>
      </trkpt>
      <trkpt lat="44.54366" lon="4.25398">
        <ele>472</ele>
        <time>2016-05-15T08:50:35.000Z</time>
      </trkpt>
      <trkpt lat="44.54368" lon="4.25396">
        <ele>472</ele>
        <time>2016-05-15T08:50:36.000Z</time>
      </trkpt>
      <trkpt lat="44.54371" lon="4.25396">
        <ele>472</ele>
        <time>2016-05-15T08:50:37.000Z</time>
      </trkpt>
      <trkpt lat="44.54374" lon="4.25394">
        <ele>472</ele>
        <time>2016-05-15T08:50:38.000Z</time>
      </trkpt>
      <trkpt lat="44.54376" lon="4.25393">
        <ele>472</ele>
        <time>2016-05-15T08:50:39.000Z</time>
      </trkpt>
      <trkpt lat="44.54379" lon="4.25391">
        <ele>472</ele>
        <time>2016-05-15T08:50:40.000Z</time>
      </trkpt>
      <trkpt lat="44.54382" lon="4.2539">
        <ele>473</ele>
        <time>2016-05-15T08:50:41.000Z</time>
      </trkpt>
      <trkpt lat="44.54385" lon="4.25388">
        <ele>473</ele>
        <time>2016-05-15T08:50:42.000Z</time>
      </trkpt>
      <trkpt lat="44.54388" lon="4.25386">
        <ele>473</ele>
        <time>2016-05-15T08:50:43.000Z</time>
      </trkpt>
      <trkpt lat="44.54391" lon="4.25385">
        <ele>473</ele>
        <time>2016-05-15T08:50:44.000Z</time>
      </trkpt>
      <trkpt lat="44.54394" lon="4.25384">
        <ele>473</ele>
        <time>2016-05-15T08:50:45.000Z</time>
      </trkpt>
      <trkpt lat="44.54397" lon="4.25383">
        <ele>473</ele>
        <time>2016-05-15T08:50:46.000Z</time>
      </trkpt>
      <trkpt lat="44.54401" lon="4.25382">
        <ele>473</ele>
        <time>2016-05-15T08:50:47.000Z</time>
      </trkpt>
      <trkpt lat="44.54404" lon="4.25381">
        <ele>473</ele>
        <time>2016-05-15T08:50:48.000Z</time>
      </trkpt>
      <trkpt lat="44.54407" lon="4.2538">
        <ele>473</ele>
        <time>2016-05-15T08:50:49.000Z</time>
      </trkpt>
      <trkpt lat="44.5441" lon="4.25379">
        <ele>474</ele>
        <time>2016-05-15T08:50:50.000Z</time>
      </trkpt>
      <trkpt lat="44.54413" lon="4.25378">
        <ele>474</ele>
        <time>2016-05-15T08:50:51.000Z</time>
      </trkpt>
      <trkpt lat="44.54416" lon="4.25376">
        <ele>474</ele>
        <time>2016-05-15T08:50:52.000Z</time>
      </trkpt>
      <trkpt lat="44.54419" lon="4.25374">
        <ele>477</ele>
        <time>2016-05-15T08:50:53.000Z</time>
      </trkpt>
      <trkpt lat="44.54422" lon="4.25371">
        <ele>477</ele>
        <time>2016-05-15T08:50:54.000Z</time>
      </trkpt>
      <trkpt lat="44.54425" lon="4.25368">
        <ele>477</ele>
        <time>2016-05-15T08:50:55.000Z</time>
      </trkpt>
      <trkpt lat="44.54427" lon="4.25365">
        <ele>477</ele>
        <time>2016-05-15T08:50:56.000Z</time>
      </trkpt>
      <trkpt lat="44.5443" lon="4.25361">
        <ele>477</ele>
        <time>2016-05-15T08:50:57.000Z</time>
      </trkpt>
      <trkpt lat="44.54432" lon="4.25357">
        <ele>477</ele>
        <time>2016-05-15T08:50:58.000Z</time>
      </trkpt>
      <trkpt lat="44.54435" lon="4.25354">
        <ele>477</ele>
        <time>2016-05-15T08:50:59.000Z</time>
      </trkpt>
      <trkpt lat="44.54437" lon="4.2535">
        <ele>477</ele>
        <time>2016-05-15T08:51:00.000Z</time>
      </trkpt>
      <trkpt lat="44.54439" lon="4.25347">
        <ele>477</ele>
        <time>2016-05-15T08:51:01.000Z</time>
      </trkpt>
      <trkpt lat="44.54442" lon="4.25343">
        <ele>477</ele>
        <time>2016-05-15T08:51:02.000Z</time>
      </trkpt>
      <trkpt lat="44.54444" lon="4.2534">
        <ele>477</ele>
        <time>2016-05-15T08:51:03.000Z</time>
      </trkpt>
      <trkpt lat="44.54447" lon="4.25336">
        <ele>477</ele>
        <time>2016-05-15T08:51:04.000Z</time>
      </trkpt>
      <trkpt lat="44.54449" lon="4.25332">
        <ele>478</ele>
        <time>2016-05-15T08:51:05.000Z</time>
      </trkpt>
      <trkpt lat="44.54452" lon="4.25328">
        <ele>478</ele>
        <time>2016-05-15T08:51:06.000Z</time>
      </trkpt>
      <trkpt lat="44.54454" lon="4.25324">
        <ele>478</ele>
        <time>2016-05-15T08:51:07.000Z</time>
      </trkpt>
      <trkpt lat="44.54456" lon="4.2532">
        <ele>478</ele>
        <time>2016-05-15T08:51:08.000Z</time>
      </trkpt>
      <trkpt lat="44.54459" lon="4.25316">
        <ele>478</ele>
        <time>2016-05-15T08:51:09.000Z</time>
      </trkpt>
      <trkpt lat="44.54461" lon="4.25312">
        <ele>478</ele>
        <time>2016-05-15T08:51:10.000Z</time>
      </trkpt>
      <trkpt lat="44.54464" lon="4.25308">
        <ele>479</ele>
        <time>2016-05-15T08:51:11.000Z</time>
      </trkpt>
      <trkpt lat="44.54466" lon="4.25304">
        <ele>479</ele>
        <time>2016-05-15T08:51:12.000Z</time>
      </trkpt>
      <trkpt lat="44.54469" lon="4.25301">
        <ele>479</ele>
        <time>2016-05-15T08:51:13.000Z</time>
      </trkpt>
      <trkpt lat="44.54471" lon="4.25297">
        <ele>479</ele>
        <time>2016-05-15T08:51:14.000Z</time>
      </trkpt>
      <trkpt lat="44.54473" lon="4.25293">
        <ele>479</ele>
        <time>2016-05-15T08:51:15.000Z</time>
      </trkpt>
      <trkpt lat="44.54476" lon="4.25288">
        <ele>479</ele>
        <time>2016-05-15T08:51:16.000Z</time>
      </trkpt>
      <trkpt lat="44.54478" lon="4.25284">
        <ele>480</ele>
        <time>2016-05-15T08:51:17.000Z</time>
      </trkpt>
      <trkpt lat="44.5448" lon="4.2528">
        <ele>480</ele>
        <time>2016-05-15T08:51:18.000Z</time>
      </trkpt>
      <trkpt lat="44.54482" lon="4.25276">
        <ele>480</ele>
        <time>2016-05-15T08:51:19.000Z</time>
      </trkpt>
      <trkpt lat="44.54484" lon="4.25272">
        <ele>481</ele>
        <time>2016-05-15T08:51:20.000Z</time>
      </trkpt>
      <trkpt lat="44.54487" lon="4.25268">
        <ele>481</ele>
        <time>2016-05-15T08:51:21.000Z</time>
      </trkpt>
      <trkpt lat="44.5449" lon="4.25264">
        <ele>482</ele>
        <time>2016-05-15T08:51:22.000Z</time>
      </trkpt>
      <trkpt lat="44.54493" lon="4.2526">
        <ele>482</ele>
        <time>2016-05-15T08:51:23.000Z</time>
      </trkpt>
      <trkpt lat="44.54496" lon="4.25256">
        <ele>483</ele>
        <time>2016-05-15T08:51:24.000Z</time>
      </trkpt>
      <trkpt lat="44.54499" lon="4.25252">
        <ele>484</ele>
        <time>2016-05-15T08:51:25.000Z</time>
      </trkpt>
      <trkpt lat="44.54501" lon="4.25248">
        <ele>485</ele>
        <time>2016-05-15T08:51:26.000Z</time>
      </trkpt>
      <trkpt lat="44.54503" lon="4.25243">
        <ele>486</ele>
        <time>2016-05-15T08:51:27.000Z</time>
      </trkpt>
      <trkpt lat="44.54506" lon="4.25239">
        <ele>486</ele>
        <time>2016-05-15T08:51:28.000Z</time>
      </trkpt>
      <trkpt lat="44.54508" lon="4.25235">
        <ele>486</ele>
        <time>2016-05-15T08:51:29.000Z</time>
      </trkpt>
      <trkpt lat="44.54511" lon="4.25232">
        <ele>487</ele>
        <time>2016-05-15T08:51:30.000Z</time>
      </trkpt>
      <trkpt lat="44.54513" lon="4.25229">
        <ele>487</ele>
        <time>2016-05-15T08:51:31.000Z</time>
      </trkpt>
      <trkpt lat="44.54516" lon="4.25226">
        <ele>487</ele>
        <time>2016-05-15T08:51:32.000Z</time>
      </trkpt>
      <trkpt lat="44.54519" lon="4.25224">
        <ele>487</ele>
        <time>2016-05-15T08:51:33.000Z</time>
      </trkpt>
      <trkpt lat="44.54521" lon="4.25221">
        <ele>487</ele>
        <time>2016-05-15T08:51:34.000Z</time>
      </trkpt>
      <trkpt lat="44.54524" lon="4.25219">
        <ele>487</ele>
        <time>2016-05-15T08:51:35.000Z</time>
      </trkpt>
      <trkpt lat="44.54527" lon="4.25216">
        <ele>487</ele>
        <time>2016-05-15T08:51:36.000Z</time>
      </trkpt>
      <trkpt lat="44.5453" lon="4.25214">
        <ele>488</ele>
        <time>2016-05-15T08:51:37.000Z</time>
      </trkpt>
      <trkpt lat="44.54532" lon="4.25211">
        <ele>488</ele>
        <time>2016-05-15T08:51:38.000Z</time>
      </trkpt>
      <trkpt lat="44.54535" lon="4.25208">
        <ele>488</ele>
        <time>2016-05-15T08:51:39.000Z</time>
      </trkpt>
      <trkpt lat="44.54538" lon="4.25205">
        <ele>488</ele>
        <time>2016-05-15T08:51:40.000Z</time>
      </trkpt>
      <trkpt lat="44.54541" lon="4.25201">
        <ele>488</ele>
        <time>2016-05-15T08:51:41.000Z</time>
      </trkpt>
      <trkpt lat="44.54543" lon="4.25198">
        <ele>488</ele>
        <time>2016-05-15T08:51:42.000Z</time>
      </trkpt>
      <trkpt lat="44.54546" lon="4.25194">
        <ele>488</ele>
        <time>2016-05-15T08:51:43.000Z</time>
      </trkpt>
      <trkpt lat="44.54549" lon="4.2519">
        <ele>488</ele>
        <time>2016-05-15T08:51:44.000Z</time>
      </trkpt>
      <trkpt lat="44.54551" lon="4.25186">
        <ele>488</ele>
        <time>2016-05-15T08:51:45.000Z</time>
      </trkpt>
      <trkpt lat="44.54552" lon="4.25182">
        <ele>489</ele>
        <time>2016-05-15T08:51:46.000Z</time>
      </trkpt>
      <trkpt lat="44.54554" lon="4.25178">
        <ele>489</ele>
        <time>2016-05-15T08:51:47.000Z</time>
      </trkpt>
      <trkpt lat="44.54557" lon="4.25174">
        <ele>489</ele>
        <time>2016-05-15T08:51:48.000Z</time>
      </trkpt>
      <trkpt lat="44.5456" lon="4.2517">
        <ele>489</ele>
        <time>2016-05-15T08:51:49.000Z</time>
      </trkpt>
      <trkpt lat="44.54562" lon="4.25166">
        <ele>492</ele>
        <time>2016-05-15T08:51:50.000Z</time>
      </trkpt>
      <trkpt lat="44.54565" lon="4.25161">
        <ele>492</ele>
        <time>2016-05-15T08:51:51.000Z</time>
      </trkpt>
      <trkpt lat="44.54567" lon="4.25157">
        <ele>493</ele>
        <time>2016-05-15T08:51:52.000Z</time>
      </trkpt>
      <trkpt lat="44.54569" lon="4.25153">
        <ele>493</ele>
        <time>2016-05-15T08:51:53.000Z</time>
      </trkpt>
      <trkpt lat="44.54572" lon="4.25149">
        <ele>493</ele>
        <time>2016-05-15T08:51:54.000Z</time>
      </trkpt>
      <trkpt lat="44.54574" lon="4.25144">
        <ele>493</ele>
        <time>2016-05-15T08:51:55.000Z</time>
      </trkpt>
      <trkpt lat="44.54576" lon="4.2514">
        <ele>493</ele>
        <time>2016-05-15T08:51:56.000Z</time>
      </trkpt>
      <trkpt lat="44.54579" lon="4.25135">
        <ele>494</ele>
        <time>2016-05-15T08:51:57.000Z</time>
      </trkpt>
      <trkpt lat="44.54581" lon="4.25131">
        <ele>494</ele>
        <time>2016-05-15T08:51:58.000Z</time>
      </trkpt>
      <trkpt lat="44.54584" lon="4.25127">
        <ele>489</ele>
        <time>2016-05-15T08:51:59.000Z</time>
      </trkpt>
      <trkpt lat="44.54586" lon="4.25121">
        <ele>489</ele>
        <time>2016-05-15T08:52:00.000Z</time>
      </trkpt>
      <trkpt lat="44.54588" lon="4.25116">
        <ele>490</ele>
        <time>2016-05-15T08:52:01.000Z</time>
      </trkpt>
      <trkpt lat="44.54591" lon="4.25111">
        <ele>490</ele>
        <time>2016-05-15T08:52:02.000Z</time>
      </trkpt>
      <trkpt lat="44.54593" lon="4.25106">
        <ele>490</ele>
        <time>2016-05-15T08:52:03.000Z</time>
      </trkpt>
      <trkpt lat="44.54595" lon="4.25102">
        <ele>491</ele>
        <time>2016-05-15T08:52:04.000Z</time>
      </trkpt>
      <trkpt lat="44.54598" lon="4.25097">
        <ele>491</ele>
        <time>2016-05-15T08:52:05.000Z</time>
      </trkpt>
      <trkpt lat="44.546" lon="4.25092">
        <ele>491</ele>
        <time>2016-05-15T08:52:06.000Z</time>
      </trkpt>
      <trkpt lat="44.54602" lon="4.25088">
        <ele>491</ele>
        <time>2016-05-15T08:52:07.000Z</time>
      </trkpt>
      <trkpt lat="44.54604" lon="4.25083">
        <ele>493</ele>
        <time>2016-05-15T08:52:08.000Z</time>
      </trkpt>
      <trkpt lat="44.54606" lon="4.25079">
        <ele>493</ele>
        <time>2016-05-15T08:52:09.000Z</time>
      </trkpt>
      <trkpt lat="44.54609" lon="4.25074">
        <ele>493</ele>
        <time>2016-05-15T08:52:10.000Z</time>
      </trkpt>
      <trkpt lat="44.54611" lon="4.25069">
        <ele>493</ele>
        <time>2016-05-15T08:52:11.000Z</time>
      </trkpt>
      <trkpt lat="44.54613" lon="4.25064">
        <ele>492</ele>
        <time>2016-05-15T08:52:12.000Z</time>
      </trkpt>
      <trkpt lat="44.54614" lon="4.2506">
        <ele>492</ele>
        <time>2016-05-15T08:52:13.000Z</time>
      </trkpt>
      <trkpt lat="44.54616" lon="4.25055">
        <ele>492</ele>
        <time>2016-05-15T08:52:14.000Z</time>
      </trkpt>
      <trkpt lat="44.54618" lon="4.2505">
        <ele>492</ele>
        <time>2016-05-15T08:52:15.000Z</time>
      </trkpt>
      <trkpt lat="44.54619" lon="4.25045">
        <ele>492</ele>
        <time>2016-05-15T08:52:16.000Z</time>
      </trkpt>
      <trkpt lat="44.5462" lon="4.25039">
        <ele>492</ele>
        <time>2016-05-15T08:52:17.000Z</time>
      </trkpt>
      <trkpt lat="44.5462" lon="4.25033">
        <ele>493</ele>
        <time>2016-05-15T08:52:18.000Z</time>
      </trkpt>
      <trkpt lat="44.54621" lon="4.25026">
        <ele>493</ele>
        <time>2016-05-15T08:52:19.000Z</time>
      </trkpt>
      <trkpt lat="44.54621" lon="4.25019">
        <ele>493</ele>
        <time>2016-05-15T08:52:20.000Z</time>
      </trkpt>
      <trkpt lat="44.54621" lon="4.25013">
        <ele>493</ele>
        <time>2016-05-15T08:52:21.000Z</time>
      </trkpt>
      <trkpt lat="44.54621" lon="4.25006">
        <ele>493</ele>
        <time>2016-05-15T08:52:22.000Z</time>
      </trkpt>
      <trkpt lat="44.54621" lon="4.24999">
        <ele>494</ele>
        <time>2016-05-15T08:52:23.000Z</time>
      </trkpt>
      <trkpt lat="44.54621" lon="4.24992">
        <ele>494</ele>
        <time>2016-05-15T08:52:24.000Z</time>
      </trkpt>
      <trkpt lat="44.5462" lon="4.24985">
        <ele>494</ele>
        <time>2016-05-15T08:52:25.000Z</time>
      </trkpt>
      <trkpt lat="44.54619" lon="4.24978">
        <ele>494</ele>
        <time>2016-05-15T08:52:26.000Z</time>
      </trkpt>
      <trkpt lat="44.54617" lon="4.24971">
        <ele>494</ele>
        <time>2016-05-15T08:52:27.000Z</time>
      </trkpt>
      <trkpt lat="44.54616" lon="4.24964">
        <ele>494</ele>
        <time>2016-05-15T08:52:28.000Z</time>
      </trkpt>
      <trkpt lat="44.54615" lon="4.24957">
        <ele>494</ele>
        <time>2016-05-15T08:52:29.000Z</time>
      </trkpt>
      <trkpt lat="44.54614" lon="4.2495">
        <ele>494</ele>
        <time>2016-05-15T08:52:30.000Z</time>
      </trkpt>
      <trkpt lat="44.54613" lon="4.24943">
        <ele>494</ele>
        <time>2016-05-15T08:52:31.000Z</time>
      </trkpt>
      <trkpt lat="44.54612" lon="4.24937">
        <ele>494</ele>
        <time>2016-05-15T08:52:32.000Z</time>
      </trkpt>
      <trkpt lat="44.5461" lon="4.2493">
        <ele>495</ele>
        <time>2016-05-15T08:52:33.000Z</time>
      </trkpt>
      <trkpt lat="44.5461" lon="4.24924">
        <ele>495</ele>
        <time>2016-05-15T08:52:34.000Z</time>
      </trkpt>
      <trkpt lat="44.54609" lon="4.24917">
        <ele>494</ele>
        <time>2016-05-15T08:52:35.000Z</time>
      </trkpt>
      <trkpt lat="44.54609" lon="4.2491">
        <ele>494</ele>
        <time>2016-05-15T08:52:36.000Z</time>
      </trkpt>
      <trkpt lat="44.54609" lon="4.24903">
        <ele>493</ele>
        <time>2016-05-15T08:52:37.000Z</time>
      </trkpt>
      <trkpt lat="44.54609" lon="4.24897">
        <ele>493</ele>
        <time>2016-05-15T08:52:38.000Z</time>
      </trkpt>
      <trkpt lat="44.54609" lon="4.2489">
        <ele>493</ele>
        <time>2016-05-15T08:52:39.000Z</time>
      </trkpt>
      <trkpt lat="44.54609" lon="4.24883">
        <ele>493</ele>
        <time>2016-05-15T08:52:40.000Z</time>
      </trkpt>
      <trkpt lat="44.54608" lon="4.24876">
        <ele>493</ele>
        <time>2016-05-15T08:52:41.000Z</time>
      </trkpt>
      <trkpt lat="44.54608" lon="4.24869">
        <ele>493</ele>
        <time>2016-05-15T08:52:42.000Z</time>
      </trkpt>
      <trkpt lat="44.54608" lon="4.24863">
        <ele>493</ele>
        <time>2016-05-15T08:52:43.000Z</time>
      </trkpt>
      <trkpt lat="44.54607" lon="4.24856">
        <ele>493</ele>
        <time>2016-05-15T08:52:44.000Z</time>
      </trkpt>
      <trkpt lat="44.54607" lon="4.24849">
        <ele>493</ele>
        <time>2016-05-15T08:52:45.000Z</time>
      </trkpt>
      <trkpt lat="44.54607" lon="4.24842">
        <ele>493</ele>
        <time>2016-05-15T08:52:46.000Z</time>
      </trkpt>
      <trkpt lat="44.54607" lon="4.24836">
        <ele>493</ele>
        <time>2016-05-15T08:52:47.000Z</time>
      </trkpt>
      <trkpt lat="44.54607" lon="4.24829">
        <ele>494</ele>
        <time>2016-05-15T08:52:48.000Z</time>
      </trkpt>
      <trkpt lat="44.54607" lon="4.24821">
        <ele>494</ele>
        <time>2016-05-15T08:52:49.000Z</time>
      </trkpt>
      <trkpt lat="44.54607" lon="4.24813">
        <ele>493</ele>
        <time>2016-05-15T08:52:50.000Z</time>
      </trkpt>
      <trkpt lat="44.54607" lon="4.24806">
        <ele>493</ele>
        <time>2016-05-15T08:52:51.000Z</time>
      </trkpt>
      <trkpt lat="44.54609" lon="4.24798">
        <ele>493</ele>
        <time>2016-05-15T08:52:52.000Z</time>
      </trkpt>
      <trkpt lat="44.5461" lon="4.2479">
        <ele>493</ele>
        <time>2016-05-15T08:52:53.000Z</time>
      </trkpt>
      <trkpt lat="44.54611" lon="4.24783">
        <ele>493</ele>
        <time>2016-05-15T08:52:54.000Z</time>
      </trkpt>
      <trkpt lat="44.54612" lon="4.24776">
        <ele>493</ele>
        <time>2016-05-15T08:52:55.000Z</time>
      </trkpt>
      <trkpt lat="44.54613" lon="4.24769">
        <ele>493</ele>
        <time>2016-05-15T08:52:56.000Z</time>
      </trkpt>
      <trkpt lat="44.54615" lon="4.24761">
        <ele>493</ele>
        <time>2016-05-15T08:52:57.000Z</time>
      </trkpt>
      <trkpt lat="44.54617" lon="4.24754">
        <ele>493</ele>
        <time>2016-05-15T08:52:58.000Z</time>
      </trkpt>
      <trkpt lat="44.5462" lon="4.24748">
        <ele>495</ele>
        <time>2016-05-15T08:52:59.000Z</time>
      </trkpt>
      <trkpt lat="44.54622" lon="4.24742">
        <ele>495</ele>
        <time>2016-05-15T08:53:00.000Z</time>
      </trkpt>
      <trkpt lat="44.54623" lon="4.24735">
        <ele>495</ele>
        <time>2016-05-15T08:53:01.000Z</time>
      </trkpt>
      <trkpt lat="44.54623" lon="4.24729">
        <ele>495</ele>
        <time>2016-05-15T08:53:02.000Z</time>
      </trkpt>
      <trkpt lat="44.54624" lon="4.24724">
        <ele>495</ele>
        <time>2016-05-15T08:53:03.000Z</time>
      </trkpt>
      <trkpt lat="44.54624" lon="4.2472">
        <ele>495</ele>
        <time>2016-05-15T08:53:04.000Z</time>
      </trkpt>
      <trkpt lat="44.54624" lon="4.24715">
        <ele>495</ele>
        <time>2016-05-15T08:53:05.000Z</time>
      </trkpt>
      <trkpt lat="44.54625" lon="4.24711">
        <ele>495</ele>
        <time>2016-05-15T08:53:06.000Z</time>
      </trkpt>
      <trkpt lat="44.54625" lon="4.24707">
        <ele>495</ele>
        <time>2016-05-15T08:53:07.000Z</time>
      </trkpt>
      <trkpt lat="44.54625" lon="4.24703">
        <ele>495</ele>
        <time>2016-05-15T08:53:08.000Z</time>
      </trkpt>
      <trkpt lat="44.54626" lon="4.24699">
        <ele>495</ele>
        <time>2016-05-15T08:53:09.000Z</time>
      </trkpt>
      <trkpt lat="44.54626" lon="4.24696">
        <ele>495</ele>
        <time>2016-05-15T08:53:10.000Z</time>
      </trkpt>
      <trkpt lat="44.54625" lon="4.24692">
        <ele>495</ele>
        <time>2016-05-15T08:53:11.000Z</time>
      </trkpt>
      <trkpt lat="44.54626" lon="4.24688">
        <ele>495</ele>
        <time>2016-05-15T08:53:12.000Z</time>
      </trkpt>
      <trkpt lat="44.54626" lon="4.24684">
        <ele>495</ele>
        <time>2016-05-15T08:53:13.000Z</time>
      </trkpt>
      <trkpt lat="44.54627" lon="4.2468">
        <ele>495</ele>
        <time>2016-05-15T08:53:14.000Z</time>
      </trkpt>
      <trkpt lat="44.54627" lon="4.24676">
        <ele>495</ele>
        <time>2016-05-15T08:53:15.000Z</time>
      </trkpt>
      <trkpt lat="44.54628" lon="4.24672">
        <ele>495</ele>
        <time>2016-05-15T08:53:16.000Z</time>
      </trkpt>
      <trkpt lat="44.54628" lon="4.24668">
        <ele>495</ele>
        <time>2016-05-15T08:53:17.000Z</time>
      </trkpt>
      <trkpt lat="44.54629" lon="4.24664">
        <ele>498</ele>
        <time>2016-05-15T08:53:18.000Z</time>
      </trkpt>
      <trkpt lat="44.54629" lon="4.24659">
        <ele>497</ele>
        <time>2016-05-15T08:53:19.000Z</time>
      </trkpt>
      <trkpt lat="44.5463" lon="4.24655">
        <ele>498</ele>
        <time>2016-05-15T08:53:20.000Z</time>
      </trkpt>
      <trkpt lat="44.5463" lon="4.24651">
        <ele>498</ele>
        <time>2016-05-15T08:53:21.000Z</time>
      </trkpt>
      <trkpt lat="44.54631" lon="4.24647">
        <ele>498</ele>
        <time>2016-05-15T08:53:22.000Z</time>
      </trkpt>
      <trkpt lat="44.54631" lon="4.24643">
        <ele>498</ele>
        <time>2016-05-15T08:53:23.000Z</time>
      </trkpt>
      <trkpt lat="44.54631" lon="4.24639">
        <ele>498</ele>
        <time>2016-05-15T08:53:24.000Z</time>
      </trkpt>
      <trkpt lat="44.54631" lon="4.24636">
        <ele>498</ele>
        <time>2016-05-15T08:53:25.000Z</time>
      </trkpt>
      <trkpt lat="44.54631" lon="4.24632">
        <ele>498</ele>
        <time>2016-05-15T08:53:26.000Z</time>
      </trkpt>
      <trkpt lat="44.54632" lon="4.24628">
        <ele>498</ele>
        <time>2016-05-15T08:53:27.000Z</time>
      </trkpt>
      <trkpt lat="44.54633" lon="4.24624">
        <ele>498</ele>
        <time>2016-05-15T08:53:28.000Z</time>
      </trkpt>
      <trkpt lat="44.54633" lon="4.2462">
        <ele>498</ele>
        <time>2016-05-15T08:53:29.000Z</time>
      </trkpt>
      <trkpt lat="44.54633" lon="4.24618">
        <ele>498</ele>
        <time>2016-05-15T08:53:30.000Z</time>
      </trkpt>
      <trkpt lat="44.54634" lon="4.24616">
        <ele>498</ele>
        <time>2016-05-15T08:53:31.000Z</time>
      </trkpt>
      <trkpt lat="44.54634" lon="4.24614">
        <ele>499</ele>
        <time>2016-05-15T08:53:32.000Z</time>
      </trkpt>
      <trkpt lat="44.54633" lon="4.24612">
        <ele>499</ele>
        <time>2016-05-15T08:53:33.000Z</time>
      </trkpt>
      <trkpt lat="44.54633" lon="4.2461">
        <ele>499</ele>
        <time>2016-05-15T08:53:34.000Z</time>
      </trkpt>
      <trkpt lat="44.54634" lon="4.24607">
        <ele>499</ele>
        <time>2016-05-15T08:53:35.000Z</time>
      </trkpt>
      <trkpt lat="44.54634" lon="4.24604">
        <ele>499</ele>
        <time>2016-05-15T08:53:36.000Z</time>
      </trkpt>
      <trkpt lat="44.54635" lon="4.24601">
        <ele>499</ele>
        <time>2016-05-15T08:53:37.000Z</time>
      </trkpt>
      <trkpt lat="44.54635" lon="4.24598">
        <ele>499</ele>
        <time>2016-05-15T08:53:38.000Z</time>
      </trkpt>
      <trkpt lat="44.54635" lon="4.24595">
        <ele>499</ele>
        <time>2016-05-15T08:53:39.000Z</time>
      </trkpt>
      <trkpt lat="44.54634" lon="4.24593">
        <ele>499</ele>
        <time>2016-05-15T08:53:40.000Z</time>
      </trkpt>
      <trkpt lat="44.54634" lon="4.2459">
        <ele>499</ele>
        <time>2016-05-15T08:53:41.000Z</time>
      </trkpt>
      <trkpt lat="44.54634" lon="4.24588">
        <ele>499</ele>
        <time>2016-05-15T08:53:42.000Z</time>
      </trkpt>
      <trkpt lat="44.54634" lon="4.24586">
        <ele>499</ele>
        <time>2016-05-15T08:53:43.000Z</time>
      </trkpt>
      <trkpt lat="44.54634" lon="4.24583">
        <ele>501</ele>
        <time>2016-05-15T08:53:44.000Z</time>
      </trkpt>
      <trkpt lat="44.54634" lon="4.2458">
        <ele>501</ele>
        <time>2016-05-15T08:53:45.000Z</time>
      </trkpt>
      <trkpt lat="44.54635" lon="4.24577">
        <ele>501</ele>
        <time>2016-05-15T08:53:46.000Z</time>
      </trkpt>
      <trkpt lat="44.54635" lon="4.24575">
        <ele>501</ele>
        <time>2016-05-15T08:53:47.000Z</time>
      </trkpt>
      <trkpt lat="44.54635" lon="4.24571">
        <ele>501</ele>
        <time>2016-05-15T08:53:48.000Z</time>
      </trkpt>
      <trkpt lat="44.54635" lon="4.24568">
        <ele>501</ele>
        <time>2016-05-15T08:53:49.000Z</time>
      </trkpt>
      <trkpt lat="44.54635" lon="4.24565">
        <ele>502</ele>
        <time>2016-05-15T08:53:50.000Z</time>
      </trkpt>
      <trkpt lat="44.54634" lon="4.24562">
        <ele>502</ele>
        <time>2016-05-15T08:53:51.000Z</time>
      </trkpt>
      <trkpt lat="44.54634" lon="4.24559">
        <ele>502</ele>
        <time>2016-05-15T08:53:52.000Z</time>
      </trkpt>
      <trkpt lat="44.54634" lon="4.24557">
        <ele>502</ele>
        <time>2016-05-15T08:53:53.000Z</time>
      </trkpt>
      <trkpt lat="44.54634" lon="4.24554">
        <ele>502</ele>
        <time>2016-05-15T08:53:54.000Z</time>
      </trkpt>
      <trkpt lat="44.54634" lon="4.24551">
        <ele>502</ele>
        <time>2016-05-15T08:53:55.000Z</time>
      </trkpt>
      <trkpt lat="44.54634" lon="4.24548">
        <ele>502</ele>
        <time>2016-05-15T08:53:56.000Z</time>
      </trkpt>
      <trkpt lat="44.54634" lon="4.24545">
        <ele>502</ele>
        <time>2016-05-15T08:53:57.000Z</time>
      </trkpt>
      <trkpt lat="44.54633" lon="4.24542">
        <ele>502</ele>
        <time>2016-05-15T08:53:58.000Z</time>
      </trkpt>
      <trkpt lat="44.54633" lon="4.24539">
        <ele>502</ele>
        <time>2016-05-15T08:53:59.000Z</time>
      </trkpt>
      <trkpt lat="44.54632" lon="4.24536">
        <ele>503</ele>
        <time>2016-05-15T08:54:00.000Z</time>
      </trkpt>
      <trkpt lat="44.54631" lon="4.24533">
        <ele>503</ele>
        <time>2016-05-15T08:54:01.000Z</time>
      </trkpt>
      <trkpt lat="44.5463" lon="4.24531">
        <ele>503</ele>
        <time>2016-05-15T08:54:02.000Z</time>
      </trkpt>
      <trkpt lat="44.54629" lon="4.24529">
        <ele>503</ele>
        <time>2016-05-15T08:54:03.000Z</time>
      </trkpt>
      <trkpt lat="44.54628" lon="4.24526">
        <ele>503</ele>
        <time>2016-05-15T08:54:04.000Z</time>
      </trkpt>
      <trkpt lat="44.54628" lon="4.24524">
        <ele>503</ele>
        <time>2016-05-15T08:54:05.000Z</time>
      </trkpt>
      <trkpt lat="44.54627" lon="4.24522">
        <ele>503</ele>
        <time>2016-05-15T08:54:06.000Z</time>
      </trkpt>
      <trkpt lat="44.54627" lon="4.24519">
        <ele>503</ele>
        <time>2016-05-15T08:54:07.000Z</time>
      </trkpt>
      <trkpt lat="44.54626" lon="4.24517">
        <ele>503</ele>
        <time>2016-05-15T08:54:08.000Z</time>
      </trkpt>
      <trkpt lat="44.54625" lon="4.24514">
        <ele>503</ele>
        <time>2016-05-15T08:54:09.000Z</time>
      </trkpt>
      <trkpt lat="44.54624" lon="4.24512">
        <ele>504</ele>
        <time>2016-05-15T08:54:10.000Z</time>
      </trkpt>
      <trkpt lat="44.54623" lon="4.2451">
        <ele>504</ele>
        <time>2016-05-15T08:54:11.000Z</time>
      </trkpt>
      <trkpt lat="44.54622" lon="4.24508">
        <ele>504</ele>
        <time>2016-05-15T08:54:12.000Z</time>
      </trkpt>
      <trkpt lat="44.54621" lon="4.24505">
        <ele>504</ele>
        <time>2016-05-15T08:54:13.000Z</time>
      </trkpt>
      <trkpt lat="44.5462" lon="4.24503">
        <ele>504</ele>
        <time>2016-05-15T08:54:14.000Z</time>
      </trkpt>
      <trkpt lat="44.54618" lon="4.24501">
        <ele>504</ele>
        <time>2016-05-15T08:54:15.000Z</time>
      </trkpt>
      <trkpt lat="44.54618" lon="4.24498">
        <ele>506</ele>
        <time>2016-05-15T08:54:16.000Z</time>
      </trkpt>
      <trkpt lat="44.54617" lon="4.24496">
        <ele>506</ele>
        <time>2016-05-15T08:54:17.000Z</time>
      </trkpt>
      <trkpt lat="44.54617" lon="4.24493">
        <ele>506</ele>
        <time>2016-05-15T08:54:18.000Z</time>
      </trkpt>
      <trkpt lat="44.54616" lon="4.24491">
        <ele>506</ele>
        <time>2016-05-15T08:54:19.000Z</time>
      </trkpt>
      <trkpt lat="44.54616" lon="4.24488">
        <ele>506</ele>
        <time>2016-05-15T08:54:20.000Z</time>
      </trkpt>
      <trkpt lat="44.54615" lon="4.24485">
        <ele>506</ele>
        <time>2016-05-15T08:54:21.000Z</time>
      </trkpt>
      <trkpt lat="44.54616" lon="4.24482">
        <ele>506</ele>
        <time>2016-05-15T08:54:22.000Z</time>
      </trkpt>
      <trkpt lat="44.54616" lon="4.24479">
        <ele>506</ele>
        <time>2016-05-15T08:54:23.000Z</time>
      </trkpt>
      <trkpt lat="44.54616" lon="4.24476">
        <ele>506</ele>
        <time>2016-05-15T08:54:24.000Z</time>
      </trkpt>
      <trkpt lat="44.54616" lon="4.24474">
        <ele>506</ele>
        <time>2016-05-15T08:54:25.000Z</time>
      </trkpt>
      <trkpt lat="44.54615" lon="4.24471">
        <ele>506</ele>
        <time>2016-05-15T08:54:26.000Z</time>
      </trkpt>
      <trkpt lat="44.54616" lon="4.24469">
        <ele>506</ele>
        <time>2016-05-15T08:54:27.000Z</time>
      </trkpt>
      <trkpt lat="44.54616" lon="4.24466">
        <ele>506</ele>
        <time>2016-05-15T08:54:28.000Z</time>
      </trkpt>
      <trkpt lat="44.54616" lon="4.24464">
        <ele>506</ele>
        <time>2016-05-15T08:54:29.000Z</time>
      </trkpt>
      <trkpt lat="44.54616" lon="4.24463">
        <ele>506</ele>
        <time>2016-05-15T08:54:30.000Z</time>
      </trkpt>
      <trkpt lat="44.54615" lon="4.2446">
        <ele>506</ele>
        <time>2016-05-15T08:54:31.000Z</time>
      </trkpt>
      <trkpt lat="44.54615" lon="4.24457">
        <ele>507</ele>
        <time>2016-05-15T08:54:32.000Z</time>
      </trkpt>
      <trkpt lat="44.54615" lon="4.24454">
        <ele>507</ele>
        <time>2016-05-15T08:54:33.000Z</time>
      </trkpt>
      <trkpt lat="44.54614" lon="4.24452">
        <ele>507</ele>
        <time>2016-05-15T08:54:34.000Z</time>
      </trkpt>
      <trkpt lat="44.54613" lon="4.2445">
        <ele>507</ele>
        <time>2016-05-15T08:54:35.000Z</time>
      </trkpt>
      <trkpt lat="44.54612" lon="4.24449">
        <ele>507</ele>
        <time>2016-05-15T08:54:36.000Z</time>
      </trkpt>
      <trkpt lat="44.54611" lon="4.24449">
        <ele>507</ele>
        <time>2016-05-15T08:54:37.000Z</time>
      </trkpt>
      <trkpt lat="44.5461" lon="4.24447">
        <ele>507</ele>
        <time>2016-05-15T08:54:38.000Z</time>
      </trkpt>
      <trkpt lat="44.54609" lon="4.24445">
        <ele>507</ele>
        <time>2016-05-15T08:54:39.000Z</time>
      </trkpt>
      <trkpt lat="44.54607" lon="4.24443">
        <ele>507</ele>
        <time>2016-05-15T08:54:40.000Z</time>
      </trkpt>
      <trkpt lat="44.54606" lon="4.2444">
        <ele>508</ele>
        <time>2016-05-15T08:54:41.000Z</time>
      </trkpt>
      <trkpt lat="44.54604" lon="4.24437">
        <ele>508</ele>
        <time>2016-05-15T08:54:42.000Z</time>
      </trkpt>
      <trkpt lat="44.54603" lon="4.24433">
        <ele>508</ele>
        <time>2016-05-15T08:54:43.000Z</time>
      </trkpt>
      <trkpt lat="44.54603" lon="4.2443">
        <ele>509</ele>
        <time>2016-05-15T08:54:44.000Z</time>
      </trkpt>
      <trkpt lat="44.54602" lon="4.24427">
        <ele>509</ele>
        <time>2016-05-15T08:54:45.000Z</time>
      </trkpt>
      <trkpt lat="44.54602" lon="4.24424">
        <ele>509</ele>
        <time>2016-05-15T08:54:46.000Z</time>
      </trkpt>
      <trkpt lat="44.54601" lon="4.24421">
        <ele>509</ele>
        <time>2016-05-15T08:54:47.000Z</time>
      </trkpt>
      <trkpt lat="44.546" lon="4.24419">
        <ele>509</ele>
        <time>2016-05-15T08:54:48.000Z</time>
      </trkpt>
      <trkpt lat="44.546" lon="4.24415">
        <ele>510</ele>
        <time>2016-05-15T08:54:49.000Z</time>
      </trkpt>
      <trkpt lat="44.54599" lon="4.24411">
        <ele>510</ele>
        <time>2016-05-15T08:54:50.000Z</time>
      </trkpt>
      <trkpt lat="44.54598" lon="4.24406">
        <ele>510</ele>
        <time>2016-05-15T08:54:51.000Z</time>
      </trkpt>
      <trkpt lat="44.54598" lon="4.24403">
        <ele>510</ele>
        <time>2016-05-15T08:54:52.000Z</time>
      </trkpt>
      <trkpt lat="44.54597" lon="4.24399">
        <ele>510</ele>
        <time>2016-05-15T08:54:53.000Z</time>
      </trkpt>
      <trkpt lat="44.54596" lon="4.24396">
        <ele>510</ele>
        <time>2016-05-15T08:54:54.000Z</time>
      </trkpt>
      <trkpt lat="44.54596" lon="4.24394">
        <ele>510</ele>
        <time>2016-05-15T08:54:55.000Z</time>
      </trkpt>
      <trkpt lat="44.54595" lon="4.24391">
        <ele>510</ele>
        <time>2016-05-15T08:54:56.000Z</time>
      </trkpt>
      <trkpt lat="44.54595" lon="4.24388">
        <ele>510</ele>
        <time>2016-05-15T08:54:57.000Z</time>
      </trkpt>
      <trkpt lat="44.54594" lon="4.24384">
        <ele>510</ele>
        <time>2016-05-15T08:54:58.000Z</time>
      </trkpt>
      <trkpt lat="44.54593" lon="4.24379">
        <ele>510</ele>
        <time>2016-05-15T08:54:59.000Z</time>
      </trkpt>
      <trkpt lat="44.54592" lon="4.24375">
        <ele>510</ele>
        <time>2016-05-15T08:55:00.000Z</time>
      </trkpt>
      <trkpt lat="44.54591" lon="4.24371">
        <ele>510</ele>
        <time>2016-05-15T08:55:01.000Z</time>
      </trkpt>
      <trkpt lat="44.54591" lon="4.24368">
        <ele>510</ele>
        <time>2016-05-15T08:55:02.000Z</time>
      </trkpt>
      <trkpt lat="44.5459" lon="4.24364">
        <ele>510</ele>
        <time>2016-05-15T08:55:03.000Z</time>
      </trkpt>
      <trkpt lat="44.54589" lon="4.2436">
        <ele>510</ele>
        <time>2016-05-15T08:55:04.000Z</time>
      </trkpt>
      <trkpt lat="44.54589" lon="4.24356">
        <ele>510</ele>
        <time>2016-05-15T08:55:05.000Z</time>
      </trkpt>
      <trkpt lat="44.54588" lon="4.24353">
        <ele>510</ele>
        <time>2016-05-15T08:55:06.000Z</time>
      </trkpt>
      <trkpt lat="44.54587" lon="4.24349">
        <ele>510</ele>
        <time>2016-05-15T08:55:07.000Z</time>
      </trkpt>
      <trkpt lat="44.54587" lon="4.24345">
        <ele>511</ele>
        <time>2016-05-15T08:55:08.000Z</time>
      </trkpt>
      <trkpt lat="44.54587" lon="4.2434">
        <ele>511</ele>
        <time>2016-05-15T08:55:09.000Z</time>
      </trkpt>
      <trkpt lat="44.54587" lon="4.24336">
        <ele>511</ele>
        <time>2016-05-15T08:55:10.000Z</time>
      </trkpt>
      <trkpt lat="44.54587" lon="4.24333">
        <ele>512</ele>
        <time>2016-05-15T08:55:11.000Z</time>
      </trkpt>
      <trkpt lat="44.54586" lon="4.2433">
        <ele>512</ele>
        <time>2016-05-15T08:55:12.000Z</time>
      </trkpt>
      <trkpt lat="44.54586" lon="4.24326">
        <ele>511</ele>
        <time>2016-05-15T08:55:13.000Z</time>
      </trkpt>
      <trkpt lat="44.54585" lon="4.24323">
        <ele>511</ele>
        <time>2016-05-15T08:55:14.000Z</time>
      </trkpt>
      <trkpt lat="44.54585" lon="4.2432">
        <ele>511</ele>
        <time>2016-05-15T08:55:15.000Z</time>
      </trkpt>
      <trkpt lat="44.54584" lon="4.24317">
        <ele>511</ele>
        <time>2016-05-15T08:55:16.000Z</time>
      </trkpt>
      <trkpt lat="44.54583" lon="4.24313">
        <ele>514</ele>
        <time>2016-05-15T08:55:17.000Z</time>
      </trkpt>
      <trkpt lat="44.54582" lon="4.2431">
        <ele>514</ele>
        <time>2016-05-15T08:55:18.000Z</time>
      </trkpt>
      <trkpt lat="44.5458" lon="4.24307">
        <ele>514</ele>
        <time>2016-05-15T08:55:19.000Z</time>
      </trkpt>
      <trkpt lat="44.54579" lon="4.24304">
        <ele>514</ele>
        <time>2016-05-15T08:55:20.000Z</time>
      </trkpt>
      <trkpt lat="44.54577" lon="4.24302">
        <ele>515</ele>
        <time>2016-05-15T08:55:21.000Z</time>
      </trkpt>
      <trkpt lat="44.54576" lon="4.243">
        <ele>515</ele>
        <time>2016-05-15T08:55:22.000Z</time>
      </trkpt>
      <trkpt lat="44.54576" lon="4.24299">
        <ele>515</ele>
        <time>2016-05-15T08:55:23.000Z</time>
      </trkpt>
      <trkpt lat="44.54575" lon="4.24297">
        <ele>515</ele>
        <time>2016-05-15T08:55:24.000Z</time>
      </trkpt>
      <trkpt lat="44.54574" lon="4.24294">
        <ele>515</ele>
        <time>2016-05-15T08:55:25.000Z</time>
      </trkpt>
      <trkpt lat="44.54573" lon="4.24292">
        <ele>515</ele>
        <time>2016-05-15T08:55:26.000Z</time>
      </trkpt>
      <trkpt lat="44.54572" lon="4.24289">
        <ele>515</ele>
        <time>2016-05-15T08:55:27.000Z</time>
      </trkpt>
      <trkpt lat="44.54571" lon="4.24287">
        <ele>515</ele>
        <time>2016-05-15T08:55:28.000Z</time>
      </trkpt>
      <trkpt lat="44.54569" lon="4.24284">
        <ele>515</ele>
        <time>2016-05-15T08:55:29.000Z</time>
      </trkpt>
      <trkpt lat="44.54568" lon="4.24281">
        <ele>515</ele>
        <time>2016-05-15T08:55:30.000Z</time>
      </trkpt>
      <trkpt lat="44.54567" lon="4.24279">
        <ele>515</ele>
        <time>2016-05-15T08:55:31.000Z</time>
      </trkpt>
      <trkpt lat="44.54565" lon="4.24277">
        <ele>515</ele>
        <time>2016-05-15T08:55:32.000Z</time>
      </trkpt>
      <trkpt lat="44.54564" lon="4.24274">
        <ele>515</ele>
        <time>2016-05-15T08:55:33.000Z</time>
      </trkpt>
      <trkpt lat="44.54563" lon="4.24272">
        <ele>515</ele>
        <time>2016-05-15T08:55:34.000Z</time>
      </trkpt>
      <trkpt lat="44.54561" lon="4.2427">
        <ele>515</ele>
        <time>2016-05-15T08:55:35.000Z</time>
      </trkpt>
      <trkpt lat="44.5456" lon="4.24267">
        <ele>515</ele>
        <time>2016-05-15T08:55:36.000Z</time>
      </trkpt>
      <trkpt lat="44.54558" lon="4.24265">
        <ele>515</ele>
        <time>2016-05-15T08:55:37.000Z</time>
      </trkpt>
      <trkpt lat="44.54556" lon="4.24262">
        <ele>515</ele>
        <time>2016-05-15T08:55:38.000Z</time>
      </trkpt>
      <trkpt lat="44.54555" lon="4.24259">
        <ele>515</ele>
        <time>2016-05-15T08:55:39.000Z</time>
      </trkpt>
      <trkpt lat="44.54553" lon="4.24256">
        <ele>515</ele>
        <time>2016-05-15T08:55:40.000Z</time>
      </trkpt>
      <trkpt lat="44.54552" lon="4.24253">
        <ele>515</ele>
        <time>2016-05-15T08:55:41.000Z</time>
      </trkpt>
      <trkpt lat="44.5455" lon="4.24251">
        <ele>515</ele>
        <time>2016-05-15T08:55:42.000Z</time>
      </trkpt>
      <trkpt lat="44.54548" lon="4.24249">
        <ele>513</ele>
        <time>2016-05-15T08:55:43.000Z</time>
      </trkpt>
      <trkpt lat="44.54546" lon="4.24247">
        <ele>513</ele>
        <time>2016-05-15T08:55:44.000Z</time>
      </trkpt>
      <trkpt lat="44.54545" lon="4.24244">
        <ele>513</ele>
        <time>2016-05-15T08:55:45.000Z</time>
      </trkpt>
      <trkpt lat="44.54542" lon="4.24241">
        <ele>513</ele>
        <time>2016-05-15T08:55:46.000Z</time>
      </trkpt>
      <trkpt lat="44.5454" lon="4.24238">
        <ele>513</ele>
        <time>2016-05-15T08:55:47.000Z</time>
      </trkpt>
      <trkpt lat="44.54537" lon="4.24235">
        <ele>513</ele>
        <time>2016-05-15T08:55:48.000Z</time>
      </trkpt>
      <trkpt lat="44.54535" lon="4.24233">
        <ele>513</ele>
        <time>2016-05-15T08:55:49.000Z</time>
      </trkpt>
      <trkpt lat="44.54532" lon="4.2423">
        <ele>513</ele>
        <time>2016-05-15T08:55:50.000Z</time>
      </trkpt>
      <trkpt lat="44.5453" lon="4.24227">
        <ele>513</ele>
        <time>2016-05-15T08:55:51.000Z</time>
      </trkpt>
      <trkpt lat="44.54527" lon="4.24224">
        <ele>513</ele>
        <time>2016-05-15T08:55:52.000Z</time>
      </trkpt>
      <trkpt lat="44.54524" lon="4.2422">
        <ele>513</ele>
        <time>2016-05-15T08:55:53.000Z</time>
      </trkpt>
      <trkpt lat="44.5452" lon="4.24217">
        <ele>513</ele>
        <time>2016-05-15T08:55:54.000Z</time>
      </trkpt>
      <trkpt lat="44.54517" lon="4.24214">
        <ele>513</ele>
        <time>2016-05-15T08:55:55.000Z</time>
      </trkpt>
      <trkpt lat="44.54514" lon="4.24211">
        <ele>513</ele>
        <time>2016-05-15T08:55:56.000Z</time>
      </trkpt>
      <trkpt lat="44.54512" lon="4.24208">
        <ele>513</ele>
        <time>2016-05-15T08:55:57.000Z</time>
      </trkpt>
      <trkpt lat="44.54509" lon="4.24205">
        <ele>512</ele>
        <time>2016-05-15T08:55:58.000Z</time>
      </trkpt>
      <trkpt lat="44.54506" lon="4.24202">
        <ele>512</ele>
        <time>2016-05-15T08:55:59.000Z</time>
      </trkpt>
      <trkpt lat="44.54502" lon="4.24199">
        <ele>512</ele>
        <time>2016-05-15T08:56:00.000Z</time>
      </trkpt>
      <trkpt lat="44.54498" lon="4.24195">
        <ele>513</ele>
        <time>2016-05-15T08:56:01.000Z</time>
      </trkpt>
      <trkpt lat="44.54495" lon="4.24191">
        <ele>513</ele>
        <time>2016-05-15T08:56:02.000Z</time>
      </trkpt>
      <trkpt lat="44.5449" lon="4.24187">
        <ele>513</ele>
        <time>2016-05-15T08:56:03.000Z</time>
      </trkpt>
      <trkpt lat="44.54485" lon="4.24182">
        <ele>513</ele>
        <time>2016-05-15T08:56:04.000Z</time>
      </trkpt>
      <trkpt lat="44.54481" lon="4.24179">
        <ele>513</ele>
        <time>2016-05-15T08:56:05.000Z</time>
      </trkpt>
      <trkpt lat="44.54477" lon="4.24176">
        <ele>513</ele>
        <time>2016-05-15T08:56:06.000Z</time>
      </trkpt>
      <trkpt lat="44.54474" lon="4.24174">
        <ele>513</ele>
        <time>2016-05-15T08:56:07.000Z</time>
      </trkpt>
      <trkpt lat="44.5447" lon="4.24172">
        <ele>513</ele>
        <time>2016-05-15T08:56:08.000Z</time>
      </trkpt>
      <trkpt lat="44.54467" lon="4.2417">
        <ele>513</ele>
        <time>2016-05-15T08:56:09.000Z</time>
      </trkpt>
      <trkpt lat="44.54464" lon="4.24168">
        <ele>513</ele>
        <time>2016-05-15T08:56:10.000Z</time>
      </trkpt>
      <trkpt lat="44.54461" lon="4.24166">
        <ele>505</ele>
        <time>2016-05-15T08:56:11.000Z</time>
      </trkpt>
      <trkpt lat="44.54458" lon="4.24164">
        <ele>505</ele>
        <time>2016-05-15T08:56:12.000Z</time>
      </trkpt>
      <trkpt lat="44.54453" lon="4.24161">
        <ele>505</ele>
        <time>2016-05-15T08:56:13.000Z</time>
      </trkpt>
      <trkpt lat="44.54449" lon="4.24159">
        <ele>505</ele>
        <time>2016-05-15T08:56:14.000Z</time>
      </trkpt>
      <trkpt lat="44.54443" lon="4.24157">
        <ele>505</ele>
        <time>2016-05-15T08:56:15.000Z</time>
      </trkpt>
      <trkpt lat="44.54438" lon="4.24154">
        <ele>505</ele>
        <time>2016-05-15T08:56:16.000Z</time>
      </trkpt>
      <trkpt lat="44.54433" lon="4.24152">
        <ele>505</ele>
        <time>2016-05-15T08:56:17.000Z</time>
      </trkpt>
      <trkpt lat="44.54427" lon="4.24149">
        <ele>505</ele>
        <time>2016-05-15T08:56:18.000Z</time>
      </trkpt>
      <trkpt lat="44.54422" lon="4.24146">
        <ele>505</ele>
        <time>2016-05-15T08:56:19.000Z</time>
      </trkpt>
      <trkpt lat="44.54416" lon="4.24143">
        <ele>504</ele>
        <time>2016-05-15T08:56:20.000Z</time>
      </trkpt>
      <trkpt lat="44.5441" lon="4.24141">
        <ele>504</ele>
        <time>2016-05-15T08:56:21.000Z</time>
      </trkpt>
      <trkpt lat="44.54404" lon="4.24138">
        <ele>504</ele>
        <time>2016-05-15T08:56:22.000Z</time>
      </trkpt>
      <trkpt lat="44.544" lon="4.24137">
        <ele>503</ele>
        <time>2016-05-15T08:56:23.000Z</time>
      </trkpt>
      <trkpt lat="44.54394" lon="4.24137">
        <ele>503</ele>
        <time>2016-05-15T08:56:24.000Z</time>
      </trkpt>
      <trkpt lat="44.54389" lon="4.24136">
        <ele>503</ele>
        <time>2016-05-15T08:56:25.000Z</time>
      </trkpt>
      <trkpt lat="44.54385" lon="4.24135">
        <ele>503</ele>
        <time>2016-05-15T08:56:26.000Z</time>
      </trkpt>
      <trkpt lat="44.5438" lon="4.24134">
        <ele>503</ele>
        <time>2016-05-15T08:56:27.000Z</time>
      </trkpt>
      <trkpt lat="44.54375" lon="4.24133">
        <ele>503</ele>
        <time>2016-05-15T08:56:28.000Z</time>
      </trkpt>
      <trkpt lat="44.5437" lon="4.24133">
        <ele>503</ele>
        <time>2016-05-15T08:56:29.000Z</time>
      </trkpt>
      <trkpt lat="44.54365" lon="4.24133">
        <ele>503</ele>
        <time>2016-05-15T08:56:30.000Z</time>
      </trkpt>
      <trkpt lat="44.5436" lon="4.24133">
        <ele>503</ele>
        <time>2016-05-15T08:56:31.000Z</time>
      </trkpt>
      <trkpt lat="44.54356" lon="4.24133">
        <ele>503</ele>
        <time>2016-05-15T08:56:32.000Z</time>
      </trkpt>
      <trkpt lat="44.54352" lon="4.24133">
        <ele>503</ele>
        <time>2016-05-15T08:56:33.000Z</time>
      </trkpt>
      <trkpt lat="44.54347" lon="4.24133">
        <ele>503</ele>
        <time>2016-05-15T08:56:34.000Z</time>
      </trkpt>
      <trkpt lat="44.54343" lon="4.24131">
        <ele>502</ele>
        <time>2016-05-15T08:56:35.000Z</time>
      </trkpt>
      <trkpt lat="44.5434" lon="4.24128">
        <ele>502</ele>
        <time>2016-05-15T08:56:36.000Z</time>
      </trkpt>
      <trkpt lat="44.54336" lon="4.24124">
        <ele>502</ele>
        <time>2016-05-15T08:56:37.000Z</time>
      </trkpt>
      <trkpt lat="44.54333" lon="4.24119">
        <ele>499</ele>
        <time>2016-05-15T08:56:38.000Z</time>
      </trkpt>
      <trkpt lat="44.54331" lon="4.24113">
        <ele>499</ele>
        <time>2016-05-15T08:56:39.000Z</time>
      </trkpt>
      <trkpt lat="44.54328" lon="4.24107">
        <ele>498</ele>
        <time>2016-05-15T08:56:40.000Z</time>
      </trkpt>
      <trkpt lat="44.54325" lon="4.24101">
        <ele>498</ele>
        <time>2016-05-15T08:56:41.000Z</time>
      </trkpt>
      <trkpt lat="44.54321" lon="4.24096">
        <ele>497</ele>
        <time>2016-05-15T08:56:42.000Z</time>
      </trkpt>
      <trkpt lat="44.54317" lon="4.24091">
        <ele>497</ele>
        <time>2016-05-15T08:56:43.000Z</time>
      </trkpt>
      <trkpt lat="44.54312" lon="4.24087">
        <ele>497</ele>
        <time>2016-05-15T08:56:44.000Z</time>
      </trkpt>
      <trkpt lat="44.54307" lon="4.24085">
        <ele>497</ele>
        <time>2016-05-15T08:56:45.000Z</time>
      </trkpt>
      <trkpt lat="44.54302" lon="4.24084">
        <ele>497</ele>
        <time>2016-05-15T08:56:46.000Z</time>
      </trkpt>
      <trkpt lat="44.54297" lon="4.24082">
        <ele>490</ele>
        <time>2016-05-15T08:56:47.000Z</time>
      </trkpt>
      <trkpt lat="44.54292" lon="4.24082">
        <ele>490</ele>
        <time>2016-05-15T08:56:48.000Z</time>
      </trkpt>
      <trkpt lat="44.54287" lon="4.24081">
        <ele>490</ele>
        <time>2016-05-15T08:56:49.000Z</time>
      </trkpt>
      <trkpt lat="44.54282" lon="4.2408">
        <ele>490</ele>
        <time>2016-05-15T08:56:50.000Z</time>
      </trkpt>
      <trkpt lat="44.54276" lon="4.24078">
        <ele>490</ele>
        <time>2016-05-15T08:56:51.000Z</time>
      </trkpt>
      <trkpt lat="44.54271" lon="4.24077">
        <ele>491</ele>
        <time>2016-05-15T08:56:52.000Z</time>
      </trkpt>
      <trkpt lat="44.54265" lon="4.24075">
        <ele>491</ele>
        <time>2016-05-15T08:56:53.000Z</time>
      </trkpt>
      <trkpt lat="44.5426" lon="4.24074">
        <ele>491</ele>
        <time>2016-05-15T08:56:54.000Z</time>
      </trkpt>
      <trkpt lat="44.54255" lon="4.24074">
        <ele>492</ele>
        <time>2016-05-15T08:56:55.000Z</time>
      </trkpt>
      <trkpt lat="44.54249" lon="4.24074">
        <ele>493</ele>
        <time>2016-05-15T08:56:56.000Z</time>
      </trkpt>
      <trkpt lat="44.54244" lon="4.24075">
        <ele>493</ele>
        <time>2016-05-15T08:56:57.000Z</time>
      </trkpt>
      <trkpt lat="44.5424" lon="4.24076">
        <ele>493</ele>
        <time>2016-05-15T08:56:58.000Z</time>
      </trkpt>
      <trkpt lat="44.54235" lon="4.24078">
        <ele>493</ele>
        <time>2016-05-15T08:56:59.000Z</time>
      </trkpt>
      <trkpt lat="44.5423" lon="4.2408">
        <ele>493</ele>
        <time>2016-05-15T08:57:00.000Z</time>
      </trkpt>
      <trkpt lat="44.54224" lon="4.24082">
        <ele>493</ele>
        <time>2016-05-15T08:57:01.000Z</time>
      </trkpt>
      <trkpt lat="44.54219" lon="4.24085">
        <ele>497</ele>
        <time>2016-05-15T08:57:02.000Z</time>
      </trkpt>
      <trkpt lat="44.54213" lon="4.24086">
        <ele>498</ele>
        <time>2016-05-15T08:57:03.000Z</time>
      </trkpt>
      <trkpt lat="44.54209" lon="4.24084">
        <ele>498</ele>
        <time>2016-05-15T08:57:04.000Z</time>
      </trkpt>
      <trkpt lat="44.54205" lon="4.24083">
        <ele>493</ele>
        <time>2016-05-15T08:57:05.000Z</time>
      </trkpt>
      <trkpt lat="44.54202" lon="4.24082">
        <ele>493</ele>
        <time>2016-05-15T08:57:06.000Z</time>
      </trkpt>
      <trkpt lat="44.54199" lon="4.24079">
        <ele>493</ele>
        <time>2016-05-15T08:57:07.000Z</time>
      </trkpt>
      <trkpt lat="44.54196" lon="4.24078">
        <ele>493</ele>
        <time>2016-05-15T08:57:08.000Z</time>
      </trkpt>
      <trkpt lat="44.54193" lon="4.24075">
        <ele>493</ele>
        <time>2016-05-15T08:57:09.000Z</time>
      </trkpt>
      <trkpt lat="44.54192" lon="4.24072">
        <ele>493</ele>
        <time>2016-05-15T08:57:10.000Z</time>
      </trkpt>
      <trkpt lat="44.5419" lon="4.24067">
        <ele>493</ele>
        <time>2016-05-15T08:57:11.000Z</time>
      </trkpt>
      <trkpt lat="44.54187" lon="4.24063">
        <ele>493</ele>
        <time>2016-05-15T08:57:12.000Z</time>
      </trkpt>
      <trkpt lat="44.54186" lon="4.24059">
        <ele>493</ele>
        <time>2016-05-15T08:57:13.000Z</time>
      </trkpt>
      <trkpt lat="44.54184" lon="4.24057">
        <ele>493</ele>
        <time>2016-05-15T08:57:14.000Z</time>
      </trkpt>
      <trkpt lat="44.54182" lon="4.24055">
        <ele>493</ele>
        <time>2016-05-15T08:57:15.000Z</time>
      </trkpt>
      <trkpt lat="44.54181" lon="4.24053">
        <ele>493</ele>
        <time>2016-05-15T08:57:16.000Z</time>
      </trkpt>
      <trkpt lat="44.5418" lon="4.2405">
        <ele>493</ele>
        <time>2016-05-15T08:57:17.000Z</time>
      </trkpt>
      <trkpt lat="44.54179" lon="4.24047">
        <ele>493</ele>
        <time>2016-05-15T08:57:18.000Z</time>
      </trkpt>
      <trkpt lat="44.54178" lon="4.24045">
        <ele>493</ele>
        <time>2016-05-15T08:57:19.000Z</time>
      </trkpt>
      <trkpt lat="44.54177" lon="4.24042">
        <ele>493</ele>
        <time>2016-05-15T08:57:20.000Z</time>
      </trkpt>
      <trkpt lat="44.54177" lon="4.2404">
        <ele>492</ele>
        <time>2016-05-15T08:57:21.000Z</time>
      </trkpt>
      <trkpt lat="44.54176" lon="4.24037">
        <ele>492</ele>
        <time>2016-05-15T08:57:22.000Z</time>
      </trkpt>
      <trkpt lat="44.54176" lon="4.24034">
        <ele>492</ele>
        <time>2016-05-15T08:57:23.000Z</time>
      </trkpt>
      <trkpt lat="44.54175" lon="4.24029">
        <ele>492</ele>
        <time>2016-05-15T08:57:24.000Z</time>
      </trkpt>
      <trkpt lat="44.54175" lon="4.24026">
        <ele>492</ele>
        <time>2016-05-15T08:57:25.000Z</time>
      </trkpt>
      <trkpt lat="44.54174" lon="4.24023">
        <ele>492</ele>
        <time>2016-05-15T08:57:26.000Z</time>
      </trkpt>
      <trkpt lat="44.54174" lon="4.24022">
        <ele>492</ele>
        <time>2016-05-15T08:57:27.000Z</time>
      </trkpt>
      <trkpt lat="44.54175" lon="4.2402">
        <ele>492</ele>
        <time>2016-05-15T08:57:28.000Z</time>
      </trkpt>
      <trkpt lat="44.54175" lon="4.24018">
        <ele>492</ele>
        <time>2016-05-15T08:57:29.000Z</time>
      </trkpt>
      <trkpt lat="44.54175" lon="4.24017">
        <ele>492</ele>
        <time>2016-05-15T08:57:30.000Z</time>
      </trkpt>
      <trkpt lat="44.54175" lon="4.24015">
        <ele>492</ele>
        <time>2016-05-15T08:57:31.000Z</time>
      </trkpt>
      <trkpt lat="44.54175" lon="4.24013">
        <ele>491</ele>
        <time>2016-05-15T08:57:32.000Z</time>
      </trkpt>
      <trkpt lat="44.54175" lon="4.24011">
        <ele>491</ele>
        <time>2016-05-15T08:57:33.000Z</time>
      </trkpt>
      <trkpt lat="44.54174" lon="4.24011">
        <ele>491</ele>
        <time>2016-05-15T08:57:34.000Z</time>
      </trkpt>
      <trkpt lat="44.54173" lon="4.24011">
        <ele>491</ele>
        <time>2016-05-15T08:57:35.000Z</time>
      </trkpt>
      <trkpt lat="44.54171" lon="4.24011">
        <ele>491</ele>
        <time>2016-05-15T08:57:36.000Z</time>
      </trkpt>
      <trkpt lat="44.54169" lon="4.24009">
        <ele>491</ele>
        <time>2016-05-15T08:57:37.000Z</time>
      </trkpt>
      <trkpt lat="44.54168" lon="4.24008">
        <ele>491</ele>
        <time>2016-05-15T08:57:38.000Z</time>
      </trkpt>
      <trkpt lat="44.54168" lon="4.24007">
        <ele>491</ele>
        <time>2016-05-15T08:57:39.000Z</time>
      </trkpt>
      <trkpt lat="44.54167" lon="4.24006">
        <ele>491</ele>
        <time>2016-05-15T08:57:40.000Z</time>
      </trkpt>
      <trkpt lat="44.54166" lon="4.24006">
        <ele>492</ele>
        <time>2016-05-15T08:57:41.000Z</time>
      </trkpt>
      <trkpt lat="44.54164" lon="4.24006">
        <ele>492</ele>
        <time>2016-05-15T08:57:42.000Z</time>
      </trkpt>
      <trkpt lat="44.54163" lon="4.24006">
        <ele>492</ele>
        <time>2016-05-15T08:57:43.000Z</time>
      </trkpt>
      <trkpt lat="44.54162" lon="4.24005">
        <ele>492</ele>
        <time>2016-05-15T08:57:44.000Z</time>
      </trkpt>
      <trkpt lat="44.54161" lon="4.24004">
        <ele>492</ele>
        <time>2016-05-15T08:57:45.000Z</time>
      </trkpt>
      <trkpt lat="44.5416" lon="4.24003">
        <ele>492</ele>
        <time>2016-05-15T08:57:46.000Z</time>
      </trkpt>
      <trkpt lat="44.54159" lon="4.24001">
        <ele>492</ele>
        <time>2016-05-15T08:57:47.000Z</time>
      </trkpt>
      <trkpt lat="44.54159" lon="4.24">
        <ele>492</ele>
        <time>2016-05-15T08:57:48.000Z</time>
      </trkpt>
      <trkpt lat="44.54158" lon="4.23998">
        <ele>492</ele>
        <time>2016-05-15T08:57:49.000Z</time>
      </trkpt>
      <trkpt lat="44.54158" lon="4.23997">
        <ele>492</ele>
        <time>2016-05-15T08:57:50.000Z</time>
      </trkpt>
      <trkpt lat="44.54158" lon="4.23995">
        <ele>492</ele>
        <time>2016-05-15T08:57:51.000Z</time>
      </trkpt>
      <trkpt lat="44.54158" lon="4.23993">
        <ele>492</ele>
        <time>2016-05-15T08:57:52.000Z</time>
      </trkpt>
      <trkpt lat="44.54158" lon="4.2399">
        <ele>492</ele>
        <time>2016-05-15T08:57:53.000Z</time>
      </trkpt>
      <trkpt lat="44.54159" lon="4.23989">
        <ele>492</ele>
        <time>2016-05-15T08:57:54.000Z</time>
      </trkpt>
      <trkpt lat="44.54159" lon="4.23987">
        <ele>492</ele>
        <time>2016-05-15T08:57:55.000Z</time>
      </trkpt>
      <trkpt lat="44.5416" lon="4.23985">
        <ele>492</ele>
        <time>2016-05-15T08:57:56.000Z</time>
      </trkpt>
      <trkpt lat="44.5416" lon="4.23983">
        <ele>492</ele>
        <time>2016-05-15T08:57:57.000Z</time>
      </trkpt>
      <trkpt lat="44.54159" lon="4.2398">
        <ele>493</ele>
        <time>2016-05-15T08:57:58.000Z</time>
      </trkpt>
      <trkpt lat="44.54159" lon="4.23978">
        <ele>493</ele>
        <time>2016-05-15T08:57:59.000Z</time>
      </trkpt>
      <trkpt lat="44.54157" lon="4.23976">
        <ele>493</ele>
        <time>2016-05-15T08:58:00.000Z</time>
      </trkpt>
      <trkpt lat="44.54157" lon="4.23974">
        <ele>493</ele>
        <time>2016-05-15T08:58:01.000Z</time>
      </trkpt>
      <trkpt lat="44.54157" lon="4.23971">
        <ele>493</ele>
        <time>2016-05-15T08:58:02.000Z</time>
      </trkpt>
      <trkpt lat="44.54157" lon="4.23969">
        <ele>493</ele>
        <time>2016-05-15T08:58:03.000Z</time>
      </trkpt>
      <trkpt lat="44.54157" lon="4.23966">
        <ele>493</ele>
        <time>2016-05-15T08:58:04.000Z</time>
      </trkpt>
      <trkpt lat="44.54157" lon="4.23964">
        <ele>493</ele>
        <time>2016-05-15T08:58:05.000Z</time>
      </trkpt>
      <trkpt lat="44.54158" lon="4.23962">
        <ele>493</ele>
        <time>2016-05-15T08:58:06.000Z</time>
      </trkpt>
      <trkpt lat="44.54158" lon="4.23959">
        <ele>493</ele>
        <time>2016-05-15T08:58:07.000Z</time>
      </trkpt>
      <trkpt lat="44.54158" lon="4.23957">
        <ele>494</ele>
        <time>2016-05-15T08:58:08.000Z</time>
      </trkpt>
      <trkpt lat="44.54159" lon="4.23954">
        <ele>494</ele>
        <time>2016-05-15T08:58:09.000Z</time>
      </trkpt>
      <trkpt lat="44.5416" lon="4.23952">
        <ele>494</ele>
        <time>2016-05-15T08:58:10.000Z</time>
      </trkpt>
      <trkpt lat="44.54161" lon="4.2395">
        <ele>494</ele>
        <time>2016-05-15T08:58:11.000Z</time>
      </trkpt>
      <trkpt lat="44.54162" lon="4.23949">
        <ele>494</ele>
        <time>2016-05-15T08:58:12.000Z</time>
      </trkpt>
      <trkpt lat="44.54163" lon="4.23947">
        <ele>494</ele>
        <time>2016-05-15T08:58:13.000Z</time>
      </trkpt>
      <trkpt lat="44.54165" lon="4.23946">
        <ele>494</ele>
        <time>2016-05-15T08:58:14.000Z</time>
      </trkpt>
      <trkpt lat="44.54166" lon="4.23945">
        <ele>494</ele>
        <time>2016-05-15T08:58:15.000Z</time>
      </trkpt>
      <trkpt lat="44.54167" lon="4.23943">
        <ele>493</ele>
        <time>2016-05-15T08:58:16.000Z</time>
      </trkpt>
      <trkpt lat="44.54168" lon="4.23943">
        <ele>493</ele>
        <time>2016-05-15T08:58:17.000Z</time>
      </trkpt>
      <trkpt lat="44.5417" lon="4.23941">
        <ele>493</ele>
        <time>2016-05-15T08:58:18.000Z</time>
      </trkpt>
      <trkpt lat="44.54171" lon="4.2394">
        <ele>493</ele>
        <time>2016-05-15T08:58:19.000Z</time>
      </trkpt>
      <trkpt lat="44.54173" lon="4.23939">
        <ele>493</ele>
        <time>2016-05-15T08:58:20.000Z</time>
      </trkpt>
      <trkpt lat="44.54174" lon="4.23938">
        <ele>493</ele>
        <time>2016-05-15T08:58:21.000Z</time>
      </trkpt>
      <trkpt lat="44.54176" lon="4.23938">
        <ele>493</ele>
        <time>2016-05-15T08:58:22.000Z</time>
      </trkpt>
      <trkpt lat="44.54178" lon="4.23937">
        <ele>493</ele>
        <time>2016-05-15T08:58:23.000Z</time>
      </trkpt>
      <trkpt lat="44.54179" lon="4.23936">
        <ele>493</ele>
        <time>2016-05-15T08:58:24.000Z</time>
      </trkpt>
      <trkpt lat="44.5418" lon="4.23935">
        <ele>493</ele>
        <time>2016-05-15T08:58:25.000Z</time>
      </trkpt>
      <trkpt lat="44.54182" lon="4.23934">
        <ele>493</ele>
        <time>2016-05-15T08:58:26.000Z</time>
      </trkpt>
      <trkpt lat="44.54183" lon="4.23932">
        <ele>493</ele>
        <time>2016-05-15T08:58:27.000Z</time>
      </trkpt>
      <trkpt lat="44.54185" lon="4.23931">
        <ele>493</ele>
        <time>2016-05-15T08:58:28.000Z</time>
      </trkpt>
      <trkpt lat="44.54186" lon="4.23931">
        <ele>493</ele>
        <time>2016-05-15T08:58:29.000Z</time>
      </trkpt>
      <trkpt lat="44.54188" lon="4.2393">
        <ele>493</ele>
        <time>2016-05-15T08:58:30.000Z</time>
      </trkpt>
      <trkpt lat="44.54188" lon="4.23928">
        <ele>493</ele>
        <time>2016-05-15T08:58:31.000Z</time>
      </trkpt>
      <trkpt lat="44.54189" lon="4.23927">
        <ele>493</ele>
        <time>2016-05-15T08:58:32.000Z</time>
      </trkpt>
      <trkpt lat="44.5419" lon="4.23925">
        <ele>493</ele>
        <time>2016-05-15T08:58:33.000Z</time>
      </trkpt>
      <trkpt lat="44.54191" lon="4.23924">
        <ele>493</ele>
        <time>2016-05-15T08:58:34.000Z</time>
      </trkpt>
      <trkpt lat="44.54192" lon="4.23923">
        <ele>493</ele>
        <time>2016-05-15T08:58:35.000Z</time>
      </trkpt>
      <trkpt lat="44.54194" lon="4.23922">
        <ele>493</ele>
        <time>2016-05-15T08:58:36.000Z</time>
      </trkpt>
      <trkpt lat="44.54195" lon="4.2392">
        <ele>493</ele>
        <time>2016-05-15T08:58:37.000Z</time>
      </trkpt>
      <trkpt lat="44.54196" lon="4.23919">
        <ele>493</ele>
        <time>2016-05-15T08:58:38.000Z</time>
      </trkpt>
      <trkpt lat="44.54197" lon="4.23918">
        <ele>493</ele>
        <time>2016-05-15T08:58:39.000Z</time>
      </trkpt>
      <trkpt lat="44.54198" lon="4.23916">
        <ele>496</ele>
        <time>2016-05-15T08:58:40.000Z</time>
      </trkpt>
      <trkpt lat="44.54199" lon="4.23914">
        <ele>496</ele>
        <time>2016-05-15T08:58:41.000Z</time>
      </trkpt>
      <trkpt lat="44.54199" lon="4.23911">
        <ele>496</ele>
        <time>2016-05-15T08:58:42.000Z</time>
      </trkpt>
      <trkpt lat="44.542" lon="4.23909">
        <ele>496</ele>
        <time>2016-05-15T08:58:43.000Z</time>
      </trkpt>
      <trkpt lat="44.542" lon="4.23907">
        <ele>496</ele>
        <time>2016-05-15T08:58:44.000Z</time>
      </trkpt>
      <trkpt lat="44.542" lon="4.23904">
        <ele>497</ele>
        <time>2016-05-15T08:58:45.000Z</time>
      </trkpt>
      <trkpt lat="44.542" lon="4.23902">
        <ele>497</ele>
        <time>2016-05-15T08:58:46.000Z</time>
      </trkpt>
      <trkpt lat="44.542" lon="4.23899">
        <ele>497</ele>
        <time>2016-05-15T08:58:47.000Z</time>
      </trkpt>
      <trkpt lat="44.542" lon="4.23896">
        <ele>497</ele>
        <time>2016-05-15T08:58:48.000Z</time>
      </trkpt>
      <trkpt lat="44.542" lon="4.23893">
        <ele>497</ele>
        <time>2016-05-15T08:58:49.000Z</time>
      </trkpt>
      <trkpt lat="44.54201" lon="4.2389">
        <ele>497</ele>
        <time>2016-05-15T08:58:50.000Z</time>
      </trkpt>
      <trkpt lat="44.542" lon="4.23888">
        <ele>497</ele>
        <time>2016-05-15T08:58:51.000Z</time>
      </trkpt>
      <trkpt lat="44.542" lon="4.23886">
        <ele>497</ele>
        <time>2016-05-15T08:58:52.000Z</time>
      </trkpt>
      <trkpt lat="44.542" lon="4.23883">
        <ele>497</ele>
        <time>2016-05-15T08:58:53.000Z</time>
      </trkpt>
      <trkpt lat="44.542" lon="4.23881">
        <ele>497</ele>
        <time>2016-05-15T08:58:54.000Z</time>
      </trkpt>
      <trkpt lat="44.54201" lon="4.23878">
        <ele>497</ele>
        <time>2016-05-15T08:58:55.000Z</time>
      </trkpt>
      <trkpt lat="44.54202" lon="4.23876">
        <ele>498</ele>
        <time>2016-05-15T08:58:56.000Z</time>
      </trkpt>
      <trkpt lat="44.54203" lon="4.23874">
        <ele>498</ele>
        <time>2016-05-15T08:58:57.000Z</time>
      </trkpt>
      <trkpt lat="44.54203" lon="4.23871">
        <ele>498</ele>
        <time>2016-05-15T08:58:58.000Z</time>
      </trkpt>
      <trkpt lat="44.54204" lon="4.23868">
        <ele>498</ele>
        <time>2016-05-15T08:58:59.000Z</time>
      </trkpt>
      <trkpt lat="44.54204" lon="4.23866">
        <ele>498</ele>
        <time>2016-05-15T08:59:00.000Z</time>
      </trkpt>
      <trkpt lat="44.54205" lon="4.23863">
        <ele>498</ele>
        <time>2016-05-15T08:59:01.000Z</time>
      </trkpt>
      <trkpt lat="44.54205" lon="4.23861">
        <ele>498</ele>
        <time>2016-05-15T08:59:02.000Z</time>
      </trkpt>
      <trkpt lat="44.54205" lon="4.23859">
        <ele>498</ele>
        <time>2016-05-15T08:59:03.000Z</time>
      </trkpt>
      <trkpt lat="44.54206" lon="4.23857">
        <ele>498</ele>
        <time>2016-05-15T08:59:04.000Z</time>
      </trkpt>
      <trkpt lat="44.54206" lon="4.23856">
        <ele>498</ele>
        <time>2016-05-15T08:59:05.000Z</time>
      </trkpt>
      <trkpt lat="44.54206" lon="4.23855">
        <ele>498</ele>
        <time>2016-05-15T08:59:06.000Z</time>
      </trkpt>
      <trkpt lat="44.54206" lon="4.23855">
        <ele>498</ele>
        <time>2016-05-15T08:59:07.000Z</time>
      </trkpt>
      <trkpt lat="44.54206" lon="4.23855">
        <ele>498</ele>
        <time>2016-05-15T08:59:08.000Z</time>
      </trkpt>
      <trkpt lat="44.54206" lon="4.23855">
        <ele>498</ele>
        <time>2016-05-15T08:59:09.000Z</time>
      </trkpt>
      <trkpt lat="44.54207" lon="4.23855">
        <ele>498</ele>
        <time>2016-05-15T08:59:10.000Z</time>
      </trkpt>
      <trkpt lat="44.54207" lon="4.23855">
        <ele>498</ele>
        <time>2016-05-15T08:59:11.000Z</time>
      </trkpt>
      <trkpt lat="44.54207" lon="4.23855">
        <ele>498</ele>
        <time>2016-05-15T08:59:12.000Z</time>
      </trkpt>
      <trkpt lat="44.54207" lon="4.23855">
        <ele>498</ele>
        <time>2016-05-15T08:59:13.000Z</time>
      </trkpt>
      <trkpt lat="44.54207" lon="4.23854">
        <ele>498</ele>
        <time>2016-05-15T08:59:14.000Z</time>
      </trkpt>
      <trkpt lat="44.54207" lon="4.23854">
        <ele>498</ele>
        <time>2016-05-15T08:59:15.000Z</time>
      </trkpt>
      <trkpt lat="44.54207" lon="4.23854">
        <ele>498</ele>
        <time>2016-05-15T08:59:16.000Z</time>
      </trkpt>
      <trkpt lat="44.54207" lon="4.23854">
        <ele>498</ele>
        <time>2016-05-15T08:59:17.000Z</time>
      </trkpt>
      <trkpt lat="44.54207" lon="4.23854">
        <ele>498</ele>
        <time>2016-05-15T08:59:18.000Z</time>
      </trkpt>
      <trkpt lat="44.54207" lon="4.23853">
        <ele>499</ele>
        <time>2016-05-15T08:59:19.000Z</time>
      </trkpt>
      <trkpt lat="44.54207" lon="4.23852">
        <ele>499</ele>
        <time>2016-05-15T08:59:20.000Z</time>
      </trkpt>
      <trkpt lat="44.54207" lon="4.23851">
        <ele>499</ele>
        <time>2016-05-15T08:59:21.000Z</time>
      </trkpt>
      <trkpt lat="44.54207" lon="4.2385">
        <ele>499</ele>
        <time>2016-05-15T08:59:22.000Z</time>
      </trkpt>
      <trkpt lat="44.54207" lon="4.23849">
        <ele>499</ele>
        <time>2016-05-15T08:59:23.000Z</time>
      </trkpt>
      <trkpt lat="44.54207" lon="4.23848">
        <ele>499</ele>
        <time>2016-05-15T08:59:24.000Z</time>
      </trkpt>
      <trkpt lat="44.54207" lon="4.23847">
        <ele>499</ele>
        <time>2016-05-15T08:59:25.000Z</time>
      </trkpt>
      <trkpt lat="44.54207" lon="4.23847">
        <ele>499</ele>
        <time>2016-05-15T08:59:26.000Z</time>
      </trkpt>
      <trkpt lat="44.54208" lon="4.23846">
        <ele>499</ele>
        <time>2016-05-15T08:59:27.000Z</time>
      </trkpt>
      <trkpt lat="44.54208" lon="4.23845">
        <ele>499</ele>
        <time>2016-05-15T08:59:28.000Z</time>
      </trkpt>
      <trkpt lat="44.54208" lon="4.23844">
        <ele>499</ele>
        <time>2016-05-15T08:59:29.000Z</time>
      </trkpt>
      <trkpt lat="44.54208" lon="4.23843">
        <ele>499</ele>
        <time>2016-05-15T08:59:30.000Z</time>
      </trkpt>
      <trkpt lat="44.54209" lon="4.23842">
        <ele>499</ele>
        <time>2016-05-15T08:59:31.000Z</time>
      </trkpt>
      <trkpt lat="44.54209" lon="4.23841">
        <ele>499</ele>
        <time>2016-05-15T08:59:32.000Z</time>
      </trkpt>
      <trkpt lat="44.54209" lon="4.2384">
        <ele>499</ele>
        <time>2016-05-15T08:59:33.000Z</time>
      </trkpt>
      <trkpt lat="44.54209" lon="4.23838">
        <ele>499</ele>
        <time>2016-05-15T08:59:34.000Z</time>
      </trkpt>
      <trkpt lat="44.5421" lon="4.23837">
        <ele>499</ele>
        <time>2016-05-15T08:59:35.000Z</time>
      </trkpt>
      <trkpt lat="44.5421" lon="4.23836">
        <ele>499</ele>
        <time>2016-05-15T08:59:36.000Z</time>
      </trkpt>
      <trkpt lat="44.5421" lon="4.23835">
        <ele>499</ele>
        <time>2016-05-15T08:59:37.000Z</time>
      </trkpt>
      <trkpt lat="44.5421" lon="4.23834">
        <ele>499</ele>
        <time>2016-05-15T08:59:38.000Z</time>
      </trkpt>
      <trkpt lat="44.54211" lon="4.23832">
        <ele>504</ele>
        <time>2016-05-15T08:59:39.000Z</time>
      </trkpt>
      <trkpt lat="44.54211" lon="4.23831">
        <ele>504</ele>
        <time>2016-05-15T08:59:40.000Z</time>
      </trkpt>
      <trkpt lat="44.54211" lon="4.2383">
        <ele>504</ele>
        <time>2016-05-15T08:59:41.000Z</time>
      </trkpt>
      <trkpt lat="44.54211" lon="4.23829">
        <ele>504</ele>
        <time>2016-05-15T08:59:42.000Z</time>
      </trkpt>
      <trkpt lat="44.54212" lon="4.23828">
        <ele>504</ele>
        <time>2016-05-15T08:59:43.000Z</time>
      </trkpt>
      <trkpt lat="44.54212" lon="4.23827">
        <ele>504</ele>
        <time>2016-05-15T08:59:44.000Z</time>
      </trkpt>
      <trkpt lat="44.54212" lon="4.23825">
        <ele>504</ele>
        <time>2016-05-15T08:59:45.000Z</time>
      </trkpt>
      <trkpt lat="44.54212" lon="4.23824">
        <ele>504</ele>
        <time>2016-05-15T08:59:46.000Z</time>
      </trkpt>
      <trkpt lat="44.54212" lon="4.23823">
        <ele>504</ele>
        <time>2016-05-15T08:59:47.000Z</time>
      </trkpt>
      <trkpt lat="44.54212" lon="4.23822">
        <ele>504</ele>
        <time>2016-05-15T08:59:48.000Z</time>
      </trkpt>
      <trkpt lat="44.54212" lon="4.23821">
        <ele>504</ele>
        <time>2016-05-15T08:59:49.000Z</time>
      </trkpt>
      <trkpt lat="44.54213" lon="4.2382">
        <ele>504</ele>
        <time>2016-05-15T08:59:50.000Z</time>
      </trkpt>
      <trkpt lat="44.54213" lon="4.23819">
        <ele>504</ele>
        <time>2016-05-15T08:59:51.000Z</time>
      </trkpt>
      <trkpt lat="44.54214" lon="4.23819">
        <ele>504</ele>
        <time>2016-05-15T08:59:52.000Z</time>
      </trkpt>
      <trkpt lat="44.54214" lon="4.23818">
        <ele>504</ele>
        <time>2016-05-15T08:59:53.000Z</time>
      </trkpt>
      <trkpt lat="44.54214" lon="4.23817">
        <ele>504</ele>
        <time>2016-05-15T08:59:54.000Z</time>
      </trkpt>
      <trkpt lat="44.54214" lon="4.23816">
        <ele>504</ele>
        <time>2016-05-15T08:59:55.000Z</time>
      </trkpt>
      <trkpt lat="44.54214" lon="4.23815">
        <ele>504</ele>
        <time>2016-05-15T08:59:56.000Z</time>
      </trkpt>
      <trkpt lat="44.54214" lon="4.23814">
        <ele>504</ele>
        <time>2016-05-15T08:59:57.000Z</time>
      </trkpt>
      <trkpt lat="44.54215" lon="4.23813">
        <ele>504</ele>
        <time>2016-05-15T08:59:58.000Z</time>
      </trkpt>
      <trkpt lat="44.54215" lon="4.23813">
        <ele>504</ele>
        <time>2016-05-15T08:59:59.000Z</time>
      </trkpt>
      <trkpt lat="44.54215" lon="4.23812">
        <ele>504</ele>
        <time>2016-05-15T09:00:00.000Z</time>
      </trkpt>
      <trkpt lat="44.54216" lon="4.23812">
        <ele>504</ele>
        <time>2016-05-15T09:00:01.000Z</time>
      </trkpt>
      <trkpt lat="44.54216" lon="4.23812">
        <ele>504</ele>
        <time>2016-05-15T09:00:02.000Z</time>
      </trkpt>
      <trkpt lat="44.54216" lon="4.23811">
        <ele>504</ele>
        <time>2016-05-15T09:00:03.000Z</time>
      </trkpt>
      <trkpt lat="44.54216" lon="4.23811">
        <ele>504</ele>
        <time>2016-05-15T09:00:04.000Z</time>
      </trkpt>
      <trkpt lat="44.54217" lon="4.23811">
        <ele>504</ele>
        <time>2016-05-15T09:00:05.000Z</time>
      </trkpt>
      <trkpt lat="44.54217" lon="4.23811">
        <ele>504</ele>
        <time>2016-05-15T09:00:06.000Z</time>
      </trkpt>
      <trkpt lat="44.54217" lon="4.23811">
        <ele>504</ele>
        <time>2016-05-15T09:00:07.000Z</time>
      </trkpt>
      <trkpt lat="44.54217" lon="4.23811">
        <ele>504</ele>
        <time>2016-05-15T09:00:08.000Z</time>
      </trkpt>
      <trkpt lat="44.54217" lon="4.23811">
        <ele>504</ele>
        <time>2016-05-15T09:00:09.000Z</time>
      </trkpt>
      <trkpt lat="44.54217" lon="4.23811">
        <ele>504</ele>
        <time>2016-05-15T09:00:10.000Z</time>
      </trkpt>
      <trkpt lat="44.54218" lon="4.2381">
        <ele>504</ele>
        <time>2016-05-15T09:00:11.000Z</time>
      </trkpt>
      <trkpt lat="44.54218" lon="4.2381">
        <ele>504</ele>
        <time>2016-05-15T09:00:12.000Z</time>
      </trkpt>
      <trkpt lat="44.54218" lon="4.2381">
        <ele>504</ele>
        <time>2016-05-15T09:00:13.000Z</time>
      </trkpt>
      <trkpt lat="44.54218" lon="4.2381">
        <ele>504</ele>
        <time>2016-05-15T09:00:14.000Z</time>
      </trkpt>
      <trkpt lat="44.54218" lon="4.2381">
        <ele>504</ele>
        <time>2016-05-15T09:00:15.000Z</time>
      </trkpt>
      <trkpt lat="44.54218" lon="4.2381">
        <ele>504</ele>
        <time>2016-05-15T09:00:16.000Z</time>
      </trkpt>
      <trkpt lat="44.54219" lon="4.2381">
        <ele>504</ele>
        <time>2016-05-15T09:00:17.000Z</time>
      </trkpt>
      <trkpt lat="44.54219" lon="4.2381">
        <ele>504</ele>
        <time>2016-05-15T09:00:18.000Z</time>
      </trkpt>
      <trkpt lat="44.5422" lon="4.23811">
        <ele>504</ele>
        <time>2016-05-15T09:00:19.000Z</time>
      </trkpt>
      <trkpt lat="44.5422" lon="4.23812">
        <ele>504</ele>
        <time>2016-05-15T09:00:20.000Z</time>
      </trkpt>
      <trkpt lat="44.5422" lon="4.23813">
        <ele>504</ele>
        <time>2016-05-15T09:00:21.000Z</time>
      </trkpt>
      <trkpt lat="44.54221" lon="4.23813">
        <ele>504</ele>
        <time>2016-05-15T09:00:22.000Z</time>
      </trkpt>
      <trkpt lat="44.54221" lon="4.23814">
        <ele>504</ele>
        <time>2016-05-15T09:00:23.000Z</time>
      </trkpt>
      <trkpt lat="44.54222" lon="4.23814">
        <ele>504</ele>
        <time>2016-05-15T09:00:24.000Z</time>
      </trkpt>
      <trkpt lat="44.54223" lon="4.23814">
        <ele>504</ele>
        <time>2016-05-15T09:00:25.000Z</time>
      </trkpt>
      <trkpt lat="44.54223" lon="4.23814">
        <ele>504</ele>
        <time>2016-05-15T09:00:26.000Z</time>
      </trkpt>
      <trkpt lat="44.54224" lon="4.23814">
        <ele>504</ele>
        <time>2016-05-15T09:00:27.000Z</time>
      </trkpt>
      <trkpt lat="44.54224" lon="4.23814">
        <ele>504</ele>
        <time>2016-05-15T09:00:28.000Z</time>
      </trkpt>
      <trkpt lat="44.54224" lon="4.23814">
        <ele>504</ele>
        <time>2016-05-15T09:00:29.000Z</time>
      </trkpt>
      <trkpt lat="44.54224" lon="4.23814">
        <ele>504</ele>
        <time>2016-05-15T09:00:30.000Z</time>
      </trkpt>
      <trkpt lat="44.54224" lon="4.23814">
        <ele>504</ele>
        <time>2016-05-15T09:00:31.000Z</time>
      </trkpt>
      <trkpt lat="44.54224" lon="4.23814">
        <ele>504</ele>
        <time>2016-05-15T09:00:32.000Z</time>
      </trkpt>
      <trkpt lat="44.54225" lon="4.23814">
        <ele>504</ele>
        <time>2016-05-15T09:00:33.000Z</time>
      </trkpt>
      <trkpt lat="44.54226" lon="4.23814">
        <ele>504</ele>
        <time>2016-05-15T09:00:34.000Z</time>
      </trkpt>
      <trkpt lat="44.54227" lon="4.23814">
        <ele>504</ele>
        <time>2016-05-15T09:00:35.000Z</time>
      </trkpt>
      <trkpt lat="44.54229" lon="4.23813">
        <ele>504</ele>
        <time>2016-05-15T09:00:36.000Z</time>
      </trkpt>
      <trkpt lat="44.5423" lon="4.23812">
        <ele>504</ele>
        <time>2016-05-15T09:00:37.000Z</time>
      </trkpt>
      <trkpt lat="44.54231" lon="4.23811">
        <ele>504</ele>
        <time>2016-05-15T09:00:38.000Z</time>
      </trkpt>
      <trkpt lat="44.54233" lon="4.2381">
        <ele>504</ele>
        <time>2016-05-15T09:00:39.000Z</time>
      </trkpt>
      <trkpt lat="44.54234" lon="4.2381">
        <ele>504</ele>
        <time>2016-05-15T09:00:40.000Z</time>
      </trkpt>
      <trkpt lat="44.54235" lon="4.23809">
        <ele>504</ele>
        <time>2016-05-15T09:00:41.000Z</time>
      </trkpt>
      <trkpt lat="44.54236" lon="4.23807">
        <ele>504</ele>
        <time>2016-05-15T09:00:42.000Z</time>
      </trkpt>
      <trkpt lat="44.54238" lon="4.23805">
        <ele>504</ele>
        <time>2016-05-15T09:00:43.000Z</time>
      </trkpt>
      <trkpt lat="44.54238" lon="4.23803">
        <ele>504</ele>
        <time>2016-05-15T09:00:44.000Z</time>
      </trkpt>
      <trkpt lat="44.54239" lon="4.23801">
        <ele>504</ele>
        <time>2016-05-15T09:00:45.000Z</time>
      </trkpt>
      <trkpt lat="44.54239" lon="4.23799">
        <ele>504</ele>
        <time>2016-05-15T09:00:46.000Z</time>
      </trkpt>
      <trkpt lat="44.54239" lon="4.23797">
        <ele>505</ele>
        <time>2016-05-15T09:00:47.000Z</time>
      </trkpt>
      <trkpt lat="44.54238" lon="4.23795">
        <ele>505</ele>
        <time>2016-05-15T09:00:48.000Z</time>
      </trkpt>
      <trkpt lat="44.54238" lon="4.23793">
        <ele>505</ele>
        <time>2016-05-15T09:00:49.000Z</time>
      </trkpt>
      <trkpt lat="44.54238" lon="4.23791">
        <ele>505</ele>
        <time>2016-05-15T09:00:50.000Z</time>
      </trkpt>
      <trkpt lat="44.54238" lon="4.23788">
        <ele>505</ele>
        <time>2016-05-15T09:00:51.000Z</time>
      </trkpt>
      <trkpt lat="44.54238" lon="4.23787">
        <ele>505</ele>
        <time>2016-05-15T09:00:52.000Z</time>
      </trkpt>
      <trkpt lat="44.54237" lon="4.23785">
        <ele>505</ele>
        <time>2016-05-15T09:00:53.000Z</time>
      </trkpt>
      <trkpt lat="44.54237" lon="4.23783">
        <ele>506</ele>
        <time>2016-05-15T09:00:54.000Z</time>
      </trkpt>
      <trkpt lat="44.54236" lon="4.23781">
        <ele>506</ele>
        <time>2016-05-15T09:00:55.000Z</time>
      </trkpt>
      <trkpt lat="44.54236" lon="4.23779">
        <ele>506</ele>
        <time>2016-05-15T09:00:56.000Z</time>
      </trkpt>
      <trkpt lat="44.54236" lon="4.23776">
        <ele>506</ele>
        <time>2016-05-15T09:00:57.000Z</time>
      </trkpt>
      <trkpt lat="44.54235" lon="4.23774">
        <ele>506</ele>
        <time>2016-05-15T09:00:58.000Z</time>
      </trkpt>
      <trkpt lat="44.54234" lon="4.23772">
        <ele>506</ele>
        <time>2016-05-15T09:00:59.000Z</time>
      </trkpt>
      <trkpt lat="44.54234" lon="4.23769">
        <ele>507</ele>
        <time>2016-05-15T09:01:00.000Z</time>
      </trkpt>
      <trkpt lat="44.54234" lon="4.23767">
        <ele>507</ele>
        <time>2016-05-15T09:01:01.000Z</time>
      </trkpt>
      <trkpt lat="44.54234" lon="4.23764">
        <ele>507</ele>
        <time>2016-05-15T09:01:02.000Z</time>
      </trkpt>
      <trkpt lat="44.54233" lon="4.23761">
        <ele>507</ele>
        <time>2016-05-15T09:01:03.000Z</time>
      </trkpt>
      <trkpt lat="44.54233" lon="4.23757">
        <ele>507</ele>
        <time>2016-05-15T09:01:04.000Z</time>
      </trkpt>
      <trkpt lat="44.54232" lon="4.23754">
        <ele>507</ele>
        <time>2016-05-15T09:01:05.000Z</time>
      </trkpt>
      <trkpt lat="44.54231" lon="4.23751">
        <ele>507</ele>
        <time>2016-05-15T09:01:06.000Z</time>
      </trkpt>
      <trkpt lat="44.5423" lon="4.23747">
        <ele>510</ele>
        <time>2016-05-15T09:01:07.000Z</time>
      </trkpt>
      <trkpt lat="44.54229" lon="4.23744">
        <ele>510</ele>
        <time>2016-05-15T09:01:08.000Z</time>
      </trkpt>
      <trkpt lat="44.54228" lon="4.23741">
        <ele>510</ele>
        <time>2016-05-15T09:01:09.000Z</time>
      </trkpt>
      <trkpt lat="44.54227" lon="4.23738">
        <ele>510</ele>
        <time>2016-05-15T09:01:10.000Z</time>
      </trkpt>
      <trkpt lat="44.54227" lon="4.23734">
        <ele>510</ele>
        <time>2016-05-15T09:01:11.000Z</time>
      </trkpt>
      <trkpt lat="44.54227" lon="4.23731">
        <ele>510</ele>
        <time>2016-05-15T09:01:12.000Z</time>
      </trkpt>
      <trkpt lat="44.54226" lon="4.23727">
        <ele>511</ele>
        <time>2016-05-15T09:01:13.000Z</time>
      </trkpt>
      <trkpt lat="44.54226" lon="4.23724">
        <ele>511</ele>
        <time>2016-05-15T09:01:14.000Z</time>
      </trkpt>
      <trkpt lat="44.54225" lon="4.23721">
        <ele>511</ele>
        <time>2016-05-15T09:01:15.000Z</time>
      </trkpt>
      <trkpt lat="44.54223" lon="4.23718">
        <ele>511</ele>
        <time>2016-05-15T09:01:16.000Z</time>
      </trkpt>
      <trkpt lat="44.54222" lon="4.23714">
        <ele>511</ele>
        <time>2016-05-15T09:01:17.000Z</time>
      </trkpt>
      <trkpt lat="44.54222" lon="4.23711">
        <ele>511</ele>
        <time>2016-05-15T09:01:18.000Z</time>
      </trkpt>
      <trkpt lat="44.54222" lon="4.23708">
        <ele>511</ele>
        <time>2016-05-15T09:01:19.000Z</time>
      </trkpt>
      <trkpt lat="44.54221" lon="4.23705">
        <ele>511</ele>
        <time>2016-05-15T09:01:20.000Z</time>
      </trkpt>
      <trkpt lat="44.5422" lon="4.23702">
        <ele>511</ele>
        <time>2016-05-15T09:01:21.000Z</time>
      </trkpt>
      <trkpt lat="44.54219" lon="4.23699">
        <ele>511</ele>
        <time>2016-05-15T09:01:22.000Z</time>
      </trkpt>
      <trkpt lat="44.54218" lon="4.23696">
        <ele>511</ele>
        <time>2016-05-15T09:01:23.000Z</time>
      </trkpt>
      <trkpt lat="44.54217" lon="4.23694">
        <ele>512</ele>
        <time>2016-05-15T09:01:24.000Z</time>
      </trkpt>
      <trkpt lat="44.54217" lon="4.23691">
        <ele>512</ele>
        <time>2016-05-15T09:01:25.000Z</time>
      </trkpt>
      <trkpt lat="44.54216" lon="4.23688">
        <ele>512</ele>
        <time>2016-05-15T09:01:26.000Z</time>
      </trkpt>
      <trkpt lat="44.54216" lon="4.23685">
        <ele>512</ele>
        <time>2016-05-15T09:01:27.000Z</time>
      </trkpt>
      <trkpt lat="44.54215" lon="4.23681">
        <ele>512</ele>
        <time>2016-05-15T09:01:28.000Z</time>
      </trkpt>
      <trkpt lat="44.54215" lon="4.23678">
        <ele>512</ele>
        <time>2016-05-15T09:01:29.000Z</time>
      </trkpt>
      <trkpt lat="44.54215" lon="4.23675">
        <ele>512</ele>
        <time>2016-05-15T09:01:30.000Z</time>
      </trkpt>
      <trkpt lat="44.54215" lon="4.23671">
        <ele>512</ele>
        <time>2016-05-15T09:01:31.000Z</time>
      </trkpt>
      <trkpt lat="44.54215" lon="4.23667">
        <ele>512</ele>
        <time>2016-05-15T09:01:32.000Z</time>
      </trkpt>
      <trkpt lat="44.54216" lon="4.23664">
        <ele>516</ele>
        <time>2016-05-15T09:01:33.000Z</time>
      </trkpt>
      <trkpt lat="44.54216" lon="4.2366">
        <ele>516</ele>
        <time>2016-05-15T09:01:34.000Z</time>
      </trkpt>
      <trkpt lat="44.54216" lon="4.23657">
        <ele>516</ele>
        <time>2016-05-15T09:01:35.000Z</time>
      </trkpt>
      <trkpt lat="44.54218" lon="4.23653">
        <ele>516</ele>
        <time>2016-05-15T09:01:36.000Z</time>
      </trkpt>
      <trkpt lat="44.54219" lon="4.2365">
        <ele>516</ele>
        <time>2016-05-15T09:01:37.000Z</time>
      </trkpt>
      <trkpt lat="44.5422" lon="4.23648">
        <ele>516</ele>
        <time>2016-05-15T09:01:38.000Z</time>
      </trkpt>
      <trkpt lat="44.54221" lon="4.23645">
        <ele>516</ele>
        <time>2016-05-15T09:01:39.000Z</time>
      </trkpt>
      <trkpt lat="44.54222" lon="4.23642">
        <ele>516</ele>
        <time>2016-05-15T09:01:40.000Z</time>
      </trkpt>
      <trkpt lat="44.54223" lon="4.23638">
        <ele>516</ele>
        <time>2016-05-15T09:01:41.000Z</time>
      </trkpt>
      <trkpt lat="44.54224" lon="4.23635">
        <ele>516</ele>
        <time>2016-05-15T09:01:42.000Z</time>
      </trkpt>
      <trkpt lat="44.54224" lon="4.23631">
        <ele>517</ele>
        <time>2016-05-15T09:01:43.000Z</time>
      </trkpt>
      <trkpt lat="44.54225" lon="4.23628">
        <ele>517</ele>
        <time>2016-05-15T09:01:44.000Z</time>
      </trkpt>
      <trkpt lat="44.54225" lon="4.23626">
        <ele>517</ele>
        <time>2016-05-15T09:01:45.000Z</time>
      </trkpt>
      <trkpt lat="44.54225" lon="4.23622">
        <ele>517</ele>
        <time>2016-05-15T09:01:46.000Z</time>
      </trkpt>
      <trkpt lat="44.54225" lon="4.23619">
        <ele>517</ele>
        <time>2016-05-15T09:01:47.000Z</time>
      </trkpt>
      <trkpt lat="44.54224" lon="4.23616">
        <ele>517</ele>
        <time>2016-05-15T09:01:48.000Z</time>
      </trkpt>
      <trkpt lat="44.54224" lon="4.23613">
        <ele>517</ele>
        <time>2016-05-15T09:01:49.000Z</time>
      </trkpt>
      <trkpt lat="44.54224" lon="4.2361">
        <ele>517</ele>
        <time>2016-05-15T09:01:50.000Z</time>
      </trkpt>
      <trkpt lat="44.54224" lon="4.23607">
        <ele>518</ele>
        <time>2016-05-15T09:01:51.000Z</time>
      </trkpt>
      <trkpt lat="44.54224" lon="4.23604">
        <ele>518</ele>
        <time>2016-05-15T09:01:52.000Z</time>
      </trkpt>
      <trkpt lat="44.54225" lon="4.236">
        <ele>518</ele>
        <time>2016-05-15T09:01:53.000Z</time>
      </trkpt>
      <trkpt lat="44.54225" lon="4.23597">
        <ele>518</ele>
        <time>2016-05-15T09:01:54.000Z</time>
      </trkpt>
      <trkpt lat="44.54226" lon="4.23594">
        <ele>518</ele>
        <time>2016-05-15T09:01:55.000Z</time>
      </trkpt>
      <trkpt lat="44.54226" lon="4.2359">
        <ele>518</ele>
        <time>2016-05-15T09:01:56.000Z</time>
      </trkpt>
      <trkpt lat="44.54227" lon="4.23587">
        <ele>519</ele>
        <time>2016-05-15T09:01:57.000Z</time>
      </trkpt>
      <trkpt lat="44.54227" lon="4.23584">
        <ele>519</ele>
        <time>2016-05-15T09:01:58.000Z</time>
      </trkpt>
      <trkpt lat="44.54228" lon="4.2358">
        <ele>521</ele>
        <time>2016-05-15T09:01:59.000Z</time>
      </trkpt>
      <trkpt lat="44.54228" lon="4.23577">
        <ele>521</ele>
        <time>2016-05-15T09:02:00.000Z</time>
      </trkpt>
      <trkpt lat="44.54229" lon="4.23573">
        <ele>521</ele>
        <time>2016-05-15T09:02:01.000Z</time>
      </trkpt>
      <trkpt lat="44.54229" lon="4.2357">
        <ele>521</ele>
        <time>2016-05-15T09:02:02.000Z</time>
      </trkpt>
      <trkpt lat="44.5423" lon="4.23566">
        <ele>521</ele>
        <time>2016-05-15T09:02:03.000Z</time>
      </trkpt>
      <trkpt lat="44.5423" lon="4.23563">
        <ele>521</ele>
        <time>2016-05-15T09:02:04.000Z</time>
      </trkpt>
      <trkpt lat="44.54231" lon="4.2356">
        <ele>521</ele>
        <time>2016-05-15T09:02:05.000Z</time>
      </trkpt>
      <trkpt lat="44.54232" lon="4.23556">
        <ele>521</ele>
        <time>2016-05-15T09:02:06.000Z</time>
      </trkpt>
      <trkpt lat="44.54232" lon="4.23553">
        <ele>521</ele>
        <time>2016-05-15T09:02:07.000Z</time>
      </trkpt>
      <trkpt lat="44.54233" lon="4.2355">
        <ele>521</ele>
        <time>2016-05-15T09:02:08.000Z</time>
      </trkpt>
      <trkpt lat="44.54233" lon="4.23546">
        <ele>521</ele>
        <time>2016-05-15T09:02:09.000Z</time>
      </trkpt>
      <trkpt lat="44.54234" lon="4.23543">
        <ele>521</ele>
        <time>2016-05-15T09:02:10.000Z</time>
      </trkpt>
      <trkpt lat="44.54234" lon="4.2354">
        <ele>521</ele>
        <time>2016-05-15T09:02:11.000Z</time>
      </trkpt>
      <trkpt lat="44.54235" lon="4.23536">
        <ele>521</ele>
        <time>2016-05-15T09:02:12.000Z</time>
      </trkpt>
      <trkpt lat="44.54235" lon="4.23532">
        <ele>521</ele>
        <time>2016-05-15T09:02:13.000Z</time>
      </trkpt>
      <trkpt lat="44.54235" lon="4.23529">
        <ele>521</ele>
        <time>2016-05-15T09:02:14.000Z</time>
      </trkpt>
      <trkpt lat="44.54234" lon="4.23525">
        <ele>521</ele>
        <time>2016-05-15T09:02:15.000Z</time>
      </trkpt>
      <trkpt lat="44.54234" lon="4.23522">
        <ele>521</ele>
        <time>2016-05-15T09:02:16.000Z</time>
      </trkpt>
      <trkpt lat="44.54235" lon="4.23518">
        <ele>521</ele>
        <time>2016-05-15T09:02:17.000Z</time>
      </trkpt>
      <trkpt lat="44.54236" lon="4.23514">
        <ele>521</ele>
        <time>2016-05-15T09:02:18.000Z</time>
      </trkpt>
      <trkpt lat="44.54236" lon="4.2351">
        <ele>521</ele>
        <time>2016-05-15T09:02:19.000Z</time>
      </trkpt>
      <trkpt lat="44.54236" lon="4.23506">
        <ele>521</ele>
        <time>2016-05-15T09:02:20.000Z</time>
      </trkpt>
      <trkpt lat="44.54237" lon="4.23503">
        <ele>521</ele>
        <time>2016-05-15T09:02:21.000Z</time>
      </trkpt>
      <trkpt lat="44.54238" lon="4.23499">
        <ele>523</ele>
        <time>2016-05-15T09:02:22.000Z</time>
      </trkpt>
      <trkpt lat="44.54238" lon="4.23495">
        <ele>523</ele>
        <time>2016-05-15T09:02:23.000Z</time>
      </trkpt>
      <trkpt lat="44.54239" lon="4.23491">
        <ele>523</ele>
        <time>2016-05-15T09:02:24.000Z</time>
      </trkpt>
      <trkpt lat="44.5424" lon="4.23488">
        <ele>523</ele>
        <time>2016-05-15T09:02:25.000Z</time>
      </trkpt>
      <trkpt lat="44.5424" lon="4.23484">
        <ele>523</ele>
        <time>2016-05-15T09:02:26.000Z</time>
      </trkpt>
      <trkpt lat="44.54241" lon="4.23481">
        <ele>523</ele>
        <time>2016-05-15T09:02:27.000Z</time>
      </trkpt>
      <trkpt lat="44.54242" lon="4.23478">
        <ele>523</ele>
        <time>2016-05-15T09:02:28.000Z</time>
      </trkpt>
      <trkpt lat="44.54242" lon="4.23475">
        <ele>524</ele>
        <time>2016-05-15T09:02:29.000Z</time>
      </trkpt>
      <trkpt lat="44.54243" lon="4.23472">
        <ele>524</ele>
        <time>2016-05-15T09:02:30.000Z</time>
      </trkpt>
      <trkpt lat="44.54244" lon="4.23469">
        <ele>524</ele>
        <time>2016-05-15T09:02:31.000Z</time>
      </trkpt>
      <trkpt lat="44.54245" lon="4.23466">
        <ele>524</ele>
        <time>2016-05-15T09:02:32.000Z</time>
      </trkpt>
      <trkpt lat="44.54245" lon="4.23463">
        <ele>524</ele>
        <time>2016-05-15T09:02:33.000Z</time>
      </trkpt>
      <trkpt lat="44.54246" lon="4.23461">
        <ele>524</ele>
        <time>2016-05-15T09:02:34.000Z</time>
      </trkpt>
      <trkpt lat="44.54246" lon="4.23458">
        <ele>524</ele>
        <time>2016-05-15T09:02:35.000Z</time>
      </trkpt>
      <trkpt lat="44.54247" lon="4.23455">
        <ele>524</ele>
        <time>2016-05-15T09:02:36.000Z</time>
      </trkpt>
      <trkpt lat="44.54248" lon="4.23452">
        <ele>524</ele>
        <time>2016-05-15T09:02:37.000Z</time>
      </trkpt>
      <trkpt lat="44.54249" lon="4.23449">
        <ele>525</ele>
        <time>2016-05-15T09:02:38.000Z</time>
      </trkpt>
      <trkpt lat="44.54249" lon="4.23446">
        <ele>525</ele>
        <time>2016-05-15T09:02:39.000Z</time>
      </trkpt>
      <trkpt lat="44.5425" lon="4.23442">
        <ele>525</ele>
        <time>2016-05-15T09:02:40.000Z</time>
      </trkpt>
      <trkpt lat="44.54251" lon="4.23438">
        <ele>527</ele>
        <time>2016-05-15T09:02:41.000Z</time>
      </trkpt>
      <trkpt lat="44.54251" lon="4.23435">
        <ele>527</ele>
        <time>2016-05-15T09:02:42.000Z</time>
      </trkpt>
      <trkpt lat="44.54252" lon="4.23431">
        <ele>527</ele>
        <time>2016-05-15T09:02:43.000Z</time>
      </trkpt>
      <trkpt lat="44.54252" lon="4.23429">
        <ele>527</ele>
        <time>2016-05-15T09:02:44.000Z</time>
      </trkpt>
      <trkpt lat="44.54254" lon="4.23426">
        <ele>527</ele>
        <time>2016-05-15T09:02:45.000Z</time>
      </trkpt>
      <trkpt lat="44.54255" lon="4.23424">
        <ele>527</ele>
        <time>2016-05-15T09:02:46.000Z</time>
      </trkpt>
      <trkpt lat="44.54257" lon="4.23423">
        <ele>527</ele>
        <time>2016-05-15T09:02:47.000Z</time>
      </trkpt>
      <trkpt lat="44.54258" lon="4.23421">
        <ele>527</ele>
        <time>2016-05-15T09:02:48.000Z</time>
      </trkpt>
      <trkpt lat="44.5426" lon="4.23419">
        <ele>527</ele>
        <time>2016-05-15T09:02:49.000Z</time>
      </trkpt>
      <trkpt lat="44.54261" lon="4.23417">
        <ele>527</ele>
        <time>2016-05-15T09:02:50.000Z</time>
      </trkpt>
      <trkpt lat="44.54262" lon="4.23415">
        <ele>528</ele>
        <time>2016-05-15T09:02:51.000Z</time>
      </trkpt>
      <trkpt lat="44.54264" lon="4.23413">
        <ele>528</ele>
        <time>2016-05-15T09:02:52.000Z</time>
      </trkpt>
      <trkpt lat="44.54265" lon="4.23411">
        <ele>529</ele>
        <time>2016-05-15T09:02:53.000Z</time>
      </trkpt>
      <trkpt lat="44.54266" lon="4.23409">
        <ele>529</ele>
        <time>2016-05-15T09:02:54.000Z</time>
      </trkpt>
      <trkpt lat="44.54268" lon="4.23407">
        <ele>529</ele>
        <time>2016-05-15T09:02:55.000Z</time>
      </trkpt>
      <trkpt lat="44.54269" lon="4.23406">
        <ele>529</ele>
        <time>2016-05-15T09:02:56.000Z</time>
      </trkpt>
      <trkpt lat="44.54271" lon="4.23404">
        <ele>529</ele>
        <time>2016-05-15T09:02:57.000Z</time>
      </trkpt>
      <trkpt lat="44.54272" lon="4.23403">
        <ele>530</ele>
        <time>2016-05-15T09:02:58.000Z</time>
      </trkpt>
      <trkpt lat="44.54273" lon="4.23401">
        <ele>530</ele>
        <time>2016-05-15T09:02:59.000Z</time>
      </trkpt>
      <trkpt lat="44.54275" lon="4.234">
        <ele>530</ele>
        <time>2016-05-15T09:03:00.000Z</time>
      </trkpt>
      <trkpt lat="44.54276" lon="4.23398">
        <ele>530</ele>
        <time>2016-05-15T09:03:01.000Z</time>
      </trkpt>
      <trkpt lat="44.54278" lon="4.23395">
        <ele>530</ele>
        <time>2016-05-15T09:03:02.000Z</time>
      </trkpt>
      <trkpt lat="44.5428" lon="4.23393">
        <ele>531</ele>
        <time>2016-05-15T09:03:03.000Z</time>
      </trkpt>
      <trkpt lat="44.54282" lon="4.23391">
        <ele>531</ele>
        <time>2016-05-15T09:03:04.000Z</time>
      </trkpt>
      <trkpt lat="44.54284" lon="4.2339">
        <ele>531</ele>
        <time>2016-05-15T09:03:05.000Z</time>
      </trkpt>
      <trkpt lat="44.54286" lon="4.23389">
        <ele>531</ele>
        <time>2016-05-15T09:03:06.000Z</time>
      </trkpt>
      <trkpt lat="44.54288" lon="4.23388">
        <ele>531</ele>
        <time>2016-05-15T09:03:07.000Z</time>
      </trkpt>
      <trkpt lat="44.5429" lon="4.23387">
        <ele>531</ele>
        <time>2016-05-15T09:03:08.000Z</time>
      </trkpt>
      <trkpt lat="44.54292" lon="4.23386">
        <ele>531</ele>
        <time>2016-05-15T09:03:09.000Z</time>
      </trkpt>
      <trkpt lat="44.54294" lon="4.23385">
        <ele>532</ele>
        <time>2016-05-15T09:03:10.000Z</time>
      </trkpt>
      <trkpt lat="44.54296" lon="4.23385">
        <ele>532</ele>
        <time>2016-05-15T09:03:11.000Z</time>
      </trkpt>
      <trkpt lat="44.54298" lon="4.23384">
        <ele>532</ele>
        <time>2016-05-15T09:03:12.000Z</time>
      </trkpt>
      <trkpt lat="44.54301" lon="4.23383">
        <ele>532</ele>
        <time>2016-05-15T09:03:13.000Z</time>
      </trkpt>
      <trkpt lat="44.54303" lon="4.23383">
        <ele>532</ele>
        <time>2016-05-15T09:03:14.000Z</time>
      </trkpt>
      <trkpt lat="44.54305" lon="4.23382">
        <ele>532</ele>
        <time>2016-05-15T09:03:15.000Z</time>
      </trkpt>
      <trkpt lat="44.54306" lon="4.23381">
        <ele>532</ele>
        <time>2016-05-15T09:03:16.000Z</time>
      </trkpt>
      <trkpt lat="44.54308" lon="4.23379">
        <ele>532</ele>
        <time>2016-05-15T09:03:17.000Z</time>
      </trkpt>
      <trkpt lat="44.54309" lon="4.23378">
        <ele>532</ele>
        <time>2016-05-15T09:03:18.000Z</time>
      </trkpt>
      <trkpt lat="44.54311" lon="4.23377">
        <ele>532</ele>
        <time>2016-05-15T09:03:19.000Z</time>
      </trkpt>
      <trkpt lat="44.54313" lon="4.23376">
        <ele>533</ele>
        <time>2016-05-15T09:03:20.000Z</time>
      </trkpt>
      <trkpt lat="44.54315" lon="4.23375">
        <ele>533</ele>
        <time>2016-05-15T09:03:21.000Z</time>
      </trkpt>
      <trkpt lat="44.54316" lon="4.23374">
        <ele>533</ele>
        <time>2016-05-15T09:03:22.000Z</time>
      </trkpt>
      <trkpt lat="44.54318" lon="4.23373">
        <ele>533</ele>
        <time>2016-05-15T09:03:23.000Z</time>
      </trkpt>
      <trkpt lat="44.54319" lon="4.23372">
        <ele>533</ele>
        <time>2016-05-15T09:03:24.000Z</time>
      </trkpt>
      <trkpt lat="44.5432" lon="4.23372">
        <ele>533</ele>
        <time>2016-05-15T09:03:25.000Z</time>
      </trkpt>
      <trkpt lat="44.54321" lon="4.23371">
        <ele>533</ele>
        <time>2016-05-15T09:03:26.000Z</time>
      </trkpt>
      <trkpt lat="44.54322" lon="4.2337">
        <ele>533</ele>
        <time>2016-05-15T09:03:27.000Z</time>
      </trkpt>
      <trkpt lat="44.54324" lon="4.2337">
        <ele>533</ele>
        <time>2016-05-15T09:03:28.000Z</time>
      </trkpt>
      <trkpt lat="44.54325" lon="4.23369">
        <ele>533</ele>
        <time>2016-05-15T09:03:29.000Z</time>
      </trkpt>
      <trkpt lat="44.54326" lon="4.23368">
        <ele>533</ele>
        <time>2016-05-15T09:03:30.000Z</time>
      </trkpt>
      <trkpt lat="44.54327" lon="4.23367">
        <ele>533</ele>
        <time>2016-05-15T09:03:31.000Z</time>
      </trkpt>
      <trkpt lat="44.54329" lon="4.23366">
        <ele>533</ele>
        <time>2016-05-15T09:03:32.000Z</time>
      </trkpt>
      <trkpt lat="44.5433" lon="4.23365">
        <ele>533</ele>
        <time>2016-05-15T09:03:33.000Z</time>
      </trkpt>
      <trkpt lat="44.54331" lon="4.23364">
        <ele>534</ele>
        <time>2016-05-15T09:03:34.000Z</time>
      </trkpt>
      <trkpt lat="44.54333" lon="4.23363">
        <ele>534</ele>
        <time>2016-05-15T09:03:35.000Z</time>
      </trkpt>
      <trkpt lat="44.54334" lon="4.23363">
        <ele>539</ele>
        <time>2016-05-15T09:03:36.000Z</time>
      </trkpt>
      <trkpt lat="44.54335" lon="4.23362">
        <ele>539</ele>
        <time>2016-05-15T09:03:37.000Z</time>
      </trkpt>
      <trkpt lat="44.54336" lon="4.23361">
        <ele>539</ele>
        <time>2016-05-15T09:03:38.000Z</time>
      </trkpt>
      <trkpt lat="44.54337" lon="4.23359">
        <ele>539</ele>
        <time>2016-05-15T09:03:39.000Z</time>
      </trkpt>
      <trkpt lat="44.54338" lon="4.23358">
        <ele>539</ele>
        <time>2016-05-15T09:03:40.000Z</time>
      </trkpt>
      <trkpt lat="44.54339" lon="4.23357">
        <ele>539</ele>
        <time>2016-05-15T09:03:41.000Z</time>
      </trkpt>
      <trkpt lat="44.5434" lon="4.23357">
        <ele>539</ele>
        <time>2016-05-15T09:03:42.000Z</time>
      </trkpt>
      <trkpt lat="44.54341" lon="4.23357">
        <ele>539</ele>
        <time>2016-05-15T09:03:43.000Z</time>
      </trkpt>
      <trkpt lat="44.54342" lon="4.23358">
        <ele>539</ele>
        <time>2016-05-15T09:03:44.000Z</time>
      </trkpt>
      <trkpt lat="44.54343" lon="4.23359">
        <ele>539</ele>
        <time>2016-05-15T09:03:45.000Z</time>
      </trkpt>
      <trkpt lat="44.54344" lon="4.23361">
        <ele>539</ele>
        <time>2016-05-15T09:03:46.000Z</time>
      </trkpt>
      <trkpt lat="44.54345" lon="4.23362">
        <ele>539</ele>
        <time>2016-05-15T09:03:47.000Z</time>
      </trkpt>
      <trkpt lat="44.54346" lon="4.23364">
        <ele>539</ele>
        <time>2016-05-15T09:03:48.000Z</time>
      </trkpt>
      <trkpt lat="44.54346" lon="4.23365">
        <ele>539</ele>
        <time>2016-05-15T09:03:49.000Z</time>
      </trkpt>
      <trkpt lat="44.54347" lon="4.23367">
        <ele>539</ele>
        <time>2016-05-15T09:03:50.000Z</time>
      </trkpt>
      <trkpt lat="44.54347" lon="4.23369">
        <ele>539</ele>
        <time>2016-05-15T09:03:51.000Z</time>
      </trkpt>
      <trkpt lat="44.54348" lon="4.23371">
        <ele>539</ele>
        <time>2016-05-15T09:03:52.000Z</time>
      </trkpt>
      <trkpt lat="44.54349" lon="4.23373">
        <ele>539</ele>
        <time>2016-05-15T09:03:53.000Z</time>
      </trkpt>
      <trkpt lat="44.54349" lon="4.23375">
        <ele>539</ele>
        <time>2016-05-15T09:03:54.000Z</time>
      </trkpt>
      <trkpt lat="44.5435" lon="4.23377">
        <ele>539</ele>
        <time>2016-05-15T09:03:55.000Z</time>
      </trkpt>
      <trkpt lat="44.54351" lon="4.23379">
        <ele>539</ele>
        <time>2016-05-15T09:03:56.000Z</time>
      </trkpt>
      <trkpt lat="44.54351" lon="4.23381">
        <ele>539</ele>
        <time>2016-05-15T09:03:57.000Z</time>
      </trkpt>
      <trkpt lat="44.54352" lon="4.23382">
        <ele>539</ele>
        <time>2016-05-15T09:03:58.000Z</time>
      </trkpt>
      <trkpt lat="44.54354" lon="4.23384">
        <ele>539</ele>
        <time>2016-05-15T09:03:59.000Z</time>
      </trkpt>
      <trkpt lat="44.54355" lon="4.23384">
        <ele>539</ele>
        <time>2016-05-15T09:04:00.000Z</time>
      </trkpt>
      <trkpt lat="44.54357" lon="4.23384">
        <ele>539</ele>
        <time>2016-05-15T09:04:01.000Z</time>
      </trkpt>
      <trkpt lat="44.54358" lon="4.23384">
        <ele>539</ele>
        <time>2016-05-15T09:04:02.000Z</time>
      </trkpt>
      <trkpt lat="44.54359" lon="4.23383">
        <ele>539</ele>
        <time>2016-05-15T09:04:03.000Z</time>
      </trkpt>
      <trkpt lat="44.5436" lon="4.23383">
        <ele>539</ele>
        <time>2016-05-15T09:04:04.000Z</time>
      </trkpt>
      <trkpt lat="44.54361" lon="4.23381">
        <ele>539</ele>
        <time>2016-05-15T09:04:05.000Z</time>
      </trkpt>
      <trkpt lat="44.54362" lon="4.2338">
        <ele>539</ele>
        <time>2016-05-15T09:04:06.000Z</time>
      </trkpt>
      <trkpt lat="44.54364" lon="4.23379">
        <ele>539</ele>
        <time>2016-05-15T09:04:07.000Z</time>
      </trkpt>
      <trkpt lat="44.54365" lon="4.23377">
        <ele>539</ele>
        <time>2016-05-15T09:04:08.000Z</time>
      </trkpt>
      <trkpt lat="44.54366" lon="4.23375">
        <ele>540</ele>
        <time>2016-05-15T09:04:09.000Z</time>
      </trkpt>
      <trkpt lat="44.54367" lon="4.23374">
        <ele>540</ele>
        <time>2016-05-15T09:04:10.000Z</time>
      </trkpt>
      <trkpt lat="44.54368" lon="4.23373">
        <ele>540</ele>
        <time>2016-05-15T09:04:11.000Z</time>
      </trkpt>
      <trkpt lat="44.5437" lon="4.23371">
        <ele>540</ele>
        <time>2016-05-15T09:04:12.000Z</time>
      </trkpt>
      <trkpt lat="44.54371" lon="4.2337">
        <ele>540</ele>
        <time>2016-05-15T09:04:13.000Z</time>
      </trkpt>
      <trkpt lat="44.54372" lon="4.23368">
        <ele>540</ele>
        <time>2016-05-15T09:04:14.000Z</time>
      </trkpt>
      <trkpt lat="44.54373" lon="4.23367">
        <ele>540</ele>
        <time>2016-05-15T09:04:15.000Z</time>
      </trkpt>
      <trkpt lat="44.54374" lon="4.23366">
        <ele>540</ele>
        <time>2016-05-15T09:04:16.000Z</time>
      </trkpt>
      <trkpt lat="44.54375" lon="4.23365">
        <ele>540</ele>
        <time>2016-05-15T09:04:17.000Z</time>
      </trkpt>
      <trkpt lat="44.54376" lon="4.23363">
        <ele>540</ele>
        <time>2016-05-15T09:04:18.000Z</time>
      </trkpt>
      <trkpt lat="44.54377" lon="4.23362">
        <ele>540</ele>
        <time>2016-05-15T09:04:19.000Z</time>
      </trkpt>
      <trkpt lat="44.54379" lon="4.2336">
        <ele>540</ele>
        <time>2016-05-15T09:04:20.000Z</time>
      </trkpt>
      <trkpt lat="44.5438" lon="4.23359">
        <ele>541</ele>
        <time>2016-05-15T09:04:21.000Z</time>
      </trkpt>
      <trkpt lat="44.54381" lon="4.23357">
        <ele>541</ele>
        <time>2016-05-15T09:04:22.000Z</time>
      </trkpt>
      <trkpt lat="44.54382" lon="4.23355">
        <ele>541</ele>
        <time>2016-05-15T09:04:23.000Z</time>
      </trkpt>
      <trkpt lat="44.54383" lon="4.23353">
        <ele>541</ele>
        <time>2016-05-15T09:04:24.000Z</time>
      </trkpt>
      <trkpt lat="44.54384" lon="4.23351">
        <ele>541</ele>
        <time>2016-05-15T09:04:25.000Z</time>
      </trkpt>
      <trkpt lat="44.54385" lon="4.2335">
        <ele>541</ele>
        <time>2016-05-15T09:04:26.000Z</time>
      </trkpt>
      <trkpt lat="44.54386" lon="4.23348">
        <ele>541</ele>
        <time>2016-05-15T09:04:27.000Z</time>
      </trkpt>
      <trkpt lat="44.54388" lon="4.23347">
        <ele>541</ele>
        <time>2016-05-15T09:04:28.000Z</time>
      </trkpt>
      <trkpt lat="44.54389" lon="4.23346">
        <ele>542</ele>
        <time>2016-05-15T09:04:29.000Z</time>
      </trkpt>
      <trkpt lat="44.5439" lon="4.23345">
        <ele>542</ele>
        <time>2016-05-15T09:04:30.000Z</time>
      </trkpt>
      <trkpt lat="44.54391" lon="4.23344">
        <ele>542</ele>
        <time>2016-05-15T09:04:31.000Z</time>
      </trkpt>
      <trkpt lat="44.54393" lon="4.23343">
        <ele>542</ele>
        <time>2016-05-15T09:04:32.000Z</time>
      </trkpt>
      <trkpt lat="44.54394" lon="4.23341">
        <ele>542</ele>
        <time>2016-05-15T09:04:33.000Z</time>
      </trkpt>
      <trkpt lat="44.54395" lon="4.2334">
        <ele>542</ele>
        <time>2016-05-15T09:04:34.000Z</time>
      </trkpt>
      <trkpt lat="44.54396" lon="4.23339">
        <ele>542</ele>
        <time>2016-05-15T09:04:35.000Z</time>
      </trkpt>
      <trkpt lat="44.54398" lon="4.23338">
        <ele>543</ele>
        <time>2016-05-15T09:04:36.000Z</time>
      </trkpt>
      <trkpt lat="44.54399" lon="4.23337">
        <ele>543</ele>
        <time>2016-05-15T09:04:37.000Z</time>
      </trkpt>
      <trkpt lat="44.544" lon="4.23335">
        <ele>543</ele>
        <time>2016-05-15T09:04:38.000Z</time>
      </trkpt>
      <trkpt lat="44.54401" lon="4.23334">
        <ele>543</ele>
        <time>2016-05-15T09:04:39.000Z</time>
      </trkpt>
      <trkpt lat="44.54403" lon="4.23332">
        <ele>545</ele>
        <time>2016-05-15T09:04:40.000Z</time>
      </trkpt>
      <trkpt lat="44.54404" lon="4.23332">
        <ele>545</ele>
        <time>2016-05-15T09:04:41.000Z</time>
      </trkpt>
      <trkpt lat="44.54406" lon="4.23331">
        <ele>545</ele>
        <time>2016-05-15T09:04:42.000Z</time>
      </trkpt>
      <trkpt lat="44.54408" lon="4.23331">
        <ele>545</ele>
        <time>2016-05-15T09:04:43.000Z</time>
      </trkpt>
      <trkpt lat="44.54409" lon="4.23331">
        <ele>545</ele>
        <time>2016-05-15T09:04:44.000Z</time>
      </trkpt>
      <trkpt lat="44.54411" lon="4.23331">
        <ele>546</ele>
        <time>2016-05-15T09:04:45.000Z</time>
      </trkpt>
      <trkpt lat="44.54412" lon="4.23331">
        <ele>546</ele>
        <time>2016-05-15T09:04:46.000Z</time>
      </trkpt>
      <trkpt lat="44.54413" lon="4.23332">
        <ele>546</ele>
        <time>2016-05-15T09:04:47.000Z</time>
      </trkpt>
      <trkpt lat="44.54415" lon="4.23332">
        <ele>546</ele>
        <time>2016-05-15T09:04:48.000Z</time>
      </trkpt>
      <trkpt lat="44.54416" lon="4.23333">
        <ele>546</ele>
        <time>2016-05-15T09:04:49.000Z</time>
      </trkpt>
      <trkpt lat="44.54418" lon="4.23333">
        <ele>546</ele>
        <time>2016-05-15T09:04:50.000Z</time>
      </trkpt>
      <trkpt lat="44.54419" lon="4.23333">
        <ele>547</ele>
        <time>2016-05-15T09:04:51.000Z</time>
      </trkpt>
      <trkpt lat="44.54421" lon="4.23332">
        <ele>547</ele>
        <time>2016-05-15T09:04:52.000Z</time>
      </trkpt>
      <trkpt lat="44.54422" lon="4.23332">
        <ele>547</ele>
        <time>2016-05-15T09:04:53.000Z</time>
      </trkpt>
      <trkpt lat="44.54424" lon="4.23331">
        <ele>548</ele>
        <time>2016-05-15T09:04:54.000Z</time>
      </trkpt>
      <trkpt lat="44.54425" lon="4.23329">
        <ele>548</ele>
        <time>2016-05-15T09:04:55.000Z</time>
      </trkpt>
      <trkpt lat="44.54427" lon="4.23328">
        <ele>549</ele>
        <time>2016-05-15T09:04:56.000Z</time>
      </trkpt>
      <trkpt lat="44.54428" lon="4.23326">
        <ele>549</ele>
        <time>2016-05-15T09:04:57.000Z</time>
      </trkpt>
      <trkpt lat="44.54429" lon="4.23324">
        <ele>549</ele>
        <time>2016-05-15T09:04:58.000Z</time>
      </trkpt>
      <trkpt lat="44.5443" lon="4.23322">
        <ele>550</ele>
        <time>2016-05-15T09:04:59.000Z</time>
      </trkpt>
      <trkpt lat="44.54431" lon="4.2332">
        <ele>550</ele>
        <time>2016-05-15T09:05:00.000Z</time>
      </trkpt>
      <trkpt lat="44.54432" lon="4.23319">
        <ele>550</ele>
        <time>2016-05-15T09:05:01.000Z</time>
      </trkpt>
      <trkpt lat="44.54433" lon="4.23318">
        <ele>550</ele>
        <time>2016-05-15T09:05:02.000Z</time>
      </trkpt>
      <trkpt lat="44.54433" lon="4.23317">
        <ele>550</ele>
        <time>2016-05-15T09:05:03.000Z</time>
      </trkpt>
      <trkpt lat="44.54434" lon="4.23315">
        <ele>551</ele>
        <time>2016-05-15T09:05:04.000Z</time>
      </trkpt>
      <trkpt lat="44.54435" lon="4.23313">
        <ele>551</ele>
        <time>2016-05-15T09:05:05.000Z</time>
      </trkpt>
      <trkpt lat="44.54436" lon="4.23312">
        <ele>551</ele>
        <time>2016-05-15T09:05:06.000Z</time>
      </trkpt>
      <trkpt lat="44.54436" lon="4.2331">
        <ele>551</ele>
        <time>2016-05-15T09:05:07.000Z</time>
      </trkpt>
      <trkpt lat="44.54437" lon="4.23309">
        <ele>551</ele>
        <time>2016-05-15T09:05:08.000Z</time>
      </trkpt>
      <trkpt lat="44.54439" lon="4.23308">
        <ele>551</ele>
        <time>2016-05-15T09:05:09.000Z</time>
      </trkpt>
      <trkpt lat="44.5444" lon="4.23307">
        <ele>551</ele>
        <time>2016-05-15T09:05:10.000Z</time>
      </trkpt>
      <trkpt lat="44.54441" lon="4.23306">
        <ele>552</ele>
        <time>2016-05-15T09:05:11.000Z</time>
      </trkpt>
      <trkpt lat="44.54443" lon="4.23304">
        <ele>552</ele>
        <time>2016-05-15T09:05:12.000Z</time>
      </trkpt>
      <trkpt lat="44.54444" lon="4.23302">
        <ele>552</ele>
        <time>2016-05-15T09:05:13.000Z</time>
      </trkpt>
      <trkpt lat="44.54445" lon="4.233">
        <ele>552</ele>
        <time>2016-05-15T09:05:14.000Z</time>
      </trkpt>
      <trkpt lat="44.54446" lon="4.23298">
        <ele>552</ele>
        <time>2016-05-15T09:05:15.000Z</time>
      </trkpt>
      <trkpt lat="44.54446" lon="4.23296">
        <ele>552</ele>
        <time>2016-05-15T09:05:16.000Z</time>
      </trkpt>
      <trkpt lat="44.54447" lon="4.23295">
        <ele>553</ele>
        <time>2016-05-15T09:05:17.000Z</time>
      </trkpt>
      <trkpt lat="44.54448" lon="4.23293">
        <ele>553</ele>
        <time>2016-05-15T09:05:18.000Z</time>
      </trkpt>
      <trkpt lat="44.54449" lon="4.23292">
        <ele>553</ele>
        <time>2016-05-15T09:05:19.000Z</time>
      </trkpt>
      <trkpt lat="44.5445" lon="4.2329">
        <ele>553</ele>
        <time>2016-05-15T09:05:20.000Z</time>
      </trkpt>
      <trkpt lat="44.54451" lon="4.23288">
        <ele>553</ele>
        <time>2016-05-15T09:05:21.000Z</time>
      </trkpt>
      <trkpt lat="44.54452" lon="4.23287">
        <ele>553</ele>
        <time>2016-05-15T09:05:22.000Z</time>
      </trkpt>
      <trkpt lat="44.54453" lon="4.23285">
        <ele>553</ele>
        <time>2016-05-15T09:05:23.000Z</time>
      </trkpt>
      <trkpt lat="44.54454" lon="4.23283">
        <ele>553</ele>
        <time>2016-05-15T09:05:24.000Z</time>
      </trkpt>
      <trkpt lat="44.54455" lon="4.23282">
        <ele>554</ele>
        <time>2016-05-15T09:05:25.000Z</time>
      </trkpt>
      <trkpt lat="44.54456" lon="4.23281">
        <ele>554</ele>
        <time>2016-05-15T09:05:26.000Z</time>
      </trkpt>
      <trkpt lat="44.54457" lon="4.23279">
        <ele>554</ele>
        <time>2016-05-15T09:05:27.000Z</time>
      </trkpt>
      <trkpt lat="44.54458" lon="4.23278">
        <ele>554</ele>
        <time>2016-05-15T09:05:28.000Z</time>
      </trkpt>
      <trkpt lat="44.54459" lon="4.23276">
        <ele>554</ele>
        <time>2016-05-15T09:05:29.000Z</time>
      </trkpt>
      <trkpt lat="44.5446" lon="4.23275">
        <ele>554</ele>
        <time>2016-05-15T09:05:30.000Z</time>
      </trkpt>
      <trkpt lat="44.54461" lon="4.23273">
        <ele>554</ele>
        <time>2016-05-15T09:05:31.000Z</time>
      </trkpt>
      <trkpt lat="44.54462" lon="4.23271">
        <ele>554</ele>
        <time>2016-05-15T09:05:32.000Z</time>
      </trkpt>
      <trkpt lat="44.54462" lon="4.23269">
        <ele>555</ele>
        <time>2016-05-15T09:05:33.000Z</time>
      </trkpt>
      <trkpt lat="44.54463" lon="4.23267">
        <ele>555</ele>
        <time>2016-05-15T09:05:34.000Z</time>
      </trkpt>
      <trkpt lat="44.54464" lon="4.23266">
        <ele>555</ele>
        <time>2016-05-15T09:05:35.000Z</time>
      </trkpt>
      <trkpt lat="44.54464" lon="4.23263">
        <ele>555</ele>
        <time>2016-05-15T09:05:36.000Z</time>
      </trkpt>
      <trkpt lat="44.54464" lon="4.23261">
        <ele>555</ele>
        <time>2016-05-15T09:05:37.000Z</time>
      </trkpt>
      <trkpt lat="44.54465" lon="4.23259">
        <ele>555</ele>
        <time>2016-05-15T09:05:38.000Z</time>
      </trkpt>
      <trkpt lat="44.54466" lon="4.23258">
        <ele>555</ele>
        <time>2016-05-15T09:05:39.000Z</time>
      </trkpt>
      <trkpt lat="44.54467" lon="4.23256">
        <ele>556</ele>
        <time>2016-05-15T09:05:40.000Z</time>
      </trkpt>
      <trkpt lat="44.54468" lon="4.23255">
        <ele>556</ele>
        <time>2016-05-15T09:05:41.000Z</time>
      </trkpt>
      <trkpt lat="44.54469" lon="4.23253">
        <ele>556</ele>
        <time>2016-05-15T09:05:42.000Z</time>
      </trkpt>
      <trkpt lat="44.5447" lon="4.23251">
        <ele>556</ele>
        <time>2016-05-15T09:05:43.000Z</time>
      </trkpt>
      <trkpt lat="44.54471" lon="4.23249">
        <ele>562</ele>
        <time>2016-05-15T09:05:44.000Z</time>
      </trkpt>
      <trkpt lat="44.54472" lon="4.23247">
        <ele>563</ele>
        <time>2016-05-15T09:05:45.000Z</time>
      </trkpt>
      <trkpt lat="44.54473" lon="4.23245">
        <ele>563</ele>
        <time>2016-05-15T09:05:46.000Z</time>
      </trkpt>
      <trkpt lat="44.54474" lon="4.23243">
        <ele>563</ele>
        <time>2016-05-15T09:05:47.000Z</time>
      </trkpt>
      <trkpt lat="44.54475" lon="4.23242">
        <ele>563</ele>
        <time>2016-05-15T09:05:48.000Z</time>
      </trkpt>
      <trkpt lat="44.54475" lon="4.2324">
        <ele>563</ele>
        <time>2016-05-15T09:05:49.000Z</time>
      </trkpt>
      <trkpt lat="44.54475" lon="4.23238">
        <ele>563</ele>
        <time>2016-05-15T09:05:50.000Z</time>
      </trkpt>
      <trkpt lat="44.54475" lon="4.23235">
        <ele>563</ele>
        <time>2016-05-15T09:05:51.000Z</time>
      </trkpt>
      <trkpt lat="44.54475" lon="4.23233">
        <ele>563</ele>
        <time>2016-05-15T09:05:52.000Z</time>
      </trkpt>
      <trkpt lat="44.54474" lon="4.23231">
        <ele>563</ele>
        <time>2016-05-15T09:05:53.000Z</time>
      </trkpt>
      <trkpt lat="44.54474" lon="4.23229">
        <ele>563</ele>
        <time>2016-05-15T09:05:54.000Z</time>
      </trkpt>
      <trkpt lat="44.54473" lon="4.23227">
        <ele>563</ele>
        <time>2016-05-15T09:05:55.000Z</time>
      </trkpt>
      <trkpt lat="44.54473" lon="4.23225">
        <ele>563</ele>
        <time>2016-05-15T09:05:56.000Z</time>
      </trkpt>
      <trkpt lat="44.54473" lon="4.23223">
        <ele>564</ele>
        <time>2016-05-15T09:05:57.000Z</time>
      </trkpt>
      <trkpt lat="44.54472" lon="4.23221">
        <ele>564</ele>
        <time>2016-05-15T09:05:58.000Z</time>
      </trkpt>
      <trkpt lat="44.54472" lon="4.23219">
        <ele>564</ele>
        <time>2016-05-15T09:05:59.000Z</time>
      </trkpt>
      <trkpt lat="44.54471" lon="4.23218">
        <ele>564</ele>
        <time>2016-05-15T09:06:00.000Z</time>
      </trkpt>
      <trkpt lat="44.5447" lon="4.23216">
        <ele>564</ele>
        <time>2016-05-15T09:06:01.000Z</time>
      </trkpt>
      <trkpt lat="44.54469" lon="4.23214">
        <ele>564</ele>
        <time>2016-05-15T09:06:02.000Z</time>
      </trkpt>
      <trkpt lat="44.54469" lon="4.23212">
        <ele>564</ele>
        <time>2016-05-15T09:06:03.000Z</time>
      </trkpt>
      <trkpt lat="44.54468" lon="4.2321">
        <ele>564</ele>
        <time>2016-05-15T09:06:04.000Z</time>
      </trkpt>
      <trkpt lat="44.54467" lon="4.23208">
        <ele>564</ele>
        <time>2016-05-15T09:06:05.000Z</time>
      </trkpt>
      <trkpt lat="44.54466" lon="4.23207">
        <ele>564</ele>
        <time>2016-05-15T09:06:06.000Z</time>
      </trkpt>
      <trkpt lat="44.54465" lon="4.23205">
        <ele>564</ele>
        <time>2016-05-15T09:06:07.000Z</time>
      </trkpt>
      <trkpt lat="44.54464" lon="4.23203">
        <ele>565</ele>
        <time>2016-05-15T09:06:08.000Z</time>
      </trkpt>
      <trkpt lat="44.54463" lon="4.23202">
        <ele>565</ele>
        <time>2016-05-15T09:06:09.000Z</time>
      </trkpt>
      <trkpt lat="44.54461" lon="4.232">
        <ele>565</ele>
        <time>2016-05-15T09:06:10.000Z</time>
      </trkpt>
      <trkpt lat="44.5446" lon="4.23199">
        <ele>565</ele>
        <time>2016-05-15T09:06:11.000Z</time>
      </trkpt>
      <trkpt lat="44.54459" lon="4.23197">
        <ele>565</ele>
        <time>2016-05-15T09:06:12.000Z</time>
      </trkpt>
      <trkpt lat="44.54457" lon="4.23196">
        <ele>565</ele>
        <time>2016-05-15T09:06:13.000Z</time>
      </trkpt>
      <trkpt lat="44.54456" lon="4.23194">
        <ele>565</ele>
        <time>2016-05-15T09:06:14.000Z</time>
      </trkpt>
      <trkpt lat="44.54455" lon="4.23193">
        <ele>565</ele>
        <time>2016-05-15T09:06:15.000Z</time>
      </trkpt>
      <trkpt lat="44.54453" lon="4.23191">
        <ele>565</ele>
        <time>2016-05-15T09:06:16.000Z</time>
      </trkpt>
      <trkpt lat="44.54452" lon="4.23189">
        <ele>565</ele>
        <time>2016-05-15T09:06:17.000Z</time>
      </trkpt>
      <trkpt lat="44.54451" lon="4.23187">
        <ele>565</ele>
        <time>2016-05-15T09:06:18.000Z</time>
      </trkpt>
      <trkpt lat="44.5445" lon="4.23186">
        <ele>565</ele>
        <time>2016-05-15T09:06:19.000Z</time>
      </trkpt>
      <trkpt lat="44.54448" lon="4.23184">
        <ele>565</ele>
        <time>2016-05-15T09:06:20.000Z</time>
      </trkpt>
      <trkpt lat="44.54447" lon="4.23183">
        <ele>565</ele>
        <time>2016-05-15T09:06:21.000Z</time>
      </trkpt>
      <trkpt lat="44.54446" lon="4.23181">
        <ele>565</ele>
        <time>2016-05-15T09:06:22.000Z</time>
      </trkpt>
      <trkpt lat="44.54444" lon="4.2318">
        <ele>565</ele>
        <time>2016-05-15T09:06:23.000Z</time>
      </trkpt>
      <trkpt lat="44.54443" lon="4.23178">
        <ele>565</ele>
        <time>2016-05-15T09:06:24.000Z</time>
      </trkpt>
      <trkpt lat="44.54442" lon="4.23177">
        <ele>564</ele>
        <time>2016-05-15T09:06:25.000Z</time>
      </trkpt>
      <trkpt lat="44.5444" lon="4.23175">
        <ele>564</ele>
        <time>2016-05-15T09:06:26.000Z</time>
      </trkpt>
      <trkpt lat="44.5444" lon="4.23174">
        <ele>564</ele>
        <time>2016-05-15T09:06:27.000Z</time>
      </trkpt>
      <trkpt lat="44.54439" lon="4.23172">
        <ele>564</ele>
        <time>2016-05-15T09:06:28.000Z</time>
      </trkpt>
      <trkpt lat="44.54438" lon="4.2317">
        <ele>564</ele>
        <time>2016-05-15T09:06:29.000Z</time>
      </trkpt>
      <trkpt lat="44.54437" lon="4.23168">
        <ele>564</ele>
        <time>2016-05-15T09:06:30.000Z</time>
      </trkpt>
      <trkpt lat="44.54436" lon="4.23166">
        <ele>571</ele>
        <time>2016-05-15T09:06:31.000Z</time>
      </trkpt>
      <trkpt lat="44.54435" lon="4.23164">
        <ele>571</ele>
        <time>2016-05-15T09:06:32.000Z</time>
      </trkpt>
      <trkpt lat="44.54434" lon="4.23163">
        <ele>571</ele>
        <time>2016-05-15T09:06:33.000Z</time>
      </trkpt>
      <trkpt lat="44.54433" lon="4.23161">
        <ele>571</ele>
        <time>2016-05-15T09:06:34.000Z</time>
      </trkpt>
      <trkpt lat="44.54431" lon="4.23159">
        <ele>571</ele>
        <time>2016-05-15T09:06:35.000Z</time>
      </trkpt>
      <trkpt lat="44.5443" lon="4.23158">
        <ele>571</ele>
        <time>2016-05-15T09:06:36.000Z</time>
      </trkpt>
      <trkpt lat="44.54429" lon="4.23157">
        <ele>570</ele>
        <time>2016-05-15T09:06:37.000Z</time>
      </trkpt>
      <trkpt lat="44.54428" lon="4.23155">
        <ele>571</ele>
        <time>2016-05-15T09:06:38.000Z</time>
      </trkpt>
      <trkpt lat="44.54427" lon="4.23154">
        <ele>571</ele>
        <time>2016-05-15T09:06:39.000Z</time>
      </trkpt>
      <trkpt lat="44.54426" lon="4.23153">
        <ele>571</ele>
        <time>2016-05-15T09:06:40.000Z</time>
      </trkpt>
      <trkpt lat="44.54425" lon="4.23152">
        <ele>571</ele>
        <time>2016-05-15T09:06:41.000Z</time>
      </trkpt>
      <trkpt lat="44.54423" lon="4.23151">
        <ele>571</ele>
        <time>2016-05-15T09:06:42.000Z</time>
      </trkpt>
      <trkpt lat="44.54423" lon="4.2315">
        <ele>571</ele>
        <time>2016-05-15T09:06:43.000Z</time>
      </trkpt>
      <trkpt lat="44.54422" lon="4.23148">
        <ele>571</ele>
        <time>2016-05-15T09:06:44.000Z</time>
      </trkpt>
      <trkpt lat="44.54421" lon="4.23146">
        <ele>572</ele>
        <time>2016-05-15T09:06:45.000Z</time>
      </trkpt>
      <trkpt lat="44.54421" lon="4.23143">
        <ele>572</ele>
        <time>2016-05-15T09:06:46.000Z</time>
      </trkpt>
      <trkpt lat="44.5442" lon="4.23141">
        <ele>573</ele>
        <time>2016-05-15T09:06:47.000Z</time>
      </trkpt>
      <trkpt lat="44.54421" lon="4.23139">
        <ele>573</ele>
        <time>2016-05-15T09:06:48.000Z</time>
      </trkpt>
      <trkpt lat="44.54421" lon="4.23138">
        <ele>574</ele>
        <time>2016-05-15T09:06:49.000Z</time>
      </trkpt>
      <trkpt lat="44.54422" lon="4.23137">
        <ele>574</ele>
        <time>2016-05-15T09:06:50.000Z</time>
      </trkpt>
      <trkpt lat="44.54424" lon="4.23139">
        <ele>573</ele>
        <time>2016-05-15T09:06:51.000Z</time>
      </trkpt>
      <trkpt lat="44.54426" lon="4.2314">
        <ele>573</ele>
        <time>2016-05-15T09:06:52.000Z</time>
      </trkpt>
      <trkpt lat="44.54427" lon="4.23141">
        <ele>573</ele>
        <time>2016-05-15T09:06:53.000Z</time>
      </trkpt>
      <trkpt lat="44.54429" lon="4.23142">
        <ele>573</ele>
        <time>2016-05-15T09:06:54.000Z</time>
      </trkpt>
      <trkpt lat="44.54431" lon="4.23144">
        <ele>573</ele>
        <time>2016-05-15T09:06:55.000Z</time>
      </trkpt>
      <trkpt lat="44.54433" lon="4.23145">
        <ele>573</ele>
        <time>2016-05-15T09:06:56.000Z</time>
      </trkpt>
      <trkpt lat="44.54435" lon="4.23146">
        <ele>573</ele>
        <time>2016-05-15T09:06:57.000Z</time>
      </trkpt>
      <trkpt lat="44.54437" lon="4.23147">
        <ele>573</ele>
        <time>2016-05-15T09:06:58.000Z</time>
      </trkpt>
      <trkpt lat="44.54439" lon="4.23147">
        <ele>574</ele>
        <time>2016-05-15T09:06:59.000Z</time>
      </trkpt>
      <trkpt lat="44.54441" lon="4.23149">
        <ele>574</ele>
        <time>2016-05-15T09:07:00.000Z</time>
      </trkpt>
      <trkpt lat="44.54443" lon="4.2315">
        <ele>574</ele>
        <time>2016-05-15T09:07:01.000Z</time>
      </trkpt>
      <trkpt lat="44.54444" lon="4.23151">
        <ele>574</ele>
        <time>2016-05-15T09:07:02.000Z</time>
      </trkpt>
      <trkpt lat="44.54446" lon="4.23151">
        <ele>574</ele>
        <time>2016-05-15T09:07:03.000Z</time>
      </trkpt>
      <trkpt lat="44.54447" lon="4.23152">
        <ele>574</ele>
        <time>2016-05-15T09:07:04.000Z</time>
      </trkpt>
      <trkpt lat="44.54449" lon="4.23152">
        <ele>574</ele>
        <time>2016-05-15T09:07:05.000Z</time>
      </trkpt>
      <trkpt lat="44.5445" lon="4.23152">
        <ele>575</ele>
        <time>2016-05-15T09:07:06.000Z</time>
      </trkpt>
      <trkpt lat="44.54451" lon="4.23152">
        <ele>575</ele>
        <time>2016-05-15T09:07:07.000Z</time>
      </trkpt>
      <trkpt lat="44.54453" lon="4.23153">
        <ele>575</ele>
        <time>2016-05-15T09:07:08.000Z</time>
      </trkpt>
      <trkpt lat="44.54455" lon="4.23153">
        <ele>575</ele>
        <time>2016-05-15T09:07:09.000Z</time>
      </trkpt>
      <trkpt lat="44.54456" lon="4.23154">
        <ele>575</ele>
        <time>2016-05-15T09:07:10.000Z</time>
      </trkpt>
      <trkpt lat="44.54458" lon="4.23154">
        <ele>575</ele>
        <time>2016-05-15T09:07:11.000Z</time>
      </trkpt>
      <trkpt lat="44.5446" lon="4.23155">
        <ele>575</ele>
        <time>2016-05-15T09:07:12.000Z</time>
      </trkpt>
      <trkpt lat="44.54462" lon="4.23155">
        <ele>576</ele>
        <time>2016-05-15T09:07:13.000Z</time>
      </trkpt>
      <trkpt lat="44.54464" lon="4.23156">
        <ele>576</ele>
        <time>2016-05-15T09:07:14.000Z</time>
      </trkpt>
      <trkpt lat="44.54465" lon="4.23157">
        <ele>576</ele>
        <time>2016-05-15T09:07:15.000Z</time>
      </trkpt>
      <trkpt lat="44.54467" lon="4.23157">
        <ele>576</ele>
        <time>2016-05-15T09:07:16.000Z</time>
      </trkpt>
      <trkpt lat="44.54468" lon="4.23157">
        <ele>576</ele>
        <time>2016-05-15T09:07:17.000Z</time>
      </trkpt>
      <trkpt lat="44.54469" lon="4.23157">
        <ele>576</ele>
        <time>2016-05-15T09:07:18.000Z</time>
      </trkpt>
      <trkpt lat="44.54471" lon="4.23158">
        <ele>576</ele>
        <time>2016-05-15T09:07:19.000Z</time>
      </trkpt>
      <trkpt lat="44.54473" lon="4.23158">
        <ele>576</ele>
        <time>2016-05-15T09:07:20.000Z</time>
      </trkpt>
      <trkpt lat="44.54475" lon="4.23159">
        <ele>576</ele>
        <time>2016-05-15T09:07:21.000Z</time>
      </trkpt>
      <trkpt lat="44.54477" lon="4.23159">
        <ele>576</ele>
        <time>2016-05-15T09:07:22.000Z</time>
      </trkpt>
      <trkpt lat="44.54479" lon="4.2316">
        <ele>576</ele>
        <time>2016-05-15T09:07:23.000Z</time>
      </trkpt>
      <trkpt lat="44.54481" lon="4.23161">
        <ele>576</ele>
        <time>2016-05-15T09:07:24.000Z</time>
      </trkpt>
      <trkpt lat="44.54482" lon="4.23162">
        <ele>576</ele>
        <time>2016-05-15T09:07:25.000Z</time>
      </trkpt>
      <trkpt lat="44.54484" lon="4.23163">
        <ele>577</ele>
        <time>2016-05-15T09:07:26.000Z</time>
      </trkpt>
      <trkpt lat="44.54486" lon="4.23164">
        <ele>576</ele>
        <time>2016-05-15T09:07:27.000Z</time>
      </trkpt>
      <trkpt lat="44.54488" lon="4.23165">
        <ele>576</ele>
        <time>2016-05-15T09:07:28.000Z</time>
      </trkpt>
      <trkpt lat="44.5449" lon="4.23166">
        <ele>576</ele>
        <time>2016-05-15T09:07:29.000Z</time>
      </trkpt>
      <trkpt lat="44.54492" lon="4.23167">
        <ele>576</ele>
        <time>2016-05-15T09:07:30.000Z</time>
      </trkpt>
      <trkpt lat="44.54494" lon="4.23168">
        <ele>573</ele>
        <time>2016-05-15T09:07:31.000Z</time>
      </trkpt>
      <trkpt lat="44.54496" lon="4.23169">
        <ele>574</ele>
        <time>2016-05-15T09:07:32.000Z</time>
      </trkpt>
      <trkpt lat="44.54498" lon="4.2317">
        <ele>574</ele>
        <time>2016-05-15T09:07:33.000Z</time>
      </trkpt>
      <trkpt lat="44.545" lon="4.23171">
        <ele>574</ele>
        <time>2016-05-15T09:07:34.000Z</time>
      </trkpt>
      <trkpt lat="44.54502" lon="4.23172">
        <ele>575</ele>
        <time>2016-05-15T09:07:35.000Z</time>
      </trkpt>
      <trkpt lat="44.54504" lon="4.23173">
        <ele>575</ele>
        <time>2016-05-15T09:07:36.000Z</time>
      </trkpt>
      <trkpt lat="44.54506" lon="4.23174">
        <ele>575</ele>
        <time>2016-05-15T09:07:37.000Z</time>
      </trkpt>
      <trkpt lat="44.54508" lon="4.23175">
        <ele>575</ele>
        <time>2016-05-15T09:07:38.000Z</time>
      </trkpt>
      <trkpt lat="44.5451" lon="4.23175">
        <ele>575</ele>
        <time>2016-05-15T09:07:39.000Z</time>
      </trkpt>
      <trkpt lat="44.54512" lon="4.23176">
        <ele>575</ele>
        <time>2016-05-15T09:07:40.000Z</time>
      </trkpt>
      <trkpt lat="44.54514" lon="4.23177">
        <ele>575</ele>
        <time>2016-05-15T09:07:41.000Z</time>
      </trkpt>
      <trkpt lat="44.54516" lon="4.23178">
        <ele>575</ele>
        <time>2016-05-15T09:07:42.000Z</time>
      </trkpt>
      <trkpt lat="44.54518" lon="4.23178">
        <ele>575</ele>
        <time>2016-05-15T09:07:43.000Z</time>
      </trkpt>
      <trkpt lat="44.5452" lon="4.23179">
        <ele>575</ele>
        <time>2016-05-15T09:07:44.000Z</time>
      </trkpt>
      <trkpt lat="44.54521" lon="4.23179">
        <ele>574</ele>
        <time>2016-05-15T09:07:45.000Z</time>
      </trkpt>
      <trkpt lat="44.54523" lon="4.23179">
        <ele>574</ele>
        <time>2016-05-15T09:07:46.000Z</time>
      </trkpt>
      <trkpt lat="44.54525" lon="4.23179">
        <ele>575</ele>
        <time>2016-05-15T09:07:47.000Z</time>
      </trkpt>
      <trkpt lat="44.54527" lon="4.23179">
        <ele>575</ele>
        <time>2016-05-15T09:07:48.000Z</time>
      </trkpt>
      <trkpt lat="44.54529" lon="4.23179">
        <ele>575</ele>
        <time>2016-05-15T09:07:49.000Z</time>
      </trkpt>
      <trkpt lat="44.54531" lon="4.23178">
        <ele>575</ele>
        <time>2016-05-15T09:07:50.000Z</time>
      </trkpt>
      <trkpt lat="44.54533" lon="4.23178">
        <ele>575</ele>
        <time>2016-05-15T09:07:51.000Z</time>
      </trkpt>
      <trkpt lat="44.54535" lon="4.23178">
        <ele>575</ele>
        <time>2016-05-15T09:07:52.000Z</time>
      </trkpt>
      <trkpt lat="44.54537" lon="4.23177">
        <ele>575</ele>
        <time>2016-05-15T09:07:53.000Z</time>
      </trkpt>
      <trkpt lat="44.54539" lon="4.23177">
        <ele>575</ele>
        <time>2016-05-15T09:07:54.000Z</time>
      </trkpt>
      <trkpt lat="44.54541" lon="4.23177">
        <ele>575</ele>
        <time>2016-05-15T09:07:55.000Z</time>
      </trkpt>
      <trkpt lat="44.54543" lon="4.23176">
        <ele>575</ele>
        <time>2016-05-15T09:07:56.000Z</time>
      </trkpt>
      <trkpt lat="44.54544" lon="4.23175">
        <ele>575</ele>
        <time>2016-05-15T09:07:57.000Z</time>
      </trkpt>
      <trkpt lat="44.54546" lon="4.23175">
        <ele>575</ele>
        <time>2016-05-15T09:07:58.000Z</time>
      </trkpt>
      <trkpt lat="44.54548" lon="4.23174">
        <ele>576</ele>
        <time>2016-05-15T09:07:59.000Z</time>
      </trkpt>
      <trkpt lat="44.5455" lon="4.23173">
        <ele>576</ele>
        <time>2016-05-15T09:08:00.000Z</time>
      </trkpt>
      <trkpt lat="44.54551" lon="4.23172">
        <ele>576</ele>
        <time>2016-05-15T09:08:01.000Z</time>
      </trkpt>
      <trkpt lat="44.54553" lon="4.23172">
        <ele>576</ele>
        <time>2016-05-15T09:08:02.000Z</time>
      </trkpt>
      <trkpt lat="44.54555" lon="4.23171">
        <ele>576</ele>
        <time>2016-05-15T09:08:03.000Z</time>
      </trkpt>
      <trkpt lat="44.54557" lon="4.2317">
        <ele>577</ele>
        <time>2016-05-15T09:08:04.000Z</time>
      </trkpt>
      <trkpt lat="44.54559" lon="4.23169">
        <ele>577</ele>
        <time>2016-05-15T09:08:05.000Z</time>
      </trkpt>
      <trkpt lat="44.54561" lon="4.23169">
        <ele>577</ele>
        <time>2016-05-15T09:08:06.000Z</time>
      </trkpt>
      <trkpt lat="44.54563" lon="4.23168">
        <ele>577</ele>
        <time>2016-05-15T09:08:07.000Z</time>
      </trkpt>
      <trkpt lat="44.54564" lon="4.23167">
        <ele>578</ele>
        <time>2016-05-15T09:08:08.000Z</time>
      </trkpt>
      <trkpt lat="44.54566" lon="4.23166">
        <ele>583</ele>
        <time>2016-05-15T09:08:09.000Z</time>
      </trkpt>
      <trkpt lat="44.54568" lon="4.23165">
        <ele>583</ele>
        <time>2016-05-15T09:08:10.000Z</time>
      </trkpt>
      <trkpt lat="44.54569" lon="4.23164">
        <ele>583</ele>
        <time>2016-05-15T09:08:11.000Z</time>
      </trkpt>
      <trkpt lat="44.54571" lon="4.23163">
        <ele>583</ele>
        <time>2016-05-15T09:08:12.000Z</time>
      </trkpt>
      <trkpt lat="44.54573" lon="4.23162">
        <ele>583</ele>
        <time>2016-05-15T09:08:13.000Z</time>
      </trkpt>
      <trkpt lat="44.54575" lon="4.23162">
        <ele>583</ele>
        <time>2016-05-15T09:08:14.000Z</time>
      </trkpt>
      <trkpt lat="44.54577" lon="4.23161">
        <ele>583</ele>
        <time>2016-05-15T09:08:15.000Z</time>
      </trkpt>
      <trkpt lat="44.54579" lon="4.2316">
        <ele>583</ele>
        <time>2016-05-15T09:08:16.000Z</time>
      </trkpt>
      <trkpt lat="44.54581" lon="4.2316">
        <ele>583</ele>
        <time>2016-05-15T09:08:17.000Z</time>
      </trkpt>
      <trkpt lat="44.54583" lon="4.23159">
        <ele>583</ele>
        <time>2016-05-15T09:08:18.000Z</time>
      </trkpt>
      <trkpt lat="44.54585" lon="4.23158">
        <ele>584</ele>
        <time>2016-05-15T09:08:19.000Z</time>
      </trkpt>
      <trkpt lat="44.54587" lon="4.23157">
        <ele>585</ele>
        <time>2016-05-15T09:08:20.000Z</time>
      </trkpt>
      <trkpt lat="44.54589" lon="4.23156">
        <ele>585</ele>
        <time>2016-05-15T09:08:21.000Z</time>
      </trkpt>
      <trkpt lat="44.54591" lon="4.23155">
        <ele>585</ele>
        <time>2016-05-15T09:08:22.000Z</time>
      </trkpt>
      <trkpt lat="44.54593" lon="4.23154">
        <ele>586</ele>
        <time>2016-05-15T09:08:23.000Z</time>
      </trkpt>
      <trkpt lat="44.54595" lon="4.23153">
        <ele>586</ele>
        <time>2016-05-15T09:08:24.000Z</time>
      </trkpt>
      <trkpt lat="44.54597" lon="4.23152">
        <ele>586</ele>
        <time>2016-05-15T09:08:25.000Z</time>
      </trkpt>
      <trkpt lat="44.54599" lon="4.23151">
        <ele>587</ele>
        <time>2016-05-15T09:08:26.000Z</time>
      </trkpt>
      <trkpt lat="44.546" lon="4.2315">
        <ele>587</ele>
        <time>2016-05-15T09:08:27.000Z</time>
      </trkpt>
      <trkpt lat="44.54602" lon="4.23149">
        <ele>587</ele>
        <time>2016-05-15T09:08:28.000Z</time>
      </trkpt>
      <trkpt lat="44.54604" lon="4.23148">
        <ele>587</ele>
        <time>2016-05-15T09:08:29.000Z</time>
      </trkpt>
      <trkpt lat="44.54605" lon="4.23148">
        <ele>587</ele>
        <time>2016-05-15T09:08:30.000Z</time>
      </trkpt>
      <trkpt lat="44.54607" lon="4.23147">
        <ele>588</ele>
        <time>2016-05-15T09:08:31.000Z</time>
      </trkpt>
      <trkpt lat="44.54608" lon="4.23146">
        <ele>588</ele>
        <time>2016-05-15T09:08:32.000Z</time>
      </trkpt>
      <trkpt lat="44.5461" lon="4.23144">
        <ele>588</ele>
        <time>2016-05-15T09:08:33.000Z</time>
      </trkpt>
      <trkpt lat="44.54613" lon="4.23143">
        <ele>588</ele>
        <time>2016-05-15T09:08:34.000Z</time>
      </trkpt>
      <trkpt lat="44.54615" lon="4.23142">
        <ele>588</ele>
        <time>2016-05-15T09:08:35.000Z</time>
      </trkpt>
      <trkpt lat="44.54617" lon="4.23141">
        <ele>588</ele>
        <time>2016-05-15T09:08:36.000Z</time>
      </trkpt>
      <trkpt lat="44.54618" lon="4.2314">
        <ele>589</ele>
        <time>2016-05-15T09:08:37.000Z</time>
      </trkpt>
      <trkpt lat="44.5462" lon="4.23138">
        <ele>589</ele>
        <time>2016-05-15T09:08:38.000Z</time>
      </trkpt>
      <trkpt lat="44.54622" lon="4.23136">
        <ele>589</ele>
        <time>2016-05-15T09:08:39.000Z</time>
      </trkpt>
      <trkpt lat="44.54624" lon="4.23135">
        <ele>589</ele>
        <time>2016-05-15T09:08:40.000Z</time>
      </trkpt>
      <trkpt lat="44.54626" lon="4.23134">
        <ele>589</ele>
        <time>2016-05-15T09:08:41.000Z</time>
      </trkpt>
      <trkpt lat="44.54628" lon="4.23133">
        <ele>589</ele>
        <time>2016-05-15T09:08:42.000Z</time>
      </trkpt>
      <trkpt lat="44.5463" lon="4.23131">
        <ele>589</ele>
        <time>2016-05-15T09:08:43.000Z</time>
      </trkpt>
      <trkpt lat="44.54632" lon="4.2313">
        <ele>590</ele>
        <time>2016-05-15T09:08:44.000Z</time>
      </trkpt>
      <trkpt lat="44.54634" lon="4.23128">
        <ele>590</ele>
        <time>2016-05-15T09:08:45.000Z</time>
      </trkpt>
      <trkpt lat="44.54635" lon="4.23126">
        <ele>590</ele>
        <time>2016-05-15T09:08:46.000Z</time>
      </trkpt>
      <trkpt lat="44.54637" lon="4.23125">
        <ele>590</ele>
        <time>2016-05-15T09:08:47.000Z</time>
      </trkpt>
      <trkpt lat="44.54638" lon="4.23123">
        <ele>590</ele>
        <time>2016-05-15T09:08:48.000Z</time>
      </trkpt>
      <trkpt lat="44.54639" lon="4.23122">
        <ele>590</ele>
        <time>2016-05-15T09:08:49.000Z</time>
      </trkpt>
      <trkpt lat="44.54641" lon="4.2312">
        <ele>590</ele>
        <time>2016-05-15T09:08:50.000Z</time>
      </trkpt>
      <trkpt lat="44.54642" lon="4.23119">
        <ele>591</ele>
        <time>2016-05-15T09:08:51.000Z</time>
      </trkpt>
      <trkpt lat="44.54644" lon="4.23117">
        <ele>591</ele>
        <time>2016-05-15T09:08:52.000Z</time>
      </trkpt>
      <trkpt lat="44.54645" lon="4.23115">
        <ele>591</ele>
        <time>2016-05-15T09:08:53.000Z</time>
      </trkpt>
      <trkpt lat="44.54647" lon="4.23114">
        <ele>591</ele>
        <time>2016-05-15T09:08:54.000Z</time>
      </trkpt>
      <trkpt lat="44.54648" lon="4.23112">
        <ele>591</ele>
        <time>2016-05-15T09:08:55.000Z</time>
      </trkpt>
      <trkpt lat="44.5465" lon="4.2311">
        <ele>592</ele>
        <time>2016-05-15T09:08:56.000Z</time>
      </trkpt>
      <trkpt lat="44.54651" lon="4.23108">
        <ele>592</ele>
        <time>2016-05-15T09:08:57.000Z</time>
      </trkpt>
      <trkpt lat="44.54653" lon="4.23106">
        <ele>592</ele>
        <time>2016-05-15T09:08:58.000Z</time>
      </trkpt>
      <trkpt lat="44.54654" lon="4.23105">
        <ele>592</ele>
        <time>2016-05-15T09:08:59.000Z</time>
      </trkpt>
      <trkpt lat="44.54655" lon="4.23103">
        <ele>593</ele>
        <time>2016-05-15T09:09:00.000Z</time>
      </trkpt>
      <trkpt lat="44.54657" lon="4.23101">
        <ele>593</ele>
        <time>2016-05-15T09:09:01.000Z</time>
      </trkpt>
      <trkpt lat="44.54658" lon="4.23099">
        <ele>593</ele>
        <time>2016-05-15T09:09:02.000Z</time>
      </trkpt>
      <trkpt lat="44.5466" lon="4.23097">
        <ele>594</ele>
        <time>2016-05-15T09:09:03.000Z</time>
      </trkpt>
      <trkpt lat="44.54661" lon="4.23095">
        <ele>594</ele>
        <time>2016-05-15T09:09:04.000Z</time>
      </trkpt>
      <trkpt lat="44.54663" lon="4.23093">
        <ele>595</ele>
        <time>2016-05-15T09:09:05.000Z</time>
      </trkpt>
      <trkpt lat="44.54664" lon="4.23091">
        <ele>595</ele>
        <time>2016-05-15T09:09:06.000Z</time>
      </trkpt>
      <trkpt lat="44.54665" lon="4.23089">
        <ele>595</ele>
        <time>2016-05-15T09:09:07.000Z</time>
      </trkpt>
      <trkpt lat="44.54667" lon="4.23088">
        <ele>596</ele>
        <time>2016-05-15T09:09:08.000Z</time>
      </trkpt>
      <trkpt lat="44.54668" lon="4.23086">
        <ele>596</ele>
        <time>2016-05-15T09:09:09.000Z</time>
      </trkpt>
      <trkpt lat="44.5467" lon="4.23084">
        <ele>596</ele>
        <time>2016-05-15T09:09:10.000Z</time>
      </trkpt>
      <trkpt lat="44.54671" lon="4.23082">
        <ele>598</ele>
        <time>2016-05-15T09:09:11.000Z</time>
      </trkpt>
      <trkpt lat="44.54673" lon="4.2308">
        <ele>598</ele>
        <time>2016-05-15T09:09:12.000Z</time>
      </trkpt>
      <trkpt lat="44.54674" lon="4.23078">
        <ele>599</ele>
        <time>2016-05-15T09:09:13.000Z</time>
      </trkpt>
      <trkpt lat="44.54675" lon="4.23075">
        <ele>599</ele>
        <time>2016-05-15T09:09:14.000Z</time>
      </trkpt>
      <trkpt lat="44.54677" lon="4.23073">
        <ele>599</ele>
        <time>2016-05-15T09:09:15.000Z</time>
      </trkpt>
      <trkpt lat="44.54678" lon="4.23071">
        <ele>599</ele>
        <time>2016-05-15T09:09:16.000Z</time>
      </trkpt>
      <trkpt lat="44.5468" lon="4.23069">
        <ele>600</ele>
        <time>2016-05-15T09:09:17.000Z</time>
      </trkpt>
      <trkpt lat="44.54681" lon="4.23067">
        <ele>600</ele>
        <time>2016-05-15T09:09:18.000Z</time>
      </trkpt>
      <trkpt lat="44.54683" lon="4.23065">
        <ele>600</ele>
        <time>2016-05-15T09:09:19.000Z</time>
      </trkpt>
      <trkpt lat="44.54684" lon="4.23063">
        <ele>600</ele>
        <time>2016-05-15T09:09:20.000Z</time>
      </trkpt>
      <trkpt lat="44.54686" lon="4.23061">
        <ele>601</ele>
        <time>2016-05-15T09:09:21.000Z</time>
      </trkpt>
      <trkpt lat="44.54687" lon="4.23059">
        <ele>601</ele>
        <time>2016-05-15T09:09:22.000Z</time>
      </trkpt>
      <trkpt lat="44.54689" lon="4.23057">
        <ele>601</ele>
        <time>2016-05-15T09:09:23.000Z</time>
      </trkpt>
      <trkpt lat="44.5469" lon="4.23056">
        <ele>601</ele>
        <time>2016-05-15T09:09:24.000Z</time>
      </trkpt>
      <trkpt lat="44.54692" lon="4.23054">
        <ele>601</ele>
        <time>2016-05-15T09:09:25.000Z</time>
      </trkpt>
      <trkpt lat="44.54693" lon="4.23052">
        <ele>601</ele>
        <time>2016-05-15T09:09:26.000Z</time>
      </trkpt>
      <trkpt lat="44.54694" lon="4.2305">
        <ele>602</ele>
        <time>2016-05-15T09:09:27.000Z</time>
      </trkpt>
      <trkpt lat="44.54696" lon="4.23048">
        <ele>602</ele>
        <time>2016-05-15T09:09:28.000Z</time>
      </trkpt>
      <trkpt lat="44.54697" lon="4.23046">
        <ele>602</ele>
        <time>2016-05-15T09:09:29.000Z</time>
      </trkpt>
      <trkpt lat="44.54698" lon="4.23044">
        <ele>602</ele>
        <time>2016-05-15T09:09:30.000Z</time>
      </trkpt>
      <trkpt lat="44.547" lon="4.23043">
        <ele>602</ele>
        <time>2016-05-15T09:09:31.000Z</time>
      </trkpt>
      <trkpt lat="44.54701" lon="4.23042">
        <ele>602</ele>
        <time>2016-05-15T09:09:32.000Z</time>
      </trkpt>
      <trkpt lat="44.54702" lon="4.23041">
        <ele>602</ele>
        <time>2016-05-15T09:09:33.000Z</time>
      </trkpt>
      <trkpt lat="44.54702" lon="4.23039">
        <ele>602</ele>
        <time>2016-05-15T09:09:34.000Z</time>
      </trkpt>
      <trkpt lat="44.54703" lon="4.23038">
        <ele>602</ele>
        <time>2016-05-15T09:09:35.000Z</time>
      </trkpt>
      <trkpt lat="44.54703" lon="4.23036">
        <ele>602</ele>
        <time>2016-05-15T09:09:36.000Z</time>
      </trkpt>
      <trkpt lat="44.54703" lon="4.23035">
        <ele>603</ele>
        <time>2016-05-15T09:09:37.000Z</time>
      </trkpt>
      <trkpt lat="44.54704" lon="4.23034">
        <ele>603</ele>
        <time>2016-05-15T09:09:38.000Z</time>
      </trkpt>
      <trkpt lat="44.54703" lon="4.23032">
        <ele>603</ele>
        <time>2016-05-15T09:09:39.000Z</time>
      </trkpt>
      <trkpt lat="44.54703" lon="4.23031">
        <ele>603</ele>
        <time>2016-05-15T09:09:40.000Z</time>
      </trkpt>
      <trkpt lat="44.54702" lon="4.23031">
        <ele>603</ele>
        <time>2016-05-15T09:09:41.000Z</time>
      </trkpt>
      <trkpt lat="44.54701" lon="4.23032">
        <ele>603</ele>
        <time>2016-05-15T09:09:42.000Z</time>
      </trkpt>
      <trkpt lat="44.54702" lon="4.23034">
        <ele>603</ele>
        <time>2016-05-15T09:09:43.000Z</time>
      </trkpt>
      <trkpt lat="44.54702" lon="4.23035">
        <ele>603</ele>
        <time>2016-05-15T09:09:44.000Z</time>
      </trkpt>
      <trkpt lat="44.54704" lon="4.23035">
        <ele>603</ele>
        <time>2016-05-15T09:09:45.000Z</time>
      </trkpt>
      <trkpt lat="44.54706" lon="4.23035">
        <ele>603</ele>
        <time>2016-05-15T09:09:46.000Z</time>
      </trkpt>
      <trkpt lat="44.54709" lon="4.23035">
        <ele>603</ele>
        <time>2016-05-15T09:09:47.000Z</time>
      </trkpt>
      <trkpt lat="44.54711" lon="4.23034">
        <ele>603</ele>
        <time>2016-05-15T09:09:48.000Z</time>
      </trkpt>
      <trkpt lat="44.54714" lon="4.23034">
        <ele>603</ele>
        <time>2016-05-15T09:09:49.000Z</time>
      </trkpt>
      <trkpt lat="44.54716" lon="4.23033">
        <ele>603</ele>
        <time>2016-05-15T09:09:50.000Z</time>
      </trkpt>
      <trkpt lat="44.54718" lon="4.23031">
        <ele>603</ele>
        <time>2016-05-15T09:09:51.000Z</time>
      </trkpt>
      <trkpt lat="44.5472" lon="4.2303">
        <ele>603</ele>
        <time>2016-05-15T09:09:52.000Z</time>
      </trkpt>
      <trkpt lat="44.54723" lon="4.23029">
        <ele>603</ele>
        <time>2016-05-15T09:09:53.000Z</time>
      </trkpt>
      <trkpt lat="44.54725" lon="4.23028">
        <ele>603</ele>
        <time>2016-05-15T09:09:54.000Z</time>
      </trkpt>
      <trkpt lat="44.54728" lon="4.23028">
        <ele>603</ele>
        <time>2016-05-15T09:09:55.000Z</time>
      </trkpt>
      <trkpt lat="44.54731" lon="4.23027">
        <ele>603</ele>
        <time>2016-05-15T09:09:56.000Z</time>
      </trkpt>
      <trkpt lat="44.54734" lon="4.23026">
        <ele>603</ele>
        <time>2016-05-15T09:09:57.000Z</time>
      </trkpt>
      <trkpt lat="44.54738" lon="4.23026">
        <ele>603</ele>
        <time>2016-05-15T09:09:58.000Z</time>
      </trkpt>
      <trkpt lat="44.54742" lon="4.23025">
        <ele>604</ele>
        <time>2016-05-15T09:09:59.000Z</time>
      </trkpt>
      <trkpt lat="44.54746" lon="4.23024">
        <ele>604</ele>
        <time>2016-05-15T09:10:00.000Z</time>
      </trkpt>
      <trkpt lat="44.54751" lon="4.23022">
        <ele>601</ele>
        <time>2016-05-15T09:10:01.000Z</time>
      </trkpt>
      <trkpt lat="44.54756" lon="4.2302">
        <ele>601</ele>
        <time>2016-05-15T09:10:02.000Z</time>
      </trkpt>
      <trkpt lat="44.54761" lon="4.23018">
        <ele>601</ele>
        <time>2016-05-15T09:10:03.000Z</time>
      </trkpt>
      <trkpt lat="44.54765" lon="4.23018">
        <ele>600</ele>
        <time>2016-05-15T09:10:04.000Z</time>
      </trkpt>
      <trkpt lat="44.54769" lon="4.23018">
        <ele>599</ele>
        <time>2016-05-15T09:10:05.000Z</time>
      </trkpt>
      <trkpt lat="44.54773" lon="4.23018">
        <ele>599</ele>
        <time>2016-05-15T09:10:06.000Z</time>
      </trkpt>
      <trkpt lat="44.54778" lon="4.23017">
        <ele>598</ele>
        <time>2016-05-15T09:10:07.000Z</time>
      </trkpt>
      <trkpt lat="44.54782" lon="4.23017">
        <ele>598</ele>
        <time>2016-05-15T09:10:08.000Z</time>
      </trkpt>
      <trkpt lat="44.54786" lon="4.23017">
        <ele>597</ele>
        <time>2016-05-15T09:10:09.000Z</time>
      </trkpt>
      <trkpt lat="44.54789" lon="4.23016">
        <ele>597</ele>
        <time>2016-05-15T09:10:10.000Z</time>
      </trkpt>
      <trkpt lat="44.54793" lon="4.23016">
        <ele>597</ele>
        <time>2016-05-15T09:10:11.000Z</time>
      </trkpt>
      <trkpt lat="44.54796" lon="4.23015">
        <ele>596</ele>
        <time>2016-05-15T09:10:12.000Z</time>
      </trkpt>
      <trkpt lat="44.548" lon="4.23015">
        <ele>596</ele>
        <time>2016-05-15T09:10:13.000Z</time>
      </trkpt>
      <trkpt lat="44.54803" lon="4.23016">
        <ele>596</ele>
        <time>2016-05-15T09:10:14.000Z</time>
      </trkpt>
      <trkpt lat="44.54806" lon="4.23015">
        <ele>596</ele>
        <time>2016-05-15T09:10:15.000Z</time>
      </trkpt>
      <trkpt lat="44.54808" lon="4.23016">
        <ele>596</ele>
        <time>2016-05-15T09:10:16.000Z</time>
      </trkpt>
      <trkpt lat="44.5481" lon="4.23016">
        <ele>595</ele>
        <time>2016-05-15T09:10:17.000Z</time>
      </trkpt>
      <trkpt lat="44.54812" lon="4.23017">
        <ele>595</ele>
        <time>2016-05-15T09:10:18.000Z</time>
      </trkpt>
      <trkpt lat="44.54813" lon="4.23017">
        <ele>595</ele>
        <time>2016-05-15T09:10:19.000Z</time>
      </trkpt>
      <trkpt lat="44.54814" lon="4.23017">
        <ele>595</ele>
        <time>2016-05-15T09:10:20.000Z</time>
      </trkpt>
      <trkpt lat="44.54815" lon="4.23018">
        <ele>595</ele>
        <time>2016-05-15T09:10:21.000Z</time>
      </trkpt>
      <trkpt lat="44.54816" lon="4.23018">
        <ele>595</ele>
        <time>2016-05-15T09:10:22.000Z</time>
      </trkpt>
      <trkpt lat="44.54817" lon="4.23019">
        <ele>595</ele>
        <time>2016-05-15T09:10:23.000Z</time>
      </trkpt>
      <trkpt lat="44.54817" lon="4.23019">
        <ele>595</ele>
        <time>2016-05-15T09:10:24.000Z</time>
      </trkpt>
      <trkpt lat="44.54818" lon="4.23019">
        <ele>595</ele>
        <time>2016-05-15T09:10:25.000Z</time>
      </trkpt>
      <trkpt lat="44.54819" lon="4.23019">
        <ele>595</ele>
        <time>2016-05-15T09:10:26.000Z</time>
      </trkpt>
      <trkpt lat="44.54819" lon="4.23019">
        <ele>595</ele>
        <time>2016-05-15T09:10:27.000Z</time>
      </trkpt>
      <trkpt lat="44.54819" lon="4.23019">
        <ele>595</ele>
        <time>2016-05-15T09:10:28.000Z</time>
      </trkpt>
      <trkpt lat="44.5482" lon="4.23019">
        <ele>595</ele>
        <time>2016-05-15T09:10:29.000Z</time>
      </trkpt>
      <trkpt lat="44.5482" lon="4.23019">
        <ele>595</ele>
        <time>2016-05-15T09:10:30.000Z</time>
      </trkpt>
      <trkpt lat="44.5482" lon="4.23019">
        <ele>595</ele>
        <time>2016-05-15T09:10:31.000Z</time>
      </trkpt>
      <trkpt lat="44.54821" lon="4.23019">
        <ele>595</ele>
        <time>2016-05-15T09:10:32.000Z</time>
      </trkpt>
      <trkpt lat="44.54821" lon="4.23019">
        <ele>595</ele>
        <time>2016-05-15T09:10:33.000Z</time>
      </trkpt>
      <trkpt lat="44.54821" lon="4.23019">
        <ele>595</ele>
        <time>2016-05-15T09:10:34.000Z</time>
      </trkpt>
      <trkpt lat="44.54821" lon="4.23019">
        <ele>595</ele>
        <time>2016-05-15T09:10:35.000Z</time>
      </trkpt>
      <trkpt lat="44.54821" lon="4.23019">
        <ele>595</ele>
        <time>2016-05-15T09:10:36.000Z</time>
      </trkpt>
      <trkpt lat="44.54821" lon="4.23019">
        <ele>595</ele>
        <time>2016-05-15T09:10:37.000Z</time>
      </trkpt>
      <trkpt lat="44.54821" lon="4.23019">
        <ele>595</ele>
        <time>2016-05-15T09:10:38.000Z</time>
      </trkpt>
      <trkpt lat="44.54821" lon="4.23019">
        <ele>595</ele>
        <time>2016-05-15T09:10:39.000Z</time>
      </trkpt>
      <trkpt lat="44.54821" lon="4.23019">
        <ele>595</ele>
        <time>2016-05-15T09:10:40.000Z</time>
      </trkpt>
      <trkpt lat="44.54821" lon="4.23019">
        <ele>595</ele>
        <time>2016-05-15T09:10:41.000Z</time>
      </trkpt>
      <trkpt lat="44.54821" lon="4.23019">
        <ele>595</ele>
        <time>2016-05-15T09:10:42.000Z</time>
      </trkpt>
      <trkpt lat="44.54821" lon="4.23019">
        <ele>595</ele>
        <time>2016-05-15T09:10:43.000Z</time>
      </trkpt>
      <trkpt lat="44.54821" lon="4.23018">
        <ele>595</ele>
        <time>2016-05-15T09:10:44.000Z</time>
      </trkpt>
      <trkpt lat="44.54821" lon="4.23018">
        <ele>595</ele>
        <time>2016-05-15T09:10:45.000Z</time>
      </trkpt>
      <trkpt lat="44.54821" lon="4.23018">
        <ele>595</ele>
        <time>2016-05-15T09:10:46.000Z</time>
      </trkpt>
      <trkpt lat="44.54821" lon="4.23018">
        <ele>595</ele>
        <time>2016-05-15T09:10:47.000Z</time>
      </trkpt>
      <trkpt lat="44.54821" lon="4.23018">
        <ele>595</ele>
        <time>2016-05-15T09:10:48.000Z</time>
      </trkpt>
      <trkpt lat="44.54821" lon="4.23018">
        <ele>595</ele>
        <time>2016-05-15T09:10:49.000Z</time>
      </trkpt>
      <trkpt lat="44.54821" lon="4.23017">
        <ele>595</ele>
        <time>2016-05-15T09:10:50.000Z</time>
      </trkpt>
      <trkpt lat="44.5482" lon="4.23017">
        <ele>595</ele>
        <time>2016-05-15T09:10:51.000Z</time>
      </trkpt>
      <trkpt lat="44.5482" lon="4.23017">
        <ele>595</ele>
        <time>2016-05-15T09:10:52.000Z</time>
      </trkpt>
      <trkpt lat="44.5482" lon="4.23017">
        <ele>595</ele>
        <time>2016-05-15T09:10:53.000Z</time>
      </trkpt>
      <trkpt lat="44.54819" lon="4.23016">
        <ele>595</ele>
        <time>2016-05-15T09:10:54.000Z</time>
      </trkpt>
      <trkpt lat="44.54819" lon="4.23016">
        <ele>595</ele>
        <time>2016-05-15T09:10:55.000Z</time>
      </trkpt>
      <trkpt lat="44.54819" lon="4.23016">
        <ele>595</ele>
        <time>2016-05-15T09:10:56.000Z</time>
      </trkpt>
      <trkpt lat="44.54818" lon="4.23016">
        <ele>595</ele>
        <time>2016-05-15T09:10:57.000Z</time>
      </trkpt>
      <trkpt lat="44.54818" lon="4.23016">
        <ele>595</ele>
        <time>2016-05-15T09:10:58.000Z</time>
      </trkpt>
      <trkpt lat="44.54818" lon="4.23015">
        <ele>595</ele>
        <time>2016-05-15T09:10:59.000Z</time>
      </trkpt>
      <trkpt lat="44.54817" lon="4.23015">
        <ele>595</ele>
        <time>2016-05-15T09:11:00.000Z</time>
      </trkpt>
      <trkpt lat="44.54817" lon="4.23015">
        <ele>595</ele>
        <time>2016-05-15T09:11:01.000Z</time>
      </trkpt>
      <trkpt lat="44.54817" lon="4.23015">
        <ele>595</ele>
        <time>2016-05-15T09:11:02.000Z</time>
      </trkpt>
      <trkpt lat="44.54816" lon="4.23015">
        <ele>595</ele>
        <time>2016-05-15T09:11:03.000Z</time>
      </trkpt>
      <trkpt lat="44.54816" lon="4.23014">
        <ele>595</ele>
        <time>2016-05-15T09:11:04.000Z</time>
      </trkpt>
      <trkpt lat="44.54816" lon="4.23014">
        <ele>595</ele>
        <time>2016-05-15T09:11:05.000Z</time>
      </trkpt>
      <trkpt lat="44.54815" lon="4.23014">
        <ele>595</ele>
        <time>2016-05-15T09:11:06.000Z</time>
      </trkpt>
      <trkpt lat="44.54815" lon="4.23014">
        <ele>595</ele>
        <time>2016-05-15T09:11:07.000Z</time>
      </trkpt>
      <trkpt lat="44.54814" lon="4.23014">
        <ele>595</ele>
        <time>2016-05-15T09:11:08.000Z</time>
      </trkpt>
      <trkpt lat="44.54814" lon="4.23014">
        <ele>595</ele>
        <time>2016-05-15T09:11:09.000Z</time>
      </trkpt>
      <trkpt lat="44.54814" lon="4.23013">
        <ele>595</ele>
        <time>2016-05-15T09:11:10.000Z</time>
      </trkpt>
      <trkpt lat="44.54813" lon="4.23013">
        <ele>595</ele>
        <time>2016-05-15T09:11:11.000Z</time>
      </trkpt>
      <trkpt lat="44.54813" lon="4.23013">
        <ele>595</ele>
        <time>2016-05-15T09:11:12.000Z</time>
      </trkpt>
      <trkpt lat="44.54813" lon="4.23013">
        <ele>595</ele>
        <time>2016-05-15T09:11:13.000Z</time>
      </trkpt>
      <trkpt lat="44.54813" lon="4.23013">
        <ele>595</ele>
        <time>2016-05-15T09:11:14.000Z</time>
      </trkpt>
      <trkpt lat="44.54813" lon="4.23013">
        <ele>595</ele>
        <time>2016-05-15T09:11:15.000Z</time>
      </trkpt>
      <trkpt lat="44.54812" lon="4.23013">
        <ele>595</ele>
        <time>2016-05-15T09:11:16.000Z</time>
      </trkpt>
      <trkpt lat="44.54812" lon="4.23012">
        <ele>595</ele>
        <time>2016-05-15T09:11:17.000Z</time>
      </trkpt>
      <trkpt lat="44.54812" lon="4.23012">
        <ele>595</ele>
        <time>2016-05-15T09:11:18.000Z</time>
      </trkpt>
      <trkpt lat="44.54812" lon="4.23012">
        <ele>595</ele>
        <time>2016-05-15T09:11:19.000Z</time>
      </trkpt>
      <trkpt lat="44.54812" lon="4.23012">
        <ele>595</ele>
        <time>2016-05-15T09:11:20.000Z</time>
      </trkpt>
      <trkpt lat="44.54812" lon="4.23012">
        <ele>595</ele>
        <time>2016-05-15T09:11:21.000Z</time>
      </trkpt>
      <trkpt lat="44.54812" lon="4.23012">
        <ele>595</ele>
        <time>2016-05-15T09:11:22.000Z</time>
      </trkpt>
      <trkpt lat="44.54812" lon="4.23012">
        <ele>595</ele>
        <time>2016-05-15T09:11:23.000Z</time>
      </trkpt>
      <trkpt lat="44.54812" lon="4.23012">
        <ele>595</ele>
        <time>2016-05-15T09:11:24.000Z</time>
      </trkpt>
      <trkpt lat="44.54812" lon="4.23012">
        <ele>595</ele>
        <time>2016-05-15T09:11:25.000Z</time>
      </trkpt>
      <trkpt lat="44.54812" lon="4.23012">
        <ele>595</ele>
        <time>2016-05-15T09:11:26.000Z</time>
      </trkpt>
      <trkpt lat="44.54812" lon="4.23012">
        <ele>595</ele>
        <time>2016-05-15T09:11:27.000Z</time>
      </trkpt>
      <trkpt lat="44.54812" lon="4.23012">
        <ele>595</ele>
        <time>2016-05-15T09:11:28.000Z</time>
      </trkpt>
      <trkpt lat="44.54812" lon="4.23012">
        <ele>595</ele>
        <time>2016-05-15T09:11:29.000Z</time>
      </trkpt>
      <trkpt lat="44.54812" lon="4.23012">
        <ele>595</ele>
        <time>2016-05-15T09:11:30.000Z</time>
      </trkpt>
      <trkpt lat="44.54811" lon="4.23012">
        <ele>595</ele>
        <time>2016-05-15T09:11:31.000Z</time>
      </trkpt>
      <trkpt lat="44.54811" lon="4.23012">
        <ele>595</ele>
        <time>2016-05-15T09:11:32.000Z</time>
      </trkpt>
      <trkpt lat="44.54811" lon="4.23012">
        <ele>595</ele>
        <time>2016-05-15T09:11:33.000Z</time>
      </trkpt>
      <trkpt lat="44.54811" lon="4.23012">
        <ele>595</ele>
        <time>2016-05-15T09:11:34.000Z</time>
      </trkpt>
      <trkpt lat="44.54811" lon="4.23012">
        <ele>595</ele>
        <time>2016-05-15T09:11:35.000Z</time>
      </trkpt>
      <trkpt lat="44.54811" lon="4.23012">
        <ele>595</ele>
        <time>2016-05-15T09:11:36.000Z</time>
      </trkpt>
      <trkpt lat="44.54811" lon="4.23012">
        <ele>595</ele>
        <time>2016-05-15T09:11:37.000Z</time>
      </trkpt>
      <trkpt lat="44.54811" lon="4.23012">
        <ele>595</ele>
        <time>2016-05-15T09:11:38.000Z</time>
      </trkpt>
      <trkpt lat="44.54811" lon="4.23012">
        <ele>595</ele>
        <time>2016-05-15T09:11:39.000Z</time>
      </trkpt>
      <trkpt lat="44.54811" lon="4.23012">
        <ele>596</ele>
        <time>2016-05-15T09:11:40.000Z</time>
      </trkpt>
      <trkpt lat="44.54811" lon="4.23012">
        <ele>596</ele>
        <time>2016-05-15T09:11:41.000Z</time>
      </trkpt>
      <trkpt lat="44.54811" lon="4.23012">
        <ele>596</ele>
        <time>2016-05-15T09:11:42.000Z</time>
      </trkpt>
      <trkpt lat="44.5481" lon="4.23012">
        <ele>596</ele>
        <time>2016-05-15T09:11:43.000Z</time>
      </trkpt>
      <trkpt lat="44.5481" lon="4.23012">
        <ele>596</ele>
        <time>2016-05-15T09:11:44.000Z</time>
      </trkpt>
      <trkpt lat="44.5481" lon="4.23012">
        <ele>596</ele>
        <time>2016-05-15T09:11:45.000Z</time>
      </trkpt>
      <trkpt lat="44.5481" lon="4.23012">
        <ele>596</ele>
        <time>2016-05-15T09:11:46.000Z</time>
      </trkpt>
      <trkpt lat="44.5481" lon="4.23012">
        <ele>596</ele>
        <time>2016-05-15T09:11:47.000Z</time>
      </trkpt>
      <trkpt lat="44.5481" lon="4.23012">
        <ele>596</ele>
        <time>2016-05-15T09:11:48.000Z</time>
      </trkpt>
      <trkpt lat="44.5481" lon="4.23012">
        <ele>596</ele>
        <time>2016-05-15T09:11:49.000Z</time>
      </trkpt>
      <trkpt lat="44.5481" lon="4.23012">
        <ele>596</ele>
        <time>2016-05-15T09:11:50.000Z</time>
      </trkpt>
      <trkpt lat="44.5481" lon="4.23012">
        <ele>596</ele>
        <time>2016-05-15T09:11:51.000Z</time>
      </trkpt>
      <trkpt lat="44.5481" lon="4.23012">
        <ele>596</ele>
        <time>2016-05-15T09:11:52.000Z</time>
      </trkpt>
      <trkpt lat="44.5481" lon="4.23012">
        <ele>596</ele>
        <time>2016-05-15T09:11:53.000Z</time>
      </trkpt>
      <trkpt lat="44.5481" lon="4.23012">
        <ele>596</ele>
        <time>2016-05-15T09:11:54.000Z</time>
      </trkpt>
      <trkpt lat="44.54809" lon="4.23012">
        <ele>596</ele>
        <time>2016-05-15T09:11:55.000Z</time>
      </trkpt>
      <trkpt lat="44.54809" lon="4.23012">
        <ele>596</ele>
        <time>2016-05-15T09:11:56.000Z</time>
      </trkpt>
      <trkpt lat="44.54809" lon="4.23012">
        <ele>596</ele>
        <time>2016-05-15T09:11:57.000Z</time>
      </trkpt>
      <trkpt lat="44.54809" lon="4.23012">
        <ele>596</ele>
        <time>2016-05-15T09:11:58.000Z</time>
      </trkpt>
      <trkpt lat="44.54809" lon="4.23012">
        <ele>596</ele>
        <time>2016-05-15T09:11:59.000Z</time>
      </trkpt>
      <trkpt lat="44.54809" lon="4.23012">
        <ele>596</ele>
        <time>2016-05-15T09:12:00.000Z</time>
      </trkpt>
      <trkpt lat="44.54809" lon="4.23012">
        <ele>596</ele>
        <time>2016-05-15T09:12:01.000Z</time>
      </trkpt>
      <trkpt lat="44.54809" lon="4.23012">
        <ele>596</ele>
        <time>2016-05-15T09:12:02.000Z</time>
      </trkpt>
      <trkpt lat="44.54809" lon="4.23012">
        <ele>596</ele>
        <time>2016-05-15T09:12:03.000Z</time>
      </trkpt>
      <trkpt lat="44.54809" lon="4.23012">
        <ele>596</ele>
        <time>2016-05-15T09:12:04.000Z</time>
      </trkpt>
      <trkpt lat="44.54809" lon="4.23012">
        <ele>596</ele>
        <time>2016-05-15T09:12:05.000Z</time>
      </trkpt>
      <trkpt lat="44.54809" lon="4.23012">
        <ele>596</ele>
        <time>2016-05-15T09:12:06.000Z</time>
      </trkpt>
      <trkpt lat="44.54809" lon="4.23012">
        <ele>596</ele>
        <time>2016-05-15T09:12:07.000Z</time>
      </trkpt>
      <trkpt lat="44.54809" lon="4.23012">
        <ele>596</ele>
        <time>2016-05-15T09:12:08.000Z</time>
      </trkpt>
      <trkpt lat="44.54809" lon="4.23012">
        <ele>596</ele>
        <time>2016-05-15T09:12:09.000Z</time>
      </trkpt>
      <trkpt lat="44.54809" lon="4.23012">
        <ele>596</ele>
        <time>2016-05-15T09:12:10.000Z</time>
      </trkpt>
      <trkpt lat="44.54809" lon="4.23012">
        <ele>596</ele>
        <time>2016-05-15T09:12:11.000Z</time>
      </trkpt>
      <trkpt lat="44.54809" lon="4.23012">
        <ele>596</ele>
        <time>2016-05-15T09:12:12.000Z</time>
      </trkpt>
      <trkpt lat="44.54809" lon="4.23012">
        <ele>596</ele>
        <time>2016-05-15T09:12:13.000Z</time>
      </trkpt>
      <trkpt lat="44.54809" lon="4.23012">
        <ele>596</ele>
        <time>2016-05-15T09:12:14.000Z</time>
      </trkpt>
      <trkpt lat="44.54809" lon="4.23012">
        <ele>596</ele>
        <time>2016-05-15T09:12:15.000Z</time>
      </trkpt>
      <trkpt lat="44.54809" lon="4.23012">
        <ele>596</ele>
        <time>2016-05-15T09:12:16.000Z</time>
      </trkpt>
      <trkpt lat="44.54809" lon="4.23012">
        <ele>596</ele>
        <time>2016-05-15T09:12:17.000Z</time>
      </trkpt>
      <trkpt lat="44.54809" lon="4.23012">
        <ele>596</ele>
        <time>2016-05-15T09:12:18.000Z</time>
      </trkpt>
      <trkpt lat="44.54809" lon="4.23012">
        <ele>596</ele>
        <time>2016-05-15T09:12:19.000Z</time>
      </trkpt>
      <trkpt lat="44.54809" lon="4.23012">
        <ele>596</ele>
        <time>2016-05-15T09:12:20.000Z</time>
      </trkpt>
      <trkpt lat="44.54809" lon="4.23012">
        <ele>596</ele>
        <time>2016-05-15T09:12:21.000Z</time>
      </trkpt>
      <trkpt lat="44.54809" lon="4.23012">
        <ele>596</ele>
        <time>2016-05-15T09:12:22.000Z</time>
      </trkpt>
      <trkpt lat="44.54809" lon="4.23012">
        <ele>596</ele>
        <time>2016-05-15T09:12:23.000Z</time>
      </trkpt>
      <trkpt lat="44.54809" lon="4.23012">
        <ele>596</ele>
        <time>2016-05-15T09:12:24.000Z</time>
      </trkpt>
      <trkpt lat="44.54809" lon="4.23012">
        <ele>596</ele>
        <time>2016-05-15T09:12:25.000Z</time>
      </trkpt>
      <trkpt lat="44.54809" lon="4.23012">
        <ele>596</ele>
        <time>2016-05-15T09:12:26.000Z</time>
      </trkpt>
      <trkpt lat="44.54809" lon="4.23012">
        <ele>596</ele>
        <time>2016-05-15T09:12:27.000Z</time>
      </trkpt>
      <trkpt lat="44.54809" lon="4.23012">
        <ele>596</ele>
        <time>2016-05-15T09:12:28.000Z</time>
      </trkpt>
      <trkpt lat="44.54809" lon="4.23012">
        <ele>596</ele>
        <time>2016-05-15T09:12:29.000Z</time>
      </trkpt>
      <trkpt lat="44.54809" lon="4.23012">
        <ele>596</ele>
        <time>2016-05-15T09:12:30.000Z</time>
      </trkpt>
      <trkpt lat="44.54809" lon="4.23012">
        <ele>596</ele>
        <time>2016-05-15T09:12:31.000Z</time>
      </trkpt>
      <trkpt lat="44.54809" lon="4.23012">
        <ele>596</ele>
        <time>2016-05-15T09:12:32.000Z</time>
      </trkpt>
      <trkpt lat="44.54809" lon="4.23012">
        <ele>596</ele>
        <time>2016-05-15T09:12:33.000Z</time>
      </trkpt>
      <trkpt lat="44.54809" lon="4.23012">
        <ele>596</ele>
        <time>2016-05-15T09:12:34.000Z</time>
      </trkpt>
      <trkpt lat="44.54809" lon="4.23012">
        <ele>596</ele>
        <time>2016-05-15T09:12:35.000Z</time>
      </trkpt>
      <trkpt lat="44.54809" lon="4.23012">
        <ele>596</ele>
        <time>2016-05-15T09:12:36.000Z</time>
      </trkpt>
      <trkpt lat="44.54809" lon="4.23012">
        <ele>596</ele>
        <time>2016-05-15T09:12:37.000Z</time>
      </trkpt>
      <trkpt lat="44.54809" lon="4.23012">
        <ele>596</ele>
        <time>2016-05-15T09:12:38.000Z</time>
      </trkpt>
      <trkpt lat="44.5481" lon="4.23012">
        <ele>596</ele>
        <time>2016-05-15T09:12:39.000Z</time>
      </trkpt>
      <trkpt lat="44.5481" lon="4.23012">
        <ele>596</ele>
        <time>2016-05-15T09:12:40.000Z</time>
      </trkpt>
      <trkpt lat="44.5481" lon="4.23012">
        <ele>596</ele>
        <time>2016-05-15T09:12:41.000Z</time>
      </trkpt>
      <trkpt lat="44.5481" lon="4.23012">
        <ele>596</ele>
        <time>2016-05-15T09:12:42.000Z</time>
      </trkpt>
      <trkpt lat="44.5481" lon="4.23012">
        <ele>596</ele>
        <time>2016-05-15T09:12:43.000Z</time>
      </trkpt>
      <trkpt lat="44.5481" lon="4.23012">
        <ele>596</ele>
        <time>2016-05-15T09:12:44.000Z</time>
      </trkpt>
      <trkpt lat="44.5481" lon="4.23012">
        <ele>596</ele>
        <time>2016-05-15T09:12:45.000Z</time>
      </trkpt>
      <trkpt lat="44.54811" lon="4.23011">
        <ele>596</ele>
        <time>2016-05-15T09:12:46.000Z</time>
      </trkpt>
      <trkpt lat="44.54811" lon="4.23012">
        <ele>596</ele>
        <time>2016-05-15T09:12:47.000Z</time>
      </trkpt>
      <trkpt lat="44.54811" lon="4.23011">
        <ele>596</ele>
        <time>2016-05-15T09:12:48.000Z</time>
      </trkpt>
      <trkpt lat="44.54811" lon="4.23011">
        <ele>595</ele>
        <time>2016-05-15T09:12:49.000Z</time>
      </trkpt>
      <trkpt lat="44.54811" lon="4.23011">
        <ele>595</ele>
        <time>2016-05-15T09:12:50.000Z</time>
      </trkpt>
      <trkpt lat="44.54812" lon="4.23012">
        <ele>595</ele>
        <time>2016-05-15T09:12:51.000Z</time>
      </trkpt>
      <trkpt lat="44.54812" lon="4.23012">
        <ele>595</ele>
        <time>2016-05-15T09:12:52.000Z</time>
      </trkpt>
      <trkpt lat="44.54812" lon="4.23012">
        <ele>595</ele>
        <time>2016-05-15T09:12:53.000Z</time>
      </trkpt>
      <trkpt lat="44.54812" lon="4.23012">
        <ele>595</ele>
        <time>2016-05-15T09:12:54.000Z</time>
      </trkpt>
      <trkpt lat="44.54812" lon="4.23012">
        <ele>595</ele>
        <time>2016-05-15T09:12:55.000Z</time>
      </trkpt>
      <trkpt lat="44.54812" lon="4.23012">
        <ele>595</ele>
        <time>2016-05-15T09:12:56.000Z</time>
      </trkpt>
      <trkpt lat="44.54812" lon="4.23012">
        <ele>595</ele>
        <time>2016-05-15T09:12:57.000Z</time>
      </trkpt>
      <trkpt lat="44.54813" lon="4.23012">
        <ele>595</ele>
        <time>2016-05-15T09:12:58.000Z</time>
      </trkpt>
      <trkpt lat="44.54813" lon="4.23012">
        <ele>595</ele>
        <time>2016-05-15T09:12:59.000Z</time>
      </trkpt>
      <trkpt lat="44.54813" lon="4.23012">
        <ele>595</ele>
        <time>2016-05-15T09:13:00.000Z</time>
      </trkpt>
      <trkpt lat="44.54813" lon="4.23012">
        <ele>595</ele>
        <time>2016-05-15T09:13:01.000Z</time>
      </trkpt>
      <trkpt lat="44.54813" lon="4.23012">
        <ele>595</ele>
        <time>2016-05-15T09:13:02.000Z</time>
      </trkpt>
      <trkpt lat="44.54813" lon="4.23012">
        <ele>595</ele>
        <time>2016-05-15T09:13:03.000Z</time>
      </trkpt>
      <trkpt lat="44.54814" lon="4.23012">
        <ele>595</ele>
        <time>2016-05-15T09:13:04.000Z</time>
      </trkpt>
      <trkpt lat="44.54814" lon="4.23012">
        <ele>595</ele>
        <time>2016-05-15T09:13:05.000Z</time>
      </trkpt>
      <trkpt lat="44.54814" lon="4.23012">
        <ele>595</ele>
        <time>2016-05-15T09:13:06.000Z</time>
      </trkpt>
      <trkpt lat="44.54814" lon="4.23012">
        <ele>595</ele>
        <time>2016-05-15T09:13:07.000Z</time>
      </trkpt>
      <trkpt lat="44.54814" lon="4.23012">
        <ele>595</ele>
        <time>2016-05-15T09:13:08.000Z</time>
      </trkpt>
      <trkpt lat="44.54814" lon="4.23012">
        <ele>595</ele>
        <time>2016-05-15T09:13:09.000Z</time>
      </trkpt>
      <trkpt lat="44.54814" lon="4.23012">
        <ele>595</ele>
        <time>2016-05-15T09:13:10.000Z</time>
      </trkpt>
      <trkpt lat="44.54814" lon="4.23012">
        <ele>595</ele>
        <time>2016-05-15T09:13:11.000Z</time>
      </trkpt>
      <trkpt lat="44.54814" lon="4.23012">
        <ele>595</ele>
        <time>2016-05-15T09:13:12.000Z</time>
      </trkpt>
      <trkpt lat="44.54814" lon="4.23012">
        <ele>595</ele>
        <time>2016-05-15T09:13:13.000Z</time>
      </trkpt>
      <trkpt lat="44.54814" lon="4.23012">
        <ele>595</ele>
        <time>2016-05-15T09:13:14.000Z</time>
      </trkpt>
      <trkpt lat="44.54814" lon="4.23012">
        <ele>595</ele>
        <time>2016-05-15T09:13:15.000Z</time>
      </trkpt>
      <trkpt lat="44.54815" lon="4.23012">
        <ele>595</ele>
        <time>2016-05-15T09:13:16.000Z</time>
      </trkpt>
      <trkpt lat="44.54815" lon="4.23012">
        <ele>595</ele>
        <time>2016-05-15T09:13:17.000Z</time>
      </trkpt>
      <trkpt lat="44.54815" lon="4.23012">
        <ele>595</ele>
        <time>2016-05-15T09:13:18.000Z</time>
      </trkpt>
      <trkpt lat="44.54815" lon="4.23012">
        <ele>595</ele>
        <time>2016-05-15T09:13:19.000Z</time>
      </trkpt>
      <trkpt lat="44.54815" lon="4.23012">
        <ele>595</ele>
        <time>2016-05-15T09:13:20.000Z</time>
      </trkpt>
      <trkpt lat="44.54815" lon="4.23012">
        <ele>595</ele>
        <time>2016-05-15T09:13:21.000Z</time>
      </trkpt>
      <trkpt lat="44.54815" lon="4.23012">
        <ele>595</ele>
        <time>2016-05-15T09:13:22.000Z</time>
      </trkpt>
      <trkpt lat="44.54815" lon="4.23012">
        <ele>595</ele>
        <time>2016-05-15T09:13:23.000Z</time>
      </trkpt>
      <trkpt lat="44.54815" lon="4.23013">
        <ele>595</ele>
        <time>2016-05-15T09:13:24.000Z</time>
      </trkpt>
      <trkpt lat="44.54815" lon="4.23013">
        <ele>595</ele>
        <time>2016-05-15T09:13:25.000Z</time>
      </trkpt>
      <trkpt lat="44.54815" lon="4.23013">
        <ele>595</ele>
        <time>2016-05-15T09:13:26.000Z</time>
      </trkpt>
      <trkpt lat="44.54815" lon="4.23013">
        <ele>595</ele>
        <time>2016-05-15T09:13:27.000Z</time>
      </trkpt>
      <trkpt lat="44.54815" lon="4.23013">
        <ele>595</ele>
        <time>2016-05-15T09:13:28.000Z</time>
      </trkpt>
      <trkpt lat="44.54816" lon="4.23013">
        <ele>595</ele>
        <time>2016-05-15T09:13:29.000Z</time>
      </trkpt>
      <trkpt lat="44.54816" lon="4.23013">
        <ele>595</ele>
        <time>2016-05-15T09:13:30.000Z</time>
      </trkpt>
      <trkpt lat="44.54816" lon="4.23013">
        <ele>595</ele>
        <time>2016-05-15T09:13:31.000Z</time>
      </trkpt>
      <trkpt lat="44.54816" lon="4.23013">
        <ele>595</ele>
        <time>2016-05-15T09:13:32.000Z</time>
      </trkpt>
      <trkpt lat="44.54816" lon="4.23013">
        <ele>595</ele>
        <time>2016-05-15T09:13:33.000Z</time>
      </trkpt>
      <trkpt lat="44.54816" lon="4.23013">
        <ele>595</ele>
        <time>2016-05-15T09:13:34.000Z</time>
      </trkpt>
      <trkpt lat="44.54816" lon="4.23013">
        <ele>595</ele>
        <time>2016-05-15T09:13:35.000Z</time>
      </trkpt>
      <trkpt lat="44.54816" lon="4.23013">
        <ele>595</ele>
        <time>2016-05-15T09:13:36.000Z</time>
      </trkpt>
      <trkpt lat="44.54816" lon="4.23013">
        <ele>595</ele>
        <time>2016-05-15T09:13:37.000Z</time>
      </trkpt>
      <trkpt lat="44.54816" lon="4.23013">
        <ele>595</ele>
        <time>2016-05-15T09:13:38.000Z</time>
      </trkpt>
      <trkpt lat="44.54816" lon="4.23014">
        <ele>595</ele>
        <time>2016-05-15T09:13:39.000Z</time>
      </trkpt>
      <trkpt lat="44.54816" lon="4.23014">
        <ele>595</ele>
        <time>2016-05-15T09:13:40.000Z</time>
      </trkpt>
      <trkpt lat="44.54816" lon="4.23014">
        <ele>595</ele>
        <time>2016-05-15T09:13:41.000Z</time>
      </trkpt>
      <trkpt lat="44.54815" lon="4.23014">
        <ele>595</ele>
        <time>2016-05-15T09:13:42.000Z</time>
      </trkpt>
      <trkpt lat="44.54815" lon="4.23014">
        <ele>595</ele>
        <time>2016-05-15T09:13:43.000Z</time>
      </trkpt>
      <trkpt lat="44.54815" lon="4.23014">
        <ele>595</ele>
        <time>2016-05-15T09:13:44.000Z</time>
      </trkpt>
      <trkpt lat="44.54815" lon="4.23014">
        <ele>595</ele>
        <time>2016-05-15T09:13:45.000Z</time>
      </trkpt>
      <trkpt lat="44.54815" lon="4.23014">
        <ele>595</ele>
        <time>2016-05-15T09:13:46.000Z</time>
      </trkpt>
      <trkpt lat="44.54815" lon="4.23014">
        <ele>595</ele>
        <time>2016-05-15T09:13:47.000Z</time>
      </trkpt>
      <trkpt lat="44.54815" lon="4.23014">
        <ele>595</ele>
        <time>2016-05-15T09:13:48.000Z</time>
      </trkpt>
      <trkpt lat="44.54815" lon="4.23014">
        <ele>595</ele>
        <time>2016-05-15T09:13:49.000Z</time>
      </trkpt>
      <trkpt lat="44.54815" lon="4.23014">
        <ele>595</ele>
        <time>2016-05-15T09:13:50.000Z</time>
      </trkpt>
      <trkpt lat="44.54815" lon="4.23014">
        <ele>595</ele>
        <time>2016-05-15T09:13:51.000Z</time>
      </trkpt>
      <trkpt lat="44.54815" lon="4.23014">
        <ele>595</ele>
        <time>2016-05-15T09:13:52.000Z</time>
      </trkpt>
      <trkpt lat="44.54815" lon="4.23014">
        <ele>595</ele>
        <time>2016-05-15T09:13:53.000Z</time>
      </trkpt>
      <trkpt lat="44.54815" lon="4.23015">
        <ele>595</ele>
        <time>2016-05-15T09:13:54.000Z</time>
      </trkpt>
      <trkpt lat="44.54815" lon="4.23015">
        <ele>595</ele>
        <time>2016-05-15T09:13:55.000Z</time>
      </trkpt>
      <trkpt lat="44.54815" lon="4.23015">
        <ele>595</ele>
        <time>2016-05-15T09:13:56.000Z</time>
      </trkpt>
      <trkpt lat="44.54815" lon="4.23015">
        <ele>595</ele>
        <time>2016-05-15T09:13:57.000Z</time>
      </trkpt>
      <trkpt lat="44.54815" lon="4.23015">
        <ele>595</ele>
        <time>2016-05-15T09:13:58.000Z</time>
      </trkpt>
      <trkpt lat="44.54815" lon="4.23015">
        <ele>595</ele>
        <time>2016-05-15T09:13:59.000Z</time>
      </trkpt>
      <trkpt lat="44.54815" lon="4.23015">
        <ele>595</ele>
        <time>2016-05-15T09:14:00.000Z</time>
      </trkpt>
      <trkpt lat="44.54815" lon="4.23015">
        <ele>595</ele>
        <time>2016-05-15T09:14:01.000Z</time>
      </trkpt>
      <trkpt lat="44.54815" lon="4.23015">
        <ele>595</ele>
        <time>2016-05-15T09:14:02.000Z</time>
      </trkpt>
      <trkpt lat="44.54815" lon="4.23015">
        <ele>595</ele>
        <time>2016-05-15T09:14:03.000Z</time>
      </trkpt>
      <trkpt lat="44.54815" lon="4.23015">
        <ele>595</ele>
        <time>2016-05-15T09:14:04.000Z</time>
      </trkpt>
      <trkpt lat="44.54815" lon="4.23015">
        <ele>595</ele>
        <time>2016-05-15T09:14:05.000Z</time>
      </trkpt>
      <trkpt lat="44.54815" lon="4.23015">
        <ele>595</ele>
        <time>2016-05-15T09:14:06.000Z</time>
      </trkpt>
      <trkpt lat="44.54815" lon="4.23015">
        <ele>595</ele>
        <time>2016-05-15T09:14:07.000Z</time>
      </trkpt>
      <trkpt lat="44.54815" lon="4.23015">
        <ele>595</ele>
        <time>2016-05-15T09:14:08.000Z</time>
      </trkpt>
      <trkpt lat="44.54815" lon="4.23015">
        <ele>595</ele>
        <time>2016-05-15T09:14:09.000Z</time>
      </trkpt>
      <trkpt lat="44.54815" lon="4.23015">
        <ele>595</ele>
        <time>2016-05-15T09:14:10.000Z</time>
      </trkpt>
      <trkpt lat="44.54815" lon="4.23015">
        <ele>595</ele>
        <time>2016-05-15T09:14:11.000Z</time>
      </trkpt>
      <trkpt lat="44.54815" lon="4.23016">
        <ele>595</ele>
        <time>2016-05-15T09:14:12.000Z</time>
      </trkpt>
      <trkpt lat="44.54815" lon="4.23016">
        <ele>595</ele>
        <time>2016-05-15T09:14:13.000Z</time>
      </trkpt>
      <trkpt lat="44.54815" lon="4.23016">
        <ele>595</ele>
        <time>2016-05-15T09:14:14.000Z</time>
      </trkpt>
      <trkpt lat="44.54815" lon="4.23016">
        <ele>595</ele>
        <time>2016-05-15T09:14:15.000Z</time>
      </trkpt>
      <trkpt lat="44.54815" lon="4.23016">
        <ele>595</ele>
        <time>2016-05-15T09:14:16.000Z</time>
      </trkpt>
      <trkpt lat="44.54814" lon="4.23016">
        <ele>595</ele>
        <time>2016-05-15T09:14:17.000Z</time>
      </trkpt>
      <trkpt lat="44.54814" lon="4.23016">
        <ele>595</ele>
        <time>2016-05-15T09:14:18.000Z</time>
      </trkpt>
      <trkpt lat="44.54814" lon="4.23016">
        <ele>595</ele>
        <time>2016-05-15T09:14:19.000Z</time>
      </trkpt>
      <trkpt lat="44.54814" lon="4.23016">
        <ele>595</ele>
        <time>2016-05-15T09:14:20.000Z</time>
      </trkpt>
      <trkpt lat="44.54814" lon="4.23016">
        <ele>595</ele>
        <time>2016-05-15T09:14:21.000Z</time>
      </trkpt>
      <trkpt lat="44.54814" lon="4.23015">
        <ele>595</ele>
        <time>2016-05-15T09:14:22.000Z</time>
      </trkpt>
      <trkpt lat="44.54814" lon="4.23016">
        <ele>595</ele>
        <time>2016-05-15T09:14:23.000Z</time>
      </trkpt>
      <trkpt lat="44.54814" lon="4.23015">
        <ele>595</ele>
        <time>2016-05-15T09:14:24.000Z</time>
      </trkpt>
      <trkpt lat="44.54814" lon="4.23015">
        <ele>595</ele>
        <time>2016-05-15T09:14:25.000Z</time>
      </trkpt>
      <trkpt lat="44.54814" lon="4.23015">
        <ele>595</ele>
        <time>2016-05-15T09:14:26.000Z</time>
      </trkpt>
      <trkpt lat="44.54814" lon="4.23015">
        <ele>595</ele>
        <time>2016-05-15T09:14:27.000Z</time>
      </trkpt>
      <trkpt lat="44.54814" lon="4.23015">
        <ele>595</ele>
        <time>2016-05-15T09:14:28.000Z</time>
      </trkpt>
      <trkpt lat="44.54814" lon="4.23015">
        <ele>595</ele>
        <time>2016-05-15T09:14:29.000Z</time>
      </trkpt>
      <trkpt lat="44.54814" lon="4.23015">
        <ele>595</ele>
        <time>2016-05-15T09:14:30.000Z</time>
      </trkpt>
      <trkpt lat="44.54814" lon="4.23015">
        <ele>595</ele>
        <time>2016-05-15T09:14:31.000Z</time>
      </trkpt>
      <trkpt lat="44.54814" lon="4.23015">
        <ele>595</ele>
        <time>2016-05-15T09:14:32.000Z</time>
      </trkpt>
      <trkpt lat="44.54813" lon="4.23015">
        <ele>595</ele>
        <time>2016-05-15T09:14:33.000Z</time>
      </trkpt>
      <trkpt lat="44.54813" lon="4.23015">
        <ele>595</ele>
        <time>2016-05-15T09:14:34.000Z</time>
      </trkpt>
      <trkpt lat="44.54813" lon="4.23015">
        <ele>595</ele>
        <time>2016-05-15T09:14:35.000Z</time>
      </trkpt>
      <trkpt lat="44.54813" lon="4.23015">
        <ele>595</ele>
        <time>2016-05-15T09:14:36.000Z</time>
      </trkpt>
      <trkpt lat="44.54813" lon="4.23015">
        <ele>595</ele>
        <time>2016-05-15T09:14:37.000Z</time>
      </trkpt>
      <trkpt lat="44.54813" lon="4.23015">
        <ele>595</ele>
        <time>2016-05-15T09:14:38.000Z</time>
      </trkpt>
      <trkpt lat="44.54813" lon="4.23015">
        <ele>595</ele>
        <time>2016-05-15T09:14:39.000Z</time>
      </trkpt>
      <trkpt lat="44.54813" lon="4.23015">
        <ele>595</ele>
        <time>2016-05-15T09:14:40.000Z</time>
      </trkpt>
      <trkpt lat="44.54813" lon="4.23015">
        <ele>595</ele>
        <time>2016-05-15T09:14:41.000Z</time>
      </trkpt>
      <trkpt lat="44.54813" lon="4.23015">
        <ele>595</ele>
        <time>2016-05-15T09:14:42.000Z</time>
      </trkpt>
      <trkpt lat="44.54813" lon="4.23015">
        <ele>595</ele>
        <time>2016-05-15T09:14:43.000Z</time>
      </trkpt>
      <trkpt lat="44.54813" lon="4.23015">
        <ele>595</ele>
        <time>2016-05-15T09:14:44.000Z</time>
      </trkpt>
      <trkpt lat="44.54813" lon="4.23015">
        <ele>595</ele>
        <time>2016-05-15T09:14:45.000Z</time>
      </trkpt>
      <trkpt lat="44.54813" lon="4.23014">
        <ele>595</ele>
        <time>2016-05-15T09:14:46.000Z</time>
      </trkpt>
      <trkpt lat="44.54813" lon="4.23014">
        <ele>595</ele>
        <time>2016-05-15T09:14:47.000Z</time>
      </trkpt>
      <trkpt lat="44.54813" lon="4.23014">
        <ele>595</ele>
        <time>2016-05-15T09:14:48.000Z</time>
      </trkpt>
      <trkpt lat="44.54813" lon="4.23014">
        <ele>595</ele>
        <time>2016-05-15T09:14:49.000Z</time>
      </trkpt>
      <trkpt lat="44.54813" lon="4.23014">
        <ele>595</ele>
        <time>2016-05-15T09:14:50.000Z</time>
      </trkpt>
      <trkpt lat="44.54813" lon="4.23014">
        <ele>595</ele>
        <time>2016-05-15T09:14:51.000Z</time>
      </trkpt>
      <trkpt lat="44.54813" lon="4.23014">
        <ele>595</ele>
        <time>2016-05-15T09:14:52.000Z</time>
      </trkpt>
      <trkpt lat="44.54813" lon="4.23014">
        <ele>595</ele>
        <time>2016-05-15T09:14:53.000Z</time>
      </trkpt>
      <trkpt lat="44.54813" lon="4.23014">
        <ele>595</ele>
        <time>2016-05-15T09:14:54.000Z</time>
      </trkpt>
      <trkpt lat="44.54813" lon="4.23014">
        <ele>595</ele>
        <time>2016-05-15T09:14:55.000Z</time>
      </trkpt>
      <trkpt lat="44.54813" lon="4.23014">
        <ele>595</ele>
        <time>2016-05-15T09:14:56.000Z</time>
      </trkpt>
      <trkpt lat="44.54813" lon="4.23014">
        <ele>595</ele>
        <time>2016-05-15T09:14:57.000Z</time>
      </trkpt>
      <trkpt lat="44.54813" lon="4.23014">
        <ele>595</ele>
        <time>2016-05-15T09:14:58.000Z</time>
      </trkpt>
      <trkpt lat="44.54813" lon="4.23014">
        <ele>595</ele>
        <time>2016-05-15T09:14:59.000Z</time>
      </trkpt>
      <trkpt lat="44.54813" lon="4.23014">
        <ele>595</ele>
        <time>2016-05-15T09:15:00.000Z</time>
      </trkpt>
      <trkpt lat="44.54813" lon="4.23014">
        <ele>595</ele>
        <time>2016-05-15T09:15:01.000Z</time>
      </trkpt>
      <trkpt lat="44.54813" lon="4.23014">
        <ele>595</ele>
        <time>2016-05-15T09:15:02.000Z</time>
      </trkpt>
      <trkpt lat="44.54813" lon="4.23014">
        <ele>595</ele>
        <time>2016-05-15T09:15:03.000Z</time>
      </trkpt>
      <trkpt lat="44.54813" lon="4.23014">
        <ele>595</ele>
        <time>2016-05-15T09:15:04.000Z</time>
      </trkpt>
      <trkpt lat="44.54813" lon="4.23014">
        <ele>595</ele>
        <time>2016-05-15T09:15:05.000Z</time>
      </trkpt>
      <trkpt lat="44.54813" lon="4.23014">
        <ele>595</ele>
        <time>2016-05-15T09:15:06.000Z</time>
      </trkpt>
      <trkpt lat="44.54814" lon="4.23014">
        <ele>595</ele>
        <time>2016-05-15T09:15:07.000Z</time>
      </trkpt>
      <trkpt lat="44.54814" lon="4.23013">
        <ele>595</ele>
        <time>2016-05-15T09:15:08.000Z</time>
      </trkpt>
      <trkpt lat="44.54814" lon="4.23013">
        <ele>595</ele>
        <time>2016-05-15T09:15:09.000Z</time>
      </trkpt>
      <trkpt lat="44.54814" lon="4.23013">
        <ele>595</ele>
        <time>2016-05-15T09:15:10.000Z</time>
      </trkpt>
      <trkpt lat="44.54814" lon="4.23013">
        <ele>595</ele>
        <time>2016-05-15T09:15:11.000Z</time>
      </trkpt>
      <trkpt lat="44.54814" lon="4.23013">
        <ele>595</ele>
        <time>2016-05-15T09:15:12.000Z</time>
      </trkpt>
      <trkpt lat="44.54814" lon="4.23013">
        <ele>595</ele>
        <time>2016-05-15T09:15:13.000Z</time>
      </trkpt>
      <trkpt lat="44.54814" lon="4.23013">
        <ele>595</ele>
        <time>2016-05-15T09:15:14.000Z</time>
      </trkpt>
      <trkpt lat="44.54814" lon="4.23013">
        <ele>595</ele>
        <time>2016-05-15T09:15:15.000Z</time>
      </trkpt>
      <trkpt lat="44.54814" lon="4.23013">
        <ele>595</ele>
        <time>2016-05-15T09:15:16.000Z</time>
      </trkpt>
      <trkpt lat="44.54814" lon="4.23013">
        <ele>595</ele>
        <time>2016-05-15T09:15:17.000Z</time>
      </trkpt>
      <trkpt lat="44.54814" lon="4.23013">
        <ele>595</ele>
        <time>2016-05-15T09:15:18.000Z</time>
      </trkpt>
      <trkpt lat="44.54814" lon="4.23013">
        <ele>595</ele>
        <time>2016-05-15T09:15:19.000Z</time>
      </trkpt>
      <trkpt lat="44.54813" lon="4.23013">
        <ele>595</ele>
        <time>2016-05-15T09:15:20.000Z</time>
      </trkpt>
      <trkpt lat="44.54813" lon="4.23013">
        <ele>595</ele>
        <time>2016-05-15T09:15:21.000Z</time>
      </trkpt>
      <trkpt lat="44.54813" lon="4.23012">
        <ele>595</ele>
        <time>2016-05-15T09:15:22.000Z</time>
      </trkpt>
      <trkpt lat="44.54813" lon="4.23012">
        <ele>595</ele>
        <time>2016-05-15T09:15:23.000Z</time>
      </trkpt>
      <trkpt lat="44.54813" lon="4.23012">
        <ele>595</ele>
        <time>2016-05-15T09:15:24.000Z</time>
      </trkpt>
      <trkpt lat="44.54813" lon="4.23012">
        <ele>595</ele>
        <time>2016-05-15T09:15:25.000Z</time>
      </trkpt>
      <trkpt lat="44.54813" lon="4.23012">
        <ele>595</ele>
        <time>2016-05-15T09:15:26.000Z</time>
      </trkpt>
      <trkpt lat="44.54813" lon="4.23012">
        <ele>595</ele>
        <time>2016-05-15T09:15:27.000Z</time>
      </trkpt>
      <trkpt lat="44.54813" lon="4.23012">
        <ele>595</ele>
        <time>2016-05-15T09:15:28.000Z</time>
      </trkpt>
      <trkpt lat="44.54813" lon="4.23012">
        <ele>595</ele>
        <time>2016-05-15T09:15:29.000Z</time>
      </trkpt>
      <trkpt lat="44.54813" lon="4.23012">
        <ele>595</ele>
        <time>2016-05-15T09:15:30.000Z</time>
      </trkpt>
      <trkpt lat="44.54813" lon="4.23012">
        <ele>595</ele>
        <time>2016-05-15T09:15:31.000Z</time>
      </trkpt>
      <trkpt lat="44.54813" lon="4.23012">
        <ele>595</ele>
        <time>2016-05-15T09:15:32.000Z</time>
      </trkpt>
      <trkpt lat="44.54813" lon="4.23012">
        <ele>595</ele>
        <time>2016-05-15T09:15:33.000Z</time>
      </trkpt>
      <trkpt lat="44.54813" lon="4.23012">
        <ele>595</ele>
        <time>2016-05-15T09:15:34.000Z</time>
      </trkpt>
      <trkpt lat="44.54813" lon="4.23012">
        <ele>595</ele>
        <time>2016-05-15T09:15:35.000Z</time>
      </trkpt>
      <trkpt lat="44.54813" lon="4.23012">
        <ele>595</ele>
        <time>2016-05-15T09:15:36.000Z</time>
      </trkpt>
      <trkpt lat="44.54813" lon="4.23012">
        <ele>595</ele>
        <time>2016-05-15T09:15:37.000Z</time>
      </trkpt>
      <trkpt lat="44.54813" lon="4.23012">
        <ele>595</ele>
        <time>2016-05-15T09:15:38.000Z</time>
      </trkpt>
      <trkpt lat="44.54813" lon="4.23012">
        <ele>595</ele>
        <time>2016-05-15T09:15:39.000Z</time>
      </trkpt>
      <trkpt lat="44.54813" lon="4.23012">
        <ele>595</ele>
        <time>2016-05-15T09:15:40.000Z</time>
      </trkpt>
      <trkpt lat="44.54813" lon="4.23012">
        <ele>595</ele>
        <time>2016-05-15T09:15:41.000Z</time>
      </trkpt>
      <trkpt lat="44.54813" lon="4.23012">
        <ele>595</ele>
        <time>2016-05-15T09:15:42.000Z</time>
      </trkpt>
      <trkpt lat="44.54813" lon="4.23012">
        <ele>595</ele>
        <time>2016-05-15T09:15:43.000Z</time>
      </trkpt>
      <trkpt lat="44.54812" lon="4.23012">
        <ele>595</ele>
        <time>2016-05-15T09:15:44.000Z</time>
      </trkpt>
      <trkpt lat="44.54812" lon="4.23012">
        <ele>595</ele>
        <time>2016-05-15T09:15:45.000Z</time>
      </trkpt>
      <trkpt lat="44.54812" lon="4.23011">
        <ele>595</ele>
        <time>2016-05-15T09:15:46.000Z</time>
      </trkpt>
      <trkpt lat="44.54812" lon="4.23011">
        <ele>595</ele>
        <time>2016-05-15T09:15:47.000Z</time>
      </trkpt>
      <trkpt lat="44.54812" lon="4.23011">
        <ele>595</ele>
        <time>2016-05-15T09:15:48.000Z</time>
      </trkpt>
      <trkpt lat="44.54812" lon="4.23011">
        <ele>595</ele>
        <time>2016-05-15T09:15:49.000Z</time>
      </trkpt>
      <trkpt lat="44.54812" lon="4.23011">
        <ele>595</ele>
        <time>2016-05-15T09:15:50.000Z</time>
      </trkpt>
      <trkpt lat="44.54812" lon="4.23011">
        <ele>595</ele>
        <time>2016-05-15T09:15:51.000Z</time>
      </trkpt>
      <trkpt lat="44.54812" lon="4.23012">
        <ele>595</ele>
        <time>2016-05-15T09:15:52.000Z</time>
      </trkpt>
      <trkpt lat="44.54812" lon="4.23012">
        <ele>595</ele>
        <time>2016-05-15T09:15:53.000Z</time>
      </trkpt>
      <trkpt lat="44.54812" lon="4.23012">
        <ele>595</ele>
        <time>2016-05-15T09:15:54.000Z</time>
      </trkpt>
      <trkpt lat="44.54812" lon="4.23012">
        <ele>595</ele>
        <time>2016-05-15T09:15:55.000Z</time>
      </trkpt>
      <trkpt lat="44.54812" lon="4.23012">
        <ele>595</ele>
        <time>2016-05-15T09:15:56.000Z</time>
      </trkpt>
      <trkpt lat="44.54812" lon="4.23012">
        <ele>595</ele>
        <time>2016-05-15T09:15:57.000Z</time>
      </trkpt>
      <trkpt lat="44.54812" lon="4.23012">
        <ele>595</ele>
        <time>2016-05-15T09:15:58.000Z</time>
      </trkpt>
      <trkpt lat="44.54812" lon="4.23012">
        <ele>595</ele>
        <time>2016-05-15T09:15:59.000Z</time>
      </trkpt>
      <trkpt lat="44.54812" lon="4.23012">
        <ele>595</ele>
        <time>2016-05-15T09:16:00.000Z</time>
      </trkpt>
      <trkpt lat="44.54812" lon="4.23012">
        <ele>595</ele>
        <time>2016-05-15T09:16:01.000Z</time>
      </trkpt>
      <trkpt lat="44.54812" lon="4.23012">
        <ele>595</ele>
        <time>2016-05-15T09:16:02.000Z</time>
      </trkpt>
      <trkpt lat="44.54812" lon="4.23012">
        <ele>595</ele>
        <time>2016-05-15T09:16:03.000Z</time>
      </trkpt>
      <trkpt lat="44.54812" lon="4.23012">
        <ele>595</ele>
        <time>2016-05-15T09:16:04.000Z</time>
      </trkpt>
      <trkpt lat="44.54812" lon="4.23012">
        <ele>595</ele>
        <time>2016-05-15T09:16:05.000Z</time>
      </trkpt>
      <trkpt lat="44.54812" lon="4.23012">
        <ele>595</ele>
        <time>2016-05-15T09:16:06.000Z</time>
      </trkpt>
      <trkpt lat="44.54812" lon="4.23012">
        <ele>595</ele>
        <time>2016-05-15T09:16:07.000Z</time>
      </trkpt>
      <trkpt lat="44.54812" lon="4.23012">
        <ele>595</ele>
        <time>2016-05-15T09:16:08.000Z</time>
      </trkpt>
      <trkpt lat="44.54812" lon="4.23012">
        <ele>595</ele>
        <time>2016-05-15T09:16:09.000Z</time>
      </trkpt>
      <trkpt lat="44.54812" lon="4.23013">
        <ele>595</ele>
        <time>2016-05-15T09:16:10.000Z</time>
      </trkpt>
      <trkpt lat="44.54812" lon="4.23013">
        <ele>595</ele>
        <time>2016-05-15T09:16:11.000Z</time>
      </trkpt>
      <trkpt lat="44.54812" lon="4.23013">
        <ele>595</ele>
        <time>2016-05-15T09:16:12.000Z</time>
      </trkpt>
      <trkpt lat="44.54812" lon="4.23013">
        <ele>595</ele>
        <time>2016-05-15T09:16:13.000Z</time>
      </trkpt>
      <trkpt lat="44.54812" lon="4.23013">
        <ele>595</ele>
        <time>2016-05-15T09:16:14.000Z</time>
      </trkpt>
      <trkpt lat="44.54812" lon="4.23013">
        <ele>595</ele>
        <time>2016-05-15T09:16:15.000Z</time>
      </trkpt>
      <trkpt lat="44.54812" lon="4.23013">
        <ele>595</ele>
        <time>2016-05-15T09:16:16.000Z</time>
      </trkpt>
      <trkpt lat="44.54812" lon="4.23013">
        <ele>595</ele>
        <time>2016-05-15T09:16:17.000Z</time>
      </trkpt>
      <trkpt lat="44.54812" lon="4.23013">
        <ele>595</ele>
        <time>2016-05-15T09:16:18.000Z</time>
      </trkpt>
      <trkpt lat="44.54812" lon="4.23013">
        <ele>595</ele>
        <time>2016-05-15T09:16:19.000Z</time>
      </trkpt>
      <trkpt lat="44.54812" lon="4.23013">
        <ele>595</ele>
        <time>2016-05-15T09:16:20.000Z</time>
      </trkpt>
      <trkpt lat="44.54812" lon="4.23013">
        <ele>595</ele>
        <time>2016-05-15T09:16:21.000Z</time>
      </trkpt>
      <trkpt lat="44.54812" lon="4.23013">
        <ele>595</ele>
        <time>2016-05-15T09:16:22.000Z</time>
      </trkpt>
      <trkpt lat="44.54812" lon="4.23013">
        <ele>595</ele>
        <time>2016-05-15T09:16:23.000Z</time>
      </trkpt>
      <trkpt lat="44.54812" lon="4.23013">
        <ele>595</ele>
        <time>2016-05-15T09:16:24.000Z</time>
      </trkpt>
      <trkpt lat="44.54812" lon="4.23013">
        <ele>595</ele>
        <time>2016-05-15T09:16:25.000Z</time>
      </trkpt>
      <trkpt lat="44.54812" lon="4.23013">
        <ele>595</ele>
        <time>2016-05-15T09:16:26.000Z</time>
      </trkpt>
      <trkpt lat="44.54812" lon="4.23013">
        <ele>595</ele>
        <time>2016-05-15T09:16:27.000Z</time>
      </trkpt>
      <trkpt lat="44.54812" lon="4.23013">
        <ele>595</ele>
        <time>2016-05-15T09:16:28.000Z</time>
      </trkpt>
      <trkpt lat="44.54811" lon="4.23013">
        <ele>595</ele>
        <time>2016-05-15T09:16:29.000Z</time>
      </trkpt>
      <trkpt lat="44.54811" lon="4.23012">
        <ele>595</ele>
        <time>2016-05-15T09:16:30.000Z</time>
      </trkpt>
      <trkpt lat="44.54811" lon="4.23012">
        <ele>595</ele>
        <time>2016-05-15T09:16:31.000Z</time>
      </trkpt>
      <trkpt lat="44.54811" lon="4.23012">
        <ele>595</ele>
        <time>2016-05-15T09:16:32.000Z</time>
      </trkpt>
      <trkpt lat="44.54811" lon="4.23012">
        <ele>595</ele>
        <time>2016-05-15T09:16:33.000Z</time>
      </trkpt>
      <trkpt lat="44.54811" lon="4.23012">
        <ele>595</ele>
        <time>2016-05-15T09:16:34.000Z</time>
      </trkpt>
      <trkpt lat="44.54811" lon="4.23012">
        <ele>595</ele>
        <time>2016-05-15T09:16:35.000Z</time>
      </trkpt>
      <trkpt lat="44.54811" lon="4.23012">
        <ele>595</ele>
        <time>2016-05-15T09:16:36.000Z</time>
      </trkpt>
      <trkpt lat="44.54811" lon="4.23012">
        <ele>596</ele>
        <time>2016-05-15T09:16:37.000Z</time>
      </trkpt>
      <trkpt lat="44.54811" lon="4.23012">
        <ele>596</ele>
        <time>2016-05-15T09:16:38.000Z</time>
      </trkpt>
      <trkpt lat="44.54811" lon="4.23012">
        <ele>596</ele>
        <time>2016-05-15T09:16:39.000Z</time>
      </trkpt>
      <trkpt lat="44.54811" lon="4.23011">
        <ele>596</ele>
        <time>2016-05-15T09:16:40.000Z</time>
      </trkpt>
      <trkpt lat="44.54811" lon="4.23011">
        <ele>596</ele>
        <time>2016-05-15T09:16:41.000Z</time>
      </trkpt>
      <trkpt lat="44.54811" lon="4.23011">
        <ele>596</ele>
        <time>2016-05-15T09:16:42.000Z</time>
      </trkpt>
      <trkpt lat="44.54811" lon="4.23011">
        <ele>596</ele>
        <time>2016-05-15T09:16:43.000Z</time>
      </trkpt>
      <trkpt lat="44.54811" lon="4.23011">
        <ele>596</ele>
        <time>2016-05-15T09:16:44.000Z</time>
      </trkpt>
      <trkpt lat="44.5481" lon="4.23011">
        <ele>596</ele>
        <time>2016-05-15T09:16:45.000Z</time>
      </trkpt>
      <trkpt lat="44.5481" lon="4.23011">
        <ele>596</ele>
        <time>2016-05-15T09:16:46.000Z</time>
      </trkpt>
      <trkpt lat="44.5481" lon="4.23011">
        <ele>596</ele>
        <time>2016-05-15T09:16:47.000Z</time>
      </trkpt>
      <trkpt lat="44.5481" lon="4.23011">
        <ele>596</ele>
        <time>2016-05-15T09:16:48.000Z</time>
      </trkpt>
      <trkpt lat="44.5481" lon="4.23011">
        <ele>596</ele>
        <time>2016-05-15T09:16:49.000Z</time>
      </trkpt>
      <trkpt lat="44.5481" lon="4.23011">
        <ele>596</ele>
        <time>2016-05-15T09:16:50.000Z</time>
      </trkpt>
      <trkpt lat="44.5481" lon="4.23011">
        <ele>596</ele>
        <time>2016-05-15T09:16:51.000Z</time>
      </trkpt>
      <trkpt lat="44.5481" lon="4.23011">
        <ele>596</ele>
        <time>2016-05-15T09:16:52.000Z</time>
      </trkpt>
      <trkpt lat="44.5481" lon="4.2301">
        <ele>596</ele>
        <time>2016-05-15T09:16:53.000Z</time>
      </trkpt>
      <trkpt lat="44.5481" lon="4.2301">
        <ele>596</ele>
        <time>2016-05-15T09:16:54.000Z</time>
      </trkpt>
      <trkpt lat="44.54809" lon="4.2301">
        <ele>596</ele>
        <time>2016-05-15T09:16:55.000Z</time>
      </trkpt>
      <trkpt lat="44.54809" lon="4.2301">
        <ele>596</ele>
        <time>2016-05-15T09:16:56.000Z</time>
      </trkpt>
      <trkpt lat="44.54809" lon="4.2301">
        <ele>596</ele>
        <time>2016-05-15T09:16:57.000Z</time>
      </trkpt>
      <trkpt lat="44.54809" lon="4.2301">
        <ele>596</ele>
        <time>2016-05-15T09:16:58.000Z</time>
      </trkpt>
      <trkpt lat="44.54809" lon="4.2301">
        <ele>596</ele>
        <time>2016-05-15T09:16:59.000Z</time>
      </trkpt>
      <trkpt lat="44.54809" lon="4.2301">
        <ele>596</ele>
        <time>2016-05-15T09:17:00.000Z</time>
      </trkpt>
      <trkpt lat="44.54809" lon="4.2301">
        <ele>596</ele>
        <time>2016-05-15T09:17:01.000Z</time>
      </trkpt>
      <trkpt lat="44.54808" lon="4.2301">
        <ele>596</ele>
        <time>2016-05-15T09:17:02.000Z</time>
      </trkpt>
      <trkpt lat="44.54808" lon="4.2301">
        <ele>596</ele>
        <time>2016-05-15T09:17:03.000Z</time>
      </trkpt>
      <trkpt lat="44.54808" lon="4.2301">
        <ele>596</ele>
        <time>2016-05-15T09:17:04.000Z</time>
      </trkpt>
      <trkpt lat="44.54808" lon="4.2301">
        <ele>596</ele>
        <time>2016-05-15T09:17:05.000Z</time>
      </trkpt>
      <trkpt lat="44.54808" lon="4.2301">
        <ele>596</ele>
        <time>2016-05-15T09:17:06.000Z</time>
      </trkpt>
      <trkpt lat="44.54808" lon="4.2301">
        <ele>596</ele>
        <time>2016-05-15T09:17:07.000Z</time>
      </trkpt>
      <trkpt lat="44.54808" lon="4.2301">
        <ele>596</ele>
        <time>2016-05-15T09:17:08.000Z</time>
      </trkpt>
      <trkpt lat="44.54808" lon="4.2301">
        <ele>596</ele>
        <time>2016-05-15T09:17:09.000Z</time>
      </trkpt>
      <trkpt lat="44.54808" lon="4.2301">
        <ele>596</ele>
        <time>2016-05-15T09:17:10.000Z</time>
      </trkpt>
      <trkpt lat="44.54808" lon="4.2301">
        <ele>596</ele>
        <time>2016-05-15T09:17:11.000Z</time>
      </trkpt>
      <trkpt lat="44.54808" lon="4.2301">
        <ele>596</ele>
        <time>2016-05-15T09:17:12.000Z</time>
      </trkpt>
      <trkpt lat="44.54808" lon="4.2301">
        <ele>596</ele>
        <time>2016-05-15T09:17:13.000Z</time>
      </trkpt>
      <trkpt lat="44.54808" lon="4.2301">
        <ele>596</ele>
        <time>2016-05-15T09:17:14.000Z</time>
      </trkpt>
      <trkpt lat="44.54808" lon="4.2301">
        <ele>596</ele>
        <time>2016-05-15T09:17:15.000Z</time>
      </trkpt>
      <trkpt lat="44.54808" lon="4.2301">
        <ele>596</ele>
        <time>2016-05-15T09:17:16.000Z</time>
      </trkpt>
      <trkpt lat="44.54808" lon="4.2301">
        <ele>596</ele>
        <time>2016-05-15T09:17:17.000Z</time>
      </trkpt>
      <trkpt lat="44.54808" lon="4.2301">
        <ele>596</ele>
        <time>2016-05-15T09:17:18.000Z</time>
      </trkpt>
      <trkpt lat="44.54808" lon="4.2301">
        <ele>596</ele>
        <time>2016-05-15T09:17:19.000Z</time>
      </trkpt>
      <trkpt lat="44.54808" lon="4.2301">
        <ele>596</ele>
        <time>2016-05-15T09:17:20.000Z</time>
      </trkpt>
      <trkpt lat="44.54808" lon="4.2301">
        <ele>596</ele>
        <time>2016-05-15T09:17:21.000Z</time>
      </trkpt>
      <trkpt lat="44.54808" lon="4.23011">
        <ele>596</ele>
        <time>2016-05-15T09:17:22.000Z</time>
      </trkpt>
      <trkpt lat="44.54808" lon="4.23011">
        <ele>596</ele>
        <time>2016-05-15T09:17:23.000Z</time>
      </trkpt>
      <trkpt lat="44.54808" lon="4.23011">
        <ele>596</ele>
        <time>2016-05-15T09:17:24.000Z</time>
      </trkpt>
      <trkpt lat="44.54808" lon="4.23011">
        <ele>596</ele>
        <time>2016-05-15T09:17:25.000Z</time>
      </trkpt>
      <trkpt lat="44.54808" lon="4.23011">
        <ele>596</ele>
        <time>2016-05-15T09:17:26.000Z</time>
      </trkpt>
      <trkpt lat="44.54808" lon="4.23011">
        <ele>596</ele>
        <time>2016-05-15T09:17:27.000Z</time>
      </trkpt>
      <trkpt lat="44.54808" lon="4.23011">
        <ele>596</ele>
        <time>2016-05-15T09:17:28.000Z</time>
      </trkpt>
      <trkpt lat="44.54808" lon="4.23011">
        <ele>596</ele>
        <time>2016-05-15T09:17:29.000Z</time>
      </trkpt>
      <trkpt lat="44.54808" lon="4.23011">
        <ele>596</ele>
        <time>2016-05-15T09:17:30.000Z</time>
      </trkpt>
      <trkpt lat="44.54808" lon="4.23011">
        <ele>596</ele>
        <time>2016-05-15T09:17:31.000Z</time>
      </trkpt>
      <trkpt lat="44.54808" lon="4.23011">
        <ele>596</ele>
        <time>2016-05-15T09:17:32.000Z</time>
      </trkpt>
      <trkpt lat="44.54808" lon="4.23012">
        <ele>596</ele>
        <time>2016-05-15T09:17:33.000Z</time>
      </trkpt>
      <trkpt lat="44.54808" lon="4.23012">
        <ele>596</ele>
        <time>2016-05-15T09:17:34.000Z</time>
      </trkpt>
      <trkpt lat="44.54808" lon="4.23012">
        <ele>596</ele>
        <time>2016-05-15T09:17:35.000Z</time>
      </trkpt>
      <trkpt lat="44.54808" lon="4.23012">
        <ele>596</ele>
        <time>2016-05-15T09:17:36.000Z</time>
      </trkpt>
      <trkpt lat="44.54808" lon="4.23012">
        <ele>596</ele>
        <time>2016-05-15T09:17:37.000Z</time>
      </trkpt>
      <trkpt lat="44.54808" lon="4.23012">
        <ele>596</ele>
        <time>2016-05-15T09:17:38.000Z</time>
      </trkpt>
      <trkpt lat="44.54808" lon="4.23013">
        <ele>596</ele>
        <time>2016-05-15T09:17:39.000Z</time>
      </trkpt>
      <trkpt lat="44.54808" lon="4.23013">
        <ele>596</ele>
        <time>2016-05-15T09:17:40.000Z</time>
      </trkpt>
      <trkpt lat="44.54809" lon="4.23013">
        <ele>596</ele>
        <time>2016-05-15T09:17:41.000Z</time>
      </trkpt>
      <trkpt lat="44.54809" lon="4.23013">
        <ele>596</ele>
        <time>2016-05-15T09:17:42.000Z</time>
      </trkpt>
      <trkpt lat="44.54809" lon="4.23013">
        <ele>596</ele>
        <time>2016-05-15T09:17:43.000Z</time>
      </trkpt>
      <trkpt lat="44.54809" lon="4.23013">
        <ele>596</ele>
        <time>2016-05-15T09:17:44.000Z</time>
      </trkpt>
      <trkpt lat="44.54809" lon="4.23013">
        <ele>596</ele>
        <time>2016-05-15T09:17:45.000Z</time>
      </trkpt>
      <trkpt lat="44.54809" lon="4.23014">
        <ele>596</ele>
        <time>2016-05-15T09:17:46.000Z</time>
      </trkpt>
      <trkpt lat="44.54809" lon="4.23014">
        <ele>596</ele>
        <time>2016-05-15T09:17:47.000Z</time>
      </trkpt>
      <trkpt lat="44.5481" lon="4.23014">
        <ele>596</ele>
        <time>2016-05-15T09:17:48.000Z</time>
      </trkpt>
      <trkpt lat="44.5481" lon="4.23014">
        <ele>595</ele>
        <time>2016-05-15T09:17:49.000Z</time>
      </trkpt>
      <trkpt lat="44.5481" lon="4.23014">
        <ele>595</ele>
        <time>2016-05-15T09:17:50.000Z</time>
      </trkpt>
      <trkpt lat="44.5481" lon="4.23014">
        <ele>595</ele>
        <time>2016-05-15T09:17:51.000Z</time>
      </trkpt>
      <trkpt lat="44.5481" lon="4.23014">
        <ele>595</ele>
        <time>2016-05-15T09:17:52.000Z</time>
      </trkpt>
      <trkpt lat="44.5481" lon="4.23014">
        <ele>595</ele>
        <time>2016-05-15T09:17:53.000Z</time>
      </trkpt>
      <trkpt lat="44.5481" lon="4.23014">
        <ele>595</ele>
        <time>2016-05-15T09:17:54.000Z</time>
      </trkpt>
      <trkpt lat="44.54811" lon="4.23014">
        <ele>595</ele>
        <time>2016-05-15T09:17:55.000Z</time>
      </trkpt>
      <trkpt lat="44.54811" lon="4.23014">
        <ele>595</ele>
        <time>2016-05-15T09:17:56.000Z</time>
      </trkpt>
      <trkpt lat="44.54811" lon="4.23014">
        <ele>595</ele>
        <time>2016-05-15T09:17:57.000Z</time>
      </trkpt>
      <trkpt lat="44.54811" lon="4.23014">
        <ele>595</ele>
        <time>2016-05-15T09:17:58.000Z</time>
      </trkpt>
      <trkpt lat="44.54811" lon="4.23014">
        <ele>595</ele>
        <time>2016-05-15T09:17:59.000Z</time>
      </trkpt>
      <trkpt lat="44.54811" lon="4.23014">
        <ele>595</ele>
        <time>2016-05-15T09:18:00.000Z</time>
      </trkpt>
      <trkpt lat="44.54812" lon="4.23014">
        <ele>595</ele>
        <time>2016-05-15T09:18:01.000Z</time>
      </trkpt>
      <trkpt lat="44.54812" lon="4.23014">
        <ele>595</ele>
        <time>2016-05-15T09:18:02.000Z</time>
      </trkpt>
      <trkpt lat="44.54812" lon="4.23014">
        <ele>595</ele>
        <time>2016-05-15T09:18:03.000Z</time>
      </trkpt>
      <trkpt lat="44.54812" lon="4.23014">
        <ele>595</ele>
        <time>2016-05-15T09:18:04.000Z</time>
      </trkpt>
      <trkpt lat="44.54812" lon="4.23014">
        <ele>595</ele>
        <time>2016-05-15T09:18:05.000Z</time>
      </trkpt>
      <trkpt lat="44.54813" lon="4.23014">
        <ele>595</ele>
        <time>2016-05-15T09:18:06.000Z</time>
      </trkpt>
      <trkpt lat="44.54813" lon="4.23014">
        <ele>595</ele>
        <time>2016-05-15T09:18:07.000Z</time>
      </trkpt>
      <trkpt lat="44.54813" lon="4.23013">
        <ele>595</ele>
        <time>2016-05-15T09:18:08.000Z</time>
      </trkpt>
      <trkpt lat="44.54813" lon="4.23013">
        <ele>595</ele>
        <time>2016-05-15T09:18:09.000Z</time>
      </trkpt>
      <trkpt lat="44.54813" lon="4.23013">
        <ele>595</ele>
        <time>2016-05-15T09:18:10.000Z</time>
      </trkpt>
      <trkpt lat="44.54813" lon="4.23013">
        <ele>595</ele>
        <time>2016-05-15T09:18:11.000Z</time>
      </trkpt>
      <trkpt lat="44.54813" lon="4.23013">
        <ele>595</ele>
        <time>2016-05-15T09:18:12.000Z</time>
      </trkpt>
      <trkpt lat="44.54813" lon="4.23013">
        <ele>595</ele>
        <time>2016-05-15T09:18:13.000Z</time>
      </trkpt>
      <trkpt lat="44.54814" lon="4.23013">
        <ele>595</ele>
        <time>2016-05-15T09:18:14.000Z</time>
      </trkpt>
      <trkpt lat="44.54814" lon="4.23013">
        <ele>595</ele>
        <time>2016-05-15T09:18:15.000Z</time>
      </trkpt>
      <trkpt lat="44.54814" lon="4.23013">
        <ele>595</ele>
        <time>2016-05-15T09:18:16.000Z</time>
      </trkpt>
      <trkpt lat="44.54814" lon="4.23013">
        <ele>595</ele>
        <time>2016-05-15T09:18:17.000Z</time>
      </trkpt>
      <trkpt lat="44.54814" lon="4.23013">
        <ele>595</ele>
        <time>2016-05-15T09:18:18.000Z</time>
      </trkpt>
      <trkpt lat="44.54814" lon="4.23013">
        <ele>595</ele>
        <time>2016-05-15T09:18:19.000Z</time>
      </trkpt>
      <trkpt lat="44.54814" lon="4.23013">
        <ele>595</ele>
        <time>2016-05-15T09:18:20.000Z</time>
      </trkpt>
      <trkpt lat="44.54814" lon="4.23013">
        <ele>595</ele>
        <time>2016-05-15T09:18:21.000Z</time>
      </trkpt>
      <trkpt lat="44.54814" lon="4.23013">
        <ele>595</ele>
        <time>2016-05-15T09:18:22.000Z</time>
      </trkpt>
      <trkpt lat="44.54814" lon="4.23013">
        <ele>595</ele>
        <time>2016-05-15T09:18:23.000Z</time>
      </trkpt>
      <trkpt lat="44.54814" lon="4.23013">
        <ele>595</ele>
        <time>2016-05-15T09:18:24.000Z</time>
      </trkpt>
      <trkpt lat="44.54814" lon="4.23013">
        <ele>595</ele>
        <time>2016-05-15T09:18:25.000Z</time>
      </trkpt>
      <trkpt lat="44.54815" lon="4.23013">
        <ele>595</ele>
        <time>2016-05-15T09:18:26.000Z</time>
      </trkpt>
      <trkpt lat="44.54815" lon="4.23013">
        <ele>595</ele>
        <time>2016-05-15T09:18:27.000Z</time>
      </trkpt>
      <trkpt lat="44.54815" lon="4.23013">
        <ele>595</ele>
        <time>2016-05-15T09:18:28.000Z</time>
      </trkpt>
      <trkpt lat="44.54815" lon="4.23013">
        <ele>595</ele>
        <time>2016-05-15T09:18:29.000Z</time>
      </trkpt>
      <trkpt lat="44.54815" lon="4.23013">
        <ele>595</ele>
        <time>2016-05-15T09:18:30.000Z</time>
      </trkpt>
      <trkpt lat="44.54815" lon="4.23013">
        <ele>595</ele>
        <time>2016-05-15T09:18:31.000Z</time>
      </trkpt>
      <trkpt lat="44.54815" lon="4.23013">
        <ele>595</ele>
        <time>2016-05-15T09:18:32.000Z</time>
      </trkpt>
      <trkpt lat="44.54815" lon="4.23013">
        <ele>595</ele>
        <time>2016-05-15T09:18:33.000Z</time>
      </trkpt>
      <trkpt lat="44.54815" lon="4.23013">
        <ele>595</ele>
        <time>2016-05-15T09:18:34.000Z</time>
      </trkpt>
      <trkpt lat="44.54815" lon="4.23013">
        <ele>595</ele>
        <time>2016-05-15T09:18:35.000Z</time>
      </trkpt>
      <trkpt lat="44.54815" lon="4.23013">
        <ele>595</ele>
        <time>2016-05-15T09:18:36.000Z</time>
      </trkpt>
      <trkpt lat="44.54815" lon="4.23013">
        <ele>595</ele>
        <time>2016-05-15T09:18:37.000Z</time>
      </trkpt>
      <trkpt lat="44.54815" lon="4.23013">
        <ele>595</ele>
        <time>2016-05-15T09:18:38.000Z</time>
      </trkpt>
      <trkpt lat="44.54815" lon="4.23013">
        <ele>595</ele>
        <time>2016-05-15T09:18:39.000Z</time>
      </trkpt>
      <trkpt lat="44.54815" lon="4.23013">
        <ele>595</ele>
        <time>2016-05-15T09:18:40.000Z</time>
      </trkpt>
      <trkpt lat="44.54815" lon="4.23013">
        <ele>595</ele>
        <time>2016-05-15T09:18:41.000Z</time>
      </trkpt>
      <trkpt lat="44.54815" lon="4.23013">
        <ele>595</ele>
        <time>2016-05-15T09:18:42.000Z</time>
      </trkpt>
      <trkpt lat="44.54815" lon="4.23013">
        <ele>595</ele>
        <time>2016-05-15T09:18:43.000Z</time>
      </trkpt>
      <trkpt lat="44.54815" lon="4.23013">
        <ele>595</ele>
        <time>2016-05-15T09:18:44.000Z</time>
      </trkpt>
      <trkpt lat="44.54815" lon="4.23013">
        <ele>595</ele>
        <time>2016-05-15T09:18:45.000Z</time>
      </trkpt>
      <trkpt lat="44.54815" lon="4.23013">
        <ele>595</ele>
        <time>2016-05-15T09:18:46.000Z</time>
      </trkpt>
      <trkpt lat="44.54815" lon="4.23013">
        <ele>595</ele>
        <time>2016-05-15T09:18:47.000Z</time>
      </trkpt>
      <trkpt lat="44.54815" lon="4.23013">
        <ele>595</ele>
        <time>2016-05-15T09:18:48.000Z</time>
      </trkpt>
      <trkpt lat="44.54815" lon="4.23013">
        <ele>595</ele>
        <time>2016-05-15T09:18:49.000Z</time>
      </trkpt>
      <trkpt lat="44.54815" lon="4.23013">
        <ele>595</ele>
        <time>2016-05-15T09:18:50.000Z</time>
      </trkpt>
      <trkpt lat="44.54815" lon="4.23013">
        <ele>595</ele>
        <time>2016-05-15T09:18:51.000Z</time>
      </trkpt>
      <trkpt lat="44.54815" lon="4.23013">
        <ele>595</ele>
        <time>2016-05-15T09:18:52.000Z</time>
      </trkpt>
      <trkpt lat="44.54815" lon="4.23013">
        <ele>595</ele>
        <time>2016-05-15T09:18:53.000Z</time>
      </trkpt>
      <trkpt lat="44.54815" lon="4.23013">
        <ele>595</ele>
        <time>2016-05-15T09:18:54.000Z</time>
      </trkpt>
      <trkpt lat="44.54815" lon="4.23013">
        <ele>595</ele>
        <time>2016-05-15T09:18:55.000Z</time>
      </trkpt>
      <trkpt lat="44.54815" lon="4.23013">
        <ele>595</ele>
        <time>2016-05-15T09:18:56.000Z</time>
      </trkpt>
      <trkpt lat="44.54815" lon="4.23013">
        <ele>595</ele>
        <time>2016-05-15T09:18:57.000Z</time>
      </trkpt>
      <trkpt lat="44.54815" lon="4.23013">
        <ele>595</ele>
        <time>2016-05-15T09:18:58.000Z</time>
      </trkpt>
      <trkpt lat="44.54814" lon="4.23013">
        <ele>595</ele>
        <time>2016-05-15T09:18:59.000Z</time>
      </trkpt>
      <trkpt lat="44.54814" lon="4.23013">
        <ele>595</ele>
        <time>2016-05-15T09:19:00.000Z</time>
      </trkpt>
      <trkpt lat="44.54814" lon="4.23013">
        <ele>595</ele>
        <time>2016-05-15T09:19:01.000Z</time>
      </trkpt>
      <trkpt lat="44.54814" lon="4.23013">
        <ele>595</ele>
        <time>2016-05-15T09:19:02.000Z</time>
      </trkpt>
      <trkpt lat="44.54814" lon="4.23013">
        <ele>595</ele>
        <time>2016-05-15T09:19:03.000Z</time>
      </trkpt>
      <trkpt lat="44.54814" lon="4.23013">
        <ele>595</ele>
        <time>2016-05-15T09:19:04.000Z</time>
      </trkpt>
      <trkpt lat="44.54814" lon="4.23012">
        <ele>595</ele>
        <time>2016-05-15T09:19:05.000Z</time>
      </trkpt>
      <trkpt lat="44.54814" lon="4.23012">
        <ele>595</ele>
        <time>2016-05-15T09:19:06.000Z</time>
      </trkpt>
      <trkpt lat="44.54814" lon="4.23012">
        <ele>595</ele>
        <time>2016-05-15T09:19:07.000Z</time>
      </trkpt>
      <trkpt lat="44.54814" lon="4.23012">
        <ele>595</ele>
        <time>2016-05-15T09:19:08.000Z</time>
      </trkpt>
      <trkpt lat="44.54814" lon="4.23012">
        <ele>595</ele>
        <time>2016-05-15T09:19:09.000Z</time>
      </trkpt>
      <trkpt lat="44.54814" lon="4.23012">
        <ele>595</ele>
        <time>2016-05-15T09:19:10.000Z</time>
      </trkpt>
      <trkpt lat="44.54814" lon="4.23012">
        <ele>595</ele>
        <time>2016-05-15T09:19:11.000Z</time>
      </trkpt>
      <trkpt lat="44.54814" lon="4.23012">
        <ele>595</ele>
        <time>2016-05-15T09:19:12.000Z</time>
      </trkpt>
      <trkpt lat="44.54814" lon="4.23012">
        <ele>595</ele>
        <time>2016-05-15T09:19:13.000Z</time>
      </trkpt>
      <trkpt lat="44.54814" lon="4.23012">
        <ele>595</ele>
        <time>2016-05-15T09:19:14.000Z</time>
      </trkpt>
      <trkpt lat="44.54814" lon="4.23012">
        <ele>595</ele>
        <time>2016-05-15T09:19:15.000Z</time>
      </trkpt>
      <trkpt lat="44.54814" lon="4.23012">
        <ele>595</ele>
        <time>2016-05-15T09:19:16.000Z</time>
      </trkpt>
      <trkpt lat="44.54814" lon="4.23012">
        <ele>595</ele>
        <time>2016-05-15T09:19:17.000Z</time>
      </trkpt>
      <trkpt lat="44.54814" lon="4.23012">
        <ele>595</ele>
        <time>2016-05-15T09:19:18.000Z</time>
      </trkpt>
      <trkpt lat="44.54814" lon="4.23012">
        <ele>595</ele>
        <time>2016-05-15T09:19:19.000Z</time>
      </trkpt>
      <trkpt lat="44.54814" lon="4.23012">
        <ele>595</ele>
        <time>2016-05-15T09:19:20.000Z</time>
      </trkpt>
      <trkpt lat="44.54814" lon="4.23012">
        <ele>595</ele>
        <time>2016-05-15T09:19:21.000Z</time>
      </trkpt>
      <trkpt lat="44.54814" lon="4.23012">
        <ele>595</ele>
        <time>2016-05-15T09:19:22.000Z</time>
      </trkpt>
      <trkpt lat="44.54814" lon="4.23012">
        <ele>595</ele>
        <time>2016-05-15T09:19:23.000Z</time>
      </trkpt>
      <trkpt lat="44.54814" lon="4.23012">
        <ele>595</ele>
        <time>2016-05-15T09:19:24.000Z</time>
      </trkpt>
      <trkpt lat="44.54814" lon="4.23013">
        <ele>595</ele>
        <time>2016-05-15T09:19:25.000Z</time>
      </trkpt>
      <trkpt lat="44.54815" lon="4.23013">
        <ele>595</ele>
        <time>2016-05-15T09:19:26.000Z</time>
      </trkpt>
      <trkpt lat="44.54815" lon="4.23013">
        <ele>595</ele>
        <time>2016-05-15T09:19:27.000Z</time>
      </trkpt>
      <trkpt lat="44.54815" lon="4.23013">
        <ele>595</ele>
        <time>2016-05-15T09:19:28.000Z</time>
      </trkpt>
      <trkpt lat="44.54815" lon="4.23013">
        <ele>595</ele>
        <time>2016-05-15T09:19:29.000Z</time>
      </trkpt>
      <trkpt lat="44.54815" lon="4.23013">
        <ele>595</ele>
        <time>2016-05-15T09:19:30.000Z</time>
      </trkpt>
      <trkpt lat="44.54815" lon="4.23013">
        <ele>595</ele>
        <time>2016-05-15T09:19:31.000Z</time>
      </trkpt>
      <trkpt lat="44.54815" lon="4.23013">
        <ele>595</ele>
        <time>2016-05-15T09:19:32.000Z</time>
      </trkpt>
      <trkpt lat="44.54815" lon="4.23013">
        <ele>595</ele>
        <time>2016-05-15T09:19:33.000Z</time>
      </trkpt>
      <trkpt lat="44.54815" lon="4.23013">
        <ele>595</ele>
        <time>2016-05-15T09:19:34.000Z</time>
      </trkpt>
      <trkpt lat="44.54815" lon="4.23013">
        <ele>595</ele>
        <time>2016-05-15T09:19:35.000Z</time>
      </trkpt>
      <trkpt lat="44.54815" lon="4.23013">
        <ele>595</ele>
        <time>2016-05-15T09:19:36.000Z</time>
      </trkpt>
      <trkpt lat="44.54815" lon="4.23013">
        <ele>595</ele>
        <time>2016-05-15T09:19:37.000Z</time>
      </trkpt>
      <trkpt lat="44.54816" lon="4.23013">
        <ele>595</ele>
        <time>2016-05-15T09:19:38.000Z</time>
      </trkpt>
      <trkpt lat="44.54816" lon="4.23013">
        <ele>595</ele>
        <time>2016-05-15T09:19:39.000Z</time>
      </trkpt>
      <trkpt lat="44.54816" lon="4.23013">
        <ele>595</ele>
        <time>2016-05-15T09:19:40.000Z</time>
      </trkpt>
      <trkpt lat="44.54816" lon="4.23013">
        <ele>595</ele>
        <time>2016-05-15T09:19:41.000Z</time>
      </trkpt>
      <trkpt lat="44.54816" lon="4.23013">
        <ele>595</ele>
        <time>2016-05-15T09:19:42.000Z</time>
      </trkpt>
      <trkpt lat="44.54816" lon="4.23013">
        <ele>595</ele>
        <time>2016-05-15T09:19:43.000Z</time>
      </trkpt>
      <trkpt lat="44.54816" lon="4.23013">
        <ele>595</ele>
        <time>2016-05-15T09:19:44.000Z</time>
      </trkpt>
      <trkpt lat="44.54816" lon="4.23013">
        <ele>595</ele>
        <time>2016-05-15T09:19:45.000Z</time>
      </trkpt>
      <trkpt lat="44.54816" lon="4.23013">
        <ele>595</ele>
        <time>2016-05-15T09:19:46.000Z</time>
      </trkpt>
      <trkpt lat="44.54816" lon="4.23013">
        <ele>595</ele>
        <time>2016-05-15T09:19:47.000Z</time>
      </trkpt>
      <trkpt lat="44.54816" lon="4.23013">
        <ele>595</ele>
        <time>2016-05-15T09:19:48.000Z</time>
      </trkpt>
      <trkpt lat="44.54817" lon="4.23013">
        <ele>595</ele>
        <time>2016-05-15T09:19:49.000Z</time>
      </trkpt>
      <trkpt lat="44.54817" lon="4.23013">
        <ele>595</ele>
        <time>2016-05-15T09:19:50.000Z</time>
      </trkpt>
      <trkpt lat="44.54817" lon="4.23013">
        <ele>595</ele>
        <time>2016-05-15T09:19:51.000Z</time>
      </trkpt>
      <trkpt lat="44.54817" lon="4.23014">
        <ele>595</ele>
        <time>2016-05-15T09:19:52.000Z</time>
      </trkpt>
      <trkpt lat="44.54817" lon="4.23014">
        <ele>595</ele>
        <time>2016-05-15T09:19:53.000Z</time>
      </trkpt>
      <trkpt lat="44.54817" lon="4.23014">
        <ele>595</ele>
        <time>2016-05-15T09:19:54.000Z</time>
      </trkpt>
      <trkpt lat="44.54817" lon="4.23014">
        <ele>595</ele>
        <time>2016-05-15T09:19:55.000Z</time>
      </trkpt>
      <trkpt lat="44.54817" lon="4.23014">
        <ele>595</ele>
        <time>2016-05-15T09:19:56.000Z</time>
      </trkpt>
      <trkpt lat="44.54817" lon="4.23014">
        <ele>595</ele>
        <time>2016-05-15T09:19:57.000Z</time>
      </trkpt>
      <trkpt lat="44.54817" lon="4.23014">
        <ele>595</ele>
        <time>2016-05-15T09:19:58.000Z</time>
      </trkpt>
      <trkpt lat="44.54817" lon="4.23014">
        <ele>595</ele>
        <time>2016-05-15T09:19:59.000Z</time>
      </trkpt>
      <trkpt lat="44.54817" lon="4.23014">
        <ele>595</ele>
        <time>2016-05-15T09:20:00.000Z</time>
      </trkpt>
      <trkpt lat="44.54818" lon="4.23014">
        <ele>595</ele>
        <time>2016-05-15T09:20:01.000Z</time>
      </trkpt>
      <trkpt lat="44.54818" lon="4.23014">
        <ele>595</ele>
        <time>2016-05-15T09:20:02.000Z</time>
      </trkpt>
      <trkpt lat="44.54818" lon="4.23014">
        <ele>595</ele>
        <time>2016-05-15T09:20:03.000Z</time>
      </trkpt>
      <trkpt lat="44.54818" lon="4.23014">
        <ele>595</ele>
        <time>2016-05-15T09:20:04.000Z</time>
      </trkpt>
      <trkpt lat="44.54818" lon="4.23014">
        <ele>595</ele>
        <time>2016-05-15T09:20:05.000Z</time>
      </trkpt>
      <trkpt lat="44.54818" lon="4.23014">
        <ele>595</ele>
        <time>2016-05-15T09:20:06.000Z</time>
      </trkpt>
      <trkpt lat="44.54818" lon="4.23014">
        <ele>595</ele>
        <time>2016-05-15T09:20:07.000Z</time>
      </trkpt>
      <trkpt lat="44.54818" lon="4.23014">
        <ele>595</ele>
        <time>2016-05-15T09:20:08.000Z</time>
      </trkpt>
      <trkpt lat="44.54819" lon="4.23014">
        <ele>595</ele>
        <time>2016-05-15T09:20:09.000Z</time>
      </trkpt>
      <trkpt lat="44.54819" lon="4.23015">
        <ele>595</ele>
        <time>2016-05-15T09:20:10.000Z</time>
      </trkpt>
      <trkpt lat="44.54819" lon="4.23015">
        <ele>595</ele>
        <time>2016-05-15T09:20:11.000Z</time>
      </trkpt>
      <trkpt lat="44.54819" lon="4.23015">
        <ele>595</ele>
        <time>2016-05-15T09:20:12.000Z</time>
      </trkpt>
      <trkpt lat="44.54819" lon="4.23015">
        <ele>595</ele>
        <time>2016-05-15T09:20:13.000Z</time>
      </trkpt>
      <trkpt lat="44.54819" lon="4.23015">
        <ele>595</ele>
        <time>2016-05-15T09:20:14.000Z</time>
      </trkpt>
      <trkpt lat="44.54819" lon="4.23015">
        <ele>595</ele>
        <time>2016-05-15T09:20:15.000Z</time>
      </trkpt>
      <trkpt lat="44.54819" lon="4.23015">
        <ele>595</ele>
        <time>2016-05-15T09:20:16.000Z</time>
      </trkpt>
      <trkpt lat="44.5482" lon="4.23015">
        <ele>595</ele>
        <time>2016-05-15T09:20:17.000Z</time>
      </trkpt>
      <trkpt lat="44.5482" lon="4.23015">
        <ele>595</ele>
        <time>2016-05-15T09:20:18.000Z</time>
      </trkpt>
      <trkpt lat="44.5482" lon="4.23015">
        <ele>595</ele>
        <time>2016-05-15T09:20:19.000Z</time>
      </trkpt>
      <trkpt lat="44.5482" lon="4.23015">
        <ele>595</ele>
        <time>2016-05-15T09:20:20.000Z</time>
      </trkpt>
      <trkpt lat="44.5482" lon="4.23015">
        <ele>595</ele>
        <time>2016-05-15T09:20:21.000Z</time>
      </trkpt>
      <trkpt lat="44.5482" lon="4.23015">
        <ele>595</ele>
        <time>2016-05-15T09:20:22.000Z</time>
      </trkpt>
      <trkpt lat="44.5482" lon="4.23015">
        <ele>595</ele>
        <time>2016-05-15T09:20:23.000Z</time>
      </trkpt>
      <trkpt lat="44.5482" lon="4.23015">
        <ele>595</ele>
        <time>2016-05-15T09:20:24.000Z</time>
      </trkpt>
      <trkpt lat="44.5482" lon="4.23015">
        <ele>595</ele>
        <time>2016-05-15T09:20:25.000Z</time>
      </trkpt>
      <trkpt lat="44.5482" lon="4.23015">
        <ele>595</ele>
        <time>2016-05-15T09:20:26.000Z</time>
      </trkpt>
      <trkpt lat="44.5482" lon="4.23015">
        <ele>595</ele>
        <time>2016-05-15T09:20:27.000Z</time>
      </trkpt>
      <trkpt lat="44.54821" lon="4.23015">
        <ele>595</ele>
        <time>2016-05-15T09:20:28.000Z</time>
      </trkpt>
      <trkpt lat="44.54821" lon="4.23015">
        <ele>595</ele>
        <time>2016-05-15T09:20:29.000Z</time>
      </trkpt>
      <trkpt lat="44.54821" lon="4.23015">
        <ele>595</ele>
        <time>2016-05-15T09:20:30.000Z</time>
      </trkpt>
      <trkpt lat="44.54821" lon="4.23015">
        <ele>595</ele>
        <time>2016-05-15T09:20:31.000Z</time>
      </trkpt>
      <trkpt lat="44.54821" lon="4.23015">
        <ele>595</ele>
        <time>2016-05-15T09:20:32.000Z</time>
      </trkpt>
      <trkpt lat="44.54821" lon="4.23016">
        <ele>595</ele>
        <time>2016-05-15T09:20:33.000Z</time>
      </trkpt>
      <trkpt lat="44.54821" lon="4.23016">
        <ele>595</ele>
        <time>2016-05-15T09:20:34.000Z</time>
      </trkpt>
      <trkpt lat="44.54821" lon="4.23016">
        <ele>595</ele>
        <time>2016-05-15T09:20:35.000Z</time>
      </trkpt>
      <trkpt lat="44.54821" lon="4.23016">
        <ele>595</ele>
        <time>2016-05-15T09:20:36.000Z</time>
      </trkpt>
      <trkpt lat="44.54821" lon="4.23016">
        <ele>595</ele>
        <time>2016-05-15T09:20:37.000Z</time>
      </trkpt>
      <trkpt lat="44.54821" lon="4.23016">
        <ele>595</ele>
        <time>2016-05-15T09:20:38.000Z</time>
      </trkpt>
      <trkpt lat="44.54822" lon="4.23016">
        <ele>595</ele>
        <time>2016-05-15T09:20:39.000Z</time>
      </trkpt>
      <trkpt lat="44.54822" lon="4.23016">
        <ele>595</ele>
        <time>2016-05-15T09:20:40.000Z</time>
      </trkpt>
      <trkpt lat="44.54822" lon="4.23016">
        <ele>595</ele>
        <time>2016-05-15T09:20:41.000Z</time>
      </trkpt>
      <trkpt lat="44.54822" lon="4.23016">
        <ele>595</ele>
        <time>2016-05-15T09:20:42.000Z</time>
      </trkpt>
      <trkpt lat="44.54822" lon="4.23016">
        <ele>595</ele>
        <time>2016-05-15T09:20:43.000Z</time>
      </trkpt>
      <trkpt lat="44.54822" lon="4.23016">
        <ele>595</ele>
        <time>2016-05-15T09:20:44.000Z</time>
      </trkpt>
      <trkpt lat="44.54822" lon="4.23016">
        <ele>595</ele>
        <time>2016-05-15T09:20:45.000Z</time>
      </trkpt>
      <trkpt lat="44.54822" lon="4.23016">
        <ele>595</ele>
        <time>2016-05-15T09:20:46.000Z</time>
      </trkpt>
      <trkpt lat="44.54822" lon="4.23016">
        <ele>595</ele>
        <time>2016-05-15T09:20:47.000Z</time>
      </trkpt>
      <trkpt lat="44.54822" lon="4.23016">
        <ele>595</ele>
        <time>2016-05-15T09:20:48.000Z</time>
      </trkpt>
      <trkpt lat="44.54822" lon="4.23016">
        <ele>595</ele>
        <time>2016-05-15T09:20:49.000Z</time>
      </trkpt>
      <trkpt lat="44.54822" lon="4.23016">
        <ele>595</ele>
        <time>2016-05-15T09:20:50.000Z</time>
      </trkpt>
      <trkpt lat="44.54822" lon="4.23016">
        <ele>595</ele>
        <time>2016-05-15T09:20:51.000Z</time>
      </trkpt>
      <trkpt lat="44.54822" lon="4.23016">
        <ele>595</ele>
        <time>2016-05-15T09:20:52.000Z</time>
      </trkpt>
      <trkpt lat="44.54822" lon="4.23016">
        <ele>595</ele>
        <time>2016-05-15T09:20:53.000Z</time>
      </trkpt>
      <trkpt lat="44.54822" lon="4.23016">
        <ele>595</ele>
        <time>2016-05-15T09:20:54.000Z</time>
      </trkpt>
      <trkpt lat="44.54822" lon="4.23016">
        <ele>595</ele>
        <time>2016-05-15T09:20:55.000Z</time>
      </trkpt>
      <trkpt lat="44.54822" lon="4.23016">
        <ele>595</ele>
        <time>2016-05-15T09:20:56.000Z</time>
      </trkpt>
      <trkpt lat="44.54822" lon="4.23016">
        <ele>595</ele>
        <time>2016-05-15T09:20:57.000Z</time>
      </trkpt>
      <trkpt lat="44.54822" lon="4.23016">
        <ele>595</ele>
        <time>2016-05-15T09:20:58.000Z</time>
      </trkpt>
      <trkpt lat="44.54822" lon="4.23016">
        <ele>595</ele>
        <time>2016-05-15T09:20:59.000Z</time>
      </trkpt>
      <trkpt lat="44.54822" lon="4.23016">
        <ele>595</ele>
        <time>2016-05-15T09:21:00.000Z</time>
      </trkpt>
      <trkpt lat="44.54822" lon="4.23016">
        <ele>595</ele>
        <time>2016-05-15T09:21:01.000Z</time>
      </trkpt>
      <trkpt lat="44.54822" lon="4.23016">
        <ele>595</ele>
        <time>2016-05-15T09:21:02.000Z</time>
      </trkpt>
      <trkpt lat="44.54822" lon="4.23016">
        <ele>595</ele>
        <time>2016-05-15T09:21:03.000Z</time>
      </trkpt>
      <trkpt lat="44.54822" lon="4.23016">
        <ele>595</ele>
        <time>2016-05-15T09:21:04.000Z</time>
      </trkpt>
      <trkpt lat="44.54822" lon="4.23016">
        <ele>595</ele>
        <time>2016-05-15T09:21:05.000Z</time>
      </trkpt>
      <trkpt lat="44.54822" lon="4.23016">
        <ele>595</ele>
        <time>2016-05-15T09:21:06.000Z</time>
      </trkpt>
      <trkpt lat="44.54822" lon="4.23016">
        <ele>595</ele>
        <time>2016-05-15T09:21:07.000Z</time>
      </trkpt>
      <trkpt lat="44.54822" lon="4.23016">
        <ele>595</ele>
        <time>2016-05-15T09:21:08.000Z</time>
      </trkpt>
      <trkpt lat="44.54822" lon="4.23016">
        <ele>595</ele>
        <time>2016-05-15T09:21:09.000Z</time>
      </trkpt>
      <trkpt lat="44.54822" lon="4.23016">
        <ele>595</ele>
        <time>2016-05-15T09:21:10.000Z</time>
      </trkpt>
      <trkpt lat="44.54822" lon="4.23016">
        <ele>595</ele>
        <time>2016-05-15T09:21:11.000Z</time>
      </trkpt>
      <trkpt lat="44.54822" lon="4.23016">
        <ele>595</ele>
        <time>2016-05-15T09:21:12.000Z</time>
      </trkpt>
      <trkpt lat="44.54822" lon="4.23016">
        <ele>595</ele>
        <time>2016-05-15T09:21:13.000Z</time>
      </trkpt>
      <trkpt lat="44.54822" lon="4.23016">
        <ele>595</ele>
        <time>2016-05-15T09:21:14.000Z</time>
      </trkpt>
      <trkpt lat="44.54822" lon="4.23016">
        <ele>595</ele>
        <time>2016-05-15T09:21:15.000Z</time>
      </trkpt>
      <trkpt lat="44.54822" lon="4.23016">
        <ele>595</ele>
        <time>2016-05-15T09:21:16.000Z</time>
      </trkpt>
      <trkpt lat="44.54822" lon="4.23016">
        <ele>595</ele>
        <time>2016-05-15T09:21:17.000Z</time>
      </trkpt>
      <trkpt lat="44.54822" lon="4.23016">
        <ele>595</ele>
        <time>2016-05-15T09:21:18.000Z</time>
      </trkpt>
      <trkpt lat="44.54822" lon="4.23016">
        <ele>595</ele>
        <time>2016-05-15T09:21:19.000Z</time>
      </trkpt>
      <trkpt lat="44.54822" lon="4.23016">
        <ele>595</ele>
        <time>2016-05-15T09:21:20.000Z</time>
      </trkpt>
      <trkpt lat="44.54822" lon="4.23016">
        <ele>595</ele>
        <time>2016-05-15T09:21:21.000Z</time>
      </trkpt>
      <trkpt lat="44.54822" lon="4.23016">
        <ele>595</ele>
        <time>2016-05-15T09:21:22.000Z</time>
      </trkpt>
      <trkpt lat="44.54822" lon="4.23016">
        <ele>595</ele>
        <time>2016-05-15T09:21:23.000Z</time>
      </trkpt>
      <trkpt lat="44.54822" lon="4.23016">
        <ele>595</ele>
        <time>2016-05-15T09:21:24.000Z</time>
      </trkpt>
      <trkpt lat="44.54822" lon="4.23016">
        <ele>595</ele>
        <time>2016-05-15T09:21:25.000Z</time>
      </trkpt>
      <trkpt lat="44.54822" lon="4.23016">
        <ele>595</ele>
        <time>2016-05-15T09:21:26.000Z</time>
      </trkpt>
      <trkpt lat="44.54822" lon="4.23016">
        <ele>595</ele>
        <time>2016-05-15T09:21:27.000Z</time>
      </trkpt>
      <trkpt lat="44.54823" lon="4.23016">
        <ele>595</ele>
        <time>2016-05-15T09:21:28.000Z</time>
      </trkpt>
      <trkpt lat="44.54823" lon="4.23016">
        <ele>595</ele>
        <time>2016-05-15T09:21:29.000Z</time>
      </trkpt>
      <trkpt lat="44.54823" lon="4.23016">
        <ele>595</ele>
        <time>2016-05-15T09:21:30.000Z</time>
      </trkpt>
      <trkpt lat="44.54823" lon="4.23016">
        <ele>595</ele>
        <time>2016-05-15T09:21:31.000Z</time>
      </trkpt>
      <trkpt lat="44.54823" lon="4.23016">
        <ele>595</ele>
        <time>2016-05-15T09:21:32.000Z</time>
      </trkpt>
      <trkpt lat="44.54823" lon="4.23016">
        <ele>595</ele>
        <time>2016-05-15T09:21:33.000Z</time>
      </trkpt>
      <trkpt lat="44.54823" lon="4.23016">
        <ele>595</ele>
        <time>2016-05-15T09:21:34.000Z</time>
      </trkpt>
      <trkpt lat="44.54823" lon="4.23016">
        <ele>595</ele>
        <time>2016-05-15T09:21:35.000Z</time>
      </trkpt>
      <trkpt lat="44.54823" lon="4.23016">
        <ele>595</ele>
        <time>2016-05-15T09:21:36.000Z</time>
      </trkpt>
      <trkpt lat="44.54823" lon="4.23016">
        <ele>595</ele>
        <time>2016-05-15T09:21:37.000Z</time>
      </trkpt>
      <trkpt lat="44.54823" lon="4.23016">
        <ele>595</ele>
        <time>2016-05-15T09:21:38.000Z</time>
      </trkpt>
      <trkpt lat="44.54823" lon="4.23016">
        <ele>595</ele>
        <time>2016-05-15T09:21:39.000Z</time>
      </trkpt>
      <trkpt lat="44.54822" lon="4.23016">
        <ele>595</ele>
        <time>2016-05-15T09:21:40.000Z</time>
      </trkpt>
      <trkpt lat="44.54822" lon="4.23016">
        <ele>595</ele>
        <time>2016-05-15T09:21:41.000Z</time>
      </trkpt>
      <trkpt lat="44.54822" lon="4.23016">
        <ele>595</ele>
        <time>2016-05-15T09:21:42.000Z</time>
      </trkpt>
      <trkpt lat="44.54822" lon="4.23016">
        <ele>595</ele>
        <time>2016-05-15T09:21:43.000Z</time>
      </trkpt>
      <trkpt lat="44.54822" lon="4.23016">
        <ele>595</ele>
        <time>2016-05-15T09:21:44.000Z</time>
      </trkpt>
      <trkpt lat="44.54822" lon="4.23016">
        <ele>595</ele>
        <time>2016-05-15T09:21:45.000Z</time>
      </trkpt>
      <trkpt lat="44.54822" lon="4.23016">
        <ele>595</ele>
        <time>2016-05-15T09:21:46.000Z</time>
      </trkpt>
      <trkpt lat="44.54822" lon="4.23016">
        <ele>595</ele>
        <time>2016-05-15T09:21:47.000Z</time>
      </trkpt>
      <trkpt lat="44.54822" lon="4.23016">
        <ele>595</ele>
        <time>2016-05-15T09:21:48.000Z</time>
      </trkpt>
      <trkpt lat="44.54822" lon="4.23016">
        <ele>595</ele>
        <time>2016-05-15T09:21:49.000Z</time>
      </trkpt>
      <trkpt lat="44.54822" lon="4.23016">
        <ele>595</ele>
        <time>2016-05-15T09:21:50.000Z</time>
      </trkpt>
      <trkpt lat="44.54822" lon="4.23016">
        <ele>595</ele>
        <time>2016-05-15T09:21:51.000Z</time>
      </trkpt>
      <trkpt lat="44.54822" lon="4.23017">
        <ele>595</ele>
        <time>2016-05-15T09:21:52.000Z</time>
      </trkpt>
      <trkpt lat="44.54822" lon="4.23017">
        <ele>595</ele>
        <time>2016-05-15T09:21:53.000Z</time>
      </trkpt>
      <trkpt lat="44.54822" lon="4.23017">
        <ele>595</ele>
        <time>2016-05-15T09:21:54.000Z</time>
      </trkpt>
      <trkpt lat="44.54822" lon="4.23017">
        <ele>595</ele>
        <time>2016-05-15T09:21:55.000Z</time>
      </trkpt>
      <trkpt lat="44.54822" lon="4.23017">
        <ele>595</ele>
        <time>2016-05-15T09:21:56.000Z</time>
      </trkpt>
      <trkpt lat="44.54822" lon="4.23017">
        <ele>595</ele>
        <time>2016-05-15T09:21:57.000Z</time>
      </trkpt>
      <trkpt lat="44.54821" lon="4.23017">
        <ele>595</ele>
        <time>2016-05-15T09:21:58.000Z</time>
      </trkpt>
      <trkpt lat="44.54821" lon="4.23017">
        <ele>595</ele>
        <time>2016-05-15T09:21:59.000Z</time>
      </trkpt>
      <trkpt lat="44.54821" lon="4.23017">
        <ele>595</ele>
        <time>2016-05-15T09:22:00.000Z</time>
      </trkpt>
      <trkpt lat="44.54821" lon="4.23017">
        <ele>595</ele>
        <time>2016-05-15T09:22:01.000Z</time>
      </trkpt>
      <trkpt lat="44.54821" lon="4.23017">
        <ele>595</ele>
        <time>2016-05-15T09:22:02.000Z</time>
      </trkpt>
      <trkpt lat="44.54821" lon="4.23017">
        <ele>595</ele>
        <time>2016-05-15T09:22:03.000Z</time>
      </trkpt>
      <trkpt lat="44.54821" lon="4.23017">
        <ele>595</ele>
        <time>2016-05-15T09:22:04.000Z</time>
      </trkpt>
      <trkpt lat="44.54821" lon="4.23017">
        <ele>595</ele>
        <time>2016-05-15T09:22:05.000Z</time>
      </trkpt>
      <trkpt lat="44.54821" lon="4.23017">
        <ele>595</ele>
        <time>2016-05-15T09:22:06.000Z</time>
      </trkpt>
      <trkpt lat="44.54821" lon="4.23017">
        <ele>595</ele>
        <time>2016-05-15T09:22:07.000Z</time>
      </trkpt>
      <trkpt lat="44.54821" lon="4.23017">
        <ele>595</ele>
        <time>2016-05-15T09:22:08.000Z</time>
      </trkpt>
      <trkpt lat="44.54821" lon="4.23016">
        <ele>595</ele>
        <time>2016-05-15T09:22:09.000Z</time>
      </trkpt>
      <trkpt lat="44.54821" lon="4.23016">
        <ele>595</ele>
        <time>2016-05-15T09:22:10.000Z</time>
      </trkpt>
      <trkpt lat="44.5482" lon="4.23016">
        <ele>595</ele>
        <time>2016-05-15T09:22:11.000Z</time>
      </trkpt>
      <trkpt lat="44.5482" lon="4.23016">
        <ele>595</ele>
        <time>2016-05-15T09:22:12.000Z</time>
      </trkpt>
      <trkpt lat="44.5482" lon="4.23016">
        <ele>595</ele>
        <time>2016-05-15T09:22:13.000Z</time>
      </trkpt>
      <trkpt lat="44.5482" lon="4.23016">
        <ele>595</ele>
        <time>2016-05-15T09:22:14.000Z</time>
      </trkpt>
      <trkpt lat="44.5482" lon="4.23016">
        <ele>595</ele>
        <time>2016-05-15T09:22:15.000Z</time>
      </trkpt>
      <trkpt lat="44.5482" lon="4.23016">
        <ele>595</ele>
        <time>2016-05-15T09:22:16.000Z</time>
      </trkpt>
      <trkpt lat="44.5482" lon="4.23017">
        <ele>595</ele>
        <time>2016-05-15T09:22:17.000Z</time>
      </trkpt>
      <trkpt lat="44.5482" lon="4.23017">
        <ele>595</ele>
        <time>2016-05-15T09:22:18.000Z</time>
      </trkpt>
      <trkpt lat="44.5482" lon="4.23017">
        <ele>595</ele>
        <time>2016-05-15T09:22:19.000Z</time>
      </trkpt>
      <trkpt lat="44.5482" lon="4.23017">
        <ele>595</ele>
        <time>2016-05-15T09:22:20.000Z</time>
      </trkpt>
      <trkpt lat="44.5482" lon="4.23017">
        <ele>595</ele>
        <time>2016-05-15T09:22:21.000Z</time>
      </trkpt>
      <trkpt lat="44.5482" lon="4.23017">
        <ele>595</ele>
        <time>2016-05-15T09:22:22.000Z</time>
      </trkpt>
      <trkpt lat="44.5482" lon="4.23017">
        <ele>595</ele>
        <time>2016-05-15T09:22:23.000Z</time>
      </trkpt>
      <trkpt lat="44.54821" lon="4.23017">
        <ele>595</ele>
        <time>2016-05-15T09:22:24.000Z</time>
      </trkpt>
      <trkpt lat="44.54821" lon="4.23017">
        <ele>595</ele>
        <time>2016-05-15T09:22:25.000Z</time>
      </trkpt>
      <trkpt lat="44.54821" lon="4.23017">
        <ele>595</ele>
        <time>2016-05-15T09:22:26.000Z</time>
      </trkpt>
      <trkpt lat="44.54821" lon="4.23017">
        <ele>595</ele>
        <time>2016-05-15T09:22:27.000Z</time>
      </trkpt>
      <trkpt lat="44.54821" lon="4.23017">
        <ele>595</ele>
        <time>2016-05-15T09:22:28.000Z</time>
      </trkpt>
      <trkpt lat="44.54821" lon="4.23017">
        <ele>595</ele>
        <time>2016-05-15T09:22:29.000Z</time>
      </trkpt>
      <trkpt lat="44.54821" lon="4.23017">
        <ele>595</ele>
        <time>2016-05-15T09:22:30.000Z</time>
      </trkpt>
      <trkpt lat="44.54821" lon="4.23017">
        <ele>595</ele>
        <time>2016-05-15T09:22:31.000Z</time>
      </trkpt>
      <trkpt lat="44.54821" lon="4.23017">
        <ele>595</ele>
        <time>2016-05-15T09:22:32.000Z</time>
      </trkpt>
      <trkpt lat="44.54821" lon="4.23017">
        <ele>595</ele>
        <time>2016-05-15T09:22:33.000Z</time>
      </trkpt>
      <trkpt lat="44.54821" lon="4.23017">
        <ele>595</ele>
        <time>2016-05-15T09:22:34.000Z</time>
      </trkpt>
      <trkpt lat="44.54821" lon="4.23018">
        <ele>595</ele>
        <time>2016-05-15T09:22:35.000Z</time>
      </trkpt>
      <trkpt lat="44.54821" lon="4.23018">
        <ele>595</ele>
        <time>2016-05-15T09:22:36.000Z</time>
      </trkpt>
      <trkpt lat="44.54821" lon="4.23018">
        <ele>595</ele>
        <time>2016-05-15T09:22:37.000Z</time>
      </trkpt>
      <trkpt lat="44.54821" lon="4.23018">
        <ele>595</ele>
        <time>2016-05-15T09:22:38.000Z</time>
      </trkpt>
      <trkpt lat="44.54821" lon="4.23018">
        <ele>595</ele>
        <time>2016-05-15T09:22:39.000Z</time>
      </trkpt>
      <trkpt lat="44.54821" lon="4.23018">
        <ele>595</ele>
        <time>2016-05-15T09:22:40.000Z</time>
      </trkpt>
      <trkpt lat="44.54821" lon="4.23018">
        <ele>595</ele>
        <time>2016-05-15T09:22:41.000Z</time>
      </trkpt>
      <trkpt lat="44.54821" lon="4.23019">
        <ele>595</ele>
        <time>2016-05-15T09:22:42.000Z</time>
      </trkpt>
      <trkpt lat="44.54821" lon="4.23019">
        <ele>595</ele>
        <time>2016-05-15T09:22:43.000Z</time>
      </trkpt>
      <trkpt lat="44.54821" lon="4.23019">
        <ele>595</ele>
        <time>2016-05-15T09:22:44.000Z</time>
      </trkpt>
      <trkpt lat="44.54821" lon="4.23019">
        <ele>595</ele>
        <time>2016-05-15T09:22:45.000Z</time>
      </trkpt>
      <trkpt lat="44.54821" lon="4.23019">
        <ele>595</ele>
        <time>2016-05-15T09:22:46.000Z</time>
      </trkpt>
      <trkpt lat="44.54821" lon="4.23019">
        <ele>595</ele>
        <time>2016-05-15T09:22:47.000Z</time>
      </trkpt>
      <trkpt lat="44.54821" lon="4.2302">
        <ele>595</ele>
        <time>2016-05-15T09:22:48.000Z</time>
      </trkpt>
      <trkpt lat="44.54821" lon="4.2302">
        <ele>595</ele>
        <time>2016-05-15T09:22:49.000Z</time>
      </trkpt>
      <trkpt lat="44.54821" lon="4.2302">
        <ele>595</ele>
        <time>2016-05-15T09:22:50.000Z</time>
      </trkpt>
      <trkpt lat="44.54821" lon="4.2302">
        <ele>595</ele>
        <time>2016-05-15T09:22:51.000Z</time>
      </trkpt>
      <trkpt lat="44.54821" lon="4.2302">
        <ele>595</ele>
        <time>2016-05-15T09:22:52.000Z</time>
      </trkpt>
      <trkpt lat="44.54821" lon="4.2302">
        <ele>595</ele>
        <time>2016-05-15T09:22:53.000Z</time>
      </trkpt>
      <trkpt lat="44.54821" lon="4.2302">
        <ele>595</ele>
        <time>2016-05-15T09:22:54.000Z</time>
      </trkpt>
      <trkpt lat="44.54821" lon="4.2302">
        <ele>595</ele>
        <time>2016-05-15T09:22:55.000Z</time>
      </trkpt>
      <trkpt lat="44.54821" lon="4.23021">
        <ele>595</ele>
        <time>2016-05-15T09:22:56.000Z</time>
      </trkpt>
      <trkpt lat="44.54821" lon="4.23021">
        <ele>595</ele>
        <time>2016-05-15T09:22:57.000Z</time>
      </trkpt>
      <trkpt lat="44.54821" lon="4.23021">
        <ele>595</ele>
        <time>2016-05-15T09:22:58.000Z</time>
      </trkpt>
      <trkpt lat="44.54821" lon="4.23021">
        <ele>595</ele>
        <time>2016-05-15T09:22:59.000Z</time>
      </trkpt>
      <trkpt lat="44.54821" lon="4.23021">
        <ele>595</ele>
        <time>2016-05-15T09:23:00.000Z</time>
      </trkpt>
      <trkpt lat="44.54821" lon="4.23021">
        <ele>595</ele>
        <time>2016-05-15T09:23:01.000Z</time>
      </trkpt>
      <trkpt lat="44.54821" lon="4.23021">
        <ele>595</ele>
        <time>2016-05-15T09:23:02.000Z</time>
      </trkpt>
      <trkpt lat="44.54821" lon="4.23021">
        <ele>595</ele>
        <time>2016-05-15T09:23:03.000Z</time>
      </trkpt>
      <trkpt lat="44.54821" lon="4.23021">
        <ele>595</ele>
        <time>2016-05-15T09:23:04.000Z</time>
      </trkpt>
      <trkpt lat="44.54821" lon="4.23021">
        <ele>595</ele>
        <time>2016-05-15T09:23:05.000Z</time>
      </trkpt>
      <trkpt lat="44.54821" lon="4.23021">
        <ele>595</ele>
        <time>2016-05-15T09:23:06.000Z</time>
      </trkpt>
      <trkpt lat="44.54821" lon="4.23021">
        <ele>595</ele>
        <time>2016-05-15T09:23:07.000Z</time>
      </trkpt>
      <trkpt lat="44.54821" lon="4.23021">
        <ele>595</ele>
        <time>2016-05-15T09:23:08.000Z</time>
      </trkpt>
      <trkpt lat="44.54821" lon="4.23021">
        <ele>595</ele>
        <time>2016-05-15T09:23:09.000Z</time>
      </trkpt>
      <trkpt lat="44.54821" lon="4.23022">
        <ele>595</ele>
        <time>2016-05-15T09:23:10.000Z</time>
      </trkpt>
      <trkpt lat="44.54821" lon="4.23022">
        <ele>595</ele>
        <time>2016-05-15T09:23:11.000Z</time>
      </trkpt>
      <trkpt lat="44.54821" lon="4.23022">
        <ele>595</ele>
        <time>2016-05-15T09:23:12.000Z</time>
      </trkpt>
      <trkpt lat="44.54821" lon="4.23022">
        <ele>595</ele>
        <time>2016-05-15T09:23:13.000Z</time>
      </trkpt>
      <trkpt lat="44.54821" lon="4.23022">
        <ele>595</ele>
        <time>2016-05-15T09:23:14.000Z</time>
      </trkpt>
      <trkpt lat="44.54821" lon="4.23022">
        <ele>595</ele>
        <time>2016-05-15T09:23:15.000Z</time>
      </trkpt>
      <trkpt lat="44.54821" lon="4.23022">
        <ele>595</ele>
        <time>2016-05-15T09:23:16.000Z</time>
      </trkpt>
      <trkpt lat="44.54821" lon="4.23022">
        <ele>595</ele>
        <time>2016-05-15T09:23:17.000Z</time>
      </trkpt>
      <trkpt lat="44.54821" lon="4.23022">
        <ele>595</ele>
        <time>2016-05-15T09:23:18.000Z</time>
      </trkpt>
      <trkpt lat="44.54821" lon="4.23022">
        <ele>595</ele>
        <time>2016-05-15T09:23:19.000Z</time>
      </trkpt>
      <trkpt lat="44.5482" lon="4.23021">
        <ele>595</ele>
        <time>2016-05-15T09:23:20.000Z</time>
      </trkpt>
      <trkpt lat="44.5482" lon="4.23021">
        <ele>595</ele>
        <time>2016-05-15T09:23:21.000Z</time>
      </trkpt>
      <trkpt lat="44.5482" lon="4.23021">
        <ele>595</ele>
        <time>2016-05-15T09:23:22.000Z</time>
      </trkpt>
      <trkpt lat="44.5482" lon="4.23021">
        <ele>595</ele>
        <time>2016-05-15T09:23:23.000Z</time>
      </trkpt>
      <trkpt lat="44.5482" lon="4.23021">
        <ele>595</ele>
        <time>2016-05-15T09:23:24.000Z</time>
      </trkpt>
      <trkpt lat="44.5482" lon="4.23021">
        <ele>595</ele>
        <time>2016-05-15T09:23:25.000Z</time>
      </trkpt>
      <trkpt lat="44.5482" lon="4.23021">
        <ele>595</ele>
        <time>2016-05-15T09:23:26.000Z</time>
      </trkpt>
      <trkpt lat="44.5482" lon="4.23021">
        <ele>595</ele>
        <time>2016-05-15T09:23:27.000Z</time>
      </trkpt>
      <trkpt lat="44.5482" lon="4.23021">
        <ele>595</ele>
        <time>2016-05-15T09:23:28.000Z</time>
      </trkpt>
      <trkpt lat="44.5482" lon="4.23021">
        <ele>595</ele>
        <time>2016-05-15T09:23:29.000Z</time>
      </trkpt>
      <trkpt lat="44.5482" lon="4.23021">
        <ele>595</ele>
        <time>2016-05-15T09:23:30.000Z</time>
      </trkpt>
      <trkpt lat="44.5482" lon="4.23021">
        <ele>595</ele>
        <time>2016-05-15T09:23:31.000Z</time>
      </trkpt>
      <trkpt lat="44.5482" lon="4.23021">
        <ele>595</ele>
        <time>2016-05-15T09:23:32.000Z</time>
      </trkpt>
      <trkpt lat="44.5482" lon="4.23021">
        <ele>595</ele>
        <time>2016-05-15T09:23:33.000Z</time>
      </trkpt>
      <trkpt lat="44.5482" lon="4.23021">
        <ele>595</ele>
        <time>2016-05-15T09:23:34.000Z</time>
      </trkpt>
      <trkpt lat="44.5482" lon="4.23021">
        <ele>595</ele>
        <time>2016-05-15T09:23:35.000Z</time>
      </trkpt>
      <trkpt lat="44.5482" lon="4.23021">
        <ele>595</ele>
        <time>2016-05-15T09:23:36.000Z</time>
      </trkpt>
      <trkpt lat="44.54819" lon="4.23021">
        <ele>595</ele>
        <time>2016-05-15T09:23:37.000Z</time>
      </trkpt>
      <trkpt lat="44.54819" lon="4.23021">
        <ele>595</ele>
        <time>2016-05-15T09:23:38.000Z</time>
      </trkpt>
      <trkpt lat="44.54819" lon="4.23021">
        <ele>595</ele>
        <time>2016-05-15T09:23:39.000Z</time>
      </trkpt>
      <trkpt lat="44.54819" lon="4.23021">
        <ele>595</ele>
        <time>2016-05-15T09:23:40.000Z</time>
      </trkpt>
      <trkpt lat="44.54819" lon="4.23021">
        <ele>595</ele>
        <time>2016-05-15T09:23:41.000Z</time>
      </trkpt>
      <trkpt lat="44.54819" lon="4.23021">
        <ele>595</ele>
        <time>2016-05-15T09:23:42.000Z</time>
      </trkpt>
      <trkpt lat="44.54819" lon="4.23021">
        <ele>595</ele>
        <time>2016-05-15T09:23:43.000Z</time>
      </trkpt>
      <trkpt lat="44.54819" lon="4.2302">
        <ele>595</ele>
        <time>2016-05-15T09:23:44.000Z</time>
      </trkpt>
      <trkpt lat="44.54819" lon="4.2302">
        <ele>595</ele>
        <time>2016-05-15T09:23:45.000Z</time>
      </trkpt>
      <trkpt lat="44.54819" lon="4.2302">
        <ele>595</ele>
        <time>2016-05-15T09:23:46.000Z</time>
      </trkpt>
      <trkpt lat="44.54819" lon="4.2302">
        <ele>595</ele>
        <time>2016-05-15T09:23:47.000Z</time>
      </trkpt>
      <trkpt lat="44.54819" lon="4.2302">
        <ele>595</ele>
        <time>2016-05-15T09:23:48.000Z</time>
      </trkpt>
      <trkpt lat="44.54819" lon="4.2302">
        <ele>595</ele>
        <time>2016-05-15T09:23:49.000Z</time>
      </trkpt>
      <trkpt lat="44.54819" lon="4.2302">
        <ele>595</ele>
        <time>2016-05-15T09:23:50.000Z</time>
      </trkpt>
      <trkpt lat="44.54819" lon="4.2302">
        <ele>595</ele>
        <time>2016-05-15T09:23:51.000Z</time>
      </trkpt>
      <trkpt lat="44.54819" lon="4.2302">
        <ele>595</ele>
        <time>2016-05-15T09:23:52.000Z</time>
      </trkpt>
      <trkpt lat="44.54819" lon="4.2302">
        <ele>595</ele>
        <time>2016-05-15T09:23:53.000Z</time>
      </trkpt>
      <trkpt lat="44.54819" lon="4.2302">
        <ele>595</ele>
        <time>2016-05-15T09:23:54.000Z</time>
      </trkpt>
      <trkpt lat="44.54819" lon="4.2302">
        <ele>595</ele>
        <time>2016-05-15T09:23:55.000Z</time>
      </trkpt>
      <trkpt lat="44.54819" lon="4.2302">
        <ele>595</ele>
        <time>2016-05-15T09:23:56.000Z</time>
      </trkpt>
      <trkpt lat="44.54819" lon="4.2302">
        <ele>595</ele>
        <time>2016-05-15T09:23:57.000Z</time>
      </trkpt>
      <trkpt lat="44.54819" lon="4.23019">
        <ele>595</ele>
        <time>2016-05-15T09:23:58.000Z</time>
      </trkpt>
      <trkpt lat="44.54819" lon="4.23019">
        <ele>595</ele>
        <time>2016-05-15T09:23:59.000Z</time>
      </trkpt>
      <trkpt lat="44.54819" lon="4.23019">
        <ele>595</ele>
        <time>2016-05-15T09:24:00.000Z</time>
      </trkpt>
      <trkpt lat="44.54819" lon="4.23019">
        <ele>595</ele>
        <time>2016-05-15T09:24:01.000Z</time>
      </trkpt>
      <trkpt lat="44.54819" lon="4.23019">
        <ele>595</ele>
        <time>2016-05-15T09:24:02.000Z</time>
      </trkpt>
      <trkpt lat="44.54818" lon="4.23019">
        <ele>595</ele>
        <time>2016-05-15T09:24:03.000Z</time>
      </trkpt>
      <trkpt lat="44.54818" lon="4.23019">
        <ele>595</ele>
        <time>2016-05-15T09:24:04.000Z</time>
      </trkpt>
      <trkpt lat="44.54818" lon="4.23019">
        <ele>595</ele>
        <time>2016-05-15T09:24:05.000Z</time>
      </trkpt>
      <trkpt lat="44.54818" lon="4.23018">
        <ele>595</ele>
        <time>2016-05-15T09:24:06.000Z</time>
      </trkpt>
      <trkpt lat="44.54818" lon="4.23018">
        <ele>595</ele>
        <time>2016-05-15T09:24:07.000Z</time>
      </trkpt>
      <trkpt lat="44.54818" lon="4.23018">
        <ele>595</ele>
        <time>2016-05-15T09:24:08.000Z</time>
      </trkpt>
      <trkpt lat="44.54818" lon="4.23018">
        <ele>595</ele>
        <time>2016-05-15T09:24:09.000Z</time>
      </trkpt>
      <trkpt lat="44.54817" lon="4.23018">
        <ele>595</ele>
        <time>2016-05-15T09:24:10.000Z</time>
      </trkpt>
      <trkpt lat="44.54817" lon="4.23018">
        <ele>595</ele>
        <time>2016-05-15T09:24:11.000Z</time>
      </trkpt>
      <trkpt lat="44.54817" lon="4.23018">
        <ele>595</ele>
        <time>2016-05-15T09:24:12.000Z</time>
      </trkpt>
      <trkpt lat="44.54817" lon="4.23017">
        <ele>595</ele>
        <time>2016-05-15T09:24:13.000Z</time>
      </trkpt>
      <trkpt lat="44.54817" lon="4.23017">
        <ele>595</ele>
        <time>2016-05-15T09:24:14.000Z</time>
      </trkpt>
      <trkpt lat="44.54817" lon="4.23017">
        <ele>595</ele>
        <time>2016-05-15T09:24:15.000Z</time>
      </trkpt>
      <trkpt lat="44.54816" lon="4.23017">
        <ele>595</ele>
        <time>2016-05-15T09:24:16.000Z</time>
      </trkpt>
      <trkpt lat="44.54816" lon="4.23017">
        <ele>595</ele>
        <time>2016-05-15T09:24:17.000Z</time>
      </trkpt>
      <trkpt lat="44.54816" lon="4.23017">
        <ele>595</ele>
        <time>2016-05-15T09:24:18.000Z</time>
      </trkpt>
      <trkpt lat="44.54816" lon="4.23017">
        <ele>595</ele>
        <time>2016-05-15T09:24:19.000Z</time>
      </trkpt>
      <trkpt lat="44.54816" lon="4.23016">
        <ele>595</ele>
        <time>2016-05-15T09:24:20.000Z</time>
      </trkpt>
      <trkpt lat="44.54816" lon="4.23016">
        <ele>595</ele>
        <time>2016-05-15T09:24:21.000Z</time>
      </trkpt>
      <trkpt lat="44.54816" lon="4.23016">
        <ele>595</ele>
        <time>2016-05-15T09:24:22.000Z</time>
      </trkpt>
      <trkpt lat="44.54816" lon="4.23016">
        <ele>595</ele>
        <time>2016-05-15T09:24:23.000Z</time>
      </trkpt>
      <trkpt lat="44.54815" lon="4.23016">
        <ele>595</ele>
        <time>2016-05-15T09:24:24.000Z</time>
      </trkpt>
      <trkpt lat="44.54815" lon="4.23016">
        <ele>595</ele>
        <time>2016-05-15T09:24:25.000Z</time>
      </trkpt>
      <trkpt lat="44.54815" lon="4.23016">
        <ele>595</ele>
        <time>2016-05-15T09:24:26.000Z</time>
      </trkpt>
      <trkpt lat="44.54815" lon="4.23016">
        <ele>595</ele>
        <time>2016-05-15T09:24:27.000Z</time>
      </trkpt>
      <trkpt lat="44.54815" lon="4.23016">
        <ele>595</ele>
        <time>2016-05-15T09:24:28.000Z</time>
      </trkpt>
      <trkpt lat="44.54815" lon="4.23016">
        <ele>595</ele>
        <time>2016-05-15T09:24:29.000Z</time>
      </trkpt>
      <trkpt lat="44.54815" lon="4.23016">
        <ele>595</ele>
        <time>2016-05-15T09:24:30.000Z</time>
      </trkpt>
      <trkpt lat="44.54815" lon="4.23016">
        <ele>595</ele>
        <time>2016-05-15T09:24:31.000Z</time>
      </trkpt>
      <trkpt lat="44.54815" lon="4.23016">
        <ele>595</ele>
        <time>2016-05-15T09:24:32.000Z</time>
      </trkpt>
      <trkpt lat="44.54815" lon="4.23016">
        <ele>595</ele>
        <time>2016-05-15T09:24:33.000Z</time>
      </trkpt>
      <trkpt lat="44.54815" lon="4.23016">
        <ele>595</ele>
        <time>2016-05-15T09:24:34.000Z</time>
      </trkpt>
      <trkpt lat="44.54815" lon="4.23016">
        <ele>595</ele>
        <time>2016-05-15T09:24:35.000Z</time>
      </trkpt>
      <trkpt lat="44.54815" lon="4.23016">
        <ele>595</ele>
        <time>2016-05-15T09:24:36.000Z</time>
      </trkpt>
      <trkpt lat="44.54815" lon="4.23016">
        <ele>595</ele>
        <time>2016-05-15T09:24:37.000Z</time>
      </trkpt>
      <trkpt lat="44.54815" lon="4.23016">
        <ele>595</ele>
        <time>2016-05-15T09:24:38.000Z</time>
      </trkpt>
      <trkpt lat="44.54815" lon="4.23016">
        <ele>595</ele>
        <time>2016-05-15T09:24:39.000Z</time>
      </trkpt>
      <trkpt lat="44.54815" lon="4.23016">
        <ele>595</ele>
        <time>2016-05-15T09:24:40.000Z</time>
      </trkpt>
      <trkpt lat="44.54815" lon="4.23016">
        <ele>595</ele>
        <time>2016-05-15T09:24:41.000Z</time>
      </trkpt>
      <trkpt lat="44.54815" lon="4.23016">
        <ele>595</ele>
        <time>2016-05-15T09:24:42.000Z</time>
      </trkpt>
      <trkpt lat="44.54815" lon="4.23016">
        <ele>595</ele>
        <time>2016-05-15T09:24:43.000Z</time>
      </trkpt>
      <trkpt lat="44.54815" lon="4.23016">
        <ele>595</ele>
        <time>2016-05-15T09:24:44.000Z</time>
      </trkpt>
      <trkpt lat="44.54815" lon="4.23016">
        <ele>595</ele>
        <time>2016-05-15T09:24:45.000Z</time>
      </trkpt>
      <trkpt lat="44.54815" lon="4.23016">
        <ele>595</ele>
        <time>2016-05-15T09:24:46.000Z</time>
      </trkpt>
      <trkpt lat="44.54815" lon="4.23016">
        <ele>595</ele>
        <time>2016-05-15T09:24:47.000Z</time>
      </trkpt>
      <trkpt lat="44.54815" lon="4.23016">
        <ele>595</ele>
        <time>2016-05-15T09:24:48.000Z</time>
      </trkpt>
      <trkpt lat="44.54815" lon="4.23016">
        <ele>595</ele>
        <time>2016-05-15T09:24:49.000Z</time>
      </trkpt>
      <trkpt lat="44.54816" lon="4.23016">
        <ele>595</ele>
        <time>2016-05-15T09:24:50.000Z</time>
      </trkpt>
      <trkpt lat="44.54816" lon="4.23016">
        <ele>595</ele>
        <time>2016-05-15T09:24:51.000Z</time>
      </trkpt>
      <trkpt lat="44.54816" lon="4.23016">
        <ele>595</ele>
        <time>2016-05-15T09:24:52.000Z</time>
      </trkpt>
      <trkpt lat="44.54816" lon="4.23016">
        <ele>595</ele>
        <time>2016-05-15T09:24:53.000Z</time>
      </trkpt>
      <trkpt lat="44.54816" lon="4.23016">
        <ele>595</ele>
        <time>2016-05-15T09:24:54.000Z</time>
      </trkpt>
      <trkpt lat="44.54816" lon="4.23016">
        <ele>595</ele>
        <time>2016-05-15T09:24:55.000Z</time>
      </trkpt>
      <trkpt lat="44.54816" lon="4.23016">
        <ele>595</ele>
        <time>2016-05-15T09:24:56.000Z</time>
      </trkpt>
      <trkpt lat="44.54816" lon="4.23016">
        <ele>595</ele>
        <time>2016-05-15T09:24:57.000Z</time>
      </trkpt>
      <trkpt lat="44.54816" lon="4.23016">
        <ele>595</ele>
        <time>2016-05-15T09:24:58.000Z</time>
      </trkpt>
      <trkpt lat="44.54816" lon="4.23016">
        <ele>595</ele>
        <time>2016-05-15T09:24:59.000Z</time>
      </trkpt>
      <trkpt lat="44.54817" lon="4.23016">
        <ele>595</ele>
        <time>2016-05-15T09:25:00.000Z</time>
      </trkpt>
      <trkpt lat="44.54817" lon="4.23016">
        <ele>595</ele>
        <time>2016-05-15T09:25:01.000Z</time>
      </trkpt>
      <trkpt lat="44.54817" lon="4.23016">
        <ele>595</ele>
        <time>2016-05-15T09:25:02.000Z</time>
      </trkpt>
      <trkpt lat="44.54817" lon="4.23016">
        <ele>595</ele>
        <time>2016-05-15T09:25:03.000Z</time>
      </trkpt>
      <trkpt lat="44.54817" lon="4.23016">
        <ele>595</ele>
        <time>2016-05-15T09:25:04.000Z</time>
      </trkpt>
      <trkpt lat="44.54817" lon="4.23016">
        <ele>595</ele>
        <time>2016-05-15T09:25:05.000Z</time>
      </trkpt>
      <trkpt lat="44.54817" lon="4.23016">
        <ele>595</ele>
        <time>2016-05-15T09:25:06.000Z</time>
      </trkpt>
      <trkpt lat="44.54817" lon="4.23016">
        <ele>595</ele>
        <time>2016-05-15T09:25:07.000Z</time>
      </trkpt>
      <trkpt lat="44.54817" lon="4.23016">
        <ele>595</ele>
        <time>2016-05-15T09:25:08.000Z</time>
      </trkpt>
      <trkpt lat="44.54817" lon="4.23016">
        <ele>595</ele>
        <time>2016-05-15T09:25:09.000Z</time>
      </trkpt>
      <trkpt lat="44.54817" lon="4.23016">
        <ele>595</ele>
        <time>2016-05-15T09:25:10.000Z</time>
      </trkpt>
      <trkpt lat="44.54817" lon="4.23016">
        <ele>595</ele>
        <time>2016-05-15T09:25:11.000Z</time>
      </trkpt>
      <trkpt lat="44.54817" lon="4.23017">
        <ele>595</ele>
        <time>2016-05-15T09:25:12.000Z</time>
      </trkpt>
      <trkpt lat="44.54817" lon="4.23017">
        <ele>595</ele>
        <time>2016-05-15T09:25:13.000Z</time>
      </trkpt>
      <trkpt lat="44.54817" lon="4.23017">
        <ele>595</ele>
        <time>2016-05-15T09:25:14.000Z</time>
      </trkpt>
      <trkpt lat="44.54817" lon="4.23017">
        <ele>595</ele>
        <time>2016-05-15T09:25:15.000Z</time>
      </trkpt>
      <trkpt lat="44.54817" lon="4.23017">
        <ele>595</ele>
        <time>2016-05-15T09:25:16.000Z</time>
      </trkpt>
      <trkpt lat="44.54817" lon="4.23017">
        <ele>595</ele>
        <time>2016-05-15T09:25:17.000Z</time>
      </trkpt>
      <trkpt lat="44.54817" lon="4.23017">
        <ele>595</ele>
        <time>2016-05-15T09:25:18.000Z</time>
      </trkpt>
      <trkpt lat="44.54817" lon="4.23017">
        <ele>595</ele>
        <time>2016-05-15T09:25:19.000Z</time>
      </trkpt>
      <trkpt lat="44.54817" lon="4.23017">
        <ele>595</ele>
        <time>2016-05-15T09:25:20.000Z</time>
      </trkpt>
      <trkpt lat="44.54817" lon="4.23017">
        <ele>595</ele>
        <time>2016-05-15T09:25:21.000Z</time>
      </trkpt>
      <trkpt lat="44.54817" lon="4.23017">
        <ele>595</ele>
        <time>2016-05-15T09:25:22.000Z</time>
      </trkpt>
      <trkpt lat="44.54817" lon="4.23017">
        <ele>595</ele>
        <time>2016-05-15T09:25:23.000Z</time>
      </trkpt>
      <trkpt lat="44.54817" lon="4.23017">
        <ele>595</ele>
        <time>2016-05-15T09:25:24.000Z</time>
      </trkpt>
      <trkpt lat="44.54817" lon="4.23017">
        <ele>595</ele>
        <time>2016-05-15T09:25:25.000Z</time>
      </trkpt>
      <trkpt lat="44.54817" lon="4.23017">
        <ele>595</ele>
        <time>2016-05-15T09:25:26.000Z</time>
      </trkpt>
      <trkpt lat="44.54817" lon="4.23017">
        <ele>595</ele>
        <time>2016-05-15T09:25:27.000Z</time>
      </trkpt>
      <trkpt lat="44.54817" lon="4.23017">
        <ele>595</ele>
        <time>2016-05-15T09:25:28.000Z</time>
      </trkpt>
      <trkpt lat="44.54817" lon="4.23017">
        <ele>595</ele>
        <time>2016-05-15T09:25:29.000Z</time>
      </trkpt>
      <trkpt lat="44.54817" lon="4.23018">
        <ele>595</ele>
        <time>2016-05-15T09:25:30.000Z</time>
      </trkpt>
      <trkpt lat="44.54817" lon="4.23018">
        <ele>595</ele>
        <time>2016-05-15T09:25:31.000Z</time>
      </trkpt>
      <trkpt lat="44.54817" lon="4.23018">
        <ele>595</ele>
        <time>2016-05-15T09:25:32.000Z</time>
      </trkpt>
      <trkpt lat="44.54817" lon="4.23018">
        <ele>595</ele>
        <time>2016-05-15T09:25:33.000Z</time>
      </trkpt>
      <trkpt lat="44.54817" lon="4.23018">
        <ele>595</ele>
        <time>2016-05-15T09:25:34.000Z</time>
      </trkpt>
      <trkpt lat="44.54817" lon="4.23018">
        <ele>595</ele>
        <time>2016-05-15T09:25:35.000Z</time>
      </trkpt>
      <trkpt lat="44.54817" lon="4.23018">
        <ele>595</ele>
        <time>2016-05-15T09:25:36.000Z</time>
      </trkpt>
      <trkpt lat="44.54817" lon="4.23018">
        <ele>595</ele>
        <time>2016-05-15T09:25:37.000Z</time>
      </trkpt>
      <trkpt lat="44.54817" lon="4.23018">
        <ele>595</ele>
        <time>2016-05-15T09:25:38.000Z</time>
      </trkpt>
      <trkpt lat="44.54817" lon="4.23018">
        <ele>595</ele>
        <time>2016-05-15T09:25:39.000Z</time>
      </trkpt>
      <trkpt lat="44.54817" lon="4.23018">
        <ele>595</ele>
        <time>2016-05-15T09:25:40.000Z</time>
      </trkpt>
      <trkpt lat="44.54817" lon="4.23018">
        <ele>595</ele>
        <time>2016-05-15T09:25:41.000Z</time>
      </trkpt>
      <trkpt lat="44.54817" lon="4.23018">
        <ele>595</ele>
        <time>2016-05-15T09:25:42.000Z</time>
      </trkpt>
      <trkpt lat="44.54817" lon="4.23018">
        <ele>595</ele>
        <time>2016-05-15T09:25:43.000Z</time>
      </trkpt>
      <trkpt lat="44.54817" lon="4.23018">
        <ele>595</ele>
        <time>2016-05-15T09:25:44.000Z</time>
      </trkpt>
      <trkpt lat="44.54817" lon="4.23018">
        <ele>595</ele>
        <time>2016-05-15T09:25:45.000Z</time>
      </trkpt>
      <trkpt lat="44.54817" lon="4.23018">
        <ele>595</ele>
        <time>2016-05-15T09:25:46.000Z</time>
      </trkpt>
      <trkpt lat="44.54817" lon="4.23018">
        <ele>595</ele>
        <time>2016-05-15T09:25:47.000Z</time>
      </trkpt>
      <trkpt lat="44.54817" lon="4.23019">
        <ele>595</ele>
        <time>2016-05-15T09:25:48.000Z</time>
      </trkpt>
      <trkpt lat="44.54817" lon="4.23019">
        <ele>595</ele>
        <time>2016-05-15T09:25:49.000Z</time>
      </trkpt>
      <trkpt lat="44.54817" lon="4.23019">
        <ele>595</ele>
        <time>2016-05-15T09:25:50.000Z</time>
      </trkpt>
      <trkpt lat="44.54817" lon="4.23019">
        <ele>595</ele>
        <time>2016-05-15T09:25:51.000Z</time>
      </trkpt>
      <trkpt lat="44.54817" lon="4.23019">
        <ele>595</ele>
        <time>2016-05-15T09:25:52.000Z</time>
      </trkpt>
      <trkpt lat="44.54817" lon="4.23019">
        <ele>595</ele>
        <time>2016-05-15T09:25:53.000Z</time>
      </trkpt>
      <trkpt lat="44.54817" lon="4.23019">
        <ele>595</ele>
        <time>2016-05-15T09:25:54.000Z</time>
      </trkpt>
      <trkpt lat="44.54817" lon="4.23019">
        <ele>595</ele>
        <time>2016-05-15T09:25:55.000Z</time>
      </trkpt>
      <trkpt lat="44.54817" lon="4.2302">
        <ele>595</ele>
        <time>2016-05-15T09:25:56.000Z</time>
      </trkpt>
      <trkpt lat="44.54817" lon="4.2302">
        <ele>595</ele>
        <time>2016-05-15T09:25:57.000Z</time>
      </trkpt>
      <trkpt lat="44.54817" lon="4.2302">
        <ele>595</ele>
        <time>2016-05-15T09:25:58.000Z</time>
      </trkpt>
      <trkpt lat="44.54817" lon="4.2302">
        <ele>595</ele>
        <time>2016-05-15T09:25:59.000Z</time>
      </trkpt>
      <trkpt lat="44.54817" lon="4.2302">
        <ele>595</ele>
        <time>2016-05-15T09:26:00.000Z</time>
      </trkpt>
      <trkpt lat="44.54817" lon="4.23021">
        <ele>595</ele>
        <time>2016-05-15T09:26:01.000Z</time>
      </trkpt>
      <trkpt lat="44.54817" lon="4.23021">
        <ele>595</ele>
        <time>2016-05-15T09:26:02.000Z</time>
      </trkpt>
      <trkpt lat="44.54817" lon="4.23021">
        <ele>595</ele>
        <time>2016-05-15T09:26:03.000Z</time>
      </trkpt>
      <trkpt lat="44.54817" lon="4.23021">
        <ele>595</ele>
        <time>2016-05-15T09:26:04.000Z</time>
      </trkpt>
      <trkpt lat="44.54817" lon="4.23021">
        <ele>595</ele>
        <time>2016-05-15T09:26:05.000Z</time>
      </trkpt>
      <trkpt lat="44.54817" lon="4.23021">
        <ele>595</ele>
        <time>2016-05-15T09:26:06.000Z</time>
      </trkpt>
      <trkpt lat="44.54817" lon="4.23022">
        <ele>595</ele>
        <time>2016-05-15T09:26:07.000Z</time>
      </trkpt>
      <trkpt lat="44.54818" lon="4.23022">
        <ele>595</ele>
        <time>2016-05-15T09:26:08.000Z</time>
      </trkpt>
      <trkpt lat="44.54818" lon="4.23022">
        <ele>595</ele>
        <time>2016-05-15T09:26:09.000Z</time>
      </trkpt>
      <trkpt lat="44.54818" lon="4.23022">
        <ele>595</ele>
        <time>2016-05-15T09:26:10.000Z</time>
      </trkpt>
      <trkpt lat="44.54818" lon="4.23022">
        <ele>595</ele>
        <time>2016-05-15T09:26:11.000Z</time>
      </trkpt>
      <trkpt lat="44.54818" lon="4.23022">
        <ele>595</ele>
        <time>2016-05-15T09:26:12.000Z</time>
      </trkpt>
      <trkpt lat="44.54818" lon="4.23022">
        <ele>595</ele>
        <time>2016-05-15T09:26:13.000Z</time>
      </trkpt>
      <trkpt lat="44.54818" lon="4.23022">
        <ele>595</ele>
        <time>2016-05-15T09:26:14.000Z</time>
      </trkpt>
      <trkpt lat="44.54818" lon="4.23022">
        <ele>595</ele>
        <time>2016-05-15T09:26:15.000Z</time>
      </trkpt>
      <trkpt lat="44.54818" lon="4.23022">
        <ele>595</ele>
        <time>2016-05-15T09:26:16.000Z</time>
      </trkpt>
      <trkpt lat="44.54818" lon="4.23022">
        <ele>595</ele>
        <time>2016-05-15T09:26:17.000Z</time>
      </trkpt>
      <trkpt lat="44.54818" lon="4.23022">
        <ele>595</ele>
        <time>2016-05-15T09:26:18.000Z</time>
      </trkpt>
      <trkpt lat="44.54818" lon="4.23023">
        <ele>595</ele>
        <time>2016-05-15T09:26:19.000Z</time>
      </trkpt>
      <trkpt lat="44.54818" lon="4.23023">
        <ele>595</ele>
        <time>2016-05-15T09:26:20.000Z</time>
      </trkpt>
      <trkpt lat="44.54818" lon="4.23023">
        <ele>595</ele>
        <time>2016-05-15T09:26:21.000Z</time>
      </trkpt>
      <trkpt lat="44.54818" lon="4.23023">
        <ele>595</ele>
        <time>2016-05-15T09:26:22.000Z</time>
      </trkpt>
      <trkpt lat="44.54818" lon="4.23023">
        <ele>595</ele>
        <time>2016-05-15T09:26:23.000Z</time>
      </trkpt>
      <trkpt lat="44.54818" lon="4.23023">
        <ele>595</ele>
        <time>2016-05-15T09:26:24.000Z</time>
      </trkpt>
      <trkpt lat="44.54818" lon="4.23023">
        <ele>595</ele>
        <time>2016-05-15T09:26:25.000Z</time>
      </trkpt>
      <trkpt lat="44.54818" lon="4.23023">
        <ele>595</ele>
        <time>2016-05-15T09:26:26.000Z</time>
      </trkpt>
      <trkpt lat="44.54819" lon="4.23023">
        <ele>595</ele>
        <time>2016-05-15T09:26:27.000Z</time>
      </trkpt>
      <trkpt lat="44.54819" lon="4.23023">
        <ele>595</ele>
        <time>2016-05-15T09:26:28.000Z</time>
      </trkpt>
      <trkpt lat="44.54819" lon="4.23023">
        <ele>595</ele>
        <time>2016-05-15T09:26:29.000Z</time>
      </trkpt>
      <trkpt lat="44.54819" lon="4.23022">
        <ele>595</ele>
        <time>2016-05-15T09:26:30.000Z</time>
      </trkpt>
      <trkpt lat="44.54819" lon="4.23022">
        <ele>595</ele>
        <time>2016-05-15T09:26:31.000Z</time>
      </trkpt>
      <trkpt lat="44.54819" lon="4.23022">
        <ele>595</ele>
        <time>2016-05-15T09:26:32.000Z</time>
      </trkpt>
      <trkpt lat="44.54819" lon="4.23022">
        <ele>595</ele>
        <time>2016-05-15T09:26:33.000Z</time>
      </trkpt>
      <trkpt lat="44.54819" lon="4.23022">
        <ele>595</ele>
        <time>2016-05-15T09:26:34.000Z</time>
      </trkpt>
      <trkpt lat="44.54819" lon="4.23022">
        <ele>595</ele>
        <time>2016-05-15T09:26:35.000Z</time>
      </trkpt>
      <trkpt lat="44.54819" lon="4.23022">
        <ele>595</ele>
        <time>2016-05-15T09:26:36.000Z</time>
      </trkpt>
      <trkpt lat="44.54819" lon="4.23022">
        <ele>595</ele>
        <time>2016-05-15T09:26:37.000Z</time>
      </trkpt>
      <trkpt lat="44.54819" lon="4.23022">
        <ele>595</ele>
        <time>2016-05-15T09:26:38.000Z</time>
      </trkpt>
      <trkpt lat="44.54819" lon="4.23022">
        <ele>595</ele>
        <time>2016-05-15T09:26:39.000Z</time>
      </trkpt>
      <trkpt lat="44.54819" lon="4.23022">
        <ele>595</ele>
        <time>2016-05-15T09:26:40.000Z</time>
      </trkpt>
      <trkpt lat="44.54819" lon="4.23022">
        <ele>595</ele>
        <time>2016-05-15T09:26:41.000Z</time>
      </trkpt>
      <trkpt lat="44.54819" lon="4.23022">
        <ele>595</ele>
        <time>2016-05-15T09:26:42.000Z</time>
      </trkpt>
      <trkpt lat="44.54819" lon="4.23022">
        <ele>595</ele>
        <time>2016-05-15T09:26:43.000Z</time>
      </trkpt>
      <trkpt lat="44.54819" lon="4.23022">
        <ele>595</ele>
        <time>2016-05-15T09:26:44.000Z</time>
      </trkpt>
      <trkpt lat="44.5482" lon="4.23021">
        <ele>595</ele>
        <time>2016-05-15T09:26:45.000Z</time>
      </trkpt>
      <trkpt lat="44.5482" lon="4.23021">
        <ele>595</ele>
        <time>2016-05-15T09:26:46.000Z</time>
      </trkpt>
      <trkpt lat="44.5482" lon="4.23021">
        <ele>595</ele>
        <time>2016-05-15T09:26:47.000Z</time>
      </trkpt>
      <trkpt lat="44.5482" lon="4.23021">
        <ele>595</ele>
        <time>2016-05-15T09:26:48.000Z</time>
      </trkpt>
      <trkpt lat="44.5482" lon="4.23021">
        <ele>595</ele>
        <time>2016-05-15T09:26:49.000Z</time>
      </trkpt>
      <trkpt lat="44.5482" lon="4.23021">
        <ele>595</ele>
        <time>2016-05-15T09:26:50.000Z</time>
      </trkpt>
      <trkpt lat="44.5482" lon="4.23021">
        <ele>595</ele>
        <time>2016-05-15T09:26:51.000Z</time>
      </trkpt>
      <trkpt lat="44.5482" lon="4.23021">
        <ele>595</ele>
        <time>2016-05-15T09:26:52.000Z</time>
      </trkpt>
      <trkpt lat="44.5482" lon="4.23021">
        <ele>595</ele>
        <time>2016-05-15T09:26:53.000Z</time>
      </trkpt>
      <trkpt lat="44.5482" lon="4.23021">
        <ele>595</ele>
        <time>2016-05-15T09:26:54.000Z</time>
      </trkpt>
      <trkpt lat="44.5482" lon="4.23021">
        <ele>595</ele>
        <time>2016-05-15T09:26:55.000Z</time>
      </trkpt>
      <trkpt lat="44.5482" lon="4.23021">
        <ele>595</ele>
        <time>2016-05-15T09:26:56.000Z</time>
      </trkpt>
      <trkpt lat="44.5482" lon="4.23021">
        <ele>595</ele>
        <time>2016-05-15T09:26:57.000Z</time>
      </trkpt>
      <trkpt lat="44.5482" lon="4.2302">
        <ele>595</ele>
        <time>2016-05-15T09:26:58.000Z</time>
      </trkpt>
      <trkpt lat="44.5482" lon="4.2302">
        <ele>595</ele>
        <time>2016-05-15T09:26:59.000Z</time>
      </trkpt>
      <trkpt lat="44.5482" lon="4.2302">
        <ele>595</ele>
        <time>2016-05-15T09:27:00.000Z</time>
      </trkpt>
      <trkpt lat="44.5482" lon="4.2302">
        <ele>595</ele>
        <time>2016-05-15T09:27:01.000Z</time>
      </trkpt>
      <trkpt lat="44.5482" lon="4.2302">
        <ele>595</ele>
        <time>2016-05-15T09:27:02.000Z</time>
      </trkpt>
      <trkpt lat="44.5482" lon="4.2302">
        <ele>595</ele>
        <time>2016-05-15T09:27:03.000Z</time>
      </trkpt>
      <trkpt lat="44.5482" lon="4.2302">
        <ele>595</ele>
        <time>2016-05-15T09:27:04.000Z</time>
      </trkpt>
      <trkpt lat="44.5482" lon="4.2302">
        <ele>595</ele>
        <time>2016-05-15T09:27:05.000Z</time>
      </trkpt>
      <trkpt lat="44.5482" lon="4.2302">
        <ele>595</ele>
        <time>2016-05-15T09:27:06.000Z</time>
      </trkpt>
      <trkpt lat="44.5482" lon="4.2302">
        <ele>595</ele>
        <time>2016-05-15T09:27:07.000Z</time>
      </trkpt>
      <trkpt lat="44.5482" lon="4.2302">
        <ele>595</ele>
        <time>2016-05-15T09:27:08.000Z</time>
      </trkpt>
      <trkpt lat="44.5482" lon="4.23019">
        <ele>595</ele>
        <time>2016-05-15T09:27:09.000Z</time>
      </trkpt>
      <trkpt lat="44.5482" lon="4.23019">
        <ele>595</ele>
        <time>2016-05-15T09:27:10.000Z</time>
      </trkpt>
      <trkpt lat="44.5482" lon="4.23019">
        <ele>595</ele>
        <time>2016-05-15T09:27:11.000Z</time>
      </trkpt>
      <trkpt lat="44.5482" lon="4.23019">
        <ele>595</ele>
        <time>2016-05-15T09:27:12.000Z</time>
      </trkpt>
      <trkpt lat="44.5482" lon="4.23019">
        <ele>595</ele>
        <time>2016-05-15T09:27:13.000Z</time>
      </trkpt>
      <trkpt lat="44.5482" lon="4.23019">
        <ele>595</ele>
        <time>2016-05-15T09:27:14.000Z</time>
      </trkpt>
      <trkpt lat="44.5482" lon="4.23019">
        <ele>595</ele>
        <time>2016-05-15T09:27:15.000Z</time>
      </trkpt>
      <trkpt lat="44.5482" lon="4.23019">
        <ele>595</ele>
        <time>2016-05-15T09:27:16.000Z</time>
      </trkpt>
      <trkpt lat="44.5482" lon="4.23019">
        <ele>595</ele>
        <time>2016-05-15T09:27:17.000Z</time>
      </trkpt>
      <trkpt lat="44.5482" lon="4.23019">
        <ele>595</ele>
        <time>2016-05-15T09:27:18.000Z</time>
      </trkpt>
      <trkpt lat="44.5482" lon="4.23019">
        <ele>595</ele>
        <time>2016-05-15T09:27:19.000Z</time>
      </trkpt>
      <trkpt lat="44.5482" lon="4.23019">
        <ele>595</ele>
        <time>2016-05-15T09:27:20.000Z</time>
      </trkpt>
      <trkpt lat="44.5482" lon="4.23018">
        <ele>595</ele>
        <time>2016-05-15T09:27:21.000Z</time>
      </trkpt>
      <trkpt lat="44.5482" lon="4.23018">
        <ele>595</ele>
        <time>2016-05-15T09:27:22.000Z</time>
      </trkpt>
      <trkpt lat="44.5482" lon="4.23018">
        <ele>595</ele>
        <time>2016-05-15T09:27:23.000Z</time>
      </trkpt>
      <trkpt lat="44.5482" lon="4.23018">
        <ele>595</ele>
        <time>2016-05-15T09:27:24.000Z</time>
      </trkpt>
      <trkpt lat="44.5482" lon="4.23018">
        <ele>595</ele>
        <time>2016-05-15T09:27:25.000Z</time>
      </trkpt>
      <trkpt lat="44.5482" lon="4.23018">
        <ele>595</ele>
        <time>2016-05-15T09:27:26.000Z</time>
      </trkpt>
      <trkpt lat="44.5482" lon="4.23018">
        <ele>595</ele>
        <time>2016-05-15T09:27:27.000Z</time>
      </trkpt>
      <trkpt lat="44.5482" lon="4.23018">
        <ele>595</ele>
        <time>2016-05-15T09:27:28.000Z</time>
      </trkpt>
      <trkpt lat="44.5482" lon="4.23018">
        <ele>595</ele>
        <time>2016-05-15T09:27:29.000Z</time>
      </trkpt>
      <trkpt lat="44.5482" lon="4.23018">
        <ele>595</ele>
        <time>2016-05-15T09:27:30.000Z</time>
      </trkpt>
      <trkpt lat="44.5482" lon="4.23018">
        <ele>595</ele>
        <time>2016-05-15T09:27:31.000Z</time>
      </trkpt>
      <trkpt lat="44.5482" lon="4.23018">
        <ele>595</ele>
        <time>2016-05-15T09:27:32.000Z</time>
      </trkpt>
      <trkpt lat="44.5482" lon="4.23018">
        <ele>595</ele>
        <time>2016-05-15T09:27:33.000Z</time>
      </trkpt>
      <trkpt lat="44.5482" lon="4.23017">
        <ele>595</ele>
        <time>2016-05-15T09:27:34.000Z</time>
      </trkpt>
      <trkpt lat="44.5482" lon="4.23017">
        <ele>595</ele>
        <time>2016-05-15T09:27:35.000Z</time>
      </trkpt>
      <trkpt lat="44.5482" lon="4.23017">
        <ele>595</ele>
        <time>2016-05-15T09:27:36.000Z</time>
      </trkpt>
      <trkpt lat="44.5482" lon="4.23017">
        <ele>595</ele>
        <time>2016-05-15T09:27:37.000Z</time>
      </trkpt>
      <trkpt lat="44.5482" lon="4.23017">
        <ele>595</ele>
        <time>2016-05-15T09:27:38.000Z</time>
      </trkpt>
      <trkpt lat="44.5482" lon="4.23017">
        <ele>595</ele>
        <time>2016-05-15T09:27:39.000Z</time>
      </trkpt>
      <trkpt lat="44.5482" lon="4.23017">
        <ele>595</ele>
        <time>2016-05-15T09:27:40.000Z</time>
      </trkpt>
      <trkpt lat="44.5482" lon="4.23017">
        <ele>595</ele>
        <time>2016-05-15T09:27:41.000Z</time>
      </trkpt>
      <trkpt lat="44.5482" lon="4.23017">
        <ele>595</ele>
        <time>2016-05-15T09:27:42.000Z</time>
      </trkpt>
      <trkpt lat="44.5482" lon="4.23017">
        <ele>595</ele>
        <time>2016-05-15T09:27:43.000Z</time>
      </trkpt>
      <trkpt lat="44.5482" lon="4.23017">
        <ele>595</ele>
        <time>2016-05-15T09:27:44.000Z</time>
      </trkpt>
      <trkpt lat="44.5482" lon="4.23017">
        <ele>595</ele>
        <time>2016-05-15T09:27:45.000Z</time>
      </trkpt>
      <trkpt lat="44.5482" lon="4.23017">
        <ele>595</ele>
        <time>2016-05-15T09:27:46.000Z</time>
      </trkpt>
      <trkpt lat="44.5482" lon="4.23018">
        <ele>595</ele>
        <time>2016-05-15T09:27:47.000Z</time>
      </trkpt>
      <trkpt lat="44.5482" lon="4.23018">
        <ele>595</ele>
        <time>2016-05-15T09:27:48.000Z</time>
      </trkpt>
      <trkpt lat="44.54821" lon="4.23018">
        <ele>595</ele>
        <time>2016-05-15T09:27:49.000Z</time>
      </trkpt>
      <trkpt lat="44.54821" lon="4.23018">
        <ele>595</ele>
        <time>2016-05-15T09:27:50.000Z</time>
      </trkpt>
      <trkpt lat="44.54821" lon="4.23018">
        <ele>595</ele>
        <time>2016-05-15T09:27:51.000Z</time>
      </trkpt>
      <trkpt lat="44.54821" lon="4.23018">
        <ele>595</ele>
        <time>2016-05-15T09:27:52.000Z</time>
      </trkpt>
      <trkpt lat="44.54821" lon="4.23018">
        <ele>595</ele>
        <time>2016-05-15T09:27:53.000Z</time>
      </trkpt>
      <trkpt lat="44.54821" lon="4.23018">
        <ele>595</ele>
        <time>2016-05-15T09:27:54.000Z</time>
      </trkpt>
      <trkpt lat="44.54821" lon="4.23018">
        <ele>595</ele>
        <time>2016-05-15T09:27:55.000Z</time>
      </trkpt>
      <trkpt lat="44.54821" lon="4.23018">
        <ele>595</ele>
        <time>2016-05-15T09:27:56.000Z</time>
      </trkpt>
      <trkpt lat="44.54821" lon="4.23018">
        <ele>595</ele>
        <time>2016-05-15T09:27:57.000Z</time>
      </trkpt>
      <trkpt lat="44.54821" lon="4.23018">
        <ele>595</ele>
        <time>2016-05-15T09:27:58.000Z</time>
      </trkpt>
      <trkpt lat="44.54821" lon="4.23018">
        <ele>595</ele>
        <time>2016-05-15T09:27:59.000Z</time>
      </trkpt>
      <trkpt lat="44.54821" lon="4.23018">
        <ele>595</ele>
        <time>2016-05-15T09:28:00.000Z</time>
      </trkpt>
      <trkpt lat="44.54821" lon="4.23018">
        <ele>595</ele>
        <time>2016-05-15T09:28:01.000Z</time>
      </trkpt>
      <trkpt lat="44.54821" lon="4.23018">
        <ele>595</ele>
        <time>2016-05-15T09:28:02.000Z</time>
      </trkpt>
      <trkpt lat="44.54821" lon="4.23018">
        <ele>595</ele>
        <time>2016-05-15T09:28:03.000Z</time>
      </trkpt>
      <trkpt lat="44.54821" lon="4.23018">
        <ele>595</ele>
        <time>2016-05-15T09:28:04.000Z</time>
      </trkpt>
      <trkpt lat="44.54821" lon="4.23018">
        <ele>595</ele>
        <time>2016-05-15T09:28:05.000Z</time>
      </trkpt>
      <trkpt lat="44.54821" lon="4.23018">
        <ele>595</ele>
        <time>2016-05-15T09:28:06.000Z</time>
      </trkpt>
      <trkpt lat="44.54821" lon="4.23018">
        <ele>595</ele>
        <time>2016-05-15T09:28:07.000Z</time>
      </trkpt>
      <trkpt lat="44.54821" lon="4.23018">
        <ele>595</ele>
        <time>2016-05-15T09:28:08.000Z</time>
      </trkpt>
      <trkpt lat="44.54821" lon="4.23018">
        <ele>595</ele>
        <time>2016-05-15T09:28:09.000Z</time>
      </trkpt>
      <trkpt lat="44.54821" lon="4.23018">
        <ele>595</ele>
        <time>2016-05-15T09:28:10.000Z</time>
      </trkpt>
      <trkpt lat="44.54821" lon="4.23018">
        <ele>595</ele>
        <time>2016-05-15T09:28:11.000Z</time>
      </trkpt>
      <trkpt lat="44.54821" lon="4.23018">
        <ele>595</ele>
        <time>2016-05-15T09:28:12.000Z</time>
      </trkpt>
      <trkpt lat="44.54821" lon="4.23018">
        <ele>595</ele>
        <time>2016-05-15T09:28:13.000Z</time>
      </trkpt>
      <trkpt lat="44.54821" lon="4.23018">
        <ele>595</ele>
        <time>2016-05-15T09:28:14.000Z</time>
      </trkpt>
      <trkpt lat="44.54821" lon="4.23018">
        <ele>595</ele>
        <time>2016-05-15T09:28:15.000Z</time>
      </trkpt>
      <trkpt lat="44.54821" lon="4.23018">
        <ele>595</ele>
        <time>2016-05-15T09:28:16.000Z</time>
      </trkpt>
      <trkpt lat="44.54821" lon="4.23018">
        <ele>595</ele>
        <time>2016-05-15T09:28:17.000Z</time>
      </trkpt>
      <trkpt lat="44.54821" lon="4.23018">
        <ele>595</ele>
        <time>2016-05-15T09:28:18.000Z</time>
      </trkpt>
      <trkpt lat="44.54821" lon="4.23018">
        <ele>595</ele>
        <time>2016-05-15T09:28:19.000Z</time>
      </trkpt>
      <trkpt lat="44.54821" lon="4.23018">
        <ele>595</ele>
        <time>2016-05-15T09:28:20.000Z</time>
      </trkpt>
      <trkpt lat="44.54821" lon="4.23018">
        <ele>595</ele>
        <time>2016-05-15T09:28:21.000Z</time>
      </trkpt>
      <trkpt lat="44.54821" lon="4.23018">
        <ele>595</ele>
        <time>2016-05-15T09:28:22.000Z</time>
      </trkpt>
      <trkpt lat="44.54821" lon="4.23018">
        <ele>595</ele>
        <time>2016-05-15T09:28:23.000Z</time>
      </trkpt>
      <trkpt lat="44.54821" lon="4.23018">
        <ele>595</ele>
        <time>2016-05-15T09:28:24.000Z</time>
      </trkpt>
      <trkpt lat="44.54821" lon="4.23018">
        <ele>595</ele>
        <time>2016-05-15T09:28:25.000Z</time>
      </trkpt>
      <trkpt lat="44.54821" lon="4.23018">
        <ele>595</ele>
        <time>2016-05-15T09:28:26.000Z</time>
      </trkpt>
      <trkpt lat="44.54821" lon="4.23018">
        <ele>595</ele>
        <time>2016-05-15T09:28:27.000Z</time>
      </trkpt>
      <trkpt lat="44.54821" lon="4.23018">
        <ele>595</ele>
        <time>2016-05-15T09:28:28.000Z</time>
      </trkpt>
      <trkpt lat="44.54821" lon="4.23018">
        <ele>595</ele>
        <time>2016-05-15T09:28:29.000Z</time>
      </trkpt>
      <trkpt lat="44.54821" lon="4.23018">
        <ele>595</ele>
        <time>2016-05-15T09:28:30.000Z</time>
      </trkpt>
      <trkpt lat="44.54821" lon="4.23018">
        <ele>595</ele>
        <time>2016-05-15T09:28:31.000Z</time>
      </trkpt>
      <trkpt lat="44.54821" lon="4.23018">
        <ele>595</ele>
        <time>2016-05-15T09:28:32.000Z</time>
      </trkpt>
      <trkpt lat="44.54821" lon="4.23018">
        <ele>595</ele>
        <time>2016-05-15T09:28:33.000Z</time>
      </trkpt>
      <trkpt lat="44.54821" lon="4.23018">
        <ele>595</ele>
        <time>2016-05-15T09:28:34.000Z</time>
      </trkpt>
      <trkpt lat="44.5482" lon="4.23018">
        <ele>595</ele>
        <time>2016-05-15T09:28:35.000Z</time>
      </trkpt>
      <trkpt lat="44.5482" lon="4.23018">
        <ele>595</ele>
        <time>2016-05-15T09:28:36.000Z</time>
      </trkpt>
      <trkpt lat="44.5482" lon="4.23018">
        <ele>595</ele>
        <time>2016-05-15T09:28:37.000Z</time>
      </trkpt>
      <trkpt lat="44.5482" lon="4.23018">
        <ele>595</ele>
        <time>2016-05-15T09:28:38.000Z</time>
      </trkpt>
      <trkpt lat="44.5482" lon="4.23018">
        <ele>595</ele>
        <time>2016-05-15T09:28:39.000Z</time>
      </trkpt>
      <trkpt lat="44.5482" lon="4.23018">
        <ele>595</ele>
        <time>2016-05-15T09:28:40.000Z</time>
      </trkpt>
      <trkpt lat="44.5482" lon="4.23018">
        <ele>595</ele>
        <time>2016-05-15T09:28:41.000Z</time>
      </trkpt>
      <trkpt lat="44.5482" lon="4.23018">
        <ele>595</ele>
        <time>2016-05-15T09:28:42.000Z</time>
      </trkpt>
      <trkpt lat="44.5482" lon="4.23018">
        <ele>595</ele>
        <time>2016-05-15T09:28:43.000Z</time>
      </trkpt>
      <trkpt lat="44.54819" lon="4.23018">
        <ele>595</ele>
        <time>2016-05-15T09:28:44.000Z</time>
      </trkpt>
      <trkpt lat="44.54819" lon="4.23018">
        <ele>595</ele>
        <time>2016-05-15T09:28:45.000Z</time>
      </trkpt>
      <trkpt lat="44.54819" lon="4.23018">
        <ele>595</ele>
        <time>2016-05-15T09:28:46.000Z</time>
      </trkpt>
      <trkpt lat="44.54819" lon="4.23018">
        <ele>595</ele>
        <time>2016-05-15T09:28:47.000Z</time>
      </trkpt>
      <trkpt lat="44.54819" lon="4.23018">
        <ele>595</ele>
        <time>2016-05-15T09:28:48.000Z</time>
      </trkpt>
      <trkpt lat="44.54819" lon="4.23018">
        <ele>595</ele>
        <time>2016-05-15T09:28:49.000Z</time>
      </trkpt>
      <trkpt lat="44.54819" lon="4.23018">
        <ele>595</ele>
        <time>2016-05-15T09:28:50.000Z</time>
      </trkpt>
      <trkpt lat="44.54819" lon="4.23018">
        <ele>595</ele>
        <time>2016-05-15T09:28:51.000Z</time>
      </trkpt>
      <trkpt lat="44.54818" lon="4.23018">
        <ele>595</ele>
        <time>2016-05-15T09:28:52.000Z</time>
      </trkpt>
      <trkpt lat="44.54818" lon="4.23018">
        <ele>595</ele>
        <time>2016-05-15T09:28:53.000Z</time>
      </trkpt>
      <trkpt lat="44.54818" lon="4.23018">
        <ele>595</ele>
        <time>2016-05-15T09:28:54.000Z</time>
      </trkpt>
      <trkpt lat="44.54818" lon="4.23018">
        <ele>595</ele>
        <time>2016-05-15T09:28:55.000Z</time>
      </trkpt>
      <trkpt lat="44.54818" lon="4.23018">
        <ele>595</ele>
        <time>2016-05-15T09:28:56.000Z</time>
      </trkpt>
      <trkpt lat="44.54818" lon="4.23018">
        <ele>595</ele>
        <time>2016-05-15T09:28:57.000Z</time>
      </trkpt>
      <trkpt lat="44.54818" lon="4.23018">
        <ele>595</ele>
        <time>2016-05-15T09:28:58.000Z</time>
      </trkpt>
      <trkpt lat="44.54818" lon="4.23018">
        <ele>595</ele>
        <time>2016-05-15T09:28:59.000Z</time>
      </trkpt>
      <trkpt lat="44.54817" lon="4.23018">
        <ele>595</ele>
        <time>2016-05-15T09:29:00.000Z</time>
      </trkpt>
      <trkpt lat="44.54817" lon="4.23018">
        <ele>595</ele>
        <time>2016-05-15T09:29:01.000Z</time>
      </trkpt>
      <trkpt lat="44.54817" lon="4.23018">
        <ele>595</ele>
        <time>2016-05-15T09:29:02.000Z</time>
      </trkpt>
      <trkpt lat="44.54817" lon="4.23018">
        <ele>595</ele>
        <time>2016-05-15T09:29:03.000Z</time>
      </trkpt>
      <trkpt lat="44.54817" lon="4.23018">
        <ele>595</ele>
        <time>2016-05-15T09:29:04.000Z</time>
      </trkpt>
      <trkpt lat="44.54817" lon="4.23018">
        <ele>595</ele>
        <time>2016-05-15T09:29:05.000Z</time>
      </trkpt>
      <trkpt lat="44.54817" lon="4.23018">
        <ele>595</ele>
        <time>2016-05-15T09:29:06.000Z</time>
      </trkpt>
      <trkpt lat="44.54817" lon="4.23018">
        <ele>595</ele>
        <time>2016-05-15T09:29:07.000Z</time>
      </trkpt>
      <trkpt lat="44.54816" lon="4.23018">
        <ele>595</ele>
        <time>2016-05-15T09:29:08.000Z</time>
      </trkpt>
      <trkpt lat="44.54816" lon="4.23018">
        <ele>595</ele>
        <time>2016-05-15T09:29:09.000Z</time>
      </trkpt>
      <trkpt lat="44.54816" lon="4.23019">
        <ele>595</ele>
        <time>2016-05-15T09:29:10.000Z</time>
      </trkpt>
      <trkpt lat="44.54816" lon="4.23019">
        <ele>595</ele>
        <time>2016-05-15T09:29:11.000Z</time>
      </trkpt>
      <trkpt lat="44.54816" lon="4.23019">
        <ele>595</ele>
        <time>2016-05-15T09:29:12.000Z</time>
      </trkpt>
      <trkpt lat="44.54816" lon="4.23019">
        <ele>595</ele>
        <time>2016-05-15T09:29:13.000Z</time>
      </trkpt>
      <trkpt lat="44.54816" lon="4.23019">
        <ele>595</ele>
        <time>2016-05-15T09:29:14.000Z</time>
      </trkpt>
      <trkpt lat="44.54816" lon="4.23019">
        <ele>595</ele>
        <time>2016-05-15T09:29:15.000Z</time>
      </trkpt>
      <trkpt lat="44.54816" lon="4.23019">
        <ele>595</ele>
        <time>2016-05-15T09:29:16.000Z</time>
      </trkpt>
      <trkpt lat="44.54816" lon="4.23019">
        <ele>595</ele>
        <time>2016-05-15T09:29:17.000Z</time>
      </trkpt>
      <trkpt lat="44.54816" lon="4.23019">
        <ele>595</ele>
        <time>2016-05-15T09:29:18.000Z</time>
      </trkpt>
      <trkpt lat="44.54816" lon="4.23019">
        <ele>595</ele>
        <time>2016-05-15T09:29:19.000Z</time>
      </trkpt>
      <trkpt lat="44.54816" lon="4.23019">
        <ele>595</ele>
        <time>2016-05-15T09:29:20.000Z</time>
      </trkpt>
      <trkpt lat="44.54816" lon="4.23019">
        <ele>595</ele>
        <time>2016-05-15T09:29:21.000Z</time>
      </trkpt>
      <trkpt lat="44.54816" lon="4.23019">
        <ele>595</ele>
        <time>2016-05-15T09:29:22.000Z</time>
      </trkpt>
      <trkpt lat="44.54816" lon="4.23019">
        <ele>595</ele>
        <time>2016-05-15T09:29:23.000Z</time>
      </trkpt>
      <trkpt lat="44.54816" lon="4.23019">
        <ele>595</ele>
        <time>2016-05-15T09:29:24.000Z</time>
      </trkpt>
      <trkpt lat="44.54816" lon="4.23019">
        <ele>595</ele>
        <time>2016-05-15T09:29:25.000Z</time>
      </trkpt>
      <trkpt lat="44.54816" lon="4.23019">
        <ele>595</ele>
        <time>2016-05-15T09:29:26.000Z</time>
      </trkpt>
      <trkpt lat="44.54816" lon="4.23019">
        <ele>595</ele>
        <time>2016-05-15T09:29:27.000Z</time>
      </trkpt>
      <trkpt lat="44.54816" lon="4.23019">
        <ele>595</ele>
        <time>2016-05-15T09:29:28.000Z</time>
      </trkpt>
      <trkpt lat="44.54816" lon="4.23018">
        <ele>595</ele>
        <time>2016-05-15T09:29:29.000Z</time>
      </trkpt>
      <trkpt lat="44.54816" lon="4.23019">
        <ele>595</ele>
        <time>2016-05-15T09:29:30.000Z</time>
      </trkpt>
      <trkpt lat="44.54816" lon="4.23018">
        <ele>595</ele>
        <time>2016-05-15T09:29:31.000Z</time>
      </trkpt>
      <trkpt lat="44.54816" lon="4.23018">
        <ele>595</ele>
        <time>2016-05-15T09:29:32.000Z</time>
      </trkpt>
      <trkpt lat="44.54816" lon="4.23018">
        <ele>595</ele>
        <time>2016-05-15T09:29:33.000Z</time>
      </trkpt>
      <trkpt lat="44.54816" lon="4.23018">
        <ele>595</ele>
        <time>2016-05-15T09:29:34.000Z</time>
      </trkpt>
      <trkpt lat="44.54816" lon="4.23017">
        <ele>595</ele>
        <time>2016-05-15T09:29:35.000Z</time>
      </trkpt>
      <trkpt lat="44.54817" lon="4.23017">
        <ele>595</ele>
        <time>2016-05-15T09:29:36.000Z</time>
      </trkpt>
      <trkpt lat="44.54817" lon="4.23018">
        <ele>595</ele>
        <time>2016-05-15T09:29:37.000Z</time>
      </trkpt>
      <trkpt lat="44.54817" lon="4.23018">
        <ele>595</ele>
        <time>2016-05-15T09:29:38.000Z</time>
      </trkpt>
      <trkpt lat="44.54817" lon="4.23018">
        <ele>595</ele>
        <time>2016-05-15T09:29:39.000Z</time>
      </trkpt>
      <trkpt lat="44.54818" lon="4.23018">
        <ele>595</ele>
        <time>2016-05-15T09:29:40.000Z</time>
      </trkpt>
      <trkpt lat="44.54818" lon="4.23018">
        <ele>595</ele>
        <time>2016-05-15T09:29:41.000Z</time>
      </trkpt>
      <trkpt lat="44.54818" lon="4.23018">
        <ele>595</ele>
        <time>2016-05-15T09:29:42.000Z</time>
      </trkpt>
      <trkpt lat="44.54818" lon="4.23018">
        <ele>595</ele>
        <time>2016-05-15T09:29:43.000Z</time>
      </trkpt>
      <trkpt lat="44.54819" lon="4.23019">
        <ele>595</ele>
        <time>2016-05-15T09:29:44.000Z</time>
      </trkpt>
      <trkpt lat="44.54821" lon="4.23019">
        <ele>595</ele>
        <time>2016-05-15T09:29:45.000Z</time>
      </trkpt>
      <trkpt lat="44.54822" lon="4.2302">
        <ele>595</ele>
        <time>2016-05-15T09:29:46.000Z</time>
      </trkpt>
      <trkpt lat="44.54823" lon="4.23023">
        <ele>595</ele>
        <time>2016-05-15T09:29:47.000Z</time>
      </trkpt>
      <trkpt lat="44.54825" lon="4.23026">
        <ele>594</ele>
        <time>2016-05-15T09:29:48.000Z</time>
      </trkpt>
      <trkpt lat="44.54826" lon="4.2303">
        <ele>594</ele>
        <time>2016-05-15T09:29:49.000Z</time>
      </trkpt>
      <trkpt lat="44.54826" lon="4.23035">
        <ele>594</ele>
        <time>2016-05-15T09:29:50.000Z</time>
      </trkpt>
      <trkpt lat="44.54826" lon="4.23041">
        <ele>593</ele>
        <time>2016-05-15T09:29:51.000Z</time>
      </trkpt>
      <trkpt lat="44.54826" lon="4.23048">
        <ele>592</ele>
        <time>2016-05-15T09:29:52.000Z</time>
      </trkpt>
      <trkpt lat="44.54827" lon="4.23054">
        <ele>591</ele>
        <time>2016-05-15T09:29:53.000Z</time>
      </trkpt>
      <trkpt lat="44.54828" lon="4.2306">
        <ele>590</ele>
        <time>2016-05-15T09:29:54.000Z</time>
      </trkpt>
      <trkpt lat="44.54829" lon="4.23066">
        <ele>589</ele>
        <time>2016-05-15T09:29:55.000Z</time>
      </trkpt>
      <trkpt lat="44.54829" lon="4.23073">
        <ele>587</ele>
        <time>2016-05-15T09:29:56.000Z</time>
      </trkpt>
      <trkpt lat="44.54827" lon="4.23082">
        <ele>586</ele>
        <time>2016-05-15T09:29:57.000Z</time>
      </trkpt>
      <trkpt lat="44.54826" lon="4.23089">
        <ele>583</ele>
        <time>2016-05-15T09:29:58.000Z</time>
      </trkpt>
      <trkpt lat="44.54824" lon="4.23096">
        <ele>582</ele>
        <time>2016-05-15T09:29:59.000Z</time>
      </trkpt>
      <trkpt lat="44.54822" lon="4.23102">
        <ele>582</ele>
        <time>2016-05-15T09:30:00.000Z</time>
      </trkpt>
      <trkpt lat="44.54821" lon="4.23107">
        <ele>582</ele>
        <time>2016-05-15T09:30:01.000Z</time>
      </trkpt>
      <trkpt lat="44.54819" lon="4.23114">
        <ele>581</ele>
        <time>2016-05-15T09:30:02.000Z</time>
      </trkpt>
      <trkpt lat="44.54818" lon="4.23119">
        <ele>581</ele>
        <time>2016-05-15T09:30:03.000Z</time>
      </trkpt>
      <trkpt lat="44.54816" lon="4.23125">
        <ele>580</ele>
        <time>2016-05-15T09:30:04.000Z</time>
      </trkpt>
      <trkpt lat="44.54815" lon="4.2313">
        <ele>580</ele>
        <time>2016-05-15T09:30:05.000Z</time>
      </trkpt>
      <trkpt lat="44.54813" lon="4.23135">
        <ele>579</ele>
        <time>2016-05-15T09:30:06.000Z</time>
      </trkpt>
      <trkpt lat="44.54811" lon="4.23139">
        <ele>579</ele>
        <time>2016-05-15T09:30:07.000Z</time>
      </trkpt>
      <trkpt lat="44.5481" lon="4.23143">
        <ele>578</ele>
        <time>2016-05-15T09:30:08.000Z</time>
      </trkpt>
      <trkpt lat="44.54809" lon="4.23146">
        <ele>578</ele>
        <time>2016-05-15T09:30:09.000Z</time>
      </trkpt>
      <trkpt lat="44.54809" lon="4.23149">
        <ele>578</ele>
        <time>2016-05-15T09:30:10.000Z</time>
      </trkpt>
      <trkpt lat="44.54808" lon="4.23152">
        <ele>578</ele>
        <time>2016-05-15T09:30:11.000Z</time>
      </trkpt>
      <trkpt lat="44.54806" lon="4.23153">
        <ele>578</ele>
        <time>2016-05-15T09:30:12.000Z</time>
      </trkpt>
      <trkpt lat="44.54805" lon="4.23155">
        <ele>578</ele>
        <time>2016-05-15T09:30:13.000Z</time>
      </trkpt>
      <trkpt lat="44.54804" lon="4.23156">
        <ele>578</ele>
        <time>2016-05-15T09:30:14.000Z</time>
      </trkpt>
      <trkpt lat="44.54804" lon="4.23157">
        <ele>578</ele>
        <time>2016-05-15T09:30:15.000Z</time>
      </trkpt>
      <trkpt lat="44.54804" lon="4.23157">
        <ele>578</ele>
        <time>2016-05-15T09:30:16.000Z</time>
      </trkpt>
      <trkpt lat="44.54804" lon="4.23157">
        <ele>578</ele>
        <time>2016-05-15T09:30:17.000Z</time>
      </trkpt>
      <trkpt lat="44.54804" lon="4.23157">
        <ele>578</ele>
        <time>2016-05-15T09:30:18.000Z</time>
      </trkpt>
      <trkpt lat="44.54805" lon="4.23157">
        <ele>578</ele>
        <time>2016-05-15T09:30:19.000Z</time>
      </trkpt>
      <trkpt lat="44.54805" lon="4.23158">
        <ele>578</ele>
        <time>2016-05-15T09:30:20.000Z</time>
      </trkpt>
      <trkpt lat="44.54805" lon="4.23158">
        <ele>578</ele>
        <time>2016-05-15T09:30:21.000Z</time>
      </trkpt>
      <trkpt lat="44.54806" lon="4.23159">
        <ele>577</ele>
        <time>2016-05-15T09:30:22.000Z</time>
      </trkpt>
      <trkpt lat="44.54806" lon="4.23159">
        <ele>577</ele>
        <time>2016-05-15T09:30:23.000Z</time>
      </trkpt>
      <trkpt lat="44.54807" lon="4.23159">
        <ele>577</ele>
        <time>2016-05-15T09:30:24.000Z</time>
      </trkpt>
      <trkpt lat="44.54807" lon="4.23158">
        <ele>577</ele>
        <time>2016-05-15T09:30:25.000Z</time>
      </trkpt>
      <trkpt lat="44.54807" lon="4.23158">
        <ele>577</ele>
        <time>2016-05-15T09:30:26.000Z</time>
      </trkpt>
      <trkpt lat="44.54807" lon="4.23158">
        <ele>577</ele>
        <time>2016-05-15T09:30:27.000Z</time>
      </trkpt>
      <trkpt lat="44.54807" lon="4.23158">
        <ele>577</ele>
        <time>2016-05-15T09:30:28.000Z</time>
      </trkpt>
      <trkpt lat="44.54807" lon="4.23158">
        <ele>577</ele>
        <time>2016-05-15T09:30:29.000Z</time>
      </trkpt>
      <trkpt lat="44.54808" lon="4.23158">
        <ele>577</ele>
        <time>2016-05-15T09:30:30.000Z</time>
      </trkpt>
      <trkpt lat="44.54807" lon="4.23158">
        <ele>577</ele>
        <time>2016-05-15T09:30:31.000Z</time>
      </trkpt>
      <trkpt lat="44.54807" lon="4.23158">
        <ele>577</ele>
        <time>2016-05-15T09:30:32.000Z</time>
      </trkpt>
      <trkpt lat="44.54807" lon="4.23158">
        <ele>577</ele>
        <time>2016-05-15T09:30:33.000Z</time>
      </trkpt>
      <trkpt lat="44.54807" lon="4.23158">
        <ele>577</ele>
        <time>2016-05-15T09:30:34.000Z</time>
      </trkpt>
      <trkpt lat="44.54807" lon="4.23158">
        <ele>577</ele>
        <time>2016-05-15T09:30:35.000Z</time>
      </trkpt>
      <trkpt lat="44.54807" lon="4.23158">
        <ele>577</ele>
        <time>2016-05-15T09:30:36.000Z</time>
      </trkpt>
      <trkpt lat="44.54808" lon="4.23158">
        <ele>577</ele>
        <time>2016-05-15T09:30:37.000Z</time>
      </trkpt>
      <trkpt lat="44.54808" lon="4.23158">
        <ele>577</ele>
        <time>2016-05-15T09:30:38.000Z</time>
      </trkpt>
      <trkpt lat="44.54809" lon="4.23158">
        <ele>577</ele>
        <time>2016-05-15T09:30:39.000Z</time>
      </trkpt>
      <trkpt lat="44.54809" lon="4.23158">
        <ele>577</ele>
        <time>2016-05-15T09:30:40.000Z</time>
      </trkpt>
      <trkpt lat="44.54809" lon="4.23158">
        <ele>577</ele>
        <time>2016-05-15T09:30:41.000Z</time>
      </trkpt>
      <trkpt lat="44.54809" lon="4.23158">
        <ele>577</ele>
        <time>2016-05-15T09:30:42.000Z</time>
      </trkpt>
      <trkpt lat="44.5481" lon="4.23158">
        <ele>577</ele>
        <time>2016-05-15T09:30:43.000Z</time>
      </trkpt>
      <trkpt lat="44.5481" lon="4.23158">
        <ele>577</ele>
        <time>2016-05-15T09:30:44.000Z</time>
      </trkpt>
      <trkpt lat="44.54811" lon="4.23157">
        <ele>577</ele>
        <time>2016-05-15T09:30:45.000Z</time>
      </trkpt>
      <trkpt lat="44.54811" lon="4.23157">
        <ele>577</ele>
        <time>2016-05-15T09:30:46.000Z</time>
      </trkpt>
      <trkpt lat="44.54811" lon="4.23157">
        <ele>577</ele>
        <time>2016-05-15T09:30:47.000Z</time>
      </trkpt>
      <trkpt lat="44.54811" lon="4.23157">
        <ele>576</ele>
        <time>2016-05-15T09:30:48.000Z</time>
      </trkpt>
      <trkpt lat="44.54811" lon="4.23157">
        <ele>576</ele>
        <time>2016-05-15T09:30:49.000Z</time>
      </trkpt>
      <trkpt lat="44.54812" lon="4.23156">
        <ele>576</ele>
        <time>2016-05-15T09:30:50.000Z</time>
      </trkpt>
      <trkpt lat="44.54812" lon="4.23156">
        <ele>576</ele>
        <time>2016-05-15T09:30:51.000Z</time>
      </trkpt>
      <trkpt lat="44.54813" lon="4.23155">
        <ele>576</ele>
        <time>2016-05-15T09:30:52.000Z</time>
      </trkpt>
      <trkpt lat="44.54814" lon="4.23155">
        <ele>576</ele>
        <time>2016-05-15T09:30:53.000Z</time>
      </trkpt>
      <trkpt lat="44.54816" lon="4.23154">
        <ele>576</ele>
        <time>2016-05-15T09:30:54.000Z</time>
      </trkpt>
      <trkpt lat="44.54817" lon="4.23154">
        <ele>575</ele>
        <time>2016-05-15T09:30:55.000Z</time>
      </trkpt>
      <trkpt lat="44.5482" lon="4.23154">
        <ele>575</ele>
        <time>2016-05-15T09:30:56.000Z</time>
      </trkpt>
      <trkpt lat="44.54822" lon="4.23152">
        <ele>575</ele>
        <time>2016-05-15T09:30:57.000Z</time>
      </trkpt>
      <trkpt lat="44.54824" lon="4.2315">
        <ele>575</ele>
        <time>2016-05-15T09:30:58.000Z</time>
      </trkpt>
      <trkpt lat="44.54827" lon="4.23149">
        <ele>575</ele>
        <time>2016-05-15T09:30:59.000Z</time>
      </trkpt>
      <trkpt lat="44.54829" lon="4.23149">
        <ele>575</ele>
        <time>2016-05-15T09:31:00.000Z</time>
      </trkpt>
      <trkpt lat="44.54831" lon="4.23148">
        <ele>575</ele>
        <time>2016-05-15T09:31:01.000Z</time>
      </trkpt>
      <trkpt lat="44.54834" lon="4.23147">
        <ele>566</ele>
        <time>2016-05-15T09:31:02.000Z</time>
      </trkpt>
      <trkpt lat="44.54836" lon="4.23147">
        <ele>565</ele>
        <time>2016-05-15T09:31:03.000Z</time>
      </trkpt>
      <trkpt lat="44.54839" lon="4.23147">
        <ele>565</ele>
        <time>2016-05-15T09:31:04.000Z</time>
      </trkpt>
      <trkpt lat="44.54841" lon="4.23146">
        <ele>565</ele>
        <time>2016-05-15T09:31:05.000Z</time>
      </trkpt>
      <trkpt lat="44.54843" lon="4.23146">
        <ele>565</ele>
        <time>2016-05-15T09:31:06.000Z</time>
      </trkpt>
      <trkpt lat="44.54846" lon="4.23146">
        <ele>565</ele>
        <time>2016-05-15T09:31:07.000Z</time>
      </trkpt>
      <trkpt lat="44.54848" lon="4.23146">
        <ele>565</ele>
        <time>2016-05-15T09:31:08.000Z</time>
      </trkpt>
      <trkpt lat="44.54852" lon="4.23147">
        <ele>564</ele>
        <time>2016-05-15T09:31:09.000Z</time>
      </trkpt>
      <trkpt lat="44.54855" lon="4.23147">
        <ele>564</ele>
        <time>2016-05-15T09:31:10.000Z</time>
      </trkpt>
      <trkpt lat="44.54858" lon="4.23147">
        <ele>563</ele>
        <time>2016-05-15T09:31:11.000Z</time>
      </trkpt>
      <trkpt lat="44.54861" lon="4.23147">
        <ele>563</ele>
        <time>2016-05-15T09:31:12.000Z</time>
      </trkpt>
      <trkpt lat="44.54864" lon="4.23146">
        <ele>563</ele>
        <time>2016-05-15T09:31:13.000Z</time>
      </trkpt>
      <trkpt lat="44.54868" lon="4.23145">
        <ele>562</ele>
        <time>2016-05-15T09:31:14.000Z</time>
      </trkpt>
      <trkpt lat="44.54871" lon="4.23142">
        <ele>562</ele>
        <time>2016-05-15T09:31:15.000Z</time>
      </trkpt>
      <trkpt lat="44.54874" lon="4.23139">
        <ele>561</ele>
        <time>2016-05-15T09:31:16.000Z</time>
      </trkpt>
      <trkpt lat="44.54877" lon="4.23137">
        <ele>561</ele>
        <time>2016-05-15T09:31:17.000Z</time>
      </trkpt>
      <trkpt lat="44.54879" lon="4.23135">
        <ele>561</ele>
        <time>2016-05-15T09:31:18.000Z</time>
      </trkpt>
      <trkpt lat="44.54882" lon="4.23133">
        <ele>561</ele>
        <time>2016-05-15T09:31:19.000Z</time>
      </trkpt>
      <trkpt lat="44.54885" lon="4.23131">
        <ele>561</ele>
        <time>2016-05-15T09:31:20.000Z</time>
      </trkpt>
      <trkpt lat="44.54887" lon="4.23128">
        <ele>560</ele>
        <time>2016-05-15T09:31:21.000Z</time>
      </trkpt>
      <trkpt lat="44.54889" lon="4.23126">
        <ele>560</ele>
        <time>2016-05-15T09:31:22.000Z</time>
      </trkpt>
      <trkpt lat="44.54891" lon="4.23124">
        <ele>560</ele>
        <time>2016-05-15T09:31:23.000Z</time>
      </trkpt>
      <trkpt lat="44.54893" lon="4.23123">
        <ele>560</ele>
        <time>2016-05-15T09:31:24.000Z</time>
      </trkpt>
      <trkpt lat="44.54895" lon="4.23121">
        <ele>560</ele>
        <time>2016-05-15T09:31:25.000Z</time>
      </trkpt>
      <trkpt lat="44.54896" lon="4.2312">
        <ele>560</ele>
        <time>2016-05-15T09:31:26.000Z</time>
      </trkpt>
      <trkpt lat="44.54898" lon="4.23119">
        <ele>560</ele>
        <time>2016-05-15T09:31:27.000Z</time>
      </trkpt>
      <trkpt lat="44.549" lon="4.23117">
        <ele>560</ele>
        <time>2016-05-15T09:31:28.000Z</time>
      </trkpt>
      <trkpt lat="44.54902" lon="4.23115">
        <ele>560</ele>
        <time>2016-05-15T09:31:29.000Z</time>
      </trkpt>
      <trkpt lat="44.54904" lon="4.23113">
        <ele>560</ele>
        <time>2016-05-15T09:31:30.000Z</time>
      </trkpt>
      <trkpt lat="44.54907" lon="4.23112">
        <ele>560</ele>
        <time>2016-05-15T09:31:31.000Z</time>
      </trkpt>
      <trkpt lat="44.54908" lon="4.23111">
        <ele>559</ele>
        <time>2016-05-15T09:31:32.000Z</time>
      </trkpt>
      <trkpt lat="44.5491" lon="4.2311">
        <ele>559</ele>
        <time>2016-05-15T09:31:33.000Z</time>
      </trkpt>
      <trkpt lat="44.54912" lon="4.23109">
        <ele>559</ele>
        <time>2016-05-15T09:31:34.000Z</time>
      </trkpt>
      <trkpt lat="44.54914" lon="4.23108">
        <ele>559</ele>
        <time>2016-05-15T09:31:35.000Z</time>
      </trkpt>
      <trkpt lat="44.54916" lon="4.23107">
        <ele>559</ele>
        <time>2016-05-15T09:31:36.000Z</time>
      </trkpt>
      <trkpt lat="44.54918" lon="4.23106">
        <ele>544</ele>
        <time>2016-05-15T09:31:37.000Z</time>
      </trkpt>
      <trkpt lat="44.54919" lon="4.23105">
        <ele>544</ele>
        <time>2016-05-15T09:31:38.000Z</time>
      </trkpt>
      <trkpt lat="44.54921" lon="4.23104">
        <ele>544</ele>
        <time>2016-05-15T09:31:39.000Z</time>
      </trkpt>
      <trkpt lat="44.54923" lon="4.23104">
        <ele>544</ele>
        <time>2016-05-15T09:31:40.000Z</time>
      </trkpt>
      <trkpt lat="44.54925" lon="4.23104">
        <ele>544</ele>
        <time>2016-05-15T09:31:41.000Z</time>
      </trkpt>
      <trkpt lat="44.54927" lon="4.23103">
        <ele>544</ele>
        <time>2016-05-15T09:31:42.000Z</time>
      </trkpt>
      <trkpt lat="44.54929" lon="4.23103">
        <ele>543</ele>
        <time>2016-05-15T09:31:43.000Z</time>
      </trkpt>
      <trkpt lat="44.54931" lon="4.23102">
        <ele>543</ele>
        <time>2016-05-15T09:31:44.000Z</time>
      </trkpt>
      <trkpt lat="44.54934" lon="4.23101">
        <ele>543</ele>
        <time>2016-05-15T09:31:45.000Z</time>
      </trkpt>
      <trkpt lat="44.54937" lon="4.23098">
        <ele>542</ele>
        <time>2016-05-15T09:31:46.000Z</time>
      </trkpt>
      <trkpt lat="44.5494" lon="4.23097">
        <ele>542</ele>
        <time>2016-05-15T09:31:47.000Z</time>
      </trkpt>
      <trkpt lat="44.54942" lon="4.23096">
        <ele>541</ele>
        <time>2016-05-15T09:31:48.000Z</time>
      </trkpt>
      <trkpt lat="44.54945" lon="4.23097">
        <ele>540</ele>
        <time>2016-05-15T09:31:49.000Z</time>
      </trkpt>
      <trkpt lat="44.54948" lon="4.23096">
        <ele>539</ele>
        <time>2016-05-15T09:31:50.000Z</time>
      </trkpt>
      <trkpt lat="44.5495" lon="4.23094">
        <ele>539</ele>
        <time>2016-05-15T09:31:51.000Z</time>
      </trkpt>
      <trkpt lat="44.54952" lon="4.23093">
        <ele>538</ele>
        <time>2016-05-15T09:31:52.000Z</time>
      </trkpt>
      <trkpt lat="44.54955" lon="4.23091">
        <ele>538</ele>
        <time>2016-05-15T09:31:53.000Z</time>
      </trkpt>
      <trkpt lat="44.54957" lon="4.23089">
        <ele>537</ele>
        <time>2016-05-15T09:31:54.000Z</time>
      </trkpt>
      <trkpt lat="44.54961" lon="4.23087">
        <ele>536</ele>
        <time>2016-05-15T09:31:55.000Z</time>
      </trkpt>
      <trkpt lat="44.54963" lon="4.23085">
        <ele>535</ele>
        <time>2016-05-15T09:31:56.000Z</time>
      </trkpt>
      <trkpt lat="44.54966" lon="4.23083">
        <ele>540</ele>
        <time>2016-05-15T09:31:57.000Z</time>
      </trkpt>
      <trkpt lat="44.54967" lon="4.2308">
        <ele>540</ele>
        <time>2016-05-15T09:31:58.000Z</time>
      </trkpt>
      <trkpt lat="44.54968" lon="4.23078">
        <ele>540</ele>
        <time>2016-05-15T09:31:59.000Z</time>
      </trkpt>
      <trkpt lat="44.5497" lon="4.23075">
        <ele>539</ele>
        <time>2016-05-15T09:32:00.000Z</time>
      </trkpt>
      <trkpt lat="44.54971" lon="4.23073">
        <ele>539</ele>
        <time>2016-05-15T09:32:01.000Z</time>
      </trkpt>
      <trkpt lat="44.54973" lon="4.23071">
        <ele>539</ele>
        <time>2016-05-15T09:32:02.000Z</time>
      </trkpt>
      <trkpt lat="44.54974" lon="4.23068">
        <ele>539</ele>
        <time>2016-05-15T09:32:03.000Z</time>
      </trkpt>
      <trkpt lat="44.54974" lon="4.23066">
        <ele>539</ele>
        <time>2016-05-15T09:32:04.000Z</time>
      </trkpt>
      <trkpt lat="44.54975" lon="4.23063">
        <ele>539</ele>
        <time>2016-05-15T09:32:05.000Z</time>
      </trkpt>
      <trkpt lat="44.54975" lon="4.23061">
        <ele>539</ele>
        <time>2016-05-15T09:32:06.000Z</time>
      </trkpt>
      <trkpt lat="44.54976" lon="4.23059">
        <ele>539</ele>
        <time>2016-05-15T09:32:07.000Z</time>
      </trkpt>
      <trkpt lat="44.54976" lon="4.23057">
        <ele>539</ele>
        <time>2016-05-15T09:32:08.000Z</time>
      </trkpt>
      <trkpt lat="44.54976" lon="4.23055">
        <ele>539</ele>
        <time>2016-05-15T09:32:09.000Z</time>
      </trkpt>
      <trkpt lat="44.54976" lon="4.23054">
        <ele>540</ele>
        <time>2016-05-15T09:32:10.000Z</time>
      </trkpt>
      <trkpt lat="44.54977" lon="4.23051">
        <ele>540</ele>
        <time>2016-05-15T09:32:11.000Z</time>
      </trkpt>
      <trkpt lat="44.54976" lon="4.23048">
        <ele>540</ele>
        <time>2016-05-15T09:32:12.000Z</time>
      </trkpt>
      <trkpt lat="44.54976" lon="4.23046">
        <ele>540</ele>
        <time>2016-05-15T09:32:13.000Z</time>
      </trkpt>
      <trkpt lat="44.54976" lon="4.23044">
        <ele>540</ele>
        <time>2016-05-15T09:32:14.000Z</time>
      </trkpt>
      <trkpt lat="44.54977" lon="4.23041">
        <ele>540</ele>
        <time>2016-05-15T09:32:15.000Z</time>
      </trkpt>
      <trkpt lat="44.54978" lon="4.23037">
        <ele>540</ele>
        <time>2016-05-15T09:32:16.000Z</time>
      </trkpt>
      <trkpt lat="44.54978" lon="4.23033">
        <ele>540</ele>
        <time>2016-05-15T09:32:17.000Z</time>
      </trkpt>
      <trkpt lat="44.54978" lon="4.23029">
        <ele>540</ele>
        <time>2016-05-15T09:32:18.000Z</time>
      </trkpt>
      <trkpt lat="44.54978" lon="4.23027">
        <ele>540</ele>
        <time>2016-05-15T09:32:19.000Z</time>
      </trkpt>
      <trkpt lat="44.54978" lon="4.23024">
        <ele>540</ele>
        <time>2016-05-15T09:32:20.000Z</time>
      </trkpt>
      <trkpt lat="44.54978" lon="4.23021">
        <ele>540</ele>
        <time>2016-05-15T09:32:21.000Z</time>
      </trkpt>
      <trkpt lat="44.54977" lon="4.23019">
        <ele>540</ele>
        <time>2016-05-15T09:32:22.000Z</time>
      </trkpt>
      <trkpt lat="44.54978" lon="4.23016">
        <ele>539</ele>
        <time>2016-05-15T09:32:23.000Z</time>
      </trkpt>
      <trkpt lat="44.54978" lon="4.23012">
        <ele>539</ele>
        <time>2016-05-15T09:32:24.000Z</time>
      </trkpt>
      <trkpt lat="44.54978" lon="4.23008">
        <ele>539</ele>
        <time>2016-05-15T09:32:25.000Z</time>
      </trkpt>
      <trkpt lat="44.54977" lon="4.23005">
        <ele>539</ele>
        <time>2016-05-15T09:32:26.000Z</time>
      </trkpt>
      <trkpt lat="44.54978" lon="4.23002">
        <ele>539</ele>
        <time>2016-05-15T09:32:27.000Z</time>
      </trkpt>
      <trkpt lat="44.54979" lon="4.22997">
        <ele>542</ele>
        <time>2016-05-15T09:32:28.000Z</time>
      </trkpt>
      <trkpt lat="44.5498" lon="4.22992">
        <ele>542</ele>
        <time>2016-05-15T09:32:29.000Z</time>
      </trkpt>
      <trkpt lat="44.54981" lon="4.22989">
        <ele>543</ele>
        <time>2016-05-15T09:32:30.000Z</time>
      </trkpt>
      <trkpt lat="44.54983" lon="4.22985">
        <ele>543</ele>
        <time>2016-05-15T09:32:31.000Z</time>
      </trkpt>
      <trkpt lat="44.54984" lon="4.2298">
        <ele>544</ele>
        <time>2016-05-15T09:32:32.000Z</time>
      </trkpt>
      <trkpt lat="44.54985" lon="4.22977">
        <ele>544</ele>
        <time>2016-05-15T09:32:33.000Z</time>
      </trkpt>
      <trkpt lat="44.54987" lon="4.22974">
        <ele>544</ele>
        <time>2016-05-15T09:32:34.000Z</time>
      </trkpt>
      <trkpt lat="44.54989" lon="4.2297">
        <ele>545</ele>
        <time>2016-05-15T09:32:35.000Z</time>
      </trkpt>
      <trkpt lat="44.54991" lon="4.22967">
        <ele>545</ele>
        <time>2016-05-15T09:32:36.000Z</time>
      </trkpt>
      <trkpt lat="44.54993" lon="4.22965">
        <ele>545</ele>
        <time>2016-05-15T09:32:37.000Z</time>
      </trkpt>
      <trkpt lat="44.54995" lon="4.22962">
        <ele>545</ele>
        <time>2016-05-15T09:32:38.000Z</time>
      </trkpt>
      <trkpt lat="44.54998" lon="4.22959">
        <ele>545</ele>
        <time>2016-05-15T09:32:39.000Z</time>
      </trkpt>
      <trkpt lat="44.55001" lon="4.22956">
        <ele>520</ele>
        <time>2016-05-15T09:32:40.000Z</time>
      </trkpt>
      <trkpt lat="44.55004" lon="4.22953">
        <ele>520</ele>
        <time>2016-05-15T09:32:41.000Z</time>
      </trkpt>
      <trkpt lat="44.55006" lon="4.22951">
        <ele>520</ele>
        <time>2016-05-15T09:32:42.000Z</time>
      </trkpt>
      <trkpt lat="44.55009" lon="4.22948">
        <ele>521</ele>
        <time>2016-05-15T09:32:43.000Z</time>
      </trkpt>
      <trkpt lat="44.55011" lon="4.22945">
        <ele>521</ele>
        <time>2016-05-15T09:32:44.000Z</time>
      </trkpt>
      <trkpt lat="44.55013" lon="4.22941">
        <ele>521</ele>
        <time>2016-05-15T09:32:45.000Z</time>
      </trkpt>
      <trkpt lat="44.55014" lon="4.22939">
        <ele>521</ele>
        <time>2016-05-15T09:32:46.000Z</time>
      </trkpt>
      <trkpt lat="44.55016" lon="4.22936">
        <ele>522</ele>
        <time>2016-05-15T09:32:47.000Z</time>
      </trkpt>
      <trkpt lat="44.55017" lon="4.22935">
        <ele>521</ele>
        <time>2016-05-15T09:32:48.000Z</time>
      </trkpt>
      <trkpt lat="44.55019" lon="4.22934">
        <ele>521</ele>
        <time>2016-05-15T09:32:49.000Z</time>
      </trkpt>
      <trkpt lat="44.55022" lon="4.22933">
        <ele>520</ele>
        <time>2016-05-15T09:32:50.000Z</time>
      </trkpt>
      <trkpt lat="44.55025" lon="4.22931">
        <ele>520</ele>
        <time>2016-05-15T09:32:51.000Z</time>
      </trkpt>
      <trkpt lat="44.55027" lon="4.22928">
        <ele>519</ele>
        <time>2016-05-15T09:32:52.000Z</time>
      </trkpt>
      <trkpt lat="44.55029" lon="4.22925">
        <ele>519</ele>
        <time>2016-05-15T09:32:53.000Z</time>
      </trkpt>
      <trkpt lat="44.55031" lon="4.22922">
        <ele>518</ele>
        <time>2016-05-15T09:32:54.000Z</time>
      </trkpt>
      <trkpt lat="44.55034" lon="4.2292">
        <ele>517</ele>
        <time>2016-05-15T09:32:55.000Z</time>
      </trkpt>
      <trkpt lat="44.55037" lon="4.22917">
        <ele>516</ele>
        <time>2016-05-15T09:32:56.000Z</time>
      </trkpt>
      <trkpt lat="44.55039" lon="4.22915">
        <ele>521</ele>
        <time>2016-05-15T09:32:57.000Z</time>
      </trkpt>
      <trkpt lat="44.5504" lon="4.22914">
        <ele>520</ele>
        <time>2016-05-15T09:32:58.000Z</time>
      </trkpt>
      <trkpt lat="44.55042" lon="4.22914">
        <ele>519</ele>
        <time>2016-05-15T09:32:59.000Z</time>
      </trkpt>
      <trkpt lat="44.55044" lon="4.22914">
        <ele>519</ele>
        <time>2016-05-15T09:33:00.000Z</time>
      </trkpt>
      <trkpt lat="44.55046" lon="4.22913">
        <ele>518</ele>
        <time>2016-05-15T09:33:01.000Z</time>
      </trkpt>
      <trkpt lat="44.55048" lon="4.22913">
        <ele>517</ele>
        <time>2016-05-15T09:33:02.000Z</time>
      </trkpt>
      <trkpt lat="44.55049" lon="4.22912">
        <ele>517</ele>
        <time>2016-05-15T09:33:03.000Z</time>
      </trkpt>
      <trkpt lat="44.55051" lon="4.22913">
        <ele>516</ele>
        <time>2016-05-15T09:33:04.000Z</time>
      </trkpt>
      <trkpt lat="44.55052" lon="4.22914">
        <ele>516</ele>
        <time>2016-05-15T09:33:05.000Z</time>
      </trkpt>
      <trkpt lat="44.55053" lon="4.22917">
        <ele>515</ele>
        <time>2016-05-15T09:33:06.000Z</time>
      </trkpt>
      <trkpt lat="44.55054" lon="4.22918">
        <ele>510</ele>
        <time>2016-05-15T09:33:07.000Z</time>
      </trkpt>
      <trkpt lat="44.55054" lon="4.22919">
        <ele>510</ele>
        <time>2016-05-15T09:33:08.000Z</time>
      </trkpt>
      <trkpt lat="44.55054" lon="4.22921">
        <ele>510</ele>
        <time>2016-05-15T09:33:09.000Z</time>
      </trkpt>
      <trkpt lat="44.55056" lon="4.22923">
        <ele>510</ele>
        <time>2016-05-15T09:33:10.000Z</time>
      </trkpt>
      <trkpt lat="44.55058" lon="4.22923">
        <ele>509</ele>
        <time>2016-05-15T09:33:11.000Z</time>
      </trkpt>
      <trkpt lat="44.55061" lon="4.22923">
        <ele>508</ele>
        <time>2016-05-15T09:33:12.000Z</time>
      </trkpt>
      <trkpt lat="44.55063" lon="4.2292">
        <ele>507</ele>
        <time>2016-05-15T09:33:13.000Z</time>
      </trkpt>
      <trkpt lat="44.55065" lon="4.22917">
        <ele>506</ele>
        <time>2016-05-15T09:33:14.000Z</time>
      </trkpt>
      <trkpt lat="44.55067" lon="4.22913">
        <ele>510</ele>
        <time>2016-05-15T09:33:15.000Z</time>
      </trkpt>
      <trkpt lat="44.55068" lon="4.22909">
        <ele>509</ele>
        <time>2016-05-15T09:33:16.000Z</time>
      </trkpt>
      <trkpt lat="44.5507" lon="4.22904">
        <ele>510</ele>
        <time>2016-05-15T09:33:17.000Z</time>
      </trkpt>
      <trkpt lat="44.55072" lon="4.22901">
        <ele>510</ele>
        <time>2016-05-15T09:33:18.000Z</time>
      </trkpt>
      <trkpt lat="44.55074" lon="4.22898">
        <ele>510</ele>
        <time>2016-05-15T09:33:19.000Z</time>
      </trkpt>
      <trkpt lat="44.55076" lon="4.22895">
        <ele>511</ele>
        <time>2016-05-15T09:33:20.000Z</time>
      </trkpt>
      <trkpt lat="44.55078" lon="4.22893">
        <ele>511</ele>
        <time>2016-05-15T09:33:21.000Z</time>
      </trkpt>
      <trkpt lat="44.5508" lon="4.22891">
        <ele>511</ele>
        <time>2016-05-15T09:33:22.000Z</time>
      </trkpt>
      <trkpt lat="44.55082" lon="4.22891">
        <ele>511</ele>
        <time>2016-05-15T09:33:23.000Z</time>
      </trkpt>
      <trkpt lat="44.55084" lon="4.22892">
        <ele>489</ele>
        <time>2016-05-15T09:33:24.000Z</time>
      </trkpt>
      <trkpt lat="44.55086" lon="4.22894">
        <ele>489</ele>
        <time>2016-05-15T09:33:25.000Z</time>
      </trkpt>
      <trkpt lat="44.55087" lon="4.22898">
        <ele>490</ele>
        <time>2016-05-15T09:33:26.000Z</time>
      </trkpt>
      <trkpt lat="44.55089" lon="4.229">
        <ele>490</ele>
        <time>2016-05-15T09:33:27.000Z</time>
      </trkpt>
      <trkpt lat="44.55091" lon="4.22899">
        <ele>489</ele>
        <time>2016-05-15T09:33:28.000Z</time>
      </trkpt>
      <trkpt lat="44.55092" lon="4.22897">
        <ele>489</ele>
        <time>2016-05-15T09:33:29.000Z</time>
      </trkpt>
      <trkpt lat="44.55092" lon="4.22894">
        <ele>489</ele>
        <time>2016-05-15T09:33:30.000Z</time>
      </trkpt>
      <trkpt lat="44.55092" lon="4.22892">
        <ele>488</ele>
        <time>2016-05-15T09:33:31.000Z</time>
      </trkpt>
      <trkpt lat="44.55092" lon="4.22891">
        <ele>488</ele>
        <time>2016-05-15T09:33:32.000Z</time>
      </trkpt>
      <trkpt lat="44.55094" lon="4.22891">
        <ele>488</ele>
        <time>2016-05-15T09:33:33.000Z</time>
      </trkpt>
      <trkpt lat="44.55095" lon="4.22892">
        <ele>488</ele>
        <time>2016-05-15T09:33:34.000Z</time>
      </trkpt>
      <trkpt lat="44.55096" lon="4.22896">
        <ele>488</ele>
        <time>2016-05-15T09:33:35.000Z</time>
      </trkpt>
      <trkpt lat="44.55098" lon="4.22901">
        <ele>488</ele>
        <time>2016-05-15T09:33:36.000Z</time>
      </trkpt>
      <trkpt lat="44.55099" lon="4.22905">
        <ele>489</ele>
        <time>2016-05-15T09:33:37.000Z</time>
      </trkpt>
      <trkpt lat="44.55099" lon="4.22909">
        <ele>489</ele>
        <time>2016-05-15T09:33:38.000Z</time>
      </trkpt>
      <trkpt lat="44.55099" lon="4.22914">
        <ele>490</ele>
        <time>2016-05-15T09:33:39.000Z</time>
      </trkpt>
      <trkpt lat="44.55099" lon="4.22917">
        <ele>487</ele>
        <time>2016-05-15T09:33:40.000Z</time>
      </trkpt>
      <trkpt lat="44.55099" lon="4.22917">
        <ele>487</ele>
        <time>2016-05-15T09:33:41.000Z</time>
      </trkpt>
      <trkpt lat="44.55101" lon="4.22916">
        <ele>489</ele>
        <time>2016-05-15T09:33:42.000Z</time>
      </trkpt>
      <trkpt lat="44.55102" lon="4.22913">
        <ele>488</ele>
        <time>2016-05-15T09:33:43.000Z</time>
      </trkpt>
      <trkpt lat="44.55104" lon="4.22909">
        <ele>488</ele>
        <time>2016-05-15T09:33:44.000Z</time>
      </trkpt>
      <trkpt lat="44.55105" lon="4.22905">
        <ele>487</ele>
        <time>2016-05-15T09:33:45.000Z</time>
      </trkpt>
      <trkpt lat="44.55107" lon="4.229">
        <ele>486</ele>
        <time>2016-05-15T09:33:46.000Z</time>
      </trkpt>
      <trkpt lat="44.55108" lon="4.22894">
        <ele>485</ele>
        <time>2016-05-15T09:33:47.000Z</time>
      </trkpt>
      <trkpt lat="44.55108" lon="4.22889">
        <ele>485</ele>
        <time>2016-05-15T09:33:48.000Z</time>
      </trkpt>
      <trkpt lat="44.55108" lon="4.22885">
        <ele>485</ele>
        <time>2016-05-15T09:33:49.000Z</time>
      </trkpt>
      <trkpt lat="44.55108" lon="4.22881">
        <ele>485</ele>
        <time>2016-05-15T09:33:50.000Z</time>
      </trkpt>
      <trkpt lat="44.55107" lon="4.22876">
        <ele>485</ele>
        <time>2016-05-15T09:33:51.000Z</time>
      </trkpt>
      <trkpt lat="44.55106" lon="4.22871">
        <ele>485</ele>
        <time>2016-05-15T09:33:52.000Z</time>
      </trkpt>
      <trkpt lat="44.55106" lon="4.22868">
        <ele>485</ele>
        <time>2016-05-15T09:33:53.000Z</time>
      </trkpt>
      <trkpt lat="44.55107" lon="4.22864">
        <ele>486</ele>
        <time>2016-05-15T09:33:54.000Z</time>
      </trkpt>
      <trkpt lat="44.55107" lon="4.22859">
        <ele>486</ele>
        <time>2016-05-15T09:33:55.000Z</time>
      </trkpt>
      <trkpt lat="44.55108" lon="4.22854">
        <ele>486</ele>
        <time>2016-05-15T09:33:56.000Z</time>
      </trkpt>
      <trkpt lat="44.55108" lon="4.2285">
        <ele>487</ele>
        <time>2016-05-15T09:33:57.000Z</time>
      </trkpt>
      <trkpt lat="44.55108" lon="4.22845">
        <ele>487</ele>
        <time>2016-05-15T09:33:58.000Z</time>
      </trkpt>
      <trkpt lat="44.55109" lon="4.22841">
        <ele>487</ele>
        <time>2016-05-15T09:33:59.000Z</time>
      </trkpt>
      <trkpt lat="44.5511" lon="4.22836">
        <ele>487</ele>
        <time>2016-05-15T09:34:00.000Z</time>
      </trkpt>
      <trkpt lat="44.55113" lon="4.22831">
        <ele>489</ele>
        <time>2016-05-15T09:34:01.000Z</time>
      </trkpt>
      <trkpt lat="44.55114" lon="4.22825">
        <ele>489</ele>
        <time>2016-05-15T09:34:02.000Z</time>
      </trkpt>
      <trkpt lat="44.55116" lon="4.22821">
        <ele>488</ele>
        <time>2016-05-15T09:34:03.000Z</time>
      </trkpt>
      <trkpt lat="44.55117" lon="4.22819">
        <ele>488</ele>
        <time>2016-05-15T09:34:04.000Z</time>
      </trkpt>
      <trkpt lat="44.55119" lon="4.22818">
        <ele>487</ele>
        <time>2016-05-15T09:34:05.000Z</time>
      </trkpt>
      <trkpt lat="44.55123" lon="4.22817">
        <ele>487</ele>
        <time>2016-05-15T09:34:06.000Z</time>
      </trkpt>
      <trkpt lat="44.55126" lon="4.22816">
        <ele>486</ele>
        <time>2016-05-15T09:34:07.000Z</time>
      </trkpt>
      <trkpt lat="44.5513" lon="4.22816">
        <ele>484</ele>
        <time>2016-05-15T09:34:08.000Z</time>
      </trkpt>
      <trkpt lat="44.55134" lon="4.22816">
        <ele>483</ele>
        <time>2016-05-15T09:34:09.000Z</time>
      </trkpt>
      <trkpt lat="44.55138" lon="4.22815">
        <ele>482</ele>
        <time>2016-05-15T09:34:10.000Z</time>
      </trkpt>
      <trkpt lat="44.55141" lon="4.22812">
        <ele>482</ele>
        <time>2016-05-15T09:34:11.000Z</time>
      </trkpt>
      <trkpt lat="44.55143" lon="4.2281">
        <ele>482</ele>
        <time>2016-05-15T09:34:12.000Z</time>
      </trkpt>
      <trkpt lat="44.55145" lon="4.22809">
        <ele>481</ele>
        <time>2016-05-15T09:34:13.000Z</time>
      </trkpt>
      <trkpt lat="44.55149" lon="4.22807">
        <ele>481</ele>
        <time>2016-05-15T09:34:14.000Z</time>
      </trkpt>
      <trkpt lat="44.55152" lon="4.22804">
        <ele>481</ele>
        <time>2016-05-15T09:34:15.000Z</time>
      </trkpt>
      <trkpt lat="44.55155" lon="4.228">
        <ele>481</ele>
        <time>2016-05-15T09:34:16.000Z</time>
      </trkpt>
      <trkpt lat="44.55159" lon="4.22797">
        <ele>481</ele>
        <time>2016-05-15T09:34:17.000Z</time>
      </trkpt>
      <trkpt lat="44.55162" lon="4.22794">
        <ele>480</ele>
        <time>2016-05-15T09:34:18.000Z</time>
      </trkpt>
      <trkpt lat="44.55166" lon="4.22791">
        <ele>480</ele>
        <time>2016-05-15T09:34:19.000Z</time>
      </trkpt>
      <trkpt lat="44.5517" lon="4.22787">
        <ele>462</ele>
        <time>2016-05-15T09:34:20.000Z</time>
      </trkpt>
      <trkpt lat="44.55172" lon="4.22783">
        <ele>463</ele>
        <time>2016-05-15T09:34:21.000Z</time>
      </trkpt>
      <trkpt lat="44.55175" lon="4.22781">
        <ele>463</ele>
        <time>2016-05-15T09:34:22.000Z</time>
      </trkpt>
      <trkpt lat="44.55177" lon="4.22782">
        <ele>462</ele>
        <time>2016-05-15T09:34:23.000Z</time>
      </trkpt>
      <trkpt lat="44.55179" lon="4.22785">
        <ele>462</ele>
        <time>2016-05-15T09:34:24.000Z</time>
      </trkpt>
      <trkpt lat="44.55181" lon="4.2279">
        <ele>461</ele>
        <time>2016-05-15T09:34:25.000Z</time>
      </trkpt>
      <trkpt lat="44.55182" lon="4.22796">
        <ele>461</ele>
        <time>2016-05-15T09:34:26.000Z</time>
      </trkpt>
      <trkpt lat="44.55183" lon="4.22801">
        <ele>460</ele>
        <time>2016-05-15T09:34:27.000Z</time>
      </trkpt>
      <trkpt lat="44.55184" lon="4.22805">
        <ele>460</ele>
        <time>2016-05-15T09:34:28.000Z</time>
      </trkpt>
      <trkpt lat="44.55184" lon="4.22808">
        <ele>460</ele>
        <time>2016-05-15T09:34:29.000Z</time>
      </trkpt>
      <trkpt lat="44.55186" lon="4.22808">
        <ele>460</ele>
        <time>2016-05-15T09:34:30.000Z</time>
      </trkpt>
      <trkpt lat="44.55189" lon="4.22808">
        <ele>460</ele>
        <time>2016-05-15T09:34:31.000Z</time>
      </trkpt>
      <trkpt lat="44.55191" lon="4.22806">
        <ele>460</ele>
        <time>2016-05-15T09:34:32.000Z</time>
      </trkpt>
      <trkpt lat="44.55195" lon="4.22803">
        <ele>459</ele>
        <time>2016-05-15T09:34:33.000Z</time>
      </trkpt>
      <trkpt lat="44.55199" lon="4.22802">
        <ele>459</ele>
        <time>2016-05-15T09:34:34.000Z</time>
      </trkpt>
      <trkpt lat="44.55203" lon="4.228">
        <ele>458</ele>
        <time>2016-05-15T09:34:35.000Z</time>
      </trkpt>
      <trkpt lat="44.55207" lon="4.22797">
        <ele>458</ele>
        <time>2016-05-15T09:34:36.000Z</time>
      </trkpt>
      <trkpt lat="44.55211" lon="4.22795">
        <ele>457</ele>
        <time>2016-05-15T09:34:37.000Z</time>
      </trkpt>
      <trkpt lat="44.55213" lon="4.22794">
        <ele>457</ele>
        <time>2016-05-15T09:34:38.000Z</time>
      </trkpt>
      <trkpt lat="44.55215" lon="4.22796">
        <ele>457</ele>
        <time>2016-05-15T09:34:39.000Z</time>
      </trkpt>
      <trkpt lat="44.55215" lon="4.22798">
        <ele>456</ele>
        <time>2016-05-15T09:34:40.000Z</time>
      </trkpt>
      <trkpt lat="44.55215" lon="4.22801">
        <ele>456</ele>
        <time>2016-05-15T09:34:41.000Z</time>
      </trkpt>
      <trkpt lat="44.55214" lon="4.22805">
        <ele>456</ele>
        <time>2016-05-15T09:34:42.000Z</time>
      </trkpt>
      <trkpt lat="44.55215" lon="4.2281">
        <ele>456</ele>
        <time>2016-05-15T09:34:43.000Z</time>
      </trkpt>
      <trkpt lat="44.55215" lon="4.22816">
        <ele>456</ele>
        <time>2016-05-15T09:34:44.000Z</time>
      </trkpt>
      <trkpt lat="44.55215" lon="4.2282">
        <ele>456</ele>
        <time>2016-05-15T09:34:45.000Z</time>
      </trkpt>
      <trkpt lat="44.55217" lon="4.22821">
        <ele>455</ele>
        <time>2016-05-15T09:34:46.000Z</time>
      </trkpt>
      <trkpt lat="44.55219" lon="4.22821">
        <ele>455</ele>
        <time>2016-05-15T09:34:47.000Z</time>
      </trkpt>
      <trkpt lat="44.55223" lon="4.22819">
        <ele>454</ele>
        <time>2016-05-15T09:34:48.000Z</time>
      </trkpt>
      <trkpt lat="44.55228" lon="4.22816">
        <ele>454</ele>
        <time>2016-05-15T09:34:49.000Z</time>
      </trkpt>
      <trkpt lat="44.55234" lon="4.22813">
        <ele>453</ele>
        <time>2016-05-15T09:34:50.000Z</time>
      </trkpt>
      <trkpt lat="44.55239" lon="4.2281">
        <ele>453</ele>
        <time>2016-05-15T09:34:51.000Z</time>
      </trkpt>
      <trkpt lat="44.55244" lon="4.22806">
        <ele>453</ele>
        <time>2016-05-15T09:34:52.000Z</time>
      </trkpt>
      <trkpt lat="44.55247" lon="4.22802">
        <ele>453</ele>
        <time>2016-05-15T09:34:53.000Z</time>
      </trkpt>
      <trkpt lat="44.55249" lon="4.22801">
        <ele>453</ele>
        <time>2016-05-15T09:34:54.000Z</time>
      </trkpt>
      <trkpt lat="44.55252" lon="4.22802">
        <ele>440</ele>
        <time>2016-05-15T09:34:55.000Z</time>
      </trkpt>
      <trkpt lat="44.55254" lon="4.22805">
        <ele>440</ele>
        <time>2016-05-15T09:34:56.000Z</time>
      </trkpt>
      <trkpt lat="44.55255" lon="4.22811">
        <ele>440</ele>
        <time>2016-05-15T09:34:57.000Z</time>
      </trkpt>
      <trkpt lat="44.55255" lon="4.22817">
        <ele>441</ele>
        <time>2016-05-15T09:34:58.000Z</time>
      </trkpt>
      <trkpt lat="44.55255" lon="4.22821">
        <ele>442</ele>
        <time>2016-05-15T09:34:59.000Z</time>
      </trkpt>
      <trkpt lat="44.55255" lon="4.22826">
        <ele>443</ele>
        <time>2016-05-15T09:35:00.000Z</time>
      </trkpt>
      <trkpt lat="44.55255" lon="4.22828">
        <ele>444</ele>
        <time>2016-05-15T09:35:01.000Z</time>
      </trkpt>
      <trkpt lat="44.55256" lon="4.22829">
        <ele>443</ele>
        <time>2016-05-15T09:35:02.000Z</time>
      </trkpt>
      <trkpt lat="44.55258" lon="4.22827">
        <ele>443</ele>
        <time>2016-05-15T09:35:03.000Z</time>
      </trkpt>
      <trkpt lat="44.5526" lon="4.22825">
        <ele>442</ele>
        <time>2016-05-15T09:35:04.000Z</time>
      </trkpt>
      <trkpt lat="44.55263" lon="4.22822">
        <ele>441</ele>
        <time>2016-05-15T09:35:05.000Z</time>
      </trkpt>
      <trkpt lat="44.55267" lon="4.2282">
        <ele>440</ele>
        <time>2016-05-15T09:35:06.000Z</time>
      </trkpt>
      <trkpt lat="44.5527" lon="4.22817">
        <ele>439</ele>
        <time>2016-05-15T09:35:07.000Z</time>
      </trkpt>
      <trkpt lat="44.55273" lon="4.22814">
        <ele>439</ele>
        <time>2016-05-15T09:35:08.000Z</time>
      </trkpt>
      <trkpt lat="44.55276" lon="4.2281">
        <ele>438</ele>
        <time>2016-05-15T09:35:09.000Z</time>
      </trkpt>
      <trkpt lat="44.55279" lon="4.22807">
        <ele>437</ele>
        <time>2016-05-15T09:35:10.000Z</time>
      </trkpt>
      <trkpt lat="44.55282" lon="4.22805">
        <ele>437</ele>
        <time>2016-05-15T09:35:11.000Z</time>
      </trkpt>
      <trkpt lat="44.55285" lon="4.22802">
        <ele>437</ele>
        <time>2016-05-15T09:35:12.000Z</time>
      </trkpt>
      <trkpt lat="44.55286" lon="4.22798">
        <ele>436</ele>
        <time>2016-05-15T09:35:13.000Z</time>
      </trkpt>
      <trkpt lat="44.55288" lon="4.22793">
        <ele>436</ele>
        <time>2016-05-15T09:35:14.000Z</time>
      </trkpt>
      <trkpt lat="44.55288" lon="4.22786">
        <ele>436</ele>
        <time>2016-05-15T09:35:15.000Z</time>
      </trkpt>
      <trkpt lat="44.55288" lon="4.22779">
        <ele>436</ele>
        <time>2016-05-15T09:35:16.000Z</time>
      </trkpt>
      <trkpt lat="44.55287" lon="4.22772">
        <ele>436</ele>
        <time>2016-05-15T09:35:17.000Z</time>
      </trkpt>
      <trkpt lat="44.55285" lon="4.22764">
        <ele>437</ele>
        <time>2016-05-15T09:35:18.000Z</time>
      </trkpt>
      <trkpt lat="44.55283" lon="4.22755">
        <ele>437</ele>
        <time>2016-05-15T09:35:19.000Z</time>
      </trkpt>
      <trkpt lat="44.55282" lon="4.22747">
        <ele>437</ele>
        <time>2016-05-15T09:35:20.000Z</time>
      </trkpt>
      <trkpt lat="44.5528" lon="4.22738">
        <ele>438</ele>
        <time>2016-05-15T09:35:21.000Z</time>
      </trkpt>
      <trkpt lat="44.55278" lon="4.22731">
        <ele>438</ele>
        <time>2016-05-15T09:35:22.000Z</time>
      </trkpt>
      <trkpt lat="44.55277" lon="4.22723">
        <ele>437</ele>
        <time>2016-05-15T09:35:23.000Z</time>
      </trkpt>
      <trkpt lat="44.55278" lon="4.22717">
        <ele>437</ele>
        <time>2016-05-15T09:35:24.000Z</time>
      </trkpt>
      <trkpt lat="44.55278" lon="4.22711">
        <ele>437</ele>
        <time>2016-05-15T09:35:25.000Z</time>
      </trkpt>
      <trkpt lat="44.55279" lon="4.22706">
        <ele>437</ele>
        <time>2016-05-15T09:35:26.000Z</time>
      </trkpt>
      <trkpt lat="44.55279" lon="4.22702">
        <ele>437</ele>
        <time>2016-05-15T09:35:27.000Z</time>
      </trkpt>
      <trkpt lat="44.5528" lon="4.22697">
        <ele>437</ele>
        <time>2016-05-15T09:35:28.000Z</time>
      </trkpt>
      <trkpt lat="44.55281" lon="4.22693">
        <ele>437</ele>
        <time>2016-05-15T09:35:29.000Z</time>
      </trkpt>
      <trkpt lat="44.55281" lon="4.22688">
        <ele>437</ele>
        <time>2016-05-15T09:35:30.000Z</time>
      </trkpt>
      <trkpt lat="44.55281" lon="4.22683">
        <ele>437</ele>
        <time>2016-05-15T09:35:31.000Z</time>
      </trkpt>
      <trkpt lat="44.55281" lon="4.22678">
        <ele>437</ele>
        <time>2016-05-15T09:35:32.000Z</time>
      </trkpt>
      <trkpt lat="44.55282" lon="4.22673">
        <ele>437</ele>
        <time>2016-05-15T09:35:33.000Z</time>
      </trkpt>
      <trkpt lat="44.55282" lon="4.22668">
        <ele>437</ele>
        <time>2016-05-15T09:35:34.000Z</time>
      </trkpt>
      <trkpt lat="44.55283" lon="4.22665">
        <ele>442</ele>
        <time>2016-05-15T09:35:35.000Z</time>
      </trkpt>
      <trkpt lat="44.55286" lon="4.22662">
        <ele>442</ele>
        <time>2016-05-15T09:35:36.000Z</time>
      </trkpt>
      <trkpt lat="44.55288" lon="4.22658">
        <ele>442</ele>
        <time>2016-05-15T09:35:37.000Z</time>
      </trkpt>
      <trkpt lat="44.5529" lon="4.22655">
        <ele>442</ele>
        <time>2016-05-15T09:35:38.000Z</time>
      </trkpt>
      <trkpt lat="44.55291" lon="4.22651">
        <ele>442</ele>
        <time>2016-05-15T09:35:39.000Z</time>
      </trkpt>
      <trkpt lat="44.55293" lon="4.22648">
        <ele>442</ele>
        <time>2016-05-15T09:35:40.000Z</time>
      </trkpt>
      <trkpt lat="44.55294" lon="4.22645">
        <ele>442</ele>
        <time>2016-05-15T09:35:41.000Z</time>
      </trkpt>
      <trkpt lat="44.55295" lon="4.22641">
        <ele>442</ele>
        <time>2016-05-15T09:35:42.000Z</time>
      </trkpt>
      <trkpt lat="44.55296" lon="4.22638">
        <ele>442</ele>
        <time>2016-05-15T09:35:43.000Z</time>
      </trkpt>
      <trkpt lat="44.55297" lon="4.22634">
        <ele>443</ele>
        <time>2016-05-15T09:35:44.000Z</time>
      </trkpt>
      <trkpt lat="44.55298" lon="4.22631">
        <ele>443</ele>
        <time>2016-05-15T09:35:45.000Z</time>
      </trkpt>
      <trkpt lat="44.55299" lon="4.22628">
        <ele>443</ele>
        <time>2016-05-15T09:35:46.000Z</time>
      </trkpt>
      <trkpt lat="44.55301" lon="4.22624">
        <ele>443</ele>
        <time>2016-05-15T09:35:47.000Z</time>
      </trkpt>
      <trkpt lat="44.55302" lon="4.22621">
        <ele>444</ele>
        <time>2016-05-15T09:35:48.000Z</time>
      </trkpt>
      <trkpt lat="44.55304" lon="4.22619">
        <ele>444</ele>
        <time>2016-05-15T09:35:49.000Z</time>
      </trkpt>
      <trkpt lat="44.55306" lon="4.22617">
        <ele>444</ele>
        <time>2016-05-15T09:35:50.000Z</time>
      </trkpt>
      <trkpt lat="44.55308" lon="4.22616">
        <ele>444</ele>
        <time>2016-05-15T09:35:51.000Z</time>
      </trkpt>
      <trkpt lat="44.5531" lon="4.22615">
        <ele>444</ele>
        <time>2016-05-15T09:35:52.000Z</time>
      </trkpt>
      <trkpt lat="44.55312" lon="4.22615">
        <ele>444</ele>
        <time>2016-05-15T09:35:53.000Z</time>
      </trkpt>
      <trkpt lat="44.55314" lon="4.22616">
        <ele>444</ele>
        <time>2016-05-15T09:35:54.000Z</time>
      </trkpt>
      <trkpt lat="44.55315" lon="4.22617">
        <ele>444</ele>
        <time>2016-05-15T09:35:55.000Z</time>
      </trkpt>
      <trkpt lat="44.55317" lon="4.22619">
        <ele>444</ele>
        <time>2016-05-15T09:35:56.000Z</time>
      </trkpt>
      <trkpt lat="44.55319" lon="4.22622">
        <ele>443</ele>
        <time>2016-05-15T09:35:57.000Z</time>
      </trkpt>
      <trkpt lat="44.5532" lon="4.22625">
        <ele>443</ele>
        <time>2016-05-15T09:35:58.000Z</time>
      </trkpt>
      <trkpt lat="44.55321" lon="4.22627">
        <ele>443</ele>
        <time>2016-05-15T09:35:59.000Z</time>
      </trkpt>
      <trkpt lat="44.55322" lon="4.22629">
        <ele>442</ele>
        <time>2016-05-15T09:36:00.000Z</time>
      </trkpt>
      <trkpt lat="44.55324" lon="4.22632">
        <ele>442</ele>
        <time>2016-05-15T09:36:01.000Z</time>
      </trkpt>
      <trkpt lat="44.55324" lon="4.22634">
        <ele>441</ele>
        <time>2016-05-15T09:36:02.000Z</time>
      </trkpt>
      <trkpt lat="44.55325" lon="4.22637">
        <ele>441</ele>
        <time>2016-05-15T09:36:03.000Z</time>
      </trkpt>
      <trkpt lat="44.55327" lon="4.2264">
        <ele>440</ele>
        <time>2016-05-15T09:36:04.000Z</time>
      </trkpt>
      <trkpt lat="44.55328" lon="4.22642">
        <ele>440</ele>
        <time>2016-05-15T09:36:05.000Z</time>
      </trkpt>
      <trkpt lat="44.55328" lon="4.22644">
        <ele>440</ele>
        <time>2016-05-15T09:36:06.000Z</time>
      </trkpt>
      <trkpt lat="44.5533" lon="4.22646">
        <ele>439</ele>
        <time>2016-05-15T09:36:07.000Z</time>
      </trkpt>
      <trkpt lat="44.55331" lon="4.22648">
        <ele>439</ele>
        <time>2016-05-15T09:36:08.000Z</time>
      </trkpt>
      <trkpt lat="44.55332" lon="4.2265">
        <ele>438</ele>
        <time>2016-05-15T09:36:09.000Z</time>
      </trkpt>
      <trkpt lat="44.55334" lon="4.22652">
        <ele>443</ele>
        <time>2016-05-15T09:36:10.000Z</time>
      </trkpt>
      <trkpt lat="44.55335" lon="4.22654">
        <ele>442</ele>
        <time>2016-05-15T09:36:11.000Z</time>
      </trkpt>
      <trkpt lat="44.55337" lon="4.22656">
        <ele>441</ele>
        <time>2016-05-15T09:36:12.000Z</time>
      </trkpt>
      <trkpt lat="44.55338" lon="4.22658">
        <ele>440</ele>
        <time>2016-05-15T09:36:13.000Z</time>
      </trkpt>
      <trkpt lat="44.55339" lon="4.22661">
        <ele>439</ele>
        <time>2016-05-15T09:36:14.000Z</time>
      </trkpt>
      <trkpt lat="44.55341" lon="4.22663">
        <ele>439</ele>
        <time>2016-05-15T09:36:15.000Z</time>
      </trkpt>
      <trkpt lat="44.55343" lon="4.22665">
        <ele>440</ele>
        <time>2016-05-15T09:36:16.000Z</time>
      </trkpt>
      <trkpt lat="44.55344" lon="4.22667">
        <ele>440</ele>
        <time>2016-05-15T09:36:17.000Z</time>
      </trkpt>
      <trkpt lat="44.55345" lon="4.22668">
        <ele>435</ele>
        <time>2016-05-15T09:36:18.000Z</time>
      </trkpt>
      <trkpt lat="44.55347" lon="4.2267">
        <ele>435</ele>
        <time>2016-05-15T09:36:19.000Z</time>
      </trkpt>
      <trkpt lat="44.55348" lon="4.22672">
        <ele>436</ele>
        <time>2016-05-15T09:36:20.000Z</time>
      </trkpt>
      <trkpt lat="44.5535" lon="4.22674">
        <ele>436</ele>
        <time>2016-05-15T09:36:21.000Z</time>
      </trkpt>
      <trkpt lat="44.55352" lon="4.22675">
        <ele>436</ele>
        <time>2016-05-15T09:36:22.000Z</time>
      </trkpt>
      <trkpt lat="44.55353" lon="4.22676">
        <ele>437</ele>
        <time>2016-05-15T09:36:23.000Z</time>
      </trkpt>
      <trkpt lat="44.55355" lon="4.22678">
        <ele>437</ele>
        <time>2016-05-15T09:36:24.000Z</time>
      </trkpt>
      <trkpt lat="44.55357" lon="4.22681">
        <ele>437</ele>
        <time>2016-05-15T09:36:25.000Z</time>
      </trkpt>
      <trkpt lat="44.5536" lon="4.22683">
        <ele>438</ele>
        <time>2016-05-15T09:36:26.000Z</time>
      </trkpt>
      <trkpt lat="44.55362" lon="4.22684">
        <ele>438</ele>
        <time>2016-05-15T09:36:27.000Z</time>
      </trkpt>
      <trkpt lat="44.55365" lon="4.22686">
        <ele>439</ele>
        <time>2016-05-15T09:36:28.000Z</time>
      </trkpt>
      <trkpt lat="44.55367" lon="4.22687">
        <ele>439</ele>
        <time>2016-05-15T09:36:29.000Z</time>
      </trkpt>
      <trkpt lat="44.55369" lon="4.22689">
        <ele>439</ele>
        <time>2016-05-15T09:36:30.000Z</time>
      </trkpt>
      <trkpt lat="44.55371" lon="4.2269">
        <ele>440</ele>
        <time>2016-05-15T09:36:31.000Z</time>
      </trkpt>
      <trkpt lat="44.55373" lon="4.22692">
        <ele>440</ele>
        <time>2016-05-15T09:36:32.000Z</time>
      </trkpt>
      <trkpt lat="44.55375" lon="4.22693">
        <ele>440</ele>
        <time>2016-05-15T09:36:33.000Z</time>
      </trkpt>
      <trkpt lat="44.55376" lon="4.22695">
        <ele>440</ele>
        <time>2016-05-15T09:36:34.000Z</time>
      </trkpt>
      <trkpt lat="44.55378" lon="4.22697">
        <ele>440</ele>
        <time>2016-05-15T09:36:35.000Z</time>
      </trkpt>
      <trkpt lat="44.55381" lon="4.22701">
        <ele>440</ele>
        <time>2016-05-15T09:36:36.000Z</time>
      </trkpt>
      <trkpt lat="44.55383" lon="4.22704">
        <ele>440</ele>
        <time>2016-05-15T09:36:37.000Z</time>
      </trkpt>
      <trkpt lat="44.55386" lon="4.22706">
        <ele>440</ele>
        <time>2016-05-15T09:36:38.000Z</time>
      </trkpt>
      <trkpt lat="44.55387" lon="4.22708">
        <ele>440</ele>
        <time>2016-05-15T09:36:39.000Z</time>
      </trkpt>
      <trkpt lat="44.55389" lon="4.2271">
        <ele>440</ele>
        <time>2016-05-15T09:36:40.000Z</time>
      </trkpt>
      <trkpt lat="44.55392" lon="4.22712">
        <ele>440</ele>
        <time>2016-05-15T09:36:41.000Z</time>
      </trkpt>
      <trkpt lat="44.55394" lon="4.22714">
        <ele>440</ele>
        <time>2016-05-15T09:36:42.000Z</time>
      </trkpt>
      <trkpt lat="44.55397" lon="4.22716">
        <ele>440</ele>
        <time>2016-05-15T09:36:43.000Z</time>
      </trkpt>
      <trkpt lat="44.554" lon="4.22718">
        <ele>440</ele>
        <time>2016-05-15T09:36:44.000Z</time>
      </trkpt>
      <trkpt lat="44.55403" lon="4.22719">
        <ele>440</ele>
        <time>2016-05-15T09:36:45.000Z</time>
      </trkpt>
      <trkpt lat="44.55406" lon="4.22721">
        <ele>440</ele>
        <time>2016-05-15T09:36:46.000Z</time>
      </trkpt>
      <trkpt lat="44.55408" lon="4.22722">
        <ele>440</ele>
        <time>2016-05-15T09:36:47.000Z</time>
      </trkpt>
      <trkpt lat="44.5541" lon="4.22723">
        <ele>440</ele>
        <time>2016-05-15T09:36:48.000Z</time>
      </trkpt>
      <trkpt lat="44.55412" lon="4.22724">
        <ele>440</ele>
        <time>2016-05-15T09:36:49.000Z</time>
      </trkpt>
      <trkpt lat="44.55414" lon="4.22725">
        <ele>440</ele>
        <time>2016-05-15T09:36:50.000Z</time>
      </trkpt>
      <trkpt lat="44.55416" lon="4.22726">
        <ele>440</ele>
        <time>2016-05-15T09:36:51.000Z</time>
      </trkpt>
      <trkpt lat="44.55419" lon="4.22727">
        <ele>455</ele>
        <time>2016-05-15T09:36:52.000Z</time>
      </trkpt>
      <trkpt lat="44.55423" lon="4.22729">
        <ele>454</ele>
        <time>2016-05-15T09:36:53.000Z</time>
      </trkpt>
      <trkpt lat="44.55426" lon="4.22733">
        <ele>454</ele>
        <time>2016-05-15T09:36:54.000Z</time>
      </trkpt>
      <trkpt lat="44.55429" lon="4.22737">
        <ele>453</ele>
        <time>2016-05-15T09:36:55.000Z</time>
      </trkpt>
      <trkpt lat="44.55431" lon="4.22741">
        <ele>452</ele>
        <time>2016-05-15T09:36:56.000Z</time>
      </trkpt>
      <trkpt lat="44.55431" lon="4.22746">
        <ele>451</ele>
        <time>2016-05-15T09:36:57.000Z</time>
      </trkpt>
      <trkpt lat="44.5543" lon="4.22751">
        <ele>444</ele>
        <time>2016-05-15T09:36:58.000Z</time>
      </trkpt>
      <trkpt lat="44.5543" lon="4.22756">
        <ele>444</ele>
        <time>2016-05-15T09:36:59.000Z</time>
      </trkpt>
      <trkpt lat="44.5543" lon="4.22761">
        <ele>445</ele>
        <time>2016-05-15T09:37:00.000Z</time>
      </trkpt>
      <trkpt lat="44.5543" lon="4.22766">
        <ele>445</ele>
        <time>2016-05-15T09:37:01.000Z</time>
      </trkpt>
      <trkpt lat="44.5543" lon="4.22771">
        <ele>446</ele>
        <time>2016-05-15T09:37:02.000Z</time>
      </trkpt>
      <trkpt lat="44.55431" lon="4.22775">
        <ele>446</ele>
        <time>2016-05-15T09:37:03.000Z</time>
      </trkpt>
      <trkpt lat="44.55431" lon="4.2278">
        <ele>446</ele>
        <time>2016-05-15T09:37:04.000Z</time>
      </trkpt>
      <trkpt lat="44.55432" lon="4.22785">
        <ele>446</ele>
        <time>2016-05-15T09:37:05.000Z</time>
      </trkpt>
      <trkpt lat="44.55434" lon="4.2279">
        <ele>446</ele>
        <time>2016-05-15T09:37:06.000Z</time>
      </trkpt>
      <trkpt lat="44.55436" lon="4.22795">
        <ele>446</ele>
        <time>2016-05-15T09:37:07.000Z</time>
      </trkpt>
      <trkpt lat="44.55438" lon="4.228">
        <ele>446</ele>
        <time>2016-05-15T09:37:08.000Z</time>
      </trkpt>
      <trkpt lat="44.5544" lon="4.22804">
        <ele>446</ele>
        <time>2016-05-15T09:37:09.000Z</time>
      </trkpt>
      <trkpt lat="44.55442" lon="4.2281">
        <ele>446</ele>
        <time>2016-05-15T09:37:10.000Z</time>
      </trkpt>
      <trkpt lat="44.55445" lon="4.22815">
        <ele>446</ele>
        <time>2016-05-15T09:37:11.000Z</time>
      </trkpt>
      <trkpt lat="44.55448" lon="4.22821">
        <ele>446</ele>
        <time>2016-05-15T09:37:12.000Z</time>
      </trkpt>
      <trkpt lat="44.5545" lon="4.22826">
        <ele>446</ele>
        <time>2016-05-15T09:37:13.000Z</time>
      </trkpt>
      <trkpt lat="44.55452" lon="4.22832">
        <ele>447</ele>
        <time>2016-05-15T09:37:14.000Z</time>
      </trkpt>
      <trkpt lat="44.55453" lon="4.22837">
        <ele>443</ele>
        <time>2016-05-15T09:37:15.000Z</time>
      </trkpt>
      <trkpt lat="44.55453" lon="4.22843">
        <ele>442</ele>
        <time>2016-05-15T09:37:16.000Z</time>
      </trkpt>
      <trkpt lat="44.55451" lon="4.22849">
        <ele>442</ele>
        <time>2016-05-15T09:37:17.000Z</time>
      </trkpt>
      <trkpt lat="44.55448" lon="4.22855">
        <ele>441</ele>
        <time>2016-05-15T09:37:18.000Z</time>
      </trkpt>
      <trkpt lat="44.55445" lon="4.22861">
        <ele>441</ele>
        <time>2016-05-15T09:37:19.000Z</time>
      </trkpt>
      <trkpt lat="44.55442" lon="4.22868">
        <ele>440</ele>
        <time>2016-05-15T09:37:20.000Z</time>
      </trkpt>
      <trkpt lat="44.5544" lon="4.22875">
        <ele>440</ele>
        <time>2016-05-15T09:37:21.000Z</time>
      </trkpt>
      <trkpt lat="44.55438" lon="4.22883">
        <ele>439</ele>
        <time>2016-05-15T09:37:22.000Z</time>
      </trkpt>
      <trkpt lat="44.55436" lon="4.22891">
        <ele>437</ele>
        <time>2016-05-15T09:37:23.000Z</time>
      </trkpt>
      <trkpt lat="44.55433" lon="4.22899">
        <ele>435</ele>
        <time>2016-05-15T09:37:24.000Z</time>
      </trkpt>
      <trkpt lat="44.55431" lon="4.22906">
        <ele>433</ele>
        <time>2016-05-15T09:37:25.000Z</time>
      </trkpt>
      <trkpt lat="44.55429" lon="4.22913">
        <ele>431</ele>
        <time>2016-05-15T09:37:26.000Z</time>
      </trkpt>
      <trkpt lat="44.55427" lon="4.2292">
        <ele>428</ele>
        <time>2016-05-15T09:37:27.000Z</time>
      </trkpt>
      <trkpt lat="44.55425" lon="4.22927">
        <ele>429</ele>
        <time>2016-05-15T09:37:28.000Z</time>
      </trkpt>
      <trkpt lat="44.55424" lon="4.22935">
        <ele>431</ele>
        <time>2016-05-15T09:37:29.000Z</time>
      </trkpt>
      <trkpt lat="44.55424" lon="4.22944">
        <ele>433</ele>
        <time>2016-05-15T09:37:30.000Z</time>
      </trkpt>
      <trkpt lat="44.55424" lon="4.22952">
        <ele>433</ele>
        <time>2016-05-15T09:37:31.000Z</time>
      </trkpt>
      <trkpt lat="44.55425" lon="4.22961">
        <ele>433</ele>
        <time>2016-05-15T09:37:32.000Z</time>
      </trkpt>
      <trkpt lat="44.55426" lon="4.2297">
        <ele>433</ele>
        <time>2016-05-15T09:37:33.000Z</time>
      </trkpt>
      <trkpt lat="44.55427" lon="4.22979">
        <ele>432</ele>
        <time>2016-05-15T09:37:34.000Z</time>
      </trkpt>
      <trkpt lat="44.55427" lon="4.22988">
        <ele>430</ele>
        <time>2016-05-15T09:37:35.000Z</time>
      </trkpt>
      <trkpt lat="44.55428" lon="4.22997">
        <ele>428</ele>
        <time>2016-05-15T09:37:36.000Z</time>
      </trkpt>
      <trkpt lat="44.55429" lon="4.23006">
        <ele>427</ele>
        <time>2016-05-15T09:37:37.000Z</time>
      </trkpt>
      <trkpt lat="44.5543" lon="4.23013">
        <ele>429</ele>
        <time>2016-05-15T09:37:38.000Z</time>
      </trkpt>
      <trkpt lat="44.55432" lon="4.23021">
        <ele>430</ele>
        <time>2016-05-15T09:37:39.000Z</time>
      </trkpt>
      <trkpt lat="44.55432" lon="4.23028">
        <ele>431</ele>
        <time>2016-05-15T09:37:40.000Z</time>
      </trkpt>
      <trkpt lat="44.55432" lon="4.23035">
        <ele>431</ele>
        <time>2016-05-15T09:37:41.000Z</time>
      </trkpt>
      <trkpt lat="44.55432" lon="4.23043">
        <ele>431</ele>
        <time>2016-05-15T09:37:42.000Z</time>
      </trkpt>
      <trkpt lat="44.55431" lon="4.23049">
        <ele>430</ele>
        <time>2016-05-15T09:37:43.000Z</time>
      </trkpt>
      <trkpt lat="44.5543" lon="4.23056">
        <ele>429</ele>
        <time>2016-05-15T09:37:44.000Z</time>
      </trkpt>
      <trkpt lat="44.5543" lon="4.23063">
        <ele>428</ele>
        <time>2016-05-15T09:37:45.000Z</time>
      </trkpt>
      <trkpt lat="44.5543" lon="4.2307">
        <ele>427</ele>
        <time>2016-05-15T09:37:46.000Z</time>
      </trkpt>
      <trkpt lat="44.5543" lon="4.23078">
        <ele>425</ele>
        <time>2016-05-15T09:37:47.000Z</time>
      </trkpt>
      <trkpt lat="44.55431" lon="4.23086">
        <ele>425</ele>
        <time>2016-05-15T09:37:48.000Z</time>
      </trkpt>
      <trkpt lat="44.55433" lon="4.23094">
        <ele>426</ele>
        <time>2016-05-15T09:37:49.000Z</time>
      </trkpt>
      <trkpt lat="44.55434" lon="4.23103">
        <ele>428</ele>
        <time>2016-05-15T09:37:50.000Z</time>
      </trkpt>
      <trkpt lat="44.55432" lon="4.23112">
        <ele>428</ele>
        <time>2016-05-15T09:37:51.000Z</time>
      </trkpt>
      <trkpt lat="44.5543" lon="4.23116">
        <ele>428</ele>
        <time>2016-05-15T09:37:52.000Z</time>
      </trkpt>
      <trkpt lat="44.55429" lon="4.23117">
        <ele>428</ele>
        <time>2016-05-15T09:37:53.000Z</time>
      </trkpt>
      <trkpt lat="44.55427" lon="4.23117">
        <ele>428</ele>
        <time>2016-05-15T09:37:54.000Z</time>
      </trkpt>
      <trkpt lat="44.55424" lon="4.23117">
        <ele>428</ele>
        <time>2016-05-15T09:37:55.000Z</time>
      </trkpt>
      <trkpt lat="44.5542" lon="4.23117">
        <ele>427</ele>
        <time>2016-05-15T09:37:56.000Z</time>
      </trkpt>
      <trkpt lat="44.55416" lon="4.23118">
        <ele>413</ele>
        <time>2016-05-15T09:37:57.000Z</time>
      </trkpt>
      <trkpt lat="44.55412" lon="4.2312">
        <ele>413</ele>
        <time>2016-05-15T09:37:58.000Z</time>
      </trkpt>
      <trkpt lat="44.55409" lon="4.23124">
        <ele>413</ele>
        <time>2016-05-15T09:37:59.000Z</time>
      </trkpt>
      <trkpt lat="44.55406" lon="4.23129">
        <ele>413</ele>
        <time>2016-05-15T09:38:00.000Z</time>
      </trkpt>
      <trkpt lat="44.55403" lon="4.23135">
        <ele>413</ele>
        <time>2016-05-15T09:38:01.000Z</time>
      </trkpt>
      <trkpt lat="44.55399" lon="4.23138">
        <ele>413</ele>
        <time>2016-05-15T09:38:02.000Z</time>
      </trkpt>
      <trkpt lat="44.55395" lon="4.23141">
        <ele>413</ele>
        <time>2016-05-15T09:38:03.000Z</time>
      </trkpt>
      <trkpt lat="44.55391" lon="4.23144">
        <ele>412</ele>
        <time>2016-05-15T09:38:04.000Z</time>
      </trkpt>
      <trkpt lat="44.55388" lon="4.23147">
        <ele>412</ele>
        <time>2016-05-15T09:38:05.000Z</time>
      </trkpt>
      <trkpt lat="44.55384" lon="4.23152">
        <ele>412</ele>
        <time>2016-05-15T09:38:06.000Z</time>
      </trkpt>
      <trkpt lat="44.55381" lon="4.23157">
        <ele>411</ele>
        <time>2016-05-15T09:38:07.000Z</time>
      </trkpt>
      <trkpt lat="44.55377" lon="4.23162">
        <ele>411</ele>
        <time>2016-05-15T09:38:08.000Z</time>
      </trkpt>
      <trkpt lat="44.55374" lon="4.23167">
        <ele>410</ele>
        <time>2016-05-15T09:38:09.000Z</time>
      </trkpt>
      <trkpt lat="44.55372" lon="4.23173">
        <ele>410</ele>
        <time>2016-05-15T09:38:10.000Z</time>
      </trkpt>
      <trkpt lat="44.5537" lon="4.23179">
        <ele>410</ele>
        <time>2016-05-15T09:38:11.000Z</time>
      </trkpt>
      <trkpt lat="44.55368" lon="4.23185">
        <ele>410</ele>
        <time>2016-05-15T09:38:12.000Z</time>
      </trkpt>
      <trkpt lat="44.55365" lon="4.23192">
        <ele>409</ele>
        <time>2016-05-15T09:38:13.000Z</time>
      </trkpt>
      <trkpt lat="44.55363" lon="4.23198">
        <ele>409</ele>
        <time>2016-05-15T09:38:14.000Z</time>
      </trkpt>
      <trkpt lat="44.55361" lon="4.23202">
        <ele>409</ele>
        <time>2016-05-15T09:38:15.000Z</time>
      </trkpt>
      <trkpt lat="44.5536" lon="4.23206">
        <ele>409</ele>
        <time>2016-05-15T09:38:16.000Z</time>
      </trkpt>
      <trkpt lat="44.5536" lon="4.2321">
        <ele>409</ele>
        <time>2016-05-15T09:38:17.000Z</time>
      </trkpt>
      <trkpt lat="44.5536" lon="4.23213">
        <ele>409</ele>
        <time>2016-05-15T09:38:18.000Z</time>
      </trkpt>
      <trkpt lat="44.55362" lon="4.23216">
        <ele>409</ele>
        <time>2016-05-15T09:38:19.000Z</time>
      </trkpt>
      <trkpt lat="44.55364" lon="4.2322">
        <ele>410</ele>
        <time>2016-05-15T09:38:20.000Z</time>
      </trkpt>
      <trkpt lat="44.55366" lon="4.23223">
        <ele>410</ele>
        <time>2016-05-15T09:38:21.000Z</time>
      </trkpt>
      <trkpt lat="44.55367" lon="4.23226">
        <ele>410</ele>
        <time>2016-05-15T09:38:22.000Z</time>
      </trkpt>
      <trkpt lat="44.55368" lon="4.2323">
        <ele>410</ele>
        <time>2016-05-15T09:38:23.000Z</time>
      </trkpt>
      <trkpt lat="44.55369" lon="4.23236">
        <ele>410</ele>
        <time>2016-05-15T09:38:24.000Z</time>
      </trkpt>
      <trkpt lat="44.55369" lon="4.23241">
        <ele>410</ele>
        <time>2016-05-15T09:38:25.000Z</time>
      </trkpt>
      <trkpt lat="44.55369" lon="4.23246">
        <ele>410</ele>
        <time>2016-05-15T09:38:26.000Z</time>
      </trkpt>
      <trkpt lat="44.55369" lon="4.23251">
        <ele>411</ele>
        <time>2016-05-15T09:38:27.000Z</time>
      </trkpt>
      <trkpt lat="44.55368" lon="4.23256">
        <ele>411</ele>
        <time>2016-05-15T09:38:28.000Z</time>
      </trkpt>
      <trkpt lat="44.55368" lon="4.23261">
        <ele>411</ele>
        <time>2016-05-15T09:38:29.000Z</time>
      </trkpt>
      <trkpt lat="44.55367" lon="4.23267">
        <ele>411</ele>
        <time>2016-05-15T09:38:30.000Z</time>
      </trkpt>
      <trkpt lat="44.55366" lon="4.23273">
        <ele>411</ele>
        <time>2016-05-15T09:38:31.000Z</time>
      </trkpt>
      <trkpt lat="44.55364" lon="4.2328">
        <ele>411</ele>
        <time>2016-05-15T09:38:32.000Z</time>
      </trkpt>
      <trkpt lat="44.55363" lon="4.23285">
        <ele>411</ele>
        <time>2016-05-15T09:38:33.000Z</time>
      </trkpt>
      <trkpt lat="44.55361" lon="4.23291">
        <ele>411</ele>
        <time>2016-05-15T09:38:34.000Z</time>
      </trkpt>
      <trkpt lat="44.55359" lon="4.23297">
        <ele>411</ele>
        <time>2016-05-15T09:38:35.000Z</time>
      </trkpt>
      <trkpt lat="44.55356" lon="4.23302">
        <ele>410</ele>
        <time>2016-05-15T09:38:36.000Z</time>
      </trkpt>
      <trkpt lat="44.55353" lon="4.23309">
        <ele>410</ele>
        <time>2016-05-15T09:38:37.000Z</time>
      </trkpt>
      <trkpt lat="44.55351" lon="4.23315">
        <ele>409</ele>
        <time>2016-05-15T09:38:38.000Z</time>
      </trkpt>
      <trkpt lat="44.55348" lon="4.23321">
        <ele>408</ele>
        <time>2016-05-15T09:38:39.000Z</time>
      </trkpt>
      <trkpt lat="44.55346" lon="4.23324">
        <ele>406</ele>
        <time>2016-05-15T09:38:40.000Z</time>
      </trkpt>
      <trkpt lat="44.55344" lon="4.23328">
        <ele>405</ele>
        <time>2016-05-15T09:38:41.000Z</time>
      </trkpt>
      <trkpt lat="44.55341" lon="4.23332">
        <ele>404</ele>
        <time>2016-05-15T09:38:42.000Z</time>
      </trkpt>
      <trkpt lat="44.5534" lon="4.23337">
        <ele>405</ele>
        <time>2016-05-15T09:38:43.000Z</time>
      </trkpt>
      <trkpt lat="44.55338" lon="4.23341">
        <ele>405</ele>
        <time>2016-05-15T09:38:44.000Z</time>
      </trkpt>
      <trkpt lat="44.55337" lon="4.23343">
        <ele>406</ele>
        <time>2016-05-15T09:38:45.000Z</time>
      </trkpt>
      <trkpt lat="44.55336" lon="4.23346">
        <ele>407</ele>
        <time>2016-05-15T09:38:46.000Z</time>
      </trkpt>
      <trkpt lat="44.55334" lon="4.23348">
        <ele>408</ele>
        <time>2016-05-15T09:38:47.000Z</time>
      </trkpt>
      <trkpt lat="44.55333" lon="4.23351">
        <ele>401</ele>
        <time>2016-05-15T09:38:48.000Z</time>
      </trkpt>
      <trkpt lat="44.55331" lon="4.23354">
        <ele>401</ele>
        <time>2016-05-15T09:38:49.000Z</time>
      </trkpt>
      <trkpt lat="44.5533" lon="4.23357">
        <ele>401</ele>
        <time>2016-05-15T09:38:50.000Z</time>
      </trkpt>
      <trkpt lat="44.55329" lon="4.23361">
        <ele>401</ele>
        <time>2016-05-15T09:38:51.000Z</time>
      </trkpt>
      <trkpt lat="44.55327" lon="4.23366">
        <ele>401</ele>
        <time>2016-05-15T09:38:52.000Z</time>
      </trkpt>
      <trkpt lat="44.55326" lon="4.2337">
        <ele>401</ele>
        <time>2016-05-15T09:38:53.000Z</time>
      </trkpt>
      <trkpt lat="44.55325" lon="4.23375">
        <ele>401</ele>
        <time>2016-05-15T09:38:54.000Z</time>
      </trkpt>
      <trkpt lat="44.55323" lon="4.2338">
        <ele>401</ele>
        <time>2016-05-15T09:38:55.000Z</time>
      </trkpt>
      <trkpt lat="44.55322" lon="4.23384">
        <ele>401</ele>
        <time>2016-05-15T09:38:56.000Z</time>
      </trkpt>
      <trkpt lat="44.5532" lon="4.23388">
        <ele>401</ele>
        <time>2016-05-15T09:38:57.000Z</time>
      </trkpt>
      <trkpt lat="44.55319" lon="4.23392">
        <ele>401</ele>
        <time>2016-05-15T09:38:58.000Z</time>
      </trkpt>
      <trkpt lat="44.55317" lon="4.23397">
        <ele>401</ele>
        <time>2016-05-15T09:38:59.000Z</time>
      </trkpt>
      <trkpt lat="44.55316" lon="4.23401">
        <ele>402</ele>
        <time>2016-05-15T09:39:00.000Z</time>
      </trkpt>
      <trkpt lat="44.55314" lon="4.23406">
        <ele>402</ele>
        <time>2016-05-15T09:39:01.000Z</time>
      </trkpt>
      <trkpt lat="44.55314" lon="4.2341">
        <ele>402</ele>
        <time>2016-05-15T09:39:02.000Z</time>
      </trkpt>
      <trkpt lat="44.55313" lon="4.23414">
        <ele>402</ele>
        <time>2016-05-15T09:39:03.000Z</time>
      </trkpt>
      <trkpt lat="44.55313" lon="4.23417">
        <ele>401</ele>
        <time>2016-05-15T09:39:04.000Z</time>
      </trkpt>
      <trkpt lat="44.55311" lon="4.23421">
        <ele>401</ele>
        <time>2016-05-15T09:39:05.000Z</time>
      </trkpt>
      <trkpt lat="44.5531" lon="4.23425">
        <ele>401</ele>
        <time>2016-05-15T09:39:06.000Z</time>
      </trkpt>
      <trkpt lat="44.5531" lon="4.23428">
        <ele>401</ele>
        <time>2016-05-15T09:39:07.000Z</time>
      </trkpt>
      <trkpt lat="44.55309" lon="4.23432">
        <ele>401</ele>
        <time>2016-05-15T09:39:08.000Z</time>
      </trkpt>
      <trkpt lat="44.55309" lon="4.23435">
        <ele>401</ele>
        <time>2016-05-15T09:39:09.000Z</time>
      </trkpt>
      <trkpt lat="44.55308" lon="4.2344">
        <ele>400</ele>
        <time>2016-05-15T09:39:10.000Z</time>
      </trkpt>
      <trkpt lat="44.55307" lon="4.23444">
        <ele>400</ele>
        <time>2016-05-15T09:39:11.000Z</time>
      </trkpt>
      <trkpt lat="44.55306" lon="4.23448">
        <ele>400</ele>
        <time>2016-05-15T09:39:12.000Z</time>
      </trkpt>
      <trkpt lat="44.55305" lon="4.23453">
        <ele>400</ele>
        <time>2016-05-15T09:39:13.000Z</time>
      </trkpt>
      <trkpt lat="44.55303" lon="4.23456">
        <ele>400</ele>
        <time>2016-05-15T09:39:14.000Z</time>
      </trkpt>
      <trkpt lat="44.55301" lon="4.23459">
        <ele>400</ele>
        <time>2016-05-15T09:39:15.000Z</time>
      </trkpt>
      <trkpt lat="44.55298" lon="4.23463">
        <ele>400</ele>
        <time>2016-05-15T09:39:16.000Z</time>
      </trkpt>
      <trkpt lat="44.55296" lon="4.23466">
        <ele>399</ele>
        <time>2016-05-15T09:39:17.000Z</time>
      </trkpt>
      <trkpt lat="44.55294" lon="4.2347">
        <ele>399</ele>
        <time>2016-05-15T09:39:18.000Z</time>
      </trkpt>
      <trkpt lat="44.55293" lon="4.23475">
        <ele>399</ele>
        <time>2016-05-15T09:39:19.000Z</time>
      </trkpt>
      <trkpt lat="44.55292" lon="4.23481">
        <ele>399</ele>
        <time>2016-05-15T09:39:20.000Z</time>
      </trkpt>
      <trkpt lat="44.55292" lon="4.23486">
        <ele>399</ele>
        <time>2016-05-15T09:39:21.000Z</time>
      </trkpt>
      <trkpt lat="44.55291" lon="4.23491">
        <ele>399</ele>
        <time>2016-05-15T09:39:22.000Z</time>
      </trkpt>
      <trkpt lat="44.5529" lon="4.23497">
        <ele>398</ele>
        <time>2016-05-15T09:39:23.000Z</time>
      </trkpt>
      <trkpt lat="44.55288" lon="4.23502">
        <ele>398</ele>
        <time>2016-05-15T09:39:24.000Z</time>
      </trkpt>
      <trkpt lat="44.55287" lon="4.23507">
        <ele>398</ele>
        <time>2016-05-15T09:39:25.000Z</time>
      </trkpt>
      <trkpt lat="44.55286" lon="4.23513">
        <ele>398</ele>
        <time>2016-05-15T09:39:26.000Z</time>
      </trkpt>
      <trkpt lat="44.55285" lon="4.23518">
        <ele>398</ele>
        <time>2016-05-15T09:39:27.000Z</time>
      </trkpt>
      <trkpt lat="44.55285" lon="4.23524">
        <ele>398</ele>
        <time>2016-05-15T09:39:28.000Z</time>
      </trkpt>
      <trkpt lat="44.55284" lon="4.2353">
        <ele>398</ele>
        <time>2016-05-15T09:39:29.000Z</time>
      </trkpt>
      <trkpt lat="44.55282" lon="4.23536">
        <ele>397</ele>
        <time>2016-05-15T09:39:30.000Z</time>
      </trkpt>
      <trkpt lat="44.55281" lon="4.23542">
        <ele>397</ele>
        <time>2016-05-15T09:39:31.000Z</time>
      </trkpt>
      <trkpt lat="44.5528" lon="4.23548">
        <ele>397</ele>
        <time>2016-05-15T09:39:32.000Z</time>
      </trkpt>
      <trkpt lat="44.55279" lon="4.23554">
        <ele>397</ele>
        <time>2016-05-15T09:39:33.000Z</time>
      </trkpt>
      <trkpt lat="44.55279" lon="4.2356">
        <ele>396</ele>
        <time>2016-05-15T09:39:34.000Z</time>
      </trkpt>
      <trkpt lat="44.55278" lon="4.23565">
        <ele>396</ele>
        <time>2016-05-15T09:39:35.000Z</time>
      </trkpt>
      <trkpt lat="44.55277" lon="4.23571">
        <ele>395</ele>
        <time>2016-05-15T09:39:36.000Z</time>
      </trkpt>
      <trkpt lat="44.55276" lon="4.23578">
        <ele>395</ele>
        <time>2016-05-15T09:39:37.000Z</time>
      </trkpt>
      <trkpt lat="44.55274" lon="4.23583">
        <ele>394</ele>
        <time>2016-05-15T09:39:38.000Z</time>
      </trkpt>
      <trkpt lat="44.55273" lon="4.23589">
        <ele>394</ele>
        <time>2016-05-15T09:39:39.000Z</time>
      </trkpt>
      <trkpt lat="44.55273" lon="4.23595">
        <ele>394</ele>
        <time>2016-05-15T09:39:40.000Z</time>
      </trkpt>
      <trkpt lat="44.55272" lon="4.236">
        <ele>395</ele>
        <time>2016-05-15T09:39:41.000Z</time>
      </trkpt>
      <trkpt lat="44.55271" lon="4.23604">
        <ele>395</ele>
        <time>2016-05-15T09:39:42.000Z</time>
      </trkpt>
      <trkpt lat="44.55271" lon="4.23608">
        <ele>395</ele>
        <time>2016-05-15T09:39:43.000Z</time>
      </trkpt>
      <trkpt lat="44.55272" lon="4.23612">
        <ele>395</ele>
        <time>2016-05-15T09:39:44.000Z</time>
      </trkpt>
      <trkpt lat="44.55272" lon="4.23615">
        <ele>396</ele>
        <time>2016-05-15T09:39:45.000Z</time>
      </trkpt>
      <trkpt lat="44.55272" lon="4.23619">
        <ele>396</ele>
        <time>2016-05-15T09:39:46.000Z</time>
      </trkpt>
      <trkpt lat="44.55272" lon="4.23622">
        <ele>396</ele>
        <time>2016-05-15T09:39:47.000Z</time>
      </trkpt>
      <trkpt lat="44.55272" lon="4.23626">
        <ele>396</ele>
        <time>2016-05-15T09:39:48.000Z</time>
      </trkpt>
      <trkpt lat="44.55271" lon="4.2363">
        <ele>396</ele>
        <time>2016-05-15T09:39:49.000Z</time>
      </trkpt>
      <trkpt lat="44.55271" lon="4.23634">
        <ele>395</ele>
        <time>2016-05-15T09:39:50.000Z</time>
      </trkpt>
      <trkpt lat="44.5527" lon="4.23639">
        <ele>395</ele>
        <time>2016-05-15T09:39:51.000Z</time>
      </trkpt>
      <trkpt lat="44.55269" lon="4.23645">
        <ele>394</ele>
        <time>2016-05-15T09:39:52.000Z</time>
      </trkpt>
      <trkpt lat="44.55269" lon="4.2365">
        <ele>393</ele>
        <time>2016-05-15T09:39:53.000Z</time>
      </trkpt>
      <trkpt lat="44.55268" lon="4.23656">
        <ele>392</ele>
        <time>2016-05-15T09:39:54.000Z</time>
      </trkpt>
      <trkpt lat="44.55268" lon="4.2366">
        <ele>391</ele>
        <time>2016-05-15T09:39:55.000Z</time>
      </trkpt>
      <trkpt lat="44.55267" lon="4.23665">
        <ele>390</ele>
        <time>2016-05-15T09:39:56.000Z</time>
      </trkpt>
      <trkpt lat="44.55265" lon="4.23669">
        <ele>390</ele>
        <time>2016-05-15T09:39:57.000Z</time>
      </trkpt>
      <trkpt lat="44.55263" lon="4.23673">
        <ele>389</ele>
        <time>2016-05-15T09:39:58.000Z</time>
      </trkpt>
      <trkpt lat="44.5526" lon="4.23676">
        <ele>389</ele>
        <time>2016-05-15T09:39:59.000Z</time>
      </trkpt>
      <trkpt lat="44.55258" lon="4.23681">
        <ele>390</ele>
        <time>2016-05-15T09:40:00.000Z</time>
      </trkpt>
      <trkpt lat="44.55256" lon="4.23686">
        <ele>391</ele>
        <time>2016-05-15T09:40:01.000Z</time>
      </trkpt>
      <trkpt lat="44.55255" lon="4.2369">
        <ele>392</ele>
        <time>2016-05-15T09:40:02.000Z</time>
      </trkpt>
      <trkpt lat="44.55254" lon="4.23693">
        <ele>392</ele>
        <time>2016-05-15T09:40:03.000Z</time>
      </trkpt>
      <trkpt lat="44.55254" lon="4.23696">
        <ele>393</ele>
        <time>2016-05-15T09:40:04.000Z</time>
      </trkpt>
      <trkpt lat="44.55253" lon="4.237">
        <ele>393</ele>
        <time>2016-05-15T09:40:05.000Z</time>
      </trkpt>
      <trkpt lat="44.55253" lon="4.23703">
        <ele>394</ele>
        <time>2016-05-15T09:40:06.000Z</time>
      </trkpt>
      <trkpt lat="44.55253" lon="4.23706">
        <ele>394</ele>
        <time>2016-05-15T09:40:07.000Z</time>
      </trkpt>
      <trkpt lat="44.55252" lon="4.23709">
        <ele>394</ele>
        <time>2016-05-15T09:40:08.000Z</time>
      </trkpt>
      <trkpt lat="44.55252" lon="4.23712">
        <ele>394</ele>
        <time>2016-05-15T09:40:09.000Z</time>
      </trkpt>
      <trkpt lat="44.55251" lon="4.23715">
        <ele>393</ele>
        <time>2016-05-15T09:40:10.000Z</time>
      </trkpt>
      <trkpt lat="44.55251" lon="4.23719">
        <ele>393</ele>
        <time>2016-05-15T09:40:11.000Z</time>
      </trkpt>
      <trkpt lat="44.55251" lon="4.23723">
        <ele>392</ele>
        <time>2016-05-15T09:40:12.000Z</time>
      </trkpt>
      <trkpt lat="44.55251" lon="4.23726">
        <ele>392</ele>
        <time>2016-05-15T09:40:13.000Z</time>
      </trkpt>
      <trkpt lat="44.5525" lon="4.2373">
        <ele>391</ele>
        <time>2016-05-15T09:40:14.000Z</time>
      </trkpt>
      <trkpt lat="44.5525" lon="4.23733">
        <ele>381</ele>
        <time>2016-05-15T09:40:15.000Z</time>
      </trkpt>
      <trkpt lat="44.55249" lon="4.23737">
        <ele>381</ele>
        <time>2016-05-15T09:40:16.000Z</time>
      </trkpt>
      <trkpt lat="44.55248" lon="4.2374">
        <ele>381</ele>
        <time>2016-05-15T09:40:17.000Z</time>
      </trkpt>
      <trkpt lat="44.55247" lon="4.23743">
        <ele>381</ele>
        <time>2016-05-15T09:40:18.000Z</time>
      </trkpt>
      <trkpt lat="44.55246" lon="4.23747">
        <ele>381</ele>
        <time>2016-05-15T09:40:19.000Z</time>
      </trkpt>
      <trkpt lat="44.55245" lon="4.23751">
        <ele>380</ele>
        <time>2016-05-15T09:40:20.000Z</time>
      </trkpt>
      <trkpt lat="44.55245" lon="4.23754">
        <ele>380</ele>
        <time>2016-05-15T09:40:21.000Z</time>
      </trkpt>
      <trkpt lat="44.55244" lon="4.23757">
        <ele>380</ele>
        <time>2016-05-15T09:40:22.000Z</time>
      </trkpt>
      <trkpt lat="44.55244" lon="4.23761">
        <ele>380</ele>
        <time>2016-05-15T09:40:23.000Z</time>
      </trkpt>
      <trkpt lat="44.55244" lon="4.23764">
        <ele>380</ele>
        <time>2016-05-15T09:40:24.000Z</time>
      </trkpt>
      <trkpt lat="44.55245" lon="4.23767">
        <ele>380</ele>
        <time>2016-05-15T09:40:25.000Z</time>
      </trkpt>
      <trkpt lat="44.55245" lon="4.23769">
        <ele>380</ele>
        <time>2016-05-15T09:40:26.000Z</time>
      </trkpt>
      <trkpt lat="44.55244" lon="4.2377">
        <ele>380</ele>
        <time>2016-05-15T09:40:27.000Z</time>
      </trkpt>
      <trkpt lat="44.55244" lon="4.2377">
        <ele>380</ele>
        <time>2016-05-15T09:40:28.000Z</time>
      </trkpt>
      <trkpt lat="44.55243" lon="4.23769">
        <ele>380</ele>
        <time>2016-05-15T09:40:29.000Z</time>
      </trkpt>
      <trkpt lat="44.55242" lon="4.23767">
        <ele>380</ele>
        <time>2016-05-15T09:40:30.000Z</time>
      </trkpt>
      <trkpt lat="44.55242" lon="4.23763">
        <ele>380</ele>
        <time>2016-05-15T09:40:31.000Z</time>
      </trkpt>
      <trkpt lat="44.55241" lon="4.23759">
        <ele>380</ele>
        <time>2016-05-15T09:40:32.000Z</time>
      </trkpt>
      <trkpt lat="44.5524" lon="4.23755">
        <ele>380</ele>
        <time>2016-05-15T09:40:33.000Z</time>
      </trkpt>
      <trkpt lat="44.55239" lon="4.23752">
        <ele>380</ele>
        <time>2016-05-15T09:40:34.000Z</time>
      </trkpt>
      <trkpt lat="44.55238" lon="4.23749">
        <ele>381</ele>
        <time>2016-05-15T09:40:35.000Z</time>
      </trkpt>
      <trkpt lat="44.55236" lon="4.23747">
        <ele>381</ele>
        <time>2016-05-15T09:40:36.000Z</time>
      </trkpt>
      <trkpt lat="44.55235" lon="4.23748">
        <ele>381</ele>
        <time>2016-05-15T09:40:37.000Z</time>
      </trkpt>
      <trkpt lat="44.55235" lon="4.23749">
        <ele>381</ele>
        <time>2016-05-15T09:40:38.000Z</time>
      </trkpt>
      <trkpt lat="44.55236" lon="4.23749">
        <ele>381</ele>
        <time>2016-05-15T09:40:39.000Z</time>
      </trkpt>
      <trkpt lat="44.55235" lon="4.23749">
        <ele>381</ele>
        <time>2016-05-15T09:40:40.000Z</time>
      </trkpt>
      <trkpt lat="44.55235" lon="4.2375">
        <ele>380</ele>
        <time>2016-05-15T09:40:41.000Z</time>
      </trkpt>
      <trkpt lat="44.55236" lon="4.23751">
        <ele>380</ele>
        <time>2016-05-15T09:40:42.000Z</time>
      </trkpt>
      <trkpt lat="44.55236" lon="4.23751">
        <ele>380</ele>
        <time>2016-05-15T09:40:43.000Z</time>
      </trkpt>
      <trkpt lat="44.55236" lon="4.23751">
        <ele>380</ele>
        <time>2016-05-15T09:40:44.000Z</time>
      </trkpt>
      <trkpt lat="44.55236" lon="4.23752">
        <ele>380</ele>
        <time>2016-05-15T09:40:45.000Z</time>
      </trkpt>
      <trkpt lat="44.55236" lon="4.23753">
        <ele>380</ele>
        <time>2016-05-15T09:40:46.000Z</time>
      </trkpt>
      <trkpt lat="44.55236" lon="4.23756">
        <ele>380</ele>
        <time>2016-05-15T09:40:47.000Z</time>
      </trkpt>
      <trkpt lat="44.55236" lon="4.23759">
        <ele>380</ele>
        <time>2016-05-15T09:40:48.000Z</time>
      </trkpt>
      <trkpt lat="44.55236" lon="4.23762">
        <ele>380</ele>
        <time>2016-05-15T09:40:49.000Z</time>
      </trkpt>
      <trkpt lat="44.55237" lon="4.23765">
        <ele>380</ele>
        <time>2016-05-15T09:40:50.000Z</time>
      </trkpt>
      <trkpt lat="44.55237" lon="4.23768">
        <ele>380</ele>
        <time>2016-05-15T09:40:51.000Z</time>
      </trkpt>
      <trkpt lat="44.55238" lon="4.23772">
        <ele>380</ele>
        <time>2016-05-15T09:40:52.000Z</time>
      </trkpt>
      <trkpt lat="44.55238" lon="4.23776">
        <ele>380</ele>
        <time>2016-05-15T09:40:53.000Z</time>
      </trkpt>
      <trkpt lat="44.55239" lon="4.2378">
        <ele>380</ele>
        <time>2016-05-15T09:40:54.000Z</time>
      </trkpt>
      <trkpt lat="44.55239" lon="4.23782">
        <ele>380</ele>
        <time>2016-05-15T09:40:55.000Z</time>
      </trkpt>
      <trkpt lat="44.5524" lon="4.23786">
        <ele>380</ele>
        <time>2016-05-15T09:40:56.000Z</time>
      </trkpt>
      <trkpt lat="44.55241" lon="4.23789">
        <ele>380</ele>
        <time>2016-05-15T09:40:57.000Z</time>
      </trkpt>
      <trkpt lat="44.55241" lon="4.23794">
        <ele>379</ele>
        <time>2016-05-15T09:40:58.000Z</time>
      </trkpt>
      <trkpt lat="44.55242" lon="4.23798">
        <ele>379</ele>
        <time>2016-05-15T09:40:59.000Z</time>
      </trkpt>
      <trkpt lat="44.55242" lon="4.23802">
        <ele>379</ele>
        <time>2016-05-15T09:41:00.000Z</time>
      </trkpt>
      <trkpt lat="44.55243" lon="4.23806">
        <ele>379</ele>
        <time>2016-05-15T09:41:01.000Z</time>
      </trkpt>
      <trkpt lat="44.55243" lon="4.23811">
        <ele>379</ele>
        <time>2016-05-15T09:41:02.000Z</time>
      </trkpt>
      <trkpt lat="44.55243" lon="4.23815">
        <ele>378</ele>
        <time>2016-05-15T09:41:03.000Z</time>
      </trkpt>
      <trkpt lat="44.55243" lon="4.2382">
        <ele>378</ele>
        <time>2016-05-15T09:41:04.000Z</time>
      </trkpt>
      <trkpt lat="44.55243" lon="4.23824">
        <ele>377</ele>
        <time>2016-05-15T09:41:05.000Z</time>
      </trkpt>
      <trkpt lat="44.55244" lon="4.23829">
        <ele>377</ele>
        <time>2016-05-15T09:41:06.000Z</time>
      </trkpt>
      <trkpt lat="44.55244" lon="4.23834">
        <ele>377</ele>
        <time>2016-05-15T09:41:07.000Z</time>
      </trkpt>
      <trkpt lat="44.55244" lon="4.23839">
        <ele>377</ele>
        <time>2016-05-15T09:41:08.000Z</time>
      </trkpt>
      <trkpt lat="44.55245" lon="4.23843">
        <ele>377</ele>
        <time>2016-05-15T09:41:09.000Z</time>
      </trkpt>
      <trkpt lat="44.55245" lon="4.23847">
        <ele>378</ele>
        <time>2016-05-15T09:41:10.000Z</time>
      </trkpt>
      <trkpt lat="44.55245" lon="4.23852">
        <ele>379</ele>
        <time>2016-05-15T09:41:11.000Z</time>
      </trkpt>
      <trkpt lat="44.55245" lon="4.23856">
        <ele>379</ele>
        <time>2016-05-15T09:41:12.000Z</time>
      </trkpt>
      <trkpt lat="44.55245" lon="4.23861">
        <ele>379</ele>
        <time>2016-05-15T09:41:13.000Z</time>
      </trkpt>
      <trkpt lat="44.55246" lon="4.23865">
        <ele>379</ele>
        <time>2016-05-15T09:41:14.000Z</time>
      </trkpt>
      <trkpt lat="44.55246" lon="4.23869">
        <ele>379</ele>
        <time>2016-05-15T09:41:15.000Z</time>
      </trkpt>
      <trkpt lat="44.55246" lon="4.23873">
        <ele>379</ele>
        <time>2016-05-15T09:41:16.000Z</time>
      </trkpt>
      <trkpt lat="44.55246" lon="4.23878">
        <ele>379</ele>
        <time>2016-05-15T09:41:17.000Z</time>
      </trkpt>
      <trkpt lat="44.55246" lon="4.23882">
        <ele>379</ele>
        <time>2016-05-15T09:41:18.000Z</time>
      </trkpt>
      <trkpt lat="44.55246" lon="4.23886">
        <ele>379</ele>
        <time>2016-05-15T09:41:19.000Z</time>
      </trkpt>
      <trkpt lat="44.55246" lon="4.23891">
        <ele>379</ele>
        <time>2016-05-15T09:41:20.000Z</time>
      </trkpt>
      <trkpt lat="44.55246" lon="4.23895">
        <ele>378</ele>
        <time>2016-05-15T09:41:21.000Z</time>
      </trkpt>
      <trkpt lat="44.55245" lon="4.239">
        <ele>378</ele>
        <time>2016-05-15T09:41:22.000Z</time>
      </trkpt>
      <trkpt lat="44.55244" lon="4.23904">
        <ele>377</ele>
        <time>2016-05-15T09:41:23.000Z</time>
      </trkpt>
      <trkpt lat="44.55244" lon="4.23909">
        <ele>376</ele>
        <time>2016-05-15T09:41:24.000Z</time>
      </trkpt>
      <trkpt lat="44.55244" lon="4.23913">
        <ele>375</ele>
        <time>2016-05-15T09:41:25.000Z</time>
      </trkpt>
      <trkpt lat="44.55244" lon="4.23918">
        <ele>375</ele>
        <time>2016-05-15T09:41:26.000Z</time>
      </trkpt>
      <trkpt lat="44.55244" lon="4.23923">
        <ele>376</ele>
        <time>2016-05-15T09:41:27.000Z</time>
      </trkpt>
      <trkpt lat="44.55244" lon="4.23928">
        <ele>377</ele>
        <time>2016-05-15T09:41:28.000Z</time>
      </trkpt>
      <trkpt lat="44.55244" lon="4.23932">
        <ele>378</ele>
        <time>2016-05-15T09:41:29.000Z</time>
      </trkpt>
      <trkpt lat="44.55245" lon="4.23937">
        <ele>379</ele>
        <time>2016-05-15T09:41:30.000Z</time>
      </trkpt>
      <trkpt lat="44.55246" lon="4.23942">
        <ele>379</ele>
        <time>2016-05-15T09:41:31.000Z</time>
      </trkpt>
      <trkpt lat="44.55247" lon="4.23946">
        <ele>380</ele>
        <time>2016-05-15T09:41:32.000Z</time>
      </trkpt>
      <trkpt lat="44.55248" lon="4.2395">
        <ele>380</ele>
        <time>2016-05-15T09:41:33.000Z</time>
      </trkpt>
      <trkpt lat="44.5525" lon="4.23954">
        <ele>380</ele>
        <time>2016-05-15T09:41:34.000Z</time>
      </trkpt>
      <trkpt lat="44.55251" lon="4.23958">
        <ele>381</ele>
        <time>2016-05-15T09:41:35.000Z</time>
      </trkpt>
      <trkpt lat="44.55253" lon="4.23962">
        <ele>381</ele>
        <time>2016-05-15T09:41:36.000Z</time>
      </trkpt>
      <trkpt lat="44.55255" lon="4.23967">
        <ele>381</ele>
        <time>2016-05-15T09:41:37.000Z</time>
      </trkpt>
      <trkpt lat="44.55258" lon="4.23971">
        <ele>380</ele>
        <time>2016-05-15T09:41:38.000Z</time>
      </trkpt>
      <trkpt lat="44.5526" lon="4.23974">
        <ele>380</ele>
        <time>2016-05-15T09:41:39.000Z</time>
      </trkpt>
      <trkpt lat="44.55261" lon="4.23978">
        <ele>380</ele>
        <time>2016-05-15T09:41:40.000Z</time>
      </trkpt>
      <trkpt lat="44.55263" lon="4.23981">
        <ele>380</ele>
        <time>2016-05-15T09:41:41.000Z</time>
      </trkpt>
      <trkpt lat="44.55265" lon="4.23983">
        <ele>380</ele>
        <time>2016-05-15T09:41:42.000Z</time>
      </trkpt>
      <trkpt lat="44.55267" lon="4.23986">
        <ele>380</ele>
        <time>2016-05-15T09:41:43.000Z</time>
      </trkpt>
      <trkpt lat="44.55269" lon="4.23989">
        <ele>380</ele>
        <time>2016-05-15T09:41:44.000Z</time>
      </trkpt>
      <trkpt lat="44.55271" lon="4.23992">
        <ele>380</ele>
        <time>2016-05-15T09:41:45.000Z</time>
      </trkpt>
      <trkpt lat="44.55274" lon="4.23995">
        <ele>381</ele>
        <time>2016-05-15T09:41:46.000Z</time>
      </trkpt>
      <trkpt lat="44.55277" lon="4.23998">
        <ele>381</ele>
        <time>2016-05-15T09:41:47.000Z</time>
      </trkpt>
      <trkpt lat="44.5528" lon="4.24001">
        <ele>377</ele>
        <time>2016-05-15T09:41:48.000Z</time>
      </trkpt>
      <trkpt lat="44.55282" lon="4.24005">
        <ele>378</ele>
        <time>2016-05-15T09:41:49.000Z</time>
      </trkpt>
      <trkpt lat="44.55285" lon="4.24009">
        <ele>378</ele>
        <time>2016-05-15T09:41:50.000Z</time>
      </trkpt>
      <trkpt lat="44.55287" lon="4.24013">
        <ele>378</ele>
        <time>2016-05-15T09:41:51.000Z</time>
      </trkpt>
      <trkpt lat="44.55289" lon="4.24017">
        <ele>378</ele>
        <time>2016-05-15T09:41:52.000Z</time>
      </trkpt>
      <trkpt lat="44.55292" lon="4.24022">
        <ele>379</ele>
        <time>2016-05-15T09:41:53.000Z</time>
      </trkpt>
      <trkpt lat="44.55295" lon="4.24026">
        <ele>379</ele>
        <time>2016-05-15T09:41:54.000Z</time>
      </trkpt>
      <trkpt lat="44.55297" lon="4.2403">
        <ele>379</ele>
        <time>2016-05-15T09:41:55.000Z</time>
      </trkpt>
      <trkpt lat="44.553" lon="4.24034">
        <ele>379</ele>
        <time>2016-05-15T09:41:56.000Z</time>
      </trkpt>
      <trkpt lat="44.55302" lon="4.24037">
        <ele>379</ele>
        <time>2016-05-15T09:41:57.000Z</time>
      </trkpt>
      <trkpt lat="44.55304" lon="4.24041">
        <ele>379</ele>
        <time>2016-05-15T09:41:58.000Z</time>
      </trkpt>
      <trkpt lat="44.55306" lon="4.24045">
        <ele>379</ele>
        <time>2016-05-15T09:41:59.000Z</time>
      </trkpt>
      <trkpt lat="44.55307" lon="4.24049">
        <ele>378</ele>
        <time>2016-05-15T09:42:00.000Z</time>
      </trkpt>
      <trkpt lat="44.55309" lon="4.24052">
        <ele>378</ele>
        <time>2016-05-15T09:42:01.000Z</time>
      </trkpt>
      <trkpt lat="44.55311" lon="4.24056">
        <ele>378</ele>
        <time>2016-05-15T09:42:02.000Z</time>
      </trkpt>
      <trkpt lat="44.55312" lon="4.24059">
        <ele>378</ele>
        <time>2016-05-15T09:42:03.000Z</time>
      </trkpt>
      <trkpt lat="44.55314" lon="4.24063">
        <ele>378</ele>
        <time>2016-05-15T09:42:04.000Z</time>
      </trkpt>
      <trkpt lat="44.55315" lon="4.24066">
        <ele>378</ele>
        <time>2016-05-15T09:42:05.000Z</time>
      </trkpt>
      <trkpt lat="44.55317" lon="4.24068">
        <ele>377</ele>
        <time>2016-05-15T09:42:06.000Z</time>
      </trkpt>
      <trkpt lat="44.55317" lon="4.24069">
        <ele>377</ele>
        <time>2016-05-15T09:42:07.000Z</time>
      </trkpt>
      <trkpt lat="44.55317" lon="4.2407">
        <ele>377</ele>
        <time>2016-05-15T09:42:08.000Z</time>
      </trkpt>
      <trkpt lat="44.55318" lon="4.2407">
        <ele>377</ele>
        <time>2016-05-15T09:42:09.000Z</time>
      </trkpt>
      <trkpt lat="44.55318" lon="4.24071">
        <ele>377</ele>
        <time>2016-05-15T09:42:10.000Z</time>
      </trkpt>
      <trkpt lat="44.55318" lon="4.24071">
        <ele>377</ele>
        <time>2016-05-15T09:42:11.000Z</time>
      </trkpt>
      <trkpt lat="44.55319" lon="4.24071">
        <ele>377</ele>
        <time>2016-05-15T09:42:12.000Z</time>
      </trkpt>
      <trkpt lat="44.55319" lon="4.24071">
        <ele>377</ele>
        <time>2016-05-15T09:42:13.000Z</time>
      </trkpt>
      <trkpt lat="44.55319" lon="4.24071">
        <ele>377</ele>
        <time>2016-05-15T09:42:14.000Z</time>
      </trkpt>
      <trkpt lat="44.5532" lon="4.24072">
        <ele>377</ele>
        <time>2016-05-15T09:42:15.000Z</time>
      </trkpt>
      <trkpt lat="44.5532" lon="4.24072">
        <ele>377</ele>
        <time>2016-05-15T09:42:16.000Z</time>
      </trkpt>
      <trkpt lat="44.5532" lon="4.24073">
        <ele>377</ele>
        <time>2016-05-15T09:42:17.000Z</time>
      </trkpt>
      <trkpt lat="44.5532" lon="4.24075">
        <ele>377</ele>
        <time>2016-05-15T09:42:18.000Z</time>
      </trkpt>
      <trkpt lat="44.55321" lon="4.24077">
        <ele>377</ele>
        <time>2016-05-15T09:42:19.000Z</time>
      </trkpt>
      <trkpt lat="44.55322" lon="4.24079">
        <ele>377</ele>
        <time>2016-05-15T09:42:20.000Z</time>
      </trkpt>
      <trkpt lat="44.55322" lon="4.24082">
        <ele>377</ele>
        <time>2016-05-15T09:42:21.000Z</time>
      </trkpt>
      <trkpt lat="44.55322" lon="4.24084">
        <ele>375</ele>
        <time>2016-05-15T09:42:22.000Z</time>
      </trkpt>
      <trkpt lat="44.55323" lon="4.24087">
        <ele>375</ele>
        <time>2016-05-15T09:42:23.000Z</time>
      </trkpt>
      <trkpt lat="44.55324" lon="4.24089">
        <ele>374</ele>
        <time>2016-05-15T09:42:24.000Z</time>
      </trkpt>
      <trkpt lat="44.55324" lon="4.24092">
        <ele>374</ele>
        <time>2016-05-15T09:42:25.000Z</time>
      </trkpt>
      <trkpt lat="44.55324" lon="4.24095">
        <ele>374</ele>
        <time>2016-05-15T09:42:26.000Z</time>
      </trkpt>
      <trkpt lat="44.55325" lon="4.24098">
        <ele>374</ele>
        <time>2016-05-15T09:42:27.000Z</time>
      </trkpt>
      <trkpt lat="44.55326" lon="4.24102">
        <ele>374</ele>
        <time>2016-05-15T09:42:28.000Z</time>
      </trkpt>
      <trkpt lat="44.55327" lon="4.24105">
        <ele>374</ele>
        <time>2016-05-15T09:42:29.000Z</time>
      </trkpt>
      <trkpt lat="44.55328" lon="4.24108">
        <ele>373</ele>
        <time>2016-05-15T09:42:30.000Z</time>
      </trkpt>
      <trkpt lat="44.55328" lon="4.24112">
        <ele>373</ele>
        <time>2016-05-15T09:42:31.000Z</time>
      </trkpt>
      <trkpt lat="44.55328" lon="4.24115">
        <ele>373</ele>
        <time>2016-05-15T09:42:32.000Z</time>
      </trkpt>
      <trkpt lat="44.55328" lon="4.24119">
        <ele>373</ele>
        <time>2016-05-15T09:42:33.000Z</time>
      </trkpt>
      <trkpt lat="44.55328" lon="4.24122">
        <ele>373</ele>
        <time>2016-05-15T09:42:34.000Z</time>
      </trkpt>
      <trkpt lat="44.55328" lon="4.24126">
        <ele>373</ele>
        <time>2016-05-15T09:42:35.000Z</time>
      </trkpt>
      <trkpt lat="44.55328" lon="4.24129">
        <ele>373</ele>
        <time>2016-05-15T09:42:36.000Z</time>
      </trkpt>
      <trkpt lat="44.55327" lon="4.24132">
        <ele>373</ele>
        <time>2016-05-15T09:42:37.000Z</time>
      </trkpt>
      <trkpt lat="44.55327" lon="4.24136">
        <ele>372</ele>
        <time>2016-05-15T09:42:38.000Z</time>
      </trkpt>
      <trkpt lat="44.55326" lon="4.2414">
        <ele>372</ele>
        <time>2016-05-15T09:42:39.000Z</time>
      </trkpt>
      <trkpt lat="44.55325" lon="4.24144">
        <ele>372</ele>
        <time>2016-05-15T09:42:40.000Z</time>
      </trkpt>
      <trkpt lat="44.55323" lon="4.24148">
        <ele>372</ele>
        <time>2016-05-15T09:42:41.000Z</time>
      </trkpt>
      <trkpt lat="44.55322" lon="4.24152">
        <ele>372</ele>
        <time>2016-05-15T09:42:42.000Z</time>
      </trkpt>
      <trkpt lat="44.5532" lon="4.24155">
        <ele>372</ele>
        <time>2016-05-15T09:42:43.000Z</time>
      </trkpt>
      <trkpt lat="44.55318" lon="4.24159">
        <ele>372</ele>
        <time>2016-05-15T09:42:44.000Z</time>
      </trkpt>
      <trkpt lat="44.55315" lon="4.24162">
        <ele>372</ele>
        <time>2016-05-15T09:42:45.000Z</time>
      </trkpt>
      <trkpt lat="44.55312" lon="4.24166">
        <ele>372</ele>
        <time>2016-05-15T09:42:46.000Z</time>
      </trkpt>
      <trkpt lat="44.55309" lon="4.2417">
        <ele>368</ele>
        <time>2016-05-15T09:42:47.000Z</time>
      </trkpt>
      <trkpt lat="44.55306" lon="4.24174">
        <ele>368</ele>
        <time>2016-05-15T09:42:48.000Z</time>
      </trkpt>
      <trkpt lat="44.55303" lon="4.24177">
        <ele>367</ele>
        <time>2016-05-15T09:42:49.000Z</time>
      </trkpt>
      <trkpt lat="44.553" lon="4.24182">
        <ele>367</ele>
        <time>2016-05-15T09:42:50.000Z</time>
      </trkpt>
      <trkpt lat="44.55297" lon="4.24185">
        <ele>366</ele>
        <time>2016-05-15T09:42:51.000Z</time>
      </trkpt>
      <trkpt lat="44.55294" lon="4.24189">
        <ele>366</ele>
        <time>2016-05-15T09:42:52.000Z</time>
      </trkpt>
      <trkpt lat="44.5529" lon="4.24192">
        <ele>366</ele>
        <time>2016-05-15T09:42:53.000Z</time>
      </trkpt>
      <trkpt lat="44.55286" lon="4.24196">
        <ele>365</ele>
        <time>2016-05-15T09:42:54.000Z</time>
      </trkpt>
      <trkpt lat="44.55283" lon="4.24199">
        <ele>365</ele>
        <time>2016-05-15T09:42:55.000Z</time>
      </trkpt>
      <trkpt lat="44.55279" lon="4.24202">
        <ele>365</ele>
        <time>2016-05-15T09:42:56.000Z</time>
      </trkpt>
      <trkpt lat="44.55275" lon="4.24207">
        <ele>364</ele>
        <time>2016-05-15T09:42:57.000Z</time>
      </trkpt>
      <trkpt lat="44.55272" lon="4.24212">
        <ele>364</ele>
        <time>2016-05-15T09:42:58.000Z</time>
      </trkpt>
      <trkpt lat="44.55269" lon="4.24216">
        <ele>363</ele>
        <time>2016-05-15T09:42:59.000Z</time>
      </trkpt>
      <trkpt lat="44.55266" lon="4.24219">
        <ele>363</ele>
        <time>2016-05-15T09:43:00.000Z</time>
      </trkpt>
      <trkpt lat="44.55265" lon="4.24223">
        <ele>362</ele>
        <time>2016-05-15T09:43:01.000Z</time>
      </trkpt>
      <trkpt lat="44.55264" lon="4.24227">
        <ele>362</ele>
        <time>2016-05-15T09:43:02.000Z</time>
      </trkpt>
      <trkpt lat="44.55262" lon="4.2423">
        <ele>361</ele>
        <time>2016-05-15T09:43:03.000Z</time>
      </trkpt>
      <trkpt lat="44.55262" lon="4.24234">
        <ele>361</ele>
        <time>2016-05-15T09:43:04.000Z</time>
      </trkpt>
      <trkpt lat="44.55261" lon="4.24237">
        <ele>360</ele>
        <time>2016-05-15T09:43:05.000Z</time>
      </trkpt>
      <trkpt lat="44.5526" lon="4.24241">
        <ele>359</ele>
        <time>2016-05-15T09:43:06.000Z</time>
      </trkpt>
      <trkpt lat="44.5526" lon="4.24244">
        <ele>359</ele>
        <time>2016-05-15T09:43:07.000Z</time>
      </trkpt>
      <trkpt lat="44.5526" lon="4.24247">
        <ele>358</ele>
        <time>2016-05-15T09:43:08.000Z</time>
      </trkpt>
      <trkpt lat="44.5526" lon="4.2425">
        <ele>358</ele>
        <time>2016-05-15T09:43:09.000Z</time>
      </trkpt>
      <trkpt lat="44.55259" lon="4.24254">
        <ele>357</ele>
        <time>2016-05-15T09:43:10.000Z</time>
      </trkpt>
      <trkpt lat="44.55259" lon="4.24257">
        <ele>357</ele>
        <time>2016-05-15T09:43:11.000Z</time>
      </trkpt>
      <trkpt lat="44.55258" lon="4.24262">
        <ele>357</ele>
        <time>2016-05-15T09:43:12.000Z</time>
      </trkpt>
      <trkpt lat="44.55258" lon="4.24266">
        <ele>357</ele>
        <time>2016-05-15T09:43:13.000Z</time>
      </trkpt>
      <trkpt lat="44.55259" lon="4.24271">
        <ele>358</ele>
        <time>2016-05-15T09:43:14.000Z</time>
      </trkpt>
      <trkpt lat="44.5526" lon="4.24275">
        <ele>358</ele>
        <time>2016-05-15T09:43:15.000Z</time>
      </trkpt>
      <trkpt lat="44.5526" lon="4.24277">
        <ele>358</ele>
        <time>2016-05-15T09:43:16.000Z</time>
      </trkpt>
      <trkpt lat="44.55262" lon="4.2428">
        <ele>358</ele>
        <time>2016-05-15T09:43:17.000Z</time>
      </trkpt>
      <trkpt lat="44.55264" lon="4.24284">
        <ele>358</ele>
        <time>2016-05-15T09:43:18.000Z</time>
      </trkpt>
      <trkpt lat="44.55267" lon="4.24288">
        <ele>358</ele>
        <time>2016-05-15T09:43:19.000Z</time>
      </trkpt>
      <trkpt lat="44.55271" lon="4.24289">
        <ele>359</ele>
        <time>2016-05-15T09:43:20.000Z</time>
      </trkpt>
      <trkpt lat="44.55274" lon="4.2429">
        <ele>359</ele>
        <time>2016-05-15T09:43:21.000Z</time>
      </trkpt>
      <trkpt lat="44.55277" lon="4.2429">
        <ele>359</ele>
        <time>2016-05-15T09:43:22.000Z</time>
      </trkpt>
      <trkpt lat="44.5528" lon="4.24291">
        <ele>359</ele>
        <time>2016-05-15T09:43:23.000Z</time>
      </trkpt>
      <trkpt lat="44.55282" lon="4.24293">
        <ele>359</ele>
        <time>2016-05-15T09:43:24.000Z</time>
      </trkpt>
      <trkpt lat="44.55285" lon="4.24294">
        <ele>359</ele>
        <time>2016-05-15T09:43:25.000Z</time>
      </trkpt>
      <trkpt lat="44.55288" lon="4.24295">
        <ele>359</ele>
        <time>2016-05-15T09:43:26.000Z</time>
      </trkpt>
      <trkpt lat="44.5529" lon="4.24296">
        <ele>360</ele>
        <time>2016-05-15T09:43:27.000Z</time>
      </trkpt>
      <trkpt lat="44.55293" lon="4.24296">
        <ele>360</ele>
        <time>2016-05-15T09:43:28.000Z</time>
      </trkpt>
      <trkpt lat="44.55295" lon="4.24296">
        <ele>360</ele>
        <time>2016-05-15T09:43:29.000Z</time>
      </trkpt>
      <trkpt lat="44.55296" lon="4.24297">
        <ele>360</ele>
        <time>2016-05-15T09:43:30.000Z</time>
      </trkpt>
      <trkpt lat="44.55298" lon="4.24297">
        <ele>360</ele>
        <time>2016-05-15T09:43:31.000Z</time>
      </trkpt>
      <trkpt lat="44.55299" lon="4.24298">
        <ele>360</ele>
        <time>2016-05-15T09:43:32.000Z</time>
      </trkpt>
      <trkpt lat="44.553" lon="4.24298">
        <ele>360</ele>
        <time>2016-05-15T09:43:33.000Z</time>
      </trkpt>
      <trkpt lat="44.55301" lon="4.24299">
        <ele>360</ele>
        <time>2016-05-15T09:43:34.000Z</time>
      </trkpt>
      <trkpt lat="44.55302" lon="4.24299">
        <ele>360</ele>
        <time>2016-05-15T09:43:35.000Z</time>
      </trkpt>
      <trkpt lat="44.55303" lon="4.243">
        <ele>360</ele>
        <time>2016-05-15T09:43:36.000Z</time>
      </trkpt>
      <trkpt lat="44.55304" lon="4.243">
        <ele>360</ele>
        <time>2016-05-15T09:43:37.000Z</time>
      </trkpt>
      <trkpt lat="44.55305" lon="4.24301">
        <ele>360</ele>
        <time>2016-05-15T09:43:38.000Z</time>
      </trkpt>
      <trkpt lat="44.55305" lon="4.24303">
        <ele>360</ele>
        <time>2016-05-15T09:43:39.000Z</time>
      </trkpt>
      <trkpt lat="44.55304" lon="4.24304">
        <ele>360</ele>
        <time>2016-05-15T09:43:40.000Z</time>
      </trkpt>
      <trkpt lat="44.55302" lon="4.24305">
        <ele>360</ele>
        <time>2016-05-15T09:43:41.000Z</time>
      </trkpt>
      <trkpt lat="44.55301" lon="4.24306">
        <ele>360</ele>
        <time>2016-05-15T09:43:42.000Z</time>
      </trkpt>
      <trkpt lat="44.55299" lon="4.24308">
        <ele>360</ele>
        <time>2016-05-15T09:43:43.000Z</time>
      </trkpt>
      <trkpt lat="44.55298" lon="4.2431">
        <ele>360</ele>
        <time>2016-05-15T09:43:44.000Z</time>
      </trkpt>
      <trkpt lat="44.55297" lon="4.24312">
        <ele>360</ele>
        <time>2016-05-15T09:43:45.000Z</time>
      </trkpt>
      <trkpt lat="44.55296" lon="4.24314">
        <ele>360</ele>
        <time>2016-05-15T09:43:46.000Z</time>
      </trkpt>
      <trkpt lat="44.55294" lon="4.24317">
        <ele>360</ele>
        <time>2016-05-15T09:43:47.000Z</time>
      </trkpt>
      <trkpt lat="44.55293" lon="4.24319">
        <ele>360</ele>
        <time>2016-05-15T09:43:48.000Z</time>
      </trkpt>
      <trkpt lat="44.55291" lon="4.2432">
        <ele>359</ele>
        <time>2016-05-15T09:43:49.000Z</time>
      </trkpt>
      <trkpt lat="44.55289" lon="4.24322">
        <ele>359</ele>
        <time>2016-05-15T09:43:50.000Z</time>
      </trkpt>
      <trkpt lat="44.55287" lon="4.24322">
        <ele>359</ele>
        <time>2016-05-15T09:43:51.000Z</time>
      </trkpt>
      <trkpt lat="44.55286" lon="4.24323">
        <ele>359</ele>
        <time>2016-05-15T09:43:52.000Z</time>
      </trkpt>
      <trkpt lat="44.55284" lon="4.24324">
        <ele>359</ele>
        <time>2016-05-15T09:43:53.000Z</time>
      </trkpt>
      <trkpt lat="44.55282" lon="4.24324">
        <ele>359</ele>
        <time>2016-05-15T09:43:54.000Z</time>
      </trkpt>
      <trkpt lat="44.55281" lon="4.24325">
        <ele>359</ele>
        <time>2016-05-15T09:43:55.000Z</time>
      </trkpt>
      <trkpt lat="44.55279" lon="4.24326">
        <ele>359</ele>
        <time>2016-05-15T09:43:56.000Z</time>
      </trkpt>
      <trkpt lat="44.55278" lon="4.24327">
        <ele>358</ele>
        <time>2016-05-15T09:43:57.000Z</time>
      </trkpt>
      <trkpt lat="44.55277" lon="4.24328">
        <ele>358</ele>
        <time>2016-05-15T09:43:58.000Z</time>
      </trkpt>
      <trkpt lat="44.55275" lon="4.24329">
        <ele>358</ele>
        <time>2016-05-15T09:43:59.000Z</time>
      </trkpt>
      <trkpt lat="44.55274" lon="4.2433">
        <ele>358</ele>
        <time>2016-05-15T09:44:00.000Z</time>
      </trkpt>
      <trkpt lat="44.55272" lon="4.24331">
        <ele>358</ele>
        <time>2016-05-15T09:44:01.000Z</time>
      </trkpt>
      <trkpt lat="44.55271" lon="4.24332">
        <ele>358</ele>
        <time>2016-05-15T09:44:02.000Z</time>
      </trkpt>
      <trkpt lat="44.5527" lon="4.24334">
        <ele>364</ele>
        <time>2016-05-15T09:44:03.000Z</time>
      </trkpt>
      <trkpt lat="44.55269" lon="4.24335">
        <ele>364</ele>
        <time>2016-05-15T09:44:04.000Z</time>
      </trkpt>
      <trkpt lat="44.55268" lon="4.24337">
        <ele>364</ele>
        <time>2016-05-15T09:44:05.000Z</time>
      </trkpt>
      <trkpt lat="44.55267" lon="4.24339">
        <ele>364</ele>
        <time>2016-05-15T09:44:06.000Z</time>
      </trkpt>
      <trkpt lat="44.55265" lon="4.2434">
        <ele>364</ele>
        <time>2016-05-15T09:44:07.000Z</time>
      </trkpt>
      <trkpt lat="44.55264" lon="4.24342">
        <ele>363</ele>
        <time>2016-05-15T09:44:08.000Z</time>
      </trkpt>
      <trkpt lat="44.55262" lon="4.24343">
        <ele>363</ele>
        <time>2016-05-15T09:44:09.000Z</time>
      </trkpt>
      <trkpt lat="44.55261" lon="4.24344">
        <ele>363</ele>
        <time>2016-05-15T09:44:10.000Z</time>
      </trkpt>
      <trkpt lat="44.55259" lon="4.24345">
        <ele>363</ele>
        <time>2016-05-15T09:44:11.000Z</time>
      </trkpt>
      <trkpt lat="44.55257" lon="4.24345">
        <ele>363</ele>
        <time>2016-05-15T09:44:12.000Z</time>
      </trkpt>
      <trkpt lat="44.55254" lon="4.24346">
        <ele>363</ele>
        <time>2016-05-15T09:44:13.000Z</time>
      </trkpt>
      <trkpt lat="44.55252" lon="4.24347">
        <ele>363</ele>
        <time>2016-05-15T09:44:14.000Z</time>
      </trkpt>
      <trkpt lat="44.55249" lon="4.24348">
        <ele>360</ele>
        <time>2016-05-15T09:44:15.000Z</time>
      </trkpt>
      <trkpt lat="44.55247" lon="4.2435">
        <ele>360</ele>
        <time>2016-05-15T09:44:16.000Z</time>
      </trkpt>
      <trkpt lat="44.55245" lon="4.24351">
        <ele>361</ele>
        <time>2016-05-15T09:44:17.000Z</time>
      </trkpt>
      <trkpt lat="44.55243" lon="4.24353">
        <ele>361</ele>
        <time>2016-05-15T09:44:18.000Z</time>
      </trkpt>
      <trkpt lat="44.55241" lon="4.24355">
        <ele>362</ele>
        <time>2016-05-15T09:44:19.000Z</time>
      </trkpt>
      <trkpt lat="44.55239" lon="4.24356">
        <ele>362</ele>
        <time>2016-05-15T09:44:20.000Z</time>
      </trkpt>
      <trkpt lat="44.55237" lon="4.24357">
        <ele>362</ele>
        <time>2016-05-15T09:44:21.000Z</time>
      </trkpt>
      <trkpt lat="44.55235" lon="4.24358">
        <ele>363</ele>
        <time>2016-05-15T09:44:22.000Z</time>
      </trkpt>
      <trkpt lat="44.55232" lon="4.2436">
        <ele>363</ele>
        <time>2016-05-15T09:44:23.000Z</time>
      </trkpt>
      <trkpt lat="44.5523" lon="4.24361">
        <ele>363</ele>
        <time>2016-05-15T09:44:24.000Z</time>
      </trkpt>
      <trkpt lat="44.55227" lon="4.24362">
        <ele>363</ele>
        <time>2016-05-15T09:44:25.000Z</time>
      </trkpt>
      <trkpt lat="44.55224" lon="4.24363">
        <ele>364</ele>
        <time>2016-05-15T09:44:26.000Z</time>
      </trkpt>
      <trkpt lat="44.55221" lon="4.24365">
        <ele>364</ele>
        <time>2016-05-15T09:44:27.000Z</time>
      </trkpt>
      <trkpt lat="44.55218" lon="4.24366">
        <ele>364</ele>
        <time>2016-05-15T09:44:28.000Z</time>
      </trkpt>
      <trkpt lat="44.55216" lon="4.24368">
        <ele>364</ele>
        <time>2016-05-15T09:44:29.000Z</time>
      </trkpt>
      <trkpt lat="44.55214" lon="4.2437">
        <ele>364</ele>
        <time>2016-05-15T09:44:30.000Z</time>
      </trkpt>
      <trkpt lat="44.55212" lon="4.24372">
        <ele>364</ele>
        <time>2016-05-15T09:44:31.000Z</time>
      </trkpt>
      <trkpt lat="44.55209" lon="4.24374">
        <ele>364</ele>
        <time>2016-05-15T09:44:32.000Z</time>
      </trkpt>
      <trkpt lat="44.55208" lon="4.24376">
        <ele>364</ele>
        <time>2016-05-15T09:44:33.000Z</time>
      </trkpt>
      <trkpt lat="44.55207" lon="4.24378">
        <ele>364</ele>
        <time>2016-05-15T09:44:34.000Z</time>
      </trkpt>
      <trkpt lat="44.55205" lon="4.24381">
        <ele>364</ele>
        <time>2016-05-15T09:44:35.000Z</time>
      </trkpt>
      <trkpt lat="44.55204" lon="4.24383">
        <ele>364</ele>
        <time>2016-05-15T09:44:36.000Z</time>
      </trkpt>
      <trkpt lat="44.55202" lon="4.24386">
        <ele>364</ele>
        <time>2016-05-15T09:44:37.000Z</time>
      </trkpt>
      <trkpt lat="44.55201" lon="4.24388">
        <ele>364</ele>
        <time>2016-05-15T09:44:38.000Z</time>
      </trkpt>
      <trkpt lat="44.552" lon="4.2439">
        <ele>364</ele>
        <time>2016-05-15T09:44:39.000Z</time>
      </trkpt>
      <trkpt lat="44.55199" lon="4.24392">
        <ele>364</ele>
        <time>2016-05-15T09:44:40.000Z</time>
      </trkpt>
      <trkpt lat="44.55198" lon="4.24394">
        <ele>364</ele>
        <time>2016-05-15T09:44:41.000Z</time>
      </trkpt>
      <trkpt lat="44.55197" lon="4.24396">
        <ele>364</ele>
        <time>2016-05-15T09:44:42.000Z</time>
      </trkpt>
      <trkpt lat="44.55196" lon="4.24398">
        <ele>364</ele>
        <time>2016-05-15T09:44:43.000Z</time>
      </trkpt>
      <trkpt lat="44.55195" lon="4.244">
        <ele>364</ele>
        <time>2016-05-15T09:44:44.000Z</time>
      </trkpt>
      <trkpt lat="44.55194" lon="4.24402">
        <ele>364</ele>
        <time>2016-05-15T09:44:45.000Z</time>
      </trkpt>
      <trkpt lat="44.55193" lon="4.24403">
        <ele>364</ele>
        <time>2016-05-15T09:44:46.000Z</time>
      </trkpt>
      <trkpt lat="44.55192" lon="4.24405">
        <ele>363</ele>
        <time>2016-05-15T09:44:47.000Z</time>
      </trkpt>
      <trkpt lat="44.5519" lon="4.24407">
        <ele>363</ele>
        <time>2016-05-15T09:44:48.000Z</time>
      </trkpt>
      <trkpt lat="44.55189" lon="4.24408">
        <ele>363</ele>
        <time>2016-05-15T09:44:49.000Z</time>
      </trkpt>
      <trkpt lat="44.55188" lon="4.2441">
        <ele>363</ele>
        <time>2016-05-15T09:44:50.000Z</time>
      </trkpt>
      <trkpt lat="44.55187" lon="4.24411">
        <ele>363</ele>
        <time>2016-05-15T09:44:51.000Z</time>
      </trkpt>
      <trkpt lat="44.55186" lon="4.24412">
        <ele>362</ele>
        <time>2016-05-15T09:44:52.000Z</time>
      </trkpt>
      <trkpt lat="44.55185" lon="4.24413">
        <ele>362</ele>
        <time>2016-05-15T09:44:53.000Z</time>
      </trkpt>
      <trkpt lat="44.55184" lon="4.24414">
        <ele>362</ele>
        <time>2016-05-15T09:44:54.000Z</time>
      </trkpt>
      <trkpt lat="44.55183" lon="4.24415">
        <ele>362</ele>
        <time>2016-05-15T09:44:55.000Z</time>
      </trkpt>
      <trkpt lat="44.55183" lon="4.24417">
        <ele>362</ele>
        <time>2016-05-15T09:44:56.000Z</time>
      </trkpt>
      <trkpt lat="44.55181" lon="4.24418">
        <ele>366</ele>
        <time>2016-05-15T09:44:57.000Z</time>
      </trkpt>
      <trkpt lat="44.5518" lon="4.24419">
        <ele>365</ele>
        <time>2016-05-15T09:44:58.000Z</time>
      </trkpt>
      <trkpt lat="44.55179" lon="4.2442">
        <ele>365</ele>
        <time>2016-05-15T09:44:59.000Z</time>
      </trkpt>
      <trkpt lat="44.55178" lon="4.24421">
        <ele>365</ele>
        <time>2016-05-15T09:45:00.000Z</time>
      </trkpt>
      <trkpt lat="44.55177" lon="4.24423">
        <ele>364</ele>
        <time>2016-05-15T09:45:01.000Z</time>
      </trkpt>
      <trkpt lat="44.55176" lon="4.24424">
        <ele>364</ele>
        <time>2016-05-15T09:45:02.000Z</time>
      </trkpt>
      <trkpt lat="44.55175" lon="4.24425">
        <ele>364</ele>
        <time>2016-05-15T09:45:03.000Z</time>
      </trkpt>
      <trkpt lat="44.55173" lon="4.24426">
        <ele>364</ele>
        <time>2016-05-15T09:45:04.000Z</time>
      </trkpt>
      <trkpt lat="44.55172" lon="4.24428">
        <ele>365</ele>
        <time>2016-05-15T09:45:05.000Z</time>
      </trkpt>
      <trkpt lat="44.55171" lon="4.24429">
        <ele>365</ele>
        <time>2016-05-15T09:45:06.000Z</time>
      </trkpt>
      <trkpt lat="44.55171" lon="4.2443">
        <ele>365</ele>
        <time>2016-05-15T09:45:07.000Z</time>
      </trkpt>
      <trkpt lat="44.55171" lon="4.24431">
        <ele>365</ele>
        <time>2016-05-15T09:45:08.000Z</time>
      </trkpt>
      <trkpt lat="44.55171" lon="4.24431">
        <ele>365</ele>
        <time>2016-05-15T09:45:09.000Z</time>
      </trkpt>
      <trkpt lat="44.55171" lon="4.24431">
        <ele>365</ele>
        <time>2016-05-15T09:45:10.000Z</time>
      </trkpt>
      <trkpt lat="44.5517" lon="4.24431">
        <ele>365</ele>
        <time>2016-05-15T09:45:11.000Z</time>
      </trkpt>
      <trkpt lat="44.5517" lon="4.24433">
        <ele>366</ele>
        <time>2016-05-15T09:45:12.000Z</time>
      </trkpt>
      <trkpt lat="44.55171" lon="4.24434">
        <ele>366</ele>
        <time>2016-05-15T09:45:13.000Z</time>
      </trkpt>
      <trkpt lat="44.55172" lon="4.24435">
        <ele>367</ele>
        <time>2016-05-15T09:45:14.000Z</time>
      </trkpt>
      <trkpt lat="44.55172" lon="4.24435">
        <ele>367</ele>
        <time>2016-05-15T09:45:15.000Z</time>
      </trkpt>
      <trkpt lat="44.55173" lon="4.24435">
        <ele>367</ele>
        <time>2016-05-15T09:45:16.000Z</time>
      </trkpt>
      <trkpt lat="44.55173" lon="4.24435">
        <ele>367</ele>
        <time>2016-05-15T09:45:17.000Z</time>
      </trkpt>
      <trkpt lat="44.55174" lon="4.24435">
        <ele>367</ele>
        <time>2016-05-15T09:45:18.000Z</time>
      </trkpt>
      <trkpt lat="44.55175" lon="4.24435">
        <ele>367</ele>
        <time>2016-05-15T09:45:19.000Z</time>
      </trkpt>
      <trkpt lat="44.55175" lon="4.24434">
        <ele>367</ele>
        <time>2016-05-15T09:45:20.000Z</time>
      </trkpt>
      <trkpt lat="44.55175" lon="4.24434">
        <ele>367</ele>
        <time>2016-05-15T09:45:21.000Z</time>
      </trkpt>
      <trkpt lat="44.55176" lon="4.24434">
        <ele>367</ele>
        <time>2016-05-15T09:45:22.000Z</time>
      </trkpt>
      <trkpt lat="44.55176" lon="4.24434">
        <ele>367</ele>
        <time>2016-05-15T09:45:23.000Z</time>
      </trkpt>
      <trkpt lat="44.55177" lon="4.24433">
        <ele>367</ele>
        <time>2016-05-15T09:45:24.000Z</time>
      </trkpt>
      <trkpt lat="44.55178" lon="4.24433">
        <ele>367</ele>
        <time>2016-05-15T09:45:25.000Z</time>
      </trkpt>
      <trkpt lat="44.55179" lon="4.24432">
        <ele>367</ele>
        <time>2016-05-15T09:45:26.000Z</time>
      </trkpt>
      <trkpt lat="44.55179" lon="4.24431">
        <ele>367</ele>
        <time>2016-05-15T09:45:27.000Z</time>
      </trkpt>
      <trkpt lat="44.5518" lon="4.24431">
        <ele>367</ele>
        <time>2016-05-15T09:45:28.000Z</time>
      </trkpt>
      <trkpt lat="44.55181" lon="4.2443">
        <ele>367</ele>
        <time>2016-05-15T09:45:29.000Z</time>
      </trkpt>
      <trkpt lat="44.55182" lon="4.24429">
        <ele>367</ele>
        <time>2016-05-15T09:45:30.000Z</time>
      </trkpt>
      <trkpt lat="44.55183" lon="4.24428">
        <ele>367</ele>
        <time>2016-05-15T09:45:31.000Z</time>
      </trkpt>
      <trkpt lat="44.55183" lon="4.24427">
        <ele>367</ele>
        <time>2016-05-15T09:45:32.000Z</time>
      </trkpt>
      <trkpt lat="44.55184" lon="4.24427">
        <ele>367</ele>
        <time>2016-05-15T09:45:33.000Z</time>
      </trkpt>
      <trkpt lat="44.55184" lon="4.24426">
        <ele>367</ele>
        <time>2016-05-15T09:45:34.000Z</time>
      </trkpt>
      <trkpt lat="44.55184" lon="4.24426">
        <ele>367</ele>
        <time>2016-05-15T09:45:35.000Z</time>
      </trkpt>
      <trkpt lat="44.55184" lon="4.24426">
        <ele>367</ele>
        <time>2016-05-15T09:45:36.000Z</time>
      </trkpt>
      <trkpt lat="44.55184" lon="4.24426">
        <ele>367</ele>
        <time>2016-05-15T09:45:37.000Z</time>
      </trkpt>
      <trkpt lat="44.55184" lon="4.24425">
        <ele>367</ele>
        <time>2016-05-15T09:45:38.000Z</time>
      </trkpt>
      <trkpt lat="44.55185" lon="4.24425">
        <ele>368</ele>
        <time>2016-05-15T09:45:39.000Z</time>
      </trkpt>
      <trkpt lat="44.55186" lon="4.24424">
        <ele>368</ele>
        <time>2016-05-15T09:45:40.000Z</time>
      </trkpt>
      <trkpt lat="44.55187" lon="4.24423">
        <ele>368</ele>
        <time>2016-05-15T09:45:41.000Z</time>
      </trkpt>
      <trkpt lat="44.55189" lon="4.24422">
        <ele>368</ele>
        <time>2016-05-15T09:45:42.000Z</time>
      </trkpt>
      <trkpt lat="44.5519" lon="4.24421">
        <ele>369</ele>
        <time>2016-05-15T09:45:43.000Z</time>
      </trkpt>
      <trkpt lat="44.55192" lon="4.24421">
        <ele>369</ele>
        <time>2016-05-15T09:45:44.000Z</time>
      </trkpt>
      <trkpt lat="44.55193" lon="4.24419">
        <ele>369</ele>
        <time>2016-05-15T09:45:45.000Z</time>
      </trkpt>
      <trkpt lat="44.55195" lon="4.24418">
        <ele>370</ele>
        <time>2016-05-15T09:45:46.000Z</time>
      </trkpt>
      <trkpt lat="44.55196" lon="4.24416">
        <ele>364</ele>
        <time>2016-05-15T09:45:47.000Z</time>
      </trkpt>
      <trkpt lat="44.55198" lon="4.24415">
        <ele>364</ele>
        <time>2016-05-15T09:45:48.000Z</time>
      </trkpt>
      <trkpt lat="44.55199" lon="4.24413">
        <ele>364</ele>
        <time>2016-05-15T09:45:49.000Z</time>
      </trkpt>
      <trkpt lat="44.552" lon="4.24411">
        <ele>365</ele>
        <time>2016-05-15T09:45:50.000Z</time>
      </trkpt>
      <trkpt lat="44.55202" lon="4.24409">
        <ele>365</ele>
        <time>2016-05-15T09:45:51.000Z</time>
      </trkpt>
      <trkpt lat="44.55204" lon="4.24408">
        <ele>365</ele>
        <time>2016-05-15T09:45:52.000Z</time>
      </trkpt>
      <trkpt lat="44.55205" lon="4.24406">
        <ele>365</ele>
        <time>2016-05-15T09:45:53.000Z</time>
      </trkpt>
      <trkpt lat="44.55207" lon="4.24404">
        <ele>365</ele>
        <time>2016-05-15T09:45:54.000Z</time>
      </trkpt>
      <trkpt lat="44.55208" lon="4.24403">
        <ele>366</ele>
        <time>2016-05-15T09:45:55.000Z</time>
      </trkpt>
      <trkpt lat="44.5521" lon="4.24401">
        <ele>366</ele>
        <time>2016-05-15T09:45:56.000Z</time>
      </trkpt>
      <trkpt lat="44.55211" lon="4.244">
        <ele>366</ele>
        <time>2016-05-15T09:45:57.000Z</time>
      </trkpt>
      <trkpt lat="44.55213" lon="4.24399">
        <ele>366</ele>
        <time>2016-05-15T09:45:58.000Z</time>
      </trkpt>
      <trkpt lat="44.55214" lon="4.24398">
        <ele>366</ele>
        <time>2016-05-15T09:45:59.000Z</time>
      </trkpt>
      <trkpt lat="44.55216" lon="4.24396">
        <ele>366</ele>
        <time>2016-05-15T09:46:00.000Z</time>
      </trkpt>
      <trkpt lat="44.55217" lon="4.24395">
        <ele>366</ele>
        <time>2016-05-15T09:46:01.000Z</time>
      </trkpt>
      <trkpt lat="44.55219" lon="4.24394">
        <ele>366</ele>
        <time>2016-05-15T09:46:02.000Z</time>
      </trkpt>
      <trkpt lat="44.5522" lon="4.24392">
        <ele>366</ele>
        <time>2016-05-15T09:46:03.000Z</time>
      </trkpt>
      <trkpt lat="44.55222" lon="4.24391">
        <ele>367</ele>
        <time>2016-05-15T09:46:04.000Z</time>
      </trkpt>
      <trkpt lat="44.55223" lon="4.2439">
        <ele>367</ele>
        <time>2016-05-15T09:46:05.000Z</time>
      </trkpt>
      <trkpt lat="44.55225" lon="4.24388">
        <ele>367</ele>
        <time>2016-05-15T09:46:06.000Z</time>
      </trkpt>
      <trkpt lat="44.55226" lon="4.24387">
        <ele>366</ele>
        <time>2016-05-15T09:46:07.000Z</time>
      </trkpt>
      <trkpt lat="44.55228" lon="4.24385">
        <ele>366</ele>
        <time>2016-05-15T09:46:08.000Z</time>
      </trkpt>
      <trkpt lat="44.5523" lon="4.24384">
        <ele>366</ele>
        <time>2016-05-15T09:46:09.000Z</time>
      </trkpt>
      <trkpt lat="44.55231" lon="4.24382">
        <ele>366</ele>
        <time>2016-05-15T09:46:10.000Z</time>
      </trkpt>
      <trkpt lat="44.55233" lon="4.2438">
        <ele>366</ele>
        <time>2016-05-15T09:46:11.000Z</time>
      </trkpt>
      <trkpt lat="44.55234" lon="4.24378">
        <ele>366</ele>
        <time>2016-05-15T09:46:12.000Z</time>
      </trkpt>
      <trkpt lat="44.55236" lon="4.24377">
        <ele>365</ele>
        <time>2016-05-15T09:46:13.000Z</time>
      </trkpt>
      <trkpt lat="44.55237" lon="4.24374">
        <ele>365</ele>
        <time>2016-05-15T09:46:14.000Z</time>
      </trkpt>
      <trkpt lat="44.55238" lon="4.24373">
        <ele>365</ele>
        <time>2016-05-15T09:46:15.000Z</time>
      </trkpt>
      <trkpt lat="44.5524" lon="4.24371">
        <ele>365</ele>
        <time>2016-05-15T09:46:16.000Z</time>
      </trkpt>
      <trkpt lat="44.55242" lon="4.2437">
        <ele>364</ele>
        <time>2016-05-15T09:46:17.000Z</time>
      </trkpt>
      <trkpt lat="44.55244" lon="4.24369">
        <ele>364</ele>
        <time>2016-05-15T09:46:18.000Z</time>
      </trkpt>
      <trkpt lat="44.55246" lon="4.24368">
        <ele>364</ele>
        <time>2016-05-15T09:46:19.000Z</time>
      </trkpt>
      <trkpt lat="44.55248" lon="4.24368">
        <ele>364</ele>
        <time>2016-05-15T09:46:20.000Z</time>
      </trkpt>
      <trkpt lat="44.5525" lon="4.24367">
        <ele>364</ele>
        <time>2016-05-15T09:46:21.000Z</time>
      </trkpt>
      <trkpt lat="44.55252" lon="4.24367">
        <ele>369</ele>
        <time>2016-05-15T09:46:22.000Z</time>
      </trkpt>
      <trkpt lat="44.55254" lon="4.24367">
        <ele>369</ele>
        <time>2016-05-15T09:46:23.000Z</time>
      </trkpt>
      <trkpt lat="44.55256" lon="4.24367">
        <ele>369</ele>
        <time>2016-05-15T09:46:24.000Z</time>
      </trkpt>
      <trkpt lat="44.55257" lon="4.24366">
        <ele>369</ele>
        <time>2016-05-15T09:46:25.000Z</time>
      </trkpt>
      <trkpt lat="44.55259" lon="4.24365">
        <ele>369</ele>
        <time>2016-05-15T09:46:26.000Z</time>
      </trkpt>
      <trkpt lat="44.55261" lon="4.24364">
        <ele>369</ele>
        <time>2016-05-15T09:46:27.000Z</time>
      </trkpt>
      <trkpt lat="44.55263" lon="4.24363">
        <ele>369</ele>
        <time>2016-05-15T09:46:28.000Z</time>
      </trkpt>
      <trkpt lat="44.55266" lon="4.24362">
        <ele>369</ele>
        <time>2016-05-15T09:46:29.000Z</time>
      </trkpt>
      <trkpt lat="44.55268" lon="4.24361">
        <ele>369</ele>
        <time>2016-05-15T09:46:30.000Z</time>
      </trkpt>
      <trkpt lat="44.5527" lon="4.2436">
        <ele>369</ele>
        <time>2016-05-15T09:46:31.000Z</time>
      </trkpt>
      <trkpt lat="44.55272" lon="4.24359">
        <ele>369</ele>
        <time>2016-05-15T09:46:32.000Z</time>
      </trkpt>
      <trkpt lat="44.55275" lon="4.24358">
        <ele>369</ele>
        <time>2016-05-15T09:46:33.000Z</time>
      </trkpt>
      <trkpt lat="44.55277" lon="4.24358">
        <ele>369</ele>
        <time>2016-05-15T09:46:34.000Z</time>
      </trkpt>
      <trkpt lat="44.5528" lon="4.24357">
        <ele>369</ele>
        <time>2016-05-15T09:46:35.000Z</time>
      </trkpt>
      <trkpt lat="44.55282" lon="4.24357">
        <ele>370</ele>
        <time>2016-05-15T09:46:36.000Z</time>
      </trkpt>
      <trkpt lat="44.55284" lon="4.24357">
        <ele>370</ele>
        <time>2016-05-15T09:46:37.000Z</time>
      </trkpt>
      <trkpt lat="44.55287" lon="4.24357">
        <ele>370</ele>
        <time>2016-05-15T09:46:38.000Z</time>
      </trkpt>
      <trkpt lat="44.55289" lon="4.24357">
        <ele>370</ele>
        <time>2016-05-15T09:46:39.000Z</time>
      </trkpt>
      <trkpt lat="44.55292" lon="4.24357">
        <ele>371</ele>
        <time>2016-05-15T09:46:40.000Z</time>
      </trkpt>
      <trkpt lat="44.55295" lon="4.24357">
        <ele>371</ele>
        <time>2016-05-15T09:46:41.000Z</time>
      </trkpt>
      <trkpt lat="44.55298" lon="4.24358">
        <ele>371</ele>
        <time>2016-05-15T09:46:42.000Z</time>
      </trkpt>
      <trkpt lat="44.553" lon="4.24359">
        <ele>371</ele>
        <time>2016-05-15T09:46:43.000Z</time>
      </trkpt>
      <trkpt lat="44.55302" lon="4.24359">
        <ele>371</ele>
        <time>2016-05-15T09:46:44.000Z</time>
      </trkpt>
      <trkpt lat="44.55304" lon="4.2436">
        <ele>372</ele>
        <time>2016-05-15T09:46:45.000Z</time>
      </trkpt>
      <trkpt lat="44.55306" lon="4.24361">
        <ele>372</ele>
        <time>2016-05-15T09:46:46.000Z</time>
      </trkpt>
      <trkpt lat="44.55309" lon="4.24362">
        <ele>372</ele>
        <time>2016-05-15T09:46:47.000Z</time>
      </trkpt>
      <trkpt lat="44.55311" lon="4.24363">
        <ele>372</ele>
        <time>2016-05-15T09:46:48.000Z</time>
      </trkpt>
      <trkpt lat="44.55313" lon="4.24363">
        <ele>372</ele>
        <time>2016-05-15T09:46:49.000Z</time>
      </trkpt>
      <trkpt lat="44.55315" lon="4.24364">
        <ele>373</ele>
        <time>2016-05-15T09:46:50.000Z</time>
      </trkpt>
      <trkpt lat="44.55317" lon="4.24365">
        <ele>373</ele>
        <time>2016-05-15T09:46:51.000Z</time>
      </trkpt>
      <trkpt lat="44.55319" lon="4.24366">
        <ele>373</ele>
        <time>2016-05-15T09:46:52.000Z</time>
      </trkpt>
      <trkpt lat="44.55321" lon="4.24367">
        <ele>373</ele>
        <time>2016-05-15T09:46:53.000Z</time>
      </trkpt>
      <trkpt lat="44.55324" lon="4.24368">
        <ele>374</ele>
        <time>2016-05-15T09:46:54.000Z</time>
      </trkpt>
      <trkpt lat="44.55326" lon="4.24369">
        <ele>374</ele>
        <time>2016-05-15T09:46:55.000Z</time>
      </trkpt>
      <trkpt lat="44.55329" lon="4.2437">
        <ele>374</ele>
        <time>2016-05-15T09:46:56.000Z</time>
      </trkpt>
      <trkpt lat="44.55332" lon="4.24369">
        <ele>374</ele>
        <time>2016-05-15T09:46:57.000Z</time>
      </trkpt>
      <trkpt lat="44.55335" lon="4.24369">
        <ele>383</ele>
        <time>2016-05-15T09:46:58.000Z</time>
      </trkpt>
      <trkpt lat="44.55338" lon="4.24369">
        <ele>383</ele>
        <time>2016-05-15T09:46:59.000Z</time>
      </trkpt>
      <trkpt lat="44.55341" lon="4.24369">
        <ele>383</ele>
        <time>2016-05-15T09:47:00.000Z</time>
      </trkpt>
      <trkpt lat="44.55343" lon="4.2437">
        <ele>384</ele>
        <time>2016-05-15T09:47:01.000Z</time>
      </trkpt>
      <trkpt lat="44.55345" lon="4.2437">
        <ele>384</ele>
        <time>2016-05-15T09:47:02.000Z</time>
      </trkpt>
      <trkpt lat="44.55348" lon="4.2437">
        <ele>384</ele>
        <time>2016-05-15T09:47:03.000Z</time>
      </trkpt>
      <trkpt lat="44.5535" lon="4.2437">
        <ele>384</ele>
        <time>2016-05-15T09:47:04.000Z</time>
      </trkpt>
      <trkpt lat="44.55353" lon="4.2437">
        <ele>385</ele>
        <time>2016-05-15T09:47:05.000Z</time>
      </trkpt>
      <trkpt lat="44.55355" lon="4.2437">
        <ele>385</ele>
        <time>2016-05-15T09:47:06.000Z</time>
      </trkpt>
      <trkpt lat="44.55357" lon="4.2437">
        <ele>385</ele>
        <time>2016-05-15T09:47:07.000Z</time>
      </trkpt>
      <trkpt lat="44.55359" lon="4.2437">
        <ele>385</ele>
        <time>2016-05-15T09:47:08.000Z</time>
      </trkpt>
      <trkpt lat="44.55361" lon="4.2437">
        <ele>385</ele>
        <time>2016-05-15T09:47:09.000Z</time>
      </trkpt>
      <trkpt lat="44.55363" lon="4.2437">
        <ele>386</ele>
        <time>2016-05-15T09:47:10.000Z</time>
      </trkpt>
      <trkpt lat="44.55365" lon="4.24369">
        <ele>386</ele>
        <time>2016-05-15T09:47:11.000Z</time>
      </trkpt>
      <trkpt lat="44.55367" lon="4.24369">
        <ele>386</ele>
        <time>2016-05-15T09:47:12.000Z</time>
      </trkpt>
      <trkpt lat="44.55369" lon="4.24368">
        <ele>386</ele>
        <time>2016-05-15T09:47:13.000Z</time>
      </trkpt>
      <trkpt lat="44.55371" lon="4.24368">
        <ele>386</ele>
        <time>2016-05-15T09:47:14.000Z</time>
      </trkpt>
      <trkpt lat="44.55373" lon="4.24367">
        <ele>386</ele>
        <time>2016-05-15T09:47:15.000Z</time>
      </trkpt>
      <trkpt lat="44.55375" lon="4.24366">
        <ele>386</ele>
        <time>2016-05-15T09:47:16.000Z</time>
      </trkpt>
      <trkpt lat="44.55377" lon="4.24365">
        <ele>386</ele>
        <time>2016-05-15T09:47:17.000Z</time>
      </trkpt>
      <trkpt lat="44.55379" lon="4.24364">
        <ele>386</ele>
        <time>2016-05-15T09:47:18.000Z</time>
      </trkpt>
      <trkpt lat="44.55381" lon="4.24364">
        <ele>387</ele>
        <time>2016-05-15T09:47:19.000Z</time>
      </trkpt>
      <trkpt lat="44.55383" lon="4.24363">
        <ele>387</ele>
        <time>2016-05-15T09:47:20.000Z</time>
      </trkpt>
      <trkpt lat="44.55385" lon="4.24363">
        <ele>387</ele>
        <time>2016-05-15T09:47:21.000Z</time>
      </trkpt>
      <trkpt lat="44.55387" lon="4.24362">
        <ele>387</ele>
        <time>2016-05-15T09:47:22.000Z</time>
      </trkpt>
      <trkpt lat="44.55389" lon="4.24361">
        <ele>387</ele>
        <time>2016-05-15T09:47:23.000Z</time>
      </trkpt>
      <trkpt lat="44.55391" lon="4.2436">
        <ele>387</ele>
        <time>2016-05-15T09:47:24.000Z</time>
      </trkpt>
      <trkpt lat="44.55393" lon="4.24359">
        <ele>387</ele>
        <time>2016-05-15T09:47:25.000Z</time>
      </trkpt>
      <trkpt lat="44.55394" lon="4.24358">
        <ele>386</ele>
        <time>2016-05-15T09:47:26.000Z</time>
      </trkpt>
      <trkpt lat="44.55396" lon="4.24356">
        <ele>386</ele>
        <time>2016-05-15T09:47:27.000Z</time>
      </trkpt>
      <trkpt lat="44.55397" lon="4.24354">
        <ele>386</ele>
        <time>2016-05-15T09:47:28.000Z</time>
      </trkpt>
      <trkpt lat="44.55399" lon="4.24353">
        <ele>386</ele>
        <time>2016-05-15T09:47:29.000Z</time>
      </trkpt>
      <trkpt lat="44.554" lon="4.24352">
        <ele>386</ele>
        <time>2016-05-15T09:47:30.000Z</time>
      </trkpt>
      <trkpt lat="44.55401" lon="4.24351">
        <ele>385</ele>
        <time>2016-05-15T09:47:31.000Z</time>
      </trkpt>
      <trkpt lat="44.55403" lon="4.2435">
        <ele>385</ele>
        <time>2016-05-15T09:47:32.000Z</time>
      </trkpt>
      <trkpt lat="44.55405" lon="4.24349">
        <ele>385</ele>
        <time>2016-05-15T09:47:33.000Z</time>
      </trkpt>
      <trkpt lat="44.55406" lon="4.24347">
        <ele>385</ele>
        <time>2016-05-15T09:47:34.000Z</time>
      </trkpt>
      <trkpt lat="44.55407" lon="4.24346">
        <ele>384</ele>
        <time>2016-05-15T09:47:35.000Z</time>
      </trkpt>
      <trkpt lat="44.55409" lon="4.24344">
        <ele>384</ele>
        <time>2016-05-15T09:47:36.000Z</time>
      </trkpt>
      <trkpt lat="44.55411" lon="4.24343">
        <ele>384</ele>
        <time>2016-05-15T09:47:37.000Z</time>
      </trkpt>
      <trkpt lat="44.55413" lon="4.24342">
        <ele>383</ele>
        <time>2016-05-15T09:47:38.000Z</time>
      </trkpt>
      <trkpt lat="44.55415" lon="4.24341">
        <ele>383</ele>
        <time>2016-05-15T09:47:39.000Z</time>
      </trkpt>
      <trkpt lat="44.55417" lon="4.24339">
        <ele>387</ele>
        <time>2016-05-15T09:47:40.000Z</time>
      </trkpt>
      <trkpt lat="44.55419" lon="4.24338">
        <ele>386</ele>
        <time>2016-05-15T09:47:41.000Z</time>
      </trkpt>
      <trkpt lat="44.5542" lon="4.24338">
        <ele>387</ele>
        <time>2016-05-15T09:47:42.000Z</time>
      </trkpt>
      <trkpt lat="44.55421" lon="4.24336">
        <ele>386</ele>
        <time>2016-05-15T09:47:43.000Z</time>
      </trkpt>
      <trkpt lat="44.55422" lon="4.24334">
        <ele>387</ele>
        <time>2016-05-15T09:47:44.000Z</time>
      </trkpt>
      <trkpt lat="44.55423" lon="4.24331">
        <ele>382</ele>
        <time>2016-05-15T09:47:45.000Z</time>
      </trkpt>
      <trkpt lat="44.55424" lon="4.2433">
        <ele>383</ele>
        <time>2016-05-15T09:47:46.000Z</time>
      </trkpt>
      <trkpt lat="44.55426" lon="4.24328">
        <ele>383</ele>
        <time>2016-05-15T09:47:47.000Z</time>
      </trkpt>
      <trkpt lat="44.55427" lon="4.24326">
        <ele>383</ele>
        <time>2016-05-15T09:47:48.000Z</time>
      </trkpt>
      <trkpt lat="44.55428" lon="4.24324">
        <ele>383</ele>
        <time>2016-05-15T09:47:49.000Z</time>
      </trkpt>
      <trkpt lat="44.5543" lon="4.24323">
        <ele>384</ele>
        <time>2016-05-15T09:47:50.000Z</time>
      </trkpt>
      <trkpt lat="44.55431" lon="4.24322">
        <ele>384</ele>
        <time>2016-05-15T09:47:51.000Z</time>
      </trkpt>
      <trkpt lat="44.55433" lon="4.2432">
        <ele>384</ele>
        <time>2016-05-15T09:47:52.000Z</time>
      </trkpt>
      <trkpt lat="44.55436" lon="4.2432">
        <ele>384</ele>
        <time>2016-05-15T09:47:53.000Z</time>
      </trkpt>
      <trkpt lat="44.55437" lon="4.24319">
        <ele>385</ele>
        <time>2016-05-15T09:47:54.000Z</time>
      </trkpt>
      <trkpt lat="44.55438" lon="4.24318">
        <ele>385</ele>
        <time>2016-05-15T09:47:55.000Z</time>
      </trkpt>
      <trkpt lat="44.5544" lon="4.24317">
        <ele>385</ele>
        <time>2016-05-15T09:47:56.000Z</time>
      </trkpt>
      <trkpt lat="44.55441" lon="4.24315">
        <ele>385</ele>
        <time>2016-05-15T09:47:57.000Z</time>
      </trkpt>
      <trkpt lat="44.55443" lon="4.24314">
        <ele>385</ele>
        <time>2016-05-15T09:47:58.000Z</time>
      </trkpt>
      <trkpt lat="44.55445" lon="4.24314">
        <ele>386</ele>
        <time>2016-05-15T09:47:59.000Z</time>
      </trkpt>
      <trkpt lat="44.55446" lon="4.24313">
        <ele>386</ele>
        <time>2016-05-15T09:48:00.000Z</time>
      </trkpt>
      <trkpt lat="44.55448" lon="4.24312">
        <ele>386</ele>
        <time>2016-05-15T09:48:01.000Z</time>
      </trkpt>
      <trkpt lat="44.55449" lon="4.24311">
        <ele>386</ele>
        <time>2016-05-15T09:48:02.000Z</time>
      </trkpt>
      <trkpt lat="44.5545" lon="4.2431">
        <ele>386</ele>
        <time>2016-05-15T09:48:03.000Z</time>
      </trkpt>
      <trkpt lat="44.55451" lon="4.24309">
        <ele>386</ele>
        <time>2016-05-15T09:48:04.000Z</time>
      </trkpt>
      <trkpt lat="44.55452" lon="4.24308">
        <ele>386</ele>
        <time>2016-05-15T09:48:05.000Z</time>
      </trkpt>
      <trkpt lat="44.55453" lon="4.24307">
        <ele>387</ele>
        <time>2016-05-15T09:48:06.000Z</time>
      </trkpt>
      <trkpt lat="44.55454" lon="4.24306">
        <ele>387</ele>
        <time>2016-05-15T09:48:07.000Z</time>
      </trkpt>
      <trkpt lat="44.55456" lon="4.24305">
        <ele>387</ele>
        <time>2016-05-15T09:48:08.000Z</time>
      </trkpt>
      <trkpt lat="44.55458" lon="4.24304">
        <ele>387</ele>
        <time>2016-05-15T09:48:09.000Z</time>
      </trkpt>
      <trkpt lat="44.55459" lon="4.24303">
        <ele>387</ele>
        <time>2016-05-15T09:48:10.000Z</time>
      </trkpt>
      <trkpt lat="44.55461" lon="4.24302">
        <ele>387</ele>
        <time>2016-05-15T09:48:11.000Z</time>
      </trkpt>
      <trkpt lat="44.55463" lon="4.24302">
        <ele>388</ele>
        <time>2016-05-15T09:48:12.000Z</time>
      </trkpt>
      <trkpt lat="44.55464" lon="4.24301">
        <ele>388</ele>
        <time>2016-05-15T09:48:13.000Z</time>
      </trkpt>
      <trkpt lat="44.55466" lon="4.243">
        <ele>388</ele>
        <time>2016-05-15T09:48:14.000Z</time>
      </trkpt>
      <trkpt lat="44.55468" lon="4.24299">
        <ele>388</ele>
        <time>2016-05-15T09:48:15.000Z</time>
      </trkpt>
      <trkpt lat="44.5547" lon="4.24298">
        <ele>388</ele>
        <time>2016-05-15T09:48:16.000Z</time>
      </trkpt>
      <trkpt lat="44.55471" lon="4.24297">
        <ele>388</ele>
        <time>2016-05-15T09:48:17.000Z</time>
      </trkpt>
      <trkpt lat="44.55473" lon="4.24296">
        <ele>389</ele>
        <time>2016-05-15T09:48:18.000Z</time>
      </trkpt>
      <trkpt lat="44.55475" lon="4.24296">
        <ele>389</ele>
        <time>2016-05-15T09:48:19.000Z</time>
      </trkpt>
      <trkpt lat="44.55476" lon="4.24295">
        <ele>389</ele>
        <time>2016-05-15T09:48:20.000Z</time>
      </trkpt>
      <trkpt lat="44.55479" lon="4.24293">
        <ele>389</ele>
        <time>2016-05-15T09:48:21.000Z</time>
      </trkpt>
      <trkpt lat="44.55481" lon="4.24292">
        <ele>389</ele>
        <time>2016-05-15T09:48:22.000Z</time>
      </trkpt>
      <trkpt lat="44.55482" lon="4.2429">
        <ele>389</ele>
        <time>2016-05-15T09:48:23.000Z</time>
      </trkpt>
      <trkpt lat="44.55485" lon="4.24289">
        <ele>389</ele>
        <time>2016-05-15T09:48:24.000Z</time>
      </trkpt>
      <trkpt lat="44.55487" lon="4.24287">
        <ele>389</ele>
        <time>2016-05-15T09:48:25.000Z</time>
      </trkpt>
      <trkpt lat="44.55488" lon="4.24285">
        <ele>389</ele>
        <time>2016-05-15T09:48:26.000Z</time>
      </trkpt>
      <trkpt lat="44.5549" lon="4.24283">
        <ele>389</ele>
        <time>2016-05-15T09:48:27.000Z</time>
      </trkpt>
      <trkpt lat="44.55492" lon="4.24281">
        <ele>389</ele>
        <time>2016-05-15T09:48:28.000Z</time>
      </trkpt>
      <trkpt lat="44.55493" lon="4.24279">
        <ele>388</ele>
        <time>2016-05-15T09:48:29.000Z</time>
      </trkpt>
      <trkpt lat="44.55495" lon="4.24277">
        <ele>388</ele>
        <time>2016-05-15T09:48:30.000Z</time>
      </trkpt>
      <trkpt lat="44.55497" lon="4.24275">
        <ele>388</ele>
        <time>2016-05-15T09:48:31.000Z</time>
      </trkpt>
      <trkpt lat="44.55499" lon="4.24273">
        <ele>388</ele>
        <time>2016-05-15T09:48:32.000Z</time>
      </trkpt>
      <trkpt lat="44.55501" lon="4.24271">
        <ele>395</ele>
        <time>2016-05-15T09:48:33.000Z</time>
      </trkpt>
      <trkpt lat="44.55503" lon="4.24269">
        <ele>395</ele>
        <time>2016-05-15T09:48:34.000Z</time>
      </trkpt>
      <trkpt lat="44.55505" lon="4.24268">
        <ele>395</ele>
        <time>2016-05-15T09:48:35.000Z</time>
      </trkpt>
      <trkpt lat="44.55507" lon="4.24266">
        <ele>395</ele>
        <time>2016-05-15T09:48:36.000Z</time>
      </trkpt>
      <trkpt lat="44.55509" lon="4.24265">
        <ele>394</ele>
        <time>2016-05-15T09:48:37.000Z</time>
      </trkpt>
      <trkpt lat="44.55511" lon="4.24264">
        <ele>394</ele>
        <time>2016-05-15T09:48:38.000Z</time>
      </trkpt>
      <trkpt lat="44.55513" lon="4.24262">
        <ele>395</ele>
        <time>2016-05-15T09:48:39.000Z</time>
      </trkpt>
      <trkpt lat="44.55515" lon="4.24261">
        <ele>395</ele>
        <time>2016-05-15T09:48:40.000Z</time>
      </trkpt>
      <trkpt lat="44.55517" lon="4.2426">
        <ele>395</ele>
        <time>2016-05-15T09:48:41.000Z</time>
      </trkpt>
      <trkpt lat="44.5552" lon="4.2426">
        <ele>395</ele>
        <time>2016-05-15T09:48:42.000Z</time>
      </trkpt>
      <trkpt lat="44.55522" lon="4.24259">
        <ele>396</ele>
        <time>2016-05-15T09:48:43.000Z</time>
      </trkpt>
      <trkpt lat="44.55524" lon="4.24259">
        <ele>396</ele>
        <time>2016-05-15T09:48:44.000Z</time>
      </trkpt>
      <trkpt lat="44.55526" lon="4.24258">
        <ele>396</ele>
        <time>2016-05-15T09:48:45.000Z</time>
      </trkpt>
      <trkpt lat="44.55528" lon="4.24258">
        <ele>396</ele>
        <time>2016-05-15T09:48:46.000Z</time>
      </trkpt>
      <trkpt lat="44.5553" lon="4.24258">
        <ele>397</ele>
        <time>2016-05-15T09:48:47.000Z</time>
      </trkpt>
      <trkpt lat="44.55531" lon="4.24258">
        <ele>397</ele>
        <time>2016-05-15T09:48:48.000Z</time>
      </trkpt>
      <trkpt lat="44.55533" lon="4.24258">
        <ele>397</ele>
        <time>2016-05-15T09:48:49.000Z</time>
      </trkpt>
      <trkpt lat="44.55534" lon="4.24258">
        <ele>397</ele>
        <time>2016-05-15T09:48:50.000Z</time>
      </trkpt>
      <trkpt lat="44.55536" lon="4.24258">
        <ele>397</ele>
        <time>2016-05-15T09:48:51.000Z</time>
      </trkpt>
      <trkpt lat="44.55537" lon="4.24258">
        <ele>397</ele>
        <time>2016-05-15T09:48:52.000Z</time>
      </trkpt>
      <trkpt lat="44.55538" lon="4.24259">
        <ele>398</ele>
        <time>2016-05-15T09:48:53.000Z</time>
      </trkpt>
      <trkpt lat="44.5554" lon="4.24259">
        <ele>398</ele>
        <time>2016-05-15T09:48:54.000Z</time>
      </trkpt>
      <trkpt lat="44.55541" lon="4.24259">
        <ele>398</ele>
        <time>2016-05-15T09:48:55.000Z</time>
      </trkpt>
      <trkpt lat="44.55542" lon="4.24259">
        <ele>398</ele>
        <time>2016-05-15T09:48:56.000Z</time>
      </trkpt>
      <trkpt lat="44.55543" lon="4.2426">
        <ele>398</ele>
        <time>2016-05-15T09:48:57.000Z</time>
      </trkpt>
      <trkpt lat="44.55544" lon="4.2426">
        <ele>398</ele>
        <time>2016-05-15T09:48:58.000Z</time>
      </trkpt>
      <trkpt lat="44.55545" lon="4.24261">
        <ele>398</ele>
        <time>2016-05-15T09:48:59.000Z</time>
      </trkpt>
      <trkpt lat="44.55545" lon="4.24262">
        <ele>398</ele>
        <time>2016-05-15T09:49:00.000Z</time>
      </trkpt>
      <trkpt lat="44.55545" lon="4.24263">
        <ele>398</ele>
        <time>2016-05-15T09:49:01.000Z</time>
      </trkpt>
      <trkpt lat="44.55545" lon="4.24265">
        <ele>398</ele>
        <time>2016-05-15T09:49:02.000Z</time>
      </trkpt>
      <trkpt lat="44.55544" lon="4.24266">
        <ele>398</ele>
        <time>2016-05-15T09:49:03.000Z</time>
      </trkpt>
      <trkpt lat="44.55544" lon="4.24267">
        <ele>398</ele>
        <time>2016-05-15T09:49:04.000Z</time>
      </trkpt>
      <trkpt lat="44.55543" lon="4.24268">
        <ele>398</ele>
        <time>2016-05-15T09:49:05.000Z</time>
      </trkpt>
      <trkpt lat="44.55542" lon="4.24269">
        <ele>398</ele>
        <time>2016-05-15T09:49:06.000Z</time>
      </trkpt>
      <trkpt lat="44.55541" lon="4.2427">
        <ele>398</ele>
        <time>2016-05-15T09:49:07.000Z</time>
      </trkpt>
      <trkpt lat="44.5554" lon="4.24271">
        <ele>399</ele>
        <time>2016-05-15T09:49:08.000Z</time>
      </trkpt>
      <trkpt lat="44.55539" lon="4.24272">
        <ele>399</ele>
        <time>2016-05-15T09:49:09.000Z</time>
      </trkpt>
      <trkpt lat="44.55539" lon="4.24273">
        <ele>399</ele>
        <time>2016-05-15T09:49:10.000Z</time>
      </trkpt>
      <trkpt lat="44.55538" lon="4.24273">
        <ele>399</ele>
        <time>2016-05-15T09:49:11.000Z</time>
      </trkpt>
      <trkpt lat="44.55538" lon="4.24274">
        <ele>399</ele>
        <time>2016-05-15T09:49:12.000Z</time>
      </trkpt>
      <trkpt lat="44.55537" lon="4.24275">
        <ele>399</ele>
        <time>2016-05-15T09:49:13.000Z</time>
      </trkpt>
      <trkpt lat="44.55536" lon="4.24277">
        <ele>399</ele>
        <time>2016-05-15T09:49:14.000Z</time>
      </trkpt>
      <trkpt lat="44.55535" lon="4.24278">
        <ele>399</ele>
        <time>2016-05-15T09:49:15.000Z</time>
      </trkpt>
      <trkpt lat="44.55534" lon="4.24279">
        <ele>399</ele>
        <time>2016-05-15T09:49:16.000Z</time>
      </trkpt>
      <trkpt lat="44.55533" lon="4.24281">
        <ele>399</ele>
        <time>2016-05-15T09:49:17.000Z</time>
      </trkpt>
      <trkpt lat="44.55532" lon="4.24283">
        <ele>399</ele>
        <time>2016-05-15T09:49:18.000Z</time>
      </trkpt>
      <trkpt lat="44.55531" lon="4.24285">
        <ele>399</ele>
        <time>2016-05-15T09:49:19.000Z</time>
      </trkpt>
      <trkpt lat="44.5553" lon="4.24287">
        <ele>400</ele>
        <time>2016-05-15T09:49:20.000Z</time>
      </trkpt>
      <trkpt lat="44.55529" lon="4.24288">
        <ele>400</ele>
        <time>2016-05-15T09:49:21.000Z</time>
      </trkpt>
      <trkpt lat="44.55528" lon="4.24288">
        <ele>400</ele>
        <time>2016-05-15T09:49:22.000Z</time>
      </trkpt>
      <trkpt lat="44.55528" lon="4.2429">
        <ele>400</ele>
        <time>2016-05-15T09:49:23.000Z</time>
      </trkpt>
      <trkpt lat="44.55528" lon="4.24292">
        <ele>400</ele>
        <time>2016-05-15T09:49:24.000Z</time>
      </trkpt>
      <trkpt lat="44.55528" lon="4.24292">
        <ele>400</ele>
        <time>2016-05-15T09:49:25.000Z</time>
      </trkpt>
      <trkpt lat="44.55529" lon="4.24292">
        <ele>400</ele>
        <time>2016-05-15T09:49:26.000Z</time>
      </trkpt>
      <trkpt lat="44.5553" lon="4.24292">
        <ele>400</ele>
        <time>2016-05-15T09:49:27.000Z</time>
      </trkpt>
      <trkpt lat="44.5553" lon="4.24292">
        <ele>400</ele>
        <time>2016-05-15T09:49:28.000Z</time>
      </trkpt>
      <trkpt lat="44.55532" lon="4.24291">
        <ele>400</ele>
        <time>2016-05-15T09:49:29.000Z</time>
      </trkpt>
      <trkpt lat="44.55533" lon="4.2429">
        <ele>400</ele>
        <time>2016-05-15T09:49:30.000Z</time>
      </trkpt>
      <trkpt lat="44.55534" lon="4.2429">
        <ele>400</ele>
        <time>2016-05-15T09:49:31.000Z</time>
      </trkpt>
      <trkpt lat="44.55536" lon="4.2429">
        <ele>400</ele>
        <time>2016-05-15T09:49:32.000Z</time>
      </trkpt>
      <trkpt lat="44.55537" lon="4.2429">
        <ele>400</ele>
        <time>2016-05-15T09:49:33.000Z</time>
      </trkpt>
      <trkpt lat="44.55539" lon="4.2429">
        <ele>400</ele>
        <time>2016-05-15T09:49:34.000Z</time>
      </trkpt>
      <trkpt lat="44.5554" lon="4.2429">
        <ele>400</ele>
        <time>2016-05-15T09:49:35.000Z</time>
      </trkpt>
      <trkpt lat="44.55541" lon="4.2429">
        <ele>400</ele>
        <time>2016-05-15T09:49:36.000Z</time>
      </trkpt>
      <trkpt lat="44.55541" lon="4.2429">
        <ele>400</ele>
        <time>2016-05-15T09:49:37.000Z</time>
      </trkpt>
      <trkpt lat="44.55542" lon="4.2429">
        <ele>400</ele>
        <time>2016-05-15T09:49:38.000Z</time>
      </trkpt>
      <trkpt lat="44.55543" lon="4.24291">
        <ele>400</ele>
        <time>2016-05-15T09:49:39.000Z</time>
      </trkpt>
      <trkpt lat="44.55544" lon="4.24292">
        <ele>401</ele>
        <time>2016-05-15T09:49:40.000Z</time>
      </trkpt>
      <trkpt lat="44.55546" lon="4.24292">
        <ele>401</ele>
        <time>2016-05-15T09:49:41.000Z</time>
      </trkpt>
      <trkpt lat="44.55547" lon="4.24293">
        <ele>401</ele>
        <time>2016-05-15T09:49:42.000Z</time>
      </trkpt>
      <trkpt lat="44.55548" lon="4.24293">
        <ele>401</ele>
        <time>2016-05-15T09:49:43.000Z</time>
      </trkpt>
      <trkpt lat="44.5555" lon="4.24293">
        <ele>401</ele>
        <time>2016-05-15T09:49:44.000Z</time>
      </trkpt>
      <trkpt lat="44.55551" lon="4.24293">
        <ele>401</ele>
        <time>2016-05-15T09:49:45.000Z</time>
      </trkpt>
      <trkpt lat="44.55552" lon="4.24294">
        <ele>401</ele>
        <time>2016-05-15T09:49:46.000Z</time>
      </trkpt>
      <trkpt lat="44.55554" lon="4.24295">
        <ele>401</ele>
        <time>2016-05-15T09:49:47.000Z</time>
      </trkpt>
      <trkpt lat="44.55555" lon="4.24295">
        <ele>401</ele>
        <time>2016-05-15T09:49:48.000Z</time>
      </trkpt>
      <trkpt lat="44.55556" lon="4.24296">
        <ele>401</ele>
        <time>2016-05-15T09:49:49.000Z</time>
      </trkpt>
      <trkpt lat="44.55558" lon="4.24297">
        <ele>401</ele>
        <time>2016-05-15T09:49:50.000Z</time>
      </trkpt>
      <trkpt lat="44.55559" lon="4.24299">
        <ele>402</ele>
        <time>2016-05-15T09:49:51.000Z</time>
      </trkpt>
      <trkpt lat="44.5556" lon="4.243">
        <ele>402</ele>
        <time>2016-05-15T09:49:52.000Z</time>
      </trkpt>
      <trkpt lat="44.55561" lon="4.24301">
        <ele>402</ele>
        <time>2016-05-15T09:49:53.000Z</time>
      </trkpt>
      <trkpt lat="44.55562" lon="4.24303">
        <ele>402</ele>
        <time>2016-05-15T09:49:54.000Z</time>
      </trkpt>
      <trkpt lat="44.55563" lon="4.24305">
        <ele>402</ele>
        <time>2016-05-15T09:49:55.000Z</time>
      </trkpt>
      <trkpt lat="44.55565" lon="4.24308">
        <ele>403</ele>
        <time>2016-05-15T09:49:56.000Z</time>
      </trkpt>
      <trkpt lat="44.55566" lon="4.2431">
        <ele>403</ele>
        <time>2016-05-15T09:49:57.000Z</time>
      </trkpt>
      <trkpt lat="44.55567" lon="4.24313">
        <ele>403</ele>
        <time>2016-05-15T09:49:58.000Z</time>
      </trkpt>
      <trkpt lat="44.55567" lon="4.24315">
        <ele>404</ele>
        <time>2016-05-15T09:49:59.000Z</time>
      </trkpt>
      <trkpt lat="44.55568" lon="4.24318">
        <ele>404</ele>
        <time>2016-05-15T09:50:00.000Z</time>
      </trkpt>
      <trkpt lat="44.55569" lon="4.2432">
        <ele>404</ele>
        <time>2016-05-15T09:50:01.000Z</time>
      </trkpt>
      <trkpt lat="44.5557" lon="4.24322">
        <ele>404</ele>
        <time>2016-05-15T09:50:02.000Z</time>
      </trkpt>
      <trkpt lat="44.55571" lon="4.24324">
        <ele>405</ele>
        <time>2016-05-15T09:50:03.000Z</time>
      </trkpt>
      <trkpt lat="44.55571" lon="4.24326">
        <ele>405</ele>
        <time>2016-05-15T09:50:04.000Z</time>
      </trkpt>
      <trkpt lat="44.55571" lon="4.24328">
        <ele>405</ele>
        <time>2016-05-15T09:50:05.000Z</time>
      </trkpt>
      <trkpt lat="44.55571" lon="4.24329">
        <ele>405</ele>
        <time>2016-05-15T09:50:06.000Z</time>
      </trkpt>
      <trkpt lat="44.55572" lon="4.24331">
        <ele>406</ele>
        <time>2016-05-15T09:50:07.000Z</time>
      </trkpt>
      <trkpt lat="44.55573" lon="4.24333">
        <ele>406</ele>
        <time>2016-05-15T09:50:08.000Z</time>
      </trkpt>
      <trkpt lat="44.55574" lon="4.24335">
        <ele>412</ele>
        <time>2016-05-15T09:50:09.000Z</time>
      </trkpt>
      <trkpt lat="44.55575" lon="4.24336">
        <ele>412</ele>
        <time>2016-05-15T09:50:10.000Z</time>
      </trkpt>
      <trkpt lat="44.55577" lon="4.24337">
        <ele>411</ele>
        <time>2016-05-15T09:50:11.000Z</time>
      </trkpt>
      <trkpt lat="44.55579" lon="4.24337">
        <ele>411</ele>
        <time>2016-05-15T09:50:12.000Z</time>
      </trkpt>
      <trkpt lat="44.55581" lon="4.24338">
        <ele>411</ele>
        <time>2016-05-15T09:50:13.000Z</time>
      </trkpt>
      <trkpt lat="44.55583" lon="4.24338">
        <ele>410</ele>
        <time>2016-05-15T09:50:14.000Z</time>
      </trkpt>
      <trkpt lat="44.55585" lon="4.24338">
        <ele>411</ele>
        <time>2016-05-15T09:50:15.000Z</time>
      </trkpt>
      <trkpt lat="44.55586" lon="4.24338">
        <ele>412</ele>
        <time>2016-05-15T09:50:16.000Z</time>
      </trkpt>
      <trkpt lat="44.55588" lon="4.24338">
        <ele>412</ele>
        <time>2016-05-15T09:50:17.000Z</time>
      </trkpt>
      <trkpt lat="44.5559" lon="4.24339">
        <ele>414</ele>
        <time>2016-05-15T09:50:18.000Z</time>
      </trkpt>
      <trkpt lat="44.55592" lon="4.2434">
        <ele>414</ele>
        <time>2016-05-15T09:50:19.000Z</time>
      </trkpt>
      <trkpt lat="44.55594" lon="4.2434">
        <ele>415</ele>
        <time>2016-05-15T09:50:20.000Z</time>
      </trkpt>
      <trkpt lat="44.55596" lon="4.24342">
        <ele>416</ele>
        <time>2016-05-15T09:50:21.000Z</time>
      </trkpt>
      <trkpt lat="44.55597" lon="4.24343">
        <ele>417</ele>
        <time>2016-05-15T09:50:22.000Z</time>
      </trkpt>
      <trkpt lat="44.55599" lon="4.24344">
        <ele>418</ele>
        <time>2016-05-15T09:50:23.000Z</time>
      </trkpt>
      <trkpt lat="44.556" lon="4.24345">
        <ele>418</ele>
        <time>2016-05-15T09:50:24.000Z</time>
      </trkpt>
      <trkpt lat="44.55601" lon="4.24347">
        <ele>419</ele>
        <time>2016-05-15T09:50:25.000Z</time>
      </trkpt>
      <trkpt lat="44.55602" lon="4.24349">
        <ele>420</ele>
        <time>2016-05-15T09:50:26.000Z</time>
      </trkpt>
      <trkpt lat="44.55604" lon="4.24351">
        <ele>420</ele>
        <time>2016-05-15T09:50:27.000Z</time>
      </trkpt>
      <trkpt lat="44.55605" lon="4.24353">
        <ele>421</ele>
        <time>2016-05-15T09:50:28.000Z</time>
      </trkpt>
      <trkpt lat="44.55606" lon="4.24355">
        <ele>422</ele>
        <time>2016-05-15T09:50:29.000Z</time>
      </trkpt>
      <trkpt lat="44.55607" lon="4.24357">
        <ele>422</ele>
        <time>2016-05-15T09:50:30.000Z</time>
      </trkpt>
      <trkpt lat="44.55609" lon="4.24358">
        <ele>423</ele>
        <time>2016-05-15T09:50:31.000Z</time>
      </trkpt>
      <trkpt lat="44.5561" lon="4.24358">
        <ele>423</ele>
        <time>2016-05-15T09:50:32.000Z</time>
      </trkpt>
      <trkpt lat="44.55613" lon="4.24358">
        <ele>423</ele>
        <time>2016-05-15T09:50:33.000Z</time>
      </trkpt>
      <trkpt lat="44.55615" lon="4.24356">
        <ele>423</ele>
        <time>2016-05-15T09:50:34.000Z</time>
      </trkpt>
      <trkpt lat="44.55618" lon="4.24355">
        <ele>423</ele>
        <time>2016-05-15T09:50:35.000Z</time>
      </trkpt>
      <trkpt lat="44.55621" lon="4.24353">
        <ele>423</ele>
        <time>2016-05-15T09:50:36.000Z</time>
      </trkpt>
      <trkpt lat="44.55623" lon="4.24351">
        <ele>423</ele>
        <time>2016-05-15T09:50:37.000Z</time>
      </trkpt>
      <trkpt lat="44.55625" lon="4.2435">
        <ele>423</ele>
        <time>2016-05-15T09:50:38.000Z</time>
      </trkpt>
      <trkpt lat="44.55627" lon="4.24349">
        <ele>423</ele>
        <time>2016-05-15T09:50:39.000Z</time>
      </trkpt>
      <trkpt lat="44.55629" lon="4.24348">
        <ele>423</ele>
        <time>2016-05-15T09:50:40.000Z</time>
      </trkpt>
      <trkpt lat="44.55631" lon="4.24347">
        <ele>424</ele>
        <time>2016-05-15T09:50:41.000Z</time>
      </trkpt>
      <trkpt lat="44.55633" lon="4.24345">
        <ele>424</ele>
        <time>2016-05-15T09:50:42.000Z</time>
      </trkpt>
      <trkpt lat="44.55634" lon="4.24344">
        <ele>424</ele>
        <time>2016-05-15T09:50:43.000Z</time>
      </trkpt>
      <trkpt lat="44.55636" lon="4.24342">
        <ele>423</ele>
        <time>2016-05-15T09:50:44.000Z</time>
      </trkpt>
      <trkpt lat="44.55638" lon="4.2434">
        <ele>423</ele>
        <time>2016-05-15T09:50:45.000Z</time>
      </trkpt>
      <trkpt lat="44.5564" lon="4.24338">
        <ele>423</ele>
        <time>2016-05-15T09:50:46.000Z</time>
      </trkpt>
      <trkpt lat="44.55642" lon="4.24337">
        <ele>423</ele>
        <time>2016-05-15T09:50:47.000Z</time>
      </trkpt>
      <trkpt lat="44.55644" lon="4.24336">
        <ele>423</ele>
        <time>2016-05-15T09:50:48.000Z</time>
      </trkpt>
      <trkpt lat="44.55647" lon="4.24334">
        <ele>423</ele>
        <time>2016-05-15T09:50:49.000Z</time>
      </trkpt>
      <trkpt lat="44.55649" lon="4.24333">
        <ele>415</ele>
        <time>2016-05-15T09:50:50.000Z</time>
      </trkpt>
      <trkpt lat="44.5565" lon="4.24332">
        <ele>415</ele>
        <time>2016-05-15T09:50:51.000Z</time>
      </trkpt>
      <trkpt lat="44.55652" lon="4.2433">
        <ele>416</ele>
        <time>2016-05-15T09:50:52.000Z</time>
      </trkpt>
      <trkpt lat="44.55654" lon="4.24329">
        <ele>416</ele>
        <time>2016-05-15T09:50:53.000Z</time>
      </trkpt>
      <trkpt lat="44.55656" lon="4.24328">
        <ele>416</ele>
        <time>2016-05-15T09:50:54.000Z</time>
      </trkpt>
      <trkpt lat="44.55658" lon="4.24326">
        <ele>416</ele>
        <time>2016-05-15T09:50:55.000Z</time>
      </trkpt>
      <trkpt lat="44.55659" lon="4.24325">
        <ele>417</ele>
        <time>2016-05-15T09:50:56.000Z</time>
      </trkpt>
      <trkpt lat="44.55661" lon="4.24324">
        <ele>417</ele>
        <time>2016-05-15T09:50:57.000Z</time>
      </trkpt>
      <trkpt lat="44.55663" lon="4.24323">
        <ele>417</ele>
        <time>2016-05-15T09:50:58.000Z</time>
      </trkpt>
      <trkpt lat="44.55665" lon="4.24322">
        <ele>417</ele>
        <time>2016-05-15T09:50:59.000Z</time>
      </trkpt>
      <trkpt lat="44.55666" lon="4.24321">
        <ele>416</ele>
        <time>2016-05-15T09:51:00.000Z</time>
      </trkpt>
      <trkpt lat="44.55668" lon="4.2432">
        <ele>421</ele>
        <time>2016-05-15T09:51:01.000Z</time>
      </trkpt>
      <trkpt lat="44.55669" lon="4.24318">
        <ele>421</ele>
        <time>2016-05-15T09:51:02.000Z</time>
      </trkpt>
      <trkpt lat="44.5567" lon="4.24317">
        <ele>421</ele>
        <time>2016-05-15T09:51:03.000Z</time>
      </trkpt>
      <trkpt lat="44.55672" lon="4.24315">
        <ele>421</ele>
        <time>2016-05-15T09:51:04.000Z</time>
      </trkpt>
      <trkpt lat="44.55673" lon="4.24313">
        <ele>421</ele>
        <time>2016-05-15T09:51:05.000Z</time>
      </trkpt>
      <trkpt lat="44.55675" lon="4.24311">
        <ele>421</ele>
        <time>2016-05-15T09:51:06.000Z</time>
      </trkpt>
      <trkpt lat="44.55676" lon="4.2431">
        <ele>421</ele>
        <time>2016-05-15T09:51:07.000Z</time>
      </trkpt>
      <trkpt lat="44.55678" lon="4.24308">
        <ele>421</ele>
        <time>2016-05-15T09:51:08.000Z</time>
      </trkpt>
      <trkpt lat="44.55679" lon="4.24306">
        <ele>421</ele>
        <time>2016-05-15T09:51:09.000Z</time>
      </trkpt>
      <trkpt lat="44.5568" lon="4.24304">
        <ele>420</ele>
        <time>2016-05-15T09:51:10.000Z</time>
      </trkpt>
      <trkpt lat="44.55682" lon="4.24302">
        <ele>420</ele>
        <time>2016-05-15T09:51:11.000Z</time>
      </trkpt>
      <trkpt lat="44.55683" lon="4.243">
        <ele>420</ele>
        <time>2016-05-15T09:51:12.000Z</time>
      </trkpt>
      <trkpt lat="44.55685" lon="4.24298">
        <ele>420</ele>
        <time>2016-05-15T09:51:13.000Z</time>
      </trkpt>
      <trkpt lat="44.55686" lon="4.24297">
        <ele>420</ele>
        <time>2016-05-15T09:51:14.000Z</time>
      </trkpt>
      <trkpt lat="44.55688" lon="4.24296">
        <ele>420</ele>
        <time>2016-05-15T09:51:15.000Z</time>
      </trkpt>
      <trkpt lat="44.5569" lon="4.24295">
        <ele>420</ele>
        <time>2016-05-15T09:51:16.000Z</time>
      </trkpt>
      <trkpt lat="44.55692" lon="4.24294">
        <ele>420</ele>
        <time>2016-05-15T09:51:17.000Z</time>
      </trkpt>
      <trkpt lat="44.55693" lon="4.24293">
        <ele>420</ele>
        <time>2016-05-15T09:51:18.000Z</time>
      </trkpt>
      <trkpt lat="44.55695" lon="4.24293">
        <ele>420</ele>
        <time>2016-05-15T09:51:19.000Z</time>
      </trkpt>
      <trkpt lat="44.55697" lon="4.24292">
        <ele>420</ele>
        <time>2016-05-15T09:51:20.000Z</time>
      </trkpt>
      <trkpt lat="44.55699" lon="4.24292">
        <ele>421</ele>
        <time>2016-05-15T09:51:21.000Z</time>
      </trkpt>
      <trkpt lat="44.557" lon="4.24292">
        <ele>421</ele>
        <time>2016-05-15T09:51:22.000Z</time>
      </trkpt>
      <trkpt lat="44.55703" lon="4.24292">
        <ele>421</ele>
        <time>2016-05-15T09:51:23.000Z</time>
      </trkpt>
      <trkpt lat="44.55705" lon="4.24292">
        <ele>421</ele>
        <time>2016-05-15T09:51:24.000Z</time>
      </trkpt>
      <trkpt lat="44.55708" lon="4.24291">
        <ele>421</ele>
        <time>2016-05-15T09:51:25.000Z</time>
      </trkpt>
      <trkpt lat="44.5571" lon="4.24291">
        <ele>421</ele>
        <time>2016-05-15T09:51:26.000Z</time>
      </trkpt>
      <trkpt lat="44.55712" lon="4.24291">
        <ele>422</ele>
        <time>2016-05-15T09:51:27.000Z</time>
      </trkpt>
      <trkpt lat="44.55714" lon="4.24291">
        <ele>422</ele>
        <time>2016-05-15T09:51:28.000Z</time>
      </trkpt>
      <trkpt lat="44.55716" lon="4.24291">
        <ele>422</ele>
        <time>2016-05-15T09:51:29.000Z</time>
      </trkpt>
      <trkpt lat="44.55718" lon="4.24291">
        <ele>422</ele>
        <time>2016-05-15T09:51:30.000Z</time>
      </trkpt>
      <trkpt lat="44.5572" lon="4.2429">
        <ele>422</ele>
        <time>2016-05-15T09:51:31.000Z</time>
      </trkpt>
      <trkpt lat="44.55722" lon="4.2429">
        <ele>422</ele>
        <time>2016-05-15T09:51:32.000Z</time>
      </trkpt>
      <trkpt lat="44.55724" lon="4.2429">
        <ele>422</ele>
        <time>2016-05-15T09:51:33.000Z</time>
      </trkpt>
      <trkpt lat="44.55726" lon="4.2429">
        <ele>422</ele>
        <time>2016-05-15T09:51:34.000Z</time>
      </trkpt>
      <trkpt lat="44.55728" lon="4.24289">
        <ele>422</ele>
        <time>2016-05-15T09:51:35.000Z</time>
      </trkpt>
      <trkpt lat="44.5573" lon="4.24289">
        <ele>423</ele>
        <time>2016-05-15T09:51:36.000Z</time>
      </trkpt>
      <trkpt lat="44.55732" lon="4.24289">
        <ele>423</ele>
        <time>2016-05-15T09:51:37.000Z</time>
      </trkpt>
      <trkpt lat="44.55734" lon="4.24289">
        <ele>423</ele>
        <time>2016-05-15T09:51:38.000Z</time>
      </trkpt>
      <trkpt lat="44.55735" lon="4.24289">
        <ele>423</ele>
        <time>2016-05-15T09:51:39.000Z</time>
      </trkpt>
      <trkpt lat="44.55737" lon="4.24289">
        <ele>423</ele>
        <time>2016-05-15T09:51:40.000Z</time>
      </trkpt>
      <trkpt lat="44.55739" lon="4.24289">
        <ele>423</ele>
        <time>2016-05-15T09:51:41.000Z</time>
      </trkpt>
      <trkpt lat="44.55741" lon="4.24289">
        <ele>423</ele>
        <time>2016-05-15T09:51:42.000Z</time>
      </trkpt>
      <trkpt lat="44.55743" lon="4.24289">
        <ele>423</ele>
        <time>2016-05-15T09:51:43.000Z</time>
      </trkpt>
      <trkpt lat="44.55745" lon="4.24289">
        <ele>423</ele>
        <time>2016-05-15T09:51:44.000Z</time>
      </trkpt>
      <trkpt lat="44.55747" lon="4.2429">
        <ele>423</ele>
        <time>2016-05-15T09:51:45.000Z</time>
      </trkpt>
      <trkpt lat="44.55749" lon="4.2429">
        <ele>423</ele>
        <time>2016-05-15T09:51:46.000Z</time>
      </trkpt>
      <trkpt lat="44.55751" lon="4.2429">
        <ele>426</ele>
        <time>2016-05-15T09:51:47.000Z</time>
      </trkpt>
      <trkpt lat="44.55753" lon="4.2429">
        <ele>426</ele>
        <time>2016-05-15T09:51:48.000Z</time>
      </trkpt>
      <trkpt lat="44.55754" lon="4.24291">
        <ele>426</ele>
        <time>2016-05-15T09:51:49.000Z</time>
      </trkpt>
      <trkpt lat="44.55756" lon="4.24292">
        <ele>426</ele>
        <time>2016-05-15T09:51:50.000Z</time>
      </trkpt>
      <trkpt lat="44.55758" lon="4.24293">
        <ele>426</ele>
        <time>2016-05-15T09:51:51.000Z</time>
      </trkpt>
      <trkpt lat="44.55759" lon="4.24294">
        <ele>426</ele>
        <time>2016-05-15T09:51:52.000Z</time>
      </trkpt>
      <trkpt lat="44.55761" lon="4.24296">
        <ele>426</ele>
        <time>2016-05-15T09:51:53.000Z</time>
      </trkpt>
      <trkpt lat="44.55763" lon="4.24298">
        <ele>426</ele>
        <time>2016-05-15T09:51:54.000Z</time>
      </trkpt>
      <trkpt lat="44.55765" lon="4.243">
        <ele>427</ele>
        <time>2016-05-15T09:51:55.000Z</time>
      </trkpt>
      <trkpt lat="44.55767" lon="4.24302">
        <ele>427</ele>
        <time>2016-05-15T09:51:56.000Z</time>
      </trkpt>
      <trkpt lat="44.55769" lon="4.24304">
        <ele>427</ele>
        <time>2016-05-15T09:51:57.000Z</time>
      </trkpt>
      <trkpt lat="44.55771" lon="4.24307">
        <ele>427</ele>
        <time>2016-05-15T09:51:58.000Z</time>
      </trkpt>
      <trkpt lat="44.55772" lon="4.24308">
        <ele>427</ele>
        <time>2016-05-15T09:51:59.000Z</time>
      </trkpt>
      <trkpt lat="44.55774" lon="4.24311">
        <ele>427</ele>
        <time>2016-05-15T09:52:00.000Z</time>
      </trkpt>
      <trkpt lat="44.55775" lon="4.24313">
        <ele>428</ele>
        <time>2016-05-15T09:52:01.000Z</time>
      </trkpt>
      <trkpt lat="44.55776" lon="4.24316">
        <ele>428</ele>
        <time>2016-05-15T09:52:02.000Z</time>
      </trkpt>
      <trkpt lat="44.55778" lon="4.24318">
        <ele>428</ele>
        <time>2016-05-15T09:52:03.000Z</time>
      </trkpt>
      <trkpt lat="44.55779" lon="4.24321">
        <ele>428</ele>
        <time>2016-05-15T09:52:04.000Z</time>
      </trkpt>
      <trkpt lat="44.5578" lon="4.24323">
        <ele>428</ele>
        <time>2016-05-15T09:52:05.000Z</time>
      </trkpt>
      <trkpt lat="44.55781" lon="4.24326">
        <ele>428</ele>
        <time>2016-05-15T09:52:06.000Z</time>
      </trkpt>
      <trkpt lat="44.55783" lon="4.24329">
        <ele>428</ele>
        <time>2016-05-15T09:52:07.000Z</time>
      </trkpt>
      <trkpt lat="44.55784" lon="4.24332">
        <ele>428</ele>
        <time>2016-05-15T09:52:08.000Z</time>
      </trkpt>
      <trkpt lat="44.55785" lon="4.24334">
        <ele>437</ele>
        <time>2016-05-15T09:52:09.000Z</time>
      </trkpt>
      <trkpt lat="44.55786" lon="4.24336">
        <ele>437</ele>
        <time>2016-05-15T09:52:10.000Z</time>
      </trkpt>
      <trkpt lat="44.55788" lon="4.24339">
        <ele>438</ele>
        <time>2016-05-15T09:52:11.000Z</time>
      </trkpt>
      <trkpt lat="44.55789" lon="4.24341">
        <ele>438</ele>
        <time>2016-05-15T09:52:12.000Z</time>
      </trkpt>
      <trkpt lat="44.5579" lon="4.24344">
        <ele>438</ele>
        <time>2016-05-15T09:52:13.000Z</time>
      </trkpt>
      <trkpt lat="44.55792" lon="4.24346">
        <ele>438</ele>
        <time>2016-05-15T09:52:14.000Z</time>
      </trkpt>
      <trkpt lat="44.55793" lon="4.24347">
        <ele>438</ele>
        <time>2016-05-15T09:52:15.000Z</time>
      </trkpt>
      <trkpt lat="44.55794" lon="4.24349">
        <ele>438</ele>
        <time>2016-05-15T09:52:16.000Z</time>
      </trkpt>
      <trkpt lat="44.55795" lon="4.24351">
        <ele>438</ele>
        <time>2016-05-15T09:52:17.000Z</time>
      </trkpt>
      <trkpt lat="44.55797" lon="4.24353">
        <ele>438</ele>
        <time>2016-05-15T09:52:18.000Z</time>
      </trkpt>
      <trkpt lat="44.55798" lon="4.24355">
        <ele>438</ele>
        <time>2016-05-15T09:52:19.000Z</time>
      </trkpt>
      <trkpt lat="44.55799" lon="4.24356">
        <ele>438</ele>
        <time>2016-05-15T09:52:20.000Z</time>
      </trkpt>
      <trkpt lat="44.55801" lon="4.24358">
        <ele>438</ele>
        <time>2016-05-15T09:52:21.000Z</time>
      </trkpt>
      <trkpt lat="44.55803" lon="4.2436">
        <ele>438</ele>
        <time>2016-05-15T09:52:22.000Z</time>
      </trkpt>
      <trkpt lat="44.55804" lon="4.24362">
        <ele>438</ele>
        <time>2016-05-15T09:52:23.000Z</time>
      </trkpt>
      <trkpt lat="44.55805" lon="4.24364">
        <ele>439</ele>
        <time>2016-05-15T09:52:24.000Z</time>
      </trkpt>
      <trkpt lat="44.55807" lon="4.24367">
        <ele>439</ele>
        <time>2016-05-15T09:52:25.000Z</time>
      </trkpt>
      <trkpt lat="44.55808" lon="4.24369">
        <ele>439</ele>
        <time>2016-05-15T09:52:26.000Z</time>
      </trkpt>
      <trkpt lat="44.5581" lon="4.24372">
        <ele>439</ele>
        <time>2016-05-15T09:52:27.000Z</time>
      </trkpt>
      <trkpt lat="44.55812" lon="4.24374">
        <ele>439</ele>
        <time>2016-05-15T09:52:28.000Z</time>
      </trkpt>
      <trkpt lat="44.55813" lon="4.24375">
        <ele>439</ele>
        <time>2016-05-15T09:52:29.000Z</time>
      </trkpt>
      <trkpt lat="44.55815" lon="4.24377">
        <ele>439</ele>
        <time>2016-05-15T09:52:30.000Z</time>
      </trkpt>
      <trkpt lat="44.55817" lon="4.24378">
        <ele>440</ele>
        <time>2016-05-15T09:52:31.000Z</time>
      </trkpt>
      <trkpt lat="44.55819" lon="4.2438">
        <ele>440</ele>
        <time>2016-05-15T09:52:32.000Z</time>
      </trkpt>
      <trkpt lat="44.5582" lon="4.24382">
        <ele>440</ele>
        <time>2016-05-15T09:52:33.000Z</time>
      </trkpt>
      <trkpt lat="44.55822" lon="4.24384">
        <ele>440</ele>
        <time>2016-05-15T09:52:34.000Z</time>
      </trkpt>
      <trkpt lat="44.55824" lon="4.24386">
        <ele>440</ele>
        <time>2016-05-15T09:52:35.000Z</time>
      </trkpt>
      <trkpt lat="44.55826" lon="4.24388">
        <ele>440</ele>
        <time>2016-05-15T09:52:36.000Z</time>
      </trkpt>
      <trkpt lat="44.55827" lon="4.2439">
        <ele>441</ele>
        <time>2016-05-15T09:52:37.000Z</time>
      </trkpt>
      <trkpt lat="44.55829" lon="4.24392">
        <ele>441</ele>
        <time>2016-05-15T09:52:38.000Z</time>
      </trkpt>
      <trkpt lat="44.55831" lon="4.24394">
        <ele>441</ele>
        <time>2016-05-15T09:52:39.000Z</time>
      </trkpt>
      <trkpt lat="44.55832" lon="4.24396">
        <ele>441</ele>
        <time>2016-05-15T09:52:40.000Z</time>
      </trkpt>
      <trkpt lat="44.55835" lon="4.24398">
        <ele>434</ele>
        <time>2016-05-15T09:52:41.000Z</time>
      </trkpt>
      <trkpt lat="44.55836" lon="4.244">
        <ele>435</ele>
        <time>2016-05-15T09:52:42.000Z</time>
      </trkpt>
      <trkpt lat="44.55838" lon="4.24402">
        <ele>435</ele>
        <time>2016-05-15T09:52:43.000Z</time>
      </trkpt>
      <trkpt lat="44.5584" lon="4.24404">
        <ele>436</ele>
        <time>2016-05-15T09:52:44.000Z</time>
      </trkpt>
      <trkpt lat="44.55842" lon="4.24408">
        <ele>436</ele>
        <time>2016-05-15T09:52:45.000Z</time>
      </trkpt>
      <trkpt lat="44.55844" lon="4.24412">
        <ele>437</ele>
        <time>2016-05-15T09:52:46.000Z</time>
      </trkpt>
      <trkpt lat="44.55846" lon="4.24417">
        <ele>436</ele>
        <time>2016-05-15T09:52:47.000Z</time>
      </trkpt>
      <trkpt lat="44.55847" lon="4.24421">
        <ele>441</ele>
        <time>2016-05-15T09:52:48.000Z</time>
      </trkpt>
      <trkpt lat="44.55849" lon="4.24426">
        <ele>441</ele>
        <time>2016-05-15T09:52:49.000Z</time>
      </trkpt>
      <trkpt lat="44.5585" lon="4.24431">
        <ele>440</ele>
        <time>2016-05-15T09:52:50.000Z</time>
      </trkpt>
      <trkpt lat="44.5585" lon="4.24435">
        <ele>440</ele>
        <time>2016-05-15T09:52:51.000Z</time>
      </trkpt>
      <trkpt lat="44.55851" lon="4.2444">
        <ele>440</ele>
        <time>2016-05-15T09:52:52.000Z</time>
      </trkpt>
      <trkpt lat="44.55852" lon="4.24445">
        <ele>441</ele>
        <time>2016-05-15T09:52:53.000Z</time>
      </trkpt>
      <trkpt lat="44.55852" lon="4.2445">
        <ele>441</ele>
        <time>2016-05-15T09:52:54.000Z</time>
      </trkpt>
      <trkpt lat="44.55852" lon="4.24455">
        <ele>441</ele>
        <time>2016-05-15T09:52:55.000Z</time>
      </trkpt>
      <trkpt lat="44.55852" lon="4.2446">
        <ele>442</ele>
        <time>2016-05-15T09:52:56.000Z</time>
      </trkpt>
      <trkpt lat="44.55851" lon="4.24466">
        <ele>443</ele>
        <time>2016-05-15T09:52:57.000Z</time>
      </trkpt>
      <trkpt lat="44.5585" lon="4.24471">
        <ele>443</ele>
        <time>2016-05-15T09:52:58.000Z</time>
      </trkpt>
      <trkpt lat="44.5585" lon="4.24476">
        <ele>444</ele>
        <time>2016-05-15T09:52:59.000Z</time>
      </trkpt>
      <trkpt lat="44.5585" lon="4.24482">
        <ele>446</ele>
        <time>2016-05-15T09:53:00.000Z</time>
      </trkpt>
      <trkpt lat="44.55849" lon="4.24487">
        <ele>447</ele>
        <time>2016-05-15T09:53:01.000Z</time>
      </trkpt>
      <trkpt lat="44.55848" lon="4.24492">
        <ele>448</ele>
        <time>2016-05-15T09:53:02.000Z</time>
      </trkpt>
      <trkpt lat="44.55848" lon="4.24496">
        <ele>449</ele>
        <time>2016-05-15T09:53:03.000Z</time>
      </trkpt>
      <trkpt lat="44.55847" lon="4.24501">
        <ele>455</ele>
        <time>2016-05-15T09:53:04.000Z</time>
      </trkpt>
      <trkpt lat="44.55847" lon="4.24505">
        <ele>455</ele>
        <time>2016-05-15T09:53:05.000Z</time>
      </trkpt>
      <trkpt lat="44.55846" lon="4.24509">
        <ele>455</ele>
        <time>2016-05-15T09:53:06.000Z</time>
      </trkpt>
      <trkpt lat="44.55846" lon="4.24513">
        <ele>455</ele>
        <time>2016-05-15T09:53:07.000Z</time>
      </trkpt>
      <trkpt lat="44.55845" lon="4.24517">
        <ele>455</ele>
        <time>2016-05-15T09:53:08.000Z</time>
      </trkpt>
      <trkpt lat="44.55845" lon="4.2452">
        <ele>455</ele>
        <time>2016-05-15T09:53:09.000Z</time>
      </trkpt>
      <trkpt lat="44.55846" lon="4.24524">
        <ele>455</ele>
        <time>2016-05-15T09:53:10.000Z</time>
      </trkpt>
      <trkpt lat="44.55847" lon="4.24527">
        <ele>455</ele>
        <time>2016-05-15T09:53:11.000Z</time>
      </trkpt>
      <trkpt lat="44.55849" lon="4.2453">
        <ele>455</ele>
        <time>2016-05-15T09:53:12.000Z</time>
      </trkpt>
      <trkpt lat="44.55851" lon="4.24532">
        <ele>454</ele>
        <time>2016-05-15T09:53:13.000Z</time>
      </trkpt>
      <trkpt lat="44.55853" lon="4.24535">
        <ele>454</ele>
        <time>2016-05-15T09:53:14.000Z</time>
      </trkpt>
      <trkpt lat="44.55855" lon="4.24536">
        <ele>454</ele>
        <time>2016-05-15T09:53:15.000Z</time>
      </trkpt>
      <trkpt lat="44.55857" lon="4.24537">
        <ele>454</ele>
        <time>2016-05-15T09:53:16.000Z</time>
      </trkpt>
      <trkpt lat="44.55859" lon="4.24539">
        <ele>454</ele>
        <time>2016-05-15T09:53:17.000Z</time>
      </trkpt>
      <trkpt lat="44.55862" lon="4.2454">
        <ele>454</ele>
        <time>2016-05-15T09:53:18.000Z</time>
      </trkpt>
      <trkpt lat="44.55864" lon="4.24542">
        <ele>454</ele>
        <time>2016-05-15T09:53:19.000Z</time>
      </trkpt>
      <trkpt lat="44.55866" lon="4.24543">
        <ele>453</ele>
        <time>2016-05-15T09:53:20.000Z</time>
      </trkpt>
      <trkpt lat="44.55868" lon="4.24544">
        <ele>453</ele>
        <time>2016-05-15T09:53:21.000Z</time>
      </trkpt>
      <trkpt lat="44.55871" lon="4.24546">
        <ele>453</ele>
        <time>2016-05-15T09:53:22.000Z</time>
      </trkpt>
      <trkpt lat="44.55873" lon="4.24548">
        <ele>453</ele>
        <time>2016-05-15T09:53:23.000Z</time>
      </trkpt>
      <trkpt lat="44.55876" lon="4.24549">
        <ele>453</ele>
        <time>2016-05-15T09:53:24.000Z</time>
      </trkpt>
      <trkpt lat="44.55878" lon="4.2455">
        <ele>452</ele>
        <time>2016-05-15T09:53:25.000Z</time>
      </trkpt>
      <trkpt lat="44.55879" lon="4.24551">
        <ele>452</ele>
        <time>2016-05-15T09:53:26.000Z</time>
      </trkpt>
      <trkpt lat="44.55881" lon="4.24552">
        <ele>452</ele>
        <time>2016-05-15T09:53:27.000Z</time>
      </trkpt>
      <trkpt lat="44.55883" lon="4.24553">
        <ele>452</ele>
        <time>2016-05-15T09:53:28.000Z</time>
      </trkpt>
      <trkpt lat="44.55884" lon="4.24554">
        <ele>452</ele>
        <time>2016-05-15T09:53:29.000Z</time>
      </trkpt>
      <trkpt lat="44.55886" lon="4.24555">
        <ele>452</ele>
        <time>2016-05-15T09:53:30.000Z</time>
      </trkpt>
      <trkpt lat="44.55888" lon="4.24557">
        <ele>452</ele>
        <time>2016-05-15T09:53:31.000Z</time>
      </trkpt>
      <trkpt lat="44.5589" lon="4.24558">
        <ele>452</ele>
        <time>2016-05-15T09:53:32.000Z</time>
      </trkpt>
      <trkpt lat="44.55891" lon="4.2456">
        <ele>451</ele>
        <time>2016-05-15T09:53:33.000Z</time>
      </trkpt>
      <trkpt lat="44.55893" lon="4.24561">
        <ele>451</ele>
        <time>2016-05-15T09:53:34.000Z</time>
      </trkpt>
      <trkpt lat="44.55894" lon="4.24563">
        <ele>451</ele>
        <time>2016-05-15T09:53:35.000Z</time>
      </trkpt>
      <trkpt lat="44.55896" lon="4.24565">
        <ele>451</ele>
        <time>2016-05-15T09:53:36.000Z</time>
      </trkpt>
      <trkpt lat="44.55898" lon="4.24567">
        <ele>451</ele>
        <time>2016-05-15T09:53:37.000Z</time>
      </trkpt>
      <trkpt lat="44.55899" lon="4.24569">
        <ele>451</ele>
        <time>2016-05-15T09:53:38.000Z</time>
      </trkpt>
      <trkpt lat="44.55901" lon="4.24572">
        <ele>451</ele>
        <time>2016-05-15T09:53:39.000Z</time>
      </trkpt>
      <trkpt lat="44.55902" lon="4.24575">
        <ele>451</ele>
        <time>2016-05-15T09:53:40.000Z</time>
      </trkpt>
      <trkpt lat="44.55904" lon="4.24578">
        <ele>451</ele>
        <time>2016-05-15T09:53:41.000Z</time>
      </trkpt>
      <trkpt lat="44.55905" lon="4.24581">
        <ele>451</ele>
        <time>2016-05-15T09:53:42.000Z</time>
      </trkpt>
      <trkpt lat="44.55907" lon="4.24583">
        <ele>451</ele>
        <time>2016-05-15T09:53:43.000Z</time>
      </trkpt>
      <trkpt lat="44.55909" lon="4.24586">
        <ele>455</ele>
        <time>2016-05-15T09:53:44.000Z</time>
      </trkpt>
      <trkpt lat="44.5591" lon="4.24589">
        <ele>455</ele>
        <time>2016-05-15T09:53:45.000Z</time>
      </trkpt>
      <trkpt lat="44.55911" lon="4.24592">
        <ele>456</ele>
        <time>2016-05-15T09:53:46.000Z</time>
      </trkpt>
      <trkpt lat="44.55912" lon="4.24595">
        <ele>457</ele>
        <time>2016-05-15T09:53:47.000Z</time>
      </trkpt>
      <trkpt lat="44.55914" lon="4.24598">
        <ele>458</ele>
        <time>2016-05-15T09:53:48.000Z</time>
      </trkpt>
      <trkpt lat="44.55915" lon="4.24601">
        <ele>459</ele>
        <time>2016-05-15T09:53:49.000Z</time>
      </trkpt>
      <trkpt lat="44.55917" lon="4.24603">
        <ele>447</ele>
        <time>2016-05-15T09:53:50.000Z</time>
      </trkpt>
      <trkpt lat="44.55919" lon="4.24606">
        <ele>447</ele>
        <time>2016-05-15T09:53:51.000Z</time>
      </trkpt>
      <trkpt lat="44.55921" lon="4.2461">
        <ele>447</ele>
        <time>2016-05-15T09:53:52.000Z</time>
      </trkpt>
      <trkpt lat="44.55922" lon="4.24614">
        <ele>447</ele>
        <time>2016-05-15T09:53:53.000Z</time>
      </trkpt>
      <trkpt lat="44.55924" lon="4.24617">
        <ele>447</ele>
        <time>2016-05-15T09:53:54.000Z</time>
      </trkpt>
      <trkpt lat="44.55925" lon="4.24621">
        <ele>447</ele>
        <time>2016-05-15T09:53:55.000Z</time>
      </trkpt>
      <trkpt lat="44.55927" lon="4.24625">
        <ele>447</ele>
        <time>2016-05-15T09:53:56.000Z</time>
      </trkpt>
      <trkpt lat="44.55928" lon="4.2463">
        <ele>448</ele>
        <time>2016-05-15T09:53:57.000Z</time>
      </trkpt>
      <trkpt lat="44.55929" lon="4.24635">
        <ele>448</ele>
        <time>2016-05-15T09:53:58.000Z</time>
      </trkpt>
      <trkpt lat="44.55931" lon="4.2464">
        <ele>449</ele>
        <time>2016-05-15T09:53:59.000Z</time>
      </trkpt>
      <trkpt lat="44.55932" lon="4.24644">
        <ele>449</ele>
        <time>2016-05-15T09:54:00.000Z</time>
      </trkpt>
      <trkpt lat="44.55933" lon="4.24648">
        <ele>450</ele>
        <time>2016-05-15T09:54:01.000Z</time>
      </trkpt>
      <trkpt lat="44.55934" lon="4.24653">
        <ele>451</ele>
        <time>2016-05-15T09:54:02.000Z</time>
      </trkpt>
      <trkpt lat="44.55935" lon="4.24658">
        <ele>451</ele>
        <time>2016-05-15T09:54:03.000Z</time>
      </trkpt>
      <trkpt lat="44.55936" lon="4.24663">
        <ele>452</ele>
        <time>2016-05-15T09:54:04.000Z</time>
      </trkpt>
      <trkpt lat="44.55937" lon="4.24668">
        <ele>456</ele>
        <time>2016-05-15T09:54:05.000Z</time>
      </trkpt>
      <trkpt lat="44.55937" lon="4.24673">
        <ele>456</ele>
        <time>2016-05-15T09:54:06.000Z</time>
      </trkpt>
      <trkpt lat="44.55937" lon="4.24678">
        <ele>456</ele>
        <time>2016-05-15T09:54:07.000Z</time>
      </trkpt>
      <trkpt lat="44.55937" lon="4.24684">
        <ele>455</ele>
        <time>2016-05-15T09:54:08.000Z</time>
      </trkpt>
      <trkpt lat="44.55937" lon="4.24689">
        <ele>455</ele>
        <time>2016-05-15T09:54:09.000Z</time>
      </trkpt>
      <trkpt lat="44.55936" lon="4.24695">
        <ele>455</ele>
        <time>2016-05-15T09:54:10.000Z</time>
      </trkpt>
      <trkpt lat="44.55935" lon="4.247">
        <ele>455</ele>
        <time>2016-05-15T09:54:11.000Z</time>
      </trkpt>
      <trkpt lat="44.55934" lon="4.24706">
        <ele>456</ele>
        <time>2016-05-15T09:54:12.000Z</time>
      </trkpt>
      <trkpt lat="44.55935" lon="4.24712">
        <ele>456</ele>
        <time>2016-05-15T09:54:13.000Z</time>
      </trkpt>
      <trkpt lat="44.55936" lon="4.24717">
        <ele>456</ele>
        <time>2016-05-15T09:54:14.000Z</time>
      </trkpt>
      <trkpt lat="44.55939" lon="4.24722">
        <ele>456</ele>
        <time>2016-05-15T09:54:15.000Z</time>
      </trkpt>
      <trkpt lat="44.55942" lon="4.24725">
        <ele>456</ele>
        <time>2016-05-15T09:54:16.000Z</time>
      </trkpt>
      <trkpt lat="44.55946" lon="4.24726">
        <ele>455</ele>
        <time>2016-05-15T09:54:17.000Z</time>
      </trkpt>
      <trkpt lat="44.55949" lon="4.24728">
        <ele>455</ele>
        <time>2016-05-15T09:54:18.000Z</time>
      </trkpt>
      <trkpt lat="44.55953" lon="4.24729">
        <ele>454</ele>
        <time>2016-05-15T09:54:19.000Z</time>
      </trkpt>
      <trkpt lat="44.55957" lon="4.2473">
        <ele>454</ele>
        <time>2016-05-15T09:54:20.000Z</time>
      </trkpt>
      <trkpt lat="44.5596" lon="4.24732">
        <ele>453</ele>
        <time>2016-05-15T09:54:21.000Z</time>
      </trkpt>
      <trkpt lat="44.55963" lon="4.24735">
        <ele>453</ele>
        <time>2016-05-15T09:54:22.000Z</time>
      </trkpt>
      <trkpt lat="44.55966" lon="4.24738">
        <ele>453</ele>
        <time>2016-05-15T09:54:23.000Z</time>
      </trkpt>
      <trkpt lat="44.55968" lon="4.24741">
        <ele>452</ele>
        <time>2016-05-15T09:54:24.000Z</time>
      </trkpt>
      <trkpt lat="44.55971" lon="4.24745">
        <ele>452</ele>
        <time>2016-05-15T09:54:25.000Z</time>
      </trkpt>
      <trkpt lat="44.55973" lon="4.24749">
        <ele>452</ele>
        <time>2016-05-15T09:54:26.000Z</time>
      </trkpt>
      <trkpt lat="44.55975" lon="4.24753">
        <ele>454</ele>
        <time>2016-05-15T09:54:27.000Z</time>
      </trkpt>
      <trkpt lat="44.55977" lon="4.24757">
        <ele>454</ele>
        <time>2016-05-15T09:54:28.000Z</time>
      </trkpt>
      <trkpt lat="44.55979" lon="4.24762">
        <ele>453</ele>
        <time>2016-05-15T09:54:29.000Z</time>
      </trkpt>
      <trkpt lat="44.55981" lon="4.24766">
        <ele>453</ele>
        <time>2016-05-15T09:54:30.000Z</time>
      </trkpt>
      <trkpt lat="44.55984" lon="4.2477">
        <ele>453</ele>
        <time>2016-05-15T09:54:31.000Z</time>
      </trkpt>
      <trkpt lat="44.55986" lon="4.24774">
        <ele>453</ele>
        <time>2016-05-15T09:54:32.000Z</time>
      </trkpt>
      <trkpt lat="44.55988" lon="4.24777">
        <ele>453</ele>
        <time>2016-05-15T09:54:33.000Z</time>
      </trkpt>
      <trkpt lat="44.55991" lon="4.2478">
        <ele>453</ele>
        <time>2016-05-15T09:54:34.000Z</time>
      </trkpt>
      <trkpt lat="44.55994" lon="4.24781">
        <ele>453</ele>
        <time>2016-05-15T09:54:35.000Z</time>
      </trkpt>
      <trkpt lat="44.55996" lon="4.24783">
        <ele>453</ele>
        <time>2016-05-15T09:54:36.000Z</time>
      </trkpt>
      <trkpt lat="44.55998" lon="4.24784">
        <ele>453</ele>
        <time>2016-05-15T09:54:37.000Z</time>
      </trkpt>
      <trkpt lat="44.56" lon="4.24785">
        <ele>453</ele>
        <time>2016-05-15T09:54:38.000Z</time>
      </trkpt>
      <trkpt lat="44.56002" lon="4.24787">
        <ele>448</ele>
        <time>2016-05-15T09:54:39.000Z</time>
      </trkpt>
      <trkpt lat="44.56004" lon="4.24789">
        <ele>447</ele>
        <time>2016-05-15T09:54:40.000Z</time>
      </trkpt>
      <trkpt lat="44.56006" lon="4.24792">
        <ele>447</ele>
        <time>2016-05-15T09:54:41.000Z</time>
      </trkpt>
      <trkpt lat="44.56009" lon="4.24795">
        <ele>447</ele>
        <time>2016-05-15T09:54:42.000Z</time>
      </trkpt>
      <trkpt lat="44.56012" lon="4.24797">
        <ele>447</ele>
        <time>2016-05-15T09:54:43.000Z</time>
      </trkpt>
      <trkpt lat="44.56015" lon="4.24799">
        <ele>447</ele>
        <time>2016-05-15T09:54:44.000Z</time>
      </trkpt>
      <trkpt lat="44.56019" lon="4.24802">
        <ele>447</ele>
        <time>2016-05-15T09:54:45.000Z</time>
      </trkpt>
      <trkpt lat="44.56022" lon="4.24804">
        <ele>447</ele>
        <time>2016-05-15T09:54:46.000Z</time>
      </trkpt>
      <trkpt lat="44.56027" lon="4.24806">
        <ele>447</ele>
        <time>2016-05-15T09:54:47.000Z</time>
      </trkpt>
      <trkpt lat="44.56031" lon="4.24807">
        <ele>447</ele>
        <time>2016-05-15T09:54:48.000Z</time>
      </trkpt>
      <trkpt lat="44.56036" lon="4.24807">
        <ele>447</ele>
        <time>2016-05-15T09:54:49.000Z</time>
      </trkpt>
      <trkpt lat="44.56041" lon="4.24807">
        <ele>447</ele>
        <time>2016-05-15T09:54:50.000Z</time>
      </trkpt>
      <trkpt lat="44.56046" lon="4.24807">
        <ele>447</ele>
        <time>2016-05-15T09:54:51.000Z</time>
      </trkpt>
      <trkpt lat="44.56052" lon="4.24807">
        <ele>447</ele>
        <time>2016-05-15T09:54:52.000Z</time>
      </trkpt>
      <trkpt lat="44.56057" lon="4.24807">
        <ele>447</ele>
        <time>2016-05-15T09:54:53.000Z</time>
      </trkpt>
      <trkpt lat="44.56062" lon="4.24806">
        <ele>447</ele>
        <time>2016-05-15T09:54:54.000Z</time>
      </trkpt>
      <trkpt lat="44.56067" lon="4.24806">
        <ele>447</ele>
        <time>2016-05-15T09:54:55.000Z</time>
      </trkpt>
      <trkpt lat="44.56072" lon="4.24806">
        <ele>447</ele>
        <time>2016-05-15T09:54:56.000Z</time>
      </trkpt>
      <trkpt lat="44.56077" lon="4.24805">
        <ele>447</ele>
        <time>2016-05-15T09:54:57.000Z</time>
      </trkpt>
      <trkpt lat="44.56081" lon="4.24805">
        <ele>447</ele>
        <time>2016-05-15T09:54:58.000Z</time>
      </trkpt>
      <trkpt lat="44.56086" lon="4.24804">
        <ele>446</ele>
        <time>2016-05-15T09:54:59.000Z</time>
      </trkpt>
      <trkpt lat="44.56091" lon="4.24803">
        <ele>446</ele>
        <time>2016-05-15T09:55:00.000Z</time>
      </trkpt>
      <trkpt lat="44.56096" lon="4.24802">
        <ele>446</ele>
        <time>2016-05-15T09:55:01.000Z</time>
      </trkpt>
      <trkpt lat="44.56102" lon="4.24801">
        <ele>446</ele>
        <time>2016-05-15T09:55:02.000Z</time>
      </trkpt>
      <trkpt lat="44.56107" lon="4.248">
        <ele>446</ele>
        <time>2016-05-15T09:55:03.000Z</time>
      </trkpt>
      <trkpt lat="44.56112" lon="4.248">
        <ele>446</ele>
        <time>2016-05-15T09:55:04.000Z</time>
      </trkpt>
      <trkpt lat="44.56118" lon="4.248">
        <ele>446</ele>
        <time>2016-05-15T09:55:05.000Z</time>
      </trkpt>
      <trkpt lat="44.56123" lon="4.248">
        <ele>446</ele>
        <time>2016-05-15T09:55:06.000Z</time>
      </trkpt>
      <trkpt lat="44.56128" lon="4.248">
        <ele>446</ele>
        <time>2016-05-15T09:55:07.000Z</time>
      </trkpt>
      <trkpt lat="44.56133" lon="4.248">
        <ele>446</ele>
        <time>2016-05-15T09:55:08.000Z</time>
      </trkpt>
      <trkpt lat="44.56138" lon="4.24799">
        <ele>445</ele>
        <time>2016-05-15T09:55:09.000Z</time>
      </trkpt>
      <trkpt lat="44.56144" lon="4.24797">
        <ele>445</ele>
        <time>2016-05-15T09:55:10.000Z</time>
      </trkpt>
      <trkpt lat="44.56151" lon="4.24795">
        <ele>445</ele>
        <time>2016-05-15T09:55:11.000Z</time>
      </trkpt>
      <trkpt lat="44.56158" lon="4.24793">
        <ele>445</ele>
        <time>2016-05-15T09:55:12.000Z</time>
      </trkpt>
      <trkpt lat="44.56165" lon="4.24791">
        <ele>445</ele>
        <time>2016-05-15T09:55:13.000Z</time>
      </trkpt>
      <trkpt lat="44.56172" lon="4.24789">
        <ele>445</ele>
        <time>2016-05-15T09:55:14.000Z</time>
      </trkpt>
      <trkpt lat="44.56178" lon="4.24787">
        <ele>446</ele>
        <time>2016-05-15T09:55:15.000Z</time>
      </trkpt>
      <trkpt lat="44.56185" lon="4.24786">
        <ele>446</ele>
        <time>2016-05-15T09:55:16.000Z</time>
      </trkpt>
      <trkpt lat="44.56192" lon="4.24785">
        <ele>446</ele>
        <time>2016-05-15T09:55:17.000Z</time>
      </trkpt>
      <trkpt lat="44.56198" lon="4.24785">
        <ele>446</ele>
        <time>2016-05-15T09:55:18.000Z</time>
      </trkpt>
      <trkpt lat="44.56204" lon="4.24784">
        <ele>446</ele>
        <time>2016-05-15T09:55:19.000Z</time>
      </trkpt>
      <trkpt lat="44.56209" lon="4.24783">
        <ele>446</ele>
        <time>2016-05-15T09:55:20.000Z</time>
      </trkpt>
      <trkpt lat="44.56213" lon="4.24782">
        <ele>446</ele>
        <time>2016-05-15T09:55:21.000Z</time>
      </trkpt>
      <trkpt lat="44.56216" lon="4.24782">
        <ele>446</ele>
        <time>2016-05-15T09:55:22.000Z</time>
      </trkpt>
      <trkpt lat="44.56218" lon="4.24781">
        <ele>446</ele>
        <time>2016-05-15T09:55:23.000Z</time>
      </trkpt>
      <trkpt lat="44.5622" lon="4.2478">
        <ele>447</ele>
        <time>2016-05-15T09:55:24.000Z</time>
      </trkpt>
      <trkpt lat="44.56221" lon="4.24779">
        <ele>447</ele>
        <time>2016-05-15T09:55:25.000Z</time>
      </trkpt>
      <trkpt lat="44.56223" lon="4.24778">
        <ele>447</ele>
        <time>2016-05-15T09:55:26.000Z</time>
      </trkpt>
      <trkpt lat="44.56224" lon="4.24776">
        <ele>447</ele>
        <time>2016-05-15T09:55:27.000Z</time>
      </trkpt>
      <trkpt lat="44.56226" lon="4.24775">
        <ele>447</ele>
        <time>2016-05-15T09:55:28.000Z</time>
      </trkpt>
      <trkpt lat="44.56227" lon="4.24774">
        <ele>447</ele>
        <time>2016-05-15T09:55:29.000Z</time>
      </trkpt>
      <trkpt lat="44.56229" lon="4.24772">
        <ele>447</ele>
        <time>2016-05-15T09:55:30.000Z</time>
      </trkpt>
      <trkpt lat="44.56231" lon="4.24772">
        <ele>447</ele>
        <time>2016-05-15T09:55:31.000Z</time>
      </trkpt>
      <trkpt lat="44.56232" lon="4.24771">
        <ele>447</ele>
        <time>2016-05-15T09:55:32.000Z</time>
      </trkpt>
      <trkpt lat="44.56234" lon="4.2477">
        <ele>447</ele>
        <time>2016-05-15T09:55:33.000Z</time>
      </trkpt>
      <trkpt lat="44.56236" lon="4.24769">
        <ele>447</ele>
        <time>2016-05-15T09:55:34.000Z</time>
      </trkpt>
      <trkpt lat="44.56238" lon="4.24768">
        <ele>447</ele>
        <time>2016-05-15T09:55:35.000Z</time>
      </trkpt>
      <trkpt lat="44.5624" lon="4.24767">
        <ele>447</ele>
        <time>2016-05-15T09:55:36.000Z</time>
      </trkpt>
      <trkpt lat="44.56241" lon="4.24766">
        <ele>448</ele>
        <time>2016-05-15T09:55:37.000Z</time>
      </trkpt>
      <trkpt lat="44.56243" lon="4.24766">
        <ele>448</ele>
        <time>2016-05-15T09:55:38.000Z</time>
      </trkpt>
      <trkpt lat="44.56245" lon="4.24765">
        <ele>448</ele>
        <time>2016-05-15T09:55:39.000Z</time>
      </trkpt>
      <trkpt lat="44.56247" lon="4.24765">
        <ele>448</ele>
        <time>2016-05-15T09:55:40.000Z</time>
      </trkpt>
      <trkpt lat="44.56248" lon="4.24764">
        <ele>448</ele>
        <time>2016-05-15T09:55:41.000Z</time>
      </trkpt>
      <trkpt lat="44.5625" lon="4.24764">
        <ele>449</ele>
        <time>2016-05-15T09:55:42.000Z</time>
      </trkpt>
      <trkpt lat="44.56252" lon="4.24764">
        <ele>450</ele>
        <time>2016-05-15T09:55:43.000Z</time>
      </trkpt>
      <trkpt lat="44.56254" lon="4.24764">
        <ele>450</ele>
        <time>2016-05-15T09:55:44.000Z</time>
      </trkpt>
      <trkpt lat="44.56256" lon="4.24764">
        <ele>450</ele>
        <time>2016-05-15T09:55:45.000Z</time>
      </trkpt>
      <trkpt lat="44.56258" lon="4.24763">
        <ele>451</ele>
        <time>2016-05-15T09:55:46.000Z</time>
      </trkpt>
      <trkpt lat="44.56259" lon="4.24763">
        <ele>451</ele>
        <time>2016-05-15T09:55:47.000Z</time>
      </trkpt>
      <trkpt lat="44.56261" lon="4.24762">
        <ele>451</ele>
        <time>2016-05-15T09:55:48.000Z</time>
      </trkpt>
      <trkpt lat="44.56263" lon="4.24762">
        <ele>451</ele>
        <time>2016-05-15T09:55:49.000Z</time>
      </trkpt>
      <trkpt lat="44.56264" lon="4.24762">
        <ele>451</ele>
        <time>2016-05-15T09:55:50.000Z</time>
      </trkpt>
      <trkpt lat="44.56266" lon="4.24761">
        <ele>451</ele>
        <time>2016-05-15T09:55:51.000Z</time>
      </trkpt>
      <trkpt lat="44.56268" lon="4.24761">
        <ele>451</ele>
        <time>2016-05-15T09:55:52.000Z</time>
      </trkpt>
      <trkpt lat="44.5627" lon="4.24761">
        <ele>451</ele>
        <time>2016-05-15T09:55:53.000Z</time>
      </trkpt>
      <trkpt lat="44.56272" lon="4.24761">
        <ele>451</ele>
        <time>2016-05-15T09:55:54.000Z</time>
      </trkpt>
      <trkpt lat="44.56273" lon="4.24761">
        <ele>451</ele>
        <time>2016-05-15T09:55:55.000Z</time>
      </trkpt>
      <trkpt lat="44.56275" lon="4.2476">
        <ele>452</ele>
        <time>2016-05-15T09:55:56.000Z</time>
      </trkpt>
      <trkpt lat="44.56276" lon="4.2476">
        <ele>452</ele>
        <time>2016-05-15T09:55:57.000Z</time>
      </trkpt>
      <trkpt lat="44.56277" lon="4.2476">
        <ele>452</ele>
        <time>2016-05-15T09:55:58.000Z</time>
      </trkpt>
      <trkpt lat="44.56279" lon="4.2476">
        <ele>452</ele>
        <time>2016-05-15T09:55:59.000Z</time>
      </trkpt>
      <trkpt lat="44.56281" lon="4.24761">
        <ele>452</ele>
        <time>2016-05-15T09:56:00.000Z</time>
      </trkpt>
      <trkpt lat="44.56282" lon="4.24761">
        <ele>452</ele>
        <time>2016-05-15T09:56:01.000Z</time>
      </trkpt>
      <trkpt lat="44.56283" lon="4.24761">
        <ele>452</ele>
        <time>2016-05-15T09:56:02.000Z</time>
      </trkpt>
      <trkpt lat="44.56285" lon="4.24761">
        <ele>452</ele>
        <time>2016-05-15T09:56:03.000Z</time>
      </trkpt>
      <trkpt lat="44.56287" lon="4.24762">
        <ele>452</ele>
        <time>2016-05-15T09:56:04.000Z</time>
      </trkpt>
      <trkpt lat="44.56289" lon="4.24763">
        <ele>453</ele>
        <time>2016-05-15T09:56:05.000Z</time>
      </trkpt>
      <trkpt lat="44.56291" lon="4.24765">
        <ele>453</ele>
        <time>2016-05-15T09:56:06.000Z</time>
      </trkpt>
      <trkpt lat="44.56292" lon="4.24767">
        <ele>453</ele>
        <time>2016-05-15T09:56:07.000Z</time>
      </trkpt>
      <trkpt lat="44.56294" lon="4.24769">
        <ele>453</ele>
        <time>2016-05-15T09:56:08.000Z</time>
      </trkpt>
      <trkpt lat="44.56295" lon="4.24771">
        <ele>453</ele>
        <time>2016-05-15T09:56:09.000Z</time>
      </trkpt>
      <trkpt lat="44.56296" lon="4.24773">
        <ele>453</ele>
        <time>2016-05-15T09:56:10.000Z</time>
      </trkpt>
      <trkpt lat="44.56297" lon="4.24775">
        <ele>453</ele>
        <time>2016-05-15T09:56:11.000Z</time>
      </trkpt>
      <trkpt lat="44.56299" lon="4.24777">
        <ele>453</ele>
        <time>2016-05-15T09:56:12.000Z</time>
      </trkpt>
      <trkpt lat="44.56301" lon="4.24778">
        <ele>453</ele>
        <time>2016-05-15T09:56:13.000Z</time>
      </trkpt>
      <trkpt lat="44.56303" lon="4.2478">
        <ele>453</ele>
        <time>2016-05-15T09:56:14.000Z</time>
      </trkpt>
      <trkpt lat="44.56305" lon="4.24781">
        <ele>453</ele>
        <time>2016-05-15T09:56:15.000Z</time>
      </trkpt>
      <trkpt lat="44.56307" lon="4.24783">
        <ele>453</ele>
        <time>2016-05-15T09:56:16.000Z</time>
      </trkpt>
      <trkpt lat="44.5631" lon="4.24784">
        <ele>454</ele>
        <time>2016-05-15T09:56:17.000Z</time>
      </trkpt>
      <trkpt lat="44.56313" lon="4.24786">
        <ele>454</ele>
        <time>2016-05-15T09:56:18.000Z</time>
      </trkpt>
      <trkpt lat="44.56316" lon="4.24788">
        <ele>454</ele>
        <time>2016-05-15T09:56:19.000Z</time>
      </trkpt>
      <trkpt lat="44.5632" lon="4.24789">
        <ele>454</ele>
        <time>2016-05-15T09:56:20.000Z</time>
      </trkpt>
      <trkpt lat="44.56324" lon="4.24791">
        <ele>454</ele>
        <time>2016-05-15T09:56:21.000Z</time>
      </trkpt>
      <trkpt lat="44.56329" lon="4.24794">
        <ele>454</ele>
        <time>2016-05-15T09:56:22.000Z</time>
      </trkpt>
      <trkpt lat="44.56334" lon="4.24797">
        <ele>461</ele>
        <time>2016-05-15T09:56:23.000Z</time>
      </trkpt>
      <trkpt lat="44.56339" lon="4.24799">
        <ele>461</ele>
        <time>2016-05-15T09:56:24.000Z</time>
      </trkpt>
      <trkpt lat="44.56345" lon="4.24801">
        <ele>461</ele>
        <time>2016-05-15T09:56:25.000Z</time>
      </trkpt>
      <trkpt lat="44.56351" lon="4.24804">
        <ele>461</ele>
        <time>2016-05-15T09:56:26.000Z</time>
      </trkpt>
      <trkpt lat="44.56356" lon="4.24807">
        <ele>461</ele>
        <time>2016-05-15T09:56:27.000Z</time>
      </trkpt>
      <trkpt lat="44.56361" lon="4.24811">
        <ele>461</ele>
        <time>2016-05-15T09:56:28.000Z</time>
      </trkpt>
      <trkpt lat="44.56364" lon="4.24816">
        <ele>462</ele>
        <time>2016-05-15T09:56:29.000Z</time>
      </trkpt>
      <trkpt lat="44.56367" lon="4.24819">
        <ele>462</ele>
        <time>2016-05-15T09:56:30.000Z</time>
      </trkpt>
      <trkpt lat="44.56369" lon="4.24824">
        <ele>462</ele>
        <time>2016-05-15T09:56:31.000Z</time>
      </trkpt>
      <trkpt lat="44.56371" lon="4.24828">
        <ele>462</ele>
        <time>2016-05-15T09:56:32.000Z</time>
      </trkpt>
      <trkpt lat="44.56373" lon="4.24831">
        <ele>462</ele>
        <time>2016-05-15T09:56:33.000Z</time>
      </trkpt>
      <trkpt lat="44.56374" lon="4.24835">
        <ele>460</ele>
        <time>2016-05-15T09:56:34.000Z</time>
      </trkpt>
      <trkpt lat="44.56375" lon="4.24839">
        <ele>460</ele>
        <time>2016-05-15T09:56:35.000Z</time>
      </trkpt>
      <trkpt lat="44.56376" lon="4.24842">
        <ele>460</ele>
        <time>2016-05-15T09:56:36.000Z</time>
      </trkpt>
      <trkpt lat="44.56376" lon="4.24846">
        <ele>460</ele>
        <time>2016-05-15T09:56:37.000Z</time>
      </trkpt>
      <trkpt lat="44.56377" lon="4.24849">
        <ele>460</ele>
        <time>2016-05-15T09:56:38.000Z</time>
      </trkpt>
      <trkpt lat="44.56378" lon="4.24851">
        <ele>460</ele>
        <time>2016-05-15T09:56:39.000Z</time>
      </trkpt>
      <trkpt lat="44.56379" lon="4.24854">
        <ele>460</ele>
        <time>2016-05-15T09:56:40.000Z</time>
      </trkpt>
      <trkpt lat="44.56379" lon="4.24858">
        <ele>460</ele>
        <time>2016-05-15T09:56:41.000Z</time>
      </trkpt>
      <trkpt lat="44.56379" lon="4.24861">
        <ele>460</ele>
        <time>2016-05-15T09:56:42.000Z</time>
      </trkpt>
      <trkpt lat="44.5638" lon="4.24865">
        <ele>460</ele>
        <time>2016-05-15T09:56:43.000Z</time>
      </trkpt>
      <trkpt lat="44.56381" lon="4.24868">
        <ele>460</ele>
        <time>2016-05-15T09:56:44.000Z</time>
      </trkpt>
      <trkpt lat="44.56383" lon="4.24871">
        <ele>460</ele>
        <time>2016-05-15T09:56:45.000Z</time>
      </trkpt>
      <trkpt lat="44.56384" lon="4.24874">
        <ele>460</ele>
        <time>2016-05-15T09:56:46.000Z</time>
      </trkpt>
      <trkpt lat="44.56386" lon="4.24877">
        <ele>460</ele>
        <time>2016-05-15T09:56:47.000Z</time>
      </trkpt>
      <trkpt lat="44.56387" lon="4.24881">
        <ele>460</ele>
        <time>2016-05-15T09:56:48.000Z</time>
      </trkpt>
      <trkpt lat="44.56388" lon="4.24884">
        <ele>460</ele>
        <time>2016-05-15T09:56:49.000Z</time>
      </trkpt>
      <trkpt lat="44.56389" lon="4.24888">
        <ele>460</ele>
        <time>2016-05-15T09:56:50.000Z</time>
      </trkpt>
      <trkpt lat="44.5639" lon="4.24891">
        <ele>460</ele>
        <time>2016-05-15T09:56:51.000Z</time>
      </trkpt>
      <trkpt lat="44.56392" lon="4.24895">
        <ele>460</ele>
        <time>2016-05-15T09:56:52.000Z</time>
      </trkpt>
      <trkpt lat="44.56394" lon="4.24899">
        <ele>460</ele>
        <time>2016-05-15T09:56:53.000Z</time>
      </trkpt>
      <trkpt lat="44.56396" lon="4.24902">
        <ele>460</ele>
        <time>2016-05-15T09:56:54.000Z</time>
      </trkpt>
      <trkpt lat="44.56398" lon="4.24907">
        <ele>460</ele>
        <time>2016-05-15T09:56:55.000Z</time>
      </trkpt>
      <trkpt lat="44.564" lon="4.24911">
        <ele>460</ele>
        <time>2016-05-15T09:56:56.000Z</time>
      </trkpt>
      <trkpt lat="44.56403" lon="4.24916">
        <ele>460</ele>
        <time>2016-05-15T09:56:57.000Z</time>
      </trkpt>
      <trkpt lat="44.56406" lon="4.24921">
        <ele>458</ele>
        <time>2016-05-15T09:56:58.000Z</time>
      </trkpt>
      <trkpt lat="44.5641" lon="4.24926">
        <ele>458</ele>
        <time>2016-05-15T09:56:59.000Z</time>
      </trkpt>
      <trkpt lat="44.56414" lon="4.24931">
        <ele>458</ele>
        <time>2016-05-15T09:57:00.000Z</time>
      </trkpt>
      <trkpt lat="44.5642" lon="4.24934">
        <ele>459</ele>
        <time>2016-05-15T09:57:01.000Z</time>
      </trkpt>
      <trkpt lat="44.56426" lon="4.24937">
        <ele>459</ele>
        <time>2016-05-15T09:57:02.000Z</time>
      </trkpt>
      <trkpt lat="44.56432" lon="4.24939">
        <ele>458</ele>
        <time>2016-05-15T09:57:03.000Z</time>
      </trkpt>
      <trkpt lat="44.56439" lon="4.24941">
        <ele>458</ele>
        <time>2016-05-15T09:57:04.000Z</time>
      </trkpt>
      <trkpt lat="44.56447" lon="4.24944">
        <ele>458</ele>
        <time>2016-05-15T09:57:05.000Z</time>
      </trkpt>
      <trkpt lat="44.56455" lon="4.24945">
        <ele>458</ele>
        <time>2016-05-15T09:57:06.000Z</time>
      </trkpt>
      <trkpt lat="44.56462" lon="4.24947">
        <ele>458</ele>
        <time>2016-05-15T09:57:07.000Z</time>
      </trkpt>
      <trkpt lat="44.5647" lon="4.24949">
        <ele>458</ele>
        <time>2016-05-15T09:57:08.000Z</time>
      </trkpt>
      <trkpt lat="44.56477" lon="4.24953">
        <ele>458</ele>
        <time>2016-05-15T09:57:09.000Z</time>
      </trkpt>
      <trkpt lat="44.56483" lon="4.24959">
        <ele>458</ele>
        <time>2016-05-15T09:57:10.000Z</time>
      </trkpt>
      <trkpt lat="44.56487" lon="4.24967">
        <ele>457</ele>
        <time>2016-05-15T09:57:11.000Z</time>
      </trkpt>
      <trkpt lat="44.56491" lon="4.24976">
        <ele>456</ele>
        <time>2016-05-15T09:57:12.000Z</time>
      </trkpt>
      <trkpt lat="44.56494" lon="4.24984">
        <ele>456</ele>
        <time>2016-05-15T09:57:13.000Z</time>
      </trkpt>
      <trkpt lat="44.56495" lon="4.24993">
        <ele>455</ele>
        <time>2016-05-15T09:57:14.000Z</time>
      </trkpt>
      <trkpt lat="44.56496" lon="4.25002">
        <ele>453</ele>
        <time>2016-05-15T09:57:15.000Z</time>
      </trkpt>
      <trkpt lat="44.56495" lon="4.2501">
        <ele>452</ele>
        <time>2016-05-15T09:57:16.000Z</time>
      </trkpt>
      <trkpt lat="44.56494" lon="4.25018">
        <ele>452</ele>
        <time>2016-05-15T09:57:17.000Z</time>
      </trkpt>
      <trkpt lat="44.56491" lon="4.25026">
        <ele>451</ele>
        <time>2016-05-15T09:57:18.000Z</time>
      </trkpt>
      <trkpt lat="44.56489" lon="4.25035">
        <ele>451</ele>
        <time>2016-05-15T09:57:19.000Z</time>
      </trkpt>
      <trkpt lat="44.56487" lon="4.25044">
        <ele>450</ele>
        <time>2016-05-15T09:57:20.000Z</time>
      </trkpt>
      <trkpt lat="44.56485" lon="4.25053">
        <ele>450</ele>
        <time>2016-05-15T09:57:21.000Z</time>
      </trkpt>
      <trkpt lat="44.56483" lon="4.25063">
        <ele>450</ele>
        <time>2016-05-15T09:57:22.000Z</time>
      </trkpt>
      <trkpt lat="44.5648" lon="4.25072">
        <ele>450</ele>
        <time>2016-05-15T09:57:23.000Z</time>
      </trkpt>
      <trkpt lat="44.56477" lon="4.25081">
        <ele>450</ele>
        <time>2016-05-15T09:57:24.000Z</time>
      </trkpt>
      <trkpt lat="44.56473" lon="4.25089">
        <ele>449</ele>
        <time>2016-05-15T09:57:25.000Z</time>
      </trkpt>
      <trkpt lat="44.56467" lon="4.25097">
        <ele>448</ele>
        <time>2016-05-15T09:57:26.000Z</time>
      </trkpt>
      <trkpt lat="44.56463" lon="4.25105">
        <ele>448</ele>
        <time>2016-05-15T09:57:27.000Z</time>
      </trkpt>
      <trkpt lat="44.56459" lon="4.25114">
        <ele>448</ele>
        <time>2016-05-15T09:57:28.000Z</time>
      </trkpt>
      <trkpt lat="44.56457" lon="4.25123">
        <ele>448</ele>
        <time>2016-05-15T09:57:29.000Z</time>
      </trkpt>
      <trkpt lat="44.56456" lon="4.25132">
        <ele>448</ele>
        <time>2016-05-15T09:57:30.000Z</time>
      </trkpt>
      <trkpt lat="44.56456" lon="4.25139">
        <ele>448</ele>
        <time>2016-05-15T09:57:31.000Z</time>
      </trkpt>
      <trkpt lat="44.56456" lon="4.25144">
        <ele>448</ele>
        <time>2016-05-15T09:57:32.000Z</time>
      </trkpt>
      <trkpt lat="44.56456" lon="4.25149">
        <ele>448</ele>
        <time>2016-05-15T09:57:33.000Z</time>
      </trkpt>
      <trkpt lat="44.56456" lon="4.25152">
        <ele>448</ele>
        <time>2016-05-15T09:57:34.000Z</time>
      </trkpt>
      <trkpt lat="44.56456" lon="4.25156">
        <ele>448</ele>
        <time>2016-05-15T09:57:35.000Z</time>
      </trkpt>
      <trkpt lat="44.56457" lon="4.25159">
        <ele>448</ele>
        <time>2016-05-15T09:57:36.000Z</time>
      </trkpt>
      <trkpt lat="44.56457" lon="4.25162">
        <ele>448</ele>
        <time>2016-05-15T09:57:37.000Z</time>
      </trkpt>
      <trkpt lat="44.56457" lon="4.25165">
        <ele>448</ele>
        <time>2016-05-15T09:57:38.000Z</time>
      </trkpt>
      <trkpt lat="44.56457" lon="4.25168">
        <ele>446</ele>
        <time>2016-05-15T09:57:39.000Z</time>
      </trkpt>
      <trkpt lat="44.56457" lon="4.2517">
        <ele>446</ele>
        <time>2016-05-15T09:57:40.000Z</time>
      </trkpt>
      <trkpt lat="44.56457" lon="4.25172">
        <ele>446</ele>
        <time>2016-05-15T09:57:41.000Z</time>
      </trkpt>
      <trkpt lat="44.56458" lon="4.25173">
        <ele>446</ele>
        <time>2016-05-15T09:57:42.000Z</time>
      </trkpt>
      <trkpt lat="44.56458" lon="4.25174">
        <ele>446</ele>
        <time>2016-05-15T09:57:43.000Z</time>
      </trkpt>
      <trkpt lat="44.56458" lon="4.25174">
        <ele>446</ele>
        <time>2016-05-15T09:57:44.000Z</time>
      </trkpt>
      <trkpt lat="44.56458" lon="4.25174">
        <ele>446</ele>
        <time>2016-05-15T09:57:45.000Z</time>
      </trkpt>
      <trkpt lat="44.56584" lon="4.25294">
        <ele>435</ele>
        <time>2016-05-15T09:57:46.000Z</time>
      </trkpt>
      <trkpt lat="44.56585" lon="4.25299">
        <ele>435</ele>
        <time>2016-05-15T09:57:47.000Z</time>
      </trkpt>
      <trkpt lat="44.56586" lon="4.25303">
        <ele>435</ele>
        <time>2016-05-15T09:57:48.000Z</time>
      </trkpt>
      <trkpt lat="44.56586" lon="4.25307">
        <ele>434</ele>
        <time>2016-05-15T09:57:49.000Z</time>
      </trkpt>
      <trkpt lat="44.56587" lon="4.2531">
        <ele>434</ele>
        <time>2016-05-15T09:57:50.000Z</time>
      </trkpt>
      <trkpt lat="44.56587" lon="4.25315">
        <ele>434</ele>
        <time>2016-05-15T09:57:51.000Z</time>
      </trkpt>
      <trkpt lat="44.56587" lon="4.25319">
        <ele>434</ele>
        <time>2016-05-15T09:57:52.000Z</time>
      </trkpt>
      <trkpt lat="44.56588" lon="4.25322">
        <ele>433</ele>
        <time>2016-05-15T09:57:53.000Z</time>
      </trkpt>
      <trkpt lat="44.56588" lon="4.25325">
        <ele>433</ele>
        <time>2016-05-15T09:57:54.000Z</time>
      </trkpt>
      <trkpt lat="44.56588" lon="4.25329">
        <ele>433</ele>
        <time>2016-05-15T09:57:55.000Z</time>
      </trkpt>
      <trkpt lat="44.56588" lon="4.25332">
        <ele>433</ele>
        <time>2016-05-15T09:57:56.000Z</time>
      </trkpt>
      <trkpt lat="44.56588" lon="4.25335">
        <ele>432</ele>
        <time>2016-05-15T09:57:57.000Z</time>
      </trkpt>
      <trkpt lat="44.56588" lon="4.25338">
        <ele>433</ele>
        <time>2016-05-15T09:57:58.000Z</time>
      </trkpt>
      <trkpt lat="44.56587" lon="4.25342">
        <ele>433</ele>
        <time>2016-05-15T09:57:59.000Z</time>
      </trkpt>
      <trkpt lat="44.56587" lon="4.25345">
        <ele>433</ele>
        <time>2016-05-15T09:58:00.000Z</time>
      </trkpt>
      <trkpt lat="44.56587" lon="4.25348">
        <ele>433</ele>
        <time>2016-05-15T09:58:01.000Z</time>
      </trkpt>
      <trkpt lat="44.56587" lon="4.25351">
        <ele>433</ele>
        <time>2016-05-15T09:58:02.000Z</time>
      </trkpt>
      <trkpt lat="44.56587" lon="4.25354">
        <ele>433</ele>
        <time>2016-05-15T09:58:03.000Z</time>
      </trkpt>
      <trkpt lat="44.56587" lon="4.25357">
        <ele>434</ele>
        <time>2016-05-15T09:58:04.000Z</time>
      </trkpt>
      <trkpt lat="44.56587" lon="4.2536">
        <ele>434</ele>
        <time>2016-05-15T09:58:05.000Z</time>
      </trkpt>
      <trkpt lat="44.56587" lon="4.25364">
        <ele>434</ele>
        <time>2016-05-15T09:58:06.000Z</time>
      </trkpt>
      <trkpt lat="44.56587" lon="4.25368">
        <ele>434</ele>
        <time>2016-05-15T09:58:07.000Z</time>
      </trkpt>
      <trkpt lat="44.56587" lon="4.25373">
        <ele>434</ele>
        <time>2016-05-15T09:58:08.000Z</time>
      </trkpt>
      <trkpt lat="44.56588" lon="4.25377">
        <ele>434</ele>
        <time>2016-05-15T09:58:09.000Z</time>
      </trkpt>
      <trkpt lat="44.56589" lon="4.25382">
        <ele>434</ele>
        <time>2016-05-15T09:58:10.000Z</time>
      </trkpt>
      <trkpt lat="44.5659" lon="4.25387">
        <ele>434</ele>
        <time>2016-05-15T09:58:11.000Z</time>
      </trkpt>
      <trkpt lat="44.56591" lon="4.25391">
        <ele>434</ele>
        <time>2016-05-15T09:58:12.000Z</time>
      </trkpt>
      <trkpt lat="44.56592" lon="4.25396">
        <ele>434</ele>
        <time>2016-05-15T09:58:13.000Z</time>
      </trkpt>
      <trkpt lat="44.56594" lon="4.25401">
        <ele>434</ele>
        <time>2016-05-15T09:58:14.000Z</time>
      </trkpt>
      <trkpt lat="44.56596" lon="4.25405">
        <ele>434</ele>
        <time>2016-05-15T09:58:15.000Z</time>
      </trkpt>
      <trkpt lat="44.56598" lon="4.2541">
        <ele>434</ele>
        <time>2016-05-15T09:58:16.000Z</time>
      </trkpt>
      <trkpt lat="44.566" lon="4.25414">
        <ele>434</ele>
        <time>2016-05-15T09:58:17.000Z</time>
      </trkpt>
      <trkpt lat="44.56603" lon="4.25419">
        <ele>434</ele>
        <time>2016-05-15T09:58:18.000Z</time>
      </trkpt>
      <trkpt lat="44.56605" lon="4.25424">
        <ele>434</ele>
        <time>2016-05-15T09:58:19.000Z</time>
      </trkpt>
      <trkpt lat="44.56608" lon="4.25429">
        <ele>434</ele>
        <time>2016-05-15T09:58:20.000Z</time>
      </trkpt>
      <trkpt lat="44.5661" lon="4.25435">
        <ele>434</ele>
        <time>2016-05-15T09:58:21.000Z</time>
      </trkpt>
      <trkpt lat="44.56613" lon="4.2544">
        <ele>434</ele>
        <time>2016-05-15T09:58:22.000Z</time>
      </trkpt>
      <trkpt lat="44.56616" lon="4.25445">
        <ele>434</ele>
        <time>2016-05-15T09:58:23.000Z</time>
      </trkpt>
      <trkpt lat="44.56619" lon="4.2545">
        <ele>434</ele>
        <time>2016-05-15T09:58:24.000Z</time>
      </trkpt>
      <trkpt lat="44.56621" lon="4.25455">
        <ele>434</ele>
        <time>2016-05-15T09:58:25.000Z</time>
      </trkpt>
      <trkpt lat="44.56624" lon="4.2546">
        <ele>434</ele>
        <time>2016-05-15T09:58:26.000Z</time>
      </trkpt>
      <trkpt lat="44.56627" lon="4.25465">
        <ele>434</ele>
        <time>2016-05-15T09:58:27.000Z</time>
      </trkpt>
      <trkpt lat="44.56629" lon="4.2547">
        <ele>434</ele>
        <time>2016-05-15T09:58:28.000Z</time>
      </trkpt>
      <trkpt lat="44.56632" lon="4.25475">
        <ele>434</ele>
        <time>2016-05-15T09:58:29.000Z</time>
      </trkpt>
      <trkpt lat="44.56633" lon="4.25479">
        <ele>434</ele>
        <time>2016-05-15T09:58:30.000Z</time>
      </trkpt>
      <trkpt lat="44.56634" lon="4.25484">
        <ele>434</ele>
        <time>2016-05-15T09:58:31.000Z</time>
      </trkpt>
      <trkpt lat="44.56635" lon="4.25488">
        <ele>434</ele>
        <time>2016-05-15T09:58:32.000Z</time>
      </trkpt>
      <trkpt lat="44.56635" lon="4.25492">
        <ele>434</ele>
        <time>2016-05-15T09:58:33.000Z</time>
      </trkpt>
      <trkpt lat="44.56636" lon="4.25496">
        <ele>434</ele>
        <time>2016-05-15T09:58:34.000Z</time>
      </trkpt>
      <trkpt lat="44.56636" lon="4.255">
        <ele>434</ele>
        <time>2016-05-15T09:58:35.000Z</time>
      </trkpt>
      <trkpt lat="44.56636" lon="4.25504">
        <ele>434</ele>
        <time>2016-05-15T09:58:36.000Z</time>
      </trkpt>
      <trkpt lat="44.56636" lon="4.25509">
        <ele>434</ele>
        <time>2016-05-15T09:58:37.000Z</time>
      </trkpt>
      <trkpt lat="44.56636" lon="4.25513">
        <ele>434</ele>
        <time>2016-05-15T09:58:38.000Z</time>
      </trkpt>
      <trkpt lat="44.56635" lon="4.25517">
        <ele>434</ele>
        <time>2016-05-15T09:58:39.000Z</time>
      </trkpt>
      <trkpt lat="44.56635" lon="4.25521">
        <ele>434</ele>
        <time>2016-05-15T09:58:40.000Z</time>
      </trkpt>
      <trkpt lat="44.56635" lon="4.25525">
        <ele>434</ele>
        <time>2016-05-15T09:58:41.000Z</time>
      </trkpt>
      <trkpt lat="44.56634" lon="4.2553">
        <ele>434</ele>
        <time>2016-05-15T09:58:42.000Z</time>
      </trkpt>
      <trkpt lat="44.56634" lon="4.25533">
        <ele>434</ele>
        <time>2016-05-15T09:58:43.000Z</time>
      </trkpt>
      <trkpt lat="44.56634" lon="4.25535">
        <ele>434</ele>
        <time>2016-05-15T09:58:44.000Z</time>
      </trkpt>
      <trkpt lat="44.56635" lon="4.25538">
        <ele>434</ele>
        <time>2016-05-15T09:58:45.000Z</time>
      </trkpt>
      <trkpt lat="44.56635" lon="4.2554">
        <ele>434</ele>
        <time>2016-05-15T09:58:46.000Z</time>
      </trkpt>
      <trkpt lat="44.56636" lon="4.25543">
        <ele>434</ele>
        <time>2016-05-15T09:58:47.000Z</time>
      </trkpt>
      <trkpt lat="44.56636" lon="4.25546">
        <ele>434</ele>
        <time>2016-05-15T09:58:48.000Z</time>
      </trkpt>
      <trkpt lat="44.56637" lon="4.25548">
        <ele>434</ele>
        <time>2016-05-15T09:58:49.000Z</time>
      </trkpt>
      <trkpt lat="44.56638" lon="4.25551">
        <ele>434</ele>
        <time>2016-05-15T09:58:50.000Z</time>
      </trkpt>
      <trkpt lat="44.56638" lon="4.25553">
        <ele>434</ele>
        <time>2016-05-15T09:58:51.000Z</time>
      </trkpt>
      <trkpt lat="44.56638" lon="4.25555">
        <ele>434</ele>
        <time>2016-05-15T09:58:52.000Z</time>
      </trkpt>
      <trkpt lat="44.56639" lon="4.25557">
        <ele>434</ele>
        <time>2016-05-15T09:58:53.000Z</time>
      </trkpt>
      <trkpt lat="44.56639" lon="4.2556">
        <ele>434</ele>
        <time>2016-05-15T09:58:54.000Z</time>
      </trkpt>
      <trkpt lat="44.5664" lon="4.25562">
        <ele>434</ele>
        <time>2016-05-15T09:58:55.000Z</time>
      </trkpt>
      <trkpt lat="44.56641" lon="4.25565">
        <ele>434</ele>
        <time>2016-05-15T09:58:56.000Z</time>
      </trkpt>
      <trkpt lat="44.56641" lon="4.25568">
        <ele>434</ele>
        <time>2016-05-15T09:58:57.000Z</time>
      </trkpt>
      <trkpt lat="44.56642" lon="4.2557">
        <ele>434</ele>
        <time>2016-05-15T09:58:58.000Z</time>
      </trkpt>
      <trkpt lat="44.56643" lon="4.25573">
        <ele>434</ele>
        <time>2016-05-15T09:58:59.000Z</time>
      </trkpt>
      <trkpt lat="44.56644" lon="4.25575">
        <ele>434</ele>
        <time>2016-05-15T09:59:00.000Z</time>
      </trkpt>
      <trkpt lat="44.56645" lon="4.25577">
        <ele>435</ele>
        <time>2016-05-15T09:59:01.000Z</time>
      </trkpt>
      <trkpt lat="44.56646" lon="4.2558">
        <ele>435</ele>
        <time>2016-05-15T09:59:02.000Z</time>
      </trkpt>
      <trkpt lat="44.56648" lon="4.25582">
        <ele>435</ele>
        <time>2016-05-15T09:59:03.000Z</time>
      </trkpt>
      <trkpt lat="44.56649" lon="4.25584">
        <ele>435</ele>
        <time>2016-05-15T09:59:04.000Z</time>
      </trkpt>
      <trkpt lat="44.5665" lon="4.25586">
        <ele>435</ele>
        <time>2016-05-15T09:59:05.000Z</time>
      </trkpt>
      <trkpt lat="44.56651" lon="4.25588">
        <ele>436</ele>
        <time>2016-05-15T09:59:06.000Z</time>
      </trkpt>
      <trkpt lat="44.56652" lon="4.2559">
        <ele>436</ele>
        <time>2016-05-15T09:59:07.000Z</time>
      </trkpt>
      <trkpt lat="44.56654" lon="4.25592">
        <ele>436</ele>
        <time>2016-05-15T09:59:08.000Z</time>
      </trkpt>
      <trkpt lat="44.56655" lon="4.25593">
        <ele>436</ele>
        <time>2016-05-15T09:59:09.000Z</time>
      </trkpt>
      <trkpt lat="44.56657" lon="4.25595">
        <ele>436</ele>
        <time>2016-05-15T09:59:10.000Z</time>
      </trkpt>
      <trkpt lat="44.56658" lon="4.25597">
        <ele>436</ele>
        <time>2016-05-15T09:59:11.000Z</time>
      </trkpt>
      <trkpt lat="44.56659" lon="4.25599">
        <ele>436</ele>
        <time>2016-05-15T09:59:12.000Z</time>
      </trkpt>
      <trkpt lat="44.56661" lon="4.25601">
        <ele>436</ele>
        <time>2016-05-15T09:59:13.000Z</time>
      </trkpt>
      <trkpt lat="44.56662" lon="4.25604">
        <ele>435</ele>
        <time>2016-05-15T09:59:14.000Z</time>
      </trkpt>
      <trkpt lat="44.56663" lon="4.25608">
        <ele>435</ele>
        <time>2016-05-15T09:59:15.000Z</time>
      </trkpt>
      <trkpt lat="44.56664" lon="4.2561">
        <ele>435</ele>
        <time>2016-05-15T09:59:16.000Z</time>
      </trkpt>
      <trkpt lat="44.56665" lon="4.25613">
        <ele>435</ele>
        <time>2016-05-15T09:59:17.000Z</time>
      </trkpt>
      <trkpt lat="44.56665" lon="4.25616">
        <ele>435</ele>
        <time>2016-05-15T09:59:18.000Z</time>
      </trkpt>
      <trkpt lat="44.56666" lon="4.25618">
        <ele>435</ele>
        <time>2016-05-15T09:59:19.000Z</time>
      </trkpt>
      <trkpt lat="44.56667" lon="4.25621">
        <ele>439</ele>
        <time>2016-05-15T09:59:20.000Z</time>
      </trkpt>
      <trkpt lat="44.56668" lon="4.25623">
        <ele>439</ele>
        <time>2016-05-15T09:59:21.000Z</time>
      </trkpt>
      <trkpt lat="44.56668" lon="4.25626">
        <ele>439</ele>
        <time>2016-05-15T09:59:22.000Z</time>
      </trkpt>
      <trkpt lat="44.56669" lon="4.25628">
        <ele>439</ele>
        <time>2016-05-15T09:59:23.000Z</time>
      </trkpt>
      <trkpt lat="44.56669" lon="4.25632">
        <ele>439</ele>
        <time>2016-05-15T09:59:24.000Z</time>
      </trkpt>
      <trkpt lat="44.5667" lon="4.25635">
        <ele>439</ele>
        <time>2016-05-15T09:59:25.000Z</time>
      </trkpt>
      <trkpt lat="44.56671" lon="4.25638">
        <ele>439</ele>
        <time>2016-05-15T09:59:26.000Z</time>
      </trkpt>
      <trkpt lat="44.56671" lon="4.25641">
        <ele>439</ele>
        <time>2016-05-15T09:59:27.000Z</time>
      </trkpt>
      <trkpt lat="44.56672" lon="4.25644">
        <ele>438</ele>
        <time>2016-05-15T09:59:28.000Z</time>
      </trkpt>
      <trkpt lat="44.56673" lon="4.25647">
        <ele>438</ele>
        <time>2016-05-15T09:59:29.000Z</time>
      </trkpt>
      <trkpt lat="44.56674" lon="4.25649">
        <ele>438</ele>
        <time>2016-05-15T09:59:30.000Z</time>
      </trkpt>
      <trkpt lat="44.56675" lon="4.25653">
        <ele>438</ele>
        <time>2016-05-15T09:59:31.000Z</time>
      </trkpt>
      <trkpt lat="44.56675" lon="4.25656">
        <ele>438</ele>
        <time>2016-05-15T09:59:32.000Z</time>
      </trkpt>
      <trkpt lat="44.56676" lon="4.25659">
        <ele>438</ele>
        <time>2016-05-15T09:59:33.000Z</time>
      </trkpt>
      <trkpt lat="44.56676" lon="4.25662">
        <ele>438</ele>
        <time>2016-05-15T09:59:34.000Z</time>
      </trkpt>
      <trkpt lat="44.56677" lon="4.25665">
        <ele>438</ele>
        <time>2016-05-15T09:59:35.000Z</time>
      </trkpt>
      <trkpt lat="44.56678" lon="4.25668">
        <ele>438</ele>
        <time>2016-05-15T09:59:36.000Z</time>
      </trkpt>
      <trkpt lat="44.56679" lon="4.2567">
        <ele>438</ele>
        <time>2016-05-15T09:59:37.000Z</time>
      </trkpt>
      <trkpt lat="44.5668" lon="4.25673">
        <ele>439</ele>
        <time>2016-05-15T09:59:38.000Z</time>
      </trkpt>
      <trkpt lat="44.56681" lon="4.25676">
        <ele>439</ele>
        <time>2016-05-15T09:59:39.000Z</time>
      </trkpt>
      <trkpt lat="44.56682" lon="4.25679">
        <ele>439</ele>
        <time>2016-05-15T09:59:40.000Z</time>
      </trkpt>
      <trkpt lat="44.56683" lon="4.25681">
        <ele>439</ele>
        <time>2016-05-15T09:59:41.000Z</time>
      </trkpt>
      <trkpt lat="44.56685" lon="4.25684">
        <ele>440</ele>
        <time>2016-05-15T09:59:42.000Z</time>
      </trkpt>
      <trkpt lat="44.56686" lon="4.25687">
        <ele>440</ele>
        <time>2016-05-15T09:59:43.000Z</time>
      </trkpt>
      <trkpt lat="44.56687" lon="4.2569">
        <ele>440</ele>
        <time>2016-05-15T09:59:44.000Z</time>
      </trkpt>
      <trkpt lat="44.56688" lon="4.25693">
        <ele>440</ele>
        <time>2016-05-15T09:59:45.000Z</time>
      </trkpt>
      <trkpt lat="44.5669" lon="4.25695">
        <ele>441</ele>
        <time>2016-05-15T09:59:46.000Z</time>
      </trkpt>
      <trkpt lat="44.56691" lon="4.25698">
        <ele>441</ele>
        <time>2016-05-15T09:59:47.000Z</time>
      </trkpt>
      <trkpt lat="44.56693" lon="4.25701">
        <ele>441</ele>
        <time>2016-05-15T09:59:48.000Z</time>
      </trkpt>
      <trkpt lat="44.56695" lon="4.25704">
        <ele>441</ele>
        <time>2016-05-15T09:59:49.000Z</time>
      </trkpt>
      <trkpt lat="44.56697" lon="4.25707">
        <ele>441</ele>
        <time>2016-05-15T09:59:50.000Z</time>
      </trkpt>
      <trkpt lat="44.56698" lon="4.2571">
        <ele>441</ele>
        <time>2016-05-15T09:59:51.000Z</time>
      </trkpt>
      <trkpt lat="44.567" lon="4.25713">
        <ele>441</ele>
        <time>2016-05-15T09:59:52.000Z</time>
      </trkpt>
      <trkpt lat="44.56702" lon="4.25715">
        <ele>442</ele>
        <time>2016-05-15T09:59:53.000Z</time>
      </trkpt>
      <trkpt lat="44.56704" lon="4.25718">
        <ele>442</ele>
        <time>2016-05-15T09:59:54.000Z</time>
      </trkpt>
      <trkpt lat="44.56705" lon="4.25721">
        <ele>442</ele>
        <time>2016-05-15T09:59:55.000Z</time>
      </trkpt>
      <trkpt lat="44.56707" lon="4.25724">
        <ele>442</ele>
        <time>2016-05-15T09:59:56.000Z</time>
      </trkpt>
      <trkpt lat="44.56709" lon="4.25726">
        <ele>442</ele>
        <time>2016-05-15T09:59:57.000Z</time>
      </trkpt>
      <trkpt lat="44.56711" lon="4.25729">
        <ele>442</ele>
        <time>2016-05-15T09:59:58.000Z</time>
      </trkpt>
      <trkpt lat="44.56713" lon="4.25732">
        <ele>442</ele>
        <time>2016-05-15T09:59:59.000Z</time>
      </trkpt>
      <trkpt lat="44.56714" lon="4.25735">
        <ele>442</ele>
        <time>2016-05-15T10:00:00.000Z</time>
      </trkpt>
      <trkpt lat="44.56716" lon="4.25738">
        <ele>443</ele>
        <time>2016-05-15T10:00:01.000Z</time>
      </trkpt>
      <trkpt lat="44.56717" lon="4.25742">
        <ele>443</ele>
        <time>2016-05-15T10:00:02.000Z</time>
      </trkpt>
      <trkpt lat="44.56719" lon="4.25746">
        <ele>443</ele>
        <time>2016-05-15T10:00:03.000Z</time>
      </trkpt>
      <trkpt lat="44.5672" lon="4.2575">
        <ele>446</ele>
        <time>2016-05-15T10:00:04.000Z</time>
      </trkpt>
      <trkpt lat="44.56719" lon="4.25755">
        <ele>446</ele>
        <time>2016-05-15T10:00:05.000Z</time>
      </trkpt>
      <trkpt lat="44.56718" lon="4.2576">
        <ele>446</ele>
        <time>2016-05-15T10:00:06.000Z</time>
      </trkpt>
      <trkpt lat="44.56715" lon="4.25764">
        <ele>446</ele>
        <time>2016-05-15T10:00:07.000Z</time>
      </trkpt>
      <trkpt lat="44.56712" lon="4.25768">
        <ele>446</ele>
        <time>2016-05-15T10:00:08.000Z</time>
      </trkpt>
      <trkpt lat="44.56709" lon="4.25772">
        <ele>446</ele>
        <time>2016-05-15T10:00:09.000Z</time>
      </trkpt>
      <trkpt lat="44.56707" lon="4.25775">
        <ele>446</ele>
        <time>2016-05-15T10:00:10.000Z</time>
      </trkpt>
      <trkpt lat="44.56705" lon="4.25779">
        <ele>446</ele>
        <time>2016-05-15T10:00:11.000Z</time>
      </trkpt>
      <trkpt lat="44.56702" lon="4.25781">
        <ele>446</ele>
        <time>2016-05-15T10:00:12.000Z</time>
      </trkpt>
      <trkpt lat="44.567" lon="4.25784">
        <ele>446</ele>
        <time>2016-05-15T10:00:13.000Z</time>
      </trkpt>
      <trkpt lat="44.56698" lon="4.25786">
        <ele>446</ele>
        <time>2016-05-15T10:00:14.000Z</time>
      </trkpt>
      <trkpt lat="44.56696" lon="4.25789">
        <ele>446</ele>
        <time>2016-05-15T10:00:15.000Z</time>
      </trkpt>
      <trkpt lat="44.56694" lon="4.25791">
        <ele>447</ele>
        <time>2016-05-15T10:00:16.000Z</time>
      </trkpt>
      <trkpt lat="44.56692" lon="4.25794">
        <ele>447</ele>
        <time>2016-05-15T10:00:17.000Z</time>
      </trkpt>
      <trkpt lat="44.56691" lon="4.25796">
        <ele>447</ele>
        <time>2016-05-15T10:00:18.000Z</time>
      </trkpt>
      <trkpt lat="44.56689" lon="4.25799">
        <ele>447</ele>
        <time>2016-05-15T10:00:19.000Z</time>
      </trkpt>
      <trkpt lat="44.56688" lon="4.25802">
        <ele>447</ele>
        <time>2016-05-15T10:00:20.000Z</time>
      </trkpt>
      <trkpt lat="44.56686" lon="4.25804">
        <ele>447</ele>
        <time>2016-05-15T10:00:21.000Z</time>
      </trkpt>
      <trkpt lat="44.56685" lon="4.25806">
        <ele>447</ele>
        <time>2016-05-15T10:00:22.000Z</time>
      </trkpt>
      <trkpt lat="44.56684" lon="4.25808">
        <ele>448</ele>
        <time>2016-05-15T10:00:23.000Z</time>
      </trkpt>
      <trkpt lat="44.56683" lon="4.2581">
        <ele>448</ele>
        <time>2016-05-15T10:00:24.000Z</time>
      </trkpt>
      <trkpt lat="44.56681" lon="4.25811">
        <ele>448</ele>
        <time>2016-05-15T10:00:25.000Z</time>
      </trkpt>
      <trkpt lat="44.5668" lon="4.25814">
        <ele>448</ele>
        <time>2016-05-15T10:00:26.000Z</time>
      </trkpt>
      <trkpt lat="44.56678" lon="4.25816">
        <ele>448</ele>
        <time>2016-05-15T10:00:27.000Z</time>
      </trkpt>
      <trkpt lat="44.56677" lon="4.25818">
        <ele>449</ele>
        <time>2016-05-15T10:00:28.000Z</time>
      </trkpt>
      <trkpt lat="44.56675" lon="4.25819">
        <ele>449</ele>
        <time>2016-05-15T10:00:29.000Z</time>
      </trkpt>
      <trkpt lat="44.56673" lon="4.25821">
        <ele>449</ele>
        <time>2016-05-15T10:00:30.000Z</time>
      </trkpt>
      <trkpt lat="44.56672" lon="4.25821">
        <ele>449</ele>
        <time>2016-05-15T10:00:31.000Z</time>
      </trkpt>
      <trkpt lat="44.56671" lon="4.25822">
        <ele>449</ele>
        <time>2016-05-15T10:00:32.000Z</time>
      </trkpt>
      <trkpt lat="44.56669" lon="4.25823">
        <ele>449</ele>
        <time>2016-05-15T10:00:33.000Z</time>
      </trkpt>
      <trkpt lat="44.56668" lon="4.25823">
        <ele>449</ele>
        <time>2016-05-15T10:00:34.000Z</time>
      </trkpt>
      <trkpt lat="44.56667" lon="4.25824">
        <ele>450</ele>
        <time>2016-05-15T10:00:35.000Z</time>
      </trkpt>
      <trkpt lat="44.56665" lon="4.25825">
        <ele>450</ele>
        <time>2016-05-15T10:00:36.000Z</time>
      </trkpt>
      <trkpt lat="44.56664" lon="4.25826">
        <ele>451</ele>
        <time>2016-05-15T10:00:37.000Z</time>
      </trkpt>
      <trkpt lat="44.56662" lon="4.25827">
        <ele>451</ele>
        <time>2016-05-15T10:00:38.000Z</time>
      </trkpt>
      <trkpt lat="44.56661" lon="4.25828">
        <ele>451</ele>
        <time>2016-05-15T10:00:39.000Z</time>
      </trkpt>
      <trkpt lat="44.56659" lon="4.25829">
        <ele>451</ele>
        <time>2016-05-15T10:00:40.000Z</time>
      </trkpt>
      <trkpt lat="44.56658" lon="4.2583">
        <ele>451</ele>
        <time>2016-05-15T10:00:41.000Z</time>
      </trkpt>
      <trkpt lat="44.56657" lon="4.2583">
        <ele>451</ele>
        <time>2016-05-15T10:00:42.000Z</time>
      </trkpt>
      <trkpt lat="44.56656" lon="4.25831">
        <ele>451</ele>
        <time>2016-05-15T10:00:43.000Z</time>
      </trkpt>
      <trkpt lat="44.56654" lon="4.25831">
        <ele>451</ele>
        <time>2016-05-15T10:00:44.000Z</time>
      </trkpt>
      <trkpt lat="44.56652" lon="4.25832">
        <ele>451</ele>
        <time>2016-05-15T10:00:45.000Z</time>
      </trkpt>
      <trkpt lat="44.5665" lon="4.25832">
        <ele>451</ele>
        <time>2016-05-15T10:00:46.000Z</time>
      </trkpt>
      <trkpt lat="44.56647" lon="4.25832">
        <ele>451</ele>
        <time>2016-05-15T10:00:47.000Z</time>
      </trkpt>
      <trkpt lat="44.56645" lon="4.25832">
        <ele>451</ele>
        <time>2016-05-15T10:00:48.000Z</time>
      </trkpt>
      <trkpt lat="44.56643" lon="4.2583">
        <ele>451</ele>
        <time>2016-05-15T10:00:49.000Z</time>
      </trkpt>
      <trkpt lat="44.56641" lon="4.2583">
        <ele>451</ele>
        <time>2016-05-15T10:00:50.000Z</time>
      </trkpt>
      <trkpt lat="44.5664" lon="4.25828">
        <ele>451</ele>
        <time>2016-05-15T10:00:51.000Z</time>
      </trkpt>
      <trkpt lat="44.56638" lon="4.25827">
        <ele>451</ele>
        <time>2016-05-15T10:00:52.000Z</time>
      </trkpt>
      <trkpt lat="44.56636" lon="4.25827">
        <ele>451</ele>
        <time>2016-05-15T10:00:53.000Z</time>
      </trkpt>
      <trkpt lat="44.56634" lon="4.25826">
        <ele>451</ele>
        <time>2016-05-15T10:00:54.000Z</time>
      </trkpt>
      <trkpt lat="44.56632" lon="4.25826">
        <ele>451</ele>
        <time>2016-05-15T10:00:55.000Z</time>
      </trkpt>
      <trkpt lat="44.56631" lon="4.25826">
        <ele>451</ele>
        <time>2016-05-15T10:00:56.000Z</time>
      </trkpt>
      <trkpt lat="44.56629" lon="4.25825">
        <ele>451</ele>
        <time>2016-05-15T10:00:57.000Z</time>
      </trkpt>
      <trkpt lat="44.56628" lon="4.25825">
        <ele>451</ele>
        <time>2016-05-15T10:00:58.000Z</time>
      </trkpt>
      <trkpt lat="44.56627" lon="4.25825">
        <ele>452</ele>
        <time>2016-05-15T10:00:59.000Z</time>
      </trkpt>
      <trkpt lat="44.56626" lon="4.25825">
        <ele>452</ele>
        <time>2016-05-15T10:01:00.000Z</time>
      </trkpt>
      <trkpt lat="44.56624" lon="4.25825">
        <ele>452</ele>
        <time>2016-05-15T10:01:01.000Z</time>
      </trkpt>
      <trkpt lat="44.56623" lon="4.25825">
        <ele>452</ele>
        <time>2016-05-15T10:01:02.000Z</time>
      </trkpt>
      <trkpt lat="44.56621" lon="4.25825">
        <ele>452</ele>
        <time>2016-05-15T10:01:03.000Z</time>
      </trkpt>
      <trkpt lat="44.5662" lon="4.25824">
        <ele>452</ele>
        <time>2016-05-15T10:01:04.000Z</time>
      </trkpt>
      <trkpt lat="44.56618" lon="4.25824">
        <ele>452</ele>
        <time>2016-05-15T10:01:05.000Z</time>
      </trkpt>
      <trkpt lat="44.56616" lon="4.25823">
        <ele>452</ele>
        <time>2016-05-15T10:01:06.000Z</time>
      </trkpt>
      <trkpt lat="44.56614" lon="4.25822">
        <ele>453</ele>
        <time>2016-05-15T10:01:07.000Z</time>
      </trkpt>
      <trkpt lat="44.56612" lon="4.25821">
        <ele>453</ele>
        <time>2016-05-15T10:01:08.000Z</time>
      </trkpt>
      <trkpt lat="44.56611" lon="4.2582">
        <ele>453</ele>
        <time>2016-05-15T10:01:09.000Z</time>
      </trkpt>
      <trkpt lat="44.5661" lon="4.25818">
        <ele>453</ele>
        <time>2016-05-15T10:01:10.000Z</time>
      </trkpt>
      <trkpt lat="44.56608" lon="4.25816">
        <ele>453</ele>
        <time>2016-05-15T10:01:11.000Z</time>
      </trkpt>
      <trkpt lat="44.56607" lon="4.25815">
        <ele>453</ele>
        <time>2016-05-15T10:01:12.000Z</time>
      </trkpt>
      <trkpt lat="44.56606" lon="4.25813">
        <ele>453</ele>
        <time>2016-05-15T10:01:13.000Z</time>
      </trkpt>
      <trkpt lat="44.56605" lon="4.25811">
        <ele>453</ele>
        <time>2016-05-15T10:01:14.000Z</time>
      </trkpt>
      <trkpt lat="44.56603" lon="4.2581">
        <ele>453</ele>
        <time>2016-05-15T10:01:15.000Z</time>
      </trkpt>
      <trkpt lat="44.56602" lon="4.2581">
        <ele>453</ele>
        <time>2016-05-15T10:01:16.000Z</time>
      </trkpt>
      <trkpt lat="44.56601" lon="4.25809">
        <ele>453</ele>
        <time>2016-05-15T10:01:17.000Z</time>
      </trkpt>
      <trkpt lat="44.566" lon="4.25809">
        <ele>453</ele>
        <time>2016-05-15T10:01:18.000Z</time>
      </trkpt>
      <trkpt lat="44.56599" lon="4.25809">
        <ele>453</ele>
        <time>2016-05-15T10:01:19.000Z</time>
      </trkpt>
      <trkpt lat="44.56598" lon="4.25809">
        <ele>453</ele>
        <time>2016-05-15T10:01:20.000Z</time>
      </trkpt>
      <trkpt lat="44.56597" lon="4.25809">
        <ele>453</ele>
        <time>2016-05-15T10:01:21.000Z</time>
      </trkpt>
      <trkpt lat="44.56596" lon="4.2581">
        <ele>453</ele>
        <time>2016-05-15T10:01:22.000Z</time>
      </trkpt>
      <trkpt lat="44.56594" lon="4.2581">
        <ele>454</ele>
        <time>2016-05-15T10:01:23.000Z</time>
      </trkpt>
      <trkpt lat="44.56592" lon="4.25811">
        <ele>454</ele>
        <time>2016-05-15T10:01:24.000Z</time>
      </trkpt>
      <trkpt lat="44.56591" lon="4.25811">
        <ele>454</ele>
        <time>2016-05-15T10:01:25.000Z</time>
      </trkpt>
      <trkpt lat="44.56589" lon="4.25811">
        <ele>454</ele>
        <time>2016-05-15T10:01:26.000Z</time>
      </trkpt>
      <trkpt lat="44.56587" lon="4.25811">
        <ele>454</ele>
        <time>2016-05-15T10:01:27.000Z</time>
      </trkpt>
      <trkpt lat="44.56586" lon="4.25811">
        <ele>454</ele>
        <time>2016-05-15T10:01:28.000Z</time>
      </trkpt>
      <trkpt lat="44.56585" lon="4.25812">
        <ele>454</ele>
        <time>2016-05-15T10:01:29.000Z</time>
      </trkpt>
      <trkpt lat="44.56583" lon="4.25812">
        <ele>456</ele>
        <time>2016-05-15T10:01:30.000Z</time>
      </trkpt>
      <trkpt lat="44.56582" lon="4.25812">
        <ele>456</ele>
        <time>2016-05-15T10:01:31.000Z</time>
      </trkpt>
      <trkpt lat="44.56581" lon="4.25812">
        <ele>456</ele>
        <time>2016-05-15T10:01:32.000Z</time>
      </trkpt>
      <trkpt lat="44.5658" lon="4.25812">
        <ele>456</ele>
        <time>2016-05-15T10:01:33.000Z</time>
      </trkpt>
      <trkpt lat="44.56579" lon="4.25813">
        <ele>456</ele>
        <time>2016-05-15T10:01:34.000Z</time>
      </trkpt>
      <trkpt lat="44.56578" lon="4.25813">
        <ele>456</ele>
        <time>2016-05-15T10:01:35.000Z</time>
      </trkpt>
      <trkpt lat="44.56577" lon="4.25814">
        <ele>456</ele>
        <time>2016-05-15T10:01:36.000Z</time>
      </trkpt>
      <trkpt lat="44.56576" lon="4.25815">
        <ele>456</ele>
        <time>2016-05-15T10:01:37.000Z</time>
      </trkpt>
      <trkpt lat="44.56576" lon="4.25815">
        <ele>456</ele>
        <time>2016-05-15T10:01:38.000Z</time>
      </trkpt>
      <trkpt lat="44.56575" lon="4.25816">
        <ele>456</ele>
        <time>2016-05-15T10:01:39.000Z</time>
      </trkpt>
      <trkpt lat="44.56574" lon="4.25817">
        <ele>456</ele>
        <time>2016-05-15T10:01:40.000Z</time>
      </trkpt>
      <trkpt lat="44.56574" lon="4.25818">
        <ele>457</ele>
        <time>2016-05-15T10:01:41.000Z</time>
      </trkpt>
      <trkpt lat="44.56574" lon="4.25819">
        <ele>457</ele>
        <time>2016-05-15T10:01:42.000Z</time>
      </trkpt>
      <trkpt lat="44.56574" lon="4.2582">
        <ele>457</ele>
        <time>2016-05-15T10:01:43.000Z</time>
      </trkpt>
      <trkpt lat="44.56574" lon="4.25821">
        <ele>457</ele>
        <time>2016-05-15T10:01:44.000Z</time>
      </trkpt>
      <trkpt lat="44.56575" lon="4.25821">
        <ele>457</ele>
        <time>2016-05-15T10:01:45.000Z</time>
      </trkpt>
      <trkpt lat="44.56575" lon="4.25821">
        <ele>457</ele>
        <time>2016-05-15T10:01:46.000Z</time>
      </trkpt>
      <trkpt lat="44.56576" lon="4.25822">
        <ele>458</ele>
        <time>2016-05-15T10:01:47.000Z</time>
      </trkpt>
      <trkpt lat="44.56576" lon="4.25822">
        <ele>458</ele>
        <time>2016-05-15T10:01:48.000Z</time>
      </trkpt>
      <trkpt lat="44.56575" lon="4.25822">
        <ele>458</ele>
        <time>2016-05-15T10:01:49.000Z</time>
      </trkpt>
      <trkpt lat="44.56576" lon="4.25822">
        <ele>458</ele>
        <time>2016-05-15T10:01:50.000Z</time>
      </trkpt>
      <trkpt lat="44.56576" lon="4.25822">
        <ele>458</ele>
        <time>2016-05-15T10:01:51.000Z</time>
      </trkpt>
      <trkpt lat="44.56577" lon="4.25823">
        <ele>458</ele>
        <time>2016-05-15T10:01:52.000Z</time>
      </trkpt>
      <trkpt lat="44.56578" lon="4.25824">
        <ele>458</ele>
        <time>2016-05-15T10:01:53.000Z</time>
      </trkpt>
      <trkpt lat="44.56578" lon="4.25824">
        <ele>458</ele>
        <time>2016-05-15T10:01:54.000Z</time>
      </trkpt>
      <trkpt lat="44.56579" lon="4.25824">
        <ele>459</ele>
        <time>2016-05-15T10:01:55.000Z</time>
      </trkpt>
      <trkpt lat="44.5658" lon="4.25825">
        <ele>459</ele>
        <time>2016-05-15T10:01:56.000Z</time>
      </trkpt>
      <trkpt lat="44.5658" lon="4.25825">
        <ele>459</ele>
        <time>2016-05-15T10:01:57.000Z</time>
      </trkpt>
      <trkpt lat="44.56581" lon="4.25826">
        <ele>459</ele>
        <time>2016-05-15T10:01:58.000Z</time>
      </trkpt>
      <trkpt lat="44.56582" lon="4.25826">
        <ele>459</ele>
        <time>2016-05-15T10:01:59.000Z</time>
      </trkpt>
      <trkpt lat="44.56582" lon="4.25827">
        <ele>460</ele>
        <time>2016-05-15T10:02:00.000Z</time>
      </trkpt>
      <trkpt lat="44.56582" lon="4.25827">
        <ele>460</ele>
        <time>2016-05-15T10:02:01.000Z</time>
      </trkpt>
      <trkpt lat="44.56583" lon="4.25828">
        <ele>460</ele>
        <time>2016-05-15T10:02:02.000Z</time>
      </trkpt>
      <trkpt lat="44.56584" lon="4.25828">
        <ele>460</ele>
        <time>2016-05-15T10:02:03.000Z</time>
      </trkpt>
      <trkpt lat="44.56585" lon="4.25829">
        <ele>460</ele>
        <time>2016-05-15T10:02:04.000Z</time>
      </trkpt>
      <trkpt lat="44.56586" lon="4.2583">
        <ele>460</ele>
        <time>2016-05-15T10:02:05.000Z</time>
      </trkpt>
      <trkpt lat="44.56587" lon="4.25831">
        <ele>460</ele>
        <time>2016-05-15T10:02:06.000Z</time>
      </trkpt>
      <trkpt lat="44.56587" lon="4.25832">
        <ele>460</ele>
        <time>2016-05-15T10:02:07.000Z</time>
      </trkpt>
      <trkpt lat="44.56588" lon="4.25834">
        <ele>462</ele>
        <time>2016-05-15T10:02:08.000Z</time>
      </trkpt>
      <trkpt lat="44.56589" lon="4.25835">
        <ele>462</ele>
        <time>2016-05-15T10:02:09.000Z</time>
      </trkpt>
      <trkpt lat="44.5659" lon="4.25836">
        <ele>462</ele>
        <time>2016-05-15T10:02:10.000Z</time>
      </trkpt>
      <trkpt lat="44.56591" lon="4.25838">
        <ele>462</ele>
        <time>2016-05-15T10:02:11.000Z</time>
      </trkpt>
      <trkpt lat="44.56592" lon="4.25839">
        <ele>462</ele>
        <time>2016-05-15T10:02:12.000Z</time>
      </trkpt>
      <trkpt lat="44.56593" lon="4.2584">
        <ele>462</ele>
        <time>2016-05-15T10:02:13.000Z</time>
      </trkpt>
      <trkpt lat="44.56594" lon="4.25842">
        <ele>462</ele>
        <time>2016-05-15T10:02:14.000Z</time>
      </trkpt>
      <trkpt lat="44.56595" lon="4.25843">
        <ele>462</ele>
        <time>2016-05-15T10:02:15.000Z</time>
      </trkpt>
      <trkpt lat="44.56596" lon="4.25844">
        <ele>462</ele>
        <time>2016-05-15T10:02:16.000Z</time>
      </trkpt>
      <trkpt lat="44.56596" lon="4.25845">
        <ele>462</ele>
        <time>2016-05-15T10:02:17.000Z</time>
      </trkpt>
      <trkpt lat="44.56598" lon="4.25847">
        <ele>462</ele>
        <time>2016-05-15T10:02:18.000Z</time>
      </trkpt>
      <trkpt lat="44.56599" lon="4.25848">
        <ele>462</ele>
        <time>2016-05-15T10:02:19.000Z</time>
      </trkpt>
      <trkpt lat="44.566" lon="4.25849">
        <ele>462</ele>
        <time>2016-05-15T10:02:20.000Z</time>
      </trkpt>
      <trkpt lat="44.56601" lon="4.25851">
        <ele>463</ele>
        <time>2016-05-15T10:02:21.000Z</time>
      </trkpt>
      <trkpt lat="44.56602" lon="4.25852">
        <ele>463</ele>
        <time>2016-05-15T10:02:22.000Z</time>
      </trkpt>
      <trkpt lat="44.56603" lon="4.25854">
        <ele>463</ele>
        <time>2016-05-15T10:02:23.000Z</time>
      </trkpt>
      <trkpt lat="44.56603" lon="4.25856">
        <ele>463</ele>
        <time>2016-05-15T10:02:24.000Z</time>
      </trkpt>
      <trkpt lat="44.56604" lon="4.25859">
        <ele>463</ele>
        <time>2016-05-15T10:02:25.000Z</time>
      </trkpt>
      <trkpt lat="44.56605" lon="4.25861">
        <ele>463</ele>
        <time>2016-05-15T10:02:26.000Z</time>
      </trkpt>
      <trkpt lat="44.56606" lon="4.25863">
        <ele>463</ele>
        <time>2016-05-15T10:02:27.000Z</time>
      </trkpt>
      <trkpt lat="44.56606" lon="4.25865">
        <ele>463</ele>
        <time>2016-05-15T10:02:28.000Z</time>
      </trkpt>
      <trkpt lat="44.56606" lon="4.25868">
        <ele>463</ele>
        <time>2016-05-15T10:02:29.000Z</time>
      </trkpt>
      <trkpt lat="44.56607" lon="4.2587">
        <ele>464</ele>
        <time>2016-05-15T10:02:30.000Z</time>
      </trkpt>
      <trkpt lat="44.56607" lon="4.25872">
        <ele>464</ele>
        <time>2016-05-15T10:02:31.000Z</time>
      </trkpt>
      <trkpt lat="44.56607" lon="4.25874">
        <ele>464</ele>
        <time>2016-05-15T10:02:32.000Z</time>
      </trkpt>
      <trkpt lat="44.56607" lon="4.25877">
        <ele>464</ele>
        <time>2016-05-15T10:02:33.000Z</time>
      </trkpt>
      <trkpt lat="44.56606" lon="4.25879">
        <ele>464</ele>
        <time>2016-05-15T10:02:34.000Z</time>
      </trkpt>
      <trkpt lat="44.56606" lon="4.25882">
        <ele>465</ele>
        <time>2016-05-15T10:02:35.000Z</time>
      </trkpt>
      <trkpt lat="44.56606" lon="4.25884">
        <ele>465</ele>
        <time>2016-05-15T10:02:36.000Z</time>
      </trkpt>
      <trkpt lat="44.56605" lon="4.25886">
        <ele>465</ele>
        <time>2016-05-15T10:02:37.000Z</time>
      </trkpt>
      <trkpt lat="44.56605" lon="4.25888">
        <ele>465</ele>
        <time>2016-05-15T10:02:38.000Z</time>
      </trkpt>
      <trkpt lat="44.56604" lon="4.2589">
        <ele>465</ele>
        <time>2016-05-15T10:02:39.000Z</time>
      </trkpt>
      <trkpt lat="44.56603" lon="4.25891">
        <ele>466</ele>
        <time>2016-05-15T10:02:40.000Z</time>
      </trkpt>
      <trkpt lat="44.56603" lon="4.25893">
        <ele>466</ele>
        <time>2016-05-15T10:02:41.000Z</time>
      </trkpt>
      <trkpt lat="44.56603" lon="4.25895">
        <ele>466</ele>
        <time>2016-05-15T10:02:42.000Z</time>
      </trkpt>
      <trkpt lat="44.56602" lon="4.25897">
        <ele>466</ele>
        <time>2016-05-15T10:02:43.000Z</time>
      </trkpt>
      <trkpt lat="44.56602" lon="4.25899">
        <ele>467</ele>
        <time>2016-05-15T10:02:44.000Z</time>
      </trkpt>
      <trkpt lat="44.56601" lon="4.25901">
        <ele>467</ele>
        <time>2016-05-15T10:02:45.000Z</time>
      </trkpt>
      <trkpt lat="44.566" lon="4.25903">
        <ele>467</ele>
        <time>2016-05-15T10:02:46.000Z</time>
      </trkpt>
      <trkpt lat="44.566" lon="4.25905">
        <ele>468</ele>
        <time>2016-05-15T10:02:47.000Z</time>
      </trkpt>
      <trkpt lat="44.56599" lon="4.25907">
        <ele>468</ele>
        <time>2016-05-15T10:02:48.000Z</time>
      </trkpt>
      <trkpt lat="44.56598" lon="4.25909">
        <ele>468</ele>
        <time>2016-05-15T10:02:49.000Z</time>
      </trkpt>
      <trkpt lat="44.56598" lon="4.25911">
        <ele>469</ele>
        <time>2016-05-15T10:02:50.000Z</time>
      </trkpt>
      <trkpt lat="44.56597" lon="4.25913">
        <ele>469</ele>
        <time>2016-05-15T10:02:51.000Z</time>
      </trkpt>
      <trkpt lat="44.56596" lon="4.25915">
        <ele>469</ele>
        <time>2016-05-15T10:02:52.000Z</time>
      </trkpt>
      <trkpt lat="44.56595" lon="4.25916">
        <ele>469</ele>
        <time>2016-05-15T10:02:53.000Z</time>
      </trkpt>
      <trkpt lat="44.56595" lon="4.25918">
        <ele>474</ele>
        <time>2016-05-15T10:02:54.000Z</time>
      </trkpt>
      <trkpt lat="44.56593" lon="4.25919">
        <ele>474</ele>
        <time>2016-05-15T10:02:55.000Z</time>
      </trkpt>
      <trkpt lat="44.56592" lon="4.2592">
        <ele>474</ele>
        <time>2016-05-15T10:02:56.000Z</time>
      </trkpt>
      <trkpt lat="44.56591" lon="4.25921">
        <ele>474</ele>
        <time>2016-05-15T10:02:57.000Z</time>
      </trkpt>
      <trkpt lat="44.5659" lon="4.25922">
        <ele>474</ele>
        <time>2016-05-15T10:02:58.000Z</time>
      </trkpt>
      <trkpt lat="44.56588" lon="4.25922">
        <ele>474</ele>
        <time>2016-05-15T10:02:59.000Z</time>
      </trkpt>
      <trkpt lat="44.56586" lon="4.25923">
        <ele>474</ele>
        <time>2016-05-15T10:03:00.000Z</time>
      </trkpt>
      <trkpt lat="44.56584" lon="4.25924">
        <ele>474</ele>
        <time>2016-05-15T10:03:01.000Z</time>
      </trkpt>
      <trkpt lat="44.56582" lon="4.25925">
        <ele>475</ele>
        <time>2016-05-15T10:03:02.000Z</time>
      </trkpt>
      <trkpt lat="44.5658" lon="4.25926">
        <ele>475</ele>
        <time>2016-05-15T10:03:03.000Z</time>
      </trkpt>
      <trkpt lat="44.56578" lon="4.25927">
        <ele>475</ele>
        <time>2016-05-15T10:03:04.000Z</time>
      </trkpt>
      <trkpt lat="44.56576" lon="4.25927">
        <ele>475</ele>
        <time>2016-05-15T10:03:05.000Z</time>
      </trkpt>
      <trkpt lat="44.56574" lon="4.25928">
        <ele>476</ele>
        <time>2016-05-15T10:03:06.000Z</time>
      </trkpt>
      <trkpt lat="44.56572" lon="4.25929">
        <ele>476</ele>
        <time>2016-05-15T10:03:07.000Z</time>
      </trkpt>
      <trkpt lat="44.56569" lon="4.2593">
        <ele>476</ele>
        <time>2016-05-15T10:03:08.000Z</time>
      </trkpt>
      <trkpt lat="44.56566" lon="4.25931">
        <ele>476</ele>
        <time>2016-05-15T10:03:09.000Z</time>
      </trkpt>
      <trkpt lat="44.56564" lon="4.25932">
        <ele>476</ele>
        <time>2016-05-15T10:03:10.000Z</time>
      </trkpt>
      <trkpt lat="44.56562" lon="4.25933">
        <ele>477</ele>
        <time>2016-05-15T10:03:11.000Z</time>
      </trkpt>
      <trkpt lat="44.5656" lon="4.25933">
        <ele>477</ele>
        <time>2016-05-15T10:03:12.000Z</time>
      </trkpt>
      <trkpt lat="44.56558" lon="4.25935">
        <ele>477</ele>
        <time>2016-05-15T10:03:13.000Z</time>
      </trkpt>
      <trkpt lat="44.56556" lon="4.25935">
        <ele>477</ele>
        <time>2016-05-15T10:03:14.000Z</time>
      </trkpt>
      <trkpt lat="44.56554" lon="4.25936">
        <ele>477</ele>
        <time>2016-05-15T10:03:15.000Z</time>
      </trkpt>
      <trkpt lat="44.56551" lon="4.25937">
        <ele>477</ele>
        <time>2016-05-15T10:03:16.000Z</time>
      </trkpt>
      <trkpt lat="44.56549" lon="4.25937">
        <ele>477</ele>
        <time>2016-05-15T10:03:17.000Z</time>
      </trkpt>
      <trkpt lat="44.56546" lon="4.25938">
        <ele>477</ele>
        <time>2016-05-15T10:03:18.000Z</time>
      </trkpt>
      <trkpt lat="44.56544" lon="4.25938">
        <ele>477</ele>
        <time>2016-05-15T10:03:19.000Z</time>
      </trkpt>
      <trkpt lat="44.56542" lon="4.25939">
        <ele>477</ele>
        <time>2016-05-15T10:03:20.000Z</time>
      </trkpt>
      <trkpt lat="44.56539" lon="4.2594">
        <ele>477</ele>
        <time>2016-05-15T10:03:21.000Z</time>
      </trkpt>
      <trkpt lat="44.56537" lon="4.2594">
        <ele>477</ele>
        <time>2016-05-15T10:03:22.000Z</time>
      </trkpt>
      <trkpt lat="44.56536" lon="4.2594">
        <ele>477</ele>
        <time>2016-05-15T10:03:23.000Z</time>
      </trkpt>
      <trkpt lat="44.56534" lon="4.2594">
        <ele>477</ele>
        <time>2016-05-15T10:03:24.000Z</time>
      </trkpt>
      <trkpt lat="44.56532" lon="4.2594">
        <ele>477</ele>
        <time>2016-05-15T10:03:25.000Z</time>
      </trkpt>
      <trkpt lat="44.5653" lon="4.2594">
        <ele>477</ele>
        <time>2016-05-15T10:03:26.000Z</time>
      </trkpt>
      <trkpt lat="44.56528" lon="4.25941">
        <ele>477</ele>
        <time>2016-05-15T10:03:27.000Z</time>
      </trkpt>
      <trkpt lat="44.56526" lon="4.25941">
        <ele>477</ele>
        <time>2016-05-15T10:03:28.000Z</time>
      </trkpt>
      <trkpt lat="44.56524" lon="4.25941">
        <ele>477</ele>
        <time>2016-05-15T10:03:29.000Z</time>
      </trkpt>
      <trkpt lat="44.56523" lon="4.25941">
        <ele>477</ele>
        <time>2016-05-15T10:03:30.000Z</time>
      </trkpt>
      <trkpt lat="44.56521" lon="4.25941">
        <ele>477</ele>
        <time>2016-05-15T10:03:31.000Z</time>
      </trkpt>
      <trkpt lat="44.5652" lon="4.25941">
        <ele>477</ele>
        <time>2016-05-15T10:03:32.000Z</time>
      </trkpt>
      <trkpt lat="44.56518" lon="4.25942">
        <ele>477</ele>
        <time>2016-05-15T10:03:33.000Z</time>
      </trkpt>
      <trkpt lat="44.56517" lon="4.25942">
        <ele>477</ele>
        <time>2016-05-15T10:03:34.000Z</time>
      </trkpt>
      <trkpt lat="44.56515" lon="4.25942">
        <ele>477</ele>
        <time>2016-05-15T10:03:35.000Z</time>
      </trkpt>
      <trkpt lat="44.56514" lon="4.25943">
        <ele>477</ele>
        <time>2016-05-15T10:03:36.000Z</time>
      </trkpt>
      <trkpt lat="44.56513" lon="4.25945">
        <ele>477</ele>
        <time>2016-05-15T10:03:37.000Z</time>
      </trkpt>
      <trkpt lat="44.56512" lon="4.25946">
        <ele>477</ele>
        <time>2016-05-15T10:03:38.000Z</time>
      </trkpt>
      <trkpt lat="44.56511" lon="4.25947">
        <ele>477</ele>
        <time>2016-05-15T10:03:39.000Z</time>
      </trkpt>
      <trkpt lat="44.56509" lon="4.25948">
        <ele>478</ele>
        <time>2016-05-15T10:03:40.000Z</time>
      </trkpt>
      <trkpt lat="44.56508" lon="4.25949">
        <ele>478</ele>
        <time>2016-05-15T10:03:41.000Z</time>
      </trkpt>
      <trkpt lat="44.56506" lon="4.2595">
        <ele>478</ele>
        <time>2016-05-15T10:03:42.000Z</time>
      </trkpt>
      <trkpt lat="44.56505" lon="4.25951">
        <ele>478</ele>
        <time>2016-05-15T10:03:43.000Z</time>
      </trkpt>
      <trkpt lat="44.56504" lon="4.25953">
        <ele>478</ele>
        <time>2016-05-15T10:03:44.000Z</time>
      </trkpt>
      <trkpt lat="44.56503" lon="4.25954">
        <ele>478</ele>
        <time>2016-05-15T10:03:45.000Z</time>
      </trkpt>
      <trkpt lat="44.56502" lon="4.25955">
        <ele>478</ele>
        <time>2016-05-15T10:03:46.000Z</time>
      </trkpt>
      <trkpt lat="44.56502" lon="4.25956">
        <ele>479</ele>
        <time>2016-05-15T10:03:47.000Z</time>
      </trkpt>
      <trkpt lat="44.56501" lon="4.25956">
        <ele>479</ele>
        <time>2016-05-15T10:03:48.000Z</time>
      </trkpt>
      <trkpt lat="44.565" lon="4.25957">
        <ele>479</ele>
        <time>2016-05-15T10:03:49.000Z</time>
      </trkpt>
      <trkpt lat="44.56498" lon="4.25958">
        <ele>479</ele>
        <time>2016-05-15T10:03:50.000Z</time>
      </trkpt>
      <trkpt lat="44.56498" lon="4.25959">
        <ele>479</ele>
        <time>2016-05-15T10:03:51.000Z</time>
      </trkpt>
      <trkpt lat="44.56497" lon="4.2596">
        <ele>479</ele>
        <time>2016-05-15T10:03:52.000Z</time>
      </trkpt>
      <trkpt lat="44.56495" lon="4.25961">
        <ele>479</ele>
        <time>2016-05-15T10:03:53.000Z</time>
      </trkpt>
      <trkpt lat="44.56494" lon="4.25962">
        <ele>480</ele>
        <time>2016-05-15T10:03:54.000Z</time>
      </trkpt>
      <trkpt lat="44.56493" lon="4.25963">
        <ele>480</ele>
        <time>2016-05-15T10:03:55.000Z</time>
      </trkpt>
      <trkpt lat="44.56491" lon="4.25964">
        <ele>480</ele>
        <time>2016-05-15T10:03:56.000Z</time>
      </trkpt>
      <trkpt lat="44.56489" lon="4.25965">
        <ele>480</ele>
        <time>2016-05-15T10:03:57.000Z</time>
      </trkpt>
      <trkpt lat="44.56487" lon="4.25967">
        <ele>480</ele>
        <time>2016-05-15T10:03:58.000Z</time>
      </trkpt>
      <trkpt lat="44.56485" lon="4.2597">
        <ele>480</ele>
        <time>2016-05-15T10:03:59.000Z</time>
      </trkpt>
      <trkpt lat="44.56483" lon="4.25972">
        <ele>480</ele>
        <time>2016-05-15T10:04:00.000Z</time>
      </trkpt>
      <trkpt lat="44.5648" lon="4.25974">
        <ele>481</ele>
        <time>2016-05-15T10:04:01.000Z</time>
      </trkpt>
      <trkpt lat="44.56478" lon="4.25976">
        <ele>481</ele>
        <time>2016-05-15T10:04:02.000Z</time>
      </trkpt>
      <trkpt lat="44.56475" lon="4.25977">
        <ele>481</ele>
        <time>2016-05-15T10:04:03.000Z</time>
      </trkpt>
      <trkpt lat="44.56473" lon="4.25978">
        <ele>481</ele>
        <time>2016-05-15T10:04:04.000Z</time>
      </trkpt>
      <trkpt lat="44.56471" lon="4.25978">
        <ele>481</ele>
        <time>2016-05-15T10:04:05.000Z</time>
      </trkpt>
      <trkpt lat="44.56469" lon="4.25979">
        <ele>481</ele>
        <time>2016-05-15T10:04:06.000Z</time>
      </trkpt>
      <trkpt lat="44.56467" lon="4.2598">
        <ele>481</ele>
        <time>2016-05-15T10:04:07.000Z</time>
      </trkpt>
      <trkpt lat="44.56466" lon="4.25981">
        <ele>481</ele>
        <time>2016-05-15T10:04:08.000Z</time>
      </trkpt>
      <trkpt lat="44.56464" lon="4.25982">
        <ele>481</ele>
        <time>2016-05-15T10:04:09.000Z</time>
      </trkpt>
      <trkpt lat="44.56463" lon="4.25983">
        <ele>481</ele>
        <time>2016-05-15T10:04:10.000Z</time>
      </trkpt>
      <trkpt lat="44.56461" lon="4.25984">
        <ele>481</ele>
        <time>2016-05-15T10:04:11.000Z</time>
      </trkpt>
      <trkpt lat="44.56459" lon="4.25984">
        <ele>481</ele>
        <time>2016-05-15T10:04:12.000Z</time>
      </trkpt>
      <trkpt lat="44.56458" lon="4.25984">
        <ele>481</ele>
        <time>2016-05-15T10:04:13.000Z</time>
      </trkpt>
      <trkpt lat="44.56456" lon="4.25985">
        <ele>481</ele>
        <time>2016-05-15T10:04:14.000Z</time>
      </trkpt>
      <trkpt lat="44.56454" lon="4.25985">
        <ele>481</ele>
        <time>2016-05-15T10:04:15.000Z</time>
      </trkpt>
      <trkpt lat="44.56453" lon="4.25985">
        <ele>481</ele>
        <time>2016-05-15T10:04:16.000Z</time>
      </trkpt>
      <trkpt lat="44.56451" lon="4.25985">
        <ele>481</ele>
        <time>2016-05-15T10:04:17.000Z</time>
      </trkpt>
      <trkpt lat="44.5645" lon="4.25985">
        <ele>481</ele>
        <time>2016-05-15T10:04:18.000Z</time>
      </trkpt>
      <trkpt lat="44.56448" lon="4.25985">
        <ele>481</ele>
        <time>2016-05-15T10:04:19.000Z</time>
      </trkpt>
      <trkpt lat="44.56447" lon="4.25985">
        <ele>481</ele>
        <time>2016-05-15T10:04:20.000Z</time>
      </trkpt>
      <trkpt lat="44.56445" lon="4.25985">
        <ele>481</ele>
        <time>2016-05-15T10:04:21.000Z</time>
      </trkpt>
      <trkpt lat="44.56444" lon="4.25985">
        <ele>481</ele>
        <time>2016-05-15T10:04:22.000Z</time>
      </trkpt>
      <trkpt lat="44.56443" lon="4.25986">
        <ele>481</ele>
        <time>2016-05-15T10:04:23.000Z</time>
      </trkpt>
      <trkpt lat="44.56442" lon="4.25986">
        <ele>481</ele>
        <time>2016-05-15T10:04:24.000Z</time>
      </trkpt>
      <trkpt lat="44.56441" lon="4.25987">
        <ele>481</ele>
        <time>2016-05-15T10:04:25.000Z</time>
      </trkpt>
      <trkpt lat="44.56439" lon="4.25987">
        <ele>481</ele>
        <time>2016-05-15T10:04:26.000Z</time>
      </trkpt>
      <trkpt lat="44.56438" lon="4.25987">
        <ele>481</ele>
        <time>2016-05-15T10:04:27.000Z</time>
      </trkpt>
      <trkpt lat="44.56437" lon="4.25988">
        <ele>481</ele>
        <time>2016-05-15T10:04:28.000Z</time>
      </trkpt>
      <trkpt lat="44.56436" lon="4.25988">
        <ele>481</ele>
        <time>2016-05-15T10:04:29.000Z</time>
      </trkpt>
      <trkpt lat="44.56435" lon="4.25988">
        <ele>481</ele>
        <time>2016-05-15T10:04:30.000Z</time>
      </trkpt>
      <trkpt lat="44.56434" lon="4.25989">
        <ele>481</ele>
        <time>2016-05-15T10:04:31.000Z</time>
      </trkpt>
      <trkpt lat="44.56433" lon="4.25989">
        <ele>481</ele>
        <time>2016-05-15T10:04:32.000Z</time>
      </trkpt>
      <trkpt lat="44.56432" lon="4.25989">
        <ele>481</ele>
        <time>2016-05-15T10:04:33.000Z</time>
      </trkpt>
      <trkpt lat="44.5643" lon="4.25989">
        <ele>481</ele>
        <time>2016-05-15T10:04:34.000Z</time>
      </trkpt>
      <trkpt lat="44.56429" lon="4.2599">
        <ele>481</ele>
        <time>2016-05-15T10:04:35.000Z</time>
      </trkpt>
      <trkpt lat="44.56427" lon="4.2599">
        <ele>482</ele>
        <time>2016-05-15T10:04:36.000Z</time>
      </trkpt>
      <trkpt lat="44.56426" lon="4.25991">
        <ele>482</ele>
        <time>2016-05-15T10:04:37.000Z</time>
      </trkpt>
      <trkpt lat="44.56424" lon="4.25991">
        <ele>482</ele>
        <time>2016-05-15T10:04:38.000Z</time>
      </trkpt>
      <trkpt lat="44.56422" lon="4.25992">
        <ele>482</ele>
        <time>2016-05-15T10:04:39.000Z</time>
      </trkpt>
      <trkpt lat="44.56421" lon="4.25992">
        <ele>482</ele>
        <time>2016-05-15T10:04:40.000Z</time>
      </trkpt>
      <trkpt lat="44.56419" lon="4.25992">
        <ele>482</ele>
        <time>2016-05-15T10:04:41.000Z</time>
      </trkpt>
      <trkpt lat="44.56418" lon="4.25992">
        <ele>482</ele>
        <time>2016-05-15T10:04:42.000Z</time>
      </trkpt>
      <trkpt lat="44.56416" lon="4.25992">
        <ele>484</ele>
        <time>2016-05-15T10:04:43.000Z</time>
      </trkpt>
      <trkpt lat="44.56415" lon="4.25992">
        <ele>484</ele>
        <time>2016-05-15T10:04:44.000Z</time>
      </trkpt>
      <trkpt lat="44.56413" lon="4.25993">
        <ele>484</ele>
        <time>2016-05-15T10:04:45.000Z</time>
      </trkpt>
      <trkpt lat="44.56412" lon="4.25993">
        <ele>484</ele>
        <time>2016-05-15T10:04:46.000Z</time>
      </trkpt>
      <trkpt lat="44.5641" lon="4.25994">
        <ele>484</ele>
        <time>2016-05-15T10:04:47.000Z</time>
      </trkpt>
      <trkpt lat="44.56408" lon="4.25994">
        <ele>484</ele>
        <time>2016-05-15T10:04:48.000Z</time>
      </trkpt>
      <trkpt lat="44.56406" lon="4.25994">
        <ele>484</ele>
        <time>2016-05-15T10:04:49.000Z</time>
      </trkpt>
      <trkpt lat="44.56405" lon="4.25995">
        <ele>484</ele>
        <time>2016-05-15T10:04:50.000Z</time>
      </trkpt>
      <trkpt lat="44.56403" lon="4.25995">
        <ele>485</ele>
        <time>2016-05-15T10:04:51.000Z</time>
      </trkpt>
      <trkpt lat="44.56402" lon="4.25994">
        <ele>485</ele>
        <time>2016-05-15T10:04:52.000Z</time>
      </trkpt>
      <trkpt lat="44.564" lon="4.25994">
        <ele>485</ele>
        <time>2016-05-15T10:04:53.000Z</time>
      </trkpt>
      <trkpt lat="44.56398" lon="4.25995">
        <ele>485</ele>
        <time>2016-05-15T10:04:54.000Z</time>
      </trkpt>
      <trkpt lat="44.56396" lon="4.25995">
        <ele>485</ele>
        <time>2016-05-15T10:04:55.000Z</time>
      </trkpt>
      <trkpt lat="44.56394" lon="4.25996">
        <ele>485</ele>
        <time>2016-05-15T10:04:56.000Z</time>
      </trkpt>
      <trkpt lat="44.56393" lon="4.25997">
        <ele>485</ele>
        <time>2016-05-15T10:04:57.000Z</time>
      </trkpt>
      <trkpt lat="44.56391" lon="4.25998">
        <ele>486</ele>
        <time>2016-05-15T10:04:58.000Z</time>
      </trkpt>
      <trkpt lat="44.5639" lon="4.25998">
        <ele>486</ele>
        <time>2016-05-15T10:04:59.000Z</time>
      </trkpt>
      <trkpt lat="44.56388" lon="4.25999">
        <ele>486</ele>
        <time>2016-05-15T10:05:00.000Z</time>
      </trkpt>
      <trkpt lat="44.56386" lon="4.26">
        <ele>486</ele>
        <time>2016-05-15T10:05:01.000Z</time>
      </trkpt>
      <trkpt lat="44.56385" lon="4.26001">
        <ele>486</ele>
        <time>2016-05-15T10:05:02.000Z</time>
      </trkpt>
      <trkpt lat="44.56384" lon="4.26002">
        <ele>486</ele>
        <time>2016-05-15T10:05:03.000Z</time>
      </trkpt>
      <trkpt lat="44.56383" lon="4.26004">
        <ele>486</ele>
        <time>2016-05-15T10:05:04.000Z</time>
      </trkpt>
      <trkpt lat="44.56382" lon="4.26005">
        <ele>486</ele>
        <time>2016-05-15T10:05:05.000Z</time>
      </trkpt>
      <trkpt lat="44.56382" lon="4.26007">
        <ele>486</ele>
        <time>2016-05-15T10:05:06.000Z</time>
      </trkpt>
      <trkpt lat="44.56381" lon="4.26009">
        <ele>486</ele>
        <time>2016-05-15T10:05:07.000Z</time>
      </trkpt>
      <trkpt lat="44.56381" lon="4.26011">
        <ele>486</ele>
        <time>2016-05-15T10:05:08.000Z</time>
      </trkpt>
      <trkpt lat="44.56382" lon="4.26013">
        <ele>486</ele>
        <time>2016-05-15T10:05:09.000Z</time>
      </trkpt>
      <trkpt lat="44.56382" lon="4.26013">
        <ele>486</ele>
        <time>2016-05-15T10:05:10.000Z</time>
      </trkpt>
      <trkpt lat="44.56382" lon="4.26013">
        <ele>486</ele>
        <time>2016-05-15T10:05:11.000Z</time>
      </trkpt>
      <trkpt lat="44.56382" lon="4.26013">
        <ele>486</ele>
        <time>2016-05-15T10:05:12.000Z</time>
      </trkpt>
      <trkpt lat="44.56382" lon="4.26013">
        <ele>486</ele>
        <time>2016-05-15T10:05:13.000Z</time>
      </trkpt>
      <trkpt lat="44.56382" lon="4.26013">
        <ele>486</ele>
        <time>2016-05-15T10:05:14.000Z</time>
      </trkpt>
      <trkpt lat="44.56382" lon="4.26013">
        <ele>486</ele>
        <time>2016-05-15T10:05:15.000Z</time>
      </trkpt>
      <trkpt lat="44.56382" lon="4.26013">
        <ele>486</ele>
        <time>2016-05-15T10:05:16.000Z</time>
      </trkpt>
      <trkpt lat="44.56382" lon="4.26013">
        <ele>486</ele>
        <time>2016-05-15T10:05:17.000Z</time>
      </trkpt>
      <trkpt lat="44.56382" lon="4.26013">
        <ele>486</ele>
        <time>2016-05-15T10:05:18.000Z</time>
      </trkpt>
      <trkpt lat="44.56382" lon="4.26013">
        <ele>486</ele>
        <time>2016-05-15T10:05:19.000Z</time>
      </trkpt>
      <trkpt lat="44.56381" lon="4.26013">
        <ele>486</ele>
        <time>2016-05-15T10:05:20.000Z</time>
      </trkpt>
      <trkpt lat="44.56381" lon="4.26013">
        <ele>486</ele>
        <time>2016-05-15T10:05:21.000Z</time>
      </trkpt>
      <trkpt lat="44.56381" lon="4.26013">
        <ele>486</ele>
        <time>2016-05-15T10:05:22.000Z</time>
      </trkpt>
      <trkpt lat="44.56381" lon="4.26013">
        <ele>486</ele>
        <time>2016-05-15T10:05:23.000Z</time>
      </trkpt>
      <trkpt lat="44.56381" lon="4.26013">
        <ele>486</ele>
        <time>2016-05-15T10:05:24.000Z</time>
      </trkpt>
      <trkpt lat="44.56381" lon="4.26013">
        <ele>486</ele>
        <time>2016-05-15T10:05:25.000Z</time>
      </trkpt>
      <trkpt lat="44.56381" lon="4.26013">
        <ele>486</ele>
        <time>2016-05-15T10:05:26.000Z</time>
      </trkpt>
      <trkpt lat="44.56381" lon="4.26013">
        <ele>486</ele>
        <time>2016-05-15T10:05:27.000Z</time>
      </trkpt>
      <trkpt lat="44.56381" lon="4.26013">
        <ele>486</ele>
        <time>2016-05-15T10:05:28.000Z</time>
      </trkpt>
      <trkpt lat="44.56381" lon="4.26013">
        <ele>486</ele>
        <time>2016-05-15T10:05:29.000Z</time>
      </trkpt>
      <trkpt lat="44.56382" lon="4.26013">
        <ele>486</ele>
        <time>2016-05-15T10:05:30.000Z</time>
      </trkpt>
      <trkpt lat="44.56382" lon="4.26013">
        <ele>486</ele>
        <time>2016-05-15T10:05:31.000Z</time>
      </trkpt>
      <trkpt lat="44.56382" lon="4.26012">
        <ele>486</ele>
        <time>2016-05-15T10:05:32.000Z</time>
      </trkpt>
      <trkpt lat="44.56382" lon="4.26012">
        <ele>486</ele>
        <time>2016-05-15T10:05:33.000Z</time>
      </trkpt>
      <trkpt lat="44.56382" lon="4.26012">
        <ele>486</ele>
        <time>2016-05-15T10:05:34.000Z</time>
      </trkpt>
      <trkpt lat="44.56382" lon="4.26012">
        <ele>486</ele>
        <time>2016-05-15T10:05:35.000Z</time>
      </trkpt>
      <trkpt lat="44.56382" lon="4.26012">
        <ele>486</ele>
        <time>2016-05-15T10:05:36.000Z</time>
      </trkpt>
      <trkpt lat="44.56382" lon="4.26012">
        <ele>486</ele>
        <time>2016-05-15T10:05:37.000Z</time>
      </trkpt>
      <trkpt lat="44.56382" lon="4.26012">
        <ele>486</ele>
        <time>2016-05-15T10:05:38.000Z</time>
      </trkpt>
      <trkpt lat="44.56382" lon="4.26012">
        <ele>486</ele>
        <time>2016-05-15T10:05:39.000Z</time>
      </trkpt>
      <trkpt lat="44.56381" lon="4.26013">
        <ele>486</ele>
        <time>2016-05-15T10:05:40.000Z</time>
      </trkpt>
      <trkpt lat="44.56381" lon="4.26013">
        <ele>486</ele>
        <time>2016-05-15T10:05:41.000Z</time>
      </trkpt>
      <trkpt lat="44.56379" lon="4.26015">
        <ele>487</ele>
        <time>2016-05-15T10:05:42.000Z</time>
      </trkpt>
      <trkpt lat="44.56378" lon="4.26017">
        <ele>487</ele>
        <time>2016-05-15T10:05:43.000Z</time>
      </trkpt>
      <trkpt lat="44.56378" lon="4.2602">
        <ele>487</ele>
        <time>2016-05-15T10:05:44.000Z</time>
      </trkpt>
      <trkpt lat="44.56378" lon="4.26025">
        <ele>486</ele>
        <time>2016-05-15T10:05:45.000Z</time>
      </trkpt>
      <trkpt lat="44.56378" lon="4.26031">
        <ele>486</ele>
        <time>2016-05-15T10:05:46.000Z</time>
      </trkpt>
      <trkpt lat="44.56379" lon="4.26036">
        <ele>486</ele>
        <time>2016-05-15T10:05:47.000Z</time>
      </trkpt>
      <trkpt lat="44.5638" lon="4.2604">
        <ele>486</ele>
        <time>2016-05-15T10:05:48.000Z</time>
      </trkpt>
      <trkpt lat="44.5638" lon="4.26043">
        <ele>486</ele>
        <time>2016-05-15T10:05:49.000Z</time>
      </trkpt>
      <trkpt lat="44.56379" lon="4.26047">
        <ele>486</ele>
        <time>2016-05-15T10:05:50.000Z</time>
      </trkpt>
      <trkpt lat="44.56378" lon="4.26051">
        <ele>486</ele>
        <time>2016-05-15T10:05:51.000Z</time>
      </trkpt>
      <trkpt lat="44.56378" lon="4.26057">
        <ele>486</ele>
        <time>2016-05-15T10:05:52.000Z</time>
      </trkpt>
      <trkpt lat="44.56378" lon="4.26065">
        <ele>486</ele>
        <time>2016-05-15T10:05:53.000Z</time>
      </trkpt>
      <trkpt lat="44.56379" lon="4.26073">
        <ele>486</ele>
        <time>2016-05-15T10:05:54.000Z</time>
      </trkpt>
      <trkpt lat="44.56381" lon="4.2608">
        <ele>486</ele>
        <time>2016-05-15T10:05:55.000Z</time>
      </trkpt>
      <trkpt lat="44.56383" lon="4.26086">
        <ele>480</ele>
        <time>2016-05-15T10:05:56.000Z</time>
      </trkpt>
      <trkpt lat="44.56384" lon="4.26093">
        <ele>480</ele>
        <time>2016-05-15T10:05:57.000Z</time>
      </trkpt>
      <trkpt lat="44.56385" lon="4.26099">
        <ele>480</ele>
        <time>2016-05-15T10:05:58.000Z</time>
      </trkpt>
      <trkpt lat="44.56385" lon="4.26104">
        <ele>479</ele>
        <time>2016-05-15T10:05:59.000Z</time>
      </trkpt>
      <trkpt lat="44.56386" lon="4.26108">
        <ele>479</ele>
        <time>2016-05-15T10:06:00.000Z</time>
      </trkpt>
      <trkpt lat="44.56387" lon="4.26114">
        <ele>478</ele>
        <time>2016-05-15T10:06:01.000Z</time>
      </trkpt>
      <trkpt lat="44.56388" lon="4.2612">
        <ele>478</ele>
        <time>2016-05-15T10:06:02.000Z</time>
      </trkpt>
      <trkpt lat="44.56389" lon="4.26128">
        <ele>477</ele>
        <time>2016-05-15T10:06:03.000Z</time>
      </trkpt>
      <trkpt lat="44.56391" lon="4.26137">
        <ele>477</ele>
        <time>2016-05-15T10:06:04.000Z</time>
      </trkpt>
      <trkpt lat="44.56393" lon="4.26145">
        <ele>476</ele>
        <time>2016-05-15T10:06:05.000Z</time>
      </trkpt>
      <trkpt lat="44.56394" lon="4.26152">
        <ele>476</ele>
        <time>2016-05-15T10:06:06.000Z</time>
      </trkpt>
      <trkpt lat="44.56397" lon="4.26157">
        <ele>476</ele>
        <time>2016-05-15T10:06:07.000Z</time>
      </trkpt>
      <trkpt lat="44.56399" lon="4.26162">
        <ele>476</ele>
        <time>2016-05-15T10:06:08.000Z</time>
      </trkpt>
      <trkpt lat="44.56402" lon="4.26167">
        <ele>469</ele>
        <time>2016-05-15T10:06:09.000Z</time>
      </trkpt>
      <trkpt lat="44.56404" lon="4.26172">
        <ele>470</ele>
        <time>2016-05-15T10:06:10.000Z</time>
      </trkpt>
      <trkpt lat="44.56405" lon="4.26178">
        <ele>469</ele>
        <time>2016-05-15T10:06:11.000Z</time>
      </trkpt>
      <trkpt lat="44.56406" lon="4.26184">
        <ele>467</ele>
        <time>2016-05-15T10:06:12.000Z</time>
      </trkpt>
      <trkpt lat="44.56407" lon="4.26189">
        <ele>466</ele>
        <time>2016-05-15T10:06:13.000Z</time>
      </trkpt>
      <trkpt lat="44.56407" lon="4.26194">
        <ele>465</ele>
        <time>2016-05-15T10:06:14.000Z</time>
      </trkpt>
      <trkpt lat="44.56407" lon="4.26197">
        <ele>464</ele>
        <time>2016-05-15T10:06:15.000Z</time>
      </trkpt>
      <trkpt lat="44.56406" lon="4.26201">
        <ele>463</ele>
        <time>2016-05-15T10:06:16.000Z</time>
      </trkpt>
      <trkpt lat="44.56406" lon="4.26203">
        <ele>462</ele>
        <time>2016-05-15T10:06:17.000Z</time>
      </trkpt>
      <trkpt lat="44.56404" lon="4.26204">
        <ele>462</ele>
        <time>2016-05-15T10:06:18.000Z</time>
      </trkpt>
      <trkpt lat="44.56404" lon="4.26206">
        <ele>462</ele>
        <time>2016-05-15T10:06:19.000Z</time>
      </trkpt>
      <trkpt lat="44.56402" lon="4.26207">
        <ele>461</ele>
        <time>2016-05-15T10:06:20.000Z</time>
      </trkpt>
      <trkpt lat="44.56401" lon="4.2621">
        <ele>461</ele>
        <time>2016-05-15T10:06:21.000Z</time>
      </trkpt>
      <trkpt lat="44.564" lon="4.26213">
        <ele>460</ele>
        <time>2016-05-15T10:06:22.000Z</time>
      </trkpt>
      <trkpt lat="44.56399" lon="4.26217">
        <ele>460</ele>
        <time>2016-05-15T10:06:23.000Z</time>
      </trkpt>
      <trkpt lat="44.56398" lon="4.26222">
        <ele>459</ele>
        <time>2016-05-15T10:06:24.000Z</time>
      </trkpt>
      <trkpt lat="44.56398" lon="4.26226">
        <ele>459</ele>
        <time>2016-05-15T10:06:25.000Z</time>
      </trkpt>
      <trkpt lat="44.56398" lon="4.26231">
        <ele>458</ele>
        <time>2016-05-15T10:06:26.000Z</time>
      </trkpt>
      <trkpt lat="44.56399" lon="4.26236">
        <ele>458</ele>
        <time>2016-05-15T10:06:27.000Z</time>
      </trkpt>
      <trkpt lat="44.564" lon="4.26241">
        <ele>458</ele>
        <time>2016-05-15T10:06:28.000Z</time>
      </trkpt>
      <trkpt lat="44.56401" lon="4.26246">
        <ele>457</ele>
        <time>2016-05-15T10:06:29.000Z</time>
      </trkpt>
      <trkpt lat="44.56402" lon="4.26251">
        <ele>450</ele>
        <time>2016-05-15T10:06:30.000Z</time>
      </trkpt>
      <trkpt lat="44.56403" lon="4.26256">
        <ele>450</ele>
        <time>2016-05-15T10:06:31.000Z</time>
      </trkpt>
      <trkpt lat="44.56405" lon="4.26261">
        <ele>450</ele>
        <time>2016-05-15T10:06:32.000Z</time>
      </trkpt>
      <trkpt lat="44.56406" lon="4.26266">
        <ele>449</ele>
        <time>2016-05-15T10:06:33.000Z</time>
      </trkpt>
      <trkpt lat="44.56406" lon="4.26271">
        <ele>448</ele>
        <time>2016-05-15T10:06:34.000Z</time>
      </trkpt>
      <trkpt lat="44.56407" lon="4.26278">
        <ele>447</ele>
        <time>2016-05-15T10:06:35.000Z</time>
      </trkpt>
      <trkpt lat="44.56408" lon="4.26284">
        <ele>446</ele>
        <time>2016-05-15T10:06:36.000Z</time>
      </trkpt>
      <trkpt lat="44.5641" lon="4.26291">
        <ele>445</ele>
        <time>2016-05-15T10:06:37.000Z</time>
      </trkpt>
      <trkpt lat="44.56411" lon="4.26298">
        <ele>444</ele>
        <time>2016-05-15T10:06:38.000Z</time>
      </trkpt>
      <trkpt lat="44.56411" lon="4.26305">
        <ele>444</ele>
        <time>2016-05-15T10:06:39.000Z</time>
      </trkpt>
      <trkpt lat="44.56411" lon="4.26313">
        <ele>443</ele>
        <time>2016-05-15T10:06:40.000Z</time>
      </trkpt>
      <trkpt lat="44.56411" lon="4.2632">
        <ele>443</ele>
        <time>2016-05-15T10:06:41.000Z</time>
      </trkpt>
      <trkpt lat="44.56412" lon="4.26327">
        <ele>443</ele>
        <time>2016-05-15T10:06:42.000Z</time>
      </trkpt>
      <trkpt lat="44.56411" lon="4.26334">
        <ele>440</ele>
        <time>2016-05-15T10:06:43.000Z</time>
      </trkpt>
      <trkpt lat="44.5641" lon="4.2634">
        <ele>439</ele>
        <time>2016-05-15T10:06:44.000Z</time>
      </trkpt>
      <trkpt lat="44.56409" lon="4.26346">
        <ele>437</ele>
        <time>2016-05-15T10:06:45.000Z</time>
      </trkpt>
      <trkpt lat="44.5641" lon="4.26351">
        <ele>436</ele>
        <time>2016-05-15T10:06:46.000Z</time>
      </trkpt>
      <trkpt lat="44.56411" lon="4.26357">
        <ele>435</ele>
        <time>2016-05-15T10:06:47.000Z</time>
      </trkpt>
      <trkpt lat="44.56412" lon="4.26362">
        <ele>434</ele>
        <time>2016-05-15T10:06:48.000Z</time>
      </trkpt>
      <trkpt lat="44.56413" lon="4.26368">
        <ele>434</ele>
        <time>2016-05-15T10:06:49.000Z</time>
      </trkpt>
      <trkpt lat="44.56413" lon="4.26373">
        <ele>433</ele>
        <time>2016-05-15T10:06:50.000Z</time>
      </trkpt>
      <trkpt lat="44.56415" lon="4.26378">
        <ele>433</ele>
        <time>2016-05-15T10:06:51.000Z</time>
      </trkpt>
      <trkpt lat="44.56416" lon="4.26384">
        <ele>433</ele>
        <time>2016-05-15T10:06:52.000Z</time>
      </trkpt>
      <trkpt lat="44.56418" lon="4.26391">
        <ele>438</ele>
        <time>2016-05-15T10:06:53.000Z</time>
      </trkpt>
      <trkpt lat="44.56421" lon="4.26394">
        <ele>438</ele>
        <time>2016-05-15T10:06:54.000Z</time>
      </trkpt>
      <trkpt lat="44.56424" lon="4.26397">
        <ele>438</ele>
        <time>2016-05-15T10:06:55.000Z</time>
      </trkpt>
      <trkpt lat="44.56428" lon="4.26399">
        <ele>438</ele>
        <time>2016-05-15T10:06:56.000Z</time>
      </trkpt>
      <trkpt lat="44.56432" lon="4.26403">
        <ele>438</ele>
        <time>2016-05-15T10:06:57.000Z</time>
      </trkpt>
      <trkpt lat="44.56435" lon="4.26407">
        <ele>437</ele>
        <time>2016-05-15T10:06:58.000Z</time>
      </trkpt>
      <trkpt lat="44.56438" lon="4.26412">
        <ele>437</ele>
        <time>2016-05-15T10:06:59.000Z</time>
      </trkpt>
      <trkpt lat="44.56441" lon="4.26416">
        <ele>437</ele>
        <time>2016-05-15T10:07:00.000Z</time>
      </trkpt>
      <trkpt lat="44.56445" lon="4.26421">
        <ele>434</ele>
        <time>2016-05-15T10:07:01.000Z</time>
      </trkpt>
      <trkpt lat="44.56449" lon="4.26426">
        <ele>434</ele>
        <time>2016-05-15T10:07:02.000Z</time>
      </trkpt>
      <trkpt lat="44.56452" lon="4.2643">
        <ele>434</ele>
        <time>2016-05-15T10:07:03.000Z</time>
      </trkpt>
      <trkpt lat="44.56456" lon="4.26435">
        <ele>433</ele>
        <time>2016-05-15T10:07:04.000Z</time>
      </trkpt>
      <trkpt lat="44.56459" lon="4.26442">
        <ele>433</ele>
        <time>2016-05-15T10:07:05.000Z</time>
      </trkpt>
      <trkpt lat="44.56462" lon="4.2645">
        <ele>433</ele>
        <time>2016-05-15T10:07:06.000Z</time>
      </trkpt>
      <trkpt lat="44.56464" lon="4.2646">
        <ele>433</ele>
        <time>2016-05-15T10:07:07.000Z</time>
      </trkpt>
      <trkpt lat="44.56466" lon="4.26469">
        <ele>432</ele>
        <time>2016-05-15T10:07:08.000Z</time>
      </trkpt>
      <trkpt lat="44.56467" lon="4.26478">
        <ele>432</ele>
        <time>2016-05-15T10:07:09.000Z</time>
      </trkpt>
      <trkpt lat="44.56469" lon="4.26486">
        <ele>432</ele>
        <time>2016-05-15T10:07:10.000Z</time>
      </trkpt>
      <trkpt lat="44.5647" lon="4.26495">
        <ele>431</ele>
        <time>2016-05-15T10:07:11.000Z</time>
      </trkpt>
      <trkpt lat="44.56471" lon="4.26504">
        <ele>428</ele>
        <time>2016-05-15T10:07:12.000Z</time>
      </trkpt>
      <trkpt lat="44.56472" lon="4.26513">
        <ele>427</ele>
        <time>2016-05-15T10:07:13.000Z</time>
      </trkpt>
      <trkpt lat="44.56472" lon="4.26522">
        <ele>427</ele>
        <time>2016-05-15T10:07:14.000Z</time>
      </trkpt>
      <trkpt lat="44.56473" lon="4.2653">
        <ele>427</ele>
        <time>2016-05-15T10:07:15.000Z</time>
      </trkpt>
      <trkpt lat="44.56473" lon="4.26539">
        <ele>426</ele>
        <time>2016-05-15T10:07:16.000Z</time>
      </trkpt>
      <trkpt lat="44.56473" lon="4.2655">
        <ele>425</ele>
        <time>2016-05-15T10:07:17.000Z</time>
      </trkpt>
      <trkpt lat="44.56472" lon="4.26562">
        <ele>425</ele>
        <time>2016-05-15T10:07:18.000Z</time>
      </trkpt>
      <trkpt lat="44.56471" lon="4.26572">
        <ele>424</ele>
        <time>2016-05-15T10:07:19.000Z</time>
      </trkpt>
      <trkpt lat="44.56471" lon="4.26582">
        <ele>424</ele>
        <time>2016-05-15T10:07:20.000Z</time>
      </trkpt>
      <trkpt lat="44.56471" lon="4.26592">
        <ele>415</ele>
        <time>2016-05-15T10:07:21.000Z</time>
      </trkpt>
      <trkpt lat="44.56471" lon="4.26601">
        <ele>415</ele>
        <time>2016-05-15T10:07:22.000Z</time>
      </trkpt>
      <trkpt lat="44.56472" lon="4.26608">
        <ele>414</ele>
        <time>2016-05-15T10:07:23.000Z</time>
      </trkpt>
      <trkpt lat="44.56474" lon="4.26615">
        <ele>414</ele>
        <time>2016-05-15T10:07:24.000Z</time>
      </trkpt>
      <trkpt lat="44.56474" lon="4.26621">
        <ele>413</ele>
        <time>2016-05-15T10:07:25.000Z</time>
      </trkpt>
      <trkpt lat="44.56474" lon="4.26628">
        <ele>412</ele>
        <time>2016-05-15T10:07:26.000Z</time>
      </trkpt>
      <trkpt lat="44.56474" lon="4.26634">
        <ele>412</ele>
        <time>2016-05-15T10:07:27.000Z</time>
      </trkpt>
      <trkpt lat="44.56474" lon="4.26639">
        <ele>411</ele>
        <time>2016-05-15T10:07:28.000Z</time>
      </trkpt>
      <trkpt lat="44.56474" lon="4.26645">
        <ele>411</ele>
        <time>2016-05-15T10:07:29.000Z</time>
      </trkpt>
      <trkpt lat="44.56474" lon="4.26652">
        <ele>410</ele>
        <time>2016-05-15T10:07:30.000Z</time>
      </trkpt>
      <trkpt lat="44.56474" lon="4.26657">
        <ele>409</ele>
        <time>2016-05-15T10:07:31.000Z</time>
      </trkpt>
      <trkpt lat="44.56474" lon="4.26661">
        <ele>409</ele>
        <time>2016-05-15T10:07:32.000Z</time>
      </trkpt>
      <trkpt lat="44.56473" lon="4.26665">
        <ele>409</ele>
        <time>2016-05-15T10:07:33.000Z</time>
      </trkpt>
      <trkpt lat="44.56472" lon="4.26669">
        <ele>401</ele>
        <time>2016-05-15T10:07:34.000Z</time>
      </trkpt>
      <trkpt lat="44.56471" lon="4.26673">
        <ele>401</ele>
        <time>2016-05-15T10:07:35.000Z</time>
      </trkpt>
      <trkpt lat="44.56468" lon="4.26678">
        <ele>401</ele>
        <time>2016-05-15T10:07:36.000Z</time>
      </trkpt>
      <trkpt lat="44.56466" lon="4.26684">
        <ele>401</ele>
        <time>2016-05-15T10:07:37.000Z</time>
      </trkpt>
      <trkpt lat="44.56464" lon="4.26689">
        <ele>400</ele>
        <time>2016-05-15T10:07:38.000Z</time>
      </trkpt>
      <trkpt lat="44.56463" lon="4.26695">
        <ele>400</ele>
        <time>2016-05-15T10:07:39.000Z</time>
      </trkpt>
      <trkpt lat="44.56463" lon="4.26703">
        <ele>399</ele>
        <time>2016-05-15T10:07:40.000Z</time>
      </trkpt>
      <trkpt lat="44.56463" lon="4.26711">
        <ele>399</ele>
        <time>2016-05-15T10:07:41.000Z</time>
      </trkpt>
      <trkpt lat="44.56464" lon="4.26721">
        <ele>398</ele>
        <time>2016-05-15T10:07:42.000Z</time>
      </trkpt>
      <trkpt lat="44.56464" lon="4.26731">
        <ele>398</ele>
        <time>2016-05-15T10:07:43.000Z</time>
      </trkpt>
      <trkpt lat="44.56465" lon="4.26742">
        <ele>397</ele>
        <time>2016-05-15T10:07:44.000Z</time>
      </trkpt>
      <trkpt lat="44.56465" lon="4.26752">
        <ele>393</ele>
        <time>2016-05-15T10:07:45.000Z</time>
      </trkpt>
      <trkpt lat="44.56465" lon="4.26762">
        <ele>393</ele>
        <time>2016-05-15T10:07:46.000Z</time>
      </trkpt>
      <trkpt lat="44.56465" lon="4.26771">
        <ele>392</ele>
        <time>2016-05-15T10:07:47.000Z</time>
      </trkpt>
      <trkpt lat="44.56465" lon="4.2678">
        <ele>392</ele>
        <time>2016-05-15T10:07:48.000Z</time>
      </trkpt>
      <trkpt lat="44.56465" lon="4.26788">
        <ele>392</ele>
        <time>2016-05-15T10:07:49.000Z</time>
      </trkpt>
      <trkpt lat="44.56465" lon="4.26795">
        <ele>392</ele>
        <time>2016-05-15T10:07:50.000Z</time>
      </trkpt>
      <trkpt lat="44.56465" lon="4.26801">
        <ele>392</ele>
        <time>2016-05-15T10:07:51.000Z</time>
      </trkpt>
      <trkpt lat="44.56466" lon="4.26807">
        <ele>392</ele>
        <time>2016-05-15T10:07:52.000Z</time>
      </trkpt>
      <trkpt lat="44.56466" lon="4.26812">
        <ele>392</ele>
        <time>2016-05-15T10:07:53.000Z</time>
      </trkpt>
      <trkpt lat="44.56466" lon="4.26818">
        <ele>392</ele>
        <time>2016-05-15T10:07:54.000Z</time>
      </trkpt>
      <trkpt lat="44.56467" lon="4.26823">
        <ele>392</ele>
        <time>2016-05-15T10:07:55.000Z</time>
      </trkpt>
      <trkpt lat="44.56468" lon="4.26828">
        <ele>392</ele>
        <time>2016-05-15T10:07:56.000Z</time>
      </trkpt>
      <trkpt lat="44.56469" lon="4.26834">
        <ele>389</ele>
        <time>2016-05-15T10:07:57.000Z</time>
      </trkpt>
      <trkpt lat="44.56471" lon="4.2684">
        <ele>390</ele>
        <time>2016-05-15T10:07:58.000Z</time>
      </trkpt>
      <trkpt lat="44.56474" lon="4.26846">
        <ele>390</ele>
        <time>2016-05-15T10:07:59.000Z</time>
      </trkpt>
      <trkpt lat="44.56477" lon="4.26852">
        <ele>390</ele>
        <time>2016-05-15T10:08:00.000Z</time>
      </trkpt>
      <trkpt lat="44.56481" lon="4.26858">
        <ele>390</ele>
        <time>2016-05-15T10:08:01.000Z</time>
      </trkpt>
      <trkpt lat="44.56485" lon="4.26864">
        <ele>390</ele>
        <time>2016-05-15T10:08:02.000Z</time>
      </trkpt>
      <trkpt lat="44.56488" lon="4.26871">
        <ele>390</ele>
        <time>2016-05-15T10:08:03.000Z</time>
      </trkpt>
      <trkpt lat="44.56491" lon="4.26878">
        <ele>390</ele>
        <time>2016-05-15T10:08:04.000Z</time>
      </trkpt>
      <trkpt lat="44.56495" lon="4.26885">
        <ele>390</ele>
        <time>2016-05-15T10:08:05.000Z</time>
      </trkpt>
      <trkpt lat="44.56498" lon="4.26892">
        <ele>390</ele>
        <time>2016-05-15T10:08:06.000Z</time>
      </trkpt>
      <trkpt lat="44.56502" lon="4.269">
        <ele>395</ele>
        <time>2016-05-15T10:08:07.000Z</time>
      </trkpt>
      <trkpt lat="44.56506" lon="4.26908">
        <ele>395</ele>
        <time>2016-05-15T10:08:08.000Z</time>
      </trkpt>
      <trkpt lat="44.5651" lon="4.26916">
        <ele>395</ele>
        <time>2016-05-15T10:08:09.000Z</time>
      </trkpt>
      <trkpt lat="44.56515" lon="4.26923">
        <ele>394</ele>
        <time>2016-05-15T10:08:10.000Z</time>
      </trkpt>
      <trkpt lat="44.56519" lon="4.26929">
        <ele>394</ele>
        <time>2016-05-15T10:08:11.000Z</time>
      </trkpt>
      <trkpt lat="44.56523" lon="4.26935">
        <ele>393</ele>
        <time>2016-05-15T10:08:12.000Z</time>
      </trkpt>
      <trkpt lat="44.56527" lon="4.26943">
        <ele>393</ele>
        <time>2016-05-15T10:08:13.000Z</time>
      </trkpt>
      <trkpt lat="44.56529" lon="4.26952">
        <ele>393</ele>
        <time>2016-05-15T10:08:14.000Z</time>
      </trkpt>
      <trkpt lat="44.56531" lon="4.2696">
        <ele>393</ele>
        <time>2016-05-15T10:08:15.000Z</time>
      </trkpt>
      <trkpt lat="44.56534" lon="4.26967">
        <ele>393</ele>
        <time>2016-05-15T10:08:16.000Z</time>
      </trkpt>
      <trkpt lat="44.56537" lon="4.26973">
        <ele>393</ele>
        <time>2016-05-15T10:08:17.000Z</time>
      </trkpt>
      <trkpt lat="44.5654" lon="4.2698">
        <ele>393</ele>
        <time>2016-05-15T10:08:18.000Z</time>
      </trkpt>
      <trkpt lat="44.56543" lon="4.26986">
        <ele>393</ele>
        <time>2016-05-15T10:08:19.000Z</time>
      </trkpt>
      <trkpt lat="44.56546" lon="4.26991">
        <ele>393</ele>
        <time>2016-05-15T10:08:20.000Z</time>
      </trkpt>
      <trkpt lat="44.56549" lon="4.26995">
        <ele>393</ele>
        <time>2016-05-15T10:08:21.000Z</time>
      </trkpt>
      <trkpt lat="44.56552" lon="4.27">
        <ele>394</ele>
        <time>2016-05-15T10:08:22.000Z</time>
      </trkpt>
      <trkpt lat="44.56554" lon="4.27006">
        <ele>394</ele>
        <time>2016-05-15T10:08:23.000Z</time>
      </trkpt>
      <trkpt lat="44.56557" lon="4.27011">
        <ele>394</ele>
        <time>2016-05-15T10:08:24.000Z</time>
      </trkpt>
      <trkpt lat="44.56559" lon="4.27017">
        <ele>394</ele>
        <time>2016-05-15T10:08:25.000Z</time>
      </trkpt>
      <trkpt lat="44.56561" lon="4.27023">
        <ele>394</ele>
        <time>2016-05-15T10:08:26.000Z</time>
      </trkpt>
      <trkpt lat="44.56563" lon="4.2703">
        <ele>394</ele>
        <time>2016-05-15T10:08:27.000Z</time>
      </trkpt>
      <trkpt lat="44.56565" lon="4.27036">
        <ele>394</ele>
        <time>2016-05-15T10:08:28.000Z</time>
      </trkpt>
      <trkpt lat="44.56567" lon="4.27042">
        <ele>394</ele>
        <time>2016-05-15T10:08:29.000Z</time>
      </trkpt>
      <trkpt lat="44.56569" lon="4.27048">
        <ele>394</ele>
        <time>2016-05-15T10:08:30.000Z</time>
      </trkpt>
      <trkpt lat="44.56571" lon="4.27055">
        <ele>394</ele>
        <time>2016-05-15T10:08:31.000Z</time>
      </trkpt>
      <trkpt lat="44.56572" lon="4.27061">
        <ele>394</ele>
        <time>2016-05-15T10:08:32.000Z</time>
      </trkpt>
      <trkpt lat="44.56572" lon="4.27068">
        <ele>394</ele>
        <time>2016-05-15T10:08:33.000Z</time>
      </trkpt>
      <trkpt lat="44.56573" lon="4.27075">
        <ele>394</ele>
        <time>2016-05-15T10:08:34.000Z</time>
      </trkpt>
      <trkpt lat="44.56573" lon="4.27082">
        <ele>394</ele>
        <time>2016-05-15T10:08:35.000Z</time>
      </trkpt>
      <trkpt lat="44.56574" lon="4.27089">
        <ele>394</ele>
        <time>2016-05-15T10:08:36.000Z</time>
      </trkpt>
      <trkpt lat="44.56574" lon="4.27096">
        <ele>394</ele>
        <time>2016-05-15T10:08:37.000Z</time>
      </trkpt>
      <trkpt lat="44.56574" lon="4.27102">
        <ele>394</ele>
        <time>2016-05-15T10:08:38.000Z</time>
      </trkpt>
      <trkpt lat="44.56574" lon="4.27109">
        <ele>394</ele>
        <time>2016-05-15T10:08:39.000Z</time>
      </trkpt>
      <trkpt lat="44.56575" lon="4.27117">
        <ele>394</ele>
        <time>2016-05-15T10:08:40.000Z</time>
      </trkpt>
      <trkpt lat="44.56576" lon="4.27124">
        <ele>394</ele>
        <time>2016-05-15T10:08:41.000Z</time>
      </trkpt>
      <trkpt lat="44.56578" lon="4.27133">
        <ele>394</ele>
        <time>2016-05-15T10:08:42.000Z</time>
      </trkpt>
      <trkpt lat="44.56579" lon="4.27141">
        <ele>394</ele>
        <time>2016-05-15T10:08:43.000Z</time>
      </trkpt>
      <trkpt lat="44.5658" lon="4.27148">
        <ele>394</ele>
        <time>2016-05-15T10:08:44.000Z</time>
      </trkpt>
      <trkpt lat="44.5658" lon="4.27157">
        <ele>393</ele>
        <time>2016-05-15T10:08:45.000Z</time>
      </trkpt>
      <trkpt lat="44.56581" lon="4.27168">
        <ele>392</ele>
        <time>2016-05-15T10:08:46.000Z</time>
      </trkpt>
      <trkpt lat="44.56582" lon="4.27177">
        <ele>392</ele>
        <time>2016-05-15T10:08:47.000Z</time>
      </trkpt>
      <trkpt lat="44.56583" lon="4.27187">
        <ele>392</ele>
        <time>2016-05-15T10:08:48.000Z</time>
      </trkpt>
      <trkpt lat="44.56583" lon="4.27197">
        <ele>391</ele>
        <time>2016-05-15T10:08:49.000Z</time>
      </trkpt>
      <trkpt lat="44.56583" lon="4.27206">
        <ele>391</ele>
        <time>2016-05-15T10:08:50.000Z</time>
      </trkpt>
      <trkpt lat="44.56584" lon="4.27216">
        <ele>387</ele>
        <time>2016-05-15T10:08:51.000Z</time>
      </trkpt>
      <trkpt lat="44.56585" lon="4.27225">
        <ele>387</ele>
        <time>2016-05-15T10:08:52.000Z</time>
      </trkpt>
      <trkpt lat="44.56587" lon="4.27233">
        <ele>388</ele>
        <time>2016-05-15T10:08:53.000Z</time>
      </trkpt>
      <trkpt lat="44.56588" lon="4.27241">
        <ele>388</ele>
        <time>2016-05-15T10:08:54.000Z</time>
      </trkpt>
      <trkpt lat="44.5659" lon="4.27249">
        <ele>388</ele>
        <time>2016-05-15T10:08:55.000Z</time>
      </trkpt>
      <trkpt lat="44.56593" lon="4.27257">
        <ele>388</ele>
        <time>2016-05-15T10:08:56.000Z</time>
      </trkpt>
      <trkpt lat="44.56596" lon="4.27265">
        <ele>387</ele>
        <time>2016-05-15T10:08:57.000Z</time>
      </trkpt>
      <trkpt lat="44.56599" lon="4.27274">
        <ele>387</ele>
        <time>2016-05-15T10:08:58.000Z</time>
      </trkpt>
      <trkpt lat="44.56603" lon="4.27282">
        <ele>387</ele>
        <time>2016-05-15T10:08:59.000Z</time>
      </trkpt>
      <trkpt lat="44.56606" lon="4.27291">
        <ele>386</ele>
        <time>2016-05-15T10:09:00.000Z</time>
      </trkpt>
      <trkpt lat="44.56609" lon="4.27299">
        <ele>386</ele>
        <time>2016-05-15T10:09:01.000Z</time>
      </trkpt>
      <trkpt lat="44.56611" lon="4.27307">
        <ele>386</ele>
        <time>2016-05-15T10:09:02.000Z</time>
      </trkpt>
      <trkpt lat="44.56614" lon="4.27314">
        <ele>386</ele>
        <time>2016-05-15T10:09:03.000Z</time>
      </trkpt>
      <trkpt lat="44.56617" lon="4.27322">
        <ele>386</ele>
        <time>2016-05-15T10:09:04.000Z</time>
      </trkpt>
      <trkpt lat="44.56619" lon="4.27329">
        <ele>386</ele>
        <time>2016-05-15T10:09:05.000Z</time>
      </trkpt>
      <trkpt lat="44.56621" lon="4.27336">
        <ele>386</ele>
        <time>2016-05-15T10:09:06.000Z</time>
      </trkpt>
      <trkpt lat="44.56624" lon="4.27342">
        <ele>386</ele>
        <time>2016-05-15T10:09:07.000Z</time>
      </trkpt>
      <trkpt lat="44.56626" lon="4.27348">
        <ele>386</ele>
        <time>2016-05-15T10:09:08.000Z</time>
      </trkpt>
      <trkpt lat="44.56629" lon="4.27354">
        <ele>386</ele>
        <time>2016-05-15T10:09:09.000Z</time>
      </trkpt>
      <trkpt lat="44.5663" lon="4.2736">
        <ele>386</ele>
        <time>2016-05-15T10:09:10.000Z</time>
      </trkpt>
      <trkpt lat="44.56632" lon="4.27365">
        <ele>386</ele>
        <time>2016-05-15T10:09:11.000Z</time>
      </trkpt>
      <trkpt lat="44.56633" lon="4.2737">
        <ele>386</ele>
        <time>2016-05-15T10:09:12.000Z</time>
      </trkpt>
      <trkpt lat="44.56635" lon="4.27373">
        <ele>386</ele>
        <time>2016-05-15T10:09:13.000Z</time>
      </trkpt>
      <trkpt lat="44.56638" lon="4.27375">
        <ele>386</ele>
        <time>2016-05-15T10:09:14.000Z</time>
      </trkpt>
      <trkpt lat="44.56641" lon="4.27376">
        <ele>386</ele>
        <time>2016-05-15T10:09:15.000Z</time>
      </trkpt>
      <trkpt lat="44.56644" lon="4.27377">
        <ele>386</ele>
        <time>2016-05-15T10:09:16.000Z</time>
      </trkpt>
      <trkpt lat="44.56647" lon="4.27378">
        <ele>386</ele>
        <time>2016-05-15T10:09:17.000Z</time>
      </trkpt>
      <trkpt lat="44.56649" lon="4.2738">
        <ele>386</ele>
        <time>2016-05-15T10:09:18.000Z</time>
      </trkpt>
      <trkpt lat="44.56652" lon="4.27382">
        <ele>386</ele>
        <time>2016-05-15T10:09:19.000Z</time>
      </trkpt>
      <trkpt lat="44.56655" lon="4.27385">
        <ele>386</ele>
        <time>2016-05-15T10:09:20.000Z</time>
      </trkpt>
      <trkpt lat="44.56657" lon="4.27389">
        <ele>386</ele>
        <time>2016-05-15T10:09:21.000Z</time>
      </trkpt>
      <trkpt lat="44.56659" lon="4.27392">
        <ele>386</ele>
        <time>2016-05-15T10:09:22.000Z</time>
      </trkpt>
      <trkpt lat="44.56661" lon="4.27395">
        <ele>386</ele>
        <time>2016-05-15T10:09:23.000Z</time>
      </trkpt>
      <trkpt lat="44.56663" lon="4.27399">
        <ele>386</ele>
        <time>2016-05-15T10:09:24.000Z</time>
      </trkpt>
      <trkpt lat="44.56665" lon="4.27404">
        <ele>386</ele>
        <time>2016-05-15T10:09:25.000Z</time>
      </trkpt>
      <trkpt lat="44.56667" lon="4.27409">
        <ele>386</ele>
        <time>2016-05-15T10:09:26.000Z</time>
      </trkpt>
      <trkpt lat="44.56668" lon="4.27414">
        <ele>385</ele>
        <time>2016-05-15T10:09:27.000Z</time>
      </trkpt>
      <trkpt lat="44.56671" lon="4.27418">
        <ele>385</ele>
        <time>2016-05-15T10:09:28.000Z</time>
      </trkpt>
      <trkpt lat="44.56674" lon="4.27423">
        <ele>385</ele>
        <time>2016-05-15T10:09:29.000Z</time>
      </trkpt>
      <trkpt lat="44.56677" lon="4.27428">
        <ele>384</ele>
        <time>2016-05-15T10:09:30.000Z</time>
      </trkpt>
      <trkpt lat="44.56679" lon="4.27434">
        <ele>384</ele>
        <time>2016-05-15T10:09:31.000Z</time>
      </trkpt>
      <trkpt lat="44.56681" lon="4.2744">
        <ele>384</ele>
        <time>2016-05-15T10:09:32.000Z</time>
      </trkpt>
      <trkpt lat="44.56682" lon="4.27445">
        <ele>384</ele>
        <time>2016-05-15T10:09:33.000Z</time>
      </trkpt>
      <trkpt lat="44.56683" lon="4.2745">
        <ele>383</ele>
        <time>2016-05-15T10:09:34.000Z</time>
      </trkpt>
      <trkpt lat="44.56684" lon="4.27455">
        <ele>383</ele>
        <time>2016-05-15T10:09:35.000Z</time>
      </trkpt>
      <trkpt lat="44.56684" lon="4.2746">
        <ele>383</ele>
        <time>2016-05-15T10:09:36.000Z</time>
      </trkpt>
      <trkpt lat="44.56684" lon="4.27465">
        <ele>383</ele>
        <time>2016-05-15T10:09:37.000Z</time>
      </trkpt>
      <trkpt lat="44.56684" lon="4.27469">
        <ele>383</ele>
        <time>2016-05-15T10:09:38.000Z</time>
      </trkpt>
      <trkpt lat="44.56684" lon="4.27473">
        <ele>383</ele>
        <time>2016-05-15T10:09:39.000Z</time>
      </trkpt>
      <trkpt lat="44.56685" lon="4.27478">
        <ele>383</ele>
        <time>2016-05-15T10:09:40.000Z</time>
      </trkpt>
      <trkpt lat="44.56686" lon="4.27483">
        <ele>383</ele>
        <time>2016-05-15T10:09:41.000Z</time>
      </trkpt>
      <trkpt lat="44.56688" lon="4.27488">
        <ele>383</ele>
        <time>2016-05-15T10:09:42.000Z</time>
      </trkpt>
      <trkpt lat="44.5669" lon="4.27493">
        <ele>383</ele>
        <time>2016-05-15T10:09:43.000Z</time>
      </trkpt>
      <trkpt lat="44.56693" lon="4.27497">
        <ele>383</ele>
        <time>2016-05-15T10:09:44.000Z</time>
      </trkpt>
      <trkpt lat="44.56695" lon="4.27502">
        <ele>385</ele>
        <time>2016-05-15T10:09:45.000Z</time>
      </trkpt>
      <trkpt lat="44.56696" lon="4.27508">
        <ele>385</ele>
        <time>2016-05-15T10:09:46.000Z</time>
      </trkpt>
      <trkpt lat="44.56698" lon="4.27513">
        <ele>385</ele>
        <time>2016-05-15T10:09:47.000Z</time>
      </trkpt>
      <trkpt lat="44.56699" lon="4.27518">
        <ele>386</ele>
        <time>2016-05-15T10:09:48.000Z</time>
      </trkpt>
      <trkpt lat="44.567" lon="4.27523">
        <ele>386</ele>
        <time>2016-05-15T10:09:49.000Z</time>
      </trkpt>
      <trkpt lat="44.567" lon="4.27528">
        <ele>386</ele>
        <time>2016-05-15T10:09:50.000Z</time>
      </trkpt>
      <trkpt lat="44.56701" lon="4.27531">
        <ele>386</ele>
        <time>2016-05-15T10:09:51.000Z</time>
      </trkpt>
      <trkpt lat="44.56702" lon="4.27535">
        <ele>386</ele>
        <time>2016-05-15T10:09:52.000Z</time>
      </trkpt>
      <trkpt lat="44.56703" lon="4.27539">
        <ele>386</ele>
        <time>2016-05-15T10:09:53.000Z</time>
      </trkpt>
      <trkpt lat="44.56703" lon="4.27542">
        <ele>386</ele>
        <time>2016-05-15T10:09:54.000Z</time>
      </trkpt>
      <trkpt lat="44.56704" lon="4.27545">
        <ele>386</ele>
        <time>2016-05-15T10:09:55.000Z</time>
      </trkpt>
      <trkpt lat="44.56705" lon="4.27547">
        <ele>386</ele>
        <time>2016-05-15T10:09:56.000Z</time>
      </trkpt>
      <trkpt lat="44.56705" lon="4.27549">
        <ele>386</ele>
        <time>2016-05-15T10:09:57.000Z</time>
      </trkpt>
      <trkpt lat="44.56705" lon="4.27551">
        <ele>386</ele>
        <time>2016-05-15T10:09:58.000Z</time>
      </trkpt>
      <trkpt lat="44.56704" lon="4.27553">
        <ele>386</ele>
        <time>2016-05-15T10:09:59.000Z</time>
      </trkpt>
      <trkpt lat="44.56702" lon="4.27555">
        <ele>386</ele>
        <time>2016-05-15T10:10:00.000Z</time>
      </trkpt>
      <trkpt lat="44.56701" lon="4.27557">
        <ele>386</ele>
        <time>2016-05-15T10:10:01.000Z</time>
      </trkpt>
      <trkpt lat="44.56699" lon="4.27559">
        <ele>386</ele>
        <time>2016-05-15T10:10:02.000Z</time>
      </trkpt>
      <trkpt lat="44.56697" lon="4.27561">
        <ele>386</ele>
        <time>2016-05-15T10:10:03.000Z</time>
      </trkpt>
      <trkpt lat="44.56696" lon="4.27563">
        <ele>386</ele>
        <time>2016-05-15T10:10:04.000Z</time>
      </trkpt>
      <trkpt lat="44.56694" lon="4.27566">
        <ele>386</ele>
        <time>2016-05-15T10:10:05.000Z</time>
      </trkpt>
      <trkpt lat="44.56693" lon="4.27568">
        <ele>386</ele>
        <time>2016-05-15T10:10:06.000Z</time>
      </trkpt>
      <trkpt lat="44.56692" lon="4.2757">
        <ele>386</ele>
        <time>2016-05-15T10:10:07.000Z</time>
      </trkpt>
      <trkpt lat="44.56691" lon="4.27574">
        <ele>386</ele>
        <time>2016-05-15T10:10:08.000Z</time>
      </trkpt>
      <trkpt lat="44.56689" lon="4.27577">
        <ele>386</ele>
        <time>2016-05-15T10:10:09.000Z</time>
      </trkpt>
      <trkpt lat="44.56688" lon="4.2758">
        <ele>386</ele>
        <time>2016-05-15T10:10:10.000Z</time>
      </trkpt>
      <trkpt lat="44.56687" lon="4.27584">
        <ele>386</ele>
        <time>2016-05-15T10:10:11.000Z</time>
      </trkpt>
      <trkpt lat="44.56687" lon="4.27587">
        <ele>386</ele>
        <time>2016-05-15T10:10:12.000Z</time>
      </trkpt>
      <trkpt lat="44.56686" lon="4.27591">
        <ele>386</ele>
        <time>2016-05-15T10:10:13.000Z</time>
      </trkpt>
      <trkpt lat="44.56686" lon="4.27594">
        <ele>386</ele>
        <time>2016-05-15T10:10:14.000Z</time>
      </trkpt>
      <trkpt lat="44.56685" lon="4.27597">
        <ele>386</ele>
        <time>2016-05-15T10:10:15.000Z</time>
      </trkpt>
      <trkpt lat="44.56684" lon="4.27601">
        <ele>386</ele>
        <time>2016-05-15T10:10:16.000Z</time>
      </trkpt>
      <trkpt lat="44.56683" lon="4.27605">
        <ele>386</ele>
        <time>2016-05-15T10:10:17.000Z</time>
      </trkpt>
      <trkpt lat="44.56683" lon="4.27609">
        <ele>386</ele>
        <time>2016-05-15T10:10:18.000Z</time>
      </trkpt>
      <trkpt lat="44.56682" lon="4.27614">
        <ele>386</ele>
        <time>2016-05-15T10:10:19.000Z</time>
      </trkpt>
      <trkpt lat="44.56681" lon="4.27619">
        <ele>386</ele>
        <time>2016-05-15T10:10:20.000Z</time>
      </trkpt>
      <trkpt lat="44.5668" lon="4.27625">
        <ele>386</ele>
        <time>2016-05-15T10:10:21.000Z</time>
      </trkpt>
      <trkpt lat="44.56681" lon="4.27631">
        <ele>386</ele>
        <time>2016-05-15T10:10:22.000Z</time>
      </trkpt>
      <trkpt lat="44.56682" lon="4.27638">
        <ele>386</ele>
        <time>2016-05-15T10:10:23.000Z</time>
      </trkpt>
      <trkpt lat="44.56683" lon="4.27646">
        <ele>386</ele>
        <time>2016-05-15T10:10:24.000Z</time>
      </trkpt>
      <trkpt lat="44.56684" lon="4.27653">
        <ele>386</ele>
        <time>2016-05-15T10:10:25.000Z</time>
      </trkpt>
      <trkpt lat="44.56686" lon="4.27661">
        <ele>386</ele>
        <time>2016-05-15T10:10:26.000Z</time>
      </trkpt>
      <trkpt lat="44.56688" lon="4.27669">
        <ele>384</ele>
        <time>2016-05-15T10:10:27.000Z</time>
      </trkpt>
      <trkpt lat="44.5669" lon="4.27678">
        <ele>384</ele>
        <time>2016-05-15T10:10:28.000Z</time>
      </trkpt>
      <trkpt lat="44.56692" lon="4.27686">
        <ele>383</ele>
        <time>2016-05-15T10:10:29.000Z</time>
      </trkpt>
      <trkpt lat="44.56695" lon="4.27695">
        <ele>383</ele>
        <time>2016-05-15T10:10:30.000Z</time>
      </trkpt>
      <trkpt lat="44.56698" lon="4.27704">
        <ele>383</ele>
        <time>2016-05-15T10:10:31.000Z</time>
      </trkpt>
      <trkpt lat="44.56701" lon="4.27713">
        <ele>383</ele>
        <time>2016-05-15T10:10:32.000Z</time>
      </trkpt>
      <trkpt lat="44.56703" lon="4.27722">
        <ele>383</ele>
        <time>2016-05-15T10:10:33.000Z</time>
      </trkpt>
      <trkpt lat="44.56705" lon="4.27732">
        <ele>382</ele>
        <time>2016-05-15T10:10:34.000Z</time>
      </trkpt>
      <trkpt lat="44.56706" lon="4.27741">
        <ele>382</ele>
        <time>2016-05-15T10:10:35.000Z</time>
      </trkpt>
      <trkpt lat="44.56708" lon="4.27751">
        <ele>380</ele>
        <time>2016-05-15T10:10:36.000Z</time>
      </trkpt>
      <trkpt lat="44.5671" lon="4.2776">
        <ele>379</ele>
        <time>2016-05-15T10:10:37.000Z</time>
      </trkpt>
      <trkpt lat="44.56711" lon="4.27769">
        <ele>379</ele>
        <time>2016-05-15T10:10:38.000Z</time>
      </trkpt>
      <trkpt lat="44.56712" lon="4.27779">
        <ele>379</ele>
        <time>2016-05-15T10:10:39.000Z</time>
      </trkpt>
      <trkpt lat="44.56713" lon="4.27788">
        <ele>379</ele>
        <time>2016-05-15T10:10:40.000Z</time>
      </trkpt>
      <trkpt lat="44.56713" lon="4.27797">
        <ele>379</ele>
        <time>2016-05-15T10:10:41.000Z</time>
      </trkpt>
      <trkpt lat="44.56714" lon="4.27805">
        <ele>379</ele>
        <time>2016-05-15T10:10:42.000Z</time>
      </trkpt>
      <trkpt lat="44.56715" lon="4.27812">
        <ele>379</ele>
        <time>2016-05-15T10:10:43.000Z</time>
      </trkpt>
      <trkpt lat="44.56716" lon="4.27816">
        <ele>378</ele>
        <time>2016-05-15T10:10:44.000Z</time>
      </trkpt>
      <trkpt lat="44.56717" lon="4.2782">
        <ele>378</ele>
        <time>2016-05-15T10:10:45.000Z</time>
      </trkpt>
      <trkpt lat="44.56717" lon="4.27823">
        <ele>378</ele>
        <time>2016-05-15T10:10:46.000Z</time>
      </trkpt>
      <trkpt lat="44.56718" lon="4.27827">
        <ele>378</ele>
        <time>2016-05-15T10:10:47.000Z</time>
      </trkpt>
      <trkpt lat="44.56718" lon="4.27832">
        <ele>378</ele>
        <time>2016-05-15T10:10:48.000Z</time>
      </trkpt>
      <trkpt lat="44.56718" lon="4.27836">
        <ele>376</ele>
        <time>2016-05-15T10:10:49.000Z</time>
      </trkpt>
      <trkpt lat="44.56717" lon="4.27841">
        <ele>376</ele>
        <time>2016-05-15T10:10:50.000Z</time>
      </trkpt>
      <trkpt lat="44.56717" lon="4.27846">
        <ele>376</ele>
        <time>2016-05-15T10:10:51.000Z</time>
      </trkpt>
      <trkpt lat="44.56717" lon="4.2785">
        <ele>376</ele>
        <time>2016-05-15T10:10:52.000Z</time>
      </trkpt>
      <trkpt lat="44.56717" lon="4.27851">
        <ele>376</ele>
        <time>2016-05-15T10:10:53.000Z</time>
      </trkpt>
      <trkpt lat="44.56717" lon="4.27852">
        <ele>376</ele>
        <time>2016-05-15T10:10:54.000Z</time>
      </trkpt>
      <trkpt lat="44.56717" lon="4.27852">
        <ele>376</ele>
        <time>2016-05-15T10:10:55.000Z</time>
      </trkpt>
      <trkpt lat="44.56718" lon="4.27852">
        <ele>376</ele>
        <time>2016-05-15T10:10:56.000Z</time>
      </trkpt>
      <trkpt lat="44.56718" lon="4.27852">
        <ele>376</ele>
        <time>2016-05-15T10:10:57.000Z</time>
      </trkpt>
      <trkpt lat="44.56718" lon="4.27852">
        <ele>376</ele>
        <time>2016-05-15T10:10:58.000Z</time>
      </trkpt>
      <trkpt lat="44.56718" lon="4.27852">
        <ele>376</ele>
        <time>2016-05-15T10:10:59.000Z</time>
      </trkpt>
      <trkpt lat="44.56718" lon="4.27852">
        <ele>376</ele>
        <time>2016-05-15T10:11:00.000Z</time>
      </trkpt>
      <trkpt lat="44.56718" lon="4.27852">
        <ele>376</ele>
        <time>2016-05-15T10:11:01.000Z</time>
      </trkpt>
      <trkpt lat="44.56718" lon="4.27852">
        <ele>376</ele>
        <time>2016-05-15T10:11:02.000Z</time>
      </trkpt>
      <trkpt lat="44.56718" lon="4.27852">
        <ele>376</ele>
        <time>2016-05-15T10:11:03.000Z</time>
      </trkpt>
      <trkpt lat="44.56718" lon="4.27852">
        <ele>376</ele>
        <time>2016-05-15T10:11:04.000Z</time>
      </trkpt>
      <trkpt lat="44.56718" lon="4.27852">
        <ele>376</ele>
        <time>2016-05-15T10:11:05.000Z</time>
      </trkpt>
      <trkpt lat="44.56718" lon="4.27852">
        <ele>376</ele>
        <time>2016-05-15T10:11:06.000Z</time>
      </trkpt>
      <trkpt lat="44.56718" lon="4.27852">
        <ele>376</ele>
        <time>2016-05-15T10:11:07.000Z</time>
      </trkpt>
      <trkpt lat="44.56718" lon="4.27852">
        <ele>376</ele>
        <time>2016-05-15T10:11:08.000Z</time>
      </trkpt>
      <trkpt lat="44.56718" lon="4.27852">
        <ele>376</ele>
        <time>2016-05-15T10:11:09.000Z</time>
      </trkpt>
      <trkpt lat="44.56718" lon="4.27852">
        <ele>376</ele>
        <time>2016-05-15T10:11:10.000Z</time>
      </trkpt>
      <trkpt lat="44.56718" lon="4.27852">
        <ele>376</ele>
        <time>2016-05-15T10:11:11.000Z</time>
      </trkpt>
      <trkpt lat="44.56718" lon="4.27852">
        <ele>376</ele>
        <time>2016-05-15T10:11:12.000Z</time>
      </trkpt>
      <trkpt lat="44.56718" lon="4.27852">
        <ele>376</ele>
        <time>2016-05-15T10:11:13.000Z</time>
      </trkpt>
      <trkpt lat="44.56719" lon="4.27852">
        <ele>376</ele>
        <time>2016-05-15T10:11:14.000Z</time>
      </trkpt>
      <trkpt lat="44.56719" lon="4.27852">
        <ele>376</ele>
        <time>2016-05-15T10:11:15.000Z</time>
      </trkpt>
      <trkpt lat="44.56719" lon="4.27852">
        <ele>376</ele>
        <time>2016-05-15T10:11:16.000Z</time>
      </trkpt>
      <trkpt lat="44.56719" lon="4.27852">
        <ele>376</ele>
        <time>2016-05-15T10:11:17.000Z</time>
      </trkpt>
      <trkpt lat="44.56719" lon="4.27852">
        <ele>376</ele>
        <time>2016-05-15T10:11:18.000Z</time>
      </trkpt>
      <trkpt lat="44.56719" lon="4.27852">
        <ele>376</ele>
        <time>2016-05-15T10:11:19.000Z</time>
      </trkpt>
      <trkpt lat="44.56719" lon="4.27852">
        <ele>376</ele>
        <time>2016-05-15T10:11:20.000Z</time>
      </trkpt>
      <trkpt lat="44.56719" lon="4.27852">
        <ele>376</ele>
        <time>2016-05-15T10:11:21.000Z</time>
      </trkpt>
      <trkpt lat="44.56719" lon="4.27852">
        <ele>376</ele>
        <time>2016-05-15T10:11:22.000Z</time>
      </trkpt>
      <trkpt lat="44.56719" lon="4.27853">
        <ele>376</ele>
        <time>2016-05-15T10:11:23.000Z</time>
      </trkpt>
      <trkpt lat="44.56719" lon="4.27853">
        <ele>376</ele>
        <time>2016-05-15T10:11:24.000Z</time>
      </trkpt>
      <trkpt lat="44.56719" lon="4.27853">
        <ele>376</ele>
        <time>2016-05-15T10:11:25.000Z</time>
      </trkpt>
      <trkpt lat="44.56719" lon="4.27853">
        <ele>376</ele>
        <time>2016-05-15T10:11:26.000Z</time>
      </trkpt>
      <trkpt lat="44.56718" lon="4.27853">
        <ele>376</ele>
        <time>2016-05-15T10:11:27.000Z</time>
      </trkpt>
      <trkpt lat="44.56718" lon="4.27853">
        <ele>376</ele>
        <time>2016-05-15T10:11:28.000Z</time>
      </trkpt>
      <trkpt lat="44.56718" lon="4.27853">
        <ele>376</ele>
        <time>2016-05-15T10:11:29.000Z</time>
      </trkpt>
      <trkpt lat="44.56718" lon="4.27853">
        <ele>376</ele>
        <time>2016-05-15T10:11:30.000Z</time>
      </trkpt>
      <trkpt lat="44.56718" lon="4.27853">
        <ele>376</ele>
        <time>2016-05-15T10:11:31.000Z</time>
      </trkpt>
      <trkpt lat="44.56718" lon="4.27853">
        <ele>376</ele>
        <time>2016-05-15T10:11:32.000Z</time>
      </trkpt>
      <trkpt lat="44.56718" lon="4.27853">
        <ele>376</ele>
        <time>2016-05-15T10:11:33.000Z</time>
      </trkpt>
      <trkpt lat="44.56718" lon="4.27853">
        <ele>376</ele>
        <time>2016-05-15T10:11:34.000Z</time>
      </trkpt>
      <trkpt lat="44.56718" lon="4.27852">
        <ele>376</ele>
        <time>2016-05-15T10:11:35.000Z</time>
      </trkpt>
      <trkpt lat="44.56718" lon="4.27851">
        <ele>376</ele>
        <time>2016-05-15T10:11:36.000Z</time>
      </trkpt>
      <trkpt lat="44.56718" lon="4.2785">
        <ele>376</ele>
        <time>2016-05-15T10:11:37.000Z</time>
      </trkpt>
      <trkpt lat="44.56718" lon="4.27848">
        <ele>376</ele>
        <time>2016-05-15T10:11:38.000Z</time>
      </trkpt>
      <trkpt lat="44.56717" lon="4.27847">
        <ele>376</ele>
        <time>2016-05-15T10:11:39.000Z</time>
      </trkpt>
      <trkpt lat="44.56717" lon="4.27845">
        <ele>376</ele>
        <time>2016-05-15T10:11:40.000Z</time>
      </trkpt>
      <trkpt lat="44.56717" lon="4.27843">
        <ele>376</ele>
        <time>2016-05-15T10:11:41.000Z</time>
      </trkpt>
      <trkpt lat="44.56718" lon="4.27842">
        <ele>376</ele>
        <time>2016-05-15T10:11:42.000Z</time>
      </trkpt>
      <trkpt lat="44.56718" lon="4.2784">
        <ele>376</ele>
        <time>2016-05-15T10:11:43.000Z</time>
      </trkpt>
      <trkpt lat="44.56718" lon="4.27838">
        <ele>376</ele>
        <time>2016-05-15T10:11:44.000Z</time>
      </trkpt>
      <trkpt lat="44.56718" lon="4.27836">
        <ele>376</ele>
        <time>2016-05-15T10:11:45.000Z</time>
      </trkpt>
      <trkpt lat="44.56718" lon="4.27834">
        <ele>376</ele>
        <time>2016-05-15T10:11:46.000Z</time>
      </trkpt>
      <trkpt lat="44.56718" lon="4.27832">
        <ele>378</ele>
        <time>2016-05-15T10:11:47.000Z</time>
      </trkpt>
      <trkpt lat="44.56718" lon="4.2783">
        <ele>378</ele>
        <time>2016-05-15T10:11:48.000Z</time>
      </trkpt>
      <trkpt lat="44.56718" lon="4.27829">
        <ele>378</ele>
        <time>2016-05-15T10:11:49.000Z</time>
      </trkpt>
      <trkpt lat="44.56718" lon="4.27827">
        <ele>378</ele>
        <time>2016-05-15T10:11:50.000Z</time>
      </trkpt>
      <trkpt lat="44.56718" lon="4.27826">
        <ele>378</ele>
        <time>2016-05-15T10:11:51.000Z</time>
      </trkpt>
      <trkpt lat="44.56718" lon="4.27824">
        <ele>378</ele>
        <time>2016-05-15T10:11:52.000Z</time>
      </trkpt>
      <trkpt lat="44.56718" lon="4.27823">
        <ele>378</ele>
        <time>2016-05-15T10:11:53.000Z</time>
      </trkpt>
      <trkpt lat="44.56717" lon="4.27822">
        <ele>378</ele>
        <time>2016-05-15T10:11:54.000Z</time>
      </trkpt>
      <trkpt lat="44.56716" lon="4.27822">
        <ele>378</ele>
        <time>2016-05-15T10:11:55.000Z</time>
      </trkpt>
      <trkpt lat="44.56716" lon="4.27822">
        <ele>378</ele>
        <time>2016-05-15T10:11:56.000Z</time>
      </trkpt>
      <trkpt lat="44.56716" lon="4.27822">
        <ele>378</ele>
        <time>2016-05-15T10:11:57.000Z</time>
      </trkpt>
      <trkpt lat="44.56716" lon="4.27822">
        <ele>378</ele>
        <time>2016-05-15T10:11:58.000Z</time>
      </trkpt>
      <trkpt lat="44.56716" lon="4.27822">
        <ele>378</ele>
        <time>2016-05-15T10:11:59.000Z</time>
      </trkpt>
      <trkpt lat="44.56716" lon="4.27823">
        <ele>378</ele>
        <time>2016-05-15T10:12:00.000Z</time>
      </trkpt>
      <trkpt lat="44.56716" lon="4.27823">
        <ele>378</ele>
        <time>2016-05-15T10:12:01.000Z</time>
      </trkpt>
      <trkpt lat="44.56716" lon="4.27823">
        <ele>378</ele>
        <time>2016-05-15T10:12:02.000Z</time>
      </trkpt>
      <trkpt lat="44.56716" lon="4.27823">
        <ele>378</ele>
        <time>2016-05-15T10:12:03.000Z</time>
      </trkpt>
      <trkpt lat="44.56716" lon="4.27823">
        <ele>378</ele>
        <time>2016-05-15T10:12:04.000Z</time>
      </trkpt>
      <trkpt lat="44.56716" lon="4.27822">
        <ele>378</ele>
        <time>2016-05-15T10:12:05.000Z</time>
      </trkpt>
      <trkpt lat="44.56716" lon="4.27822">
        <ele>378</ele>
        <time>2016-05-15T10:12:06.000Z</time>
      </trkpt>
      <trkpt lat="44.56716" lon="4.27822">
        <ele>378</ele>
        <time>2016-05-15T10:12:07.000Z</time>
      </trkpt>
      <trkpt lat="44.56716" lon="4.27822">
        <ele>378</ele>
        <time>2016-05-15T10:12:08.000Z</time>
      </trkpt>
      <trkpt lat="44.56716" lon="4.27822">
        <ele>378</ele>
        <time>2016-05-15T10:12:09.000Z</time>
      </trkpt>
      <trkpt lat="44.56716" lon="4.27822">
        <ele>378</ele>
        <time>2016-05-15T10:12:10.000Z</time>
      </trkpt>
      <trkpt lat="44.56716" lon="4.27822">
        <ele>378</ele>
        <time>2016-05-15T10:12:11.000Z</time>
      </trkpt>
      <trkpt lat="44.56716" lon="4.27822">
        <ele>378</ele>
        <time>2016-05-15T10:12:12.000Z</time>
      </trkpt>
      <trkpt lat="44.56716" lon="4.27822">
        <ele>378</ele>
        <time>2016-05-15T10:12:13.000Z</time>
      </trkpt>
      <trkpt lat="44.56716" lon="4.27822">
        <ele>378</ele>
        <time>2016-05-15T10:12:14.000Z</time>
      </trkpt>
      <trkpt lat="44.56715" lon="4.27821">
        <ele>378</ele>
        <time>2016-05-15T10:12:15.000Z</time>
      </trkpt>
      <trkpt lat="44.56715" lon="4.27821">
        <ele>378</ele>
        <time>2016-05-15T10:12:16.000Z</time>
      </trkpt>
      <trkpt lat="44.56713" lon="4.27821">
        <ele>378</ele>
        <time>2016-05-15T10:12:17.000Z</time>
      </trkpt>
      <trkpt lat="44.56711" lon="4.2782">
        <ele>378</ele>
        <time>2016-05-15T10:12:18.000Z</time>
      </trkpt>
      <trkpt lat="44.56709" lon="4.2782">
        <ele>379</ele>
        <time>2016-05-15T10:12:19.000Z</time>
      </trkpt>
      <trkpt lat="44.56705" lon="4.27821">
        <ele>379</ele>
        <time>2016-05-15T10:12:20.000Z</time>
      </trkpt>
      <trkpt lat="44.56701" lon="4.27821">
        <ele>379</ele>
        <time>2016-05-15T10:12:21.000Z</time>
      </trkpt>
      <trkpt lat="44.56696" lon="4.2782">
        <ele>379</ele>
        <time>2016-05-15T10:12:22.000Z</time>
      </trkpt>
      <trkpt lat="44.56691" lon="4.2782">
        <ele>379</ele>
        <time>2016-05-15T10:12:23.000Z</time>
      </trkpt>
      <trkpt lat="44.56686" lon="4.27819">
        <ele>379</ele>
        <time>2016-05-15T10:12:24.000Z</time>
      </trkpt>
      <trkpt lat="44.56681" lon="4.2782">
        <ele>379</ele>
        <time>2016-05-15T10:12:25.000Z</time>
      </trkpt>
      <trkpt lat="44.56678" lon="4.27823">
        <ele>379</ele>
        <time>2016-05-15T10:12:26.000Z</time>
      </trkpt>
      <trkpt lat="44.56676" lon="4.27828">
        <ele>379</ele>
        <time>2016-05-15T10:12:27.000Z</time>
      </trkpt>
      <trkpt lat="44.56676" lon="4.27835">
        <ele>378</ele>
        <time>2016-05-15T10:12:28.000Z</time>
      </trkpt>
      <trkpt lat="44.56679" lon="4.27842">
        <ele>377</ele>
        <time>2016-05-15T10:12:29.000Z</time>
      </trkpt>
      <trkpt lat="44.56681" lon="4.27849">
        <ele>377</ele>
        <time>2016-05-15T10:12:30.000Z</time>
      </trkpt>
      <trkpt lat="44.56684" lon="4.27856">
        <ele>376</ele>
        <time>2016-05-15T10:12:31.000Z</time>
      </trkpt>
      <trkpt lat="44.56687" lon="4.27864">
        <ele>376</ele>
        <time>2016-05-15T10:12:32.000Z</time>
      </trkpt>
      <trkpt lat="44.56691" lon="4.27873">
        <ele>375</ele>
        <time>2016-05-15T10:12:33.000Z</time>
      </trkpt>
      <trkpt lat="44.56695" lon="4.27882">
        <ele>375</ele>
        <time>2016-05-15T10:12:34.000Z</time>
      </trkpt>
      <trkpt lat="44.56698" lon="4.27891">
        <ele>375</ele>
        <time>2016-05-15T10:12:35.000Z</time>
      </trkpt>
      <trkpt lat="44.56703" lon="4.27901">
        <ele>375</ele>
        <time>2016-05-15T10:12:36.000Z</time>
      </trkpt>
      <trkpt lat="44.56706" lon="4.27911">
        <ele>374</ele>
        <time>2016-05-15T10:12:37.000Z</time>
      </trkpt>
      <trkpt lat="44.56711" lon="4.27922">
        <ele>371</ele>
        <time>2016-05-15T10:12:38.000Z</time>
      </trkpt>
      <trkpt lat="44.56715" lon="4.27932">
        <ele>371</ele>
        <time>2016-05-15T10:12:39.000Z</time>
      </trkpt>
      <trkpt lat="44.56719" lon="4.27942">
        <ele>371</ele>
        <time>2016-05-15T10:12:40.000Z</time>
      </trkpt>
      <trkpt lat="44.56722" lon="4.27952">
        <ele>371</ele>
        <time>2016-05-15T10:12:41.000Z</time>
      </trkpt>
      <trkpt lat="44.56726" lon="4.27962">
        <ele>370</ele>
        <time>2016-05-15T10:12:42.000Z</time>
      </trkpt>
      <trkpt lat="44.56729" lon="4.2797">
        <ele>370</ele>
        <time>2016-05-15T10:12:43.000Z</time>
      </trkpt>
      <trkpt lat="44.5673" lon="4.27975">
        <ele>370</ele>
        <time>2016-05-15T10:12:44.000Z</time>
      </trkpt>
      <trkpt lat="44.5673" lon="4.27979">
        <ele>370</ele>
        <time>2016-05-15T10:12:45.000Z</time>
      </trkpt>
      <trkpt lat="44.56729" lon="4.27983">
        <ele>370</ele>
        <time>2016-05-15T10:12:46.000Z</time>
      </trkpt>
      <trkpt lat="44.56727" lon="4.27986">
        <ele>370</ele>
        <time>2016-05-15T10:12:47.000Z</time>
      </trkpt>
      <trkpt lat="44.56725" lon="4.27989">
        <ele>370</ele>
        <time>2016-05-15T10:12:48.000Z</time>
      </trkpt>
      <trkpt lat="44.56723" lon="4.27992">
        <ele>370</ele>
        <time>2016-05-15T10:12:49.000Z</time>
      </trkpt>
      <trkpt lat="44.5672" lon="4.27995">
        <ele>370</ele>
        <time>2016-05-15T10:12:50.000Z</time>
      </trkpt>
      <trkpt lat="44.56717" lon="4.27999">
        <ele>370</ele>
        <time>2016-05-15T10:12:51.000Z</time>
      </trkpt>
      <trkpt lat="44.56713" lon="4.28004">
        <ele>366</ele>
        <time>2016-05-15T10:12:52.000Z</time>
      </trkpt>
      <trkpt lat="44.56709" lon="4.28008">
        <ele>365</ele>
        <time>2016-05-15T10:12:53.000Z</time>
      </trkpt>
      <trkpt lat="44.56705" lon="4.28014">
        <ele>365</ele>
        <time>2016-05-15T10:12:54.000Z</time>
      </trkpt>
      <trkpt lat="44.56701" lon="4.28019">
        <ele>365</ele>
        <time>2016-05-15T10:12:55.000Z</time>
      </trkpt>
      <trkpt lat="44.56696" lon="4.28024">
        <ele>365</ele>
        <time>2016-05-15T10:12:56.000Z</time>
      </trkpt>
      <trkpt lat="44.56692" lon="4.2803">
        <ele>364</ele>
        <time>2016-05-15T10:12:57.000Z</time>
      </trkpt>
      <trkpt lat="44.56688" lon="4.28035">
        <ele>364</ele>
        <time>2016-05-15T10:12:58.000Z</time>
      </trkpt>
      <trkpt lat="44.56684" lon="4.28037">
        <ele>364</ele>
        <time>2016-05-15T10:12:59.000Z</time>
      </trkpt>
      <trkpt lat="44.56681" lon="4.28034">
        <ele>364</ele>
        <time>2016-05-15T10:13:00.000Z</time>
      </trkpt>
      <trkpt lat="44.56677" lon="4.2803">
        <ele>364</ele>
        <time>2016-05-15T10:13:01.000Z</time>
      </trkpt>
      <trkpt lat="44.56673" lon="4.28025">
        <ele>365</ele>
        <time>2016-05-15T10:13:02.000Z</time>
      </trkpt>
      <trkpt lat="44.56669" lon="4.28023">
        <ele>365</ele>
        <time>2016-05-15T10:13:03.000Z</time>
      </trkpt>
      <trkpt lat="44.56665" lon="4.28024">
        <ele>360</ele>
        <time>2016-05-15T10:13:04.000Z</time>
      </trkpt>
      <trkpt lat="44.56661" lon="4.28027">
        <ele>360</ele>
        <time>2016-05-15T10:13:05.000Z</time>
      </trkpt>
      <trkpt lat="44.56656" lon="4.28031">
        <ele>359</ele>
        <time>2016-05-15T10:13:06.000Z</time>
      </trkpt>
      <trkpt lat="44.5665" lon="4.28035">
        <ele>358</ele>
        <time>2016-05-15T10:13:07.000Z</time>
      </trkpt>
      <trkpt lat="44.56644" lon="4.28039">
        <ele>358</ele>
        <time>2016-05-15T10:13:08.000Z</time>
      </trkpt>
      <trkpt lat="44.56638" lon="4.28042">
        <ele>357</ele>
        <time>2016-05-15T10:13:09.000Z</time>
      </trkpt>
      <trkpt lat="44.56632" lon="4.28044">
        <ele>356</ele>
        <time>2016-05-15T10:13:10.000Z</time>
      </trkpt>
      <trkpt lat="44.56627" lon="4.28044">
        <ele>356</ele>
        <time>2016-05-15T10:13:11.000Z</time>
      </trkpt>
      <trkpt lat="44.56621" lon="4.28045">
        <ele>356</ele>
        <time>2016-05-15T10:13:12.000Z</time>
      </trkpt>
      <trkpt lat="44.56615" lon="4.28046">
        <ele>355</ele>
        <time>2016-05-15T10:13:13.000Z</time>
      </trkpt>
      <trkpt lat="44.56609" lon="4.28048">
        <ele>354</ele>
        <time>2016-05-15T10:13:14.000Z</time>
      </trkpt>
      <trkpt lat="44.56603" lon="4.28049">
        <ele>354</ele>
        <time>2016-05-15T10:13:15.000Z</time>
      </trkpt>
      <trkpt lat="44.56598" lon="4.28049">
        <ele>354</ele>
        <time>2016-05-15T10:13:16.000Z</time>
      </trkpt>
      <trkpt lat="44.56592" lon="4.28048">
        <ele>353</ele>
        <time>2016-05-15T10:13:17.000Z</time>
      </trkpt>
      <trkpt lat="44.56586" lon="4.28046">
        <ele>353</ele>
        <time>2016-05-15T10:13:18.000Z</time>
      </trkpt>
      <trkpt lat="44.5658" lon="4.28044">
        <ele>344</ele>
        <time>2016-05-15T10:13:19.000Z</time>
      </trkpt>
      <trkpt lat="44.56574" lon="4.28042">
        <ele>344</ele>
        <time>2016-05-15T10:13:20.000Z</time>
      </trkpt>
      <trkpt lat="44.56569" lon="4.2804">
        <ele>344</ele>
        <time>2016-05-15T10:13:21.000Z</time>
      </trkpt>
      <trkpt lat="44.56565" lon="4.28035">
        <ele>344</ele>
        <time>2016-05-15T10:13:22.000Z</time>
      </trkpt>
      <trkpt lat="44.56562" lon="4.28029">
        <ele>344</ele>
        <time>2016-05-15T10:13:23.000Z</time>
      </trkpt>
      <trkpt lat="44.5656" lon="4.28024">
        <ele>344</ele>
        <time>2016-05-15T10:13:24.000Z</time>
      </trkpt>
      <trkpt lat="44.56557" lon="4.2802">
        <ele>344</ele>
        <time>2016-05-15T10:13:25.000Z</time>
      </trkpt>
      <trkpt lat="44.56555" lon="4.28019">
        <ele>344</ele>
        <time>2016-05-15T10:13:26.000Z</time>
      </trkpt>
      <trkpt lat="44.56553" lon="4.28019">
        <ele>344</ele>
        <time>2016-05-15T10:13:27.000Z</time>
      </trkpt>
      <trkpt lat="44.5655" lon="4.2802">
        <ele>343</ele>
        <time>2016-05-15T10:13:28.000Z</time>
      </trkpt>
      <trkpt lat="44.56547" lon="4.28022">
        <ele>343</ele>
        <time>2016-05-15T10:13:29.000Z</time>
      </trkpt>
      <trkpt lat="44.56544" lon="4.28024">
        <ele>342</ele>
        <time>2016-05-15T10:13:30.000Z</time>
      </trkpt>
      <trkpt lat="44.5654" lon="4.28026">
        <ele>342</ele>
        <time>2016-05-15T10:13:31.000Z</time>
      </trkpt>
      <trkpt lat="44.56536" lon="4.28028">
        <ele>341</ele>
        <time>2016-05-15T10:13:32.000Z</time>
      </trkpt>
      <trkpt lat="44.56533" lon="4.2803">
        <ele>341</ele>
        <time>2016-05-15T10:13:33.000Z</time>
      </trkpt>
      <trkpt lat="44.56529" lon="4.28032">
        <ele>341</ele>
        <time>2016-05-15T10:13:34.000Z</time>
      </trkpt>
      <trkpt lat="44.56525" lon="4.28034">
        <ele>340</ele>
        <time>2016-05-15T10:13:35.000Z</time>
      </trkpt>
      <trkpt lat="44.56523" lon="4.28035">
        <ele>340</ele>
        <time>2016-05-15T10:13:36.000Z</time>
      </trkpt>
      <trkpt lat="44.56522" lon="4.28036">
        <ele>340</ele>
        <time>2016-05-15T10:13:37.000Z</time>
      </trkpt>
      <trkpt lat="44.56522" lon="4.28036">
        <ele>340</ele>
        <time>2016-05-15T10:13:38.000Z</time>
      </trkpt>
      <trkpt lat="44.56521" lon="4.28037">
        <ele>340</ele>
        <time>2016-05-15T10:13:39.000Z</time>
      </trkpt>
      <trkpt lat="44.56521" lon="4.28037">
        <ele>340</ele>
        <time>2016-05-15T10:13:40.000Z</time>
      </trkpt>
      <trkpt lat="44.56521" lon="4.28037">
        <ele>340</ele>
        <time>2016-05-15T10:13:41.000Z</time>
      </trkpt>
      <trkpt lat="44.5652" lon="4.28037">
        <ele>340</ele>
        <time>2016-05-15T10:13:42.000Z</time>
      </trkpt>
      <trkpt lat="44.56519" lon="4.28037">
        <ele>340</ele>
        <time>2016-05-15T10:13:43.000Z</time>
      </trkpt>
      <trkpt lat="44.56518" lon="4.28038">
        <ele>340</ele>
        <time>2016-05-15T10:13:44.000Z</time>
      </trkpt>
      <trkpt lat="44.56518" lon="4.28038">
        <ele>340</ele>
        <time>2016-05-15T10:13:45.000Z</time>
      </trkpt>
      <trkpt lat="44.56517" lon="4.28038">
        <ele>340</ele>
        <time>2016-05-15T10:13:46.000Z</time>
      </trkpt>
      <trkpt lat="44.56516" lon="4.28038">
        <ele>340</ele>
        <time>2016-05-15T10:13:47.000Z</time>
      </trkpt>
      <trkpt lat="44.56515" lon="4.28039">
        <ele>340</ele>
        <time>2016-05-15T10:13:48.000Z</time>
      </trkpt>
      <trkpt lat="44.56512" lon="4.2804">
        <ele>339</ele>
        <time>2016-05-15T10:13:49.000Z</time>
      </trkpt>
      <trkpt lat="44.5651" lon="4.28042">
        <ele>339</ele>
        <time>2016-05-15T10:13:50.000Z</time>
      </trkpt>
      <trkpt lat="44.56509" lon="4.28045">
        <ele>339</ele>
        <time>2016-05-15T10:13:51.000Z</time>
      </trkpt>
      <trkpt lat="44.56508" lon="4.28049">
        <ele>339</ele>
        <time>2016-05-15T10:13:52.000Z</time>
      </trkpt>
      <trkpt lat="44.56508" lon="4.28054">
        <ele>339</ele>
        <time>2016-05-15T10:13:53.000Z</time>
      </trkpt>
      <trkpt lat="44.56508" lon="4.2806">
        <ele>338</ele>
        <time>2016-05-15T10:13:54.000Z</time>
      </trkpt>
      <trkpt lat="44.56506" lon="4.28063">
        <ele>338</ele>
        <time>2016-05-15T10:13:55.000Z</time>
      </trkpt>
      <trkpt lat="44.56503" lon="4.28067">
        <ele>337</ele>
        <time>2016-05-15T10:13:56.000Z</time>
      </trkpt>
      <trkpt lat="44.56499" lon="4.28072">
        <ele>330</ele>
        <time>2016-05-15T10:13:57.000Z</time>
      </trkpt>
      <trkpt lat="44.56495" lon="4.28077">
        <ele>331</ele>
        <time>2016-05-15T10:13:58.000Z</time>
      </trkpt>
      <trkpt lat="44.56491" lon="4.28083">
        <ele>331</ele>
        <time>2016-05-15T10:13:59.000Z</time>
      </trkpt>
      <trkpt lat="44.56488" lon="4.28089">
        <ele>329</ele>
        <time>2016-05-15T10:14:00.000Z</time>
      </trkpt>
      <trkpt lat="44.56485" lon="4.28093">
        <ele>327</ele>
        <time>2016-05-15T10:14:01.000Z</time>
      </trkpt>
      <trkpt lat="44.56484" lon="4.28098">
        <ele>327</ele>
        <time>2016-05-15T10:14:02.000Z</time>
      </trkpt>
      <trkpt lat="44.56482" lon="4.28103">
        <ele>326</ele>
        <time>2016-05-15T10:14:03.000Z</time>
      </trkpt>
      <trkpt lat="44.56481" lon="4.28108">
        <ele>325</ele>
        <time>2016-05-15T10:14:04.000Z</time>
      </trkpt>
      <trkpt lat="44.5648" lon="4.28111">
        <ele>325</ele>
        <time>2016-05-15T10:14:05.000Z</time>
      </trkpt>
      <trkpt lat="44.56478" lon="4.28115">
        <ele>324</ele>
        <time>2016-05-15T10:14:06.000Z</time>
      </trkpt>
      <trkpt lat="44.56477" lon="4.28119">
        <ele>324</ele>
        <time>2016-05-15T10:14:07.000Z</time>
      </trkpt>
      <trkpt lat="44.56476" lon="4.28124">
        <ele>324</ele>
        <time>2016-05-15T10:14:08.000Z</time>
      </trkpt>
      <trkpt lat="44.56474" lon="4.28129">
        <ele>323</ele>
        <time>2016-05-15T10:14:09.000Z</time>
      </trkpt>
      <trkpt lat="44.56471" lon="4.28132">
        <ele>323</ele>
        <time>2016-05-15T10:14:10.000Z</time>
      </trkpt>
      <trkpt lat="44.56469" lon="4.28134">
        <ele>323</ele>
        <time>2016-05-15T10:14:11.000Z</time>
      </trkpt>
      <trkpt lat="44.56468" lon="4.28136">
        <ele>322</ele>
        <time>2016-05-15T10:14:12.000Z</time>
      </trkpt>
      <trkpt lat="44.56468" lon="4.2814">
        <ele>322</ele>
        <time>2016-05-15T10:14:13.000Z</time>
      </trkpt>
      <trkpt lat="44.56469" lon="4.28145">
        <ele>322</ele>
        <time>2016-05-15T10:14:14.000Z</time>
      </trkpt>
      <trkpt lat="44.56469" lon="4.28152">
        <ele>323</ele>
        <time>2016-05-15T10:14:15.000Z</time>
      </trkpt>
      <trkpt lat="44.5647" lon="4.28158">
        <ele>323</ele>
        <time>2016-05-15T10:14:16.000Z</time>
      </trkpt>
      <trkpt lat="44.56469" lon="4.28161">
        <ele>323</ele>
        <time>2016-05-15T10:14:17.000Z</time>
      </trkpt>
      <trkpt lat="44.56468" lon="4.28163">
        <ele>322</ele>
        <time>2016-05-15T10:14:18.000Z</time>
      </trkpt>
      <trkpt lat="44.56466" lon="4.28165">
        <ele>322</ele>
        <time>2016-05-15T10:14:19.000Z</time>
      </trkpt>
      <trkpt lat="44.56465" lon="4.28167">
        <ele>319</ele>
        <time>2016-05-15T10:14:20.000Z</time>
      </trkpt>
      <trkpt lat="44.56464" lon="4.28171">
        <ele>319</ele>
        <time>2016-05-15T10:14:21.000Z</time>
      </trkpt>
      <trkpt lat="44.56464" lon="4.28175">
        <ele>319</ele>
        <time>2016-05-15T10:14:22.000Z</time>
      </trkpt>
      <trkpt lat="44.56462" lon="4.28181">
        <ele>318</ele>
        <time>2016-05-15T10:14:23.000Z</time>
      </trkpt>
      <trkpt lat="44.5646" lon="4.28187">
        <ele>318</ele>
        <time>2016-05-15T10:14:24.000Z</time>
      </trkpt>
      <trkpt lat="44.56456" lon="4.28194">
        <ele>317</ele>
        <time>2016-05-15T10:14:25.000Z</time>
      </trkpt>
      <trkpt lat="44.56453" lon="4.28201">
        <ele>317</ele>
        <time>2016-05-15T10:14:26.000Z</time>
      </trkpt>
      <trkpt lat="44.56451" lon="4.2821">
        <ele>316</ele>
        <time>2016-05-15T10:14:27.000Z</time>
      </trkpt>
      <trkpt lat="44.56449" lon="4.28218">
        <ele>316</ele>
        <time>2016-05-15T10:14:28.000Z</time>
      </trkpt>
      <trkpt lat="44.56448" lon="4.28226">
        <ele>315</ele>
        <time>2016-05-15T10:14:29.000Z</time>
      </trkpt>
      <trkpt lat="44.56448" lon="4.28234">
        <ele>315</ele>
        <time>2016-05-15T10:14:30.000Z</time>
      </trkpt>
      <trkpt lat="44.56449" lon="4.28243">
        <ele>314</ele>
        <time>2016-05-15T10:14:31.000Z</time>
      </trkpt>
      <trkpt lat="44.56451" lon="4.28251">
        <ele>310</ele>
        <time>2016-05-15T10:14:32.000Z</time>
      </trkpt>
      <trkpt lat="44.56453" lon="4.28259">
        <ele>311</ele>
        <time>2016-05-15T10:14:33.000Z</time>
      </trkpt>
      <trkpt lat="44.56454" lon="4.28265">
        <ele>311</ele>
        <time>2016-05-15T10:14:34.000Z</time>
      </trkpt>
      <trkpt lat="44.56454" lon="4.28272">
        <ele>310</ele>
        <time>2016-05-15T10:14:35.000Z</time>
      </trkpt>
      <trkpt lat="44.56452" lon="4.28277">
        <ele>310</ele>
        <time>2016-05-15T10:14:36.000Z</time>
      </trkpt>
      <trkpt lat="44.56448" lon="4.28281">
        <ele>309</ele>
        <time>2016-05-15T10:14:37.000Z</time>
      </trkpt>
      <trkpt lat="44.56443" lon="4.28284">
        <ele>309</ele>
        <time>2016-05-15T10:14:38.000Z</time>
      </trkpt>
      <trkpt lat="44.56438" lon="4.28288">
        <ele>308</ele>
        <time>2016-05-15T10:14:39.000Z</time>
      </trkpt>
      <trkpt lat="44.56432" lon="4.28293">
        <ele>307</ele>
        <time>2016-05-15T10:14:40.000Z</time>
      </trkpt>
      <trkpt lat="44.56427" lon="4.28297">
        <ele>307</ele>
        <time>2016-05-15T10:14:41.000Z</time>
      </trkpt>
      <trkpt lat="44.56421" lon="4.283">
        <ele>306</ele>
        <time>2016-05-15T10:14:42.000Z</time>
      </trkpt>
      <trkpt lat="44.56415" lon="4.28303">
        <ele>298</ele>
        <time>2016-05-15T10:14:43.000Z</time>
      </trkpt>
      <trkpt lat="44.56409" lon="4.28305">
        <ele>298</ele>
        <time>2016-05-15T10:14:44.000Z</time>
      </trkpt>
      <trkpt lat="44.56405" lon="4.28306">
        <ele>297</ele>
        <time>2016-05-15T10:14:45.000Z</time>
      </trkpt>
      <trkpt lat="44.564" lon="4.28308">
        <ele>297</ele>
        <time>2016-05-15T10:14:46.000Z</time>
      </trkpt>
      <trkpt lat="44.56395" lon="4.28309">
        <ele>297</ele>
        <time>2016-05-15T10:14:47.000Z</time>
      </trkpt>
      <trkpt lat="44.5639" lon="4.28312">
        <ele>297</ele>
        <time>2016-05-15T10:14:48.000Z</time>
      </trkpt>
      <trkpt lat="44.56384" lon="4.28315">
        <ele>296</ele>
        <time>2016-05-15T10:14:49.000Z</time>
      </trkpt>
      <trkpt lat="44.56379" lon="4.28319">
        <ele>296</ele>
        <time>2016-05-15T10:14:50.000Z</time>
      </trkpt>
      <trkpt lat="44.56373" lon="4.28325">
        <ele>295</ele>
        <time>2016-05-15T10:14:51.000Z</time>
      </trkpt>
      <trkpt lat="44.56368" lon="4.28332">
        <ele>295</ele>
        <time>2016-05-15T10:14:52.000Z</time>
      </trkpt>
      <trkpt lat="44.56363" lon="4.2834">
        <ele>292</ele>
        <time>2016-05-15T10:14:53.000Z</time>
      </trkpt>
      <trkpt lat="44.56357" lon="4.28347">
        <ele>291</ele>
        <time>2016-05-15T10:14:54.000Z</time>
      </trkpt>
      <trkpt lat="44.56352" lon="4.28352">
        <ele>291</ele>
        <time>2016-05-15T10:14:55.000Z</time>
      </trkpt>
      <trkpt lat="44.56347" lon="4.28357">
        <ele>291</ele>
        <time>2016-05-15T10:14:56.000Z</time>
      </trkpt>
      <trkpt lat="44.56341" lon="4.28361">
        <ele>291</ele>
        <time>2016-05-15T10:14:57.000Z</time>
      </trkpt>
      <trkpt lat="44.56336" lon="4.28366">
        <ele>291</ele>
        <time>2016-05-15T10:14:58.000Z</time>
      </trkpt>
      <trkpt lat="44.5633" lon="4.28371">
        <ele>287</ele>
        <time>2016-05-15T10:14:59.000Z</time>
      </trkpt>
      <trkpt lat="44.56324" lon="4.28377">
        <ele>287</ele>
        <time>2016-05-15T10:15:00.000Z</time>
      </trkpt>
      <trkpt lat="44.56318" lon="4.28383">
        <ele>287</ele>
        <time>2016-05-15T10:15:01.000Z</time>
      </trkpt>
      <trkpt lat="44.56312" lon="4.28389">
        <ele>287</ele>
        <time>2016-05-15T10:15:02.000Z</time>
      </trkpt>
      <trkpt lat="44.56306" lon="4.28395">
        <ele>287</ele>
        <time>2016-05-15T10:15:03.000Z</time>
      </trkpt>
      <trkpt lat="44.56301" lon="4.28402">
        <ele>286</ele>
        <time>2016-05-15T10:15:04.000Z</time>
      </trkpt>
      <trkpt lat="44.56295" lon="4.2841">
        <ele>286</ele>
        <time>2016-05-15T10:15:05.000Z</time>
      </trkpt>
      <trkpt lat="44.56289" lon="4.28418">
        <ele>285</ele>
        <time>2016-05-15T10:15:06.000Z</time>
      </trkpt>
      <trkpt lat="44.56283" lon="4.28426">
        <ele>285</ele>
        <time>2016-05-15T10:15:07.000Z</time>
      </trkpt>
      <trkpt lat="44.56276" lon="4.28435">
        <ele>284</ele>
        <time>2016-05-15T10:15:08.000Z</time>
      </trkpt>
      <trkpt lat="44.5627" lon="4.28445">
        <ele>284</ele>
        <time>2016-05-15T10:15:09.000Z</time>
      </trkpt>
      <trkpt lat="44.56263" lon="4.28454">
        <ele>284</ele>
        <time>2016-05-15T10:15:10.000Z</time>
      </trkpt>
      <trkpt lat="44.56256" lon="4.28463">
        <ele>284</ele>
        <time>2016-05-15T10:15:11.000Z</time>
      </trkpt>
      <trkpt lat="44.56249" lon="4.28472">
        <ele>281</ele>
        <time>2016-05-15T10:15:12.000Z</time>
      </trkpt>
      <trkpt lat="44.56243" lon="4.28481">
        <ele>281</ele>
        <time>2016-05-15T10:15:13.000Z</time>
      </trkpt>
      <trkpt lat="44.56237" lon="4.28489">
        <ele>281</ele>
        <time>2016-05-15T10:15:14.000Z</time>
      </trkpt>
      <trkpt lat="44.56231" lon="4.28497">
        <ele>281</ele>
        <time>2016-05-15T10:15:15.000Z</time>
      </trkpt>
      <trkpt lat="44.56225" lon="4.28506">
        <ele>280</ele>
        <time>2016-05-15T10:15:16.000Z</time>
      </trkpt>
      <trkpt lat="44.56219" lon="4.28514">
        <ele>279</ele>
        <time>2016-05-15T10:15:17.000Z</time>
      </trkpt>
      <trkpt lat="44.56213" lon="4.28523">
        <ele>279</ele>
        <time>2016-05-15T10:15:18.000Z</time>
      </trkpt>
      <trkpt lat="44.56208" lon="4.28532">
        <ele>279</ele>
        <time>2016-05-15T10:15:19.000Z</time>
      </trkpt>
      <trkpt lat="44.56204" lon="4.28543">
        <ele>278</ele>
        <time>2016-05-15T10:15:20.000Z</time>
      </trkpt>
      <trkpt lat="44.56201" lon="4.28553">
        <ele>278</ele>
        <time>2016-05-15T10:15:21.000Z</time>
      </trkpt>
      <trkpt lat="44.56198" lon="4.28564">
        <ele>278</ele>
        <time>2016-05-15T10:15:22.000Z</time>
      </trkpt>
      <trkpt lat="44.56195" lon="4.28575">
        <ele>278</ele>
        <time>2016-05-15T10:15:23.000Z</time>
      </trkpt>
      <trkpt lat="44.56192" lon="4.28586">
        <ele>279</ele>
        <time>2016-05-15T10:15:24.000Z</time>
      </trkpt>
      <trkpt lat="44.56191" lon="4.28596">
        <ele>279</ele>
        <time>2016-05-15T10:15:25.000Z</time>
      </trkpt>
      <trkpt lat="44.56191" lon="4.28607">
        <ele>280</ele>
        <time>2016-05-15T10:15:26.000Z</time>
      </trkpt>
      <trkpt lat="44.56192" lon="4.28617">
        <ele>280</ele>
        <time>2016-05-15T10:15:27.000Z</time>
      </trkpt>
      <trkpt lat="44.56192" lon="4.28627">
        <ele>281</ele>
        <time>2016-05-15T10:15:28.000Z</time>
      </trkpt>
      <trkpt lat="44.56192" lon="4.28636">
        <ele>281</ele>
        <time>2016-05-15T10:15:29.000Z</time>
      </trkpt>
      <trkpt lat="44.56192" lon="4.28644">
        <ele>281</ele>
        <time>2016-05-15T10:15:30.000Z</time>
      </trkpt>
      <trkpt lat="44.56191" lon="4.28651">
        <ele>282</ele>
        <time>2016-05-15T10:15:31.000Z</time>
      </trkpt>
      <trkpt lat="44.56188" lon="4.28656">
        <ele>282</ele>
        <time>2016-05-15T10:15:32.000Z</time>
      </trkpt>
      <trkpt lat="44.56185" lon="4.28659">
        <ele>282</ele>
        <time>2016-05-15T10:15:33.000Z</time>
      </trkpt>
      <trkpt lat="44.56182" lon="4.2866">
        <ele>282</ele>
        <time>2016-05-15T10:15:34.000Z</time>
      </trkpt>
      <trkpt lat="44.56177" lon="4.2866">
        <ele>283</ele>
        <time>2016-05-15T10:15:35.000Z</time>
      </trkpt>
      <trkpt lat="44.56173" lon="4.28659">
        <ele>283</ele>
        <time>2016-05-15T10:15:36.000Z</time>
      </trkpt>
      <trkpt lat="44.56168" lon="4.28658">
        <ele>283</ele>
        <time>2016-05-15T10:15:37.000Z</time>
      </trkpt>
      <trkpt lat="44.56164" lon="4.28657">
        <ele>283</ele>
        <time>2016-05-15T10:15:38.000Z</time>
      </trkpt>
      <trkpt lat="44.56159" lon="4.28656">
        <ele>282</ele>
        <time>2016-05-15T10:15:39.000Z</time>
      </trkpt>
      <trkpt lat="44.56153" lon="4.28655">
        <ele>282</ele>
        <time>2016-05-15T10:15:40.000Z</time>
      </trkpt>
      <trkpt lat="44.56148" lon="4.28654">
        <ele>282</ele>
        <time>2016-05-15T10:15:41.000Z</time>
      </trkpt>
      <trkpt lat="44.56143" lon="4.28652">
        <ele>281</ele>
        <time>2016-05-15T10:15:42.000Z</time>
      </trkpt>
      <trkpt lat="44.56138" lon="4.28651">
        <ele>281</ele>
        <time>2016-05-15T10:15:43.000Z</time>
      </trkpt>
      <trkpt lat="44.56132" lon="4.2865">
        <ele>281</ele>
        <time>2016-05-15T10:15:44.000Z</time>
      </trkpt>
      <trkpt lat="44.56127" lon="4.2865">
        <ele>281</ele>
        <time>2016-05-15T10:15:45.000Z</time>
      </trkpt>
      <trkpt lat="44.56122" lon="4.28652">
        <ele>281</ele>
        <time>2016-05-15T10:15:46.000Z</time>
      </trkpt>
      <trkpt lat="44.56118" lon="4.28656">
        <ele>281</ele>
        <time>2016-05-15T10:15:47.000Z</time>
      </trkpt>
      <trkpt lat="44.56116" lon="4.2866">
        <ele>281</ele>
        <time>2016-05-15T10:15:48.000Z</time>
      </trkpt>
      <trkpt lat="44.56114" lon="4.28665">
        <ele>282</ele>
        <time>2016-05-15T10:15:49.000Z</time>
      </trkpt>
      <trkpt lat="44.56114" lon="4.28669">
        <ele>288</ele>
        <time>2016-05-15T10:15:50.000Z</time>
      </trkpt>
      <trkpt lat="44.56113" lon="4.28673">
        <ele>288</ele>
        <time>2016-05-15T10:15:51.000Z</time>
      </trkpt>
      <trkpt lat="44.56113" lon="4.28677">
        <ele>288</ele>
        <time>2016-05-15T10:15:52.000Z</time>
      </trkpt>
      <trkpt lat="44.56113" lon="4.28681">
        <ele>288</ele>
        <time>2016-05-15T10:15:53.000Z</time>
      </trkpt>
      <trkpt lat="44.56113" lon="4.28684">
        <ele>288</ele>
        <time>2016-05-15T10:15:54.000Z</time>
      </trkpt>
      <trkpt lat="44.56113" lon="4.28687">
        <ele>289</ele>
        <time>2016-05-15T10:15:55.000Z</time>
      </trkpt>
      <trkpt lat="44.56113" lon="4.2869">
        <ele>289</ele>
        <time>2016-05-15T10:15:56.000Z</time>
      </trkpt>
      <trkpt lat="44.56113" lon="4.28694">
        <ele>289</ele>
        <time>2016-05-15T10:15:57.000Z</time>
      </trkpt>
      <trkpt lat="44.56114" lon="4.28698">
        <ele>289</ele>
        <time>2016-05-15T10:15:58.000Z</time>
      </trkpt>
      <trkpt lat="44.56114" lon="4.28702">
        <ele>290</ele>
        <time>2016-05-15T10:15:59.000Z</time>
      </trkpt>
      <trkpt lat="44.56115" lon="4.28705">
        <ele>290</ele>
        <time>2016-05-15T10:16:00.000Z</time>
      </trkpt>
      <trkpt lat="44.56115" lon="4.28709">
        <ele>290</ele>
        <time>2016-05-15T10:16:01.000Z</time>
      </trkpt>
      <trkpt lat="44.56116" lon="4.28712">
        <ele>290</ele>
        <time>2016-05-15T10:16:02.000Z</time>
      </trkpt>
      <trkpt lat="44.56116" lon="4.28716">
        <ele>291</ele>
        <time>2016-05-15T10:16:03.000Z</time>
      </trkpt>
      <trkpt lat="44.56117" lon="4.28719">
        <ele>291</ele>
        <time>2016-05-15T10:16:04.000Z</time>
      </trkpt>
      <trkpt lat="44.56118" lon="4.28722">
        <ele>291</ele>
        <time>2016-05-15T10:16:05.000Z</time>
      </trkpt>
      <trkpt lat="44.56118" lon="4.28726">
        <ele>291</ele>
        <time>2016-05-15T10:16:06.000Z</time>
      </trkpt>
      <trkpt lat="44.56119" lon="4.28729">
        <ele>292</ele>
        <time>2016-05-15T10:16:07.000Z</time>
      </trkpt>
      <trkpt lat="44.5612" lon="4.28732">
        <ele>292</ele>
        <time>2016-05-15T10:16:08.000Z</time>
      </trkpt>
      <trkpt lat="44.56119" lon="4.28735">
        <ele>292</ele>
        <time>2016-05-15T10:16:09.000Z</time>
      </trkpt>
      <trkpt lat="44.56117" lon="4.28736">
        <ele>292</ele>
        <time>2016-05-15T10:16:10.000Z</time>
      </trkpt>
      <trkpt lat="44.56115" lon="4.28735">
        <ele>292</ele>
        <time>2016-05-15T10:16:11.000Z</time>
      </trkpt>
      <trkpt lat="44.56114" lon="4.28733">
        <ele>292</ele>
        <time>2016-05-15T10:16:12.000Z</time>
      </trkpt>
      <trkpt lat="44.56113" lon="4.28731">
        <ele>292</ele>
        <time>2016-05-15T10:16:13.000Z</time>
      </trkpt>
      <trkpt lat="44.56112" lon="4.28728">
        <ele>292</ele>
        <time>2016-05-15T10:16:14.000Z</time>
      </trkpt>
      <trkpt lat="44.56111" lon="4.28725">
        <ele>291</ele>
        <time>2016-05-15T10:16:15.000Z</time>
      </trkpt>
      <trkpt lat="44.5611" lon="4.28722">
        <ele>291</ele>
        <time>2016-05-15T10:16:16.000Z</time>
      </trkpt>
      <trkpt lat="44.5611" lon="4.2872">
        <ele>291</ele>
        <time>2016-05-15T10:16:17.000Z</time>
      </trkpt>
      <trkpt lat="44.56108" lon="4.28717">
        <ele>291</ele>
        <time>2016-05-15T10:16:18.000Z</time>
      </trkpt>
      <trkpt lat="44.56106" lon="4.28717">
        <ele>291</ele>
        <time>2016-05-15T10:16:19.000Z</time>
      </trkpt>
      <trkpt lat="44.56103" lon="4.28717">
        <ele>291</ele>
        <time>2016-05-15T10:16:20.000Z</time>
      </trkpt>
      <trkpt lat="44.56101" lon="4.28718">
        <ele>291</ele>
        <time>2016-05-15T10:16:21.000Z</time>
      </trkpt>
      <trkpt lat="44.56099" lon="4.2872">
        <ele>291</ele>
        <time>2016-05-15T10:16:22.000Z</time>
      </trkpt>
      <trkpt lat="44.56099" lon="4.28723">
        <ele>291</ele>
        <time>2016-05-15T10:16:23.000Z</time>
      </trkpt>
      <trkpt lat="44.56099" lon="4.28726">
        <ele>292</ele>
        <time>2016-05-15T10:16:24.000Z</time>
      </trkpt>
      <trkpt lat="44.56099" lon="4.28729">
        <ele>292</ele>
        <time>2016-05-15T10:16:25.000Z</time>
      </trkpt>
      <trkpt lat="44.561" lon="4.28731">
        <ele>292</ele>
        <time>2016-05-15T10:16:26.000Z</time>
      </trkpt>
      <trkpt lat="44.561" lon="4.28733">
        <ele>292</ele>
        <time>2016-05-15T10:16:27.000Z</time>
      </trkpt>
      <trkpt lat="44.561" lon="4.28735">
        <ele>292</ele>
        <time>2016-05-15T10:16:28.000Z</time>
      </trkpt>
      <trkpt lat="44.56101" lon="4.28737">
        <ele>292</ele>
        <time>2016-05-15T10:16:29.000Z</time>
      </trkpt>
      <trkpt lat="44.56101" lon="4.2874">
        <ele>293</ele>
        <time>2016-05-15T10:16:30.000Z</time>
      </trkpt>
      <trkpt lat="44.56101" lon="4.28742">
        <ele>293</ele>
        <time>2016-05-15T10:16:31.000Z</time>
      </trkpt>
      <trkpt lat="44.56101" lon="4.28744">
        <ele>293</ele>
        <time>2016-05-15T10:16:32.000Z</time>
      </trkpt>
      <trkpt lat="44.56101" lon="4.28746">
        <ele>293</ele>
        <time>2016-05-15T10:16:33.000Z</time>
      </trkpt>
      <trkpt lat="44.56101" lon="4.28748">
        <ele>293</ele>
        <time>2016-05-15T10:16:34.000Z</time>
      </trkpt>
      <trkpt lat="44.56101" lon="4.2875">
        <ele>293</ele>
        <time>2016-05-15T10:16:35.000Z</time>
      </trkpt>
      <trkpt lat="44.56102" lon="4.28752">
        <ele>298</ele>
        <time>2016-05-15T10:16:36.000Z</time>
      </trkpt>
      <trkpt lat="44.56102" lon="4.28754">
        <ele>298</ele>
        <time>2016-05-15T10:16:37.000Z</time>
      </trkpt>
      <trkpt lat="44.56102" lon="4.28757">
        <ele>298</ele>
        <time>2016-05-15T10:16:38.000Z</time>
      </trkpt>
      <trkpt lat="44.56102" lon="4.28758">
        <ele>299</ele>
        <time>2016-05-15T10:16:39.000Z</time>
      </trkpt>
      <trkpt lat="44.56103" lon="4.2876">
        <ele>299</ele>
        <time>2016-05-15T10:16:40.000Z</time>
      </trkpt>
      <trkpt lat="44.56103" lon="4.28762">
        <ele>299</ele>
        <time>2016-05-15T10:16:41.000Z</time>
      </trkpt>
      <trkpt lat="44.56103" lon="4.28765">
        <ele>299</ele>
        <time>2016-05-15T10:16:42.000Z</time>
      </trkpt>
      <trkpt lat="44.56104" lon="4.28767">
        <ele>299</ele>
        <time>2016-05-15T10:16:43.000Z</time>
      </trkpt>
      <trkpt lat="44.56104" lon="4.28769">
        <ele>299</ele>
        <time>2016-05-15T10:16:44.000Z</time>
      </trkpt>
      <trkpt lat="44.56104" lon="4.28771">
        <ele>300</ele>
        <time>2016-05-15T10:16:45.000Z</time>
      </trkpt>
      <trkpt lat="44.56105" lon="4.28773">
        <ele>300</ele>
        <time>2016-05-15T10:16:46.000Z</time>
      </trkpt>
      <trkpt lat="44.56105" lon="4.28775">
        <ele>300</ele>
        <time>2016-05-15T10:16:47.000Z</time>
      </trkpt>
      <trkpt lat="44.56105" lon="4.28777">
        <ele>300</ele>
        <time>2016-05-15T10:16:48.000Z</time>
      </trkpt>
      <trkpt lat="44.56105" lon="4.28779">
        <ele>300</ele>
        <time>2016-05-15T10:16:49.000Z</time>
      </trkpt>
      <trkpt lat="44.56105" lon="4.28781">
        <ele>300</ele>
        <time>2016-05-15T10:16:50.000Z</time>
      </trkpt>
      <trkpt lat="44.56106" lon="4.28783">
        <ele>301</ele>
        <time>2016-05-15T10:16:51.000Z</time>
      </trkpt>
      <trkpt lat="44.56105" lon="4.28785">
        <ele>301</ele>
        <time>2016-05-15T10:16:52.000Z</time>
      </trkpt>
      <trkpt lat="44.56105" lon="4.28787">
        <ele>301</ele>
        <time>2016-05-15T10:16:53.000Z</time>
      </trkpt>
      <trkpt lat="44.56104" lon="4.28789">
        <ele>301</ele>
        <time>2016-05-15T10:16:54.000Z</time>
      </trkpt>
      <trkpt lat="44.56102" lon="4.28789">
        <ele>301</ele>
        <time>2016-05-15T10:16:55.000Z</time>
      </trkpt>
      <trkpt lat="44.56101" lon="4.28788">
        <ele>301</ele>
        <time>2016-05-15T10:16:56.000Z</time>
      </trkpt>
      <trkpt lat="44.561" lon="4.28787">
        <ele>301</ele>
        <time>2016-05-15T10:16:57.000Z</time>
      </trkpt>
      <trkpt lat="44.56099" lon="4.28786">
        <ele>301</ele>
        <time>2016-05-15T10:16:58.000Z</time>
      </trkpt>
      <trkpt lat="44.56099" lon="4.28784">
        <ele>300</ele>
        <time>2016-05-15T10:16:59.000Z</time>
      </trkpt>
      <trkpt lat="44.56098" lon="4.28783">
        <ele>300</ele>
        <time>2016-05-15T10:17:00.000Z</time>
      </trkpt>
      <trkpt lat="44.56097" lon="4.28781">
        <ele>300</ele>
        <time>2016-05-15T10:17:01.000Z</time>
      </trkpt>
      <trkpt lat="44.56096" lon="4.2878">
        <ele>300</ele>
        <time>2016-05-15T10:17:02.000Z</time>
      </trkpt>
      <trkpt lat="44.56095" lon="4.28779">
        <ele>300</ele>
        <time>2016-05-15T10:17:03.000Z</time>
      </trkpt>
      <trkpt lat="44.56094" lon="4.28777">
        <ele>300</ele>
        <time>2016-05-15T10:17:04.000Z</time>
      </trkpt>
      <trkpt lat="44.56093" lon="4.28776">
        <ele>300</ele>
        <time>2016-05-15T10:17:05.000Z</time>
      </trkpt>
      <trkpt lat="44.56092" lon="4.28775">
        <ele>299</ele>
        <time>2016-05-15T10:17:06.000Z</time>
      </trkpt>
      <trkpt lat="44.5609" lon="4.28773">
        <ele>299</ele>
        <time>2016-05-15T10:17:07.000Z</time>
      </trkpt>
      <trkpt lat="44.56088" lon="4.28772">
        <ele>299</ele>
        <time>2016-05-15T10:17:08.000Z</time>
      </trkpt>
      <trkpt lat="44.56086" lon="4.28771">
        <ele>299</ele>
        <time>2016-05-15T10:17:09.000Z</time>
      </trkpt>
      <trkpt lat="44.56083" lon="4.2877">
        <ele>301</ele>
        <time>2016-05-15T10:17:10.000Z</time>
      </trkpt>
      <trkpt lat="44.56081" lon="4.28769">
        <ele>301</ele>
        <time>2016-05-15T10:17:11.000Z</time>
      </trkpt>
      <trkpt lat="44.56079" lon="4.28769">
        <ele>301</ele>
        <time>2016-05-15T10:17:12.000Z</time>
      </trkpt>
      <trkpt lat="44.56077" lon="4.28769">
        <ele>301</ele>
        <time>2016-05-15T10:17:13.000Z</time>
      </trkpt>
      <trkpt lat="44.56075" lon="4.28769">
        <ele>301</ele>
        <time>2016-05-15T10:17:14.000Z</time>
      </trkpt>
      <trkpt lat="44.56072" lon="4.28769">
        <ele>302</ele>
        <time>2016-05-15T10:17:15.000Z</time>
      </trkpt>
      <trkpt lat="44.5607" lon="4.28769">
        <ele>302</ele>
        <time>2016-05-15T10:17:16.000Z</time>
      </trkpt>
      <trkpt lat="44.56068" lon="4.28769">
        <ele>302</ele>
        <time>2016-05-15T10:17:17.000Z</time>
      </trkpt>
      <trkpt lat="44.56066" lon="4.28769">
        <ele>302</ele>
        <time>2016-05-15T10:17:18.000Z</time>
      </trkpt>
      <trkpt lat="44.56064" lon="4.28769">
        <ele>302</ele>
        <time>2016-05-15T10:17:19.000Z</time>
      </trkpt>
      <trkpt lat="44.56062" lon="4.2877">
        <ele>303</ele>
        <time>2016-05-15T10:17:20.000Z</time>
      </trkpt>
      <trkpt lat="44.5606" lon="4.28771">
        <ele>303</ele>
        <time>2016-05-15T10:17:21.000Z</time>
      </trkpt>
      <trkpt lat="44.56058" lon="4.28771">
        <ele>303</ele>
        <time>2016-05-15T10:17:22.000Z</time>
      </trkpt>
      <trkpt lat="44.56056" lon="4.28772">
        <ele>304</ele>
        <time>2016-05-15T10:17:23.000Z</time>
      </trkpt>
      <trkpt lat="44.56054" lon="4.28773">
        <ele>304</ele>
        <time>2016-05-15T10:17:24.000Z</time>
      </trkpt>
      <trkpt lat="44.56051" lon="4.28774">
        <ele>304</ele>
        <time>2016-05-15T10:17:25.000Z</time>
      </trkpt>
      <trkpt lat="44.56048" lon="4.28775">
        <ele>304</ele>
        <time>2016-05-15T10:17:26.000Z</time>
      </trkpt>
      <trkpt lat="44.56046" lon="4.28775">
        <ele>305</ele>
        <time>2016-05-15T10:17:27.000Z</time>
      </trkpt>
      <trkpt lat="44.56043" lon="4.28775">
        <ele>305</ele>
        <time>2016-05-15T10:17:28.000Z</time>
      </trkpt>
      <trkpt lat="44.56041" lon="4.28776">
        <ele>305</ele>
        <time>2016-05-15T10:17:29.000Z</time>
      </trkpt>
      <trkpt lat="44.56039" lon="4.28776">
        <ele>305</ele>
        <time>2016-05-15T10:17:30.000Z</time>
      </trkpt>
      <trkpt lat="44.56036" lon="4.28776">
        <ele>305</ele>
        <time>2016-05-15T10:17:31.000Z</time>
      </trkpt>
      <trkpt lat="44.56034" lon="4.28777">
        <ele>306</ele>
        <time>2016-05-15T10:17:32.000Z</time>
      </trkpt>
      <trkpt lat="44.56032" lon="4.28778">
        <ele>306</ele>
        <time>2016-05-15T10:17:33.000Z</time>
      </trkpt>
      <trkpt lat="44.56029" lon="4.28778">
        <ele>306</ele>
        <time>2016-05-15T10:17:34.000Z</time>
      </trkpt>
      <trkpt lat="44.56027" lon="4.28779">
        <ele>306</ele>
        <time>2016-05-15T10:17:35.000Z</time>
      </trkpt>
      <trkpt lat="44.56025" lon="4.28779">
        <ele>306</ele>
        <time>2016-05-15T10:17:36.000Z</time>
      </trkpt>
      <trkpt lat="44.56022" lon="4.2878">
        <ele>306</ele>
        <time>2016-05-15T10:17:37.000Z</time>
      </trkpt>
      <trkpt lat="44.5602" lon="4.2878">
        <ele>307</ele>
        <time>2016-05-15T10:17:38.000Z</time>
      </trkpt>
      <trkpt lat="44.56018" lon="4.28781">
        <ele>307</ele>
        <time>2016-05-15T10:17:39.000Z</time>
      </trkpt>
      <trkpt lat="44.56016" lon="4.28781">
        <ele>307</ele>
        <time>2016-05-15T10:17:40.000Z</time>
      </trkpt>
      <trkpt lat="44.56013" lon="4.28782">
        <ele>307</ele>
        <time>2016-05-15T10:17:41.000Z</time>
      </trkpt>
      <trkpt lat="44.56011" lon="4.28783">
        <ele>307</ele>
        <time>2016-05-15T10:17:42.000Z</time>
      </trkpt>
      <trkpt lat="44.56009" lon="4.28784">
        <ele>307</ele>
        <time>2016-05-15T10:17:43.000Z</time>
      </trkpt>
      <trkpt lat="44.56007" lon="4.28784">
        <ele>307</ele>
        <time>2016-05-15T10:17:44.000Z</time>
      </trkpt>
      <trkpt lat="44.56005" lon="4.28785">
        <ele>308</ele>
        <time>2016-05-15T10:17:45.000Z</time>
      </trkpt>
      <trkpt lat="44.56002" lon="4.28786">
        <ele>308</ele>
        <time>2016-05-15T10:17:46.000Z</time>
      </trkpt>
      <trkpt lat="44.56" lon="4.28787">
        <ele>308</ele>
        <time>2016-05-15T10:17:47.000Z</time>
      </trkpt>
      <trkpt lat="44.55998" lon="4.28787">
        <ele>311</ele>
        <time>2016-05-15T10:17:48.000Z</time>
      </trkpt>
      <trkpt lat="44.55996" lon="4.28788">
        <ele>312</ele>
        <time>2016-05-15T10:17:49.000Z</time>
      </trkpt>
      <trkpt lat="44.55994" lon="4.28788">
        <ele>312</ele>
        <time>2016-05-15T10:17:50.000Z</time>
      </trkpt>
      <trkpt lat="44.55992" lon="4.28789">
        <ele>312</ele>
        <time>2016-05-15T10:17:51.000Z</time>
      </trkpt>
      <trkpt lat="44.5599" lon="4.28789">
        <ele>312</ele>
        <time>2016-05-15T10:17:52.000Z</time>
      </trkpt>
      <trkpt lat="44.55989" lon="4.2879">
        <ele>312</ele>
        <time>2016-05-15T10:17:53.000Z</time>
      </trkpt>
      <trkpt lat="44.55987" lon="4.2879">
        <ele>312</ele>
        <time>2016-05-15T10:17:54.000Z</time>
      </trkpt>
      <trkpt lat="44.55985" lon="4.28791">
        <ele>312</ele>
        <time>2016-05-15T10:17:55.000Z</time>
      </trkpt>
      <trkpt lat="44.55983" lon="4.28791">
        <ele>312</ele>
        <time>2016-05-15T10:17:56.000Z</time>
      </trkpt>
      <trkpt lat="44.5598" lon="4.28792">
        <ele>312</ele>
        <time>2016-05-15T10:17:57.000Z</time>
      </trkpt>
      <trkpt lat="44.55978" lon="4.28793">
        <ele>312</ele>
        <time>2016-05-15T10:17:58.000Z</time>
      </trkpt>
      <trkpt lat="44.55975" lon="4.28794">
        <ele>313</ele>
        <time>2016-05-15T10:17:59.000Z</time>
      </trkpt>
      <trkpt lat="44.55973" lon="4.28796">
        <ele>313</ele>
        <time>2016-05-15T10:18:00.000Z</time>
      </trkpt>
      <trkpt lat="44.55971" lon="4.28797">
        <ele>313</ele>
        <time>2016-05-15T10:18:01.000Z</time>
      </trkpt>
      <trkpt lat="44.55969" lon="4.28798">
        <ele>313</ele>
        <time>2016-05-15T10:18:02.000Z</time>
      </trkpt>
      <trkpt lat="44.55967" lon="4.288">
        <ele>313</ele>
        <time>2016-05-15T10:18:03.000Z</time>
      </trkpt>
      <trkpt lat="44.55965" lon="4.28801">
        <ele>313</ele>
        <time>2016-05-15T10:18:04.000Z</time>
      </trkpt>
      <trkpt lat="44.55963" lon="4.28803">
        <ele>313</ele>
        <time>2016-05-15T10:18:05.000Z</time>
      </trkpt>
      <trkpt lat="44.55961" lon="4.28804">
        <ele>314</ele>
        <time>2016-05-15T10:18:06.000Z</time>
      </trkpt>
      <trkpt lat="44.55959" lon="4.28806">
        <ele>314</ele>
        <time>2016-05-15T10:18:07.000Z</time>
      </trkpt>
      <trkpt lat="44.55957" lon="4.28807">
        <ele>314</ele>
        <time>2016-05-15T10:18:08.000Z</time>
      </trkpt>
      <trkpt lat="44.55955" lon="4.28808">
        <ele>314</ele>
        <time>2016-05-15T10:18:09.000Z</time>
      </trkpt>
      <trkpt lat="44.55953" lon="4.2881">
        <ele>314</ele>
        <time>2016-05-15T10:18:10.000Z</time>
      </trkpt>
      <trkpt lat="44.55951" lon="4.28812">
        <ele>315</ele>
        <time>2016-05-15T10:18:11.000Z</time>
      </trkpt>
      <trkpt lat="44.55949" lon="4.28814">
        <ele>315</ele>
        <time>2016-05-15T10:18:12.000Z</time>
      </trkpt>
      <trkpt lat="44.55946" lon="4.28816">
        <ele>315</ele>
        <time>2016-05-15T10:18:13.000Z</time>
      </trkpt>
      <trkpt lat="44.55945" lon="4.28818">
        <ele>315</ele>
        <time>2016-05-15T10:18:14.000Z</time>
      </trkpt>
      <trkpt lat="44.55943" lon="4.28819">
        <ele>316</ele>
        <time>2016-05-15T10:18:15.000Z</time>
      </trkpt>
      <trkpt lat="44.55941" lon="4.2882">
        <ele>316</ele>
        <time>2016-05-15T10:18:16.000Z</time>
      </trkpt>
      <trkpt lat="44.5594" lon="4.28821">
        <ele>316</ele>
        <time>2016-05-15T10:18:17.000Z</time>
      </trkpt>
      <trkpt lat="44.55938" lon="4.28822">
        <ele>316</ele>
        <time>2016-05-15T10:18:18.000Z</time>
      </trkpt>
      <trkpt lat="44.55936" lon="4.28823">
        <ele>317</ele>
        <time>2016-05-15T10:18:19.000Z</time>
      </trkpt>
      <trkpt lat="44.55934" lon="4.28824">
        <ele>317</ele>
        <time>2016-05-15T10:18:20.000Z</time>
      </trkpt>
      <trkpt lat="44.55932" lon="4.28825">
        <ele>317</ele>
        <time>2016-05-15T10:18:21.000Z</time>
      </trkpt>
      <trkpt lat="44.55931" lon="4.28826">
        <ele>318</ele>
        <time>2016-05-15T10:18:22.000Z</time>
      </trkpt>
      <trkpt lat="44.55929" lon="4.28828">
        <ele>318</ele>
        <time>2016-05-15T10:18:23.000Z</time>
      </trkpt>
      <trkpt lat="44.55927" lon="4.28829">
        <ele>318</ele>
        <time>2016-05-15T10:18:24.000Z</time>
      </trkpt>
      <trkpt lat="44.55926" lon="4.28831">
        <ele>319</ele>
        <time>2016-05-15T10:18:25.000Z</time>
      </trkpt>
      <trkpt lat="44.55924" lon="4.28833">
        <ele>320</ele>
        <time>2016-05-15T10:18:26.000Z</time>
      </trkpt>
      <trkpt lat="44.55922" lon="4.28835">
        <ele>324</ele>
        <time>2016-05-15T10:18:27.000Z</time>
      </trkpt>
      <trkpt lat="44.5592" lon="4.28836">
        <ele>324</ele>
        <time>2016-05-15T10:18:28.000Z</time>
      </trkpt>
      <trkpt lat="44.55918" lon="4.28837">
        <ele>324</ele>
        <time>2016-05-15T10:18:29.000Z</time>
      </trkpt>
      <trkpt lat="44.55916" lon="4.28839">
        <ele>323</ele>
        <time>2016-05-15T10:18:30.000Z</time>
      </trkpt>
      <trkpt lat="44.55914" lon="4.2884">
        <ele>323</ele>
        <time>2016-05-15T10:18:31.000Z</time>
      </trkpt>
      <trkpt lat="44.55911" lon="4.28841">
        <ele>324</ele>
        <time>2016-05-15T10:18:32.000Z</time>
      </trkpt>
      <trkpt lat="44.55909" lon="4.28842">
        <ele>324</ele>
        <time>2016-05-15T10:18:33.000Z</time>
      </trkpt>
      <trkpt lat="44.55907" lon="4.28844">
        <ele>324</ele>
        <time>2016-05-15T10:18:34.000Z</time>
      </trkpt>
      <trkpt lat="44.55905" lon="4.28845">
        <ele>324</ele>
        <time>2016-05-15T10:18:35.000Z</time>
      </trkpt>
      <trkpt lat="44.55903" lon="4.28846">
        <ele>325</ele>
        <time>2016-05-15T10:18:36.000Z</time>
      </trkpt>
      <trkpt lat="44.55901" lon="4.28848">
        <ele>325</ele>
        <time>2016-05-15T10:18:37.000Z</time>
      </trkpt>
      <trkpt lat="44.55898" lon="4.28849">
        <ele>325</ele>
        <time>2016-05-15T10:18:38.000Z</time>
      </trkpt>
      <trkpt lat="44.55896" lon="4.28851">
        <ele>325</ele>
        <time>2016-05-15T10:18:39.000Z</time>
      </trkpt>
      <trkpt lat="44.55895" lon="4.28852">
        <ele>325</ele>
        <time>2016-05-15T10:18:40.000Z</time>
      </trkpt>
      <trkpt lat="44.55893" lon="4.28854">
        <ele>325</ele>
        <time>2016-05-15T10:18:41.000Z</time>
      </trkpt>
      <trkpt lat="44.55891" lon="4.28855">
        <ele>325</ele>
        <time>2016-05-15T10:18:42.000Z</time>
      </trkpt>
      <trkpt lat="44.55889" lon="4.28857">
        <ele>325</ele>
        <time>2016-05-15T10:18:43.000Z</time>
      </trkpt>
      <trkpt lat="44.55887" lon="4.28858">
        <ele>326</ele>
        <time>2016-05-15T10:18:44.000Z</time>
      </trkpt>
      <trkpt lat="44.55885" lon="4.28859">
        <ele>326</ele>
        <time>2016-05-15T10:18:45.000Z</time>
      </trkpt>
      <trkpt lat="44.55883" lon="4.28861">
        <ele>326</ele>
        <time>2016-05-15T10:18:46.000Z</time>
      </trkpt>
      <trkpt lat="44.55881" lon="4.28862">
        <ele>326</ele>
        <time>2016-05-15T10:18:47.000Z</time>
      </trkpt>
      <trkpt lat="44.55879" lon="4.28863">
        <ele>326</ele>
        <time>2016-05-15T10:18:48.000Z</time>
      </trkpt>
      <trkpt lat="44.55877" lon="4.28865">
        <ele>326</ele>
        <time>2016-05-15T10:18:49.000Z</time>
      </trkpt>
      <trkpt lat="44.55875" lon="4.28867">
        <ele>326</ele>
        <time>2016-05-15T10:18:50.000Z</time>
      </trkpt>
      <trkpt lat="44.55873" lon="4.28869">
        <ele>326</ele>
        <time>2016-05-15T10:18:51.000Z</time>
      </trkpt>
      <trkpt lat="44.55871" lon="4.2887">
        <ele>326</ele>
        <time>2016-05-15T10:18:52.000Z</time>
      </trkpt>
      <trkpt lat="44.55869" lon="4.28872">
        <ele>326</ele>
        <time>2016-05-15T10:18:53.000Z</time>
      </trkpt>
      <trkpt lat="44.55867" lon="4.28873">
        <ele>326</ele>
        <time>2016-05-15T10:18:54.000Z</time>
      </trkpt>
      <trkpt lat="44.55864" lon="4.28874">
        <ele>326</ele>
        <time>2016-05-15T10:18:55.000Z</time>
      </trkpt>
      <trkpt lat="44.55863" lon="4.28876">
        <ele>326</ele>
        <time>2016-05-15T10:18:56.000Z</time>
      </trkpt>
      <trkpt lat="44.55861" lon="4.28877">
        <ele>326</ele>
        <time>2016-05-15T10:18:57.000Z</time>
      </trkpt>
      <trkpt lat="44.55859" lon="4.28879">
        <ele>326</ele>
        <time>2016-05-15T10:18:58.000Z</time>
      </trkpt>
      <trkpt lat="44.55857" lon="4.28881">
        <ele>326</ele>
        <time>2016-05-15T10:18:59.000Z</time>
      </trkpt>
      <trkpt lat="44.55855" lon="4.28883">
        <ele>327</ele>
        <time>2016-05-15T10:19:00.000Z</time>
      </trkpt>
      <trkpt lat="44.55852" lon="4.28884">
        <ele>327</ele>
        <time>2016-05-15T10:19:01.000Z</time>
      </trkpt>
      <trkpt lat="44.5585" lon="4.28886">
        <ele>327</ele>
        <time>2016-05-15T10:19:02.000Z</time>
      </trkpt>
      <trkpt lat="44.55849" lon="4.28888">
        <ele>327</ele>
        <time>2016-05-15T10:19:03.000Z</time>
      </trkpt>
      <trkpt lat="44.55847" lon="4.28889">
        <ele>327</ele>
        <time>2016-05-15T10:19:04.000Z</time>
      </trkpt>
      <trkpt lat="44.55845" lon="4.28891">
        <ele>328</ele>
        <time>2016-05-15T10:19:05.000Z</time>
      </trkpt>
      <trkpt lat="44.55843" lon="4.28894">
        <ele>328</ele>
        <time>2016-05-15T10:19:06.000Z</time>
      </trkpt>
      <trkpt lat="44.55841" lon="4.28896">
        <ele>328</ele>
        <time>2016-05-15T10:19:07.000Z</time>
      </trkpt>
      <trkpt lat="44.55839" lon="4.28897">
        <ele>329</ele>
        <time>2016-05-15T10:19:08.000Z</time>
      </trkpt>
      <trkpt lat="44.55837" lon="4.28899">
        <ele>329</ele>
        <time>2016-05-15T10:19:09.000Z</time>
      </trkpt>
      <trkpt lat="44.55835" lon="4.28902">
        <ele>329</ele>
        <time>2016-05-15T10:19:10.000Z</time>
      </trkpt>
      <trkpt lat="44.55833" lon="4.28904">
        <ele>325</ele>
        <time>2016-05-15T10:19:11.000Z</time>
      </trkpt>
      <trkpt lat="44.55831" lon="4.28905">
        <ele>325</ele>
        <time>2016-05-15T10:19:12.000Z</time>
      </trkpt>
      <trkpt lat="44.55829" lon="4.28907">
        <ele>326</ele>
        <time>2016-05-15T10:19:13.000Z</time>
      </trkpt>
      <trkpt lat="44.55826" lon="4.28909">
        <ele>326</ele>
        <time>2016-05-15T10:19:14.000Z</time>
      </trkpt>
      <trkpt lat="44.55824" lon="4.28911">
        <ele>326</ele>
        <time>2016-05-15T10:19:15.000Z</time>
      </trkpt>
      <trkpt lat="44.55822" lon="4.28912">
        <ele>325</ele>
        <time>2016-05-15T10:19:16.000Z</time>
      </trkpt>
      <trkpt lat="44.5582" lon="4.28914">
        <ele>325</ele>
        <time>2016-05-15T10:19:17.000Z</time>
      </trkpt>
      <trkpt lat="44.55818" lon="4.28915">
        <ele>324</ele>
        <time>2016-05-15T10:19:18.000Z</time>
      </trkpt>
      <trkpt lat="44.55816" lon="4.28917">
        <ele>335</ele>
        <time>2016-05-15T10:19:19.000Z</time>
      </trkpt>
      <trkpt lat="44.55814" lon="4.28919">
        <ele>335</ele>
        <time>2016-05-15T10:19:20.000Z</time>
      </trkpt>
      <trkpt lat="44.55812" lon="4.2892">
        <ele>336</ele>
        <time>2016-05-15T10:19:21.000Z</time>
      </trkpt>
      <trkpt lat="44.5581" lon="4.28922">
        <ele>336</ele>
        <time>2016-05-15T10:19:22.000Z</time>
      </trkpt>
      <trkpt lat="44.55808" lon="4.28923">
        <ele>336</ele>
        <time>2016-05-15T10:19:23.000Z</time>
      </trkpt>
      <trkpt lat="44.55805" lon="4.28925">
        <ele>336</ele>
        <time>2016-05-15T10:19:24.000Z</time>
      </trkpt>
      <trkpt lat="44.55803" lon="4.28927">
        <ele>336</ele>
        <time>2016-05-15T10:19:25.000Z</time>
      </trkpt>
      <trkpt lat="44.55801" lon="4.28929">
        <ele>336</ele>
        <time>2016-05-15T10:19:26.000Z</time>
      </trkpt>
      <trkpt lat="44.55798" lon="4.2893">
        <ele>336</ele>
        <time>2016-05-15T10:19:27.000Z</time>
      </trkpt>
      <trkpt lat="44.55796" lon="4.28932">
        <ele>336</ele>
        <time>2016-05-15T10:19:28.000Z</time>
      </trkpt>
      <trkpt lat="44.55793" lon="4.28933">
        <ele>336</ele>
        <time>2016-05-15T10:19:29.000Z</time>
      </trkpt>
      <trkpt lat="44.55791" lon="4.28935">
        <ele>336</ele>
        <time>2016-05-15T10:19:30.000Z</time>
      </trkpt>
      <trkpt lat="44.55788" lon="4.28936">
        <ele>336</ele>
        <time>2016-05-15T10:19:31.000Z</time>
      </trkpt>
      <trkpt lat="44.55785" lon="4.28938">
        <ele>336</ele>
        <time>2016-05-15T10:19:32.000Z</time>
      </trkpt>
      <trkpt lat="44.55783" lon="4.2894">
        <ele>336</ele>
        <time>2016-05-15T10:19:33.000Z</time>
      </trkpt>
      <trkpt lat="44.55781" lon="4.28942">
        <ele>336</ele>
        <time>2016-05-15T10:19:34.000Z</time>
      </trkpt>
      <trkpt lat="44.55779" lon="4.28943">
        <ele>336</ele>
        <time>2016-05-15T10:19:35.000Z</time>
      </trkpt>
      <trkpt lat="44.55776" lon="4.28945">
        <ele>336</ele>
        <time>2016-05-15T10:19:36.000Z</time>
      </trkpt>
      <trkpt lat="44.55774" lon="4.28946">
        <ele>336</ele>
        <time>2016-05-15T10:19:37.000Z</time>
      </trkpt>
      <trkpt lat="44.55771" lon="4.28947">
        <ele>337</ele>
        <time>2016-05-15T10:19:38.000Z</time>
      </trkpt>
      <trkpt lat="44.55769" lon="4.28949">
        <ele>337</ele>
        <time>2016-05-15T10:19:39.000Z</time>
      </trkpt>
      <trkpt lat="44.55767" lon="4.2895">
        <ele>337</ele>
        <time>2016-05-15T10:19:40.000Z</time>
      </trkpt>
      <trkpt lat="44.55764" lon="4.28951">
        <ele>337</ele>
        <time>2016-05-15T10:19:41.000Z</time>
      </trkpt>
      <trkpt lat="44.55762" lon="4.28953">
        <ele>337</ele>
        <time>2016-05-15T10:19:42.000Z</time>
      </trkpt>
      <trkpt lat="44.55759" lon="4.28954">
        <ele>337</ele>
        <time>2016-05-15T10:19:43.000Z</time>
      </trkpt>
      <trkpt lat="44.55757" lon="4.28955">
        <ele>337</ele>
        <time>2016-05-15T10:19:44.000Z</time>
      </trkpt>
      <trkpt lat="44.55754" lon="4.28956">
        <ele>337</ele>
        <time>2016-05-15T10:19:45.000Z</time>
      </trkpt>
      <trkpt lat="44.55752" lon="4.28957">
        <ele>338</ele>
        <time>2016-05-15T10:19:46.000Z</time>
      </trkpt>
      <trkpt lat="44.5575" lon="4.28958">
        <ele>334</ele>
        <time>2016-05-15T10:19:47.000Z</time>
      </trkpt>
      <trkpt lat="44.55747" lon="4.28959">
        <ele>334</ele>
        <time>2016-05-15T10:19:48.000Z</time>
      </trkpt>
      <trkpt lat="44.55745" lon="4.2896">
        <ele>334</ele>
        <time>2016-05-15T10:19:49.000Z</time>
      </trkpt>
      <trkpt lat="44.55742" lon="4.28961">
        <ele>335</ele>
        <time>2016-05-15T10:19:50.000Z</time>
      </trkpt>
      <trkpt lat="44.5574" lon="4.28963">
        <ele>335</ele>
        <time>2016-05-15T10:19:51.000Z</time>
      </trkpt>
      <trkpt lat="44.55738" lon="4.28964">
        <ele>335</ele>
        <time>2016-05-15T10:19:52.000Z</time>
      </trkpt>
      <trkpt lat="44.55735" lon="4.28965">
        <ele>335</ele>
        <time>2016-05-15T10:19:53.000Z</time>
      </trkpt>
      <trkpt lat="44.55733" lon="4.28966">
        <ele>335</ele>
        <time>2016-05-15T10:19:54.000Z</time>
      </trkpt>
      <trkpt lat="44.5573" lon="4.28967">
        <ele>335</ele>
        <time>2016-05-15T10:19:55.000Z</time>
      </trkpt>
      <trkpt lat="44.55728" lon="4.28968">
        <ele>335</ele>
        <time>2016-05-15T10:19:56.000Z</time>
      </trkpt>
      <trkpt lat="44.55725" lon="4.28969">
        <ele>335</ele>
        <time>2016-05-15T10:19:57.000Z</time>
      </trkpt>
      <trkpt lat="44.55723" lon="4.28969">
        <ele>335</ele>
        <time>2016-05-15T10:19:58.000Z</time>
      </trkpt>
      <trkpt lat="44.5572" lon="4.2897">
        <ele>335</ele>
        <time>2016-05-15T10:19:59.000Z</time>
      </trkpt>
      <trkpt lat="44.55718" lon="4.28971">
        <ele>336</ele>
        <time>2016-05-15T10:20:00.000Z</time>
      </trkpt>
      <trkpt lat="44.55716" lon="4.28972">
        <ele>336</ele>
        <time>2016-05-15T10:20:01.000Z</time>
      </trkpt>
      <trkpt lat="44.55713" lon="4.28973">
        <ele>336</ele>
        <time>2016-05-15T10:20:02.000Z</time>
      </trkpt>
      <trkpt lat="44.55711" lon="4.28973">
        <ele>336</ele>
        <time>2016-05-15T10:20:03.000Z</time>
      </trkpt>
      <trkpt lat="44.55709" lon="4.28974">
        <ele>336</ele>
        <time>2016-05-15T10:20:04.000Z</time>
      </trkpt>
      <trkpt lat="44.55706" lon="4.28975">
        <ele>336</ele>
        <time>2016-05-15T10:20:05.000Z</time>
      </trkpt>
      <trkpt lat="44.55704" lon="4.28976">
        <ele>336</ele>
        <time>2016-05-15T10:20:06.000Z</time>
      </trkpt>
      <trkpt lat="44.55701" lon="4.28976">
        <ele>336</ele>
        <time>2016-05-15T10:20:07.000Z</time>
      </trkpt>
      <trkpt lat="44.55698" lon="4.28977">
        <ele>336</ele>
        <time>2016-05-15T10:20:08.000Z</time>
      </trkpt>
      <trkpt lat="44.55696" lon="4.28977">
        <ele>336</ele>
        <time>2016-05-15T10:20:09.000Z</time>
      </trkpt>
      <trkpt lat="44.55693" lon="4.28978">
        <ele>336</ele>
        <time>2016-05-15T10:20:10.000Z</time>
      </trkpt>
      <trkpt lat="44.55691" lon="4.28979">
        <ele>337</ele>
        <time>2016-05-15T10:20:11.000Z</time>
      </trkpt>
      <trkpt lat="44.55688" lon="4.28979">
        <ele>337</ele>
        <time>2016-05-15T10:20:12.000Z</time>
      </trkpt>
      <trkpt lat="44.55686" lon="4.2898">
        <ele>337</ele>
        <time>2016-05-15T10:20:13.000Z</time>
      </trkpt>
      <trkpt lat="44.55683" lon="4.2898">
        <ele>337</ele>
        <time>2016-05-15T10:20:14.000Z</time>
      </trkpt>
      <trkpt lat="44.5568" lon="4.28981">
        <ele>338</ele>
        <time>2016-05-15T10:20:15.000Z</time>
      </trkpt>
      <trkpt lat="44.55678" lon="4.28982">
        <ele>338</ele>
        <time>2016-05-15T10:20:16.000Z</time>
      </trkpt>
      <trkpt lat="44.55675" lon="4.28982">
        <ele>338</ele>
        <time>2016-05-15T10:20:17.000Z</time>
      </trkpt>
      <trkpt lat="44.55672" lon="4.28982">
        <ele>338</ele>
        <time>2016-05-15T10:20:18.000Z</time>
      </trkpt>
      <trkpt lat="44.55669" lon="4.28982">
        <ele>339</ele>
        <time>2016-05-15T10:20:19.000Z</time>
      </trkpt>
      <trkpt lat="44.55666" lon="4.28983">
        <ele>339</ele>
        <time>2016-05-15T10:20:20.000Z</time>
      </trkpt>
      <trkpt lat="44.55663" lon="4.28983">
        <ele>339</ele>
        <time>2016-05-15T10:20:21.000Z</time>
      </trkpt>
      <trkpt lat="44.5566" lon="4.28983">
        <ele>339</ele>
        <time>2016-05-15T10:20:22.000Z</time>
      </trkpt>
      <trkpt lat="44.55657" lon="4.28983">
        <ele>338</ele>
        <time>2016-05-15T10:20:23.000Z</time>
      </trkpt>
      <trkpt lat="44.55655" lon="4.28983">
        <ele>338</ele>
        <time>2016-05-15T10:20:24.000Z</time>
      </trkpt>
      <trkpt lat="44.55652" lon="4.28983">
        <ele>338</ele>
        <time>2016-05-15T10:20:25.000Z</time>
      </trkpt>
      <trkpt lat="44.55649" lon="4.28983">
        <ele>338</ele>
        <time>2016-05-15T10:20:26.000Z</time>
      </trkpt>
      <trkpt lat="44.55647" lon="4.28983">
        <ele>337</ele>
        <time>2016-05-15T10:20:27.000Z</time>
      </trkpt>
      <trkpt lat="44.55644" lon="4.28983">
        <ele>337</ele>
        <time>2016-05-15T10:20:28.000Z</time>
      </trkpt>
      <trkpt lat="44.55641" lon="4.28983">
        <ele>337</ele>
        <time>2016-05-15T10:20:29.000Z</time>
      </trkpt>
      <trkpt lat="44.55638" lon="4.28984">
        <ele>337</ele>
        <time>2016-05-15T10:20:30.000Z</time>
      </trkpt>
      <trkpt lat="44.55635" lon="4.28984">
        <ele>337</ele>
        <time>2016-05-15T10:20:31.000Z</time>
      </trkpt>
      <trkpt lat="44.55632" lon="4.28985">
        <ele>337</ele>
        <time>2016-05-15T10:20:32.000Z</time>
      </trkpt>
      <trkpt lat="44.55629" lon="4.28985">
        <ele>337</ele>
        <time>2016-05-15T10:20:33.000Z</time>
      </trkpt>
      <trkpt lat="44.55626" lon="4.28986">
        <ele>337</ele>
        <time>2016-05-15T10:20:34.000Z</time>
      </trkpt>
      <trkpt lat="44.55622" lon="4.28987">
        <ele>337</ele>
        <time>2016-05-15T10:20:35.000Z</time>
      </trkpt>
      <trkpt lat="44.55619" lon="4.28988">
        <ele>337</ele>
        <time>2016-05-15T10:20:36.000Z</time>
      </trkpt>
      <trkpt lat="44.55617" lon="4.28989">
        <ele>338</ele>
        <time>2016-05-15T10:20:37.000Z</time>
      </trkpt>
      <trkpt lat="44.55614" lon="4.2899">
        <ele>338</ele>
        <time>2016-05-15T10:20:38.000Z</time>
      </trkpt>
      <trkpt lat="44.55611" lon="4.28991">
        <ele>338</ele>
        <time>2016-05-15T10:20:39.000Z</time>
      </trkpt>
      <trkpt lat="44.55608" lon="4.28992">
        <ele>339</ele>
        <time>2016-05-15T10:20:40.000Z</time>
      </trkpt>
      <trkpt lat="44.55605" lon="4.28993">
        <ele>339</ele>
        <time>2016-05-15T10:20:41.000Z</time>
      </trkpt>
      <trkpt lat="44.55602" lon="4.28993">
        <ele>340</ele>
        <time>2016-05-15T10:20:42.000Z</time>
      </trkpt>
      <trkpt lat="44.556" lon="4.28993">
        <ele>340</ele>
        <time>2016-05-15T10:20:43.000Z</time>
      </trkpt>
      <trkpt lat="44.55597" lon="4.28994">
        <ele>341</ele>
        <time>2016-05-15T10:20:44.000Z</time>
      </trkpt>
      <trkpt lat="44.55594" lon="4.28994">
        <ele>341</ele>
        <time>2016-05-15T10:20:45.000Z</time>
      </trkpt>
      <trkpt lat="44.55592" lon="4.28995">
        <ele>342</ele>
        <time>2016-05-15T10:20:46.000Z</time>
      </trkpt>
      <trkpt lat="44.55589" lon="4.28995">
        <ele>343</ele>
        <time>2016-05-15T10:20:47.000Z</time>
      </trkpt>
      <trkpt lat="44.55586" lon="4.28996">
        <ele>344</ele>
        <time>2016-05-15T10:20:48.000Z</time>
      </trkpt>
      <trkpt lat="44.55584" lon="4.28996">
        <ele>344</ele>
        <time>2016-05-15T10:20:49.000Z</time>
      </trkpt>
      <trkpt lat="44.55581" lon="4.28997">
        <ele>345</ele>
        <time>2016-05-15T10:20:50.000Z</time>
      </trkpt>
      <trkpt lat="44.55578" lon="4.28998">
        <ele>344</ele>
        <time>2016-05-15T10:20:51.000Z</time>
      </trkpt>
      <trkpt lat="44.55576" lon="4.28999">
        <ele>344</ele>
        <time>2016-05-15T10:20:52.000Z</time>
      </trkpt>
      <trkpt lat="44.55573" lon="4.29">
        <ele>344</ele>
        <time>2016-05-15T10:20:53.000Z</time>
      </trkpt>
      <trkpt lat="44.5557" lon="4.29001">
        <ele>349</ele>
        <time>2016-05-15T10:20:54.000Z</time>
      </trkpt>
      <trkpt lat="44.55568" lon="4.29002">
        <ele>349</ele>
        <time>2016-05-15T10:20:55.000Z</time>
      </trkpt>
      <trkpt lat="44.55565" lon="4.29003">
        <ele>350</ele>
        <time>2016-05-15T10:20:56.000Z</time>
      </trkpt>
      <trkpt lat="44.55562" lon="4.29004">
        <ele>350</ele>
        <time>2016-05-15T10:20:57.000Z</time>
      </trkpt>
      <trkpt lat="44.55559" lon="4.29004">
        <ele>350</ele>
        <time>2016-05-15T10:20:58.000Z</time>
      </trkpt>
      <trkpt lat="44.55556" lon="4.29005">
        <ele>350</ele>
        <time>2016-05-15T10:20:59.000Z</time>
      </trkpt>
      <trkpt lat="44.55554" lon="4.29006">
        <ele>351</ele>
        <time>2016-05-15T10:21:00.000Z</time>
      </trkpt>
      <trkpt lat="44.55551" lon="4.29007">
        <ele>351</ele>
        <time>2016-05-15T10:21:01.000Z</time>
      </trkpt>
      <trkpt lat="44.55548" lon="4.29008">
        <ele>351</ele>
        <time>2016-05-15T10:21:02.000Z</time>
      </trkpt>
      <trkpt lat="44.55545" lon="4.29008">
        <ele>351</ele>
        <time>2016-05-15T10:21:03.000Z</time>
      </trkpt>
      <trkpt lat="44.55542" lon="4.29009">
        <ele>351</ele>
        <time>2016-05-15T10:21:04.000Z</time>
      </trkpt>
      <trkpt lat="44.55539" lon="4.2901">
        <ele>351</ele>
        <time>2016-05-15T10:21:05.000Z</time>
      </trkpt>
      <trkpt lat="44.55537" lon="4.29011">
        <ele>351</ele>
        <time>2016-05-15T10:21:06.000Z</time>
      </trkpt>
      <trkpt lat="44.55534" lon="4.29012">
        <ele>351</ele>
        <time>2016-05-15T10:21:07.000Z</time>
      </trkpt>
      <trkpt lat="44.55531" lon="4.29012">
        <ele>351</ele>
        <time>2016-05-15T10:21:08.000Z</time>
      </trkpt>
      <trkpt lat="44.55528" lon="4.29013">
        <ele>351</ele>
        <time>2016-05-15T10:21:09.000Z</time>
      </trkpt>
      <trkpt lat="44.55526" lon="4.29014">
        <ele>351</ele>
        <time>2016-05-15T10:21:10.000Z</time>
      </trkpt>
      <trkpt lat="44.55523" lon="4.29015">
        <ele>351</ele>
        <time>2016-05-15T10:21:11.000Z</time>
      </trkpt>
      <trkpt lat="44.5552" lon="4.29016">
        <ele>351</ele>
        <time>2016-05-15T10:21:12.000Z</time>
      </trkpt>
      <trkpt lat="44.55518" lon="4.29017">
        <ele>351</ele>
        <time>2016-05-15T10:21:13.000Z</time>
      </trkpt>
      <trkpt lat="44.55515" lon="4.29017">
        <ele>351</ele>
        <time>2016-05-15T10:21:14.000Z</time>
      </trkpt>
      <trkpt lat="44.55513" lon="4.29017">
        <ele>351</ele>
        <time>2016-05-15T10:21:15.000Z</time>
      </trkpt>
      <trkpt lat="44.5551" lon="4.29018">
        <ele>351</ele>
        <time>2016-05-15T10:21:16.000Z</time>
      </trkpt>
      <trkpt lat="44.55508" lon="4.29019">
        <ele>351</ele>
        <time>2016-05-15T10:21:17.000Z</time>
      </trkpt>
      <trkpt lat="44.55506" lon="4.2902">
        <ele>351</ele>
        <time>2016-05-15T10:21:18.000Z</time>
      </trkpt>
      <trkpt lat="44.55504" lon="4.2902">
        <ele>351</ele>
        <time>2016-05-15T10:21:19.000Z</time>
      </trkpt>
      <trkpt lat="44.55502" lon="4.29021">
        <ele>351</ele>
        <time>2016-05-15T10:21:20.000Z</time>
      </trkpt>
      <trkpt lat="44.55499" lon="4.29022">
        <ele>350</ele>
        <time>2016-05-15T10:21:21.000Z</time>
      </trkpt>
      <trkpt lat="44.55497" lon="4.29022">
        <ele>350</ele>
        <time>2016-05-15T10:21:22.000Z</time>
      </trkpt>
      <trkpt lat="44.55495" lon="4.29023">
        <ele>351</ele>
        <time>2016-05-15T10:21:23.000Z</time>
      </trkpt>
      <trkpt lat="44.55493" lon="4.29024">
        <ele>351</ele>
        <time>2016-05-15T10:21:24.000Z</time>
      </trkpt>
      <trkpt lat="44.5549" lon="4.29025">
        <ele>351</ele>
        <time>2016-05-15T10:21:25.000Z</time>
      </trkpt>
      <trkpt lat="44.55488" lon="4.29025">
        <ele>351</ele>
        <time>2016-05-15T10:21:26.000Z</time>
      </trkpt>
      <trkpt lat="44.55486" lon="4.29026">
        <ele>351</ele>
        <time>2016-05-15T10:21:27.000Z</time>
      </trkpt>
      <trkpt lat="44.55483" lon="4.29027">
        <ele>351</ele>
        <time>2016-05-15T10:21:28.000Z</time>
      </trkpt>
      <trkpt lat="44.55481" lon="4.29028">
        <ele>351</ele>
        <time>2016-05-15T10:21:29.000Z</time>
      </trkpt>
      <trkpt lat="44.55478" lon="4.29029">
        <ele>351</ele>
        <time>2016-05-15T10:21:30.000Z</time>
      </trkpt>
      <trkpt lat="44.55476" lon="4.2903">
        <ele>351</ele>
        <time>2016-05-15T10:21:31.000Z</time>
      </trkpt>
      <trkpt lat="44.55473" lon="4.29031">
        <ele>351</ele>
        <time>2016-05-15T10:21:32.000Z</time>
      </trkpt>
      <trkpt lat="44.55471" lon="4.29032">
        <ele>351</ele>
        <time>2016-05-15T10:21:33.000Z</time>
      </trkpt>
      <trkpt lat="44.55468" lon="4.29033">
        <ele>351</ele>
        <time>2016-05-15T10:21:34.000Z</time>
      </trkpt>
      <trkpt lat="44.55466" lon="4.29034">
        <ele>351</ele>
        <time>2016-05-15T10:21:35.000Z</time>
      </trkpt>
      <trkpt lat="44.55463" lon="4.29036">
        <ele>352</ele>
        <time>2016-05-15T10:21:36.000Z</time>
      </trkpt>
      <trkpt lat="44.5546" lon="4.29037">
        <ele>352</ele>
        <time>2016-05-15T10:21:37.000Z</time>
      </trkpt>
      <trkpt lat="44.55458" lon="4.29039">
        <ele>352</ele>
        <time>2016-05-15T10:21:38.000Z</time>
      </trkpt>
      <trkpt lat="44.55455" lon="4.2904">
        <ele>352</ele>
        <time>2016-05-15T10:21:39.000Z</time>
      </trkpt>
      <trkpt lat="44.55454" lon="4.29042">
        <ele>352</ele>
        <time>2016-05-15T10:21:40.000Z</time>
      </trkpt>
      <trkpt lat="44.55452" lon="4.29044">
        <ele>352</ele>
        <time>2016-05-15T10:21:41.000Z</time>
      </trkpt>
      <trkpt lat="44.55449" lon="4.29046">
        <ele>352</ele>
        <time>2016-05-15T10:21:42.000Z</time>
      </trkpt>
      <trkpt lat="44.55448" lon="4.29047">
        <ele>352</ele>
        <time>2016-05-15T10:21:43.000Z</time>
      </trkpt>
      <trkpt lat="44.55446" lon="4.29049">
        <ele>352</ele>
        <time>2016-05-15T10:21:44.000Z</time>
      </trkpt>
      <trkpt lat="44.55443" lon="4.29051">
        <ele>353</ele>
        <time>2016-05-15T10:21:45.000Z</time>
      </trkpt>
      <trkpt lat="44.55441" lon="4.29053">
        <ele>353</ele>
        <time>2016-05-15T10:21:46.000Z</time>
      </trkpt>
      <trkpt lat="44.55439" lon="4.29055">
        <ele>353</ele>
        <time>2016-05-15T10:21:47.000Z</time>
      </trkpt>
      <trkpt lat="44.55436" lon="4.29057">
        <ele>353</ele>
        <time>2016-05-15T10:21:48.000Z</time>
      </trkpt>
      <trkpt lat="44.55434" lon="4.2906">
        <ele>353</ele>
        <time>2016-05-15T10:21:49.000Z</time>
      </trkpt>
      <trkpt lat="44.55432" lon="4.29062">
        <ele>354</ele>
        <time>2016-05-15T10:21:50.000Z</time>
      </trkpt>
      <trkpt lat="44.55429" lon="4.29064">
        <ele>354</ele>
        <time>2016-05-15T10:21:51.000Z</time>
      </trkpt>
      <trkpt lat="44.55427" lon="4.29066">
        <ele>354</ele>
        <time>2016-05-15T10:21:52.000Z</time>
      </trkpt>
      <trkpt lat="44.55424" lon="4.29068">
        <ele>355</ele>
        <time>2016-05-15T10:21:53.000Z</time>
      </trkpt>
      <trkpt lat="44.55422" lon="4.29071">
        <ele>355</ele>
        <time>2016-05-15T10:21:54.000Z</time>
      </trkpt>
      <trkpt lat="44.5542" lon="4.29073">
        <ele>356</ele>
        <time>2016-05-15T10:21:55.000Z</time>
      </trkpt>
      <trkpt lat="44.55417" lon="4.29076">
        <ele>356</ele>
        <time>2016-05-15T10:21:56.000Z</time>
      </trkpt>
      <trkpt lat="44.55415" lon="4.29078">
        <ele>354</ele>
        <time>2016-05-15T10:21:57.000Z</time>
      </trkpt>
      <trkpt lat="44.55413" lon="4.29081">
        <ele>354</ele>
        <time>2016-05-15T10:21:58.000Z</time>
      </trkpt>
      <trkpt lat="44.55411" lon="4.29083">
        <ele>354</ele>
        <time>2016-05-15T10:21:59.000Z</time>
      </trkpt>
      <trkpt lat="44.55409" lon="4.29086">
        <ele>356</ele>
        <time>2016-05-15T10:22:00.000Z</time>
      </trkpt>
      <trkpt lat="44.55408" lon="4.29089">
        <ele>356</ele>
        <time>2016-05-15T10:22:01.000Z</time>
      </trkpt>
      <trkpt lat="44.55406" lon="4.29092">
        <ele>355</ele>
        <time>2016-05-15T10:22:02.000Z</time>
      </trkpt>
      <trkpt lat="44.55404" lon="4.29095">
        <ele>355</ele>
        <time>2016-05-15T10:22:03.000Z</time>
      </trkpt>
      <trkpt lat="44.55402" lon="4.29097">
        <ele>355</ele>
        <time>2016-05-15T10:22:04.000Z</time>
      </trkpt>
      <trkpt lat="44.554" lon="4.291">
        <ele>354</ele>
        <time>2016-05-15T10:22:05.000Z</time>
      </trkpt>
      <trkpt lat="44.55398" lon="4.29102">
        <ele>354</ele>
        <time>2016-05-15T10:22:06.000Z</time>
      </trkpt>
      <trkpt lat="44.55396" lon="4.29105">
        <ele>354</ele>
        <time>2016-05-15T10:22:07.000Z</time>
      </trkpt>
      <trkpt lat="44.55394" lon="4.29109">
        <ele>354</ele>
        <time>2016-05-15T10:22:08.000Z</time>
      </trkpt>
      <trkpt lat="44.55392" lon="4.29112">
        <ele>353</ele>
        <time>2016-05-15T10:22:09.000Z</time>
      </trkpt>
      <trkpt lat="44.55391" lon="4.29115">
        <ele>353</ele>
        <time>2016-05-15T10:22:10.000Z</time>
      </trkpt>
      <trkpt lat="44.55389" lon="4.29118">
        <ele>353</ele>
        <time>2016-05-15T10:22:11.000Z</time>
      </trkpt>
      <trkpt lat="44.55388" lon="4.2912">
        <ele>353</ele>
        <time>2016-05-15T10:22:12.000Z</time>
      </trkpt>
      <trkpt lat="44.55386" lon="4.29123">
        <ele>353</ele>
        <time>2016-05-15T10:22:13.000Z</time>
      </trkpt>
      <trkpt lat="44.55385" lon="4.29126">
        <ele>353</ele>
        <time>2016-05-15T10:22:14.000Z</time>
      </trkpt>
      <trkpt lat="44.55384" lon="4.29128">
        <ele>353</ele>
        <time>2016-05-15T10:22:15.000Z</time>
      </trkpt>
      <trkpt lat="44.55383" lon="4.29131">
        <ele>354</ele>
        <time>2016-05-15T10:22:16.000Z</time>
      </trkpt>
      <trkpt lat="44.55382" lon="4.29133">
        <ele>354</ele>
        <time>2016-05-15T10:22:17.000Z</time>
      </trkpt>
      <trkpt lat="44.5538" lon="4.29136">
        <ele>354</ele>
        <time>2016-05-15T10:22:18.000Z</time>
      </trkpt>
      <trkpt lat="44.55379" lon="4.29139">
        <ele>354</ele>
        <time>2016-05-15T10:22:19.000Z</time>
      </trkpt>
      <trkpt lat="44.55377" lon="4.29142">
        <ele>354</ele>
        <time>2016-05-15T10:22:20.000Z</time>
      </trkpt>
      <trkpt lat="44.55376" lon="4.29144">
        <ele>354</ele>
        <time>2016-05-15T10:22:21.000Z</time>
      </trkpt>
      <trkpt lat="44.55374" lon="4.29147">
        <ele>354</ele>
        <time>2016-05-15T10:22:22.000Z</time>
      </trkpt>
      <trkpt lat="44.55373" lon="4.2915">
        <ele>353</ele>
        <time>2016-05-15T10:22:23.000Z</time>
      </trkpt>
      <trkpt lat="44.55371" lon="4.29152">
        <ele>353</ele>
        <time>2016-05-15T10:22:24.000Z</time>
      </trkpt>
      <trkpt lat="44.5537" lon="4.29155">
        <ele>353</ele>
        <time>2016-05-15T10:22:25.000Z</time>
      </trkpt>
      <trkpt lat="44.55368" lon="4.29158">
        <ele>353</ele>
        <time>2016-05-15T10:22:26.000Z</time>
      </trkpt>
      <trkpt lat="44.55367" lon="4.2916">
        <ele>353</ele>
        <time>2016-05-15T10:22:27.000Z</time>
      </trkpt>
      <trkpt lat="44.55365" lon="4.29162">
        <ele>353</ele>
        <time>2016-05-15T10:22:28.000Z</time>
      </trkpt>
      <trkpt lat="44.55364" lon="4.29165">
        <ele>353</ele>
        <time>2016-05-15T10:22:29.000Z</time>
      </trkpt>
      <trkpt lat="44.55362" lon="4.29168">
        <ele>359</ele>
        <time>2016-05-15T10:22:30.000Z</time>
      </trkpt>
      <trkpt lat="44.5536" lon="4.29171">
        <ele>358</ele>
        <time>2016-05-15T10:22:31.000Z</time>
      </trkpt>
      <trkpt lat="44.55358" lon="4.29175">
        <ele>358</ele>
        <time>2016-05-15T10:22:32.000Z</time>
      </trkpt>
      <trkpt lat="44.55356" lon="4.29178">
        <ele>358</ele>
        <time>2016-05-15T10:22:33.000Z</time>
      </trkpt>
      <trkpt lat="44.55355" lon="4.29181">
        <ele>358</ele>
        <time>2016-05-15T10:22:34.000Z</time>
      </trkpt>
      <trkpt lat="44.55353" lon="4.29184">
        <ele>358</ele>
        <time>2016-05-15T10:22:35.000Z</time>
      </trkpt>
      <trkpt lat="44.55352" lon="4.29187">
        <ele>358</ele>
        <time>2016-05-15T10:22:36.000Z</time>
      </trkpt>
      <trkpt lat="44.55351" lon="4.2919">
        <ele>359</ele>
        <time>2016-05-15T10:22:37.000Z</time>
      </trkpt>
      <trkpt lat="44.55349" lon="4.29194">
        <ele>359</ele>
        <time>2016-05-15T10:22:38.000Z</time>
      </trkpt>
      <trkpt lat="44.55347" lon="4.29197">
        <ele>359</ele>
        <time>2016-05-15T10:22:39.000Z</time>
      </trkpt>
      <trkpt lat="44.55346" lon="4.292">
        <ele>359</ele>
        <time>2016-05-15T10:22:40.000Z</time>
      </trkpt>
      <trkpt lat="44.55345" lon="4.29203">
        <ele>360</ele>
        <time>2016-05-15T10:22:41.000Z</time>
      </trkpt>
      <trkpt lat="44.55343" lon="4.29207">
        <ele>360</ele>
        <time>2016-05-15T10:22:42.000Z</time>
      </trkpt>
      <trkpt lat="44.55342" lon="4.2921">
        <ele>360</ele>
        <time>2016-05-15T10:22:43.000Z</time>
      </trkpt>
      <trkpt lat="44.55341" lon="4.29213">
        <ele>361</ele>
        <time>2016-05-15T10:22:44.000Z</time>
      </trkpt>
      <trkpt lat="44.5534" lon="4.29216">
        <ele>361</ele>
        <time>2016-05-15T10:22:45.000Z</time>
      </trkpt>
      <trkpt lat="44.55339" lon="4.29219">
        <ele>361</ele>
        <time>2016-05-15T10:22:46.000Z</time>
      </trkpt>
      <trkpt lat="44.55339" lon="4.29221">
        <ele>361</ele>
        <time>2016-05-15T10:22:47.000Z</time>
      </trkpt>
      <trkpt lat="44.55338" lon="4.29224">
        <ele>361</ele>
        <time>2016-05-15T10:22:48.000Z</time>
      </trkpt>
      <trkpt lat="44.55338" lon="4.29227">
        <ele>361</ele>
        <time>2016-05-15T10:22:49.000Z</time>
      </trkpt>
      <trkpt lat="44.55338" lon="4.29231">
        <ele>361</ele>
        <time>2016-05-15T10:22:50.000Z</time>
      </trkpt>
      <trkpt lat="44.55338" lon="4.29234">
        <ele>361</ele>
        <time>2016-05-15T10:22:51.000Z</time>
      </trkpt>
      <trkpt lat="44.55337" lon="4.29238">
        <ele>361</ele>
        <time>2016-05-15T10:22:52.000Z</time>
      </trkpt>
      <trkpt lat="44.55335" lon="4.29241">
        <ele>361</ele>
        <time>2016-05-15T10:22:53.000Z</time>
      </trkpt>
      <trkpt lat="44.55333" lon="4.29245">
        <ele>358</ele>
        <time>2016-05-15T10:22:54.000Z</time>
      </trkpt>
      <trkpt lat="44.55331" lon="4.29249">
        <ele>359</ele>
        <time>2016-05-15T10:22:55.000Z</time>
      </trkpt>
      <trkpt lat="44.55329" lon="4.29252">
        <ele>361</ele>
        <time>2016-05-15T10:22:56.000Z</time>
      </trkpt>
      <trkpt lat="44.55327" lon="4.29255">
        <ele>361</ele>
        <time>2016-05-15T10:22:57.000Z</time>
      </trkpt>
      <trkpt lat="44.55324" lon="4.29257">
        <ele>361</ele>
        <time>2016-05-15T10:22:58.000Z</time>
      </trkpt>
      <trkpt lat="44.55322" lon="4.2926">
        <ele>361</ele>
        <time>2016-05-15T10:22:59.000Z</time>
      </trkpt>
      <trkpt lat="44.55319" lon="4.29262">
        <ele>361</ele>
        <time>2016-05-15T10:23:00.000Z</time>
      </trkpt>
      <trkpt lat="44.55317" lon="4.29264">
        <ele>361</ele>
        <time>2016-05-15T10:23:01.000Z</time>
      </trkpt>
      <trkpt lat="44.55315" lon="4.29266">
        <ele>361</ele>
        <time>2016-05-15T10:23:02.000Z</time>
      </trkpt>
      <trkpt lat="44.55313" lon="4.29269">
        <ele>361</ele>
        <time>2016-05-15T10:23:03.000Z</time>
      </trkpt>
      <trkpt lat="44.55311" lon="4.29271">
        <ele>361</ele>
        <time>2016-05-15T10:23:04.000Z</time>
      </trkpt>
      <trkpt lat="44.55309" lon="4.29272">
        <ele>361</ele>
        <time>2016-05-15T10:23:05.000Z</time>
      </trkpt>
      <trkpt lat="44.55307" lon="4.29274">
        <ele>361</ele>
        <time>2016-05-15T10:23:06.000Z</time>
      </trkpt>
      <trkpt lat="44.55305" lon="4.29276">
        <ele>361</ele>
        <time>2016-05-15T10:23:07.000Z</time>
      </trkpt>
      <trkpt lat="44.55303" lon="4.29278">
        <ele>361</ele>
        <time>2016-05-15T10:23:08.000Z</time>
      </trkpt>
      <trkpt lat="44.55301" lon="4.2928">
        <ele>361</ele>
        <time>2016-05-15T10:23:09.000Z</time>
      </trkpt>
      <trkpt lat="44.55299" lon="4.29282">
        <ele>361</ele>
        <time>2016-05-15T10:23:10.000Z</time>
      </trkpt>
      <trkpt lat="44.55296" lon="4.29285">
        <ele>361</ele>
        <time>2016-05-15T10:23:11.000Z</time>
      </trkpt>
      <trkpt lat="44.55293" lon="4.29287">
        <ele>361</ele>
        <time>2016-05-15T10:23:12.000Z</time>
      </trkpt>
      <trkpt lat="44.5529" lon="4.2929">
        <ele>361</ele>
        <time>2016-05-15T10:23:13.000Z</time>
      </trkpt>
      <trkpt lat="44.55287" lon="4.29292">
        <ele>361</ele>
        <time>2016-05-15T10:23:14.000Z</time>
      </trkpt>
      <trkpt lat="44.55284" lon="4.29295">
        <ele>361</ele>
        <time>2016-05-15T10:23:15.000Z</time>
      </trkpt>
      <trkpt lat="44.55281" lon="4.29298">
        <ele>361</ele>
        <time>2016-05-15T10:23:16.000Z</time>
      </trkpt>
      <trkpt lat="44.55277" lon="4.293">
        <ele>361</ele>
        <time>2016-05-15T10:23:17.000Z</time>
      </trkpt>
      <trkpt lat="44.55274" lon="4.29303">
        <ele>361</ele>
        <time>2016-05-15T10:23:18.000Z</time>
      </trkpt>
      <trkpt lat="44.5527" lon="4.29307">
        <ele>361</ele>
        <time>2016-05-15T10:23:19.000Z</time>
      </trkpt>
      <trkpt lat="44.55265" lon="4.2931">
        <ele>362</ele>
        <time>2016-05-15T10:23:20.000Z</time>
      </trkpt>
      <trkpt lat="44.55261" lon="4.29313">
        <ele>362</ele>
        <time>2016-05-15T10:23:21.000Z</time>
      </trkpt>
      <trkpt lat="44.55256" lon="4.29316">
        <ele>362</ele>
        <time>2016-05-15T10:23:22.000Z</time>
      </trkpt>
      <trkpt lat="44.55252" lon="4.29319">
        <ele>363</ele>
        <time>2016-05-15T10:23:23.000Z</time>
      </trkpt>
      <trkpt lat="44.55247" lon="4.29322">
        <ele>358</ele>
        <time>2016-05-15T10:23:24.000Z</time>
      </trkpt>
      <trkpt lat="44.55243" lon="4.29324">
        <ele>358</ele>
        <time>2016-05-15T10:23:25.000Z</time>
      </trkpt>
      <trkpt lat="44.55238" lon="4.29327">
        <ele>357</ele>
        <time>2016-05-15T10:23:26.000Z</time>
      </trkpt>
      <trkpt lat="44.55234" lon="4.29329">
        <ele>356</ele>
        <time>2016-05-15T10:23:27.000Z</time>
      </trkpt>
      <trkpt lat="44.55229" lon="4.29331">
        <ele>355</ele>
        <time>2016-05-15T10:23:28.000Z</time>
      </trkpt>
      <trkpt lat="44.55225" lon="4.29334">
        <ele>364</ele>
        <time>2016-05-15T10:23:29.000Z</time>
      </trkpt>
      <trkpt lat="44.5522" lon="4.29336">
        <ele>363</ele>
        <time>2016-05-15T10:23:30.000Z</time>
      </trkpt>
      <trkpt lat="44.55216" lon="4.29339">
        <ele>363</ele>
        <time>2016-05-15T10:23:31.000Z</time>
      </trkpt>
      <trkpt lat="44.55212" lon="4.29342">
        <ele>363</ele>
        <time>2016-05-15T10:23:32.000Z</time>
      </trkpt>
      <trkpt lat="44.55209" lon="4.29345">
        <ele>362</ele>
        <time>2016-05-15T10:23:33.000Z</time>
      </trkpt>
      <trkpt lat="44.55205" lon="4.29349">
        <ele>362</ele>
        <time>2016-05-15T10:23:34.000Z</time>
      </trkpt>
      <trkpt lat="44.55201" lon="4.29354">
        <ele>362</ele>
        <time>2016-05-15T10:23:35.000Z</time>
      </trkpt>
      <trkpt lat="44.55198" lon="4.29358">
        <ele>362</ele>
        <time>2016-05-15T10:23:36.000Z</time>
      </trkpt>
      <trkpt lat="44.55194" lon="4.29364">
        <ele>362</ele>
        <time>2016-05-15T10:23:37.000Z</time>
      </trkpt>
      <trkpt lat="44.5519" lon="4.29369">
        <ele>362</ele>
        <time>2016-05-15T10:23:38.000Z</time>
      </trkpt>
      <trkpt lat="44.55187" lon="4.29374">
        <ele>362</ele>
        <time>2016-05-15T10:23:39.000Z</time>
      </trkpt>
      <trkpt lat="44.55183" lon="4.29379">
        <ele>362</ele>
        <time>2016-05-15T10:23:40.000Z</time>
      </trkpt>
      <trkpt lat="44.55179" lon="4.29383">
        <ele>363</ele>
        <time>2016-05-15T10:23:41.000Z</time>
      </trkpt>
      <trkpt lat="44.55176" lon="4.29388">
        <ele>363</ele>
        <time>2016-05-15T10:23:42.000Z</time>
      </trkpt>
      <trkpt lat="44.55173" lon="4.29394">
        <ele>363</ele>
        <time>2016-05-15T10:23:43.000Z</time>
      </trkpt>
      <trkpt lat="44.5517" lon="4.29399">
        <ele>363</ele>
        <time>2016-05-15T10:23:44.000Z</time>
      </trkpt>
      <trkpt lat="44.55167" lon="4.29404">
        <ele>363</ele>
        <time>2016-05-15T10:23:45.000Z</time>
      </trkpt>
      <trkpt lat="44.55164" lon="4.29409">
        <ele>360</ele>
        <time>2016-05-15T10:23:46.000Z</time>
      </trkpt>
      <trkpt lat="44.55161" lon="4.29415">
        <ele>361</ele>
        <time>2016-05-15T10:23:47.000Z</time>
      </trkpt>
      <trkpt lat="44.55159" lon="4.2942">
        <ele>362</ele>
        <time>2016-05-15T10:23:48.000Z</time>
      </trkpt>
      <trkpt lat="44.55157" lon="4.29425">
        <ele>361</ele>
        <time>2016-05-15T10:23:49.000Z</time>
      </trkpt>
      <trkpt lat="44.55154" lon="4.29431">
        <ele>361</ele>
        <time>2016-05-15T10:23:50.000Z</time>
      </trkpt>
      <trkpt lat="44.55152" lon="4.29437">
        <ele>360</ele>
        <time>2016-05-15T10:23:51.000Z</time>
      </trkpt>
      <trkpt lat="44.55149" lon="4.29443">
        <ele>360</ele>
        <time>2016-05-15T10:23:52.000Z</time>
      </trkpt>
      <trkpt lat="44.55146" lon="4.29448">
        <ele>360</ele>
        <time>2016-05-15T10:23:53.000Z</time>
      </trkpt>
      <trkpt lat="44.55144" lon="4.29453">
        <ele>359</ele>
        <time>2016-05-15T10:23:54.000Z</time>
      </trkpt>
      <trkpt lat="44.55141" lon="4.29458">
        <ele>359</ele>
        <time>2016-05-15T10:23:55.000Z</time>
      </trkpt>
      <trkpt lat="44.55139" lon="4.29463">
        <ele>359</ele>
        <time>2016-05-15T10:23:56.000Z</time>
      </trkpt>
      <trkpt lat="44.55138" lon="4.29469">
        <ele>359</ele>
        <time>2016-05-15T10:23:57.000Z</time>
      </trkpt>
      <trkpt lat="44.55136" lon="4.29474">
        <ele>359</ele>
        <time>2016-05-15T10:23:58.000Z</time>
      </trkpt>
      <trkpt lat="44.55135" lon="4.2948">
        <ele>359</ele>
        <time>2016-05-15T10:23:59.000Z</time>
      </trkpt>
      <trkpt lat="44.55135" lon="4.29486">
        <ele>359</ele>
        <time>2016-05-15T10:24:00.000Z</time>
      </trkpt>
      <trkpt lat="44.55135" lon="4.29493">
        <ele>359</ele>
        <time>2016-05-15T10:24:01.000Z</time>
      </trkpt>
      <trkpt lat="44.55134" lon="4.29499">
        <ele>359</ele>
        <time>2016-05-15T10:24:02.000Z</time>
      </trkpt>
      <trkpt lat="44.55134" lon="4.29506">
        <ele>358</ele>
        <time>2016-05-15T10:24:03.000Z</time>
      </trkpt>
      <trkpt lat="44.55135" lon="4.29512">
        <ele>358</ele>
        <time>2016-05-15T10:24:04.000Z</time>
      </trkpt>
      <trkpt lat="44.55137" lon="4.29518">
        <ele>358</ele>
        <time>2016-05-15T10:24:05.000Z</time>
      </trkpt>
      <trkpt lat="44.55141" lon="4.29522">
        <ele>358</ele>
        <time>2016-05-15T10:24:06.000Z</time>
      </trkpt>
      <trkpt lat="44.55145" lon="4.29525">
        <ele>358</ele>
        <time>2016-05-15T10:24:07.000Z</time>
      </trkpt>
      <trkpt lat="44.55149" lon="4.29528">
        <ele>358</ele>
        <time>2016-05-15T10:24:08.000Z</time>
      </trkpt>
      <trkpt lat="44.55152" lon="4.2953">
        <ele>358</ele>
        <time>2016-05-15T10:24:09.000Z</time>
      </trkpt>
      <trkpt lat="44.55155" lon="4.29532">
        <ele>358</ele>
        <time>2016-05-15T10:24:10.000Z</time>
      </trkpt>
      <trkpt lat="44.55158" lon="4.29534">
        <ele>358</ele>
        <time>2016-05-15T10:24:11.000Z</time>
      </trkpt>
      <trkpt lat="44.55161" lon="4.29536">
        <ele>357</ele>
        <time>2016-05-15T10:24:12.000Z</time>
      </trkpt>
      <trkpt lat="44.55163" lon="4.29537">
        <ele>357</ele>
        <time>2016-05-15T10:24:13.000Z</time>
      </trkpt>
      <trkpt lat="44.55166" lon="4.29539">
        <ele>357</ele>
        <time>2016-05-15T10:24:14.000Z</time>
      </trkpt>
      <trkpt lat="44.55168" lon="4.29541">
        <ele>362</ele>
        <time>2016-05-15T10:24:15.000Z</time>
      </trkpt>
      <trkpt lat="44.5517" lon="4.29542">
        <ele>362</ele>
        <time>2016-05-15T10:24:16.000Z</time>
      </trkpt>
      <trkpt lat="44.55173" lon="4.29543">
        <ele>362</ele>
        <time>2016-05-15T10:24:17.000Z</time>
      </trkpt>
      <trkpt lat="44.55176" lon="4.29544">
        <ele>362</ele>
        <time>2016-05-15T10:24:18.000Z</time>
      </trkpt>
      <trkpt lat="44.55178" lon="4.29545">
        <ele>362</ele>
        <time>2016-05-15T10:24:19.000Z</time>
      </trkpt>
      <trkpt lat="44.55181" lon="4.29546">
        <ele>362</ele>
        <time>2016-05-15T10:24:20.000Z</time>
      </trkpt>
      <trkpt lat="44.55183" lon="4.29546">
        <ele>362</ele>
        <time>2016-05-15T10:24:21.000Z</time>
      </trkpt>
      <trkpt lat="44.55185" lon="4.29545">
        <ele>362</ele>
        <time>2016-05-15T10:24:22.000Z</time>
      </trkpt>
      <trkpt lat="44.55187" lon="4.29544">
        <ele>362</ele>
        <time>2016-05-15T10:24:23.000Z</time>
      </trkpt>
      <trkpt lat="44.5519" lon="4.29543">
        <ele>363</ele>
        <time>2016-05-15T10:24:24.000Z</time>
      </trkpt>
      <trkpt lat="44.55192" lon="4.29541">
        <ele>363</ele>
        <time>2016-05-15T10:24:25.000Z</time>
      </trkpt>
      <trkpt lat="44.55193" lon="4.29539">
        <ele>363</ele>
        <time>2016-05-15T10:24:26.000Z</time>
      </trkpt>
      <trkpt lat="44.55195" lon="4.29538">
        <ele>363</ele>
        <time>2016-05-15T10:24:27.000Z</time>
      </trkpt>
      <trkpt lat="44.55198" lon="4.29537">
        <ele>363</ele>
        <time>2016-05-15T10:24:28.000Z</time>
      </trkpt>
      <trkpt lat="44.552" lon="4.29536">
        <ele>364</ele>
        <time>2016-05-15T10:24:29.000Z</time>
      </trkpt>
      <trkpt lat="44.55203" lon="4.29536">
        <ele>364</ele>
        <time>2016-05-15T10:24:30.000Z</time>
      </trkpt>
      <trkpt lat="44.55206" lon="4.29536">
        <ele>364</ele>
        <time>2016-05-15T10:24:31.000Z</time>
      </trkpt>
      <trkpt lat="44.55209" lon="4.29536">
        <ele>364</ele>
        <time>2016-05-15T10:24:32.000Z</time>
      </trkpt>
      <trkpt lat="44.55213" lon="4.29536">
        <ele>364</ele>
        <time>2016-05-15T10:24:33.000Z</time>
      </trkpt>
      <trkpt lat="44.55216" lon="4.29536">
        <ele>364</ele>
        <time>2016-05-15T10:24:34.000Z</time>
      </trkpt>
      <trkpt lat="44.55219" lon="4.29537">
        <ele>365</ele>
        <time>2016-05-15T10:24:35.000Z</time>
      </trkpt>
      <trkpt lat="44.55222" lon="4.29537">
        <ele>365</ele>
        <time>2016-05-15T10:24:36.000Z</time>
      </trkpt>
      <trkpt lat="44.55225" lon="4.29537">
        <ele>365</ele>
        <time>2016-05-15T10:24:37.000Z</time>
      </trkpt>
      <trkpt lat="44.55228" lon="4.29538">
        <ele>365</ele>
        <time>2016-05-15T10:24:38.000Z</time>
      </trkpt>
      <trkpt lat="44.55231" lon="4.29539">
        <ele>365</ele>
        <time>2016-05-15T10:24:39.000Z</time>
      </trkpt>
      <trkpt lat="44.55234" lon="4.29539">
        <ele>365</ele>
        <time>2016-05-15T10:24:40.000Z</time>
      </trkpt>
      <trkpt lat="44.55237" lon="4.2954">
        <ele>365</ele>
        <time>2016-05-15T10:24:41.000Z</time>
      </trkpt>
      <trkpt lat="44.55239" lon="4.2954">
        <ele>365</ele>
        <time>2016-05-15T10:24:42.000Z</time>
      </trkpt>
      <trkpt lat="44.55242" lon="4.29541">
        <ele>365</ele>
        <time>2016-05-15T10:24:43.000Z</time>
      </trkpt>
      <trkpt lat="44.55244" lon="4.29542">
        <ele>365</ele>
        <time>2016-05-15T10:24:44.000Z</time>
      </trkpt>
      <trkpt lat="44.55246" lon="4.29543">
        <ele>365</ele>
        <time>2016-05-15T10:24:45.000Z</time>
      </trkpt>
      <trkpt lat="44.55249" lon="4.29544">
        <ele>365</ele>
        <time>2016-05-15T10:24:46.000Z</time>
      </trkpt>
      <trkpt lat="44.55252" lon="4.29545">
        <ele>370</ele>
        <time>2016-05-15T10:24:47.000Z</time>
      </trkpt>
      <trkpt lat="44.55254" lon="4.29546">
        <ele>370</ele>
        <time>2016-05-15T10:24:48.000Z</time>
      </trkpt>
      <trkpt lat="44.55257" lon="4.29548">
        <ele>370</ele>
        <time>2016-05-15T10:24:49.000Z</time>
      </trkpt>
      <trkpt lat="44.5526" lon="4.29549">
        <ele>370</ele>
        <time>2016-05-15T10:24:50.000Z</time>
      </trkpt>
      <trkpt lat="44.55262" lon="4.29551">
        <ele>370</ele>
        <time>2016-05-15T10:24:51.000Z</time>
      </trkpt>
      <trkpt lat="44.55265" lon="4.29553">
        <ele>370</ele>
        <time>2016-05-15T10:24:52.000Z</time>
      </trkpt>
      <trkpt lat="44.55267" lon="4.29555">
        <ele>370</ele>
        <time>2016-05-15T10:24:53.000Z</time>
      </trkpt>
      <trkpt lat="44.55269" lon="4.29557">
        <ele>369</ele>
        <time>2016-05-15T10:24:54.000Z</time>
      </trkpt>
      <trkpt lat="44.55272" lon="4.29559">
        <ele>369</ele>
        <time>2016-05-15T10:24:55.000Z</time>
      </trkpt>
      <trkpt lat="44.55274" lon="4.29561">
        <ele>369</ele>
        <time>2016-05-15T10:24:56.000Z</time>
      </trkpt>
      <trkpt lat="44.55277" lon="4.29563">
        <ele>370</ele>
        <time>2016-05-15T10:24:57.000Z</time>
      </trkpt>
      <trkpt lat="44.5528" lon="4.29565">
        <ele>370</ele>
        <time>2016-05-15T10:24:58.000Z</time>
      </trkpt>
      <trkpt lat="44.55284" lon="4.29568">
        <ele>370</ele>
        <time>2016-05-15T10:24:59.000Z</time>
      </trkpt>
      <trkpt lat="44.55287" lon="4.29571">
        <ele>370</ele>
        <time>2016-05-15T10:25:00.000Z</time>
      </trkpt>
      <trkpt lat="44.55289" lon="4.29575">
        <ele>370</ele>
        <time>2016-05-15T10:25:01.000Z</time>
      </trkpt>
      <trkpt lat="44.55292" lon="4.2958">
        <ele>370</ele>
        <time>2016-05-15T10:25:02.000Z</time>
      </trkpt>
      <trkpt lat="44.55295" lon="4.29585">
        <ele>363</ele>
        <time>2016-05-15T10:25:03.000Z</time>
      </trkpt>
      <trkpt lat="44.55299" lon="4.29587">
        <ele>363</ele>
        <time>2016-05-15T10:25:04.000Z</time>
      </trkpt>
      <trkpt lat="44.55303" lon="4.29589">
        <ele>364</ele>
        <time>2016-05-15T10:25:05.000Z</time>
      </trkpt>
      <trkpt lat="44.55307" lon="4.2959">
        <ele>364</ele>
        <time>2016-05-15T10:25:06.000Z</time>
      </trkpt>
      <trkpt lat="44.55311" lon="4.29592">
        <ele>365</ele>
        <time>2016-05-15T10:25:07.000Z</time>
      </trkpt>
      <trkpt lat="44.55315" lon="4.29594">
        <ele>365</ele>
        <time>2016-05-15T10:25:08.000Z</time>
      </trkpt>
      <trkpt lat="44.55319" lon="4.29595">
        <ele>365</ele>
        <time>2016-05-15T10:25:09.000Z</time>
      </trkpt>
      <trkpt lat="44.55323" lon="4.29597">
        <ele>365</ele>
        <time>2016-05-15T10:25:10.000Z</time>
      </trkpt>
      <trkpt lat="44.55327" lon="4.29598">
        <ele>366</ele>
        <time>2016-05-15T10:25:11.000Z</time>
      </trkpt>
      <trkpt lat="44.55331" lon="4.29599">
        <ele>366</ele>
        <time>2016-05-15T10:25:12.000Z</time>
      </trkpt>
      <trkpt lat="44.55335" lon="4.29601">
        <ele>370</ele>
        <time>2016-05-15T10:25:13.000Z</time>
      </trkpt>
      <trkpt lat="44.55339" lon="4.29602">
        <ele>370</ele>
        <time>2016-05-15T10:25:14.000Z</time>
      </trkpt>
      <trkpt lat="44.55342" lon="4.29603">
        <ele>370</ele>
        <time>2016-05-15T10:25:15.000Z</time>
      </trkpt>
      <trkpt lat="44.55346" lon="4.29604">
        <ele>370</ele>
        <time>2016-05-15T10:25:16.000Z</time>
      </trkpt>
      <trkpt lat="44.5535" lon="4.29606">
        <ele>370</ele>
        <time>2016-05-15T10:25:17.000Z</time>
      </trkpt>
      <trkpt lat="44.55354" lon="4.29607">
        <ele>370</ele>
        <time>2016-05-15T10:25:18.000Z</time>
      </trkpt>
      <trkpt lat="44.55357" lon="4.29608">
        <ele>370</ele>
        <time>2016-05-15T10:25:19.000Z</time>
      </trkpt>
      <trkpt lat="44.55361" lon="4.29609">
        <ele>370</ele>
        <time>2016-05-15T10:25:20.000Z</time>
      </trkpt>
      <trkpt lat="44.55364" lon="4.2961">
        <ele>371</ele>
        <time>2016-05-15T10:25:21.000Z</time>
      </trkpt>
      <trkpt lat="44.55367" lon="4.29611">
        <ele>371</ele>
        <time>2016-05-15T10:25:22.000Z</time>
      </trkpt>
      <trkpt lat="44.5537" lon="4.29612">
        <ele>371</ele>
        <time>2016-05-15T10:25:23.000Z</time>
      </trkpt>
      <trkpt lat="44.55374" lon="4.29613">
        <ele>371</ele>
        <time>2016-05-15T10:25:24.000Z</time>
      </trkpt>
      <trkpt lat="44.55377" lon="4.29614">
        <ele>371</ele>
        <time>2016-05-15T10:25:25.000Z</time>
      </trkpt>
      <trkpt lat="44.5538" lon="4.29615">
        <ele>371</ele>
        <time>2016-05-15T10:25:26.000Z</time>
      </trkpt>
      <trkpt lat="44.55384" lon="4.29616">
        <ele>372</ele>
        <time>2016-05-15T10:25:27.000Z</time>
      </trkpt>
      <trkpt lat="44.55387" lon="4.29617">
        <ele>372</ele>
        <time>2016-05-15T10:25:28.000Z</time>
      </trkpt>
      <trkpt lat="44.5539" lon="4.29619">
        <ele>372</ele>
        <time>2016-05-15T10:25:29.000Z</time>
      </trkpt>
      <trkpt lat="44.55393" lon="4.29621">
        <ele>372</ele>
        <time>2016-05-15T10:25:30.000Z</time>
      </trkpt>
      <trkpt lat="44.55396" lon="4.29623">
        <ele>372</ele>
        <time>2016-05-15T10:25:31.000Z</time>
      </trkpt>
      <trkpt lat="44.55399" lon="4.29625">
        <ele>372</ele>
        <time>2016-05-15T10:25:32.000Z</time>
      </trkpt>
      <trkpt lat="44.55401" lon="4.29627">
        <ele>372</ele>
        <time>2016-05-15T10:25:33.000Z</time>
      </trkpt>
      <trkpt lat="44.55404" lon="4.29629">
        <ele>372</ele>
        <time>2016-05-15T10:25:34.000Z</time>
      </trkpt>
      <trkpt lat="44.55407" lon="4.29631">
        <ele>372</ele>
        <time>2016-05-15T10:25:35.000Z</time>
      </trkpt>
      <trkpt lat="44.5541" lon="4.29634">
        <ele>372</ele>
        <time>2016-05-15T10:25:36.000Z</time>
      </trkpt>
      <trkpt lat="44.55413" lon="4.29636">
        <ele>372</ele>
        <time>2016-05-15T10:25:37.000Z</time>
      </trkpt>
      <trkpt lat="44.55416" lon="4.29637">
        <ele>372</ele>
        <time>2016-05-15T10:25:38.000Z</time>
      </trkpt>
      <trkpt lat="44.55419" lon="4.29639">
        <ele>377</ele>
        <time>2016-05-15T10:25:39.000Z</time>
      </trkpt>
      <trkpt lat="44.55422" lon="4.29641">
        <ele>377</ele>
        <time>2016-05-15T10:25:40.000Z</time>
      </trkpt>
      <trkpt lat="44.55424" lon="4.29642">
        <ele>377</ele>
        <time>2016-05-15T10:25:41.000Z</time>
      </trkpt>
      <trkpt lat="44.55427" lon="4.29644">
        <ele>377</ele>
        <time>2016-05-15T10:25:42.000Z</time>
      </trkpt>
      <trkpt lat="44.55431" lon="4.29647">
        <ele>377</ele>
        <time>2016-05-15T10:25:43.000Z</time>
      </trkpt>
      <trkpt lat="44.55434" lon="4.29649">
        <ele>377</ele>
        <time>2016-05-15T10:25:44.000Z</time>
      </trkpt>
      <trkpt lat="44.55437" lon="4.2965">
        <ele>377</ele>
        <time>2016-05-15T10:25:45.000Z</time>
      </trkpt>
      <trkpt lat="44.5544" lon="4.29652">
        <ele>377</ele>
        <time>2016-05-15T10:25:46.000Z</time>
      </trkpt>
      <trkpt lat="44.55442" lon="4.29654">
        <ele>377</ele>
        <time>2016-05-15T10:25:47.000Z</time>
      </trkpt>
      <trkpt lat="44.55445" lon="4.29656">
        <ele>377</ele>
        <time>2016-05-15T10:25:48.000Z</time>
      </trkpt>
      <trkpt lat="44.55447" lon="4.29658">
        <ele>378</ele>
        <time>2016-05-15T10:25:49.000Z</time>
      </trkpt>
      <trkpt lat="44.55449" lon="4.2966">
        <ele>378</ele>
        <time>2016-05-15T10:25:50.000Z</time>
      </trkpt>
      <trkpt lat="44.55451" lon="4.29662">
        <ele>378</ele>
        <time>2016-05-15T10:25:51.000Z</time>
      </trkpt>
      <trkpt lat="44.55453" lon="4.29664">
        <ele>378</ele>
        <time>2016-05-15T10:25:52.000Z</time>
      </trkpt>
      <trkpt lat="44.55455" lon="4.29667">
        <ele>372</ele>
        <time>2016-05-15T10:25:53.000Z</time>
      </trkpt>
      <trkpt lat="44.55457" lon="4.29669">
        <ele>372</ele>
        <time>2016-05-15T10:25:54.000Z</time>
      </trkpt>
      <trkpt lat="44.55459" lon="4.29671">
        <ele>372</ele>
        <time>2016-05-15T10:25:55.000Z</time>
      </trkpt>
      <trkpt lat="44.5546" lon="4.29674">
        <ele>372</ele>
        <time>2016-05-15T10:25:56.000Z</time>
      </trkpt>
      <trkpt lat="44.55462" lon="4.29676">
        <ele>372</ele>
        <time>2016-05-15T10:25:57.000Z</time>
      </trkpt>
      <trkpt lat="44.55464" lon="4.29679">
        <ele>372</ele>
        <time>2016-05-15T10:25:58.000Z</time>
      </trkpt>
      <trkpt lat="44.55467" lon="4.29682">
        <ele>372</ele>
        <time>2016-05-15T10:25:59.000Z</time>
      </trkpt>
      <trkpt lat="44.5547" lon="4.29685">
        <ele>372</ele>
        <time>2016-05-15T10:26:00.000Z</time>
      </trkpt>
      <trkpt lat="44.55474" lon="4.29687">
        <ele>372</ele>
        <time>2016-05-15T10:26:01.000Z</time>
      </trkpt>
      <trkpt lat="44.55477" lon="4.2969">
        <ele>371</ele>
        <time>2016-05-15T10:26:02.000Z</time>
      </trkpt>
      <trkpt lat="44.55481" lon="4.29693">
        <ele>371</ele>
        <time>2016-05-15T10:26:03.000Z</time>
      </trkpt>
      <trkpt lat="44.55485" lon="4.29696">
        <ele>371</ele>
        <time>2016-05-15T10:26:04.000Z</time>
      </trkpt>
      <trkpt lat="44.55489" lon="4.29699">
        <ele>371</ele>
        <time>2016-05-15T10:26:05.000Z</time>
      </trkpt>
      <trkpt lat="44.55493" lon="4.29701">
        <ele>371</ele>
        <time>2016-05-15T10:26:06.000Z</time>
      </trkpt>
      <trkpt lat="44.55498" lon="4.29702">
        <ele>371</ele>
        <time>2016-05-15T10:26:07.000Z</time>
      </trkpt>
      <trkpt lat="44.55503" lon="4.29703">
        <ele>370</ele>
        <time>2016-05-15T10:26:08.000Z</time>
      </trkpt>
      <trkpt lat="44.55508" lon="4.29701">
        <ele>370</ele>
        <time>2016-05-15T10:26:09.000Z</time>
      </trkpt>
      <trkpt lat="44.55512" lon="4.29699">
        <ele>370</ele>
        <time>2016-05-15T10:26:10.000Z</time>
      </trkpt>
      <trkpt lat="44.55517" lon="4.29696">
        <ele>370</ele>
        <time>2016-05-15T10:26:11.000Z</time>
      </trkpt>
      <trkpt lat="44.5552" lon="4.29694">
        <ele>370</ele>
        <time>2016-05-15T10:26:12.000Z</time>
      </trkpt>
      <trkpt lat="44.55523" lon="4.29692">
        <ele>370</ele>
        <time>2016-05-15T10:26:13.000Z</time>
      </trkpt>
      <trkpt lat="44.55527" lon="4.2969">
        <ele>370</ele>
        <time>2016-05-15T10:26:14.000Z</time>
      </trkpt>
      <trkpt lat="44.5553" lon="4.29688">
        <ele>370</ele>
        <time>2016-05-15T10:26:15.000Z</time>
      </trkpt>
      <trkpt lat="44.55534" lon="4.29686">
        <ele>370</ele>
        <time>2016-05-15T10:26:16.000Z</time>
      </trkpt>
      <trkpt lat="44.55537" lon="4.29684">
        <ele>370</ele>
        <time>2016-05-15T10:26:17.000Z</time>
      </trkpt>
      <trkpt lat="44.55541" lon="4.29682">
        <ele>370</ele>
        <time>2016-05-15T10:26:18.000Z</time>
      </trkpt>
      <trkpt lat="44.55544" lon="4.29681">
        <ele>370</ele>
        <time>2016-05-15T10:26:19.000Z</time>
      </trkpt>
      <trkpt lat="44.55548" lon="4.29679">
        <ele>370</ele>
        <time>2016-05-15T10:26:20.000Z</time>
      </trkpt>
      <trkpt lat="44.55552" lon="4.29677">
        <ele>370</ele>
        <time>2016-05-15T10:26:21.000Z</time>
      </trkpt>
      <trkpt lat="44.55556" lon="4.29675">
        <ele>370</ele>
        <time>2016-05-15T10:26:22.000Z</time>
      </trkpt>
      <trkpt lat="44.55559" lon="4.29674">
        <ele>370</ele>
        <time>2016-05-15T10:26:23.000Z</time>
      </trkpt>
      <trkpt lat="44.55563" lon="4.29672">
        <ele>370</ele>
        <time>2016-05-15T10:26:24.000Z</time>
      </trkpt>
      <trkpt lat="44.55568" lon="4.2967">
        <ele>370</ele>
        <time>2016-05-15T10:26:25.000Z</time>
      </trkpt>
      <trkpt lat="44.55572" lon="4.29669">
        <ele>371</ele>
        <time>2016-05-15T10:26:26.000Z</time>
      </trkpt>
      <trkpt lat="44.55576" lon="4.29667">
        <ele>371</ele>
        <time>2016-05-15T10:26:27.000Z</time>
      </trkpt>
      <trkpt lat="44.5558" lon="4.29666">
        <ele>373</ele>
        <time>2016-05-15T10:26:28.000Z</time>
      </trkpt>
      <trkpt lat="44.55584" lon="4.29664">
        <ele>373</ele>
        <time>2016-05-15T10:26:29.000Z</time>
      </trkpt>
      <trkpt lat="44.55587" lon="4.29663">
        <ele>374</ele>
        <time>2016-05-15T10:26:30.000Z</time>
      </trkpt>
      <trkpt lat="44.55591" lon="4.29661">
        <ele>374</ele>
        <time>2016-05-15T10:26:31.000Z</time>
      </trkpt>
      <trkpt lat="44.55595" lon="4.2966">
        <ele>375</ele>
        <time>2016-05-15T10:26:32.000Z</time>
      </trkpt>
      <trkpt lat="44.55599" lon="4.29659">
        <ele>376</ele>
        <time>2016-05-15T10:26:33.000Z</time>
      </trkpt>
      <trkpt lat="44.55603" lon="4.29657">
        <ele>376</ele>
        <time>2016-05-15T10:26:34.000Z</time>
      </trkpt>
      <trkpt lat="44.55606" lon="4.29655">
        <ele>377</ele>
        <time>2016-05-15T10:26:35.000Z</time>
      </trkpt>
      <trkpt lat="44.5561" lon="4.29654">
        <ele>377</ele>
        <time>2016-05-15T10:26:36.000Z</time>
      </trkpt>
      <trkpt lat="44.55613" lon="4.29652">
        <ele>377</ele>
        <time>2016-05-15T10:26:37.000Z</time>
      </trkpt>
      <trkpt lat="44.55617" lon="4.29651">
        <ele>377</ele>
        <time>2016-05-15T10:26:38.000Z</time>
      </trkpt>
      <trkpt lat="44.55621" lon="4.29649">
        <ele>377</ele>
        <time>2016-05-15T10:26:39.000Z</time>
      </trkpt>
      <trkpt lat="44.55625" lon="4.29648">
        <ele>378</ele>
        <time>2016-05-15T10:26:40.000Z</time>
      </trkpt>
      <trkpt lat="44.55628" lon="4.29646">
        <ele>378</ele>
        <time>2016-05-15T10:26:41.000Z</time>
      </trkpt>
      <trkpt lat="44.55632" lon="4.29644">
        <ele>378</ele>
        <time>2016-05-15T10:26:42.000Z</time>
      </trkpt>
      <trkpt lat="44.55636" lon="4.29642">
        <ele>378</ele>
        <time>2016-05-15T10:26:43.000Z</time>
      </trkpt>
      <trkpt lat="44.5564" lon="4.2964">
        <ele>378</ele>
        <time>2016-05-15T10:26:44.000Z</time>
      </trkpt>
      <trkpt lat="44.55643" lon="4.29638">
        <ele>378</ele>
        <time>2016-05-15T10:26:45.000Z</time>
      </trkpt>
      <trkpt lat="44.55647" lon="4.29636">
        <ele>378</ele>
        <time>2016-05-15T10:26:46.000Z</time>
      </trkpt>
      <trkpt lat="44.5565" lon="4.29635">
        <ele>378</ele>
        <time>2016-05-15T10:26:47.000Z</time>
      </trkpt>
      <trkpt lat="44.55654" lon="4.29633">
        <ele>378</ele>
        <time>2016-05-15T10:26:48.000Z</time>
      </trkpt>
      <trkpt lat="44.55657" lon="4.29631">
        <ele>379</ele>
        <time>2016-05-15T10:26:49.000Z</time>
      </trkpt>
      <trkpt lat="44.55661" lon="4.29629">
        <ele>379</ele>
        <time>2016-05-15T10:26:50.000Z</time>
      </trkpt>
      <trkpt lat="44.55664" lon="4.29627">
        <ele>379</ele>
        <time>2016-05-15T10:26:51.000Z</time>
      </trkpt>
      <trkpt lat="44.55668" lon="4.29626">
        <ele>382</ele>
        <time>2016-05-15T10:26:52.000Z</time>
      </trkpt>
      <trkpt lat="44.55671" lon="4.29624">
        <ele>382</ele>
        <time>2016-05-15T10:26:53.000Z</time>
      </trkpt>
      <trkpt lat="44.55675" lon="4.29623">
        <ele>382</ele>
        <time>2016-05-15T10:26:54.000Z</time>
      </trkpt>
      <trkpt lat="44.55678" lon="4.29622">
        <ele>383</ele>
        <time>2016-05-15T10:26:55.000Z</time>
      </trkpt>
      <trkpt lat="44.55681" lon="4.29621">
        <ele>383</ele>
        <time>2016-05-15T10:26:56.000Z</time>
      </trkpt>
      <trkpt lat="44.55685" lon="4.29619">
        <ele>383</ele>
        <time>2016-05-15T10:26:57.000Z</time>
      </trkpt>
      <trkpt lat="44.55688" lon="4.29618">
        <ele>383</ele>
        <time>2016-05-15T10:26:58.000Z</time>
      </trkpt>
      <trkpt lat="44.55691" lon="4.29617">
        <ele>383</ele>
        <time>2016-05-15T10:26:59.000Z</time>
      </trkpt>
      <trkpt lat="44.55694" lon="4.29616">
        <ele>384</ele>
        <time>2016-05-15T10:27:00.000Z</time>
      </trkpt>
      <trkpt lat="44.55697" lon="4.29615">
        <ele>384</ele>
        <time>2016-05-15T10:27:01.000Z</time>
      </trkpt>
      <trkpt lat="44.55701" lon="4.29613">
        <ele>384</ele>
        <time>2016-05-15T10:27:02.000Z</time>
      </trkpt>
      <trkpt lat="44.55704" lon="4.29612">
        <ele>384</ele>
        <time>2016-05-15T10:27:03.000Z</time>
      </trkpt>
      <trkpt lat="44.55707" lon="4.2961">
        <ele>385</ele>
        <time>2016-05-15T10:27:04.000Z</time>
      </trkpt>
      <trkpt lat="44.55709" lon="4.29609">
        <ele>385</ele>
        <time>2016-05-15T10:27:05.000Z</time>
      </trkpt>
      <trkpt lat="44.55712" lon="4.29607">
        <ele>385</ele>
        <time>2016-05-15T10:27:06.000Z</time>
      </trkpt>
      <trkpt lat="44.55716" lon="4.29605">
        <ele>385</ele>
        <time>2016-05-15T10:27:07.000Z</time>
      </trkpt>
      <trkpt lat="44.55719" lon="4.29604">
        <ele>386</ele>
        <time>2016-05-15T10:27:08.000Z</time>
      </trkpt>
      <trkpt lat="44.55722" lon="4.29602">
        <ele>386</ele>
        <time>2016-05-15T10:27:09.000Z</time>
      </trkpt>
      <trkpt lat="44.55725" lon="4.29601">
        <ele>386</ele>
        <time>2016-05-15T10:27:10.000Z</time>
      </trkpt>
      <trkpt lat="44.55728" lon="4.29599">
        <ele>387</ele>
        <time>2016-05-15T10:27:11.000Z</time>
      </trkpt>
      <trkpt lat="44.55732" lon="4.29598">
        <ele>387</ele>
        <time>2016-05-15T10:27:12.000Z</time>
      </trkpt>
      <trkpt lat="44.55735" lon="4.29597">
        <ele>387</ele>
        <time>2016-05-15T10:27:13.000Z</time>
      </trkpt>
      <trkpt lat="44.55738" lon="4.29597">
        <ele>388</ele>
        <time>2016-05-15T10:27:14.000Z</time>
      </trkpt>
      <trkpt lat="44.55742" lon="4.29598">
        <ele>388</ele>
        <time>2016-05-15T10:27:15.000Z</time>
      </trkpt>
      <trkpt lat="44.55744" lon="4.29601">
        <ele>388</ele>
        <time>2016-05-15T10:27:16.000Z</time>
      </trkpt>
      <trkpt lat="44.55746" lon="4.29604">
        <ele>387</ele>
        <time>2016-05-15T10:27:17.000Z</time>
      </trkpt>
      <trkpt lat="44.55746" lon="4.29608">
        <ele>387</ele>
        <time>2016-05-15T10:27:18.000Z</time>
      </trkpt>
      <trkpt lat="44.55745" lon="4.29612">
        <ele>386</ele>
        <time>2016-05-15T10:27:19.000Z</time>
      </trkpt>
      <trkpt lat="44.55743" lon="4.29616">
        <ele>386</ele>
        <time>2016-05-15T10:27:20.000Z</time>
      </trkpt>
      <trkpt lat="44.55741" lon="4.2962">
        <ele>385</ele>
        <time>2016-05-15T10:27:21.000Z</time>
      </trkpt>
      <trkpt lat="44.55738" lon="4.29624">
        <ele>385</ele>
        <time>2016-05-15T10:27:22.000Z</time>
      </trkpt>
      <trkpt lat="44.55736" lon="4.29627">
        <ele>385</ele>
        <time>2016-05-15T10:27:23.000Z</time>
      </trkpt>
      <trkpt lat="44.55733" lon="4.29632">
        <ele>384</ele>
        <time>2016-05-15T10:27:24.000Z</time>
      </trkpt>
      <trkpt lat="44.5573" lon="4.29636">
        <ele>384</ele>
        <time>2016-05-15T10:27:25.000Z</time>
      </trkpt>
      <trkpt lat="44.55727" lon="4.2964">
        <ele>384</ele>
        <time>2016-05-15T10:27:26.000Z</time>
      </trkpt>
      <trkpt lat="44.55724" lon="4.29645">
        <ele>383</ele>
        <time>2016-05-15T10:27:27.000Z</time>
      </trkpt>
      <trkpt lat="44.55722" lon="4.29651">
        <ele>383</ele>
        <time>2016-05-15T10:27:28.000Z</time>
      </trkpt>
      <trkpt lat="44.5572" lon="4.29657">
        <ele>382</ele>
        <time>2016-05-15T10:27:29.000Z</time>
      </trkpt>
      <trkpt lat="44.55718" lon="4.29664">
        <ele>382</ele>
        <time>2016-05-15T10:27:30.000Z</time>
      </trkpt>
      <trkpt lat="44.55716" lon="4.2967">
        <ele>379</ele>
        <time>2016-05-15T10:27:31.000Z</time>
      </trkpt>
      <trkpt lat="44.55714" lon="4.29676">
        <ele>379</ele>
        <time>2016-05-15T10:27:32.000Z</time>
      </trkpt>
      <trkpt lat="44.55713" lon="4.29683">
        <ele>379</ele>
        <time>2016-05-15T10:27:33.000Z</time>
      </trkpt>
      <trkpt lat="44.55711" lon="4.29689">
        <ele>379</ele>
        <time>2016-05-15T10:27:34.000Z</time>
      </trkpt>
      <trkpt lat="44.55709" lon="4.29695">
        <ele>379</ele>
        <time>2016-05-15T10:27:35.000Z</time>
      </trkpt>
      <trkpt lat="44.55706" lon="4.29701">
        <ele>378</ele>
        <time>2016-05-15T10:27:36.000Z</time>
      </trkpt>
      <trkpt lat="44.55704" lon="4.29707">
        <ele>378</ele>
        <time>2016-05-15T10:27:37.000Z</time>
      </trkpt>
      <trkpt lat="44.55701" lon="4.29712">
        <ele>378</ele>
        <time>2016-05-15T10:27:38.000Z</time>
      </trkpt>
      <trkpt lat="44.55698" lon="4.29718">
        <ele>378</ele>
        <time>2016-05-15T10:27:39.000Z</time>
      </trkpt>
      <trkpt lat="44.55695" lon="4.29723">
        <ele>378</ele>
        <time>2016-05-15T10:27:40.000Z</time>
      </trkpt>
      <trkpt lat="44.55691" lon="4.29728">
        <ele>377</ele>
        <time>2016-05-15T10:27:41.000Z</time>
      </trkpt>
      <trkpt lat="44.55687" lon="4.29733">
        <ele>377</ele>
        <time>2016-05-15T10:27:42.000Z</time>
      </trkpt>
      <trkpt lat="44.55684" lon="4.29739">
        <ele>376</ele>
        <time>2016-05-15T10:27:43.000Z</time>
      </trkpt>
      <trkpt lat="44.5568" lon="4.29745">
        <ele>375</ele>
        <time>2016-05-15T10:27:44.000Z</time>
      </trkpt>
      <trkpt lat="44.55677" lon="4.29752">
        <ele>375</ele>
        <time>2016-05-15T10:27:45.000Z</time>
      </trkpt>
      <trkpt lat="44.55674" lon="4.29758">
        <ele>375</ele>
        <time>2016-05-15T10:27:46.000Z</time>
      </trkpt>
      <trkpt lat="44.55671" lon="4.29766">
        <ele>376</ele>
        <time>2016-05-15T10:27:47.000Z</time>
      </trkpt>
      <trkpt lat="44.55669" lon="4.29774">
        <ele>377</ele>
        <time>2016-05-15T10:27:48.000Z</time>
      </trkpt>
      <trkpt lat="44.55666" lon="4.29782">
        <ele>368</ele>
        <time>2016-05-15T10:27:49.000Z</time>
      </trkpt>
      <trkpt lat="44.55663" lon="4.2979">
        <ele>368</ele>
        <time>2016-05-15T10:27:50.000Z</time>
      </trkpt>
      <trkpt lat="44.55661" lon="4.29798">
        <ele>368</ele>
        <time>2016-05-15T10:27:51.000Z</time>
      </trkpt>
      <trkpt lat="44.55658" lon="4.29806">
        <ele>368</ele>
        <time>2016-05-15T10:27:52.000Z</time>
      </trkpt>
      <trkpt lat="44.55655" lon="4.29813">
        <ele>368</ele>
        <time>2016-05-15T10:27:53.000Z</time>
      </trkpt>
      <trkpt lat="44.55653" lon="4.2982">
        <ele>369</ele>
        <time>2016-05-15T10:27:54.000Z</time>
      </trkpt>
      <trkpt lat="44.55651" lon="4.29828">
        <ele>369</ele>
        <time>2016-05-15T10:27:55.000Z</time>
      </trkpt>
      <trkpt lat="44.55651" lon="4.29835">
        <ele>367</ele>
        <time>2016-05-15T10:27:56.000Z</time>
      </trkpt>
      <trkpt lat="44.55651" lon="4.29843">
        <ele>366</ele>
        <time>2016-05-15T10:27:57.000Z</time>
      </trkpt>
      <trkpt lat="44.55653" lon="4.2985">
        <ele>366</ele>
        <time>2016-05-15T10:27:58.000Z</time>
      </trkpt>
      <trkpt lat="44.55656" lon="4.29855">
        <ele>365</ele>
        <time>2016-05-15T10:27:59.000Z</time>
      </trkpt>
      <trkpt lat="44.55659" lon="4.2986">
        <ele>365</ele>
        <time>2016-05-15T10:28:00.000Z</time>
      </trkpt>
      <trkpt lat="44.55663" lon="4.29864">
        <ele>364</ele>
        <time>2016-05-15T10:28:01.000Z</time>
      </trkpt>
      <trkpt lat="44.55666" lon="4.29868">
        <ele>364</ele>
        <time>2016-05-15T10:28:02.000Z</time>
      </trkpt>
      <trkpt lat="44.5567" lon="4.29872">
        <ele>372</ele>
        <time>2016-05-15T10:28:03.000Z</time>
      </trkpt>
      <trkpt lat="44.55674" lon="4.29874">
        <ele>372</ele>
        <time>2016-05-15T10:28:04.000Z</time>
      </trkpt>
      <trkpt lat="44.55677" lon="4.29877">
        <ele>372</ele>
        <time>2016-05-15T10:28:05.000Z</time>
      </trkpt>
      <trkpt lat="44.55681" lon="4.2988">
        <ele>372</ele>
        <time>2016-05-15T10:28:06.000Z</time>
      </trkpt>
      <trkpt lat="44.55685" lon="4.29882">
        <ele>372</ele>
        <time>2016-05-15T10:28:07.000Z</time>
      </trkpt>
      <trkpt lat="44.55689" lon="4.29884">
        <ele>372</ele>
        <time>2016-05-15T10:28:08.000Z</time>
      </trkpt>
      <trkpt lat="44.55693" lon="4.29887">
        <ele>372</ele>
        <time>2016-05-15T10:28:09.000Z</time>
      </trkpt>
      <trkpt lat="44.55696" lon="4.29889">
        <ele>372</ele>
        <time>2016-05-15T10:28:10.000Z</time>
      </trkpt>
      <trkpt lat="44.557" lon="4.29892">
        <ele>372</ele>
        <time>2016-05-15T10:28:11.000Z</time>
      </trkpt>
      <trkpt lat="44.55704" lon="4.29894">
        <ele>372</ele>
        <time>2016-05-15T10:28:12.000Z</time>
      </trkpt>
      <trkpt lat="44.55707" lon="4.29895">
        <ele>373</ele>
        <time>2016-05-15T10:28:13.000Z</time>
      </trkpt>
      <trkpt lat="44.55711" lon="4.29897">
        <ele>373</ele>
        <time>2016-05-15T10:28:14.000Z</time>
      </trkpt>
      <trkpt lat="44.55715" lon="4.29899">
        <ele>373</ele>
        <time>2016-05-15T10:28:15.000Z</time>
      </trkpt>
      <trkpt lat="44.55719" lon="4.29901">
        <ele>373</ele>
        <time>2016-05-15T10:28:16.000Z</time>
      </trkpt>
      <trkpt lat="44.55723" lon="4.29903">
        <ele>373</ele>
        <time>2016-05-15T10:28:17.000Z</time>
      </trkpt>
      <trkpt lat="44.55727" lon="4.29905">
        <ele>373</ele>
        <time>2016-05-15T10:28:18.000Z</time>
      </trkpt>
      <trkpt lat="44.55731" lon="4.29906">
        <ele>373</ele>
        <time>2016-05-15T10:28:19.000Z</time>
      </trkpt>
      <trkpt lat="44.55735" lon="4.29908">
        <ele>373</ele>
        <time>2016-05-15T10:28:20.000Z</time>
      </trkpt>
      <trkpt lat="44.5574" lon="4.29909">
        <ele>372</ele>
        <time>2016-05-15T10:28:21.000Z</time>
      </trkpt>
      <trkpt lat="44.55744" lon="4.2991">
        <ele>372</ele>
        <time>2016-05-15T10:28:22.000Z</time>
      </trkpt>
      <trkpt lat="44.55749" lon="4.29911">
        <ele>372</ele>
        <time>2016-05-15T10:28:23.000Z</time>
      </trkpt>
      <trkpt lat="44.55754" lon="4.29912">
        <ele>374</ele>
        <time>2016-05-15T10:28:24.000Z</time>
      </trkpt>
      <trkpt lat="44.55759" lon="4.29913">
        <ele>375</ele>
        <time>2016-05-15T10:28:25.000Z</time>
      </trkpt>
      <trkpt lat="44.55763" lon="4.29914">
        <ele>376</ele>
        <time>2016-05-15T10:28:26.000Z</time>
      </trkpt>
      <trkpt lat="44.55768" lon="4.29916">
        <ele>378</ele>
        <time>2016-05-15T10:28:27.000Z</time>
      </trkpt>
      <trkpt lat="44.55772" lon="4.29917">
        <ele>371</ele>
        <time>2016-05-15T10:28:28.000Z</time>
      </trkpt>
      <trkpt lat="44.55777" lon="4.29918">
        <ele>371</ele>
        <time>2016-05-15T10:28:29.000Z</time>
      </trkpt>
      <trkpt lat="44.55781" lon="4.2992">
        <ele>372</ele>
        <time>2016-05-15T10:28:30.000Z</time>
      </trkpt>
      <trkpt lat="44.55786" lon="4.29922">
        <ele>372</ele>
        <time>2016-05-15T10:28:31.000Z</time>
      </trkpt>
      <trkpt lat="44.5579" lon="4.29923">
        <ele>372</ele>
        <time>2016-05-15T10:28:32.000Z</time>
      </trkpt>
      <trkpt lat="44.55794" lon="4.29926">
        <ele>373</ele>
        <time>2016-05-15T10:28:33.000Z</time>
      </trkpt>
      <trkpt lat="44.55798" lon="4.29928">
        <ele>373</ele>
        <time>2016-05-15T10:28:34.000Z</time>
      </trkpt>
      <trkpt lat="44.55802" lon="4.29931">
        <ele>373</ele>
        <time>2016-05-15T10:28:35.000Z</time>
      </trkpt>
      <trkpt lat="44.55806" lon="4.29934">
        <ele>374</ele>
        <time>2016-05-15T10:28:36.000Z</time>
      </trkpt>
      <trkpt lat="44.55811" lon="4.29937">
        <ele>374</ele>
        <time>2016-05-15T10:28:37.000Z</time>
      </trkpt>
      <trkpt lat="44.55815" lon="4.2994">
        <ele>374</ele>
        <time>2016-05-15T10:28:38.000Z</time>
      </trkpt>
      <trkpt lat="44.55819" lon="4.29942">
        <ele>374</ele>
        <time>2016-05-15T10:28:39.000Z</time>
      </trkpt>
      <trkpt lat="44.55822" lon="4.29945">
        <ele>374</ele>
        <time>2016-05-15T10:28:40.000Z</time>
      </trkpt>
      <trkpt lat="44.55824" lon="4.29947">
        <ele>374</ele>
        <time>2016-05-15T10:28:41.000Z</time>
      </trkpt>
      <trkpt lat="44.55827" lon="4.29949">
        <ele>374</ele>
        <time>2016-05-15T10:28:42.000Z</time>
      </trkpt>
      <trkpt lat="44.55829" lon="4.2995">
        <ele>374</ele>
        <time>2016-05-15T10:28:43.000Z</time>
      </trkpt>
      <trkpt lat="44.55831" lon="4.29951">
        <ele>374</ele>
        <time>2016-05-15T10:28:44.000Z</time>
      </trkpt>
      <trkpt lat="44.55832" lon="4.29952">
        <ele>374</ele>
        <time>2016-05-15T10:28:45.000Z</time>
      </trkpt>
      <trkpt lat="44.55833" lon="4.29953">
        <ele>373</ele>
        <time>2016-05-15T10:28:46.000Z</time>
      </trkpt>
      <trkpt lat="44.55835" lon="4.29955">
        <ele>382</ele>
        <time>2016-05-15T10:28:47.000Z</time>
      </trkpt>
      <trkpt lat="44.55837" lon="4.29957">
        <ele>381</ele>
        <time>2016-05-15T10:28:48.000Z</time>
      </trkpt>
      <trkpt lat="44.55838" lon="4.29959">
        <ele>381</ele>
        <time>2016-05-15T10:28:49.000Z</time>
      </trkpt>
      <trkpt lat="44.5584" lon="4.29961">
        <ele>381</ele>
        <time>2016-05-15T10:28:50.000Z</time>
      </trkpt>
      <trkpt lat="44.55841" lon="4.29963">
        <ele>381</ele>
        <time>2016-05-15T10:28:51.000Z</time>
      </trkpt>
      <trkpt lat="44.55843" lon="4.29964">
        <ele>381</ele>
        <time>2016-05-15T10:28:52.000Z</time>
      </trkpt>
      <trkpt lat="44.55845" lon="4.29965">
        <ele>381</ele>
        <time>2016-05-15T10:28:53.000Z</time>
      </trkpt>
      <trkpt lat="44.55847" lon="4.29966">
        <ele>381</ele>
        <time>2016-05-15T10:28:54.000Z</time>
      </trkpt>
      <trkpt lat="44.5585" lon="4.29967">
        <ele>381</ele>
        <time>2016-05-15T10:28:55.000Z</time>
      </trkpt>
      <trkpt lat="44.55852" lon="4.29968">
        <ele>381</ele>
        <time>2016-05-15T10:28:56.000Z</time>
      </trkpt>
      <trkpt lat="44.55854" lon="4.29969">
        <ele>381</ele>
        <time>2016-05-15T10:28:57.000Z</time>
      </trkpt>
      <trkpt lat="44.55857" lon="4.29969">
        <ele>381</ele>
        <time>2016-05-15T10:28:58.000Z</time>
      </trkpt>
      <trkpt lat="44.55859" lon="4.2997">
        <ele>381</ele>
        <time>2016-05-15T10:28:59.000Z</time>
      </trkpt>
      <trkpt lat="44.55861" lon="4.2997">
        <ele>382</ele>
        <time>2016-05-15T10:29:00.000Z</time>
      </trkpt>
      <trkpt lat="44.55862" lon="4.29971">
        <ele>382</ele>
        <time>2016-05-15T10:29:01.000Z</time>
      </trkpt>
      <trkpt lat="44.55864" lon="4.29973">
        <ele>382</ele>
        <time>2016-05-15T10:29:02.000Z</time>
      </trkpt>
      <trkpt lat="44.55866" lon="4.29974">
        <ele>382</ele>
        <time>2016-05-15T10:29:03.000Z</time>
      </trkpt>
      <trkpt lat="44.55867" lon="4.29975">
        <ele>382</ele>
        <time>2016-05-15T10:29:04.000Z</time>
      </trkpt>
      <trkpt lat="44.55869" lon="4.29976">
        <ele>382</ele>
        <time>2016-05-15T10:29:05.000Z</time>
      </trkpt>
      <trkpt lat="44.5587" lon="4.29978">
        <ele>382</ele>
        <time>2016-05-15T10:29:06.000Z</time>
      </trkpt>
      <trkpt lat="44.55872" lon="4.29979">
        <ele>382</ele>
        <time>2016-05-15T10:29:07.000Z</time>
      </trkpt>
      <trkpt lat="44.55874" lon="4.2998">
        <ele>382</ele>
        <time>2016-05-15T10:29:08.000Z</time>
      </trkpt>
      <trkpt lat="44.55875" lon="4.29981">
        <ele>382</ele>
        <time>2016-05-15T10:29:09.000Z</time>
      </trkpt>
      <trkpt lat="44.55877" lon="4.29982">
        <ele>383</ele>
        <time>2016-05-15T10:29:10.000Z</time>
      </trkpt>
      <trkpt lat="44.55879" lon="4.29984">
        <ele>383</ele>
        <time>2016-05-15T10:29:11.000Z</time>
      </trkpt>
      <trkpt lat="44.55881" lon="4.29985">
        <ele>383</ele>
        <time>2016-05-15T10:29:12.000Z</time>
      </trkpt>
      <trkpt lat="44.55882" lon="4.29987">
        <ele>383</ele>
        <time>2016-05-15T10:29:13.000Z</time>
      </trkpt>
      <trkpt lat="44.55883" lon="4.29988">
        <ele>383</ele>
        <time>2016-05-15T10:29:14.000Z</time>
      </trkpt>
      <trkpt lat="44.55884" lon="4.2999">
        <ele>383</ele>
        <time>2016-05-15T10:29:15.000Z</time>
      </trkpt>
      <trkpt lat="44.55885" lon="4.29992">
        <ele>383</ele>
        <time>2016-05-15T10:29:16.000Z</time>
      </trkpt>
      <trkpt lat="44.55887" lon="4.29995">
        <ele>383</ele>
        <time>2016-05-15T10:29:17.000Z</time>
      </trkpt>
      <trkpt lat="44.55889" lon="4.29998">
        <ele>383</ele>
        <time>2016-05-15T10:29:18.000Z</time>
      </trkpt>
      <trkpt lat="44.55891" lon="4.30002">
        <ele>378</ele>
        <time>2016-05-15T10:29:19.000Z</time>
      </trkpt>
      <trkpt lat="44.55894" lon="4.30005">
        <ele>379</ele>
        <time>2016-05-15T10:29:20.000Z</time>
      </trkpt>
      <trkpt lat="44.55896" lon="4.30008">
        <ele>379</ele>
        <time>2016-05-15T10:29:21.000Z</time>
      </trkpt>
      <trkpt lat="44.55899" lon="4.30012">
        <ele>379</ele>
        <time>2016-05-15T10:29:22.000Z</time>
      </trkpt>
      <trkpt lat="44.55901" lon="4.30016">
        <ele>379</ele>
        <time>2016-05-15T10:29:23.000Z</time>
      </trkpt>
      <trkpt lat="44.55904" lon="4.30019">
        <ele>379</ele>
        <time>2016-05-15T10:29:24.000Z</time>
      </trkpt>
      <trkpt lat="44.55906" lon="4.30022">
        <ele>379</ele>
        <time>2016-05-15T10:29:25.000Z</time>
      </trkpt>
      <trkpt lat="44.55909" lon="4.30025">
        <ele>379</ele>
        <time>2016-05-15T10:29:26.000Z</time>
      </trkpt>
      <trkpt lat="44.55912" lon="4.30028">
        <ele>378</ele>
        <time>2016-05-15T10:29:27.000Z</time>
      </trkpt>
      <trkpt lat="44.55914" lon="4.30032">
        <ele>378</ele>
        <time>2016-05-15T10:29:28.000Z</time>
      </trkpt>
      <trkpt lat="44.55917" lon="4.30034">
        <ele>387</ele>
        <time>2016-05-15T10:29:29.000Z</time>
      </trkpt>
      <trkpt lat="44.5592" lon="4.30035">
        <ele>387</ele>
        <time>2016-05-15T10:29:30.000Z</time>
      </trkpt>
      <trkpt lat="44.55922" lon="4.30036">
        <ele>387</ele>
        <time>2016-05-15T10:29:31.000Z</time>
      </trkpt>
      <trkpt lat="44.55924" lon="4.30037">
        <ele>387</ele>
        <time>2016-05-15T10:29:32.000Z</time>
      </trkpt>
      <trkpt lat="44.55926" lon="4.30037">
        <ele>387</ele>
        <time>2016-05-15T10:29:33.000Z</time>
      </trkpt>
      <trkpt lat="44.55928" lon="4.30037">
        <ele>387</ele>
        <time>2016-05-15T10:29:34.000Z</time>
      </trkpt>
      <trkpt lat="44.5593" lon="4.30037">
        <ele>387</ele>
        <time>2016-05-15T10:29:35.000Z</time>
      </trkpt>
      <trkpt lat="44.55931" lon="4.30039">
        <ele>387</ele>
        <time>2016-05-15T10:29:36.000Z</time>
      </trkpt>
      <trkpt lat="44.55933" lon="4.3004">
        <ele>387</ele>
        <time>2016-05-15T10:29:37.000Z</time>
      </trkpt>
      <trkpt lat="44.55934" lon="4.30041">
        <ele>387</ele>
        <time>2016-05-15T10:29:38.000Z</time>
      </trkpt>
      <trkpt lat="44.55936" lon="4.30042">
        <ele>387</ele>
        <time>2016-05-15T10:29:39.000Z</time>
      </trkpt>
      <trkpt lat="44.55938" lon="4.30043">
        <ele>387</ele>
        <time>2016-05-15T10:29:40.000Z</time>
      </trkpt>
      <trkpt lat="44.55939" lon="4.30044">
        <ele>387</ele>
        <time>2016-05-15T10:29:41.000Z</time>
      </trkpt>
      <trkpt lat="44.55941" lon="4.30046">
        <ele>387</ele>
        <time>2016-05-15T10:29:42.000Z</time>
      </trkpt>
      <trkpt lat="44.55942" lon="4.30048">
        <ele>387</ele>
        <time>2016-05-15T10:29:43.000Z</time>
      </trkpt>
      <trkpt lat="44.55944" lon="4.3005">
        <ele>387</ele>
        <time>2016-05-15T10:29:44.000Z</time>
      </trkpt>
      <trkpt lat="44.55945" lon="4.30052">
        <ele>387</ele>
        <time>2016-05-15T10:29:45.000Z</time>
      </trkpt>
      <trkpt lat="44.55946" lon="4.30054">
        <ele>387</ele>
        <time>2016-05-15T10:29:46.000Z</time>
      </trkpt>
      <trkpt lat="44.55948" lon="4.30056">
        <ele>387</ele>
        <time>2016-05-15T10:29:47.000Z</time>
      </trkpt>
      <trkpt lat="44.5595" lon="4.30058">
        <ele>387</ele>
        <time>2016-05-15T10:29:48.000Z</time>
      </trkpt>
      <trkpt lat="44.55951" lon="4.3006">
        <ele>387</ele>
        <time>2016-05-15T10:29:49.000Z</time>
      </trkpt>
      <trkpt lat="44.55953" lon="4.30062">
        <ele>387</ele>
        <time>2016-05-15T10:29:50.000Z</time>
      </trkpt>
      <trkpt lat="44.55955" lon="4.30064">
        <ele>387</ele>
        <time>2016-05-15T10:29:51.000Z</time>
      </trkpt>
      <trkpt lat="44.55956" lon="4.30066">
        <ele>387</ele>
        <time>2016-05-15T10:29:52.000Z</time>
      </trkpt>
      <trkpt lat="44.55958" lon="4.30068">
        <ele>388</ele>
        <time>2016-05-15T10:29:53.000Z</time>
      </trkpt>
      <trkpt lat="44.55959" lon="4.30069">
        <ele>388</ele>
        <time>2016-05-15T10:29:54.000Z</time>
      </trkpt>
      <trkpt lat="44.55961" lon="4.30071">
        <ele>388</ele>
        <time>2016-05-15T10:29:55.000Z</time>
      </trkpt>
      <trkpt lat="44.55962" lon="4.30072">
        <ele>388</ele>
        <time>2016-05-15T10:29:56.000Z</time>
      </trkpt>
      <trkpt lat="44.55964" lon="4.30073">
        <ele>388</ele>
        <time>2016-05-15T10:29:57.000Z</time>
      </trkpt>
      <trkpt lat="44.55965" lon="4.30074">
        <ele>388</ele>
        <time>2016-05-15T10:29:58.000Z</time>
      </trkpt>
      <trkpt lat="44.55967" lon="4.30076">
        <ele>388</ele>
        <time>2016-05-15T10:29:59.000Z</time>
      </trkpt>
      <trkpt lat="44.55968" lon="4.30077">
        <ele>389</ele>
        <time>2016-05-15T10:30:00.000Z</time>
      </trkpt>
      <trkpt lat="44.55969" lon="4.30078">
        <ele>389</ele>
        <time>2016-05-15T10:30:01.000Z</time>
      </trkpt>
      <trkpt lat="44.5597" lon="4.3008">
        <ele>389</ele>
        <time>2016-05-15T10:30:02.000Z</time>
      </trkpt>
      <trkpt lat="44.55972" lon="4.30083">
        <ele>389</ele>
        <time>2016-05-15T10:30:03.000Z</time>
      </trkpt>
      <trkpt lat="44.55973" lon="4.30085">
        <ele>385</ele>
        <time>2016-05-15T10:30:04.000Z</time>
      </trkpt>
      <trkpt lat="44.55975" lon="4.30088">
        <ele>385</ele>
        <time>2016-05-15T10:30:05.000Z</time>
      </trkpt>
      <trkpt lat="44.55976" lon="4.3009">
        <ele>385</ele>
        <time>2016-05-15T10:30:06.000Z</time>
      </trkpt>
      <trkpt lat="44.55977" lon="4.30091">
        <ele>385</ele>
        <time>2016-05-15T10:30:07.000Z</time>
      </trkpt>
      <trkpt lat="44.55978" lon="4.30092">
        <ele>385</ele>
        <time>2016-05-15T10:30:08.000Z</time>
      </trkpt>
      <trkpt lat="44.55979" lon="4.30094">
        <ele>386</ele>
        <time>2016-05-15T10:30:09.000Z</time>
      </trkpt>
      <trkpt lat="44.55981" lon="4.30095">
        <ele>386</ele>
        <time>2016-05-15T10:30:10.000Z</time>
      </trkpt>
      <trkpt lat="44.55982" lon="4.30096">
        <ele>386</ele>
        <time>2016-05-15T10:30:11.000Z</time>
      </trkpt>
      <trkpt lat="44.55983" lon="4.30098">
        <ele>386</ele>
        <time>2016-05-15T10:30:12.000Z</time>
      </trkpt>
      <trkpt lat="44.55984" lon="4.301">
        <ele>386</ele>
        <time>2016-05-15T10:30:13.000Z</time>
      </trkpt>
      <trkpt lat="44.55985" lon="4.30102">
        <ele>386</ele>
        <time>2016-05-15T10:30:14.000Z</time>
      </trkpt>
      <trkpt lat="44.55986" lon="4.30104">
        <ele>385</ele>
        <time>2016-05-15T10:30:15.000Z</time>
      </trkpt>
      <trkpt lat="44.55987" lon="4.30106">
        <ele>385</ele>
        <time>2016-05-15T10:30:16.000Z</time>
      </trkpt>
      <trkpt lat="44.55988" lon="4.30108">
        <ele>385</ele>
        <time>2016-05-15T10:30:17.000Z</time>
      </trkpt>
      <trkpt lat="44.5599" lon="4.3011">
        <ele>385</ele>
        <time>2016-05-15T10:30:18.000Z</time>
      </trkpt>
      <trkpt lat="44.5599" lon="4.30111">
        <ele>385</ele>
        <time>2016-05-15T10:30:19.000Z</time>
      </trkpt>
      <trkpt lat="44.55991" lon="4.30113">
        <ele>385</ele>
        <time>2016-05-15T10:30:20.000Z</time>
      </trkpt>
      <trkpt lat="44.55992" lon="4.30115">
        <ele>385</ele>
        <time>2016-05-15T10:30:21.000Z</time>
      </trkpt>
      <trkpt lat="44.55993" lon="4.30118">
        <ele>385</ele>
        <time>2016-05-15T10:30:22.000Z</time>
      </trkpt>
      <trkpt lat="44.55994" lon="4.3012">
        <ele>385</ele>
        <time>2016-05-15T10:30:23.000Z</time>
      </trkpt>
      <trkpt lat="44.55995" lon="4.30121">
        <ele>385</ele>
        <time>2016-05-15T10:30:24.000Z</time>
      </trkpt>
      <trkpt lat="44.55996" lon="4.30122">
        <ele>385</ele>
        <time>2016-05-15T10:30:25.000Z</time>
      </trkpt>
      <trkpt lat="44.55996" lon="4.30124">
        <ele>384</ele>
        <time>2016-05-15T10:30:26.000Z</time>
      </trkpt>
      <trkpt lat="44.55997" lon="4.30126">
        <ele>384</ele>
        <time>2016-05-15T10:30:27.000Z</time>
      </trkpt>
      <trkpt lat="44.55997" lon="4.30129">
        <ele>384</ele>
        <time>2016-05-15T10:30:28.000Z</time>
      </trkpt>
      <trkpt lat="44.55997" lon="4.30131">
        <ele>384</ele>
        <time>2016-05-15T10:30:29.000Z</time>
      </trkpt>
      <trkpt lat="44.55997" lon="4.30134">
        <ele>384</ele>
        <time>2016-05-15T10:30:30.000Z</time>
      </trkpt>
      <trkpt lat="44.55995" lon="4.30136">
        <ele>384</ele>
        <time>2016-05-15T10:30:31.000Z</time>
      </trkpt>
      <trkpt lat="44.55994" lon="4.30138">
        <ele>384</ele>
        <time>2016-05-15T10:30:32.000Z</time>
      </trkpt>
      <trkpt lat="44.55993" lon="4.30141">
        <ele>384</ele>
        <time>2016-05-15T10:30:33.000Z</time>
      </trkpt>
      <trkpt lat="44.55994" lon="4.30145">
        <ele>384</ele>
        <time>2016-05-15T10:30:34.000Z</time>
      </trkpt>
      <trkpt lat="44.55995" lon="4.30148">
        <ele>385</ele>
        <time>2016-05-15T10:30:35.000Z</time>
      </trkpt>
      <trkpt lat="44.55996" lon="4.3015">
        <ele>385</ele>
        <time>2016-05-15T10:30:36.000Z</time>
      </trkpt>
      <trkpt lat="44.55997" lon="4.30151">
        <ele>385</ele>
        <time>2016-05-15T10:30:37.000Z</time>
      </trkpt>
      <trkpt lat="44.55999" lon="4.30153">
        <ele>385</ele>
        <time>2016-05-15T10:30:38.000Z</time>
      </trkpt>
      <trkpt lat="44.56" lon="4.30154">
        <ele>389</ele>
        <time>2016-05-15T10:30:39.000Z</time>
      </trkpt>
      <trkpt lat="44.56002" lon="4.30156">
        <ele>389</ele>
        <time>2016-05-15T10:30:40.000Z</time>
      </trkpt>
      <trkpt lat="44.56003" lon="4.30158">
        <ele>389</ele>
        <time>2016-05-15T10:30:41.000Z</time>
      </trkpt>
      <trkpt lat="44.56004" lon="4.30159">
        <ele>389</ele>
        <time>2016-05-15T10:30:42.000Z</time>
      </trkpt>
      <trkpt lat="44.56006" lon="4.30161">
        <ele>389</ele>
        <time>2016-05-15T10:30:43.000Z</time>
      </trkpt>
      <trkpt lat="44.56008" lon="4.30164">
        <ele>389</ele>
        <time>2016-05-15T10:30:44.000Z</time>
      </trkpt>
      <trkpt lat="44.5601" lon="4.30166">
        <ele>389</ele>
        <time>2016-05-15T10:30:45.000Z</time>
      </trkpt>
      <trkpt lat="44.56012" lon="4.30168">
        <ele>387</ele>
        <time>2016-05-15T10:30:46.000Z</time>
      </trkpt>
      <trkpt lat="44.56014" lon="4.3017">
        <ele>387</ele>
        <time>2016-05-15T10:30:47.000Z</time>
      </trkpt>
      <trkpt lat="44.56016" lon="4.30173">
        <ele>387</ele>
        <time>2016-05-15T10:30:48.000Z</time>
      </trkpt>
      <trkpt lat="44.56018" lon="4.30176">
        <ele>387</ele>
        <time>2016-05-15T10:30:49.000Z</time>
      </trkpt>
      <trkpt lat="44.56021" lon="4.30178">
        <ele>387</ele>
        <time>2016-05-15T10:30:50.000Z</time>
      </trkpt>
      <trkpt lat="44.56024" lon="4.30181">
        <ele>387</ele>
        <time>2016-05-15T10:30:51.000Z</time>
      </trkpt>
      <trkpt lat="44.56026" lon="4.30184">
        <ele>386</ele>
        <time>2016-05-15T10:30:52.000Z</time>
      </trkpt>
      <trkpt lat="44.56028" lon="4.30185">
        <ele>386</ele>
        <time>2016-05-15T10:30:53.000Z</time>
      </trkpt>
      <trkpt lat="44.5603" lon="4.30186">
        <ele>386</ele>
        <time>2016-05-15T10:30:54.000Z</time>
      </trkpt>
      <trkpt lat="44.56032" lon="4.30188">
        <ele>386</ele>
        <time>2016-05-15T10:30:55.000Z</time>
      </trkpt>
      <trkpt lat="44.56035" lon="4.3019">
        <ele>386</ele>
        <time>2016-05-15T10:30:56.000Z</time>
      </trkpt>
      <trkpt lat="44.56037" lon="4.30193">
        <ele>386</ele>
        <time>2016-05-15T10:30:57.000Z</time>
      </trkpt>
      <trkpt lat="44.56038" lon="4.30196">
        <ele>386</ele>
        <time>2016-05-15T10:30:58.000Z</time>
      </trkpt>
      <trkpt lat="44.56039" lon="4.30198">
        <ele>386</ele>
        <time>2016-05-15T10:30:59.000Z</time>
      </trkpt>
      <trkpt lat="44.5604" lon="4.30201">
        <ele>386</ele>
        <time>2016-05-15T10:31:00.000Z</time>
      </trkpt>
      <trkpt lat="44.56042" lon="4.30204">
        <ele>386</ele>
        <time>2016-05-15T10:31:01.000Z</time>
      </trkpt>
      <trkpt lat="44.56043" lon="4.30206">
        <ele>386</ele>
        <time>2016-05-15T10:31:02.000Z</time>
      </trkpt>
      <trkpt lat="44.56043" lon="4.30207">
        <ele>386</ele>
        <time>2016-05-15T10:31:03.000Z</time>
      </trkpt>
      <trkpt lat="44.56044" lon="4.30208">
        <ele>386</ele>
        <time>2016-05-15T10:31:04.000Z</time>
      </trkpt>
      <trkpt lat="44.56044" lon="4.30209">
        <ele>385</ele>
        <time>2016-05-15T10:31:05.000Z</time>
      </trkpt>
      <trkpt lat="44.56044" lon="4.3021">
        <ele>385</ele>
        <time>2016-05-15T10:31:06.000Z</time>
      </trkpt>
      <trkpt lat="44.56045" lon="4.30211">
        <ele>385</ele>
        <time>2016-05-15T10:31:07.000Z</time>
      </trkpt>
      <trkpt lat="44.56046" lon="4.30212">
        <ele>385</ele>
        <time>2016-05-15T10:31:08.000Z</time>
      </trkpt>
      <trkpt lat="44.56047" lon="4.30213">
        <ele>385</ele>
        <time>2016-05-15T10:31:09.000Z</time>
      </trkpt>
      <trkpt lat="44.56047" lon="4.30215">
        <ele>385</ele>
        <time>2016-05-15T10:31:10.000Z</time>
      </trkpt>
      <trkpt lat="44.56048" lon="4.30217">
        <ele>385</ele>
        <time>2016-05-15T10:31:11.000Z</time>
      </trkpt>
      <trkpt lat="44.5605" lon="4.30221">
        <ele>385</ele>
        <time>2016-05-15T10:31:12.000Z</time>
      </trkpt>
      <trkpt lat="44.5605" lon="4.30225">
        <ele>385</ele>
        <time>2016-05-15T10:31:13.000Z</time>
      </trkpt>
      <trkpt lat="44.5605" lon="4.30229">
        <ele>385</ele>
        <time>2016-05-15T10:31:14.000Z</time>
      </trkpt>
      <trkpt lat="44.5605" lon="4.30233">
        <ele>384</ele>
        <time>2016-05-15T10:31:15.000Z</time>
      </trkpt>
      <trkpt lat="44.56051" lon="4.30238">
        <ele>384</ele>
        <time>2016-05-15T10:31:16.000Z</time>
      </trkpt>
      <trkpt lat="44.56052" lon="4.30244">
        <ele>384</ele>
        <time>2016-05-15T10:31:17.000Z</time>
      </trkpt>
      <trkpt lat="44.56052" lon="4.30249">
        <ele>384</ele>
        <time>2016-05-15T10:31:18.000Z</time>
      </trkpt>
      <trkpt lat="44.56052" lon="4.30255">
        <ele>379</ele>
        <time>2016-05-15T10:31:19.000Z</time>
      </trkpt>
      <trkpt lat="44.56051" lon="4.30259">
        <ele>379</ele>
        <time>2016-05-15T10:31:20.000Z</time>
      </trkpt>
      <trkpt lat="44.56051" lon="4.30263">
        <ele>378</ele>
        <time>2016-05-15T10:31:21.000Z</time>
      </trkpt>
      <trkpt lat="44.5605" lon="4.30267">
        <ele>378</ele>
        <time>2016-05-15T10:31:22.000Z</time>
      </trkpt>
      <trkpt lat="44.5605" lon="4.30271">
        <ele>378</ele>
        <time>2016-05-15T10:31:23.000Z</time>
      </trkpt>
      <trkpt lat="44.56051" lon="4.30274">
        <ele>378</ele>
        <time>2016-05-15T10:31:24.000Z</time>
      </trkpt>
      <trkpt lat="44.56052" lon="4.30276">
        <ele>378</ele>
        <time>2016-05-15T10:31:25.000Z</time>
      </trkpt>
      <trkpt lat="44.56054" lon="4.30278">
        <ele>378</ele>
        <time>2016-05-15T10:31:26.000Z</time>
      </trkpt>
      <trkpt lat="44.56056" lon="4.30281">
        <ele>378</ele>
        <time>2016-05-15T10:31:27.000Z</time>
      </trkpt>
      <trkpt lat="44.56057" lon="4.30284">
        <ele>377</ele>
        <time>2016-05-15T10:31:28.000Z</time>
      </trkpt>
      <trkpt lat="44.56058" lon="4.30288">
        <ele>377</ele>
        <time>2016-05-15T10:31:29.000Z</time>
      </trkpt>
      <trkpt lat="44.56058" lon="4.3029">
        <ele>377</ele>
        <time>2016-05-15T10:31:30.000Z</time>
      </trkpt>
      <trkpt lat="44.56058" lon="4.30294">
        <ele>377</ele>
        <time>2016-05-15T10:31:31.000Z</time>
      </trkpt>
      <trkpt lat="44.56058" lon="4.30298">
        <ele>376</ele>
        <time>2016-05-15T10:31:32.000Z</time>
      </trkpt>
      <trkpt lat="44.56058" lon="4.30302">
        <ele>376</ele>
        <time>2016-05-15T10:31:33.000Z</time>
      </trkpt>
      <trkpt lat="44.5606" lon="4.30304">
        <ele>376</ele>
        <time>2016-05-15T10:31:34.000Z</time>
      </trkpt>
      <trkpt lat="44.56061" lon="4.30306">
        <ele>376</ele>
        <time>2016-05-15T10:31:35.000Z</time>
      </trkpt>
      <trkpt lat="44.56063" lon="4.30307">
        <ele>376</ele>
        <time>2016-05-15T10:31:36.000Z</time>
      </trkpt>
      <trkpt lat="44.56064" lon="4.30309">
        <ele>375</ele>
        <time>2016-05-15T10:31:37.000Z</time>
      </trkpt>
      <trkpt lat="44.56066" lon="4.30311">
        <ele>375</ele>
        <time>2016-05-15T10:31:38.000Z</time>
      </trkpt>
      <trkpt lat="44.56068" lon="4.30313">
        <ele>375</ele>
        <time>2016-05-15T10:31:39.000Z</time>
      </trkpt>
      <trkpt lat="44.56069" lon="4.30316">
        <ele>374</ele>
        <time>2016-05-15T10:31:40.000Z</time>
      </trkpt>
      <trkpt lat="44.5607" lon="4.30319">
        <ele>374</ele>
        <time>2016-05-15T10:31:41.000Z</time>
      </trkpt>
      <trkpt lat="44.56073" lon="4.3032">
        <ele>373</ele>
        <time>2016-05-15T10:31:42.000Z</time>
      </trkpt>
      <trkpt lat="44.56074" lon="4.30322">
        <ele>373</ele>
        <time>2016-05-15T10:31:43.000Z</time>
      </trkpt>
      <trkpt lat="44.56076" lon="4.30324">
        <ele>372</ele>
        <time>2016-05-15T10:31:44.000Z</time>
      </trkpt>
      <trkpt lat="44.56077" lon="4.30326">
        <ele>372</ele>
        <time>2016-05-15T10:31:45.000Z</time>
      </trkpt>
      <trkpt lat="44.56079" lon="4.30328">
        <ele>371</ele>
        <time>2016-05-15T10:31:46.000Z</time>
      </trkpt>
      <trkpt lat="44.5608" lon="4.3033">
        <ele>371</ele>
        <time>2016-05-15T10:31:47.000Z</time>
      </trkpt>
      <trkpt lat="44.56082" lon="4.30332">
        <ele>370</ele>
        <time>2016-05-15T10:31:48.000Z</time>
      </trkpt>
      <trkpt lat="44.56083" lon="4.30333">
        <ele>369</ele>
        <time>2016-05-15T10:31:49.000Z</time>
      </trkpt>
      <trkpt lat="44.56084" lon="4.30336">
        <ele>369</ele>
        <time>2016-05-15T10:31:50.000Z</time>
      </trkpt>
      <trkpt lat="44.56087" lon="4.30338">
        <ele>369</ele>
        <time>2016-05-15T10:31:51.000Z</time>
      </trkpt>
      <trkpt lat="44.56089" lon="4.3034">
        <ele>369</ele>
        <time>2016-05-15T10:31:52.000Z</time>
      </trkpt>
      <trkpt lat="44.5609" lon="4.30342">
        <ele>369</ele>
        <time>2016-05-15T10:31:53.000Z</time>
      </trkpt>
      <trkpt lat="44.56091" lon="4.30344">
        <ele>369</ele>
        <time>2016-05-15T10:31:54.000Z</time>
      </trkpt>
      <trkpt lat="44.56092" lon="4.30345">
        <ele>369</ele>
        <time>2016-05-15T10:31:55.000Z</time>
      </trkpt>
      <trkpt lat="44.56094" lon="4.30347">
        <ele>369</ele>
        <time>2016-05-15T10:31:56.000Z</time>
      </trkpt>
      <trkpt lat="44.56095" lon="4.30349">
        <ele>369</ele>
        <time>2016-05-15T10:31:57.000Z</time>
      </trkpt>
      <trkpt lat="44.56097" lon="4.3035">
        <ele>369</ele>
        <time>2016-05-15T10:31:58.000Z</time>
      </trkpt>
      <trkpt lat="44.56098" lon="4.30353">
        <ele>369</ele>
        <time>2016-05-15T10:31:59.000Z</time>
      </trkpt>
      <trkpt lat="44.561" lon="4.30355">
        <ele>369</ele>
        <time>2016-05-15T10:32:00.000Z</time>
      </trkpt>
      <trkpt lat="44.56102" lon="4.30356">
        <ele>369</ele>
        <time>2016-05-15T10:32:01.000Z</time>
      </trkpt>
      <trkpt lat="44.56103" lon="4.30358">
        <ele>369</ele>
        <time>2016-05-15T10:32:02.000Z</time>
      </trkpt>
      <trkpt lat="44.56105" lon="4.30359">
        <ele>369</ele>
        <time>2016-05-15T10:32:03.000Z</time>
      </trkpt>
      <trkpt lat="44.56107" lon="4.3036">
        <ele>369</ele>
        <time>2016-05-15T10:32:04.000Z</time>
      </trkpt>
      <trkpt lat="44.56108" lon="4.30361">
        <ele>369</ele>
        <time>2016-05-15T10:32:05.000Z</time>
      </trkpt>
      <trkpt lat="44.56109" lon="4.30362">
        <ele>369</ele>
        <time>2016-05-15T10:32:06.000Z</time>
      </trkpt>
      <trkpt lat="44.5611" lon="4.30364">
        <ele>369</ele>
        <time>2016-05-15T10:32:07.000Z</time>
      </trkpt>
      <trkpt lat="44.56112" lon="4.30365">
        <ele>369</ele>
        <time>2016-05-15T10:32:08.000Z</time>
      </trkpt>
      <trkpt lat="44.56112" lon="4.30365">
        <ele>369</ele>
        <time>2016-05-15T10:32:09.000Z</time>
      </trkpt>
      <trkpt lat="44.56113" lon="4.30367">
        <ele>369</ele>
        <time>2016-05-15T10:32:10.000Z</time>
      </trkpt>
      <trkpt lat="44.56114" lon="4.30367">
        <ele>369</ele>
        <time>2016-05-15T10:32:11.000Z</time>
      </trkpt>
      <trkpt lat="44.56114" lon="4.30368">
        <ele>369</ele>
        <time>2016-05-15T10:32:12.000Z</time>
      </trkpt>
      <trkpt lat="44.56114" lon="4.30368">
        <ele>369</ele>
        <time>2016-05-15T10:32:13.000Z</time>
      </trkpt>
      <trkpt lat="44.56115" lon="4.30369">
        <ele>369</ele>
        <time>2016-05-15T10:32:14.000Z</time>
      </trkpt>
      <trkpt lat="44.56115" lon="4.30369">
        <ele>369</ele>
        <time>2016-05-15T10:32:15.000Z</time>
      </trkpt>
      <trkpt lat="44.56115" lon="4.30369">
        <ele>369</ele>
        <time>2016-05-15T10:32:16.000Z</time>
      </trkpt>
      <trkpt lat="44.56115" lon="4.3037">
        <ele>369</ele>
        <time>2016-05-15T10:32:17.000Z</time>
      </trkpt>
      <trkpt lat="44.56115" lon="4.3037">
        <ele>369</ele>
        <time>2016-05-15T10:32:18.000Z</time>
      </trkpt>
      <trkpt lat="44.56116" lon="4.3037">
        <ele>369</ele>
        <time>2016-05-15T10:32:19.000Z</time>
      </trkpt>
      <trkpt lat="44.56116" lon="4.3037">
        <ele>369</ele>
        <time>2016-05-15T10:32:20.000Z</time>
      </trkpt>
      <trkpt lat="44.56116" lon="4.3037">
        <ele>369</ele>
        <time>2016-05-15T10:32:21.000Z</time>
      </trkpt>
      <trkpt lat="44.56116" lon="4.3037">
        <ele>369</ele>
        <time>2016-05-15T10:32:22.000Z</time>
      </trkpt>
      <trkpt lat="44.56116" lon="4.30371">
        <ele>369</ele>
        <time>2016-05-15T10:32:23.000Z</time>
      </trkpt>
      <trkpt lat="44.56117" lon="4.30371">
        <ele>369</ele>
        <time>2016-05-15T10:32:24.000Z</time>
      </trkpt>
      <trkpt lat="44.56117" lon="4.30371">
        <ele>369</ele>
        <time>2016-05-15T10:32:25.000Z</time>
      </trkpt>
      <trkpt lat="44.56117" lon="4.30371">
        <ele>369</ele>
        <time>2016-05-15T10:32:26.000Z</time>
      </trkpt>
      <trkpt lat="44.56117" lon="4.30373">
        <ele>369</ele>
        <time>2016-05-15T10:32:27.000Z</time>
      </trkpt>
      <trkpt lat="44.56117" lon="4.30374">
        <ele>369</ele>
        <time>2016-05-15T10:32:28.000Z</time>
      </trkpt>
      <trkpt lat="44.56118" lon="4.30375">
        <ele>369</ele>
        <time>2016-05-15T10:32:29.000Z</time>
      </trkpt>
      <trkpt lat="44.56119" lon="4.30377">
        <ele>369</ele>
        <time>2016-05-15T10:32:30.000Z</time>
      </trkpt>
      <trkpt lat="44.5612" lon="4.30377">
        <ele>369</ele>
        <time>2016-05-15T10:32:31.000Z</time>
      </trkpt>
      <trkpt lat="44.56121" lon="4.30378">
        <ele>369</ele>
        <time>2016-05-15T10:32:32.000Z</time>
      </trkpt>
      <trkpt lat="44.56122" lon="4.30379">
        <ele>369</ele>
        <time>2016-05-15T10:32:33.000Z</time>
      </trkpt>
      <trkpt lat="44.56122" lon="4.30379">
        <ele>369</ele>
        <time>2016-05-15T10:32:34.000Z</time>
      </trkpt>
      <trkpt lat="44.56122" lon="4.30379">
        <ele>369</ele>
        <time>2016-05-15T10:32:35.000Z</time>
      </trkpt>
      <trkpt lat="44.56122" lon="4.3038">
        <ele>369</ele>
        <time>2016-05-15T10:32:36.000Z</time>
      </trkpt>
      <trkpt lat="44.56123" lon="4.30381">
        <ele>369</ele>
        <time>2016-05-15T10:32:37.000Z</time>
      </trkpt>
      <trkpt lat="44.56123" lon="4.30381">
        <ele>369</ele>
        <time>2016-05-15T10:32:38.000Z</time>
      </trkpt>
      <trkpt lat="44.56123" lon="4.30383">
        <ele>369</ele>
        <time>2016-05-15T10:32:39.000Z</time>
      </trkpt>
      <trkpt lat="44.56124" lon="4.30383">
        <ele>369</ele>
        <time>2016-05-15T10:32:40.000Z</time>
      </trkpt>
      <trkpt lat="44.56124" lon="4.30384">
        <ele>369</ele>
        <time>2016-05-15T10:32:41.000Z</time>
      </trkpt>
      <trkpt lat="44.56124" lon="4.30385">
        <ele>369</ele>
        <time>2016-05-15T10:32:42.000Z</time>
      </trkpt>
      <trkpt lat="44.56125" lon="4.30385">
        <ele>369</ele>
        <time>2016-05-15T10:32:43.000Z</time>
      </trkpt>
      <trkpt lat="44.56125" lon="4.30385">
        <ele>369</ele>
        <time>2016-05-15T10:32:44.000Z</time>
      </trkpt>
      <trkpt lat="44.56125" lon="4.30386">
        <ele>369</ele>
        <time>2016-05-15T10:32:45.000Z</time>
      </trkpt>
      <trkpt lat="44.56125" lon="4.30386">
        <ele>369</ele>
        <time>2016-05-15T10:32:46.000Z</time>
      </trkpt>
      <trkpt lat="44.56126" lon="4.30386">
        <ele>369</ele>
        <time>2016-05-15T10:32:47.000Z</time>
      </trkpt>
      <trkpt lat="44.56126" lon="4.30387">
        <ele>369</ele>
        <time>2016-05-15T10:32:48.000Z</time>
      </trkpt>
      <trkpt lat="44.56126" lon="4.30388">
        <ele>369</ele>
        <time>2016-05-15T10:32:49.000Z</time>
      </trkpt>
      <trkpt lat="44.56127" lon="4.3039">
        <ele>369</ele>
        <time>2016-05-15T10:32:50.000Z</time>
      </trkpt>
      <trkpt lat="44.56127" lon="4.3039">
        <ele>369</ele>
        <time>2016-05-15T10:32:51.000Z</time>
      </trkpt>
      <trkpt lat="44.56128" lon="4.30391">
        <ele>369</ele>
        <time>2016-05-15T10:32:52.000Z</time>
      </trkpt>
      <trkpt lat="44.56129" lon="4.30392">
        <ele>369</ele>
        <time>2016-05-15T10:32:53.000Z</time>
      </trkpt>
      <trkpt lat="44.5613" lon="4.30392">
        <ele>370</ele>
        <time>2016-05-15T10:32:54.000Z</time>
      </trkpt>
      <trkpt lat="44.5613" lon="4.30393">
        <ele>370</ele>
        <time>2016-05-15T10:32:55.000Z</time>
      </trkpt>
      <trkpt lat="44.5613" lon="4.30394">
        <ele>370</ele>
        <time>2016-05-15T10:32:56.000Z</time>
      </trkpt>
      <trkpt lat="44.5613" lon="4.30395">
        <ele>370</ele>
        <time>2016-05-15T10:32:57.000Z</time>
      </trkpt>
      <trkpt lat="44.5613" lon="4.30396">
        <ele>370</ele>
        <time>2016-05-15T10:32:58.000Z</time>
      </trkpt>
      <trkpt lat="44.5613" lon="4.30397">
        <ele>370</ele>
        <time>2016-05-15T10:32:59.000Z</time>
      </trkpt>
      <trkpt lat="44.56131" lon="4.30398">
        <ele>370</ele>
        <time>2016-05-15T10:33:00.000Z</time>
      </trkpt>
      <trkpt lat="44.56131" lon="4.30399">
        <ele>370</ele>
        <time>2016-05-15T10:33:01.000Z</time>
      </trkpt>
      <trkpt lat="44.56132" lon="4.304">
        <ele>370</ele>
        <time>2016-05-15T10:33:02.000Z</time>
      </trkpt>
      <trkpt lat="44.56133" lon="4.304">
        <ele>370</ele>
        <time>2016-05-15T10:33:03.000Z</time>
      </trkpt>
      <trkpt lat="44.56133" lon="4.30401">
        <ele>370</ele>
        <time>2016-05-15T10:33:04.000Z</time>
      </trkpt>
      <trkpt lat="44.56134" lon="4.30401">
        <ele>370</ele>
        <time>2016-05-15T10:33:05.000Z</time>
      </trkpt>
      <trkpt lat="44.56134" lon="4.30402">
        <ele>370</ele>
        <time>2016-05-15T10:33:06.000Z</time>
      </trkpt>
      <trkpt lat="44.56134" lon="4.30403">
        <ele>370</ele>
        <time>2016-05-15T10:33:07.000Z</time>
      </trkpt>
      <trkpt lat="44.56134" lon="4.30403">
        <ele>370</ele>
        <time>2016-05-15T10:33:08.000Z</time>
      </trkpt>
      <trkpt lat="44.56134" lon="4.30403">
        <ele>370</ele>
        <time>2016-05-15T10:33:09.000Z</time>
      </trkpt>
      <trkpt lat="44.56134" lon="4.30405">
        <ele>370</ele>
        <time>2016-05-15T10:33:10.000Z</time>
      </trkpt>
      <trkpt lat="44.56134" lon="4.30406">
        <ele>370</ele>
        <time>2016-05-15T10:33:11.000Z</time>
      </trkpt>
      <trkpt lat="44.56135" lon="4.30408">
        <ele>370</ele>
        <time>2016-05-15T10:33:12.000Z</time>
      </trkpt>
      <trkpt lat="44.56135" lon="4.30411">
        <ele>370</ele>
        <time>2016-05-15T10:33:13.000Z</time>
      </trkpt>
      <trkpt lat="44.56136" lon="4.30413">
        <ele>370</ele>
        <time>2016-05-15T10:33:14.000Z</time>
      </trkpt>
      <trkpt lat="44.56138" lon="4.30414">
        <ele>371</ele>
        <time>2016-05-15T10:33:15.000Z</time>
      </trkpt>
      <trkpt lat="44.56139" lon="4.30416">
        <ele>371</ele>
        <time>2016-05-15T10:33:16.000Z</time>
      </trkpt>
      <trkpt lat="44.5614" lon="4.30418">
        <ele>369</ele>
        <time>2016-05-15T10:33:17.000Z</time>
      </trkpt>
      <trkpt lat="44.5614" lon="4.30421">
        <ele>369</ele>
        <time>2016-05-15T10:33:18.000Z</time>
      </trkpt>
      <trkpt lat="44.56141" lon="4.30424">
        <ele>369</ele>
        <time>2016-05-15T10:33:19.000Z</time>
      </trkpt>
      <trkpt lat="44.56141" lon="4.30427">
        <ele>369</ele>
        <time>2016-05-15T10:33:20.000Z</time>
      </trkpt>
      <trkpt lat="44.56142" lon="4.30429">
        <ele>369</ele>
        <time>2016-05-15T10:33:21.000Z</time>
      </trkpt>
      <trkpt lat="44.56143" lon="4.30432">
        <ele>369</ele>
        <time>2016-05-15T10:33:22.000Z</time>
      </trkpt>
      <trkpt lat="44.56144" lon="4.30435">
        <ele>369</ele>
        <time>2016-05-15T10:33:23.000Z</time>
      </trkpt>
      <trkpt lat="44.56145" lon="4.30438">
        <ele>369</ele>
        <time>2016-05-15T10:33:24.000Z</time>
      </trkpt>
      <trkpt lat="44.56146" lon="4.3044">
        <ele>369</ele>
        <time>2016-05-15T10:33:25.000Z</time>
      </trkpt>
      <trkpt lat="44.56147" lon="4.30443">
        <ele>369</ele>
        <time>2016-05-15T10:33:26.000Z</time>
      </trkpt>
      <trkpt lat="44.56148" lon="4.30445">
        <ele>369</ele>
        <time>2016-05-15T10:33:27.000Z</time>
      </trkpt>
      <trkpt lat="44.56149" lon="4.30447">
        <ele>369</ele>
        <time>2016-05-15T10:33:28.000Z</time>
      </trkpt>
      <trkpt lat="44.5615" lon="4.30449">
        <ele>369</ele>
        <time>2016-05-15T10:33:29.000Z</time>
      </trkpt>
      <trkpt lat="44.56151" lon="4.30451">
        <ele>369</ele>
        <time>2016-05-15T10:33:30.000Z</time>
      </trkpt>
      <trkpt lat="44.56151" lon="4.30454">
        <ele>369</ele>
        <time>2016-05-15T10:33:31.000Z</time>
      </trkpt>
      <trkpt lat="44.56151" lon="4.30456">
        <ele>369</ele>
        <time>2016-05-15T10:33:32.000Z</time>
      </trkpt>
      <trkpt lat="44.56151" lon="4.30458">
        <ele>369</ele>
        <time>2016-05-15T10:33:33.000Z</time>
      </trkpt>
      <trkpt lat="44.56152" lon="4.30461">
        <ele>369</ele>
        <time>2016-05-15T10:33:34.000Z</time>
      </trkpt>
      <trkpt lat="44.56152" lon="4.30462">
        <ele>369</ele>
        <time>2016-05-15T10:33:35.000Z</time>
      </trkpt>
      <trkpt lat="44.56153" lon="4.30464">
        <ele>369</ele>
        <time>2016-05-15T10:33:36.000Z</time>
      </trkpt>
      <trkpt lat="44.56153" lon="4.30466">
        <ele>369</ele>
        <time>2016-05-15T10:33:37.000Z</time>
      </trkpt>
      <trkpt lat="44.56154" lon="4.30468">
        <ele>370</ele>
        <time>2016-05-15T10:33:38.000Z</time>
      </trkpt>
      <trkpt lat="44.56154" lon="4.3047">
        <ele>370</ele>
        <time>2016-05-15T10:33:39.000Z</time>
      </trkpt>
      <trkpt lat="44.56155" lon="4.30471">
        <ele>370</ele>
        <time>2016-05-15T10:33:40.000Z</time>
      </trkpt>
      <trkpt lat="44.56155" lon="4.30473">
        <ele>370</ele>
        <time>2016-05-15T10:33:41.000Z</time>
      </trkpt>
      <trkpt lat="44.56155" lon="4.30474">
        <ele>370</ele>
        <time>2016-05-15T10:33:42.000Z</time>
      </trkpt>
      <trkpt lat="44.56155" lon="4.30476">
        <ele>370</ele>
        <time>2016-05-15T10:33:43.000Z</time>
      </trkpt>
      <trkpt lat="44.56156" lon="4.30478">
        <ele>370</ele>
        <time>2016-05-15T10:33:44.000Z</time>
      </trkpt>
      <trkpt lat="44.56156" lon="4.3048">
        <ele>371</ele>
        <time>2016-05-15T10:33:45.000Z</time>
      </trkpt>
      <trkpt lat="44.56157" lon="4.30482">
        <ele>371</ele>
        <time>2016-05-15T10:33:46.000Z</time>
      </trkpt>
      <trkpt lat="44.56158" lon="4.30484">
        <ele>371</ele>
        <time>2016-05-15T10:33:47.000Z</time>
      </trkpt>
      <trkpt lat="44.56159" lon="4.30486">
        <ele>372</ele>
        <time>2016-05-15T10:33:48.000Z</time>
      </trkpt>
      <trkpt lat="44.5616" lon="4.30488">
        <ele>372</ele>
        <time>2016-05-15T10:33:49.000Z</time>
      </trkpt>
      <trkpt lat="44.5616" lon="4.30489">
        <ele>373</ele>
        <time>2016-05-15T10:33:50.000Z</time>
      </trkpt>
      <trkpt lat="44.56161" lon="4.30491">
        <ele>373</ele>
        <time>2016-05-15T10:33:51.000Z</time>
      </trkpt>
      <trkpt lat="44.56162" lon="4.30493">
        <ele>374</ele>
        <time>2016-05-15T10:33:52.000Z</time>
      </trkpt>
      <trkpt lat="44.56163" lon="4.30495">
        <ele>374</ele>
        <time>2016-05-15T10:33:53.000Z</time>
      </trkpt>
      <trkpt lat="44.56163" lon="4.30496">
        <ele>375</ele>
        <time>2016-05-15T10:33:54.000Z</time>
      </trkpt>
      <trkpt lat="44.56164" lon="4.30498">
        <ele>375</ele>
        <time>2016-05-15T10:33:55.000Z</time>
      </trkpt>
      <trkpt lat="44.56164" lon="4.305">
        <ele>376</ele>
        <time>2016-05-15T10:33:56.000Z</time>
      </trkpt>
      <trkpt lat="44.56164" lon="4.30502">
        <ele>375</ele>
        <time>2016-05-15T10:33:57.000Z</time>
      </trkpt>
      <trkpt lat="44.56165" lon="4.30504">
        <ele>375</ele>
        <time>2016-05-15T10:33:58.000Z</time>
      </trkpt>
      <trkpt lat="44.56165" lon="4.30506">
        <ele>374</ele>
        <time>2016-05-15T10:33:59.000Z</time>
      </trkpt>
      <trkpt lat="44.56165" lon="4.30508">
        <ele>374</ele>
        <time>2016-05-15T10:34:00.000Z</time>
      </trkpt>
      <trkpt lat="44.56165" lon="4.3051">
        <ele>373</ele>
        <time>2016-05-15T10:34:01.000Z</time>
      </trkpt>
      <trkpt lat="44.56165" lon="4.30512">
        <ele>373</ele>
        <time>2016-05-15T10:34:02.000Z</time>
      </trkpt>
      <trkpt lat="44.56165" lon="4.30514">
        <ele>372</ele>
        <time>2016-05-15T10:34:03.000Z</time>
      </trkpt>
      <trkpt lat="44.56166" lon="4.30516">
        <ele>372</ele>
        <time>2016-05-15T10:34:04.000Z</time>
      </trkpt>
      <trkpt lat="44.56166" lon="4.30517">
        <ele>371</ele>
        <time>2016-05-15T10:34:05.000Z</time>
      </trkpt>
      <trkpt lat="44.56167" lon="4.30518">
        <ele>381</ele>
        <time>2016-05-15T10:34:06.000Z</time>
      </trkpt>
      <trkpt lat="44.56169" lon="4.30519">
        <ele>381</ele>
        <time>2016-05-15T10:34:07.000Z</time>
      </trkpt>
      <trkpt lat="44.5617" lon="4.3052">
        <ele>382</ele>
        <time>2016-05-15T10:34:08.000Z</time>
      </trkpt>
      <trkpt lat="44.5617" lon="4.30521">
        <ele>382</ele>
        <time>2016-05-15T10:34:09.000Z</time>
      </trkpt>
      <trkpt lat="44.56171" lon="4.30523">
        <ele>382</ele>
        <time>2016-05-15T10:34:10.000Z</time>
      </trkpt>
      <trkpt lat="44.56172" lon="4.30524">
        <ele>382</ele>
        <time>2016-05-15T10:34:11.000Z</time>
      </trkpt>
      <trkpt lat="44.56172" lon="4.30526">
        <ele>382</ele>
        <time>2016-05-15T10:34:12.000Z</time>
      </trkpt>
      <trkpt lat="44.56173" lon="4.30527">
        <ele>382</ele>
        <time>2016-05-15T10:34:13.000Z</time>
      </trkpt>
      <trkpt lat="44.56173" lon="4.30529">
        <ele>383</ele>
        <time>2016-05-15T10:34:14.000Z</time>
      </trkpt>
      <trkpt lat="44.56174" lon="4.3053">
        <ele>383</ele>
        <time>2016-05-15T10:34:15.000Z</time>
      </trkpt>
      <trkpt lat="44.56174" lon="4.30532">
        <ele>383</ele>
        <time>2016-05-15T10:34:16.000Z</time>
      </trkpt>
      <trkpt lat="44.56175" lon="4.30533">
        <ele>383</ele>
        <time>2016-05-15T10:34:17.000Z</time>
      </trkpt>
      <trkpt lat="44.56174" lon="4.30534">
        <ele>383</ele>
        <time>2016-05-15T10:34:18.000Z</time>
      </trkpt>
      <trkpt lat="44.56174" lon="4.30534">
        <ele>383</ele>
        <time>2016-05-15T10:34:19.000Z</time>
      </trkpt>
      <trkpt lat="44.56175" lon="4.30535">
        <ele>383</ele>
        <time>2016-05-15T10:34:20.000Z</time>
      </trkpt>
      <trkpt lat="44.56175" lon="4.30535">
        <ele>383</ele>
        <time>2016-05-15T10:34:21.000Z</time>
      </trkpt>
      <trkpt lat="44.56176" lon="4.30536">
        <ele>383</ele>
        <time>2016-05-15T10:34:22.000Z</time>
      </trkpt>
      <trkpt lat="44.56176" lon="4.30537">
        <ele>383</ele>
        <time>2016-05-15T10:34:23.000Z</time>
      </trkpt>
      <trkpt lat="44.56176" lon="4.30538">
        <ele>383</ele>
        <time>2016-05-15T10:34:24.000Z</time>
      </trkpt>
      <trkpt lat="44.56177" lon="4.30539">
        <ele>383</ele>
        <time>2016-05-15T10:34:25.000Z</time>
      </trkpt>
      <trkpt lat="44.56178" lon="4.3054">
        <ele>383</ele>
        <time>2016-05-15T10:34:26.000Z</time>
      </trkpt>
      <trkpt lat="44.56178" lon="4.30541">
        <ele>383</ele>
        <time>2016-05-15T10:34:27.000Z</time>
      </trkpt>
      <trkpt lat="44.56179" lon="4.30542">
        <ele>383</ele>
        <time>2016-05-15T10:34:28.000Z</time>
      </trkpt>
      <trkpt lat="44.5618" lon="4.30543">
        <ele>383</ele>
        <time>2016-05-15T10:34:29.000Z</time>
      </trkpt>
      <trkpt lat="44.5618" lon="4.30543">
        <ele>383</ele>
        <time>2016-05-15T10:34:30.000Z</time>
      </trkpt>
      <trkpt lat="44.5618" lon="4.30543">
        <ele>383</ele>
        <time>2016-05-15T10:34:31.000Z</time>
      </trkpt>
      <trkpt lat="44.5618" lon="4.30544">
        <ele>383</ele>
        <time>2016-05-15T10:34:32.000Z</time>
      </trkpt>
      <trkpt lat="44.56181" lon="4.30544">
        <ele>383</ele>
        <time>2016-05-15T10:34:33.000Z</time>
      </trkpt>
      <trkpt lat="44.56182" lon="4.30545">
        <ele>383</ele>
        <time>2016-05-15T10:34:34.000Z</time>
      </trkpt>
      <trkpt lat="44.56183" lon="4.30546">
        <ele>383</ele>
        <time>2016-05-15T10:34:35.000Z</time>
      </trkpt>
      <trkpt lat="44.56184" lon="4.30546">
        <ele>383</ele>
        <time>2016-05-15T10:34:36.000Z</time>
      </trkpt>
      <trkpt lat="44.56184" lon="4.30547">
        <ele>384</ele>
        <time>2016-05-15T10:34:37.000Z</time>
      </trkpt>
      <trkpt lat="44.56185" lon="4.30548">
        <ele>384</ele>
        <time>2016-05-15T10:34:38.000Z</time>
      </trkpt>
      <trkpt lat="44.56185" lon="4.30548">
        <ele>384</ele>
        <time>2016-05-15T10:34:39.000Z</time>
      </trkpt>
      <trkpt lat="44.56185" lon="4.30548">
        <ele>384</ele>
        <time>2016-05-15T10:34:40.000Z</time>
      </trkpt>
      <trkpt lat="44.56185" lon="4.30548">
        <ele>384</ele>
        <time>2016-05-15T10:34:41.000Z</time>
      </trkpt>
      <trkpt lat="44.56185" lon="4.30548">
        <ele>384</ele>
        <time>2016-05-15T10:34:42.000Z</time>
      </trkpt>
      <trkpt lat="44.56185" lon="4.30548">
        <ele>384</ele>
        <time>2016-05-15T10:34:43.000Z</time>
      </trkpt>
      <trkpt lat="44.56185" lon="4.30548">
        <ele>384</ele>
        <time>2016-05-15T10:34:44.000Z</time>
      </trkpt>
      <trkpt lat="44.56185" lon="4.30549">
        <ele>384</ele>
        <time>2016-05-15T10:34:45.000Z</time>
      </trkpt>
      <trkpt lat="44.56186" lon="4.30551">
        <ele>384</ele>
        <time>2016-05-15T10:34:46.000Z</time>
      </trkpt>
      <trkpt lat="44.56187" lon="4.30552">
        <ele>384</ele>
        <time>2016-05-15T10:34:47.000Z</time>
      </trkpt>
      <trkpt lat="44.56189" lon="4.30553">
        <ele>384</ele>
        <time>2016-05-15T10:34:48.000Z</time>
      </trkpt>
      <trkpt lat="44.5619" lon="4.30555">
        <ele>384</ele>
        <time>2016-05-15T10:34:49.000Z</time>
      </trkpt>
      <trkpt lat="44.5619" lon="4.30556">
        <ele>384</ele>
        <time>2016-05-15T10:34:50.000Z</time>
      </trkpt>
      <trkpt lat="44.56191" lon="4.30558">
        <ele>384</ele>
        <time>2016-05-15T10:34:51.000Z</time>
      </trkpt>
      <trkpt lat="44.56192" lon="4.30559">
        <ele>384</ele>
        <time>2016-05-15T10:34:52.000Z</time>
      </trkpt>
      <trkpt lat="44.56193" lon="4.30561">
        <ele>384</ele>
        <time>2016-05-15T10:34:53.000Z</time>
      </trkpt>
      <trkpt lat="44.56194" lon="4.30562">
        <ele>384</ele>
        <time>2016-05-15T10:34:54.000Z</time>
      </trkpt>
      <trkpt lat="44.56196" lon="4.30563">
        <ele>384</ele>
        <time>2016-05-15T10:34:55.000Z</time>
      </trkpt>
      <trkpt lat="44.56197" lon="4.30564">
        <ele>384</ele>
        <time>2016-05-15T10:34:56.000Z</time>
      </trkpt>
      <trkpt lat="44.56198" lon="4.30565">
        <ele>384</ele>
        <time>2016-05-15T10:34:57.000Z</time>
      </trkpt>
      <trkpt lat="44.56199" lon="4.30565">
        <ele>385</ele>
        <time>2016-05-15T10:34:58.000Z</time>
      </trkpt>
      <trkpt lat="44.562" lon="4.30566">
        <ele>385</ele>
        <time>2016-05-15T10:34:59.000Z</time>
      </trkpt>
      <trkpt lat="44.56202" lon="4.30566">
        <ele>385</ele>
        <time>2016-05-15T10:35:00.000Z</time>
      </trkpt>
      <trkpt lat="44.56203" lon="4.30568">
        <ele>385</ele>
        <time>2016-05-15T10:35:01.000Z</time>
      </trkpt>
      <trkpt lat="44.56204" lon="4.30569">
        <ele>385</ele>
        <time>2016-05-15T10:35:02.000Z</time>
      </trkpt>
      <trkpt lat="44.56205" lon="4.3057">
        <ele>385</ele>
        <time>2016-05-15T10:35:03.000Z</time>
      </trkpt>
      <trkpt lat="44.56207" lon="4.30571">
        <ele>385</ele>
        <time>2016-05-15T10:35:04.000Z</time>
      </trkpt>
      <trkpt lat="44.56208" lon="4.30573">
        <ele>386</ele>
        <time>2016-05-15T10:35:05.000Z</time>
      </trkpt>
      <trkpt lat="44.56209" lon="4.30574">
        <ele>386</ele>
        <time>2016-05-15T10:35:06.000Z</time>
      </trkpt>
      <trkpt lat="44.5621" lon="4.30575">
        <ele>386</ele>
        <time>2016-05-15T10:35:07.000Z</time>
      </trkpt>
      <trkpt lat="44.56211" lon="4.30577">
        <ele>386</ele>
        <time>2016-05-15T10:35:08.000Z</time>
      </trkpt>
      <trkpt lat="44.56213" lon="4.30578">
        <ele>386</ele>
        <time>2016-05-15T10:35:09.000Z</time>
      </trkpt>
      <trkpt lat="44.56214" lon="4.30579">
        <ele>386</ele>
        <time>2016-05-15T10:35:10.000Z</time>
      </trkpt>
      <trkpt lat="44.56215" lon="4.30579">
        <ele>387</ele>
        <time>2016-05-15T10:35:11.000Z</time>
      </trkpt>
      <trkpt lat="44.56216" lon="4.3058">
        <ele>387</ele>
        <time>2016-05-15T10:35:12.000Z</time>
      </trkpt>
      <trkpt lat="44.56217" lon="4.30581">
        <ele>387</ele>
        <time>2016-05-15T10:35:13.000Z</time>
      </trkpt>
      <trkpt lat="44.56218" lon="4.30583">
        <ele>387</ele>
        <time>2016-05-15T10:35:14.000Z</time>
      </trkpt>
      <trkpt lat="44.56219" lon="4.30584">
        <ele>385</ele>
        <time>2016-05-15T10:35:15.000Z</time>
      </trkpt>
      <trkpt lat="44.5622" lon="4.30585">
        <ele>385</ele>
        <time>2016-05-15T10:35:16.000Z</time>
      </trkpt>
      <trkpt lat="44.56221" lon="4.30587">
        <ele>385</ele>
        <time>2016-05-15T10:35:17.000Z</time>
      </trkpt>
      <trkpt lat="44.56222" lon="4.30589">
        <ele>385</ele>
        <time>2016-05-15T10:35:18.000Z</time>
      </trkpt>
      <trkpt lat="44.56223" lon="4.3059">
        <ele>385</ele>
        <time>2016-05-15T10:35:19.000Z</time>
      </trkpt>
      <trkpt lat="44.56224" lon="4.30592">
        <ele>385</ele>
        <time>2016-05-15T10:35:20.000Z</time>
      </trkpt>
      <trkpt lat="44.56226" lon="4.30593">
        <ele>385</ele>
        <time>2016-05-15T10:35:21.000Z</time>
      </trkpt>
      <trkpt lat="44.56228" lon="4.30595">
        <ele>386</ele>
        <time>2016-05-15T10:35:22.000Z</time>
      </trkpt>
      <trkpt lat="44.56229" lon="4.30596">
        <ele>386</ele>
        <time>2016-05-15T10:35:23.000Z</time>
      </trkpt>
      <trkpt lat="44.56231" lon="4.30598">
        <ele>386</ele>
        <time>2016-05-15T10:35:24.000Z</time>
      </trkpt>
      <trkpt lat="44.56232" lon="4.306">
        <ele>386</ele>
        <time>2016-05-15T10:35:25.000Z</time>
      </trkpt>
      <trkpt lat="44.56234" lon="4.30602">
        <ele>386</ele>
        <time>2016-05-15T10:35:26.000Z</time>
      </trkpt>
      <trkpt lat="44.56235" lon="4.30604">
        <ele>386</ele>
        <time>2016-05-15T10:35:27.000Z</time>
      </trkpt>
      <trkpt lat="44.56235" lon="4.30605">
        <ele>386</ele>
        <time>2016-05-15T10:35:28.000Z</time>
      </trkpt>
      <trkpt lat="44.56237" lon="4.30606">
        <ele>386</ele>
        <time>2016-05-15T10:35:29.000Z</time>
      </trkpt>
      <trkpt lat="44.56238" lon="4.30607">
        <ele>386</ele>
        <time>2016-05-15T10:35:30.000Z</time>
      </trkpt>
      <trkpt lat="44.56239" lon="4.30609">
        <ele>386</ele>
        <time>2016-05-15T10:35:31.000Z</time>
      </trkpt>
      <trkpt lat="44.5624" lon="4.3061">
        <ele>386</ele>
        <time>2016-05-15T10:35:32.000Z</time>
      </trkpt>
      <trkpt lat="44.56241" lon="4.30612">
        <ele>385</ele>
        <time>2016-05-15T10:35:33.000Z</time>
      </trkpt>
      <trkpt lat="44.56242" lon="4.30614">
        <ele>385</ele>
        <time>2016-05-15T10:35:34.000Z</time>
      </trkpt>
      <trkpt lat="44.56244" lon="4.30615">
        <ele>385</ele>
        <time>2016-05-15T10:35:35.000Z</time>
      </trkpt>
      <trkpt lat="44.56245" lon="4.30617">
        <ele>385</ele>
        <time>2016-05-15T10:35:36.000Z</time>
      </trkpt>
      <trkpt lat="44.56247" lon="4.30618">
        <ele>385</ele>
        <time>2016-05-15T10:35:37.000Z</time>
      </trkpt>
      <trkpt lat="44.56248" lon="4.3062">
        <ele>385</ele>
        <time>2016-05-15T10:35:38.000Z</time>
      </trkpt>
      <trkpt lat="44.56249" lon="4.30622">
        <ele>385</ele>
        <time>2016-05-15T10:35:39.000Z</time>
      </trkpt>
      <trkpt lat="44.5625" lon="4.30623">
        <ele>385</ele>
        <time>2016-05-15T10:35:40.000Z</time>
      </trkpt>
      <trkpt lat="44.56251" lon="4.30624">
        <ele>395</ele>
        <time>2016-05-15T10:35:41.000Z</time>
      </trkpt>
      <trkpt lat="44.56252" lon="4.30625">
        <ele>395</ele>
        <time>2016-05-15T10:35:42.000Z</time>
      </trkpt>
      <trkpt lat="44.56253" lon="4.30627">
        <ele>395</ele>
        <time>2016-05-15T10:35:43.000Z</time>
      </trkpt>
      <trkpt lat="44.56254" lon="4.30629">
        <ele>395</ele>
        <time>2016-05-15T10:35:44.000Z</time>
      </trkpt>
      <trkpt lat="44.56255" lon="4.3063">
        <ele>395</ele>
        <time>2016-05-15T10:35:45.000Z</time>
      </trkpt>
      <trkpt lat="44.56256" lon="4.30632">
        <ele>395</ele>
        <time>2016-05-15T10:35:46.000Z</time>
      </trkpt>
      <trkpt lat="44.56257" lon="4.30633">
        <ele>395</ele>
        <time>2016-05-15T10:35:47.000Z</time>
      </trkpt>
      <trkpt lat="44.56258" lon="4.30634">
        <ele>395</ele>
        <time>2016-05-15T10:35:48.000Z</time>
      </trkpt>
      <trkpt lat="44.56259" lon="4.30636">
        <ele>395</ele>
        <time>2016-05-15T10:35:49.000Z</time>
      </trkpt>
      <trkpt lat="44.5626" lon="4.30637">
        <ele>395</ele>
        <time>2016-05-15T10:35:50.000Z</time>
      </trkpt>
      <trkpt lat="44.56261" lon="4.30638">
        <ele>395</ele>
        <time>2016-05-15T10:35:51.000Z</time>
      </trkpt>
      <trkpt lat="44.56262" lon="4.30639">
        <ele>394</ele>
        <time>2016-05-15T10:35:52.000Z</time>
      </trkpt>
      <trkpt lat="44.56263" lon="4.3064">
        <ele>394</ele>
        <time>2016-05-15T10:35:53.000Z</time>
      </trkpt>
      <trkpt lat="44.56264" lon="4.30641">
        <ele>394</ele>
        <time>2016-05-15T10:35:54.000Z</time>
      </trkpt>
      <trkpt lat="44.56265" lon="4.30643">
        <ele>394</ele>
        <time>2016-05-15T10:35:55.000Z</time>
      </trkpt>
      <trkpt lat="44.56266" lon="4.30644">
        <ele>394</ele>
        <time>2016-05-15T10:35:56.000Z</time>
      </trkpt>
      <trkpt lat="44.56267" lon="4.30645">
        <ele>394</ele>
        <time>2016-05-15T10:35:57.000Z</time>
      </trkpt>
      <trkpt lat="44.56267" lon="4.30646">
        <ele>394</ele>
        <time>2016-05-15T10:35:58.000Z</time>
      </trkpt>
      <trkpt lat="44.56269" lon="4.30648">
        <ele>394</ele>
        <time>2016-05-15T10:35:59.000Z</time>
      </trkpt>
      <trkpt lat="44.5627" lon="4.30649">
        <ele>394</ele>
        <time>2016-05-15T10:36:00.000Z</time>
      </trkpt>
      <trkpt lat="44.56271" lon="4.30651">
        <ele>394</ele>
        <time>2016-05-15T10:36:01.000Z</time>
      </trkpt>
      <trkpt lat="44.56272" lon="4.30653">
        <ele>394</ele>
        <time>2016-05-15T10:36:02.000Z</time>
      </trkpt>
      <trkpt lat="44.56273" lon="4.30654">
        <ele>394</ele>
        <time>2016-05-15T10:36:03.000Z</time>
      </trkpt>
      <trkpt lat="44.56274" lon="4.30656">
        <ele>394</ele>
        <time>2016-05-15T10:36:04.000Z</time>
      </trkpt>
      <trkpt lat="44.56275" lon="4.30657">
        <ele>394</ele>
        <time>2016-05-15T10:36:05.000Z</time>
      </trkpt>
      <trkpt lat="44.56277" lon="4.30658">
        <ele>395</ele>
        <time>2016-05-15T10:36:06.000Z</time>
      </trkpt>
      <trkpt lat="44.56278" lon="4.30659">
        <ele>395</ele>
        <time>2016-05-15T10:36:07.000Z</time>
      </trkpt>
      <trkpt lat="44.5628" lon="4.30661">
        <ele>395</ele>
        <time>2016-05-15T10:36:08.000Z</time>
      </trkpt>
      <trkpt lat="44.56281" lon="4.30663">
        <ele>395</ele>
        <time>2016-05-15T10:36:09.000Z</time>
      </trkpt>
      <trkpt lat="44.56283" lon="4.30664">
        <ele>395</ele>
        <time>2016-05-15T10:36:10.000Z</time>
      </trkpt>
      <trkpt lat="44.56284" lon="4.30666">
        <ele>396</ele>
        <time>2016-05-15T10:36:11.000Z</time>
      </trkpt>
      <trkpt lat="44.56285" lon="4.30667">
        <ele>390</ele>
        <time>2016-05-15T10:36:12.000Z</time>
      </trkpt>
      <trkpt lat="44.56286" lon="4.30668">
        <ele>390</ele>
        <time>2016-05-15T10:36:13.000Z</time>
      </trkpt>
      <trkpt lat="44.56288" lon="4.30669">
        <ele>391</ele>
        <time>2016-05-15T10:36:14.000Z</time>
      </trkpt>
      <trkpt lat="44.56289" lon="4.30671">
        <ele>391</ele>
        <time>2016-05-15T10:36:15.000Z</time>
      </trkpt>
      <trkpt lat="44.5629" lon="4.30672">
        <ele>391</ele>
        <time>2016-05-15T10:36:16.000Z</time>
      </trkpt>
      <trkpt lat="44.56292" lon="4.30673">
        <ele>391</ele>
        <time>2016-05-15T10:36:17.000Z</time>
      </trkpt>
      <trkpt lat="44.56294" lon="4.30674">
        <ele>391</ele>
        <time>2016-05-15T10:36:18.000Z</time>
      </trkpt>
      <trkpt lat="44.56295" lon="4.30675">
        <ele>392</ele>
        <time>2016-05-15T10:36:19.000Z</time>
      </trkpt>
      <trkpt lat="44.56297" lon="4.30677">
        <ele>392</ele>
        <time>2016-05-15T10:36:20.000Z</time>
      </trkpt>
      <trkpt lat="44.56299" lon="4.30678">
        <ele>392</ele>
        <time>2016-05-15T10:36:21.000Z</time>
      </trkpt>
      <trkpt lat="44.563" lon="4.3068">
        <ele>392</ele>
        <time>2016-05-15T10:36:22.000Z</time>
      </trkpt>
      <trkpt lat="44.56301" lon="4.30682">
        <ele>392</ele>
        <time>2016-05-15T10:36:23.000Z</time>
      </trkpt>
      <trkpt lat="44.56303" lon="4.30683">
        <ele>392</ele>
        <time>2016-05-15T10:36:24.000Z</time>
      </trkpt>
      <trkpt lat="44.56305" lon="4.30684">
        <ele>392</ele>
        <time>2016-05-15T10:36:25.000Z</time>
      </trkpt>
      <trkpt lat="44.56307" lon="4.30685">
        <ele>393</ele>
        <time>2016-05-15T10:36:26.000Z</time>
      </trkpt>
      <trkpt lat="44.56309" lon="4.30687">
        <ele>393</ele>
        <time>2016-05-15T10:36:27.000Z</time>
      </trkpt>
      <trkpt lat="44.5631" lon="4.30689">
        <ele>393</ele>
        <time>2016-05-15T10:36:28.000Z</time>
      </trkpt>
      <trkpt lat="44.56312" lon="4.30691">
        <ele>393</ele>
        <time>2016-05-15T10:36:29.000Z</time>
      </trkpt>
      <trkpt lat="44.56313" lon="4.30693">
        <ele>392</ele>
        <time>2016-05-15T10:36:30.000Z</time>
      </trkpt>
      <trkpt lat="44.56314" lon="4.30695">
        <ele>392</ele>
        <time>2016-05-15T10:36:31.000Z</time>
      </trkpt>
      <trkpt lat="44.56315" lon="4.30696">
        <ele>392</ele>
        <time>2016-05-15T10:36:32.000Z</time>
      </trkpt>
      <trkpt lat="44.56317" lon="4.30698">
        <ele>392</ele>
        <time>2016-05-15T10:36:33.000Z</time>
      </trkpt>
      <trkpt lat="44.56319" lon="4.30699">
        <ele>392</ele>
        <time>2016-05-15T10:36:34.000Z</time>
      </trkpt>
      <trkpt lat="44.56321" lon="4.307">
        <ele>392</ele>
        <time>2016-05-15T10:36:35.000Z</time>
      </trkpt>
      <trkpt lat="44.56323" lon="4.30702">
        <ele>392</ele>
        <time>2016-05-15T10:36:36.000Z</time>
      </trkpt>
      <trkpt lat="44.56325" lon="4.30704">
        <ele>392</ele>
        <time>2016-05-15T10:36:37.000Z</time>
      </trkpt>
      <trkpt lat="44.56327" lon="4.30706">
        <ele>392</ele>
        <time>2016-05-15T10:36:38.000Z</time>
      </trkpt>
      <trkpt lat="44.56328" lon="4.30707">
        <ele>392</ele>
        <time>2016-05-15T10:36:39.000Z</time>
      </trkpt>
      <trkpt lat="44.5633" lon="4.30708">
        <ele>392</ele>
        <time>2016-05-15T10:36:40.000Z</time>
      </trkpt>
      <trkpt lat="44.56332" lon="4.3071">
        <ele>392</ele>
        <time>2016-05-15T10:36:41.000Z</time>
      </trkpt>
      <trkpt lat="44.56334" lon="4.30712">
        <ele>399</ele>
        <time>2016-05-15T10:36:42.000Z</time>
      </trkpt>
      <trkpt lat="44.56335" lon="4.30713">
        <ele>399</ele>
        <time>2016-05-15T10:36:43.000Z</time>
      </trkpt>
      <trkpt lat="44.56337" lon="4.30715">
        <ele>399</ele>
        <time>2016-05-15T10:36:44.000Z</time>
      </trkpt>
      <trkpt lat="44.56338" lon="4.30717">
        <ele>398</ele>
        <time>2016-05-15T10:36:45.000Z</time>
      </trkpt>
      <trkpt lat="44.5634" lon="4.30718">
        <ele>398</ele>
        <time>2016-05-15T10:36:46.000Z</time>
      </trkpt>
      <trkpt lat="44.56342" lon="4.30719">
        <ele>398</ele>
        <time>2016-05-15T10:36:47.000Z</time>
      </trkpt>
      <trkpt lat="44.56343" lon="4.30719">
        <ele>398</ele>
        <time>2016-05-15T10:36:48.000Z</time>
      </trkpt>
      <trkpt lat="44.56345" lon="4.3072">
        <ele>398</ele>
        <time>2016-05-15T10:36:49.000Z</time>
      </trkpt>
      <trkpt lat="44.56346" lon="4.30721">
        <ele>398</ele>
        <time>2016-05-15T10:36:50.000Z</time>
      </trkpt>
      <trkpt lat="44.56348" lon="4.30722">
        <ele>398</ele>
        <time>2016-05-15T10:36:51.000Z</time>
      </trkpt>
      <trkpt lat="44.5635" lon="4.30724">
        <ele>398</ele>
        <time>2016-05-15T10:36:52.000Z</time>
      </trkpt>
      <trkpt lat="44.56352" lon="4.30727">
        <ele>398</ele>
        <time>2016-05-15T10:36:53.000Z</time>
      </trkpt>
      <trkpt lat="44.56354" lon="4.30731">
        <ele>398</ele>
        <time>2016-05-15T10:36:54.000Z</time>
      </trkpt>
      <trkpt lat="44.56356" lon="4.30734">
        <ele>398</ele>
        <time>2016-05-15T10:36:55.000Z</time>
      </trkpt>
      <trkpt lat="44.56358" lon="4.30738">
        <ele>398</ele>
        <time>2016-05-15T10:36:56.000Z</time>
      </trkpt>
      <trkpt lat="44.56359" lon="4.30742">
        <ele>397</ele>
        <time>2016-05-15T10:36:57.000Z</time>
      </trkpt>
      <trkpt lat="44.56361" lon="4.30746">
        <ele>398</ele>
        <time>2016-05-15T10:36:58.000Z</time>
      </trkpt>
      <trkpt lat="44.56363" lon="4.30749">
        <ele>398</ele>
        <time>2016-05-15T10:36:59.000Z</time>
      </trkpt>
      <trkpt lat="44.56365" lon="4.30753">
        <ele>393</ele>
        <time>2016-05-15T10:37:00.000Z</time>
      </trkpt>
      <trkpt lat="44.56367" lon="4.30755">
        <ele>393</ele>
        <time>2016-05-15T10:37:01.000Z</time>
      </trkpt>
      <trkpt lat="44.56369" lon="4.30758">
        <ele>393</ele>
        <time>2016-05-15T10:37:02.000Z</time>
      </trkpt>
      <trkpt lat="44.5637" lon="4.3076">
        <ele>393</ele>
        <time>2016-05-15T10:37:03.000Z</time>
      </trkpt>
      <trkpt lat="44.56371" lon="4.30763">
        <ele>393</ele>
        <time>2016-05-15T10:37:04.000Z</time>
      </trkpt>
      <trkpt lat="44.56371" lon="4.30765">
        <ele>393</ele>
        <time>2016-05-15T10:37:05.000Z</time>
      </trkpt>
      <trkpt lat="44.56371" lon="4.30767">
        <ele>393</ele>
        <time>2016-05-15T10:37:06.000Z</time>
      </trkpt>
      <trkpt lat="44.5637" lon="4.30769">
        <ele>393</ele>
        <time>2016-05-15T10:37:07.000Z</time>
      </trkpt>
      <trkpt lat="44.5637" lon="4.3077">
        <ele>393</ele>
        <time>2016-05-15T10:37:08.000Z</time>
      </trkpt>
      <trkpt lat="44.5637" lon="4.3077">
        <ele>393</ele>
        <time>2016-05-15T10:37:09.000Z</time>
      </trkpt>
      <trkpt lat="44.5637" lon="4.30771">
        <ele>393</ele>
        <time>2016-05-15T10:37:10.000Z</time>
      </trkpt>
      <trkpt lat="44.5637" lon="4.30771">
        <ele>393</ele>
        <time>2016-05-15T10:37:11.000Z</time>
      </trkpt>
      <trkpt lat="44.5637" lon="4.30772">
        <ele>393</ele>
        <time>2016-05-15T10:37:12.000Z</time>
      </trkpt>
      <trkpt lat="44.5637" lon="4.30772">
        <ele>393</ele>
        <time>2016-05-15T10:37:13.000Z</time>
      </trkpt>
      <trkpt lat="44.5637" lon="4.30772">
        <ele>393</ele>
        <time>2016-05-15T10:37:14.000Z</time>
      </trkpt>
      <trkpt lat="44.5637" lon="4.30772">
        <ele>393</ele>
        <time>2016-05-15T10:37:15.000Z</time>
      </trkpt>
      <trkpt lat="44.5637" lon="4.30772">
        <ele>393</ele>
        <time>2016-05-15T10:37:16.000Z</time>
      </trkpt>
      <trkpt lat="44.5637" lon="4.30772">
        <ele>393</ele>
        <time>2016-05-15T10:37:17.000Z</time>
      </trkpt>
      <trkpt lat="44.5637" lon="4.30772">
        <ele>393</ele>
        <time>2016-05-15T10:37:18.000Z</time>
      </trkpt>
      <trkpt lat="44.5637" lon="4.30773">
        <ele>393</ele>
        <time>2016-05-15T10:37:19.000Z</time>
      </trkpt>
      <trkpt lat="44.5637" lon="4.30773">
        <ele>393</ele>
        <time>2016-05-15T10:37:20.000Z</time>
      </trkpt>
      <trkpt lat="44.5637" lon="4.30773">
        <ele>393</ele>
        <time>2016-05-15T10:37:21.000Z</time>
      </trkpt>
      <trkpt lat="44.5637" lon="4.30773">
        <ele>393</ele>
        <time>2016-05-15T10:37:22.000Z</time>
      </trkpt>
      <trkpt lat="44.5637" lon="4.30774">
        <ele>393</ele>
        <time>2016-05-15T10:37:23.000Z</time>
      </trkpt>
      <trkpt lat="44.5637" lon="4.30774">
        <ele>393</ele>
        <time>2016-05-15T10:37:24.000Z</time>
      </trkpt>
      <trkpt lat="44.5637" lon="4.30774">
        <ele>393</ele>
        <time>2016-05-15T10:37:25.000Z</time>
      </trkpt>
      <trkpt lat="44.5637" lon="4.30774">
        <ele>393</ele>
        <time>2016-05-15T10:37:26.000Z</time>
      </trkpt>
      <trkpt lat="44.5637" lon="4.30774">
        <ele>393</ele>
        <time>2016-05-15T10:37:27.000Z</time>
      </trkpt>
      <trkpt lat="44.5637" lon="4.30774">
        <ele>393</ele>
        <time>2016-05-15T10:37:28.000Z</time>
      </trkpt>
      <trkpt lat="44.5637" lon="4.30775">
        <ele>393</ele>
        <time>2016-05-15T10:37:29.000Z</time>
      </trkpt>
      <trkpt lat="44.5637" lon="4.30775">
        <ele>393</ele>
        <time>2016-05-15T10:37:30.000Z</time>
      </trkpt>
      <trkpt lat="44.5637" lon="4.30775">
        <ele>393</ele>
        <time>2016-05-15T10:37:31.000Z</time>
      </trkpt>
      <trkpt lat="44.56371" lon="4.30775">
        <ele>393</ele>
        <time>2016-05-15T10:37:32.000Z</time>
      </trkpt>
      <trkpt lat="44.56371" lon="4.30775">
        <ele>393</ele>
        <time>2016-05-15T10:37:33.000Z</time>
      </trkpt>
      <trkpt lat="44.56371" lon="4.30775">
        <ele>393</ele>
        <time>2016-05-15T10:37:34.000Z</time>
      </trkpt>
      <trkpt lat="44.56371" lon="4.30775">
        <ele>393</ele>
        <time>2016-05-15T10:37:35.000Z</time>
      </trkpt>
      <trkpt lat="44.56371" lon="4.30776">
        <ele>393</ele>
        <time>2016-05-15T10:37:36.000Z</time>
      </trkpt>
      <trkpt lat="44.56371" lon="4.30776">
        <ele>393</ele>
        <time>2016-05-15T10:37:37.000Z</time>
      </trkpt>
      <trkpt lat="44.56371" lon="4.30776">
        <ele>393</ele>
        <time>2016-05-15T10:37:38.000Z</time>
      </trkpt>
      <trkpt lat="44.56371" lon="4.30776">
        <ele>393</ele>
        <time>2016-05-15T10:37:39.000Z</time>
      </trkpt>
      <trkpt lat="44.56371" lon="4.30776">
        <ele>393</ele>
        <time>2016-05-15T10:37:40.000Z</time>
      </trkpt>
      <trkpt lat="44.56371" lon="4.30776">
        <ele>393</ele>
        <time>2016-05-15T10:37:41.000Z</time>
      </trkpt>
      <trkpt lat="44.56371" lon="4.30776">
        <ele>393</ele>
        <time>2016-05-15T10:37:42.000Z</time>
      </trkpt>
      <trkpt lat="44.56371" lon="4.30776">
        <ele>393</ele>
        <time>2016-05-15T10:37:43.000Z</time>
      </trkpt>
      <trkpt lat="44.56371" lon="4.30776">
        <ele>393</ele>
        <time>2016-05-15T10:37:44.000Z</time>
      </trkpt>
      <trkpt lat="44.56371" lon="4.30776">
        <ele>393</ele>
        <time>2016-05-15T10:37:45.000Z</time>
      </trkpt>
      <trkpt lat="44.56371" lon="4.30776">
        <ele>393</ele>
        <time>2016-05-15T10:37:46.000Z</time>
      </trkpt>
      <trkpt lat="44.56372" lon="4.30776">
        <ele>393</ele>
        <time>2016-05-15T10:37:47.000Z</time>
      </trkpt>
      <trkpt lat="44.56372" lon="4.30776">
        <ele>393</ele>
        <time>2016-05-15T10:37:48.000Z</time>
      </trkpt>
      <trkpt lat="44.56372" lon="4.30776">
        <ele>393</ele>
        <time>2016-05-15T10:37:49.000Z</time>
      </trkpt>
      <trkpt lat="44.56372" lon="4.30776">
        <ele>393</ele>
        <time>2016-05-15T10:37:50.000Z</time>
      </trkpt>
      <trkpt lat="44.56372" lon="4.30776">
        <ele>393</ele>
        <time>2016-05-15T10:37:51.000Z</time>
      </trkpt>
      <trkpt lat="44.56372" lon="4.30776">
        <ele>393</ele>
        <time>2016-05-15T10:37:52.000Z</time>
      </trkpt>
      <trkpt lat="44.56372" lon="4.30776">
        <ele>393</ele>
        <time>2016-05-15T10:37:53.000Z</time>
      </trkpt>
      <trkpt lat="44.56372" lon="4.30776">
        <ele>393</ele>
        <time>2016-05-15T10:37:54.000Z</time>
      </trkpt>
      <trkpt lat="44.56372" lon="4.30776">
        <ele>393</ele>
        <time>2016-05-15T10:37:55.000Z</time>
      </trkpt>
      <trkpt lat="44.56372" lon="4.30776">
        <ele>393</ele>
        <time>2016-05-15T10:37:56.000Z</time>
      </trkpt>
      <trkpt lat="44.56372" lon="4.30776">
        <ele>393</ele>
        <time>2016-05-15T10:37:57.000Z</time>
      </trkpt>
      <trkpt lat="44.56372" lon="4.30776">
        <ele>393</ele>
        <time>2016-05-15T10:37:58.000Z</time>
      </trkpt>
      <trkpt lat="44.56372" lon="4.30776">
        <ele>393</ele>
        <time>2016-05-15T10:37:59.000Z</time>
      </trkpt>
      <trkpt lat="44.56372" lon="4.30776">
        <ele>393</ele>
        <time>2016-05-15T10:38:00.000Z</time>
      </trkpt>
      <trkpt lat="44.56372" lon="4.30776">
        <ele>393</ele>
        <time>2016-05-15T10:38:01.000Z</time>
      </trkpt>
      <trkpt lat="44.56372" lon="4.30776">
        <ele>393</ele>
        <time>2016-05-15T10:38:02.000Z</time>
      </trkpt>
      <trkpt lat="44.56372" lon="4.30776">
        <ele>393</ele>
        <time>2016-05-15T10:38:03.000Z</time>
      </trkpt>
      <trkpt lat="44.56372" lon="4.30776">
        <ele>393</ele>
        <time>2016-05-15T10:38:04.000Z</time>
      </trkpt>
      <trkpt lat="44.56372" lon="4.30776">
        <ele>393</ele>
        <time>2016-05-15T10:38:05.000Z</time>
      </trkpt>
      <trkpt lat="44.56372" lon="4.30776">
        <ele>393</ele>
        <time>2016-05-15T10:38:06.000Z</time>
      </trkpt>
      <trkpt lat="44.56372" lon="4.30776">
        <ele>393</ele>
        <time>2016-05-15T10:38:07.000Z</time>
      </trkpt>
      <trkpt lat="44.56373" lon="4.30775">
        <ele>393</ele>
        <time>2016-05-15T10:38:08.000Z</time>
      </trkpt>
      <trkpt lat="44.56373" lon="4.30775">
        <ele>393</ele>
        <time>2016-05-15T10:38:09.000Z</time>
      </trkpt>
      <trkpt lat="44.56373" lon="4.30775">
        <ele>393</ele>
        <time>2016-05-15T10:38:10.000Z</time>
      </trkpt>
      <trkpt lat="44.56373" lon="4.30775">
        <ele>393</ele>
        <time>2016-05-15T10:38:11.000Z</time>
      </trkpt>
      <trkpt lat="44.56373" lon="4.30775">
        <ele>393</ele>
        <time>2016-05-15T10:38:12.000Z</time>
      </trkpt>
      <trkpt lat="44.56373" lon="4.30775">
        <ele>393</ele>
        <time>2016-05-15T10:38:13.000Z</time>
      </trkpt>
      <trkpt lat="44.56373" lon="4.30775">
        <ele>393</ele>
        <time>2016-05-15T10:38:14.000Z</time>
      </trkpt>
      <trkpt lat="44.56373" lon="4.30775">
        <ele>393</ele>
        <time>2016-05-15T10:38:15.000Z</time>
      </trkpt>
      <trkpt lat="44.56373" lon="4.30775">
        <ele>393</ele>
        <time>2016-05-15T10:38:16.000Z</time>
      </trkpt>
      <trkpt lat="44.56373" lon="4.30775">
        <ele>393</ele>
        <time>2016-05-15T10:38:17.000Z</time>
      </trkpt>
      <trkpt lat="44.56373" lon="4.30775">
        <ele>393</ele>
        <time>2016-05-15T10:38:18.000Z</time>
      </trkpt>
      <trkpt lat="44.56373" lon="4.30775">
        <ele>393</ele>
        <time>2016-05-15T10:38:19.000Z</time>
      </trkpt>
      <trkpt lat="44.56373" lon="4.30775">
        <ele>393</ele>
        <time>2016-05-15T10:38:20.000Z</time>
      </trkpt>
      <trkpt lat="44.56373" lon="4.30775">
        <ele>393</ele>
        <time>2016-05-15T10:38:21.000Z</time>
      </trkpt>
      <trkpt lat="44.56373" lon="4.30775">
        <ele>393</ele>
        <time>2016-05-15T10:38:22.000Z</time>
      </trkpt>
      <trkpt lat="44.56373" lon="4.30775">
        <ele>393</ele>
        <time>2016-05-15T10:38:23.000Z</time>
      </trkpt>
      <trkpt lat="44.56373" lon="4.30775">
        <ele>393</ele>
        <time>2016-05-15T10:38:24.000Z</time>
      </trkpt>
      <trkpt lat="44.56373" lon="4.30775">
        <ele>393</ele>
        <time>2016-05-15T10:38:25.000Z</time>
      </trkpt>
      <trkpt lat="44.56373" lon="4.30775">
        <ele>393</ele>
        <time>2016-05-15T10:38:26.000Z</time>
      </trkpt>
      <trkpt lat="44.56373" lon="4.30775">
        <ele>393</ele>
        <time>2016-05-15T10:38:27.000Z</time>
      </trkpt>
      <trkpt lat="44.56373" lon="4.30775">
        <ele>393</ele>
        <time>2016-05-15T10:38:28.000Z</time>
      </trkpt>
      <trkpt lat="44.56373" lon="4.30775">
        <ele>393</ele>
        <time>2016-05-15T10:38:29.000Z</time>
      </trkpt>
      <trkpt lat="44.56373" lon="4.30775">
        <ele>393</ele>
        <time>2016-05-15T10:38:30.000Z</time>
      </trkpt>
      <trkpt lat="44.56373" lon="4.30775">
        <ele>393</ele>
        <time>2016-05-15T10:38:31.000Z</time>
      </trkpt>
      <trkpt lat="44.56373" lon="4.30775">
        <ele>393</ele>
        <time>2016-05-15T10:38:32.000Z</time>
      </trkpt>
      <trkpt lat="44.56373" lon="4.30774">
        <ele>393</ele>
        <time>2016-05-15T10:38:33.000Z</time>
      </trkpt>
      <trkpt lat="44.56374" lon="4.30774">
        <ele>393</ele>
        <time>2016-05-15T10:38:34.000Z</time>
      </trkpt>
      <trkpt lat="44.56374" lon="4.30774">
        <ele>393</ele>
        <time>2016-05-15T10:38:35.000Z</time>
      </trkpt>
      <trkpt lat="44.56374" lon="4.30774">
        <ele>393</ele>
        <time>2016-05-15T10:38:36.000Z</time>
      </trkpt>
      <trkpt lat="44.56374" lon="4.30774">
        <ele>393</ele>
        <time>2016-05-15T10:38:37.000Z</time>
      </trkpt>
      <trkpt lat="44.56374" lon="4.30774">
        <ele>393</ele>
        <time>2016-05-15T10:38:38.000Z</time>
      </trkpt>
      <trkpt lat="44.56374" lon="4.30774">
        <ele>393</ele>
        <time>2016-05-15T10:38:39.000Z</time>
      </trkpt>
      <trkpt lat="44.56374" lon="4.30774">
        <ele>393</ele>
        <time>2016-05-15T10:38:40.000Z</time>
      </trkpt>
      <trkpt lat="44.56374" lon="4.30774">
        <ele>393</ele>
        <time>2016-05-15T10:38:41.000Z</time>
      </trkpt>
      <trkpt lat="44.56374" lon="4.30774">
        <ele>393</ele>
        <time>2016-05-15T10:38:42.000Z</time>
      </trkpt>
      <trkpt lat="44.56374" lon="4.30774">
        <ele>393</ele>
        <time>2016-05-15T10:38:43.000Z</time>
      </trkpt>
      <trkpt lat="44.56374" lon="4.30773">
        <ele>393</ele>
        <time>2016-05-15T10:38:44.000Z</time>
      </trkpt>
      <trkpt lat="44.56374" lon="4.30773">
        <ele>393</ele>
        <time>2016-05-15T10:38:45.000Z</time>
      </trkpt>
      <trkpt lat="44.56374" lon="4.30773">
        <ele>393</ele>
        <time>2016-05-15T10:38:46.000Z</time>
      </trkpt>
      <trkpt lat="44.56374" lon="4.30773">
        <ele>393</ele>
        <time>2016-05-15T10:38:47.000Z</time>
      </trkpt>
      <trkpt lat="44.56374" lon="4.30773">
        <ele>393</ele>
        <time>2016-05-15T10:38:48.000Z</time>
      </trkpt>
      <trkpt lat="44.56374" lon="4.30773">
        <ele>393</ele>
        <time>2016-05-15T10:38:49.000Z</time>
      </trkpt>
      <trkpt lat="44.56374" lon="4.30773">
        <ele>393</ele>
        <time>2016-05-15T10:38:50.000Z</time>
      </trkpt>
      <trkpt lat="44.56374" lon="4.30773">
        <ele>393</ele>
        <time>2016-05-15T10:38:51.000Z</time>
      </trkpt>
      <trkpt lat="44.56374" lon="4.30773">
        <ele>393</ele>
        <time>2016-05-15T10:38:52.000Z</time>
      </trkpt>
      <trkpt lat="44.56374" lon="4.30773">
        <ele>393</ele>
        <time>2016-05-15T10:38:53.000Z</time>
      </trkpt>
      <trkpt lat="44.56374" lon="4.30773">
        <ele>393</ele>
        <time>2016-05-15T10:38:54.000Z</time>
      </trkpt>
      <trkpt lat="44.56374" lon="4.30773">
        <ele>393</ele>
        <time>2016-05-15T10:38:55.000Z</time>
      </trkpt>
      <trkpt lat="44.56374" lon="4.30772">
        <ele>393</ele>
        <time>2016-05-15T10:38:56.000Z</time>
      </trkpt>
      <trkpt lat="44.56374" lon="4.30772">
        <ele>393</ele>
        <time>2016-05-15T10:38:57.000Z</time>
      </trkpt>
      <trkpt lat="44.56374" lon="4.30772">
        <ele>393</ele>
        <time>2016-05-15T10:38:58.000Z</time>
      </trkpt>
      <trkpt lat="44.56374" lon="4.30772">
        <ele>393</ele>
        <time>2016-05-15T10:38:59.000Z</time>
      </trkpt>
      <trkpt lat="44.56374" lon="4.30772">
        <ele>393</ele>
        <time>2016-05-15T10:39:00.000Z</time>
      </trkpt>
      <trkpt lat="44.56374" lon="4.30772">
        <ele>393</ele>
        <time>2016-05-15T10:39:01.000Z</time>
      </trkpt>
      <trkpt lat="44.56374" lon="4.30772">
        <ele>393</ele>
        <time>2016-05-15T10:39:02.000Z</time>
      </trkpt>
      <trkpt lat="44.56374" lon="4.30772">
        <ele>393</ele>
        <time>2016-05-15T10:39:03.000Z</time>
      </trkpt>
      <trkpt lat="44.56374" lon="4.30772">
        <ele>393</ele>
        <time>2016-05-15T10:39:04.000Z</time>
      </trkpt>
      <trkpt lat="44.56374" lon="4.30772">
        <ele>393</ele>
        <time>2016-05-15T10:39:05.000Z</time>
      </trkpt>
      <trkpt lat="44.56374" lon="4.30772">
        <ele>393</ele>
        <time>2016-05-15T10:39:06.000Z</time>
      </trkpt>
      <trkpt lat="44.56374" lon="4.30772">
        <ele>393</ele>
        <time>2016-05-15T10:39:07.000Z</time>
      </trkpt>
      <trkpt lat="44.56374" lon="4.30772">
        <ele>393</ele>
        <time>2016-05-15T10:39:08.000Z</time>
      </trkpt>
      <trkpt lat="44.56374" lon="4.30772">
        <ele>393</ele>
        <time>2016-05-15T10:39:09.000Z</time>
      </trkpt>
      <trkpt lat="44.56374" lon="4.30772">
        <ele>393</ele>
        <time>2016-05-15T10:39:10.000Z</time>
      </trkpt>
      <trkpt lat="44.56374" lon="4.30772">
        <ele>393</ele>
        <time>2016-05-15T10:39:11.000Z</time>
      </trkpt>
      <trkpt lat="44.56374" lon="4.30772">
        <ele>393</ele>
        <time>2016-05-15T10:39:12.000Z</time>
      </trkpt>
      <trkpt lat="44.56374" lon="4.30771">
        <ele>393</ele>
        <time>2016-05-15T10:39:13.000Z</time>
      </trkpt>
      <trkpt lat="44.56374" lon="4.30771">
        <ele>393</ele>
        <time>2016-05-15T10:39:14.000Z</time>
      </trkpt>
      <trkpt lat="44.56374" lon="4.30771">
        <ele>393</ele>
        <time>2016-05-15T10:39:15.000Z</time>
      </trkpt>
      <trkpt lat="44.56374" lon="4.30771">
        <ele>393</ele>
        <time>2016-05-15T10:39:16.000Z</time>
      </trkpt>
      <trkpt lat="44.56374" lon="4.30771">
        <ele>393</ele>
        <time>2016-05-15T10:39:17.000Z</time>
      </trkpt>
      <trkpt lat="44.56374" lon="4.30771">
        <ele>393</ele>
        <time>2016-05-15T10:39:18.000Z</time>
      </trkpt>
      <trkpt lat="44.56374" lon="4.30771">
        <ele>393</ele>
        <time>2016-05-15T10:39:19.000Z</time>
      </trkpt>
      <trkpt lat="44.56374" lon="4.30771">
        <ele>393</ele>
        <time>2016-05-15T10:39:20.000Z</time>
      </trkpt>
      <trkpt lat="44.56374" lon="4.30771">
        <ele>393</ele>
        <time>2016-05-15T10:39:21.000Z</time>
      </trkpt>
      <trkpt lat="44.56374" lon="4.30771">
        <ele>393</ele>
        <time>2016-05-15T10:39:22.000Z</time>
      </trkpt>
      <trkpt lat="44.56374" lon="4.30771">
        <ele>393</ele>
        <time>2016-05-15T10:39:23.000Z</time>
      </trkpt>
      <trkpt lat="44.56374" lon="4.30771">
        <ele>393</ele>
        <time>2016-05-15T10:39:24.000Z</time>
      </trkpt>
      <trkpt lat="44.56374" lon="4.30771">
        <ele>393</ele>
        <time>2016-05-15T10:39:25.000Z</time>
      </trkpt>
      <trkpt lat="44.56374" lon="4.30771">
        <ele>393</ele>
        <time>2016-05-15T10:39:26.000Z</time>
      </trkpt>
      <trkpt lat="44.56374" lon="4.30771">
        <ele>393</ele>
        <time>2016-05-15T10:39:27.000Z</time>
      </trkpt>
      <trkpt lat="44.56374" lon="4.30771">
        <ele>393</ele>
        <time>2016-05-15T10:39:28.000Z</time>
      </trkpt>
      <trkpt lat="44.56374" lon="4.30771">
        <ele>393</ele>
        <time>2016-05-15T10:39:29.000Z</time>
      </trkpt>
      <trkpt lat="44.56375" lon="4.30771">
        <ele>393</ele>
        <time>2016-05-15T10:39:30.000Z</time>
      </trkpt>
      <trkpt lat="44.56375" lon="4.30771">
        <ele>393</ele>
        <time>2016-05-15T10:39:31.000Z</time>
      </trkpt>
      <trkpt lat="44.56375" lon="4.30771">
        <ele>393</ele>
        <time>2016-05-15T10:39:32.000Z</time>
      </trkpt>
      <trkpt lat="44.56375" lon="4.30771">
        <ele>393</ele>
        <time>2016-05-15T10:39:33.000Z</time>
      </trkpt>
      <trkpt lat="44.56375" lon="4.30771">
        <ele>393</ele>
        <time>2016-05-15T10:39:34.000Z</time>
      </trkpt>
      <trkpt lat="44.56375" lon="4.30771">
        <ele>393</ele>
        <time>2016-05-15T10:39:35.000Z</time>
      </trkpt>
      <trkpt lat="44.56375" lon="4.30771">
        <ele>393</ele>
        <time>2016-05-15T10:39:36.000Z</time>
      </trkpt>
      <trkpt lat="44.56375" lon="4.3077">
        <ele>393</ele>
        <time>2016-05-15T10:39:37.000Z</time>
      </trkpt>
      <trkpt lat="44.56375" lon="4.3077">
        <ele>393</ele>
        <time>2016-05-15T10:39:38.000Z</time>
      </trkpt>
      <trkpt lat="44.56375" lon="4.3077">
        <ele>393</ele>
        <time>2016-05-15T10:39:39.000Z</time>
      </trkpt>
      <trkpt lat="44.56375" lon="4.3077">
        <ele>393</ele>
        <time>2016-05-15T10:39:40.000Z</time>
      </trkpt>
      <trkpt lat="44.56375" lon="4.3077">
        <ele>393</ele>
        <time>2016-05-15T10:39:41.000Z</time>
      </trkpt>
      <trkpt lat="44.56375" lon="4.3077">
        <ele>393</ele>
        <time>2016-05-15T10:39:42.000Z</time>
      </trkpt>
      <trkpt lat="44.56375" lon="4.3077">
        <ele>393</ele>
        <time>2016-05-15T10:39:43.000Z</time>
      </trkpt>
      <trkpt lat="44.56375" lon="4.3077">
        <ele>393</ele>
        <time>2016-05-15T10:39:44.000Z</time>
      </trkpt>
      <trkpt lat="44.56375" lon="4.3077">
        <ele>393</ele>
        <time>2016-05-15T10:39:45.000Z</time>
      </trkpt>
      <trkpt lat="44.56375" lon="4.3077">
        <ele>393</ele>
        <time>2016-05-15T10:39:46.000Z</time>
      </trkpt>
      <trkpt lat="44.56375" lon="4.3077">
        <ele>393</ele>
        <time>2016-05-15T10:39:47.000Z</time>
      </trkpt>
      <trkpt lat="44.56375" lon="4.3077">
        <ele>393</ele>
        <time>2016-05-15T10:39:48.000Z</time>
      </trkpt>
      <trkpt lat="44.56375" lon="4.3077">
        <ele>393</ele>
        <time>2016-05-15T10:39:49.000Z</time>
      </trkpt>
      <trkpt lat="44.56375" lon="4.3077">
        <ele>393</ele>
        <time>2016-05-15T10:39:50.000Z</time>
      </trkpt>
      <trkpt lat="44.56375" lon="4.3077">
        <ele>393</ele>
        <time>2016-05-15T10:39:51.000Z</time>
      </trkpt>
      <trkpt lat="44.56375" lon="4.3077">
        <ele>393</ele>
        <time>2016-05-15T10:39:52.000Z</time>
      </trkpt>
      <trkpt lat="44.56375" lon="4.3077">
        <ele>393</ele>
        <time>2016-05-15T10:39:53.000Z</time>
      </trkpt>
      <trkpt lat="44.56375" lon="4.3077">
        <ele>393</ele>
        <time>2016-05-15T10:39:54.000Z</time>
      </trkpt>
      <trkpt lat="44.56375" lon="4.3077">
        <ele>393</ele>
        <time>2016-05-15T10:39:55.000Z</time>
      </trkpt>
      <trkpt lat="44.56375" lon="4.3077">
        <ele>393</ele>
        <time>2016-05-15T10:39:56.000Z</time>
      </trkpt>
      <trkpt lat="44.56375" lon="4.3077">
        <ele>393</ele>
        <time>2016-05-15T10:39:57.000Z</time>
      </trkpt>
      <trkpt lat="44.56375" lon="4.3077">
        <ele>393</ele>
        <time>2016-05-15T10:39:58.000Z</time>
      </trkpt>
      <trkpt lat="44.56375" lon="4.3077">
        <ele>393</ele>
        <time>2016-05-15T10:39:59.000Z</time>
      </trkpt>
      <trkpt lat="44.56375" lon="4.3077">
        <ele>393</ele>
        <time>2016-05-15T10:40:00.000Z</time>
      </trkpt>
      <trkpt lat="44.56375" lon="4.3077">
        <ele>393</ele>
        <time>2016-05-15T10:40:01.000Z</time>
      </trkpt>
      <trkpt lat="44.56376" lon="4.3077">
        <ele>393</ele>
        <time>2016-05-15T10:40:02.000Z</time>
      </trkpt>
      <trkpt lat="44.56376" lon="4.3077">
        <ele>393</ele>
        <time>2016-05-15T10:40:03.000Z</time>
      </trkpt>
      <trkpt lat="44.56376" lon="4.3077">
        <ele>393</ele>
        <time>2016-05-15T10:40:04.000Z</time>
      </trkpt>
      <trkpt lat="44.56376" lon="4.3077">
        <ele>393</ele>
        <time>2016-05-15T10:40:05.000Z</time>
      </trkpt>
      <trkpt lat="44.56376" lon="4.3077">
        <ele>393</ele>
        <time>2016-05-15T10:40:06.000Z</time>
      </trkpt>
      <trkpt lat="44.56375" lon="4.3077">
        <ele>393</ele>
        <time>2016-05-15T10:40:07.000Z</time>
      </trkpt>
      <trkpt lat="44.56375" lon="4.3077">
        <ele>393</ele>
        <time>2016-05-15T10:40:08.000Z</time>
      </trkpt>
      <trkpt lat="44.56375" lon="4.30771">
        <ele>393</ele>
        <time>2016-05-15T10:40:09.000Z</time>
      </trkpt>
      <trkpt lat="44.56375" lon="4.30771">
        <ele>393</ele>
        <time>2016-05-15T10:40:10.000Z</time>
      </trkpt>
      <trkpt lat="44.56375" lon="4.30771">
        <ele>393</ele>
        <time>2016-05-15T10:40:11.000Z</time>
      </trkpt>
      <trkpt lat="44.56375" lon="4.30771">
        <ele>393</ele>
        <time>2016-05-15T10:40:12.000Z</time>
      </trkpt>
      <trkpt lat="44.56375" lon="4.30771">
        <ele>393</ele>
        <time>2016-05-15T10:40:13.000Z</time>
      </trkpt>
      <trkpt lat="44.56375" lon="4.30771">
        <ele>393</ele>
        <time>2016-05-15T10:40:14.000Z</time>
      </trkpt>
      <trkpt lat="44.56375" lon="4.30771">
        <ele>393</ele>
        <time>2016-05-15T10:40:15.000Z</time>
      </trkpt>
      <trkpt lat="44.56375" lon="4.30771">
        <ele>393</ele>
        <time>2016-05-15T10:40:16.000Z</time>
      </trkpt>
      <trkpt lat="44.56375" lon="4.30771">
        <ele>393</ele>
        <time>2016-05-15T10:40:17.000Z</time>
      </trkpt>
      <trkpt lat="44.56375" lon="4.30771">
        <ele>393</ele>
        <time>2016-05-15T10:40:18.000Z</time>
      </trkpt>
      <trkpt lat="44.56375" lon="4.30771">
        <ele>393</ele>
        <time>2016-05-15T10:40:19.000Z</time>
      </trkpt>
      <trkpt lat="44.56375" lon="4.30771">
        <ele>393</ele>
        <time>2016-05-15T10:40:20.000Z</time>
      </trkpt>
      <trkpt lat="44.56375" lon="4.30771">
        <ele>393</ele>
        <time>2016-05-15T10:40:21.000Z</time>
      </trkpt>
      <trkpt lat="44.56375" lon="4.30771">
        <ele>393</ele>
        <time>2016-05-15T10:40:22.000Z</time>
      </trkpt>
      <trkpt lat="44.56375" lon="4.30771">
        <ele>393</ele>
        <time>2016-05-15T10:40:23.000Z</time>
      </trkpt>
      <trkpt lat="44.56375" lon="4.30771">
        <ele>393</ele>
        <time>2016-05-15T10:40:24.000Z</time>
      </trkpt>
      <trkpt lat="44.56375" lon="4.30771">
        <ele>393</ele>
        <time>2016-05-15T10:40:25.000Z</time>
      </trkpt>
      <trkpt lat="44.56375" lon="4.30771">
        <ele>393</ele>
        <time>2016-05-15T10:40:26.000Z</time>
      </trkpt>
      <trkpt lat="44.56375" lon="4.30771">
        <ele>393</ele>
        <time>2016-05-15T10:40:27.000Z</time>
      </trkpt>
      <trkpt lat="44.56375" lon="4.30771">
        <ele>393</ele>
        <time>2016-05-15T10:40:28.000Z</time>
      </trkpt>
      <trkpt lat="44.56375" lon="4.30771">
        <ele>393</ele>
        <time>2016-05-15T10:40:29.000Z</time>
      </trkpt>
      <trkpt lat="44.56375" lon="4.30771">
        <ele>393</ele>
        <time>2016-05-15T10:40:30.000Z</time>
      </trkpt>
      <trkpt lat="44.56375" lon="4.30771">
        <ele>393</ele>
        <time>2016-05-15T10:40:31.000Z</time>
      </trkpt>
      <trkpt lat="44.56375" lon="4.30771">
        <ele>393</ele>
        <time>2016-05-15T10:40:32.000Z</time>
      </trkpt>
      <trkpt lat="44.56375" lon="4.30771">
        <ele>393</ele>
        <time>2016-05-15T10:40:33.000Z</time>
      </trkpt>
      <trkpt lat="44.56375" lon="4.30771">
        <ele>393</ele>
        <time>2016-05-15T10:40:34.000Z</time>
      </trkpt>
      <trkpt lat="44.56375" lon="4.30771">
        <ele>393</ele>
        <time>2016-05-15T10:40:35.000Z</time>
      </trkpt>
      <trkpt lat="44.56375" lon="4.30771">
        <ele>393</ele>
        <time>2016-05-15T10:40:36.000Z</time>
      </trkpt>
      <trkpt lat="44.56375" lon="4.30771">
        <ele>393</ele>
        <time>2016-05-15T10:40:37.000Z</time>
      </trkpt>
      <trkpt lat="44.56375" lon="4.30771">
        <ele>393</ele>
        <time>2016-05-15T10:40:38.000Z</time>
      </trkpt>
      <trkpt lat="44.56375" lon="4.30771">
        <ele>393</ele>
        <time>2016-05-15T10:40:39.000Z</time>
      </trkpt>
      <trkpt lat="44.56375" lon="4.30771">
        <ele>393</ele>
        <time>2016-05-15T10:40:40.000Z</time>
      </trkpt>
      <trkpt lat="44.56375" lon="4.30771">
        <ele>393</ele>
        <time>2016-05-15T10:40:41.000Z</time>
      </trkpt>
      <trkpt lat="44.56375" lon="4.30771">
        <ele>393</ele>
        <time>2016-05-15T10:40:42.000Z</time>
      </trkpt>
      <trkpt lat="44.56375" lon="4.30771">
        <ele>393</ele>
        <time>2016-05-15T10:40:43.000Z</time>
      </trkpt>
      <trkpt lat="44.56375" lon="4.30771">
        <ele>393</ele>
        <time>2016-05-15T10:40:44.000Z</time>
      </trkpt>
      <trkpt lat="44.56375" lon="4.30771">
        <ele>393</ele>
        <time>2016-05-15T10:40:45.000Z</time>
      </trkpt>
      <trkpt lat="44.56375" lon="4.30771">
        <ele>393</ele>
        <time>2016-05-15T10:40:46.000Z</time>
      </trkpt>
      <trkpt lat="44.56375" lon="4.30771">
        <ele>393</ele>
        <time>2016-05-15T10:40:47.000Z</time>
      </trkpt>
      <trkpt lat="44.56375" lon="4.30771">
        <ele>393</ele>
        <time>2016-05-15T10:40:48.000Z</time>
      </trkpt>
      <trkpt lat="44.56375" lon="4.30771">
        <ele>393</ele>
        <time>2016-05-15T10:40:49.000Z</time>
      </trkpt>
      <trkpt lat="44.56375" lon="4.30771">
        <ele>393</ele>
        <time>2016-05-15T10:40:50.000Z</time>
      </trkpt>
      <trkpt lat="44.56375" lon="4.30771">
        <ele>393</ele>
        <time>2016-05-15T10:40:51.000Z</time>
      </trkpt>
      <trkpt lat="44.56375" lon="4.30771">
        <ele>393</ele>
        <time>2016-05-15T10:40:52.000Z</time>
      </trkpt>
      <trkpt lat="44.56375" lon="4.30771">
        <ele>393</ele>
        <time>2016-05-15T10:40:53.000Z</time>
      </trkpt>
      <trkpt lat="44.56375" lon="4.30771">
        <ele>393</ele>
        <time>2016-05-15T10:40:54.000Z</time>
      </trkpt>
      <trkpt lat="44.56375" lon="4.30771">
        <ele>393</ele>
        <time>2016-05-15T10:40:55.000Z</time>
      </trkpt>
      <trkpt lat="44.56375" lon="4.30771">
        <ele>393</ele>
        <time>2016-05-15T10:40:56.000Z</time>
      </trkpt>
      <trkpt lat="44.56375" lon="4.30771">
        <ele>393</ele>
        <time>2016-05-15T10:40:57.000Z</time>
      </trkpt>
      <trkpt lat="44.56375" lon="4.30771">
        <ele>393</ele>
        <time>2016-05-15T10:40:58.000Z</time>
      </trkpt>
      <trkpt lat="44.56375" lon="4.30771">
        <ele>393</ele>
        <time>2016-05-15T10:40:59.000Z</time>
      </trkpt>
      <trkpt lat="44.56375" lon="4.30771">
        <ele>393</ele>
        <time>2016-05-15T10:41:00.000Z</time>
      </trkpt>
      <trkpt lat="44.56375" lon="4.30771">
        <ele>393</ele>
        <time>2016-05-15T10:41:01.000Z</time>
      </trkpt>
      <trkpt lat="44.56375" lon="4.30771">
        <ele>393</ele>
        <time>2016-05-15T10:41:02.000Z</time>
      </trkpt>
      <trkpt lat="44.56375" lon="4.30771">
        <ele>393</ele>
        <time>2016-05-15T10:41:03.000Z</time>
      </trkpt>
      <trkpt lat="44.56375" lon="4.30771">
        <ele>393</ele>
        <time>2016-05-15T10:41:04.000Z</time>
      </trkpt>
      <trkpt lat="44.56375" lon="4.30771">
        <ele>393</ele>
        <time>2016-05-15T10:41:05.000Z</time>
      </trkpt>
      <trkpt lat="44.56375" lon="4.30771">
        <ele>393</ele>
        <time>2016-05-15T10:41:06.000Z</time>
      </trkpt>
      <trkpt lat="44.56375" lon="4.30771">
        <ele>393</ele>
        <time>2016-05-15T10:41:07.000Z</time>
      </trkpt>
      <trkpt lat="44.56375" lon="4.30771">
        <ele>393</ele>
        <time>2016-05-15T10:41:08.000Z</time>
      </trkpt>
      <trkpt lat="44.56375" lon="4.30771">
        <ele>393</ele>
        <time>2016-05-15T10:41:09.000Z</time>
      </trkpt>
      <trkpt lat="44.56375" lon="4.30771">
        <ele>393</ele>
        <time>2016-05-15T10:41:10.000Z</time>
      </trkpt>
      <trkpt lat="44.56375" lon="4.30771">
        <ele>393</ele>
        <time>2016-05-15T10:41:11.000Z</time>
      </trkpt>
      <trkpt lat="44.56375" lon="4.30772">
        <ele>393</ele>
        <time>2016-05-15T10:41:12.000Z</time>
      </trkpt>
      <trkpt lat="44.56375" lon="4.30772">
        <ele>393</ele>
        <time>2016-05-15T10:41:13.000Z</time>
      </trkpt>
      <trkpt lat="44.56375" lon="4.30772">
        <ele>393</ele>
        <time>2016-05-15T10:41:14.000Z</time>
      </trkpt>
      <trkpt lat="44.56375" lon="4.30772">
        <ele>393</ele>
        <time>2016-05-15T10:41:15.000Z</time>
      </trkpt>
      <trkpt lat="44.56375" lon="4.30772">
        <ele>393</ele>
        <time>2016-05-15T10:41:16.000Z</time>
      </trkpt>
      <trkpt lat="44.56375" lon="4.30772">
        <ele>393</ele>
        <time>2016-05-15T10:41:17.000Z</time>
      </trkpt>
      <trkpt lat="44.56375" lon="4.30772">
        <ele>393</ele>
        <time>2016-05-15T10:41:18.000Z</time>
      </trkpt>
      <trkpt lat="44.56375" lon="4.30772">
        <ele>393</ele>
        <time>2016-05-15T10:41:19.000Z</time>
      </trkpt>
      <trkpt lat="44.56375" lon="4.30772">
        <ele>393</ele>
        <time>2016-05-15T10:41:20.000Z</time>
      </trkpt>
      <trkpt lat="44.56375" lon="4.30772">
        <ele>393</ele>
        <time>2016-05-15T10:41:21.000Z</time>
      </trkpt>
      <trkpt lat="44.56375" lon="4.30772">
        <ele>393</ele>
        <time>2016-05-15T10:41:22.000Z</time>
      </trkpt>
      <trkpt lat="44.56375" lon="4.30772">
        <ele>393</ele>
        <time>2016-05-15T10:41:23.000Z</time>
      </trkpt>
      <trkpt lat="44.56375" lon="4.30772">
        <ele>393</ele>
        <time>2016-05-15T10:41:24.000Z</time>
      </trkpt>
      <trkpt lat="44.56375" lon="4.30772">
        <ele>393</ele>
        <time>2016-05-15T10:41:25.000Z</time>
      </trkpt>
      <trkpt lat="44.56375" lon="4.30772">
        <ele>393</ele>
        <time>2016-05-15T10:41:26.000Z</time>
      </trkpt>
      <trkpt lat="44.56375" lon="4.30772">
        <ele>393</ele>
        <time>2016-05-15T10:41:27.000Z</time>
      </trkpt>
      <trkpt lat="44.56375" lon="4.30772">
        <ele>393</ele>
        <time>2016-05-15T10:41:28.000Z</time>
      </trkpt>
      <trkpt lat="44.56375" lon="4.30772">
        <ele>393</ele>
        <time>2016-05-15T10:41:29.000Z</time>
      </trkpt>
      <trkpt lat="44.56375" lon="4.30772">
        <ele>393</ele>
        <time>2016-05-15T10:41:30.000Z</time>
      </trkpt>
      <trkpt lat="44.56375" lon="4.30772">
        <ele>393</ele>
        <time>2016-05-15T10:41:31.000Z</time>
      </trkpt>
      <trkpt lat="44.56375" lon="4.30772">
        <ele>393</ele>
        <time>2016-05-15T10:41:32.000Z</time>
      </trkpt>
      <trkpt lat="44.56375" lon="4.30772">
        <ele>393</ele>
        <time>2016-05-15T10:41:33.000Z</time>
      </trkpt>
      <trkpt lat="44.56375" lon="4.30772">
        <ele>393</ele>
        <time>2016-05-15T10:41:34.000Z</time>
      </trkpt>
      <trkpt lat="44.56375" lon="4.30772">
        <ele>393</ele>
        <time>2016-05-15T10:41:35.000Z</time>
      </trkpt>
      <trkpt lat="44.56375" lon="4.30772">
        <ele>393</ele>
        <time>2016-05-15T10:41:36.000Z</time>
      </trkpt>
      <trkpt lat="44.56375" lon="4.30772">
        <ele>393</ele>
        <time>2016-05-15T10:41:37.000Z</time>
      </trkpt>
      <trkpt lat="44.56375" lon="4.30772">
        <ele>393</ele>
        <time>2016-05-15T10:41:38.000Z</time>
      </trkpt>
      <trkpt lat="44.56375" lon="4.30772">
        <ele>393</ele>
        <time>2016-05-15T10:41:39.000Z</time>
      </trkpt>
      <trkpt lat="44.56375" lon="4.30772">
        <ele>393</ele>
        <time>2016-05-15T10:41:40.000Z</time>
      </trkpt>
      <trkpt lat="44.56375" lon="4.30772">
        <ele>393</ele>
        <time>2016-05-15T10:41:41.000Z</time>
      </trkpt>
      <trkpt lat="44.56375" lon="4.30772">
        <ele>393</ele>
        <time>2016-05-15T10:41:42.000Z</time>
      </trkpt>
      <trkpt lat="44.56375" lon="4.30772">
        <ele>393</ele>
        <time>2016-05-15T10:41:43.000Z</time>
      </trkpt>
      <trkpt lat="44.56375" lon="4.30772">
        <ele>393</ele>
        <time>2016-05-15T10:41:44.000Z</time>
      </trkpt>
      <trkpt lat="44.56375" lon="4.30772">
        <ele>393</ele>
        <time>2016-05-15T10:41:45.000Z</time>
      </trkpt>
      <trkpt lat="44.56375" lon="4.30772">
        <ele>393</ele>
        <time>2016-05-15T10:41:46.000Z</time>
      </trkpt>
      <trkpt lat="44.56375" lon="4.30772">
        <ele>393</ele>
        <time>2016-05-15T10:41:47.000Z</time>
      </trkpt>
      <trkpt lat="44.56375" lon="4.30772">
        <ele>393</ele>
        <time>2016-05-15T10:41:48.000Z</time>
      </trkpt>
      <trkpt lat="44.56375" lon="4.30772">
        <ele>393</ele>
        <time>2016-05-15T10:41:49.000Z</time>
      </trkpt>
      <trkpt lat="44.56374" lon="4.30772">
        <ele>393</ele>
        <time>2016-05-15T10:41:50.000Z</time>
      </trkpt>
      <trkpt lat="44.56374" lon="4.30772">
        <ele>393</ele>
        <time>2016-05-15T10:41:51.000Z</time>
      </trkpt>
      <trkpt lat="44.56374" lon="4.30772">
        <ele>393</ele>
        <time>2016-05-15T10:41:52.000Z</time>
      </trkpt>
      <trkpt lat="44.56374" lon="4.30772">
        <ele>393</ele>
        <time>2016-05-15T10:41:53.000Z</time>
      </trkpt>
      <trkpt lat="44.56374" lon="4.30772">
        <ele>393</ele>
        <time>2016-05-15T10:41:54.000Z</time>
      </trkpt>
      <trkpt lat="44.56374" lon="4.30772">
        <ele>393</ele>
        <time>2016-05-15T10:41:55.000Z</time>
      </trkpt>
      <trkpt lat="44.56374" lon="4.30772">
        <ele>393</ele>
        <time>2016-05-15T10:41:56.000Z</time>
      </trkpt>
      <trkpt lat="44.56374" lon="4.30772">
        <ele>393</ele>
        <time>2016-05-15T10:41:57.000Z</time>
      </trkpt>
      <trkpt lat="44.56374" lon="4.30773">
        <ele>393</ele>
        <time>2016-05-15T10:41:58.000Z</time>
      </trkpt>
      <trkpt lat="44.56374" lon="4.30773">
        <ele>393</ele>
        <time>2016-05-15T10:41:59.000Z</time>
      </trkpt>
      <trkpt lat="44.56374" lon="4.30773">
        <ele>393</ele>
        <time>2016-05-15T10:42:00.000Z</time>
      </trkpt>
      <trkpt lat="44.56374" lon="4.30773">
        <ele>393</ele>
        <time>2016-05-15T10:42:01.000Z</time>
      </trkpt>
      <trkpt lat="44.56374" lon="4.30773">
        <ele>393</ele>
        <time>2016-05-15T10:42:02.000Z</time>
      </trkpt>
      <trkpt lat="44.56374" lon="4.30773">
        <ele>393</ele>
        <time>2016-05-15T10:42:03.000Z</time>
      </trkpt>
      <trkpt lat="44.56374" lon="4.30773">
        <ele>393</ele>
        <time>2016-05-15T10:42:04.000Z</time>
      </trkpt>
      <trkpt lat="44.56374" lon="4.30773">
        <ele>393</ele>
        <time>2016-05-15T10:42:05.000Z</time>
      </trkpt>
      <trkpt lat="44.56374" lon="4.30773">
        <ele>393</ele>
        <time>2016-05-15T10:42:06.000Z</time>
      </trkpt>
      <trkpt lat="44.56374" lon="4.30773">
        <ele>393</ele>
        <time>2016-05-15T10:42:07.000Z</time>
      </trkpt>
      <trkpt lat="44.56374" lon="4.30773">
        <ele>393</ele>
        <time>2016-05-15T10:42:08.000Z</time>
      </trkpt>
      <trkpt lat="44.56374" lon="4.30773">
        <ele>393</ele>
        <time>2016-05-15T10:42:09.000Z</time>
      </trkpt>
      <trkpt lat="44.56374" lon="4.30773">
        <ele>393</ele>
        <time>2016-05-15T10:42:10.000Z</time>
      </trkpt>
      <trkpt lat="44.56374" lon="4.30773">
        <ele>393</ele>
        <time>2016-05-15T10:42:11.000Z</time>
      </trkpt>
      <trkpt lat="44.56374" lon="4.30773">
        <ele>393</ele>
        <time>2016-05-15T10:42:12.000Z</time>
      </trkpt>
      <trkpt lat="44.56374" lon="4.30773">
        <ele>393</ele>
        <time>2016-05-15T10:42:13.000Z</time>
      </trkpt>
      <trkpt lat="44.56374" lon="4.30773">
        <ele>393</ele>
        <time>2016-05-15T10:42:14.000Z</time>
      </trkpt>
      <trkpt lat="44.56374" lon="4.30773">
        <ele>393</ele>
        <time>2016-05-15T10:42:15.000Z</time>
      </trkpt>
      <trkpt lat="44.56374" lon="4.30773">
        <ele>393</ele>
        <time>2016-05-15T10:42:16.000Z</time>
      </trkpt>
      <trkpt lat="44.56374" lon="4.30773">
        <ele>393</ele>
        <time>2016-05-15T10:42:17.000Z</time>
      </trkpt>
      <trkpt lat="44.56374" lon="4.30773">
        <ele>393</ele>
        <time>2016-05-15T10:42:18.000Z</time>
      </trkpt>
      <trkpt lat="44.56374" lon="4.30773">
        <ele>393</ele>
        <time>2016-05-15T10:42:19.000Z</time>
      </trkpt>
      <trkpt lat="44.56374" lon="4.30773">
        <ele>393</ele>
        <time>2016-05-15T10:42:20.000Z</time>
      </trkpt>
      <trkpt lat="44.56374" lon="4.30773">
        <ele>393</ele>
        <time>2016-05-15T10:42:21.000Z</time>
      </trkpt>
      <trkpt lat="44.56374" lon="4.30773">
        <ele>393</ele>
        <time>2016-05-15T10:42:22.000Z</time>
      </trkpt>
      <trkpt lat="44.56374" lon="4.30773">
        <ele>393</ele>
        <time>2016-05-15T10:42:23.000Z</time>
      </trkpt>
      <trkpt lat="44.56374" lon="4.30773">
        <ele>393</ele>
        <time>2016-05-15T10:42:24.000Z</time>
      </trkpt>
      <trkpt lat="44.56374" lon="4.30773">
        <ele>393</ele>
        <time>2016-05-15T10:42:25.000Z</time>
      </trkpt>
      <trkpt lat="44.56374" lon="4.30773">
        <ele>393</ele>
        <time>2016-05-15T10:42:26.000Z</time>
      </trkpt>
      <trkpt lat="44.56374" lon="4.30774">
        <ele>393</ele>
        <time>2016-05-15T10:42:27.000Z</time>
      </trkpt>
      <trkpt lat="44.56374" lon="4.30773">
        <ele>393</ele>
        <time>2016-05-15T10:42:28.000Z</time>
      </trkpt>
      <trkpt lat="44.56375" lon="4.30773">
        <ele>393</ele>
        <time>2016-05-15T10:42:29.000Z</time>
      </trkpt>
      <trkpt lat="44.56375" lon="4.30773">
        <ele>393</ele>
        <time>2016-05-15T10:42:30.000Z</time>
      </trkpt>
      <trkpt lat="44.56376" lon="4.30774">
        <ele>393</ele>
        <time>2016-05-15T10:42:31.000Z</time>
      </trkpt>
      <trkpt lat="44.56376" lon="4.30774">
        <ele>393</ele>
        <time>2016-05-15T10:42:32.000Z</time>
      </trkpt>
      <trkpt lat="44.56376" lon="4.30774">
        <ele>393</ele>
        <time>2016-05-15T10:42:33.000Z</time>
      </trkpt>
      <trkpt lat="44.56377" lon="4.30774">
        <ele>393</ele>
        <time>2016-05-15T10:42:34.000Z</time>
      </trkpt>
      <trkpt lat="44.56377" lon="4.30775">
        <ele>393</ele>
        <time>2016-05-15T10:42:35.000Z</time>
      </trkpt>
      <trkpt lat="44.56378" lon="4.30776">
        <ele>393</ele>
        <time>2016-05-15T10:42:36.000Z</time>
      </trkpt>
      <trkpt lat="44.5638" lon="4.30776">
        <ele>393</ele>
        <time>2016-05-15T10:42:37.000Z</time>
      </trkpt>
      <trkpt lat="44.56382" lon="4.30777">
        <ele>394</ele>
        <time>2016-05-15T10:42:38.000Z</time>
      </trkpt>
      <trkpt lat="44.56384" lon="4.30778">
        <ele>394</ele>
        <time>2016-05-15T10:42:39.000Z</time>
      </trkpt>
      <trkpt lat="44.56387" lon="4.3078">
        <ele>394</ele>
        <time>2016-05-15T10:42:40.000Z</time>
      </trkpt>
      <trkpt lat="44.56389" lon="4.30782">
        <ele>394</ele>
        <time>2016-05-15T10:42:41.000Z</time>
      </trkpt>
      <trkpt lat="44.56391" lon="4.30785">
        <ele>394</ele>
        <time>2016-05-15T10:42:42.000Z</time>
      </trkpt>
      <trkpt lat="44.56393" lon="4.30787">
        <ele>394</ele>
        <time>2016-05-15T10:42:43.000Z</time>
      </trkpt>
      <trkpt lat="44.56396" lon="4.3079">
        <ele>394</ele>
        <time>2016-05-15T10:42:44.000Z</time>
      </trkpt>
      <trkpt lat="44.56399" lon="4.30793">
        <ele>394</ele>
        <time>2016-05-15T10:42:45.000Z</time>
      </trkpt>
      <trkpt lat="44.56401" lon="4.30796">
        <ele>394</ele>
        <time>2016-05-15T10:42:46.000Z</time>
      </trkpt>
      <trkpt lat="44.56403" lon="4.30798">
        <ele>394</ele>
        <time>2016-05-15T10:42:47.000Z</time>
      </trkpt>
      <trkpt lat="44.56405" lon="4.308">
        <ele>394</ele>
        <time>2016-05-15T10:42:48.000Z</time>
      </trkpt>
      <trkpt lat="44.56406" lon="4.30801">
        <ele>394</ele>
        <time>2016-05-15T10:42:49.000Z</time>
      </trkpt>
      <trkpt lat="44.56408" lon="4.30803">
        <ele>394</ele>
        <time>2016-05-15T10:42:50.000Z</time>
      </trkpt>
      <trkpt lat="44.56409" lon="4.30804">
        <ele>394</ele>
        <time>2016-05-15T10:42:51.000Z</time>
      </trkpt>
      <trkpt lat="44.5641" lon="4.30804">
        <ele>394</ele>
        <time>2016-05-15T10:42:52.000Z</time>
      </trkpt>
      <trkpt lat="44.56412" lon="4.30805">
        <ele>394</ele>
        <time>2016-05-15T10:42:53.000Z</time>
      </trkpt>
      <trkpt lat="44.56413" lon="4.30807">
        <ele>394</ele>
        <time>2016-05-15T10:42:54.000Z</time>
      </trkpt>
      <trkpt lat="44.56415" lon="4.3081">
        <ele>394</ele>
        <time>2016-05-15T10:42:55.000Z</time>
      </trkpt>
      <trkpt lat="44.56416" lon="4.30812">
        <ele>394</ele>
        <time>2016-05-15T10:42:56.000Z</time>
      </trkpt>
      <trkpt lat="44.56419" lon="4.30814">
        <ele>402</ele>
        <time>2016-05-15T10:42:57.000Z</time>
      </trkpt>
      <trkpt lat="44.56421" lon="4.30817">
        <ele>401</ele>
        <time>2016-05-15T10:42:58.000Z</time>
      </trkpt>
      <trkpt lat="44.56423" lon="4.30818">
        <ele>401</ele>
        <time>2016-05-15T10:42:59.000Z</time>
      </trkpt>
      <trkpt lat="44.56425" lon="4.3082">
        <ele>401</ele>
        <time>2016-05-15T10:43:00.000Z</time>
      </trkpt>
      <trkpt lat="44.56427" lon="4.30822">
        <ele>401</ele>
        <time>2016-05-15T10:43:01.000Z</time>
      </trkpt>
      <trkpt lat="44.56429" lon="4.30823">
        <ele>401</ele>
        <time>2016-05-15T10:43:02.000Z</time>
      </trkpt>
      <trkpt lat="44.56432" lon="4.30824">
        <ele>402</ele>
        <time>2016-05-15T10:43:03.000Z</time>
      </trkpt>
      <trkpt lat="44.56434" lon="4.30824">
        <ele>402</ele>
        <time>2016-05-15T10:43:04.000Z</time>
      </trkpt>
      <trkpt lat="44.56436" lon="4.30825">
        <ele>403</ele>
        <time>2016-05-15T10:43:05.000Z</time>
      </trkpt>
      <trkpt lat="44.56438" lon="4.30826">
        <ele>403</ele>
        <time>2016-05-15T10:43:06.000Z</time>
      </trkpt>
      <trkpt lat="44.5644" lon="4.30827">
        <ele>404</ele>
        <time>2016-05-15T10:43:07.000Z</time>
      </trkpt>
      <trkpt lat="44.56443" lon="4.30828">
        <ele>404</ele>
        <time>2016-05-15T10:43:08.000Z</time>
      </trkpt>
      <trkpt lat="44.56445" lon="4.3083">
        <ele>404</ele>
        <time>2016-05-15T10:43:09.000Z</time>
      </trkpt>
      <trkpt lat="44.56447" lon="4.30831">
        <ele>405</ele>
        <time>2016-05-15T10:43:10.000Z</time>
      </trkpt>
      <trkpt lat="44.56449" lon="4.30833">
        <ele>405</ele>
        <time>2016-05-15T10:43:11.000Z</time>
      </trkpt>
      <trkpt lat="44.56451" lon="4.30835">
        <ele>400</ele>
        <time>2016-05-15T10:43:12.000Z</time>
      </trkpt>
      <trkpt lat="44.56453" lon="4.30838">
        <ele>401</ele>
        <time>2016-05-15T10:43:13.000Z</time>
      </trkpt>
      <trkpt lat="44.56454" lon="4.3084">
        <ele>401</ele>
        <time>2016-05-15T10:43:14.000Z</time>
      </trkpt>
      <trkpt lat="44.56456" lon="4.30842">
        <ele>401</ele>
        <time>2016-05-15T10:43:15.000Z</time>
      </trkpt>
      <trkpt lat="44.56458" lon="4.30844">
        <ele>401</ele>
        <time>2016-05-15T10:43:16.000Z</time>
      </trkpt>
      <trkpt lat="44.56459" lon="4.30846">
        <ele>401</ele>
        <time>2016-05-15T10:43:17.000Z</time>
      </trkpt>
      <trkpt lat="44.56461" lon="4.30848">
        <ele>402</ele>
        <time>2016-05-15T10:43:18.000Z</time>
      </trkpt>
      <trkpt lat="44.56463" lon="4.3085">
        <ele>402</ele>
        <time>2016-05-15T10:43:19.000Z</time>
      </trkpt>
      <trkpt lat="44.56465" lon="4.30852">
        <ele>402</ele>
        <time>2016-05-15T10:43:20.000Z</time>
      </trkpt>
      <trkpt lat="44.56467" lon="4.30854">
        <ele>402</ele>
        <time>2016-05-15T10:43:21.000Z</time>
      </trkpt>
      <trkpt lat="44.56469" lon="4.30856">
        <ele>402</ele>
        <time>2016-05-15T10:43:22.000Z</time>
      </trkpt>
      <trkpt lat="44.5647" lon="4.30858">
        <ele>402</ele>
        <time>2016-05-15T10:43:23.000Z</time>
      </trkpt>
      <trkpt lat="44.56472" lon="4.3086">
        <ele>402</ele>
        <time>2016-05-15T10:43:24.000Z</time>
      </trkpt>
      <trkpt lat="44.56474" lon="4.30862">
        <ele>402</ele>
        <time>2016-05-15T10:43:25.000Z</time>
      </trkpt>
      <trkpt lat="44.56475" lon="4.30865">
        <ele>402</ele>
        <time>2016-05-15T10:43:26.000Z</time>
      </trkpt>
      <trkpt lat="44.56477" lon="4.30867">
        <ele>402</ele>
        <time>2016-05-15T10:43:27.000Z</time>
      </trkpt>
      <trkpt lat="44.56478" lon="4.30869">
        <ele>402</ele>
        <time>2016-05-15T10:43:28.000Z</time>
      </trkpt>
      <trkpt lat="44.56479" lon="4.30872">
        <ele>402</ele>
        <time>2016-05-15T10:43:29.000Z</time>
      </trkpt>
      <trkpt lat="44.5648" lon="4.30875">
        <ele>402</ele>
        <time>2016-05-15T10:43:30.000Z</time>
      </trkpt>
      <trkpt lat="44.56481" lon="4.30878">
        <ele>402</ele>
        <time>2016-05-15T10:43:31.000Z</time>
      </trkpt>
      <trkpt lat="44.56482" lon="4.3088">
        <ele>402</ele>
        <time>2016-05-15T10:43:32.000Z</time>
      </trkpt>
      <trkpt lat="44.56483" lon="4.30883">
        <ele>402</ele>
        <time>2016-05-15T10:43:33.000Z</time>
      </trkpt>
      <trkpt lat="44.56483" lon="4.30886">
        <ele>402</ele>
        <time>2016-05-15T10:43:34.000Z</time>
      </trkpt>
      <trkpt lat="44.56484" lon="4.30889">
        <ele>402</ele>
        <time>2016-05-15T10:43:35.000Z</time>
      </trkpt>
      <trkpt lat="44.56485" lon="4.30892">
        <ele>402</ele>
        <time>2016-05-15T10:43:36.000Z</time>
      </trkpt>
      <trkpt lat="44.56486" lon="4.30895">
        <ele>402</ele>
        <time>2016-05-15T10:43:37.000Z</time>
      </trkpt>
      <trkpt lat="44.56487" lon="4.30898">
        <ele>402</ele>
        <time>2016-05-15T10:43:38.000Z</time>
      </trkpt>
      <trkpt lat="44.56488" lon="4.30901">
        <ele>402</ele>
        <time>2016-05-15T10:43:39.000Z</time>
      </trkpt>
      <trkpt lat="44.5649" lon="4.30903">
        <ele>402</ele>
        <time>2016-05-15T10:43:40.000Z</time>
      </trkpt>
      <trkpt lat="44.56491" lon="4.30906">
        <ele>403</ele>
        <time>2016-05-15T10:43:41.000Z</time>
      </trkpt>
      <trkpt lat="44.56493" lon="4.30908">
        <ele>403</ele>
        <time>2016-05-15T10:43:42.000Z</time>
      </trkpt>
      <trkpt lat="44.56494" lon="4.30911">
        <ele>404</ele>
        <time>2016-05-15T10:43:43.000Z</time>
      </trkpt>
      <trkpt lat="44.56496" lon="4.30913">
        <ele>404</ele>
        <time>2016-05-15T10:43:44.000Z</time>
      </trkpt>
      <trkpt lat="44.56498" lon="4.30916">
        <ele>404</ele>
        <time>2016-05-15T10:43:45.000Z</time>
      </trkpt>
      <trkpt lat="44.56499" lon="4.30918">
        <ele>404</ele>
        <time>2016-05-15T10:43:46.000Z</time>
      </trkpt>
      <trkpt lat="44.56501" lon="4.3092">
        <ele>406</ele>
        <time>2016-05-15T10:43:47.000Z</time>
      </trkpt>
      <trkpt lat="44.56502" lon="4.30922">
        <ele>406</ele>
        <time>2016-05-15T10:43:48.000Z</time>
      </trkpt>
      <trkpt lat="44.56504" lon="4.30924">
        <ele>406</ele>
        <time>2016-05-15T10:43:49.000Z</time>
      </trkpt>
      <trkpt lat="44.56505" lon="4.30926">
        <ele>407</ele>
        <time>2016-05-15T10:43:50.000Z</time>
      </trkpt>
      <trkpt lat="44.56507" lon="4.30927">
        <ele>407</ele>
        <time>2016-05-15T10:43:51.000Z</time>
      </trkpt>
      <trkpt lat="44.56508" lon="4.3093">
        <ele>407</ele>
        <time>2016-05-15T10:43:52.000Z</time>
      </trkpt>
      <trkpt lat="44.5651" lon="4.30932">
        <ele>407</ele>
        <time>2016-05-15T10:43:53.000Z</time>
      </trkpt>
      <trkpt lat="44.56511" lon="4.30934">
        <ele>408</ele>
        <time>2016-05-15T10:43:54.000Z</time>
      </trkpt>
      <trkpt lat="44.56513" lon="4.30937">
        <ele>408</ele>
        <time>2016-05-15T10:43:55.000Z</time>
      </trkpt>
      <trkpt lat="44.56514" lon="4.30939">
        <ele>408</ele>
        <time>2016-05-15T10:43:56.000Z</time>
      </trkpt>
      <trkpt lat="44.56516" lon="4.30942">
        <ele>408</ele>
        <time>2016-05-15T10:43:57.000Z</time>
      </trkpt>
      <trkpt lat="44.56518" lon="4.30945">
        <ele>408</ele>
        <time>2016-05-15T10:43:58.000Z</time>
      </trkpt>
      <trkpt lat="44.56519" lon="4.30948">
        <ele>408</ele>
        <time>2016-05-15T10:43:59.000Z</time>
      </trkpt>
      <trkpt lat="44.56521" lon="4.30951">
        <ele>408</ele>
        <time>2016-05-15T10:44:00.000Z</time>
      </trkpt>
      <trkpt lat="44.56523" lon="4.30953">
        <ele>408</ele>
        <time>2016-05-15T10:44:01.000Z</time>
      </trkpt>
      <trkpt lat="44.56525" lon="4.30956">
        <ele>408</ele>
        <time>2016-05-15T10:44:02.000Z</time>
      </trkpt>
      <trkpt lat="44.56527" lon="4.30959">
        <ele>408</ele>
        <time>2016-05-15T10:44:03.000Z</time>
      </trkpt>
      <trkpt lat="44.56529" lon="4.30961">
        <ele>408</ele>
        <time>2016-05-15T10:44:04.000Z</time>
      </trkpt>
      <trkpt lat="44.5653" lon="4.30963">
        <ele>408</ele>
        <time>2016-05-15T10:44:05.000Z</time>
      </trkpt>
      <trkpt lat="44.56532" lon="4.30965">
        <ele>408</ele>
        <time>2016-05-15T10:44:06.000Z</time>
      </trkpt>
      <trkpt lat="44.56534" lon="4.30968">
        <ele>408</ele>
        <time>2016-05-15T10:44:07.000Z</time>
      </trkpt>
      <trkpt lat="44.56537" lon="4.30971">
        <ele>408</ele>
        <time>2016-05-15T10:44:08.000Z</time>
      </trkpt>
      <trkpt lat="44.5654" lon="4.30973">
        <ele>408</ele>
        <time>2016-05-15T10:44:09.000Z</time>
      </trkpt>
      <trkpt lat="44.56543" lon="4.30976">
        <ele>409</ele>
        <time>2016-05-15T10:44:10.000Z</time>
      </trkpt>
      <trkpt lat="44.56546" lon="4.30977">
        <ele>409</ele>
        <time>2016-05-15T10:44:11.000Z</time>
      </trkpt>
      <trkpt lat="44.56548" lon="4.3098">
        <ele>409</ele>
        <time>2016-05-15T10:44:12.000Z</time>
      </trkpt>
      <trkpt lat="44.5655" lon="4.30983">
        <ele>409</ele>
        <time>2016-05-15T10:44:13.000Z</time>
      </trkpt>
      <trkpt lat="44.56552" lon="4.30986">
        <ele>409</ele>
        <time>2016-05-15T10:44:14.000Z</time>
      </trkpt>
      <trkpt lat="44.56555" lon="4.30989">
        <ele>409</ele>
        <time>2016-05-15T10:44:15.000Z</time>
      </trkpt>
      <trkpt lat="44.56557" lon="4.30992">
        <ele>409</ele>
        <time>2016-05-15T10:44:16.000Z</time>
      </trkpt>
      <trkpt lat="44.56559" lon="4.30995">
        <ele>409</ele>
        <time>2016-05-15T10:44:17.000Z</time>
      </trkpt>
      <trkpt lat="44.56561" lon="4.30997">
        <ele>409</ele>
        <time>2016-05-15T10:44:18.000Z</time>
      </trkpt>
      <trkpt lat="44.56562" lon="4.31">
        <ele>409</ele>
        <time>2016-05-15T10:44:19.000Z</time>
      </trkpt>
      <trkpt lat="44.56564" lon="4.31003">
        <ele>402</ele>
        <time>2016-05-15T10:44:20.000Z</time>
      </trkpt>
      <trkpt lat="44.56566" lon="4.31006">
        <ele>403</ele>
        <time>2016-05-15T10:44:21.000Z</time>
      </trkpt>
      <trkpt lat="44.56569" lon="4.31008">
        <ele>403</ele>
        <time>2016-05-15T10:44:22.000Z</time>
      </trkpt>
      <trkpt lat="44.56572" lon="4.3101">
        <ele>403</ele>
        <time>2016-05-15T10:44:23.000Z</time>
      </trkpt>
      <trkpt lat="44.56574" lon="4.31012">
        <ele>403</ele>
        <time>2016-05-15T10:44:24.000Z</time>
      </trkpt>
      <trkpt lat="44.56577" lon="4.31014">
        <ele>403</ele>
        <time>2016-05-15T10:44:25.000Z</time>
      </trkpt>
      <trkpt lat="44.5658" lon="4.31016">
        <ele>403</ele>
        <time>2016-05-15T10:44:26.000Z</time>
      </trkpt>
      <trkpt lat="44.56583" lon="4.31019">
        <ele>402</ele>
        <time>2016-05-15T10:44:27.000Z</time>
      </trkpt>
      <trkpt lat="44.56587" lon="4.31021">
        <ele>405</ele>
        <time>2016-05-15T10:44:28.000Z</time>
      </trkpt>
      <trkpt lat="44.5659" lon="4.31023">
        <ele>405</ele>
        <time>2016-05-15T10:44:29.000Z</time>
      </trkpt>
      <trkpt lat="44.56594" lon="4.31025">
        <ele>405</ele>
        <time>2016-05-15T10:44:30.000Z</time>
      </trkpt>
      <trkpt lat="44.56597" lon="4.31026">
        <ele>404</ele>
        <time>2016-05-15T10:44:31.000Z</time>
      </trkpt>
      <trkpt lat="44.566" lon="4.31027">
        <ele>404</ele>
        <time>2016-05-15T10:44:32.000Z</time>
      </trkpt>
      <trkpt lat="44.56603" lon="4.31028">
        <ele>404</ele>
        <time>2016-05-15T10:44:33.000Z</time>
      </trkpt>
      <trkpt lat="44.56607" lon="4.31029">
        <ele>404</ele>
        <time>2016-05-15T10:44:34.000Z</time>
      </trkpt>
      <trkpt lat="44.56611" lon="4.31031">
        <ele>404</ele>
        <time>2016-05-15T10:44:35.000Z</time>
      </trkpt>
      <trkpt lat="44.56616" lon="4.31033">
        <ele>403</ele>
        <time>2016-05-15T10:44:36.000Z</time>
      </trkpt>
      <trkpt lat="44.56622" lon="4.31034">
        <ele>403</ele>
        <time>2016-05-15T10:44:37.000Z</time>
      </trkpt>
      <trkpt lat="44.56627" lon="4.31036">
        <ele>403</ele>
        <time>2016-05-15T10:44:38.000Z</time>
      </trkpt>
      <trkpt lat="44.56634" lon="4.31038">
        <ele>403</ele>
        <time>2016-05-15T10:44:39.000Z</time>
      </trkpt>
      <trkpt lat="44.5664" lon="4.31039">
        <ele>403</ele>
        <time>2016-05-15T10:44:40.000Z</time>
      </trkpt>
      <trkpt lat="44.56646" lon="4.3104">
        <ele>403</ele>
        <time>2016-05-15T10:44:41.000Z</time>
      </trkpt>
      <trkpt lat="44.56652" lon="4.31041">
        <ele>403</ele>
        <time>2016-05-15T10:44:42.000Z</time>
      </trkpt>
      <trkpt lat="44.56657" lon="4.31041">
        <ele>403</ele>
        <time>2016-05-15T10:44:43.000Z</time>
      </trkpt>
      <trkpt lat="44.56661" lon="4.31042">
        <ele>403</ele>
        <time>2016-05-15T10:44:44.000Z</time>
      </trkpt>
      <trkpt lat="44.56665" lon="4.31041">
        <ele>403</ele>
        <time>2016-05-15T10:44:45.000Z</time>
      </trkpt>
      <trkpt lat="44.56668" lon="4.31041">
        <ele>403</ele>
        <time>2016-05-15T10:44:46.000Z</time>
      </trkpt>
      <trkpt lat="44.56671" lon="4.31042">
        <ele>403</ele>
        <time>2016-05-15T10:44:47.000Z</time>
      </trkpt>
      <trkpt lat="44.56674" lon="4.31042">
        <ele>403</ele>
        <time>2016-05-15T10:44:48.000Z</time>
      </trkpt>
      <trkpt lat="44.56677" lon="4.31043">
        <ele>403</ele>
        <time>2016-05-15T10:44:49.000Z</time>
      </trkpt>
      <trkpt lat="44.56679" lon="4.31044">
        <ele>403</ele>
        <time>2016-05-15T10:44:50.000Z</time>
      </trkpt>
      <trkpt lat="44.56682" lon="4.31044">
        <ele>403</ele>
        <time>2016-05-15T10:44:51.000Z</time>
      </trkpt>
      <trkpt lat="44.56685" lon="4.31046">
        <ele>403</ele>
        <time>2016-05-15T10:44:52.000Z</time>
      </trkpt>
      <trkpt lat="44.56688" lon="4.31047">
        <ele>402</ele>
        <time>2016-05-15T10:44:53.000Z</time>
      </trkpt>
      <trkpt lat="44.56691" lon="4.3105">
        <ele>402</ele>
        <time>2016-05-15T10:44:54.000Z</time>
      </trkpt>
      <trkpt lat="44.56694" lon="4.31053">
        <ele>402</ele>
        <time>2016-05-15T10:44:55.000Z</time>
      </trkpt>
      <trkpt lat="44.56696" lon="4.31054">
        <ele>402</ele>
        <time>2016-05-15T10:44:56.000Z</time>
      </trkpt>
      <trkpt lat="44.56698" lon="4.31055">
        <ele>401</ele>
        <time>2016-05-15T10:44:57.000Z</time>
      </trkpt>
      <trkpt lat="44.56699" lon="4.31056">
        <ele>401</ele>
        <time>2016-05-15T10:44:58.000Z</time>
      </trkpt>
      <trkpt lat="44.56701" lon="4.31057">
        <ele>401</ele>
        <time>2016-05-15T10:44:59.000Z</time>
      </trkpt>
      <trkpt lat="44.56703" lon="4.31057">
        <ele>401</ele>
        <time>2016-05-15T10:45:00.000Z</time>
      </trkpt>
      <trkpt lat="44.56705" lon="4.31058">
        <ele>401</ele>
        <time>2016-05-15T10:45:01.000Z</time>
      </trkpt>
      <trkpt lat="44.56708" lon="4.31059">
        <ele>401</ele>
        <time>2016-05-15T10:45:02.000Z</time>
      </trkpt>
      <trkpt lat="44.5671" lon="4.3106">
        <ele>401</ele>
        <time>2016-05-15T10:45:03.000Z</time>
      </trkpt>
      <trkpt lat="44.56713" lon="4.31062">
        <ele>401</ele>
        <time>2016-05-15T10:45:04.000Z</time>
      </trkpt>
      <trkpt lat="44.56717" lon="4.31063">
        <ele>401</ele>
        <time>2016-05-15T10:45:05.000Z</time>
      </trkpt>
      <trkpt lat="44.56721" lon="4.31065">
        <ele>400</ele>
        <time>2016-05-15T10:45:06.000Z</time>
      </trkpt>
      <trkpt lat="44.56724" lon="4.31066">
        <ele>400</ele>
        <time>2016-05-15T10:45:07.000Z</time>
      </trkpt>
      <trkpt lat="44.56727" lon="4.31066">
        <ele>400</ele>
        <time>2016-05-15T10:45:08.000Z</time>
      </trkpt>
      <trkpt lat="44.5673" lon="4.31066">
        <ele>399</ele>
        <time>2016-05-15T10:45:09.000Z</time>
      </trkpt>
      <trkpt lat="44.56731" lon="4.31067">
        <ele>399</ele>
        <time>2016-05-15T10:45:10.000Z</time>
      </trkpt>
      <trkpt lat="44.56733" lon="4.31067">
        <ele>399</ele>
        <time>2016-05-15T10:45:11.000Z</time>
      </trkpt>
      <trkpt lat="44.56735" lon="4.31068">
        <ele>399</ele>
        <time>2016-05-15T10:45:12.000Z</time>
      </trkpt>
      <trkpt lat="44.56736" lon="4.31068">
        <ele>398</ele>
        <time>2016-05-15T10:45:13.000Z</time>
      </trkpt>
      <trkpt lat="44.56737" lon="4.31069">
        <ele>398</ele>
        <time>2016-05-15T10:45:14.000Z</time>
      </trkpt>
      <trkpt lat="44.56738" lon="4.31069">
        <ele>398</ele>
        <time>2016-05-15T10:45:15.000Z</time>
      </trkpt>
      <trkpt lat="44.5674" lon="4.31068">
        <ele>398</ele>
        <time>2016-05-15T10:45:16.000Z</time>
      </trkpt>
      <trkpt lat="44.56741" lon="4.31068">
        <ele>398</ele>
        <time>2016-05-15T10:45:17.000Z</time>
      </trkpt>
      <trkpt lat="44.56742" lon="4.31068">
        <ele>398</ele>
        <time>2016-05-15T10:45:18.000Z</time>
      </trkpt>
      <trkpt lat="44.56744" lon="4.31067">
        <ele>398</ele>
        <time>2016-05-15T10:45:19.000Z</time>
      </trkpt>
      <trkpt lat="44.56746" lon="4.31064">
        <ele>398</ele>
        <time>2016-05-15T10:45:20.000Z</time>
      </trkpt>
      <trkpt lat="44.56747" lon="4.31062">
        <ele>399</ele>
        <time>2016-05-15T10:45:21.000Z</time>
      </trkpt>
      <trkpt lat="44.56749" lon="4.31061">
        <ele>399</ele>
        <time>2016-05-15T10:45:22.000Z</time>
      </trkpt>
      <trkpt lat="44.5675" lon="4.31062">
        <ele>399</ele>
        <time>2016-05-15T10:45:23.000Z</time>
      </trkpt>
      <trkpt lat="44.56752" lon="4.31063">
        <ele>399</ele>
        <time>2016-05-15T10:45:24.000Z</time>
      </trkpt>
      <trkpt lat="44.56755" lon="4.31064">
        <ele>399</ele>
        <time>2016-05-15T10:45:25.000Z</time>
      </trkpt>
      <trkpt lat="44.56757" lon="4.31065">
        <ele>399</ele>
        <time>2016-05-15T10:45:26.000Z</time>
      </trkpt>
      <trkpt lat="44.56759" lon="4.31066">
        <ele>399</ele>
        <time>2016-05-15T10:45:27.000Z</time>
      </trkpt>
      <trkpt lat="44.56762" lon="4.31067">
        <ele>399</ele>
        <time>2016-05-15T10:45:28.000Z</time>
      </trkpt>
      <trkpt lat="44.56765" lon="4.31068">
        <ele>399</ele>
        <time>2016-05-15T10:45:29.000Z</time>
      </trkpt>
      <trkpt lat="44.56767" lon="4.31069">
        <ele>399</ele>
        <time>2016-05-15T10:45:30.000Z</time>
      </trkpt>
      <trkpt lat="44.5677" lon="4.31069">
        <ele>399</ele>
        <time>2016-05-15T10:45:31.000Z</time>
      </trkpt>
      <trkpt lat="44.56773" lon="4.3107">
        <ele>400</ele>
        <time>2016-05-15T10:45:32.000Z</time>
      </trkpt>
      <trkpt lat="44.56776" lon="4.3107">
        <ele>400</ele>
        <time>2016-05-15T10:45:33.000Z</time>
      </trkpt>
      <trkpt lat="44.56778" lon="4.3107">
        <ele>400</ele>
        <time>2016-05-15T10:45:34.000Z</time>
      </trkpt>
      <trkpt lat="44.56781" lon="4.31071">
        <ele>400</ele>
        <time>2016-05-15T10:45:35.000Z</time>
      </trkpt>
      <trkpt lat="44.56783" lon="4.31072">
        <ele>400</ele>
        <time>2016-05-15T10:45:36.000Z</time>
      </trkpt>
      <trkpt lat="44.56785" lon="4.31073">
        <ele>400</ele>
        <time>2016-05-15T10:45:37.000Z</time>
      </trkpt>
      <trkpt lat="44.56787" lon="4.31073">
        <ele>400</ele>
        <time>2016-05-15T10:45:38.000Z</time>
      </trkpt>
      <trkpt lat="44.56789" lon="4.31074">
        <ele>400</ele>
        <time>2016-05-15T10:45:39.000Z</time>
      </trkpt>
      <trkpt lat="44.56792" lon="4.31075">
        <ele>400</ele>
        <time>2016-05-15T10:45:40.000Z</time>
      </trkpt>
      <trkpt lat="44.56795" lon="4.31077">
        <ele>400</ele>
        <time>2016-05-15T10:45:41.000Z</time>
      </trkpt>
      <trkpt lat="44.56798" lon="4.31078">
        <ele>400</ele>
        <time>2016-05-15T10:45:42.000Z</time>
      </trkpt>
      <trkpt lat="44.56801" lon="4.31079">
        <ele>400</ele>
        <time>2016-05-15T10:45:43.000Z</time>
      </trkpt>
      <trkpt lat="44.56804" lon="4.3108">
        <ele>400</ele>
        <time>2016-05-15T10:45:44.000Z</time>
      </trkpt>
      <trkpt lat="44.56806" lon="4.31081">
        <ele>400</ele>
        <time>2016-05-15T10:45:45.000Z</time>
      </trkpt>
      <trkpt lat="44.56809" lon="4.31081">
        <ele>400</ele>
        <time>2016-05-15T10:45:46.000Z</time>
      </trkpt>
      <trkpt lat="44.56811" lon="4.31082">
        <ele>399</ele>
        <time>2016-05-15T10:45:47.000Z</time>
      </trkpt>
      <trkpt lat="44.56814" lon="4.31084">
        <ele>390</ele>
        <time>2016-05-15T10:45:48.000Z</time>
      </trkpt>
      <trkpt lat="44.56817" lon="4.31084">
        <ele>391</ele>
        <time>2016-05-15T10:45:49.000Z</time>
      </trkpt>
      <trkpt lat="44.5682" lon="4.31084">
        <ele>392</ele>
        <time>2016-05-15T10:45:50.000Z</time>
      </trkpt>
      <trkpt lat="44.56824" lon="4.31084">
        <ele>392</ele>
        <time>2016-05-15T10:45:51.000Z</time>
      </trkpt>
      <trkpt lat="44.56828" lon="4.31084">
        <ele>393</ele>
        <time>2016-05-15T10:45:52.000Z</time>
      </trkpt>
      <trkpt lat="44.56832" lon="4.31084">
        <ele>395</ele>
        <time>2016-05-15T10:45:53.000Z</time>
      </trkpt>
      <trkpt lat="44.56836" lon="4.31084">
        <ele>394</ele>
        <time>2016-05-15T10:45:54.000Z</time>
      </trkpt>
      <trkpt lat="44.5684" lon="4.31085">
        <ele>393</ele>
        <time>2016-05-15T10:45:55.000Z</time>
      </trkpt>
      <trkpt lat="44.56844" lon="4.31086">
        <ele>392</ele>
        <time>2016-05-15T10:45:56.000Z</time>
      </trkpt>
      <trkpt lat="44.56848" lon="4.31087">
        <ele>391</ele>
        <time>2016-05-15T10:45:57.000Z</time>
      </trkpt>
      <trkpt lat="44.56852" lon="4.31088">
        <ele>390</ele>
        <time>2016-05-15T10:45:58.000Z</time>
      </trkpt>
      <trkpt lat="44.56856" lon="4.3109">
        <ele>389</ele>
        <time>2016-05-15T10:45:59.000Z</time>
      </trkpt>
      <trkpt lat="44.5686" lon="4.31091">
        <ele>389</ele>
        <time>2016-05-15T10:46:00.000Z</time>
      </trkpt>
      <trkpt lat="44.56864" lon="4.31093">
        <ele>388</ele>
        <time>2016-05-15T10:46:01.000Z</time>
      </trkpt>
      <trkpt lat="44.5687" lon="4.31094">
        <ele>388</ele>
        <time>2016-05-15T10:46:02.000Z</time>
      </trkpt>
      <trkpt lat="44.56875" lon="4.31095">
        <ele>388</ele>
        <time>2016-05-15T10:46:03.000Z</time>
      </trkpt>
      <trkpt lat="44.5688" lon="4.31096">
        <ele>388</ele>
        <time>2016-05-15T10:46:04.000Z</time>
      </trkpt>
      <trkpt lat="44.56886" lon="4.31096">
        <ele>388</ele>
        <time>2016-05-15T10:46:05.000Z</time>
      </trkpt>
      <trkpt lat="44.5689" lon="4.31095">
        <ele>388</ele>
        <time>2016-05-15T10:46:06.000Z</time>
      </trkpt>
      <trkpt lat="44.56895" lon="4.31095">
        <ele>388</ele>
        <time>2016-05-15T10:46:07.000Z</time>
      </trkpt>
      <trkpt lat="44.56899" lon="4.31095">
        <ele>388</ele>
        <time>2016-05-15T10:46:08.000Z</time>
      </trkpt>
      <trkpt lat="44.56905" lon="4.31095">
        <ele>388</ele>
        <time>2016-05-15T10:46:09.000Z</time>
      </trkpt>
      <trkpt lat="44.5691" lon="4.31095">
        <ele>389</ele>
        <time>2016-05-15T10:46:10.000Z</time>
      </trkpt>
      <trkpt lat="44.56916" lon="4.31094">
        <ele>389</ele>
        <time>2016-05-15T10:46:11.000Z</time>
      </trkpt>
      <trkpt lat="44.5692" lon="4.31092">
        <ele>387</ele>
        <time>2016-05-15T10:46:12.000Z</time>
      </trkpt>
      <trkpt lat="44.56925" lon="4.31092">
        <ele>387</ele>
        <time>2016-05-15T10:46:13.000Z</time>
      </trkpt>
      <trkpt lat="44.5693" lon="4.3109">
        <ele>386</ele>
        <time>2016-05-15T10:46:14.000Z</time>
      </trkpt>
      <trkpt lat="44.56934" lon="4.31088">
        <ele>385</ele>
        <time>2016-05-15T10:46:15.000Z</time>
      </trkpt>
      <trkpt lat="44.5694" lon="4.31086">
        <ele>384</ele>
        <time>2016-05-15T10:46:16.000Z</time>
      </trkpt>
      <trkpt lat="44.56947" lon="4.31084">
        <ele>383</ele>
        <time>2016-05-15T10:46:17.000Z</time>
      </trkpt>
      <trkpt lat="44.56954" lon="4.31083">
        <ele>393</ele>
        <time>2016-05-15T10:46:18.000Z</time>
      </trkpt>
      <trkpt lat="44.56961" lon="4.31083">
        <ele>393</ele>
        <time>2016-05-15T10:46:19.000Z</time>
      </trkpt>
      <trkpt lat="44.56967" lon="4.31086">
        <ele>382</ele>
        <time>2016-05-15T10:46:20.000Z</time>
      </trkpt>
      <trkpt lat="44.56972" lon="4.31089">
        <ele>381</ele>
        <time>2016-05-15T10:46:21.000Z</time>
      </trkpt>
      <trkpt lat="44.56977" lon="4.31089">
        <ele>381</ele>
        <time>2016-05-15T10:46:22.000Z</time>
      </trkpt>
      <trkpt lat="44.56981" lon="4.31089">
        <ele>381</ele>
        <time>2016-05-15T10:46:23.000Z</time>
      </trkpt>
      <trkpt lat="44.56986" lon="4.31088">
        <ele>382</ele>
        <time>2016-05-15T10:46:24.000Z</time>
      </trkpt>
      <trkpt lat="44.56992" lon="4.31086">
        <ele>382</ele>
        <time>2016-05-15T10:46:25.000Z</time>
      </trkpt>
      <trkpt lat="44.56996" lon="4.31084">
        <ele>382</ele>
        <time>2016-05-15T10:46:26.000Z</time>
      </trkpt>
      <trkpt lat="44.57001" lon="4.31082">
        <ele>383</ele>
        <time>2016-05-15T10:46:27.000Z</time>
      </trkpt>
      <trkpt lat="44.57005" lon="4.31081">
        <ele>384</ele>
        <time>2016-05-15T10:46:28.000Z</time>
      </trkpt>
      <trkpt lat="44.57009" lon="4.3108">
        <ele>384</ele>
        <time>2016-05-15T10:46:29.000Z</time>
      </trkpt>
      <trkpt lat="44.57013" lon="4.31078">
        <ele>384</ele>
        <time>2016-05-15T10:46:30.000Z</time>
      </trkpt>
      <trkpt lat="44.57017" lon="4.31075">
        <ele>385</ele>
        <time>2016-05-15T10:46:31.000Z</time>
      </trkpt>
      <trkpt lat="44.5702" lon="4.31073">
        <ele>385</ele>
        <time>2016-05-15T10:46:32.000Z</time>
      </trkpt>
      <trkpt lat="44.57024" lon="4.3107">
        <ele>385</ele>
        <time>2016-05-15T10:46:33.000Z</time>
      </trkpt>
      <trkpt lat="44.57027" lon="4.31068">
        <ele>385</ele>
        <time>2016-05-15T10:46:34.000Z</time>
      </trkpt>
      <trkpt lat="44.5703" lon="4.31065">
        <ele>385</ele>
        <time>2016-05-15T10:46:35.000Z</time>
      </trkpt>
      <trkpt lat="44.57033" lon="4.31063">
        <ele>385</ele>
        <time>2016-05-15T10:46:36.000Z</time>
      </trkpt>
      <trkpt lat="44.57036" lon="4.3106">
        <ele>385</ele>
        <time>2016-05-15T10:46:37.000Z</time>
      </trkpt>
      <trkpt lat="44.57039" lon="4.31057">
        <ele>385</ele>
        <time>2016-05-15T10:46:38.000Z</time>
      </trkpt>
      <trkpt lat="44.57042" lon="4.31055">
        <ele>385</ele>
        <time>2016-05-15T10:46:39.000Z</time>
      </trkpt>
      <trkpt lat="44.57045" lon="4.31052">
        <ele>385</ele>
        <time>2016-05-15T10:46:40.000Z</time>
      </trkpt>
      <trkpt lat="44.57048" lon="4.3105">
        <ele>385</ele>
        <time>2016-05-15T10:46:41.000Z</time>
      </trkpt>
      <trkpt lat="44.57051" lon="4.31047">
        <ele>385</ele>
        <time>2016-05-15T10:46:42.000Z</time>
      </trkpt>
      <trkpt lat="44.57054" lon="4.31045">
        <ele>385</ele>
        <time>2016-05-15T10:46:43.000Z</time>
      </trkpt>
      <trkpt lat="44.57056" lon="4.31042">
        <ele>385</ele>
        <time>2016-05-15T10:46:44.000Z</time>
      </trkpt>
      <trkpt lat="44.57059" lon="4.3104">
        <ele>385</ele>
        <time>2016-05-15T10:46:45.000Z</time>
      </trkpt>
      <trkpt lat="44.57062" lon="4.31038">
        <ele>385</ele>
        <time>2016-05-15T10:46:46.000Z</time>
      </trkpt>
      <trkpt lat="44.57065" lon="4.31035">
        <ele>386</ele>
        <time>2016-05-15T10:46:47.000Z</time>
      </trkpt>
      <trkpt lat="44.57067" lon="4.31033">
        <ele>386</ele>
        <time>2016-05-15T10:46:48.000Z</time>
      </trkpt>
      <trkpt lat="44.5707" lon="4.31031">
        <ele>386</ele>
        <time>2016-05-15T10:46:49.000Z</time>
      </trkpt>
      <trkpt lat="44.57072" lon="4.31028">
        <ele>386</ele>
        <time>2016-05-15T10:46:50.000Z</time>
      </trkpt>
      <trkpt lat="44.57075" lon="4.31026">
        <ele>386</ele>
        <time>2016-05-15T10:46:51.000Z</time>
      </trkpt>
      <trkpt lat="44.57078" lon="4.31023">
        <ele>386</ele>
        <time>2016-05-15T10:46:52.000Z</time>
      </trkpt>
      <trkpt lat="44.57081" lon="4.31021">
        <ele>387</ele>
        <time>2016-05-15T10:46:53.000Z</time>
      </trkpt>
      <trkpt lat="44.57083" lon="4.31018">
        <ele>387</ele>
        <time>2016-05-15T10:46:54.000Z</time>
      </trkpt>
      <trkpt lat="44.57086" lon="4.31016">
        <ele>377</ele>
        <time>2016-05-15T10:46:55.000Z</time>
      </trkpt>
      <trkpt lat="44.57089" lon="4.31013">
        <ele>378</ele>
        <time>2016-05-15T10:46:56.000Z</time>
      </trkpt>
      <trkpt lat="44.57092" lon="4.31011">
        <ele>378</ele>
        <time>2016-05-15T10:46:57.000Z</time>
      </trkpt>
      <trkpt lat="44.57095" lon="4.31008">
        <ele>378</ele>
        <time>2016-05-15T10:46:58.000Z</time>
      </trkpt>
      <trkpt lat="44.57097" lon="4.31005">
        <ele>377</ele>
        <time>2016-05-15T10:46:59.000Z</time>
      </trkpt>
      <trkpt lat="44.571" lon="4.31003">
        <ele>376</ele>
        <time>2016-05-15T10:47:00.000Z</time>
      </trkpt>
      <trkpt lat="44.57102" lon="4.31001">
        <ele>375</ele>
        <time>2016-05-15T10:47:01.000Z</time>
      </trkpt>
      <trkpt lat="44.57105" lon="4.30998">
        <ele>382</ele>
        <time>2016-05-15T10:47:02.000Z</time>
      </trkpt>
      <trkpt lat="44.57107" lon="4.30996">
        <ele>382</ele>
        <time>2016-05-15T10:47:03.000Z</time>
      </trkpt>
      <trkpt lat="44.57108" lon="4.30993">
        <ele>382</ele>
        <time>2016-05-15T10:47:04.000Z</time>
      </trkpt>
      <trkpt lat="44.5711" lon="4.30989">
        <ele>381</ele>
        <time>2016-05-15T10:47:05.000Z</time>
      </trkpt>
      <trkpt lat="44.57111" lon="4.30985">
        <ele>381</ele>
        <time>2016-05-15T10:47:06.000Z</time>
      </trkpt>
      <trkpt lat="44.57112" lon="4.30982">
        <ele>381</ele>
        <time>2016-05-15T10:47:07.000Z</time>
      </trkpt>
      <trkpt lat="44.57113" lon="4.30978">
        <ele>381</ele>
        <time>2016-05-15T10:47:08.000Z</time>
      </trkpt>
      <trkpt lat="44.57114" lon="4.30974">
        <ele>381</ele>
        <time>2016-05-15T10:47:09.000Z</time>
      </trkpt>
      <trkpt lat="44.57114" lon="4.3097">
        <ele>381</ele>
        <time>2016-05-15T10:47:10.000Z</time>
      </trkpt>
      <trkpt lat="44.57115" lon="4.30966">
        <ele>381</ele>
        <time>2016-05-15T10:47:11.000Z</time>
      </trkpt>
      <trkpt lat="44.57115" lon="4.30962">
        <ele>382</ele>
        <time>2016-05-15T10:47:12.000Z</time>
      </trkpt>
      <trkpt lat="44.57116" lon="4.30959">
        <ele>382</ele>
        <time>2016-05-15T10:47:13.000Z</time>
      </trkpt>
      <trkpt lat="44.57116" lon="4.30955">
        <ele>382</ele>
        <time>2016-05-15T10:47:14.000Z</time>
      </trkpt>
      <trkpt lat="44.57117" lon="4.30951">
        <ele>382</ele>
        <time>2016-05-15T10:47:15.000Z</time>
      </trkpt>
      <trkpt lat="44.57117" lon="4.30947">
        <ele>383</ele>
        <time>2016-05-15T10:47:16.000Z</time>
      </trkpt>
      <trkpt lat="44.57119" lon="4.30944">
        <ele>383</ele>
        <time>2016-05-15T10:47:17.000Z</time>
      </trkpt>
      <trkpt lat="44.5712" lon="4.3094">
        <ele>383</ele>
        <time>2016-05-15T10:47:18.000Z</time>
      </trkpt>
      <trkpt lat="44.57121" lon="4.30936">
        <ele>383</ele>
        <time>2016-05-15T10:47:19.000Z</time>
      </trkpt>
      <trkpt lat="44.57122" lon="4.30932">
        <ele>383</ele>
        <time>2016-05-15T10:47:20.000Z</time>
      </trkpt>
      <trkpt lat="44.57124" lon="4.30929">
        <ele>383</ele>
        <time>2016-05-15T10:47:21.000Z</time>
      </trkpt>
      <trkpt lat="44.57126" lon="4.30925">
        <ele>382</ele>
        <time>2016-05-15T10:47:22.000Z</time>
      </trkpt>
      <trkpt lat="44.57128" lon="4.30922">
        <ele>382</ele>
        <time>2016-05-15T10:47:23.000Z</time>
      </trkpt>
      <trkpt lat="44.5713" lon="4.30918">
        <ele>381</ele>
        <time>2016-05-15T10:47:24.000Z</time>
      </trkpt>
      <trkpt lat="44.57132" lon="4.30915">
        <ele>391</ele>
        <time>2016-05-15T10:47:25.000Z</time>
      </trkpt>
      <trkpt lat="44.57134" lon="4.30911">
        <ele>390</ele>
        <time>2016-05-15T10:47:26.000Z</time>
      </trkpt>
      <trkpt lat="44.57136" lon="4.30908">
        <ele>390</ele>
        <time>2016-05-15T10:47:27.000Z</time>
      </trkpt>
      <trkpt lat="44.57138" lon="4.30904">
        <ele>389</ele>
        <time>2016-05-15T10:47:28.000Z</time>
      </trkpt>
      <trkpt lat="44.5714" lon="4.309">
        <ele>389</ele>
        <time>2016-05-15T10:47:29.000Z</time>
      </trkpt>
      <trkpt lat="44.57142" lon="4.30896">
        <ele>389</ele>
        <time>2016-05-15T10:47:30.000Z</time>
      </trkpt>
      <trkpt lat="44.57144" lon="4.30893">
        <ele>390</ele>
        <time>2016-05-15T10:47:31.000Z</time>
      </trkpt>
      <trkpt lat="44.57145" lon="4.30889">
        <ele>390</ele>
        <time>2016-05-15T10:47:32.000Z</time>
      </trkpt>
      <trkpt lat="44.57146" lon="4.30885">
        <ele>390</ele>
        <time>2016-05-15T10:47:33.000Z</time>
      </trkpt>
      <trkpt lat="44.57147" lon="4.30881">
        <ele>391</ele>
        <time>2016-05-15T10:47:34.000Z</time>
      </trkpt>
      <trkpt lat="44.57149" lon="4.30877">
        <ele>391</ele>
        <time>2016-05-15T10:47:35.000Z</time>
      </trkpt>
      <trkpt lat="44.5715" lon="4.30873">
        <ele>391</ele>
        <time>2016-05-15T10:47:36.000Z</time>
      </trkpt>
      <trkpt lat="44.57151" lon="4.3087">
        <ele>391</ele>
        <time>2016-05-15T10:47:37.000Z</time>
      </trkpt>
      <trkpt lat="44.57153" lon="4.30866">
        <ele>392</ele>
        <time>2016-05-15T10:47:38.000Z</time>
      </trkpt>
      <trkpt lat="44.57154" lon="4.30862">
        <ele>392</ele>
        <time>2016-05-15T10:47:39.000Z</time>
      </trkpt>
      <trkpt lat="44.57155" lon="4.30858">
        <ele>391</ele>
        <time>2016-05-15T10:47:40.000Z</time>
      </trkpt>
      <trkpt lat="44.57156" lon="4.30855">
        <ele>391</ele>
        <time>2016-05-15T10:47:41.000Z</time>
      </trkpt>
      <trkpt lat="44.57157" lon="4.30851">
        <ele>391</ele>
        <time>2016-05-15T10:47:42.000Z</time>
      </trkpt>
      <trkpt lat="44.57158" lon="4.30847">
        <ele>390</ele>
        <time>2016-05-15T10:47:43.000Z</time>
      </trkpt>
      <trkpt lat="44.57159" lon="4.30843">
        <ele>390</ele>
        <time>2016-05-15T10:47:44.000Z</time>
      </trkpt>
      <trkpt lat="44.5716" lon="4.30839">
        <ele>389</ele>
        <time>2016-05-15T10:47:45.000Z</time>
      </trkpt>
      <trkpt lat="44.57162" lon="4.30835">
        <ele>388</ele>
        <time>2016-05-15T10:47:46.000Z</time>
      </trkpt>
      <trkpt lat="44.57163" lon="4.30832">
        <ele>390</ele>
        <time>2016-05-15T10:47:47.000Z</time>
      </trkpt>
      <trkpt lat="44.57164" lon="4.30828">
        <ele>391</ele>
        <time>2016-05-15T10:47:48.000Z</time>
      </trkpt>
      <trkpt lat="44.57165" lon="4.30824">
        <ele>393</ele>
        <time>2016-05-15T10:47:49.000Z</time>
      </trkpt>
      <trkpt lat="44.57166" lon="4.30821">
        <ele>395</ele>
        <time>2016-05-15T10:47:50.000Z</time>
      </trkpt>
      <trkpt lat="44.57168" lon="4.30817">
        <ele>382</ele>
        <time>2016-05-15T10:47:51.000Z</time>
      </trkpt>
      <trkpt lat="44.57169" lon="4.30813">
        <ele>382</ele>
        <time>2016-05-15T10:47:52.000Z</time>
      </trkpt>
      <trkpt lat="44.5717" lon="4.3081">
        <ele>382</ele>
        <time>2016-05-15T10:47:53.000Z</time>
      </trkpt>
      <trkpt lat="44.57172" lon="4.30806">
        <ele>382</ele>
        <time>2016-05-15T10:47:54.000Z</time>
      </trkpt>
      <trkpt lat="44.57173" lon="4.30802">
        <ele>382</ele>
        <time>2016-05-15T10:47:55.000Z</time>
      </trkpt>
      <trkpt lat="44.57175" lon="4.30798">
        <ele>382</ele>
        <time>2016-05-15T10:47:56.000Z</time>
      </trkpt>
      <trkpt lat="44.57177" lon="4.30795">
        <ele>382</ele>
        <time>2016-05-15T10:47:57.000Z</time>
      </trkpt>
      <trkpt lat="44.57178" lon="4.30792">
        <ele>382</ele>
        <time>2016-05-15T10:47:58.000Z</time>
      </trkpt>
      <trkpt lat="44.5718" lon="4.30789">
        <ele>382</ele>
        <time>2016-05-15T10:47:59.000Z</time>
      </trkpt>
      <trkpt lat="44.57181" lon="4.30786">
        <ele>382</ele>
        <time>2016-05-15T10:48:00.000Z</time>
      </trkpt>
      <trkpt lat="44.57183" lon="4.30782">
        <ele>382</ele>
        <time>2016-05-15T10:48:01.000Z</time>
      </trkpt>
      <trkpt lat="44.57184" lon="4.30778">
        <ele>383</ele>
        <time>2016-05-15T10:48:02.000Z</time>
      </trkpt>
      <trkpt lat="44.57186" lon="4.30775">
        <ele>383</ele>
        <time>2016-05-15T10:48:03.000Z</time>
      </trkpt>
      <trkpt lat="44.57186" lon="4.30771">
        <ele>383</ele>
        <time>2016-05-15T10:48:04.000Z</time>
      </trkpt>
      <trkpt lat="44.57187" lon="4.30766">
        <ele>384</ele>
        <time>2016-05-15T10:48:05.000Z</time>
      </trkpt>
      <trkpt lat="44.57188" lon="4.30762">
        <ele>384</ele>
        <time>2016-05-15T10:48:06.000Z</time>
      </trkpt>
      <trkpt lat="44.57188" lon="4.30758">
        <ele>385</ele>
        <time>2016-05-15T10:48:07.000Z</time>
      </trkpt>
      <trkpt lat="44.57188" lon="4.30754">
        <ele>385</ele>
        <time>2016-05-15T10:48:08.000Z</time>
      </trkpt>
      <trkpt lat="44.57188" lon="4.3075">
        <ele>385</ele>
        <time>2016-05-15T10:48:09.000Z</time>
      </trkpt>
      <trkpt lat="44.57189" lon="4.30746">
        <ele>392</ele>
        <time>2016-05-15T10:48:10.000Z</time>
      </trkpt>
      <trkpt lat="44.57189" lon="4.30741">
        <ele>392</ele>
        <time>2016-05-15T10:48:11.000Z</time>
      </trkpt>
      <trkpt lat="44.57189" lon="4.30737">
        <ele>392</ele>
        <time>2016-05-15T10:48:12.000Z</time>
      </trkpt>
      <trkpt lat="44.57189" lon="4.30732">
        <ele>392</ele>
        <time>2016-05-15T10:48:13.000Z</time>
      </trkpt>
      <trkpt lat="44.57189" lon="4.30728">
        <ele>392</ele>
        <time>2016-05-15T10:48:14.000Z</time>
      </trkpt>
      <trkpt lat="44.57189" lon="4.30724">
        <ele>392</ele>
        <time>2016-05-15T10:48:15.000Z</time>
      </trkpt>
      <trkpt lat="44.57188" lon="4.30719">
        <ele>392</ele>
        <time>2016-05-15T10:48:16.000Z</time>
      </trkpt>
      <trkpt lat="44.57188" lon="4.30715">
        <ele>393</ele>
        <time>2016-05-15T10:48:17.000Z</time>
      </trkpt>
      <trkpt lat="44.57187" lon="4.30711">
        <ele>393</ele>
        <time>2016-05-15T10:48:18.000Z</time>
      </trkpt>
      <trkpt lat="44.57186" lon="4.30707">
        <ele>393</ele>
        <time>2016-05-15T10:48:19.000Z</time>
      </trkpt>
      <trkpt lat="44.57186" lon="4.30704">
        <ele>394</ele>
        <time>2016-05-15T10:48:20.000Z</time>
      </trkpt>
      <trkpt lat="44.57185" lon="4.307">
        <ele>394</ele>
        <time>2016-05-15T10:48:21.000Z</time>
      </trkpt>
      <trkpt lat="44.57184" lon="4.30696">
        <ele>395</ele>
        <time>2016-05-15T10:48:22.000Z</time>
      </trkpt>
      <trkpt lat="44.57184" lon="4.30692">
        <ele>395</ele>
        <time>2016-05-15T10:48:23.000Z</time>
      </trkpt>
      <trkpt lat="44.57183" lon="4.30688">
        <ele>396</ele>
        <time>2016-05-15T10:48:24.000Z</time>
      </trkpt>
      <trkpt lat="44.57184" lon="4.30684">
        <ele>396</ele>
        <time>2016-05-15T10:48:25.000Z</time>
      </trkpt>
      <trkpt lat="44.57184" lon="4.3068">
        <ele>397</ele>
        <time>2016-05-15T10:48:26.000Z</time>
      </trkpt>
      <trkpt lat="44.57185" lon="4.30676">
        <ele>397</ele>
        <time>2016-05-15T10:48:27.000Z</time>
      </trkpt>
      <trkpt lat="44.57187" lon="4.30673">
        <ele>397</ele>
        <time>2016-05-15T10:48:28.000Z</time>
      </trkpt>
      <trkpt lat="44.57189" lon="4.3067">
        <ele>397</ele>
        <time>2016-05-15T10:48:29.000Z</time>
      </trkpt>
      <trkpt lat="44.57191" lon="4.30668">
        <ele>396</ele>
        <time>2016-05-15T10:48:30.000Z</time>
      </trkpt>
      <trkpt lat="44.57194" lon="4.30667">
        <ele>408</ele>
        <time>2016-05-15T10:48:31.000Z</time>
      </trkpt>
      <trkpt lat="44.57197" lon="4.30666">
        <ele>407</ele>
        <time>2016-05-15T10:48:32.000Z</time>
      </trkpt>
      <trkpt lat="44.57201" lon="4.30666">
        <ele>407</ele>
        <time>2016-05-15T10:48:33.000Z</time>
      </trkpt>
      <trkpt lat="44.57204" lon="4.30666">
        <ele>407</ele>
        <time>2016-05-15T10:48:34.000Z</time>
      </trkpt>
      <trkpt lat="44.57206" lon="4.30666">
        <ele>407</ele>
        <time>2016-05-15T10:48:35.000Z</time>
      </trkpt>
      <trkpt lat="44.57208" lon="4.30667">
        <ele>393</ele>
        <time>2016-05-15T10:48:36.000Z</time>
      </trkpt>
      <trkpt lat="44.5721" lon="4.30669">
        <ele>393</ele>
        <time>2016-05-15T10:48:37.000Z</time>
      </trkpt>
      <trkpt lat="44.57213" lon="4.3067">
        <ele>393</ele>
        <time>2016-05-15T10:48:38.000Z</time>
      </trkpt>
      <trkpt lat="44.57214" lon="4.3067">
        <ele>392</ele>
        <time>2016-05-15T10:48:39.000Z</time>
      </trkpt>
      <trkpt lat="44.57215" lon="4.3067">
        <ele>392</ele>
        <time>2016-05-15T10:48:40.000Z</time>
      </trkpt>
      <trkpt lat="44.57216" lon="4.30671">
        <ele>392</ele>
        <time>2016-05-15T10:48:41.000Z</time>
      </trkpt>
      <trkpt lat="44.57218" lon="4.30671">
        <ele>392</ele>
        <time>2016-05-15T10:48:42.000Z</time>
      </trkpt>
      <trkpt lat="44.57218" lon="4.30671">
        <ele>392</ele>
        <time>2016-05-15T10:48:43.000Z</time>
      </trkpt>
      <trkpt lat="44.57219" lon="4.30671">
        <ele>392</ele>
        <time>2016-05-15T10:48:44.000Z</time>
      </trkpt>
      <trkpt lat="44.5722" lon="4.30671">
        <ele>392</ele>
        <time>2016-05-15T10:48:45.000Z</time>
      </trkpt>
      <trkpt lat="44.57221" lon="4.30671">
        <ele>392</ele>
        <time>2016-05-15T10:48:46.000Z</time>
      </trkpt>
      <trkpt lat="44.57222" lon="4.3067">
        <ele>392</ele>
        <time>2016-05-15T10:48:47.000Z</time>
      </trkpt>
      <trkpt lat="44.57224" lon="4.3067">
        <ele>391</ele>
        <time>2016-05-15T10:48:48.000Z</time>
      </trkpt>
      <trkpt lat="44.57226" lon="4.3067">
        <ele>391</ele>
        <time>2016-05-15T10:48:49.000Z</time>
      </trkpt>
      <trkpt lat="44.57227" lon="4.30669">
        <ele>391</ele>
        <time>2016-05-15T10:48:50.000Z</time>
      </trkpt>
      <trkpt lat="44.57229" lon="4.30669">
        <ele>391</ele>
        <time>2016-05-15T10:48:51.000Z</time>
      </trkpt>
      <trkpt lat="44.5723" lon="4.30668">
        <ele>391</ele>
        <time>2016-05-15T10:48:52.000Z</time>
      </trkpt>
      <trkpt lat="44.57233" lon="4.30667">
        <ele>391</ele>
        <time>2016-05-15T10:48:53.000Z</time>
      </trkpt>
      <trkpt lat="44.57235" lon="4.30666">
        <ele>399</ele>
        <time>2016-05-15T10:48:54.000Z</time>
      </trkpt>
      <trkpt lat="44.57237" lon="4.30665">
        <ele>398</ele>
        <time>2016-05-15T10:48:55.000Z</time>
      </trkpt>
      <trkpt lat="44.5724" lon="4.30664">
        <ele>397</ele>
        <time>2016-05-15T10:48:56.000Z</time>
      </trkpt>
      <trkpt lat="44.57243" lon="4.30663">
        <ele>396</ele>
        <time>2016-05-15T10:48:57.000Z</time>
      </trkpt>
      <trkpt lat="44.57246" lon="4.30662">
        <ele>395</ele>
        <time>2016-05-15T10:48:58.000Z</time>
      </trkpt>
      <trkpt lat="44.57249" lon="4.30661">
        <ele>395</ele>
        <time>2016-05-15T10:48:59.000Z</time>
      </trkpt>
      <trkpt lat="44.57252" lon="4.30661">
        <ele>393</ele>
        <time>2016-05-15T10:49:00.000Z</time>
      </trkpt>
      <trkpt lat="44.57254" lon="4.30661">
        <ele>393</ele>
        <time>2016-05-15T10:49:01.000Z</time>
      </trkpt>
      <trkpt lat="44.57257" lon="4.30661">
        <ele>394</ele>
        <time>2016-05-15T10:49:02.000Z</time>
      </trkpt>
      <trkpt lat="44.57259" lon="4.30662">
        <ele>394</ele>
        <time>2016-05-15T10:49:03.000Z</time>
      </trkpt>
      <trkpt lat="44.57262" lon="4.30663">
        <ele>395</ele>
        <time>2016-05-15T10:49:04.000Z</time>
      </trkpt>
      <trkpt lat="44.57265" lon="4.30664">
        <ele>395</ele>
        <time>2016-05-15T10:49:05.000Z</time>
      </trkpt>
      <trkpt lat="44.57268" lon="4.30664">
        <ele>396</ele>
        <time>2016-05-15T10:49:06.000Z</time>
      </trkpt>
      <trkpt lat="44.57271" lon="4.30664">
        <ele>396</ele>
        <time>2016-05-15T10:49:07.000Z</time>
      </trkpt>
      <trkpt lat="44.57274" lon="4.30664">
        <ele>397</ele>
        <time>2016-05-15T10:49:08.000Z</time>
      </trkpt>
      <trkpt lat="44.57276" lon="4.30663">
        <ele>397</ele>
        <time>2016-05-15T10:49:09.000Z</time>
      </trkpt>
      <trkpt lat="44.57278" lon="4.30662">
        <ele>397</ele>
        <time>2016-05-15T10:49:10.000Z</time>
      </trkpt>
      <trkpt lat="44.57279" lon="4.3066">
        <ele>398</ele>
        <time>2016-05-15T10:49:11.000Z</time>
      </trkpt>
      <trkpt lat="44.57279" lon="4.30659">
        <ele>398</ele>
        <time>2016-05-15T10:49:12.000Z</time>
      </trkpt>
      <trkpt lat="44.5728" lon="4.30659">
        <ele>398</ele>
        <time>2016-05-15T10:49:13.000Z</time>
      </trkpt>
      <trkpt lat="44.5728" lon="4.30658">
        <ele>398</ele>
        <time>2016-05-15T10:49:14.000Z</time>
      </trkpt>
      <trkpt lat="44.5728" lon="4.30658">
        <ele>398</ele>
        <time>2016-05-15T10:49:15.000Z</time>
      </trkpt>
      <trkpt lat="44.5728" lon="4.30658">
        <ele>398</ele>
        <time>2016-05-15T10:49:16.000Z</time>
      </trkpt>
      <trkpt lat="44.5728" lon="4.30658">
        <ele>398</ele>
        <time>2016-05-15T10:49:17.000Z</time>
      </trkpt>
      <trkpt lat="44.57281" lon="4.30658">
        <ele>398</ele>
        <time>2016-05-15T10:49:18.000Z</time>
      </trkpt>
      <trkpt lat="44.5728" lon="4.30658">
        <ele>398</ele>
        <time>2016-05-15T10:49:19.000Z</time>
      </trkpt>
      <trkpt lat="44.5728" lon="4.30658">
        <ele>398</ele>
        <time>2016-05-15T10:49:20.000Z</time>
      </trkpt>
      <trkpt lat="44.5728" lon="4.30658">
        <ele>398</ele>
        <time>2016-05-15T10:49:21.000Z</time>
      </trkpt>
      <trkpt lat="44.57281" lon="4.30658">
        <ele>398</ele>
        <time>2016-05-15T10:49:22.000Z</time>
      </trkpt>
      <trkpt lat="44.57281" lon="4.30658">
        <ele>398</ele>
        <time>2016-05-15T10:49:23.000Z</time>
      </trkpt>
      <trkpt lat="44.57281" lon="4.30658">
        <ele>398</ele>
        <time>2016-05-15T10:49:24.000Z</time>
      </trkpt>
      <trkpt lat="44.57281" lon="4.30658">
        <ele>398</ele>
        <time>2016-05-15T10:49:25.000Z</time>
      </trkpt>
      <trkpt lat="44.57281" lon="4.30658">
        <ele>398</ele>
        <time>2016-05-15T10:49:26.000Z</time>
      </trkpt>
      <trkpt lat="44.57281" lon="4.30658">
        <ele>398</ele>
        <time>2016-05-15T10:49:27.000Z</time>
      </trkpt>
      <trkpt lat="44.57281" lon="4.30658">
        <ele>398</ele>
        <time>2016-05-15T10:49:28.000Z</time>
      </trkpt>
      <trkpt lat="44.57281" lon="4.30658">
        <ele>398</ele>
        <time>2016-05-15T10:49:29.000Z</time>
      </trkpt>
      <trkpt lat="44.57281" lon="4.30658">
        <ele>398</ele>
        <time>2016-05-15T10:49:30.000Z</time>
      </trkpt>
      <trkpt lat="44.57281" lon="4.30658">
        <ele>398</ele>
        <time>2016-05-15T10:49:31.000Z</time>
      </trkpt>
      <trkpt lat="44.57281" lon="4.30658">
        <ele>398</ele>
        <time>2016-05-15T10:49:32.000Z</time>
      </trkpt>
      <trkpt lat="44.57281" lon="4.30658">
        <ele>398</ele>
        <time>2016-05-15T10:49:33.000Z</time>
      </trkpt>
      <trkpt lat="44.57281" lon="4.30659">
        <ele>398</ele>
        <time>2016-05-15T10:49:34.000Z</time>
      </trkpt>
      <trkpt lat="44.57281" lon="4.30659">
        <ele>398</ele>
        <time>2016-05-15T10:49:35.000Z</time>
      </trkpt>
      <trkpt lat="44.57281" lon="4.30659">
        <ele>398</ele>
        <time>2016-05-15T10:49:36.000Z</time>
      </trkpt>
      <trkpt lat="44.57281" lon="4.30659">
        <ele>398</ele>
        <time>2016-05-15T10:49:37.000Z</time>
      </trkpt>
      <trkpt lat="44.57281" lon="4.30659">
        <ele>398</ele>
        <time>2016-05-15T10:49:38.000Z</time>
      </trkpt>
      <trkpt lat="44.57281" lon="4.30659">
        <ele>398</ele>
        <time>2016-05-15T10:49:39.000Z</time>
      </trkpt>
      <trkpt lat="44.57281" lon="4.30659">
        <ele>398</ele>
        <time>2016-05-15T10:49:40.000Z</time>
      </trkpt>
      <trkpt lat="44.57282" lon="4.30659">
        <ele>398</ele>
        <time>2016-05-15T10:49:41.000Z</time>
      </trkpt>
      <trkpt lat="44.57282" lon="4.30659">
        <ele>398</ele>
        <time>2016-05-15T10:49:42.000Z</time>
      </trkpt>
      <trkpt lat="44.57282" lon="4.30659">
        <ele>398</ele>
        <time>2016-05-15T10:49:43.000Z</time>
      </trkpt>
      <trkpt lat="44.57282" lon="4.30659">
        <ele>398</ele>
        <time>2016-05-15T10:49:44.000Z</time>
      </trkpt>
      <trkpt lat="44.57282" lon="4.30659">
        <ele>398</ele>
        <time>2016-05-15T10:49:45.000Z</time>
      </trkpt>
      <trkpt lat="44.57282" lon="4.3066">
        <ele>398</ele>
        <time>2016-05-15T10:49:46.000Z</time>
      </trkpt>
      <trkpt lat="44.57282" lon="4.3066">
        <ele>398</ele>
        <time>2016-05-15T10:49:47.000Z</time>
      </trkpt>
      <trkpt lat="44.57282" lon="4.3066">
        <ele>398</ele>
        <time>2016-05-15T10:49:48.000Z</time>
      </trkpt>
      <trkpt lat="44.57283" lon="4.3066">
        <ele>398</ele>
        <time>2016-05-15T10:49:49.000Z</time>
      </trkpt>
      <trkpt lat="44.57284" lon="4.3066">
        <ele>398</ele>
        <time>2016-05-15T10:49:50.000Z</time>
      </trkpt>
      <trkpt lat="44.57285" lon="4.30659">
        <ele>398</ele>
        <time>2016-05-15T10:49:51.000Z</time>
      </trkpt>
      <trkpt lat="44.57287" lon="4.30659">
        <ele>398</ele>
        <time>2016-05-15T10:49:52.000Z</time>
      </trkpt>
      <trkpt lat="44.57288" lon="4.30658">
        <ele>398</ele>
        <time>2016-05-15T10:49:53.000Z</time>
      </trkpt>
      <trkpt lat="44.5729" lon="4.30656">
        <ele>398</ele>
        <time>2016-05-15T10:49:54.000Z</time>
      </trkpt>
      <trkpt lat="44.57292" lon="4.30654">
        <ele>399</ele>
        <time>2016-05-15T10:49:55.000Z</time>
      </trkpt>
      <trkpt lat="44.57294" lon="4.30651">
        <ele>399</ele>
        <time>2016-05-15T10:49:56.000Z</time>
      </trkpt>
      <trkpt lat="44.57296" lon="4.30649">
        <ele>399</ele>
        <time>2016-05-15T10:49:57.000Z</time>
      </trkpt>
      <trkpt lat="44.57298" lon="4.30646">
        <ele>399</ele>
        <time>2016-05-15T10:49:58.000Z</time>
      </trkpt>
      <trkpt lat="44.573" lon="4.30644">
        <ele>399</ele>
        <time>2016-05-15T10:49:59.000Z</time>
      </trkpt>
      <trkpt lat="44.57301" lon="4.30641">
        <ele>400</ele>
        <time>2016-05-15T10:50:00.000Z</time>
      </trkpt>
      <trkpt lat="44.57303" lon="4.30638">
        <ele>400</ele>
        <time>2016-05-15T10:50:01.000Z</time>
      </trkpt>
      <trkpt lat="44.57305" lon="4.30635">
        <ele>400</ele>
        <time>2016-05-15T10:50:02.000Z</time>
      </trkpt>
      <trkpt lat="44.57306" lon="4.30632">
        <ele>401</ele>
        <time>2016-05-15T10:50:03.000Z</time>
      </trkpt>
      <trkpt lat="44.57308" lon="4.3063">
        <ele>401</ele>
        <time>2016-05-15T10:50:04.000Z</time>
      </trkpt>
      <trkpt lat="44.5731" lon="4.30627">
        <ele>401</ele>
        <time>2016-05-15T10:50:05.000Z</time>
      </trkpt>
      <trkpt lat="44.57311" lon="4.30625">
        <ele>402</ele>
        <time>2016-05-15T10:50:06.000Z</time>
      </trkpt>
      <trkpt lat="44.57313" lon="4.30623">
        <ele>402</ele>
        <time>2016-05-15T10:50:07.000Z</time>
      </trkpt>
      <trkpt lat="44.57316" lon="4.30622">
        <ele>402</ele>
        <time>2016-05-15T10:50:08.000Z</time>
      </trkpt>
      <trkpt lat="44.57318" lon="4.30621">
        <ele>402</ele>
        <time>2016-05-15T10:50:09.000Z</time>
      </trkpt>
      <trkpt lat="44.57321" lon="4.30621">
        <ele>402</ele>
        <time>2016-05-15T10:50:10.000Z</time>
      </trkpt>
      <trkpt lat="44.57323" lon="4.30621">
        <ele>402</ele>
        <time>2016-05-15T10:50:11.000Z</time>
      </trkpt>
      <trkpt lat="44.57327" lon="4.30623">
        <ele>402</ele>
        <time>2016-05-15T10:50:12.000Z</time>
      </trkpt>
      <trkpt lat="44.57329" lon="4.30624">
        <ele>402</ele>
        <time>2016-05-15T10:50:13.000Z</time>
      </trkpt>
      <trkpt lat="44.57332" lon="4.30626">
        <ele>401</ele>
        <time>2016-05-15T10:50:14.000Z</time>
      </trkpt>
      <trkpt lat="44.57335" lon="4.30629">
        <ele>405</ele>
        <time>2016-05-15T10:50:15.000Z</time>
      </trkpt>
      <trkpt lat="44.57337" lon="4.30631">
        <ele>405</ele>
        <time>2016-05-15T10:50:16.000Z</time>
      </trkpt>
      <trkpt lat="44.5734" lon="4.30633">
        <ele>405</ele>
        <time>2016-05-15T10:50:17.000Z</time>
      </trkpt>
      <trkpt lat="44.57342" lon="4.30635">
        <ele>405</ele>
        <time>2016-05-15T10:50:18.000Z</time>
      </trkpt>
      <trkpt lat="44.57345" lon="4.30637">
        <ele>404</ele>
        <time>2016-05-15T10:50:19.000Z</time>
      </trkpt>
      <trkpt lat="44.57347" lon="4.30639">
        <ele>404</ele>
        <time>2016-05-15T10:50:20.000Z</time>
      </trkpt>
      <trkpt lat="44.57349" lon="4.30641">
        <ele>404</ele>
        <time>2016-05-15T10:50:21.000Z</time>
      </trkpt>
      <trkpt lat="44.57351" lon="4.30643">
        <ele>404</ele>
        <time>2016-05-15T10:50:22.000Z</time>
      </trkpt>
      <trkpt lat="44.57353" lon="4.30645">
        <ele>404</ele>
        <time>2016-05-15T10:50:23.000Z</time>
      </trkpt>
      <trkpt lat="44.57355" lon="4.30648">
        <ele>404</ele>
        <time>2016-05-15T10:50:24.000Z</time>
      </trkpt>
      <trkpt lat="44.57357" lon="4.30651">
        <ele>404</ele>
        <time>2016-05-15T10:50:25.000Z</time>
      </trkpt>
      <trkpt lat="44.57359" lon="4.30654">
        <ele>404</ele>
        <time>2016-05-15T10:50:26.000Z</time>
      </trkpt>
      <trkpt lat="44.57361" lon="4.30658">
        <ele>404</ele>
        <time>2016-05-15T10:50:27.000Z</time>
      </trkpt>
      <trkpt lat="44.57363" lon="4.30661">
        <ele>404</ele>
        <time>2016-05-15T10:50:28.000Z</time>
      </trkpt>
      <trkpt lat="44.57365" lon="4.30665">
        <ele>404</ele>
        <time>2016-05-15T10:50:29.000Z</time>
      </trkpt>
      <trkpt lat="44.57367" lon="4.30669">
        <ele>397</ele>
        <time>2016-05-15T10:50:30.000Z</time>
      </trkpt>
      <trkpt lat="44.57368" lon="4.30673">
        <ele>397</ele>
        <time>2016-05-15T10:50:31.000Z</time>
      </trkpt>
      <trkpt lat="44.5737" lon="4.30676">
        <ele>397</ele>
        <time>2016-05-15T10:50:32.000Z</time>
      </trkpt>
      <trkpt lat="44.5737" lon="4.30681">
        <ele>398</ele>
        <time>2016-05-15T10:50:33.000Z</time>
      </trkpt>
      <trkpt lat="44.57371" lon="4.30685">
        <ele>398</ele>
        <time>2016-05-15T10:50:34.000Z</time>
      </trkpt>
      <trkpt lat="44.57371" lon="4.3069">
        <ele>397</ele>
        <time>2016-05-15T10:50:35.000Z</time>
      </trkpt>
      <trkpt lat="44.5737" lon="4.30694">
        <ele>397</ele>
        <time>2016-05-15T10:50:36.000Z</time>
      </trkpt>
      <trkpt lat="44.57369" lon="4.30698">
        <ele>397</ele>
        <time>2016-05-15T10:50:37.000Z</time>
      </trkpt>
      <trkpt lat="44.57367" lon="4.30701">
        <ele>397</ele>
        <time>2016-05-15T10:50:38.000Z</time>
      </trkpt>
      <trkpt lat="44.57366" lon="4.30704">
        <ele>396</ele>
        <time>2016-05-15T10:50:39.000Z</time>
      </trkpt>
      <trkpt lat="44.57366" lon="4.30706">
        <ele>396</ele>
        <time>2016-05-15T10:50:40.000Z</time>
      </trkpt>
      <trkpt lat="44.57365" lon="4.30708">
        <ele>396</ele>
        <time>2016-05-15T10:50:41.000Z</time>
      </trkpt>
      <trkpt lat="44.57364" lon="4.3071">
        <ele>396</ele>
        <time>2016-05-15T10:50:42.000Z</time>
      </trkpt>
      <trkpt lat="44.57364" lon="4.30712">
        <ele>395</ele>
        <time>2016-05-15T10:50:43.000Z</time>
      </trkpt>
      <trkpt lat="44.57363" lon="4.30716">
        <ele>395</ele>
        <time>2016-05-15T10:50:44.000Z</time>
      </trkpt>
      <trkpt lat="44.57362" lon="4.30719">
        <ele>395</ele>
        <time>2016-05-15T10:50:45.000Z</time>
      </trkpt>
      <trkpt lat="44.57361" lon="4.30724">
        <ele>394</ele>
        <time>2016-05-15T10:50:46.000Z</time>
      </trkpt>
      <trkpt lat="44.5736" lon="4.30728">
        <ele>394</ele>
        <time>2016-05-15T10:50:47.000Z</time>
      </trkpt>
      <trkpt lat="44.5736" lon="4.30732">
        <ele>393</ele>
        <time>2016-05-15T10:50:48.000Z</time>
      </trkpt>
      <trkpt lat="44.5736" lon="4.30737">
        <ele>393</ele>
        <time>2016-05-15T10:50:49.000Z</time>
      </trkpt>
      <trkpt lat="44.5736" lon="4.30741">
        <ele>393</ele>
        <time>2016-05-15T10:50:50.000Z</time>
      </trkpt>
      <trkpt lat="44.57361" lon="4.30745">
        <ele>392</ele>
        <time>2016-05-15T10:50:51.000Z</time>
      </trkpt>
      <trkpt lat="44.57362" lon="4.3075">
        <ele>393</ele>
        <time>2016-05-15T10:50:52.000Z</time>
      </trkpt>
      <trkpt lat="44.57363" lon="4.30754">
        <ele>387</ele>
        <time>2016-05-15T10:50:53.000Z</time>
      </trkpt>
      <trkpt lat="44.57364" lon="4.30757">
        <ele>388</ele>
        <time>2016-05-15T10:50:54.000Z</time>
      </trkpt>
      <trkpt lat="44.57366" lon="4.30761">
        <ele>388</ele>
        <time>2016-05-15T10:50:55.000Z</time>
      </trkpt>
      <trkpt lat="44.57367" lon="4.30764">
        <ele>388</ele>
        <time>2016-05-15T10:50:56.000Z</time>
      </trkpt>
      <trkpt lat="44.57369" lon="4.30767">
        <ele>388</ele>
        <time>2016-05-15T10:50:57.000Z</time>
      </trkpt>
      <trkpt lat="44.5737" lon="4.3077">
        <ele>388</ele>
        <time>2016-05-15T10:50:58.000Z</time>
      </trkpt>
      <trkpt lat="44.57372" lon="4.30773">
        <ele>389</ele>
        <time>2016-05-15T10:50:59.000Z</time>
      </trkpt>
      <trkpt lat="44.57374" lon="4.30776">
        <ele>389</ele>
        <time>2016-05-15T10:51:00.000Z</time>
      </trkpt>
      <trkpt lat="44.57376" lon="4.30779">
        <ele>389</ele>
        <time>2016-05-15T10:51:01.000Z</time>
      </trkpt>
      <trkpt lat="44.57378" lon="4.30782">
        <ele>389</ele>
        <time>2016-05-15T10:51:02.000Z</time>
      </trkpt>
      <trkpt lat="44.57381" lon="4.30785">
        <ele>389</ele>
        <time>2016-05-15T10:51:03.000Z</time>
      </trkpt>
      <trkpt lat="44.57383" lon="4.30788">
        <ele>389</ele>
        <time>2016-05-15T10:51:04.000Z</time>
      </trkpt>
      <trkpt lat="44.57385" lon="4.3079">
        <ele>390</ele>
        <time>2016-05-15T10:51:05.000Z</time>
      </trkpt>
      <trkpt lat="44.57388" lon="4.30792">
        <ele>390</ele>
        <time>2016-05-15T10:51:06.000Z</time>
      </trkpt>
      <trkpt lat="44.57391" lon="4.30794">
        <ele>390</ele>
        <time>2016-05-15T10:51:07.000Z</time>
      </trkpt>
      <trkpt lat="44.57394" lon="4.30796">
        <ele>391</ele>
        <time>2016-05-15T10:51:08.000Z</time>
      </trkpt>
      <trkpt lat="44.57396" lon="4.30797">
        <ele>391</ele>
        <time>2016-05-15T10:51:09.000Z</time>
      </trkpt>
      <trkpt lat="44.57399" lon="4.30799">
        <ele>391</ele>
        <time>2016-05-15T10:51:10.000Z</time>
      </trkpt>
      <trkpt lat="44.57402" lon="4.308">
        <ele>391</ele>
        <time>2016-05-15T10:51:11.000Z</time>
      </trkpt>
      <trkpt lat="44.57405" lon="4.30802">
        <ele>391</ele>
        <time>2016-05-15T10:51:12.000Z</time>
      </trkpt>
      <trkpt lat="44.57407" lon="4.30803">
        <ele>392</ele>
        <time>2016-05-15T10:51:13.000Z</time>
      </trkpt>
      <trkpt lat="44.5741" lon="4.30805">
        <ele>392</ele>
        <time>2016-05-15T10:51:14.000Z</time>
      </trkpt>
      <trkpt lat="44.57412" lon="4.30807">
        <ele>392</ele>
        <time>2016-05-15T10:51:15.000Z</time>
      </trkpt>
      <trkpt lat="44.57415" lon="4.30809">
        <ele>392</ele>
        <time>2016-05-15T10:51:16.000Z</time>
      </trkpt>
      <trkpt lat="44.57417" lon="4.30811">
        <ele>392</ele>
        <time>2016-05-15T10:51:17.000Z</time>
      </trkpt>
      <trkpt lat="44.57419" lon="4.30813">
        <ele>404</ele>
        <time>2016-05-15T10:51:18.000Z</time>
      </trkpt>
      <trkpt lat="44.5742" lon="4.30815">
        <ele>403</ele>
        <time>2016-05-15T10:51:19.000Z</time>
      </trkpt>
      <trkpt lat="44.57422" lon="4.30818">
        <ele>403</ele>
        <time>2016-05-15T10:51:20.000Z</time>
      </trkpt>
      <trkpt lat="44.57424" lon="4.30821">
        <ele>402</ele>
        <time>2016-05-15T10:51:21.000Z</time>
      </trkpt>
      <trkpt lat="44.57425" lon="4.30823">
        <ele>402</ele>
        <time>2016-05-15T10:51:22.000Z</time>
      </trkpt>
      <trkpt lat="44.57427" lon="4.30826">
        <ele>402</ele>
        <time>2016-05-15T10:51:23.000Z</time>
      </trkpt>
      <trkpt lat="44.57428" lon="4.30829">
        <ele>402</ele>
        <time>2016-05-15T10:51:24.000Z</time>
      </trkpt>
      <trkpt lat="44.5743" lon="4.30832">
        <ele>402</ele>
        <time>2016-05-15T10:51:25.000Z</time>
      </trkpt>
      <trkpt lat="44.57431" lon="4.30835">
        <ele>397</ele>
        <time>2016-05-15T10:51:26.000Z</time>
      </trkpt>
      <trkpt lat="44.57433" lon="4.30838">
        <ele>397</ele>
        <time>2016-05-15T10:51:27.000Z</time>
      </trkpt>
      <trkpt lat="44.57434" lon="4.3084">
        <ele>397</ele>
        <time>2016-05-15T10:51:28.000Z</time>
      </trkpt>
      <trkpt lat="44.57435" lon="4.30843">
        <ele>397</ele>
        <time>2016-05-15T10:51:29.000Z</time>
      </trkpt>
      <trkpt lat="44.57436" lon="4.30846">
        <ele>398</ele>
        <time>2016-05-15T10:51:30.000Z</time>
      </trkpt>
      <trkpt lat="44.57436" lon="4.30848">
        <ele>398</ele>
        <time>2016-05-15T10:51:31.000Z</time>
      </trkpt>
      <trkpt lat="44.57436" lon="4.30851">
        <ele>397</ele>
        <time>2016-05-15T10:51:32.000Z</time>
      </trkpt>
      <trkpt lat="44.57435" lon="4.30854">
        <ele>397</ele>
        <time>2016-05-15T10:51:33.000Z</time>
      </trkpt>
      <trkpt lat="44.57434" lon="4.30859">
        <ele>397</ele>
        <time>2016-05-15T10:51:34.000Z</time>
      </trkpt>
      <trkpt lat="44.57433" lon="4.30864">
        <ele>397</ele>
        <time>2016-05-15T10:51:35.000Z</time>
      </trkpt>
      <trkpt lat="44.5743" lon="4.30871">
        <ele>396</ele>
        <time>2016-05-15T10:51:36.000Z</time>
      </trkpt>
      <trkpt lat="44.57426" lon="4.30878">
        <ele>395</ele>
        <time>2016-05-15T10:51:37.000Z</time>
      </trkpt>
      <trkpt lat="44.57422" lon="4.30886">
        <ele>394</ele>
        <time>2016-05-15T10:51:38.000Z</time>
      </trkpt>
      <trkpt lat="44.57417" lon="4.30896">
        <ele>392</ele>
        <time>2016-05-15T10:51:39.000Z</time>
      </trkpt>
      <trkpt lat="44.57413" lon="4.30907">
        <ele>383</ele>
        <time>2016-05-15T10:51:40.000Z</time>
      </trkpt>
      <trkpt lat="44.5741" lon="4.30918">
        <ele>382</ele>
        <time>2016-05-15T10:51:41.000Z</time>
      </trkpt>
      <trkpt lat="44.57407" lon="4.30928">
        <ele>379</ele>
        <time>2016-05-15T10:51:42.000Z</time>
      </trkpt>
      <trkpt lat="44.57404" lon="4.30937">
        <ele>377</ele>
        <time>2016-05-15T10:51:43.000Z</time>
      </trkpt>
      <trkpt lat="44.57403" lon="4.30947">
        <ele>375</ele>
        <time>2016-05-15T10:51:44.000Z</time>
      </trkpt>
      <trkpt lat="44.57403" lon="4.30956">
        <ele>374</ele>
        <time>2016-05-15T10:51:45.000Z</time>
      </trkpt>
      <trkpt lat="44.57405" lon="4.30964">
        <ele>374</ele>
        <time>2016-05-15T10:51:46.000Z</time>
      </trkpt>
      <trkpt lat="44.57408" lon="4.30969">
        <ele>374</ele>
        <time>2016-05-15T10:51:47.000Z</time>
      </trkpt>
      <trkpt lat="44.57411" lon="4.30973">
        <ele>374</ele>
        <time>2016-05-15T10:51:48.000Z</time>
      </trkpt>
      <trkpt lat="44.57414" lon="4.30975">
        <ele>374</ele>
        <time>2016-05-15T10:51:49.000Z</time>
      </trkpt>
      <trkpt lat="44.57417" lon="4.30979">
        <ele>382</ele>
        <time>2016-05-15T10:51:50.000Z</time>
      </trkpt>
      <trkpt lat="44.5742" lon="4.30983">
        <ele>381</ele>
        <time>2016-05-15T10:51:51.000Z</time>
      </trkpt>
      <trkpt lat="44.57423" lon="4.3099">
        <ele>380</ele>
        <time>2016-05-15T10:51:52.000Z</time>
      </trkpt>
      <trkpt lat="44.57424" lon="4.30996">
        <ele>379</ele>
        <time>2016-05-15T10:51:53.000Z</time>
      </trkpt>
      <trkpt lat="44.57425" lon="4.31003">
        <ele>376</ele>
        <time>2016-05-15T10:51:54.000Z</time>
      </trkpt>
      <trkpt lat="44.57426" lon="4.3101">
        <ele>376</ele>
        <time>2016-05-15T10:51:55.000Z</time>
      </trkpt>
      <trkpt lat="44.57428" lon="4.31018">
        <ele>376</ele>
        <time>2016-05-15T10:51:56.000Z</time>
      </trkpt>
      <trkpt lat="44.5743" lon="4.31027">
        <ele>375</ele>
        <time>2016-05-15T10:51:57.000Z</time>
      </trkpt>
      <trkpt lat="44.57431" lon="4.31036">
        <ele>374</ele>
        <time>2016-05-15T10:51:58.000Z</time>
      </trkpt>
      <trkpt lat="44.57432" lon="4.31044">
        <ele>374</ele>
        <time>2016-05-15T10:51:59.000Z</time>
      </trkpt>
      <trkpt lat="44.57433" lon="4.3105">
        <ele>373</ele>
        <time>2016-05-15T10:52:00.000Z</time>
      </trkpt>
      <trkpt lat="44.57433" lon="4.31059">
        <ele>373</ele>
        <time>2016-05-15T10:52:01.000Z</time>
      </trkpt>
      <trkpt lat="44.57433" lon="4.31068">
        <ele>372</ele>
        <time>2016-05-15T10:52:02.000Z</time>
      </trkpt>
      <trkpt lat="44.57433" lon="4.31079">
        <ele>371</ele>
        <time>2016-05-15T10:52:03.000Z</time>
      </trkpt>
      <trkpt lat="44.57433" lon="4.31089">
        <ele>367</ele>
        <time>2016-05-15T10:52:04.000Z</time>
      </trkpt>
      <trkpt lat="44.57433" lon="4.311">
        <ele>366</ele>
        <time>2016-05-15T10:52:05.000Z</time>
      </trkpt>
      <trkpt lat="44.57434" lon="4.3111">
        <ele>366</ele>
        <time>2016-05-15T10:52:06.000Z</time>
      </trkpt>
      <trkpt lat="44.57434" lon="4.31119">
        <ele>365</ele>
        <time>2016-05-15T10:52:07.000Z</time>
      </trkpt>
      <trkpt lat="44.57435" lon="4.31127">
        <ele>365</ele>
        <time>2016-05-15T10:52:08.000Z</time>
      </trkpt>
      <trkpt lat="44.57435" lon="4.31136">
        <ele>364</ele>
        <time>2016-05-15T10:52:09.000Z</time>
      </trkpt>
      <trkpt lat="44.57436" lon="4.31145">
        <ele>364</ele>
        <time>2016-05-15T10:52:10.000Z</time>
      </trkpt>
      <trkpt lat="44.57436" lon="4.31155">
        <ele>363</ele>
        <time>2016-05-15T10:52:11.000Z</time>
      </trkpt>
      <trkpt lat="44.57435" lon="4.31164">
        <ele>363</ele>
        <time>2016-05-15T10:52:12.000Z</time>
      </trkpt>
      <trkpt lat="44.57434" lon="4.31171">
        <ele>358</ele>
        <time>2016-05-15T10:52:13.000Z</time>
      </trkpt>
      <trkpt lat="44.57432" lon="4.31178">
        <ele>357</ele>
        <time>2016-05-15T10:52:14.000Z</time>
      </trkpt>
      <trkpt lat="44.5743" lon="4.31185">
        <ele>357</ele>
        <time>2016-05-15T10:52:15.000Z</time>
      </trkpt>
      <trkpt lat="44.57429" lon="4.31193">
        <ele>356</ele>
        <time>2016-05-15T10:52:16.000Z</time>
      </trkpt>
      <trkpt lat="44.57428" lon="4.31201">
        <ele>355</ele>
        <time>2016-05-15T10:52:17.000Z</time>
      </trkpt>
      <trkpt lat="44.57426" lon="4.31209">
        <ele>355</ele>
        <time>2016-05-15T10:52:18.000Z</time>
      </trkpt>
      <trkpt lat="44.57424" lon="4.31216">
        <ele>354</ele>
        <time>2016-05-15T10:52:19.000Z</time>
      </trkpt>
      <trkpt lat="44.57421" lon="4.31223">
        <ele>353</ele>
        <time>2016-05-15T10:52:20.000Z</time>
      </trkpt>
      <trkpt lat="44.57417" lon="4.31229">
        <ele>353</ele>
        <time>2016-05-15T10:52:21.000Z</time>
      </trkpt>
      <trkpt lat="44.57413" lon="4.31236">
        <ele>351</ele>
        <time>2016-05-15T10:52:22.000Z</time>
      </trkpt>
      <trkpt lat="44.5741" lon="4.31243">
        <ele>350</ele>
        <time>2016-05-15T10:52:23.000Z</time>
      </trkpt>
      <trkpt lat="44.57408" lon="4.31248">
        <ele>350</ele>
        <time>2016-05-15T10:52:24.000Z</time>
      </trkpt>
      <trkpt lat="44.57406" lon="4.31253">
        <ele>346</ele>
        <time>2016-05-15T10:52:25.000Z</time>
      </trkpt>
      <trkpt lat="44.57403" lon="4.31255">
        <ele>346</ele>
        <time>2016-05-15T10:52:26.000Z</time>
      </trkpt>
      <trkpt lat="44.57401" lon="4.31256">
        <ele>345</ele>
        <time>2016-05-15T10:52:27.000Z</time>
      </trkpt>
      <trkpt lat="44.57399" lon="4.31258">
        <ele>345</ele>
        <time>2016-05-15T10:52:28.000Z</time>
      </trkpt>
      <trkpt lat="44.57397" lon="4.31261">
        <ele>344</ele>
        <time>2016-05-15T10:52:29.000Z</time>
      </trkpt>
      <trkpt lat="44.57396" lon="4.31265">
        <ele>343</ele>
        <time>2016-05-15T10:52:30.000Z</time>
      </trkpt>
      <trkpt lat="44.57394" lon="4.31268">
        <ele>343</ele>
        <time>2016-05-15T10:52:31.000Z</time>
      </trkpt>
      <trkpt lat="44.57392" lon="4.31272">
        <ele>342</ele>
        <time>2016-05-15T10:52:32.000Z</time>
      </trkpt>
      <trkpt lat="44.5739" lon="4.31276">
        <ele>342</ele>
        <time>2016-05-15T10:52:33.000Z</time>
      </trkpt>
      <trkpt lat="44.57388" lon="4.31281">
        <ele>341</ele>
        <time>2016-05-15T10:52:34.000Z</time>
      </trkpt>
      <trkpt lat="44.57387" lon="4.31287">
        <ele>340</ele>
        <time>2016-05-15T10:52:35.000Z</time>
      </trkpt>
      <trkpt lat="44.57386" lon="4.31292">
        <ele>340</ele>
        <time>2016-05-15T10:52:36.000Z</time>
      </trkpt>
      <trkpt lat="44.57384" lon="4.31296">
        <ele>339</ele>
        <time>2016-05-15T10:52:37.000Z</time>
      </trkpt>
      <trkpt lat="44.57381" lon="4.31299">
        <ele>339</ele>
        <time>2016-05-15T10:52:38.000Z</time>
      </trkpt>
      <trkpt lat="44.57379" lon="4.31303">
        <ele>339</ele>
        <time>2016-05-15T10:52:39.000Z</time>
      </trkpt>
      <trkpt lat="44.57376" lon="4.31306">
        <ele>338</ele>
        <time>2016-05-15T10:52:40.000Z</time>
      </trkpt>
      <trkpt lat="44.57372" lon="4.31308">
        <ele>338</ele>
        <time>2016-05-15T10:52:41.000Z</time>
      </trkpt>
      <trkpt lat="44.57368" lon="4.31311">
        <ele>337</ele>
        <time>2016-05-15T10:52:42.000Z</time>
      </trkpt>
      <trkpt lat="44.57363" lon="4.31313">
        <ele>337</ele>
        <time>2016-05-15T10:52:43.000Z</time>
      </trkpt>
      <trkpt lat="44.57358" lon="4.31315">
        <ele>336</ele>
        <time>2016-05-15T10:52:44.000Z</time>
      </trkpt>
      <trkpt lat="44.57353" lon="4.31317">
        <ele>335</ele>
        <time>2016-05-15T10:52:45.000Z</time>
      </trkpt>
      <trkpt lat="44.57348" lon="4.31319">
        <ele>335</ele>
        <time>2016-05-15T10:52:46.000Z</time>
      </trkpt>
      <trkpt lat="44.57344" lon="4.31321">
        <ele>334</ele>
        <time>2016-05-15T10:52:47.000Z</time>
      </trkpt>
      <trkpt lat="44.5734" lon="4.31324">
        <ele>332</ele>
        <time>2016-05-15T10:52:48.000Z</time>
      </trkpt>
      <trkpt lat="44.57336" lon="4.31327">
        <ele>331</ele>
        <time>2016-05-15T10:52:49.000Z</time>
      </trkpt>
      <trkpt lat="44.57333" lon="4.31331">
        <ele>328</ele>
        <time>2016-05-15T10:52:50.000Z</time>
      </trkpt>
      <trkpt lat="44.57331" lon="4.31337">
        <ele>326</ele>
        <time>2016-05-15T10:52:51.000Z</time>
      </trkpt>
      <trkpt lat="44.57328" lon="4.31342">
        <ele>324</ele>
        <time>2016-05-15T10:52:52.000Z</time>
      </trkpt>
      <trkpt lat="44.57325" lon="4.31347">
        <ele>323</ele>
        <time>2016-05-15T10:52:53.000Z</time>
      </trkpt>
      <trkpt lat="44.57325" lon="4.31354">
        <ele>322</ele>
        <time>2016-05-15T10:52:54.000Z</time>
      </trkpt>
      <trkpt lat="44.57324" lon="4.3136">
        <ele>320</ele>
        <time>2016-05-15T10:52:55.000Z</time>
      </trkpt>
      <trkpt lat="44.57324" lon="4.31365">
        <ele>320</ele>
        <time>2016-05-15T10:52:56.000Z</time>
      </trkpt>
      <trkpt lat="44.57325" lon="4.31369">
        <ele>319</ele>
        <time>2016-05-15T10:52:57.000Z</time>
      </trkpt>
      <trkpt lat="44.57324" lon="4.31373">
        <ele>319</ele>
        <time>2016-05-15T10:52:58.000Z</time>
      </trkpt>
      <trkpt lat="44.57324" lon="4.31379">
        <ele>318</ele>
        <time>2016-05-15T10:52:59.000Z</time>
      </trkpt>
      <trkpt lat="44.57322" lon="4.31384">
        <ele>317</ele>
        <time>2016-05-15T10:53:00.000Z</time>
      </trkpt>
      <trkpt lat="44.57321" lon="4.31389">
        <ele>317</ele>
        <time>2016-05-15T10:53:01.000Z</time>
      </trkpt>
      <trkpt lat="44.57319" lon="4.31394">
        <ele>316</ele>
        <time>2016-05-15T10:53:02.000Z</time>
      </trkpt>
      <trkpt lat="44.57318" lon="4.31398">
        <ele>316</ele>
        <time>2016-05-15T10:53:03.000Z</time>
      </trkpt>
      <trkpt lat="44.57318" lon="4.31401">
        <ele>316</ele>
        <time>2016-05-15T10:53:04.000Z</time>
      </trkpt>
      <trkpt lat="44.57318" lon="4.31403">
        <ele>316</ele>
        <time>2016-05-15T10:53:05.000Z</time>
      </trkpt>
      <trkpt lat="44.57319" lon="4.31405">
        <ele>315</ele>
        <time>2016-05-15T10:53:06.000Z</time>
      </trkpt>
      <trkpt lat="44.57319" lon="4.31407">
        <ele>315</ele>
        <time>2016-05-15T10:53:07.000Z</time>
      </trkpt>
      <trkpt lat="44.57319" lon="4.3141">
        <ele>315</ele>
        <time>2016-05-15T10:53:08.000Z</time>
      </trkpt>
      <trkpt lat="44.57319" lon="4.31414">
        <ele>315</ele>
        <time>2016-05-15T10:53:09.000Z</time>
      </trkpt>
      <trkpt lat="44.57319" lon="4.31418">
        <ele>310</ele>
        <time>2016-05-15T10:53:10.000Z</time>
      </trkpt>
      <trkpt lat="44.57319" lon="4.31423">
        <ele>310</ele>
        <time>2016-05-15T10:53:11.000Z</time>
      </trkpt>
      <trkpt lat="44.57319" lon="4.31428">
        <ele>309</ele>
        <time>2016-05-15T10:53:12.000Z</time>
      </trkpt>
      <trkpt lat="44.57318" lon="4.31432">
        <ele>309</ele>
        <time>2016-05-15T10:53:13.000Z</time>
      </trkpt>
      <trkpt lat="44.57318" lon="4.31436">
        <ele>309</ele>
        <time>2016-05-15T10:53:14.000Z</time>
      </trkpt>
      <trkpt lat="44.57318" lon="4.3144">
        <ele>308</ele>
        <time>2016-05-15T10:53:15.000Z</time>
      </trkpt>
      <trkpt lat="44.57317" lon="4.31444">
        <ele>308</ele>
        <time>2016-05-15T10:53:16.000Z</time>
      </trkpt>
      <trkpt lat="44.57316" lon="4.31448">
        <ele>307</ele>
        <time>2016-05-15T10:53:17.000Z</time>
      </trkpt>
      <trkpt lat="44.57315" lon="4.31452">
        <ele>307</ele>
        <time>2016-05-15T10:53:18.000Z</time>
      </trkpt>
      <trkpt lat="44.57315" lon="4.31456">
        <ele>307</ele>
        <time>2016-05-15T10:53:19.000Z</time>
      </trkpt>
      <trkpt lat="44.57314" lon="4.31459">
        <ele>306</ele>
        <time>2016-05-15T10:53:20.000Z</time>
      </trkpt>
      <trkpt lat="44.57313" lon="4.31463">
        <ele>306</ele>
        <time>2016-05-15T10:53:21.000Z</time>
      </trkpt>
      <trkpt lat="44.57313" lon="4.31468">
        <ele>306</ele>
        <time>2016-05-15T10:53:22.000Z</time>
      </trkpt>
      <trkpt lat="44.57312" lon="4.31473">
        <ele>305</ele>
        <time>2016-05-15T10:53:23.000Z</time>
      </trkpt>
      <trkpt lat="44.57311" lon="4.31479">
        <ele>305</ele>
        <time>2016-05-15T10:53:24.000Z</time>
      </trkpt>
      <trkpt lat="44.57312" lon="4.31484">
        <ele>305</ele>
        <time>2016-05-15T10:53:25.000Z</time>
      </trkpt>
      <trkpt lat="44.57313" lon="4.31489">
        <ele>304</ele>
        <time>2016-05-15T10:53:26.000Z</time>
      </trkpt>
      <trkpt lat="44.57313" lon="4.31493">
        <ele>304</ele>
        <time>2016-05-15T10:53:27.000Z</time>
      </trkpt>
      <trkpt lat="44.57313" lon="4.31497">
        <ele>304</ele>
        <time>2016-05-15T10:53:28.000Z</time>
      </trkpt>
      <trkpt lat="44.57312" lon="4.31501">
        <ele>298</ele>
        <time>2016-05-15T10:53:29.000Z</time>
      </trkpt>
      <trkpt lat="44.57311" lon="4.31504">
        <ele>297</ele>
        <time>2016-05-15T10:53:30.000Z</time>
      </trkpt>
      <trkpt lat="44.57311" lon="4.31508">
        <ele>297</ele>
        <time>2016-05-15T10:53:31.000Z</time>
      </trkpt>
      <trkpt lat="44.57311" lon="4.31511">
        <ele>297</ele>
        <time>2016-05-15T10:53:32.000Z</time>
      </trkpt>
      <trkpt lat="44.57311" lon="4.31514">
        <ele>297</ele>
        <time>2016-05-15T10:53:33.000Z</time>
      </trkpt>
      <trkpt lat="44.57311" lon="4.31517">
        <ele>297</ele>
        <time>2016-05-15T10:53:34.000Z</time>
      </trkpt>
      <trkpt lat="44.57312" lon="4.31521">
        <ele>296</ele>
        <time>2016-05-15T10:53:35.000Z</time>
      </trkpt>
      <trkpt lat="44.57312" lon="4.31524">
        <ele>296</ele>
        <time>2016-05-15T10:53:36.000Z</time>
      </trkpt>
      <trkpt lat="44.57312" lon="4.31528">
        <ele>296</ele>
        <time>2016-05-15T10:53:37.000Z</time>
      </trkpt>
      <trkpt lat="44.57311" lon="4.31532">
        <ele>295</ele>
        <time>2016-05-15T10:53:38.000Z</time>
      </trkpt>
      <trkpt lat="44.5731" lon="4.31535">
        <ele>295</ele>
        <time>2016-05-15T10:53:39.000Z</time>
      </trkpt>
      <trkpt lat="44.57309" lon="4.31538">
        <ele>294</ele>
        <time>2016-05-15T10:53:40.000Z</time>
      </trkpt>
      <trkpt lat="44.57308" lon="4.31541">
        <ele>294</ele>
        <time>2016-05-15T10:53:41.000Z</time>
      </trkpt>
      <trkpt lat="44.57307" lon="4.31543">
        <ele>294</ele>
        <time>2016-05-15T10:53:42.000Z</time>
      </trkpt>
      <trkpt lat="44.57305" lon="4.31546">
        <ele>294</ele>
        <time>2016-05-15T10:53:43.000Z</time>
      </trkpt>
      <trkpt lat="44.57305" lon="4.3155">
        <ele>293</ele>
        <time>2016-05-15T10:53:44.000Z</time>
      </trkpt>
      <trkpt lat="44.57305" lon="4.31553">
        <ele>293</ele>
        <time>2016-05-15T10:53:45.000Z</time>
      </trkpt>
      <trkpt lat="44.57305" lon="4.31556">
        <ele>293</ele>
        <time>2016-05-15T10:53:46.000Z</time>
      </trkpt>
      <trkpt lat="44.57306" lon="4.3156">
        <ele>293</ele>
        <time>2016-05-15T10:53:47.000Z</time>
      </trkpt>
      <trkpt lat="44.57305" lon="4.31563">
        <ele>292</ele>
        <time>2016-05-15T10:53:48.000Z</time>
      </trkpt>
      <trkpt lat="44.57304" lon="4.31567">
        <ele>292</ele>
        <time>2016-05-15T10:53:49.000Z</time>
      </trkpt>
      <trkpt lat="44.57303" lon="4.31572">
        <ele>292</ele>
        <time>2016-05-15T10:53:50.000Z</time>
      </trkpt>
      <trkpt lat="44.57302" lon="4.31576">
        <ele>292</ele>
        <time>2016-05-15T10:53:51.000Z</time>
      </trkpt>
      <trkpt lat="44.57301" lon="4.31581">
        <ele>291</ele>
        <time>2016-05-15T10:53:52.000Z</time>
      </trkpt>
      <trkpt lat="44.573" lon="4.31587">
        <ele>283</ele>
        <time>2016-05-15T10:53:53.000Z</time>
      </trkpt>
      <trkpt lat="44.57298" lon="4.31593">
        <ele>283</ele>
        <time>2016-05-15T10:53:54.000Z</time>
      </trkpt>
      <trkpt lat="44.57296" lon="4.31598">
        <ele>282</ele>
        <time>2016-05-15T10:53:55.000Z</time>
      </trkpt>
      <trkpt lat="44.57294" lon="4.31603">
        <ele>282</ele>
        <time>2016-05-15T10:53:56.000Z</time>
      </trkpt>
      <trkpt lat="44.57293" lon="4.31608">
        <ele>282</ele>
        <time>2016-05-15T10:53:57.000Z</time>
      </trkpt>
      <trkpt lat="44.57293" lon="4.31614">
        <ele>281</ele>
        <time>2016-05-15T10:53:58.000Z</time>
      </trkpt>
      <trkpt lat="44.57292" lon="4.3162">
        <ele>281</ele>
        <time>2016-05-15T10:53:59.000Z</time>
      </trkpt>
      <trkpt lat="44.57289" lon="4.31624">
        <ele>280</ele>
        <time>2016-05-15T10:54:00.000Z</time>
      </trkpt>
      <trkpt lat="44.57286" lon="4.31625">
        <ele>280</ele>
        <time>2016-05-15T10:54:01.000Z</time>
      </trkpt>
      <trkpt lat="44.57283" lon="4.31624">
        <ele>280</ele>
        <time>2016-05-15T10:54:02.000Z</time>
      </trkpt>
      <trkpt lat="44.5728" lon="4.31624">
        <ele>280</ele>
        <time>2016-05-15T10:54:03.000Z</time>
      </trkpt>
      <trkpt lat="44.57278" lon="4.31625">
        <ele>280</ele>
        <time>2016-05-15T10:54:04.000Z</time>
      </trkpt>
      <trkpt lat="44.57277" lon="4.31627">
        <ele>279</ele>
        <time>2016-05-15T10:54:05.000Z</time>
      </trkpt>
      <trkpt lat="44.57276" lon="4.31631">
        <ele>279</ele>
        <time>2016-05-15T10:54:06.000Z</time>
      </trkpt>
      <trkpt lat="44.57274" lon="4.31636">
        <ele>278</ele>
        <time>2016-05-15T10:54:07.000Z</time>
      </trkpt>
      <trkpt lat="44.57272" lon="4.3164">
        <ele>278</ele>
        <time>2016-05-15T10:54:08.000Z</time>
      </trkpt>
      <trkpt lat="44.57271" lon="4.31644">
        <ele>277</ele>
        <time>2016-05-15T10:54:09.000Z</time>
      </trkpt>
      <trkpt lat="44.57269" lon="4.31648">
        <ele>276</ele>
        <time>2016-05-15T10:54:10.000Z</time>
      </trkpt>
      <trkpt lat="44.57267" lon="4.31654">
        <ele>275</ele>
        <time>2016-05-15T10:54:11.000Z</time>
      </trkpt>
      <trkpt lat="44.57265" lon="4.3166">
        <ele>274</ele>
        <time>2016-05-15T10:54:12.000Z</time>
      </trkpt>
      <trkpt lat="44.57261" lon="4.31667">
        <ele>272</ele>
        <time>2016-05-15T10:54:13.000Z</time>
      </trkpt>
      <trkpt lat="44.57257" lon="4.31673">
        <ele>269</ele>
        <time>2016-05-15T10:54:14.000Z</time>
      </trkpt>
      <trkpt lat="44.57253" lon="4.31681">
        <ele>269</ele>
        <time>2016-05-15T10:54:15.000Z</time>
      </trkpt>
      <trkpt lat="44.57249" lon="4.31687">
        <ele>265</ele>
        <time>2016-05-15T10:54:16.000Z</time>
      </trkpt>
      <trkpt lat="44.57245" lon="4.31692">
        <ele>265</ele>
        <time>2016-05-15T10:54:17.000Z</time>
      </trkpt>
      <trkpt lat="44.57241" lon="4.31697">
        <ele>264</ele>
        <time>2016-05-15T10:54:18.000Z</time>
      </trkpt>
      <trkpt lat="44.57238" lon="4.31701">
        <ele>264</ele>
        <time>2016-05-15T10:54:19.000Z</time>
      </trkpt>
      <trkpt lat="44.57236" lon="4.31705">
        <ele>264</ele>
        <time>2016-05-15T10:54:20.000Z</time>
      </trkpt>
      <trkpt lat="44.57235" lon="4.31709">
        <ele>264</ele>
        <time>2016-05-15T10:54:21.000Z</time>
      </trkpt>
      <trkpt lat="44.57236" lon="4.31712">
        <ele>264</ele>
        <time>2016-05-15T10:54:22.000Z</time>
      </trkpt>
      <trkpt lat="44.57238" lon="4.31714">
        <ele>264</ele>
        <time>2016-05-15T10:54:23.000Z</time>
      </trkpt>
      <trkpt lat="44.57241" lon="4.31716">
        <ele>263</ele>
        <time>2016-05-15T10:54:24.000Z</time>
      </trkpt>
      <trkpt lat="44.57243" lon="4.31718">
        <ele>263</ele>
        <time>2016-05-15T10:54:25.000Z</time>
      </trkpt>
      <trkpt lat="44.57246" lon="4.3172">
        <ele>263</ele>
        <time>2016-05-15T10:54:26.000Z</time>
      </trkpt>
      <trkpt lat="44.57248" lon="4.31722">
        <ele>263</ele>
        <time>2016-05-15T10:54:27.000Z</time>
      </trkpt>
      <trkpt lat="44.5725" lon="4.31725">
        <ele>267</ele>
        <time>2016-05-15T10:54:28.000Z</time>
      </trkpt>
      <trkpt lat="44.57252" lon="4.31727">
        <ele>267</ele>
        <time>2016-05-15T10:54:29.000Z</time>
      </trkpt>
      <trkpt lat="44.57254" lon="4.3173">
        <ele>266</ele>
        <time>2016-05-15T10:54:30.000Z</time>
      </trkpt>
      <trkpt lat="44.57256" lon="4.31732">
        <ele>266</ele>
        <time>2016-05-15T10:54:31.000Z</time>
      </trkpt>
      <trkpt lat="44.57259" lon="4.31734">
        <ele>266</ele>
        <time>2016-05-15T10:54:32.000Z</time>
      </trkpt>
      <trkpt lat="44.5726" lon="4.31736">
        <ele>266</ele>
        <time>2016-05-15T10:54:33.000Z</time>
      </trkpt>
      <trkpt lat="44.57262" lon="4.31738">
        <ele>266</ele>
        <time>2016-05-15T10:54:34.000Z</time>
      </trkpt>
      <trkpt lat="44.57264" lon="4.3174">
        <ele>266</ele>
        <time>2016-05-15T10:54:35.000Z</time>
      </trkpt>
      <trkpt lat="44.57266" lon="4.31742">
        <ele>266</ele>
        <time>2016-05-15T10:54:36.000Z</time>
      </trkpt>
      <trkpt lat="44.57268" lon="4.31744">
        <ele>266</ele>
        <time>2016-05-15T10:54:37.000Z</time>
      </trkpt>
      <trkpt lat="44.5727" lon="4.31746">
        <ele>267</ele>
        <time>2016-05-15T10:54:38.000Z</time>
      </trkpt>
      <trkpt lat="44.57272" lon="4.31748">
        <ele>267</ele>
        <time>2016-05-15T10:54:39.000Z</time>
      </trkpt>
      <trkpt lat="44.57275" lon="4.3175">
        <ele>267</ele>
        <time>2016-05-15T10:54:40.000Z</time>
      </trkpt>
      <trkpt lat="44.57277" lon="4.31752">
        <ele>266</ele>
        <time>2016-05-15T10:54:41.000Z</time>
      </trkpt>
      <trkpt lat="44.57279" lon="4.31754">
        <ele>266</ele>
        <time>2016-05-15T10:54:42.000Z</time>
      </trkpt>
      <trkpt lat="44.57282" lon="4.31756">
        <ele>266</ele>
        <time>2016-05-15T10:54:43.000Z</time>
      </trkpt>
      <trkpt lat="44.57284" lon="4.31758">
        <ele>267</ele>
        <time>2016-05-15T10:54:44.000Z</time>
      </trkpt>
      <trkpt lat="44.57286" lon="4.3176">
        <ele>267</ele>
        <time>2016-05-15T10:54:45.000Z</time>
      </trkpt>
      <trkpt lat="44.57288" lon="4.31762">
        <ele>267</ele>
        <time>2016-05-15T10:54:46.000Z</time>
      </trkpt>
      <trkpt lat="44.5729" lon="4.31763">
        <ele>267</ele>
        <time>2016-05-15T10:54:47.000Z</time>
      </trkpt>
      <trkpt lat="44.57292" lon="4.31765">
        <ele>268</ele>
        <time>2016-05-15T10:54:48.000Z</time>
      </trkpt>
      <trkpt lat="44.57293" lon="4.31766">
        <ele>268</ele>
        <time>2016-05-15T10:54:49.000Z</time>
      </trkpt>
      <trkpt lat="44.57295" lon="4.31768">
        <ele>268</ele>
        <time>2016-05-15T10:54:50.000Z</time>
      </trkpt>
      <trkpt lat="44.57297" lon="4.31769">
        <ele>268</ele>
        <time>2016-05-15T10:54:51.000Z</time>
      </trkpt>
      <trkpt lat="44.57299" lon="4.31771">
        <ele>268</ele>
        <time>2016-05-15T10:54:52.000Z</time>
      </trkpt>
      <trkpt lat="44.57301" lon="4.31773">
        <ele>268</ele>
        <time>2016-05-15T10:54:53.000Z</time>
      </trkpt>
      <trkpt lat="44.57303" lon="4.31775">
        <ele>268</ele>
        <time>2016-05-15T10:54:54.000Z</time>
      </trkpt>
      <trkpt lat="44.57305" lon="4.31776">
        <ele>269</ele>
        <time>2016-05-15T10:54:55.000Z</time>
      </trkpt>
      <trkpt lat="44.57307" lon="4.31778">
        <ele>269</ele>
        <time>2016-05-15T10:54:56.000Z</time>
      </trkpt>
      <trkpt lat="44.57309" lon="4.31781">
        <ele>269</ele>
        <time>2016-05-15T10:54:57.000Z</time>
      </trkpt>
      <trkpt lat="44.57311" lon="4.31783">
        <ele>269</ele>
        <time>2016-05-15T10:54:58.000Z</time>
      </trkpt>
      <trkpt lat="44.57313" lon="4.31785">
        <ele>269</ele>
        <time>2016-05-15T10:54:59.000Z</time>
      </trkpt>
      <trkpt lat="44.57315" lon="4.31788">
        <ele>269</ele>
        <time>2016-05-15T10:55:00.000Z</time>
      </trkpt>
      <trkpt lat="44.57317" lon="4.3179">
        <ele>269</ele>
        <time>2016-05-15T10:55:01.000Z</time>
      </trkpt>
      <trkpt lat="44.5732" lon="4.31792">
        <ele>269</ele>
        <time>2016-05-15T10:55:02.000Z</time>
      </trkpt>
      <trkpt lat="44.57322" lon="4.31794">
        <ele>269</ele>
        <time>2016-05-15T10:55:03.000Z</time>
      </trkpt>
      <trkpt lat="44.57324" lon="4.31797">
        <ele>269</ele>
        <time>2016-05-15T10:55:04.000Z</time>
      </trkpt>
      <trkpt lat="44.57326" lon="4.31799">
        <ele>268</ele>
        <time>2016-05-15T10:55:05.000Z</time>
      </trkpt>
      <trkpt lat="44.57328" lon="4.31802">
        <ele>268</ele>
        <time>2016-05-15T10:55:06.000Z</time>
      </trkpt>
      <trkpt lat="44.57331" lon="4.31804">
        <ele>268</ele>
        <time>2016-05-15T10:55:07.000Z</time>
      </trkpt>
      <trkpt lat="44.57333" lon="4.31807">
        <ele>268</ele>
        <time>2016-05-15T10:55:08.000Z</time>
      </trkpt>
      <trkpt lat="44.57335" lon="4.31809">
        <ele>274</ele>
        <time>2016-05-15T10:55:09.000Z</time>
      </trkpt>
      <trkpt lat="44.57337" lon="4.31812">
        <ele>274</ele>
        <time>2016-05-15T10:55:10.000Z</time>
      </trkpt>
      <trkpt lat="44.57339" lon="4.31814">
        <ele>274</ele>
        <time>2016-05-15T10:55:11.000Z</time>
      </trkpt>
      <trkpt lat="44.57342" lon="4.31816">
        <ele>274</ele>
        <time>2016-05-15T10:55:12.000Z</time>
      </trkpt>
      <trkpt lat="44.57344" lon="4.31818">
        <ele>274</ele>
        <time>2016-05-15T10:55:13.000Z</time>
      </trkpt>
      <trkpt lat="44.57346" lon="4.31821">
        <ele>273</ele>
        <time>2016-05-15T10:55:14.000Z</time>
      </trkpt>
      <trkpt lat="44.57348" lon="4.31823">
        <ele>274</ele>
        <time>2016-05-15T10:55:15.000Z</time>
      </trkpt>
      <trkpt lat="44.5735" lon="4.31825">
        <ele>274</ele>
        <time>2016-05-15T10:55:16.000Z</time>
      </trkpt>
      <trkpt lat="44.57352" lon="4.31826">
        <ele>274</ele>
        <time>2016-05-15T10:55:17.000Z</time>
      </trkpt>
      <trkpt lat="44.57354" lon="4.31828">
        <ele>274</ele>
        <time>2016-05-15T10:55:18.000Z</time>
      </trkpt>
      <trkpt lat="44.57356" lon="4.3183">
        <ele>274</ele>
        <time>2016-05-15T10:55:19.000Z</time>
      </trkpt>
      <trkpt lat="44.57359" lon="4.31832">
        <ele>275</ele>
        <time>2016-05-15T10:55:20.000Z</time>
      </trkpt>
      <trkpt lat="44.57361" lon="4.31834">
        <ele>271</ele>
        <time>2016-05-15T10:55:21.000Z</time>
      </trkpt>
      <trkpt lat="44.57363" lon="4.31836">
        <ele>271</ele>
        <time>2016-05-15T10:55:22.000Z</time>
      </trkpt>
      <trkpt lat="44.57365" lon="4.31838">
        <ele>272</ele>
        <time>2016-05-15T10:55:23.000Z</time>
      </trkpt>
      <trkpt lat="44.57367" lon="4.31839">
        <ele>272</ele>
        <time>2016-05-15T10:55:24.000Z</time>
      </trkpt>
      <trkpt lat="44.5737" lon="4.31841">
        <ele>272</ele>
        <time>2016-05-15T10:55:25.000Z</time>
      </trkpt>
      <trkpt lat="44.57372" lon="4.31843">
        <ele>272</ele>
        <time>2016-05-15T10:55:26.000Z</time>
      </trkpt>
      <trkpt lat="44.57375" lon="4.31844">
        <ele>272</ele>
        <time>2016-05-15T10:55:27.000Z</time>
      </trkpt>
      <trkpt lat="44.57377" lon="4.31846">
        <ele>272</ele>
        <time>2016-05-15T10:55:28.000Z</time>
      </trkpt>
      <trkpt lat="44.57379" lon="4.31847">
        <ele>273</ele>
        <time>2016-05-15T10:55:29.000Z</time>
      </trkpt>
      <trkpt lat="44.57382" lon="4.31849">
        <ele>273</ele>
        <time>2016-05-15T10:55:30.000Z</time>
      </trkpt>
      <trkpt lat="44.57385" lon="4.3185">
        <ele>273</ele>
        <time>2016-05-15T10:55:31.000Z</time>
      </trkpt>
      <trkpt lat="44.57387" lon="4.31851">
        <ele>273</ele>
        <time>2016-05-15T10:55:32.000Z</time>
      </trkpt>
      <trkpt lat="44.5739" lon="4.31852">
        <ele>273</ele>
        <time>2016-05-15T10:55:33.000Z</time>
      </trkpt>
      <trkpt lat="44.57393" lon="4.31853">
        <ele>273</ele>
        <time>2016-05-15T10:55:34.000Z</time>
      </trkpt>
      <trkpt lat="44.57395" lon="4.31854">
        <ele>274</ele>
        <time>2016-05-15T10:55:35.000Z</time>
      </trkpt>
      <trkpt lat="44.57398" lon="4.31854">
        <ele>274</ele>
        <time>2016-05-15T10:55:36.000Z</time>
      </trkpt>
      <trkpt lat="44.574" lon="4.31855">
        <ele>274</ele>
        <time>2016-05-15T10:55:37.000Z</time>
      </trkpt>
      <trkpt lat="44.57402" lon="4.31856">
        <ele>274</ele>
        <time>2016-05-15T10:55:38.000Z</time>
      </trkpt>
      <trkpt lat="44.57405" lon="4.31857">
        <ele>274</ele>
        <time>2016-05-15T10:55:39.000Z</time>
      </trkpt>
      <trkpt lat="44.57407" lon="4.31857">
        <ele>274</ele>
        <time>2016-05-15T10:55:40.000Z</time>
      </trkpt>
      <trkpt lat="44.5741" lon="4.31857">
        <ele>274</ele>
        <time>2016-05-15T10:55:41.000Z</time>
      </trkpt>
      <trkpt lat="44.57413" lon="4.31858">
        <ele>274</ele>
        <time>2016-05-15T10:55:42.000Z</time>
      </trkpt>
      <trkpt lat="44.57416" lon="4.31858">
        <ele>274</ele>
        <time>2016-05-15T10:55:43.000Z</time>
      </trkpt>
      <trkpt lat="44.57419" lon="4.31858">
        <ele>276</ele>
        <time>2016-05-15T10:55:44.000Z</time>
      </trkpt>
      <trkpt lat="44.57422" lon="4.31859">
        <ele>276</ele>
        <time>2016-05-15T10:55:45.000Z</time>
      </trkpt>
      <trkpt lat="44.57424" lon="4.31859">
        <ele>276</ele>
        <time>2016-05-15T10:55:46.000Z</time>
      </trkpt>
      <trkpt lat="44.57427" lon="4.3186">
        <ele>276</ele>
        <time>2016-05-15T10:55:47.000Z</time>
      </trkpt>
      <trkpt lat="44.5743" lon="4.31861">
        <ele>276</ele>
        <time>2016-05-15T10:55:48.000Z</time>
      </trkpt>
      <trkpt lat="44.57432" lon="4.31861">
        <ele>276</ele>
        <time>2016-05-15T10:55:49.000Z</time>
      </trkpt>
      <trkpt lat="44.57435" lon="4.31862">
        <ele>276</ele>
        <time>2016-05-15T10:55:50.000Z</time>
      </trkpt>
      <trkpt lat="44.57438" lon="4.31863">
        <ele>276</ele>
        <time>2016-05-15T10:55:51.000Z</time>
      </trkpt>
      <trkpt lat="44.57441" lon="4.31863">
        <ele>276</ele>
        <time>2016-05-15T10:55:52.000Z</time>
      </trkpt>
      <trkpt lat="44.57444" lon="4.31864">
        <ele>276</ele>
        <time>2016-05-15T10:55:53.000Z</time>
      </trkpt>
      <trkpt lat="44.57447" lon="4.31864">
        <ele>276</ele>
        <time>2016-05-15T10:55:54.000Z</time>
      </trkpt>
      <trkpt lat="44.5745" lon="4.31865">
        <ele>276</ele>
        <time>2016-05-15T10:55:55.000Z</time>
      </trkpt>
      <trkpt lat="44.57452" lon="4.31866">
        <ele>276</ele>
        <time>2016-05-15T10:55:56.000Z</time>
      </trkpt>
      <trkpt lat="44.57456" lon="4.31866">
        <ele>276</ele>
        <time>2016-05-15T10:55:57.000Z</time>
      </trkpt>
      <trkpt lat="44.57459" lon="4.31867">
        <ele>276</ele>
        <time>2016-05-15T10:55:58.000Z</time>
      </trkpt>
      <trkpt lat="44.57462" lon="4.31868">
        <ele>276</ele>
        <time>2016-05-15T10:55:59.000Z</time>
      </trkpt>
      <trkpt lat="44.57465" lon="4.31869">
        <ele>276</ele>
        <time>2016-05-15T10:56:00.000Z</time>
      </trkpt>
      <trkpt lat="44.57468" lon="4.3187">
        <ele>276</ele>
        <time>2016-05-15T10:56:01.000Z</time>
      </trkpt>
      <trkpt lat="44.57471" lon="4.3187">
        <ele>276</ele>
        <time>2016-05-15T10:56:02.000Z</time>
      </trkpt>
      <trkpt lat="44.57474" lon="4.31871">
        <ele>276</ele>
        <time>2016-05-15T10:56:03.000Z</time>
      </trkpt>
      <trkpt lat="44.57477" lon="4.31872">
        <ele>276</ele>
        <time>2016-05-15T10:56:04.000Z</time>
      </trkpt>
      <trkpt lat="44.57479" lon="4.31873">
        <ele>276</ele>
        <time>2016-05-15T10:56:05.000Z</time>
      </trkpt>
      <trkpt lat="44.57482" lon="4.31874">
        <ele>275</ele>
        <time>2016-05-15T10:56:06.000Z</time>
      </trkpt>
      <trkpt lat="44.57485" lon="4.31875">
        <ele>275</ele>
        <time>2016-05-15T10:56:07.000Z</time>
      </trkpt>
      <trkpt lat="44.57487" lon="4.31876">
        <ele>275</ele>
        <time>2016-05-15T10:56:08.000Z</time>
      </trkpt>
      <trkpt lat="44.5749" lon="4.31877">
        <ele>275</ele>
        <time>2016-05-15T10:56:09.000Z</time>
      </trkpt>
      <trkpt lat="44.57493" lon="4.31878">
        <ele>275</ele>
        <time>2016-05-15T10:56:10.000Z</time>
      </trkpt>
      <trkpt lat="44.57495" lon="4.31879">
        <ele>275</ele>
        <time>2016-05-15T10:56:11.000Z</time>
      </trkpt>
      <trkpt lat="44.57498" lon="4.3188">
        <ele>275</ele>
        <time>2016-05-15T10:56:12.000Z</time>
      </trkpt>
      <trkpt lat="44.575" lon="4.31881">
        <ele>276</ele>
        <time>2016-05-15T10:56:13.000Z</time>
      </trkpt>
      <trkpt lat="44.57503" lon="4.31882">
        <ele>276</ele>
        <time>2016-05-15T10:56:14.000Z</time>
      </trkpt>
      <trkpt lat="44.57505" lon="4.31883">
        <ele>276</ele>
        <time>2016-05-15T10:56:15.000Z</time>
      </trkpt>
      <trkpt lat="44.57509" lon="4.31884">
        <ele>276</ele>
        <time>2016-05-15T10:56:16.000Z</time>
      </trkpt>
      <trkpt lat="44.57512" lon="4.31885">
        <ele>276</ele>
        <time>2016-05-15T10:56:17.000Z</time>
      </trkpt>
      <trkpt lat="44.57515" lon="4.31887">
        <ele>276</ele>
        <time>2016-05-15T10:56:18.000Z</time>
      </trkpt>
      <trkpt lat="44.57518" lon="4.31888">
        <ele>276</ele>
        <time>2016-05-15T10:56:19.000Z</time>
      </trkpt>
      <trkpt lat="44.57522" lon="4.31889">
        <ele>276</ele>
        <time>2016-05-15T10:56:20.000Z</time>
      </trkpt>
      <trkpt lat="44.57525" lon="4.31891">
        <ele>276</ele>
        <time>2016-05-15T10:56:21.000Z</time>
      </trkpt>
      <trkpt lat="44.57528" lon="4.31892">
        <ele>276</ele>
        <time>2016-05-15T10:56:22.000Z</time>
      </trkpt>
      <trkpt lat="44.57531" lon="4.31893">
        <ele>276</ele>
        <time>2016-05-15T10:56:23.000Z</time>
      </trkpt>
      <trkpt lat="44.57534" lon="4.31894">
        <ele>276</ele>
        <time>2016-05-15T10:56:24.000Z</time>
      </trkpt>
      <trkpt lat="44.57537" lon="4.31895">
        <ele>276</ele>
        <time>2016-05-15T10:56:25.000Z</time>
      </trkpt>
      <trkpt lat="44.5754" lon="4.31897">
        <ele>276</ele>
        <time>2016-05-15T10:56:26.000Z</time>
      </trkpt>
      <trkpt lat="44.57543" lon="4.31898">
        <ele>276</ele>
        <time>2016-05-15T10:56:27.000Z</time>
      </trkpt>
      <trkpt lat="44.57546" lon="4.31899">
        <ele>276</ele>
        <time>2016-05-15T10:56:28.000Z</time>
      </trkpt>
      <trkpt lat="44.57549" lon="4.319">
        <ele>276</ele>
        <time>2016-05-15T10:56:29.000Z</time>
      </trkpt>
      <trkpt lat="44.57552" lon="4.31901">
        <ele>276</ele>
        <time>2016-05-15T10:56:30.000Z</time>
      </trkpt>
      <trkpt lat="44.57555" lon="4.31903">
        <ele>276</ele>
        <time>2016-05-15T10:56:31.000Z</time>
      </trkpt>
      <trkpt lat="44.57558" lon="4.31905">
        <ele>275</ele>
        <time>2016-05-15T10:56:32.000Z</time>
      </trkpt>
      <trkpt lat="44.57561" lon="4.31906">
        <ele>275</ele>
        <time>2016-05-15T10:56:33.000Z</time>
      </trkpt>
      <trkpt lat="44.57564" lon="4.31907">
        <ele>275</ele>
        <time>2016-05-15T10:56:34.000Z</time>
      </trkpt>
      <trkpt lat="44.57567" lon="4.31909">
        <ele>275</ele>
        <time>2016-05-15T10:56:35.000Z</time>
      </trkpt>
      <trkpt lat="44.5757" lon="4.3191">
        <ele>274</ele>
        <time>2016-05-15T10:56:36.000Z</time>
      </trkpt>
      <trkpt lat="44.57574" lon="4.31911">
        <ele>274</ele>
        <time>2016-05-15T10:56:37.000Z</time>
      </trkpt>
      <trkpt lat="44.57577" lon="4.31912">
        <ele>274</ele>
        <time>2016-05-15T10:56:38.000Z</time>
      </trkpt>
      <trkpt lat="44.5758" lon="4.31913">
        <ele>273</ele>
        <time>2016-05-15T10:56:39.000Z</time>
      </trkpt>
      <trkpt lat="44.57583" lon="4.31915">
        <ele>272</ele>
        <time>2016-05-15T10:56:40.000Z</time>
      </trkpt>
      <trkpt lat="44.57586" lon="4.31916">
        <ele>273</ele>
        <time>2016-05-15T10:56:41.000Z</time>
      </trkpt>
      <trkpt lat="44.5759" lon="4.31917">
        <ele>272</ele>
        <time>2016-05-15T10:56:42.000Z</time>
      </trkpt>
      <trkpt lat="44.57594" lon="4.31918">
        <ele>272</ele>
        <time>2016-05-15T10:56:43.000Z</time>
      </trkpt>
      <trkpt lat="44.57597" lon="4.31919">
        <ele>272</ele>
        <time>2016-05-15T10:56:44.000Z</time>
      </trkpt>
      <trkpt lat="44.57601" lon="4.31921">
        <ele>272</ele>
        <time>2016-05-15T10:56:45.000Z</time>
      </trkpt>
      <trkpt lat="44.57605" lon="4.31922">
        <ele>272</ele>
        <time>2016-05-15T10:56:46.000Z</time>
      </trkpt>
      <trkpt lat="44.57609" lon="4.31923">
        <ele>272</ele>
        <time>2016-05-15T10:56:47.000Z</time>
      </trkpt>
      <trkpt lat="44.57613" lon="4.31925">
        <ele>272</ele>
        <time>2016-05-15T10:56:48.000Z</time>
      </trkpt>
      <trkpt lat="44.57616" lon="4.31926">
        <ele>272</ele>
        <time>2016-05-15T10:56:49.000Z</time>
      </trkpt>
      <trkpt lat="44.5762" lon="4.31927">
        <ele>272</ele>
        <time>2016-05-15T10:56:50.000Z</time>
      </trkpt>
      <trkpt lat="44.57624" lon="4.31928">
        <ele>272</ele>
        <time>2016-05-15T10:56:51.000Z</time>
      </trkpt>
      <trkpt lat="44.57627" lon="4.3193">
        <ele>272</ele>
        <time>2016-05-15T10:56:52.000Z</time>
      </trkpt>
      <trkpt lat="44.57631" lon="4.31931">
        <ele>272</ele>
        <time>2016-05-15T10:56:53.000Z</time>
      </trkpt>
      <trkpt lat="44.57634" lon="4.31932">
        <ele>272</ele>
        <time>2016-05-15T10:56:54.000Z</time>
      </trkpt>
      <trkpt lat="44.57638" lon="4.31933">
        <ele>272</ele>
        <time>2016-05-15T10:56:55.000Z</time>
      </trkpt>
      <trkpt lat="44.57641" lon="4.31934">
        <ele>273</ele>
        <time>2016-05-15T10:56:56.000Z</time>
      </trkpt>
      <trkpt lat="44.57645" lon="4.31935">
        <ele>273</ele>
        <time>2016-05-15T10:56:57.000Z</time>
      </trkpt>
      <trkpt lat="44.57648" lon="4.31936">
        <ele>273</ele>
        <time>2016-05-15T10:56:58.000Z</time>
      </trkpt>
      <trkpt lat="44.57652" lon="4.31938">
        <ele>273</ele>
        <time>2016-05-15T10:56:59.000Z</time>
      </trkpt>
      <trkpt lat="44.57655" lon="4.31938">
        <ele>273</ele>
        <time>2016-05-15T10:57:00.000Z</time>
      </trkpt>
      <trkpt lat="44.57659" lon="4.3194">
        <ele>273</ele>
        <time>2016-05-15T10:57:01.000Z</time>
      </trkpt>
      <trkpt lat="44.57662" lon="4.3194">
        <ele>273</ele>
        <time>2016-05-15T10:57:02.000Z</time>
      </trkpt>
      <trkpt lat="44.57666" lon="4.31942">
        <ele>273</ele>
        <time>2016-05-15T10:57:03.000Z</time>
      </trkpt>
      <trkpt lat="44.57669" lon="4.31943">
        <ele>275</ele>
        <time>2016-05-15T10:57:04.000Z</time>
      </trkpt>
      <trkpt lat="44.57672" lon="4.31944">
        <ele>275</ele>
        <time>2016-05-15T10:57:05.000Z</time>
      </trkpt>
      <trkpt lat="44.57675" lon="4.31945">
        <ele>275</ele>
        <time>2016-05-15T10:57:06.000Z</time>
      </trkpt>
      <trkpt lat="44.57678" lon="4.31946">
        <ele>275</ele>
        <time>2016-05-15T10:57:07.000Z</time>
      </trkpt>
      <trkpt lat="44.57681" lon="4.31947">
        <ele>275</ele>
        <time>2016-05-15T10:57:08.000Z</time>
      </trkpt>
      <trkpt lat="44.57684" lon="4.31948">
        <ele>275</ele>
        <time>2016-05-15T10:57:09.000Z</time>
      </trkpt>
      <trkpt lat="44.57687" lon="4.31949">
        <ele>275</ele>
        <time>2016-05-15T10:57:10.000Z</time>
      </trkpt>
      <trkpt lat="44.57691" lon="4.3195">
        <ele>275</ele>
        <time>2016-05-15T10:57:11.000Z</time>
      </trkpt>
      <trkpt lat="44.57694" lon="4.31951">
        <ele>275</ele>
        <time>2016-05-15T10:57:12.000Z</time>
      </trkpt>
      <trkpt lat="44.57698" lon="4.31952">
        <ele>275</ele>
        <time>2016-05-15T10:57:13.000Z</time>
      </trkpt>
      <trkpt lat="44.57701" lon="4.31953">
        <ele>275</ele>
        <time>2016-05-15T10:57:14.000Z</time>
      </trkpt>
      <trkpt lat="44.57704" lon="4.31954">
        <ele>275</ele>
        <time>2016-05-15T10:57:15.000Z</time>
      </trkpt>
      <trkpt lat="44.57706" lon="4.31955">
        <ele>275</ele>
        <time>2016-05-15T10:57:16.000Z</time>
      </trkpt>
      <trkpt lat="44.57709" lon="4.31956">
        <ele>275</ele>
        <time>2016-05-15T10:57:17.000Z</time>
      </trkpt>
      <trkpt lat="44.57713" lon="4.31957">
        <ele>275</ele>
        <time>2016-05-15T10:57:18.000Z</time>
      </trkpt>
      <trkpt lat="44.57716" lon="4.31958">
        <ele>275</ele>
        <time>2016-05-15T10:57:19.000Z</time>
      </trkpt>
      <trkpt lat="44.57719" lon="4.31958">
        <ele>276</ele>
        <time>2016-05-15T10:57:20.000Z</time>
      </trkpt>
      <trkpt lat="44.57722" lon="4.31959">
        <ele>276</ele>
        <time>2016-05-15T10:57:21.000Z</time>
      </trkpt>
      <trkpt lat="44.57725" lon="4.31959">
        <ele>276</ele>
        <time>2016-05-15T10:57:22.000Z</time>
      </trkpt>
      <trkpt lat="44.57727" lon="4.3196">
        <ele>276</ele>
        <time>2016-05-15T10:57:23.000Z</time>
      </trkpt>
      <trkpt lat="44.5773" lon="4.31961">
        <ele>276</ele>
        <time>2016-05-15T10:57:24.000Z</time>
      </trkpt>
      <trkpt lat="44.57733" lon="4.31963">
        <ele>276</ele>
        <time>2016-05-15T10:57:25.000Z</time>
      </trkpt>
      <trkpt lat="44.57737" lon="4.31964">
        <ele>275</ele>
        <time>2016-05-15T10:57:26.000Z</time>
      </trkpt>
      <trkpt lat="44.5774" lon="4.31964">
        <ele>275</ele>
        <time>2016-05-15T10:57:27.000Z</time>
      </trkpt>
      <trkpt lat="44.57743" lon="4.31963">
        <ele>276</ele>
        <time>2016-05-15T10:57:28.000Z</time>
      </trkpt>
      <trkpt lat="44.57746" lon="4.31963">
        <ele>276</ele>
        <time>2016-05-15T10:57:29.000Z</time>
      </trkpt>
      <trkpt lat="44.57748" lon="4.31961">
        <ele>276</ele>
        <time>2016-05-15T10:57:30.000Z</time>
      </trkpt>
      <trkpt lat="44.57751" lon="4.31961">
        <ele>277</ele>
        <time>2016-05-15T10:57:31.000Z</time>
      </trkpt>
      <trkpt lat="44.57753" lon="4.3196">
        <ele>277</ele>
        <time>2016-05-15T10:57:32.000Z</time>
      </trkpt>
      <trkpt lat="44.57755" lon="4.3196">
        <ele>277</ele>
        <time>2016-05-15T10:57:33.000Z</time>
      </trkpt>
      <trkpt lat="44.57757" lon="4.3196">
        <ele>277</ele>
        <time>2016-05-15T10:57:34.000Z</time>
      </trkpt>
      <trkpt lat="44.57759" lon="4.31961">
        <ele>277</ele>
        <time>2016-05-15T10:57:35.000Z</time>
      </trkpt>
      <trkpt lat="44.57761" lon="4.31962">
        <ele>277</ele>
        <time>2016-05-15T10:57:36.000Z</time>
      </trkpt>
      <trkpt lat="44.57762" lon="4.31962">
        <ele>277</ele>
        <time>2016-05-15T10:57:37.000Z</time>
      </trkpt>
      <trkpt lat="44.57764" lon="4.31963">
        <ele>277</ele>
        <time>2016-05-15T10:57:38.000Z</time>
      </trkpt>
      <trkpt lat="44.57766" lon="4.31965">
        <ele>277</ele>
        <time>2016-05-15T10:57:39.000Z</time>
      </trkpt>
      <trkpt lat="44.57767" lon="4.31968">
        <ele>277</ele>
        <time>2016-05-15T10:57:40.000Z</time>
      </trkpt>
      <trkpt lat="44.57769" lon="4.3197">
        <ele>276</ele>
        <time>2016-05-15T10:57:41.000Z</time>
      </trkpt>
      <trkpt lat="44.5777" lon="4.31973">
        <ele>276</ele>
        <time>2016-05-15T10:57:42.000Z</time>
      </trkpt>
      <trkpt lat="44.57772" lon="4.31975">
        <ele>276</ele>
        <time>2016-05-15T10:57:43.000Z</time>
      </trkpt>
      <trkpt lat="44.57773" lon="4.31978">
        <ele>276</ele>
        <time>2016-05-15T10:57:44.000Z</time>
      </trkpt>
      <trkpt lat="44.57775" lon="4.3198">
        <ele>276</ele>
        <time>2016-05-15T10:57:45.000Z</time>
      </trkpt>
      <trkpt lat="44.57776" lon="4.31983">
        <ele>276</ele>
        <time>2016-05-15T10:57:46.000Z</time>
      </trkpt>
      <trkpt lat="44.57778" lon="4.31986">
        <ele>276</ele>
        <time>2016-05-15T10:57:47.000Z</time>
      </trkpt>
      <trkpt lat="44.5778" lon="4.31988">
        <ele>276</ele>
        <time>2016-05-15T10:57:48.000Z</time>
      </trkpt>
      <trkpt lat="44.57783" lon="4.31989">
        <ele>276</ele>
        <time>2016-05-15T10:57:49.000Z</time>
      </trkpt>
      <trkpt lat="44.57785" lon="4.31989">
        <ele>276</ele>
        <time>2016-05-15T10:57:50.000Z</time>
      </trkpt>
      <trkpt lat="44.57787" lon="4.31989">
        <ele>276</ele>
        <time>2016-05-15T10:57:51.000Z</time>
      </trkpt>
      <trkpt lat="44.57789" lon="4.31988">
        <ele>276</ele>
        <time>2016-05-15T10:57:52.000Z</time>
      </trkpt>
      <trkpt lat="44.57791" lon="4.31986">
        <ele>276</ele>
        <time>2016-05-15T10:57:53.000Z</time>
      </trkpt>
      <trkpt lat="44.57793" lon="4.31985">
        <ele>276</ele>
        <time>2016-05-15T10:57:54.000Z</time>
      </trkpt>
      <trkpt lat="44.57796" lon="4.31985">
        <ele>276</ele>
        <time>2016-05-15T10:57:55.000Z</time>
      </trkpt>
      <trkpt lat="44.57798" lon="4.31986">
        <ele>276</ele>
        <time>2016-05-15T10:57:56.000Z</time>
      </trkpt>
      <trkpt lat="44.578" lon="4.31987">
        <ele>276</ele>
        <time>2016-05-15T10:57:57.000Z</time>
      </trkpt>
      <trkpt lat="44.57802" lon="4.31988">
        <ele>276</ele>
        <time>2016-05-15T10:57:58.000Z</time>
      </trkpt>
      <trkpt lat="44.57804" lon="4.3199">
        <ele>276</ele>
        <time>2016-05-15T10:57:59.000Z</time>
      </trkpt>
      <trkpt lat="44.57805" lon="4.31993">
        <ele>276</ele>
        <time>2016-05-15T10:58:00.000Z</time>
      </trkpt>
      <trkpt lat="44.57807" lon="4.31995">
        <ele>276</ele>
        <time>2016-05-15T10:58:01.000Z</time>
      </trkpt>
      <trkpt lat="44.57809" lon="4.31999">
        <ele>276</ele>
        <time>2016-05-15T10:58:02.000Z</time>
      </trkpt>
      <trkpt lat="44.5781" lon="4.32002">
        <ele>274</ele>
        <time>2016-05-15T10:58:03.000Z</time>
      </trkpt>
      <trkpt lat="44.5781" lon="4.32005">
        <ele>274</ele>
        <time>2016-05-15T10:58:04.000Z</time>
      </trkpt>
      <trkpt lat="44.57811" lon="4.32008">
        <ele>274</ele>
        <time>2016-05-15T10:58:05.000Z</time>
      </trkpt>
      <trkpt lat="44.57811" lon="4.32012">
        <ele>274</ele>
        <time>2016-05-15T10:58:06.000Z</time>
      </trkpt>
      <trkpt lat="44.57811" lon="4.32016">
        <ele>274</ele>
        <time>2016-05-15T10:58:07.000Z</time>
      </trkpt>
      <trkpt lat="44.57812" lon="4.3202">
        <ele>274</ele>
        <time>2016-05-15T10:58:08.000Z</time>
      </trkpt>
      <trkpt lat="44.57813" lon="4.32024">
        <ele>274</ele>
        <time>2016-05-15T10:58:09.000Z</time>
      </trkpt>
      <trkpt lat="44.57814" lon="4.32027">
        <ele>274</ele>
        <time>2016-05-15T10:58:10.000Z</time>
      </trkpt>
      <trkpt lat="44.57814" lon="4.32031">
        <ele>274</ele>
        <time>2016-05-15T10:58:11.000Z</time>
      </trkpt>
      <trkpt lat="44.57815" lon="4.32034">
        <ele>274</ele>
        <time>2016-05-15T10:58:12.000Z</time>
      </trkpt>
      <trkpt lat="44.57816" lon="4.32037">
        <ele>274</ele>
        <time>2016-05-15T10:58:13.000Z</time>
      </trkpt>
      <trkpt lat="44.57816" lon="4.3204">
        <ele>274</ele>
        <time>2016-05-15T10:58:14.000Z</time>
      </trkpt>
      <trkpt lat="44.57817" lon="4.32043">
        <ele>274</ele>
        <time>2016-05-15T10:58:15.000Z</time>
      </trkpt>
      <trkpt lat="44.57817" lon="4.32046">
        <ele>275</ele>
        <time>2016-05-15T10:58:16.000Z</time>
      </trkpt>
      <trkpt lat="44.57818" lon="4.32048">
        <ele>275</ele>
        <time>2016-05-15T10:58:17.000Z</time>
      </trkpt>
      <trkpt lat="44.57819" lon="4.32051">
        <ele>275</ele>
        <time>2016-05-15T10:58:18.000Z</time>
      </trkpt>
      <trkpt lat="44.57819" lon="4.32054">
        <ele>275</ele>
        <time>2016-05-15T10:58:19.000Z</time>
      </trkpt>
      <trkpt lat="44.5782" lon="4.32056">
        <ele>275</ele>
        <time>2016-05-15T10:58:20.000Z</time>
      </trkpt>
      <trkpt lat="44.5782" lon="4.32059">
        <ele>275</ele>
        <time>2016-05-15T10:58:21.000Z</time>
      </trkpt>
      <trkpt lat="44.57821" lon="4.32062">
        <ele>275</ele>
        <time>2016-05-15T10:58:22.000Z</time>
      </trkpt>
      <trkpt lat="44.57821" lon="4.32065">
        <ele>275</ele>
        <time>2016-05-15T10:58:23.000Z</time>
      </trkpt>
      <trkpt lat="44.57822" lon="4.32068">
        <ele>275</ele>
        <time>2016-05-15T10:58:24.000Z</time>
      </trkpt>
      <trkpt lat="44.57822" lon="4.32071">
        <ele>276</ele>
        <time>2016-05-15T10:58:25.000Z</time>
      </trkpt>
      <trkpt lat="44.57823" lon="4.32074">
        <ele>276</ele>
        <time>2016-05-15T10:58:26.000Z</time>
      </trkpt>
      <trkpt lat="44.57824" lon="4.32077">
        <ele>276</ele>
        <time>2016-05-15T10:58:27.000Z</time>
      </trkpt>
      <trkpt lat="44.57824" lon="4.32079">
        <ele>276</ele>
        <time>2016-05-15T10:58:28.000Z</time>
      </trkpt>
      <trkpt lat="44.57825" lon="4.32082">
        <ele>276</ele>
        <time>2016-05-15T10:58:29.000Z</time>
      </trkpt>
      <trkpt lat="44.57825" lon="4.32085">
        <ele>278</ele>
        <time>2016-05-15T10:58:30.000Z</time>
      </trkpt>
      <trkpt lat="44.57826" lon="4.32087">
        <ele>278</ele>
        <time>2016-05-15T10:58:31.000Z</time>
      </trkpt>
      <trkpt lat="44.57827" lon="4.3209">
        <ele>278</ele>
        <time>2016-05-15T10:58:32.000Z</time>
      </trkpt>
      <trkpt lat="44.57827" lon="4.32093">
        <ele>279</ele>
        <time>2016-05-15T10:58:33.000Z</time>
      </trkpt>
      <trkpt lat="44.57828" lon="4.32095">
        <ele>279</ele>
        <time>2016-05-15T10:58:34.000Z</time>
      </trkpt>
      <trkpt lat="44.57829" lon="4.32098">
        <ele>279</ele>
        <time>2016-05-15T10:58:35.000Z</time>
      </trkpt>
      <trkpt lat="44.57829" lon="4.321">
        <ele>279</ele>
        <time>2016-05-15T10:58:36.000Z</time>
      </trkpt>
      <trkpt lat="44.57829" lon="4.32103">
        <ele>280</ele>
        <time>2016-05-15T10:58:37.000Z</time>
      </trkpt>
      <trkpt lat="44.5783" lon="4.32106">
        <ele>280</ele>
        <time>2016-05-15T10:58:38.000Z</time>
      </trkpt>
      <trkpt lat="44.5783" lon="4.3211">
        <ele>280</ele>
        <time>2016-05-15T10:58:39.000Z</time>
      </trkpt>
      <trkpt lat="44.57831" lon="4.32113">
        <ele>281</ele>
        <time>2016-05-15T10:58:40.000Z</time>
      </trkpt>
      <trkpt lat="44.57833" lon="4.32115">
        <ele>281</ele>
        <time>2016-05-15T10:58:41.000Z</time>
      </trkpt>
      <trkpt lat="44.57834" lon="4.32117">
        <ele>283</ele>
        <time>2016-05-15T10:58:42.000Z</time>
      </trkpt>
      <trkpt lat="44.57836" lon="4.32118">
        <ele>283</ele>
        <time>2016-05-15T10:58:43.000Z</time>
      </trkpt>
      <trkpt lat="44.57838" lon="4.32119">
        <ele>283</ele>
        <time>2016-05-15T10:58:44.000Z</time>
      </trkpt>
      <trkpt lat="44.5784" lon="4.3212">
        <ele>283</ele>
        <time>2016-05-15T10:58:45.000Z</time>
      </trkpt>
      <trkpt lat="44.57843" lon="4.3212">
        <ele>283</ele>
        <time>2016-05-15T10:58:46.000Z</time>
      </trkpt>
      <trkpt lat="44.57845" lon="4.32121">
        <ele>283</ele>
        <time>2016-05-15T10:58:47.000Z</time>
      </trkpt>
      <trkpt lat="44.57848" lon="4.32121">
        <ele>283</ele>
        <time>2016-05-15T10:58:48.000Z</time>
      </trkpt>
      <trkpt lat="44.5785" lon="4.32121">
        <ele>283</ele>
        <time>2016-05-15T10:58:49.000Z</time>
      </trkpt>
      <trkpt lat="44.57853" lon="4.32121">
        <ele>283</ele>
        <time>2016-05-15T10:58:50.000Z</time>
      </trkpt>
      <trkpt lat="44.57855" lon="4.32122">
        <ele>283</ele>
        <time>2016-05-15T10:58:51.000Z</time>
      </trkpt>
      <trkpt lat="44.57858" lon="4.32122">
        <ele>283</ele>
        <time>2016-05-15T10:58:52.000Z</time>
      </trkpt>
      <trkpt lat="44.57861" lon="4.32122">
        <ele>283</ele>
        <time>2016-05-15T10:58:53.000Z</time>
      </trkpt>
      <trkpt lat="44.57863" lon="4.32122">
        <ele>283</ele>
        <time>2016-05-15T10:58:54.000Z</time>
      </trkpt>
      <trkpt lat="44.57866" lon="4.32122">
        <ele>283</ele>
        <time>2016-05-15T10:58:55.000Z</time>
      </trkpt>
      <trkpt lat="44.57869" lon="4.32122">
        <ele>283</ele>
        <time>2016-05-15T10:58:56.000Z</time>
      </trkpt>
      <trkpt lat="44.57872" lon="4.32122">
        <ele>283</ele>
        <time>2016-05-15T10:58:57.000Z</time>
      </trkpt>
      <trkpt lat="44.57874" lon="4.32121">
        <ele>283</ele>
        <time>2016-05-15T10:58:58.000Z</time>
      </trkpt>
      <trkpt lat="44.57877" lon="4.32121">
        <ele>283</ele>
        <time>2016-05-15T10:58:59.000Z</time>
      </trkpt>
      <trkpt lat="44.5788" lon="4.32121">
        <ele>283</ele>
        <time>2016-05-15T10:59:00.000Z</time>
      </trkpt>
      <trkpt lat="44.57883" lon="4.32122">
        <ele>283</ele>
        <time>2016-05-15T10:59:01.000Z</time>
      </trkpt>
      <trkpt lat="44.57885" lon="4.32122">
        <ele>283</ele>
        <time>2016-05-15T10:59:02.000Z</time>
      </trkpt>
      <trkpt lat="44.57888" lon="4.32122">
        <ele>283</ele>
        <time>2016-05-15T10:59:03.000Z</time>
      </trkpt>
      <trkpt lat="44.57891" lon="4.32122">
        <ele>283</ele>
        <time>2016-05-15T10:59:04.000Z</time>
      </trkpt>
      <trkpt lat="44.57894" lon="4.32122">
        <ele>283</ele>
        <time>2016-05-15T10:59:05.000Z</time>
      </trkpt>
      <trkpt lat="44.57896" lon="4.32122">
        <ele>283</ele>
        <time>2016-05-15T10:59:06.000Z</time>
      </trkpt>
      <trkpt lat="44.57899" lon="4.32123">
        <ele>283</ele>
        <time>2016-05-15T10:59:07.000Z</time>
      </trkpt>
      <trkpt lat="44.57902" lon="4.32124">
        <ele>283</ele>
        <time>2016-05-15T10:59:08.000Z</time>
      </trkpt>
      <trkpt lat="44.57904" lon="4.32126">
        <ele>283</ele>
        <time>2016-05-15T10:59:09.000Z</time>
      </trkpt>
      <trkpt lat="44.57906" lon="4.32129">
        <ele>284</ele>
        <time>2016-05-15T10:59:10.000Z</time>
      </trkpt>
      <trkpt lat="44.57906" lon="4.32132">
        <ele>284</ele>
        <time>2016-05-15T10:59:11.000Z</time>
      </trkpt>
      <trkpt lat="44.57906" lon="4.32135">
        <ele>284</ele>
        <time>2016-05-15T10:59:12.000Z</time>
      </trkpt>
      <trkpt lat="44.57904" lon="4.32137">
        <ele>285</ele>
        <time>2016-05-15T10:59:13.000Z</time>
      </trkpt>
      <trkpt lat="44.57902" lon="4.32137">
        <ele>285</ele>
        <time>2016-05-15T10:59:14.000Z</time>
      </trkpt>
      <trkpt lat="44.579" lon="4.32138">
        <ele>285</ele>
        <time>2016-05-15T10:59:15.000Z</time>
      </trkpt>
      <trkpt lat="44.57898" lon="4.32138">
        <ele>285</ele>
        <time>2016-05-15T10:59:16.000Z</time>
      </trkpt>
      <trkpt lat="44.57896" lon="4.32138">
        <ele>285</ele>
        <time>2016-05-15T10:59:17.000Z</time>
      </trkpt>
      <trkpt lat="44.57893" lon="4.32139">
        <ele>285</ele>
        <time>2016-05-15T10:59:18.000Z</time>
      </trkpt>
      <trkpt lat="44.57891" lon="4.32139">
        <ele>285</ele>
        <time>2016-05-15T10:59:19.000Z</time>
      </trkpt>
      <trkpt lat="44.57889" lon="4.3214">
        <ele>285</ele>
        <time>2016-05-15T10:59:20.000Z</time>
      </trkpt>
      <trkpt lat="44.57887" lon="4.3214">
        <ele>285</ele>
        <time>2016-05-15T10:59:21.000Z</time>
      </trkpt>
      <trkpt lat="44.57884" lon="4.3214">
        <ele>285</ele>
        <time>2016-05-15T10:59:22.000Z</time>
      </trkpt>
      <trkpt lat="44.57883" lon="4.3214">
        <ele>285</ele>
        <time>2016-05-15T10:59:23.000Z</time>
      </trkpt>
      <trkpt lat="44.5788" lon="4.3214">
        <ele>285</ele>
        <time>2016-05-15T10:59:24.000Z</time>
      </trkpt>
      <trkpt lat="44.57878" lon="4.32141">
        <ele>285</ele>
        <time>2016-05-15T10:59:25.000Z</time>
      </trkpt>
      <trkpt lat="44.57876" lon="4.32141">
        <ele>285</ele>
        <time>2016-05-15T10:59:26.000Z</time>
      </trkpt>
      <trkpt lat="44.57874" lon="4.32141">
        <ele>285</ele>
        <time>2016-05-15T10:59:27.000Z</time>
      </trkpt>
      <trkpt lat="44.57873" lon="4.32142">
        <ele>285</ele>
        <time>2016-05-15T10:59:28.000Z</time>
      </trkpt>
      <trkpt lat="44.57871" lon="4.32142">
        <ele>285</ele>
        <time>2016-05-15T10:59:29.000Z</time>
      </trkpt>
      <trkpt lat="44.57869" lon="4.32142">
        <ele>285</ele>
        <time>2016-05-15T10:59:30.000Z</time>
      </trkpt>
      <trkpt lat="44.57867" lon="4.32143">
        <ele>285</ele>
        <time>2016-05-15T10:59:31.000Z</time>
      </trkpt>
      <trkpt lat="44.57865" lon="4.32144">
        <ele>285</ele>
        <time>2016-05-15T10:59:32.000Z</time>
      </trkpt>
      <trkpt lat="44.57863" lon="4.32145">
        <ele>285</ele>
        <time>2016-05-15T10:59:33.000Z</time>
      </trkpt>
      <trkpt lat="44.57861" lon="4.32145">
        <ele>285</ele>
        <time>2016-05-15T10:59:34.000Z</time>
      </trkpt>
      <trkpt lat="44.57859" lon="4.32146">
        <ele>286</ele>
        <time>2016-05-15T10:59:35.000Z</time>
      </trkpt>
      <trkpt lat="44.57857" lon="4.32146">
        <ele>286</ele>
        <time>2016-05-15T10:59:36.000Z</time>
      </trkpt>
      <trkpt lat="44.57855" lon="4.32146">
        <ele>286</ele>
        <time>2016-05-15T10:59:37.000Z</time>
      </trkpt>
      <trkpt lat="44.57853" lon="4.32146">
        <ele>286</ele>
        <time>2016-05-15T10:59:38.000Z</time>
      </trkpt>
      <trkpt lat="44.57851" lon="4.32146">
        <ele>286</ele>
        <time>2016-05-15T10:59:39.000Z</time>
      </trkpt>
      <trkpt lat="44.57849" lon="4.32146">
        <ele>286</ele>
        <time>2016-05-15T10:59:40.000Z</time>
      </trkpt>
      <trkpt lat="44.57846" lon="4.32147">
        <ele>286</ele>
        <time>2016-05-15T10:59:41.000Z</time>
      </trkpt>
      <trkpt lat="44.57844" lon="4.32147">
        <ele>286</ele>
        <time>2016-05-15T10:59:42.000Z</time>
      </trkpt>
      <trkpt lat="44.57842" lon="4.32148">
        <ele>287</ele>
        <time>2016-05-15T10:59:43.000Z</time>
      </trkpt>
      <trkpt lat="44.57839" lon="4.32149">
        <ele>287</ele>
        <time>2016-05-15T10:59:44.000Z</time>
      </trkpt>
      <trkpt lat="44.57837" lon="4.32149">
        <ele>287</ele>
        <time>2016-05-15T10:59:45.000Z</time>
      </trkpt>
      <trkpt lat="44.57834" lon="4.3215">
        <ele>287</ele>
        <time>2016-05-15T10:59:46.000Z</time>
      </trkpt>
      <trkpt lat="44.57831" lon="4.32151">
        <ele>286</ele>
        <time>2016-05-15T10:59:47.000Z</time>
      </trkpt>
      <trkpt lat="44.5783" lon="4.32153">
        <ele>286</ele>
        <time>2016-05-15T10:59:48.000Z</time>
      </trkpt>
      <trkpt lat="44.57828" lon="4.32154">
        <ele>287</ele>
        <time>2016-05-15T10:59:49.000Z</time>
      </trkpt>
      <trkpt lat="44.57826" lon="4.32155">
        <ele>287</ele>
        <time>2016-05-15T10:59:50.000Z</time>
      </trkpt>
      <trkpt lat="44.57824" lon="4.32157">
        <ele>287</ele>
        <time>2016-05-15T10:59:51.000Z</time>
      </trkpt>
      <trkpt lat="44.57822" lon="4.32158">
        <ele>287</ele>
        <time>2016-05-15T10:59:52.000Z</time>
      </trkpt>
      <trkpt lat="44.57821" lon="4.32159">
        <ele>286</ele>
        <time>2016-05-15T10:59:53.000Z</time>
      </trkpt>
      <trkpt lat="44.57818" lon="4.32161">
        <ele>286</ele>
        <time>2016-05-15T10:59:54.000Z</time>
      </trkpt>
      <trkpt lat="44.57816" lon="4.32162">
        <ele>286</ele>
        <time>2016-05-15T10:59:55.000Z</time>
      </trkpt>
      <trkpt lat="44.57815" lon="4.32163">
        <ele>286</ele>
        <time>2016-05-15T10:59:56.000Z</time>
      </trkpt>
      <trkpt lat="44.57812" lon="4.32164">
        <ele>285</ele>
        <time>2016-05-15T10:59:57.000Z</time>
      </trkpt>
      <trkpt lat="44.5781" lon="4.32166">
        <ele>285</ele>
        <time>2016-05-15T10:59:58.000Z</time>
      </trkpt>
      <trkpt lat="44.57808" lon="4.32167">
        <ele>293</ele>
        <time>2016-05-15T10:59:59.000Z</time>
      </trkpt>
      <trkpt lat="44.57806" lon="4.32168">
        <ele>293</ele>
        <time>2016-05-15T11:00:00.000Z</time>
      </trkpt>
      <trkpt lat="44.57804" lon="4.3217">
        <ele>293</ele>
        <time>2016-05-15T11:00:01.000Z</time>
      </trkpt>
      <trkpt lat="44.57802" lon="4.32171">
        <ele>293</ele>
        <time>2016-05-15T11:00:02.000Z</time>
      </trkpt>
      <trkpt lat="44.578" lon="4.32172">
        <ele>293</ele>
        <time>2016-05-15T11:00:03.000Z</time>
      </trkpt>
      <trkpt lat="44.57798" lon="4.32174">
        <ele>293</ele>
        <time>2016-05-15T11:00:04.000Z</time>
      </trkpt>
      <trkpt lat="44.57796" lon="4.32175">
        <ele>293</ele>
        <time>2016-05-15T11:00:05.000Z</time>
      </trkpt>
      <trkpt lat="44.57794" lon="4.32176">
        <ele>293</ele>
        <time>2016-05-15T11:00:06.000Z</time>
      </trkpt>
      <trkpt lat="44.57792" lon="4.32177">
        <ele>292</ele>
        <time>2016-05-15T11:00:07.000Z</time>
      </trkpt>
      <trkpt lat="44.5779" lon="4.32177">
        <ele>292</ele>
        <time>2016-05-15T11:00:08.000Z</time>
      </trkpt>
      <trkpt lat="44.57788" lon="4.32178">
        <ele>292</ele>
        <time>2016-05-15T11:00:09.000Z</time>
      </trkpt>
      <trkpt lat="44.57786" lon="4.32179">
        <ele>292</ele>
        <time>2016-05-15T11:00:10.000Z</time>
      </trkpt>
      <trkpt lat="44.57784" lon="4.32181">
        <ele>292</ele>
        <time>2016-05-15T11:00:11.000Z</time>
      </trkpt>
      <trkpt lat="44.57783" lon="4.32184">
        <ele>292</ele>
        <time>2016-05-15T11:00:12.000Z</time>
      </trkpt>
      <trkpt lat="44.57782" lon="4.32187">
        <ele>292</ele>
        <time>2016-05-15T11:00:13.000Z</time>
      </trkpt>
      <trkpt lat="44.57783" lon="4.32189">
        <ele>293</ele>
        <time>2016-05-15T11:00:14.000Z</time>
      </trkpt>
      <trkpt lat="44.57784" lon="4.32191">
        <ele>293</ele>
        <time>2016-05-15T11:00:15.000Z</time>
      </trkpt>
      <trkpt lat="44.57786" lon="4.32191">
        <ele>293</ele>
        <time>2016-05-15T11:00:16.000Z</time>
      </trkpt>
      <trkpt lat="44.57788" lon="4.3219">
        <ele>293</ele>
        <time>2016-05-15T11:00:17.000Z</time>
      </trkpt>
      <trkpt lat="44.5779" lon="4.32189">
        <ele>293</ele>
        <time>2016-05-15T11:00:18.000Z</time>
      </trkpt>
      <trkpt lat="44.57791" lon="4.32188">
        <ele>293</ele>
        <time>2016-05-15T11:00:19.000Z</time>
      </trkpt>
      <trkpt lat="44.57792" lon="4.32187">
        <ele>293</ele>
        <time>2016-05-15T11:00:20.000Z</time>
      </trkpt>
      <trkpt lat="44.57792" lon="4.32187">
        <ele>293</ele>
        <time>2016-05-15T11:00:21.000Z</time>
      </trkpt>
      <trkpt lat="44.57794" lon="4.32186">
        <ele>293</ele>
        <time>2016-05-15T11:00:22.000Z</time>
      </trkpt>
      <trkpt lat="44.57796" lon="4.32186">
        <ele>293</ele>
        <time>2016-05-15T11:00:23.000Z</time>
      </trkpt>
      <trkpt lat="44.57798" lon="4.32186">
        <ele>293</ele>
        <time>2016-05-15T11:00:24.000Z</time>
      </trkpt>
      <trkpt lat="44.578" lon="4.32186">
        <ele>293</ele>
        <time>2016-05-15T11:00:25.000Z</time>
      </trkpt>
      <trkpt lat="44.57801" lon="4.32186">
        <ele>294</ele>
        <time>2016-05-15T11:00:26.000Z</time>
      </trkpt>
      <trkpt lat="44.57802" lon="4.32187">
        <ele>294</ele>
        <time>2016-05-15T11:00:27.000Z</time>
      </trkpt>
      <trkpt lat="44.57804" lon="4.32187">
        <ele>294</ele>
        <time>2016-05-15T11:00:28.000Z</time>
      </trkpt>
      <trkpt lat="44.57806" lon="4.32187">
        <ele>294</ele>
        <time>2016-05-15T11:00:29.000Z</time>
      </trkpt>
      <trkpt lat="44.57808" lon="4.32188">
        <ele>294</ele>
        <time>2016-05-15T11:00:30.000Z</time>
      </trkpt>
      <trkpt lat="44.5781" lon="4.32188">
        <ele>294</ele>
        <time>2016-05-15T11:00:31.000Z</time>
      </trkpt>
      <trkpt lat="44.57812" lon="4.32189">
        <ele>294</ele>
        <time>2016-05-15T11:00:32.000Z</time>
      </trkpt>
      <trkpt lat="44.57813" lon="4.3219">
        <ele>294</ele>
        <time>2016-05-15T11:00:33.000Z</time>
      </trkpt>
      <trkpt lat="44.57815" lon="4.32191">
        <ele>294</ele>
        <time>2016-05-15T11:00:34.000Z</time>
      </trkpt>
      <trkpt lat="44.57817" lon="4.32192">
        <ele>294</ele>
        <time>2016-05-15T11:00:35.000Z</time>
      </trkpt>
      <trkpt lat="44.57819" lon="4.32193">
        <ele>295</ele>
        <time>2016-05-15T11:00:36.000Z</time>
      </trkpt>
      <trkpt lat="44.57821" lon="4.32194">
        <ele>295</ele>
        <time>2016-05-15T11:00:37.000Z</time>
      </trkpt>
      <trkpt lat="44.57823" lon="4.32196">
        <ele>295</ele>
        <time>2016-05-15T11:00:38.000Z</time>
      </trkpt>
      <trkpt lat="44.57825" lon="4.32196">
        <ele>295</ele>
        <time>2016-05-15T11:00:39.000Z</time>
      </trkpt>
      <trkpt lat="44.57826" lon="4.32196">
        <ele>295</ele>
        <time>2016-05-15T11:00:40.000Z</time>
      </trkpt>
      <trkpt lat="44.57828" lon="4.32196">
        <ele>295</ele>
        <time>2016-05-15T11:00:41.000Z</time>
      </trkpt>
      <trkpt lat="44.5783" lon="4.32197">
        <ele>295</ele>
        <time>2016-05-15T11:00:42.000Z</time>
      </trkpt>
      <trkpt lat="44.57832" lon="4.32197">
        <ele>295</ele>
        <time>2016-05-15T11:00:43.000Z</time>
      </trkpt>
      <trkpt lat="44.57835" lon="4.32197">
        <ele>298</ele>
        <time>2016-05-15T11:00:44.000Z</time>
      </trkpt>
      <trkpt lat="44.57837" lon="4.32198">
        <ele>298</ele>
        <time>2016-05-15T11:00:45.000Z</time>
      </trkpt>
      <trkpt lat="44.57839" lon="4.32198">
        <ele>298</ele>
        <time>2016-05-15T11:00:46.000Z</time>
      </trkpt>
      <trkpt lat="44.57841" lon="4.32198">
        <ele>298</ele>
        <time>2016-05-15T11:00:47.000Z</time>
      </trkpt>
      <trkpt lat="44.57844" lon="4.32198">
        <ele>298</ele>
        <time>2016-05-15T11:00:48.000Z</time>
      </trkpt>
      <trkpt lat="44.57846" lon="4.32198">
        <ele>298</ele>
        <time>2016-05-15T11:00:49.000Z</time>
      </trkpt>
      <trkpt lat="44.57847" lon="4.32197">
        <ele>298</ele>
        <time>2016-05-15T11:00:50.000Z</time>
      </trkpt>
      <trkpt lat="44.57849" lon="4.32198">
        <ele>298</ele>
        <time>2016-05-15T11:00:51.000Z</time>
      </trkpt>
      <trkpt lat="44.57851" lon="4.32197">
        <ele>298</ele>
        <time>2016-05-15T11:00:52.000Z</time>
      </trkpt>
      <trkpt lat="44.57852" lon="4.32197">
        <ele>298</ele>
        <time>2016-05-15T11:00:53.000Z</time>
      </trkpt>
      <trkpt lat="44.57854" lon="4.32197">
        <ele>299</ele>
        <time>2016-05-15T11:00:54.000Z</time>
      </trkpt>
      <trkpt lat="44.57857" lon="4.32198">
        <ele>299</ele>
        <time>2016-05-15T11:00:55.000Z</time>
      </trkpt>
      <trkpt lat="44.57858" lon="4.32198">
        <ele>299</ele>
        <time>2016-05-15T11:00:56.000Z</time>
      </trkpt>
      <trkpt lat="44.57861" lon="4.32199">
        <ele>299</ele>
        <time>2016-05-15T11:00:57.000Z</time>
      </trkpt>
      <trkpt lat="44.57863" lon="4.322">
        <ele>299</ele>
        <time>2016-05-15T11:00:58.000Z</time>
      </trkpt>
      <trkpt lat="44.57865" lon="4.32201">
        <ele>299</ele>
        <time>2016-05-15T11:00:59.000Z</time>
      </trkpt>
      <trkpt lat="44.57868" lon="4.32202">
        <ele>299</ele>
        <time>2016-05-15T11:01:00.000Z</time>
      </trkpt>
      <trkpt lat="44.5787" lon="4.32202">
        <ele>299</ele>
        <time>2016-05-15T11:01:01.000Z</time>
      </trkpt>
      <trkpt lat="44.57873" lon="4.32203">
        <ele>299</ele>
        <time>2016-05-15T11:01:02.000Z</time>
      </trkpt>
      <trkpt lat="44.57876" lon="4.32204">
        <ele>300</ele>
        <time>2016-05-15T11:01:03.000Z</time>
      </trkpt>
      <trkpt lat="44.57878" lon="4.32205">
        <ele>300</ele>
        <time>2016-05-15T11:01:04.000Z</time>
      </trkpt>
      <trkpt lat="44.5788" lon="4.32206">
        <ele>300</ele>
        <time>2016-05-15T11:01:05.000Z</time>
      </trkpt>
      <trkpt lat="44.57882" lon="4.32207">
        <ele>300</ele>
        <time>2016-05-15T11:01:06.000Z</time>
      </trkpt>
      <trkpt lat="44.57884" lon="4.32208">
        <ele>300</ele>
        <time>2016-05-15T11:01:07.000Z</time>
      </trkpt>
      <trkpt lat="44.57886" lon="4.32209">
        <ele>300</ele>
        <time>2016-05-15T11:01:08.000Z</time>
      </trkpt>
      <trkpt lat="44.57888" lon="4.3221">
        <ele>300</ele>
        <time>2016-05-15T11:01:09.000Z</time>
      </trkpt>
      <trkpt lat="44.57891" lon="4.32211">
        <ele>300</ele>
        <time>2016-05-15T11:01:10.000Z</time>
      </trkpt>
      <trkpt lat="44.57893" lon="4.32212">
        <ele>301</ele>
        <time>2016-05-15T11:01:11.000Z</time>
      </trkpt>
      <trkpt lat="44.57895" lon="4.32213">
        <ele>301</ele>
        <time>2016-05-15T11:01:12.000Z</time>
      </trkpt>
      <trkpt lat="44.57897" lon="4.32215">
        <ele>301</ele>
        <time>2016-05-15T11:01:13.000Z</time>
      </trkpt>
      <trkpt lat="44.579" lon="4.32216">
        <ele>301</ele>
        <time>2016-05-15T11:01:14.000Z</time>
      </trkpt>
      <trkpt lat="44.57902" lon="4.32217">
        <ele>301</ele>
        <time>2016-05-15T11:01:15.000Z</time>
      </trkpt>
      <trkpt lat="44.57903" lon="4.32218">
        <ele>302</ele>
        <time>2016-05-15T11:01:16.000Z</time>
      </trkpt>
      <trkpt lat="44.57905" lon="4.3222">
        <ele>302</ele>
        <time>2016-05-15T11:01:17.000Z</time>
      </trkpt>
      <trkpt lat="44.57907" lon="4.32221">
        <ele>302</ele>
        <time>2016-05-15T11:01:18.000Z</time>
      </trkpt>
      <trkpt lat="44.57909" lon="4.32222">
        <ele>302</ele>
        <time>2016-05-15T11:01:19.000Z</time>
      </trkpt>
      <trkpt lat="44.57911" lon="4.32224">
        <ele>303</ele>
        <time>2016-05-15T11:01:20.000Z</time>
      </trkpt>
      <trkpt lat="44.57913" lon="4.32226">
        <ele>303</ele>
        <time>2016-05-15T11:01:21.000Z</time>
      </trkpt>
      <trkpt lat="44.57914" lon="4.32227">
        <ele>304</ele>
        <time>2016-05-15T11:01:22.000Z</time>
      </trkpt>
      <trkpt lat="44.57916" lon="4.32229">
        <ele>304</ele>
        <time>2016-05-15T11:01:23.000Z</time>
      </trkpt>
      <trkpt lat="44.57918" lon="4.3223">
        <ele>301</ele>
        <time>2016-05-15T11:01:24.000Z</time>
      </trkpt>
      <trkpt lat="44.5792" lon="4.32232">
        <ele>302</ele>
        <time>2016-05-15T11:01:25.000Z</time>
      </trkpt>
      <trkpt lat="44.57921" lon="4.32234">
        <ele>302</ele>
        <time>2016-05-15T11:01:26.000Z</time>
      </trkpt>
      <trkpt lat="44.57923" lon="4.32236">
        <ele>302</ele>
        <time>2016-05-15T11:01:27.000Z</time>
      </trkpt>
      <trkpt lat="44.57925" lon="4.32237">
        <ele>302</ele>
        <time>2016-05-15T11:01:28.000Z</time>
      </trkpt>
      <trkpt lat="44.57926" lon="4.32238">
        <ele>302</ele>
        <time>2016-05-15T11:01:29.000Z</time>
      </trkpt>
      <trkpt lat="44.57928" lon="4.32239">
        <ele>302</ele>
        <time>2016-05-15T11:01:30.000Z</time>
      </trkpt>
      <trkpt lat="44.5793" lon="4.32241">
        <ele>302</ele>
        <time>2016-05-15T11:01:31.000Z</time>
      </trkpt>
      <trkpt lat="44.57932" lon="4.32243">
        <ele>302</ele>
        <time>2016-05-15T11:01:32.000Z</time>
      </trkpt>
      <trkpt lat="44.57932" lon="4.32245">
        <ele>302</ele>
        <time>2016-05-15T11:01:33.000Z</time>
      </trkpt>
      <trkpt lat="44.57934" lon="4.32246">
        <ele>302</ele>
        <time>2016-05-15T11:01:34.000Z</time>
      </trkpt>
      <trkpt lat="44.57935" lon="4.32248">
        <ele>302</ele>
        <time>2016-05-15T11:01:35.000Z</time>
      </trkpt>
      <trkpt lat="44.57936" lon="4.32249">
        <ele>302</ele>
        <time>2016-05-15T11:01:36.000Z</time>
      </trkpt>
      <trkpt lat="44.57937" lon="4.32251">
        <ele>310</ele>
        <time>2016-05-15T11:01:37.000Z</time>
      </trkpt>
      <trkpt lat="44.57938" lon="4.32253">
        <ele>310</ele>
        <time>2016-05-15T11:01:38.000Z</time>
      </trkpt>
      <trkpt lat="44.57939" lon="4.32256">
        <ele>311</ele>
        <time>2016-05-15T11:01:39.000Z</time>
      </trkpt>
      <trkpt lat="44.57941" lon="4.32258">
        <ele>311</ele>
        <time>2016-05-15T11:01:40.000Z</time>
      </trkpt>
      <trkpt lat="44.57942" lon="4.3226">
        <ele>311</ele>
        <time>2016-05-15T11:01:41.000Z</time>
      </trkpt>
      <trkpt lat="44.57943" lon="4.32263">
        <ele>311</ele>
        <time>2016-05-15T11:01:42.000Z</time>
      </trkpt>
      <trkpt lat="44.57945" lon="4.32265">
        <ele>311</ele>
        <time>2016-05-15T11:01:43.000Z</time>
      </trkpt>
      <trkpt lat="44.57947" lon="4.32268">
        <ele>311</ele>
        <time>2016-05-15T11:01:44.000Z</time>
      </trkpt>
      <trkpt lat="44.57948" lon="4.32271">
        <ele>311</ele>
        <time>2016-05-15T11:01:45.000Z</time>
      </trkpt>
      <trkpt lat="44.5795" lon="4.32273">
        <ele>311</ele>
        <time>2016-05-15T11:01:46.000Z</time>
      </trkpt>
      <trkpt lat="44.57951" lon="4.32276">
        <ele>311</ele>
        <time>2016-05-15T11:01:47.000Z</time>
      </trkpt>
      <trkpt lat="44.57953" lon="4.32278">
        <ele>311</ele>
        <time>2016-05-15T11:01:48.000Z</time>
      </trkpt>
      <trkpt lat="44.57953" lon="4.3228">
        <ele>311</ele>
        <time>2016-05-15T11:01:49.000Z</time>
      </trkpt>
      <trkpt lat="44.57955" lon="4.32283">
        <ele>312</ele>
        <time>2016-05-15T11:01:50.000Z</time>
      </trkpt>
      <trkpt lat="44.57956" lon="4.32285">
        <ele>312</ele>
        <time>2016-05-15T11:01:51.000Z</time>
      </trkpt>
      <trkpt lat="44.57957" lon="4.32288">
        <ele>312</ele>
        <time>2016-05-15T11:01:52.000Z</time>
      </trkpt>
      <trkpt lat="44.57958" lon="4.3229">
        <ele>312</ele>
        <time>2016-05-15T11:01:53.000Z</time>
      </trkpt>
      <trkpt lat="44.57959" lon="4.32292">
        <ele>312</ele>
        <time>2016-05-15T11:01:54.000Z</time>
      </trkpt>
      <trkpt lat="44.57961" lon="4.32294">
        <ele>312</ele>
        <time>2016-05-15T11:01:55.000Z</time>
      </trkpt>
      <trkpt lat="44.57962" lon="4.32297">
        <ele>313</ele>
        <time>2016-05-15T11:01:56.000Z</time>
      </trkpt>
      <trkpt lat="44.57963" lon="4.323">
        <ele>313</ele>
        <time>2016-05-15T11:01:57.000Z</time>
      </trkpt>
      <trkpt lat="44.57964" lon="4.32302">
        <ele>313</ele>
        <time>2016-05-15T11:01:58.000Z</time>
      </trkpt>
      <trkpt lat="44.57965" lon="4.32305">
        <ele>313</ele>
        <time>2016-05-15T11:01:59.000Z</time>
      </trkpt>
      <trkpt lat="44.57966" lon="4.32307">
        <ele>313</ele>
        <time>2016-05-15T11:02:00.000Z</time>
      </trkpt>
      <trkpt lat="44.57967" lon="4.3231">
        <ele>313</ele>
        <time>2016-05-15T11:02:01.000Z</time>
      </trkpt>
      <trkpt lat="44.57968" lon="4.32313">
        <ele>314</ele>
        <time>2016-05-15T11:02:02.000Z</time>
      </trkpt>
      <trkpt lat="44.57969" lon="4.32316">
        <ele>314</ele>
        <time>2016-05-15T11:02:03.000Z</time>
      </trkpt>
      <trkpt lat="44.5797" lon="4.32319">
        <ele>314</ele>
        <time>2016-05-15T11:02:04.000Z</time>
      </trkpt>
      <trkpt lat="44.5797" lon="4.32322">
        <ele>314</ele>
        <time>2016-05-15T11:02:05.000Z</time>
      </trkpt>
      <trkpt lat="44.57971" lon="4.32325">
        <ele>314</ele>
        <time>2016-05-15T11:02:06.000Z</time>
      </trkpt>
      <trkpt lat="44.57972" lon="4.32328">
        <ele>314</ele>
        <time>2016-05-15T11:02:07.000Z</time>
      </trkpt>
      <trkpt lat="44.57973" lon="4.32332">
        <ele>314</ele>
        <time>2016-05-15T11:02:08.000Z</time>
      </trkpt>
      <trkpt lat="44.57973" lon="4.32334">
        <ele>325</ele>
        <time>2016-05-15T11:02:09.000Z</time>
      </trkpt>
      <trkpt lat="44.57975" lon="4.32337">
        <ele>325</ele>
        <time>2016-05-15T11:02:10.000Z</time>
      </trkpt>
      <trkpt lat="44.57976" lon="4.32341">
        <ele>325</ele>
        <time>2016-05-15T11:02:11.000Z</time>
      </trkpt>
      <trkpt lat="44.57977" lon="4.32344">
        <ele>325</ele>
        <time>2016-05-15T11:02:12.000Z</time>
      </trkpt>
      <trkpt lat="44.57978" lon="4.32347">
        <ele>325</ele>
        <time>2016-05-15T11:02:13.000Z</time>
      </trkpt>
      <trkpt lat="44.57979" lon="4.3235">
        <ele>325</ele>
        <time>2016-05-15T11:02:14.000Z</time>
      </trkpt>
      <trkpt lat="44.5798" lon="4.32353">
        <ele>326</ele>
        <time>2016-05-15T11:02:15.000Z</time>
      </trkpt>
      <trkpt lat="44.57981" lon="4.32355">
        <ele>326</ele>
        <time>2016-05-15T11:02:16.000Z</time>
      </trkpt>
      <trkpt lat="44.57983" lon="4.32358">
        <ele>326</ele>
        <time>2016-05-15T11:02:17.000Z</time>
      </trkpt>
      <trkpt lat="44.57984" lon="4.32361">
        <ele>326</ele>
        <time>2016-05-15T11:02:18.000Z</time>
      </trkpt>
      <trkpt lat="44.57986" lon="4.32363">
        <ele>327</ele>
        <time>2016-05-15T11:02:19.000Z</time>
      </trkpt>
      <trkpt lat="44.57988" lon="4.32365">
        <ele>327</ele>
        <time>2016-05-15T11:02:20.000Z</time>
      </trkpt>
      <trkpt lat="44.5799" lon="4.32366">
        <ele>327</ele>
        <time>2016-05-15T11:02:21.000Z</time>
      </trkpt>
      <trkpt lat="44.57993" lon="4.32367">
        <ele>327</ele>
        <time>2016-05-15T11:02:22.000Z</time>
      </trkpt>
      <trkpt lat="44.57995" lon="4.32367">
        <ele>327</ele>
        <time>2016-05-15T11:02:23.000Z</time>
      </trkpt>
      <trkpt lat="44.57997" lon="4.32367">
        <ele>327</ele>
        <time>2016-05-15T11:02:24.000Z</time>
      </trkpt>
      <trkpt lat="44.57999" lon="4.32365">
        <ele>326</ele>
        <time>2016-05-15T11:02:25.000Z</time>
      </trkpt>
      <trkpt lat="44.58001" lon="4.32364">
        <ele>322</ele>
        <time>2016-05-15T11:02:26.000Z</time>
      </trkpt>
      <trkpt lat="44.58004" lon="4.32363">
        <ele>321</ele>
        <time>2016-05-15T11:02:27.000Z</time>
      </trkpt>
      <trkpt lat="44.58006" lon="4.32362">
        <ele>321</ele>
        <time>2016-05-15T11:02:28.000Z</time>
      </trkpt>
      <trkpt lat="44.58008" lon="4.32361">
        <ele>321</ele>
        <time>2016-05-15T11:02:29.000Z</time>
      </trkpt>
      <trkpt lat="44.5801" lon="4.3236">
        <ele>321</ele>
        <time>2016-05-15T11:02:30.000Z</time>
      </trkpt>
      <trkpt lat="44.58012" lon="4.3236">
        <ele>321</ele>
        <time>2016-05-15T11:02:31.000Z</time>
      </trkpt>
      <trkpt lat="44.58013" lon="4.3236">
        <ele>321</ele>
        <time>2016-05-15T11:02:32.000Z</time>
      </trkpt>
      <trkpt lat="44.58015" lon="4.32359">
        <ele>321</ele>
        <time>2016-05-15T11:02:33.000Z</time>
      </trkpt>
      <trkpt lat="44.58017" lon="4.32358">
        <ele>321</ele>
        <time>2016-05-15T11:02:34.000Z</time>
      </trkpt>
      <trkpt lat="44.58019" lon="4.32358">
        <ele>321</ele>
        <time>2016-05-15T11:02:35.000Z</time>
      </trkpt>
      <trkpt lat="44.58021" lon="4.32357">
        <ele>321</ele>
        <time>2016-05-15T11:02:36.000Z</time>
      </trkpt>
      <trkpt lat="44.58023" lon="4.32357">
        <ele>321</ele>
        <time>2016-05-15T11:02:37.000Z</time>
      </trkpt>
      <trkpt lat="44.58025" lon="4.32357">
        <ele>321</ele>
        <time>2016-05-15T11:02:38.000Z</time>
      </trkpt>
      <trkpt lat="44.58027" lon="4.32357">
        <ele>321</ele>
        <time>2016-05-15T11:02:39.000Z</time>
      </trkpt>
      <trkpt lat="44.5803" lon="4.32358">
        <ele>321</ele>
        <time>2016-05-15T11:02:40.000Z</time>
      </trkpt>
      <trkpt lat="44.58032" lon="4.32358">
        <ele>321</ele>
        <time>2016-05-15T11:02:41.000Z</time>
      </trkpt>
      <trkpt lat="44.58034" lon="4.32358">
        <ele>321</ele>
        <time>2016-05-15T11:02:42.000Z</time>
      </trkpt>
      <trkpt lat="44.58036" lon="4.32358">
        <ele>321</ele>
        <time>2016-05-15T11:02:43.000Z</time>
      </trkpt>
      <trkpt lat="44.58038" lon="4.32358">
        <ele>321</ele>
        <time>2016-05-15T11:02:44.000Z</time>
      </trkpt>
      <trkpt lat="44.5804" lon="4.32358">
        <ele>321</ele>
        <time>2016-05-15T11:02:45.000Z</time>
      </trkpt>
      <trkpt lat="44.58043" lon="4.3236">
        <ele>321</ele>
        <time>2016-05-15T11:02:46.000Z</time>
      </trkpt>
      <trkpt lat="44.58045" lon="4.32361">
        <ele>321</ele>
        <time>2016-05-15T11:02:47.000Z</time>
      </trkpt>
      <trkpt lat="44.58047" lon="4.32362">
        <ele>321</ele>
        <time>2016-05-15T11:02:48.000Z</time>
      </trkpt>
      <trkpt lat="44.58049" lon="4.32363">
        <ele>322</ele>
        <time>2016-05-15T11:02:49.000Z</time>
      </trkpt>
      <trkpt lat="44.5805" lon="4.32364">
        <ele>322</ele>
        <time>2016-05-15T11:02:50.000Z</time>
      </trkpt>
      <trkpt lat="44.58053" lon="4.32366">
        <ele>322</ele>
        <time>2016-05-15T11:02:51.000Z</time>
      </trkpt>
      <trkpt lat="44.58055" lon="4.32367">
        <ele>322</ele>
        <time>2016-05-15T11:02:52.000Z</time>
      </trkpt>
      <trkpt lat="44.58057" lon="4.32368">
        <ele>322</ele>
        <time>2016-05-15T11:02:53.000Z</time>
      </trkpt>
      <trkpt lat="44.58059" lon="4.3237">
        <ele>322</ele>
        <time>2016-05-15T11:02:54.000Z</time>
      </trkpt>
      <trkpt lat="44.58061" lon="4.32371">
        <ele>322</ele>
        <time>2016-05-15T11:02:55.000Z</time>
      </trkpt>
      <trkpt lat="44.58063" lon="4.32372">
        <ele>322</ele>
        <time>2016-05-15T11:02:56.000Z</time>
      </trkpt>
      <trkpt lat="44.58065" lon="4.32373">
        <ele>322</ele>
        <time>2016-05-15T11:02:57.000Z</time>
      </trkpt>
      <trkpt lat="44.58067" lon="4.32373">
        <ele>322</ele>
        <time>2016-05-15T11:02:58.000Z</time>
      </trkpt>
      <trkpt lat="44.5807" lon="4.32374">
        <ele>322</ele>
        <time>2016-05-15T11:02:59.000Z</time>
      </trkpt>
      <trkpt lat="44.58073" lon="4.32375">
        <ele>323</ele>
        <time>2016-05-15T11:03:00.000Z</time>
      </trkpt>
      <trkpt lat="44.58075" lon="4.32376">
        <ele>323</ele>
        <time>2016-05-15T11:03:01.000Z</time>
      </trkpt>
      <trkpt lat="44.58076" lon="4.32377">
        <ele>323</ele>
        <time>2016-05-15T11:03:02.000Z</time>
      </trkpt>
      <trkpt lat="44.58079" lon="4.32377">
        <ele>323</ele>
        <time>2016-05-15T11:03:03.000Z</time>
      </trkpt>
      <trkpt lat="44.58081" lon="4.32378">
        <ele>323</ele>
        <time>2016-05-15T11:03:04.000Z</time>
      </trkpt>
      <trkpt lat="44.58083" lon="4.32379">
        <ele>323</ele>
        <time>2016-05-15T11:03:05.000Z</time>
      </trkpt>
      <trkpt lat="44.58085" lon="4.3238">
        <ele>322</ele>
        <time>2016-05-15T11:03:06.000Z</time>
      </trkpt>
      <trkpt lat="44.58088" lon="4.32381">
        <ele>322</ele>
        <time>2016-05-15T11:03:07.000Z</time>
      </trkpt>
      <trkpt lat="44.58089" lon="4.32382">
        <ele>322</ele>
        <time>2016-05-15T11:03:08.000Z</time>
      </trkpt>
      <trkpt lat="44.58091" lon="4.32385">
        <ele>322</ele>
        <time>2016-05-15T11:03:09.000Z</time>
      </trkpt>
      <trkpt lat="44.58093" lon="4.32387">
        <ele>323</ele>
        <time>2016-05-15T11:03:10.000Z</time>
      </trkpt>
      <trkpt lat="44.58094" lon="4.32389">
        <ele>323</ele>
        <time>2016-05-15T11:03:11.000Z</time>
      </trkpt>
      <trkpt lat="44.58094" lon="4.32391">
        <ele>323</ele>
        <time>2016-05-15T11:03:12.000Z</time>
      </trkpt>
      <trkpt lat="44.58094" lon="4.32393">
        <ele>323</ele>
        <time>2016-05-15T11:03:13.000Z</time>
      </trkpt>
      <trkpt lat="44.58093" lon="4.32394">
        <ele>324</ele>
        <time>2016-05-15T11:03:14.000Z</time>
      </trkpt>
      <trkpt lat="44.58091" lon="4.32395">
        <ele>324</ele>
        <time>2016-05-15T11:03:15.000Z</time>
      </trkpt>
      <trkpt lat="44.5809" lon="4.32396">
        <ele>324</ele>
        <time>2016-05-15T11:03:16.000Z</time>
      </trkpt>
      <trkpt lat="44.58089" lon="4.32396">
        <ele>324</ele>
        <time>2016-05-15T11:03:17.000Z</time>
      </trkpt>
      <trkpt lat="44.58087" lon="4.32396">
        <ele>324</ele>
        <time>2016-05-15T11:03:18.000Z</time>
      </trkpt>
      <trkpt lat="44.58085" lon="4.32396">
        <ele>324</ele>
        <time>2016-05-15T11:03:19.000Z</time>
      </trkpt>
      <trkpt lat="44.58083" lon="4.32396">
        <ele>326</ele>
        <time>2016-05-15T11:03:20.000Z</time>
      </trkpt>
      <trkpt lat="44.58081" lon="4.32396">
        <ele>326</ele>
        <time>2016-05-15T11:03:21.000Z</time>
      </trkpt>
      <trkpt lat="44.5808" lon="4.32396">
        <ele>326</ele>
        <time>2016-05-15T11:03:22.000Z</time>
      </trkpt>
      <trkpt lat="44.58078" lon="4.32396">
        <ele>326</ele>
        <time>2016-05-15T11:03:23.000Z</time>
      </trkpt>
      <trkpt lat="44.58076" lon="4.32396">
        <ele>326</ele>
        <time>2016-05-15T11:03:24.000Z</time>
      </trkpt>
      <trkpt lat="44.58074" lon="4.32396">
        <ele>326</ele>
        <time>2016-05-15T11:03:25.000Z</time>
      </trkpt>
      <trkpt lat="44.58072" lon="4.32396">
        <ele>326</ele>
        <time>2016-05-15T11:03:26.000Z</time>
      </trkpt>
      <trkpt lat="44.5807" lon="4.32397">
        <ele>326</ele>
        <time>2016-05-15T11:03:27.000Z</time>
      </trkpt>
      <trkpt lat="44.58068" lon="4.32397">
        <ele>325</ele>
        <time>2016-05-15T11:03:28.000Z</time>
      </trkpt>
      <trkpt lat="44.58066" lon="4.32397">
        <ele>325</ele>
        <time>2016-05-15T11:03:29.000Z</time>
      </trkpt>
      <trkpt lat="44.58064" lon="4.32398">
        <ele>325</ele>
        <time>2016-05-15T11:03:30.000Z</time>
      </trkpt>
      <trkpt lat="44.58062" lon="4.32398">
        <ele>325</ele>
        <time>2016-05-15T11:03:31.000Z</time>
      </trkpt>
      <trkpt lat="44.58061" lon="4.32399">
        <ele>325</ele>
        <time>2016-05-15T11:03:32.000Z</time>
      </trkpt>
      <trkpt lat="44.58059" lon="4.32399">
        <ele>325</ele>
        <time>2016-05-15T11:03:33.000Z</time>
      </trkpt>
      <trkpt lat="44.58057" lon="4.32399">
        <ele>325</ele>
        <time>2016-05-15T11:03:34.000Z</time>
      </trkpt>
      <trkpt lat="44.58055" lon="4.324">
        <ele>325</ele>
        <time>2016-05-15T11:03:35.000Z</time>
      </trkpt>
      <trkpt lat="44.58053" lon="4.324">
        <ele>325</ele>
        <time>2016-05-15T11:03:36.000Z</time>
      </trkpt>
      <trkpt lat="44.5805" lon="4.32401">
        <ele>325</ele>
        <time>2016-05-15T11:03:37.000Z</time>
      </trkpt>
      <trkpt lat="44.58047" lon="4.32401">
        <ele>326</ele>
        <time>2016-05-15T11:03:38.000Z</time>
      </trkpt>
      <trkpt lat="44.58045" lon="4.32402">
        <ele>326</ele>
        <time>2016-05-15T11:03:39.000Z</time>
      </trkpt>
      <trkpt lat="44.58043" lon="4.32403">
        <ele>326</ele>
        <time>2016-05-15T11:03:40.000Z</time>
      </trkpt>
      <trkpt lat="44.58042" lon="4.32404">
        <ele>326</ele>
        <time>2016-05-15T11:03:41.000Z</time>
      </trkpt>
      <trkpt lat="44.5804" lon="4.32405">
        <ele>326</ele>
        <time>2016-05-15T11:03:42.000Z</time>
      </trkpt>
      <trkpt lat="44.58039" lon="4.32406">
        <ele>326</ele>
        <time>2016-05-15T11:03:43.000Z</time>
      </trkpt>
      <trkpt lat="44.58038" lon="4.32408">
        <ele>326</ele>
        <time>2016-05-15T11:03:44.000Z</time>
      </trkpt>
      <trkpt lat="44.58036" lon="4.32409">
        <ele>327</ele>
        <time>2016-05-15T11:03:45.000Z</time>
      </trkpt>
      <trkpt lat="44.58034" lon="4.3241">
        <ele>327</ele>
        <time>2016-05-15T11:03:46.000Z</time>
      </trkpt>
      <trkpt lat="44.58033" lon="4.32412">
        <ele>327</ele>
        <time>2016-05-15T11:03:47.000Z</time>
      </trkpt>
      <trkpt lat="44.58031" lon="4.32414">
        <ele>327</ele>
        <time>2016-05-15T11:03:48.000Z</time>
      </trkpt>
      <trkpt lat="44.58029" lon="4.32416">
        <ele>328</ele>
        <time>2016-05-15T11:03:49.000Z</time>
      </trkpt>
      <trkpt lat="44.58028" lon="4.32418">
        <ele>337</ele>
        <time>2016-05-15T11:03:50.000Z</time>
      </trkpt>
      <trkpt lat="44.58027" lon="4.3242">
        <ele>337</ele>
        <time>2016-05-15T11:03:51.000Z</time>
      </trkpt>
      <trkpt lat="44.58026" lon="4.32422">
        <ele>337</ele>
        <time>2016-05-15T11:03:52.000Z</time>
      </trkpt>
      <trkpt lat="44.58025" lon="4.32424">
        <ele>337</ele>
        <time>2016-05-15T11:03:53.000Z</time>
      </trkpt>
      <trkpt lat="44.58024" lon="4.32425">
        <ele>337</ele>
        <time>2016-05-15T11:03:54.000Z</time>
      </trkpt>
      <trkpt lat="44.58023" lon="4.32426">
        <ele>337</ele>
        <time>2016-05-15T11:03:55.000Z</time>
      </trkpt>
      <trkpt lat="44.58021" lon="4.32428">
        <ele>338</ele>
        <time>2016-05-15T11:03:56.000Z</time>
      </trkpt>
      <trkpt lat="44.5802" lon="4.32429">
        <ele>338</ele>
        <time>2016-05-15T11:03:57.000Z</time>
      </trkpt>
      <trkpt lat="44.58018" lon="4.32431">
        <ele>338</ele>
        <time>2016-05-15T11:03:58.000Z</time>
      </trkpt>
      <trkpt lat="44.58016" lon="4.32432">
        <ele>338</ele>
        <time>2016-05-15T11:03:59.000Z</time>
      </trkpt>
      <trkpt lat="44.58015" lon="4.32433">
        <ele>338</ele>
        <time>2016-05-15T11:04:00.000Z</time>
      </trkpt>
      <trkpt lat="44.58013" lon="4.32434">
        <ele>338</ele>
        <time>2016-05-15T11:04:01.000Z</time>
      </trkpt>
      <trkpt lat="44.58012" lon="4.32435">
        <ele>338</ele>
        <time>2016-05-15T11:04:02.000Z</time>
      </trkpt>
      <trkpt lat="44.58011" lon="4.32436">
        <ele>338</ele>
        <time>2016-05-15T11:04:03.000Z</time>
      </trkpt>
      <trkpt lat="44.58009" lon="4.32436">
        <ele>338</ele>
        <time>2016-05-15T11:04:04.000Z</time>
      </trkpt>
      <trkpt lat="44.58008" lon="4.32437">
        <ele>338</ele>
        <time>2016-05-15T11:04:05.000Z</time>
      </trkpt>
      <trkpt lat="44.58006" lon="4.32437">
        <ele>338</ele>
        <time>2016-05-15T11:04:06.000Z</time>
      </trkpt>
      <trkpt lat="44.58004" lon="4.32438">
        <ele>338</ele>
        <time>2016-05-15T11:04:07.000Z</time>
      </trkpt>
      <trkpt lat="44.58002" lon="4.32438">
        <ele>338</ele>
        <time>2016-05-15T11:04:08.000Z</time>
      </trkpt>
      <trkpt lat="44.58" lon="4.32438">
        <ele>338</ele>
        <time>2016-05-15T11:04:09.000Z</time>
      </trkpt>
      <trkpt lat="44.57999" lon="4.32439">
        <ele>341</ele>
        <time>2016-05-15T11:04:10.000Z</time>
      </trkpt>
      <trkpt lat="44.57997" lon="4.32439">
        <ele>342</ele>
        <time>2016-05-15T11:04:11.000Z</time>
      </trkpt>
      <trkpt lat="44.57995" lon="4.32439">
        <ele>342</ele>
        <time>2016-05-15T11:04:12.000Z</time>
      </trkpt>
      <trkpt lat="44.57993" lon="4.3244">
        <ele>342</ele>
        <time>2016-05-15T11:04:13.000Z</time>
      </trkpt>
      <trkpt lat="44.57991" lon="4.32439">
        <ele>342</ele>
        <time>2016-05-15T11:04:14.000Z</time>
      </trkpt>
      <trkpt lat="44.57989" lon="4.32439">
        <ele>342</ele>
        <time>2016-05-15T11:04:15.000Z</time>
      </trkpt>
      <trkpt lat="44.57987" lon="4.32439">
        <ele>342</ele>
        <time>2016-05-15T11:04:16.000Z</time>
      </trkpt>
      <trkpt lat="44.57985" lon="4.32439">
        <ele>342</ele>
        <time>2016-05-15T11:04:17.000Z</time>
      </trkpt>
      <trkpt lat="44.57983" lon="4.32439">
        <ele>342</ele>
        <time>2016-05-15T11:04:18.000Z</time>
      </trkpt>
      <trkpt lat="44.57981" lon="4.32439">
        <ele>343</ele>
        <time>2016-05-15T11:04:19.000Z</time>
      </trkpt>
      <trkpt lat="44.57979" lon="4.32439">
        <ele>343</ele>
        <time>2016-05-15T11:04:20.000Z</time>
      </trkpt>
      <trkpt lat="44.57976" lon="4.32439">
        <ele>343</ele>
        <time>2016-05-15T11:04:21.000Z</time>
      </trkpt>
      <trkpt lat="44.57974" lon="4.32438">
        <ele>343</ele>
        <time>2016-05-15T11:04:22.000Z</time>
      </trkpt>
      <trkpt lat="44.57971" lon="4.32438">
        <ele>344</ele>
        <time>2016-05-15T11:04:23.000Z</time>
      </trkpt>
      <trkpt lat="44.5797" lon="4.32438">
        <ele>344</ele>
        <time>2016-05-15T11:04:24.000Z</time>
      </trkpt>
      <trkpt lat="44.57968" lon="4.32437">
        <ele>344</ele>
        <time>2016-05-15T11:04:25.000Z</time>
      </trkpt>
      <trkpt lat="44.57965" lon="4.32436">
        <ele>344</ele>
        <time>2016-05-15T11:04:26.000Z</time>
      </trkpt>
      <trkpt lat="44.57963" lon="4.32434">
        <ele>344</ele>
        <time>2016-05-15T11:04:27.000Z</time>
      </trkpt>
      <trkpt lat="44.57961" lon="4.32433">
        <ele>344</ele>
        <time>2016-05-15T11:04:28.000Z</time>
      </trkpt>
      <trkpt lat="44.57959" lon="4.32431">
        <ele>344</ele>
        <time>2016-05-15T11:04:29.000Z</time>
      </trkpt>
      <trkpt lat="44.57958" lon="4.3243">
        <ele>344</ele>
        <time>2016-05-15T11:04:30.000Z</time>
      </trkpt>
      <trkpt lat="44.57956" lon="4.32428">
        <ele>344</ele>
        <time>2016-05-15T11:04:31.000Z</time>
      </trkpt>
      <trkpt lat="44.57955" lon="4.32426">
        <ele>344</ele>
        <time>2016-05-15T11:04:32.000Z</time>
      </trkpt>
      <trkpt lat="44.57953" lon="4.32425">
        <ele>344</ele>
        <time>2016-05-15T11:04:33.000Z</time>
      </trkpt>
      <trkpt lat="44.57951" lon="4.32423">
        <ele>344</ele>
        <time>2016-05-15T11:04:34.000Z</time>
      </trkpt>
      <trkpt lat="44.57949" lon="4.32422">
        <ele>344</ele>
        <time>2016-05-15T11:04:35.000Z</time>
      </trkpt>
      <trkpt lat="44.57947" lon="4.3242">
        <ele>344</ele>
        <time>2016-05-15T11:04:36.000Z</time>
      </trkpt>
      <trkpt lat="44.57945" lon="4.32418">
        <ele>344</ele>
        <time>2016-05-15T11:04:37.000Z</time>
      </trkpt>
      <trkpt lat="44.57942" lon="4.32417">
        <ele>344</ele>
        <time>2016-05-15T11:04:38.000Z</time>
      </trkpt>
      <trkpt lat="44.5794" lon="4.32416">
        <ele>337</ele>
        <time>2016-05-15T11:04:39.000Z</time>
      </trkpt>
      <trkpt lat="44.57937" lon="4.32415">
        <ele>337</ele>
        <time>2016-05-15T11:04:40.000Z</time>
      </trkpt>
      <trkpt lat="44.57935" lon="4.32414">
        <ele>337</ele>
        <time>2016-05-15T11:04:41.000Z</time>
      </trkpt>
      <trkpt lat="44.57933" lon="4.32413">
        <ele>338</ele>
        <time>2016-05-15T11:04:42.000Z</time>
      </trkpt>
      <trkpt lat="44.57931" lon="4.32412">
        <ele>338</ele>
        <time>2016-05-15T11:04:43.000Z</time>
      </trkpt>
      <trkpt lat="44.57928" lon="4.32411">
        <ele>339</ele>
        <time>2016-05-15T11:04:44.000Z</time>
      </trkpt>
      <trkpt lat="44.57926" lon="4.32411">
        <ele>339</ele>
        <time>2016-05-15T11:04:45.000Z</time>
      </trkpt>
      <trkpt lat="44.57924" lon="4.32409">
        <ele>340</ele>
        <time>2016-05-15T11:04:46.000Z</time>
      </trkpt>
      <trkpt lat="44.57922" lon="4.32408">
        <ele>340</ele>
        <time>2016-05-15T11:04:47.000Z</time>
      </trkpt>
      <trkpt lat="44.57919" lon="4.32407">
        <ele>340</ele>
        <time>2016-05-15T11:04:48.000Z</time>
      </trkpt>
      <trkpt lat="44.57916" lon="4.32405">
        <ele>341</ele>
        <time>2016-05-15T11:04:49.000Z</time>
      </trkpt>
      <trkpt lat="44.57913" lon="4.32404">
        <ele>341</ele>
        <time>2016-05-15T11:04:50.000Z</time>
      </trkpt>
      <trkpt lat="44.5791" lon="4.32405">
        <ele>340</ele>
        <time>2016-05-15T11:04:51.000Z</time>
      </trkpt>
      <trkpt lat="44.57907" lon="4.32405">
        <ele>340</ele>
        <time>2016-05-15T11:04:52.000Z</time>
      </trkpt>
      <trkpt lat="44.57904" lon="4.32406">
        <ele>340</ele>
        <time>2016-05-15T11:04:53.000Z</time>
      </trkpt>
      <trkpt lat="44.57903" lon="4.32409">
        <ele>340</ele>
        <time>2016-05-15T11:04:54.000Z</time>
      </trkpt>
      <trkpt lat="44.57901" lon="4.32411">
        <ele>340</ele>
        <time>2016-05-15T11:04:55.000Z</time>
      </trkpt>
      <trkpt lat="44.579" lon="4.32413">
        <ele>340</ele>
        <time>2016-05-15T11:04:56.000Z</time>
      </trkpt>
      <trkpt lat="44.57899" lon="4.32414">
        <ele>340</ele>
        <time>2016-05-15T11:04:57.000Z</time>
      </trkpt>
      <trkpt lat="44.579" lon="4.32415">
        <ele>340</ele>
        <time>2016-05-15T11:04:58.000Z</time>
      </trkpt>
      <trkpt lat="44.57902" lon="4.32416">
        <ele>341</ele>
        <time>2016-05-15T11:04:59.000Z</time>
      </trkpt>
      <trkpt lat="44.57903" lon="4.32416">
        <ele>341</ele>
        <time>2016-05-15T11:05:00.000Z</time>
      </trkpt>
      <trkpt lat="44.57904" lon="4.32416">
        <ele>341</ele>
        <time>2016-05-15T11:05:01.000Z</time>
      </trkpt>
      <trkpt lat="44.57906" lon="4.32416">
        <ele>341</ele>
        <time>2016-05-15T11:05:02.000Z</time>
      </trkpt>
      <trkpt lat="44.57908" lon="4.32417">
        <ele>345</ele>
        <time>2016-05-15T11:05:03.000Z</time>
      </trkpt>
      <trkpt lat="44.5791" lon="4.32417">
        <ele>345</ele>
        <time>2016-05-15T11:05:04.000Z</time>
      </trkpt>
      <trkpt lat="44.57912" lon="4.32418">
        <ele>345</ele>
        <time>2016-05-15T11:05:05.000Z</time>
      </trkpt>
      <trkpt lat="44.57914" lon="4.3242">
        <ele>345</ele>
        <time>2016-05-15T11:05:06.000Z</time>
      </trkpt>
      <trkpt lat="44.57916" lon="4.32421">
        <ele>345</ele>
        <time>2016-05-15T11:05:07.000Z</time>
      </trkpt>
      <trkpt lat="44.57917" lon="4.32423">
        <ele>344</ele>
        <time>2016-05-15T11:05:08.000Z</time>
      </trkpt>
      <trkpt lat="44.57919" lon="4.32424">
        <ele>345</ele>
        <time>2016-05-15T11:05:09.000Z</time>
      </trkpt>
      <trkpt lat="44.57921" lon="4.32426">
        <ele>345</ele>
        <time>2016-05-15T11:05:10.000Z</time>
      </trkpt>
      <trkpt lat="44.57922" lon="4.32428">
        <ele>345</ele>
        <time>2016-05-15T11:05:11.000Z</time>
      </trkpt>
      <trkpt lat="44.57923" lon="4.32431">
        <ele>345</ele>
        <time>2016-05-15T11:05:12.000Z</time>
      </trkpt>
      <trkpt lat="44.57925" lon="4.32433">
        <ele>345</ele>
        <time>2016-05-15T11:05:13.000Z</time>
      </trkpt>
      <trkpt lat="44.57926" lon="4.32436">
        <ele>345</ele>
        <time>2016-05-15T11:05:14.000Z</time>
      </trkpt>
      <trkpt lat="44.57927" lon="4.32438">
        <ele>346</ele>
        <time>2016-05-15T11:05:15.000Z</time>
      </trkpt>
      <trkpt lat="44.57928" lon="4.32441">
        <ele>346</ele>
        <time>2016-05-15T11:05:16.000Z</time>
      </trkpt>
      <trkpt lat="44.57929" lon="4.32444">
        <ele>346</ele>
        <time>2016-05-15T11:05:17.000Z</time>
      </trkpt>
      <trkpt lat="44.5793" lon="4.32446">
        <ele>346</ele>
        <time>2016-05-15T11:05:18.000Z</time>
      </trkpt>
      <trkpt lat="44.57931" lon="4.32448">
        <ele>346</ele>
        <time>2016-05-15T11:05:19.000Z</time>
      </trkpt>
      <trkpt lat="44.57932" lon="4.32451">
        <ele>347</ele>
        <time>2016-05-15T11:05:20.000Z</time>
      </trkpt>
      <trkpt lat="44.57933" lon="4.32453">
        <ele>347</ele>
        <time>2016-05-15T11:05:21.000Z</time>
      </trkpt>
      <trkpt lat="44.57934" lon="4.32456">
        <ele>347</ele>
        <time>2016-05-15T11:05:22.000Z</time>
      </trkpt>
      <trkpt lat="44.57936" lon="4.32458">
        <ele>347</ele>
        <time>2016-05-15T11:05:23.000Z</time>
      </trkpt>
      <trkpt lat="44.57937" lon="4.32461">
        <ele>347</ele>
        <time>2016-05-15T11:05:24.000Z</time>
      </trkpt>
      <trkpt lat="44.57938" lon="4.32463">
        <ele>348</ele>
        <time>2016-05-15T11:05:25.000Z</time>
      </trkpt>
      <trkpt lat="44.5794" lon="4.32466">
        <ele>348</ele>
        <time>2016-05-15T11:05:26.000Z</time>
      </trkpt>
      <trkpt lat="44.57941" lon="4.32469">
        <ele>348</ele>
        <time>2016-05-15T11:05:27.000Z</time>
      </trkpt>
      <trkpt lat="44.57942" lon="4.32471">
        <ele>348</ele>
        <time>2016-05-15T11:05:28.000Z</time>
      </trkpt>
      <trkpt lat="44.57943" lon="4.32474">
        <ele>348</ele>
        <time>2016-05-15T11:05:29.000Z</time>
      </trkpt>
      <trkpt lat="44.57945" lon="4.32477">
        <ele>348</ele>
        <time>2016-05-15T11:05:30.000Z</time>
      </trkpt>
      <trkpt lat="44.57946" lon="4.32479">
        <ele>348</ele>
        <time>2016-05-15T11:05:31.000Z</time>
      </trkpt>
      <trkpt lat="44.57947" lon="4.32481">
        <ele>349</ele>
        <time>2016-05-15T11:05:32.000Z</time>
      </trkpt>
      <trkpt lat="44.57949" lon="4.32483">
        <ele>349</ele>
        <time>2016-05-15T11:05:33.000Z</time>
      </trkpt>
      <trkpt lat="44.5795" lon="4.32485">
        <ele>349</ele>
        <time>2016-05-15T11:05:34.000Z</time>
      </trkpt>
      <trkpt lat="44.57951" lon="4.32487">
        <ele>349</ele>
        <time>2016-05-15T11:05:35.000Z</time>
      </trkpt>
      <trkpt lat="44.57953" lon="4.32489">
        <ele>349</ele>
        <time>2016-05-15T11:05:36.000Z</time>
      </trkpt>
      <trkpt lat="44.57955" lon="4.32491">
        <ele>348</ele>
        <time>2016-05-15T11:05:37.000Z</time>
      </trkpt>
      <trkpt lat="44.57956" lon="4.32493">
        <ele>348</ele>
        <time>2016-05-15T11:05:38.000Z</time>
      </trkpt>
      <trkpt lat="44.57957" lon="4.32496">
        <ele>348</ele>
        <time>2016-05-15T11:05:39.000Z</time>
      </trkpt>
      <trkpt lat="44.57959" lon="4.32498">
        <ele>348</ele>
        <time>2016-05-15T11:05:40.000Z</time>
      </trkpt>
      <trkpt lat="44.5796" lon="4.325">
        <ele>348</ele>
        <time>2016-05-15T11:05:41.000Z</time>
      </trkpt>
      <trkpt lat="44.57961" lon="4.32502">
        <ele>356</ele>
        <time>2016-05-15T11:05:42.000Z</time>
      </trkpt>
      <trkpt lat="44.57962" lon="4.32504">
        <ele>356</ele>
        <time>2016-05-15T11:05:43.000Z</time>
      </trkpt>
      <trkpt lat="44.57963" lon="4.32506">
        <ele>356</ele>
        <time>2016-05-15T11:05:44.000Z</time>
      </trkpt>
      <trkpt lat="44.57964" lon="4.32508">
        <ele>356</ele>
        <time>2016-05-15T11:05:45.000Z</time>
      </trkpt>
      <trkpt lat="44.57965" lon="4.3251">
        <ele>356</ele>
        <time>2016-05-15T11:05:46.000Z</time>
      </trkpt>
      <trkpt lat="44.57967" lon="4.32512">
        <ele>356</ele>
        <time>2016-05-15T11:05:47.000Z</time>
      </trkpt>
      <trkpt lat="44.57969" lon="4.32514">
        <ele>356</ele>
        <time>2016-05-15T11:05:48.000Z</time>
      </trkpt>
      <trkpt lat="44.5797" lon="4.32516">
        <ele>356</ele>
        <time>2016-05-15T11:05:49.000Z</time>
      </trkpt>
      <trkpt lat="44.57972" lon="4.32518">
        <ele>356</ele>
        <time>2016-05-15T11:05:50.000Z</time>
      </trkpt>
      <trkpt lat="44.57974" lon="4.32519">
        <ele>356</ele>
        <time>2016-05-15T11:05:51.000Z</time>
      </trkpt>
      <trkpt lat="44.57976" lon="4.3252">
        <ele>356</ele>
        <time>2016-05-15T11:05:52.000Z</time>
      </trkpt>
      <trkpt lat="44.57978" lon="4.32522">
        <ele>356</ele>
        <time>2016-05-15T11:05:53.000Z</time>
      </trkpt>
      <trkpt lat="44.5798" lon="4.32524">
        <ele>356</ele>
        <time>2016-05-15T11:05:54.000Z</time>
      </trkpt>
      <trkpt lat="44.57982" lon="4.32525">
        <ele>356</ele>
        <time>2016-05-15T11:05:55.000Z</time>
      </trkpt>
      <trkpt lat="44.57984" lon="4.32527">
        <ele>356</ele>
        <time>2016-05-15T11:05:56.000Z</time>
      </trkpt>
      <trkpt lat="44.57987" lon="4.32529">
        <ele>356</ele>
        <time>2016-05-15T11:05:57.000Z</time>
      </trkpt>
      <trkpt lat="44.57989" lon="4.3253">
        <ele>356</ele>
        <time>2016-05-15T11:05:58.000Z</time>
      </trkpt>
      <trkpt lat="44.5799" lon="4.32531">
        <ele>356</ele>
        <time>2016-05-15T11:05:59.000Z</time>
      </trkpt>
      <trkpt lat="44.57992" lon="4.32533">
        <ele>356</ele>
        <time>2016-05-15T11:06:00.000Z</time>
      </trkpt>
      <trkpt lat="44.57994" lon="4.32534">
        <ele>356</ele>
        <time>2016-05-15T11:06:01.000Z</time>
      </trkpt>
      <trkpt lat="44.57996" lon="4.32535">
        <ele>356</ele>
        <time>2016-05-15T11:06:02.000Z</time>
      </trkpt>
      <trkpt lat="44.57999" lon="4.32536">
        <ele>356</ele>
        <time>2016-05-15T11:06:03.000Z</time>
      </trkpt>
      <trkpt lat="44.58001" lon="4.32537">
        <ele>353</ele>
        <time>2016-05-15T11:06:04.000Z</time>
      </trkpt>
      <trkpt lat="44.58003" lon="4.32539">
        <ele>354</ele>
        <time>2016-05-15T11:06:05.000Z</time>
      </trkpt>
      <trkpt lat="44.58005" lon="4.32541">
        <ele>354</ele>
        <time>2016-05-15T11:06:06.000Z</time>
      </trkpt>
      <trkpt lat="44.58008" lon="4.32542">
        <ele>354</ele>
        <time>2016-05-15T11:06:07.000Z</time>
      </trkpt>
      <trkpt lat="44.5801" lon="4.32543">
        <ele>354</ele>
        <time>2016-05-15T11:06:08.000Z</time>
      </trkpt>
      <trkpt lat="44.58012" lon="4.32545">
        <ele>354</ele>
        <time>2016-05-15T11:06:09.000Z</time>
      </trkpt>
      <trkpt lat="44.58015" lon="4.32546">
        <ele>354</ele>
        <time>2016-05-15T11:06:10.000Z</time>
      </trkpt>
      <trkpt lat="44.58017" lon="4.32547">
        <ele>354</ele>
        <time>2016-05-15T11:06:11.000Z</time>
      </trkpt>
      <trkpt lat="44.58019" lon="4.32549">
        <ele>354</ele>
        <time>2016-05-15T11:06:12.000Z</time>
      </trkpt>
      <trkpt lat="44.58022" lon="4.3255">
        <ele>355</ele>
        <time>2016-05-15T11:06:13.000Z</time>
      </trkpt>
      <trkpt lat="44.58025" lon="4.32551">
        <ele>355</ele>
        <time>2016-05-15T11:06:14.000Z</time>
      </trkpt>
      <trkpt lat="44.58027" lon="4.32552">
        <ele>355</ele>
        <time>2016-05-15T11:06:15.000Z</time>
      </trkpt>
      <trkpt lat="44.58029" lon="4.32553">
        <ele>355</ele>
        <time>2016-05-15T11:06:16.000Z</time>
      </trkpt>
      <trkpt lat="44.58032" lon="4.32554">
        <ele>355</ele>
        <time>2016-05-15T11:06:17.000Z</time>
      </trkpt>
      <trkpt lat="44.58034" lon="4.32555">
        <ele>355</ele>
        <time>2016-05-15T11:06:18.000Z</time>
      </trkpt>
      <trkpt lat="44.58036" lon="4.32556">
        <ele>355</ele>
        <time>2016-05-15T11:06:19.000Z</time>
      </trkpt>
      <trkpt lat="44.58039" lon="4.32557">
        <ele>355</ele>
        <time>2016-05-15T11:06:20.000Z</time>
      </trkpt>
      <trkpt lat="44.58041" lon="4.32558">
        <ele>355</ele>
        <time>2016-05-15T11:06:21.000Z</time>
      </trkpt>
      <trkpt lat="44.58044" lon="4.32559">
        <ele>355</ele>
        <time>2016-05-15T11:06:22.000Z</time>
      </trkpt>
      <trkpt lat="44.58046" lon="4.3256">
        <ele>355</ele>
        <time>2016-05-15T11:06:23.000Z</time>
      </trkpt>
      <trkpt lat="44.58048" lon="4.32561">
        <ele>355</ele>
        <time>2016-05-15T11:06:24.000Z</time>
      </trkpt>
      <trkpt lat="44.58049" lon="4.32561">
        <ele>355</ele>
        <time>2016-05-15T11:06:25.000Z</time>
      </trkpt>
      <trkpt lat="44.58052" lon="4.32563">
        <ele>355</ele>
        <time>2016-05-15T11:06:26.000Z</time>
      </trkpt>
      <trkpt lat="44.58054" lon="4.32564">
        <ele>356</ele>
        <time>2016-05-15T11:06:27.000Z</time>
      </trkpt>
      <trkpt lat="44.58056" lon="4.32565">
        <ele>356</ele>
        <time>2016-05-15T11:06:28.000Z</time>
      </trkpt>
      <trkpt lat="44.58057" lon="4.32566">
        <ele>356</ele>
        <time>2016-05-15T11:06:29.000Z</time>
      </trkpt>
      <trkpt lat="44.5806" lon="4.32568">
        <ele>356</ele>
        <time>2016-05-15T11:06:30.000Z</time>
      </trkpt>
      <trkpt lat="44.58062" lon="4.32569">
        <ele>356</ele>
        <time>2016-05-15T11:06:31.000Z</time>
      </trkpt>
      <trkpt lat="44.58064" lon="4.32569">
        <ele>357</ele>
        <time>2016-05-15T11:06:32.000Z</time>
      </trkpt>
      <trkpt lat="44.58065" lon="4.3257">
        <ele>357</ele>
        <time>2016-05-15T11:06:33.000Z</time>
      </trkpt>
      <trkpt lat="44.58067" lon="4.3257">
        <ele>357</ele>
        <time>2016-05-15T11:06:34.000Z</time>
      </trkpt>
      <trkpt lat="44.58069" lon="4.32571">
        <ele>357</ele>
        <time>2016-05-15T11:06:35.000Z</time>
      </trkpt>
      <trkpt lat="44.58071" lon="4.32571">
        <ele>357</ele>
        <time>2016-05-15T11:06:36.000Z</time>
      </trkpt>
      <trkpt lat="44.58072" lon="4.32572">
        <ele>357</ele>
        <time>2016-05-15T11:06:37.000Z</time>
      </trkpt>
      <trkpt lat="44.58073" lon="4.32573">
        <ele>358</ele>
        <time>2016-05-15T11:06:38.000Z</time>
      </trkpt>
      <trkpt lat="44.58075" lon="4.32574">
        <ele>358</ele>
        <time>2016-05-15T11:06:39.000Z</time>
      </trkpt>
      <trkpt lat="44.58078" lon="4.32575">
        <ele>358</ele>
        <time>2016-05-15T11:06:40.000Z</time>
      </trkpt>
      <trkpt lat="44.5808" lon="4.32576">
        <ele>359</ele>
        <time>2016-05-15T11:06:41.000Z</time>
      </trkpt>
      <trkpt lat="44.58083" lon="4.32577">
        <ele>359</ele>
        <time>2016-05-15T11:06:42.000Z</time>
      </trkpt>
      <trkpt lat="44.58085" lon="4.32578">
        <ele>360</ele>
        <time>2016-05-15T11:06:43.000Z</time>
      </trkpt>
      <trkpt lat="44.58087" lon="4.3258">
        <ele>360</ele>
        <time>2016-05-15T11:06:44.000Z</time>
      </trkpt>
      <trkpt lat="44.58089" lon="4.32581">
        <ele>360</ele>
        <time>2016-05-15T11:06:45.000Z</time>
      </trkpt>
      <trkpt lat="44.58091" lon="4.32582">
        <ele>359</ele>
        <time>2016-05-15T11:06:46.000Z</time>
      </trkpt>
      <trkpt lat="44.58093" lon="4.32583">
        <ele>359</ele>
        <time>2016-05-15T11:06:47.000Z</time>
      </trkpt>
      <trkpt lat="44.58095" lon="4.32584">
        <ele>365</ele>
        <time>2016-05-15T11:06:48.000Z</time>
      </trkpt>
      <trkpt lat="44.58097" lon="4.32586">
        <ele>365</ele>
        <time>2016-05-15T11:06:49.000Z</time>
      </trkpt>
      <trkpt lat="44.58098" lon="4.32588">
        <ele>366</ele>
        <time>2016-05-15T11:06:50.000Z</time>
      </trkpt>
      <trkpt lat="44.581" lon="4.3259">
        <ele>367</ele>
        <time>2016-05-15T11:06:51.000Z</time>
      </trkpt>
      <trkpt lat="44.58101" lon="4.32593">
        <ele>367</ele>
        <time>2016-05-15T11:06:52.000Z</time>
      </trkpt>
      <trkpt lat="44.58101" lon="4.32596">
        <ele>367</ele>
        <time>2016-05-15T11:06:53.000Z</time>
      </trkpt>
      <trkpt lat="44.581" lon="4.32598">
        <ele>368</ele>
        <time>2016-05-15T11:06:54.000Z</time>
      </trkpt>
      <trkpt lat="44.58098" lon="4.32599">
        <ele>368</ele>
        <time>2016-05-15T11:06:55.000Z</time>
      </trkpt>
      <trkpt lat="44.58097" lon="4.32599">
        <ele>367</ele>
        <time>2016-05-15T11:06:56.000Z</time>
      </trkpt>
      <trkpt lat="44.58095" lon="4.32598">
        <ele>367</ele>
        <time>2016-05-15T11:06:57.000Z</time>
      </trkpt>
      <trkpt lat="44.58093" lon="4.32599">
        <ele>367</ele>
        <time>2016-05-15T11:06:58.000Z</time>
      </trkpt>
      <trkpt lat="44.58091" lon="4.32598">
        <ele>367</ele>
        <time>2016-05-15T11:06:59.000Z</time>
      </trkpt>
      <trkpt lat="44.58089" lon="4.32598">
        <ele>366</ele>
        <time>2016-05-15T11:07:00.000Z</time>
      </trkpt>
      <trkpt lat="44.58087" lon="4.32598">
        <ele>366</ele>
        <time>2016-05-15T11:07:01.000Z</time>
      </trkpt>
      <trkpt lat="44.58084" lon="4.32597">
        <ele>366</ele>
        <time>2016-05-15T11:07:02.000Z</time>
      </trkpt>
      <trkpt lat="44.58082" lon="4.32598">
        <ele>366</ele>
        <time>2016-05-15T11:07:03.000Z</time>
      </trkpt>
      <trkpt lat="44.58079" lon="4.32598">
        <ele>366</ele>
        <time>2016-05-15T11:07:04.000Z</time>
      </trkpt>
      <trkpt lat="44.58076" lon="4.32598">
        <ele>366</ele>
        <time>2016-05-15T11:07:05.000Z</time>
      </trkpt>
      <trkpt lat="44.58074" lon="4.32599">
        <ele>367</ele>
        <time>2016-05-15T11:07:06.000Z</time>
      </trkpt>
      <trkpt lat="44.58071" lon="4.326">
        <ele>367</ele>
        <time>2016-05-15T11:07:07.000Z</time>
      </trkpt>
      <trkpt lat="44.58069" lon="4.32601">
        <ele>367</ele>
        <time>2016-05-15T11:07:08.000Z</time>
      </trkpt>
      <trkpt lat="44.58067" lon="4.32602">
        <ele>368</ele>
        <time>2016-05-15T11:07:09.000Z</time>
      </trkpt>
      <trkpt lat="44.58065" lon="4.32603">
        <ele>368</ele>
        <time>2016-05-15T11:07:10.000Z</time>
      </trkpt>
      <trkpt lat="44.58063" lon="4.32604">
        <ele>368</ele>
        <time>2016-05-15T11:07:11.000Z</time>
      </trkpt>
      <trkpt lat="44.5806" lon="4.32605">
        <ele>369</ele>
        <time>2016-05-15T11:07:12.000Z</time>
      </trkpt>
      <trkpt lat="44.58058" lon="4.32606">
        <ele>369</ele>
        <time>2016-05-15T11:07:13.000Z</time>
      </trkpt>
      <trkpt lat="44.58056" lon="4.32607">
        <ele>369</ele>
        <time>2016-05-15T11:07:14.000Z</time>
      </trkpt>
      <trkpt lat="44.58053" lon="4.32608">
        <ele>369</ele>
        <time>2016-05-15T11:07:15.000Z</time>
      </trkpt>
      <trkpt lat="44.58051" lon="4.3261">
        <ele>370</ele>
        <time>2016-05-15T11:07:16.000Z</time>
      </trkpt>
      <trkpt lat="44.58049" lon="4.32611">
        <ele>370</ele>
        <time>2016-05-15T11:07:17.000Z</time>
      </trkpt>
      <trkpt lat="44.58046" lon="4.32611">
        <ele>370</ele>
        <time>2016-05-15T11:07:18.000Z</time>
      </trkpt>
      <trkpt lat="44.58044" lon="4.32612">
        <ele>370</ele>
        <time>2016-05-15T11:07:19.000Z</time>
      </trkpt>
      <trkpt lat="44.58042" lon="4.32612">
        <ele>370</ele>
        <time>2016-05-15T11:07:20.000Z</time>
      </trkpt>
      <trkpt lat="44.5804" lon="4.32612">
        <ele>370</ele>
        <time>2016-05-15T11:07:21.000Z</time>
      </trkpt>
      <trkpt lat="44.58037" lon="4.32613">
        <ele>370</ele>
        <time>2016-05-15T11:07:22.000Z</time>
      </trkpt>
      <trkpt lat="44.58035" lon="4.32614">
        <ele>370</ele>
        <time>2016-05-15T11:07:23.000Z</time>
      </trkpt>
      <trkpt lat="44.58032" lon="4.32614">
        <ele>370</ele>
        <time>2016-05-15T11:07:24.000Z</time>
      </trkpt>
      <trkpt lat="44.58029" lon="4.32615">
        <ele>370</ele>
        <time>2016-05-15T11:07:25.000Z</time>
      </trkpt>
      <trkpt lat="44.58026" lon="4.32616">
        <ele>370</ele>
        <time>2016-05-15T11:07:26.000Z</time>
      </trkpt>
      <trkpt lat="44.58024" lon="4.32617">
        <ele>370</ele>
        <time>2016-05-15T11:07:27.000Z</time>
      </trkpt>
      <trkpt lat="44.58021" lon="4.32618">
        <ele>370</ele>
        <time>2016-05-15T11:07:28.000Z</time>
      </trkpt>
      <trkpt lat="44.58018" lon="4.32619">
        <ele>370</ele>
        <time>2016-05-15T11:07:29.000Z</time>
      </trkpt>
      <trkpt lat="44.58015" lon="4.3262">
        <ele>370</ele>
        <time>2016-05-15T11:07:30.000Z</time>
      </trkpt>
      <trkpt lat="44.58012" lon="4.3262">
        <ele>370</ele>
        <time>2016-05-15T11:07:31.000Z</time>
      </trkpt>
      <trkpt lat="44.58009" lon="4.32621">
        <ele>370</ele>
        <time>2016-05-15T11:07:32.000Z</time>
      </trkpt>
      <trkpt lat="44.58005" lon="4.32621">
        <ele>370</ele>
        <time>2016-05-15T11:07:33.000Z</time>
      </trkpt>
      <trkpt lat="44.58002" lon="4.32622">
        <ele>371</ele>
        <time>2016-05-15T11:07:34.000Z</time>
      </trkpt>
      <trkpt lat="44.57999" lon="4.32622">
        <ele>372</ele>
        <time>2016-05-15T11:07:35.000Z</time>
      </trkpt>
      <trkpt lat="44.57997" lon="4.32623">
        <ele>372</ele>
        <time>2016-05-15T11:07:36.000Z</time>
      </trkpt>
      <trkpt lat="44.57994" lon="4.32623">
        <ele>372</ele>
        <time>2016-05-15T11:07:37.000Z</time>
      </trkpt>
      <trkpt lat="44.57991" lon="4.32623">
        <ele>372</ele>
        <time>2016-05-15T11:07:38.000Z</time>
      </trkpt>
      <trkpt lat="44.57988" lon="4.32624">
        <ele>372</ele>
        <time>2016-05-15T11:07:39.000Z</time>
      </trkpt>
      <trkpt lat="44.57986" lon="4.32624">
        <ele>373</ele>
        <time>2016-05-15T11:07:40.000Z</time>
      </trkpt>
      <trkpt lat="44.57983" lon="4.32624">
        <ele>373</ele>
        <time>2016-05-15T11:07:41.000Z</time>
      </trkpt>
      <trkpt lat="44.5798" lon="4.32623">
        <ele>373</ele>
        <time>2016-05-15T11:07:42.000Z</time>
      </trkpt>
      <trkpt lat="44.57977" lon="4.32623">
        <ele>373</ele>
        <time>2016-05-15T11:07:43.000Z</time>
      </trkpt>
      <trkpt lat="44.57974" lon="4.32623">
        <ele>373</ele>
        <time>2016-05-15T11:07:44.000Z</time>
      </trkpt>
      <trkpt lat="44.57971" lon="4.32623">
        <ele>373</ele>
        <time>2016-05-15T11:07:45.000Z</time>
      </trkpt>
      <trkpt lat="44.57968" lon="4.32622">
        <ele>373</ele>
        <time>2016-05-15T11:07:46.000Z</time>
      </trkpt>
      <trkpt lat="44.57966" lon="4.32621">
        <ele>373</ele>
        <time>2016-05-15T11:07:47.000Z</time>
      </trkpt>
      <trkpt lat="44.57963" lon="4.32621">
        <ele>373</ele>
        <time>2016-05-15T11:07:48.000Z</time>
      </trkpt>
      <trkpt lat="44.5796" lon="4.3262">
        <ele>373</ele>
        <time>2016-05-15T11:07:49.000Z</time>
      </trkpt>
      <trkpt lat="44.57958" lon="4.32619">
        <ele>373</ele>
        <time>2016-05-15T11:07:50.000Z</time>
      </trkpt>
      <trkpt lat="44.57955" lon="4.32619">
        <ele>373</ele>
        <time>2016-05-15T11:07:51.000Z</time>
      </trkpt>
      <trkpt lat="44.57953" lon="4.32618">
        <ele>373</ele>
        <time>2016-05-15T11:07:52.000Z</time>
      </trkpt>
      <trkpt lat="44.5795" lon="4.32617">
        <ele>373</ele>
        <time>2016-05-15T11:07:53.000Z</time>
      </trkpt>
      <trkpt lat="44.57947" lon="4.32617">
        <ele>373</ele>
        <time>2016-05-15T11:07:54.000Z</time>
      </trkpt>
      <trkpt lat="44.57945" lon="4.32616">
        <ele>373</ele>
        <time>2016-05-15T11:07:55.000Z</time>
      </trkpt>
      <trkpt lat="44.57942" lon="4.32615">
        <ele>373</ele>
        <time>2016-05-15T11:07:56.000Z</time>
      </trkpt>
      <trkpt lat="44.5794" lon="4.32614">
        <ele>373</ele>
        <time>2016-05-15T11:07:57.000Z</time>
      </trkpt>
      <trkpt lat="44.57937" lon="4.32613">
        <ele>373</ele>
        <time>2016-05-15T11:07:58.000Z</time>
      </trkpt>
      <trkpt lat="44.57935" lon="4.32611">
        <ele>373</ele>
        <time>2016-05-15T11:07:59.000Z</time>
      </trkpt>
      <trkpt lat="44.57932" lon="4.3261">
        <ele>373</ele>
        <time>2016-05-15T11:08:00.000Z</time>
      </trkpt>
      <trkpt lat="44.5793" lon="4.32608">
        <ele>373</ele>
        <time>2016-05-15T11:08:01.000Z</time>
      </trkpt>
      <trkpt lat="44.57927" lon="4.32607">
        <ele>373</ele>
        <time>2016-05-15T11:08:02.000Z</time>
      </trkpt>
      <trkpt lat="44.57925" lon="4.32605">
        <ele>373</ele>
        <time>2016-05-15T11:08:03.000Z</time>
      </trkpt>
      <trkpt lat="44.57922" lon="4.32604">
        <ele>372</ele>
        <time>2016-05-15T11:08:04.000Z</time>
      </trkpt>
      <trkpt lat="44.5792" lon="4.32603">
        <ele>372</ele>
        <time>2016-05-15T11:08:05.000Z</time>
      </trkpt>
      <trkpt lat="44.57918" lon="4.32601">
        <ele>372</ele>
        <time>2016-05-15T11:08:06.000Z</time>
      </trkpt>
      <trkpt lat="44.57915" lon="4.326">
        <ele>372</ele>
        <time>2016-05-15T11:08:07.000Z</time>
      </trkpt>
      <trkpt lat="44.57913" lon="4.32599">
        <ele>371</ele>
        <time>2016-05-15T11:08:08.000Z</time>
      </trkpt>
      <trkpt lat="44.5791" lon="4.32598">
        <ele>371</ele>
        <time>2016-05-15T11:08:09.000Z</time>
      </trkpt>
      <trkpt lat="44.57908" lon="4.32596">
        <ele>371</ele>
        <time>2016-05-15T11:08:10.000Z</time>
      </trkpt>
      <trkpt lat="44.57906" lon="4.32595">
        <ele>371</ele>
        <time>2016-05-15T11:08:11.000Z</time>
      </trkpt>
      <trkpt lat="44.57903" lon="4.32594">
        <ele>371</ele>
        <time>2016-05-15T11:08:12.000Z</time>
      </trkpt>
      <trkpt lat="44.57901" lon="4.32592">
        <ele>371</ele>
        <time>2016-05-15T11:08:13.000Z</time>
      </trkpt>
      <trkpt lat="44.57898" lon="4.32591">
        <ele>371</ele>
        <time>2016-05-15T11:08:14.000Z</time>
      </trkpt>
      <trkpt lat="44.57896" lon="4.32589">
        <ele>371</ele>
        <time>2016-05-15T11:08:15.000Z</time>
      </trkpt>
      <trkpt lat="44.57893" lon="4.32587">
        <ele>371</ele>
        <time>2016-05-15T11:08:16.000Z</time>
      </trkpt>
      <trkpt lat="44.57891" lon="4.32586">
        <ele>371</ele>
        <time>2016-05-15T11:08:17.000Z</time>
      </trkpt>
      <trkpt lat="44.57888" lon="4.32584">
        <ele>371</ele>
        <time>2016-05-15T11:08:18.000Z</time>
      </trkpt>
      <trkpt lat="44.57886" lon="4.32583">
        <ele>364</ele>
        <time>2016-05-15T11:08:19.000Z</time>
      </trkpt>
      <trkpt lat="44.57883" lon="4.32582">
        <ele>363</ele>
        <time>2016-05-15T11:08:20.000Z</time>
      </trkpt>
      <trkpt lat="44.57881" lon="4.32581">
        <ele>363</ele>
        <time>2016-05-15T11:08:21.000Z</time>
      </trkpt>
      <trkpt lat="44.57879" lon="4.3258">
        <ele>363</ele>
        <time>2016-05-15T11:08:22.000Z</time>
      </trkpt>
      <trkpt lat="44.57876" lon="4.32579">
        <ele>363</ele>
        <time>2016-05-15T11:08:23.000Z</time>
      </trkpt>
      <trkpt lat="44.57874" lon="4.32578">
        <ele>363</ele>
        <time>2016-05-15T11:08:24.000Z</time>
      </trkpt>
      <trkpt lat="44.57871" lon="4.32578">
        <ele>362</ele>
        <time>2016-05-15T11:08:25.000Z</time>
      </trkpt>
      <trkpt lat="44.57869" lon="4.32578">
        <ele>362</ele>
        <time>2016-05-15T11:08:26.000Z</time>
      </trkpt>
      <trkpt lat="44.57867" lon="4.3258">
        <ele>362</ele>
        <time>2016-05-15T11:08:27.000Z</time>
      </trkpt>
      <trkpt lat="44.57865" lon="4.32581">
        <ele>362</ele>
        <time>2016-05-15T11:08:28.000Z</time>
      </trkpt>
      <trkpt lat="44.57863" lon="4.32583">
        <ele>362</ele>
        <time>2016-05-15T11:08:29.000Z</time>
      </trkpt>
      <trkpt lat="44.57862" lon="4.32586">
        <ele>369</ele>
        <time>2016-05-15T11:08:30.000Z</time>
      </trkpt>
      <trkpt lat="44.57862" lon="4.32589">
        <ele>369</ele>
        <time>2016-05-15T11:08:31.000Z</time>
      </trkpt>
      <trkpt lat="44.57862" lon="4.32592">
        <ele>369</ele>
        <time>2016-05-15T11:08:32.000Z</time>
      </trkpt>
      <trkpt lat="44.57863" lon="4.32595">
        <ele>369</ele>
        <time>2016-05-15T11:08:33.000Z</time>
      </trkpt>
      <trkpt lat="44.57863" lon="4.32597">
        <ele>370</ele>
        <time>2016-05-15T11:08:34.000Z</time>
      </trkpt>
      <trkpt lat="44.57865" lon="4.326">
        <ele>370</ele>
        <time>2016-05-15T11:08:35.000Z</time>
      </trkpt>
      <trkpt lat="44.57866" lon="4.32602">
        <ele>370</ele>
        <time>2016-05-15T11:08:36.000Z</time>
      </trkpt>
      <trkpt lat="44.57868" lon="4.32604">
        <ele>370</ele>
        <time>2016-05-15T11:08:37.000Z</time>
      </trkpt>
      <trkpt lat="44.57871" lon="4.32606">
        <ele>371</ele>
        <time>2016-05-15T11:08:38.000Z</time>
      </trkpt>
      <trkpt lat="44.57873" lon="4.32607">
        <ele>371</ele>
        <time>2016-05-15T11:08:39.000Z</time>
      </trkpt>
      <trkpt lat="44.57875" lon="4.32609">
        <ele>371</ele>
        <time>2016-05-15T11:08:40.000Z</time>
      </trkpt>
      <trkpt lat="44.57877" lon="4.3261">
        <ele>371</ele>
        <time>2016-05-15T11:08:41.000Z</time>
      </trkpt>
      <trkpt lat="44.57879" lon="4.32612">
        <ele>372</ele>
        <time>2016-05-15T11:08:42.000Z</time>
      </trkpt>
      <trkpt lat="44.57881" lon="4.32614">
        <ele>372</ele>
        <time>2016-05-15T11:08:43.000Z</time>
      </trkpt>
      <trkpt lat="44.57883" lon="4.32616">
        <ele>372</ele>
        <time>2016-05-15T11:08:44.000Z</time>
      </trkpt>
      <trkpt lat="44.57885" lon="4.32617">
        <ele>372</ele>
        <time>2016-05-15T11:08:45.000Z</time>
      </trkpt>
      <trkpt lat="44.57887" lon="4.32618">
        <ele>372</ele>
        <time>2016-05-15T11:08:46.000Z</time>
      </trkpt>
      <trkpt lat="44.5789" lon="4.3262">
        <ele>373</ele>
        <time>2016-05-15T11:08:47.000Z</time>
      </trkpt>
      <trkpt lat="44.57892" lon="4.32621">
        <ele>373</ele>
        <time>2016-05-15T11:08:48.000Z</time>
      </trkpt>
      <trkpt lat="44.57894" lon="4.32622">
        <ele>373</ele>
        <time>2016-05-15T11:08:49.000Z</time>
      </trkpt>
      <trkpt lat="44.57896" lon="4.32624">
        <ele>373</ele>
        <time>2016-05-15T11:08:50.000Z</time>
      </trkpt>
      <trkpt lat="44.57898" lon="4.32625">
        <ele>373</ele>
        <time>2016-05-15T11:08:51.000Z</time>
      </trkpt>
      <trkpt lat="44.579" lon="4.32627">
        <ele>374</ele>
        <time>2016-05-15T11:08:52.000Z</time>
      </trkpt>
      <trkpt lat="44.57902" lon="4.32629">
        <ele>374</ele>
        <time>2016-05-15T11:08:53.000Z</time>
      </trkpt>
      <trkpt lat="44.57904" lon="4.32631">
        <ele>374</ele>
        <time>2016-05-15T11:08:54.000Z</time>
      </trkpt>
      <trkpt lat="44.57906" lon="4.32633">
        <ele>375</ele>
        <time>2016-05-15T11:08:55.000Z</time>
      </trkpt>
      <trkpt lat="44.57908" lon="4.32635">
        <ele>375</ele>
        <time>2016-05-15T11:08:56.000Z</time>
      </trkpt>
      <trkpt lat="44.5791" lon="4.32636">
        <ele>375</ele>
        <time>2016-05-15T11:08:57.000Z</time>
      </trkpt>
      <trkpt lat="44.57911" lon="4.32638">
        <ele>376</ele>
        <time>2016-05-15T11:08:58.000Z</time>
      </trkpt>
      <trkpt lat="44.57913" lon="4.3264">
        <ele>376</ele>
        <time>2016-05-15T11:08:59.000Z</time>
      </trkpt>
      <trkpt lat="44.57915" lon="4.32642">
        <ele>377</ele>
        <time>2016-05-15T11:09:00.000Z</time>
      </trkpt>
      <trkpt lat="44.57917" lon="4.32644">
        <ele>377</ele>
        <time>2016-05-15T11:09:01.000Z</time>
      </trkpt>
      <trkpt lat="44.57918" lon="4.32646">
        <ele>378</ele>
        <time>2016-05-15T11:09:02.000Z</time>
      </trkpt>
      <trkpt lat="44.5792" lon="4.32648">
        <ele>379</ele>
        <time>2016-05-15T11:09:03.000Z</time>
      </trkpt>
      <trkpt lat="44.57921" lon="4.3265">
        <ele>379</ele>
        <time>2016-05-15T11:09:04.000Z</time>
      </trkpt>
      <trkpt lat="44.57923" lon="4.32652">
        <ele>379</ele>
        <time>2016-05-15T11:09:05.000Z</time>
      </trkpt>
      <trkpt lat="44.57925" lon="4.32654">
        <ele>380</ele>
        <time>2016-05-15T11:09:06.000Z</time>
      </trkpt>
      <trkpt lat="44.57927" lon="4.32656">
        <ele>380</ele>
        <time>2016-05-15T11:09:07.000Z</time>
      </trkpt>
      <trkpt lat="44.57928" lon="4.32658">
        <ele>380</ele>
        <time>2016-05-15T11:09:08.000Z</time>
      </trkpt>
      <trkpt lat="44.5793" lon="4.3266">
        <ele>380</ele>
        <time>2016-05-15T11:09:09.000Z</time>
      </trkpt>
      <trkpt lat="44.57931" lon="4.32662">
        <ele>380</ele>
        <time>2016-05-15T11:09:10.000Z</time>
      </trkpt>
      <trkpt lat="44.57932" lon="4.32664">
        <ele>380</ele>
        <time>2016-05-15T11:09:11.000Z</time>
      </trkpt>
      <trkpt lat="44.57933" lon="4.32666">
        <ele>380</ele>
        <time>2016-05-15T11:09:12.000Z</time>
      </trkpt>
      <trkpt lat="44.57933" lon="4.32669">
        <ele>387</ele>
        <time>2016-05-15T11:09:13.000Z</time>
      </trkpt>
      <trkpt lat="44.57933" lon="4.32671">
        <ele>387</ele>
        <time>2016-05-15T11:09:14.000Z</time>
      </trkpt>
      <trkpt lat="44.57931" lon="4.32672">
        <ele>387</ele>
        <time>2016-05-15T11:09:15.000Z</time>
      </trkpt>
      <trkpt lat="44.5793" lon="4.32673">
        <ele>387</ele>
        <time>2016-05-15T11:09:16.000Z</time>
      </trkpt>
      <trkpt lat="44.57928" lon="4.32674">
        <ele>386</ele>
        <time>2016-05-15T11:09:17.000Z</time>
      </trkpt>
      <trkpt lat="44.57926" lon="4.32673">
        <ele>386</ele>
        <time>2016-05-15T11:09:18.000Z</time>
      </trkpt>
      <trkpt lat="44.57924" lon="4.32672">
        <ele>386</ele>
        <time>2016-05-15T11:09:19.000Z</time>
      </trkpt>
      <trkpt lat="44.57923" lon="4.32671">
        <ele>385</ele>
        <time>2016-05-15T11:09:20.000Z</time>
      </trkpt>
      <trkpt lat="44.57921" lon="4.32669">
        <ele>385</ele>
        <time>2016-05-15T11:09:21.000Z</time>
      </trkpt>
      <trkpt lat="44.57919" lon="4.32667">
        <ele>385</ele>
        <time>2016-05-15T11:09:22.000Z</time>
      </trkpt>
      <trkpt lat="44.57917" lon="4.32666">
        <ele>384</ele>
        <time>2016-05-15T11:09:23.000Z</time>
      </trkpt>
      <trkpt lat="44.57916" lon="4.32666">
        <ele>383</ele>
        <time>2016-05-15T11:09:24.000Z</time>
      </trkpt>
      <trkpt lat="44.57915" lon="4.32665">
        <ele>383</ele>
        <time>2016-05-15T11:09:25.000Z</time>
      </trkpt>
      <trkpt lat="44.57913" lon="4.32665">
        <ele>382</ele>
        <time>2016-05-15T11:09:26.000Z</time>
      </trkpt>
      <trkpt lat="44.57912" lon="4.32665">
        <ele>382</ele>
        <time>2016-05-15T11:09:27.000Z</time>
      </trkpt>
      <trkpt lat="44.57911" lon="4.32665">
        <ele>381</ele>
        <time>2016-05-15T11:09:28.000Z</time>
      </trkpt>
      <trkpt lat="44.57909" lon="4.32665">
        <ele>381</ele>
        <time>2016-05-15T11:09:29.000Z</time>
      </trkpt>
      <trkpt lat="44.57908" lon="4.32666">
        <ele>380</ele>
        <time>2016-05-15T11:09:30.000Z</time>
      </trkpt>
      <trkpt lat="44.57906" lon="4.32667">
        <ele>380</ele>
        <time>2016-05-15T11:09:31.000Z</time>
      </trkpt>
      <trkpt lat="44.57905" lon="4.32668">
        <ele>383</ele>
        <time>2016-05-15T11:09:32.000Z</time>
      </trkpt>
      <trkpt lat="44.57905" lon="4.32669">
        <ele>383</ele>
        <time>2016-05-15T11:09:33.000Z</time>
      </trkpt>
      <trkpt lat="44.57904" lon="4.32671">
        <ele>383</ele>
        <time>2016-05-15T11:09:34.000Z</time>
      </trkpt>
      <trkpt lat="44.57904" lon="4.32672">
        <ele>383</ele>
        <time>2016-05-15T11:09:35.000Z</time>
      </trkpt>
      <trkpt lat="44.57904" lon="4.32673">
        <ele>383</ele>
        <time>2016-05-15T11:09:36.000Z</time>
      </trkpt>
      <trkpt lat="44.57904" lon="4.32673">
        <ele>383</ele>
        <time>2016-05-15T11:09:37.000Z</time>
      </trkpt>
      <trkpt lat="44.57904" lon="4.32673">
        <ele>383</ele>
        <time>2016-05-15T11:09:38.000Z</time>
      </trkpt>
      <trkpt lat="44.57904" lon="4.32674">
        <ele>383</ele>
        <time>2016-05-15T11:09:39.000Z</time>
      </trkpt>
      <trkpt lat="44.57904" lon="4.32674">
        <ele>383</ele>
        <time>2016-05-15T11:09:40.000Z</time>
      </trkpt>
      <trkpt lat="44.57905" lon="4.32675">
        <ele>383</ele>
        <time>2016-05-15T11:09:41.000Z</time>
      </trkpt>
      <trkpt lat="44.57905" lon="4.32676">
        <ele>383</ele>
        <time>2016-05-15T11:09:42.000Z</time>
      </trkpt>
      <trkpt lat="44.57905" lon="4.32677">
        <ele>383</ele>
        <time>2016-05-15T11:09:43.000Z</time>
      </trkpt>
      <trkpt lat="44.57905" lon="4.32677">
        <ele>383</ele>
        <time>2016-05-15T11:09:44.000Z</time>
      </trkpt>
      <trkpt lat="44.57906" lon="4.32678">
        <ele>383</ele>
        <time>2016-05-15T11:09:45.000Z</time>
      </trkpt>
      <trkpt lat="44.57906" lon="4.32679">
        <ele>383</ele>
        <time>2016-05-15T11:09:46.000Z</time>
      </trkpt>
      <trkpt lat="44.57907" lon="4.32679">
        <ele>383</ele>
        <time>2016-05-15T11:09:47.000Z</time>
      </trkpt>
      <trkpt lat="44.57907" lon="4.32679">
        <ele>383</ele>
        <time>2016-05-15T11:09:48.000Z</time>
      </trkpt>
      <trkpt lat="44.57907" lon="4.32679">
        <ele>383</ele>
        <time>2016-05-15T11:09:49.000Z</time>
      </trkpt>
      <trkpt lat="44.57907" lon="4.32679">
        <ele>383</ele>
        <time>2016-05-15T11:09:50.000Z</time>
      </trkpt>
      <trkpt lat="44.57907" lon="4.32679">
        <ele>383</ele>
        <time>2016-05-15T11:09:51.000Z</time>
      </trkpt>
      <trkpt lat="44.57907" lon="4.32679">
        <ele>383</ele>
        <time>2016-05-15T11:09:52.000Z</time>
      </trkpt>
      <trkpt lat="44.57907" lon="4.32679">
        <ele>383</ele>
        <time>2016-05-15T11:09:53.000Z</time>
      </trkpt>
      <trkpt lat="44.57907" lon="4.32679">
        <ele>383</ele>
        <time>2016-05-15T11:09:54.000Z</time>
      </trkpt>
      <trkpt lat="44.57907" lon="4.32679">
        <ele>383</ele>
        <time>2016-05-15T11:09:55.000Z</time>
      </trkpt>
      <trkpt lat="44.57907" lon="4.32679">
        <ele>383</ele>
        <time>2016-05-15T11:09:56.000Z</time>
      </trkpt>
      <trkpt lat="44.57907" lon="4.32679">
        <ele>383</ele>
        <time>2016-05-15T11:09:57.000Z</time>
      </trkpt>
      <trkpt lat="44.57907" lon="4.32679">
        <ele>383</ele>
        <time>2016-05-15T11:09:58.000Z</time>
      </trkpt>
      <trkpt lat="44.57907" lon="4.32679">
        <ele>383</ele>
        <time>2016-05-15T11:09:59.000Z</time>
      </trkpt>
      <trkpt lat="44.57907" lon="4.32679">
        <ele>383</ele>
        <time>2016-05-15T11:10:00.000Z</time>
      </trkpt>
      <trkpt lat="44.57907" lon="4.32679">
        <ele>383</ele>
        <time>2016-05-15T11:10:01.000Z</time>
      </trkpt>
      <trkpt lat="44.57907" lon="4.32679">
        <ele>383</ele>
        <time>2016-05-15T11:10:02.000Z</time>
      </trkpt>
      <trkpt lat="44.57907" lon="4.32679">
        <ele>383</ele>
        <time>2016-05-15T11:10:03.000Z</time>
      </trkpt>
      <trkpt lat="44.57907" lon="4.32679">
        <ele>383</ele>
        <time>2016-05-15T11:10:04.000Z</time>
      </trkpt>
      <trkpt lat="44.57907" lon="4.32679">
        <ele>383</ele>
        <time>2016-05-15T11:10:05.000Z</time>
      </trkpt>
      <trkpt lat="44.57907" lon="4.32679">
        <ele>383</ele>
        <time>2016-05-15T11:10:06.000Z</time>
      </trkpt>
      <trkpt lat="44.57907" lon="4.32679">
        <ele>383</ele>
        <time>2016-05-15T11:10:07.000Z</time>
      </trkpt>
      <trkpt lat="44.57907" lon="4.3268">
        <ele>383</ele>
        <time>2016-05-15T11:10:08.000Z</time>
      </trkpt>
      <trkpt lat="44.57907" lon="4.3268">
        <ele>383</ele>
        <time>2016-05-15T11:10:09.000Z</time>
      </trkpt>
      <trkpt lat="44.57907" lon="4.3268">
        <ele>383</ele>
        <time>2016-05-15T11:10:10.000Z</time>
      </trkpt>
      <trkpt lat="44.57907" lon="4.3268">
        <ele>383</ele>
        <time>2016-05-15T11:10:11.000Z</time>
      </trkpt>
      <trkpt lat="44.57907" lon="4.3268">
        <ele>383</ele>
        <time>2016-05-15T11:10:12.000Z</time>
      </trkpt>
      <trkpt lat="44.57907" lon="4.3268">
        <ele>383</ele>
        <time>2016-05-15T11:10:13.000Z</time>
      </trkpt>
      <trkpt lat="44.57907" lon="4.3268">
        <ele>383</ele>
        <time>2016-05-15T11:10:14.000Z</time>
      </trkpt>
      <trkpt lat="44.57907" lon="4.3268">
        <ele>383</ele>
        <time>2016-05-15T11:10:15.000Z</time>
      </trkpt>
      <trkpt lat="44.57907" lon="4.32679">
        <ele>383</ele>
        <time>2016-05-15T11:10:16.000Z</time>
      </trkpt>
      <trkpt lat="44.57907" lon="4.32679">
        <ele>383</ele>
        <time>2016-05-15T11:10:17.000Z</time>
      </trkpt>
      <trkpt lat="44.57907" lon="4.32679">
        <ele>383</ele>
        <time>2016-05-15T11:10:18.000Z</time>
      </trkpt>
      <trkpt lat="44.57907" lon="4.32679">
        <ele>383</ele>
        <time>2016-05-15T11:10:19.000Z</time>
      </trkpt>
      <trkpt lat="44.57907" lon="4.32679">
        <ele>383</ele>
        <time>2016-05-15T11:10:20.000Z</time>
      </trkpt>
      <trkpt lat="44.57907" lon="4.32679">
        <ele>383</ele>
        <time>2016-05-15T11:10:21.000Z</time>
      </trkpt>
      <trkpt lat="44.57907" lon="4.32679">
        <ele>383</ele>
        <time>2016-05-15T11:10:22.000Z</time>
      </trkpt>
      <trkpt lat="44.57907" lon="4.32679">
        <ele>383</ele>
        <time>2016-05-15T11:10:23.000Z</time>
      </trkpt>
      <trkpt lat="44.57907" lon="4.32679">
        <ele>383</ele>
        <time>2016-05-15T11:10:24.000Z</time>
      </trkpt>
      <trkpt lat="44.57907" lon="4.32679">
        <ele>383</ele>
        <time>2016-05-15T11:10:25.000Z</time>
      </trkpt>
      <trkpt lat="44.57906" lon="4.32679">
        <ele>383</ele>
        <time>2016-05-15T11:10:26.000Z</time>
      </trkpt>
      <trkpt lat="44.57906" lon="4.32679">
        <ele>383</ele>
        <time>2016-05-15T11:10:27.000Z</time>
      </trkpt>
      <trkpt lat="44.57906" lon="4.32679">
        <ele>383</ele>
        <time>2016-05-15T11:10:28.000Z</time>
      </trkpt>
      <trkpt lat="44.57906" lon="4.32679">
        <ele>383</ele>
        <time>2016-05-15T11:10:29.000Z</time>
      </trkpt>
      <trkpt lat="44.57906" lon="4.32679">
        <ele>383</ele>
        <time>2016-05-15T11:10:30.000Z</time>
      </trkpt>
      <trkpt lat="44.57906" lon="4.32679">
        <ele>383</ele>
        <time>2016-05-15T11:10:31.000Z</time>
      </trkpt>
      <trkpt lat="44.57906" lon="4.32679">
        <ele>383</ele>
        <time>2016-05-15T11:10:32.000Z</time>
      </trkpt>
      <trkpt lat="44.57906" lon="4.32679">
        <ele>383</ele>
        <time>2016-05-15T11:10:33.000Z</time>
      </trkpt>
      <trkpt lat="44.57906" lon="4.32678">
        <ele>383</ele>
        <time>2016-05-15T11:10:34.000Z</time>
      </trkpt>
      <trkpt lat="44.57906" lon="4.32678">
        <ele>383</ele>
        <time>2016-05-15T11:10:35.000Z</time>
      </trkpt>
      <trkpt lat="44.57906" lon="4.32678">
        <ele>383</ele>
        <time>2016-05-15T11:10:36.000Z</time>
      </trkpt>
      <trkpt lat="44.57906" lon="4.32678">
        <ele>383</ele>
        <time>2016-05-15T11:10:37.000Z</time>
      </trkpt>
      <trkpt lat="44.57906" lon="4.32678">
        <ele>383</ele>
        <time>2016-05-15T11:10:38.000Z</time>
      </trkpt>
      <trkpt lat="44.57906" lon="4.32678">
        <ele>383</ele>
        <time>2016-05-15T11:10:39.000Z</time>
      </trkpt>
      <trkpt lat="44.57906" lon="4.32678">
        <ele>383</ele>
        <time>2016-05-15T11:10:40.000Z</time>
      </trkpt>
      <trkpt lat="44.57906" lon="4.32678">
        <ele>383</ele>
        <time>2016-05-15T11:10:41.000Z</time>
      </trkpt>
      <trkpt lat="44.57906" lon="4.32678">
        <ele>383</ele>
        <time>2016-05-15T11:10:42.000Z</time>
      </trkpt>
      <trkpt lat="44.57906" lon="4.32678">
        <ele>383</ele>
        <time>2016-05-15T11:10:43.000Z</time>
      </trkpt>
      <trkpt lat="44.57906" lon="4.32678">
        <ele>383</ele>
        <time>2016-05-15T11:10:44.000Z</time>
      </trkpt>
      <trkpt lat="44.57906" lon="4.32678">
        <ele>383</ele>
        <time>2016-05-15T11:10:45.000Z</time>
      </trkpt>
      <trkpt lat="44.57906" lon="4.32678">
        <ele>383</ele>
        <time>2016-05-15T11:10:46.000Z</time>
      </trkpt>
      <trkpt lat="44.57906" lon="4.32678">
        <ele>383</ele>
        <time>2016-05-15T11:10:47.000Z</time>
      </trkpt>
      <trkpt lat="44.57906" lon="4.32678">
        <ele>383</ele>
        <time>2016-05-15T11:10:48.000Z</time>
      </trkpt>
      <trkpt lat="44.57906" lon="4.32678">
        <ele>383</ele>
        <time>2016-05-15T11:10:49.000Z</time>
      </trkpt>
      <trkpt lat="44.57906" lon="4.32678">
        <ele>383</ele>
        <time>2016-05-15T11:10:50.000Z</time>
      </trkpt>
      <trkpt lat="44.57906" lon="4.32678">
        <ele>383</ele>
        <time>2016-05-15T11:10:51.000Z</time>
      </trkpt>
      <trkpt lat="44.57906" lon="4.32678">
        <ele>383</ele>
        <time>2016-05-15T11:10:52.000Z</time>
      </trkpt>
      <trkpt lat="44.57906" lon="4.32678">
        <ele>383</ele>
        <time>2016-05-15T11:10:53.000Z</time>
      </trkpt>
      <trkpt lat="44.57906" lon="4.32677">
        <ele>383</ele>
        <time>2016-05-15T11:10:54.000Z</time>
      </trkpt>
      <trkpt lat="44.57906" lon="4.32677">
        <ele>383</ele>
        <time>2016-05-15T11:10:55.000Z</time>
      </trkpt>
      <trkpt lat="44.57906" lon="4.32677">
        <ele>383</ele>
        <time>2016-05-15T11:10:56.000Z</time>
      </trkpt>
      <trkpt lat="44.57906" lon="4.32677">
        <ele>383</ele>
        <time>2016-05-15T11:10:57.000Z</time>
      </trkpt>
      <trkpt lat="44.57906" lon="4.32677">
        <ele>383</ele>
        <time>2016-05-15T11:10:58.000Z</time>
      </trkpt>
      <trkpt lat="44.57906" lon="4.32677">
        <ele>383</ele>
        <time>2016-05-15T11:10:59.000Z</time>
      </trkpt>
      <trkpt lat="44.57906" lon="4.32677">
        <ele>383</ele>
        <time>2016-05-15T11:11:00.000Z</time>
      </trkpt>
      <trkpt lat="44.57906" lon="4.32677">
        <ele>383</ele>
        <time>2016-05-15T11:11:01.000Z</time>
      </trkpt>
      <trkpt lat="44.57906" lon="4.32677">
        <ele>383</ele>
        <time>2016-05-15T11:11:02.000Z</time>
      </trkpt>
      <trkpt lat="44.57906" lon="4.32677">
        <ele>383</ele>
        <time>2016-05-15T11:11:03.000Z</time>
      </trkpt>
      <trkpt lat="44.57906" lon="4.32677">
        <ele>383</ele>
        <time>2016-05-15T11:11:04.000Z</time>
      </trkpt>
      <trkpt lat="44.57906" lon="4.32677">
        <ele>383</ele>
        <time>2016-05-15T11:11:05.000Z</time>
      </trkpt>
      <trkpt lat="44.57906" lon="4.32677">
        <ele>383</ele>
        <time>2016-05-15T11:11:06.000Z</time>
      </trkpt>
      <trkpt lat="44.57906" lon="4.32677">
        <ele>383</ele>
        <time>2016-05-15T11:11:07.000Z</time>
      </trkpt>
      <trkpt lat="44.57906" lon="4.32677">
        <ele>383</ele>
        <time>2016-05-15T11:11:08.000Z</time>
      </trkpt>
      <trkpt lat="44.57906" lon="4.32677">
        <ele>383</ele>
        <time>2016-05-15T11:11:09.000Z</time>
      </trkpt>
      <trkpt lat="44.57906" lon="4.32677">
        <ele>383</ele>
        <time>2016-05-15T11:11:10.000Z</time>
      </trkpt>
      <trkpt lat="44.57906" lon="4.32677">
        <ele>383</ele>
        <time>2016-05-15T11:11:11.000Z</time>
      </trkpt>
      <trkpt lat="44.57906" lon="4.32677">
        <ele>383</ele>
        <time>2016-05-15T11:11:12.000Z</time>
      </trkpt>
      <trkpt lat="44.57906" lon="4.32677">
        <ele>383</ele>
        <time>2016-05-15T11:11:13.000Z</time>
      </trkpt>
      <trkpt lat="44.57906" lon="4.32677">
        <ele>383</ele>
        <time>2016-05-15T11:11:14.000Z</time>
      </trkpt>
      <trkpt lat="44.57906" lon="4.32677">
        <ele>383</ele>
        <time>2016-05-15T11:11:15.000Z</time>
      </trkpt>
      <trkpt lat="44.57906" lon="4.32677">
        <ele>383</ele>
        <time>2016-05-15T11:11:16.000Z</time>
      </trkpt>
      <trkpt lat="44.57906" lon="4.32677">
        <ele>383</ele>
        <time>2016-05-15T11:11:17.000Z</time>
      </trkpt>
      <trkpt lat="44.57906" lon="4.32677">
        <ele>383</ele>
        <time>2016-05-15T11:11:18.000Z</time>
      </trkpt>
      <trkpt lat="44.57906" lon="4.32677">
        <ele>383</ele>
        <time>2016-05-15T11:11:19.000Z</time>
      </trkpt>
      <trkpt lat="44.57906" lon="4.32677">
        <ele>383</ele>
        <time>2016-05-15T11:11:20.000Z</time>
      </trkpt>
      <trkpt lat="44.57906" lon="4.32677">
        <ele>383</ele>
        <time>2016-05-15T11:11:21.000Z</time>
      </trkpt>
      <trkpt lat="44.57906" lon="4.32677">
        <ele>383</ele>
        <time>2016-05-15T11:11:22.000Z</time>
      </trkpt>
      <trkpt lat="44.57906" lon="4.32677">
        <ele>383</ele>
        <time>2016-05-15T11:11:23.000Z</time>
      </trkpt>
      <trkpt lat="44.57906" lon="4.32677">
        <ele>383</ele>
        <time>2016-05-15T11:11:24.000Z</time>
      </trkpt>
      <trkpt lat="44.57906" lon="4.32677">
        <ele>383</ele>
        <time>2016-05-15T11:11:25.000Z</time>
      </trkpt>
      <trkpt lat="44.57906" lon="4.32677">
        <ele>383</ele>
        <time>2016-05-15T11:11:26.000Z</time>
      </trkpt>
      <trkpt lat="44.57906" lon="4.32677">
        <ele>383</ele>
        <time>2016-05-15T11:11:27.000Z</time>
      </trkpt>
      <trkpt lat="44.57906" lon="4.32677">
        <ele>383</ele>
        <time>2016-05-15T11:11:28.000Z</time>
      </trkpt>
      <trkpt lat="44.57906" lon="4.32677">
        <ele>383</ele>
        <time>2016-05-15T11:11:29.000Z</time>
      </trkpt>
      <trkpt lat="44.57906" lon="4.32677">
        <ele>383</ele>
        <time>2016-05-15T11:11:30.000Z</time>
      </trkpt>
      <trkpt lat="44.57906" lon="4.32677">
        <ele>383</ele>
        <time>2016-05-15T11:11:31.000Z</time>
      </trkpt>
      <trkpt lat="44.57906" lon="4.32677">
        <ele>383</ele>
        <time>2016-05-15T11:11:32.000Z</time>
      </trkpt>
      <trkpt lat="44.57906" lon="4.32677">
        <ele>383</ele>
        <time>2016-05-15T11:11:33.000Z</time>
      </trkpt>
      <trkpt lat="44.57906" lon="4.32677">
        <ele>383</ele>
        <time>2016-05-15T11:11:34.000Z</time>
      </trkpt>
      <trkpt lat="44.57906" lon="4.32677">
        <ele>383</ele>
        <time>2016-05-15T11:11:35.000Z</time>
      </trkpt>
      <trkpt lat="44.57906" lon="4.32677">
        <ele>383</ele>
        <time>2016-05-15T11:11:36.000Z</time>
      </trkpt>
      <trkpt lat="44.57906" lon="4.32677">
        <ele>383</ele>
        <time>2016-05-15T11:11:37.000Z</time>
      </trkpt>
      <trkpt lat="44.57906" lon="4.32677">
        <ele>383</ele>
        <time>2016-05-15T11:11:38.000Z</time>
      </trkpt>
      <trkpt lat="44.57906" lon="4.32677">
        <ele>383</ele>
        <time>2016-05-15T11:11:39.000Z</time>
      </trkpt>
      <trkpt lat="44.57906" lon="4.32677">
        <ele>383</ele>
        <time>2016-05-15T11:11:40.000Z</time>
      </trkpt>
      <trkpt lat="44.57906" lon="4.32677">
        <ele>383</ele>
        <time>2016-05-15T11:11:41.000Z</time>
      </trkpt>
      <trkpt lat="44.57906" lon="4.32677">
        <ele>383</ele>
        <time>2016-05-15T11:11:42.000Z</time>
      </trkpt>
      <trkpt lat="44.57906" lon="4.32677">
        <ele>383</ele>
        <time>2016-05-15T11:11:43.000Z</time>
      </trkpt>
      <trkpt lat="44.57906" lon="4.32677">
        <ele>383</ele>
        <time>2016-05-15T11:11:44.000Z</time>
      </trkpt>
      <trkpt lat="44.57906" lon="4.32677">
        <ele>383</ele>
        <time>2016-05-15T11:11:45.000Z</time>
      </trkpt>
      <trkpt lat="44.57906" lon="4.32677">
        <ele>383</ele>
        <time>2016-05-15T11:11:46.000Z</time>
      </trkpt>
      <trkpt lat="44.57906" lon="4.32677">
        <ele>383</ele>
        <time>2016-05-15T11:11:47.000Z</time>
      </trkpt>
      <trkpt lat="44.57906" lon="4.32677">
        <ele>383</ele>
        <time>2016-05-15T11:11:48.000Z</time>
      </trkpt>
      <trkpt lat="44.57906" lon="4.32677">
        <ele>383</ele>
        <time>2016-05-15T11:11:49.000Z</time>
      </trkpt>
      <trkpt lat="44.57906" lon="4.32677">
        <ele>383</ele>
        <time>2016-05-15T11:11:50.000Z</time>
      </trkpt>
      <trkpt lat="44.57906" lon="4.32678">
        <ele>383</ele>
        <time>2016-05-15T11:11:51.000Z</time>
      </trkpt>
      <trkpt lat="44.57906" lon="4.32678">
        <ele>383</ele>
        <time>2016-05-15T11:11:52.000Z</time>
      </trkpt>
      <trkpt lat="44.57906" lon="4.32678">
        <ele>383</ele>
        <time>2016-05-15T11:11:53.000Z</time>
      </trkpt>
      <trkpt lat="44.57906" lon="4.32678">
        <ele>383</ele>
        <time>2016-05-15T11:11:54.000Z</time>
      </trkpt>
      <trkpt lat="44.57906" lon="4.32678">
        <ele>383</ele>
        <time>2016-05-15T11:11:55.000Z</time>
      </trkpt>
      <trkpt lat="44.57906" lon="4.32678">
        <ele>383</ele>
        <time>2016-05-15T11:11:56.000Z</time>
      </trkpt>
      <trkpt lat="44.57906" lon="4.32678">
        <ele>383</ele>
        <time>2016-05-15T11:11:57.000Z</time>
      </trkpt>
      <trkpt lat="44.57906" lon="4.32678">
        <ele>383</ele>
        <time>2016-05-15T11:11:58.000Z</time>
      </trkpt>
      <trkpt lat="44.57906" lon="4.32678">
        <ele>383</ele>
        <time>2016-05-15T11:11:59.000Z</time>
      </trkpt>
      <trkpt lat="44.57906" lon="4.32678">
        <ele>383</ele>
        <time>2016-05-15T11:12:00.000Z</time>
      </trkpt>
      <trkpt lat="44.57906" lon="4.32678">
        <ele>383</ele>
        <time>2016-05-15T11:12:01.000Z</time>
      </trkpt>
      <trkpt lat="44.57906" lon="4.32678">
        <ele>383</ele>
        <time>2016-05-15T11:12:02.000Z</time>
      </trkpt>
      <trkpt lat="44.57906" lon="4.32678">
        <ele>383</ele>
        <time>2016-05-15T11:12:03.000Z</time>
      </trkpt>
      <trkpt lat="44.57906" lon="4.32678">
        <ele>383</ele>
        <time>2016-05-15T11:12:04.000Z</time>
      </trkpt>
      <trkpt lat="44.57907" lon="4.32678">
        <ele>383</ele>
        <time>2016-05-15T11:12:05.000Z</time>
      </trkpt>
      <trkpt lat="44.57907" lon="4.32678">
        <ele>383</ele>
        <time>2016-05-15T11:12:06.000Z</time>
      </trkpt>
      <trkpt lat="44.57907" lon="4.32678">
        <ele>383</ele>
        <time>2016-05-15T11:12:07.000Z</time>
      </trkpt>
      <trkpt lat="44.57907" lon="4.32678">
        <ele>383</ele>
        <time>2016-05-15T11:12:08.000Z</time>
      </trkpt>
      <trkpt lat="44.57907" lon="4.32678">
        <ele>383</ele>
        <time>2016-05-15T11:12:09.000Z</time>
      </trkpt>
      <trkpt lat="44.57907" lon="4.32678">
        <ele>383</ele>
        <time>2016-05-15T11:12:10.000Z</time>
      </trkpt>
      <trkpt lat="44.57907" lon="4.32678">
        <ele>383</ele>
        <time>2016-05-15T11:12:11.000Z</time>
      </trkpt>
      <trkpt lat="44.57907" lon="4.32678">
        <ele>383</ele>
        <time>2016-05-15T11:12:12.000Z</time>
      </trkpt>
      <trkpt lat="44.57907" lon="4.32679">
        <ele>383</ele>
        <time>2016-05-15T11:12:13.000Z</time>
      </trkpt>
      <trkpt lat="44.57907" lon="4.32679">
        <ele>383</ele>
        <time>2016-05-15T11:12:14.000Z</time>
      </trkpt>
      <trkpt lat="44.57907" lon="4.32679">
        <ele>383</ele>
        <time>2016-05-15T11:12:15.000Z</time>
      </trkpt>
      <trkpt lat="44.57907" lon="4.32679">
        <ele>383</ele>
        <time>2016-05-15T11:12:16.000Z</time>
      </trkpt>
      <trkpt lat="44.57907" lon="4.32679">
        <ele>383</ele>
        <time>2016-05-15T11:12:17.000Z</time>
      </trkpt>
      <trkpt lat="44.57907" lon="4.32679">
        <ele>383</ele>
        <time>2016-05-15T11:12:18.000Z</time>
      </trkpt>
      <trkpt lat="44.57907" lon="4.32679">
        <ele>383</ele>
        <time>2016-05-15T11:12:19.000Z</time>
      </trkpt>
      <trkpt lat="44.57907" lon="4.32679">
        <ele>383</ele>
        <time>2016-05-15T11:12:20.000Z</time>
      </trkpt>
      <trkpt lat="44.57907" lon="4.32679">
        <ele>383</ele>
        <time>2016-05-15T11:12:21.000Z</time>
      </trkpt>
      <trkpt lat="44.57907" lon="4.32679">
        <ele>383</ele>
        <time>2016-05-15T11:12:22.000Z</time>
      </trkpt>
      <trkpt lat="44.57907" lon="4.32679">
        <ele>383</ele>
        <time>2016-05-15T11:12:23.000Z</time>
      </trkpt>
      <trkpt lat="44.57907" lon="4.32679">
        <ele>383</ele>
        <time>2016-05-15T11:12:24.000Z</time>
      </trkpt>
      <trkpt lat="44.57907" lon="4.32679">
        <ele>383</ele>
        <time>2016-05-15T11:12:25.000Z</time>
      </trkpt>
      <trkpt lat="44.57907" lon="4.32679">
        <ele>383</ele>
        <time>2016-05-15T11:12:26.000Z</time>
      </trkpt>
      <trkpt lat="44.57907" lon="4.32679">
        <ele>383</ele>
        <time>2016-05-15T11:12:27.000Z</time>
      </trkpt>
      <trkpt lat="44.57907" lon="4.32679">
        <ele>383</ele>
        <time>2016-05-15T11:12:28.000Z</time>
      </trkpt>
      <trkpt lat="44.57907" lon="4.32679">
        <ele>383</ele>
        <time>2016-05-15T11:12:29.000Z</time>
      </trkpt>
      <trkpt lat="44.57907" lon="4.32679">
        <ele>383</ele>
        <time>2016-05-15T11:12:30.000Z</time>
      </trkpt>
      <trkpt lat="44.57907" lon="4.32679">
        <ele>383</ele>
        <time>2016-05-15T11:12:31.000Z</time>
      </trkpt>
      <trkpt lat="44.57907" lon="4.32679">
        <ele>383</ele>
        <time>2016-05-15T11:12:32.000Z</time>
      </trkpt>
      <trkpt lat="44.57907" lon="4.32679">
        <ele>383</ele>
        <time>2016-05-15T11:12:33.000Z</time>
      </trkpt>
      <trkpt lat="44.57907" lon="4.32679">
        <ele>383</ele>
        <time>2016-05-15T11:12:34.000Z</time>
      </trkpt>
      <trkpt lat="44.57907" lon="4.32679">
        <ele>383</ele>
        <time>2016-05-15T11:12:35.000Z</time>
      </trkpt>
      <trkpt lat="44.57907" lon="4.32679">
        <ele>383</ele>
        <time>2016-05-15T11:12:36.000Z</time>
      </trkpt>
      <trkpt lat="44.57907" lon="4.32679">
        <ele>383</ele>
        <time>2016-05-15T11:12:37.000Z</time>
      </trkpt>
      <trkpt lat="44.57907" lon="4.32679">
        <ele>383</ele>
        <time>2016-05-15T11:12:38.000Z</time>
      </trkpt>
      <trkpt lat="44.57907" lon="4.32679">
        <ele>383</ele>
        <time>2016-05-15T11:12:39.000Z</time>
      </trkpt>
      <trkpt lat="44.57907" lon="4.32679">
        <ele>383</ele>
        <time>2016-05-15T11:12:40.000Z</time>
      </trkpt>
      <trkpt lat="44.57907" lon="4.32679">
        <ele>383</ele>
        <time>2016-05-15T11:12:41.000Z</time>
      </trkpt>
      <trkpt lat="44.57907" lon="4.32679">
        <ele>383</ele>
        <time>2016-05-15T11:12:42.000Z</time>
      </trkpt>
      <trkpt lat="44.57907" lon="4.32679">
        <ele>383</ele>
        <time>2016-05-15T11:12:43.000Z</time>
      </trkpt>
      <trkpt lat="44.57907" lon="4.32679">
        <ele>383</ele>
        <time>2016-05-15T11:12:44.000Z</time>
      </trkpt>
      <trkpt lat="44.57907" lon="4.32679">
        <ele>383</ele>
        <time>2016-05-15T11:12:45.000Z</time>
      </trkpt>
      <trkpt lat="44.57907" lon="4.32679">
        <ele>383</ele>
        <time>2016-05-15T11:12:46.000Z</time>
      </trkpt>
      <trkpt lat="44.57907" lon="4.32679">
        <ele>383</ele>
        <time>2016-05-15T11:12:47.000Z</time>
      </trkpt>
      <trkpt lat="44.57907" lon="4.32679">
        <ele>383</ele>
        <time>2016-05-15T11:12:48.000Z</time>
      </trkpt>
      <trkpt lat="44.57907" lon="4.32679">
        <ele>383</ele>
        <time>2016-05-15T11:12:49.000Z</time>
      </trkpt>
      <trkpt lat="44.57907" lon="4.32679">
        <ele>383</ele>
        <time>2016-05-15T11:12:50.000Z</time>
      </trkpt>
      <trkpt lat="44.57907" lon="4.32679">
        <ele>383</ele>
        <time>2016-05-15T11:12:51.000Z</time>
      </trkpt>
      <trkpt lat="44.57907" lon="4.32679">
        <ele>383</ele>
        <time>2016-05-15T11:12:52.000Z</time>
      </trkpt>
      <trkpt lat="44.57907" lon="4.32679">
        <ele>383</ele>
        <time>2016-05-15T11:12:53.000Z</time>
      </trkpt>
      <trkpt lat="44.57907" lon="4.32679">
        <ele>383</ele>
        <time>2016-05-15T11:12:54.000Z</time>
      </trkpt>
      <trkpt lat="44.57907" lon="4.32679">
        <ele>383</ele>
        <time>2016-05-15T11:12:55.000Z</time>
      </trkpt>
      <trkpt lat="44.57907" lon="4.32679">
        <ele>383</ele>
        <time>2016-05-15T11:12:56.000Z</time>
      </trkpt>
      <trkpt lat="44.57907" lon="4.32679">
        <ele>383</ele>
        <time>2016-05-15T11:12:57.000Z</time>
      </trkpt>
      <trkpt lat="44.57907" lon="4.32679">
        <ele>383</ele>
        <time>2016-05-15T11:12:58.000Z</time>
      </trkpt>
      <trkpt lat="44.57907" lon="4.32679">
        <ele>383</ele>
        <time>2016-05-15T11:12:59.000Z</time>
      </trkpt>
      <trkpt lat="44.57907" lon="4.32679">
        <ele>383</ele>
        <time>2016-05-15T11:13:00.000Z</time>
      </trkpt>
      <trkpt lat="44.57907" lon="4.32679">
        <ele>383</ele>
        <time>2016-05-15T11:13:01.000Z</time>
      </trkpt>
      <trkpt lat="44.57907" lon="4.32679">
        <ele>383</ele>
        <time>2016-05-15T11:13:02.000Z</time>
      </trkpt>
      <trkpt lat="44.57907" lon="4.32679">
        <ele>383</ele>
        <time>2016-05-15T11:13:03.000Z</time>
      </trkpt>
      <trkpt lat="44.57907" lon="4.32679">
        <ele>383</ele>
        <time>2016-05-15T11:13:04.000Z</time>
      </trkpt>
      <trkpt lat="44.57907" lon="4.32679">
        <ele>383</ele>
        <time>2016-05-15T11:13:05.000Z</time>
      </trkpt>
      <trkpt lat="44.57907" lon="4.32679">
        <ele>383</ele>
        <time>2016-05-15T11:13:06.000Z</time>
      </trkpt>
      <trkpt lat="44.57907" lon="4.32679">
        <ele>383</ele>
        <time>2016-05-15T11:13:07.000Z</time>
      </trkpt>
      <trkpt lat="44.57907" lon="4.32679">
        <ele>383</ele>
        <time>2016-05-15T11:13:08.000Z</time>
      </trkpt>
      <trkpt lat="44.57907" lon="4.32679">
        <ele>383</ele>
        <time>2016-05-15T11:13:09.000Z</time>
      </trkpt>
      <trkpt lat="44.57907" lon="4.32679">
        <ele>383</ele>
        <time>2016-05-15T11:13:10.000Z</time>
      </trkpt>
      <trkpt lat="44.57907" lon="4.32679">
        <ele>383</ele>
        <time>2016-05-15T11:13:11.000Z</time>
      </trkpt>
      <trkpt lat="44.57907" lon="4.32679">
        <ele>383</ele>
        <time>2016-05-15T11:13:12.000Z</time>
      </trkpt>
      <trkpt lat="44.57907" lon="4.32679">
        <ele>383</ele>
        <time>2016-05-15T11:13:13.000Z</time>
      </trkpt>
      <trkpt lat="44.57907" lon="4.32679">
        <ele>383</ele>
        <time>2016-05-15T11:13:14.000Z</time>
      </trkpt>
      <trkpt lat="44.57907" lon="4.32678">
        <ele>383</ele>
        <time>2016-05-15T11:13:15.000Z</time>
      </trkpt>
      <trkpt lat="44.57907" lon="4.32678">
        <ele>383</ele>
        <time>2016-05-15T11:13:16.000Z</time>
      </trkpt>
      <trkpt lat="44.57907" lon="4.32678">
        <ele>383</ele>
        <time>2016-05-15T11:13:17.000Z</time>
      </trkpt>
      <trkpt lat="44.57907" lon="4.32678">
        <ele>383</ele>
        <time>2016-05-15T11:13:18.000Z</time>
      </trkpt>
      <trkpt lat="44.57907" lon="4.32678">
        <ele>383</ele>
        <time>2016-05-15T11:13:19.000Z</time>
      </trkpt>
      <trkpt lat="44.57907" lon="4.32678">
        <ele>383</ele>
        <time>2016-05-15T11:13:20.000Z</time>
      </trkpt>
      <trkpt lat="44.57907" lon="4.32678">
        <ele>383</ele>
        <time>2016-05-15T11:13:21.000Z</time>
      </trkpt>
      <trkpt lat="44.57907" lon="4.32678">
        <ele>383</ele>
        <time>2016-05-15T11:13:22.000Z</time>
      </trkpt>
      <trkpt lat="44.57907" lon="4.32678">
        <ele>383</ele>
        <time>2016-05-15T11:13:23.000Z</time>
      </trkpt>
      <trkpt lat="44.57907" lon="4.32678">
        <ele>383</ele>
        <time>2016-05-15T11:13:24.000Z</time>
      </trkpt>
      <trkpt lat="44.57907" lon="4.32678">
        <ele>383</ele>
        <time>2016-05-15T11:13:25.000Z</time>
      </trkpt>
      <trkpt lat="44.57907" lon="4.32678">
        <ele>383</ele>
        <time>2016-05-15T11:13:26.000Z</time>
      </trkpt>
      <trkpt lat="44.57907" lon="4.32678">
        <ele>383</ele>
        <time>2016-05-15T11:13:27.000Z</time>
      </trkpt>
      <trkpt lat="44.57907" lon="4.32678">
        <ele>383</ele>
        <time>2016-05-15T11:13:28.000Z</time>
      </trkpt>
      <trkpt lat="44.57907" lon="4.32678">
        <ele>383</ele>
        <time>2016-05-15T11:13:29.000Z</time>
      </trkpt>
      <trkpt lat="44.57907" lon="4.32678">
        <ele>383</ele>
        <time>2016-05-15T11:13:30.000Z</time>
      </trkpt>
      <trkpt lat="44.57907" lon="4.32678">
        <ele>383</ele>
        <time>2016-05-15T11:13:31.000Z</time>
      </trkpt>
      <trkpt lat="44.57907" lon="4.32678">
        <ele>383</ele>
        <time>2016-05-15T11:13:32.000Z</time>
      </trkpt>
      <trkpt lat="44.57907" lon="4.32678">
        <ele>383</ele>
        <time>2016-05-15T11:13:33.000Z</time>
      </trkpt>
      <trkpt lat="44.57907" lon="4.32678">
        <ele>383</ele>
        <time>2016-05-15T11:13:34.000Z</time>
      </trkpt>
      <trkpt lat="44.57907" lon="4.32678">
        <ele>383</ele>
        <time>2016-05-15T11:13:35.000Z</time>
      </trkpt>
      <trkpt lat="44.57907" lon="4.32678">
        <ele>383</ele>
        <time>2016-05-15T11:13:36.000Z</time>
      </trkpt>
      <trkpt lat="44.57907" lon="4.32678">
        <ele>383</ele>
        <time>2016-05-15T11:13:37.000Z</time>
      </trkpt>
      <trkpt lat="44.57907" lon="4.32678">
        <ele>383</ele>
        <time>2016-05-15T11:13:38.000Z</time>
      </trkpt>
      <trkpt lat="44.57907" lon="4.32678">
        <ele>383</ele>
        <time>2016-05-15T11:13:39.000Z</time>
      </trkpt>
      <trkpt lat="44.57906" lon="4.32678">
        <ele>383</ele>
        <time>2016-05-15T11:13:40.000Z</time>
      </trkpt>
      <trkpt lat="44.57906" lon="4.32678">
        <ele>383</ele>
        <time>2016-05-15T11:13:41.000Z</time>
      </trkpt>
      <trkpt lat="44.57906" lon="4.32678">
        <ele>383</ele>
        <time>2016-05-15T11:13:42.000Z</time>
      </trkpt>
      <trkpt lat="44.57906" lon="4.32678">
        <ele>383</ele>
        <time>2016-05-15T11:13:43.000Z</time>
      </trkpt>
      <trkpt lat="44.57906" lon="4.32678">
        <ele>383</ele>
        <time>2016-05-15T11:13:44.000Z</time>
      </trkpt>
      <trkpt lat="44.57906" lon="4.32678">
        <ele>383</ele>
        <time>2016-05-15T11:13:45.000Z</time>
      </trkpt>
      <trkpt lat="44.57906" lon="4.32678">
        <ele>383</ele>
        <time>2016-05-15T11:13:46.000Z</time>
      </trkpt>
      <trkpt lat="44.57906" lon="4.32678">
        <ele>383</ele>
        <time>2016-05-15T11:13:47.000Z</time>
      </trkpt>
      <trkpt lat="44.57906" lon="4.32678">
        <ele>383</ele>
        <time>2016-05-15T11:13:48.000Z</time>
      </trkpt>
      <trkpt lat="44.57906" lon="4.32678">
        <ele>383</ele>
        <time>2016-05-15T11:13:49.000Z</time>
      </trkpt>
      <trkpt lat="44.57906" lon="4.32678">
        <ele>383</ele>
        <time>2016-05-15T11:13:50.000Z</time>
      </trkpt>
      <trkpt lat="44.57906" lon="4.32678">
        <ele>383</ele>
        <time>2016-05-15T11:13:51.000Z</time>
      </trkpt>
      <trkpt lat="44.57906" lon="4.32678">
        <ele>383</ele>
        <time>2016-05-15T11:13:52.000Z</time>
      </trkpt>
      <trkpt lat="44.57906" lon="4.32678">
        <ele>383</ele>
        <time>2016-05-15T11:13:53.000Z</time>
      </trkpt>
      <trkpt lat="44.57906" lon="4.32678">
        <ele>383</ele>
        <time>2016-05-15T11:13:54.000Z</time>
      </trkpt>
      <trkpt lat="44.57906" lon="4.32678">
        <ele>383</ele>
        <time>2016-05-15T11:13:55.000Z</time>
      </trkpt>
      <trkpt lat="44.57906" lon="4.32678">
        <ele>383</ele>
        <time>2016-05-15T11:13:56.000Z</time>
      </trkpt>
      <trkpt lat="44.57906" lon="4.32678">
        <ele>383</ele>
        <time>2016-05-15T11:13:57.000Z</time>
      </trkpt>
      <trkpt lat="44.57906" lon="4.32678">
        <ele>383</ele>
        <time>2016-05-15T11:13:58.000Z</time>
      </trkpt>
      <trkpt lat="44.57906" lon="4.32678">
        <ele>383</ele>
        <time>2016-05-15T11:13:59.000Z</time>
      </trkpt>
      <trkpt lat="44.57906" lon="4.32678">
        <ele>383</ele>
        <time>2016-05-15T11:14:00.000Z</time>
      </trkpt>
      <trkpt lat="44.57906" lon="4.32678">
        <ele>383</ele>
        <time>2016-05-15T11:14:01.000Z</time>
      </trkpt>
      <trkpt lat="44.57906" lon="4.32678">
        <ele>383</ele>
        <time>2016-05-15T11:14:02.000Z</time>
      </trkpt>
      <trkpt lat="44.57906" lon="4.32678">
        <ele>383</ele>
        <time>2016-05-15T11:14:03.000Z</time>
      </trkpt>
      <trkpt lat="44.57906" lon="4.32678">
        <ele>383</ele>
        <time>2016-05-15T11:14:04.000Z</time>
      </trkpt>
      <trkpt lat="44.57906" lon="4.32678">
        <ele>383</ele>
        <time>2016-05-15T11:14:05.000Z</time>
      </trkpt>
      <trkpt lat="44.57906" lon="4.32678">
        <ele>383</ele>
        <time>2016-05-15T11:14:06.000Z</time>
      </trkpt>
      <trkpt lat="44.57906" lon="4.32678">
        <ele>383</ele>
        <time>2016-05-15T11:14:07.000Z</time>
      </trkpt>
      <trkpt lat="44.57906" lon="4.32678">
        <ele>383</ele>
        <time>2016-05-15T11:14:08.000Z</time>
      </trkpt>
      <trkpt lat="44.57906" lon="4.32678">
        <ele>383</ele>
        <time>2016-05-15T11:14:09.000Z</time>
      </trkpt>
      <trkpt lat="44.57906" lon="4.32678">
        <ele>383</ele>
        <time>2016-05-15T11:14:10.000Z</time>
      </trkpt>
      <trkpt lat="44.57906" lon="4.32678">
        <ele>383</ele>
        <time>2016-05-15T11:14:11.000Z</time>
      </trkpt>
      <trkpt lat="44.57906" lon="4.32678">
        <ele>383</ele>
        <time>2016-05-15T11:14:12.000Z</time>
      </trkpt>
      <trkpt lat="44.57906" lon="4.32678">
        <ele>383</ele>
        <time>2016-05-15T11:14:13.000Z</time>
      </trkpt>
      <trkpt lat="44.57907" lon="4.32678">
        <ele>383</ele>
        <time>2016-05-15T11:14:14.000Z</time>
      </trkpt>
      <trkpt lat="44.57907" lon="4.32678">
        <ele>383</ele>
        <time>2016-05-15T11:14:15.000Z</time>
      </trkpt>
      <trkpt lat="44.57907" lon="4.32678">
        <ele>383</ele>
        <time>2016-05-15T11:14:16.000Z</time>
      </trkpt>
      <trkpt lat="44.57907" lon="4.32678">
        <ele>383</ele>
        <time>2016-05-15T11:14:17.000Z</time>
      </trkpt>
      <trkpt lat="44.57907" lon="4.32678">
        <ele>383</ele>
        <time>2016-05-15T11:14:18.000Z</time>
      </trkpt>
      <trkpt lat="44.57907" lon="4.32678">
        <ele>383</ele>
        <time>2016-05-15T11:14:19.000Z</time>
      </trkpt>
      <trkpt lat="44.57907" lon="4.32678">
        <ele>383</ele>
        <time>2016-05-15T11:14:20.000Z</time>
      </trkpt>
      <trkpt lat="44.57907" lon="4.32678">
        <ele>383</ele>
        <time>2016-05-15T11:14:21.000Z</time>
      </trkpt>
      <trkpt lat="44.57907" lon="4.32678">
        <ele>383</ele>
        <time>2016-05-15T11:14:22.000Z</time>
      </trkpt>
      <trkpt lat="44.57907" lon="4.32678">
        <ele>383</ele>
        <time>2016-05-15T11:14:23.000Z</time>
      </trkpt>
      <trkpt lat="44.57907" lon="4.32678">
        <ele>383</ele>
        <time>2016-05-15T11:14:24.000Z</time>
      </trkpt>
      <trkpt lat="44.57907" lon="4.32678">
        <ele>383</ele>
        <time>2016-05-15T11:14:25.000Z</time>
      </trkpt>
      <trkpt lat="44.57907" lon="4.32678">
        <ele>383</ele>
        <time>2016-05-15T11:14:26.000Z</time>
      </trkpt>
      <trkpt lat="44.57907" lon="4.32678">
        <ele>383</ele>
        <time>2016-05-15T11:14:27.000Z</time>
      </trkpt>
      <trkpt lat="44.57907" lon="4.32678">
        <ele>383</ele>
        <time>2016-05-15T11:14:28.000Z</time>
      </trkpt>
      <trkpt lat="44.57907" lon="4.32678">
        <ele>383</ele>
        <time>2016-05-15T11:14:29.000Z</time>
      </trkpt>
      <trkpt lat="44.57907" lon="4.32678">
        <ele>383</ele>
        <time>2016-05-15T11:14:30.000Z</time>
      </trkpt>
      <trkpt lat="44.57907" lon="4.32678">
        <ele>383</ele>
        <time>2016-05-15T11:14:31.000Z</time>
      </trkpt>
      <trkpt lat="44.57907" lon="4.32678">
        <ele>383</ele>
        <time>2016-05-15T11:14:32.000Z</time>
      </trkpt>
      <trkpt lat="44.57907" lon="4.32678">
        <ele>383</ele>
        <time>2016-05-15T11:14:33.000Z</time>
      </trkpt>
      <trkpt lat="44.57907" lon="4.32678">
        <ele>383</ele>
        <time>2016-05-15T11:14:34.000Z</time>
      </trkpt>
      <trkpt lat="44.57907" lon="4.32678">
        <ele>383</ele>
        <time>2016-05-15T11:14:35.000Z</time>
      </trkpt>
      <trkpt lat="44.57907" lon="4.32678">
        <ele>383</ele>
        <time>2016-05-15T11:14:36.000Z</time>
      </trkpt>
      <trkpt lat="44.57907" lon="4.32678">
        <ele>383</ele>
        <time>2016-05-15T11:14:37.000Z</time>
      </trkpt>
      <trkpt lat="44.57907" lon="4.32678">
        <ele>383</ele>
        <time>2016-05-15T11:14:38.000Z</time>
      </trkpt>
      <trkpt lat="44.57907" lon="4.32678">
        <ele>383</ele>
        <time>2016-05-15T11:14:39.000Z</time>
      </trkpt>
      <trkpt lat="44.57907" lon="4.32678">
        <ele>383</ele>
        <time>2016-05-15T11:14:40.000Z</time>
      </trkpt>
      <trkpt lat="44.57907" lon="4.32678">
        <ele>383</ele>
        <time>2016-05-15T11:14:41.000Z</time>
      </trkpt>
      <trkpt lat="44.57907" lon="4.32678">
        <ele>383</ele>
        <time>2016-05-15T11:14:42.000Z</time>
      </trkpt>
      <trkpt lat="44.57907" lon="4.32678">
        <ele>383</ele>
        <time>2016-05-15T11:14:43.000Z</time>
      </trkpt>
      <trkpt lat="44.57907" lon="4.32678">
        <ele>383</ele>
        <time>2016-05-15T11:14:44.000Z</time>
      </trkpt>
      <trkpt lat="44.57907" lon="4.32678">
        <ele>383</ele>
        <time>2016-05-15T11:14:45.000Z</time>
      </trkpt>
      <trkpt lat="44.57907" lon="4.32678">
        <ele>383</ele>
        <time>2016-05-15T11:14:46.000Z</time>
      </trkpt>
      <trkpt lat="44.57907" lon="4.32678">
        <ele>383</ele>
        <time>2016-05-15T11:14:47.000Z</time>
      </trkpt>
      <trkpt lat="44.57907" lon="4.32678">
        <ele>383</ele>
        <time>2016-05-15T11:14:48.000Z</time>
      </trkpt>
      <trkpt lat="44.57907" lon="4.32678">
        <ele>383</ele>
        <time>2016-05-15T11:14:49.000Z</time>
      </trkpt>
      <trkpt lat="44.57907" lon="4.32678">
        <ele>383</ele>
        <time>2016-05-15T11:14:50.000Z</time>
      </trkpt>
      <trkpt lat="44.57907" lon="4.32677">
        <ele>383</ele>
        <time>2016-05-15T11:14:51.000Z</time>
      </trkpt>
      <trkpt lat="44.57907" lon="4.32678">
        <ele>383</ele>
        <time>2016-05-15T11:14:52.000Z</time>
      </trkpt>
      <trkpt lat="44.57907" lon="4.32677">
        <ele>383</ele>
        <time>2016-05-15T11:14:53.000Z</time>
      </trkpt>
      <trkpt lat="44.57907" lon="4.32678">
        <ele>383</ele>
        <time>2016-05-15T11:14:54.000Z</time>
      </trkpt>
      <trkpt lat="44.57907" lon="4.32678">
        <ele>383</ele>
        <time>2016-05-15T11:14:55.000Z</time>
      </trkpt>
      <trkpt lat="44.57907" lon="4.32678">
        <ele>383</ele>
        <time>2016-05-15T11:14:56.000Z</time>
      </trkpt>
      <trkpt lat="44.57907" lon="4.32678">
        <ele>383</ele>
        <time>2016-05-15T11:14:57.000Z</time>
      </trkpt>
      <trkpt lat="44.57907" lon="4.32678">
        <ele>383</ele>
        <time>2016-05-15T11:14:58.000Z</time>
      </trkpt>
      <trkpt lat="44.57907" lon="4.32678">
        <ele>383</ele>
        <time>2016-05-15T11:14:59.000Z</time>
      </trkpt>
      <trkpt lat="44.57907" lon="4.32678">
        <ele>383</ele>
        <time>2016-05-15T11:15:00.000Z</time>
      </trkpt>
      <trkpt lat="44.57907" lon="4.32678">
        <ele>383</ele>
        <time>2016-05-15T11:15:01.000Z</time>
      </trkpt>
      <trkpt lat="44.57907" lon="4.32678">
        <ele>383</ele>
        <time>2016-05-15T11:15:02.000Z</time>
      </trkpt>
      <trkpt lat="44.57907" lon="4.32678">
        <ele>383</ele>
        <time>2016-05-15T11:15:03.000Z</time>
      </trkpt>
      <trkpt lat="44.57907" lon="4.32678">
        <ele>383</ele>
        <time>2016-05-15T11:15:04.000Z</time>
      </trkpt>
      <trkpt lat="44.57907" lon="4.32678">
        <ele>383</ele>
        <time>2016-05-15T11:15:05.000Z</time>
      </trkpt>
      <trkpt lat="44.57907" lon="4.32678">
        <ele>383</ele>
        <time>2016-05-15T11:15:06.000Z</time>
      </trkpt>
      <trkpt lat="44.57907" lon="4.32678">
        <ele>383</ele>
        <time>2016-05-15T11:15:07.000Z</time>
      </trkpt>
      <trkpt lat="44.57907" lon="4.32678">
        <ele>383</ele>
        <time>2016-05-15T11:15:08.000Z</time>
      </trkpt>
      <trkpt lat="44.57907" lon="4.32678">
        <ele>383</ele>
        <time>2016-05-15T11:15:09.000Z</time>
      </trkpt>
      <trkpt lat="44.57907" lon="4.32678">
        <ele>383</ele>
        <time>2016-05-15T11:15:10.000Z</time>
      </trkpt>
      <trkpt lat="44.57907" lon="4.32678">
        <ele>383</ele>
        <time>2016-05-15T11:15:11.000Z</time>
      </trkpt>
      <trkpt lat="44.57907" lon="4.32678">
        <ele>383</ele>
        <time>2016-05-15T11:15:12.000Z</time>
      </trkpt>
      <trkpt lat="44.57907" lon="4.32678">
        <ele>383</ele>
        <time>2016-05-15T11:15:13.000Z</time>
      </trkpt>
      <trkpt lat="44.57907" lon="4.32678">
        <ele>383</ele>
        <time>2016-05-15T11:15:14.000Z</time>
      </trkpt>
      <trkpt lat="44.57907" lon="4.32678">
        <ele>383</ele>
        <time>2016-05-15T11:15:15.000Z</time>
      </trkpt>
      <trkpt lat="44.57907" lon="4.32678">
        <ele>383</ele>
        <time>2016-05-15T11:15:16.000Z</time>
      </trkpt>
      <trkpt lat="44.57907" lon="4.32678">
        <ele>383</ele>
        <time>2016-05-15T11:15:17.000Z</time>
      </trkpt>
      <trkpt lat="44.57907" lon="4.32678">
        <ele>383</ele>
        <time>2016-05-15T11:15:18.000Z</time>
      </trkpt>
      <trkpt lat="44.57907" lon="4.32678">
        <ele>383</ele>
        <time>2016-05-15T11:15:19.000Z</time>
      </trkpt>
      <trkpt lat="44.57907" lon="4.32678">
        <ele>383</ele>
        <time>2016-05-15T11:15:20.000Z</time>
      </trkpt>
      <trkpt lat="44.57907" lon="4.32678">
        <ele>383</ele>
        <time>2016-05-15T11:15:21.000Z</time>
      </trkpt>
      <trkpt lat="44.57907" lon="4.32678">
        <ele>383</ele>
        <time>2016-05-15T11:15:22.000Z</time>
      </trkpt>
      <trkpt lat="44.57907" lon="4.32678">
        <ele>383</ele>
        <time>2016-05-15T11:15:23.000Z</time>
      </trkpt>
      <trkpt lat="44.57907" lon="4.32678">
        <ele>383</ele>
        <time>2016-05-15T11:15:24.000Z</time>
      </trkpt>
      <trkpt lat="44.57907" lon="4.32678">
        <ele>383</ele>
        <time>2016-05-15T11:15:25.000Z</time>
      </trkpt>
      <trkpt lat="44.57907" lon="4.32678">
        <ele>383</ele>
        <time>2016-05-15T11:15:26.000Z</time>
      </trkpt>
      <trkpt lat="44.57907" lon="4.32678">
        <ele>383</ele>
        <time>2016-05-15T11:15:27.000Z</time>
      </trkpt>
      <trkpt lat="44.57907" lon="4.32678">
        <ele>383</ele>
        <time>2016-05-15T11:15:28.000Z</time>
      </trkpt>
      <trkpt lat="44.57907" lon="4.32678">
        <ele>383</ele>
        <time>2016-05-15T11:15:29.000Z</time>
      </trkpt>
      <trkpt lat="44.57907" lon="4.32678">
        <ele>383</ele>
        <time>2016-05-15T11:15:30.000Z</time>
      </trkpt>
      <trkpt lat="44.57907" lon="4.32678">
        <ele>383</ele>
        <time>2016-05-15T11:15:31.000Z</time>
      </trkpt>
      <trkpt lat="44.57907" lon="4.32678">
        <ele>383</ele>
        <time>2016-05-15T11:15:32.000Z</time>
      </trkpt>
      <trkpt lat="44.57907" lon="4.32678">
        <ele>383</ele>
        <time>2016-05-15T11:15:33.000Z</time>
      </trkpt>
      <trkpt lat="44.57907" lon="4.32678">
        <ele>383</ele>
        <time>2016-05-15T11:15:34.000Z</time>
      </trkpt>
      <trkpt lat="44.57907" lon="4.32678">
        <ele>383</ele>
        <time>2016-05-15T11:15:35.000Z</time>
      </trkpt>
      <trkpt lat="44.57907" lon="4.32678">
        <ele>383</ele>
        <time>2016-05-15T11:15:36.000Z</time>
      </trkpt>
      <trkpt lat="44.57907" lon="4.32678">
        <ele>383</ele>
        <time>2016-05-15T11:15:37.000Z</time>
      </trkpt>
      <trkpt lat="44.57907" lon="4.32678">
        <ele>383</ele>
        <time>2016-05-15T11:15:38.000Z</time>
      </trkpt>
      <trkpt lat="44.57907" lon="4.32678">
        <ele>383</ele>
        <time>2016-05-15T11:15:39.000Z</time>
      </trkpt>
      <trkpt lat="44.57907" lon="4.32678">
        <ele>383</ele>
        <time>2016-05-15T11:15:40.000Z</time>
      </trkpt>
      <trkpt lat="44.57907" lon="4.32678">
        <ele>383</ele>
        <time>2016-05-15T11:15:41.000Z</time>
      </trkpt>
      <trkpt lat="44.57907" lon="4.32678">
        <ele>383</ele>
        <time>2016-05-15T11:15:42.000Z</time>
      </trkpt>
      <trkpt lat="44.57907" lon="4.32678">
        <ele>383</ele>
        <time>2016-05-15T11:15:43.000Z</time>
      </trkpt>
      <trkpt lat="44.57907" lon="4.32678">
        <ele>383</ele>
        <time>2016-05-15T11:15:44.000Z</time>
      </trkpt>
      <trkpt lat="44.57907" lon="4.32678">
        <ele>383</ele>
        <time>2016-05-15T11:15:45.000Z</time>
      </trkpt>
      <trkpt lat="44.57907" lon="4.32678">
        <ele>383</ele>
        <time>2016-05-15T11:15:46.000Z</time>
      </trkpt>
      <trkpt lat="44.57907" lon="4.32678">
        <ele>383</ele>
        <time>2016-05-15T11:15:47.000Z</time>
      </trkpt>
      <trkpt lat="44.57907" lon="4.32678">
        <ele>383</ele>
        <time>2016-05-15T11:15:48.000Z</time>
      </trkpt>
      <trkpt lat="44.57907" lon="4.32678">
        <ele>383</ele>
        <time>2016-05-15T11:15:49.000Z</time>
      </trkpt>
      <trkpt lat="44.57907" lon="4.32678">
        <ele>383</ele>
        <time>2016-05-15T11:15:50.000Z</time>
      </trkpt>
      <trkpt lat="44.57907" lon="4.32678">
        <ele>383</ele>
        <time>2016-05-15T11:15:51.000Z</time>
      </trkpt>
      <trkpt lat="44.57907" lon="4.32678">
        <ele>383</ele>
        <time>2016-05-15T11:15:52.000Z</time>
      </trkpt>
      <trkpt lat="44.57907" lon="4.32678">
        <ele>383</ele>
        <time>2016-05-15T11:15:53.000Z</time>
      </trkpt>
      <trkpt lat="44.57907" lon="4.32678">
        <ele>383</ele>
        <time>2016-05-15T11:15:54.000Z</time>
      </trkpt>
      <trkpt lat="44.57907" lon="4.32678">
        <ele>383</ele>
        <time>2016-05-15T11:15:55.000Z</time>
      </trkpt>
      <trkpt lat="44.57907" lon="4.32678">
        <ele>383</ele>
        <time>2016-05-15T11:15:56.000Z</time>
      </trkpt>
      <trkpt lat="44.57907" lon="4.32678">
        <ele>383</ele>
        <time>2016-05-15T11:15:57.000Z</time>
      </trkpt>
      <trkpt lat="44.57907" lon="4.32678">
        <ele>383</ele>
        <time>2016-05-15T11:15:58.000Z</time>
      </trkpt>
      <trkpt lat="44.57907" lon="4.32678">
        <ele>383</ele>
        <time>2016-05-15T11:15:59.000Z</time>
      </trkpt>
      <trkpt lat="44.57907" lon="4.32679">
        <ele>383</ele>
        <time>2016-05-15T11:16:00.000Z</time>
      </trkpt>
      <trkpt lat="44.57907" lon="4.32679">
        <ele>383</ele>
        <time>2016-05-15T11:16:01.000Z</time>
      </trkpt>
      <trkpt lat="44.57907" lon="4.32679">
        <ele>383</ele>
        <time>2016-05-15T11:16:02.000Z</time>
      </trkpt>
      <trkpt lat="44.57907" lon="4.32679">
        <ele>383</ele>
        <time>2016-05-15T11:16:03.000Z</time>
      </trkpt>
      <trkpt lat="44.57907" lon="4.32679">
        <ele>383</ele>
        <time>2016-05-15T11:16:04.000Z</time>
      </trkpt>
      <trkpt lat="44.57907" lon="4.32679">
        <ele>383</ele>
        <time>2016-05-15T11:16:05.000Z</time>
      </trkpt>
      <trkpt lat="44.57907" lon="4.32679">
        <ele>383</ele>
        <time>2016-05-15T11:16:06.000Z</time>
      </trkpt>
      <trkpt lat="44.57907" lon="4.32679">
        <ele>383</ele>
        <time>2016-05-15T11:16:07.000Z</time>
      </trkpt>
      <trkpt lat="44.57907" lon="4.32679">
        <ele>383</ele>
        <time>2016-05-15T11:16:08.000Z</time>
      </trkpt>
      <trkpt lat="44.57907" lon="4.32679">
        <ele>383</ele>
        <time>2016-05-15T11:16:09.000Z</time>
      </trkpt>
      <trkpt lat="44.57907" lon="4.32679">
        <ele>383</ele>
        <time>2016-05-15T11:16:10.000Z</time>
      </trkpt>
      <trkpt lat="44.57907" lon="4.32679">
        <ele>383</ele>
        <time>2016-05-15T11:16:11.000Z</time>
      </trkpt>
      <trkpt lat="44.57907" lon="4.32679">
        <ele>383</ele>
        <time>2016-05-15T11:16:12.000Z</time>
      </trkpt>
      <trkpt lat="44.57907" lon="4.32679">
        <ele>383</ele>
        <time>2016-05-15T11:16:13.000Z</time>
      </trkpt>
      <trkpt lat="44.57907" lon="4.32679">
        <ele>383</ele>
        <time>2016-05-15T11:16:14.000Z</time>
      </trkpt>
      <trkpt lat="44.57907" lon="4.32679">
        <ele>383</ele>
        <time>2016-05-15T11:16:15.000Z</time>
      </trkpt>
      <trkpt lat="44.57907" lon="4.32679">
        <ele>383</ele>
        <time>2016-05-15T11:16:16.000Z</time>
      </trkpt>
      <trkpt lat="44.57907" lon="4.32679">
        <ele>383</ele>
        <time>2016-05-15T11:16:17.000Z</time>
      </trkpt>
      <trkpt lat="44.57907" lon="4.32679">
        <ele>383</ele>
        <time>2016-05-15T11:16:18.000Z</time>
      </trkpt>
      <trkpt lat="44.57907" lon="4.32679">
        <ele>383</ele>
        <time>2016-05-15T11:16:19.000Z</time>
      </trkpt>
      <trkpt lat="44.57907" lon="4.32679">
        <ele>383</ele>
        <time>2016-05-15T11:16:20.000Z</time>
      </trkpt>
      <trkpt lat="44.57907" lon="4.32679">
        <ele>383</ele>
        <time>2016-05-15T11:16:21.000Z</time>
      </trkpt>
      <trkpt lat="44.57907" lon="4.32679">
        <ele>383</ele>
        <time>2016-05-15T11:16:22.000Z</time>
      </trkpt>
      <trkpt lat="44.57907" lon="4.32679">
        <ele>383</ele>
        <time>2016-05-15T11:16:23.000Z</time>
      </trkpt>
      <trkpt lat="44.57907" lon="4.32679">
        <ele>383</ele>
        <time>2016-05-15T11:16:24.000Z</time>
      </trkpt>
      <trkpt lat="44.57907" lon="4.32679">
        <ele>383</ele>
        <time>2016-05-15T11:16:25.000Z</time>
      </trkpt>
      <trkpt lat="44.57907" lon="4.32679">
        <ele>383</ele>
        <time>2016-05-15T11:16:26.000Z</time>
      </trkpt>
      <trkpt lat="44.57907" lon="4.32679">
        <ele>383</ele>
        <time>2016-05-15T11:16:27.000Z</time>
      </trkpt>
      <trkpt lat="44.57907" lon="4.32679">
        <ele>383</ele>
        <time>2016-05-15T11:16:28.000Z</time>
      </trkpt>
      <trkpt lat="44.57907" lon="4.32679">
        <ele>383</ele>
        <time>2016-05-15T11:16:29.000Z</time>
      </trkpt>
      <trkpt lat="44.57907" lon="4.32679">
        <ele>383</ele>
        <time>2016-05-15T11:16:30.000Z</time>
      </trkpt>
      <trkpt lat="44.57907" lon="4.32679">
        <ele>383</ele>
        <time>2016-05-15T11:16:31.000Z</time>
      </trkpt>
      <trkpt lat="44.57907" lon="4.32679">
        <ele>383</ele>
        <time>2016-05-15T11:16:32.000Z</time>
      </trkpt>
      <trkpt lat="44.57907" lon="4.32679">
        <ele>383</ele>
        <time>2016-05-15T11:16:33.000Z</time>
      </trkpt>
      <trkpt lat="44.57907" lon="4.32679">
        <ele>383</ele>
        <time>2016-05-15T11:16:34.000Z</time>
      </trkpt>
      <trkpt lat="44.57907" lon="4.32679">
        <ele>383</ele>
        <time>2016-05-15T11:16:35.000Z</time>
      </trkpt>
      <trkpt lat="44.57907" lon="4.32679">
        <ele>383</ele>
        <time>2016-05-15T11:16:36.000Z</time>
      </trkpt>
      <trkpt lat="44.57907" lon="4.32679">
        <ele>383</ele>
        <time>2016-05-15T11:16:37.000Z</time>
      </trkpt>
      <trkpt lat="44.57907" lon="4.32679">
        <ele>383</ele>
        <time>2016-05-15T11:16:38.000Z</time>
      </trkpt>
      <trkpt lat="44.57907" lon="4.32678">
        <ele>383</ele>
        <time>2016-05-15T11:16:39.000Z</time>
      </trkpt>
      <trkpt lat="44.57907" lon="4.32678">
        <ele>383</ele>
        <time>2016-05-15T11:16:40.000Z</time>
      </trkpt>
      <trkpt lat="44.57907" lon="4.32678">
        <ele>383</ele>
        <time>2016-05-15T11:16:41.000Z</time>
      </trkpt>
      <trkpt lat="44.57907" lon="4.32678">
        <ele>383</ele>
        <time>2016-05-15T11:16:42.000Z</time>
      </trkpt>
      <trkpt lat="44.57907" lon="4.32678">
        <ele>383</ele>
        <time>2016-05-15T11:16:43.000Z</time>
      </trkpt>
      <trkpt lat="44.57907" lon="4.32678">
        <ele>383</ele>
        <time>2016-05-15T11:16:44.000Z</time>
      </trkpt>
      <trkpt lat="44.57907" lon="4.32678">
        <ele>383</ele>
        <time>2016-05-15T11:16:45.000Z</time>
      </trkpt>
      <trkpt lat="44.57907" lon="4.32678">
        <ele>383</ele>
        <time>2016-05-15T11:16:46.000Z</time>
      </trkpt>
      <trkpt lat="44.57907" lon="4.32678">
        <ele>383</ele>
        <time>2016-05-15T11:16:47.000Z</time>
      </trkpt>
      <trkpt lat="44.57907" lon="4.32678">
        <ele>383</ele>
        <time>2016-05-15T11:16:48.000Z</time>
      </trkpt>
      <trkpt lat="44.57907" lon="4.32678">
        <ele>383</ele>
        <time>2016-05-15T11:16:49.000Z</time>
      </trkpt>
      <trkpt lat="44.57907" lon="4.32678">
        <ele>383</ele>
        <time>2016-05-15T11:16:50.000Z</time>
      </trkpt>
      <trkpt lat="44.57907" lon="4.32678">
        <ele>383</ele>
        <time>2016-05-15T11:16:51.000Z</time>
      </trkpt>
      <trkpt lat="44.57907" lon="4.32678">
        <ele>383</ele>
        <time>2016-05-15T11:16:52.000Z</time>
      </trkpt>
      <trkpt lat="44.57907" lon="4.32678">
        <ele>383</ele>
        <time>2016-05-15T11:16:53.000Z</time>
      </trkpt>
      <trkpt lat="44.57907" lon="4.32678">
        <ele>383</ele>
        <time>2016-05-15T11:16:54.000Z</time>
      </trkpt>
      <trkpt lat="44.57907" lon="4.32678">
        <ele>383</ele>
        <time>2016-05-15T11:16:55.000Z</time>
      </trkpt>
      <trkpt lat="44.57907" lon="4.32678">
        <ele>383</ele>
        <time>2016-05-15T11:16:56.000Z</time>
      </trkpt>
      <trkpt lat="44.57907" lon="4.32678">
        <ele>383</ele>
        <time>2016-05-15T11:16:57.000Z</time>
      </trkpt>
      <trkpt lat="44.57907" lon="4.32678">
        <ele>383</ele>
        <time>2016-05-15T11:16:58.000Z</time>
      </trkpt>
      <trkpt lat="44.57907" lon="4.32678">
        <ele>383</ele>
        <time>2016-05-15T11:16:59.000Z</time>
      </trkpt>
      <trkpt lat="44.57907" lon="4.32678">
        <ele>383</ele>
        <time>2016-05-15T11:17:00.000Z</time>
      </trkpt>
      <trkpt lat="44.57907" lon="4.32678">
        <ele>383</ele>
        <time>2016-05-15T11:17:01.000Z</time>
      </trkpt>
      <trkpt lat="44.57907" lon="4.32678">
        <ele>383</ele>
        <time>2016-05-15T11:17:02.000Z</time>
      </trkpt>
      <trkpt lat="44.57907" lon="4.32678">
        <ele>383</ele>
        <time>2016-05-15T11:17:03.000Z</time>
      </trkpt>
      <trkpt lat="44.57907" lon="4.32678">
        <ele>383</ele>
        <time>2016-05-15T11:17:04.000Z</time>
      </trkpt>
      <trkpt lat="44.57907" lon="4.32678">
        <ele>383</ele>
        <time>2016-05-15T11:17:05.000Z</time>
      </trkpt>
      <trkpt lat="44.57907" lon="4.32678">
        <ele>383</ele>
        <time>2016-05-15T11:17:06.000Z</time>
      </trkpt>
      <trkpt lat="44.57907" lon="4.32678">
        <ele>383</ele>
        <time>2016-05-15T11:17:07.000Z</time>
      </trkpt>
      <trkpt lat="44.57907" lon="4.32678">
        <ele>383</ele>
        <time>2016-05-15T11:17:08.000Z</time>
      </trkpt>
      <trkpt lat="44.57907" lon="4.32678">
        <ele>383</ele>
        <time>2016-05-15T11:17:09.000Z</time>
      </trkpt>
      <trkpt lat="44.57907" lon="4.32678">
        <ele>383</ele>
        <time>2016-05-15T11:17:10.000Z</time>
      </trkpt>
      <trkpt lat="44.57907" lon="4.32678">
        <ele>383</ele>
        <time>2016-05-15T11:17:11.000Z</time>
      </trkpt>
      <trkpt lat="44.57907" lon="4.32678">
        <ele>383</ele>
        <time>2016-05-15T11:17:12.000Z</time>
      </trkpt>
      <trkpt lat="44.57907" lon="4.32678">
        <ele>383</ele>
        <time>2016-05-15T11:17:13.000Z</time>
      </trkpt>
      <trkpt lat="44.57907" lon="4.32678">
        <ele>383</ele>
        <time>2016-05-15T11:17:14.000Z</time>
      </trkpt>
      <trkpt lat="44.57907" lon="4.32678">
        <ele>383</ele>
        <time>2016-05-15T11:17:15.000Z</time>
      </trkpt>
      <trkpt lat="44.57907" lon="4.32678">
        <ele>383</ele>
        <time>2016-05-15T11:17:16.000Z</time>
      </trkpt>
      <trkpt lat="44.57907" lon="4.32678">
        <ele>383</ele>
        <time>2016-05-15T11:17:17.000Z</time>
      </trkpt>
      <trkpt lat="44.57907" lon="4.32678">
        <ele>383</ele>
        <time>2016-05-15T11:17:18.000Z</time>
      </trkpt>
      <trkpt lat="44.57907" lon="4.32678">
        <ele>383</ele>
        <time>2016-05-15T11:17:19.000Z</time>
      </trkpt>
      <trkpt lat="44.57907" lon="4.32678">
        <ele>383</ele>
        <time>2016-05-15T11:17:20.000Z</time>
      </trkpt>
      <trkpt lat="44.57907" lon="4.32678">
        <ele>383</ele>
        <time>2016-05-15T11:17:21.000Z</time>
      </trkpt>
      <trkpt lat="44.57907" lon="4.32678">
        <ele>383</ele>
        <time>2016-05-15T11:17:22.000Z</time>
      </trkpt>
      <trkpt lat="44.57907" lon="4.32678">
        <ele>383</ele>
        <time>2016-05-15T11:17:23.000Z</time>
      </trkpt>
      <trkpt lat="44.57907" lon="4.32678">
        <ele>383</ele>
        <time>2016-05-15T11:17:24.000Z</time>
      </trkpt>
      <trkpt lat="44.57907" lon="4.32678">
        <ele>383</ele>
        <time>2016-05-15T11:17:25.000Z</time>
      </trkpt>
      <trkpt lat="44.57907" lon="4.32678">
        <ele>383</ele>
        <time>2016-05-15T11:17:26.000Z</time>
      </trkpt>
      <trkpt lat="44.57907" lon="4.32678">
        <ele>383</ele>
        <time>2016-05-15T11:17:27.000Z</time>
      </trkpt>
      <trkpt lat="44.57907" lon="4.32678">
        <ele>383</ele>
        <time>2016-05-15T11:17:28.000Z</time>
      </trkpt>
      <trkpt lat="44.57907" lon="4.32678">
        <ele>383</ele>
        <time>2016-05-15T11:17:29.000Z</time>
      </trkpt>
      <trkpt lat="44.57907" lon="4.32678">
        <ele>383</ele>
        <time>2016-05-15T11:17:30.000Z</time>
      </trkpt>
      <trkpt lat="44.57907" lon="4.32678">
        <ele>383</ele>
        <time>2016-05-15T11:17:31.000Z</time>
      </trkpt>
      <trkpt lat="44.57907" lon="4.32678">
        <ele>383</ele>
        <time>2016-05-15T11:17:32.000Z</time>
      </trkpt>
      <trkpt lat="44.57907" lon="4.32678">
        <ele>383</ele>
        <time>2016-05-15T11:17:33.000Z</time>
      </trkpt>
      <trkpt lat="44.57907" lon="4.32678">
        <ele>383</ele>
        <time>2016-05-15T11:17:34.000Z</time>
      </trkpt>
      <trkpt lat="44.57907" lon="4.32678">
        <ele>383</ele>
        <time>2016-05-15T11:17:35.000Z</time>
      </trkpt>
      <trkpt lat="44.57907" lon="4.32678">
        <ele>383</ele>
        <time>2016-05-15T11:17:36.000Z</time>
      </trkpt>
      <trkpt lat="44.57907" lon="4.32678">
        <ele>383</ele>
        <time>2016-05-15T11:17:37.000Z</time>
      </trkpt>
      <trkpt lat="44.57907" lon="4.32678">
        <ele>383</ele>
        <time>2016-05-15T11:17:38.000Z</time>
      </trkpt>
      <trkpt lat="44.57907" lon="4.32678">
        <ele>383</ele>
        <time>2016-05-15T11:17:39.000Z</time>
      </trkpt>
      <trkpt lat="44.57907" lon="4.32678">
        <ele>383</ele>
        <time>2016-05-15T11:17:40.000Z</time>
      </trkpt>
      <trkpt lat="44.57907" lon="4.32678">
        <ele>383</ele>
        <time>2016-05-15T11:17:41.000Z</time>
      </trkpt>
      <trkpt lat="44.57907" lon="4.32678">
        <ele>383</ele>
        <time>2016-05-15T11:17:42.000Z</time>
      </trkpt>
      <trkpt lat="44.57907" lon="4.32678">
        <ele>383</ele>
        <time>2016-05-15T11:17:43.000Z</time>
      </trkpt>
      <trkpt lat="44.57907" lon="4.32678">
        <ele>383</ele>
        <time>2016-05-15T11:17:44.000Z</time>
      </trkpt>
      <trkpt lat="44.57907" lon="4.32678">
        <ele>383</ele>
        <time>2016-05-15T11:17:45.000Z</time>
      </trkpt>
      <trkpt lat="44.57907" lon="4.32678">
        <ele>383</ele>
        <time>2016-05-15T11:17:46.000Z</time>
      </trkpt>
      <trkpt lat="44.57907" lon="4.32678">
        <ele>383</ele>
        <time>2016-05-15T11:17:47.000Z</time>
      </trkpt>
      <trkpt lat="44.57907" lon="4.32678">
        <ele>383</ele>
        <time>2016-05-15T11:17:48.000Z</time>
      </trkpt>
      <trkpt lat="44.57907" lon="4.32678">
        <ele>383</ele>
        <time>2016-05-15T11:17:49.000Z</time>
      </trkpt>
      <trkpt lat="44.57907" lon="4.32678">
        <ele>383</ele>
        <time>2016-05-15T11:17:50.000Z</time>
      </trkpt>
      <trkpt lat="44.57907" lon="4.32678">
        <ele>383</ele>
        <time>2016-05-15T11:17:51.000Z</time>
      </trkpt>
      <trkpt lat="44.57907" lon="4.32678">
        <ele>383</ele>
        <time>2016-05-15T11:17:52.000Z</time>
      </trkpt>
      <trkpt lat="44.57907" lon="4.32678">
        <ele>383</ele>
        <time>2016-05-15T11:17:53.000Z</time>
      </trkpt>
      <trkpt lat="44.57907" lon="4.32678">
        <ele>383</ele>
        <time>2016-05-15T11:17:54.000Z</time>
      </trkpt>
      <trkpt lat="44.57907" lon="4.32678">
        <ele>383</ele>
        <time>2016-05-15T11:17:55.000Z</time>
      </trkpt>
      <trkpt lat="44.57907" lon="4.32678">
        <ele>383</ele>
        <time>2016-05-15T11:17:56.000Z</time>
      </trkpt>
      <trkpt lat="44.57907" lon="4.32678">
        <ele>383</ele>
        <time>2016-05-15T11:17:57.000Z</time>
      </trkpt>
      <trkpt lat="44.57907" lon="4.32678">
        <ele>383</ele>
        <time>2016-05-15T11:17:58.000Z</time>
      </trkpt>
      <trkpt lat="44.57907" lon="4.32678">
        <ele>383</ele>
        <time>2016-05-15T11:17:59.000Z</time>
      </trkpt>
      <trkpt lat="44.57907" lon="4.32678">
        <ele>383</ele>
        <time>2016-05-15T11:18:00.000Z</time>
      </trkpt>
      <trkpt lat="44.57907" lon="4.32678">
        <ele>383</ele>
        <time>2016-05-15T11:18:01.000Z</time>
      </trkpt>
      <trkpt lat="44.57907" lon="4.32678">
        <ele>383</ele>
        <time>2016-05-15T11:18:02.000Z</time>
      </trkpt>
      <trkpt lat="44.57907" lon="4.32678">
        <ele>383</ele>
        <time>2016-05-15T11:18:03.000Z</time>
      </trkpt>
      <trkpt lat="44.57907" lon="4.32678">
        <ele>383</ele>
        <time>2016-05-15T11:18:04.000Z</time>
      </trkpt>
      <trkpt lat="44.57907" lon="4.32678">
        <ele>383</ele>
        <time>2016-05-15T11:18:05.000Z</time>
      </trkpt>
      <trkpt lat="44.57907" lon="4.32678">
        <ele>383</ele>
        <time>2016-05-15T11:18:06.000Z</time>
      </trkpt>
      <trkpt lat="44.57907" lon="4.32678">
        <ele>383</ele>
        <time>2016-05-15T11:18:07.000Z</time>
      </trkpt>
      <trkpt lat="44.57907" lon="4.32678">
        <ele>383</ele>
        <time>2016-05-15T11:18:08.000Z</time>
      </trkpt>
      <trkpt lat="44.57907" lon="4.32678">
        <ele>383</ele>
        <time>2016-05-15T11:18:09.000Z</time>
      </trkpt>
      <trkpt lat="44.57907" lon="4.32678">
        <ele>383</ele>
        <time>2016-05-15T11:18:10.000Z</time>
      </trkpt>
      <trkpt lat="44.57907" lon="4.32678">
        <ele>383</ele>
        <time>2016-05-15T11:18:11.000Z</time>
      </trkpt>
      <trkpt lat="44.57907" lon="4.32678">
        <ele>383</ele>
        <time>2016-05-15T11:18:12.000Z</time>
      </trkpt>
      <trkpt lat="44.57907" lon="4.32678">
        <ele>383</ele>
        <time>2016-05-15T11:18:13.000Z</time>
      </trkpt>
      <trkpt lat="44.57907" lon="4.32678">
        <ele>383</ele>
        <time>2016-05-15T11:18:14.000Z</time>
      </trkpt>
      <trkpt lat="44.57907" lon="4.32678">
        <ele>383</ele>
        <time>2016-05-15T11:18:15.000Z</time>
      </trkpt>
      <trkpt lat="44.57907" lon="4.32678">
        <ele>383</ele>
        <time>2016-05-15T11:18:16.000Z</time>
      </trkpt>
      <trkpt lat="44.57907" lon="4.32678">
        <ele>383</ele>
        <time>2016-05-15T11:18:17.000Z</time>
      </trkpt>
      <trkpt lat="44.57907" lon="4.32678">
        <ele>383</ele>
        <time>2016-05-15T11:18:18.000Z</time>
      </trkpt>
      <trkpt lat="44.57907" lon="4.32678">
        <ele>383</ele>
        <time>2016-05-15T11:18:19.000Z</time>
      </trkpt>
      <trkpt lat="44.57907" lon="4.32678">
        <ele>383</ele>
        <time>2016-05-15T11:18:20.000Z</time>
      </trkpt>
      <trkpt lat="44.57907" lon="4.32678">
        <ele>383</ele>
        <time>2016-05-15T11:18:21.000Z</time>
      </trkpt>
      <trkpt lat="44.57907" lon="4.32677">
        <ele>383</ele>
        <time>2016-05-15T11:18:22.000Z</time>
      </trkpt>
      <trkpt lat="44.57907" lon="4.32677">
        <ele>383</ele>
        <time>2016-05-15T11:18:23.000Z</time>
      </trkpt>
      <trkpt lat="44.57907" lon="4.32677">
        <ele>383</ele>
        <time>2016-05-15T11:18:24.000Z</time>
      </trkpt>
      <trkpt lat="44.57907" lon="4.32677">
        <ele>383</ele>
        <time>2016-05-15T11:18:25.000Z</time>
      </trkpt>
      <trkpt lat="44.57907" lon="4.32677">
        <ele>383</ele>
        <time>2016-05-15T11:18:26.000Z</time>
      </trkpt>
      <trkpt lat="44.57907" lon="4.32677">
        <ele>383</ele>
        <time>2016-05-15T11:18:27.000Z</time>
      </trkpt>
      <trkpt lat="44.57907" lon="4.32677">
        <ele>383</ele>
        <time>2016-05-15T11:18:28.000Z</time>
      </trkpt>
      <trkpt lat="44.57907" lon="4.32677">
        <ele>383</ele>
        <time>2016-05-15T11:18:29.000Z</time>
      </trkpt>
      <trkpt lat="44.57907" lon="4.32677">
        <ele>383</ele>
        <time>2016-05-15T11:18:30.000Z</time>
      </trkpt>
      <trkpt lat="44.57907" lon="4.32677">
        <ele>383</ele>
        <time>2016-05-15T11:18:31.000Z</time>
      </trkpt>
      <trkpt lat="44.57907" lon="4.32677">
        <ele>383</ele>
        <time>2016-05-15T11:18:32.000Z</time>
      </trkpt>
      <trkpt lat="44.57907" lon="4.32677">
        <ele>383</ele>
        <time>2016-05-15T11:18:33.000Z</time>
      </trkpt>
      <trkpt lat="44.57907" lon="4.32677">
        <ele>383</ele>
        <time>2016-05-15T11:18:34.000Z</time>
      </trkpt>
      <trkpt lat="44.57907" lon="4.32677">
        <ele>383</ele>
        <time>2016-05-15T11:18:35.000Z</time>
      </trkpt>
      <trkpt lat="44.57907" lon="4.32677">
        <ele>383</ele>
        <time>2016-05-15T11:18:36.000Z</time>
      </trkpt>
      <trkpt lat="44.57907" lon="4.32677">
        <ele>383</ele>
        <time>2016-05-15T11:18:37.000Z</time>
      </trkpt>
      <trkpt lat="44.57907" lon="4.32677">
        <ele>383</ele>
        <time>2016-05-15T11:18:38.000Z</time>
      </trkpt>
      <trkpt lat="44.57907" lon="4.32677">
        <ele>383</ele>
        <time>2016-05-15T11:18:39.000Z</time>
      </trkpt>
      <trkpt lat="44.57907" lon="4.32677">
        <ele>383</ele>
        <time>2016-05-15T11:18:40.000Z</time>
      </trkpt>
      <trkpt lat="44.57907" lon="4.32677">
        <ele>383</ele>
        <time>2016-05-15T11:18:41.000Z</time>
      </trkpt>
      <trkpt lat="44.57907" lon="4.32677">
        <ele>383</ele>
        <time>2016-05-15T11:18:42.000Z</time>
      </trkpt>
      <trkpt lat="44.57907" lon="4.32677">
        <ele>383</ele>
        <time>2016-05-15T11:18:43.000Z</time>
      </trkpt>
      <trkpt lat="44.57907" lon="4.32677">
        <ele>383</ele>
        <time>2016-05-15T11:18:44.000Z</time>
      </trkpt>
      <trkpt lat="44.57907" lon="4.32677">
        <ele>383</ele>
        <time>2016-05-15T11:18:45.000Z</time>
      </trkpt>
      <trkpt lat="44.57907" lon="4.32677">
        <ele>383</ele>
        <time>2016-05-15T11:18:46.000Z</time>
      </trkpt>
      <trkpt lat="44.57907" lon="4.32677">
        <ele>383</ele>
        <time>2016-05-15T11:18:47.000Z</time>
      </trkpt>
      <trkpt lat="44.57907" lon="4.32677">
        <ele>383</ele>
        <time>2016-05-15T11:18:48.000Z</time>
      </trkpt>
      <trkpt lat="44.57907" lon="4.32677">
        <ele>383</ele>
        <time>2016-05-15T11:18:49.000Z</time>
      </trkpt>
      <trkpt lat="44.57907" lon="4.32677">
        <ele>383</ele>
        <time>2016-05-15T11:18:50.000Z</time>
      </trkpt>
      <trkpt lat="44.57907" lon="4.32677">
        <ele>383</ele>
        <time>2016-05-15T11:18:51.000Z</time>
      </trkpt>
      <trkpt lat="44.57907" lon="4.32677">
        <ele>383</ele>
        <time>2016-05-15T11:18:52.000Z</time>
      </trkpt>
      <trkpt lat="44.57907" lon="4.32677">
        <ele>383</ele>
        <time>2016-05-15T11:18:53.000Z</time>
      </trkpt>
      <trkpt lat="44.57907" lon="4.32677">
        <ele>383</ele>
        <time>2016-05-15T11:18:54.000Z</time>
      </trkpt>
      <trkpt lat="44.57907" lon="4.32677">
        <ele>383</ele>
        <time>2016-05-15T11:18:55.000Z</time>
      </trkpt>
      <trkpt lat="44.57907" lon="4.32677">
        <ele>383</ele>
        <time>2016-05-15T11:18:56.000Z</time>
      </trkpt>
      <trkpt lat="44.57907" lon="4.32677">
        <ele>383</ele>
        <time>2016-05-15T11:18:57.000Z</time>
      </trkpt>
      <trkpt lat="44.57907" lon="4.32677">
        <ele>383</ele>
        <time>2016-05-15T11:18:58.000Z</time>
      </trkpt>
      <trkpt lat="44.57907" lon="4.32677">
        <ele>383</ele>
        <time>2016-05-15T11:18:59.000Z</time>
      </trkpt>
      <trkpt lat="44.57907" lon="4.32677">
        <ele>383</ele>
        <time>2016-05-15T11:19:00.000Z</time>
      </trkpt>
      <trkpt lat="44.57907" lon="4.32677">
        <ele>383</ele>
        <time>2016-05-15T11:19:01.000Z</time>
      </trkpt>
      <trkpt lat="44.57907" lon="4.32677">
        <ele>383</ele>
        <time>2016-05-15T11:19:02.000Z</time>
      </trkpt>
      <trkpt lat="44.57907" lon="4.32676">
        <ele>383</ele>
        <time>2016-05-15T11:19:03.000Z</time>
      </trkpt>
      <trkpt lat="44.57907" lon="4.32676">
        <ele>383</ele>
        <time>2016-05-15T11:19:04.000Z</time>
      </trkpt>
      <trkpt lat="44.57907" lon="4.32676">
        <ele>383</ele>
        <time>2016-05-15T11:19:05.000Z</time>
      </trkpt>
      <trkpt lat="44.57907" lon="4.32676">
        <ele>383</ele>
        <time>2016-05-15T11:19:06.000Z</time>
      </trkpt>
      <trkpt lat="44.57907" lon="4.32676">
        <ele>383</ele>
        <time>2016-05-15T11:19:07.000Z</time>
      </trkpt>
      <trkpt lat="44.57907" lon="4.32676">
        <ele>383</ele>
        <time>2016-05-15T11:19:08.000Z</time>
      </trkpt>
      <trkpt lat="44.57907" lon="4.32676">
        <ele>383</ele>
        <time>2016-05-15T11:19:09.000Z</time>
      </trkpt>
      <trkpt lat="44.57907" lon="4.32676">
        <ele>383</ele>
        <time>2016-05-15T11:19:10.000Z</time>
      </trkpt>
      <trkpt lat="44.57907" lon="4.32676">
        <ele>383</ele>
        <time>2016-05-15T11:19:11.000Z</time>
      </trkpt>
      <trkpt lat="44.57907" lon="4.32676">
        <ele>383</ele>
        <time>2016-05-15T11:19:12.000Z</time>
      </trkpt>
      <trkpt lat="44.57907" lon="4.32676">
        <ele>383</ele>
        <time>2016-05-15T11:19:13.000Z</time>
      </trkpt>
      <trkpt lat="44.57907" lon="4.32676">
        <ele>383</ele>
        <time>2016-05-15T11:19:14.000Z</time>
      </trkpt>
      <trkpt lat="44.57907" lon="4.32676">
        <ele>383</ele>
        <time>2016-05-15T11:19:15.000Z</time>
      </trkpt>
      <trkpt lat="44.57907" lon="4.32676">
        <ele>383</ele>
        <time>2016-05-15T11:19:16.000Z</time>
      </trkpt>
      <trkpt lat="44.57907" lon="4.32676">
        <ele>383</ele>
        <time>2016-05-15T11:19:17.000Z</time>
      </trkpt>
      <trkpt lat="44.57907" lon="4.32676">
        <ele>383</ele>
        <time>2016-05-15T11:19:18.000Z</time>
      </trkpt>
      <trkpt lat="44.57907" lon="4.32676">
        <ele>383</ele>
        <time>2016-05-15T11:19:19.000Z</time>
      </trkpt>
      <trkpt lat="44.57907" lon="4.32676">
        <ele>383</ele>
        <time>2016-05-15T11:19:20.000Z</time>
      </trkpt>
      <trkpt lat="44.57907" lon="4.32676">
        <ele>383</ele>
        <time>2016-05-15T11:19:21.000Z</time>
      </trkpt>
      <trkpt lat="44.57907" lon="4.32676">
        <ele>383</ele>
        <time>2016-05-15T11:19:22.000Z</time>
      </trkpt>
      <trkpt lat="44.57907" lon="4.32676">
        <ele>383</ele>
        <time>2016-05-15T11:19:23.000Z</time>
      </trkpt>
      <trkpt lat="44.57907" lon="4.32676">
        <ele>383</ele>
        <time>2016-05-15T11:19:24.000Z</time>
      </trkpt>
      <trkpt lat="44.57907" lon="4.32676">
        <ele>383</ele>
        <time>2016-05-15T11:19:25.000Z</time>
      </trkpt>
      <trkpt lat="44.57907" lon="4.32676">
        <ele>383</ele>
        <time>2016-05-15T11:19:26.000Z</time>
      </trkpt>
      <trkpt lat="44.57907" lon="4.32676">
        <ele>383</ele>
        <time>2016-05-15T11:19:27.000Z</time>
      </trkpt>
      <trkpt lat="44.57907" lon="4.32676">
        <ele>383</ele>
        <time>2016-05-15T11:19:28.000Z</time>
      </trkpt>
      <trkpt lat="44.57907" lon="4.32676">
        <ele>383</ele>
        <time>2016-05-15T11:19:29.000Z</time>
      </trkpt>
      <trkpt lat="44.57907" lon="4.32676">
        <ele>383</ele>
        <time>2016-05-15T11:19:30.000Z</time>
      </trkpt>
      <trkpt lat="44.57907" lon="4.32676">
        <ele>383</ele>
        <time>2016-05-15T11:19:31.000Z</time>
      </trkpt>
      <trkpt lat="44.57907" lon="4.32676">
        <ele>383</ele>
        <time>2016-05-15T11:19:32.000Z</time>
      </trkpt>
      <trkpt lat="44.57907" lon="4.32676">
        <ele>383</ele>
        <time>2016-05-15T11:19:33.000Z</time>
      </trkpt>
      <trkpt lat="44.57907" lon="4.32676">
        <ele>383</ele>
        <time>2016-05-15T11:19:34.000Z</time>
      </trkpt>
      <trkpt lat="44.57907" lon="4.32676">
        <ele>383</ele>
        <time>2016-05-15T11:19:35.000Z</time>
      </trkpt>
      <trkpt lat="44.57907" lon="4.32676">
        <ele>383</ele>
        <time>2016-05-15T11:19:36.000Z</time>
      </trkpt>
      <trkpt lat="44.57907" lon="4.32676">
        <ele>383</ele>
        <time>2016-05-15T11:19:37.000Z</time>
      </trkpt>
      <trkpt lat="44.57907" lon="4.32676">
        <ele>383</ele>
        <time>2016-05-15T11:19:38.000Z</time>
      </trkpt>
      <trkpt lat="44.57907" lon="4.32676">
        <ele>383</ele>
        <time>2016-05-15T11:19:39.000Z</time>
      </trkpt>
      <trkpt lat="44.57907" lon="4.32676">
        <ele>383</ele>
        <time>2016-05-15T11:19:40.000Z</time>
      </trkpt>
      <trkpt lat="44.57907" lon="4.32676">
        <ele>383</ele>
        <time>2016-05-15T11:19:41.000Z</time>
      </trkpt>
      <trkpt lat="44.57907" lon="4.32676">
        <ele>383</ele>
        <time>2016-05-15T11:19:42.000Z</time>
      </trkpt>
      <trkpt lat="44.57907" lon="4.32676">
        <ele>383</ele>
        <time>2016-05-15T11:19:43.000Z</time>
      </trkpt>
      <trkpt lat="44.57907" lon="4.32676">
        <ele>383</ele>
        <time>2016-05-15T11:19:44.000Z</time>
      </trkpt>
      <trkpt lat="44.57907" lon="4.32676">
        <ele>383</ele>
        <time>2016-05-15T11:19:45.000Z</time>
      </trkpt>
      <trkpt lat="44.57907" lon="4.32676">
        <ele>383</ele>
        <time>2016-05-15T11:19:46.000Z</time>
      </trkpt>
      <trkpt lat="44.57907" lon="4.32676">
        <ele>383</ele>
        <time>2016-05-15T11:19:47.000Z</time>
      </trkpt>
      <trkpt lat="44.57907" lon="4.32676">
        <ele>383</ele>
        <time>2016-05-15T11:19:48.000Z</time>
      </trkpt>
      <trkpt lat="44.57907" lon="4.32676">
        <ele>383</ele>
        <time>2016-05-15T11:19:49.000Z</time>
      </trkpt>
      <trkpt lat="44.57907" lon="4.32676">
        <ele>383</ele>
        <time>2016-05-15T11:19:50.000Z</time>
      </trkpt>
      <trkpt lat="44.57907" lon="4.32676">
        <ele>383</ele>
        <time>2016-05-15T11:19:51.000Z</time>
      </trkpt>
      <trkpt lat="44.57906" lon="4.32676">
        <ele>383</ele>
        <time>2016-05-15T11:19:52.000Z</time>
      </trkpt>
      <trkpt lat="44.57906" lon="4.32676">
        <ele>383</ele>
        <time>2016-05-15T11:19:53.000Z</time>
      </trkpt>
      <trkpt lat="44.57906" lon="4.32676">
        <ele>383</ele>
        <time>2016-05-15T11:19:54.000Z</time>
      </trkpt>
      <trkpt lat="44.57906" lon="4.32676">
        <ele>383</ele>
        <time>2016-05-15T11:19:55.000Z</time>
      </trkpt>
      <trkpt lat="44.57906" lon="4.32676">
        <ele>383</ele>
        <time>2016-05-15T11:19:56.000Z</time>
      </trkpt>
      <trkpt lat="44.57906" lon="4.32676">
        <ele>383</ele>
        <time>2016-05-15T11:19:57.000Z</time>
      </trkpt>
      <trkpt lat="44.57906" lon="4.32676">
        <ele>383</ele>
        <time>2016-05-15T11:19:58.000Z</time>
      </trkpt>
      <trkpt lat="44.57906" lon="4.32676">
        <ele>383</ele>
        <time>2016-05-15T11:19:59.000Z</time>
      </trkpt>
      <trkpt lat="44.57906" lon="4.32676">
        <ele>383</ele>
        <time>2016-05-15T11:20:00.000Z</time>
      </trkpt>
      <trkpt lat="44.57906" lon="4.32676">
        <ele>383</ele>
        <time>2016-05-15T11:20:01.000Z</time>
      </trkpt>
      <trkpt lat="44.57906" lon="4.32676">
        <ele>383</ele>
        <time>2016-05-15T11:20:02.000Z</time>
      </trkpt>
      <trkpt lat="44.57906" lon="4.32676">
        <ele>383</ele>
        <time>2016-05-15T11:20:03.000Z</time>
      </trkpt>
      <trkpt lat="44.57906" lon="4.32676">
        <ele>383</ele>
        <time>2016-05-15T11:20:04.000Z</time>
      </trkpt>
      <trkpt lat="44.57906" lon="4.32676">
        <ele>383</ele>
        <time>2016-05-15T11:20:05.000Z</time>
      </trkpt>
      <trkpt lat="44.57906" lon="4.32676">
        <ele>383</ele>
        <time>2016-05-15T11:20:06.000Z</time>
      </trkpt>
      <trkpt lat="44.57906" lon="4.32676">
        <ele>383</ele>
        <time>2016-05-15T11:20:07.000Z</time>
      </trkpt>
      <trkpt lat="44.57906" lon="4.32676">
        <ele>383</ele>
        <time>2016-05-15T11:20:08.000Z</time>
      </trkpt>
      <trkpt lat="44.57906" lon="4.32676">
        <ele>383</ele>
        <time>2016-05-15T11:20:09.000Z</time>
      </trkpt>
      <trkpt lat="44.57906" lon="4.32676">
        <ele>383</ele>
        <time>2016-05-15T11:20:10.000Z</time>
      </trkpt>
      <trkpt lat="44.57906" lon="4.32676">
        <ele>383</ele>
        <time>2016-05-15T11:20:11.000Z</time>
      </trkpt>
      <trkpt lat="44.57906" lon="4.32676">
        <ele>383</ele>
        <time>2016-05-15T11:20:12.000Z</time>
      </trkpt>
      <trkpt lat="44.57906" lon="4.32676">
        <ele>383</ele>
        <time>2016-05-15T11:20:13.000Z</time>
      </trkpt>
      <trkpt lat="44.57906" lon="4.32676">
        <ele>383</ele>
        <time>2016-05-15T11:20:14.000Z</time>
      </trkpt>
      <trkpt lat="44.57906" lon="4.32676">
        <ele>383</ele>
        <time>2016-05-15T11:20:15.000Z</time>
      </trkpt>
      <trkpt lat="44.57906" lon="4.32676">
        <ele>383</ele>
        <time>2016-05-15T11:20:16.000Z</time>
      </trkpt>
      <trkpt lat="44.57906" lon="4.32676">
        <ele>383</ele>
        <time>2016-05-15T11:20:17.000Z</time>
      </trkpt>
      <trkpt lat="44.57906" lon="4.32677">
        <ele>383</ele>
        <time>2016-05-15T11:20:18.000Z</time>
      </trkpt>
      <trkpt lat="44.57906" lon="4.32677">
        <ele>383</ele>
        <time>2016-05-15T11:20:19.000Z</time>
      </trkpt>
      <trkpt lat="44.57906" lon="4.32677">
        <ele>383</ele>
        <time>2016-05-15T11:20:20.000Z</time>
      </trkpt>
      <trkpt lat="44.57906" lon="4.32677">
        <ele>383</ele>
        <time>2016-05-15T11:20:21.000Z</time>
      </trkpt>
      <trkpt lat="44.57906" lon="4.32677">
        <ele>383</ele>
        <time>2016-05-15T11:20:22.000Z</time>
      </trkpt>
      <trkpt lat="44.57906" lon="4.32677">
        <ele>383</ele>
        <time>2016-05-15T11:20:23.000Z</time>
      </trkpt>
      <trkpt lat="44.57906" lon="4.32677">
        <ele>383</ele>
        <time>2016-05-15T11:20:24.000Z</time>
      </trkpt>
      <trkpt lat="44.57906" lon="4.32677">
        <ele>383</ele>
        <time>2016-05-15T11:20:25.000Z</time>
      </trkpt>
      <trkpt lat="44.57906" lon="4.32677">
        <ele>383</ele>
        <time>2016-05-15T11:20:26.000Z</time>
      </trkpt>
      <trkpt lat="44.57906" lon="4.32677">
        <ele>383</ele>
        <time>2016-05-15T11:20:27.000Z</time>
      </trkpt>
      <trkpt lat="44.57906" lon="4.32677">
        <ele>383</ele>
        <time>2016-05-15T11:20:28.000Z</time>
      </trkpt>
      <trkpt lat="44.57906" lon="4.32677">
        <ele>383</ele>
        <time>2016-05-15T11:20:29.000Z</time>
      </trkpt>
      <trkpt lat="44.57906" lon="4.32677">
        <ele>383</ele>
        <time>2016-05-15T11:20:30.000Z</time>
      </trkpt>
      <trkpt lat="44.57906" lon="4.32677">
        <ele>383</ele>
        <time>2016-05-15T11:20:31.000Z</time>
      </trkpt>
      <trkpt lat="44.57906" lon="4.32677">
        <ele>383</ele>
        <time>2016-05-15T11:20:32.000Z</time>
      </trkpt>
      <trkpt lat="44.57906" lon="4.32677">
        <ele>383</ele>
        <time>2016-05-15T11:20:33.000Z</time>
      </trkpt>
      <trkpt lat="44.57906" lon="4.32677">
        <ele>383</ele>
        <time>2016-05-15T11:20:34.000Z</time>
      </trkpt>
      <trkpt lat="44.57906" lon="4.32677">
        <ele>383</ele>
        <time>2016-05-15T11:20:35.000Z</time>
      </trkpt>
      <trkpt lat="44.57906" lon="4.32677">
        <ele>383</ele>
        <time>2016-05-15T11:20:36.000Z</time>
      </trkpt>
      <trkpt lat="44.57906" lon="4.32677">
        <ele>383</ele>
        <time>2016-05-15T11:20:37.000Z</time>
      </trkpt>
      <trkpt lat="44.57906" lon="4.32677">
        <ele>383</ele>
        <time>2016-05-15T11:20:38.000Z</time>
      </trkpt>
      <trkpt lat="44.57906" lon="4.32677">
        <ele>383</ele>
        <time>2016-05-15T11:20:39.000Z</time>
      </trkpt>
      <trkpt lat="44.57906" lon="4.32677">
        <ele>383</ele>
        <time>2016-05-15T11:20:40.000Z</time>
      </trkpt>
      <trkpt lat="44.57906" lon="4.32677">
        <ele>383</ele>
        <time>2016-05-15T11:20:41.000Z</time>
      </trkpt>
      <trkpt lat="44.57906" lon="4.32677">
        <ele>383</ele>
        <time>2016-05-15T11:20:42.000Z</time>
      </trkpt>
      <trkpt lat="44.57906" lon="4.32677">
        <ele>383</ele>
        <time>2016-05-15T11:20:43.000Z</time>
      </trkpt>
      <trkpt lat="44.57906" lon="4.32677">
        <ele>383</ele>
        <time>2016-05-15T11:20:44.000Z</time>
      </trkpt>
      <trkpt lat="44.57906" lon="4.32677">
        <ele>383</ele>
        <time>2016-05-15T11:20:45.000Z</time>
      </trkpt>
      <trkpt lat="44.57906" lon="4.32677">
        <ele>383</ele>
        <time>2016-05-15T11:20:46.000Z</time>
      </trkpt>
      <trkpt lat="44.57906" lon="4.32677">
        <ele>383</ele>
        <time>2016-05-15T11:20:47.000Z</time>
      </trkpt>
      <trkpt lat="44.57906" lon="4.32677">
        <ele>383</ele>
        <time>2016-05-15T11:20:48.000Z</time>
      </trkpt>
      <trkpt lat="44.57906" lon="4.32677">
        <ele>383</ele>
        <time>2016-05-15T11:20:49.000Z</time>
      </trkpt>
      <trkpt lat="44.57906" lon="4.32677">
        <ele>383</ele>
        <time>2016-05-15T11:20:50.000Z</time>
      </trkpt>
      <trkpt lat="44.57906" lon="4.32677">
        <ele>383</ele>
        <time>2016-05-15T11:20:51.000Z</time>
      </trkpt>
      <trkpt lat="44.57906" lon="4.32678">
        <ele>383</ele>
        <time>2016-05-15T11:20:52.000Z</time>
      </trkpt>
      <trkpt lat="44.57906" lon="4.32678">
        <ele>383</ele>
        <time>2016-05-15T11:20:53.000Z</time>
      </trkpt>
      <trkpt lat="44.57906" lon="4.32678">
        <ele>383</ele>
        <time>2016-05-15T11:20:54.000Z</time>
      </trkpt>
      <trkpt lat="44.57906" lon="4.32678">
        <ele>383</ele>
        <time>2016-05-15T11:20:55.000Z</time>
      </trkpt>
      <trkpt lat="44.57906" lon="4.32678">
        <ele>383</ele>
        <time>2016-05-15T11:20:56.000Z</time>
      </trkpt>
      <trkpt lat="44.57906" lon="4.32678">
        <ele>383</ele>
        <time>2016-05-15T11:20:57.000Z</time>
      </trkpt>
      <trkpt lat="44.57906" lon="4.32678">
        <ele>383</ele>
        <time>2016-05-15T11:20:58.000Z</time>
      </trkpt>
      <trkpt lat="44.57906" lon="4.32678">
        <ele>383</ele>
        <time>2016-05-15T11:20:59.000Z</time>
      </trkpt>
      <trkpt lat="44.57906" lon="4.32678">
        <ele>383</ele>
        <time>2016-05-15T11:21:00.000Z</time>
      </trkpt>
      <trkpt lat="44.57906" lon="4.32678">
        <ele>383</ele>
        <time>2016-05-15T11:21:01.000Z</time>
      </trkpt>
      <trkpt lat="44.57906" lon="4.32678">
        <ele>383</ele>
        <time>2016-05-15T11:21:02.000Z</time>
      </trkpt>
      <trkpt lat="44.57906" lon="4.32678">
        <ele>383</ele>
        <time>2016-05-15T11:21:03.000Z</time>
      </trkpt>
      <trkpt lat="44.57906" lon="4.32678">
        <ele>383</ele>
        <time>2016-05-15T11:21:04.000Z</time>
      </trkpt>
      <trkpt lat="44.57906" lon="4.32678">
        <ele>383</ele>
        <time>2016-05-15T11:21:05.000Z</time>
      </trkpt>
      <trkpt lat="44.57906" lon="4.32678">
        <ele>383</ele>
        <time>2016-05-15T11:21:06.000Z</time>
      </trkpt>
      <trkpt lat="44.57906" lon="4.32678">
        <ele>383</ele>
        <time>2016-05-15T11:21:07.000Z</time>
      </trkpt>
      <trkpt lat="44.57906" lon="4.32678">
        <ele>383</ele>
        <time>2016-05-15T11:21:08.000Z</time>
      </trkpt>
      <trkpt lat="44.57906" lon="4.32678">
        <ele>383</ele>
        <time>2016-05-15T11:21:09.000Z</time>
      </trkpt>
      <trkpt lat="44.57906" lon="4.32678">
        <ele>383</ele>
        <time>2016-05-15T11:21:10.000Z</time>
      </trkpt>
      <trkpt lat="44.57906" lon="4.32678">
        <ele>383</ele>
        <time>2016-05-15T11:21:11.000Z</time>
      </trkpt>
      <trkpt lat="44.57906" lon="4.32678">
        <ele>383</ele>
        <time>2016-05-15T11:21:12.000Z</time>
      </trkpt>
      <trkpt lat="44.57906" lon="4.32678">
        <ele>383</ele>
        <time>2016-05-15T11:21:13.000Z</time>
      </trkpt>
      <trkpt lat="44.57906" lon="4.32678">
        <ele>383</ele>
        <time>2016-05-15T11:21:14.000Z</time>
      </trkpt>
      <trkpt lat="44.57906" lon="4.32678">
        <ele>383</ele>
        <time>2016-05-15T11:21:15.000Z</time>
      </trkpt>
      <trkpt lat="44.57906" lon="4.32678">
        <ele>383</ele>
        <time>2016-05-15T11:21:16.000Z</time>
      </trkpt>
      <trkpt lat="44.57906" lon="4.32678">
        <ele>383</ele>
        <time>2016-05-15T11:21:17.000Z</time>
      </trkpt>
      <trkpt lat="44.57906" lon="4.32678">
        <ele>383</ele>
        <time>2016-05-15T11:21:18.000Z</time>
      </trkpt>
      <trkpt lat="44.57906" lon="4.32678">
        <ele>383</ele>
        <time>2016-05-15T11:21:19.000Z</time>
      </trkpt>
      <trkpt lat="44.57907" lon="4.32678">
        <ele>383</ele>
        <time>2016-05-15T11:21:20.000Z</time>
      </trkpt>
      <trkpt lat="44.57907" lon="4.32678">
        <ele>383</ele>
        <time>2016-05-15T11:21:21.000Z</time>
      </trkpt>
      <trkpt lat="44.57907" lon="4.32678">
        <ele>383</ele>
        <time>2016-05-15T11:21:22.000Z</time>
      </trkpt>
      <trkpt lat="44.57907" lon="4.32678">
        <ele>383</ele>
        <time>2016-05-15T11:21:23.000Z</time>
      </trkpt>
      <trkpt lat="44.57907" lon="4.32678">
        <ele>383</ele>
        <time>2016-05-15T11:21:24.000Z</time>
      </trkpt>
      <trkpt lat="44.57907" lon="4.32678">
        <ele>383</ele>
        <time>2016-05-15T11:21:25.000Z</time>
      </trkpt>
      <trkpt lat="44.57907" lon="4.32678">
        <ele>383</ele>
        <time>2016-05-15T11:21:26.000Z</time>
      </trkpt>
      <trkpt lat="44.57907" lon="4.32678">
        <ele>383</ele>
        <time>2016-05-15T11:21:27.000Z</time>
      </trkpt>
      <trkpt lat="44.57907" lon="4.32678">
        <ele>383</ele>
        <time>2016-05-15T11:21:28.000Z</time>
      </trkpt>
      <trkpt lat="44.57907" lon="4.32678">
        <ele>383</ele>
        <time>2016-05-15T11:21:29.000Z</time>
      </trkpt>
      <trkpt lat="44.57907" lon="4.32678">
        <ele>383</ele>
        <time>2016-05-15T11:21:30.000Z</time>
      </trkpt>
      <trkpt lat="44.57907" lon="4.32678">
        <ele>383</ele>
        <time>2016-05-15T11:21:31.000Z</time>
      </trkpt>
      <trkpt lat="44.57907" lon="4.32678">
        <ele>383</ele>
        <time>2016-05-15T11:21:32.000Z</time>
      </trkpt>
      <trkpt lat="44.57907" lon="4.32678">
        <ele>383</ele>
        <time>2016-05-15T11:21:33.000Z</time>
      </trkpt>
      <trkpt lat="44.57907" lon="4.32678">
        <ele>383</ele>
        <time>2016-05-15T11:21:34.000Z</time>
      </trkpt>
      <trkpt lat="44.57907" lon="4.32678">
        <ele>383</ele>
        <time>2016-05-15T11:21:35.000Z</time>
      </trkpt>
      <trkpt lat="44.57907" lon="4.32678">
        <ele>383</ele>
        <time>2016-05-15T11:21:36.000Z</time>
      </trkpt>
      <trkpt lat="44.57907" lon="4.32678">
        <ele>383</ele>
        <time>2016-05-15T11:21:37.000Z</time>
      </trkpt>
      <trkpt lat="44.57907" lon="4.32678">
        <ele>383</ele>
        <time>2016-05-15T11:21:38.000Z</time>
      </trkpt>
      <trkpt lat="44.57907" lon="4.32678">
        <ele>383</ele>
        <time>2016-05-15T11:21:39.000Z</time>
      </trkpt>
      <trkpt lat="44.57907" lon="4.32678">
        <ele>383</ele>
        <time>2016-05-15T11:21:40.000Z</time>
      </trkpt>
      <trkpt lat="44.57907" lon="4.32678">
        <ele>383</ele>
        <time>2016-05-15T11:21:41.000Z</time>
      </trkpt>
      <trkpt lat="44.57907" lon="4.32678">
        <ele>383</ele>
        <time>2016-05-15T11:21:42.000Z</time>
      </trkpt>
      <trkpt lat="44.57907" lon="4.32678">
        <ele>383</ele>
        <time>2016-05-15T11:21:43.000Z</time>
      </trkpt>
      <trkpt lat="44.57907" lon="4.32678">
        <ele>383</ele>
        <time>2016-05-15T11:21:44.000Z</time>
      </trkpt>
      <trkpt lat="44.57907" lon="4.32678">
        <ele>383</ele>
        <time>2016-05-15T11:21:45.000Z</time>
      </trkpt>
      <trkpt lat="44.57907" lon="4.32678">
        <ele>383</ele>
        <time>2016-05-15T11:21:46.000Z</time>
      </trkpt>
      <trkpt lat="44.57907" lon="4.32678">
        <ele>383</ele>
        <time>2016-05-15T11:21:47.000Z</time>
      </trkpt>
      <trkpt lat="44.57907" lon="4.32678">
        <ele>383</ele>
        <time>2016-05-15T11:21:48.000Z</time>
      </trkpt>
      <trkpt lat="44.57907" lon="4.32678">
        <ele>383</ele>
        <time>2016-05-15T11:21:49.000Z</time>
      </trkpt>
      <trkpt lat="44.57907" lon="4.32678">
        <ele>383</ele>
        <time>2016-05-15T11:21:50.000Z</time>
      </trkpt>
      <trkpt lat="44.57907" lon="4.32678">
        <ele>383</ele>
        <time>2016-05-15T11:21:51.000Z</time>
      </trkpt>
      <trkpt lat="44.57907" lon="4.32678">
        <ele>383</ele>
        <time>2016-05-15T11:21:52.000Z</time>
      </trkpt>
      <trkpt lat="44.57906" lon="4.32678">
        <ele>383</ele>
        <time>2016-05-15T11:21:53.000Z</time>
      </trkpt>
      <trkpt lat="44.57906" lon="4.32678">
        <ele>383</ele>
        <time>2016-05-15T11:21:54.000Z</time>
      </trkpt>
      <trkpt lat="44.57906" lon="4.32678">
        <ele>383</ele>
        <time>2016-05-15T11:21:55.000Z</time>
      </trkpt>
      <trkpt lat="44.57906" lon="4.32678">
        <ele>383</ele>
        <time>2016-05-15T11:21:56.000Z</time>
      </trkpt>
      <trkpt lat="44.57906" lon="4.32678">
        <ele>383</ele>
        <time>2016-05-15T11:21:57.000Z</time>
      </trkpt>
      <trkpt lat="44.57906" lon="4.32678">
        <ele>383</ele>
        <time>2016-05-15T11:21:58.000Z</time>
      </trkpt>
      <trkpt lat="44.57906" lon="4.32677">
        <ele>383</ele>
        <time>2016-05-15T11:21:59.000Z</time>
      </trkpt>
      <trkpt lat="44.57906" lon="4.32677">
        <ele>383</ele>
        <time>2016-05-15T11:22:00.000Z</time>
      </trkpt>
      <trkpt lat="44.57906" lon="4.32677">
        <ele>383</ele>
        <time>2016-05-15T11:22:01.000Z</time>
      </trkpt>
      <trkpt lat="44.57906" lon="4.32677">
        <ele>383</ele>
        <time>2016-05-15T11:22:02.000Z</time>
      </trkpt>
      <trkpt lat="44.57906" lon="4.32677">
        <ele>383</ele>
        <time>2016-05-15T11:22:03.000Z</time>
      </trkpt>
      <trkpt lat="44.57906" lon="4.32677">
        <ele>383</ele>
        <time>2016-05-15T11:22:04.000Z</time>
      </trkpt>
      <trkpt lat="44.57906" lon="4.32677">
        <ele>383</ele>
        <time>2016-05-15T11:22:05.000Z</time>
      </trkpt>
      <trkpt lat="44.57906" lon="4.32677">
        <ele>383</ele>
        <time>2016-05-15T11:22:06.000Z</time>
      </trkpt>
      <trkpt lat="44.57906" lon="4.32677">
        <ele>383</ele>
        <time>2016-05-15T11:22:07.000Z</time>
      </trkpt>
      <trkpt lat="44.57906" lon="4.32677">
        <ele>383</ele>
        <time>2016-05-15T11:22:08.000Z</time>
      </trkpt>
      <trkpt lat="44.57906" lon="4.32677">
        <ele>383</ele>
        <time>2016-05-15T11:22:09.000Z</time>
      </trkpt>
      <trkpt lat="44.57906" lon="4.32677">
        <ele>383</ele>
        <time>2016-05-15T11:22:10.000Z</time>
      </trkpt>
      <trkpt lat="44.57906" lon="4.32677">
        <ele>383</ele>
        <time>2016-05-15T11:22:11.000Z</time>
      </trkpt>
      <trkpt lat="44.57906" lon="4.32677">
        <ele>383</ele>
        <time>2016-05-15T11:22:12.000Z</time>
      </trkpt>
      <trkpt lat="44.57906" lon="4.32677">
        <ele>383</ele>
        <time>2016-05-15T11:22:13.000Z</time>
      </trkpt>
      <trkpt lat="44.57906" lon="4.32677">
        <ele>383</ele>
        <time>2016-05-15T11:22:14.000Z</time>
      </trkpt>
      <trkpt lat="44.57906" lon="4.32677">
        <ele>383</ele>
        <time>2016-05-15T11:22:15.000Z</time>
      </trkpt>
      <trkpt lat="44.57906" lon="4.32677">
        <ele>383</ele>
        <time>2016-05-15T11:22:16.000Z</time>
      </trkpt>
      <trkpt lat="44.57906" lon="4.32677">
        <ele>383</ele>
        <time>2016-05-15T11:22:17.000Z</time>
      </trkpt>
      <trkpt lat="44.57906" lon="4.32677">
        <ele>383</ele>
        <time>2016-05-15T11:22:18.000Z</time>
      </trkpt>
      <trkpt lat="44.57906" lon="4.32677">
        <ele>383</ele>
        <time>2016-05-15T11:22:19.000Z</time>
      </trkpt>
      <trkpt lat="44.57906" lon="4.32677">
        <ele>383</ele>
        <time>2016-05-15T11:22:20.000Z</time>
      </trkpt>
      <trkpt lat="44.57906" lon="4.32677">
        <ele>383</ele>
        <time>2016-05-15T11:22:21.000Z</time>
      </trkpt>
      <trkpt lat="44.57906" lon="4.32677">
        <ele>383</ele>
        <time>2016-05-15T11:22:22.000Z</time>
      </trkpt>
      <trkpt lat="44.57906" lon="4.32677">
        <ele>383</ele>
        <time>2016-05-15T11:22:23.000Z</time>
      </trkpt>
      <trkpt lat="44.57906" lon="4.32677">
        <ele>383</ele>
        <time>2016-05-15T11:22:24.000Z</time>
      </trkpt>
      <trkpt lat="44.57906" lon="4.32677">
        <ele>383</ele>
        <time>2016-05-15T11:22:25.000Z</time>
      </trkpt>
      <trkpt lat="44.57906" lon="4.32677">
        <ele>383</ele>
        <time>2016-05-15T11:22:26.000Z</time>
      </trkpt>
      <trkpt lat="44.57906" lon="4.32677">
        <ele>383</ele>
        <time>2016-05-15T11:22:27.000Z</time>
      </trkpt>
      <trkpt lat="44.57906" lon="4.32677">
        <ele>383</ele>
        <time>2016-05-15T11:22:28.000Z</time>
      </trkpt>
      <trkpt lat="44.57906" lon="4.32677">
        <ele>383</ele>
        <time>2016-05-15T11:22:29.000Z</time>
      </trkpt>
      <trkpt lat="44.57906" lon="4.32677">
        <ele>383</ele>
        <time>2016-05-15T11:22:30.000Z</time>
      </trkpt>
      <trkpt lat="44.57906" lon="4.32677">
        <ele>383</ele>
        <time>2016-05-15T11:22:31.000Z</time>
      </trkpt>
      <trkpt lat="44.57906" lon="4.32677">
        <ele>383</ele>
        <time>2016-05-15T11:22:32.000Z</time>
      </trkpt>
      <trkpt lat="44.57906" lon="4.32677">
        <ele>383</ele>
        <time>2016-05-15T11:22:33.000Z</time>
      </trkpt>
      <trkpt lat="44.57906" lon="4.32677">
        <ele>383</ele>
        <time>2016-05-15T11:22:34.000Z</time>
      </trkpt>
      <trkpt lat="44.57906" lon="4.32677">
        <ele>383</ele>
        <time>2016-05-15T11:22:35.000Z</time>
      </trkpt>
      <trkpt lat="44.57906" lon="4.32677">
        <ele>383</ele>
        <time>2016-05-15T11:22:36.000Z</time>
      </trkpt>
      <trkpt lat="44.57906" lon="4.32677">
        <ele>383</ele>
        <time>2016-05-15T11:22:37.000Z</time>
      </trkpt>
      <trkpt lat="44.57906" lon="4.32677">
        <ele>383</ele>
        <time>2016-05-15T11:22:38.000Z</time>
      </trkpt>
      <trkpt lat="44.57906" lon="4.32677">
        <ele>383</ele>
        <time>2016-05-15T11:22:39.000Z</time>
      </trkpt>
      <trkpt lat="44.57906" lon="4.32677">
        <ele>383</ele>
        <time>2016-05-15T11:22:40.000Z</time>
      </trkpt>
      <trkpt lat="44.57906" lon="4.32677">
        <ele>383</ele>
        <time>2016-05-15T11:22:41.000Z</time>
      </trkpt>
      <trkpt lat="44.57906" lon="4.32677">
        <ele>383</ele>
        <time>2016-05-15T11:22:42.000Z</time>
      </trkpt>
      <trkpt lat="44.57906" lon="4.32677">
        <ele>383</ele>
        <time>2016-05-15T11:22:43.000Z</time>
      </trkpt>
      <trkpt lat="44.57906" lon="4.32677">
        <ele>383</ele>
        <time>2016-05-15T11:22:44.000Z</time>
      </trkpt>
      <trkpt lat="44.57906" lon="4.32677">
        <ele>383</ele>
        <time>2016-05-15T11:22:45.000Z</time>
      </trkpt>
      <trkpt lat="44.57906" lon="4.32677">
        <ele>383</ele>
        <time>2016-05-15T11:22:46.000Z</time>
      </trkpt>
      <trkpt lat="44.57906" lon="4.32677">
        <ele>383</ele>
        <time>2016-05-15T11:22:47.000Z</time>
      </trkpt>
      <trkpt lat="44.57906" lon="4.32677">
        <ele>383</ele>
        <time>2016-05-15T11:22:48.000Z</time>
      </trkpt>
      <trkpt lat="44.57906" lon="4.32677">
        <ele>383</ele>
        <time>2016-05-15T11:22:49.000Z</time>
      </trkpt>
      <trkpt lat="44.57906" lon="4.32677">
        <ele>383</ele>
        <time>2016-05-15T11:22:50.000Z</time>
      </trkpt>
      <trkpt lat="44.57906" lon="4.32677">
        <ele>383</ele>
        <time>2016-05-15T11:22:51.000Z</time>
      </trkpt>
      <trkpt lat="44.57906" lon="4.32677">
        <ele>383</ele>
        <time>2016-05-15T11:22:52.000Z</time>
      </trkpt>
      <trkpt lat="44.57906" lon="4.32677">
        <ele>383</ele>
        <time>2016-05-15T11:22:53.000Z</time>
      </trkpt>
      <trkpt lat="44.57907" lon="4.32677">
        <ele>383</ele>
        <time>2016-05-15T11:22:54.000Z</time>
      </trkpt>
      <trkpt lat="44.57907" lon="4.32677">
        <ele>383</ele>
        <time>2016-05-15T11:22:55.000Z</time>
      </trkpt>
      <trkpt lat="44.57907" lon="4.32677">
        <ele>383</ele>
        <time>2016-05-15T11:22:56.000Z</time>
      </trkpt>
      <trkpt lat="44.57907" lon="4.32677">
        <ele>383</ele>
        <time>2016-05-15T11:22:57.000Z</time>
      </trkpt>
      <trkpt lat="44.57907" lon="4.32677">
        <ele>383</ele>
        <time>2016-05-15T11:22:58.000Z</time>
      </trkpt>
      <trkpt lat="44.57907" lon="4.32677">
        <ele>383</ele>
        <time>2016-05-15T11:22:59.000Z</time>
      </trkpt>
      <trkpt lat="44.57907" lon="4.32677">
        <ele>383</ele>
        <time>2016-05-15T11:23:00.000Z</time>
      </trkpt>
      <trkpt lat="44.57907" lon="4.32677">
        <ele>383</ele>
        <time>2016-05-15T11:23:01.000Z</time>
      </trkpt>
      <trkpt lat="44.57907" lon="4.32677">
        <ele>383</ele>
        <time>2016-05-15T11:23:02.000Z</time>
      </trkpt>
      <trkpt lat="44.57907" lon="4.32677">
        <ele>383</ele>
        <time>2016-05-15T11:23:03.000Z</time>
      </trkpt>
      <trkpt lat="44.57907" lon="4.32677">
        <ele>383</ele>
        <time>2016-05-15T11:23:04.000Z</time>
      </trkpt>
      <trkpt lat="44.57907" lon="4.32677">
        <ele>383</ele>
        <time>2016-05-15T11:23:05.000Z</time>
      </trkpt>
      <trkpt lat="44.57907" lon="4.32677">
        <ele>383</ele>
        <time>2016-05-15T11:23:06.000Z</time>
      </trkpt>
      <trkpt lat="44.57907" lon="4.32677">
        <ele>383</ele>
        <time>2016-05-15T11:23:07.000Z</time>
      </trkpt>
      <trkpt lat="44.57907" lon="4.32677">
        <ele>383</ele>
        <time>2016-05-15T11:23:08.000Z</time>
      </trkpt>
      <trkpt lat="44.57907" lon="4.32677">
        <ele>383</ele>
        <time>2016-05-15T11:23:09.000Z</time>
      </trkpt>
      <trkpt lat="44.57907" lon="4.32677">
        <ele>383</ele>
        <time>2016-05-15T11:23:10.000Z</time>
      </trkpt>
      <trkpt lat="44.57907" lon="4.32677">
        <ele>383</ele>
        <time>2016-05-15T11:23:11.000Z</time>
      </trkpt>
      <trkpt lat="44.57907" lon="4.32677">
        <ele>383</ele>
        <time>2016-05-15T11:23:12.000Z</time>
      </trkpt>
      <trkpt lat="44.57907" lon="4.32677">
        <ele>383</ele>
        <time>2016-05-15T11:23:13.000Z</time>
      </trkpt>
      <trkpt lat="44.57907" lon="4.32677">
        <ele>383</ele>
        <time>2016-05-15T11:23:14.000Z</time>
      </trkpt>
      <trkpt lat="44.57907" lon="4.32677">
        <ele>383</ele>
        <time>2016-05-15T11:23:15.000Z</time>
      </trkpt>
      <trkpt lat="44.57907" lon="4.32677">
        <ele>383</ele>
        <time>2016-05-15T11:23:16.000Z</time>
      </trkpt>
      <trkpt lat="44.57907" lon="4.32677">
        <ele>383</ele>
        <time>2016-05-15T11:23:17.000Z</time>
      </trkpt>
      <trkpt lat="44.57907" lon="4.32677">
        <ele>383</ele>
        <time>2016-05-15T11:23:18.000Z</time>
      </trkpt>
      <trkpt lat="44.57907" lon="4.32677">
        <ele>383</ele>
        <time>2016-05-15T11:23:19.000Z</time>
      </trkpt>
      <trkpt lat="44.57907" lon="4.32677">
        <ele>383</ele>
        <time>2016-05-15T11:23:20.000Z</time>
      </trkpt>
      <trkpt lat="44.57907" lon="4.32677">
        <ele>383</ele>
        <time>2016-05-15T11:23:21.000Z</time>
      </trkpt>
      <trkpt lat="44.57907" lon="4.32677">
        <ele>383</ele>
        <time>2016-05-15T11:23:22.000Z</time>
      </trkpt>
      <trkpt lat="44.57907" lon="4.32677">
        <ele>383</ele>
        <time>2016-05-15T11:23:23.000Z</time>
      </trkpt>
      <trkpt lat="44.57907" lon="4.32677">
        <ele>383</ele>
        <time>2016-05-15T11:23:24.000Z</time>
      </trkpt>
      <trkpt lat="44.57907" lon="4.32677">
        <ele>383</ele>
        <time>2016-05-15T11:23:25.000Z</time>
      </trkpt>
      <trkpt lat="44.57907" lon="4.32677">
        <ele>383</ele>
        <time>2016-05-15T11:23:26.000Z</time>
      </trkpt>
      <trkpt lat="44.57907" lon="4.32677">
        <ele>383</ele>
        <time>2016-05-15T11:23:27.000Z</time>
      </trkpt>
      <trkpt lat="44.57907" lon="4.32677">
        <ele>383</ele>
        <time>2016-05-15T11:23:28.000Z</time>
      </trkpt>
      <trkpt lat="44.57907" lon="4.32677">
        <ele>383</ele>
        <time>2016-05-15T11:23:29.000Z</time>
      </trkpt>
      <trkpt lat="44.57907" lon="4.32677">
        <ele>383</ele>
        <time>2016-05-15T11:23:30.000Z</time>
      </trkpt>
      <trkpt lat="44.57907" lon="4.32677">
        <ele>383</ele>
        <time>2016-05-15T11:23:31.000Z</time>
      </trkpt>
      <trkpt lat="44.57907" lon="4.32677">
        <ele>383</ele>
        <time>2016-05-15T11:23:32.000Z</time>
      </trkpt>
      <trkpt lat="44.57907" lon="4.32677">
        <ele>383</ele>
        <time>2016-05-15T11:23:33.000Z</time>
      </trkpt>
      <trkpt lat="44.57907" lon="4.32677">
        <ele>383</ele>
        <time>2016-05-15T11:23:34.000Z</time>
      </trkpt>
      <trkpt lat="44.57907" lon="4.32677">
        <ele>383</ele>
        <time>2016-05-15T11:23:35.000Z</time>
      </trkpt>
      <trkpt lat="44.57907" lon="4.32677">
        <ele>383</ele>
        <time>2016-05-15T11:23:36.000Z</time>
      </trkpt>
      <trkpt lat="44.57907" lon="4.32677">
        <ele>383</ele>
        <time>2016-05-15T11:23:37.000Z</time>
      </trkpt>
      <trkpt lat="44.57907" lon="4.32677">
        <ele>383</ele>
        <time>2016-05-15T11:23:38.000Z</time>
      </trkpt>
      <trkpt lat="44.57907" lon="4.32677">
        <ele>383</ele>
        <time>2016-05-15T11:23:39.000Z</time>
      </trkpt>
      <trkpt lat="44.57907" lon="4.32677">
        <ele>383</ele>
        <time>2016-05-15T11:23:40.000Z</time>
      </trkpt>
      <trkpt lat="44.57907" lon="4.32677">
        <ele>383</ele>
        <time>2016-05-15T11:23:41.000Z</time>
      </trkpt>
      <trkpt lat="44.57907" lon="4.32677">
        <ele>383</ele>
        <time>2016-05-15T11:23:42.000Z</time>
      </trkpt>
      <trkpt lat="44.57907" lon="4.32677">
        <ele>383</ele>
        <time>2016-05-15T11:23:43.000Z</time>
      </trkpt>
      <trkpt lat="44.57907" lon="4.32677">
        <ele>383</ele>
        <time>2016-05-15T11:23:44.000Z</time>
      </trkpt>
      <trkpt lat="44.57907" lon="4.32677">
        <ele>383</ele>
        <time>2016-05-15T11:23:45.000Z</time>
      </trkpt>
      <trkpt lat="44.57907" lon="4.32677">
        <ele>383</ele>
        <time>2016-05-15T11:23:46.000Z</time>
      </trkpt>
      <trkpt lat="44.57907" lon="4.32677">
        <ele>383</ele>
        <time>2016-05-15T11:23:47.000Z</time>
      </trkpt>
      <trkpt lat="44.57907" lon="4.32677">
        <ele>383</ele>
        <time>2016-05-15T11:23:48.000Z</time>
      </trkpt>
      <trkpt lat="44.57907" lon="4.32677">
        <ele>383</ele>
        <time>2016-05-15T11:23:49.000Z</time>
      </trkpt>
      <trkpt lat="44.57907" lon="4.32677">
        <ele>383</ele>
        <time>2016-05-15T11:23:50.000Z</time>
      </trkpt>
      <trkpt lat="44.57907" lon="4.32677">
        <ele>383</ele>
        <time>2016-05-15T11:23:51.000Z</time>
      </trkpt>
      <trkpt lat="44.57907" lon="4.32677">
        <ele>383</ele>
        <time>2016-05-15T11:23:52.000Z</time>
      </trkpt>
      <trkpt lat="44.57907" lon="4.32677">
        <ele>383</ele>
        <time>2016-05-15T11:23:53.000Z</time>
      </trkpt>
      <trkpt lat="44.57907" lon="4.32677">
        <ele>383</ele>
        <time>2016-05-15T11:23:54.000Z</time>
      </trkpt>
      <trkpt lat="44.57907" lon="4.32677">
        <ele>383</ele>
        <time>2016-05-15T11:23:55.000Z</time>
      </trkpt>
      <trkpt lat="44.57907" lon="4.32677">
        <ele>383</ele>
        <time>2016-05-15T11:23:56.000Z</time>
      </trkpt>
      <trkpt lat="44.57907" lon="4.32677">
        <ele>383</ele>
        <time>2016-05-15T11:23:57.000Z</time>
      </trkpt>
      <trkpt lat="44.57907" lon="4.32677">
        <ele>383</ele>
        <time>2016-05-15T11:23:58.000Z</time>
      </trkpt>
      <trkpt lat="44.57907" lon="4.32677">
        <ele>383</ele>
        <time>2016-05-15T11:23:59.000Z</time>
      </trkpt>
      <trkpt lat="44.57907" lon="4.32677">
        <ele>383</ele>
        <time>2016-05-15T11:24:00.000Z</time>
      </trkpt>
      <trkpt lat="44.57907" lon="4.32677">
        <ele>383</ele>
        <time>2016-05-15T11:24:01.000Z</time>
      </trkpt>
      <trkpt lat="44.57907" lon="4.32677">
        <ele>383</ele>
        <time>2016-05-15T11:24:02.000Z</time>
      </trkpt>
      <trkpt lat="44.57907" lon="4.32677">
        <ele>383</ele>
        <time>2016-05-15T11:24:03.000Z</time>
      </trkpt>
      <trkpt lat="44.57907" lon="4.32677">
        <ele>383</ele>
        <time>2016-05-15T11:24:04.000Z</time>
      </trkpt>
      <trkpt lat="44.57907" lon="4.32677">
        <ele>383</ele>
        <time>2016-05-15T11:24:05.000Z</time>
      </trkpt>
      <trkpt lat="44.57907" lon="4.32677">
        <ele>383</ele>
        <time>2016-05-15T11:24:06.000Z</time>
      </trkpt>
      <trkpt lat="44.57907" lon="4.32677">
        <ele>383</ele>
        <time>2016-05-15T11:24:07.000Z</time>
      </trkpt>
      <trkpt lat="44.57907" lon="4.32677">
        <ele>383</ele>
        <time>2016-05-15T11:24:08.000Z</time>
      </trkpt>
      <trkpt lat="44.57907" lon="4.32677">
        <ele>383</ele>
        <time>2016-05-15T11:24:09.000Z</time>
      </trkpt>
      <trkpt lat="44.57907" lon="4.32676">
        <ele>383</ele>
        <time>2016-05-15T11:24:10.000Z</time>
      </trkpt>
      <trkpt lat="44.57907" lon="4.32676">
        <ele>383</ele>
        <time>2016-05-15T11:24:11.000Z</time>
      </trkpt>
      <trkpt lat="44.57907" lon="4.32676">
        <ele>383</ele>
        <time>2016-05-15T11:24:12.000Z</time>
      </trkpt>
      <trkpt lat="44.57907" lon="4.32676">
        <ele>383</ele>
        <time>2016-05-15T11:24:13.000Z</time>
      </trkpt>
      <trkpt lat="44.57907" lon="4.32676">
        <ele>383</ele>
        <time>2016-05-15T11:24:14.000Z</time>
      </trkpt>
      <trkpt lat="44.57907" lon="4.32676">
        <ele>383</ele>
        <time>2016-05-15T11:24:15.000Z</time>
      </trkpt>
      <trkpt lat="44.57907" lon="4.32676">
        <ele>383</ele>
        <time>2016-05-15T11:24:16.000Z</time>
      </trkpt>
      <trkpt lat="44.57907" lon="4.32676">
        <ele>383</ele>
        <time>2016-05-15T11:24:17.000Z</time>
      </trkpt>
      <trkpt lat="44.57907" lon="4.32676">
        <ele>383</ele>
        <time>2016-05-15T11:24:18.000Z</time>
      </trkpt>
      <trkpt lat="44.57907" lon="4.32676">
        <ele>383</ele>
        <time>2016-05-15T11:24:19.000Z</time>
      </trkpt>
      <trkpt lat="44.57907" lon="4.32676">
        <ele>383</ele>
        <time>2016-05-15T11:24:20.000Z</time>
      </trkpt>
      <trkpt lat="44.57907" lon="4.32676">
        <ele>383</ele>
        <time>2016-05-15T11:24:21.000Z</time>
      </trkpt>
      <trkpt lat="44.57907" lon="4.32676">
        <ele>383</ele>
        <time>2016-05-15T11:24:22.000Z</time>
      </trkpt>
      <trkpt lat="44.57907" lon="4.32676">
        <ele>383</ele>
        <time>2016-05-15T11:24:23.000Z</time>
      </trkpt>
      <trkpt lat="44.57907" lon="4.32676">
        <ele>383</ele>
        <time>2016-05-15T11:24:24.000Z</time>
      </trkpt>
      <trkpt lat="44.57907" lon="4.32676">
        <ele>383</ele>
        <time>2016-05-15T11:24:25.000Z</time>
      </trkpt>
      <trkpt lat="44.57907" lon="4.32676">
        <ele>383</ele>
        <time>2016-05-15T11:24:26.000Z</time>
      </trkpt>
      <trkpt lat="44.57907" lon="4.32676">
        <ele>383</ele>
        <time>2016-05-15T11:24:27.000Z</time>
      </trkpt>
      <trkpt lat="44.57907" lon="4.32676">
        <ele>383</ele>
        <time>2016-05-15T11:24:28.000Z</time>
      </trkpt>
      <trkpt lat="44.57907" lon="4.32676">
        <ele>383</ele>
        <time>2016-05-15T11:24:29.000Z</time>
      </trkpt>
      <trkpt lat="44.57907" lon="4.32676">
        <ele>383</ele>
        <time>2016-05-15T11:24:30.000Z</time>
      </trkpt>
      <trkpt lat="44.57907" lon="4.32676">
        <ele>383</ele>
        <time>2016-05-15T11:24:31.000Z</time>
      </trkpt>
      <trkpt lat="44.57907" lon="4.32676">
        <ele>383</ele>
        <time>2016-05-15T11:24:32.000Z</time>
      </trkpt>
      <trkpt lat="44.57907" lon="4.32676">
        <ele>383</ele>
        <time>2016-05-15T11:24:33.000Z</time>
      </trkpt>
      <trkpt lat="44.57907" lon="4.32676">
        <ele>383</ele>
        <time>2016-05-15T11:24:34.000Z</time>
      </trkpt>
      <trkpt lat="44.57907" lon="4.32676">
        <ele>383</ele>
        <time>2016-05-15T11:24:35.000Z</time>
      </trkpt>
      <trkpt lat="44.57907" lon="4.32676">
        <ele>383</ele>
        <time>2016-05-15T11:24:36.000Z</time>
      </trkpt>
      <trkpt lat="44.57907" lon="4.32676">
        <ele>383</ele>
        <time>2016-05-15T11:24:37.000Z</time>
      </trkpt>
      <trkpt lat="44.57907" lon="4.32676">
        <ele>383</ele>
        <time>2016-05-15T11:24:38.000Z</time>
      </trkpt>
      <trkpt lat="44.57907" lon="4.32676">
        <ele>383</ele>
        <time>2016-05-15T11:24:39.000Z</time>
      </trkpt>
      <trkpt lat="44.57907" lon="4.32676">
        <ele>383</ele>
        <time>2016-05-15T11:24:40.000Z</time>
      </trkpt>
      <trkpt lat="44.57907" lon="4.32677">
        <ele>383</ele>
        <time>2016-05-15T11:24:41.000Z</time>
      </trkpt>
      <trkpt lat="44.57907" lon="4.32677">
        <ele>383</ele>
        <time>2016-05-15T11:24:42.000Z</time>
      </trkpt>
      <trkpt lat="44.57907" lon="4.32677">
        <ele>383</ele>
        <time>2016-05-15T11:24:43.000Z</time>
      </trkpt>
      <trkpt lat="44.57907" lon="4.32677">
        <ele>383</ele>
        <time>2016-05-15T11:24:44.000Z</time>
      </trkpt>
      <trkpt lat="44.57907" lon="4.32677">
        <ele>383</ele>
        <time>2016-05-15T11:24:45.000Z</time>
      </trkpt>
      <trkpt lat="44.57907" lon="4.32677">
        <ele>383</ele>
        <time>2016-05-15T11:24:46.000Z</time>
      </trkpt>
      <trkpt lat="44.57907" lon="4.32677">
        <ele>383</ele>
        <time>2016-05-15T11:24:47.000Z</time>
      </trkpt>
      <trkpt lat="44.57907" lon="4.32677">
        <ele>383</ele>
        <time>2016-05-15T11:24:48.000Z</time>
      </trkpt>
      <trkpt lat="44.57907" lon="4.32677">
        <ele>383</ele>
        <time>2016-05-15T11:24:49.000Z</time>
      </trkpt>
      <trkpt lat="44.57907" lon="4.32677">
        <ele>383</ele>
        <time>2016-05-15T11:24:50.000Z</time>
      </trkpt>
      <trkpt lat="44.57907" lon="4.32677">
        <ele>383</ele>
        <time>2016-05-15T11:24:51.000Z</time>
      </trkpt>
      <trkpt lat="44.57907" lon="4.32677">
        <ele>383</ele>
        <time>2016-05-15T11:24:52.000Z</time>
      </trkpt>
      <trkpt lat="44.57907" lon="4.32677">
        <ele>383</ele>
        <time>2016-05-15T11:24:53.000Z</time>
      </trkpt>
      <trkpt lat="44.57906" lon="4.32677">
        <ele>383</ele>
        <time>2016-05-15T11:24:54.000Z</time>
      </trkpt>
      <trkpt lat="44.57906" lon="4.32676">
        <ele>383</ele>
        <time>2016-05-15T11:24:55.000Z</time>
      </trkpt>
      <trkpt lat="44.57907" lon="4.32676">
        <ele>383</ele>
        <time>2016-05-15T11:24:56.000Z</time>
      </trkpt>
      <trkpt lat="44.57907" lon="4.32676">
        <ele>383</ele>
        <time>2016-05-15T11:24:57.000Z</time>
      </trkpt>
      <trkpt lat="44.57907" lon="4.32676">
        <ele>383</ele>
        <time>2016-05-15T11:24:58.000Z</time>
      </trkpt>
      <trkpt lat="44.57907" lon="4.32676">
        <ele>383</ele>
        <time>2016-05-15T11:24:59.000Z</time>
      </trkpt>
      <trkpt lat="44.57907" lon="4.32676">
        <ele>383</ele>
        <time>2016-05-15T11:25:00.000Z</time>
      </trkpt>
      <trkpt lat="44.57908" lon="4.32677">
        <ele>384</ele>
        <time>2016-05-15T11:25:01.000Z</time>
      </trkpt>
      <trkpt lat="44.57908" lon="4.32677">
        <ele>384</ele>
        <time>2016-05-15T11:25:02.000Z</time>
      </trkpt>
      <trkpt lat="44.57909" lon="4.32678">
        <ele>384</ele>
        <time>2016-05-15T11:25:03.000Z</time>
      </trkpt>
      <trkpt lat="44.57909" lon="4.32678">
        <ele>384</ele>
        <time>2016-05-15T11:25:04.000Z</time>
      </trkpt>
      <trkpt lat="44.57909" lon="4.32678">
        <ele>384</ele>
        <time>2016-05-15T11:25:05.000Z</time>
      </trkpt>
      <trkpt lat="44.57909" lon="4.32678">
        <ele>384</ele>
        <time>2016-05-15T11:25:06.000Z</time>
      </trkpt>
      <trkpt lat="44.5791" lon="4.32679">
        <ele>384</ele>
        <time>2016-05-15T11:25:07.000Z</time>
      </trkpt>
      <trkpt lat="44.5791" lon="4.3268">
        <ele>384</ele>
        <time>2016-05-15T11:25:08.000Z</time>
      </trkpt>
      <trkpt lat="44.57911" lon="4.32682">
        <ele>384</ele>
        <time>2016-05-15T11:25:09.000Z</time>
      </trkpt>
      <trkpt lat="44.57912" lon="4.32684">
        <ele>384</ele>
        <time>2016-05-15T11:25:10.000Z</time>
      </trkpt>
      <trkpt lat="44.57914" lon="4.32686">
        <ele>384</ele>
        <time>2016-05-15T11:25:11.000Z</time>
      </trkpt>
      <trkpt lat="44.57915" lon="4.32688">
        <ele>384</ele>
        <time>2016-05-15T11:25:12.000Z</time>
      </trkpt>
      <trkpt lat="44.57917" lon="4.3269">
        <ele>384</ele>
        <time>2016-05-15T11:25:13.000Z</time>
      </trkpt>
      <trkpt lat="44.57918" lon="4.32692">
        <ele>388</ele>
        <time>2016-05-15T11:25:14.000Z</time>
      </trkpt>
      <trkpt lat="44.57919" lon="4.32694">
        <ele>389</ele>
        <time>2016-05-15T11:25:15.000Z</time>
      </trkpt>
      <trkpt lat="44.5792" lon="4.32696">
        <ele>389</ele>
        <time>2016-05-15T11:25:16.000Z</time>
      </trkpt>
      <trkpt lat="44.57921" lon="4.32698">
        <ele>389</ele>
        <time>2016-05-15T11:25:17.000Z</time>
      </trkpt>
      <trkpt lat="44.57923" lon="4.327">
        <ele>389</ele>
        <time>2016-05-15T11:25:18.000Z</time>
      </trkpt>
      <trkpt lat="44.57923" lon="4.32702">
        <ele>390</ele>
        <time>2016-05-15T11:25:19.000Z</time>
      </trkpt>
      <trkpt lat="44.57925" lon="4.32705">
        <ele>390</ele>
        <time>2016-05-15T11:25:20.000Z</time>
      </trkpt>
      <trkpt lat="44.57926" lon="4.32707">
        <ele>390</ele>
        <time>2016-05-15T11:25:21.000Z</time>
      </trkpt>
      <trkpt lat="44.57927" lon="4.32709">
        <ele>390</ele>
        <time>2016-05-15T11:25:22.000Z</time>
      </trkpt>
      <trkpt lat="44.57928" lon="4.32711">
        <ele>391</ele>
        <time>2016-05-15T11:25:23.000Z</time>
      </trkpt>
      <trkpt lat="44.57929" lon="4.32713">
        <ele>391</ele>
        <time>2016-05-15T11:25:24.000Z</time>
      </trkpt>
      <trkpt lat="44.5793" lon="4.32716">
        <ele>391</ele>
        <time>2016-05-15T11:25:25.000Z</time>
      </trkpt>
      <trkpt lat="44.57931" lon="4.32718">
        <ele>391</ele>
        <time>2016-05-15T11:25:26.000Z</time>
      </trkpt>
      <trkpt lat="44.57932" lon="4.3272">
        <ele>392</ele>
        <time>2016-05-15T11:25:27.000Z</time>
      </trkpt>
      <trkpt lat="44.57933" lon="4.32722">
        <ele>392</ele>
        <time>2016-05-15T11:25:28.000Z</time>
      </trkpt>
      <trkpt lat="44.57934" lon="4.32725">
        <ele>392</ele>
        <time>2016-05-15T11:25:29.000Z</time>
      </trkpt>
      <trkpt lat="44.57935" lon="4.32727">
        <ele>392</ele>
        <time>2016-05-15T11:25:30.000Z</time>
      </trkpt>
      <trkpt lat="44.57936" lon="4.32729">
        <ele>392</ele>
        <time>2016-05-15T11:25:31.000Z</time>
      </trkpt>
      <trkpt lat="44.57937" lon="4.32731">
        <ele>393</ele>
        <time>2016-05-15T11:25:32.000Z</time>
      </trkpt>
      <trkpt lat="44.57938" lon="4.32734">
        <ele>393</ele>
        <time>2016-05-15T11:25:33.000Z</time>
      </trkpt>
      <trkpt lat="44.57939" lon="4.32736">
        <ele>393</ele>
        <time>2016-05-15T11:25:34.000Z</time>
      </trkpt>
      <trkpt lat="44.57941" lon="4.32738">
        <ele>393</ele>
        <time>2016-05-15T11:25:35.000Z</time>
      </trkpt>
      <trkpt lat="44.57942" lon="4.3274">
        <ele>393</ele>
        <time>2016-05-15T11:25:36.000Z</time>
      </trkpt>
      <trkpt lat="44.57943" lon="4.32742">
        <ele>393</ele>
        <time>2016-05-15T11:25:37.000Z</time>
      </trkpt>
      <trkpt lat="44.57945" lon="4.32743">
        <ele>393</ele>
        <time>2016-05-15T11:25:38.000Z</time>
      </trkpt>
      <trkpt lat="44.57946" lon="4.32745">
        <ele>393</ele>
        <time>2016-05-15T11:25:39.000Z</time>
      </trkpt>
      <trkpt lat="44.57948" lon="4.32746">
        <ele>393</ele>
        <time>2016-05-15T11:25:40.000Z</time>
      </trkpt>
      <trkpt lat="44.5795" lon="4.32746">
        <ele>393</ele>
        <time>2016-05-15T11:25:41.000Z</time>
      </trkpt>
      <trkpt lat="44.57951" lon="4.32747">
        <ele>393</ele>
        <time>2016-05-15T11:25:42.000Z</time>
      </trkpt>
      <trkpt lat="44.57953" lon="4.32748">
        <ele>393</ele>
        <time>2016-05-15T11:25:43.000Z</time>
      </trkpt>
      <trkpt lat="44.57955" lon="4.32748">
        <ele>393</ele>
        <time>2016-05-15T11:25:44.000Z</time>
      </trkpt>
      <trkpt lat="44.57956" lon="4.32748">
        <ele>393</ele>
        <time>2016-05-15T11:25:45.000Z</time>
      </trkpt>
      <trkpt lat="44.57958" lon="4.32748">
        <ele>393</ele>
        <time>2016-05-15T11:25:46.000Z</time>
      </trkpt>
      <trkpt lat="44.57959" lon="4.32749">
        <ele>394</ele>
        <time>2016-05-15T11:25:47.000Z</time>
      </trkpt>
      <trkpt lat="44.57961" lon="4.3275">
        <ele>394</ele>
        <time>2016-05-15T11:25:48.000Z</time>
      </trkpt>
      <trkpt lat="44.57962" lon="4.32751">
        <ele>404</ele>
        <time>2016-05-15T11:25:49.000Z</time>
      </trkpt>
      <trkpt lat="44.57964" lon="4.32751">
        <ele>404</ele>
        <time>2016-05-15T11:25:50.000Z</time>
      </trkpt>
      <trkpt lat="44.57965" lon="4.32751">
        <ele>404</ele>
        <time>2016-05-15T11:25:51.000Z</time>
      </trkpt>
      <trkpt lat="44.57967" lon="4.32752">
        <ele>404</ele>
        <time>2016-05-15T11:25:52.000Z</time>
      </trkpt>
      <trkpt lat="44.57968" lon="4.32753">
        <ele>404</ele>
        <time>2016-05-15T11:25:53.000Z</time>
      </trkpt>
      <trkpt lat="44.5797" lon="4.32753">
        <ele>404</ele>
        <time>2016-05-15T11:25:54.000Z</time>
      </trkpt>
      <trkpt lat="44.57972" lon="4.32754">
        <ele>404</ele>
        <time>2016-05-15T11:25:55.000Z</time>
      </trkpt>
      <trkpt lat="44.57973" lon="4.32754">
        <ele>404</ele>
        <time>2016-05-15T11:25:56.000Z</time>
      </trkpt>
      <trkpt lat="44.57975" lon="4.32754">
        <ele>404</ele>
        <time>2016-05-15T11:25:57.000Z</time>
      </trkpt>
      <trkpt lat="44.57977" lon="4.32754">
        <ele>404</ele>
        <time>2016-05-15T11:25:58.000Z</time>
      </trkpt>
      <trkpt lat="44.57979" lon="4.32753">
        <ele>404</ele>
        <time>2016-05-15T11:25:59.000Z</time>
      </trkpt>
      <trkpt lat="44.57981" lon="4.32754">
        <ele>404</ele>
        <time>2016-05-15T11:26:00.000Z</time>
      </trkpt>
      <trkpt lat="44.57984" lon="4.32754">
        <ele>404</ele>
        <time>2016-05-15T11:26:01.000Z</time>
      </trkpt>
      <trkpt lat="44.57986" lon="4.32754">
        <ele>404</ele>
        <time>2016-05-15T11:26:02.000Z</time>
      </trkpt>
      <trkpt lat="44.57988" lon="4.32755">
        <ele>403</ele>
        <time>2016-05-15T11:26:03.000Z</time>
      </trkpt>
      <trkpt lat="44.57991" lon="4.32755">
        <ele>403</ele>
        <time>2016-05-15T11:26:04.000Z</time>
      </trkpt>
      <trkpt lat="44.57993" lon="4.32756">
        <ele>403</ele>
        <time>2016-05-15T11:26:05.000Z</time>
      </trkpt>
      <trkpt lat="44.57995" lon="4.32757">
        <ele>403</ele>
        <time>2016-05-15T11:26:06.000Z</time>
      </trkpt>
      <trkpt lat="44.57997" lon="4.32757">
        <ele>403</ele>
        <time>2016-05-15T11:26:07.000Z</time>
      </trkpt>
      <trkpt lat="44.58" lon="4.32758">
        <ele>403</ele>
        <time>2016-05-15T11:26:08.000Z</time>
      </trkpt>
      <trkpt lat="44.58002" lon="4.32758">
        <ele>404</ele>
        <time>2016-05-15T11:26:09.000Z</time>
      </trkpt>
      <trkpt lat="44.58004" lon="4.32758">
        <ele>405</ele>
        <time>2016-05-15T11:26:10.000Z</time>
      </trkpt>
      <trkpt lat="44.58006" lon="4.32758">
        <ele>405</ele>
        <time>2016-05-15T11:26:11.000Z</time>
      </trkpt>
      <trkpt lat="44.58009" lon="4.32759">
        <ele>406</ele>
        <time>2016-05-15T11:26:12.000Z</time>
      </trkpt>
      <trkpt lat="44.58011" lon="4.32759">
        <ele>406</ele>
        <time>2016-05-15T11:26:13.000Z</time>
      </trkpt>
      <trkpt lat="44.58013" lon="4.32759">
        <ele>407</ele>
        <time>2016-05-15T11:26:14.000Z</time>
      </trkpt>
      <trkpt lat="44.58016" lon="4.3276">
        <ele>407</ele>
        <time>2016-05-15T11:26:15.000Z</time>
      </trkpt>
      <trkpt lat="44.58018" lon="4.3276">
        <ele>408</ele>
        <time>2016-05-15T11:26:16.000Z</time>
      </trkpt>
      <trkpt lat="44.5802" lon="4.3276">
        <ele>408</ele>
        <time>2016-05-15T11:26:17.000Z</time>
      </trkpt>
      <trkpt lat="44.58022" lon="4.3276">
        <ele>408</ele>
        <time>2016-05-15T11:26:18.000Z</time>
      </trkpt>
      <trkpt lat="44.58024" lon="4.3276">
        <ele>409</ele>
        <time>2016-05-15T11:26:19.000Z</time>
      </trkpt>
      <trkpt lat="44.58026" lon="4.32759">
        <ele>409</ele>
        <time>2016-05-15T11:26:20.000Z</time>
      </trkpt>
      <trkpt lat="44.58028" lon="4.32759">
        <ele>409</ele>
        <time>2016-05-15T11:26:21.000Z</time>
      </trkpt>
      <trkpt lat="44.58031" lon="4.32759">
        <ele>409</ele>
        <time>2016-05-15T11:26:22.000Z</time>
      </trkpt>
      <trkpt lat="44.58033" lon="4.32759">
        <ele>409</ele>
        <time>2016-05-15T11:26:23.000Z</time>
      </trkpt>
      <trkpt lat="44.58035" lon="4.32759">
        <ele>410</ele>
        <time>2016-05-15T11:26:24.000Z</time>
      </trkpt>
      <trkpt lat="44.58037" lon="4.32759">
        <ele>410</ele>
        <time>2016-05-15T11:26:25.000Z</time>
      </trkpt>
      <trkpt lat="44.58039" lon="4.32759">
        <ele>410</ele>
        <time>2016-05-15T11:26:26.000Z</time>
      </trkpt>
      <trkpt lat="44.58041" lon="4.32759">
        <ele>410</ele>
        <time>2016-05-15T11:26:27.000Z</time>
      </trkpt>
      <trkpt lat="44.58043" lon="4.32759">
        <ele>410</ele>
        <time>2016-05-15T11:26:28.000Z</time>
      </trkpt>
      <trkpt lat="44.58045" lon="4.32759">
        <ele>410</ele>
        <time>2016-05-15T11:26:29.000Z</time>
      </trkpt>
      <trkpt lat="44.58047" lon="4.3276">
        <ele>410</ele>
        <time>2016-05-15T11:26:30.000Z</time>
      </trkpt>
      <trkpt lat="44.5805" lon="4.3276">
        <ele>410</ele>
        <time>2016-05-15T11:26:31.000Z</time>
      </trkpt>
      <trkpt lat="44.58052" lon="4.32761">
        <ele>410</ele>
        <time>2016-05-15T11:26:32.000Z</time>
      </trkpt>
      <trkpt lat="44.58054" lon="4.32761">
        <ele>410</ele>
        <time>2016-05-15T11:26:33.000Z</time>
      </trkpt>
      <trkpt lat="44.58056" lon="4.32762">
        <ele>410</ele>
        <time>2016-05-15T11:26:34.000Z</time>
      </trkpt>
      <trkpt lat="44.58058" lon="4.32762">
        <ele>410</ele>
        <time>2016-05-15T11:26:35.000Z</time>
      </trkpt>
      <trkpt lat="44.5806" lon="4.32763">
        <ele>410</ele>
        <time>2016-05-15T11:26:36.000Z</time>
      </trkpt>
      <trkpt lat="44.58062" lon="4.32764">
        <ele>410</ele>
        <time>2016-05-15T11:26:37.000Z</time>
      </trkpt>
      <trkpt lat="44.58065" lon="4.32764">
        <ele>410</ele>
        <time>2016-05-15T11:26:38.000Z</time>
      </trkpt>
      <trkpt lat="44.58067" lon="4.32765">
        <ele>410</ele>
        <time>2016-05-15T11:26:39.000Z</time>
      </trkpt>
      <trkpt lat="44.58069" lon="4.32766">
        <ele>410</ele>
        <time>2016-05-15T11:26:40.000Z</time>
      </trkpt>
      <trkpt lat="44.58072" lon="4.32767">
        <ele>410</ele>
        <time>2016-05-15T11:26:41.000Z</time>
      </trkpt>
      <trkpt lat="44.58074" lon="4.32767">
        <ele>410</ele>
        <time>2016-05-15T11:26:42.000Z</time>
      </trkpt>
      <trkpt lat="44.58076" lon="4.32768">
        <ele>410</ele>
        <time>2016-05-15T11:26:43.000Z</time>
      </trkpt>
      <trkpt lat="44.58078" lon="4.32769">
        <ele>410</ele>
        <time>2016-05-15T11:26:44.000Z</time>
      </trkpt>
      <trkpt lat="44.5808" lon="4.3277">
        <ele>410</ele>
        <time>2016-05-15T11:26:45.000Z</time>
      </trkpt>
      <trkpt lat="44.58083" lon="4.3277">
        <ele>410</ele>
        <time>2016-05-15T11:26:46.000Z</time>
      </trkpt>
      <trkpt lat="44.58085" lon="4.32771">
        <ele>410</ele>
        <time>2016-05-15T11:26:47.000Z</time>
      </trkpt>
      <trkpt lat="44.58087" lon="4.32772">
        <ele>410</ele>
        <time>2016-05-15T11:26:48.000Z</time>
      </trkpt>
      <trkpt lat="44.58089" lon="4.32773">
        <ele>410</ele>
        <time>2016-05-15T11:26:49.000Z</time>
      </trkpt>
      <trkpt lat="44.58091" lon="4.32774">
        <ele>410</ele>
        <time>2016-05-15T11:26:50.000Z</time>
      </trkpt>
      <trkpt lat="44.58093" lon="4.32776">
        <ele>411</ele>
        <time>2016-05-15T11:26:51.000Z</time>
      </trkpt>
      <trkpt lat="44.58095" lon="4.32777">
        <ele>411</ele>
        <time>2016-05-15T11:26:52.000Z</time>
      </trkpt>
      <trkpt lat="44.58097" lon="4.32778">
        <ele>411</ele>
        <time>2016-05-15T11:26:53.000Z</time>
      </trkpt>
      <trkpt lat="44.58099" lon="4.3278">
        <ele>411</ele>
        <time>2016-05-15T11:26:54.000Z</time>
      </trkpt>
      <trkpt lat="44.581" lon="4.32781">
        <ele>411</ele>
        <time>2016-05-15T11:26:55.000Z</time>
      </trkpt>
      <trkpt lat="44.58102" lon="4.32782">
        <ele>411</ele>
        <time>2016-05-15T11:26:56.000Z</time>
      </trkpt>
      <trkpt lat="44.58104" lon="4.32784">
        <ele>412</ele>
        <time>2016-05-15T11:26:57.000Z</time>
      </trkpt>
      <trkpt lat="44.58106" lon="4.32785">
        <ele>412</ele>
        <time>2016-05-15T11:26:58.000Z</time>
      </trkpt>
      <trkpt lat="44.58108" lon="4.32787">
        <ele>412</ele>
        <time>2016-05-15T11:26:59.000Z</time>
      </trkpt>
      <trkpt lat="44.58109" lon="4.32788">
        <ele>412</ele>
        <time>2016-05-15T11:27:00.000Z</time>
      </trkpt>
      <trkpt lat="44.58111" lon="4.3279">
        <ele>412</ele>
        <time>2016-05-15T11:27:01.000Z</time>
      </trkpt>
      <trkpt lat="44.58113" lon="4.32792">
        <ele>412</ele>
        <time>2016-05-15T11:27:02.000Z</time>
      </trkpt>
      <trkpt lat="44.58114" lon="4.32794">
        <ele>413</ele>
        <time>2016-05-15T11:27:03.000Z</time>
      </trkpt>
      <trkpt lat="44.58116" lon="4.32796">
        <ele>413</ele>
        <time>2016-05-15T11:27:04.000Z</time>
      </trkpt>
      <trkpt lat="44.58117" lon="4.32798">
        <ele>413</ele>
        <time>2016-05-15T11:27:05.000Z</time>
      </trkpt>
      <trkpt lat="44.58118" lon="4.328">
        <ele>413</ele>
        <time>2016-05-15T11:27:06.000Z</time>
      </trkpt>
      <trkpt lat="44.58119" lon="4.32801">
        <ele>413</ele>
        <time>2016-05-15T11:27:07.000Z</time>
      </trkpt>
      <trkpt lat="44.58121" lon="4.32803">
        <ele>413</ele>
        <time>2016-05-15T11:27:08.000Z</time>
      </trkpt>
      <trkpt lat="44.58123" lon="4.32805">
        <ele>413</ele>
        <time>2016-05-15T11:27:09.000Z</time>
      </trkpt>
      <trkpt lat="44.58124" lon="4.32807">
        <ele>413</ele>
        <time>2016-05-15T11:27:10.000Z</time>
      </trkpt>
      <trkpt lat="44.58125" lon="4.3281">
        <ele>414</ele>
        <time>2016-05-15T11:27:11.000Z</time>
      </trkpt>
      <trkpt lat="44.58126" lon="4.32812">
        <ele>414</ele>
        <time>2016-05-15T11:27:12.000Z</time>
      </trkpt>
      <trkpt lat="44.58127" lon="4.32815">
        <ele>414</ele>
        <time>2016-05-15T11:27:13.000Z</time>
      </trkpt>
      <trkpt lat="44.58128" lon="4.32817">
        <ele>414</ele>
        <time>2016-05-15T11:27:14.000Z</time>
      </trkpt>
      <trkpt lat="44.5813" lon="4.3282">
        <ele>414</ele>
        <time>2016-05-15T11:27:15.000Z</time>
      </trkpt>
      <trkpt lat="44.58131" lon="4.32822">
        <ele>414</ele>
        <time>2016-05-15T11:27:16.000Z</time>
      </trkpt>
      <trkpt lat="44.58132" lon="4.32825">
        <ele>414</ele>
        <time>2016-05-15T11:27:17.000Z</time>
      </trkpt>
      <trkpt lat="44.58133" lon="4.32827">
        <ele>415</ele>
        <time>2016-05-15T11:27:18.000Z</time>
      </trkpt>
      <trkpt lat="44.58134" lon="4.3283">
        <ele>415</ele>
        <time>2016-05-15T11:27:19.000Z</time>
      </trkpt>
      <trkpt lat="44.58135" lon="4.32833">
        <ele>415</ele>
        <time>2016-05-15T11:27:20.000Z</time>
      </trkpt>
      <trkpt lat="44.58135" lon="4.32836">
        <ele>425</ele>
        <time>2016-05-15T11:27:21.000Z</time>
      </trkpt>
      <trkpt lat="44.58136" lon="4.32839">
        <ele>425</ele>
        <time>2016-05-15T11:27:22.000Z</time>
      </trkpt>
      <trkpt lat="44.58137" lon="4.32842">
        <ele>425</ele>
        <time>2016-05-15T11:27:23.000Z</time>
      </trkpt>
      <trkpt lat="44.58138" lon="4.32845">
        <ele>425</ele>
        <time>2016-05-15T11:27:24.000Z</time>
      </trkpt>
      <trkpt lat="44.58139" lon="4.32848">
        <ele>425</ele>
        <time>2016-05-15T11:27:25.000Z</time>
      </trkpt>
      <trkpt lat="44.58139" lon="4.3285">
        <ele>425</ele>
        <time>2016-05-15T11:27:26.000Z</time>
      </trkpt>
      <trkpt lat="44.5814" lon="4.32853">
        <ele>425</ele>
        <time>2016-05-15T11:27:27.000Z</time>
      </trkpt>
      <trkpt lat="44.5814" lon="4.32855">
        <ele>425</ele>
        <time>2016-05-15T11:27:28.000Z</time>
      </trkpt>
      <trkpt lat="44.58141" lon="4.32858">
        <ele>426</ele>
        <time>2016-05-15T11:27:29.000Z</time>
      </trkpt>
      <trkpt lat="44.58143" lon="4.3286">
        <ele>426</ele>
        <time>2016-05-15T11:27:30.000Z</time>
      </trkpt>
      <trkpt lat="44.58144" lon="4.32863">
        <ele>426</ele>
        <time>2016-05-15T11:27:31.000Z</time>
      </trkpt>
      <trkpt lat="44.58147" lon="4.32865">
        <ele>426</ele>
        <time>2016-05-15T11:27:32.000Z</time>
      </trkpt>
      <trkpt lat="44.58149" lon="4.32867">
        <ele>426</ele>
        <time>2016-05-15T11:27:33.000Z</time>
      </trkpt>
      <trkpt lat="44.58152" lon="4.32869">
        <ele>426</ele>
        <time>2016-05-15T11:27:34.000Z</time>
      </trkpt>
      <trkpt lat="44.58155" lon="4.3287">
        <ele>427</ele>
        <time>2016-05-15T11:27:35.000Z</time>
      </trkpt>
      <trkpt lat="44.58157" lon="4.3287">
        <ele>426</ele>
        <time>2016-05-15T11:27:36.000Z</time>
      </trkpt>
      <trkpt lat="44.5816" lon="4.3287">
        <ele>426</ele>
        <time>2016-05-15T11:27:37.000Z</time>
      </trkpt>
      <trkpt lat="44.58163" lon="4.3287">
        <ele>426</ele>
        <time>2016-05-15T11:27:38.000Z</time>
      </trkpt>
      <trkpt lat="44.58166" lon="4.32869">
        <ele>426</ele>
        <time>2016-05-15T11:27:39.000Z</time>
      </trkpt>
      <trkpt lat="44.58168" lon="4.32867">
        <ele>429</ele>
        <time>2016-05-15T11:27:40.000Z</time>
      </trkpt>
      <trkpt lat="44.5817" lon="4.32866">
        <ele>429</ele>
        <time>2016-05-15T11:27:41.000Z</time>
      </trkpt>
      <trkpt lat="44.58172" lon="4.32864">
        <ele>429</ele>
        <time>2016-05-15T11:27:42.000Z</time>
      </trkpt>
      <trkpt lat="44.58174" lon="4.32862">
        <ele>429</ele>
        <time>2016-05-15T11:27:43.000Z</time>
      </trkpt>
      <trkpt lat="44.58176" lon="4.3286">
        <ele>428</ele>
        <time>2016-05-15T11:27:44.000Z</time>
      </trkpt>
      <trkpt lat="44.58178" lon="4.32859">
        <ele>428</ele>
        <time>2016-05-15T11:27:45.000Z</time>
      </trkpt>
      <trkpt lat="44.5818" lon="4.32857">
        <ele>428</ele>
        <time>2016-05-15T11:27:46.000Z</time>
      </trkpt>
      <trkpt lat="44.58182" lon="4.32855">
        <ele>428</ele>
        <time>2016-05-15T11:27:47.000Z</time>
      </trkpt>
      <trkpt lat="44.58184" lon="4.32853">
        <ele>428</ele>
        <time>2016-05-15T11:27:48.000Z</time>
      </trkpt>
      <trkpt lat="44.58186" lon="4.32852">
        <ele>428</ele>
        <time>2016-05-15T11:27:49.000Z</time>
      </trkpt>
      <trkpt lat="44.58189" lon="4.3285">
        <ele>428</ele>
        <time>2016-05-15T11:27:50.000Z</time>
      </trkpt>
      <trkpt lat="44.58191" lon="4.32848">
        <ele>429</ele>
        <time>2016-05-15T11:27:51.000Z</time>
      </trkpt>
      <trkpt lat="44.58192" lon="4.32847">
        <ele>429</ele>
        <time>2016-05-15T11:27:52.000Z</time>
      </trkpt>
      <trkpt lat="44.58194" lon="4.32846">
        <ele>429</ele>
        <time>2016-05-15T11:27:53.000Z</time>
      </trkpt>
      <trkpt lat="44.58196" lon="4.32845">
        <ele>429</ele>
        <time>2016-05-15T11:27:54.000Z</time>
      </trkpt>
      <trkpt lat="44.58198" lon="4.32844">
        <ele>430</ele>
        <time>2016-05-15T11:27:55.000Z</time>
      </trkpt>
      <trkpt lat="44.58201" lon="4.32842">
        <ele>430</ele>
        <time>2016-05-15T11:27:56.000Z</time>
      </trkpt>
      <trkpt lat="44.58203" lon="4.32841">
        <ele>430</ele>
        <time>2016-05-15T11:27:57.000Z</time>
      </trkpt>
      <trkpt lat="44.58205" lon="4.32839">
        <ele>430</ele>
        <time>2016-05-15T11:27:58.000Z</time>
      </trkpt>
      <trkpt lat="44.58207" lon="4.32838">
        <ele>431</ele>
        <time>2016-05-15T11:27:59.000Z</time>
      </trkpt>
      <trkpt lat="44.58209" lon="4.32836">
        <ele>431</ele>
        <time>2016-05-15T11:28:00.000Z</time>
      </trkpt>
      <trkpt lat="44.58211" lon="4.32835">
        <ele>431</ele>
        <time>2016-05-15T11:28:01.000Z</time>
      </trkpt>
      <trkpt lat="44.58213" lon="4.32834">
        <ele>431</ele>
        <time>2016-05-15T11:28:02.000Z</time>
      </trkpt>
      <trkpt lat="44.58215" lon="4.32832">
        <ele>421</ele>
        <time>2016-05-15T11:28:03.000Z</time>
      </trkpt>
      <trkpt lat="44.58217" lon="4.32831">
        <ele>421</ele>
        <time>2016-05-15T11:28:04.000Z</time>
      </trkpt>
      <trkpt lat="44.58219" lon="4.32829">
        <ele>422</ele>
        <time>2016-05-15T11:28:05.000Z</time>
      </trkpt>
      <trkpt lat="44.58221" lon="4.32828">
        <ele>422</ele>
        <time>2016-05-15T11:28:06.000Z</time>
      </trkpt>
      <trkpt lat="44.58223" lon="4.32826">
        <ele>423</ele>
        <time>2016-05-15T11:28:07.000Z</time>
      </trkpt>
      <trkpt lat="44.58225" lon="4.32825">
        <ele>423</ele>
        <time>2016-05-15T11:28:08.000Z</time>
      </trkpt>
      <trkpt lat="44.58228" lon="4.32824">
        <ele>424</ele>
        <time>2016-05-15T11:28:09.000Z</time>
      </trkpt>
      <trkpt lat="44.5823" lon="4.32823">
        <ele>424</ele>
        <time>2016-05-15T11:28:10.000Z</time>
      </trkpt>
      <trkpt lat="44.58233" lon="4.32822">
        <ele>425</ele>
        <time>2016-05-15T11:28:11.000Z</time>
      </trkpt>
      <trkpt lat="44.58235" lon="4.32821">
        <ele>425</ele>
        <time>2016-05-15T11:28:12.000Z</time>
      </trkpt>
      <trkpt lat="44.58238" lon="4.3282">
        <ele>425</ele>
        <time>2016-05-15T11:28:13.000Z</time>
      </trkpt>
      <trkpt lat="44.5824" lon="4.32819">
        <ele>426</ele>
        <time>2016-05-15T11:28:14.000Z</time>
      </trkpt>
      <trkpt lat="44.58242" lon="4.32818">
        <ele>426</ele>
        <time>2016-05-15T11:28:15.000Z</time>
      </trkpt>
      <trkpt lat="44.58244" lon="4.32818">
        <ele>426</ele>
        <time>2016-05-15T11:28:16.000Z</time>
      </trkpt>
      <trkpt lat="44.58247" lon="4.32817">
        <ele>426</ele>
        <time>2016-05-15T11:28:17.000Z</time>
      </trkpt>
      <trkpt lat="44.58249" lon="4.32816">
        <ele>426</ele>
        <time>2016-05-15T11:28:18.000Z</time>
      </trkpt>
      <trkpt lat="44.58252" lon="4.32815">
        <ele>432</ele>
        <time>2016-05-15T11:28:19.000Z</time>
      </trkpt>
      <trkpt lat="44.58254" lon="4.32813">
        <ele>432</ele>
        <time>2016-05-15T11:28:20.000Z</time>
      </trkpt>
      <trkpt lat="44.58257" lon="4.32812">
        <ele>432</ele>
        <time>2016-05-15T11:28:21.000Z</time>
      </trkpt>
      <trkpt lat="44.58259" lon="4.32811">
        <ele>432</ele>
        <time>2016-05-15T11:28:22.000Z</time>
      </trkpt>
      <trkpt lat="44.58261" lon="4.32809">
        <ele>431</ele>
        <time>2016-05-15T11:28:23.000Z</time>
      </trkpt>
      <trkpt lat="44.58264" lon="4.32808">
        <ele>431</ele>
        <time>2016-05-15T11:28:24.000Z</time>
      </trkpt>
      <trkpt lat="44.58266" lon="4.32806">
        <ele>431</ele>
        <time>2016-05-15T11:28:25.000Z</time>
      </trkpt>
      <trkpt lat="44.58268" lon="4.32804">
        <ele>431</ele>
        <time>2016-05-15T11:28:26.000Z</time>
      </trkpt>
      <trkpt lat="44.5827" lon="4.32801">
        <ele>430</ele>
        <time>2016-05-15T11:28:27.000Z</time>
      </trkpt>
      <trkpt lat="44.58272" lon="4.32799">
        <ele>430</ele>
        <time>2016-05-15T11:28:28.000Z</time>
      </trkpt>
      <trkpt lat="44.58274" lon="4.32797">
        <ele>430</ele>
        <time>2016-05-15T11:28:29.000Z</time>
      </trkpt>
      <trkpt lat="44.58277" lon="4.32794">
        <ele>430</ele>
        <time>2016-05-15T11:28:30.000Z</time>
      </trkpt>
      <trkpt lat="44.58278" lon="4.32792">
        <ele>430</ele>
        <time>2016-05-15T11:28:31.000Z</time>
      </trkpt>
      <trkpt lat="44.5828" lon="4.32789">
        <ele>429</ele>
        <time>2016-05-15T11:28:32.000Z</time>
      </trkpt>
      <trkpt lat="44.58281" lon="4.32786">
        <ele>429</ele>
        <time>2016-05-15T11:28:33.000Z</time>
      </trkpt>
      <trkpt lat="44.58282" lon="4.32783">
        <ele>429</ele>
        <time>2016-05-15T11:28:34.000Z</time>
      </trkpt>
      <trkpt lat="44.58283" lon="4.32779">
        <ele>428</ele>
        <time>2016-05-15T11:28:35.000Z</time>
      </trkpt>
      <trkpt lat="44.58284" lon="4.32776">
        <ele>428</ele>
        <time>2016-05-15T11:28:36.000Z</time>
      </trkpt>
      <trkpt lat="44.58285" lon="4.32774">
        <ele>428</ele>
        <time>2016-05-15T11:28:37.000Z</time>
      </trkpt>
      <trkpt lat="44.58286" lon="4.32771">
        <ele>428</ele>
        <time>2016-05-15T11:28:38.000Z</time>
      </trkpt>
      <trkpt lat="44.58288" lon="4.32768">
        <ele>428</ele>
        <time>2016-05-15T11:28:39.000Z</time>
      </trkpt>
      <trkpt lat="44.58289" lon="4.32766">
        <ele>428</ele>
        <time>2016-05-15T11:28:40.000Z</time>
      </trkpt>
      <trkpt lat="44.58291" lon="4.32763">
        <ele>428</ele>
        <time>2016-05-15T11:28:41.000Z</time>
      </trkpt>
      <trkpt lat="44.58293" lon="4.32761">
        <ele>428</ele>
        <time>2016-05-15T11:28:42.000Z</time>
      </trkpt>
      <trkpt lat="44.58295" lon="4.32759">
        <ele>428</ele>
        <time>2016-05-15T11:28:43.000Z</time>
      </trkpt>
      <trkpt lat="44.58297" lon="4.32757">
        <ele>428</ele>
        <time>2016-05-15T11:28:44.000Z</time>
      </trkpt>
      <trkpt lat="44.58299" lon="4.32756">
        <ele>428</ele>
        <time>2016-05-15T11:28:45.000Z</time>
      </trkpt>
      <trkpt lat="44.58302" lon="4.32755">
        <ele>428</ele>
        <time>2016-05-15T11:28:46.000Z</time>
      </trkpt>
      <trkpt lat="44.58304" lon="4.32754">
        <ele>428</ele>
        <time>2016-05-15T11:28:47.000Z</time>
      </trkpt>
      <trkpt lat="44.58307" lon="4.32753">
        <ele>428</ele>
        <time>2016-05-15T11:28:48.000Z</time>
      </trkpt>
      <trkpt lat="44.58309" lon="4.32753">
        <ele>428</ele>
        <time>2016-05-15T11:28:49.000Z</time>
      </trkpt>
      <trkpt lat="44.58311" lon="4.32753">
        <ele>428</ele>
        <time>2016-05-15T11:28:50.000Z</time>
      </trkpt>
      <trkpt lat="44.58314" lon="4.32753">
        <ele>428</ele>
        <time>2016-05-15T11:28:51.000Z</time>
      </trkpt>
      <trkpt lat="44.58316" lon="4.32753">
        <ele>428</ele>
        <time>2016-05-15T11:28:52.000Z</time>
      </trkpt>
      <trkpt lat="44.58319" lon="4.32753">
        <ele>428</ele>
        <time>2016-05-15T11:28:53.000Z</time>
      </trkpt>
      <trkpt lat="44.58321" lon="4.32754">
        <ele>428</ele>
        <time>2016-05-15T11:28:54.000Z</time>
      </trkpt>
      <trkpt lat="44.58324" lon="4.32754">
        <ele>428</ele>
        <time>2016-05-15T11:28:55.000Z</time>
      </trkpt>
      <trkpt lat="44.58326" lon="4.32755">
        <ele>428</ele>
        <time>2016-05-15T11:28:56.000Z</time>
      </trkpt>
      <trkpt lat="44.58329" lon="4.32756">
        <ele>428</ele>
        <time>2016-05-15T11:28:57.000Z</time>
      </trkpt>
      <trkpt lat="44.58331" lon="4.32757">
        <ele>428</ele>
        <time>2016-05-15T11:28:58.000Z</time>
      </trkpt>
      <trkpt lat="44.58333" lon="4.32758">
        <ele>428</ele>
        <time>2016-05-15T11:28:59.000Z</time>
      </trkpt>
      <trkpt lat="44.58336" lon="4.32759">
        <ele>430</ele>
        <time>2016-05-15T11:29:00.000Z</time>
      </trkpt>
      <trkpt lat="44.58338" lon="4.3276">
        <ele>431</ele>
        <time>2016-05-15T11:29:01.000Z</time>
      </trkpt>
      <trkpt lat="44.5834" lon="4.32761">
        <ele>431</ele>
        <time>2016-05-15T11:29:02.000Z</time>
      </trkpt>
      <trkpt lat="44.58343" lon="4.32763">
        <ele>432</ele>
        <time>2016-05-15T11:29:03.000Z</time>
      </trkpt>
      <trkpt lat="44.58345" lon="4.32764">
        <ele>433</ele>
        <time>2016-05-15T11:29:04.000Z</time>
      </trkpt>
      <trkpt lat="44.58347" lon="4.32765">
        <ele>433</ele>
        <time>2016-05-15T11:29:05.000Z</time>
      </trkpt>
      <trkpt lat="44.58349" lon="4.32767">
        <ele>434</ele>
        <time>2016-05-15T11:29:06.000Z</time>
      </trkpt>
      <trkpt lat="44.58352" lon="4.32767">
        <ele>434</ele>
        <time>2016-05-15T11:29:07.000Z</time>
      </trkpt>
      <trkpt lat="44.58354" lon="4.32768">
        <ele>434</ele>
        <time>2016-05-15T11:29:08.000Z</time>
      </trkpt>
      <trkpt lat="44.58357" lon="4.32769">
        <ele>435</ele>
        <time>2016-05-15T11:29:09.000Z</time>
      </trkpt>
      <trkpt lat="44.58359" lon="4.3277">
        <ele>435</ele>
        <time>2016-05-15T11:29:10.000Z</time>
      </trkpt>
      <trkpt lat="44.58362" lon="4.32771">
        <ele>435</ele>
        <time>2016-05-15T11:29:11.000Z</time>
      </trkpt>
      <trkpt lat="44.58364" lon="4.32773">
        <ele>435</ele>
        <time>2016-05-15T11:29:12.000Z</time>
      </trkpt>
      <trkpt lat="44.58367" lon="4.32774">
        <ele>436</ele>
        <time>2016-05-15T11:29:13.000Z</time>
      </trkpt>
      <trkpt lat="44.58369" lon="4.32775">
        <ele>436</ele>
        <time>2016-05-15T11:29:14.000Z</time>
      </trkpt>
      <trkpt lat="44.58372" lon="4.32776">
        <ele>436</ele>
        <time>2016-05-15T11:29:15.000Z</time>
      </trkpt>
      <trkpt lat="44.58375" lon="4.32777">
        <ele>436</ele>
        <time>2016-05-15T11:29:16.000Z</time>
      </trkpt>
      <trkpt lat="44.58377" lon="4.32777">
        <ele>436</ele>
        <time>2016-05-15T11:29:17.000Z</time>
      </trkpt>
      <trkpt lat="44.58379" lon="4.32779">
        <ele>437</ele>
        <time>2016-05-15T11:29:18.000Z</time>
      </trkpt>
      <trkpt lat="44.5838" lon="4.32781">
        <ele>437</ele>
        <time>2016-05-15T11:29:19.000Z</time>
      </trkpt>
      <trkpt lat="44.58381" lon="4.32784">
        <ele>437</ele>
        <time>2016-05-15T11:29:20.000Z</time>
      </trkpt>
      <trkpt lat="44.58381" lon="4.32787">
        <ele>438</ele>
        <time>2016-05-15T11:29:21.000Z</time>
      </trkpt>
      <trkpt lat="44.5838" lon="4.32789">
        <ele>438</ele>
        <time>2016-05-15T11:29:22.000Z</time>
      </trkpt>
      <trkpt lat="44.58378" lon="4.3279">
        <ele>438</ele>
        <time>2016-05-15T11:29:23.000Z</time>
      </trkpt>
      <trkpt lat="44.58376" lon="4.3279">
        <ele>438</ele>
        <time>2016-05-15T11:29:24.000Z</time>
      </trkpt>
      <trkpt lat="44.58374" lon="4.3279">
        <ele>438</ele>
        <time>2016-05-15T11:29:25.000Z</time>
      </trkpt>
      <trkpt lat="44.58372" lon="4.3279">
        <ele>438</ele>
        <time>2016-05-15T11:29:26.000Z</time>
      </trkpt>
      <trkpt lat="44.58369" lon="4.3279">
        <ele>438</ele>
        <time>2016-05-15T11:29:27.000Z</time>
      </trkpt>
      <trkpt lat="44.58366" lon="4.3279">
        <ele>438</ele>
        <time>2016-05-15T11:29:28.000Z</time>
      </trkpt>
      <trkpt lat="44.58364" lon="4.3279">
        <ele>437</ele>
        <time>2016-05-15T11:29:29.000Z</time>
      </trkpt>
      <trkpt lat="44.58362" lon="4.3279">
        <ele>437</ele>
        <time>2016-05-15T11:29:30.000Z</time>
      </trkpt>
      <trkpt lat="44.58359" lon="4.3279">
        <ele>437</ele>
        <time>2016-05-15T11:29:31.000Z</time>
      </trkpt>
      <trkpt lat="44.58357" lon="4.32791">
        <ele>437</ele>
        <time>2016-05-15T11:29:32.000Z</time>
      </trkpt>
      <trkpt lat="44.58355" lon="4.32791">
        <ele>437</ele>
        <time>2016-05-15T11:29:33.000Z</time>
      </trkpt>
      <trkpt lat="44.58353" lon="4.32792">
        <ele>438</ele>
        <time>2016-05-15T11:29:34.000Z</time>
      </trkpt>
      <trkpt lat="44.5835" lon="4.32793">
        <ele>438</ele>
        <time>2016-05-15T11:29:35.000Z</time>
      </trkpt>
      <trkpt lat="44.58348" lon="4.32794">
        <ele>438</ele>
        <time>2016-05-15T11:29:36.000Z</time>
      </trkpt>
      <trkpt lat="44.58345" lon="4.32795">
        <ele>438</ele>
        <time>2016-05-15T11:29:37.000Z</time>
      </trkpt>
      <trkpt lat="44.58343" lon="4.32796">
        <ele>438</ele>
        <time>2016-05-15T11:29:38.000Z</time>
      </trkpt>
      <trkpt lat="44.58341" lon="4.32797">
        <ele>438</ele>
        <time>2016-05-15T11:29:39.000Z</time>
      </trkpt>
      <trkpt lat="44.58339" lon="4.32799">
        <ele>438</ele>
        <time>2016-05-15T11:29:40.000Z</time>
      </trkpt>
      <trkpt lat="44.58337" lon="4.328">
        <ele>439</ele>
        <time>2016-05-15T11:29:41.000Z</time>
      </trkpt>
      <trkpt lat="44.58335" lon="4.32801">
        <ele>439</ele>
        <time>2016-05-15T11:29:42.000Z</time>
      </trkpt>
      <trkpt lat="44.58333" lon="4.32802">
        <ele>434</ele>
        <time>2016-05-15T11:29:43.000Z</time>
      </trkpt>
      <trkpt lat="44.58331" lon="4.32803">
        <ele>435</ele>
        <time>2016-05-15T11:29:44.000Z</time>
      </trkpt>
      <trkpt lat="44.58329" lon="4.32805">
        <ele>435</ele>
        <time>2016-05-15T11:29:45.000Z</time>
      </trkpt>
      <trkpt lat="44.58328" lon="4.32806">
        <ele>435</ele>
        <time>2016-05-15T11:29:46.000Z</time>
      </trkpt>
      <trkpt lat="44.58326" lon="4.32808">
        <ele>435</ele>
        <time>2016-05-15T11:29:47.000Z</time>
      </trkpt>
      <trkpt lat="44.58324" lon="4.32811">
        <ele>436</ele>
        <time>2016-05-15T11:29:48.000Z</time>
      </trkpt>
      <trkpt lat="44.58322" lon="4.32813">
        <ele>436</ele>
        <time>2016-05-15T11:29:49.000Z</time>
      </trkpt>
      <trkpt lat="44.5832" lon="4.32815">
        <ele>436</ele>
        <time>2016-05-15T11:29:50.000Z</time>
      </trkpt>
      <trkpt lat="44.58318" lon="4.32818">
        <ele>437</ele>
        <time>2016-05-15T11:29:51.000Z</time>
      </trkpt>
      <trkpt lat="44.58317" lon="4.3282">
        <ele>437</ele>
        <time>2016-05-15T11:29:52.000Z</time>
      </trkpt>
      <trkpt lat="44.58316" lon="4.32822">
        <ele>437</ele>
        <time>2016-05-15T11:29:53.000Z</time>
      </trkpt>
      <trkpt lat="44.58315" lon="4.32825">
        <ele>437</ele>
        <time>2016-05-15T11:29:54.000Z</time>
      </trkpt>
      <trkpt lat="44.58313" lon="4.32827">
        <ele>437</ele>
        <time>2016-05-15T11:29:55.000Z</time>
      </trkpt>
      <trkpt lat="44.58311" lon="4.32829">
        <ele>437</ele>
        <time>2016-05-15T11:29:56.000Z</time>
      </trkpt>
      <trkpt lat="44.58309" lon="4.32831">
        <ele>436</ele>
        <time>2016-05-15T11:29:57.000Z</time>
      </trkpt>
      <trkpt lat="44.58308" lon="4.32833">
        <ele>436</ele>
        <time>2016-05-15T11:29:58.000Z</time>
      </trkpt>
      <trkpt lat="44.58306" lon="4.32835">
        <ele>446</ele>
        <time>2016-05-15T11:29:59.000Z</time>
      </trkpt>
      <trkpt lat="44.58304" lon="4.32837">
        <ele>446</ele>
        <time>2016-05-15T11:30:00.000Z</time>
      </trkpt>
      <trkpt lat="44.58302" lon="4.3284">
        <ele>446</ele>
        <time>2016-05-15T11:30:01.000Z</time>
      </trkpt>
      <trkpt lat="44.58301" lon="4.32842">
        <ele>446</ele>
        <time>2016-05-15T11:30:02.000Z</time>
      </trkpt>
      <trkpt lat="44.58299" lon="4.32844">
        <ele>446</ele>
        <time>2016-05-15T11:30:03.000Z</time>
      </trkpt>
      <trkpt lat="44.58297" lon="4.32847">
        <ele>446</ele>
        <time>2016-05-15T11:30:04.000Z</time>
      </trkpt>
      <trkpt lat="44.58296" lon="4.32849">
        <ele>446</ele>
        <time>2016-05-15T11:30:05.000Z</time>
      </trkpt>
      <trkpt lat="44.58295" lon="4.32851">
        <ele>446</ele>
        <time>2016-05-15T11:30:06.000Z</time>
      </trkpt>
      <trkpt lat="44.58293" lon="4.32853">
        <ele>446</ele>
        <time>2016-05-15T11:30:07.000Z</time>
      </trkpt>
      <trkpt lat="44.58291" lon="4.32856">
        <ele>446</ele>
        <time>2016-05-15T11:30:08.000Z</time>
      </trkpt>
      <trkpt lat="44.5829" lon="4.32858">
        <ele>446</ele>
        <time>2016-05-15T11:30:09.000Z</time>
      </trkpt>
      <trkpt lat="44.58288" lon="4.3286">
        <ele>446</ele>
        <time>2016-05-15T11:30:10.000Z</time>
      </trkpt>
      <trkpt lat="44.58287" lon="4.32862">
        <ele>446</ele>
        <time>2016-05-15T11:30:11.000Z</time>
      </trkpt>
      <trkpt lat="44.58286" lon="4.32865">
        <ele>446</ele>
        <time>2016-05-15T11:30:12.000Z</time>
      </trkpt>
      <trkpt lat="44.58285" lon="4.32868">
        <ele>446</ele>
        <time>2016-05-15T11:30:13.000Z</time>
      </trkpt>
      <trkpt lat="44.58285" lon="4.32871">
        <ele>447</ele>
        <time>2016-05-15T11:30:14.000Z</time>
      </trkpt>
      <trkpt lat="44.58286" lon="4.32873">
        <ele>447</ele>
        <time>2016-05-15T11:30:15.000Z</time>
      </trkpt>
      <trkpt lat="44.58288" lon="4.32873">
        <ele>447</ele>
        <time>2016-05-15T11:30:16.000Z</time>
      </trkpt>
      <trkpt lat="44.58289" lon="4.32872">
        <ele>447</ele>
        <time>2016-05-15T11:30:17.000Z</time>
      </trkpt>
      <trkpt lat="44.5829" lon="4.3287">
        <ele>447</ele>
        <time>2016-05-15T11:30:18.000Z</time>
      </trkpt>
      <trkpt lat="44.58291" lon="4.32868">
        <ele>447</ele>
        <time>2016-05-15T11:30:19.000Z</time>
      </trkpt>
      <trkpt lat="44.58292" lon="4.32866">
        <ele>447</ele>
        <time>2016-05-15T11:30:20.000Z</time>
      </trkpt>
      <trkpt lat="44.58292" lon="4.32864">
        <ele>447</ele>
        <time>2016-05-15T11:30:21.000Z</time>
      </trkpt>
      <trkpt lat="44.58293" lon="4.32862">
        <ele>446</ele>
        <time>2016-05-15T11:30:22.000Z</time>
      </trkpt>
      <trkpt lat="44.58294" lon="4.3286">
        <ele>446</ele>
        <time>2016-05-15T11:30:23.000Z</time>
      </trkpt>
      <trkpt lat="44.58295" lon="4.32858">
        <ele>446</ele>
        <time>2016-05-15T11:30:24.000Z</time>
      </trkpt>
      <trkpt lat="44.58296" lon="4.32856">
        <ele>446</ele>
        <time>2016-05-15T11:30:25.000Z</time>
      </trkpt>
      <trkpt lat="44.58298" lon="4.32854">
        <ele>446</ele>
        <time>2016-05-15T11:30:26.000Z</time>
      </trkpt>
      <trkpt lat="44.583" lon="4.32852">
        <ele>446</ele>
        <time>2016-05-15T11:30:27.000Z</time>
      </trkpt>
      <trkpt lat="44.58302" lon="4.3285">
        <ele>446</ele>
        <time>2016-05-15T11:30:28.000Z</time>
      </trkpt>
      <trkpt lat="44.58304" lon="4.32849">
        <ele>446</ele>
        <time>2016-05-15T11:30:29.000Z</time>
      </trkpt>
      <trkpt lat="44.58306" lon="4.32847">
        <ele>446</ele>
        <time>2016-05-15T11:30:30.000Z</time>
      </trkpt>
      <trkpt lat="44.58308" lon="4.32846">
        <ele>446</ele>
        <time>2016-05-15T11:30:31.000Z</time>
      </trkpt>
      <trkpt lat="44.5831" lon="4.32845">
        <ele>446</ele>
        <time>2016-05-15T11:30:32.000Z</time>
      </trkpt>
      <trkpt lat="44.58312" lon="4.32844">
        <ele>446</ele>
        <time>2016-05-15T11:30:33.000Z</time>
      </trkpt>
      <trkpt lat="44.58315" lon="4.32844">
        <ele>446</ele>
        <time>2016-05-15T11:30:34.000Z</time>
      </trkpt>
      <trkpt lat="44.58318" lon="4.32844">
        <ele>446</ele>
        <time>2016-05-15T11:30:35.000Z</time>
      </trkpt>
      <trkpt lat="44.5832" lon="4.32844">
        <ele>446</ele>
        <time>2016-05-15T11:30:36.000Z</time>
      </trkpt>
      <trkpt lat="44.58322" lon="4.32844">
        <ele>446</ele>
        <time>2016-05-15T11:30:37.000Z</time>
      </trkpt>
      <trkpt lat="44.58325" lon="4.32845">
        <ele>446</ele>
        <time>2016-05-15T11:30:38.000Z</time>
      </trkpt>
      <trkpt lat="44.58327" lon="4.32845">
        <ele>446</ele>
        <time>2016-05-15T11:30:39.000Z</time>
      </trkpt>
      <trkpt lat="44.5833" lon="4.32846">
        <ele>446</ele>
        <time>2016-05-15T11:30:40.000Z</time>
      </trkpt>
      <trkpt lat="44.58332" lon="4.32847">
        <ele>446</ele>
        <time>2016-05-15T11:30:41.000Z</time>
      </trkpt>
      <trkpt lat="44.58335" lon="4.32848">
        <ele>450</ele>
        <time>2016-05-15T11:30:42.000Z</time>
      </trkpt>
      <trkpt lat="44.58337" lon="4.32848">
        <ele>450</ele>
        <time>2016-05-15T11:30:43.000Z</time>
      </trkpt>
      <trkpt lat="44.5834" lon="4.32849">
        <ele>451</ele>
        <time>2016-05-15T11:30:44.000Z</time>
      </trkpt>
      <trkpt lat="44.58342" lon="4.32849">
        <ele>451</ele>
        <time>2016-05-15T11:30:45.000Z</time>
      </trkpt>
      <trkpt lat="44.58345" lon="4.32849">
        <ele>451</ele>
        <time>2016-05-15T11:30:46.000Z</time>
      </trkpt>
      <trkpt lat="44.58347" lon="4.32849">
        <ele>451</ele>
        <time>2016-05-15T11:30:47.000Z</time>
      </trkpt>
      <trkpt lat="44.58349" lon="4.32849">
        <ele>452</ele>
        <time>2016-05-15T11:30:48.000Z</time>
      </trkpt>
      <trkpt lat="44.58351" lon="4.32849">
        <ele>452</ele>
        <time>2016-05-15T11:30:49.000Z</time>
      </trkpt>
      <trkpt lat="44.58353" lon="4.32849">
        <ele>452</ele>
        <time>2016-05-15T11:30:50.000Z</time>
      </trkpt>
      <trkpt lat="44.58356" lon="4.32849">
        <ele>452</ele>
        <time>2016-05-15T11:30:51.000Z</time>
      </trkpt>
      <trkpt lat="44.58358" lon="4.32848">
        <ele>453</ele>
        <time>2016-05-15T11:30:52.000Z</time>
      </trkpt>
      <trkpt lat="44.5836" lon="4.32848">
        <ele>453</ele>
        <time>2016-05-15T11:30:53.000Z</time>
      </trkpt>
      <trkpt lat="44.58362" lon="4.32849">
        <ele>453</ele>
        <time>2016-05-15T11:30:54.000Z</time>
      </trkpt>
      <trkpt lat="44.58364" lon="4.32849">
        <ele>453</ele>
        <time>2016-05-15T11:30:55.000Z</time>
      </trkpt>
      <trkpt lat="44.58366" lon="4.32849">
        <ele>453</ele>
        <time>2016-05-15T11:30:56.000Z</time>
      </trkpt>
      <trkpt lat="44.58368" lon="4.32849">
        <ele>454</ele>
        <time>2016-05-15T11:30:57.000Z</time>
      </trkpt>
      <trkpt lat="44.5837" lon="4.32849">
        <ele>454</ele>
        <time>2016-05-15T11:30:58.000Z</time>
      </trkpt>
      <trkpt lat="44.58372" lon="4.3285">
        <ele>454</ele>
        <time>2016-05-15T11:30:59.000Z</time>
      </trkpt>
      <trkpt lat="44.58375" lon="4.3285">
        <ele>454</ele>
        <time>2016-05-15T11:31:00.000Z</time>
      </trkpt>
      <trkpt lat="44.58377" lon="4.3285">
        <ele>454</ele>
        <time>2016-05-15T11:31:01.000Z</time>
      </trkpt>
      <trkpt lat="44.58379" lon="4.3285">
        <ele>454</ele>
        <time>2016-05-15T11:31:02.000Z</time>
      </trkpt>
      <trkpt lat="44.58382" lon="4.3285">
        <ele>454</ele>
        <time>2016-05-15T11:31:03.000Z</time>
      </trkpt>
      <trkpt lat="44.58384" lon="4.3285">
        <ele>454</ele>
        <time>2016-05-15T11:31:04.000Z</time>
      </trkpt>
      <trkpt lat="44.58387" lon="4.3285">
        <ele>455</ele>
        <time>2016-05-15T11:31:05.000Z</time>
      </trkpt>
      <trkpt lat="44.58389" lon="4.3285">
        <ele>455</ele>
        <time>2016-05-15T11:31:06.000Z</time>
      </trkpt>
      <trkpt lat="44.58392" lon="4.3285">
        <ele>455</ele>
        <time>2016-05-15T11:31:07.000Z</time>
      </trkpt>
      <trkpt lat="44.58394" lon="4.32849">
        <ele>454</ele>
        <time>2016-05-15T11:31:08.000Z</time>
      </trkpt>
      <trkpt lat="44.58396" lon="4.32849">
        <ele>454</ele>
        <time>2016-05-15T11:31:09.000Z</time>
      </trkpt>
      <trkpt lat="44.58399" lon="4.32849">
        <ele>454</ele>
        <time>2016-05-15T11:31:10.000Z</time>
      </trkpt>
      <trkpt lat="44.58401" lon="4.32849">
        <ele>454</ele>
        <time>2016-05-15T11:31:11.000Z</time>
      </trkpt>
      <trkpt lat="44.58404" lon="4.32849">
        <ele>454</ele>
        <time>2016-05-15T11:31:12.000Z</time>
      </trkpt>
      <trkpt lat="44.58406" lon="4.32849">
        <ele>454</ele>
        <time>2016-05-15T11:31:13.000Z</time>
      </trkpt>
      <trkpt lat="44.58409" lon="4.32849">
        <ele>454</ele>
        <time>2016-05-15T11:31:14.000Z</time>
      </trkpt>
      <trkpt lat="44.58411" lon="4.3285">
        <ele>454</ele>
        <time>2016-05-15T11:31:15.000Z</time>
      </trkpt>
      <trkpt lat="44.58414" lon="4.32851">
        <ele>454</ele>
        <time>2016-05-15T11:31:16.000Z</time>
      </trkpt>
      <trkpt lat="44.58416" lon="4.32852">
        <ele>454</ele>
        <time>2016-05-15T11:31:17.000Z</time>
      </trkpt>
      <trkpt lat="44.58418" lon="4.32853">
        <ele>456</ele>
        <time>2016-05-15T11:31:18.000Z</time>
      </trkpt>
      <trkpt lat="44.58421" lon="4.32854">
        <ele>456</ele>
        <time>2016-05-15T11:31:19.000Z</time>
      </trkpt>
      <trkpt lat="44.58423" lon="4.32856">
        <ele>456</ele>
        <time>2016-05-15T11:31:20.000Z</time>
      </trkpt>
      <trkpt lat="44.58425" lon="4.32858">
        <ele>457</ele>
        <time>2016-05-15T11:31:21.000Z</time>
      </trkpt>
      <trkpt lat="44.58427" lon="4.3286">
        <ele>457</ele>
        <time>2016-05-15T11:31:22.000Z</time>
      </trkpt>
      <trkpt lat="44.5843" lon="4.32862">
        <ele>457</ele>
        <time>2016-05-15T11:31:23.000Z</time>
      </trkpt>
      <trkpt lat="44.58432" lon="4.32864">
        <ele>458</ele>
        <time>2016-05-15T11:31:24.000Z</time>
      </trkpt>
      <trkpt lat="44.58434" lon="4.32866">
        <ele>458</ele>
        <time>2016-05-15T11:31:25.000Z</time>
      </trkpt>
      <trkpt lat="44.58435" lon="4.32868">
        <ele>458</ele>
        <time>2016-05-15T11:31:26.000Z</time>
      </trkpt>
      <trkpt lat="44.58437" lon="4.3287">
        <ele>459</ele>
        <time>2016-05-15T11:31:27.000Z</time>
      </trkpt>
      <trkpt lat="44.58439" lon="4.32872">
        <ele>459</ele>
        <time>2016-05-15T11:31:28.000Z</time>
      </trkpt>
      <trkpt lat="44.58441" lon="4.32874">
        <ele>459</ele>
        <time>2016-05-15T11:31:29.000Z</time>
      </trkpt>
      <trkpt lat="44.58444" lon="4.32876">
        <ele>459</ele>
        <time>2016-05-15T11:31:30.000Z</time>
      </trkpt>
      <trkpt lat="44.58446" lon="4.32877">
        <ele>459</ele>
        <time>2016-05-15T11:31:31.000Z</time>
      </trkpt>
      <trkpt lat="44.58448" lon="4.32879">
        <ele>460</ele>
        <time>2016-05-15T11:31:32.000Z</time>
      </trkpt>
      <trkpt lat="44.5845" lon="4.32881">
        <ele>460</ele>
        <time>2016-05-15T11:31:33.000Z</time>
      </trkpt>
      <trkpt lat="44.58452" lon="4.32882">
        <ele>460</ele>
        <time>2016-05-15T11:31:34.000Z</time>
      </trkpt>
      <trkpt lat="44.58454" lon="4.32884">
        <ele>460</ele>
        <time>2016-05-15T11:31:35.000Z</time>
      </trkpt>
      <trkpt lat="44.58457" lon="4.32885">
        <ele>460</ele>
        <time>2016-05-15T11:31:36.000Z</time>
      </trkpt>
      <trkpt lat="44.58459" lon="4.32886">
        <ele>460</ele>
        <time>2016-05-15T11:31:37.000Z</time>
      </trkpt>
      <trkpt lat="44.58462" lon="4.32887">
        <ele>460</ele>
        <time>2016-05-15T11:31:38.000Z</time>
      </trkpt>
      <trkpt lat="44.58465" lon="4.32888">
        <ele>460</ele>
        <time>2016-05-15T11:31:39.000Z</time>
      </trkpt>
      <trkpt lat="44.58467" lon="4.32889">
        <ele>460</ele>
        <time>2016-05-15T11:31:40.000Z</time>
      </trkpt>
      <trkpt lat="44.58469" lon="4.32889">
        <ele>460</ele>
        <time>2016-05-15T11:31:41.000Z</time>
      </trkpt>
      <trkpt lat="44.58472" lon="4.32889">
        <ele>460</ele>
        <time>2016-05-15T11:31:42.000Z</time>
      </trkpt>
      <trkpt lat="44.58475" lon="4.32889">
        <ele>460</ele>
        <time>2016-05-15T11:31:43.000Z</time>
      </trkpt>
      <trkpt lat="44.58478" lon="4.3289">
        <ele>460</ele>
        <time>2016-05-15T11:31:44.000Z</time>
      </trkpt>
      <trkpt lat="44.5848" lon="4.3289">
        <ele>460</ele>
        <time>2016-05-15T11:31:45.000Z</time>
      </trkpt>
      <trkpt lat="44.58482" lon="4.3289">
        <ele>460</ele>
        <time>2016-05-15T11:31:46.000Z</time>
      </trkpt>
      <trkpt lat="44.58484" lon="4.32889">
        <ele>460</ele>
        <time>2016-05-15T11:31:47.000Z</time>
      </trkpt>
      <trkpt lat="44.58486" lon="4.32889">
        <ele>460</ele>
        <time>2016-05-15T11:31:48.000Z</time>
      </trkpt>
      <trkpt lat="44.58488" lon="4.32889">
        <ele>460</ele>
        <time>2016-05-15T11:31:49.000Z</time>
      </trkpt>
      <trkpt lat="44.5849" lon="4.32889">
        <ele>460</ele>
        <time>2016-05-15T11:31:50.000Z</time>
      </trkpt>
      <trkpt lat="44.58492" lon="4.32889">
        <ele>460</ele>
        <time>2016-05-15T11:31:51.000Z</time>
      </trkpt>
      <trkpt lat="44.58495" lon="4.32889">
        <ele>460</ele>
        <time>2016-05-15T11:31:52.000Z</time>
      </trkpt>
      <trkpt lat="44.58497" lon="4.32889">
        <ele>460</ele>
        <time>2016-05-15T11:31:53.000Z</time>
      </trkpt>
      <trkpt lat="44.585" lon="4.3289">
        <ele>459</ele>
        <time>2016-05-15T11:31:54.000Z</time>
      </trkpt>
      <trkpt lat="44.58503" lon="4.32891">
        <ele>459</ele>
        <time>2016-05-15T11:31:55.000Z</time>
      </trkpt>
      <trkpt lat="44.58505" lon="4.32893">
        <ele>459</ele>
        <time>2016-05-15T11:31:56.000Z</time>
      </trkpt>
      <trkpt lat="44.58508" lon="4.32895">
        <ele>459</ele>
        <time>2016-05-15T11:31:57.000Z</time>
      </trkpt>
      <trkpt lat="44.5851" lon="4.32897">
        <ele>459</ele>
        <time>2016-05-15T11:31:58.000Z</time>
      </trkpt>
      <trkpt lat="44.58513" lon="4.32899">
        <ele>459</ele>
        <time>2016-05-15T11:31:59.000Z</time>
      </trkpt>
      <trkpt lat="44.58515" lon="4.329">
        <ele>459</ele>
        <time>2016-05-15T11:32:00.000Z</time>
      </trkpt>
      <trkpt lat="44.58516" lon="4.32902">
        <ele>460</ele>
        <time>2016-05-15T11:32:01.000Z</time>
      </trkpt>
      <trkpt lat="44.58518" lon="4.32903">
        <ele>459</ele>
        <time>2016-05-15T11:32:02.000Z</time>
      </trkpt>
      <trkpt lat="44.5852" lon="4.32904">
        <ele>459</ele>
        <time>2016-05-15T11:32:03.000Z</time>
      </trkpt>
      <trkpt lat="44.58522" lon="4.32906">
        <ele>459</ele>
        <time>2016-05-15T11:32:04.000Z</time>
      </trkpt>
      <trkpt lat="44.58524" lon="4.32907">
        <ele>459</ele>
        <time>2016-05-15T11:32:05.000Z</time>
      </trkpt>
      <trkpt lat="44.58526" lon="4.32909">
        <ele>459</ele>
        <time>2016-05-15T11:32:06.000Z</time>
      </trkpt>
      <trkpt lat="44.58527" lon="4.32911">
        <ele>459</ele>
        <time>2016-05-15T11:32:07.000Z</time>
      </trkpt>
      <trkpt lat="44.58529" lon="4.32913">
        <ele>459</ele>
        <time>2016-05-15T11:32:08.000Z</time>
      </trkpt>
      <trkpt lat="44.58531" lon="4.32915">
        <ele>459</ele>
        <time>2016-05-15T11:32:09.000Z</time>
      </trkpt>
      <trkpt lat="44.58534" lon="4.32917">
        <ele>467</ele>
        <time>2016-05-15T11:32:10.000Z</time>
      </trkpt>
      <trkpt lat="44.58535" lon="4.32918">
        <ele>467</ele>
        <time>2016-05-15T11:32:11.000Z</time>
      </trkpt>
      <trkpt lat="44.58537" lon="4.3292">
        <ele>467</ele>
        <time>2016-05-15T11:32:12.000Z</time>
      </trkpt>
      <trkpt lat="44.58539" lon="4.32922">
        <ele>467</ele>
        <time>2016-05-15T11:32:13.000Z</time>
      </trkpt>
      <trkpt lat="44.58541" lon="4.32925">
        <ele>466</ele>
        <time>2016-05-15T11:32:14.000Z</time>
      </trkpt>
      <trkpt lat="44.58543" lon="4.32927">
        <ele>466</ele>
        <time>2016-05-15T11:32:15.000Z</time>
      </trkpt>
      <trkpt lat="44.58545" lon="4.3293">
        <ele>466</ele>
        <time>2016-05-15T11:32:16.000Z</time>
      </trkpt>
      <trkpt lat="44.58547" lon="4.32933">
        <ele>467</ele>
        <time>2016-05-15T11:32:17.000Z</time>
      </trkpt>
      <trkpt lat="44.58549" lon="4.32936">
        <ele>467</ele>
        <time>2016-05-15T11:32:18.000Z</time>
      </trkpt>
      <trkpt lat="44.58551" lon="4.32939">
        <ele>467</ele>
        <time>2016-05-15T11:32:19.000Z</time>
      </trkpt>
      <trkpt lat="44.58552" lon="4.32942">
        <ele>467</ele>
        <time>2016-05-15T11:32:20.000Z</time>
      </trkpt>
      <trkpt lat="44.58554" lon="4.32944">
        <ele>467</ele>
        <time>2016-05-15T11:32:21.000Z</time>
      </trkpt>
      <trkpt lat="44.58556" lon="4.32947">
        <ele>467</ele>
        <time>2016-05-15T11:32:22.000Z</time>
      </trkpt>
      <trkpt lat="44.58557" lon="4.32949">
        <ele>467</ele>
        <time>2016-05-15T11:32:23.000Z</time>
      </trkpt>
      <trkpt lat="44.58559" lon="4.32952">
        <ele>467</ele>
        <time>2016-05-15T11:32:24.000Z</time>
      </trkpt>
      <trkpt lat="44.58561" lon="4.32954">
        <ele>467</ele>
        <time>2016-05-15T11:32:25.000Z</time>
      </trkpt>
      <trkpt lat="44.58563" lon="4.32957">
        <ele>468</ele>
        <time>2016-05-15T11:32:26.000Z</time>
      </trkpt>
      <trkpt lat="44.58564" lon="4.3296">
        <ele>468</ele>
        <time>2016-05-15T11:32:27.000Z</time>
      </trkpt>
      <trkpt lat="44.58566" lon="4.32963">
        <ele>468</ele>
        <time>2016-05-15T11:32:28.000Z</time>
      </trkpt>
      <trkpt lat="44.58567" lon="4.32966">
        <ele>468</ele>
        <time>2016-05-15T11:32:29.000Z</time>
      </trkpt>
      <trkpt lat="44.58569" lon="4.32968">
        <ele>468</ele>
        <time>2016-05-15T11:32:30.000Z</time>
      </trkpt>
      <trkpt lat="44.5857" lon="4.32971">
        <ele>469</ele>
        <time>2016-05-15T11:32:31.000Z</time>
      </trkpt>
      <trkpt lat="44.58571" lon="4.32973">
        <ele>469</ele>
        <time>2016-05-15T11:32:32.000Z</time>
      </trkpt>
      <trkpt lat="44.58573" lon="4.32975">
        <ele>469</ele>
        <time>2016-05-15T11:32:33.000Z</time>
      </trkpt>
      <trkpt lat="44.58575" lon="4.32978">
        <ele>469</ele>
        <time>2016-05-15T11:32:34.000Z</time>
      </trkpt>
      <trkpt lat="44.58576" lon="4.32981">
        <ele>469</ele>
        <time>2016-05-15T11:32:35.000Z</time>
      </trkpt>
      <trkpt lat="44.58578" lon="4.32984">
        <ele>469</ele>
        <time>2016-05-15T11:32:36.000Z</time>
      </trkpt>
      <trkpt lat="44.58579" lon="4.32987">
        <ele>469</ele>
        <time>2016-05-15T11:32:37.000Z</time>
      </trkpt>
      <trkpt lat="44.58581" lon="4.32989">
        <ele>470</ele>
        <time>2016-05-15T11:32:38.000Z</time>
      </trkpt>
      <trkpt lat="44.58582" lon="4.32992">
        <ele>470</ele>
        <time>2016-05-15T11:32:39.000Z</time>
      </trkpt>
      <trkpt lat="44.58584" lon="4.32995">
        <ele>468</ele>
        <time>2016-05-15T11:32:40.000Z</time>
      </trkpt>
      <trkpt lat="44.58585" lon="4.32998">
        <ele>469</ele>
        <time>2016-05-15T11:32:41.000Z</time>
      </trkpt>
      <trkpt lat="44.58586" lon="4.33002">
        <ele>470</ele>
        <time>2016-05-15T11:32:42.000Z</time>
      </trkpt>
      <trkpt lat="44.58588" lon="4.33005">
        <ele>470</ele>
        <time>2016-05-15T11:32:43.000Z</time>
      </trkpt>
      <trkpt lat="44.58589" lon="4.33008">
        <ele>470</ele>
        <time>2016-05-15T11:32:44.000Z</time>
      </trkpt>
      <trkpt lat="44.5859" lon="4.33012">
        <ele>470</ele>
        <time>2016-05-15T11:32:45.000Z</time>
      </trkpt>
      <trkpt lat="44.58591" lon="4.33015">
        <ele>471</ele>
        <time>2016-05-15T11:32:46.000Z</time>
      </trkpt>
      <trkpt lat="44.58591" lon="4.33019">
        <ele>471</ele>
        <time>2016-05-15T11:32:47.000Z</time>
      </trkpt>
      <trkpt lat="44.58592" lon="4.33023">
        <ele>471</ele>
        <time>2016-05-15T11:32:48.000Z</time>
      </trkpt>
      <trkpt lat="44.58593" lon="4.33027">
        <ele>471</ele>
        <time>2016-05-15T11:32:49.000Z</time>
      </trkpt>
      <trkpt lat="44.58594" lon="4.3303">
        <ele>471</ele>
        <time>2016-05-15T11:32:50.000Z</time>
      </trkpt>
      <trkpt lat="44.58594" lon="4.33033">
        <ele>471</ele>
        <time>2016-05-15T11:32:51.000Z</time>
      </trkpt>
      <trkpt lat="44.58595" lon="4.33036">
        <ele>472</ele>
        <time>2016-05-15T11:32:52.000Z</time>
      </trkpt>
      <trkpt lat="44.58597" lon="4.33039">
        <ele>472</ele>
        <time>2016-05-15T11:32:53.000Z</time>
      </trkpt>
      <trkpt lat="44.58598" lon="4.33042">
        <ele>472</ele>
        <time>2016-05-15T11:32:54.000Z</time>
      </trkpt>
      <trkpt lat="44.586" lon="4.33045">
        <ele>472</ele>
        <time>2016-05-15T11:32:55.000Z</time>
      </trkpt>
      <trkpt lat="44.58601" lon="4.33047">
        <ele>472</ele>
        <time>2016-05-15T11:32:56.000Z</time>
      </trkpt>
      <trkpt lat="44.58604" lon="4.33049">
        <ele>472</ele>
        <time>2016-05-15T11:32:57.000Z</time>
      </trkpt>
      <trkpt lat="44.58606" lon="4.33051">
        <ele>472</ele>
        <time>2016-05-15T11:32:58.000Z</time>
      </trkpt>
      <trkpt lat="44.58608" lon="4.33053">
        <ele>472</ele>
        <time>2016-05-15T11:32:59.000Z</time>
      </trkpt>
      <trkpt lat="44.5861" lon="4.33055">
        <ele>472</ele>
        <time>2016-05-15T11:33:00.000Z</time>
      </trkpt>
      <trkpt lat="44.58612" lon="4.33057">
        <ele>473</ele>
        <time>2016-05-15T11:33:01.000Z</time>
      </trkpt>
      <trkpt lat="44.58614" lon="4.33059">
        <ele>472</ele>
        <time>2016-05-15T11:33:02.000Z</time>
      </trkpt>
      <trkpt lat="44.58617" lon="4.3306">
        <ele>472</ele>
        <time>2016-05-15T11:33:03.000Z</time>
      </trkpt>
      <trkpt lat="44.58619" lon="4.33061">
        <ele>472</ele>
        <time>2016-05-15T11:33:04.000Z</time>
      </trkpt>
      <trkpt lat="44.58621" lon="4.33063">
        <ele>472</ele>
        <time>2016-05-15T11:33:05.000Z</time>
      </trkpt>
      <trkpt lat="44.58623" lon="4.33064">
        <ele>472</ele>
        <time>2016-05-15T11:33:06.000Z</time>
      </trkpt>
      <trkpt lat="44.58625" lon="4.33066">
        <ele>472</ele>
        <time>2016-05-15T11:33:07.000Z</time>
      </trkpt>
      <trkpt lat="44.58627" lon="4.33068">
        <ele>472</ele>
        <time>2016-05-15T11:33:08.000Z</time>
      </trkpt>
      <trkpt lat="44.58629" lon="4.3307">
        <ele>472</ele>
        <time>2016-05-15T11:33:09.000Z</time>
      </trkpt>
      <trkpt lat="44.58631" lon="4.33073">
        <ele>472</ele>
        <time>2016-05-15T11:33:10.000Z</time>
      </trkpt>
      <trkpt lat="44.58633" lon="4.33076">
        <ele>472</ele>
        <time>2016-05-15T11:33:11.000Z</time>
      </trkpt>
      <trkpt lat="44.58635" lon="4.33079">
        <ele>472</ele>
        <time>2016-05-15T11:33:12.000Z</time>
      </trkpt>
      <trkpt lat="44.58636" lon="4.33082">
        <ele>472</ele>
        <time>2016-05-15T11:33:13.000Z</time>
      </trkpt>
      <trkpt lat="44.58638" lon="4.33085">
        <ele>478</ele>
        <time>2016-05-15T11:33:14.000Z</time>
      </trkpt>
      <trkpt lat="44.5864" lon="4.33088">
        <ele>478</ele>
        <time>2016-05-15T11:33:15.000Z</time>
      </trkpt>
      <trkpt lat="44.58642" lon="4.33091">
        <ele>478</ele>
        <time>2016-05-15T11:33:16.000Z</time>
      </trkpt>
      <trkpt lat="44.58644" lon="4.33094">
        <ele>478</ele>
        <time>2016-05-15T11:33:17.000Z</time>
      </trkpt>
      <trkpt lat="44.58646" lon="4.33096">
        <ele>478</ele>
        <time>2016-05-15T11:33:18.000Z</time>
      </trkpt>
      <trkpt lat="44.58648" lon="4.33099">
        <ele>478</ele>
        <time>2016-05-15T11:33:19.000Z</time>
      </trkpt>
      <trkpt lat="44.5865" lon="4.33101">
        <ele>478</ele>
        <time>2016-05-15T11:33:20.000Z</time>
      </trkpt>
      <trkpt lat="44.58653" lon="4.33103">
        <ele>478</ele>
        <time>2016-05-15T11:33:21.000Z</time>
      </trkpt>
      <trkpt lat="44.58655" lon="4.33105">
        <ele>478</ele>
        <time>2016-05-15T11:33:22.000Z</time>
      </trkpt>
      <trkpt lat="44.58657" lon="4.33107">
        <ele>478</ele>
        <time>2016-05-15T11:33:23.000Z</time>
      </trkpt>
      <trkpt lat="44.5866" lon="4.33109">
        <ele>478</ele>
        <time>2016-05-15T11:33:24.000Z</time>
      </trkpt>
      <trkpt lat="44.58662" lon="4.33111">
        <ele>478</ele>
        <time>2016-05-15T11:33:25.000Z</time>
      </trkpt>
      <trkpt lat="44.58665" lon="4.33114">
        <ele>479</ele>
        <time>2016-05-15T11:33:26.000Z</time>
      </trkpt>
      <trkpt lat="44.58668" lon="4.33116">
        <ele>477</ele>
        <time>2016-05-15T11:33:27.000Z</time>
      </trkpt>
      <trkpt lat="44.5867" lon="4.33117">
        <ele>477</ele>
        <time>2016-05-15T11:33:28.000Z</time>
      </trkpt>
      <trkpt lat="44.58673" lon="4.33119">
        <ele>477</ele>
        <time>2016-05-15T11:33:29.000Z</time>
      </trkpt>
      <trkpt lat="44.58676" lon="4.3312">
        <ele>477</ele>
        <time>2016-05-15T11:33:30.000Z</time>
      </trkpt>
      <trkpt lat="44.58679" lon="4.33122">
        <ele>477</ele>
        <time>2016-05-15T11:33:31.000Z</time>
      </trkpt>
      <trkpt lat="44.58682" lon="4.33123">
        <ele>477</ele>
        <time>2016-05-15T11:33:32.000Z</time>
      </trkpt>
      <trkpt lat="44.58685" lon="4.33123">
        <ele>477</ele>
        <time>2016-05-15T11:33:33.000Z</time>
      </trkpt>
      <trkpt lat="44.58688" lon="4.33124">
        <ele>478</ele>
        <time>2016-05-15T11:33:34.000Z</time>
      </trkpt>
      <trkpt lat="44.58691" lon="4.33125">
        <ele>478</ele>
        <time>2016-05-15T11:33:35.000Z</time>
      </trkpt>
      <trkpt lat="44.58694" lon="4.33126">
        <ele>478</ele>
        <time>2016-05-15T11:33:36.000Z</time>
      </trkpt>
      <trkpt lat="44.58696" lon="4.33127">
        <ele>478</ele>
        <time>2016-05-15T11:33:37.000Z</time>
      </trkpt>
      <trkpt lat="44.58699" lon="4.33127">
        <ele>478</ele>
        <time>2016-05-15T11:33:38.000Z</time>
      </trkpt>
      <trkpt lat="44.58702" lon="4.33127">
        <ele>478</ele>
        <time>2016-05-15T11:33:39.000Z</time>
      </trkpt>
      <trkpt lat="44.58705" lon="4.33127">
        <ele>478</ele>
        <time>2016-05-15T11:33:40.000Z</time>
      </trkpt>
      <trkpt lat="44.58708" lon="4.33128">
        <ele>478</ele>
        <time>2016-05-15T11:33:41.000Z</time>
      </trkpt>
      <trkpt lat="44.5871" lon="4.33128">
        <ele>478</ele>
        <time>2016-05-15T11:33:42.000Z</time>
      </trkpt>
      <trkpt lat="44.58713" lon="4.33128">
        <ele>478</ele>
        <time>2016-05-15T11:33:43.000Z</time>
      </trkpt>
      <trkpt lat="44.58716" lon="4.33128">
        <ele>478</ele>
        <time>2016-05-15T11:33:44.000Z</time>
      </trkpt>
      <trkpt lat="44.58718" lon="4.33129">
        <ele>478</ele>
        <time>2016-05-15T11:33:45.000Z</time>
      </trkpt>
      <trkpt lat="44.58721" lon="4.3313">
        <ele>478</ele>
        <time>2016-05-15T11:33:46.000Z</time>
      </trkpt>
      <trkpt lat="44.58723" lon="4.3313">
        <ele>478</ele>
        <time>2016-05-15T11:33:47.000Z</time>
      </trkpt>
      <trkpt lat="44.58726" lon="4.33131">
        <ele>478</ele>
        <time>2016-05-15T11:33:48.000Z</time>
      </trkpt>
      <trkpt lat="44.58728" lon="4.33133">
        <ele>478</ele>
        <time>2016-05-15T11:33:49.000Z</time>
      </trkpt>
      <trkpt lat="44.5873" lon="4.33134">
        <ele>478</ele>
        <time>2016-05-15T11:33:50.000Z</time>
      </trkpt>
      <trkpt lat="44.58732" lon="4.33136">
        <ele>478</ele>
        <time>2016-05-15T11:33:51.000Z</time>
      </trkpt>
      <trkpt lat="44.58734" lon="4.33137">
        <ele>478</ele>
        <time>2016-05-15T11:33:52.000Z</time>
      </trkpt>
      <trkpt lat="44.58736" lon="4.3314">
        <ele>478</ele>
        <time>2016-05-15T11:33:53.000Z</time>
      </trkpt>
      <trkpt lat="44.58739" lon="4.33142">
        <ele>479</ele>
        <time>2016-05-15T11:33:54.000Z</time>
      </trkpt>
      <trkpt lat="44.58741" lon="4.33143">
        <ele>479</ele>
        <time>2016-05-15T11:33:55.000Z</time>
      </trkpt>
      <trkpt lat="44.58744" lon="4.33145">
        <ele>479</ele>
        <time>2016-05-15T11:33:56.000Z</time>
      </trkpt>
      <trkpt lat="44.58746" lon="4.33147">
        <ele>479</ele>
        <time>2016-05-15T11:33:57.000Z</time>
      </trkpt>
      <trkpt lat="44.58749" lon="4.33148">
        <ele>479</ele>
        <time>2016-05-15T11:33:58.000Z</time>
      </trkpt>
      <trkpt lat="44.58752" lon="4.3315">
        <ele>479</ele>
        <time>2016-05-15T11:33:59.000Z</time>
      </trkpt>
      <trkpt lat="44.58754" lon="4.33152">
        <ele>479</ele>
        <time>2016-05-15T11:34:00.000Z</time>
      </trkpt>
      <trkpt lat="44.58757" lon="4.33154">
        <ele>479</ele>
        <time>2016-05-15T11:34:01.000Z</time>
      </trkpt>
      <trkpt lat="44.5876" lon="4.33156">
        <ele>479</ele>
        <time>2016-05-15T11:34:02.000Z</time>
      </trkpt>
      <trkpt lat="44.58762" lon="4.33157">
        <ele>479</ele>
        <time>2016-05-15T11:34:03.000Z</time>
      </trkpt>
      <trkpt lat="44.58765" lon="4.33159">
        <ele>479</ele>
        <time>2016-05-15T11:34:04.000Z</time>
      </trkpt>
      <trkpt lat="44.58768" lon="4.33161">
        <ele>479</ele>
        <time>2016-05-15T11:34:05.000Z</time>
      </trkpt>
      <trkpt lat="44.5877" lon="4.33163">
        <ele>478</ele>
        <time>2016-05-15T11:34:06.000Z</time>
      </trkpt>
      <trkpt lat="44.58773" lon="4.33165">
        <ele>478</ele>
        <time>2016-05-15T11:34:07.000Z</time>
      </trkpt>
      <trkpt lat="44.58775" lon="4.33167">
        <ele>478</ele>
        <time>2016-05-15T11:34:08.000Z</time>
      </trkpt>
      <trkpt lat="44.58778" lon="4.33169">
        <ele>481</ele>
        <time>2016-05-15T11:34:09.000Z</time>
      </trkpt>
      <trkpt lat="44.5878" lon="4.33171">
        <ele>481</ele>
        <time>2016-05-15T11:34:10.000Z</time>
      </trkpt>
      <trkpt lat="44.58783" lon="4.33173">
        <ele>481</ele>
        <time>2016-05-15T11:34:11.000Z</time>
      </trkpt>
      <trkpt lat="44.58785" lon="4.33176">
        <ele>481</ele>
        <time>2016-05-15T11:34:12.000Z</time>
      </trkpt>
      <trkpt lat="44.58787" lon="4.33178">
        <ele>481</ele>
        <time>2016-05-15T11:34:13.000Z</time>
      </trkpt>
      <trkpt lat="44.5879" lon="4.3318">
        <ele>481</ele>
        <time>2016-05-15T11:34:14.000Z</time>
      </trkpt>
      <trkpt lat="44.58792" lon="4.33183">
        <ele>481</ele>
        <time>2016-05-15T11:34:15.000Z</time>
      </trkpt>
      <trkpt lat="44.58795" lon="4.33185">
        <ele>481</ele>
        <time>2016-05-15T11:34:16.000Z</time>
      </trkpt>
      <trkpt lat="44.58797" lon="4.33187">
        <ele>481</ele>
        <time>2016-05-15T11:34:17.000Z</time>
      </trkpt>
      <trkpt lat="44.58799" lon="4.3319">
        <ele>481</ele>
        <time>2016-05-15T11:34:18.000Z</time>
      </trkpt>
      <trkpt lat="44.58802" lon="4.33192">
        <ele>481</ele>
        <time>2016-05-15T11:34:19.000Z</time>
      </trkpt>
      <trkpt lat="44.58805" lon="4.33194">
        <ele>481</ele>
        <time>2016-05-15T11:34:20.000Z</time>
      </trkpt>
      <trkpt lat="44.58807" lon="4.33197">
        <ele>481</ele>
        <time>2016-05-15T11:34:21.000Z</time>
      </trkpt>
      <trkpt lat="44.5881" lon="4.33199">
        <ele>481</ele>
        <time>2016-05-15T11:34:22.000Z</time>
      </trkpt>
      <trkpt lat="44.58813" lon="4.33201">
        <ele>481</ele>
        <time>2016-05-15T11:34:23.000Z</time>
      </trkpt>
      <trkpt lat="44.58816" lon="4.33204">
        <ele>481</ele>
        <time>2016-05-15T11:34:24.000Z</time>
      </trkpt>
      <trkpt lat="44.58818" lon="4.33206">
        <ele>481</ele>
        <time>2016-05-15T11:34:25.000Z</time>
      </trkpt>
      <trkpt lat="44.58821" lon="4.33208">
        <ele>482</ele>
        <time>2016-05-15T11:34:26.000Z</time>
      </trkpt>
      <trkpt lat="44.58824" lon="4.3321">
        <ele>482</ele>
        <time>2016-05-15T11:34:27.000Z</time>
      </trkpt>
      <trkpt lat="44.58827" lon="4.33213">
        <ele>482</ele>
        <time>2016-05-15T11:34:28.000Z</time>
      </trkpt>
      <trkpt lat="44.5883" lon="4.33215">
        <ele>482</ele>
        <time>2016-05-15T11:34:29.000Z</time>
      </trkpt>
      <trkpt lat="44.58833" lon="4.33218">
        <ele>482</ele>
        <time>2016-05-15T11:34:30.000Z</time>
      </trkpt>
      <trkpt lat="44.58835" lon="4.3322">
        <ele>481</ele>
        <time>2016-05-15T11:34:31.000Z</time>
      </trkpt>
      <trkpt lat="44.58838" lon="4.33223">
        <ele>481</ele>
        <time>2016-05-15T11:34:32.000Z</time>
      </trkpt>
      <trkpt lat="44.58841" lon="4.33226">
        <ele>481</ele>
        <time>2016-05-15T11:34:33.000Z</time>
      </trkpt>
      <trkpt lat="44.58843" lon="4.33228">
        <ele>482</ele>
        <time>2016-05-15T11:34:34.000Z</time>
      </trkpt>
      <trkpt lat="44.58846" lon="4.33231">
        <ele>482</ele>
        <time>2016-05-15T11:34:35.000Z</time>
      </trkpt>
      <trkpt lat="44.58849" lon="4.33233">
        <ele>482</ele>
        <time>2016-05-15T11:34:36.000Z</time>
      </trkpt>
      <trkpt lat="44.58851" lon="4.33236">
        <ele>482</ele>
        <time>2016-05-15T11:34:37.000Z</time>
      </trkpt>
      <trkpt lat="44.58854" lon="4.33239">
        <ele>482</ele>
        <time>2016-05-15T11:34:38.000Z</time>
      </trkpt>
      <trkpt lat="44.58857" lon="4.33241">
        <ele>482</ele>
        <time>2016-05-15T11:34:39.000Z</time>
      </trkpt>
      <trkpt lat="44.58859" lon="4.33244">
        <ele>482</ele>
        <time>2016-05-15T11:34:40.000Z</time>
      </trkpt>
      <trkpt lat="44.58861" lon="4.33247">
        <ele>482</ele>
        <time>2016-05-15T11:34:41.000Z</time>
      </trkpt>
      <trkpt lat="44.58864" lon="4.3325">
        <ele>482</ele>
        <time>2016-05-15T11:34:42.000Z</time>
      </trkpt>
      <trkpt lat="44.58867" lon="4.33253">
        <ele>484</ele>
        <time>2016-05-15T11:34:43.000Z</time>
      </trkpt>
      <trkpt lat="44.58869" lon="4.33256">
        <ele>484</ele>
        <time>2016-05-15T11:34:44.000Z</time>
      </trkpt>
      <trkpt lat="44.58871" lon="4.33259">
        <ele>484</ele>
        <time>2016-05-15T11:34:45.000Z</time>
      </trkpt>
      <trkpt lat="44.58874" lon="4.33262">
        <ele>484</ele>
        <time>2016-05-15T11:34:46.000Z</time>
      </trkpt>
      <trkpt lat="44.58876" lon="4.33266">
        <ele>484</ele>
        <time>2016-05-15T11:34:47.000Z</time>
      </trkpt>
      <trkpt lat="44.58878" lon="4.3327">
        <ele>484</ele>
        <time>2016-05-15T11:34:48.000Z</time>
      </trkpt>
      <trkpt lat="44.5888" lon="4.33274">
        <ele>485</ele>
        <time>2016-05-15T11:34:49.000Z</time>
      </trkpt>
      <trkpt lat="44.58882" lon="4.33278">
        <ele>485</ele>
        <time>2016-05-15T11:34:50.000Z</time>
      </trkpt>
      <trkpt lat="44.58883" lon="4.33283">
        <ele>485</ele>
        <time>2016-05-15T11:34:51.000Z</time>
      </trkpt>
      <trkpt lat="44.58884" lon="4.33288">
        <ele>485</ele>
        <time>2016-05-15T11:34:52.000Z</time>
      </trkpt>
      <trkpt lat="44.58886" lon="4.33293">
        <ele>485</ele>
        <time>2016-05-15T11:34:53.000Z</time>
      </trkpt>
      <trkpt lat="44.58887" lon="4.33298">
        <ele>485</ele>
        <time>2016-05-15T11:34:54.000Z</time>
      </trkpt>
      <trkpt lat="44.58888" lon="4.33303">
        <ele>485</ele>
        <time>2016-05-15T11:34:55.000Z</time>
      </trkpt>
      <trkpt lat="44.58889" lon="4.33309">
        <ele>485</ele>
        <time>2016-05-15T11:34:56.000Z</time>
      </trkpt>
      <trkpt lat="44.5889" lon="4.33314">
        <ele>485</ele>
        <time>2016-05-15T11:34:57.000Z</time>
      </trkpt>
      <trkpt lat="44.58891" lon="4.33318">
        <ele>485</ele>
        <time>2016-05-15T11:34:58.000Z</time>
      </trkpt>
      <trkpt lat="44.58892" lon="4.33324">
        <ele>486</ele>
        <time>2016-05-15T11:34:59.000Z</time>
      </trkpt>
      <trkpt lat="44.58894" lon="4.33328">
        <ele>486</ele>
        <time>2016-05-15T11:35:00.000Z</time>
      </trkpt>
      <trkpt lat="44.58896" lon="4.33332">
        <ele>486</ele>
        <time>2016-05-15T11:35:01.000Z</time>
      </trkpt>
      <trkpt lat="44.58898" lon="4.33336">
        <ele>486</ele>
        <time>2016-05-15T11:35:02.000Z</time>
      </trkpt>
      <trkpt lat="44.589" lon="4.33339">
        <ele>486</ele>
        <time>2016-05-15T11:35:03.000Z</time>
      </trkpt>
      <trkpt lat="44.58902" lon="4.33342">
        <ele>486</ele>
        <time>2016-05-15T11:35:04.000Z</time>
      </trkpt>
      <trkpt lat="44.58903" lon="4.33345">
        <ele>486</ele>
        <time>2016-05-15T11:35:05.000Z</time>
      </trkpt>
      <trkpt lat="44.58904" lon="4.33348">
        <ele>486</ele>
        <time>2016-05-15T11:35:06.000Z</time>
      </trkpt>
      <trkpt lat="44.58904" lon="4.3335">
        <ele>486</ele>
        <time>2016-05-15T11:35:07.000Z</time>
      </trkpt>
      <trkpt lat="44.58904" lon="4.33352">
        <ele>486</ele>
        <time>2016-05-15T11:35:08.000Z</time>
      </trkpt>
      <trkpt lat="44.58905" lon="4.33354">
        <ele>486</ele>
        <time>2016-05-15T11:35:09.000Z</time>
      </trkpt>
      <trkpt lat="44.58906" lon="4.33355">
        <ele>485</ele>
        <time>2016-05-15T11:35:10.000Z</time>
      </trkpt>
      <trkpt lat="44.58907" lon="4.33356">
        <ele>485</ele>
        <time>2016-05-15T11:35:11.000Z</time>
      </trkpt>
      <trkpt lat="44.58907" lon="4.33356">
        <ele>485</ele>
        <time>2016-05-15T11:35:12.000Z</time>
      </trkpt>
      <trkpt lat="44.58907" lon="4.33356">
        <ele>485</ele>
        <time>2016-05-15T11:35:13.000Z</time>
      </trkpt>
      <trkpt lat="44.58907" lon="4.33356">
        <ele>485</ele>
        <time>2016-05-15T11:35:14.000Z</time>
      </trkpt>
      <trkpt lat="44.58907" lon="4.33356">
        <ele>485</ele>
        <time>2016-05-15T11:35:15.000Z</time>
      </trkpt>
      <trkpt lat="44.58907" lon="4.33356">
        <ele>485</ele>
        <time>2016-05-15T11:35:16.000Z</time>
      </trkpt>
      <trkpt lat="44.58907" lon="4.33356">
        <ele>485</ele>
        <time>2016-05-15T11:35:17.000Z</time>
      </trkpt>
      <trkpt lat="44.58907" lon="4.33356">
        <ele>485</ele>
        <time>2016-05-15T11:35:18.000Z</time>
      </trkpt>
      <trkpt lat="44.58907" lon="4.33356">
        <ele>485</ele>
        <time>2016-05-15T11:35:19.000Z</time>
      </trkpt>
      <trkpt lat="44.58908" lon="4.33356">
        <ele>485</ele>
        <time>2016-05-15T11:35:20.000Z</time>
      </trkpt>
      <trkpt lat="44.58909" lon="4.33355">
        <ele>485</ele>
        <time>2016-05-15T11:35:21.000Z</time>
      </trkpt>
      <trkpt lat="44.5891" lon="4.33354">
        <ele>485</ele>
        <time>2016-05-15T11:35:22.000Z</time>
      </trkpt>
      <trkpt lat="44.58909" lon="4.33353">
        <ele>486</ele>
        <time>2016-05-15T11:35:23.000Z</time>
      </trkpt>
      <trkpt lat="44.58909" lon="4.33353">
        <ele>486</ele>
        <time>2016-05-15T11:35:24.000Z</time>
      </trkpt>
      <trkpt lat="44.58909" lon="4.33353">
        <ele>486</ele>
        <time>2016-05-15T11:35:25.000Z</time>
      </trkpt>
      <trkpt lat="44.58909" lon="4.33353">
        <ele>486</ele>
        <time>2016-05-15T11:35:26.000Z</time>
      </trkpt>
      <trkpt lat="44.58909" lon="4.33353">
        <ele>486</ele>
        <time>2016-05-15T11:35:27.000Z</time>
      </trkpt>
      <trkpt lat="44.58909" lon="4.33353">
        <ele>486</ele>
        <time>2016-05-15T11:35:28.000Z</time>
      </trkpt>
      <trkpt lat="44.58909" lon="4.33353">
        <ele>486</ele>
        <time>2016-05-15T11:35:29.000Z</time>
      </trkpt>
      <trkpt lat="44.58909" lon="4.33353">
        <ele>486</ele>
        <time>2016-05-15T11:35:30.000Z</time>
      </trkpt>
      <trkpt lat="44.58909" lon="4.33353">
        <ele>486</ele>
        <time>2016-05-15T11:35:31.000Z</time>
      </trkpt>
      <trkpt lat="44.58909" lon="4.33353">
        <ele>486</ele>
        <time>2016-05-15T11:35:32.000Z</time>
      </trkpt>
      <trkpt lat="44.58909" lon="4.33353">
        <ele>486</ele>
        <time>2016-05-15T11:35:33.000Z</time>
      </trkpt>
      <trkpt lat="44.5891" lon="4.33353">
        <ele>486</ele>
        <time>2016-05-15T11:35:34.000Z</time>
      </trkpt>
      <trkpt lat="44.5891" lon="4.33353">
        <ele>486</ele>
        <time>2016-05-15T11:35:35.000Z</time>
      </trkpt>
      <trkpt lat="44.5891" lon="4.33353">
        <ele>486</ele>
        <time>2016-05-15T11:35:36.000Z</time>
      </trkpt>
      <trkpt lat="44.5891" lon="4.33353">
        <ele>486</ele>
        <time>2016-05-15T11:35:37.000Z</time>
      </trkpt>
      <trkpt lat="44.5891" lon="4.33353">
        <ele>486</ele>
        <time>2016-05-15T11:35:38.000Z</time>
      </trkpt>
      <trkpt lat="44.5891" lon="4.33353">
        <ele>486</ele>
        <time>2016-05-15T11:35:39.000Z</time>
      </trkpt>
      <trkpt lat="44.5891" lon="4.33353">
        <ele>486</ele>
        <time>2016-05-15T11:35:40.000Z</time>
      </trkpt>
      <trkpt lat="44.5891" lon="4.33353">
        <ele>486</ele>
        <time>2016-05-15T11:35:41.000Z</time>
      </trkpt>
      <trkpt lat="44.5891" lon="4.33353">
        <ele>485</ele>
        <time>2016-05-15T11:35:42.000Z</time>
      </trkpt>
      <trkpt lat="44.5891" lon="4.33354">
        <ele>485</ele>
        <time>2016-05-15T11:35:43.000Z</time>
      </trkpt>
      <trkpt lat="44.5891" lon="4.33354">
        <ele>485</ele>
        <time>2016-05-15T11:35:44.000Z</time>
      </trkpt>
      <trkpt lat="44.5891" lon="4.33354">
        <ele>485</ele>
        <time>2016-05-15T11:35:45.000Z</time>
      </trkpt>
      <trkpt lat="44.58911" lon="4.33354">
        <ele>485</ele>
        <time>2016-05-15T11:35:46.000Z</time>
      </trkpt>
      <trkpt lat="44.58911" lon="4.33354">
        <ele>485</ele>
        <time>2016-05-15T11:35:47.000Z</time>
      </trkpt>
      <trkpt lat="44.58911" lon="4.33354">
        <ele>485</ele>
        <time>2016-05-15T11:35:48.000Z</time>
      </trkpt>
      <trkpt lat="44.58911" lon="4.33355">
        <ele>485</ele>
        <time>2016-05-15T11:35:49.000Z</time>
      </trkpt>
      <trkpt lat="44.58911" lon="4.33355">
        <ele>485</ele>
        <time>2016-05-15T11:35:50.000Z</time>
      </trkpt>
      <trkpt lat="44.58911" lon="4.33355">
        <ele>485</ele>
        <time>2016-05-15T11:35:51.000Z</time>
      </trkpt>
      <trkpt lat="44.58911" lon="4.33355">
        <ele>485</ele>
        <time>2016-05-15T11:35:52.000Z</time>
      </trkpt>
      <trkpt lat="44.58912" lon="4.33355">
        <ele>485</ele>
        <time>2016-05-15T11:35:53.000Z</time>
      </trkpt>
      <trkpt lat="44.58912" lon="4.33355">
        <ele>485</ele>
        <time>2016-05-15T11:35:54.000Z</time>
      </trkpt>
      <trkpt lat="44.58912" lon="4.33355">
        <ele>485</ele>
        <time>2016-05-15T11:35:55.000Z</time>
      </trkpt>
      <trkpt lat="44.58912" lon="4.33355">
        <ele>485</ele>
        <time>2016-05-15T11:35:56.000Z</time>
      </trkpt>
      <trkpt lat="44.58912" lon="4.33355">
        <ele>485</ele>
        <time>2016-05-15T11:35:57.000Z</time>
      </trkpt>
      <trkpt lat="44.58912" lon="4.33355">
        <ele>485</ele>
        <time>2016-05-15T11:35:58.000Z</time>
      </trkpt>
      <trkpt lat="44.58912" lon="4.33355">
        <ele>485</ele>
        <time>2016-05-15T11:35:59.000Z</time>
      </trkpt>
      <trkpt lat="44.58913" lon="4.33356">
        <ele>485</ele>
        <time>2016-05-15T11:36:00.000Z</time>
      </trkpt>
      <trkpt lat="44.58913" lon="4.33356">
        <ele>485</ele>
        <time>2016-05-15T11:36:01.000Z</time>
      </trkpt>
      <trkpt lat="44.58913" lon="4.33356">
        <ele>485</ele>
        <time>2016-05-15T11:36:02.000Z</time>
      </trkpt>
      <trkpt lat="44.58913" lon="4.33356">
        <ele>485</ele>
        <time>2016-05-15T11:36:03.000Z</time>
      </trkpt>
      <trkpt lat="44.58913" lon="4.33356">
        <ele>485</ele>
        <time>2016-05-15T11:36:04.000Z</time>
      </trkpt>
      <trkpt lat="44.58913" lon="4.33356">
        <ele>485</ele>
        <time>2016-05-15T11:36:05.000Z</time>
      </trkpt>
      <trkpt lat="44.58913" lon="4.33356">
        <ele>485</ele>
        <time>2016-05-15T11:36:06.000Z</time>
      </trkpt>
      <trkpt lat="44.58913" lon="4.33356">
        <ele>485</ele>
        <time>2016-05-15T11:36:07.000Z</time>
      </trkpt>
      <trkpt lat="44.58913" lon="4.33356">
        <ele>485</ele>
        <time>2016-05-15T11:36:08.000Z</time>
      </trkpt>
      <trkpt lat="44.58913" lon="4.33356">
        <ele>485</ele>
        <time>2016-05-15T11:36:09.000Z</time>
      </trkpt>
      <trkpt lat="44.58913" lon="4.33356">
        <ele>485</ele>
        <time>2016-05-15T11:36:10.000Z</time>
      </trkpt>
      <trkpt lat="44.58913" lon="4.33356">
        <ele>485</ele>
        <time>2016-05-15T11:36:11.000Z</time>
      </trkpt>
      <trkpt lat="44.58914" lon="4.33356">
        <ele>485</ele>
        <time>2016-05-15T11:36:12.000Z</time>
      </trkpt>
      <trkpt lat="44.58914" lon="4.33356">
        <ele>485</ele>
        <time>2016-05-15T11:36:13.000Z</time>
      </trkpt>
      <trkpt lat="44.58914" lon="4.33356">
        <ele>485</ele>
        <time>2016-05-15T11:36:14.000Z</time>
      </trkpt>
      <trkpt lat="44.58914" lon="4.33356">
        <ele>485</ele>
        <time>2016-05-15T11:36:15.000Z</time>
      </trkpt>
      <trkpt lat="44.58914" lon="4.33356">
        <ele>485</ele>
        <time>2016-05-15T11:36:16.000Z</time>
      </trkpt>
      <trkpt lat="44.58914" lon="4.33355">
        <ele>485</ele>
        <time>2016-05-15T11:36:17.000Z</time>
      </trkpt>
      <trkpt lat="44.58914" lon="4.33355">
        <ele>485</ele>
        <time>2016-05-15T11:36:18.000Z</time>
      </trkpt>
      <trkpt lat="44.58914" lon="4.33355">
        <ele>485</ele>
        <time>2016-05-15T11:36:19.000Z</time>
      </trkpt>
      <trkpt lat="44.58914" lon="4.33355">
        <ele>485</ele>
        <time>2016-05-15T11:36:20.000Z</time>
      </trkpt>
      <trkpt lat="44.58914" lon="4.33355">
        <ele>485</ele>
        <time>2016-05-15T11:36:21.000Z</time>
      </trkpt>
      <trkpt lat="44.58914" lon="4.33355">
        <ele>485</ele>
        <time>2016-05-15T11:36:22.000Z</time>
      </trkpt>
      <trkpt lat="44.58914" lon="4.33355">
        <ele>485</ele>
        <time>2016-05-15T11:36:23.000Z</time>
      </trkpt>
      <trkpt lat="44.58914" lon="4.33355">
        <ele>485</ele>
        <time>2016-05-15T11:36:24.000Z</time>
      </trkpt>
      <trkpt lat="44.58913" lon="4.33356">
        <ele>485</ele>
        <time>2016-05-15T11:36:25.000Z</time>
      </trkpt>
      <trkpt lat="44.58913" lon="4.33358">
        <ele>485</ele>
        <time>2016-05-15T11:36:26.000Z</time>
      </trkpt>
      <trkpt lat="44.58914" lon="4.33362">
        <ele>485</ele>
        <time>2016-05-15T11:36:27.000Z</time>
      </trkpt>
      <trkpt lat="44.58915" lon="4.33366">
        <ele>485</ele>
        <time>2016-05-15T11:36:28.000Z</time>
      </trkpt>
      <trkpt lat="44.58917" lon="4.3337">
        <ele>484</ele>
        <time>2016-05-15T11:36:29.000Z</time>
      </trkpt>
      <trkpt lat="44.58918" lon="4.33375">
        <ele>484</ele>
        <time>2016-05-15T11:36:30.000Z</time>
      </trkpt>
      <trkpt lat="44.58921" lon="4.33381">
        <ele>484</ele>
        <time>2016-05-15T11:36:31.000Z</time>
      </trkpt>
      <trkpt lat="44.58923" lon="4.33388">
        <ele>483</ele>
        <time>2016-05-15T11:36:32.000Z</time>
      </trkpt>
      <trkpt lat="44.58925" lon="4.33395">
        <ele>483</ele>
        <time>2016-05-15T11:36:33.000Z</time>
      </trkpt>
      <trkpt lat="44.58924" lon="4.33401">
        <ele>483</ele>
        <time>2016-05-15T11:36:34.000Z</time>
      </trkpt>
      <trkpt lat="44.58924" lon="4.33406">
        <ele>482</ele>
        <time>2016-05-15T11:36:35.000Z</time>
      </trkpt>
      <trkpt lat="44.58924" lon="4.3341">
        <ele>482</ele>
        <time>2016-05-15T11:36:36.000Z</time>
      </trkpt>
      <trkpt lat="44.58924" lon="4.33415">
        <ele>482</ele>
        <time>2016-05-15T11:36:37.000Z</time>
      </trkpt>
      <trkpt lat="44.58923" lon="4.33419">
        <ele>481</ele>
        <time>2016-05-15T11:36:38.000Z</time>
      </trkpt>
      <trkpt lat="44.58922" lon="4.33423">
        <ele>481</ele>
        <time>2016-05-15T11:36:39.000Z</time>
      </trkpt>
      <trkpt lat="44.5892" lon="4.33427">
        <ele>481</ele>
        <time>2016-05-15T11:36:40.000Z</time>
      </trkpt>
      <trkpt lat="44.58917" lon="4.33431">
        <ele>481</ele>
        <time>2016-05-15T11:36:41.000Z</time>
      </trkpt>
      <trkpt lat="44.58914" lon="4.33433">
        <ele>481</ele>
        <time>2016-05-15T11:36:42.000Z</time>
      </trkpt>
      <trkpt lat="44.5891" lon="4.33433">
        <ele>481</ele>
        <time>2016-05-15T11:36:43.000Z</time>
      </trkpt>
      <trkpt lat="44.58906" lon="4.33433">
        <ele>481</ele>
        <time>2016-05-15T11:36:44.000Z</time>
      </trkpt>
      <trkpt lat="44.58903" lon="4.33433">
        <ele>481</ele>
        <time>2016-05-15T11:36:45.000Z</time>
      </trkpt>
      <trkpt lat="44.58899" lon="4.33433">
        <ele>481</ele>
        <time>2016-05-15T11:36:46.000Z</time>
      </trkpt>
      <trkpt lat="44.58895" lon="4.33433">
        <ele>481</ele>
        <time>2016-05-15T11:36:47.000Z</time>
      </trkpt>
      <trkpt lat="44.58892" lon="4.33433">
        <ele>481</ele>
        <time>2016-05-15T11:36:48.000Z</time>
      </trkpt>
      <trkpt lat="44.58888" lon="4.33434">
        <ele>481</ele>
        <time>2016-05-15T11:36:49.000Z</time>
      </trkpt>
      <trkpt lat="44.58884" lon="4.33436">
        <ele>481</ele>
        <time>2016-05-15T11:36:50.000Z</time>
      </trkpt>
      <trkpt lat="44.58879" lon="4.33437">
        <ele>481</ele>
        <time>2016-05-15T11:36:51.000Z</time>
      </trkpt>
      <trkpt lat="44.58875" lon="4.33437">
        <ele>481</ele>
        <time>2016-05-15T11:36:52.000Z</time>
      </trkpt>
      <trkpt lat="44.58871" lon="4.33437">
        <ele>481</ele>
        <time>2016-05-15T11:36:53.000Z</time>
      </trkpt>
      <trkpt lat="44.58867" lon="4.33437">
        <ele>482</ele>
        <time>2016-05-15T11:36:54.000Z</time>
      </trkpt>
      <trkpt lat="44.58863" lon="4.33437">
        <ele>482</ele>
        <time>2016-05-15T11:36:55.000Z</time>
      </trkpt>
      <trkpt lat="44.58858" lon="4.33437">
        <ele>482</ele>
        <time>2016-05-15T11:36:56.000Z</time>
      </trkpt>
      <trkpt lat="44.58854" lon="4.33438">
        <ele>482</ele>
        <time>2016-05-15T11:36:57.000Z</time>
      </trkpt>
      <trkpt lat="44.58849" lon="4.33438">
        <ele>483</ele>
        <time>2016-05-15T11:36:58.000Z</time>
      </trkpt>
      <trkpt lat="44.58844" lon="4.33438">
        <ele>483</ele>
        <time>2016-05-15T11:36:59.000Z</time>
      </trkpt>
      <trkpt lat="44.5884" lon="4.33437">
        <ele>483</ele>
        <time>2016-05-15T11:37:00.000Z</time>
      </trkpt>
      <trkpt lat="44.58836" lon="4.33436">
        <ele>483</ele>
        <time>2016-05-15T11:37:01.000Z</time>
      </trkpt>
      <trkpt lat="44.58833" lon="4.33435">
        <ele>482</ele>
        <time>2016-05-15T11:37:02.000Z</time>
      </trkpt>
      <trkpt lat="44.5883" lon="4.33435">
        <ele>482</ele>
        <time>2016-05-15T11:37:03.000Z</time>
      </trkpt>
      <trkpt lat="44.58827" lon="4.33435">
        <ele>481</ele>
        <time>2016-05-15T11:37:04.000Z</time>
      </trkpt>
      <trkpt lat="44.58825" lon="4.33435">
        <ele>481</ele>
        <time>2016-05-15T11:37:05.000Z</time>
      </trkpt>
      <trkpt lat="44.58823" lon="4.33436">
        <ele>481</ele>
        <time>2016-05-15T11:37:06.000Z</time>
      </trkpt>
      <trkpt lat="44.5882" lon="4.33436">
        <ele>481</ele>
        <time>2016-05-15T11:37:07.000Z</time>
      </trkpt>
      <trkpt lat="44.58817" lon="4.33438">
        <ele>480</ele>
        <time>2016-05-15T11:37:08.000Z</time>
      </trkpt>
      <trkpt lat="44.58814" lon="4.33439">
        <ele>480</ele>
        <time>2016-05-15T11:37:09.000Z</time>
      </trkpt>
      <trkpt lat="44.5881" lon="4.33439">
        <ele>479</ele>
        <time>2016-05-15T11:37:10.000Z</time>
      </trkpt>
      <trkpt lat="44.58807" lon="4.33438">
        <ele>479</ele>
        <time>2016-05-15T11:37:11.000Z</time>
      </trkpt>
      <trkpt lat="44.58803" lon="4.33437">
        <ele>479</ele>
        <time>2016-05-15T11:37:12.000Z</time>
      </trkpt>
      <trkpt lat="44.58799" lon="4.33437">
        <ele>479</ele>
        <time>2016-05-15T11:37:13.000Z</time>
      </trkpt>
      <trkpt lat="44.58795" lon="4.33436">
        <ele>478</ele>
        <time>2016-05-15T11:37:14.000Z</time>
      </trkpt>
      <trkpt lat="44.5879" lon="4.33434">
        <ele>478</ele>
        <time>2016-05-15T11:37:15.000Z</time>
      </trkpt>
      <trkpt lat="44.58786" lon="4.33433">
        <ele>478</ele>
        <time>2016-05-15T11:37:16.000Z</time>
      </trkpt>
      <trkpt lat="44.58782" lon="4.3343">
        <ele>478</ele>
        <time>2016-05-15T11:37:17.000Z</time>
      </trkpt>
      <trkpt lat="44.58779" lon="4.33428">
        <ele>478</ele>
        <time>2016-05-15T11:37:18.000Z</time>
      </trkpt>
      <trkpt lat="44.58775" lon="4.33427">
        <ele>478</ele>
        <time>2016-05-15T11:37:19.000Z</time>
      </trkpt>
      <trkpt lat="44.5877" lon="4.33425">
        <ele>478</ele>
        <time>2016-05-15T11:37:20.000Z</time>
      </trkpt>
      <trkpt lat="44.58765" lon="4.33424">
        <ele>478</ele>
        <time>2016-05-15T11:37:21.000Z</time>
      </trkpt>
      <trkpt lat="44.58761" lon="4.33421">
        <ele>479</ele>
        <time>2016-05-15T11:37:22.000Z</time>
      </trkpt>
      <trkpt lat="44.58756" lon="4.33418">
        <ele>479</ele>
        <time>2016-05-15T11:37:23.000Z</time>
      </trkpt>
      <trkpt lat="44.58752" lon="4.33414">
        <ele>481</ele>
        <time>2016-05-15T11:37:24.000Z</time>
      </trkpt>
      <trkpt lat="44.58749" lon="4.3341">
        <ele>480</ele>
        <time>2016-05-15T11:37:25.000Z</time>
      </trkpt>
      <trkpt lat="44.58746" lon="4.33408">
        <ele>481</ele>
        <time>2016-05-15T11:37:26.000Z</time>
      </trkpt>
      <trkpt lat="44.58744" lon="4.33406">
        <ele>481</ele>
        <time>2016-05-15T11:37:27.000Z</time>
      </trkpt>
      <trkpt lat="44.58741" lon="4.33404">
        <ele>481</ele>
        <time>2016-05-15T11:37:28.000Z</time>
      </trkpt>
      <trkpt lat="44.58739" lon="4.33402">
        <ele>481</ele>
        <time>2016-05-15T11:37:29.000Z</time>
      </trkpt>
      <trkpt lat="44.58737" lon="4.334">
        <ele>481</ele>
        <time>2016-05-15T11:37:30.000Z</time>
      </trkpt>
      <trkpt lat="44.58735" lon="4.33398">
        <ele>481</ele>
        <time>2016-05-15T11:37:31.000Z</time>
      </trkpt>
      <trkpt lat="44.58733" lon="4.33397">
        <ele>481</ele>
        <time>2016-05-15T11:37:32.000Z</time>
      </trkpt>
      <trkpt lat="44.58732" lon="4.33395">
        <ele>481</ele>
        <time>2016-05-15T11:37:33.000Z</time>
      </trkpt>
      <trkpt lat="44.58731" lon="4.33393">
        <ele>481</ele>
        <time>2016-05-15T11:37:34.000Z</time>
      </trkpt>
      <trkpt lat="44.5873" lon="4.33391">
        <ele>482</ele>
        <time>2016-05-15T11:37:35.000Z</time>
      </trkpt>
      <trkpt lat="44.5873" lon="4.33389">
        <ele>482</ele>
        <time>2016-05-15T11:37:36.000Z</time>
      </trkpt>
      <trkpt lat="44.58729" lon="4.33388">
        <ele>482</ele>
        <time>2016-05-15T11:37:37.000Z</time>
      </trkpt>
      <trkpt lat="44.58727" lon="4.33387">
        <ele>482</ele>
        <time>2016-05-15T11:37:38.000Z</time>
      </trkpt>
      <trkpt lat="44.58724" lon="4.33386">
        <ele>482</ele>
        <time>2016-05-15T11:37:39.000Z</time>
      </trkpt>
      <trkpt lat="44.58722" lon="4.33385">
        <ele>482</ele>
        <time>2016-05-15T11:37:40.000Z</time>
      </trkpt>
      <trkpt lat="44.58719" lon="4.33384">
        <ele>482</ele>
        <time>2016-05-15T11:37:41.000Z</time>
      </trkpt>
      <trkpt lat="44.58716" lon="4.33382">
        <ele>482</ele>
        <time>2016-05-15T11:37:42.000Z</time>
      </trkpt>
      <trkpt lat="44.58714" lon="4.33381">
        <ele>482</ele>
        <time>2016-05-15T11:37:43.000Z</time>
      </trkpt>
      <trkpt lat="44.58712" lon="4.33379">
        <ele>482</ele>
        <time>2016-05-15T11:37:44.000Z</time>
      </trkpt>
      <trkpt lat="44.58711" lon="4.33378">
        <ele>482</ele>
        <time>2016-05-15T11:37:45.000Z</time>
      </trkpt>
      <trkpt lat="44.58709" lon="4.33377">
        <ele>482</ele>
        <time>2016-05-15T11:37:46.000Z</time>
      </trkpt>
      <trkpt lat="44.58708" lon="4.33377">
        <ele>482</ele>
        <time>2016-05-15T11:37:47.000Z</time>
      </trkpt>
      <trkpt lat="44.58706" lon="4.33377">
        <ele>482</ele>
        <time>2016-05-15T11:37:48.000Z</time>
      </trkpt>
      <trkpt lat="44.58704" lon="4.33376">
        <ele>482</ele>
        <time>2016-05-15T11:37:49.000Z</time>
      </trkpt>
      <trkpt lat="44.58703" lon="4.33376">
        <ele>482</ele>
        <time>2016-05-15T11:37:50.000Z</time>
      </trkpt>
      <trkpt lat="44.58701" lon="4.33376">
        <ele>482</ele>
        <time>2016-05-15T11:37:51.000Z</time>
      </trkpt>
      <trkpt lat="44.58698" lon="4.33375">
        <ele>482</ele>
        <time>2016-05-15T11:37:52.000Z</time>
      </trkpt>
      <trkpt lat="44.58696" lon="4.33374">
        <ele>482</ele>
        <time>2016-05-15T11:37:53.000Z</time>
      </trkpt>
      <trkpt lat="44.58694" lon="4.33373">
        <ele>482</ele>
        <time>2016-05-15T11:37:54.000Z</time>
      </trkpt>
      <trkpt lat="44.58692" lon="4.33371">
        <ele>482</ele>
        <time>2016-05-15T11:37:55.000Z</time>
      </trkpt>
      <trkpt lat="44.5869" lon="4.33369">
        <ele>482</ele>
        <time>2016-05-15T11:37:56.000Z</time>
      </trkpt>
      <trkpt lat="44.58688" lon="4.33368">
        <ele>482</ele>
        <time>2016-05-15T11:37:57.000Z</time>
      </trkpt>
      <trkpt lat="44.58686" lon="4.33367">
        <ele>482</ele>
        <time>2016-05-15T11:37:58.000Z</time>
      </trkpt>
      <trkpt lat="44.58683" lon="4.33366">
        <ele>482</ele>
        <time>2016-05-15T11:37:59.000Z</time>
      </trkpt>
      <trkpt lat="44.58681" lon="4.33366">
        <ele>482</ele>
        <time>2016-05-15T11:38:00.000Z</time>
      </trkpt>
      <trkpt lat="44.58678" lon="4.33365">
        <ele>482</ele>
        <time>2016-05-15T11:38:01.000Z</time>
      </trkpt>
      <trkpt lat="44.58676" lon="4.33364">
        <ele>483</ele>
        <time>2016-05-15T11:38:02.000Z</time>
      </trkpt>
      <trkpt lat="44.58673" lon="4.33363">
        <ele>483</ele>
        <time>2016-05-15T11:38:03.000Z</time>
      </trkpt>
      <trkpt lat="44.58671" lon="4.33362">
        <ele>483</ele>
        <time>2016-05-15T11:38:04.000Z</time>
      </trkpt>
      <trkpt lat="44.58669" lon="4.33361">
        <ele>483</ele>
        <time>2016-05-15T11:38:05.000Z</time>
      </trkpt>
      <trkpt lat="44.58667" lon="4.3336">
        <ele>483</ele>
        <time>2016-05-15T11:38:06.000Z</time>
      </trkpt>
      <trkpt lat="44.58665" lon="4.33358">
        <ele>484</ele>
        <time>2016-05-15T11:38:07.000Z</time>
      </trkpt>
      <trkpt lat="44.58663" lon="4.33356">
        <ele>485</ele>
        <time>2016-05-15T11:38:08.000Z</time>
      </trkpt>
      <trkpt lat="44.58661" lon="4.33354">
        <ele>485</ele>
        <time>2016-05-15T11:38:09.000Z</time>
      </trkpt>
      <trkpt lat="44.58659" lon="4.33353">
        <ele>485</ele>
        <time>2016-05-15T11:38:10.000Z</time>
      </trkpt>
      <trkpt lat="44.58657" lon="4.33351">
        <ele>485</ele>
        <time>2016-05-15T11:38:11.000Z</time>
      </trkpt>
      <trkpt lat="44.58654" lon="4.33351">
        <ele>485</ele>
        <time>2016-05-15T11:38:12.000Z</time>
      </trkpt>
      <trkpt lat="44.58653" lon="4.33351">
        <ele>485</ele>
        <time>2016-05-15T11:38:13.000Z</time>
      </trkpt>
      <trkpt lat="44.58651" lon="4.3335">
        <ele>485</ele>
        <time>2016-05-15T11:38:14.000Z</time>
      </trkpt>
      <trkpt lat="44.58648" lon="4.3335">
        <ele>485</ele>
        <time>2016-05-15T11:38:15.000Z</time>
      </trkpt>
      <trkpt lat="44.58647" lon="4.33349">
        <ele>485</ele>
        <time>2016-05-15T11:38:16.000Z</time>
      </trkpt>
      <trkpt lat="44.58645" lon="4.33348">
        <ele>485</ele>
        <time>2016-05-15T11:38:17.000Z</time>
      </trkpt>
      <trkpt lat="44.58644" lon="4.33347">
        <ele>485</ele>
        <time>2016-05-15T11:38:18.000Z</time>
      </trkpt>
      <trkpt lat="44.58643" lon="4.33346">
        <ele>485</ele>
        <time>2016-05-15T11:38:19.000Z</time>
      </trkpt>
      <trkpt lat="44.58643" lon="4.33346">
        <ele>485</ele>
        <time>2016-05-15T11:38:20.000Z</time>
      </trkpt>
      <trkpt lat="44.58642" lon="4.33345">
        <ele>485</ele>
        <time>2016-05-15T11:38:21.000Z</time>
      </trkpt>
      <trkpt lat="44.58641" lon="4.33344">
        <ele>485</ele>
        <time>2016-05-15T11:38:22.000Z</time>
      </trkpt>
      <trkpt lat="44.5864" lon="4.33343">
        <ele>486</ele>
        <time>2016-05-15T11:38:23.000Z</time>
      </trkpt>
      <trkpt lat="44.58639" lon="4.33342">
        <ele>486</ele>
        <time>2016-05-15T11:38:24.000Z</time>
      </trkpt>
      <trkpt lat="44.58638" lon="4.33342">
        <ele>486</ele>
        <time>2016-05-15T11:38:25.000Z</time>
      </trkpt>
      <trkpt lat="44.58636" lon="4.33341">
        <ele>486</ele>
        <time>2016-05-15T11:38:26.000Z</time>
      </trkpt>
      <trkpt lat="44.58635" lon="4.3334">
        <ele>486</ele>
        <time>2016-05-15T11:38:27.000Z</time>
      </trkpt>
      <trkpt lat="44.58634" lon="4.33339">
        <ele>486</ele>
        <time>2016-05-15T11:38:28.000Z</time>
      </trkpt>
      <trkpt lat="44.58633" lon="4.33338">
        <ele>486</ele>
        <time>2016-05-15T11:38:29.000Z</time>
      </trkpt>
      <trkpt lat="44.58632" lon="4.33338">
        <ele>486</ele>
        <time>2016-05-15T11:38:30.000Z</time>
      </trkpt>
      <trkpt lat="44.5863" lon="4.33339">
        <ele>486</ele>
        <time>2016-05-15T11:38:31.000Z</time>
      </trkpt>
      <trkpt lat="44.58628" lon="4.33341">
        <ele>486</ele>
        <time>2016-05-15T11:38:32.000Z</time>
      </trkpt>
      <trkpt lat="44.58627" lon="4.33343">
        <ele>486</ele>
        <time>2016-05-15T11:38:33.000Z</time>
      </trkpt>
      <trkpt lat="44.58626" lon="4.33345">
        <ele>486</ele>
        <time>2016-05-15T11:38:34.000Z</time>
      </trkpt>
      <trkpt lat="44.58624" lon="4.33347">
        <ele>486</ele>
        <time>2016-05-15T11:38:35.000Z</time>
      </trkpt>
      <trkpt lat="44.58623" lon="4.3335">
        <ele>486</ele>
        <time>2016-05-15T11:38:36.000Z</time>
      </trkpt>
      <trkpt lat="44.58621" lon="4.33353">
        <ele>486</ele>
        <time>2016-05-15T11:38:37.000Z</time>
      </trkpt>
      <trkpt lat="44.58619" lon="4.33355">
        <ele>486</ele>
        <time>2016-05-15T11:38:38.000Z</time>
      </trkpt>
      <trkpt lat="44.58617" lon="4.33357">
        <ele>486</ele>
        <time>2016-05-15T11:38:39.000Z</time>
      </trkpt>
      <trkpt lat="44.58615" lon="4.3336">
        <ele>486</ele>
        <time>2016-05-15T11:38:40.000Z</time>
      </trkpt>
      <trkpt lat="44.58613" lon="4.33363">
        <ele>486</ele>
        <time>2016-05-15T11:38:41.000Z</time>
      </trkpt>
      <trkpt lat="44.5861" lon="4.33366">
        <ele>486</ele>
        <time>2016-05-15T11:38:42.000Z</time>
      </trkpt>
      <trkpt lat="44.58606" lon="4.3337">
        <ele>485</ele>
        <time>2016-05-15T11:38:43.000Z</time>
      </trkpt>
      <trkpt lat="44.58602" lon="4.33373">
        <ele>485</ele>
        <time>2016-05-15T11:38:44.000Z</time>
      </trkpt>
      <trkpt lat="44.58598" lon="4.33376">
        <ele>485</ele>
        <time>2016-05-15T11:38:45.000Z</time>
      </trkpt>
      <trkpt lat="44.58594" lon="4.33379">
        <ele>485</ele>
        <time>2016-05-15T11:38:46.000Z</time>
      </trkpt>
      <trkpt lat="44.5859" lon="4.33383">
        <ele>485</ele>
        <time>2016-05-15T11:38:47.000Z</time>
      </trkpt>
      <trkpt lat="44.58587" lon="4.33386">
        <ele>484</ele>
        <time>2016-05-15T11:38:48.000Z</time>
      </trkpt>
      <trkpt lat="44.58583" lon="4.3339">
        <ele>487</ele>
        <time>2016-05-15T11:38:49.000Z</time>
      </trkpt>
      <trkpt lat="44.5858" lon="4.33393">
        <ele>486</ele>
        <time>2016-05-15T11:38:50.000Z</time>
      </trkpt>
      <trkpt lat="44.58577" lon="4.33396">
        <ele>486</ele>
        <time>2016-05-15T11:38:51.000Z</time>
      </trkpt>
      <trkpt lat="44.58574" lon="4.334">
        <ele>486</ele>
        <time>2016-05-15T11:38:52.000Z</time>
      </trkpt>
      <trkpt lat="44.58571" lon="4.33406">
        <ele>485</ele>
        <time>2016-05-15T11:38:53.000Z</time>
      </trkpt>
      <trkpt lat="44.58568" lon="4.33412">
        <ele>485</ele>
        <time>2016-05-15T11:38:54.000Z</time>
      </trkpt>
      <trkpt lat="44.58565" lon="4.33417">
        <ele>485</ele>
        <time>2016-05-15T11:38:55.000Z</time>
      </trkpt>
      <trkpt lat="44.58564" lon="4.33421">
        <ele>479</ele>
        <time>2016-05-15T11:38:56.000Z</time>
      </trkpt>
      <trkpt lat="44.58561" lon="4.33427">
        <ele>479</ele>
        <time>2016-05-15T11:38:57.000Z</time>
      </trkpt>
      <trkpt lat="44.58558" lon="4.33431">
        <ele>478</ele>
        <time>2016-05-15T11:38:58.000Z</time>
      </trkpt>
      <trkpt lat="44.58555" lon="4.33435">
        <ele>478</ele>
        <time>2016-05-15T11:38:59.000Z</time>
      </trkpt>
      <trkpt lat="44.58551" lon="4.33439">
        <ele>478</ele>
        <time>2016-05-15T11:39:00.000Z</time>
      </trkpt>
      <trkpt lat="44.58548" lon="4.33443">
        <ele>477</ele>
        <time>2016-05-15T11:39:01.000Z</time>
      </trkpt>
      <trkpt lat="44.58544" lon="4.33447">
        <ele>477</ele>
        <time>2016-05-15T11:39:02.000Z</time>
      </trkpt>
      <trkpt lat="44.58541" lon="4.33448">
        <ele>477</ele>
        <time>2016-05-15T11:39:03.000Z</time>
      </trkpt>
      <trkpt lat="44.58537" lon="4.33449">
        <ele>477</ele>
        <time>2016-05-15T11:39:04.000Z</time>
      </trkpt>
      <trkpt lat="44.58532" lon="4.33451">
        <ele>477</ele>
        <time>2016-05-15T11:39:05.000Z</time>
      </trkpt>
      <trkpt lat="44.58528" lon="4.33453">
        <ele>477</ele>
        <time>2016-05-15T11:39:06.000Z</time>
      </trkpt>
      <trkpt lat="44.58525" lon="4.33457">
        <ele>477</ele>
        <time>2016-05-15T11:39:07.000Z</time>
      </trkpt>
      <trkpt lat="44.58521" lon="4.33461">
        <ele>476</ele>
        <time>2016-05-15T11:39:08.000Z</time>
      </trkpt>
      <trkpt lat="44.58516" lon="4.33467">
        <ele>476</ele>
        <time>2016-05-15T11:39:09.000Z</time>
      </trkpt>
      <trkpt lat="44.58512" lon="4.3347">
        <ele>476</ele>
        <time>2016-05-15T11:39:10.000Z</time>
      </trkpt>
      <trkpt lat="44.58508" lon="4.33471">
        <ele>475</ele>
        <time>2016-05-15T11:39:11.000Z</time>
      </trkpt>
      <trkpt lat="44.58503" lon="4.33473">
        <ele>475</ele>
        <time>2016-05-15T11:39:12.000Z</time>
      </trkpt>
      <trkpt lat="44.58497" lon="4.33475">
        <ele>477</ele>
        <time>2016-05-15T11:39:13.000Z</time>
      </trkpt>
      <trkpt lat="44.58492" lon="4.33477">
        <ele>477</ele>
        <time>2016-05-15T11:39:14.000Z</time>
      </trkpt>
      <trkpt lat="44.58485" lon="4.33479">
        <ele>477</ele>
        <time>2016-05-15T11:39:15.000Z</time>
      </trkpt>
      <trkpt lat="44.58479" lon="4.33481">
        <ele>478</ele>
        <time>2016-05-15T11:39:16.000Z</time>
      </trkpt>
      <trkpt lat="44.58474" lon="4.33484">
        <ele>478</ele>
        <time>2016-05-15T11:39:17.000Z</time>
      </trkpt>
      <trkpt lat="44.58469" lon="4.33486">
        <ele>478</ele>
        <time>2016-05-15T11:39:18.000Z</time>
      </trkpt>
      <trkpt lat="44.58465" lon="4.33487">
        <ele>478</ele>
        <time>2016-05-15T11:39:19.000Z</time>
      </trkpt>
      <trkpt lat="44.58461" lon="4.3349">
        <ele>479</ele>
        <time>2016-05-15T11:39:20.000Z</time>
      </trkpt>
      <trkpt lat="44.5846" lon="4.33492">
        <ele>479</ele>
        <time>2016-05-15T11:39:21.000Z</time>
      </trkpt>
      <trkpt lat="44.58458" lon="4.33495">
        <ele>479</ele>
        <time>2016-05-15T11:39:22.000Z</time>
      </trkpt>
      <trkpt lat="44.58457" lon="4.33497">
        <ele>479</ele>
        <time>2016-05-15T11:39:23.000Z</time>
      </trkpt>
      <trkpt lat="44.58456" lon="4.33501">
        <ele>475</ele>
        <time>2016-05-15T11:39:24.000Z</time>
      </trkpt>
      <trkpt lat="44.58455" lon="4.33504">
        <ele>475</ele>
        <time>2016-05-15T11:39:25.000Z</time>
      </trkpt>
      <trkpt lat="44.58455" lon="4.33508">
        <ele>475</ele>
        <time>2016-05-15T11:39:26.000Z</time>
      </trkpt>
      <trkpt lat="44.58454" lon="4.33512">
        <ele>475</ele>
        <time>2016-05-15T11:39:27.000Z</time>
      </trkpt>
      <trkpt lat="44.58454" lon="4.33515">
        <ele>475</ele>
        <time>2016-05-15T11:39:28.000Z</time>
      </trkpt>
      <trkpt lat="44.58454" lon="4.33518">
        <ele>475</ele>
        <time>2016-05-15T11:39:29.000Z</time>
      </trkpt>
      <trkpt lat="44.58453" lon="4.33523">
        <ele>475</ele>
        <time>2016-05-15T11:39:30.000Z</time>
      </trkpt>
      <trkpt lat="44.58454" lon="4.33528">
        <ele>475</ele>
        <time>2016-05-15T11:39:31.000Z</time>
      </trkpt>
      <trkpt lat="44.58455" lon="4.33533">
        <ele>475</ele>
        <time>2016-05-15T11:39:32.000Z</time>
      </trkpt>
      <trkpt lat="44.58455" lon="4.33537">
        <ele>475</ele>
        <time>2016-05-15T11:39:33.000Z</time>
      </trkpt>
      <trkpt lat="44.58454" lon="4.33541">
        <ele>475</ele>
        <time>2016-05-15T11:39:34.000Z</time>
      </trkpt>
      <trkpt lat="44.58454" lon="4.33545">
        <ele>475</ele>
        <time>2016-05-15T11:39:35.000Z</time>
      </trkpt>
      <trkpt lat="44.58453" lon="4.3355">
        <ele>475</ele>
        <time>2016-05-15T11:39:36.000Z</time>
      </trkpt>
      <trkpt lat="44.58453" lon="4.33556">
        <ele>475</ele>
        <time>2016-05-15T11:39:37.000Z</time>
      </trkpt>
      <trkpt lat="44.58452" lon="4.33562">
        <ele>475</ele>
        <time>2016-05-15T11:39:38.000Z</time>
      </trkpt>
      <trkpt lat="44.58451" lon="4.33568">
        <ele>475</ele>
        <time>2016-05-15T11:39:39.000Z</time>
      </trkpt>
      <trkpt lat="44.5845" lon="4.33576">
        <ele>475</ele>
        <time>2016-05-15T11:39:40.000Z</time>
      </trkpt>
      <trkpt lat="44.5845" lon="4.33581">
        <ele>475</ele>
        <time>2016-05-15T11:39:41.000Z</time>
      </trkpt>
      <trkpt lat="44.5845" lon="4.33588">
        <ele>475</ele>
        <time>2016-05-15T11:39:42.000Z</time>
      </trkpt>
      <trkpt lat="44.58449" lon="4.33594">
        <ele>475</ele>
        <time>2016-05-15T11:39:43.000Z</time>
      </trkpt>
      <trkpt lat="44.58447" lon="4.33599">
        <ele>475</ele>
        <time>2016-05-15T11:39:44.000Z</time>
      </trkpt>
      <trkpt lat="44.58446" lon="4.33605">
        <ele>475</ele>
        <time>2016-05-15T11:39:45.000Z</time>
      </trkpt>
      <trkpt lat="44.58445" lon="4.33611">
        <ele>475</ele>
        <time>2016-05-15T11:39:46.000Z</time>
      </trkpt>
      <trkpt lat="44.58444" lon="4.33617">
        <ele>475</ele>
        <time>2016-05-15T11:39:47.000Z</time>
      </trkpt>
      <trkpt lat="44.58443" lon="4.33623">
        <ele>475</ele>
        <time>2016-05-15T11:39:48.000Z</time>
      </trkpt>
      <trkpt lat="44.58443" lon="4.33626">
        <ele>475</ele>
        <time>2016-05-15T11:39:49.000Z</time>
      </trkpt>
      <trkpt lat="44.58446" lon="4.33628">
        <ele>474</ele>
        <time>2016-05-15T11:39:50.000Z</time>
      </trkpt>
      <trkpt lat="44.58449" lon="4.33629">
        <ele>474</ele>
        <time>2016-05-15T11:39:51.000Z</time>
      </trkpt>
      <trkpt lat="44.58452" lon="4.33631">
        <ele>474</ele>
        <time>2016-05-15T11:39:52.000Z</time>
      </trkpt>
      <trkpt lat="44.58456" lon="4.33633">
        <ele>474</ele>
        <time>2016-05-15T11:39:53.000Z</time>
      </trkpt>
      <trkpt lat="44.58459" lon="4.33635">
        <ele>474</ele>
        <time>2016-05-15T11:39:54.000Z</time>
      </trkpt>
      <trkpt lat="44.58463" lon="4.33637">
        <ele>474</ele>
        <time>2016-05-15T11:39:55.000Z</time>
      </trkpt>
      <trkpt lat="44.58466" lon="4.3364">
        <ele>474</ele>
        <time>2016-05-15T11:39:56.000Z</time>
      </trkpt>
      <trkpt lat="44.58469" lon="4.33641">
        <ele>474</ele>
        <time>2016-05-15T11:39:57.000Z</time>
      </trkpt>
      <trkpt lat="44.58473" lon="4.33643">
        <ele>474</ele>
        <time>2016-05-15T11:39:58.000Z</time>
      </trkpt>
      <trkpt lat="44.58477" lon="4.33645">
        <ele>474</ele>
        <time>2016-05-15T11:39:59.000Z</time>
      </trkpt>
      <trkpt lat="44.58481" lon="4.33648">
        <ele>474</ele>
        <time>2016-05-15T11:40:00.000Z</time>
      </trkpt>
      <trkpt lat="44.58484" lon="4.33651">
        <ele>474</ele>
        <time>2016-05-15T11:40:01.000Z</time>
      </trkpt>
      <trkpt lat="44.58488" lon="4.33655">
        <ele>474</ele>
        <time>2016-05-15T11:40:02.000Z</time>
      </trkpt>
      <trkpt lat="44.58493" lon="4.33658">
        <ele>473</ele>
        <time>2016-05-15T11:40:03.000Z</time>
      </trkpt>
      <trkpt lat="44.58496" lon="4.33659">
        <ele>473</ele>
        <time>2016-05-15T11:40:04.000Z</time>
      </trkpt>
      <trkpt lat="44.58499" lon="4.33662">
        <ele>473</ele>
        <time>2016-05-15T11:40:05.000Z</time>
      </trkpt>
      <trkpt lat="44.58502" lon="4.33665">
        <ele>473</ele>
        <time>2016-05-15T11:40:06.000Z</time>
      </trkpt>
      <trkpt lat="44.58504" lon="4.33667">
        <ele>473</ele>
        <time>2016-05-15T11:40:07.000Z</time>
      </trkpt>
      <trkpt lat="44.58507" lon="4.33668">
        <ele>473</ele>
        <time>2016-05-15T11:40:08.000Z</time>
      </trkpt>
      <trkpt lat="44.58509" lon="4.3367">
        <ele>472</ele>
        <time>2016-05-15T11:40:09.000Z</time>
      </trkpt>
      <trkpt lat="44.58511" lon="4.33672">
        <ele>472</ele>
        <time>2016-05-15T11:40:10.000Z</time>
      </trkpt>
      <trkpt lat="44.58513" lon="4.33675">
        <ele>472</ele>
        <time>2016-05-15T11:40:11.000Z</time>
      </trkpt>
      <trkpt lat="44.58515" lon="4.33679">
        <ele>472</ele>
        <time>2016-05-15T11:40:12.000Z</time>
      </trkpt>
      <trkpt lat="44.58517" lon="4.33684">
        <ele>472</ele>
        <time>2016-05-15T11:40:13.000Z</time>
      </trkpt>
      <trkpt lat="44.58519" lon="4.33689">
        <ele>472</ele>
        <time>2016-05-15T11:40:14.000Z</time>
      </trkpt>
      <trkpt lat="44.5852" lon="4.33694">
        <ele>471</ele>
        <time>2016-05-15T11:40:15.000Z</time>
      </trkpt>
      <trkpt lat="44.58521" lon="4.337">
        <ele>471</ele>
        <time>2016-05-15T11:40:16.000Z</time>
      </trkpt>
      <trkpt lat="44.58523" lon="4.33706">
        <ele>471</ele>
        <time>2016-05-15T11:40:17.000Z</time>
      </trkpt>
      <trkpt lat="44.58526" lon="4.33711">
        <ele>471</ele>
        <time>2016-05-15T11:40:18.000Z</time>
      </trkpt>
      <trkpt lat="44.58528" lon="4.33717">
        <ele>471</ele>
        <time>2016-05-15T11:40:19.000Z</time>
      </trkpt>
      <trkpt lat="44.58531" lon="4.33722">
        <ele>471</ele>
        <time>2016-05-15T11:40:20.000Z</time>
      </trkpt>
      <trkpt lat="44.58535" lon="4.33727">
        <ele>471</ele>
        <time>2016-05-15T11:40:21.000Z</time>
      </trkpt>
      <trkpt lat="44.58539" lon="4.33732">
        <ele>471</ele>
        <time>2016-05-15T11:40:22.000Z</time>
      </trkpt>
      <trkpt lat="44.58544" lon="4.33737">
        <ele>471</ele>
        <time>2016-05-15T11:40:23.000Z</time>
      </trkpt>
      <trkpt lat="44.58548" lon="4.33742">
        <ele>471</ele>
        <time>2016-05-15T11:40:24.000Z</time>
      </trkpt>
      <trkpt lat="44.58552" lon="4.33747">
        <ele>471</ele>
        <time>2016-05-15T11:40:25.000Z</time>
      </trkpt>
      <trkpt lat="44.58556" lon="4.33752">
        <ele>469</ele>
        <time>2016-05-15T11:40:26.000Z</time>
      </trkpt>
      <trkpt lat="44.58559" lon="4.33757">
        <ele>469</ele>
        <time>2016-05-15T11:40:27.000Z</time>
      </trkpt>
      <trkpt lat="44.58563" lon="4.33763">
        <ele>469</ele>
        <time>2016-05-15T11:40:28.000Z</time>
      </trkpt>
      <trkpt lat="44.58566" lon="4.33768">
        <ele>469</ele>
        <time>2016-05-15T11:40:29.000Z</time>
      </trkpt>
      <trkpt lat="44.5857" lon="4.33774">
        <ele>469</ele>
        <time>2016-05-15T11:40:30.000Z</time>
      </trkpt>
      <trkpt lat="44.58575" lon="4.3378">
        <ele>469</ele>
        <time>2016-05-15T11:40:31.000Z</time>
      </trkpt>
      <trkpt lat="44.58579" lon="4.33786">
        <ele>469</ele>
        <time>2016-05-15T11:40:32.000Z</time>
      </trkpt>
      <trkpt lat="44.58584" lon="4.33794">
        <ele>466</ele>
        <time>2016-05-15T11:40:33.000Z</time>
      </trkpt>
      <trkpt lat="44.58588" lon="4.33802">
        <ele>466</ele>
        <time>2016-05-15T11:40:34.000Z</time>
      </trkpt>
      <trkpt lat="44.58592" lon="4.33808">
        <ele>466</ele>
        <time>2016-05-15T11:40:35.000Z</time>
      </trkpt>
      <trkpt lat="44.58597" lon="4.33814">
        <ele>466</ele>
        <time>2016-05-15T11:40:36.000Z</time>
      </trkpt>
      <trkpt lat="44.58602" lon="4.3382">
        <ele>466</ele>
        <time>2016-05-15T11:40:37.000Z</time>
      </trkpt>
      <trkpt lat="44.58605" lon="4.33828">
        <ele>466</ele>
        <time>2016-05-15T11:40:38.000Z</time>
      </trkpt>
      <trkpt lat="44.58608" lon="4.33836">
        <ele>466</ele>
        <time>2016-05-15T11:40:39.000Z</time>
      </trkpt>
      <trkpt lat="44.58609" lon="4.33845">
        <ele>466</ele>
        <time>2016-05-15T11:40:40.000Z</time>
      </trkpt>
      <trkpt lat="44.5861" lon="4.33852">
        <ele>466</ele>
        <time>2016-05-15T11:40:41.000Z</time>
      </trkpt>
      <trkpt lat="44.58611" lon="4.33857">
        <ele>466</ele>
        <time>2016-05-15T11:40:42.000Z</time>
      </trkpt>
      <trkpt lat="44.58611" lon="4.33862">
        <ele>466</ele>
        <time>2016-05-15T11:40:43.000Z</time>
      </trkpt>
      <trkpt lat="44.58611" lon="4.33867">
        <ele>465</ele>
        <time>2016-05-15T11:40:44.000Z</time>
      </trkpt>
      <trkpt lat="44.58613" lon="4.33871">
        <ele>465</ele>
        <time>2016-05-15T11:40:45.000Z</time>
      </trkpt>
      <trkpt lat="44.58615" lon="4.33875">
        <ele>465</ele>
        <time>2016-05-15T11:40:46.000Z</time>
      </trkpt>
      <trkpt lat="44.58616" lon="4.33879">
        <ele>465</ele>
        <time>2016-05-15T11:40:47.000Z</time>
      </trkpt>
      <trkpt lat="44.58616" lon="4.33885">
        <ele>465</ele>
        <time>2016-05-15T11:40:48.000Z</time>
      </trkpt>
      <trkpt lat="44.58615" lon="4.33889">
        <ele>465</ele>
        <time>2016-05-15T11:40:49.000Z</time>
      </trkpt>
      <trkpt lat="44.58613" lon="4.33895">
        <ele>465</ele>
        <time>2016-05-15T11:40:50.000Z</time>
      </trkpt>
      <trkpt lat="44.58612" lon="4.339">
        <ele>465</ele>
        <time>2016-05-15T11:40:51.000Z</time>
      </trkpt>
      <trkpt lat="44.58613" lon="4.33906">
        <ele>465</ele>
        <time>2016-05-15T11:40:52.000Z</time>
      </trkpt>
      <trkpt lat="44.58614" lon="4.33912">
        <ele>465</ele>
        <time>2016-05-15T11:40:53.000Z</time>
      </trkpt>
      <trkpt lat="44.58615" lon="4.33916">
        <ele>465</ele>
        <time>2016-05-15T11:40:54.000Z</time>
      </trkpt>
      <trkpt lat="44.58616" lon="4.33921">
        <ele>463</ele>
        <time>2016-05-15T11:40:55.000Z</time>
      </trkpt>
      <trkpt lat="44.58619" lon="4.33926">
        <ele>463</ele>
        <time>2016-05-15T11:40:56.000Z</time>
      </trkpt>
      <trkpt lat="44.58623" lon="4.33928">
        <ele>463</ele>
        <time>2016-05-15T11:40:57.000Z</time>
      </trkpt>
      <trkpt lat="44.58626" lon="4.33929">
        <ele>463</ele>
        <time>2016-05-15T11:40:58.000Z</time>
      </trkpt>
      <trkpt lat="44.5863" lon="4.33929">
        <ele>463</ele>
        <time>2016-05-15T11:40:59.000Z</time>
      </trkpt>
      <trkpt lat="44.58634" lon="4.33929">
        <ele>463</ele>
        <time>2016-05-15T11:41:00.000Z</time>
      </trkpt>
      <trkpt lat="44.58637" lon="4.33928">
        <ele>463</ele>
        <time>2016-05-15T11:41:01.000Z</time>
      </trkpt>
      <trkpt lat="44.5864" lon="4.33929">
        <ele>463</ele>
        <time>2016-05-15T11:41:02.000Z</time>
      </trkpt>
      <trkpt lat="44.58642" lon="4.33929">
        <ele>464</ele>
        <time>2016-05-15T11:41:03.000Z</time>
      </trkpt>
      <trkpt lat="44.58643" lon="4.33929">
        <ele>464</ele>
        <time>2016-05-15T11:41:04.000Z</time>
      </trkpt>
      <trkpt lat="44.58645" lon="4.33929">
        <ele>464</ele>
        <time>2016-05-15T11:41:05.000Z</time>
      </trkpt>
      <trkpt lat="44.58646" lon="4.33929">
        <ele>464</ele>
        <time>2016-05-15T11:41:06.000Z</time>
      </trkpt>
      <trkpt lat="44.58648" lon="4.33929">
        <ele>464</ele>
        <time>2016-05-15T11:41:07.000Z</time>
      </trkpt>
      <trkpt lat="44.5865" lon="4.33928">
        <ele>464</ele>
        <time>2016-05-15T11:41:08.000Z</time>
      </trkpt>
      <trkpt lat="44.58652" lon="4.33926">
        <ele>464</ele>
        <time>2016-05-15T11:41:09.000Z</time>
      </trkpt>
      <trkpt lat="44.58653" lon="4.33924">
        <ele>464</ele>
        <time>2016-05-15T11:41:10.000Z</time>
      </trkpt>
      <trkpt lat="44.58654" lon="4.33922">
        <ele>464</ele>
        <time>2016-05-15T11:41:11.000Z</time>
      </trkpt>
      <trkpt lat="44.58655" lon="4.33921">
        <ele>465</ele>
        <time>2016-05-15T11:41:12.000Z</time>
      </trkpt>
      <trkpt lat="44.58656" lon="4.3392">
        <ele>465</ele>
        <time>2016-05-15T11:41:13.000Z</time>
      </trkpt>
      <trkpt lat="44.58657" lon="4.33919">
        <ele>465</ele>
        <time>2016-05-15T11:41:14.000Z</time>
      </trkpt>
      <trkpt lat="44.58658" lon="4.33918">
        <ele>465</ele>
        <time>2016-05-15T11:41:15.000Z</time>
      </trkpt>
      <trkpt lat="44.58659" lon="4.33917">
        <ele>465</ele>
        <time>2016-05-15T11:41:16.000Z</time>
      </trkpt>
      <trkpt lat="44.5866" lon="4.33917">
        <ele>466</ele>
        <time>2016-05-15T11:41:17.000Z</time>
      </trkpt>
      <trkpt lat="44.58661" lon="4.33916">
        <ele>466</ele>
        <time>2016-05-15T11:41:18.000Z</time>
      </trkpt>
      <trkpt lat="44.58662" lon="4.33915">
        <ele>466</ele>
        <time>2016-05-15T11:41:19.000Z</time>
      </trkpt>
      <trkpt lat="44.58664" lon="4.33913">
        <ele>466</ele>
        <time>2016-05-15T11:41:20.000Z</time>
      </trkpt>
      <trkpt lat="44.58665" lon="4.33912">
        <ele>466</ele>
        <time>2016-05-15T11:41:21.000Z</time>
      </trkpt>
      <trkpt lat="44.58666" lon="4.3391">
        <ele>466</ele>
        <time>2016-05-15T11:41:22.000Z</time>
      </trkpt>
      <trkpt lat="44.58669" lon="4.33908">
        <ele>462</ele>
        <time>2016-05-15T11:41:23.000Z</time>
      </trkpt>
      <trkpt lat="44.58673" lon="4.33906">
        <ele>460</ele>
        <time>2016-05-15T11:41:24.000Z</time>
      </trkpt>
      <trkpt lat="44.58677" lon="4.33902">
        <ele>459</ele>
        <time>2016-05-15T11:41:25.000Z</time>
      </trkpt>
      <trkpt lat="44.58681" lon="4.33897">
        <ele>457</ele>
        <time>2016-05-15T11:41:26.000Z</time>
      </trkpt>
      <trkpt lat="44.58684" lon="4.33892">
        <ele>456</ele>
        <time>2016-05-15T11:41:27.000Z</time>
      </trkpt>
      <trkpt lat="44.58688" lon="4.33889">
        <ele>455</ele>
        <time>2016-05-15T11:41:28.000Z</time>
      </trkpt>
      <trkpt lat="44.58692" lon="4.33888">
        <ele>455</ele>
        <time>2016-05-15T11:41:29.000Z</time>
      </trkpt>
      <trkpt lat="44.58697" lon="4.33888">
        <ele>454</ele>
        <time>2016-05-15T11:41:30.000Z</time>
      </trkpt>
      <trkpt lat="44.58702" lon="4.33889">
        <ele>453</ele>
        <time>2016-05-15T11:41:31.000Z</time>
      </trkpt>
      <trkpt lat="44.58707" lon="4.33889">
        <ele>452</ele>
        <time>2016-05-15T11:41:32.000Z</time>
      </trkpt>
      <trkpt lat="44.58712" lon="4.33888">
        <ele>451</ele>
        <time>2016-05-15T11:41:33.000Z</time>
      </trkpt>
      <trkpt lat="44.58717" lon="4.33889">
        <ele>451</ele>
        <time>2016-05-15T11:41:34.000Z</time>
      </trkpt>
      <trkpt lat="44.58722" lon="4.3389">
        <ele>450</ele>
        <time>2016-05-15T11:41:35.000Z</time>
      </trkpt>
      <trkpt lat="44.58727" lon="4.3389">
        <ele>449</ele>
        <time>2016-05-15T11:41:36.000Z</time>
      </trkpt>
      <trkpt lat="44.58731" lon="4.33892">
        <ele>449</ele>
        <time>2016-05-15T11:41:37.000Z</time>
      </trkpt>
      <trkpt lat="44.58735" lon="4.33895">
        <ele>448</ele>
        <time>2016-05-15T11:41:38.000Z</time>
      </trkpt>
      <trkpt lat="44.58739" lon="4.339">
        <ele>447</ele>
        <time>2016-05-15T11:41:39.000Z</time>
      </trkpt>
      <trkpt lat="44.58743" lon="4.33906">
        <ele>446</ele>
        <time>2016-05-15T11:41:40.000Z</time>
      </trkpt>
      <trkpt lat="44.58745" lon="4.33911">
        <ele>445</ele>
        <time>2016-05-15T11:41:41.000Z</time>
      </trkpt>
      <trkpt lat="44.58748" lon="4.33915">
        <ele>444</ele>
        <time>2016-05-15T11:41:42.000Z</time>
      </trkpt>
      <trkpt lat="44.58751" lon="4.33918">
        <ele>442</ele>
        <time>2016-05-15T11:41:43.000Z</time>
      </trkpt>
      <trkpt lat="44.58753" lon="4.33921">
        <ele>441</ele>
        <time>2016-05-15T11:41:44.000Z</time>
      </trkpt>
      <trkpt lat="44.58756" lon="4.33924">
        <ele>440</ele>
        <time>2016-05-15T11:41:45.000Z</time>
      </trkpt>
      <trkpt lat="44.58759" lon="4.33926">
        <ele>439</ele>
        <time>2016-05-15T11:41:46.000Z</time>
      </trkpt>
      <trkpt lat="44.58763" lon="4.3393">
        <ele>439</ele>
        <time>2016-05-15T11:41:47.000Z</time>
      </trkpt>
      <trkpt lat="44.58767" lon="4.33932">
        <ele>438</ele>
        <time>2016-05-15T11:41:48.000Z</time>
      </trkpt>
      <trkpt lat="44.5877" lon="4.33931">
        <ele>437</ele>
        <time>2016-05-15T11:41:49.000Z</time>
      </trkpt>
      <trkpt lat="44.58773" lon="4.3393">
        <ele>437</ele>
        <time>2016-05-15T11:41:50.000Z</time>
      </trkpt>
      <trkpt lat="44.58775" lon="4.33928">
        <ele>436</ele>
        <time>2016-05-15T11:41:51.000Z</time>
      </trkpt>
      <trkpt lat="44.58778" lon="4.33924">
        <ele>436</ele>
        <time>2016-05-15T11:41:52.000Z</time>
      </trkpt>
      <trkpt lat="44.5878" lon="4.33919">
        <ele>436</ele>
        <time>2016-05-15T11:41:53.000Z</time>
      </trkpt>
      <trkpt lat="44.58782" lon="4.33914">
        <ele>431</ele>
        <time>2016-05-15T11:41:54.000Z</time>
      </trkpt>
      <trkpt lat="44.58784" lon="4.33909">
        <ele>430</ele>
        <time>2016-05-15T11:41:55.000Z</time>
      </trkpt>
      <trkpt lat="44.58785" lon="4.33906">
        <ele>430</ele>
        <time>2016-05-15T11:41:56.000Z</time>
      </trkpt>
      <trkpt lat="44.58787" lon="4.33907">
        <ele>429</ele>
        <time>2016-05-15T11:41:57.000Z</time>
      </trkpt>
      <trkpt lat="44.58788" lon="4.33909">
        <ele>429</ele>
        <time>2016-05-15T11:41:58.000Z</time>
      </trkpt>
      <trkpt lat="44.58789" lon="4.33914">
        <ele>429</ele>
        <time>2016-05-15T11:41:59.000Z</time>
      </trkpt>
      <trkpt lat="44.58791" lon="4.33919">
        <ele>433</ele>
        <time>2016-05-15T11:42:00.000Z</time>
      </trkpt>
      <trkpt lat="44.58794" lon="4.33926">
        <ele>433</ele>
        <time>2016-05-15T11:42:01.000Z</time>
      </trkpt>
      <trkpt lat="44.58797" lon="4.33931">
        <ele>433</ele>
        <time>2016-05-15T11:42:02.000Z</time>
      </trkpt>
      <trkpt lat="44.588" lon="4.33936">
        <ele>432</ele>
        <time>2016-05-15T11:42:03.000Z</time>
      </trkpt>
      <trkpt lat="44.58804" lon="4.33942">
        <ele>432</ele>
        <time>2016-05-15T11:42:04.000Z</time>
      </trkpt>
      <trkpt lat="44.58807" lon="4.33948">
        <ele>432</ele>
        <time>2016-05-15T11:42:05.000Z</time>
      </trkpt>
      <trkpt lat="44.5881" lon="4.33955">
        <ele>432</ele>
        <time>2016-05-15T11:42:06.000Z</time>
      </trkpt>
      <trkpt lat="44.58813" lon="4.3396">
        <ele>432</ele>
        <time>2016-05-15T11:42:07.000Z</time>
      </trkpt>
      <trkpt lat="44.58814" lon="4.33964">
        <ele>432</ele>
        <time>2016-05-15T11:42:08.000Z</time>
      </trkpt>
      <trkpt lat="44.58816" lon="4.33968">
        <ele>432</ele>
        <time>2016-05-15T11:42:09.000Z</time>
      </trkpt>
      <trkpt lat="44.58817" lon="4.33971">
        <ele>432</ele>
        <time>2016-05-15T11:42:10.000Z</time>
      </trkpt>
      <trkpt lat="44.58818" lon="4.33975">
        <ele>432</ele>
        <time>2016-05-15T11:42:11.000Z</time>
      </trkpt>
      <trkpt lat="44.5882" lon="4.33977">
        <ele>431</ele>
        <time>2016-05-15T11:42:12.000Z</time>
      </trkpt>
      <trkpt lat="44.58822" lon="4.33978">
        <ele>431</ele>
        <time>2016-05-15T11:42:13.000Z</time>
      </trkpt>
      <trkpt lat="44.58825" lon="4.33981">
        <ele>431</ele>
        <time>2016-05-15T11:42:14.000Z</time>
      </trkpt>
      <trkpt lat="44.58828" lon="4.33985">
        <ele>430</ele>
        <time>2016-05-15T11:42:15.000Z</time>
      </trkpt>
      <trkpt lat="44.5883" lon="4.33989">
        <ele>430</ele>
        <time>2016-05-15T11:42:16.000Z</time>
      </trkpt>
      <trkpt lat="44.58831" lon="4.33993">
        <ele>429</ele>
        <time>2016-05-15T11:42:17.000Z</time>
      </trkpt>
      <trkpt lat="44.58833" lon="4.33998">
        <ele>428</ele>
        <time>2016-05-15T11:42:18.000Z</time>
      </trkpt>
      <trkpt lat="44.58834" lon="4.34004">
        <ele>425</ele>
        <time>2016-05-15T11:42:19.000Z</time>
      </trkpt>
      <trkpt lat="44.58837" lon="4.34011">
        <ele>423</ele>
        <time>2016-05-15T11:42:20.000Z</time>
      </trkpt>
      <trkpt lat="44.58839" lon="4.34019">
        <ele>421</ele>
        <time>2016-05-15T11:42:21.000Z</time>
      </trkpt>
      <trkpt lat="44.5884" lon="4.34026">
        <ele>420</ele>
        <time>2016-05-15T11:42:22.000Z</time>
      </trkpt>
      <trkpt lat="44.58841" lon="4.34032">
        <ele>420</ele>
        <time>2016-05-15T11:42:23.000Z</time>
      </trkpt>
      <trkpt lat="44.58843" lon="4.34037">
        <ele>419</ele>
        <time>2016-05-15T11:42:24.000Z</time>
      </trkpt>
      <trkpt lat="44.58845" lon="4.34041">
        <ele>419</ele>
        <time>2016-05-15T11:42:25.000Z</time>
      </trkpt>
      <trkpt lat="44.58847" lon="4.34043">
        <ele>419</ele>
        <time>2016-05-15T11:42:26.000Z</time>
      </trkpt>
      <trkpt lat="44.5885" lon="4.34047">
        <ele>419</ele>
        <time>2016-05-15T11:42:27.000Z</time>
      </trkpt>
      <trkpt lat="44.58852" lon="4.34051">
        <ele>419</ele>
        <time>2016-05-15T11:42:28.000Z</time>
      </trkpt>
      <trkpt lat="44.58853" lon="4.34058">
        <ele>420</ele>
        <time>2016-05-15T11:42:29.000Z</time>
      </trkpt>
      <trkpt lat="44.58856" lon="4.34066">
        <ele>420</ele>
        <time>2016-05-15T11:42:30.000Z</time>
      </trkpt>
      <trkpt lat="44.58859" lon="4.34074">
        <ele>420</ele>
        <time>2016-05-15T11:42:31.000Z</time>
      </trkpt>
      <trkpt lat="44.58862" lon="4.34082">
        <ele>420</ele>
        <time>2016-05-15T11:42:32.000Z</time>
      </trkpt>
      <trkpt lat="44.58864" lon="4.3409">
        <ele>421</ele>
        <time>2016-05-15T11:42:33.000Z</time>
      </trkpt>
      <trkpt lat="44.58866" lon="4.34097">
        <ele>420</ele>
        <time>2016-05-15T11:42:34.000Z</time>
      </trkpt>
      <trkpt lat="44.58868" lon="4.34102">
        <ele>419</ele>
        <time>2016-05-15T11:42:35.000Z</time>
      </trkpt>
      <trkpt lat="44.5887" lon="4.34107">
        <ele>419</ele>
        <time>2016-05-15T11:42:36.000Z</time>
      </trkpt>
      <trkpt lat="44.58873" lon="4.34111">
        <ele>418</ele>
        <time>2016-05-15T11:42:37.000Z</time>
      </trkpt>
      <trkpt lat="44.58875" lon="4.34117">
        <ele>418</ele>
        <time>2016-05-15T11:42:38.000Z</time>
      </trkpt>
      <trkpt lat="44.58878" lon="4.34122">
        <ele>417</ele>
        <time>2016-05-15T11:42:39.000Z</time>
      </trkpt>
      <trkpt lat="44.5888" lon="4.34128">
        <ele>417</ele>
        <time>2016-05-15T11:42:40.000Z</time>
      </trkpt>
      <trkpt lat="44.58882" lon="4.34135">
        <ele>417</ele>
        <time>2016-05-15T11:42:41.000Z</time>
      </trkpt>
      <trkpt lat="44.58885" lon="4.34143">
        <ele>416</ele>
        <time>2016-05-15T11:42:42.000Z</time>
      </trkpt>
      <trkpt lat="44.58889" lon="4.34149">
        <ele>415</ele>
        <time>2016-05-15T11:42:43.000Z</time>
      </trkpt>
      <trkpt lat="44.58892" lon="4.34155">
        <ele>415</ele>
        <time>2016-05-15T11:42:44.000Z</time>
      </trkpt>
      <trkpt lat="44.58895" lon="4.34161">
        <ele>414</ele>
        <time>2016-05-15T11:42:45.000Z</time>
      </trkpt>
      <trkpt lat="44.58899" lon="4.34169">
        <ele>413</ele>
        <time>2016-05-15T11:42:46.000Z</time>
      </trkpt>
      <trkpt lat="44.58901" lon="4.34176">
        <ele>413</ele>
        <time>2016-05-15T11:42:47.000Z</time>
      </trkpt>
      <trkpt lat="44.58904" lon="4.34184">
        <ele>414</ele>
        <time>2016-05-15T11:42:48.000Z</time>
      </trkpt>
      <trkpt lat="44.58906" lon="4.34192">
        <ele>415</ele>
        <time>2016-05-15T11:42:49.000Z</time>
      </trkpt>
      <trkpt lat="44.58909" lon="4.342">
        <ele>415</ele>
        <time>2016-05-15T11:42:50.000Z</time>
      </trkpt>
      <trkpt lat="44.58911" lon="4.34207">
        <ele>415</ele>
        <time>2016-05-15T11:42:51.000Z</time>
      </trkpt>
      <trkpt lat="44.58914" lon="4.34214">
        <ele>415</ele>
        <time>2016-05-15T11:42:52.000Z</time>
      </trkpt>
      <trkpt lat="44.58918" lon="4.34221">
        <ele>403</ele>
        <time>2016-05-15T11:42:53.000Z</time>
      </trkpt>
      <trkpt lat="44.58921" lon="4.34229">
        <ele>404</ele>
        <time>2016-05-15T11:42:54.000Z</time>
      </trkpt>
      <trkpt lat="44.58924" lon="4.34237">
        <ele>405</ele>
        <time>2016-05-15T11:42:55.000Z</time>
      </trkpt>
      <trkpt lat="44.58927" lon="4.34244">
        <ele>406</ele>
        <time>2016-05-15T11:42:56.000Z</time>
      </trkpt>
      <trkpt lat="44.5893" lon="4.3425">
        <ele>405</ele>
        <time>2016-05-15T11:42:57.000Z</time>
      </trkpt>
      <trkpt lat="44.58932" lon="4.34256">
        <ele>404</ele>
        <time>2016-05-15T11:42:58.000Z</time>
      </trkpt>
      <trkpt lat="44.58934" lon="4.34259">
        <ele>403</ele>
        <time>2016-05-15T11:42:59.000Z</time>
      </trkpt>
      <trkpt lat="44.58936" lon="4.34264">
        <ele>402</ele>
        <time>2016-05-15T11:43:00.000Z</time>
      </trkpt>
      <trkpt lat="44.58939" lon="4.3427">
        <ele>401</ele>
        <time>2016-05-15T11:43:01.000Z</time>
      </trkpt>
      <trkpt lat="44.58941" lon="4.34278">
        <ele>400</ele>
        <time>2016-05-15T11:43:02.000Z</time>
      </trkpt>
      <trkpt lat="44.58943" lon="4.34287">
        <ele>399</ele>
        <time>2016-05-15T11:43:03.000Z</time>
      </trkpt>
      <trkpt lat="44.58944" lon="4.34297">
        <ele>399</ele>
        <time>2016-05-15T11:43:04.000Z</time>
      </trkpt>
      <trkpt lat="44.58947" lon="4.34308">
        <ele>399</ele>
        <time>2016-05-15T11:43:05.000Z</time>
      </trkpt>
      <trkpt lat="44.58949" lon="4.34319">
        <ele>398</ele>
        <time>2016-05-15T11:43:06.000Z</time>
      </trkpt>
      <trkpt lat="44.58951" lon="4.34331">
        <ele>398</ele>
        <time>2016-05-15T11:43:07.000Z</time>
      </trkpt>
      <trkpt lat="44.58952" lon="4.34341">
        <ele>394</ele>
        <time>2016-05-15T11:43:08.000Z</time>
      </trkpt>
      <trkpt lat="44.58955" lon="4.34348">
        <ele>393</ele>
        <time>2016-05-15T11:43:09.000Z</time>
      </trkpt>
      <trkpt lat="44.58957" lon="4.34355">
        <ele>392</ele>
        <time>2016-05-15T11:43:10.000Z</time>
      </trkpt>
      <trkpt lat="44.58958" lon="4.34361">
        <ele>392</ele>
        <time>2016-05-15T11:43:11.000Z</time>
      </trkpt>
      <trkpt lat="44.5896" lon="4.34367">
        <ele>391</ele>
        <time>2016-05-15T11:43:12.000Z</time>
      </trkpt>
      <trkpt lat="44.58962" lon="4.34373">
        <ele>391</ele>
        <time>2016-05-15T11:43:13.000Z</time>
      </trkpt>
      <trkpt lat="44.58964" lon="4.34381">
        <ele>390</ele>
        <time>2016-05-15T11:43:14.000Z</time>
      </trkpt>
      <trkpt lat="44.58964" lon="4.3439">
        <ele>390</ele>
        <time>2016-05-15T11:43:15.000Z</time>
      </trkpt>
      <trkpt lat="44.58964" lon="4.34399">
        <ele>389</ele>
        <time>2016-05-15T11:43:16.000Z</time>
      </trkpt>
      <trkpt lat="44.58963" lon="4.34407">
        <ele>389</ele>
        <time>2016-05-15T11:43:17.000Z</time>
      </trkpt>
      <trkpt lat="44.58962" lon="4.34416">
        <ele>389</ele>
        <time>2016-05-15T11:43:18.000Z</time>
      </trkpt>
      <trkpt lat="44.58961" lon="4.34424">
        <ele>386</ele>
        <time>2016-05-15T11:43:19.000Z</time>
      </trkpt>
      <trkpt lat="44.58959" lon="4.34431">
        <ele>386</ele>
        <time>2016-05-15T11:43:20.000Z</time>
      </trkpt>
      <trkpt lat="44.58957" lon="4.34438">
        <ele>387</ele>
        <time>2016-05-15T11:43:21.000Z</time>
      </trkpt>
      <trkpt lat="44.58955" lon="4.34445">
        <ele>387</ele>
        <time>2016-05-15T11:43:22.000Z</time>
      </trkpt>
      <trkpt lat="44.58953" lon="4.34452">
        <ele>387</ele>
        <time>2016-05-15T11:43:23.000Z</time>
      </trkpt>
      <trkpt lat="44.58951" lon="4.34459">
        <ele>387</ele>
        <time>2016-05-15T11:43:24.000Z</time>
      </trkpt>
      <trkpt lat="44.58949" lon="4.34466">
        <ele>387</ele>
        <time>2016-05-15T11:43:25.000Z</time>
      </trkpt>
      <trkpt lat="44.58947" lon="4.34472">
        <ele>387</ele>
        <time>2016-05-15T11:43:26.000Z</time>
      </trkpt>
      <trkpt lat="44.58945" lon="4.34478">
        <ele>387</ele>
        <time>2016-05-15T11:43:27.000Z</time>
      </trkpt>
      <trkpt lat="44.58942" lon="4.34483">
        <ele>387</ele>
        <time>2016-05-15T11:43:28.000Z</time>
      </trkpt>
      <trkpt lat="44.58938" lon="4.34489">
        <ele>388</ele>
        <time>2016-05-15T11:43:29.000Z</time>
      </trkpt>
      <trkpt lat="44.58934" lon="4.34495">
        <ele>388</ele>
        <time>2016-05-15T11:43:30.000Z</time>
      </trkpt>
      <trkpt lat="44.58931" lon="4.345">
        <ele>387</ele>
        <time>2016-05-15T11:43:31.000Z</time>
      </trkpt>
      <trkpt lat="44.58928" lon="4.34505">
        <ele>387</ele>
        <time>2016-05-15T11:43:32.000Z</time>
      </trkpt>
      <trkpt lat="44.58926" lon="4.34509">
        <ele>387</ele>
        <time>2016-05-15T11:43:33.000Z</time>
      </trkpt>
      <trkpt lat="44.58924" lon="4.34512">
        <ele>387</ele>
        <time>2016-05-15T11:43:34.000Z</time>
      </trkpt>
      <trkpt lat="44.58922" lon="4.34513">
        <ele>387</ele>
        <time>2016-05-15T11:43:35.000Z</time>
      </trkpt>
      <trkpt lat="44.5892" lon="4.34511">
        <ele>388</ele>
        <time>2016-05-15T11:43:36.000Z</time>
      </trkpt>
      <trkpt lat="44.58919" lon="4.34508">
        <ele>388</ele>
        <time>2016-05-15T11:43:37.000Z</time>
      </trkpt>
      <trkpt lat="44.58918" lon="4.34506">
        <ele>389</ele>
        <time>2016-05-15T11:43:38.000Z</time>
      </trkpt>
      <trkpt lat="44.58916" lon="4.34504">
        <ele>390</ele>
        <time>2016-05-15T11:43:39.000Z</time>
      </trkpt>
      <trkpt lat="44.58914" lon="4.34501">
        <ele>390</ele>
        <time>2016-05-15T11:43:40.000Z</time>
      </trkpt>
      <trkpt lat="44.58913" lon="4.34498">
        <ele>391</ele>
        <time>2016-05-15T11:43:41.000Z</time>
      </trkpt>
      <trkpt lat="44.58911" lon="4.34495">
        <ele>391</ele>
        <time>2016-05-15T11:43:42.000Z</time>
      </trkpt>
      <trkpt lat="44.58909" lon="4.34492">
        <ele>391</ele>
        <time>2016-05-15T11:43:43.000Z</time>
      </trkpt>
      <trkpt lat="44.58907" lon="4.34489">
        <ele>390</ele>
        <time>2016-05-15T11:43:44.000Z</time>
      </trkpt>
      <trkpt lat="44.58905" lon="4.34486">
        <ele>390</ele>
        <time>2016-05-15T11:43:45.000Z</time>
      </trkpt>
      <trkpt lat="44.58904" lon="4.34484">
        <ele>390</ele>
        <time>2016-05-15T11:43:46.000Z</time>
      </trkpt>
      <trkpt lat="44.58902" lon="4.34482">
        <ele>390</ele>
        <time>2016-05-15T11:43:47.000Z</time>
      </trkpt>
      <trkpt lat="44.589" lon="4.3448">
        <ele>390</ele>
        <time>2016-05-15T11:43:48.000Z</time>
      </trkpt>
      <trkpt lat="44.58899" lon="4.34478">
        <ele>390</ele>
        <time>2016-05-15T11:43:49.000Z</time>
      </trkpt>
      <trkpt lat="44.58898" lon="4.34477">
        <ele>390</ele>
        <time>2016-05-15T11:43:50.000Z</time>
      </trkpt>
      <trkpt lat="44.58898" lon="4.34476">
        <ele>390</ele>
        <time>2016-05-15T11:43:51.000Z</time>
      </trkpt>
      <trkpt lat="44.58898" lon="4.34476">
        <ele>390</ele>
        <time>2016-05-15T11:43:52.000Z</time>
      </trkpt>
      <trkpt lat="44.58899" lon="4.34476">
        <ele>390</ele>
        <time>2016-05-15T11:43:53.000Z</time>
      </trkpt>
      <trkpt lat="44.58899" lon="4.34476">
        <ele>390</ele>
        <time>2016-05-15T11:43:54.000Z</time>
      </trkpt>
      <trkpt lat="44.58899" lon="4.34475">
        <ele>390</ele>
        <time>2016-05-15T11:43:55.000Z</time>
      </trkpt>
      <trkpt lat="44.58899" lon="4.34475">
        <ele>390</ele>
        <time>2016-05-15T11:43:56.000Z</time>
      </trkpt>
      <trkpt lat="44.58899" lon="4.34475">
        <ele>390</ele>
        <time>2016-05-15T11:43:57.000Z</time>
      </trkpt>
      <trkpt lat="44.58899" lon="4.34475">
        <ele>390</ele>
        <time>2016-05-15T11:43:58.000Z</time>
      </trkpt>
      <trkpt lat="44.58899" lon="4.34475">
        <ele>390</ele>
        <time>2016-05-15T11:43:59.000Z</time>
      </trkpt>
      <trkpt lat="44.58899" lon="4.34475">
        <ele>390</ele>
        <time>2016-05-15T11:44:00.000Z</time>
      </trkpt>
      <trkpt lat="44.58899" lon="4.34475">
        <ele>390</ele>
        <time>2016-05-15T11:44:01.000Z</time>
      </trkpt>
      <trkpt lat="44.58899" lon="4.34475">
        <ele>390</ele>
        <time>2016-05-15T11:44:02.000Z</time>
      </trkpt>
      <trkpt lat="44.58899" lon="4.34475">
        <ele>390</ele>
        <time>2016-05-15T11:44:03.000Z</time>
      </trkpt>
      <trkpt lat="44.58899" lon="4.34474">
        <ele>390</ele>
        <time>2016-05-15T11:44:04.000Z</time>
      </trkpt>
      <trkpt lat="44.58899" lon="4.34474">
        <ele>390</ele>
        <time>2016-05-15T11:44:05.000Z</time>
      </trkpt>
      <trkpt lat="44.58899" lon="4.34474">
        <ele>390</ele>
        <time>2016-05-15T11:44:06.000Z</time>
      </trkpt>
      <trkpt lat="44.58899" lon="4.34474">
        <ele>390</ele>
        <time>2016-05-15T11:44:07.000Z</time>
      </trkpt>
      <trkpt lat="44.58899" lon="4.34473">
        <ele>390</ele>
        <time>2016-05-15T11:44:08.000Z</time>
      </trkpt>
      <trkpt lat="44.58898" lon="4.34472">
        <ele>390</ele>
        <time>2016-05-15T11:44:09.000Z</time>
      </trkpt>
      <trkpt lat="44.58897" lon="4.34471">
        <ele>390</ele>
        <time>2016-05-15T11:44:10.000Z</time>
      </trkpt>
      <trkpt lat="44.58896" lon="4.3447">
        <ele>390</ele>
        <time>2016-05-15T11:44:11.000Z</time>
      </trkpt>
      <trkpt lat="44.58895" lon="4.34469">
        <ele>390</ele>
        <time>2016-05-15T11:44:12.000Z</time>
      </trkpt>
      <trkpt lat="44.58893" lon="4.34467">
        <ele>390</ele>
        <time>2016-05-15T11:44:13.000Z</time>
      </trkpt>
      <trkpt lat="44.58891" lon="4.34464">
        <ele>390</ele>
        <time>2016-05-15T11:44:14.000Z</time>
      </trkpt>
      <trkpt lat="44.58889" lon="4.34461">
        <ele>391</ele>
        <time>2016-05-15T11:44:15.000Z</time>
      </trkpt>
      <trkpt lat="44.58887" lon="4.34458">
        <ele>391</ele>
        <time>2016-05-15T11:44:16.000Z</time>
      </trkpt>
      <trkpt lat="44.58884" lon="4.34456">
        <ele>391</ele>
        <time>2016-05-15T11:44:17.000Z</time>
      </trkpt>
      <trkpt lat="44.58882" lon="4.34453">
        <ele>391</ele>
        <time>2016-05-15T11:44:18.000Z</time>
      </trkpt>
      <trkpt lat="44.5888" lon="4.34451">
        <ele>391</ele>
        <time>2016-05-15T11:44:19.000Z</time>
      </trkpt>
      <trkpt lat="44.58878" lon="4.34449">
        <ele>391</ele>
        <time>2016-05-15T11:44:20.000Z</time>
      </trkpt>
      <trkpt lat="44.58876" lon="4.34447">
        <ele>391</ele>
        <time>2016-05-15T11:44:21.000Z</time>
      </trkpt>
      <trkpt lat="44.58875" lon="4.34446">
        <ele>391</ele>
        <time>2016-05-15T11:44:22.000Z</time>
      </trkpt>
      <trkpt lat="44.58873" lon="4.34444">
        <ele>391</ele>
        <time>2016-05-15T11:44:23.000Z</time>
      </trkpt>
      <trkpt lat="44.58871" lon="4.34442">
        <ele>391</ele>
        <time>2016-05-15T11:44:24.000Z</time>
      </trkpt>
      <trkpt lat="44.58869" lon="4.3444">
        <ele>391</ele>
        <time>2016-05-15T11:44:25.000Z</time>
      </trkpt>
      <trkpt lat="44.58867" lon="4.34438">
        <ele>391</ele>
        <time>2016-05-15T11:44:26.000Z</time>
      </trkpt>
      <trkpt lat="44.58865" lon="4.34436">
        <ele>391</ele>
        <time>2016-05-15T11:44:27.000Z</time>
      </trkpt>
      <trkpt lat="44.58863" lon="4.34435">
        <ele>391</ele>
        <time>2016-05-15T11:44:28.000Z</time>
      </trkpt>
      <trkpt lat="44.58861" lon="4.34433">
        <ele>391</ele>
        <time>2016-05-15T11:44:29.000Z</time>
      </trkpt>
      <trkpt lat="44.58859" lon="4.34431">
        <ele>391</ele>
        <time>2016-05-15T11:44:30.000Z</time>
      </trkpt>
      <trkpt lat="44.58858" lon="4.34429">
        <ele>391</ele>
        <time>2016-05-15T11:44:31.000Z</time>
      </trkpt>
      <trkpt lat="44.58856" lon="4.34428">
        <ele>391</ele>
        <time>2016-05-15T11:44:32.000Z</time>
      </trkpt>
      <trkpt lat="44.58855" lon="4.34426">
        <ele>391</ele>
        <time>2016-05-15T11:44:33.000Z</time>
      </trkpt>
      <trkpt lat="44.58853" lon="4.34425">
        <ele>391</ele>
        <time>2016-05-15T11:44:34.000Z</time>
      </trkpt>
      <trkpt lat="44.5885" lon="4.34423">
        <ele>392</ele>
        <time>2016-05-15T11:44:35.000Z</time>
      </trkpt>
      <trkpt lat="44.58848" lon="4.3442">
        <ele>392</ele>
        <time>2016-05-15T11:44:36.000Z</time>
      </trkpt>
      <trkpt lat="44.58845" lon="4.34418">
        <ele>392</ele>
        <time>2016-05-15T11:44:37.000Z</time>
      </trkpt>
      <trkpt lat="44.58843" lon="4.34415">
        <ele>396</ele>
        <time>2016-05-15T11:44:38.000Z</time>
      </trkpt>
      <trkpt lat="44.5884" lon="4.34413">
        <ele>396</ele>
        <time>2016-05-15T11:44:39.000Z</time>
      </trkpt>
      <trkpt lat="44.58838" lon="4.3441">
        <ele>396</ele>
        <time>2016-05-15T11:44:40.000Z</time>
      </trkpt>
      <trkpt lat="44.58836" lon="4.34408">
        <ele>396</ele>
        <time>2016-05-15T11:44:41.000Z</time>
      </trkpt>
      <trkpt lat="44.58834" lon="4.34406">
        <ele>397</ele>
        <time>2016-05-15T11:44:42.000Z</time>
      </trkpt>
      <trkpt lat="44.58833" lon="4.34404">
        <ele>395</ele>
        <time>2016-05-15T11:44:43.000Z</time>
      </trkpt>
      <trkpt lat="44.58831" lon="4.34402">
        <ele>396</ele>
        <time>2016-05-15T11:44:44.000Z</time>
      </trkpt>
      <trkpt lat="44.5883" lon="4.344">
        <ele>396</ele>
        <time>2016-05-15T11:44:45.000Z</time>
      </trkpt>
      <trkpt lat="44.58827" lon="4.34398">
        <ele>396</ele>
        <time>2016-05-15T11:44:46.000Z</time>
      </trkpt>
      <trkpt lat="44.58825" lon="4.34397">
        <ele>396</ele>
        <time>2016-05-15T11:44:47.000Z</time>
      </trkpt>
      <trkpt lat="44.58822" lon="4.34395">
        <ele>397</ele>
        <time>2016-05-15T11:44:48.000Z</time>
      </trkpt>
      <trkpt lat="44.5882" lon="4.34392">
        <ele>397</ele>
        <time>2016-05-15T11:44:49.000Z</time>
      </trkpt>
      <trkpt lat="44.58817" lon="4.3439">
        <ele>397</ele>
        <time>2016-05-15T11:44:50.000Z</time>
      </trkpt>
      <trkpt lat="44.58815" lon="4.34388">
        <ele>398</ele>
        <time>2016-05-15T11:44:51.000Z</time>
      </trkpt>
      <trkpt lat="44.58812" lon="4.34385">
        <ele>398</ele>
        <time>2016-05-15T11:44:52.000Z</time>
      </trkpt>
      <trkpt lat="44.5881" lon="4.34383">
        <ele>398</ele>
        <time>2016-05-15T11:44:53.000Z</time>
      </trkpt>
      <trkpt lat="44.58807" lon="4.3438">
        <ele>398</ele>
        <time>2016-05-15T11:44:54.000Z</time>
      </trkpt>
      <trkpt lat="44.58805" lon="4.34378">
        <ele>398</ele>
        <time>2016-05-15T11:44:55.000Z</time>
      </trkpt>
      <trkpt lat="44.58802" lon="4.34376">
        <ele>399</ele>
        <time>2016-05-15T11:44:56.000Z</time>
      </trkpt>
      <trkpt lat="44.588" lon="4.34374">
        <ele>399</ele>
        <time>2016-05-15T11:44:57.000Z</time>
      </trkpt>
      <trkpt lat="44.58797" lon="4.34371">
        <ele>399</ele>
        <time>2016-05-15T11:44:58.000Z</time>
      </trkpt>
      <trkpt lat="44.58795" lon="4.34369">
        <ele>399</ele>
        <time>2016-05-15T11:44:59.000Z</time>
      </trkpt>
      <trkpt lat="44.58792" lon="4.34367">
        <ele>399</ele>
        <time>2016-05-15T11:45:00.000Z</time>
      </trkpt>
      <trkpt lat="44.5879" lon="4.34365">
        <ele>399</ele>
        <time>2016-05-15T11:45:01.000Z</time>
      </trkpt>
      <trkpt lat="44.58787" lon="4.34362">
        <ele>399</ele>
        <time>2016-05-15T11:45:02.000Z</time>
      </trkpt>
      <trkpt lat="44.58785" lon="4.3436">
        <ele>400</ele>
        <time>2016-05-15T11:45:03.000Z</time>
      </trkpt>
      <trkpt lat="44.58783" lon="4.34358">
        <ele>400</ele>
        <time>2016-05-15T11:45:04.000Z</time>
      </trkpt>
      <trkpt lat="44.5878" lon="4.34357">
        <ele>400</ele>
        <time>2016-05-15T11:45:05.000Z</time>
      </trkpt>
      <trkpt lat="44.58778" lon="4.34355">
        <ele>400</ele>
        <time>2016-05-15T11:45:06.000Z</time>
      </trkpt>
      <trkpt lat="44.58776" lon="4.34353">
        <ele>400</ele>
        <time>2016-05-15T11:45:07.000Z</time>
      </trkpt>
      <trkpt lat="44.58774" lon="4.34351">
        <ele>400</ele>
        <time>2016-05-15T11:45:08.000Z</time>
      </trkpt>
      <trkpt lat="44.58772" lon="4.34349">
        <ele>400</ele>
        <time>2016-05-15T11:45:09.000Z</time>
      </trkpt>
      <trkpt lat="44.5877" lon="4.34347">
        <ele>401</ele>
        <time>2016-05-15T11:45:10.000Z</time>
      </trkpt>
      <trkpt lat="44.58768" lon="4.34346">
        <ele>401</ele>
        <time>2016-05-15T11:45:11.000Z</time>
      </trkpt>
      <trkpt lat="44.58766" lon="4.34344">
        <ele>401</ele>
        <time>2016-05-15T11:45:12.000Z</time>
      </trkpt>
      <trkpt lat="44.58764" lon="4.34342">
        <ele>401</ele>
        <time>2016-05-15T11:45:13.000Z</time>
      </trkpt>
      <trkpt lat="44.58762" lon="4.3434">
        <ele>402</ele>
        <time>2016-05-15T11:45:14.000Z</time>
      </trkpt>
      <trkpt lat="44.58759" lon="4.34338">
        <ele>402</ele>
        <time>2016-05-15T11:45:15.000Z</time>
      </trkpt>
      <trkpt lat="44.58757" lon="4.34336">
        <ele>403</ele>
        <time>2016-05-15T11:45:16.000Z</time>
      </trkpt>
      <trkpt lat="44.58755" lon="4.34334">
        <ele>403</ele>
        <time>2016-05-15T11:45:17.000Z</time>
      </trkpt>
      <trkpt lat="44.58753" lon="4.34333">
        <ele>405</ele>
        <time>2016-05-15T11:45:18.000Z</time>
      </trkpt>
      <trkpt lat="44.58751" lon="4.34331">
        <ele>405</ele>
        <time>2016-05-15T11:45:19.000Z</time>
      </trkpt>
      <trkpt lat="44.58748" lon="4.34329">
        <ele>405</ele>
        <time>2016-05-15T11:45:20.000Z</time>
      </trkpt>
      <trkpt lat="44.58746" lon="4.34328">
        <ele>405</ele>
        <time>2016-05-15T11:45:21.000Z</time>
      </trkpt>
      <trkpt lat="44.58744" lon="4.34326">
        <ele>406</ele>
        <time>2016-05-15T11:45:22.000Z</time>
      </trkpt>
      <trkpt lat="44.58741" lon="4.34324">
        <ele>406</ele>
        <time>2016-05-15T11:45:23.000Z</time>
      </trkpt>
      <trkpt lat="44.58739" lon="4.34322">
        <ele>407</ele>
        <time>2016-05-15T11:45:24.000Z</time>
      </trkpt>
      <trkpt lat="44.58737" lon="4.34321">
        <ele>407</ele>
        <time>2016-05-15T11:45:25.000Z</time>
      </trkpt>
      <trkpt lat="44.58735" lon="4.3432">
        <ele>407</ele>
        <time>2016-05-15T11:45:26.000Z</time>
      </trkpt>
      <trkpt lat="44.58733" lon="4.34318">
        <ele>407</ele>
        <time>2016-05-15T11:45:27.000Z</time>
      </trkpt>
      <trkpt lat="44.58731" lon="4.34316">
        <ele>407</ele>
        <time>2016-05-15T11:45:28.000Z</time>
      </trkpt>
      <trkpt lat="44.58729" lon="4.34314">
        <ele>408</ele>
        <time>2016-05-15T11:45:29.000Z</time>
      </trkpt>
      <trkpt lat="44.58726" lon="4.34312">
        <ele>408</ele>
        <time>2016-05-15T11:45:30.000Z</time>
      </trkpt>
      <trkpt lat="44.58724" lon="4.3431">
        <ele>408</ele>
        <time>2016-05-15T11:45:31.000Z</time>
      </trkpt>
      <trkpt lat="44.58723" lon="4.34308">
        <ele>408</ele>
        <time>2016-05-15T11:45:32.000Z</time>
      </trkpt>
      <trkpt lat="44.58721" lon="4.34306">
        <ele>408</ele>
        <time>2016-05-15T11:45:33.000Z</time>
      </trkpt>
      <trkpt lat="44.58718" lon="4.34303">
        <ele>409</ele>
        <time>2016-05-15T11:45:34.000Z</time>
      </trkpt>
      <trkpt lat="44.58716" lon="4.34301">
        <ele>409</ele>
        <time>2016-05-15T11:45:35.000Z</time>
      </trkpt>
      <trkpt lat="44.58714" lon="4.34298">
        <ele>409</ele>
        <time>2016-05-15T11:45:36.000Z</time>
      </trkpt>
      <trkpt lat="44.58713" lon="4.34296">
        <ele>409</ele>
        <time>2016-05-15T11:45:37.000Z</time>
      </trkpt>
      <trkpt lat="44.58711" lon="4.34294">
        <ele>409</ele>
        <time>2016-05-15T11:45:38.000Z</time>
      </trkpt>
      <trkpt lat="44.58709" lon="4.34292">
        <ele>410</ele>
        <time>2016-05-15T11:45:39.000Z</time>
      </trkpt>
      <trkpt lat="44.58708" lon="4.34289">
        <ele>410</ele>
        <time>2016-05-15T11:45:40.000Z</time>
      </trkpt>
      <trkpt lat="44.58706" lon="4.34287">
        <ele>410</ele>
        <time>2016-05-15T11:45:41.000Z</time>
      </trkpt>
      <trkpt lat="44.58704" lon="4.34285">
        <ele>410</ele>
        <time>2016-05-15T11:45:42.000Z</time>
      </trkpt>
      <trkpt lat="44.58701" lon="4.34282">
        <ele>410</ele>
        <time>2016-05-15T11:45:43.000Z</time>
      </trkpt>
      <trkpt lat="44.58699" lon="4.3428">
        <ele>410</ele>
        <time>2016-05-15T11:45:44.000Z</time>
      </trkpt>
      <trkpt lat="44.58696" lon="4.34278">
        <ele>411</ele>
        <time>2016-05-15T11:45:45.000Z</time>
      </trkpt>
      <trkpt lat="44.58693" lon="4.34276">
        <ele>411</ele>
        <time>2016-05-15T11:45:46.000Z</time>
      </trkpt>
      <trkpt lat="44.5869" lon="4.34274">
        <ele>411</ele>
        <time>2016-05-15T11:45:47.000Z</time>
      </trkpt>
      <trkpt lat="44.58687" lon="4.34273">
        <ele>411</ele>
        <time>2016-05-15T11:45:48.000Z</time>
      </trkpt>
      <trkpt lat="44.58684" lon="4.34272">
        <ele>411</ele>
        <time>2016-05-15T11:45:49.000Z</time>
      </trkpt>
      <trkpt lat="44.58681" lon="4.34271">
        <ele>411</ele>
        <time>2016-05-15T11:45:50.000Z</time>
      </trkpt>
      <trkpt lat="44.58678" lon="4.3427">
        <ele>411</ele>
        <time>2016-05-15T11:45:51.000Z</time>
      </trkpt>
      <trkpt lat="44.58675" lon="4.34269">
        <ele>411</ele>
        <time>2016-05-15T11:45:52.000Z</time>
      </trkpt>
      <trkpt lat="44.58672" lon="4.34268">
        <ele>412</ele>
        <time>2016-05-15T11:45:53.000Z</time>
      </trkpt>
      <trkpt lat="44.58669" lon="4.34268">
        <ele>412</ele>
        <time>2016-05-15T11:45:54.000Z</time>
      </trkpt>
      <trkpt lat="44.58665" lon="4.34267">
        <ele>410</ele>
        <time>2016-05-15T11:45:55.000Z</time>
      </trkpt>
      <trkpt lat="44.58662" lon="4.34267">
        <ele>410</ele>
        <time>2016-05-15T11:45:56.000Z</time>
      </trkpt>
      <trkpt lat="44.58659" lon="4.34266">
        <ele>410</ele>
        <time>2016-05-15T11:45:57.000Z</time>
      </trkpt>
      <trkpt lat="44.58656" lon="4.34266">
        <ele>410</ele>
        <time>2016-05-15T11:45:58.000Z</time>
      </trkpt>
      <trkpt lat="44.58652" lon="4.34265">
        <ele>410</ele>
        <time>2016-05-15T11:45:59.000Z</time>
      </trkpt>
      <trkpt lat="44.58649" lon="4.34265">
        <ele>409</ele>
        <time>2016-05-15T11:46:00.000Z</time>
      </trkpt>
      <trkpt lat="44.58646" lon="4.34264">
        <ele>409</ele>
        <time>2016-05-15T11:46:01.000Z</time>
      </trkpt>
      <trkpt lat="44.58642" lon="4.34263">
        <ele>409</ele>
        <time>2016-05-15T11:46:02.000Z</time>
      </trkpt>
      <trkpt lat="44.58639" lon="4.34262">
        <ele>409</ele>
        <time>2016-05-15T11:46:03.000Z</time>
      </trkpt>
      <trkpt lat="44.58635" lon="4.34262">
        <ele>409</ele>
        <time>2016-05-15T11:46:04.000Z</time>
      </trkpt>
      <trkpt lat="44.58632" lon="4.34262">
        <ele>409</ele>
        <time>2016-05-15T11:46:05.000Z</time>
      </trkpt>
      <trkpt lat="44.58629" lon="4.34262">
        <ele>409</ele>
        <time>2016-05-15T11:46:06.000Z</time>
      </trkpt>
      <trkpt lat="44.58626" lon="4.34262">
        <ele>408</ele>
        <time>2016-05-15T11:46:07.000Z</time>
      </trkpt>
      <trkpt lat="44.58623" lon="4.34262">
        <ele>408</ele>
        <time>2016-05-15T11:46:08.000Z</time>
      </trkpt>
      <trkpt lat="44.58619" lon="4.34263">
        <ele>408</ele>
        <time>2016-05-15T11:46:09.000Z</time>
      </trkpt>
      <trkpt lat="44.58616" lon="4.34263">
        <ele>409</ele>
        <time>2016-05-15T11:46:10.000Z</time>
      </trkpt>
      <trkpt lat="44.58613" lon="4.34263">
        <ele>409</ele>
        <time>2016-05-15T11:46:11.000Z</time>
      </trkpt>
      <trkpt lat="44.5861" lon="4.34264">
        <ele>409</ele>
        <time>2016-05-15T11:46:12.000Z</time>
      </trkpt>
      <trkpt lat="44.58607" lon="4.34264">
        <ele>409</ele>
        <time>2016-05-15T11:46:13.000Z</time>
      </trkpt>
      <trkpt lat="44.58603" lon="4.34265">
        <ele>409</ele>
        <time>2016-05-15T11:46:14.000Z</time>
      </trkpt>
      <trkpt lat="44.586" lon="4.34264">
        <ele>409</ele>
        <time>2016-05-15T11:46:15.000Z</time>
      </trkpt>
      <trkpt lat="44.58597" lon="4.34264">
        <ele>409</ele>
        <time>2016-05-15T11:46:16.000Z</time>
      </trkpt>
      <trkpt lat="44.58593" lon="4.34263">
        <ele>410</ele>
        <time>2016-05-15T11:46:17.000Z</time>
      </trkpt>
      <trkpt lat="44.58591" lon="4.34262">
        <ele>410</ele>
        <time>2016-05-15T11:46:18.000Z</time>
      </trkpt>
      <trkpt lat="44.58588" lon="4.34261">
        <ele>410</ele>
        <time>2016-05-15T11:46:19.000Z</time>
      </trkpt>
      <trkpt lat="44.58585" lon="4.34259">
        <ele>411</ele>
        <time>2016-05-15T11:46:20.000Z</time>
      </trkpt>
      <trkpt lat="44.58582" lon="4.34258">
        <ele>411</ele>
        <time>2016-05-15T11:46:21.000Z</time>
      </trkpt>
      <trkpt lat="44.5858" lon="4.34256">
        <ele>411</ele>
        <time>2016-05-15T11:46:22.000Z</time>
      </trkpt>
      <trkpt lat="44.58578" lon="4.34255">
        <ele>411</ele>
        <time>2016-05-15T11:46:23.000Z</time>
      </trkpt>
      <trkpt lat="44.58575" lon="4.34253">
        <ele>411</ele>
        <time>2016-05-15T11:46:24.000Z</time>
      </trkpt>
      <trkpt lat="44.58572" lon="4.34251">
        <ele>411</ele>
        <time>2016-05-15T11:46:25.000Z</time>
      </trkpt>
      <trkpt lat="44.5857" lon="4.34249">
        <ele>416</ele>
        <time>2016-05-15T11:46:26.000Z</time>
      </trkpt>
      <trkpt lat="44.58568" lon="4.34247">
        <ele>417</ele>
        <time>2016-05-15T11:46:27.000Z</time>
      </trkpt>
      <trkpt lat="44.58566" lon="4.34245">
        <ele>417</ele>
        <time>2016-05-15T11:46:28.000Z</time>
      </trkpt>
      <trkpt lat="44.58564" lon="4.34243">
        <ele>418</ele>
        <time>2016-05-15T11:46:29.000Z</time>
      </trkpt>
      <trkpt lat="44.58562" lon="4.34241">
        <ele>418</ele>
        <time>2016-05-15T11:46:30.000Z</time>
      </trkpt>
      <trkpt lat="44.5856" lon="4.34239">
        <ele>418</ele>
        <time>2016-05-15T11:46:31.000Z</time>
      </trkpt>
      <trkpt lat="44.58558" lon="4.34237">
        <ele>419</ele>
        <time>2016-05-15T11:46:32.000Z</time>
      </trkpt>
      <trkpt lat="44.58556" lon="4.34235">
        <ele>419</ele>
        <time>2016-05-15T11:46:33.000Z</time>
      </trkpt>
      <trkpt lat="44.58554" lon="4.34234">
        <ele>419</ele>
        <time>2016-05-15T11:46:34.000Z</time>
      </trkpt>
      <trkpt lat="44.58552" lon="4.34232">
        <ele>419</ele>
        <time>2016-05-15T11:46:35.000Z</time>
      </trkpt>
      <trkpt lat="44.5855" lon="4.3423">
        <ele>420</ele>
        <time>2016-05-15T11:46:36.000Z</time>
      </trkpt>
      <trkpt lat="44.58548" lon="4.34228">
        <ele>420</ele>
        <time>2016-05-15T11:46:37.000Z</time>
      </trkpt>
      <trkpt lat="44.58546" lon="4.34226">
        <ele>420</ele>
        <time>2016-05-15T11:46:38.000Z</time>
      </trkpt>
      <trkpt lat="44.58544" lon="4.34225">
        <ele>420</ele>
        <time>2016-05-15T11:46:39.000Z</time>
      </trkpt>
      <trkpt lat="44.58542" lon="4.34223">
        <ele>420</ele>
        <time>2016-05-15T11:46:40.000Z</time>
      </trkpt>
      <trkpt lat="44.5854" lon="4.34222">
        <ele>420</ele>
        <time>2016-05-15T11:46:41.000Z</time>
      </trkpt>
      <trkpt lat="44.58538" lon="4.34221">
        <ele>420</ele>
        <time>2016-05-15T11:46:42.000Z</time>
      </trkpt>
      <trkpt lat="44.58535" lon="4.3422">
        <ele>420</ele>
        <time>2016-05-15T11:46:43.000Z</time>
      </trkpt>
      <trkpt lat="44.58533" lon="4.34219">
        <ele>421</ele>
        <time>2016-05-15T11:46:44.000Z</time>
      </trkpt>
      <trkpt lat="44.58531" lon="4.34217">
        <ele>421</ele>
        <time>2016-05-15T11:46:45.000Z</time>
      </trkpt>
      <trkpt lat="44.58529" lon="4.34215">
        <ele>421</ele>
        <time>2016-05-15T11:46:46.000Z</time>
      </trkpt>
      <trkpt lat="44.58527" lon="4.34214">
        <ele>421</ele>
        <time>2016-05-15T11:46:47.000Z</time>
      </trkpt>
      <trkpt lat="44.58526" lon="4.34212">
        <ele>421</ele>
        <time>2016-05-15T11:46:48.000Z</time>
      </trkpt>
      <trkpt lat="44.58523" lon="4.3421">
        <ele>421</ele>
        <time>2016-05-15T11:46:49.000Z</time>
      </trkpt>
      <trkpt lat="44.58521" lon="4.34208">
        <ele>422</ele>
        <time>2016-05-15T11:46:50.000Z</time>
      </trkpt>
      <trkpt lat="44.58519" lon="4.34207">
        <ele>422</ele>
        <time>2016-05-15T11:46:51.000Z</time>
      </trkpt>
      <trkpt lat="44.58517" lon="4.34205">
        <ele>422</ele>
        <time>2016-05-15T11:46:52.000Z</time>
      </trkpt>
      <trkpt lat="44.58515" lon="4.34203">
        <ele>422</ele>
        <time>2016-05-15T11:46:53.000Z</time>
      </trkpt>
      <trkpt lat="44.58513" lon="4.34202">
        <ele>422</ele>
        <time>2016-05-15T11:46:54.000Z</time>
      </trkpt>
      <trkpt lat="44.58511" lon="4.342">
        <ele>423</ele>
        <time>2016-05-15T11:46:55.000Z</time>
      </trkpt>
      <trkpt lat="44.5851" lon="4.34199">
        <ele>423</ele>
        <time>2016-05-15T11:46:56.000Z</time>
      </trkpt>
      <trkpt lat="44.58508" lon="4.34197">
        <ele>423</ele>
        <time>2016-05-15T11:46:57.000Z</time>
      </trkpt>
      <trkpt lat="44.58506" lon="4.34196">
        <ele>423</ele>
        <time>2016-05-15T11:46:58.000Z</time>
      </trkpt>
      <trkpt lat="44.58504" lon="4.34194">
        <ele>424</ele>
        <time>2016-05-15T11:46:59.000Z</time>
      </trkpt>
      <trkpt lat="44.58503" lon="4.34193">
        <ele>424</ele>
        <time>2016-05-15T11:47:00.000Z</time>
      </trkpt>
      <trkpt lat="44.58501" lon="4.34191">
        <ele>424</ele>
        <time>2016-05-15T11:47:01.000Z</time>
      </trkpt>
      <trkpt lat="44.58499" lon="4.3419">
        <ele>421</ele>
        <time>2016-05-15T11:47:02.000Z</time>
      </trkpt>
      <trkpt lat="44.58497" lon="4.34188">
        <ele>421</ele>
        <time>2016-05-15T11:47:03.000Z</time>
      </trkpt>
      <trkpt lat="44.58496" lon="4.34187">
        <ele>421</ele>
        <time>2016-05-15T11:47:04.000Z</time>
      </trkpt>
      <trkpt lat="44.58494" lon="4.34186">
        <ele>422</ele>
        <time>2016-05-15T11:47:05.000Z</time>
      </trkpt>
      <trkpt lat="44.58492" lon="4.34184">
        <ele>422</ele>
        <time>2016-05-15T11:47:06.000Z</time>
      </trkpt>
      <trkpt lat="44.58491" lon="4.34182">
        <ele>422</ele>
        <time>2016-05-15T11:47:07.000Z</time>
      </trkpt>
      <trkpt lat="44.58489" lon="4.3418">
        <ele>422</ele>
        <time>2016-05-15T11:47:08.000Z</time>
      </trkpt>
      <trkpt lat="44.58488" lon="4.34179">
        <ele>422</ele>
        <time>2016-05-15T11:47:09.000Z</time>
      </trkpt>
      <trkpt lat="44.58486" lon="4.34177">
        <ele>422</ele>
        <time>2016-05-15T11:47:10.000Z</time>
      </trkpt>
      <trkpt lat="44.58484" lon="4.34175">
        <ele>422</ele>
        <time>2016-05-15T11:47:11.000Z</time>
      </trkpt>
      <trkpt lat="44.58482" lon="4.34173">
        <ele>422</ele>
        <time>2016-05-15T11:47:12.000Z</time>
      </trkpt>
      <trkpt lat="44.5848" lon="4.34171">
        <ele>422</ele>
        <time>2016-05-15T11:47:13.000Z</time>
      </trkpt>
      <trkpt lat="44.58479" lon="4.34168">
        <ele>422</ele>
        <time>2016-05-15T11:47:14.000Z</time>
      </trkpt>
      <trkpt lat="44.58478" lon="4.34165">
        <ele>429</ele>
        <time>2016-05-15T11:47:15.000Z</time>
      </trkpt>
      <trkpt lat="44.58476" lon="4.34163">
        <ele>429</ele>
        <time>2016-05-15T11:47:16.000Z</time>
      </trkpt>
      <trkpt lat="44.58474" lon="4.34161">
        <ele>429</ele>
        <time>2016-05-15T11:47:17.000Z</time>
      </trkpt>
      <trkpt lat="44.58473" lon="4.34159">
        <ele>428</ele>
        <time>2016-05-15T11:47:18.000Z</time>
      </trkpt>
      <trkpt lat="44.58471" lon="4.34157">
        <ele>428</ele>
        <time>2016-05-15T11:47:19.000Z</time>
      </trkpt>
      <trkpt lat="44.5847" lon="4.34155">
        <ele>428</ele>
        <time>2016-05-15T11:47:20.000Z</time>
      </trkpt>
      <trkpt lat="44.58468" lon="4.34153">
        <ele>428</ele>
        <time>2016-05-15T11:47:21.000Z</time>
      </trkpt>
      <trkpt lat="44.58466" lon="4.3415">
        <ele>428</ele>
        <time>2016-05-15T11:47:22.000Z</time>
      </trkpt>
      <trkpt lat="44.58464" lon="4.34148">
        <ele>428</ele>
        <time>2016-05-15T11:47:23.000Z</time>
      </trkpt>
      <trkpt lat="44.58463" lon="4.34146">
        <ele>428</ele>
        <time>2016-05-15T11:47:24.000Z</time>
      </trkpt>
      <trkpt lat="44.58461" lon="4.34144">
        <ele>428</ele>
        <time>2016-05-15T11:47:25.000Z</time>
      </trkpt>
      <trkpt lat="44.58459" lon="4.34143">
        <ele>428</ele>
        <time>2016-05-15T11:47:26.000Z</time>
      </trkpt>
      <trkpt lat="44.58457" lon="4.34141">
        <ele>428</ele>
        <time>2016-05-15T11:47:27.000Z</time>
      </trkpt>
      <trkpt lat="44.58455" lon="4.34139">
        <ele>428</ele>
        <time>2016-05-15T11:47:28.000Z</time>
      </trkpt>
      <trkpt lat="44.58453" lon="4.34137">
        <ele>428</ele>
        <time>2016-05-15T11:47:29.000Z</time>
      </trkpt>
      <trkpt lat="44.58451" lon="4.34134">
        <ele>428</ele>
        <time>2016-05-15T11:47:30.000Z</time>
      </trkpt>
      <trkpt lat="44.5845" lon="4.34132">
        <ele>428</ele>
        <time>2016-05-15T11:47:31.000Z</time>
      </trkpt>
      <trkpt lat="44.58448" lon="4.3413">
        <ele>428</ele>
        <time>2016-05-15T11:47:32.000Z</time>
      </trkpt>
      <trkpt lat="44.58446" lon="4.34128">
        <ele>428</ele>
        <time>2016-05-15T11:47:33.000Z</time>
      </trkpt>
      <trkpt lat="44.58445" lon="4.34125">
        <ele>428</ele>
        <time>2016-05-15T11:47:34.000Z</time>
      </trkpt>
      <trkpt lat="44.58443" lon="4.34123">
        <ele>429</ele>
        <time>2016-05-15T11:47:35.000Z</time>
      </trkpt>
      <trkpt lat="44.58442" lon="4.3412">
        <ele>429</ele>
        <time>2016-05-15T11:47:36.000Z</time>
      </trkpt>
      <trkpt lat="44.5844" lon="4.34118">
        <ele>429</ele>
        <time>2016-05-15T11:47:37.000Z</time>
      </trkpt>
      <trkpt lat="44.58439" lon="4.34115">
        <ele>429</ele>
        <time>2016-05-15T11:47:38.000Z</time>
      </trkpt>
      <trkpt lat="44.58437" lon="4.34112">
        <ele>429</ele>
        <time>2016-05-15T11:47:39.000Z</time>
      </trkpt>
      <trkpt lat="44.58436" lon="4.34109">
        <ele>429</ele>
        <time>2016-05-15T11:47:40.000Z</time>
      </trkpt>
      <trkpt lat="44.58435" lon="4.34106">
        <ele>429</ele>
        <time>2016-05-15T11:47:41.000Z</time>
      </trkpt>
      <trkpt lat="44.58434" lon="4.34103">
        <ele>429</ele>
        <time>2016-05-15T11:47:42.000Z</time>
      </trkpt>
      <trkpt lat="44.58433" lon="4.34101">
        <ele>429</ele>
        <time>2016-05-15T11:47:43.000Z</time>
      </trkpt>
      <trkpt lat="44.58431" lon="4.34098">
        <ele>429</ele>
        <time>2016-05-15T11:47:44.000Z</time>
      </trkpt>
      <trkpt lat="44.5843" lon="4.34095">
        <ele>429</ele>
        <time>2016-05-15T11:47:45.000Z</time>
      </trkpt>
      <trkpt lat="44.5843" lon="4.34092">
        <ele>429</ele>
        <time>2016-05-15T11:47:46.000Z</time>
      </trkpt>
      <trkpt lat="44.58429" lon="4.34089">
        <ele>429</ele>
        <time>2016-05-15T11:47:47.000Z</time>
      </trkpt>
      <trkpt lat="44.58428" lon="4.34086">
        <ele>429</ele>
        <time>2016-05-15T11:47:48.000Z</time>
      </trkpt>
      <trkpt lat="44.58428" lon="4.34084">
        <ele>429</ele>
        <time>2016-05-15T11:47:49.000Z</time>
      </trkpt>
      <trkpt lat="44.58427" lon="4.34081">
        <ele>433</ele>
        <time>2016-05-15T11:47:50.000Z</time>
      </trkpt>
      <trkpt lat="44.58427" lon="4.34078">
        <ele>433</ele>
        <time>2016-05-15T11:47:51.000Z</time>
      </trkpt>
      <trkpt lat="44.58427" lon="4.34075">
        <ele>434</ele>
        <time>2016-05-15T11:47:52.000Z</time>
      </trkpt>
      <trkpt lat="44.58427" lon="4.34072">
        <ele>434</ele>
        <time>2016-05-15T11:47:53.000Z</time>
      </trkpt>
      <trkpt lat="44.58427" lon="4.34069">
        <ele>435</ele>
        <time>2016-05-15T11:47:54.000Z</time>
      </trkpt>
      <trkpt lat="44.58427" lon="4.34066">
        <ele>435</ele>
        <time>2016-05-15T11:47:55.000Z</time>
      </trkpt>
      <trkpt lat="44.58428" lon="4.34062">
        <ele>436</ele>
        <time>2016-05-15T11:47:56.000Z</time>
      </trkpt>
      <trkpt lat="44.58428" lon="4.3406">
        <ele>436</ele>
        <time>2016-05-15T11:47:57.000Z</time>
      </trkpt>
      <trkpt lat="44.58428" lon="4.34057">
        <ele>437</ele>
        <time>2016-05-15T11:47:58.000Z</time>
      </trkpt>
      <trkpt lat="44.58429" lon="4.34055">
        <ele>437</ele>
        <time>2016-05-15T11:47:59.000Z</time>
      </trkpt>
      <trkpt lat="44.58429" lon="4.34052">
        <ele>437</ele>
        <time>2016-05-15T11:48:00.000Z</time>
      </trkpt>
      <trkpt lat="44.58429" lon="4.34049">
        <ele>437</ele>
        <time>2016-05-15T11:48:01.000Z</time>
      </trkpt>
      <trkpt lat="44.5843" lon="4.34047">
        <ele>438</ele>
        <time>2016-05-15T11:48:02.000Z</time>
      </trkpt>
      <trkpt lat="44.5843" lon="4.34044">
        <ele>438</ele>
        <time>2016-05-15T11:48:03.000Z</time>
      </trkpt>
      <trkpt lat="44.5843" lon="4.34041">
        <ele>438</ele>
        <time>2016-05-15T11:48:04.000Z</time>
      </trkpt>
      <trkpt lat="44.5843" lon="4.34038">
        <ele>438</ele>
        <time>2016-05-15T11:48:05.000Z</time>
      </trkpt>
      <trkpt lat="44.5843" lon="4.34035">
        <ele>438</ele>
        <time>2016-05-15T11:48:06.000Z</time>
      </trkpt>
      <trkpt lat="44.5843" lon="4.34032">
        <ele>439</ele>
        <time>2016-05-15T11:48:07.000Z</time>
      </trkpt>
      <trkpt lat="44.58429" lon="4.3403">
        <ele>439</ele>
        <time>2016-05-15T11:48:08.000Z</time>
      </trkpt>
      <trkpt lat="44.58429" lon="4.34027">
        <ele>439</ele>
        <time>2016-05-15T11:48:09.000Z</time>
      </trkpt>
      <trkpt lat="44.58428" lon="4.34024">
        <ele>439</ele>
        <time>2016-05-15T11:48:10.000Z</time>
      </trkpt>
      <trkpt lat="44.58428" lon="4.34021">
        <ele>439</ele>
        <time>2016-05-15T11:48:11.000Z</time>
      </trkpt>
      <trkpt lat="44.58427" lon="4.34018">
        <ele>439</ele>
        <time>2016-05-15T11:48:12.000Z</time>
      </trkpt>
      <trkpt lat="44.58427" lon="4.34015">
        <ele>439</ele>
        <time>2016-05-15T11:48:13.000Z</time>
      </trkpt>
      <trkpt lat="44.58426" lon="4.34012">
        <ele>438</ele>
        <time>2016-05-15T11:48:14.000Z</time>
      </trkpt>
      <trkpt lat="44.58426" lon="4.34009">
        <ele>438</ele>
        <time>2016-05-15T11:48:15.000Z</time>
      </trkpt>
      <trkpt lat="44.58425" lon="4.34006">
        <ele>438</ele>
        <time>2016-05-15T11:48:16.000Z</time>
      </trkpt>
      <trkpt lat="44.58425" lon="4.34003">
        <ele>438</ele>
        <time>2016-05-15T11:48:17.000Z</time>
      </trkpt>
      <trkpt lat="44.58424" lon="4.34">
        <ele>440</ele>
        <time>2016-05-15T11:48:18.000Z</time>
      </trkpt>
      <trkpt lat="44.58424" lon="4.33997">
        <ele>440</ele>
        <time>2016-05-15T11:48:19.000Z</time>
      </trkpt>
      <trkpt lat="44.58423" lon="4.33994">
        <ele>440</ele>
        <time>2016-05-15T11:48:20.000Z</time>
      </trkpt>
      <trkpt lat="44.58421" lon="4.33991">
        <ele>441</ele>
        <time>2016-05-15T11:48:21.000Z</time>
      </trkpt>
      <trkpt lat="44.5842" lon="4.33989">
        <ele>441</ele>
        <time>2016-05-15T11:48:22.000Z</time>
      </trkpt>
      <trkpt lat="44.58419" lon="4.33987">
        <ele>442</ele>
        <time>2016-05-15T11:48:23.000Z</time>
      </trkpt>
      <trkpt lat="44.58418" lon="4.33985">
        <ele>442</ele>
        <time>2016-05-15T11:48:24.000Z</time>
      </trkpt>
      <trkpt lat="44.58417" lon="4.33984">
        <ele>438</ele>
        <time>2016-05-15T11:48:25.000Z</time>
      </trkpt>
      <trkpt lat="44.58415" lon="4.33983">
        <ele>438</ele>
        <time>2016-05-15T11:48:26.000Z</time>
      </trkpt>
      <trkpt lat="44.58414" lon="4.33982">
        <ele>438</ele>
        <time>2016-05-15T11:48:27.000Z</time>
      </trkpt>
      <trkpt lat="44.58413" lon="4.33981">
        <ele>438</ele>
        <time>2016-05-15T11:48:28.000Z</time>
      </trkpt>
      <trkpt lat="44.58411" lon="4.3398">
        <ele>438</ele>
        <time>2016-05-15T11:48:29.000Z</time>
      </trkpt>
      <trkpt lat="44.5841" lon="4.33979">
        <ele>438</ele>
        <time>2016-05-15T11:48:30.000Z</time>
      </trkpt>
      <trkpt lat="44.58408" lon="4.33979">
        <ele>438</ele>
        <time>2016-05-15T11:48:31.000Z</time>
      </trkpt>
      <trkpt lat="44.58407" lon="4.33977">
        <ele>439</ele>
        <time>2016-05-15T11:48:32.000Z</time>
      </trkpt>
      <trkpt lat="44.58406" lon="4.33976">
        <ele>439</ele>
        <time>2016-05-15T11:48:33.000Z</time>
      </trkpt>
      <trkpt lat="44.58404" lon="4.33976">
        <ele>439</ele>
        <time>2016-05-15T11:48:34.000Z</time>
      </trkpt>
      <trkpt lat="44.58403" lon="4.33975">
        <ele>439</ele>
        <time>2016-05-15T11:48:35.000Z</time>
      </trkpt>
      <trkpt lat="44.58401" lon="4.33975">
        <ele>439</ele>
        <time>2016-05-15T11:48:36.000Z</time>
      </trkpt>
      <trkpt lat="44.584" lon="4.33974">
        <ele>439</ele>
        <time>2016-05-15T11:48:37.000Z</time>
      </trkpt>
      <trkpt lat="44.58398" lon="4.33973">
        <ele>439</ele>
        <time>2016-05-15T11:48:38.000Z</time>
      </trkpt>
      <trkpt lat="44.58397" lon="4.33972">
        <ele>439</ele>
        <time>2016-05-15T11:48:39.000Z</time>
      </trkpt>
      <trkpt lat="44.58396" lon="4.3397">
        <ele>439</ele>
        <time>2016-05-15T11:48:40.000Z</time>
      </trkpt>
      <trkpt lat="44.58394" lon="4.33969">
        <ele>439</ele>
        <time>2016-05-15T11:48:41.000Z</time>
      </trkpt>
      <trkpt lat="44.58393" lon="4.33968">
        <ele>439</ele>
        <time>2016-05-15T11:48:42.000Z</time>
      </trkpt>
      <trkpt lat="44.58392" lon="4.33967">
        <ele>439</ele>
        <time>2016-05-15T11:48:43.000Z</time>
      </trkpt>
      <trkpt lat="44.58391" lon="4.33965">
        <ele>439</ele>
        <time>2016-05-15T11:48:44.000Z</time>
      </trkpt>
      <trkpt lat="44.5839" lon="4.33964">
        <ele>439</ele>
        <time>2016-05-15T11:48:45.000Z</time>
      </trkpt>
      <trkpt lat="44.58389" lon="4.33963">
        <ele>439</ele>
        <time>2016-05-15T11:48:46.000Z</time>
      </trkpt>
      <trkpt lat="44.58388" lon="4.33962">
        <ele>439</ele>
        <time>2016-05-15T11:48:47.000Z</time>
      </trkpt>
      <trkpt lat="44.58387" lon="4.3396">
        <ele>439</ele>
        <time>2016-05-15T11:48:48.000Z</time>
      </trkpt>
      <trkpt lat="44.58386" lon="4.33959">
        <ele>439</ele>
        <time>2016-05-15T11:48:49.000Z</time>
      </trkpt>
      <trkpt lat="44.58385" lon="4.33957">
        <ele>439</ele>
        <time>2016-05-15T11:48:50.000Z</time>
      </trkpt>
      <trkpt lat="44.58383" lon="4.33956">
        <ele>439</ele>
        <time>2016-05-15T11:48:51.000Z</time>
      </trkpt>
      <trkpt lat="44.58382" lon="4.33954">
        <ele>439</ele>
        <time>2016-05-15T11:48:52.000Z</time>
      </trkpt>
      <trkpt lat="44.5838" lon="4.33952">
        <ele>439</ele>
        <time>2016-05-15T11:48:53.000Z</time>
      </trkpt>
      <trkpt lat="44.58378" lon="4.33949">
        <ele>439</ele>
        <time>2016-05-15T11:48:54.000Z</time>
      </trkpt>
      <trkpt lat="44.58376" lon="4.33947">
        <ele>439</ele>
        <time>2016-05-15T11:48:55.000Z</time>
      </trkpt>
      <trkpt lat="44.58374" lon="4.33945">
        <ele>439</ele>
        <time>2016-05-15T11:48:56.000Z</time>
      </trkpt>
      <trkpt lat="44.58373" lon="4.33943">
        <ele>439</ele>
        <time>2016-05-15T11:48:57.000Z</time>
      </trkpt>
      <trkpt lat="44.58371" lon="4.33941">
        <ele>439</ele>
        <time>2016-05-15T11:48:58.000Z</time>
      </trkpt>
      <trkpt lat="44.5837" lon="4.3394">
        <ele>439</ele>
        <time>2016-05-15T11:48:59.000Z</time>
      </trkpt>
      <trkpt lat="44.58368" lon="4.33939">
        <ele>439</ele>
        <time>2016-05-15T11:49:00.000Z</time>
      </trkpt>
      <trkpt lat="44.58367" lon="4.33938">
        <ele>439</ele>
        <time>2016-05-15T11:49:01.000Z</time>
      </trkpt>
      <trkpt lat="44.58366" lon="4.33936">
        <ele>439</ele>
        <time>2016-05-15T11:49:02.000Z</time>
      </trkpt>
      <trkpt lat="44.58365" lon="4.33935">
        <ele>439</ele>
        <time>2016-05-15T11:49:03.000Z</time>
      </trkpt>
      <trkpt lat="44.58365" lon="4.33933">
        <ele>439</ele>
        <time>2016-05-15T11:49:04.000Z</time>
      </trkpt>
      <trkpt lat="44.58364" lon="4.33932">
        <ele>439</ele>
        <time>2016-05-15T11:49:05.000Z</time>
      </trkpt>
      <trkpt lat="44.58363" lon="4.3393">
        <ele>439</ele>
        <time>2016-05-15T11:49:06.000Z</time>
      </trkpt>
      <trkpt lat="44.58362" lon="4.33929">
        <ele>439</ele>
        <time>2016-05-15T11:49:07.000Z</time>
      </trkpt>
      <trkpt lat="44.58361" lon="4.33928">
        <ele>439</ele>
        <time>2016-05-15T11:49:08.000Z</time>
      </trkpt>
      <trkpt lat="44.5836" lon="4.33927">
        <ele>439</ele>
        <time>2016-05-15T11:49:09.000Z</time>
      </trkpt>
      <trkpt lat="44.58359" lon="4.33926">
        <ele>439</ele>
        <time>2016-05-15T11:49:10.000Z</time>
      </trkpt>
      <trkpt lat="44.58357" lon="4.33925">
        <ele>439</ele>
        <time>2016-05-15T11:49:11.000Z</time>
      </trkpt>
      <trkpt lat="44.58355" lon="4.33925">
        <ele>439</ele>
        <time>2016-05-15T11:49:12.000Z</time>
      </trkpt>
      <trkpt lat="44.58353" lon="4.33924">
        <ele>439</ele>
        <time>2016-05-15T11:49:13.000Z</time>
      </trkpt>
      <trkpt lat="44.58351" lon="4.33922">
        <ele>439</ele>
        <time>2016-05-15T11:49:14.000Z</time>
      </trkpt>
      <trkpt lat="44.58349" lon="4.33919">
        <ele>439</ele>
        <time>2016-05-15T11:49:15.000Z</time>
      </trkpt>
      <trkpt lat="44.58347" lon="4.33916">
        <ele>443</ele>
        <time>2016-05-15T11:49:16.000Z</time>
      </trkpt>
      <trkpt lat="44.58346" lon="4.33913">
        <ele>443</ele>
        <time>2016-05-15T11:49:17.000Z</time>
      </trkpt>
      <trkpt lat="44.58343" lon="4.33912">
        <ele>442</ele>
        <time>2016-05-15T11:49:18.000Z</time>
      </trkpt>
      <trkpt lat="44.58342" lon="4.33909">
        <ele>442</ele>
        <time>2016-05-15T11:49:19.000Z</time>
      </trkpt>
      <trkpt lat="44.58339" lon="4.33907">
        <ele>442</ele>
        <time>2016-05-15T11:49:20.000Z</time>
      </trkpt>
      <trkpt lat="44.58337" lon="4.33904">
        <ele>443</ele>
        <time>2016-05-15T11:49:21.000Z</time>
      </trkpt>
      <trkpt lat="44.58334" lon="4.33903">
        <ele>443</ele>
        <time>2016-05-15T11:49:22.000Z</time>
      </trkpt>
      <trkpt lat="44.58331" lon="4.33902">
        <ele>438</ele>
        <time>2016-05-15T11:49:23.000Z</time>
      </trkpt>
      <trkpt lat="44.58329" lon="4.33898">
        <ele>438</ele>
        <time>2016-05-15T11:49:24.000Z</time>
      </trkpt>
      <trkpt lat="44.58326" lon="4.33894">
        <ele>438</ele>
        <time>2016-05-15T11:49:25.000Z</time>
      </trkpt>
      <trkpt lat="44.58322" lon="4.33892">
        <ele>438</ele>
        <time>2016-05-15T11:49:26.000Z</time>
      </trkpt>
      <trkpt lat="44.58318" lon="4.33889">
        <ele>438</ele>
        <time>2016-05-15T11:49:27.000Z</time>
      </trkpt>
      <trkpt lat="44.58315" lon="4.33886">
        <ele>438</ele>
        <time>2016-05-15T11:49:28.000Z</time>
      </trkpt>
      <trkpt lat="44.58312" lon="4.33883">
        <ele>438</ele>
        <time>2016-05-15T11:49:29.000Z</time>
      </trkpt>
      <trkpt lat="44.58309" lon="4.33882">
        <ele>438</ele>
        <time>2016-05-15T11:49:30.000Z</time>
      </trkpt>
      <trkpt lat="44.58306" lon="4.33881">
        <ele>438</ele>
        <time>2016-05-15T11:49:31.000Z</time>
      </trkpt>
      <trkpt lat="44.58303" lon="4.33879">
        <ele>438</ele>
        <time>2016-05-15T11:49:32.000Z</time>
      </trkpt>
      <trkpt lat="44.583" lon="4.33877">
        <ele>437</ele>
        <time>2016-05-15T11:49:33.000Z</time>
      </trkpt>
      <trkpt lat="44.58298" lon="4.33874">
        <ele>438</ele>
        <time>2016-05-15T11:49:34.000Z</time>
      </trkpt>
      <trkpt lat="44.58296" lon="4.3387">
        <ele>438</ele>
        <time>2016-05-15T11:49:35.000Z</time>
      </trkpt>
      <trkpt lat="44.58294" lon="4.33866">
        <ele>438</ele>
        <time>2016-05-15T11:49:36.000Z</time>
      </trkpt>
      <trkpt lat="44.58292" lon="4.33863">
        <ele>438</ele>
        <time>2016-05-15T11:49:37.000Z</time>
      </trkpt>
      <trkpt lat="44.58289" lon="4.33861">
        <ele>438</ele>
        <time>2016-05-15T11:49:38.000Z</time>
      </trkpt>
      <trkpt lat="44.58287" lon="4.33861">
        <ele>437</ele>
        <time>2016-05-15T11:49:39.000Z</time>
      </trkpt>
      <trkpt lat="44.58284" lon="4.33862">
        <ele>437</ele>
        <time>2016-05-15T11:49:40.000Z</time>
      </trkpt>
      <trkpt lat="44.58283" lon="4.33864">
        <ele>437</ele>
        <time>2016-05-15T11:49:41.000Z</time>
      </trkpt>
      <trkpt lat="44.58282" lon="4.33867">
        <ele>437</ele>
        <time>2016-05-15T11:49:42.000Z</time>
      </trkpt>
      <trkpt lat="44.58281" lon="4.33871">
        <ele>437</ele>
        <time>2016-05-15T11:49:43.000Z</time>
      </trkpt>
      <trkpt lat="44.5828" lon="4.33874">
        <ele>436</ele>
        <time>2016-05-15T11:49:44.000Z</time>
      </trkpt>
      <trkpt lat="44.58279" lon="4.33876">
        <ele>436</ele>
        <time>2016-05-15T11:49:45.000Z</time>
      </trkpt>
      <trkpt lat="44.58276" lon="4.33877">
        <ele>436</ele>
        <time>2016-05-15T11:49:46.000Z</time>
      </trkpt>
      <trkpt lat="44.58274" lon="4.33878">
        <ele>435</ele>
        <time>2016-05-15T11:49:47.000Z</time>
      </trkpt>
      <trkpt lat="44.58271" lon="4.33878">
        <ele>435</ele>
        <time>2016-05-15T11:49:48.000Z</time>
      </trkpt>
      <trkpt lat="44.58269" lon="4.33879">
        <ele>435</ele>
        <time>2016-05-15T11:49:49.000Z</time>
      </trkpt>
      <trkpt lat="44.58267" lon="4.3388">
        <ele>435</ele>
        <time>2016-05-15T11:49:50.000Z</time>
      </trkpt>
      <trkpt lat="44.58266" lon="4.33882">
        <ele>435</ele>
        <time>2016-05-15T11:49:51.000Z</time>
      </trkpt>
      <trkpt lat="44.58266" lon="4.33885">
        <ele>434</ele>
        <time>2016-05-15T11:49:52.000Z</time>
      </trkpt>
      <trkpt lat="44.58267" lon="4.33889">
        <ele>434</ele>
        <time>2016-05-15T11:49:53.000Z</time>
      </trkpt>
      <trkpt lat="44.58266" lon="4.33892">
        <ele>433</ele>
        <time>2016-05-15T11:49:54.000Z</time>
      </trkpt>
      <trkpt lat="44.58266" lon="4.33894">
        <ele>433</ele>
        <time>2016-05-15T11:49:55.000Z</time>
      </trkpt>
      <trkpt lat="44.58266" lon="4.33894">
        <ele>433</ele>
        <time>2016-05-15T11:49:56.000Z</time>
      </trkpt>
      <trkpt lat="44.58265" lon="4.33895">
        <ele>433</ele>
        <time>2016-05-15T11:49:57.000Z</time>
      </trkpt>
      <trkpt lat="44.58265" lon="4.33895">
        <ele>433</ele>
        <time>2016-05-15T11:49:58.000Z</time>
      </trkpt>
      <trkpt lat="44.58265" lon="4.33895">
        <ele>433</ele>
        <time>2016-05-15T11:49:59.000Z</time>
      </trkpt>
      <trkpt lat="44.58265" lon="4.33896">
        <ele>433</ele>
        <time>2016-05-15T11:50:00.000Z</time>
      </trkpt>
      <trkpt lat="44.58265" lon="4.33896">
        <ele>433</ele>
        <time>2016-05-15T11:50:01.000Z</time>
      </trkpt>
      <trkpt lat="44.58264" lon="4.33895">
        <ele>433</ele>
        <time>2016-05-15T11:50:02.000Z</time>
      </trkpt>
      <trkpt lat="44.58264" lon="4.33895">
        <ele>433</ele>
        <time>2016-05-15T11:50:03.000Z</time>
      </trkpt>
      <trkpt lat="44.58264" lon="4.33894">
        <ele>433</ele>
        <time>2016-05-15T11:50:04.000Z</time>
      </trkpt>
      <trkpt lat="44.58264" lon="4.33894">
        <ele>433</ele>
        <time>2016-05-15T11:50:05.000Z</time>
      </trkpt>
      <trkpt lat="44.58264" lon="4.33893">
        <ele>433</ele>
        <time>2016-05-15T11:50:06.000Z</time>
      </trkpt>
      <trkpt lat="44.58263" lon="4.33892">
        <ele>433</ele>
        <time>2016-05-15T11:50:07.000Z</time>
      </trkpt>
      <trkpt lat="44.58263" lon="4.33891">
        <ele>433</ele>
        <time>2016-05-15T11:50:08.000Z</time>
      </trkpt>
      <trkpt lat="44.58263" lon="4.3389">
        <ele>433</ele>
        <time>2016-05-15T11:50:09.000Z</time>
      </trkpt>
      <trkpt lat="44.58263" lon="4.33889">
        <ele>434</ele>
        <time>2016-05-15T11:50:10.000Z</time>
      </trkpt>
      <trkpt lat="44.58263" lon="4.33888">
        <ele>434</ele>
        <time>2016-05-15T11:50:11.000Z</time>
      </trkpt>
      <trkpt lat="44.58262" lon="4.33888">
        <ele>434</ele>
        <time>2016-05-15T11:50:12.000Z</time>
      </trkpt>
      <trkpt lat="44.58262" lon="4.33889">
        <ele>434</ele>
        <time>2016-05-15T11:50:13.000Z</time>
      </trkpt>
      <trkpt lat="44.58262" lon="4.33889">
        <ele>433</ele>
        <time>2016-05-15T11:50:14.000Z</time>
      </trkpt>
      <trkpt lat="44.58262" lon="4.33889">
        <ele>433</ele>
        <time>2016-05-15T11:50:15.000Z</time>
      </trkpt>
      <trkpt lat="44.58262" lon="4.33889">
        <ele>433</ele>
        <time>2016-05-15T11:50:16.000Z</time>
      </trkpt>
      <trkpt lat="44.58262" lon="4.33889">
        <ele>433</ele>
        <time>2016-05-15T11:50:17.000Z</time>
      </trkpt>
      <trkpt lat="44.58262" lon="4.33889">
        <ele>433</ele>
        <time>2016-05-15T11:50:18.000Z</time>
      </trkpt>
      <trkpt lat="44.58262" lon="4.33889">
        <ele>433</ele>
        <time>2016-05-15T11:50:19.000Z</time>
      </trkpt>
      <trkpt lat="44.58262" lon="4.3389">
        <ele>433</ele>
        <time>2016-05-15T11:50:20.000Z</time>
      </trkpt>
      <trkpt lat="44.58262" lon="4.3389">
        <ele>433</ele>
        <time>2016-05-15T11:50:21.000Z</time>
      </trkpt>
      <trkpt lat="44.58263" lon="4.3389">
        <ele>433</ele>
        <time>2016-05-15T11:50:22.000Z</time>
      </trkpt>
      <trkpt lat="44.58263" lon="4.33892">
        <ele>433</ele>
        <time>2016-05-15T11:50:23.000Z</time>
      </trkpt>
      <trkpt lat="44.58263" lon="4.33894">
        <ele>433</ele>
        <time>2016-05-15T11:50:24.000Z</time>
      </trkpt>
      <trkpt lat="44.58264" lon="4.33897">
        <ele>432</ele>
        <time>2016-05-15T11:50:25.000Z</time>
      </trkpt>
      <trkpt lat="44.58264" lon="4.33901">
        <ele>432</ele>
        <time>2016-05-15T11:50:26.000Z</time>
      </trkpt>
      <trkpt lat="44.58263" lon="4.33906">
        <ele>431</ele>
        <time>2016-05-15T11:50:27.000Z</time>
      </trkpt>
      <trkpt lat="44.58262" lon="4.3391">
        <ele>430</ele>
        <time>2016-05-15T11:50:28.000Z</time>
      </trkpt>
      <trkpt lat="44.58261" lon="4.33913">
        <ele>430</ele>
        <time>2016-05-15T11:50:29.000Z</time>
      </trkpt>
      <trkpt lat="44.58261" lon="4.33916">
        <ele>429</ele>
        <time>2016-05-15T11:50:30.000Z</time>
      </trkpt>
      <trkpt lat="44.5826" lon="4.3392">
        <ele>427</ele>
        <time>2016-05-15T11:50:31.000Z</time>
      </trkpt>
      <trkpt lat="44.58259" lon="4.33926">
        <ele>427</ele>
        <time>2016-05-15T11:50:32.000Z</time>
      </trkpt>
      <trkpt lat="44.58258" lon="4.33929">
        <ele>427</ele>
        <time>2016-05-15T11:50:33.000Z</time>
      </trkpt>
      <trkpt lat="44.58257" lon="4.33931">
        <ele>427</ele>
        <time>2016-05-15T11:50:34.000Z</time>
      </trkpt>
      <trkpt lat="44.58256" lon="4.33931">
        <ele>427</ele>
        <time>2016-05-15T11:50:35.000Z</time>
      </trkpt>
      <trkpt lat="44.58256" lon="4.3393">
        <ele>427</ele>
        <time>2016-05-15T11:50:36.000Z</time>
      </trkpt>
      <trkpt lat="44.58255" lon="4.33928">
        <ele>427</ele>
        <time>2016-05-15T11:50:37.000Z</time>
      </trkpt>
      <trkpt lat="44.58254" lon="4.33927">
        <ele>426</ele>
        <time>2016-05-15T11:50:38.000Z</time>
      </trkpt>
      <trkpt lat="44.58253" lon="4.33927">
        <ele>426</ele>
        <time>2016-05-15T11:50:39.000Z</time>
      </trkpt>
      <trkpt lat="44.58251" lon="4.3393">
        <ele>427</ele>
        <time>2016-05-15T11:50:40.000Z</time>
      </trkpt>
      <trkpt lat="44.58249" lon="4.33934">
        <ele>423</ele>
        <time>2016-05-15T11:50:41.000Z</time>
      </trkpt>
      <trkpt lat="44.58247" lon="4.33937">
        <ele>423</ele>
        <time>2016-05-15T11:50:42.000Z</time>
      </trkpt>
      <trkpt lat="44.58246" lon="4.33939">
        <ele>422</ele>
        <time>2016-05-15T11:50:43.000Z</time>
      </trkpt>
      <trkpt lat="44.58244" lon="4.3394">
        <ele>422</ele>
        <time>2016-05-15T11:50:44.000Z</time>
      </trkpt>
      <trkpt lat="44.58242" lon="4.33942">
        <ele>422</ele>
        <time>2016-05-15T11:50:45.000Z</time>
      </trkpt>
      <trkpt lat="44.58239" lon="4.33944">
        <ele>422</ele>
        <time>2016-05-15T11:50:46.000Z</time>
      </trkpt>
      <trkpt lat="44.58238" lon="4.33946">
        <ele>422</ele>
        <time>2016-05-15T11:50:47.000Z</time>
      </trkpt>
      <trkpt lat="44.58237" lon="4.33947">
        <ele>422</ele>
        <time>2016-05-15T11:50:48.000Z</time>
      </trkpt>
      <trkpt lat="44.58235" lon="4.33947">
        <ele>422</ele>
        <time>2016-05-15T11:50:49.000Z</time>
      </trkpt>
      <trkpt lat="44.58233" lon="4.33946">
        <ele>422</ele>
        <time>2016-05-15T11:50:50.000Z</time>
      </trkpt>
      <trkpt lat="44.58231" lon="4.33946">
        <ele>422</ele>
        <time>2016-05-15T11:50:51.000Z</time>
      </trkpt>
      <trkpt lat="44.58228" lon="4.33948">
        <ele>421</ele>
        <time>2016-05-15T11:50:52.000Z</time>
      </trkpt>
      <trkpt lat="44.58226" lon="4.3395">
        <ele>421</ele>
        <time>2016-05-15T11:50:53.000Z</time>
      </trkpt>
      <trkpt lat="44.58223" lon="4.33951">
        <ele>421</ele>
        <time>2016-05-15T11:50:54.000Z</time>
      </trkpt>
      <trkpt lat="44.5822" lon="4.33952">
        <ele>421</ele>
        <time>2016-05-15T11:50:55.000Z</time>
      </trkpt>
      <trkpt lat="44.58217" lon="4.33954">
        <ele>421</ele>
        <time>2016-05-15T11:50:56.000Z</time>
      </trkpt>
      <trkpt lat="44.58213" lon="4.33957">
        <ele>420</ele>
        <time>2016-05-15T11:50:57.000Z</time>
      </trkpt>
      <trkpt lat="44.5821" lon="4.3396">
        <ele>420</ele>
        <time>2016-05-15T11:50:58.000Z</time>
      </trkpt>
      <trkpt lat="44.58208" lon="4.33962">
        <ele>420</ele>
        <time>2016-05-15T11:50:59.000Z</time>
      </trkpt>
      <trkpt lat="44.58205" lon="4.33962">
        <ele>420</ele>
        <time>2016-05-15T11:51:00.000Z</time>
      </trkpt>
      <trkpt lat="44.58203" lon="4.33962">
        <ele>420</ele>
        <time>2016-05-15T11:51:01.000Z</time>
      </trkpt>
      <trkpt lat="44.58201" lon="4.33964">
        <ele>420</ele>
        <time>2016-05-15T11:51:02.000Z</time>
      </trkpt>
      <trkpt lat="44.58201" lon="4.33966">
        <ele>420</ele>
        <time>2016-05-15T11:51:03.000Z</time>
      </trkpt>
      <trkpt lat="44.582" lon="4.33968">
        <ele>419</ele>
        <time>2016-05-15T11:51:04.000Z</time>
      </trkpt>
      <trkpt lat="44.58199" lon="4.3397">
        <ele>419</ele>
        <time>2016-05-15T11:51:05.000Z</time>
      </trkpt>
      <trkpt lat="44.58197" lon="4.33972">
        <ele>419</ele>
        <time>2016-05-15T11:51:06.000Z</time>
      </trkpt>
      <trkpt lat="44.58195" lon="4.33973">
        <ele>419</ele>
        <time>2016-05-15T11:51:07.000Z</time>
      </trkpt>
      <trkpt lat="44.58194" lon="4.33975">
        <ele>419</ele>
        <time>2016-05-15T11:51:08.000Z</time>
      </trkpt>
      <trkpt lat="44.58192" lon="4.33976">
        <ele>418</ele>
        <time>2016-05-15T11:51:09.000Z</time>
      </trkpt>
      <trkpt lat="44.58189" lon="4.33977">
        <ele>418</ele>
        <time>2016-05-15T11:51:10.000Z</time>
      </trkpt>
      <trkpt lat="44.58186" lon="4.33979">
        <ele>418</ele>
        <time>2016-05-15T11:51:11.000Z</time>
      </trkpt>
      <trkpt lat="44.58183" lon="4.33981">
        <ele>417</ele>
        <time>2016-05-15T11:51:12.000Z</time>
      </trkpt>
      <trkpt lat="44.58179" lon="4.33983">
        <ele>416</ele>
        <time>2016-05-15T11:51:13.000Z</time>
      </trkpt>
      <trkpt lat="44.58177" lon="4.33986">
        <ele>416</ele>
        <time>2016-05-15T11:51:14.000Z</time>
      </trkpt>
      <trkpt lat="44.58174" lon="4.33987">
        <ele>415</ele>
        <time>2016-05-15T11:51:15.000Z</time>
      </trkpt>
      <trkpt lat="44.58172" lon="4.33986">
        <ele>415</ele>
        <time>2016-05-15T11:51:16.000Z</time>
      </trkpt>
      <trkpt lat="44.58169" lon="4.33985">
        <ele>415</ele>
        <time>2016-05-15T11:51:17.000Z</time>
      </trkpt>
      <trkpt lat="44.58166" lon="4.33986">
        <ele>411</ele>
        <time>2016-05-15T11:51:18.000Z</time>
      </trkpt>
      <trkpt lat="44.58163" lon="4.33988">
        <ele>411</ele>
        <time>2016-05-15T11:51:19.000Z</time>
      </trkpt>
      <trkpt lat="44.5816" lon="4.3399">
        <ele>411</ele>
        <time>2016-05-15T11:51:20.000Z</time>
      </trkpt>
      <trkpt lat="44.58156" lon="4.33991">
        <ele>411</ele>
        <time>2016-05-15T11:51:21.000Z</time>
      </trkpt>
      <trkpt lat="44.58153" lon="4.33991">
        <ele>411</ele>
        <time>2016-05-15T11:51:22.000Z</time>
      </trkpt>
      <trkpt lat="44.58149" lon="4.33992">
        <ele>411</ele>
        <time>2016-05-15T11:51:23.000Z</time>
      </trkpt>
      <trkpt lat="44.58145" lon="4.33993">
        <ele>410</ele>
        <time>2016-05-15T11:51:24.000Z</time>
      </trkpt>
      <trkpt lat="44.58141" lon="4.33994">
        <ele>410</ele>
        <time>2016-05-15T11:51:25.000Z</time>
      </trkpt>
      <trkpt lat="44.58137" lon="4.33995">
        <ele>410</ele>
        <time>2016-05-15T11:51:26.000Z</time>
      </trkpt>
      <trkpt lat="44.58132" lon="4.33997">
        <ele>409</ele>
        <time>2016-05-15T11:51:27.000Z</time>
      </trkpt>
      <trkpt lat="44.58128" lon="4.34">
        <ele>407</ele>
        <time>2016-05-15T11:51:28.000Z</time>
      </trkpt>
      <trkpt lat="44.58123" lon="4.34004">
        <ele>406</ele>
        <time>2016-05-15T11:51:29.000Z</time>
      </trkpt>
      <trkpt lat="44.58118" lon="4.34008">
        <ele>406</ele>
        <time>2016-05-15T11:51:30.000Z</time>
      </trkpt>
      <trkpt lat="44.58114" lon="4.34013">
        <ele>405</ele>
        <time>2016-05-15T11:51:31.000Z</time>
      </trkpt>
      <trkpt lat="44.5811" lon="4.34018">
        <ele>405</ele>
        <time>2016-05-15T11:51:32.000Z</time>
      </trkpt>
      <trkpt lat="44.58106" lon="4.34023">
        <ele>405</ele>
        <time>2016-05-15T11:51:33.000Z</time>
      </trkpt>
      <trkpt lat="44.58102" lon="4.34026">
        <ele>405</ele>
        <time>2016-05-15T11:51:34.000Z</time>
      </trkpt>
      <trkpt lat="44.58098" lon="4.34029">
        <ele>405</ele>
        <time>2016-05-15T11:51:35.000Z</time>
      </trkpt>
      <trkpt lat="44.58093" lon="4.34032">
        <ele>404</ele>
        <time>2016-05-15T11:51:36.000Z</time>
      </trkpt>
      <trkpt lat="44.58089" lon="4.34034">
        <ele>404</ele>
        <time>2016-05-15T11:51:37.000Z</time>
      </trkpt>
      <trkpt lat="44.58086" lon="4.34037">
        <ele>404</ele>
        <time>2016-05-15T11:51:38.000Z</time>
      </trkpt>
      <trkpt lat="44.58083" lon="4.34039">
        <ele>394</ele>
        <time>2016-05-15T11:51:39.000Z</time>
      </trkpt>
      <trkpt lat="44.58081" lon="4.3404">
        <ele>394</ele>
        <time>2016-05-15T11:51:40.000Z</time>
      </trkpt>
      <trkpt lat="44.58079" lon="4.3404">
        <ele>394</ele>
        <time>2016-05-15T11:51:41.000Z</time>
      </trkpt>
      <trkpt lat="44.58077" lon="4.34039">
        <ele>394</ele>
        <time>2016-05-15T11:51:42.000Z</time>
      </trkpt>
      <trkpt lat="44.58076" lon="4.34038">
        <ele>394</ele>
        <time>2016-05-15T11:51:43.000Z</time>
      </trkpt>
      <trkpt lat="44.58074" lon="4.34036">
        <ele>394</ele>
        <time>2016-05-15T11:51:44.000Z</time>
      </trkpt>
      <trkpt lat="44.58073" lon="4.34035">
        <ele>394</ele>
        <time>2016-05-15T11:51:45.000Z</time>
      </trkpt>
      <trkpt lat="44.58071" lon="4.34034">
        <ele>394</ele>
        <time>2016-05-15T11:51:46.000Z</time>
      </trkpt>
      <trkpt lat="44.58069" lon="4.34033">
        <ele>393</ele>
        <time>2016-05-15T11:51:47.000Z</time>
      </trkpt>
      <trkpt lat="44.58066" lon="4.34033">
        <ele>393</ele>
        <time>2016-05-15T11:51:48.000Z</time>
      </trkpt>
      <trkpt lat="44.58063" lon="4.34033">
        <ele>393</ele>
        <time>2016-05-15T11:51:49.000Z</time>
      </trkpt>
      <trkpt lat="44.58059" lon="4.34033">
        <ele>393</ele>
        <time>2016-05-15T11:51:50.000Z</time>
      </trkpt>
      <trkpt lat="44.58057" lon="4.34032">
        <ele>392</ele>
        <time>2016-05-15T11:51:51.000Z</time>
      </trkpt>
      <trkpt lat="44.58054" lon="4.34032">
        <ele>392</ele>
        <time>2016-05-15T11:51:52.000Z</time>
      </trkpt>
      <trkpt lat="44.58052" lon="4.34031">
        <ele>392</ele>
        <time>2016-05-15T11:51:53.000Z</time>
      </trkpt>
      <trkpt lat="44.5805" lon="4.3403">
        <ele>391</ele>
        <time>2016-05-15T11:51:54.000Z</time>
      </trkpt>
      <trkpt lat="44.58047" lon="4.3403">
        <ele>391</ele>
        <time>2016-05-15T11:51:55.000Z</time>
      </trkpt>
      <trkpt lat="44.58044" lon="4.3403">
        <ele>391</ele>
        <time>2016-05-15T11:51:56.000Z</time>
      </trkpt>
      <trkpt lat="44.58042" lon="4.34029">
        <ele>390</ele>
        <time>2016-05-15T11:51:57.000Z</time>
      </trkpt>
      <trkpt lat="44.58041" lon="4.34029">
        <ele>390</ele>
        <time>2016-05-15T11:51:58.000Z</time>
      </trkpt>
      <trkpt lat="44.5804" lon="4.34029">
        <ele>390</ele>
        <time>2016-05-15T11:51:59.000Z</time>
      </trkpt>
      <trkpt lat="44.58038" lon="4.3403">
        <ele>390</ele>
        <time>2016-05-15T11:52:00.000Z</time>
      </trkpt>
      <trkpt lat="44.58038" lon="4.34031">
        <ele>390</ele>
        <time>2016-05-15T11:52:01.000Z</time>
      </trkpt>
      <trkpt lat="44.58037" lon="4.34031">
        <ele>390</ele>
        <time>2016-05-15T11:52:02.000Z</time>
      </trkpt>
      <trkpt lat="44.58036" lon="4.34032">
        <ele>390</ele>
        <time>2016-05-15T11:52:03.000Z</time>
      </trkpt>
      <trkpt lat="44.58035" lon="4.34032">
        <ele>389</ele>
        <time>2016-05-15T11:52:04.000Z</time>
      </trkpt>
      <trkpt lat="44.58033" lon="4.34032">
        <ele>389</ele>
        <time>2016-05-15T11:52:05.000Z</time>
      </trkpt>
      <trkpt lat="44.58031" lon="4.34031">
        <ele>389</ele>
        <time>2016-05-15T11:52:06.000Z</time>
      </trkpt>
      <trkpt lat="44.58028" lon="4.3403">
        <ele>389</ele>
        <time>2016-05-15T11:52:07.000Z</time>
      </trkpt>
      <trkpt lat="44.58026" lon="4.3403">
        <ele>388</ele>
        <time>2016-05-15T11:52:08.000Z</time>
      </trkpt>
      <trkpt lat="44.58024" lon="4.3403">
        <ele>388</ele>
        <time>2016-05-15T11:52:09.000Z</time>
      </trkpt>
      <trkpt lat="44.58022" lon="4.34031">
        <ele>388</ele>
        <time>2016-05-15T11:52:10.000Z</time>
      </trkpt>
      <trkpt lat="44.5802" lon="4.34031">
        <ele>388</ele>
        <time>2016-05-15T11:52:11.000Z</time>
      </trkpt>
      <trkpt lat="44.58018" lon="4.34031">
        <ele>387</ele>
        <time>2016-05-15T11:52:12.000Z</time>
      </trkpt>
      <trkpt lat="44.58017" lon="4.34032">
        <ele>387</ele>
        <time>2016-05-15T11:52:13.000Z</time>
      </trkpt>
      <trkpt lat="44.58016" lon="4.34033">
        <ele>387</ele>
        <time>2016-05-15T11:52:14.000Z</time>
      </trkpt>
      <trkpt lat="44.58014" lon="4.34033">
        <ele>387</ele>
        <time>2016-05-15T11:52:15.000Z</time>
      </trkpt>
      <trkpt lat="44.58012" lon="4.34034">
        <ele>387</ele>
        <time>2016-05-15T11:52:16.000Z</time>
      </trkpt>
      <trkpt lat="44.5801" lon="4.34034">
        <ele>387</ele>
        <time>2016-05-15T11:52:17.000Z</time>
      </trkpt>
      <trkpt lat="44.58009" lon="4.34035">
        <ele>387</ele>
        <time>2016-05-15T11:52:18.000Z</time>
      </trkpt>
      <trkpt lat="44.58007" lon="4.34036">
        <ele>387</ele>
        <time>2016-05-15T11:52:19.000Z</time>
      </trkpt>
      <trkpt lat="44.58006" lon="4.34036">
        <ele>387</ele>
        <time>2016-05-15T11:52:20.000Z</time>
      </trkpt>
      <trkpt lat="44.58005" lon="4.34036">
        <ele>387</ele>
        <time>2016-05-15T11:52:21.000Z</time>
      </trkpt>
      <trkpt lat="44.58004" lon="4.34035">
        <ele>386</ele>
        <time>2016-05-15T11:52:22.000Z</time>
      </trkpt>
      <trkpt lat="44.58001" lon="4.34032">
        <ele>386</ele>
        <time>2016-05-15T11:52:23.000Z</time>
      </trkpt>
      <trkpt lat="44.57999" lon="4.3403">
        <ele>378</ele>
        <time>2016-05-15T11:52:24.000Z</time>
      </trkpt>
      <trkpt lat="44.57997" lon="4.34027">
        <ele>377</ele>
        <time>2016-05-15T11:52:25.000Z</time>
      </trkpt>
      <trkpt lat="44.57995" lon="4.34024">
        <ele>377</ele>
        <time>2016-05-15T11:52:26.000Z</time>
      </trkpt>
      <trkpt lat="44.57993" lon="4.34023">
        <ele>377</ele>
        <time>2016-05-15T11:52:27.000Z</time>
      </trkpt>
      <trkpt lat="44.57991" lon="4.34021">
        <ele>377</ele>
        <time>2016-05-15T11:52:28.000Z</time>
      </trkpt>
      <trkpt lat="44.5799" lon="4.3402">
        <ele>377</ele>
        <time>2016-05-15T11:52:29.000Z</time>
      </trkpt>
      <trkpt lat="44.57988" lon="4.3402">
        <ele>377</ele>
        <time>2016-05-15T11:52:30.000Z</time>
      </trkpt>
      <trkpt lat="44.57986" lon="4.34019">
        <ele>377</ele>
        <time>2016-05-15T11:52:31.000Z</time>
      </trkpt>
      <trkpt lat="44.57983" lon="4.34017">
        <ele>377</ele>
        <time>2016-05-15T11:52:32.000Z</time>
      </trkpt>
      <trkpt lat="44.57979" lon="4.34015">
        <ele>377</ele>
        <time>2016-05-15T11:52:33.000Z</time>
      </trkpt>
      <trkpt lat="44.57976" lon="4.34012">
        <ele>377</ele>
        <time>2016-05-15T11:52:34.000Z</time>
      </trkpt>
      <trkpt lat="44.57973" lon="4.34009">
        <ele>376</ele>
        <time>2016-05-15T11:52:35.000Z</time>
      </trkpt>
      <trkpt lat="44.57969" lon="4.34008">
        <ele>376</ele>
        <time>2016-05-15T11:52:36.000Z</time>
      </trkpt>
      <trkpt lat="44.57966" lon="4.34007">
        <ele>376</ele>
        <time>2016-05-15T11:52:37.000Z</time>
      </trkpt>
      <trkpt lat="44.57962" lon="4.34004">
        <ele>376</ele>
        <time>2016-05-15T11:52:38.000Z</time>
      </trkpt>
      <trkpt lat="44.57959" lon="4.34003">
        <ele>376</ele>
        <time>2016-05-15T11:52:39.000Z</time>
      </trkpt>
      <trkpt lat="44.57957" lon="4.34005">
        <ele>376</ele>
        <time>2016-05-15T11:52:40.000Z</time>
      </trkpt>
      <trkpt lat="44.57954" lon="4.34007">
        <ele>376</ele>
        <time>2016-05-15T11:52:41.000Z</time>
      </trkpt>
      <trkpt lat="44.57951" lon="4.3401">
        <ele>376</ele>
        <time>2016-05-15T11:52:42.000Z</time>
      </trkpt>
      <trkpt lat="44.57948" lon="4.34012">
        <ele>376</ele>
        <time>2016-05-15T11:52:43.000Z</time>
      </trkpt>
      <trkpt lat="44.57944" lon="4.34014">
        <ele>375</ele>
        <time>2016-05-15T11:52:44.000Z</time>
      </trkpt>
      <trkpt lat="44.57941" lon="4.34017">
        <ele>375</ele>
        <time>2016-05-15T11:52:45.000Z</time>
      </trkpt>
      <trkpt lat="44.57938" lon="4.34019">
        <ele>375</ele>
        <time>2016-05-15T11:52:46.000Z</time>
      </trkpt>
      <trkpt lat="44.57935" lon="4.34021">
        <ele>375</ele>
        <time>2016-05-15T11:52:47.000Z</time>
      </trkpt>
      <trkpt lat="44.57931" lon="4.34023">
        <ele>375</ele>
        <time>2016-05-15T11:52:48.000Z</time>
      </trkpt>
      <trkpt lat="44.57928" lon="4.34026">
        <ele>375</ele>
        <time>2016-05-15T11:52:49.000Z</time>
      </trkpt>
      <trkpt lat="44.57925" lon="4.34028">
        <ele>375</ele>
        <time>2016-05-15T11:52:50.000Z</time>
      </trkpt>
      <trkpt lat="44.57922" lon="4.3403">
        <ele>375</ele>
        <time>2016-05-15T11:52:51.000Z</time>
      </trkpt>
      <trkpt lat="44.57919" lon="4.34033">
        <ele>375</ele>
        <time>2016-05-15T11:52:52.000Z</time>
      </trkpt>
      <trkpt lat="44.57916" lon="4.34036">
        <ele>373</ele>
        <time>2016-05-15T11:52:53.000Z</time>
      </trkpt>
      <trkpt lat="44.57912" lon="4.34038">
        <ele>373</ele>
        <time>2016-05-15T11:52:54.000Z</time>
      </trkpt>
      <trkpt lat="44.5791" lon="4.34041">
        <ele>373</ele>
        <time>2016-05-15T11:52:55.000Z</time>
      </trkpt>
      <trkpt lat="44.57908" lon="4.34043">
        <ele>372</ele>
        <time>2016-05-15T11:52:56.000Z</time>
      </trkpt>
      <trkpt lat="44.57906" lon="4.34045">
        <ele>372</ele>
        <time>2016-05-15T11:52:57.000Z</time>
      </trkpt>
      <trkpt lat="44.57904" lon="4.34048">
        <ele>372</ele>
        <time>2016-05-15T11:52:58.000Z</time>
      </trkpt>
      <trkpt lat="44.57901" lon="4.34051">
        <ele>372</ele>
        <time>2016-05-15T11:52:59.000Z</time>
      </trkpt>
      <trkpt lat="44.57899" lon="4.34055">
        <ele>372</ele>
        <time>2016-05-15T11:53:00.000Z</time>
      </trkpt>
      <trkpt lat="44.57896" lon="4.34058">
        <ele>372</ele>
        <time>2016-05-15T11:53:01.000Z</time>
      </trkpt>
      <trkpt lat="44.57894" lon="4.34061">
        <ele>372</ele>
        <time>2016-05-15T11:53:02.000Z</time>
      </trkpt>
      <trkpt lat="44.57891" lon="4.34065">
        <ele>372</ele>
        <time>2016-05-15T11:53:03.000Z</time>
      </trkpt>
      <trkpt lat="44.57889" lon="4.34068">
        <ele>372</ele>
        <time>2016-05-15T11:53:04.000Z</time>
      </trkpt>
      <trkpt lat="44.57886" lon="4.3407">
        <ele>372</ele>
        <time>2016-05-15T11:53:05.000Z</time>
      </trkpt>
      <trkpt lat="44.57884" lon="4.34073">
        <ele>371</ele>
        <time>2016-05-15T11:53:06.000Z</time>
      </trkpt>
      <trkpt lat="44.57882" lon="4.34077">
        <ele>371</ele>
        <time>2016-05-15T11:53:07.000Z</time>
      </trkpt>
      <trkpt lat="44.5788" lon="4.3408">
        <ele>371</ele>
        <time>2016-05-15T11:53:08.000Z</time>
      </trkpt>
      <trkpt lat="44.57877" lon="4.34084">
        <ele>370</ele>
        <time>2016-05-15T11:53:09.000Z</time>
      </trkpt>
      <trkpt lat="44.57874" lon="4.34088">
        <ele>369</ele>
        <time>2016-05-15T11:53:10.000Z</time>
      </trkpt>
      <trkpt lat="44.5787" lon="4.34093">
        <ele>369</ele>
        <time>2016-05-15T11:53:11.000Z</time>
      </trkpt>
      <trkpt lat="44.57866" lon="4.34098">
        <ele>369</ele>
        <time>2016-05-15T11:53:12.000Z</time>
      </trkpt>
      <trkpt lat="44.57863" lon="4.34102">
        <ele>369</ele>
        <time>2016-05-15T11:53:13.000Z</time>
      </trkpt>
      <trkpt lat="44.57859" lon="4.34107">
        <ele>368</ele>
        <time>2016-05-15T11:53:14.000Z</time>
      </trkpt>
      <trkpt lat="44.57854" lon="4.34113">
        <ele>368</ele>
        <time>2016-05-15T11:53:15.000Z</time>
      </trkpt>
      <trkpt lat="44.5785" lon="4.34119">
        <ele>368</ele>
        <time>2016-05-15T11:53:16.000Z</time>
      </trkpt>
      <trkpt lat="44.57846" lon="4.34126">
        <ele>368</ele>
        <time>2016-05-15T11:53:17.000Z</time>
      </trkpt>
      <trkpt lat="44.57843" lon="4.34134">
        <ele>368</ele>
        <time>2016-05-15T11:53:18.000Z</time>
      </trkpt>
      <trkpt lat="44.5784" lon="4.34142">
        <ele>367</ele>
        <time>2016-05-15T11:53:19.000Z</time>
      </trkpt>
      <trkpt lat="44.57836" lon="4.3415">
        <ele>366</ele>
        <time>2016-05-15T11:53:20.000Z</time>
      </trkpt>
      <trkpt lat="44.57831" lon="4.34158">
        <ele>362</ele>
        <time>2016-05-15T11:53:21.000Z</time>
      </trkpt>
      <trkpt lat="44.57826" lon="4.34166">
        <ele>362</ele>
        <time>2016-05-15T11:53:22.000Z</time>
      </trkpt>
      <trkpt lat="44.57821" lon="4.34173">
        <ele>360</ele>
        <time>2016-05-15T11:53:23.000Z</time>
      </trkpt>
      <trkpt lat="44.57817" lon="4.34179">
        <ele>360</ele>
        <time>2016-05-15T11:53:24.000Z</time>
      </trkpt>
      <trkpt lat="44.57812" lon="4.34184">
        <ele>360</ele>
        <time>2016-05-15T11:53:25.000Z</time>
      </trkpt>
      <trkpt lat="44.57807" lon="4.34189">
        <ele>359</ele>
        <time>2016-05-15T11:53:26.000Z</time>
      </trkpt>
      <trkpt lat="44.57803" lon="4.34193">
        <ele>359</ele>
        <time>2016-05-15T11:53:27.000Z</time>
      </trkpt>
      <trkpt lat="44.57798" lon="4.34196">
        <ele>359</ele>
        <time>2016-05-15T11:53:28.000Z</time>
      </trkpt>
      <trkpt lat="44.57793" lon="4.34199">
        <ele>358</ele>
        <time>2016-05-15T11:53:29.000Z</time>
      </trkpt>
      <trkpt lat="44.57788" lon="4.34201">
        <ele>358</ele>
        <time>2016-05-15T11:53:30.000Z</time>
      </trkpt>
      <trkpt lat="44.57782" lon="4.34202">
        <ele>357</ele>
        <time>2016-05-15T11:53:31.000Z</time>
      </trkpt>
      <trkpt lat="44.57776" lon="4.34203">
        <ele>357</ele>
        <time>2016-05-15T11:53:32.000Z</time>
      </trkpt>
      <trkpt lat="44.57771" lon="4.34206">
        <ele>357</ele>
        <time>2016-05-15T11:53:33.000Z</time>
      </trkpt>
      <trkpt lat="44.57767" lon="4.3421">
        <ele>356</ele>
        <time>2016-05-15T11:53:34.000Z</time>
      </trkpt>
      <trkpt lat="44.57763" lon="4.34215">
        <ele>356</ele>
        <time>2016-05-15T11:53:35.000Z</time>
      </trkpt>
      <trkpt lat="44.57759" lon="4.34222">
        <ele>356</ele>
        <time>2016-05-15T11:53:36.000Z</time>
      </trkpt>
      <trkpt lat="44.57755" lon="4.3423">
        <ele>355</ele>
        <time>2016-05-15T11:53:37.000Z</time>
      </trkpt>
      <trkpt lat="44.5775" lon="4.34239">
        <ele>354</ele>
        <time>2016-05-15T11:53:38.000Z</time>
      </trkpt>
      <trkpt lat="44.57746" lon="4.34248">
        <ele>352</ele>
        <time>2016-05-15T11:53:39.000Z</time>
      </trkpt>
      <trkpt lat="44.57742" lon="4.34257">
        <ele>352</ele>
        <time>2016-05-15T11:53:40.000Z</time>
      </trkpt>
      <trkpt lat="44.57739" lon="4.34265">
        <ele>352</ele>
        <time>2016-05-15T11:53:41.000Z</time>
      </trkpt>
      <trkpt lat="44.57735" lon="4.34274">
        <ele>353</ele>
        <time>2016-05-15T11:53:42.000Z</time>
      </trkpt>
      <trkpt lat="44.57732" lon="4.34283">
        <ele>353</ele>
        <time>2016-05-15T11:53:43.000Z</time>
      </trkpt>
      <trkpt lat="44.57729" lon="4.34292">
        <ele>354</ele>
        <time>2016-05-15T11:53:44.000Z</time>
      </trkpt>
      <trkpt lat="44.57726" lon="4.343">
        <ele>354</ele>
        <time>2016-05-15T11:53:45.000Z</time>
      </trkpt>
      <trkpt lat="44.57722" lon="4.34307">
        <ele>354</ele>
        <time>2016-05-15T11:53:46.000Z</time>
      </trkpt>
      <trkpt lat="44.57718" lon="4.34314">
        <ele>354</ele>
        <time>2016-05-15T11:53:47.000Z</time>
      </trkpt>
      <trkpt lat="44.57714" lon="4.34322">
        <ele>354</ele>
        <time>2016-05-15T11:53:48.000Z</time>
      </trkpt>
      <trkpt lat="44.57709" lon="4.34329">
        <ele>353</ele>
        <time>2016-05-15T11:53:49.000Z</time>
      </trkpt>
      <trkpt lat="44.57704" lon="4.34337">
        <ele>354</ele>
        <time>2016-05-15T11:53:50.000Z</time>
      </trkpt>
      <trkpt lat="44.57699" lon="4.34346">
        <ele>353</ele>
        <time>2016-05-15T11:53:51.000Z</time>
      </trkpt>
      <trkpt lat="44.57695" lon="4.34354">
        <ele>353</ele>
        <time>2016-05-15T11:53:52.000Z</time>
      </trkpt>
      <trkpt lat="44.57691" lon="4.34362">
        <ele>353</ele>
        <time>2016-05-15T11:53:53.000Z</time>
      </trkpt>
      <trkpt lat="44.57686" lon="4.34369">
        <ele>352</ele>
        <time>2016-05-15T11:53:54.000Z</time>
      </trkpt>
      <trkpt lat="44.57681" lon="4.34376">
        <ele>352</ele>
        <time>2016-05-15T11:53:55.000Z</time>
      </trkpt>
      <trkpt lat="44.57676" lon="4.34384">
        <ele>351</ele>
        <time>2016-05-15T11:53:56.000Z</time>
      </trkpt>
      <trkpt lat="44.57671" lon="4.34392">
        <ele>350</ele>
        <time>2016-05-15T11:53:57.000Z</time>
      </trkpt>
      <trkpt lat="44.57667" lon="4.34401">
        <ele>349</ele>
        <time>2016-05-15T11:53:58.000Z</time>
      </trkpt>
      <trkpt lat="44.57663" lon="4.34411">
        <ele>345</ele>
        <time>2016-05-15T11:53:59.000Z</time>
      </trkpt>
      <trkpt lat="44.57659" lon="4.3442">
        <ele>343</ele>
        <time>2016-05-15T11:54:00.000Z</time>
      </trkpt>
      <trkpt lat="44.57655" lon="4.3443">
        <ele>343</ele>
        <time>2016-05-15T11:54:01.000Z</time>
      </trkpt>
      <trkpt lat="44.57653" lon="4.3444">
        <ele>342</ele>
        <time>2016-05-15T11:54:02.000Z</time>
      </trkpt>
      <trkpt lat="44.57651" lon="4.3445">
        <ele>342</ele>
        <time>2016-05-15T11:54:03.000Z</time>
      </trkpt>
      <trkpt lat="44.57649" lon="4.3446">
        <ele>341</ele>
        <time>2016-05-15T11:54:04.000Z</time>
      </trkpt>
      <trkpt lat="44.57647" lon="4.3447">
        <ele>341</ele>
        <time>2016-05-15T11:54:05.000Z</time>
      </trkpt>
      <trkpt lat="44.57645" lon="4.3448">
        <ele>341</ele>
        <time>2016-05-15T11:54:06.000Z</time>
      </trkpt>
      <trkpt lat="44.57642" lon="4.34488">
        <ele>341</ele>
        <time>2016-05-15T11:54:07.000Z</time>
      </trkpt>
      <trkpt lat="44.5764" lon="4.34494">
        <ele>341</ele>
        <time>2016-05-15T11:54:08.000Z</time>
      </trkpt>
      <trkpt lat="44.57637" lon="4.34498">
        <ele>341</ele>
        <time>2016-05-15T11:54:09.000Z</time>
      </trkpt>
      <trkpt lat="44.57636" lon="4.34499">
        <ele>341</ele>
        <time>2016-05-15T11:54:10.000Z</time>
      </trkpt>
      <trkpt lat="44.57634" lon="4.34501">
        <ele>338</ele>
        <time>2016-05-15T11:54:11.000Z</time>
      </trkpt>
      <trkpt lat="44.57631" lon="4.34503">
        <ele>338</ele>
        <time>2016-05-15T11:54:12.000Z</time>
      </trkpt>
      <trkpt lat="44.57629" lon="4.34504">
        <ele>338</ele>
        <time>2016-05-15T11:54:13.000Z</time>
      </trkpt>
      <trkpt lat="44.57627" lon="4.34504">
        <ele>338</ele>
        <time>2016-05-15T11:54:14.000Z</time>
      </trkpt>
      <trkpt lat="44.57626" lon="4.34502">
        <ele>338</ele>
        <time>2016-05-15T11:54:15.000Z</time>
      </trkpt>
      <trkpt lat="44.57624" lon="4.34499">
        <ele>340</ele>
        <time>2016-05-15T11:54:16.000Z</time>
      </trkpt>
      <trkpt lat="44.57623" lon="4.34495">
        <ele>340</ele>
        <time>2016-05-15T11:54:17.000Z</time>
      </trkpt>
      <trkpt lat="44.5762" lon="4.34492">
        <ele>340</ele>
        <time>2016-05-15T11:54:18.000Z</time>
      </trkpt>
      <trkpt lat="44.57617" lon="4.3449">
        <ele>340</ele>
        <time>2016-05-15T11:54:19.000Z</time>
      </trkpt>
      <trkpt lat="44.57615" lon="4.34487">
        <ele>340</ele>
        <time>2016-05-15T11:54:20.000Z</time>
      </trkpt>
      <trkpt lat="44.57612" lon="4.34485">
        <ele>340</ele>
        <time>2016-05-15T11:54:21.000Z</time>
      </trkpt>
      <trkpt lat="44.57609" lon="4.34482">
        <ele>339</ele>
        <time>2016-05-15T11:54:22.000Z</time>
      </trkpt>
      <trkpt lat="44.57607" lon="4.3448">
        <ele>339</ele>
        <time>2016-05-15T11:54:23.000Z</time>
      </trkpt>
      <trkpt lat="44.57604" lon="4.34478">
        <ele>339</ele>
        <time>2016-05-15T11:54:24.000Z</time>
      </trkpt>
      <trkpt lat="44.57601" lon="4.34476">
        <ele>339</ele>
        <time>2016-05-15T11:54:25.000Z</time>
      </trkpt>
      <trkpt lat="44.57599" lon="4.34473">
        <ele>339</ele>
        <time>2016-05-15T11:54:26.000Z</time>
      </trkpt>
      <trkpt lat="44.57596" lon="4.34471">
        <ele>340</ele>
        <time>2016-05-15T11:54:27.000Z</time>
      </trkpt>
      <trkpt lat="44.57594" lon="4.3447">
        <ele>340</ele>
        <time>2016-05-15T11:54:28.000Z</time>
      </trkpt>
      <trkpt lat="44.57591" lon="4.34469">
        <ele>340</ele>
        <time>2016-05-15T11:54:29.000Z</time>
      </trkpt>
      <trkpt lat="44.57589" lon="4.34469">
        <ele>340</ele>
        <time>2016-05-15T11:54:30.000Z</time>
      </trkpt>
      <trkpt lat="44.57586" lon="4.34468">
        <ele>340</ele>
        <time>2016-05-15T11:54:31.000Z</time>
      </trkpt>
      <trkpt lat="44.57584" lon="4.34466">
        <ele>340</ele>
        <time>2016-05-15T11:54:32.000Z</time>
      </trkpt>
      <trkpt lat="44.57581" lon="4.34464">
        <ele>340</ele>
        <time>2016-05-15T11:54:33.000Z</time>
      </trkpt>
      <trkpt lat="44.57579" lon="4.34462">
        <ele>340</ele>
        <time>2016-05-15T11:54:34.000Z</time>
      </trkpt>
      <trkpt lat="44.57576" lon="4.34461">
        <ele>341</ele>
        <time>2016-05-15T11:54:35.000Z</time>
      </trkpt>
      <trkpt lat="44.57573" lon="4.34459">
        <ele>341</ele>
        <time>2016-05-15T11:54:36.000Z</time>
      </trkpt>
      <trkpt lat="44.57571" lon="4.34458">
        <ele>341</ele>
        <time>2016-05-15T11:54:37.000Z</time>
      </trkpt>
      <trkpt lat="44.57569" lon="4.34457">
        <ele>341</ele>
        <time>2016-05-15T11:54:38.000Z</time>
      </trkpt>
      <trkpt lat="44.57567" lon="4.34456">
        <ele>341</ele>
        <time>2016-05-15T11:54:39.000Z</time>
      </trkpt>
      <trkpt lat="44.57565" lon="4.34455">
        <ele>341</ele>
        <time>2016-05-15T11:54:40.000Z</time>
      </trkpt>
      <trkpt lat="44.57564" lon="4.34455">
        <ele>341</ele>
        <time>2016-05-15T11:54:41.000Z</time>
      </trkpt>
      <trkpt lat="44.57562" lon="4.34454">
        <ele>341</ele>
        <time>2016-05-15T11:54:42.000Z</time>
      </trkpt>
      <trkpt lat="44.5756" lon="4.34453">
        <ele>342</ele>
        <time>2016-05-15T11:54:43.000Z</time>
      </trkpt>
      <trkpt lat="44.57559" lon="4.34451">
        <ele>342</ele>
        <time>2016-05-15T11:54:44.000Z</time>
      </trkpt>
      <trkpt lat="44.57557" lon="4.34449">
        <ele>342</ele>
        <time>2016-05-15T11:54:45.000Z</time>
      </trkpt>
      <trkpt lat="44.57555" lon="4.34448">
        <ele>342</ele>
        <time>2016-05-15T11:54:46.000Z</time>
      </trkpt>
      <trkpt lat="44.57553" lon="4.34446">
        <ele>342</ele>
        <time>2016-05-15T11:54:47.000Z</time>
      </trkpt>
      <trkpt lat="44.57551" lon="4.34445">
        <ele>342</ele>
        <time>2016-05-15T11:54:48.000Z</time>
      </trkpt>
      <trkpt lat="44.5755" lon="4.34443">
        <ele>342</ele>
        <time>2016-05-15T11:54:49.000Z</time>
      </trkpt>
      <trkpt lat="44.57548" lon="4.34441">
        <ele>343</ele>
        <time>2016-05-15T11:54:50.000Z</time>
      </trkpt>
      <trkpt lat="44.57545" lon="4.3444">
        <ele>343</ele>
        <time>2016-05-15T11:54:51.000Z</time>
      </trkpt>
      <trkpt lat="44.57543" lon="4.34438">
        <ele>343</ele>
        <time>2016-05-15T11:54:52.000Z</time>
      </trkpt>
      <trkpt lat="44.5754" lon="4.34438">
        <ele>343</ele>
        <time>2016-05-15T11:54:53.000Z</time>
      </trkpt>
      <trkpt lat="44.57538" lon="4.34438">
        <ele>343</ele>
        <time>2016-05-15T11:54:54.000Z</time>
      </trkpt>
      <trkpt lat="44.57536" lon="4.34438">
        <ele>343</ele>
        <time>2016-05-15T11:54:55.000Z</time>
      </trkpt>
      <trkpt lat="44.57533" lon="4.34438">
        <ele>343</ele>
        <time>2016-05-15T11:54:56.000Z</time>
      </trkpt>
      <trkpt lat="44.57531" lon="4.34439">
        <ele>344</ele>
        <time>2016-05-15T11:54:57.000Z</time>
      </trkpt>
      <trkpt lat="44.57528" lon="4.3444">
        <ele>344</ele>
        <time>2016-05-15T11:54:58.000Z</time>
      </trkpt>
      <trkpt lat="44.57526" lon="4.3444">
        <ele>344</ele>
        <time>2016-05-15T11:54:59.000Z</time>
      </trkpt>
      <trkpt lat="44.57524" lon="4.34441">
        <ele>344</ele>
        <time>2016-05-15T11:55:00.000Z</time>
      </trkpt>
      <trkpt lat="44.57522" lon="4.34443">
        <ele>344</ele>
        <time>2016-05-15T11:55:01.000Z</time>
      </trkpt>
      <trkpt lat="44.5752" lon="4.34444">
        <ele>344</ele>
        <time>2016-05-15T11:55:02.000Z</time>
      </trkpt>
      <trkpt lat="44.57518" lon="4.34445">
        <ele>344</ele>
        <time>2016-05-15T11:55:03.000Z</time>
      </trkpt>
      <trkpt lat="44.57517" lon="4.34446">
        <ele>344</ele>
        <time>2016-05-15T11:55:04.000Z</time>
      </trkpt>
      <trkpt lat="44.57515" lon="4.34446">
        <ele>344</ele>
        <time>2016-05-15T11:55:05.000Z</time>
      </trkpt>
      <trkpt lat="44.57512" lon="4.34446">
        <ele>344</ele>
        <time>2016-05-15T11:55:06.000Z</time>
      </trkpt>
      <trkpt lat="44.5751" lon="4.34446">
        <ele>344</ele>
        <time>2016-05-15T11:55:07.000Z</time>
      </trkpt>
      <trkpt lat="44.57507" lon="4.34446">
        <ele>344</ele>
        <time>2016-05-15T11:55:08.000Z</time>
      </trkpt>
      <trkpt lat="44.57504" lon="4.34446">
        <ele>344</ele>
        <time>2016-05-15T11:55:09.000Z</time>
      </trkpt>
      <trkpt lat="44.57501" lon="4.34446">
        <ele>344</ele>
        <time>2016-05-15T11:55:10.000Z</time>
      </trkpt>
      <trkpt lat="44.57498" lon="4.34445">
        <ele>346</ele>
        <time>2016-05-15T11:55:11.000Z</time>
      </trkpt>
      <trkpt lat="44.57496" lon="4.34445">
        <ele>346</ele>
        <time>2016-05-15T11:55:12.000Z</time>
      </trkpt>
      <trkpt lat="44.57493" lon="4.34444">
        <ele>346</ele>
        <time>2016-05-15T11:55:13.000Z</time>
      </trkpt>
      <trkpt lat="44.57491" lon="4.34444">
        <ele>346</ele>
        <time>2016-05-15T11:55:14.000Z</time>
      </trkpt>
      <trkpt lat="44.57488" lon="4.34443">
        <ele>346</ele>
        <time>2016-05-15T11:55:15.000Z</time>
      </trkpt>
      <trkpt lat="44.57486" lon="4.34442">
        <ele>346</ele>
        <time>2016-05-15T11:55:16.000Z</time>
      </trkpt>
      <trkpt lat="44.57483" lon="4.34442">
        <ele>346</ele>
        <time>2016-05-15T11:55:17.000Z</time>
      </trkpt>
      <trkpt lat="44.5748" lon="4.34441">
        <ele>346</ele>
        <time>2016-05-15T11:55:18.000Z</time>
      </trkpt>
      <trkpt lat="44.57478" lon="4.34441">
        <ele>346</ele>
        <time>2016-05-15T11:55:19.000Z</time>
      </trkpt>
      <trkpt lat="44.57475" lon="4.3444">
        <ele>346</ele>
        <time>2016-05-15T11:55:20.000Z</time>
      </trkpt>
      <trkpt lat="44.57472" lon="4.3444">
        <ele>346</ele>
        <time>2016-05-15T11:55:21.000Z</time>
      </trkpt>
      <trkpt lat="44.57469" lon="4.3444">
        <ele>346</ele>
        <time>2016-05-15T11:55:22.000Z</time>
      </trkpt>
      <trkpt lat="44.57467" lon="4.34439">
        <ele>346</ele>
        <time>2016-05-15T11:55:23.000Z</time>
      </trkpt>
      <trkpt lat="44.57464" lon="4.34438">
        <ele>346</ele>
        <time>2016-05-15T11:55:24.000Z</time>
      </trkpt>
      <trkpt lat="44.57462" lon="4.34437">
        <ele>346</ele>
        <time>2016-05-15T11:55:25.000Z</time>
      </trkpt>
      <trkpt lat="44.5746" lon="4.34437">
        <ele>346</ele>
        <time>2016-05-15T11:55:26.000Z</time>
      </trkpt>
      <trkpt lat="44.57457" lon="4.34436">
        <ele>346</ele>
        <time>2016-05-15T11:55:27.000Z</time>
      </trkpt>
      <trkpt lat="44.57455" lon="4.34435">
        <ele>346</ele>
        <time>2016-05-15T11:55:28.000Z</time>
      </trkpt>
      <trkpt lat="44.57452" lon="4.34435">
        <ele>346</ele>
        <time>2016-05-15T11:55:29.000Z</time>
      </trkpt>
      <trkpt lat="44.57449" lon="4.34434">
        <ele>346</ele>
        <time>2016-05-15T11:55:30.000Z</time>
      </trkpt>
      <trkpt lat="44.57446" lon="4.34434">
        <ele>346</ele>
        <time>2016-05-15T11:55:31.000Z</time>
      </trkpt>
      <trkpt lat="44.57443" lon="4.34433">
        <ele>347</ele>
        <time>2016-05-15T11:55:32.000Z</time>
      </trkpt>
      <trkpt lat="44.5744" lon="4.34432">
        <ele>347</ele>
        <time>2016-05-15T11:55:33.000Z</time>
      </trkpt>
      <trkpt lat="44.57438" lon="4.34432">
        <ele>347</ele>
        <time>2016-05-15T11:55:34.000Z</time>
      </trkpt>
      <trkpt lat="44.57435" lon="4.34431">
        <ele>347</ele>
        <time>2016-05-15T11:55:35.000Z</time>
      </trkpt>
      <trkpt lat="44.57433" lon="4.34431">
        <ele>348</ele>
        <time>2016-05-15T11:55:36.000Z</time>
      </trkpt>
      <trkpt lat="44.5743" lon="4.3443">
        <ele>348</ele>
        <time>2016-05-15T11:55:37.000Z</time>
      </trkpt>
      <trkpt lat="44.57427" lon="4.3443">
        <ele>348</ele>
        <time>2016-05-15T11:55:38.000Z</time>
      </trkpt>
      <trkpt lat="44.57425" lon="4.34429">
        <ele>348</ele>
        <time>2016-05-15T11:55:39.000Z</time>
      </trkpt>
      <trkpt lat="44.57422" lon="4.34429">
        <ele>349</ele>
        <time>2016-05-15T11:55:40.000Z</time>
      </trkpt>
      <trkpt lat="44.57419" lon="4.34429">
        <ele>349</ele>
        <time>2016-05-15T11:55:41.000Z</time>
      </trkpt>
      <trkpt lat="44.57417" lon="4.34428">
        <ele>349</ele>
        <time>2016-05-15T11:55:42.000Z</time>
      </trkpt>
      <trkpt lat="44.57414" lon="4.34428">
        <ele>349</ele>
        <time>2016-05-15T11:55:43.000Z</time>
      </trkpt>
      <trkpt lat="44.57412" lon="4.34428">
        <ele>349</ele>
        <time>2016-05-15T11:55:44.000Z</time>
      </trkpt>
      <trkpt lat="44.57409" lon="4.34428">
        <ele>349</ele>
        <time>2016-05-15T11:55:45.000Z</time>
      </trkpt>
      <trkpt lat="44.57406" lon="4.34427">
        <ele>349</ele>
        <time>2016-05-15T11:55:46.000Z</time>
      </trkpt>
      <trkpt lat="44.57403" lon="4.34427">
        <ele>348</ele>
        <time>2016-05-15T11:55:47.000Z</time>
      </trkpt>
      <trkpt lat="44.57399" lon="4.34428">
        <ele>348</ele>
        <time>2016-05-15T11:55:48.000Z</time>
      </trkpt>
      <trkpt lat="44.57396" lon="4.34429">
        <ele>348</ele>
        <time>2016-05-15T11:55:49.000Z</time>
      </trkpt>
      <trkpt lat="44.57393" lon="4.3443">
        <ele>347</ele>
        <time>2016-05-15T11:55:50.000Z</time>
      </trkpt>
      <trkpt lat="44.5739" lon="4.34431">
        <ele>347</ele>
        <time>2016-05-15T11:55:51.000Z</time>
      </trkpt>
      <trkpt lat="44.57387" lon="4.34432">
        <ele>347</ele>
        <time>2016-05-15T11:55:52.000Z</time>
      </trkpt>
      <trkpt lat="44.57385" lon="4.34432">
        <ele>347</ele>
        <time>2016-05-15T11:55:53.000Z</time>
      </trkpt>
      <trkpt lat="44.57382" lon="4.34432">
        <ele>347</ele>
        <time>2016-05-15T11:55:54.000Z</time>
      </trkpt>
      <trkpt lat="44.57379" lon="4.34431">
        <ele>347</ele>
        <time>2016-05-15T11:55:55.000Z</time>
      </trkpt>
      <trkpt lat="44.57376" lon="4.34431">
        <ele>347</ele>
        <time>2016-05-15T11:55:56.000Z</time>
      </trkpt>
      <trkpt lat="44.57374" lon="4.3443">
        <ele>347</ele>
        <time>2016-05-15T11:55:57.000Z</time>
      </trkpt>
      <trkpt lat="44.57371" lon="4.34429">
        <ele>347</ele>
        <time>2016-05-15T11:55:58.000Z</time>
      </trkpt>
      <trkpt lat="44.57368" lon="4.34429">
        <ele>347</ele>
        <time>2016-05-15T11:55:59.000Z</time>
      </trkpt>
      <trkpt lat="44.57365" lon="4.34429">
        <ele>347</ele>
        <time>2016-05-15T11:56:00.000Z</time>
      </trkpt>
      <trkpt lat="44.57362" lon="4.34428">
        <ele>347</ele>
        <time>2016-05-15T11:56:01.000Z</time>
      </trkpt>
      <trkpt lat="44.57359" lon="4.34428">
        <ele>347</ele>
        <time>2016-05-15T11:56:02.000Z</time>
      </trkpt>
      <trkpt lat="44.57356" lon="4.34428">
        <ele>347</ele>
        <time>2016-05-15T11:56:03.000Z</time>
      </trkpt>
      <trkpt lat="44.57352" lon="4.34429">
        <ele>348</ele>
        <time>2016-05-15T11:56:04.000Z</time>
      </trkpt>
      <trkpt lat="44.57348" lon="4.34429">
        <ele>348</ele>
        <time>2016-05-15T11:56:05.000Z</time>
      </trkpt>
      <trkpt lat="44.57345" lon="4.3443">
        <ele>348</ele>
        <time>2016-05-15T11:56:06.000Z</time>
      </trkpt>
      <trkpt lat="44.57341" lon="4.34431">
        <ele>348</ele>
        <time>2016-05-15T11:56:07.000Z</time>
      </trkpt>
      <trkpt lat="44.57338" lon="4.34432">
        <ele>348</ele>
        <time>2016-05-15T11:56:08.000Z</time>
      </trkpt>
      <trkpt lat="44.57334" lon="4.34433">
        <ele>348</ele>
        <time>2016-05-15T11:56:09.000Z</time>
      </trkpt>
      <trkpt lat="44.57331" lon="4.34434">
        <ele>348</ele>
        <time>2016-05-15T11:56:10.000Z</time>
      </trkpt>
      <trkpt lat="44.57329" lon="4.34435">
        <ele>348</ele>
        <time>2016-05-15T11:56:11.000Z</time>
      </trkpt>
      <trkpt lat="44.57326" lon="4.34437">
        <ele>348</ele>
        <time>2016-05-15T11:56:12.000Z</time>
      </trkpt>
      <trkpt lat="44.57323" lon="4.34438">
        <ele>348</ele>
        <time>2016-05-15T11:56:13.000Z</time>
      </trkpt>
      <trkpt lat="44.57321" lon="4.34439">
        <ele>348</ele>
        <time>2016-05-15T11:56:14.000Z</time>
      </trkpt>
      <trkpt lat="44.57318" lon="4.3444">
        <ele>348</ele>
        <time>2016-05-15T11:56:15.000Z</time>
      </trkpt>
      <trkpt lat="44.57315" lon="4.3444">
        <ele>348</ele>
        <time>2016-05-15T11:56:16.000Z</time>
      </trkpt>
      <trkpt lat="44.57312" lon="4.3444">
        <ele>348</ele>
        <time>2016-05-15T11:56:17.000Z</time>
      </trkpt>
      <trkpt lat="44.5731" lon="4.3444">
        <ele>348</ele>
        <time>2016-05-15T11:56:18.000Z</time>
      </trkpt>
      <trkpt lat="44.57307" lon="4.34439">
        <ele>348</ele>
        <time>2016-05-15T11:56:19.000Z</time>
      </trkpt>
      <trkpt lat="44.57305" lon="4.34439">
        <ele>348</ele>
        <time>2016-05-15T11:56:20.000Z</time>
      </trkpt>
      <trkpt lat="44.57302" lon="4.34439">
        <ele>348</ele>
        <time>2016-05-15T11:56:21.000Z</time>
      </trkpt>
      <trkpt lat="44.573" lon="4.34438">
        <ele>348</ele>
        <time>2016-05-15T11:56:22.000Z</time>
      </trkpt>
      <trkpt lat="44.57297" lon="4.34438">
        <ele>348</ele>
        <time>2016-05-15T11:56:23.000Z</time>
      </trkpt>
      <trkpt lat="44.57295" lon="4.34437">
        <ele>348</ele>
        <time>2016-05-15T11:56:24.000Z</time>
      </trkpt>
      <trkpt lat="44.57292" lon="4.34436">
        <ele>348</ele>
        <time>2016-05-15T11:56:25.000Z</time>
      </trkpt>
      <trkpt lat="44.5729" lon="4.34436">
        <ele>348</ele>
        <time>2016-05-15T11:56:26.000Z</time>
      </trkpt>
      <trkpt lat="44.57287" lon="4.34435">
        <ele>348</ele>
        <time>2016-05-15T11:56:27.000Z</time>
      </trkpt>
      <trkpt lat="44.57284" lon="4.34434">
        <ele>348</ele>
        <time>2016-05-15T11:56:28.000Z</time>
      </trkpt>
      <trkpt lat="44.57281" lon="4.34434">
        <ele>348</ele>
        <time>2016-05-15T11:56:29.000Z</time>
      </trkpt>
      <trkpt lat="44.57278" lon="4.34433">
        <ele>348</ele>
        <time>2016-05-15T11:56:30.000Z</time>
      </trkpt>
      <trkpt lat="44.57275" lon="4.34432">
        <ele>348</ele>
        <time>2016-05-15T11:56:31.000Z</time>
      </trkpt>
      <trkpt lat="44.57272" lon="4.34432">
        <ele>348</ele>
        <time>2016-05-15T11:56:32.000Z</time>
      </trkpt>
      <trkpt lat="44.57268" lon="4.3443">
        <ele>348</ele>
        <time>2016-05-15T11:56:33.000Z</time>
      </trkpt>
      <trkpt lat="44.57265" lon="4.3443">
        <ele>349</ele>
        <time>2016-05-15T11:56:34.000Z</time>
      </trkpt>
      <trkpt lat="44.57261" lon="4.34429">
        <ele>349</ele>
        <time>2016-05-15T11:56:35.000Z</time>
      </trkpt>
      <trkpt lat="44.57258" lon="4.34428">
        <ele>349</ele>
        <time>2016-05-15T11:56:36.000Z</time>
      </trkpt>
      <trkpt lat="44.57254" lon="4.34427">
        <ele>349</ele>
        <time>2016-05-15T11:56:37.000Z</time>
      </trkpt>
      <trkpt lat="44.5725" lon="4.34427">
        <ele>349</ele>
        <time>2016-05-15T11:56:38.000Z</time>
      </trkpt>
      <trkpt lat="44.57245" lon="4.34427">
        <ele>349</ele>
        <time>2016-05-15T11:56:39.000Z</time>
      </trkpt>
      <trkpt lat="44.57241" lon="4.34429">
        <ele>348</ele>
        <time>2016-05-15T11:56:40.000Z</time>
      </trkpt>
      <trkpt lat="44.57236" lon="4.34431">
        <ele>348</ele>
        <time>2016-05-15T11:56:41.000Z</time>
      </trkpt>
      <trkpt lat="44.57231" lon="4.3443">
        <ele>348</ele>
        <time>2016-05-15T11:56:42.000Z</time>
      </trkpt>
      <trkpt lat="44.57226" lon="4.34428">
        <ele>348</ele>
        <time>2016-05-15T11:56:43.000Z</time>
      </trkpt>
      <trkpt lat="44.57221" lon="4.34423">
        <ele>347</ele>
        <time>2016-05-15T11:56:44.000Z</time>
      </trkpt>
      <trkpt lat="44.57217" lon="4.34417">
        <ele>347</ele>
        <time>2016-05-15T11:56:45.000Z</time>
      </trkpt>
      <trkpt lat="44.57213" lon="4.34412">
        <ele>353</ele>
        <time>2016-05-15T11:56:46.000Z</time>
      </trkpt>
      <trkpt lat="44.57209" lon="4.34407">
        <ele>353</ele>
        <time>2016-05-15T11:56:47.000Z</time>
      </trkpt>
      <trkpt lat="44.57205" lon="4.34402">
        <ele>354</ele>
        <time>2016-05-15T11:56:48.000Z</time>
      </trkpt>
      <trkpt lat="44.57201" lon="4.34398">
        <ele>354</ele>
        <time>2016-05-15T11:56:49.000Z</time>
      </trkpt>
      <trkpt lat="44.57196" lon="4.34397">
        <ele>354</ele>
        <time>2016-05-15T11:56:50.000Z</time>
      </trkpt>
      <trkpt lat="44.57191" lon="4.34398">
        <ele>353</ele>
        <time>2016-05-15T11:56:51.000Z</time>
      </trkpt>
      <trkpt lat="44.57186" lon="4.34401">
        <ele>353</ele>
        <time>2016-05-15T11:56:52.000Z</time>
      </trkpt>
      <trkpt lat="44.57182" lon="4.34404">
        <ele>352</ele>
        <time>2016-05-15T11:56:53.000Z</time>
      </trkpt>
      <trkpt lat="44.57179" lon="4.34407">
        <ele>351</ele>
        <time>2016-05-15T11:56:54.000Z</time>
      </trkpt>
      <trkpt lat="44.57177" lon="4.34412">
        <ele>351</ele>
        <time>2016-05-15T11:56:55.000Z</time>
      </trkpt>
      <trkpt lat="44.57175" lon="4.34417">
        <ele>347</ele>
        <time>2016-05-15T11:56:56.000Z</time>
      </trkpt>
      <trkpt lat="44.57174" lon="4.34422">
        <ele>347</ele>
        <time>2016-05-15T11:56:57.000Z</time>
      </trkpt>
      <trkpt lat="44.57172" lon="4.34426">
        <ele>347</ele>
        <time>2016-05-15T11:56:58.000Z</time>
      </trkpt>
      <trkpt lat="44.57169" lon="4.34429">
        <ele>347</ele>
        <time>2016-05-15T11:56:59.000Z</time>
      </trkpt>
      <trkpt lat="44.57166" lon="4.34431">
        <ele>347</ele>
        <time>2016-05-15T11:57:00.000Z</time>
      </trkpt>
      <trkpt lat="44.57163" lon="4.34433">
        <ele>347</ele>
        <time>2016-05-15T11:57:01.000Z</time>
      </trkpt>
      <trkpt lat="44.5716" lon="4.34436">
        <ele>347</ele>
        <time>2016-05-15T11:57:02.000Z</time>
      </trkpt>
      <trkpt lat="44.57157" lon="4.3444">
        <ele>347</ele>
        <time>2016-05-15T11:57:03.000Z</time>
      </trkpt>
      <trkpt lat="44.57154" lon="4.34443">
        <ele>347</ele>
        <time>2016-05-15T11:57:04.000Z</time>
      </trkpt>
      <trkpt lat="44.57152" lon="4.34446">
        <ele>347</ele>
        <time>2016-05-15T11:57:05.000Z</time>
      </trkpt>
      <trkpt lat="44.57148" lon="4.34448">
        <ele>346</ele>
        <time>2016-05-15T11:57:06.000Z</time>
      </trkpt>
      <trkpt lat="44.57145" lon="4.34449">
        <ele>346</ele>
        <time>2016-05-15T11:57:07.000Z</time>
      </trkpt>
      <trkpt lat="44.57142" lon="4.3445">
        <ele>346</ele>
        <time>2016-05-15T11:57:08.000Z</time>
      </trkpt>
      <trkpt lat="44.57138" lon="4.34451">
        <ele>347</ele>
        <time>2016-05-15T11:57:09.000Z</time>
      </trkpt>
      <trkpt lat="44.57135" lon="4.34451">
        <ele>347</ele>
        <time>2016-05-15T11:57:10.000Z</time>
      </trkpt>
      <trkpt lat="44.57132" lon="4.34451">
        <ele>347</ele>
        <time>2016-05-15T11:57:11.000Z</time>
      </trkpt>
      <trkpt lat="44.57129" lon="4.34451">
        <ele>347</ele>
        <time>2016-05-15T11:57:12.000Z</time>
      </trkpt>
      <trkpt lat="44.57127" lon="4.3445">
        <ele>347</ele>
        <time>2016-05-15T11:57:13.000Z</time>
      </trkpt>
      <trkpt lat="44.57124" lon="4.34448">
        <ele>347</ele>
        <time>2016-05-15T11:57:14.000Z</time>
      </trkpt>
      <trkpt lat="44.57123" lon="4.34447">
        <ele>347</ele>
        <time>2016-05-15T11:57:15.000Z</time>
      </trkpt>
      <trkpt lat="44.57122" lon="4.34444">
        <ele>348</ele>
        <time>2016-05-15T11:57:16.000Z</time>
      </trkpt>
      <trkpt lat="44.57123" lon="4.34443">
        <ele>348</ele>
        <time>2016-05-15T11:57:17.000Z</time>
      </trkpt>
      <trkpt lat="44.57124" lon="4.34442">
        <ele>348</ele>
        <time>2016-05-15T11:57:18.000Z</time>
      </trkpt>
      <trkpt lat="44.57126" lon="4.34442">
        <ele>348</ele>
        <time>2016-05-15T11:57:19.000Z</time>
      </trkpt>
      <trkpt lat="44.57127" lon="4.34441">
        <ele>348</ele>
        <time>2016-05-15T11:57:20.000Z</time>
      </trkpt>
      <trkpt lat="44.57128" lon="4.34439">
        <ele>348</ele>
        <time>2016-05-15T11:57:21.000Z</time>
      </trkpt>
      <trkpt lat="44.57129" lon="4.34437">
        <ele>348</ele>
        <time>2016-05-15T11:57:22.000Z</time>
      </trkpt>
      <trkpt lat="44.57131" lon="4.34436">
        <ele>348</ele>
        <time>2016-05-15T11:57:23.000Z</time>
      </trkpt>
      <trkpt lat="44.57132" lon="4.34433">
        <ele>348</ele>
        <time>2016-05-15T11:57:24.000Z</time>
      </trkpt>
      <trkpt lat="44.57132" lon="4.34431">
        <ele>348</ele>
        <time>2016-05-15T11:57:25.000Z</time>
      </trkpt>
      <trkpt lat="44.57132" lon="4.34429">
        <ele>348</ele>
        <time>2016-05-15T11:57:26.000Z</time>
      </trkpt>
      <trkpt lat="44.57131" lon="4.34427">
        <ele>348</ele>
        <time>2016-05-15T11:57:27.000Z</time>
      </trkpt>
      <trkpt lat="44.5713" lon="4.34425">
        <ele>348</ele>
        <time>2016-05-15T11:57:28.000Z</time>
      </trkpt>
      <trkpt lat="44.57129" lon="4.34422">
        <ele>348</ele>
        <time>2016-05-15T11:57:29.000Z</time>
      </trkpt>
      <trkpt lat="44.57127" lon="4.34419">
        <ele>349</ele>
        <time>2016-05-15T11:57:30.000Z</time>
      </trkpt>
      <trkpt lat="44.57125" lon="4.34418">
        <ele>349</ele>
        <time>2016-05-15T11:57:31.000Z</time>
      </trkpt>
      <trkpt lat="44.57122" lon="4.34419">
        <ele>349</ele>
        <time>2016-05-15T11:57:32.000Z</time>
      </trkpt>
      <trkpt lat="44.5712" lon="4.34418">
        <ele>349</ele>
        <time>2016-05-15T11:57:33.000Z</time>
      </trkpt>
      <trkpt lat="44.57118" lon="4.34418">
        <ele>349</ele>
        <time>2016-05-15T11:57:34.000Z</time>
      </trkpt>
      <trkpt lat="44.57116" lon="4.34418">
        <ele>350</ele>
        <time>2016-05-15T11:57:35.000Z</time>
      </trkpt>
      <trkpt lat="44.57115" lon="4.34417">
        <ele>350</ele>
        <time>2016-05-15T11:57:36.000Z</time>
      </trkpt>
      <trkpt lat="44.57113" lon="4.34417">
        <ele>357</ele>
        <time>2016-05-15T11:57:37.000Z</time>
      </trkpt>
      <trkpt lat="44.57111" lon="4.34416">
        <ele>357</ele>
        <time>2016-05-15T11:57:38.000Z</time>
      </trkpt>
      <trkpt lat="44.57109" lon="4.34416">
        <ele>358</ele>
        <time>2016-05-15T11:57:39.000Z</time>
      </trkpt>
      <trkpt lat="44.57107" lon="4.34416">
        <ele>358</ele>
        <time>2016-05-15T11:57:40.000Z</time>
      </trkpt>
      <trkpt lat="44.57105" lon="4.34415">
        <ele>358</ele>
        <time>2016-05-15T11:57:41.000Z</time>
      </trkpt>
      <trkpt lat="44.57104" lon="4.34415">
        <ele>358</ele>
        <time>2016-05-15T11:57:42.000Z</time>
      </trkpt>
      <trkpt lat="44.57102" lon="4.34414">
        <ele>358</ele>
        <time>2016-05-15T11:57:43.000Z</time>
      </trkpt>
      <trkpt lat="44.57101" lon="4.34414">
        <ele>358</ele>
        <time>2016-05-15T11:57:44.000Z</time>
      </trkpt>
      <trkpt lat="44.57099" lon="4.34414">
        <ele>358</ele>
        <time>2016-05-15T11:57:45.000Z</time>
      </trkpt>
      <trkpt lat="44.57097" lon="4.34413">
        <ele>358</ele>
        <time>2016-05-15T11:57:46.000Z</time>
      </trkpt>
      <trkpt lat="44.57096" lon="4.34413">
        <ele>358</ele>
        <time>2016-05-15T11:57:47.000Z</time>
      </trkpt>
      <trkpt lat="44.57094" lon="4.34412">
        <ele>358</ele>
        <time>2016-05-15T11:57:48.000Z</time>
      </trkpt>
      <trkpt lat="44.57092" lon="4.34412">
        <ele>358</ele>
        <time>2016-05-15T11:57:49.000Z</time>
      </trkpt>
      <trkpt lat="44.57091" lon="4.34411">
        <ele>358</ele>
        <time>2016-05-15T11:57:50.000Z</time>
      </trkpt>
      <trkpt lat="44.57089" lon="4.3441">
        <ele>358</ele>
        <time>2016-05-15T11:57:51.000Z</time>
      </trkpt>
      <trkpt lat="44.57087" lon="4.3441">
        <ele>358</ele>
        <time>2016-05-15T11:57:52.000Z</time>
      </trkpt>
      <trkpt lat="44.57086" lon="4.34409">
        <ele>358</ele>
        <time>2016-05-15T11:57:53.000Z</time>
      </trkpt>
      <trkpt lat="44.57084" lon="4.34408">
        <ele>358</ele>
        <time>2016-05-15T11:57:54.000Z</time>
      </trkpt>
      <trkpt lat="44.57082" lon="4.34406">
        <ele>359</ele>
        <time>2016-05-15T11:57:55.000Z</time>
      </trkpt>
      <trkpt lat="44.57081" lon="4.34405">
        <ele>360</ele>
        <time>2016-05-15T11:57:56.000Z</time>
      </trkpt>
      <trkpt lat="44.57079" lon="4.34404">
        <ele>360</ele>
        <time>2016-05-15T11:57:57.000Z</time>
      </trkpt>
      <trkpt lat="44.57077" lon="4.34403">
        <ele>360</ele>
        <time>2016-05-15T11:57:58.000Z</time>
      </trkpt>
      <trkpt lat="44.57075" lon="4.34402">
        <ele>360</ele>
        <time>2016-05-15T11:57:59.000Z</time>
      </trkpt>
      <trkpt lat="44.57074" lon="4.344">
        <ele>361</ele>
        <time>2016-05-15T11:58:00.000Z</time>
      </trkpt>
      <trkpt lat="44.57072" lon="4.34399">
        <ele>361</ele>
        <time>2016-05-15T11:58:01.000Z</time>
      </trkpt>
      <trkpt lat="44.57071" lon="4.34398">
        <ele>361</ele>
        <time>2016-05-15T11:58:02.000Z</time>
      </trkpt>
      <trkpt lat="44.57069" lon="4.34397">
        <ele>361</ele>
        <time>2016-05-15T11:58:03.000Z</time>
      </trkpt>
      <trkpt lat="44.57068" lon="4.34396">
        <ele>361</ele>
        <time>2016-05-15T11:58:04.000Z</time>
      </trkpt>
      <trkpt lat="44.57066" lon="4.34395">
        <ele>362</ele>
        <time>2016-05-15T11:58:05.000Z</time>
      </trkpt>
      <trkpt lat="44.57064" lon="4.34394">
        <ele>362</ele>
        <time>2016-05-15T11:58:06.000Z</time>
      </trkpt>
      <trkpt lat="44.57062" lon="4.34393">
        <ele>362</ele>
        <time>2016-05-15T11:58:07.000Z</time>
      </trkpt>
      <trkpt lat="44.57061" lon="4.34392">
        <ele>362</ele>
        <time>2016-05-15T11:58:08.000Z</time>
      </trkpt>
      <trkpt lat="44.57059" lon="4.34392">
        <ele>362</ele>
        <time>2016-05-15T11:58:09.000Z</time>
      </trkpt>
      <trkpt lat="44.57057" lon="4.34391">
        <ele>362</ele>
        <time>2016-05-15T11:58:10.000Z</time>
      </trkpt>
      <trkpt lat="44.57055" lon="4.3439">
        <ele>362</ele>
        <time>2016-05-15T11:58:11.000Z</time>
      </trkpt>
      <trkpt lat="44.57053" lon="4.34389">
        <ele>363</ele>
        <time>2016-05-15T11:58:12.000Z</time>
      </trkpt>
      <trkpt lat="44.57052" lon="4.34388">
        <ele>363</ele>
        <time>2016-05-15T11:58:13.000Z</time>
      </trkpt>
      <trkpt lat="44.5705" lon="4.34387">
        <ele>363</ele>
        <time>2016-05-15T11:58:14.000Z</time>
      </trkpt>
      <trkpt lat="44.57048" lon="4.34386">
        <ele>363</ele>
        <time>2016-05-15T11:58:15.000Z</time>
      </trkpt>
      <trkpt lat="44.57046" lon="4.34385">
        <ele>363</ele>
        <time>2016-05-15T11:58:16.000Z</time>
      </trkpt>
      <trkpt lat="44.57044" lon="4.34385">
        <ele>363</ele>
        <time>2016-05-15T11:58:17.000Z</time>
      </trkpt>
      <trkpt lat="44.57042" lon="4.34384">
        <ele>363</ele>
        <time>2016-05-15T11:58:18.000Z</time>
      </trkpt>
      <trkpt lat="44.5704" lon="4.34383">
        <ele>363</ele>
        <time>2016-05-15T11:58:19.000Z</time>
      </trkpt>
      <trkpt lat="44.57039" lon="4.34383">
        <ele>363</ele>
        <time>2016-05-15T11:58:20.000Z</time>
      </trkpt>
      <trkpt lat="44.57037" lon="4.34383">
        <ele>363</ele>
        <time>2016-05-15T11:58:21.000Z</time>
      </trkpt>
      <trkpt lat="44.57035" lon="4.34382">
        <ele>363</ele>
        <time>2016-05-15T11:58:22.000Z</time>
      </trkpt>
      <trkpt lat="44.57033" lon="4.34381">
        <ele>363</ele>
        <time>2016-05-15T11:58:23.000Z</time>
      </trkpt>
      <trkpt lat="44.57031" lon="4.34381">
        <ele>363</ele>
        <time>2016-05-15T11:58:24.000Z</time>
      </trkpt>
      <trkpt lat="44.57029" lon="4.3438">
        <ele>363</ele>
        <time>2016-05-15T11:58:25.000Z</time>
      </trkpt>
      <trkpt lat="44.57027" lon="4.34379">
        <ele>363</ele>
        <time>2016-05-15T11:58:26.000Z</time>
      </trkpt>
      <trkpt lat="44.57025" lon="4.34377">
        <ele>364</ele>
        <time>2016-05-15T11:58:27.000Z</time>
      </trkpt>
      <trkpt lat="44.57024" lon="4.34376">
        <ele>364</ele>
        <time>2016-05-15T11:58:28.000Z</time>
      </trkpt>
      <trkpt lat="44.57021" lon="4.34375">
        <ele>364</ele>
        <time>2016-05-15T11:58:29.000Z</time>
      </trkpt>
      <trkpt lat="44.57019" lon="4.34373">
        <ele>364</ele>
        <time>2016-05-15T11:58:30.000Z</time>
      </trkpt>
      <trkpt lat="44.57017" lon="4.3437">
        <ele>364</ele>
        <time>2016-05-15T11:58:31.000Z</time>
      </trkpt>
      <trkpt lat="44.57016" lon="4.34368">
        <ele>365</ele>
        <time>2016-05-15T11:58:32.000Z</time>
      </trkpt>
      <trkpt lat="44.57016" lon="4.34367">
        <ele>365</ele>
        <time>2016-05-15T11:58:33.000Z</time>
      </trkpt>
      <trkpt lat="44.57015" lon="4.34366">
        <ele>365</ele>
        <time>2016-05-15T11:58:34.000Z</time>
      </trkpt>
      <trkpt lat="44.57014" lon="4.34364">
        <ele>365</ele>
        <time>2016-05-15T11:58:35.000Z</time>
      </trkpt>
      <trkpt lat="44.57013" lon="4.34362">
        <ele>365</ele>
        <time>2016-05-15T11:58:36.000Z</time>
      </trkpt>
      <trkpt lat="44.57012" lon="4.3436">
        <ele>366</ele>
        <time>2016-05-15T11:58:37.000Z</time>
      </trkpt>
      <trkpt lat="44.57011" lon="4.34359">
        <ele>366</ele>
        <time>2016-05-15T11:58:38.000Z</time>
      </trkpt>
      <trkpt lat="44.57009" lon="4.34357">
        <ele>366</ele>
        <time>2016-05-15T11:58:39.000Z</time>
      </trkpt>
      <trkpt lat="44.57008" lon="4.34356">
        <ele>366</ele>
        <time>2016-05-15T11:58:40.000Z</time>
      </trkpt>
      <trkpt lat="44.57007" lon="4.34354">
        <ele>367</ele>
        <time>2016-05-15T11:58:41.000Z</time>
      </trkpt>
      <trkpt lat="44.57006" lon="4.34353">
        <ele>367</ele>
        <time>2016-05-15T11:58:42.000Z</time>
      </trkpt>
      <trkpt lat="44.57004" lon="4.34351">
        <ele>367</ele>
        <time>2016-05-15T11:58:43.000Z</time>
      </trkpt>
      <trkpt lat="44.57002" lon="4.34349">
        <ele>367</ele>
        <time>2016-05-15T11:58:44.000Z</time>
      </trkpt>
      <trkpt lat="44.57" lon="4.34347">
        <ele>368</ele>
        <time>2016-05-15T11:58:45.000Z</time>
      </trkpt>
      <trkpt lat="44.56998" lon="4.34345">
        <ele>368</ele>
        <time>2016-05-15T11:58:46.000Z</time>
      </trkpt>
      <trkpt lat="44.56996" lon="4.34344">
        <ele>368</ele>
        <time>2016-05-15T11:58:47.000Z</time>
      </trkpt>
      <trkpt lat="44.56994" lon="4.34342">
        <ele>368</ele>
        <time>2016-05-15T11:58:48.000Z</time>
      </trkpt>
      <trkpt lat="44.56992" lon="4.3434">
        <ele>368</ele>
        <time>2016-05-15T11:58:49.000Z</time>
      </trkpt>
      <trkpt lat="44.56991" lon="4.34339">
        <ele>368</ele>
        <time>2016-05-15T11:58:50.000Z</time>
      </trkpt>
      <trkpt lat="44.5699" lon="4.34337">
        <ele>368</ele>
        <time>2016-05-15T11:58:51.000Z</time>
      </trkpt>
      <trkpt lat="44.56988" lon="4.34335">
        <ele>368</ele>
        <time>2016-05-15T11:58:52.000Z</time>
      </trkpt>
      <trkpt lat="44.56987" lon="4.34333">
        <ele>373</ele>
        <time>2016-05-15T11:58:53.000Z</time>
      </trkpt>
      <trkpt lat="44.56986" lon="4.34331">
        <ele>373</ele>
        <time>2016-05-15T11:58:54.000Z</time>
      </trkpt>
      <trkpt lat="44.56985" lon="4.34329">
        <ele>373</ele>
        <time>2016-05-15T11:58:55.000Z</time>
      </trkpt>
      <trkpt lat="44.56984" lon="4.34326">
        <ele>374</ele>
        <time>2016-05-15T11:58:56.000Z</time>
      </trkpt>
      <trkpt lat="44.56983" lon="4.34324">
        <ele>374</ele>
        <time>2016-05-15T11:58:57.000Z</time>
      </trkpt>
      <trkpt lat="44.56982" lon="4.34322">
        <ele>374</ele>
        <time>2016-05-15T11:58:58.000Z</time>
      </trkpt>
      <trkpt lat="44.5698" lon="4.3432">
        <ele>374</ele>
        <time>2016-05-15T11:58:59.000Z</time>
      </trkpt>
      <trkpt lat="44.56979" lon="4.34317">
        <ele>374</ele>
        <time>2016-05-15T11:59:00.000Z</time>
      </trkpt>
      <trkpt lat="44.56977" lon="4.34315">
        <ele>375</ele>
        <time>2016-05-15T11:59:01.000Z</time>
      </trkpt>
      <trkpt lat="44.56975" lon="4.34313">
        <ele>375</ele>
        <time>2016-05-15T11:59:02.000Z</time>
      </trkpt>
      <trkpt lat="44.56974" lon="4.34311">
        <ele>375</ele>
        <time>2016-05-15T11:59:03.000Z</time>
      </trkpt>
      <trkpt lat="44.56973" lon="4.34309">
        <ele>375</ele>
        <time>2016-05-15T11:59:04.000Z</time>
      </trkpt>
      <trkpt lat="44.56971" lon="4.34307">
        <ele>375</ele>
        <time>2016-05-15T11:59:05.000Z</time>
      </trkpt>
      <trkpt lat="44.5697" lon="4.34305">
        <ele>375</ele>
        <time>2016-05-15T11:59:06.000Z</time>
      </trkpt>
      <trkpt lat="44.56969" lon="4.34303">
        <ele>376</ele>
        <time>2016-05-15T11:59:07.000Z</time>
      </trkpt>
      <trkpt lat="44.56968" lon="4.343">
        <ele>376</ele>
        <time>2016-05-15T11:59:08.000Z</time>
      </trkpt>
      <trkpt lat="44.56967" lon="4.34298">
        <ele>376</ele>
        <time>2016-05-15T11:59:09.000Z</time>
      </trkpt>
      <trkpt lat="44.56965" lon="4.34295">
        <ele>376</ele>
        <time>2016-05-15T11:59:10.000Z</time>
      </trkpt>
      <trkpt lat="44.56964" lon="4.34292">
        <ele>376</ele>
        <time>2016-05-15T11:59:11.000Z</time>
      </trkpt>
      <trkpt lat="44.56962" lon="4.3429">
        <ele>376</ele>
        <time>2016-05-15T11:59:12.000Z</time>
      </trkpt>
      <trkpt lat="44.56961" lon="4.34289">
        <ele>377</ele>
        <time>2016-05-15T11:59:13.000Z</time>
      </trkpt>
      <trkpt lat="44.56959" lon="4.34287">
        <ele>377</ele>
        <time>2016-05-15T11:59:14.000Z</time>
      </trkpt>
      <trkpt lat="44.56957" lon="4.34285">
        <ele>377</ele>
        <time>2016-05-15T11:59:15.000Z</time>
      </trkpt>
      <trkpt lat="44.56955" lon="4.34284">
        <ele>377</ele>
        <time>2016-05-15T11:59:16.000Z</time>
      </trkpt>
      <trkpt lat="44.56954" lon="4.34282">
        <ele>377</ele>
        <time>2016-05-15T11:59:17.000Z</time>
      </trkpt>
      <trkpt lat="44.56952" lon="4.3428">
        <ele>377</ele>
        <time>2016-05-15T11:59:18.000Z</time>
      </trkpt>
      <trkpt lat="44.5695" lon="4.34278">
        <ele>377</ele>
        <time>2016-05-15T11:59:19.000Z</time>
      </trkpt>
      <trkpt lat="44.56949" lon="4.34276">
        <ele>377</ele>
        <time>2016-05-15T11:59:20.000Z</time>
      </trkpt>
      <trkpt lat="44.56947" lon="4.34274">
        <ele>377</ele>
        <time>2016-05-15T11:59:21.000Z</time>
      </trkpt>
      <trkpt lat="44.56945" lon="4.34271">
        <ele>378</ele>
        <time>2016-05-15T11:59:22.000Z</time>
      </trkpt>
      <trkpt lat="44.56943" lon="4.34269">
        <ele>378</ele>
        <time>2016-05-15T11:59:23.000Z</time>
      </trkpt>
      <trkpt lat="44.56941" lon="4.34266">
        <ele>378</ele>
        <time>2016-05-15T11:59:24.000Z</time>
      </trkpt>
      <trkpt lat="44.56939" lon="4.34263">
        <ele>378</ele>
        <time>2016-05-15T11:59:25.000Z</time>
      </trkpt>
      <trkpt lat="44.56937" lon="4.34261">
        <ele>378</ele>
        <time>2016-05-15T11:59:26.000Z</time>
      </trkpt>
      <trkpt lat="44.56935" lon="4.34258">
        <ele>379</ele>
        <time>2016-05-15T11:59:27.000Z</time>
      </trkpt>
      <trkpt lat="44.56933" lon="4.34256">
        <ele>379</ele>
        <time>2016-05-15T11:59:28.000Z</time>
      </trkpt>
      <trkpt lat="44.56931" lon="4.34254">
        <ele>379</ele>
        <time>2016-05-15T11:59:29.000Z</time>
      </trkpt>
      <trkpt lat="44.56929" lon="4.34252">
        <ele>379</ele>
        <time>2016-05-15T11:59:30.000Z</time>
      </trkpt>
      <trkpt lat="44.56927" lon="4.3425">
        <ele>380</ele>
        <time>2016-05-15T11:59:31.000Z</time>
      </trkpt>
      <trkpt lat="44.56925" lon="4.34248">
        <ele>383</ele>
        <time>2016-05-15T11:59:32.000Z</time>
      </trkpt>
      <trkpt lat="44.56923" lon="4.34247">
        <ele>383</ele>
        <time>2016-05-15T11:59:33.000Z</time>
      </trkpt>
      <trkpt lat="44.56921" lon="4.34245">
        <ele>383</ele>
        <time>2016-05-15T11:59:34.000Z</time>
      </trkpt>
      <trkpt lat="44.56919" lon="4.34242">
        <ele>383</ele>
        <time>2016-05-15T11:59:35.000Z</time>
      </trkpt>
      <trkpt lat="44.56918" lon="4.3424">
        <ele>383</ele>
        <time>2016-05-15T11:59:36.000Z</time>
      </trkpt>
      <trkpt lat="44.56916" lon="4.34237">
        <ele>379</ele>
        <time>2016-05-15T11:59:37.000Z</time>
      </trkpt>
      <trkpt lat="44.56915" lon="4.34234">
        <ele>379</ele>
        <time>2016-05-15T11:59:38.000Z</time>
      </trkpt>
      <trkpt lat="44.56913" lon="4.34231">
        <ele>379</ele>
        <time>2016-05-15T11:59:39.000Z</time>
      </trkpt>
      <trkpt lat="44.56912" lon="4.34229">
        <ele>378</ele>
        <time>2016-05-15T11:59:40.000Z</time>
      </trkpt>
      <trkpt lat="44.5691" lon="4.34227">
        <ele>378</ele>
        <time>2016-05-15T11:59:41.000Z</time>
      </trkpt>
      <trkpt lat="44.5691" lon="4.34224">
        <ele>378</ele>
        <time>2016-05-15T11:59:42.000Z</time>
      </trkpt>
      <trkpt lat="44.56909" lon="4.34222">
        <ele>378</ele>
        <time>2016-05-15T11:59:43.000Z</time>
      </trkpt>
      <trkpt lat="44.56908" lon="4.3422">
        <ele>378</ele>
        <time>2016-05-15T11:59:44.000Z</time>
      </trkpt>
      <trkpt lat="44.56907" lon="4.34218">
        <ele>378</ele>
        <time>2016-05-15T11:59:45.000Z</time>
      </trkpt>
      <trkpt lat="44.56905" lon="4.34216">
        <ele>378</ele>
        <time>2016-05-15T11:59:46.000Z</time>
      </trkpt>
      <trkpt lat="44.56904" lon="4.34214">
        <ele>378</ele>
        <time>2016-05-15T11:59:47.000Z</time>
      </trkpt>
      <trkpt lat="44.56903" lon="4.34212">
        <ele>378</ele>
        <time>2016-05-15T11:59:48.000Z</time>
      </trkpt>
      <trkpt lat="44.569" lon="4.34209">
        <ele>378</ele>
        <time>2016-05-15T11:59:49.000Z</time>
      </trkpt>
      <trkpt lat="44.56898" lon="4.34205">
        <ele>378</ele>
        <time>2016-05-15T11:59:50.000Z</time>
      </trkpt>
      <trkpt lat="44.56896" lon="4.34201">
        <ele>378</ele>
        <time>2016-05-15T11:59:51.000Z</time>
      </trkpt>
      <trkpt lat="44.56893" lon="4.34197">
        <ele>378</ele>
        <time>2016-05-15T11:59:52.000Z</time>
      </trkpt>
      <trkpt lat="44.56891" lon="4.34192">
        <ele>378</ele>
        <time>2016-05-15T11:59:53.000Z</time>
      </trkpt>
      <trkpt lat="44.56889" lon="4.34186">
        <ele>379</ele>
        <time>2016-05-15T11:59:54.000Z</time>
      </trkpt>
      <trkpt lat="44.56885" lon="4.3418">
        <ele>379</ele>
        <time>2016-05-15T11:59:55.000Z</time>
      </trkpt>
      <trkpt lat="44.56882" lon="4.34174">
        <ele>378</ele>
        <time>2016-05-15T11:59:56.000Z</time>
      </trkpt>
      <trkpt lat="44.56877" lon="4.34167">
        <ele>378</ele>
        <time>2016-05-15T11:59:57.000Z</time>
      </trkpt>
      <trkpt lat="44.56874" lon="4.34161">
        <ele>384</ele>
        <time>2016-05-15T11:59:58.000Z</time>
      </trkpt>
      <trkpt lat="44.5687" lon="4.34156">
        <ele>383</ele>
        <time>2016-05-15T11:59:59.000Z</time>
      </trkpt>
      <trkpt lat="44.56866" lon="4.34151">
        <ele>383</ele>
        <time>2016-05-15T12:00:00.000Z</time>
      </trkpt>
      <trkpt lat="44.56862" lon="4.34146">
        <ele>383</ele>
        <time>2016-05-15T12:00:01.000Z</time>
      </trkpt>
      <trkpt lat="44.56857" lon="4.34142">
        <ele>382</ele>
        <time>2016-05-15T12:00:02.000Z</time>
      </trkpt>
      <trkpt lat="44.56853" lon="4.34138">
        <ele>383</ele>
        <time>2016-05-15T12:00:03.000Z</time>
      </trkpt>
      <trkpt lat="44.56848" lon="4.34133">
        <ele>383</ele>
        <time>2016-05-15T12:00:04.000Z</time>
      </trkpt>
      <trkpt lat="44.56844" lon="4.34129">
        <ele>383</ele>
        <time>2016-05-15T12:00:05.000Z</time>
      </trkpt>
      <trkpt lat="44.56839" lon="4.34125">
        <ele>383</ele>
        <time>2016-05-15T12:00:06.000Z</time>
      </trkpt>
      <trkpt lat="44.56835" lon="4.3412">
        <ele>384</ele>
        <time>2016-05-15T12:00:07.000Z</time>
      </trkpt>
      <trkpt lat="44.5683" lon="4.34113">
        <ele>376</ele>
        <time>2016-05-15T12:00:08.000Z</time>
      </trkpt>
      <trkpt lat="44.56825" lon="4.34107">
        <ele>377</ele>
        <time>2016-05-15T12:00:09.000Z</time>
      </trkpt>
      <trkpt lat="44.5682" lon="4.34101">
        <ele>377</ele>
        <time>2016-05-15T12:00:10.000Z</time>
      </trkpt>
      <trkpt lat="44.56816" lon="4.34096">
        <ele>378</ele>
        <time>2016-05-15T12:00:11.000Z</time>
      </trkpt>
      <trkpt lat="44.56811" lon="4.3409">
        <ele>377</ele>
        <time>2016-05-15T12:00:12.000Z</time>
      </trkpt>
      <trkpt lat="44.56807" lon="4.34085">
        <ele>377</ele>
        <time>2016-05-15T12:00:13.000Z</time>
      </trkpt>
      <trkpt lat="44.56802" lon="4.34081">
        <ele>383</ele>
        <time>2016-05-15T12:00:14.000Z</time>
      </trkpt>
      <trkpt lat="44.56798" lon="4.34076">
        <ele>382</ele>
        <time>2016-05-15T12:00:15.000Z</time>
      </trkpt>
      <trkpt lat="44.56795" lon="4.34071">
        <ele>382</ele>
        <time>2016-05-15T12:00:16.000Z</time>
      </trkpt>
      <trkpt lat="44.56791" lon="4.34066">
        <ele>382</ele>
        <time>2016-05-15T12:00:17.000Z</time>
      </trkpt>
      <trkpt lat="44.56788" lon="4.34061">
        <ele>382</ele>
        <time>2016-05-15T12:00:18.000Z</time>
      </trkpt>
      <trkpt lat="44.56785" lon="4.34057">
        <ele>381</ele>
        <time>2016-05-15T12:00:19.000Z</time>
      </trkpt>
      <trkpt lat="44.56782" lon="4.34053">
        <ele>381</ele>
        <time>2016-05-15T12:00:20.000Z</time>
      </trkpt>
      <trkpt lat="44.56779" lon="4.34048">
        <ele>381</ele>
        <time>2016-05-15T12:00:21.000Z</time>
      </trkpt>
      <trkpt lat="44.56777" lon="4.34043">
        <ele>381</ele>
        <time>2016-05-15T12:00:22.000Z</time>
      </trkpt>
      <trkpt lat="44.56774" lon="4.34038">
        <ele>381</ele>
        <time>2016-05-15T12:00:23.000Z</time>
      </trkpt>
      <trkpt lat="44.56772" lon="4.34033">
        <ele>381</ele>
        <time>2016-05-15T12:00:24.000Z</time>
      </trkpt>
      <trkpt lat="44.5677" lon="4.34028">
        <ele>381</ele>
        <time>2016-05-15T12:00:25.000Z</time>
      </trkpt>
      <trkpt lat="44.56769" lon="4.34024">
        <ele>381</ele>
        <time>2016-05-15T12:00:26.000Z</time>
      </trkpt>
      <trkpt lat="44.56767" lon="4.34019">
        <ele>381</ele>
        <time>2016-05-15T12:00:27.000Z</time>
      </trkpt>
      <trkpt lat="44.56764" lon="4.34016">
        <ele>381</ele>
        <time>2016-05-15T12:00:28.000Z</time>
      </trkpt>
      <trkpt lat="44.56761" lon="4.34013">
        <ele>380</ele>
        <time>2016-05-15T12:00:29.000Z</time>
      </trkpt>
      <trkpt lat="44.56757" lon="4.34012">
        <ele>380</ele>
        <time>2016-05-15T12:00:30.000Z</time>
      </trkpt>
      <trkpt lat="44.56754" lon="4.34011">
        <ele>380</ele>
        <time>2016-05-15T12:00:31.000Z</time>
      </trkpt>
      <trkpt lat="44.56751" lon="4.34008">
        <ele>379</ele>
        <time>2016-05-15T12:00:32.000Z</time>
      </trkpt>
      <trkpt lat="44.56749" lon="4.34005">
        <ele>376</ele>
        <time>2016-05-15T12:00:33.000Z</time>
      </trkpt>
      <trkpt lat="44.56747" lon="4.34003">
        <ele>376</ele>
        <time>2016-05-15T12:00:34.000Z</time>
      </trkpt>
      <trkpt lat="44.56744" lon="4.34002">
        <ele>375</ele>
        <time>2016-05-15T12:00:35.000Z</time>
      </trkpt>
      <trkpt lat="44.56742" lon="4.33999">
        <ele>374</ele>
        <time>2016-05-15T12:00:36.000Z</time>
      </trkpt>
      <trkpt lat="44.5674" lon="4.33997">
        <ele>373</ele>
        <time>2016-05-15T12:00:37.000Z</time>
      </trkpt>
      <trkpt lat="44.56738" lon="4.33994">
        <ele>372</ele>
        <time>2016-05-15T12:00:38.000Z</time>
      </trkpt>
      <trkpt lat="44.56736" lon="4.33991">
        <ele>371</ele>
        <time>2016-05-15T12:00:39.000Z</time>
      </trkpt>
      <trkpt lat="44.56734" lon="4.33986">
        <ele>369</ele>
        <time>2016-05-15T12:00:40.000Z</time>
      </trkpt>
      <trkpt lat="44.56731" lon="4.33983">
        <ele>368</ele>
        <time>2016-05-15T12:00:41.000Z</time>
      </trkpt>
      <trkpt lat="44.56729" lon="4.33978">
        <ele>367</ele>
        <time>2016-05-15T12:00:42.000Z</time>
      </trkpt>
      <trkpt lat="44.56727" lon="4.33972">
        <ele>366</ele>
        <time>2016-05-15T12:00:43.000Z</time>
      </trkpt>
      <trkpt lat="44.56725" lon="4.33966">
        <ele>366</ele>
        <time>2016-05-15T12:00:44.000Z</time>
      </trkpt>
      <trkpt lat="44.56722" lon="4.33962">
        <ele>365</ele>
        <time>2016-05-15T12:00:45.000Z</time>
      </trkpt>
      <trkpt lat="44.56719" lon="4.3396">
        <ele>365</ele>
        <time>2016-05-15T12:00:46.000Z</time>
      </trkpt>
      <trkpt lat="44.56716" lon="4.33961">
        <ele>364</ele>
        <time>2016-05-15T12:00:47.000Z</time>
      </trkpt>
      <trkpt lat="44.56713" lon="4.33961">
        <ele>364</ele>
        <time>2016-05-15T12:00:48.000Z</time>
      </trkpt>
      <trkpt lat="44.56711" lon="4.3396">
        <ele>364</ele>
        <time>2016-05-15T12:00:49.000Z</time>
      </trkpt>
      <trkpt lat="44.56708" lon="4.33958">
        <ele>363</ele>
        <time>2016-05-15T12:00:50.000Z</time>
      </trkpt>
      <trkpt lat="44.56705" lon="4.33955">
        <ele>363</ele>
        <time>2016-05-15T12:00:51.000Z</time>
      </trkpt>
      <trkpt lat="44.56703" lon="4.33953">
        <ele>362</ele>
        <time>2016-05-15T12:00:52.000Z</time>
      </trkpt>
      <trkpt lat="44.56701" lon="4.33952">
        <ele>362</ele>
        <time>2016-05-15T12:00:53.000Z</time>
      </trkpt>
      <trkpt lat="44.56699" lon="4.3395">
        <ele>362</ele>
        <time>2016-05-15T12:00:54.000Z</time>
      </trkpt>
      <trkpt lat="44.56698" lon="4.33947">
        <ele>361</ele>
        <time>2016-05-15T12:00:55.000Z</time>
      </trkpt>
      <trkpt lat="44.56697" lon="4.33944">
        <ele>361</ele>
        <time>2016-05-15T12:00:56.000Z</time>
      </trkpt>
      <trkpt lat="44.56696" lon="4.33941">
        <ele>361</ele>
        <time>2016-05-15T12:00:57.000Z</time>
      </trkpt>
      <trkpt lat="44.56695" lon="4.33938">
        <ele>361</ele>
        <time>2016-05-15T12:00:58.000Z</time>
      </trkpt>
      <trkpt lat="44.56694" lon="4.33936">
        <ele>360</ele>
        <time>2016-05-15T12:00:59.000Z</time>
      </trkpt>
      <trkpt lat="44.56692" lon="4.33934">
        <ele>360</ele>
        <time>2016-05-15T12:01:00.000Z</time>
      </trkpt>
      <trkpt lat="44.56691" lon="4.33932">
        <ele>359</ele>
        <time>2016-05-15T12:01:01.000Z</time>
      </trkpt>
      <trkpt lat="44.56689" lon="4.33931">
        <ele>359</ele>
        <time>2016-05-15T12:01:02.000Z</time>
      </trkpt>
      <trkpt lat="44.56688" lon="4.33929">
        <ele>359</ele>
        <time>2016-05-15T12:01:03.000Z</time>
      </trkpt>
      <trkpt lat="44.56687" lon="4.33927">
        <ele>358</ele>
        <time>2016-05-15T12:01:04.000Z</time>
      </trkpt>
      <trkpt lat="44.56686" lon="4.33924">
        <ele>358</ele>
        <time>2016-05-15T12:01:05.000Z</time>
      </trkpt>
      <trkpt lat="44.56685" lon="4.3392">
        <ele>357</ele>
        <time>2016-05-15T12:01:06.000Z</time>
      </trkpt>
      <trkpt lat="44.56683" lon="4.33917">
        <ele>357</ele>
        <time>2016-05-15T12:01:07.000Z</time>
      </trkpt>
      <trkpt lat="44.56682" lon="4.33915">
        <ele>351</ele>
        <time>2016-05-15T12:01:08.000Z</time>
      </trkpt>
      <trkpt lat="44.56681" lon="4.33915">
        <ele>351</ele>
        <time>2016-05-15T12:01:09.000Z</time>
      </trkpt>
      <trkpt lat="44.56681" lon="4.33914">
        <ele>351</ele>
        <time>2016-05-15T12:01:10.000Z</time>
      </trkpt>
      <trkpt lat="44.56681" lon="4.33912">
        <ele>351</ele>
        <time>2016-05-15T12:01:11.000Z</time>
      </trkpt>
      <trkpt lat="44.56681" lon="4.33911">
        <ele>351</ele>
        <time>2016-05-15T12:01:12.000Z</time>
      </trkpt>
      <trkpt lat="44.56679" lon="4.33908">
        <ele>351</ele>
        <time>2016-05-15T12:01:13.000Z</time>
      </trkpt>
      <trkpt lat="44.56677" lon="4.33905">
        <ele>351</ele>
        <time>2016-05-15T12:01:14.000Z</time>
      </trkpt>
      <trkpt lat="44.56673" lon="4.33903">
        <ele>351</ele>
        <time>2016-05-15T12:01:15.000Z</time>
      </trkpt>
      <trkpt lat="44.5667" lon="4.33901">
        <ele>351</ele>
        <time>2016-05-15T12:01:16.000Z</time>
      </trkpt>
      <trkpt lat="44.56667" lon="4.33901">
        <ele>350</ele>
        <time>2016-05-15T12:01:17.000Z</time>
      </trkpt>
      <trkpt lat="44.56664" lon="4.33899">
        <ele>343</ele>
        <time>2016-05-15T12:01:18.000Z</time>
      </trkpt>
      <trkpt lat="44.56661" lon="4.33895">
        <ele>342</ele>
        <time>2016-05-15T12:01:19.000Z</time>
      </trkpt>
      <trkpt lat="44.56659" lon="4.33892">
        <ele>341</ele>
        <time>2016-05-15T12:01:20.000Z</time>
      </trkpt>
      <trkpt lat="44.56658" lon="4.33889">
        <ele>340</ele>
        <time>2016-05-15T12:01:21.000Z</time>
      </trkpt>
      <trkpt lat="44.56658" lon="4.33886">
        <ele>339</ele>
        <time>2016-05-15T12:01:22.000Z</time>
      </trkpt>
      <trkpt lat="44.56659" lon="4.33883">
        <ele>339</ele>
        <time>2016-05-15T12:01:23.000Z</time>
      </trkpt>
      <trkpt lat="44.5666" lon="4.3388">
        <ele>339</ele>
        <time>2016-05-15T12:01:24.000Z</time>
      </trkpt>
      <trkpt lat="44.56662" lon="4.33877">
        <ele>338</ele>
        <time>2016-05-15T12:01:25.000Z</time>
      </trkpt>
      <trkpt lat="44.56664" lon="4.33873">
        <ele>338</ele>
        <time>2016-05-15T12:01:26.000Z</time>
      </trkpt>
      <trkpt lat="44.56667" lon="4.33867">
        <ele>347</ele>
        <time>2016-05-15T12:01:27.000Z</time>
      </trkpt>
      <trkpt lat="44.5667" lon="4.33864">
        <ele>346</ele>
        <time>2016-05-15T12:01:28.000Z</time>
      </trkpt>
      <trkpt lat="44.56673" lon="4.33862">
        <ele>346</ele>
        <time>2016-05-15T12:01:29.000Z</time>
      </trkpt>
      <trkpt lat="44.56675" lon="4.33861">
        <ele>346</ele>
        <time>2016-05-15T12:01:30.000Z</time>
      </trkpt>
      <trkpt lat="44.56678" lon="4.3386">
        <ele>346</ele>
        <time>2016-05-15T12:01:31.000Z</time>
      </trkpt>
      <trkpt lat="44.5668" lon="4.33859">
        <ele>346</ele>
        <time>2016-05-15T12:01:32.000Z</time>
      </trkpt>
      <trkpt lat="44.56683" lon="4.33859">
        <ele>346</ele>
        <time>2016-05-15T12:01:33.000Z</time>
      </trkpt>
      <trkpt lat="44.56686" lon="4.33858">
        <ele>347</ele>
        <time>2016-05-15T12:01:34.000Z</time>
      </trkpt>
      <trkpt lat="44.5669" lon="4.33857">
        <ele>347</ele>
        <time>2016-05-15T12:01:35.000Z</time>
      </trkpt>
      <trkpt lat="44.56693" lon="4.33857">
        <ele>347</ele>
        <time>2016-05-15T12:01:36.000Z</time>
      </trkpt>
      <trkpt lat="44.56696" lon="4.33857">
        <ele>348</ele>
        <time>2016-05-15T12:01:37.000Z</time>
      </trkpt>
      <trkpt lat="44.56698" lon="4.33856">
        <ele>348</ele>
        <time>2016-05-15T12:01:38.000Z</time>
      </trkpt>
      <trkpt lat="44.56701" lon="4.33855">
        <ele>348</ele>
        <time>2016-05-15T12:01:39.000Z</time>
      </trkpt>
      <trkpt lat="44.56704" lon="4.33855">
        <ele>348</ele>
        <time>2016-05-15T12:01:40.000Z</time>
      </trkpt>
      <trkpt lat="44.56707" lon="4.33855">
        <ele>349</ele>
        <time>2016-05-15T12:01:41.000Z</time>
      </trkpt>
      <trkpt lat="44.5671" lon="4.33856">
        <ele>349</ele>
        <time>2016-05-15T12:01:42.000Z</time>
      </trkpt>
      <trkpt lat="44.56712" lon="4.33857">
        <ele>349</ele>
        <time>2016-05-15T12:01:43.000Z</time>
      </trkpt>
      <trkpt lat="44.56715" lon="4.33857">
        <ele>350</ele>
        <time>2016-05-15T12:01:44.000Z</time>
      </trkpt>
      <trkpt lat="44.56717" lon="4.33858">
        <ele>350</ele>
        <time>2016-05-15T12:01:45.000Z</time>
      </trkpt>
      <trkpt lat="44.56719" lon="4.33858">
        <ele>350</ele>
        <time>2016-05-15T12:01:46.000Z</time>
      </trkpt>
      <trkpt lat="44.56721" lon="4.33859">
        <ele>350</ele>
        <time>2016-05-15T12:01:47.000Z</time>
      </trkpt>
      <trkpt lat="44.56723" lon="4.33859">
        <ele>350</ele>
        <time>2016-05-15T12:01:48.000Z</time>
      </trkpt>
      <trkpt lat="44.56725" lon="4.33859">
        <ele>351</ele>
        <time>2016-05-15T12:01:49.000Z</time>
      </trkpt>
      <trkpt lat="44.56727" lon="4.3386">
        <ele>351</ele>
        <time>2016-05-15T12:01:50.000Z</time>
      </trkpt>
      <trkpt lat="44.56729" lon="4.3386">
        <ele>351</ele>
        <time>2016-05-15T12:01:51.000Z</time>
      </trkpt>
      <trkpt lat="44.56731" lon="4.3386">
        <ele>351</ele>
        <time>2016-05-15T12:01:52.000Z</time>
      </trkpt>
      <trkpt lat="44.56732" lon="4.33861">
        <ele>351</ele>
        <time>2016-05-15T12:01:53.000Z</time>
      </trkpt>
      <trkpt lat="44.56735" lon="4.33861">
        <ele>351</ele>
        <time>2016-05-15T12:01:54.000Z</time>
      </trkpt>
      <trkpt lat="44.56737" lon="4.33861">
        <ele>351</ele>
        <time>2016-05-15T12:01:55.000Z</time>
      </trkpt>
      <trkpt lat="44.56739" lon="4.3386">
        <ele>351</ele>
        <time>2016-05-15T12:01:56.000Z</time>
      </trkpt>
      <trkpt lat="44.56741" lon="4.3386">
        <ele>351</ele>
        <time>2016-05-15T12:01:57.000Z</time>
      </trkpt>
      <trkpt lat="44.56742" lon="4.3386">
        <ele>351</ele>
        <time>2016-05-15T12:01:58.000Z</time>
      </trkpt>
      <trkpt lat="44.56743" lon="4.33859">
        <ele>351</ele>
        <time>2016-05-15T12:01:59.000Z</time>
      </trkpt>
      <trkpt lat="44.56745" lon="4.33859">
        <ele>351</ele>
        <time>2016-05-15T12:02:00.000Z</time>
      </trkpt>
      <trkpt lat="44.56747" lon="4.33859">
        <ele>351</ele>
        <time>2016-05-15T12:02:01.000Z</time>
      </trkpt>
      <trkpt lat="44.56749" lon="4.33859">
        <ele>351</ele>
        <time>2016-05-15T12:02:02.000Z</time>
      </trkpt>
      <trkpt lat="44.56751" lon="4.33859">
        <ele>360</ele>
        <time>2016-05-15T12:02:03.000Z</time>
      </trkpt>
      <trkpt lat="44.56753" lon="4.33859">
        <ele>360</ele>
        <time>2016-05-15T12:02:04.000Z</time>
      </trkpt>
      <trkpt lat="44.56755" lon="4.33858">
        <ele>360</ele>
        <time>2016-05-15T12:02:05.000Z</time>
      </trkpt>
      <trkpt lat="44.56757" lon="4.33858">
        <ele>361</ele>
        <time>2016-05-15T12:02:06.000Z</time>
      </trkpt>
      <trkpt lat="44.56758" lon="4.33858">
        <ele>361</ele>
        <time>2016-05-15T12:02:07.000Z</time>
      </trkpt>
      <trkpt lat="44.5676" lon="4.33858">
        <ele>361</ele>
        <time>2016-05-15T12:02:08.000Z</time>
      </trkpt>
      <trkpt lat="44.56762" lon="4.33857">
        <ele>361</ele>
        <time>2016-05-15T12:02:09.000Z</time>
      </trkpt>
      <trkpt lat="44.56765" lon="4.33857">
        <ele>361</ele>
        <time>2016-05-15T12:02:10.000Z</time>
      </trkpt>
      <trkpt lat="44.56768" lon="4.33857">
        <ele>362</ele>
        <time>2016-05-15T12:02:11.000Z</time>
      </trkpt>
      <trkpt lat="44.56771" lon="4.33857">
        <ele>362</ele>
        <time>2016-05-15T12:02:12.000Z</time>
      </trkpt>
      <trkpt lat="44.56773" lon="4.33856">
        <ele>362</ele>
        <time>2016-05-15T12:02:13.000Z</time>
      </trkpt>
      <trkpt lat="44.56776" lon="4.33854">
        <ele>363</ele>
        <time>2016-05-15T12:02:14.000Z</time>
      </trkpt>
      <trkpt lat="44.56778" lon="4.33854">
        <ele>363</ele>
        <time>2016-05-15T12:02:15.000Z</time>
      </trkpt>
      <trkpt lat="44.5678" lon="4.33852">
        <ele>363</ele>
        <time>2016-05-15T12:02:16.000Z</time>
      </trkpt>
      <trkpt lat="44.56782" lon="4.33851">
        <ele>363</ele>
        <time>2016-05-15T12:02:17.000Z</time>
      </trkpt>
      <trkpt lat="44.56784" lon="4.33849">
        <ele>363</ele>
        <time>2016-05-15T12:02:18.000Z</time>
      </trkpt>
      <trkpt lat="44.56786" lon="4.33847">
        <ele>364</ele>
        <time>2016-05-15T12:02:19.000Z</time>
      </trkpt>
      <trkpt lat="44.56788" lon="4.33845">
        <ele>364</ele>
        <time>2016-05-15T12:02:20.000Z</time>
      </trkpt>
      <trkpt lat="44.5679" lon="4.33843">
        <ele>364</ele>
        <time>2016-05-15T12:02:21.000Z</time>
      </trkpt>
      <trkpt lat="44.56791" lon="4.3384">
        <ele>364</ele>
        <time>2016-05-15T12:02:22.000Z</time>
      </trkpt>
      <trkpt lat="44.56793" lon="4.33838">
        <ele>364</ele>
        <time>2016-05-15T12:02:23.000Z</time>
      </trkpt>
      <trkpt lat="44.56795" lon="4.33836">
        <ele>364</ele>
        <time>2016-05-15T12:02:24.000Z</time>
      </trkpt>
      <trkpt lat="44.56797" lon="4.33834">
        <ele>364</ele>
        <time>2016-05-15T12:02:25.000Z</time>
      </trkpt>
      <trkpt lat="44.56799" lon="4.33831">
        <ele>359</ele>
        <time>2016-05-15T12:02:26.000Z</time>
      </trkpt>
      <trkpt lat="44.568" lon="4.33829">
        <ele>359</ele>
        <time>2016-05-15T12:02:27.000Z</time>
      </trkpt>
      <trkpt lat="44.56803" lon="4.33827">
        <ele>359</ele>
        <time>2016-05-15T12:02:28.000Z</time>
      </trkpt>
      <trkpt lat="44.56805" lon="4.33825">
        <ele>360</ele>
        <time>2016-05-15T12:02:29.000Z</time>
      </trkpt>
      <trkpt lat="44.56807" lon="4.33823">
        <ele>360</ele>
        <time>2016-05-15T12:02:30.000Z</time>
      </trkpt>
      <trkpt lat="44.56809" lon="4.3382">
        <ele>360</ele>
        <time>2016-05-15T12:02:31.000Z</time>
      </trkpt>
      <trkpt lat="44.56811" lon="4.33818">
        <ele>360</ele>
        <time>2016-05-15T12:02:32.000Z</time>
      </trkpt>
      <trkpt lat="44.56812" lon="4.33815">
        <ele>360</ele>
        <time>2016-05-15T12:02:33.000Z</time>
      </trkpt>
      <trkpt lat="44.56814" lon="4.33811">
        <ele>360</ele>
        <time>2016-05-15T12:02:34.000Z</time>
      </trkpt>
      <trkpt lat="44.56815" lon="4.33807">
        <ele>360</ele>
        <time>2016-05-15T12:02:35.000Z</time>
      </trkpt>
      <trkpt lat="44.56816" lon="4.33803">
        <ele>360</ele>
        <time>2016-05-15T12:02:36.000Z</time>
      </trkpt>
      <trkpt lat="44.56818" lon="4.33799">
        <ele>360</ele>
        <time>2016-05-15T12:02:37.000Z</time>
      </trkpt>
      <trkpt lat="44.56819" lon="4.33795">
        <ele>360</ele>
        <time>2016-05-15T12:02:38.000Z</time>
      </trkpt>
      <trkpt lat="44.5682" lon="4.33791">
        <ele>360</ele>
        <time>2016-05-15T12:02:39.000Z</time>
      </trkpt>
      <trkpt lat="44.56821" lon="4.33788">
        <ele>360</ele>
        <time>2016-05-15T12:02:40.000Z</time>
      </trkpt>
      <trkpt lat="44.56822" lon="4.33785">
        <ele>360</ele>
        <time>2016-05-15T12:02:41.000Z</time>
      </trkpt>
      <trkpt lat="44.56823" lon="4.33782">
        <ele>360</ele>
        <time>2016-05-15T12:02:42.000Z</time>
      </trkpt>
      <trkpt lat="44.56824" lon="4.33779">
        <ele>360</ele>
        <time>2016-05-15T12:02:43.000Z</time>
      </trkpt>
      <trkpt lat="44.56826" lon="4.33776">
        <ele>360</ele>
        <time>2016-05-15T12:02:44.000Z</time>
      </trkpt>
      <trkpt lat="44.56827" lon="4.33773">
        <ele>360</ele>
        <time>2016-05-15T12:02:45.000Z</time>
      </trkpt>
      <trkpt lat="44.56829" lon="4.33771">
        <ele>361</ele>
        <time>2016-05-15T12:02:46.000Z</time>
      </trkpt>
      <trkpt lat="44.5683" lon="4.33768">
        <ele>361</ele>
        <time>2016-05-15T12:02:47.000Z</time>
      </trkpt>
      <trkpt lat="44.56831" lon="4.33766">
        <ele>361</ele>
        <time>2016-05-15T12:02:48.000Z</time>
      </trkpt>
      <trkpt lat="44.56833" lon="4.33764">
        <ele>361</ele>
        <time>2016-05-15T12:02:49.000Z</time>
      </trkpt>
      <trkpt lat="44.56834" lon="4.33761">
        <ele>370</ele>
        <time>2016-05-15T12:02:50.000Z</time>
      </trkpt>
      <trkpt lat="44.56835" lon="4.33758">
        <ele>368</ele>
        <time>2016-05-15T12:02:51.000Z</time>
      </trkpt>
      <trkpt lat="44.56836" lon="4.33755">
        <ele>367</ele>
        <time>2016-05-15T12:02:52.000Z</time>
      </trkpt>
      <trkpt lat="44.56835" lon="4.33752">
        <ele>366</ele>
        <time>2016-05-15T12:02:53.000Z</time>
      </trkpt>
      <trkpt lat="44.56834" lon="4.33749">
        <ele>365</ele>
        <time>2016-05-15T12:02:54.000Z</time>
      </trkpt>
      <trkpt lat="44.56831" lon="4.33748">
        <ele>364</ele>
        <time>2016-05-15T12:02:55.000Z</time>
      </trkpt>
      <trkpt lat="44.56828" lon="4.33746">
        <ele>364</ele>
        <time>2016-05-15T12:02:56.000Z</time>
      </trkpt>
      <trkpt lat="44.56825" lon="4.33746">
        <ele>364</ele>
        <time>2016-05-15T12:02:57.000Z</time>
      </trkpt>
      <trkpt lat="44.56822" lon="4.33746">
        <ele>364</ele>
        <time>2016-05-15T12:02:58.000Z</time>
      </trkpt>
      <trkpt lat="44.56818" lon="4.33745">
        <ele>364</ele>
        <time>2016-05-15T12:02:59.000Z</time>
      </trkpt>
      <trkpt lat="44.56814" lon="4.33745">
        <ele>363</ele>
        <time>2016-05-15T12:03:00.000Z</time>
      </trkpt>
      <trkpt lat="44.56811" lon="4.33745">
        <ele>363</ele>
        <time>2016-05-15T12:03:01.000Z</time>
      </trkpt>
      <trkpt lat="44.56808" lon="4.33744">
        <ele>363</ele>
        <time>2016-05-15T12:03:02.000Z</time>
      </trkpt>
      <trkpt lat="44.56804" lon="4.33743">
        <ele>363</ele>
        <time>2016-05-15T12:03:03.000Z</time>
      </trkpt>
      <trkpt lat="44.56801" lon="4.3374">
        <ele>363</ele>
        <time>2016-05-15T12:03:04.000Z</time>
      </trkpt>
      <trkpt lat="44.56799" lon="4.33737">
        <ele>362</ele>
        <time>2016-05-15T12:03:05.000Z</time>
      </trkpt>
      <trkpt lat="44.56798" lon="4.33734">
        <ele>362</ele>
        <time>2016-05-15T12:03:06.000Z</time>
      </trkpt>
      <trkpt lat="44.56797" lon="4.3373">
        <ele>363</ele>
        <time>2016-05-15T12:03:07.000Z</time>
      </trkpt>
      <trkpt lat="44.56797" lon="4.33727">
        <ele>363</ele>
        <time>2016-05-15T12:03:08.000Z</time>
      </trkpt>
      <trkpt lat="44.56798" lon="4.33724">
        <ele>363</ele>
        <time>2016-05-15T12:03:09.000Z</time>
      </trkpt>
      <trkpt lat="44.56799" lon="4.33722">
        <ele>363</ele>
        <time>2016-05-15T12:03:10.000Z</time>
      </trkpt>
      <trkpt lat="44.568" lon="4.33721">
        <ele>364</ele>
        <time>2016-05-15T12:03:11.000Z</time>
      </trkpt>
      <trkpt lat="44.56803" lon="4.33721">
        <ele>364</ele>
        <time>2016-05-15T12:03:12.000Z</time>
      </trkpt>
      <trkpt lat="44.56805" lon="4.33721">
        <ele>364</ele>
        <time>2016-05-15T12:03:13.000Z</time>
      </trkpt>
      <trkpt lat="44.56808" lon="4.33722">
        <ele>364</ele>
        <time>2016-05-15T12:03:14.000Z</time>
      </trkpt>
      <trkpt lat="44.5681" lon="4.33724">
        <ele>364</ele>
        <time>2016-05-15T12:03:15.000Z</time>
      </trkpt>
      <trkpt lat="44.56812" lon="4.33726">
        <ele>364</ele>
        <time>2016-05-15T12:03:16.000Z</time>
      </trkpt>
      <trkpt lat="44.56814" lon="4.33727">
        <ele>364</ele>
        <time>2016-05-15T12:03:17.000Z</time>
      </trkpt>
      <trkpt lat="44.56817" lon="4.33727">
        <ele>364</ele>
        <time>2016-05-15T12:03:18.000Z</time>
      </trkpt>
      <trkpt lat="44.56819" lon="4.33726">
        <ele>365</ele>
        <time>2016-05-15T12:03:19.000Z</time>
      </trkpt>
      <trkpt lat="44.5682" lon="4.33725">
        <ele>365</ele>
        <time>2016-05-15T12:03:20.000Z</time>
      </trkpt>
      <trkpt lat="44.56821" lon="4.33723">
        <ele>365</ele>
        <time>2016-05-15T12:03:21.000Z</time>
      </trkpt>
      <trkpt lat="44.56822" lon="4.33721">
        <ele>365</ele>
        <time>2016-05-15T12:03:22.000Z</time>
      </trkpt>
      <trkpt lat="44.56821" lon="4.33719">
        <ele>365</ele>
        <time>2016-05-15T12:03:23.000Z</time>
      </trkpt>
      <trkpt lat="44.5682" lon="4.33717">
        <ele>365</ele>
        <time>2016-05-15T12:03:24.000Z</time>
      </trkpt>
      <trkpt lat="44.56818" lon="4.33715">
        <ele>366</ele>
        <time>2016-05-15T12:03:25.000Z</time>
      </trkpt>
      <trkpt lat="44.56817" lon="4.33713">
        <ele>366</ele>
        <time>2016-05-15T12:03:26.000Z</time>
      </trkpt>
      <trkpt lat="44.56816" lon="4.33711">
        <ele>366</ele>
        <time>2016-05-15T12:03:27.000Z</time>
      </trkpt>
      <trkpt lat="44.56814" lon="4.33708">
        <ele>366</ele>
        <time>2016-05-15T12:03:28.000Z</time>
      </trkpt>
      <trkpt lat="44.56813" lon="4.33705">
        <ele>366</ele>
        <time>2016-05-15T12:03:29.000Z</time>
      </trkpt>
      <trkpt lat="44.56811" lon="4.33703">
        <ele>367</ele>
        <time>2016-05-15T12:03:30.000Z</time>
      </trkpt>
      <trkpt lat="44.5681" lon="4.33699">
        <ele>367</ele>
        <time>2016-05-15T12:03:31.000Z</time>
      </trkpt>
      <trkpt lat="44.56809" lon="4.33696">
        <ele>367</ele>
        <time>2016-05-15T12:03:32.000Z</time>
      </trkpt>
      <trkpt lat="44.56807" lon="4.33693">
        <ele>367</ele>
        <time>2016-05-15T12:03:33.000Z</time>
      </trkpt>
      <trkpt lat="44.56805" lon="4.3369">
        <ele>367</ele>
        <time>2016-05-15T12:03:34.000Z</time>
      </trkpt>
      <trkpt lat="44.56803" lon="4.33688">
        <ele>367</ele>
        <time>2016-05-15T12:03:35.000Z</time>
      </trkpt>
      <trkpt lat="44.56801" lon="4.33685">
        <ele>367</ele>
        <time>2016-05-15T12:03:36.000Z</time>
      </trkpt>
      <trkpt lat="44.56799" lon="4.33683">
        <ele>367</ele>
        <time>2016-05-15T12:03:37.000Z</time>
      </trkpt>
      <trkpt lat="44.56797" lon="4.33682">
        <ele>367</ele>
        <time>2016-05-15T12:03:38.000Z</time>
      </trkpt>
      <trkpt lat="44.56795" lon="4.3368">
        <ele>367</ele>
        <time>2016-05-15T12:03:39.000Z</time>
      </trkpt>
      <trkpt lat="44.56793" lon="4.33678">
        <ele>366</ele>
        <time>2016-05-15T12:03:40.000Z</time>
      </trkpt>
      <trkpt lat="44.56791" lon="4.33676">
        <ele>366</ele>
        <time>2016-05-15T12:03:41.000Z</time>
      </trkpt>
      <trkpt lat="44.56789" lon="4.33673">
        <ele>366</ele>
        <time>2016-05-15T12:03:42.000Z</time>
      </trkpt>
      <trkpt lat="44.56787" lon="4.33671">
        <ele>366</ele>
        <time>2016-05-15T12:03:43.000Z</time>
      </trkpt>
      <trkpt lat="44.56785" lon="4.33669">
        <ele>365</ele>
        <time>2016-05-15T12:03:44.000Z</time>
      </trkpt>
      <trkpt lat="44.56783" lon="4.33667">
        <ele>365</ele>
        <time>2016-05-15T12:03:45.000Z</time>
      </trkpt>
      <trkpt lat="44.56781" lon="4.33665">
        <ele>372</ele>
        <time>2016-05-15T12:03:46.000Z</time>
      </trkpt>
      <trkpt lat="44.56779" lon="4.33663">
        <ele>372</ele>
        <time>2016-05-15T12:03:47.000Z</time>
      </trkpt>
      <trkpt lat="44.56777" lon="4.33662">
        <ele>371</ele>
        <time>2016-05-15T12:03:48.000Z</time>
      </trkpt>
      <trkpt lat="44.56775" lon="4.3366">
        <ele>371</ele>
        <time>2016-05-15T12:03:49.000Z</time>
      </trkpt>
      <trkpt lat="44.56773" lon="4.33659">
        <ele>371</ele>
        <time>2016-05-15T12:03:50.000Z</time>
      </trkpt>
      <trkpt lat="44.56771" lon="4.33658">
        <ele>370</ele>
        <time>2016-05-15T12:03:51.000Z</time>
      </trkpt>
      <trkpt lat="44.56769" lon="4.33656">
        <ele>370</ele>
        <time>2016-05-15T12:03:52.000Z</time>
      </trkpt>
      <trkpt lat="44.56767" lon="4.33655">
        <ele>369</ele>
        <time>2016-05-15T12:03:53.000Z</time>
      </trkpt>
      <trkpt lat="44.56766" lon="4.33653">
        <ele>369</ele>
        <time>2016-05-15T12:03:54.000Z</time>
      </trkpt>
      <trkpt lat="44.56764" lon="4.33651">
        <ele>369</ele>
        <time>2016-05-15T12:03:55.000Z</time>
      </trkpt>
      <trkpt lat="44.56763" lon="4.33648">
        <ele>370</ele>
        <time>2016-05-15T12:03:56.000Z</time>
      </trkpt>
      <trkpt lat="44.56762" lon="4.33646">
        <ele>370</ele>
        <time>2016-05-15T12:03:57.000Z</time>
      </trkpt>
      <trkpt lat="44.56762" lon="4.33642">
        <ele>371</ele>
        <time>2016-05-15T12:03:58.000Z</time>
      </trkpt>
      <trkpt lat="44.56762" lon="4.33639">
        <ele>371</ele>
        <time>2016-05-15T12:03:59.000Z</time>
      </trkpt>
      <trkpt lat="44.56762" lon="4.33636">
        <ele>372</ele>
        <time>2016-05-15T12:04:00.000Z</time>
      </trkpt>
      <trkpt lat="44.56761" lon="4.33633">
        <ele>372</ele>
        <time>2016-05-15T12:04:01.000Z</time>
      </trkpt>
      <trkpt lat="44.56761" lon="4.33629">
        <ele>372</ele>
        <time>2016-05-15T12:04:02.000Z</time>
      </trkpt>
      <trkpt lat="44.56761" lon="4.33625">
        <ele>373</ele>
        <time>2016-05-15T12:04:03.000Z</time>
      </trkpt>
      <trkpt lat="44.56761" lon="4.3362">
        <ele>373</ele>
        <time>2016-05-15T12:04:04.000Z</time>
      </trkpt>
      <trkpt lat="44.56761" lon="4.33616">
        <ele>373</ele>
        <time>2016-05-15T12:04:05.000Z</time>
      </trkpt>
      <trkpt lat="44.56761" lon="4.33612">
        <ele>373</ele>
        <time>2016-05-15T12:04:06.000Z</time>
      </trkpt>
      <trkpt lat="44.56761" lon="4.33607">
        <ele>373</ele>
        <time>2016-05-15T12:04:07.000Z</time>
      </trkpt>
      <trkpt lat="44.56761" lon="4.33603">
        <ele>373</ele>
        <time>2016-05-15T12:04:08.000Z</time>
      </trkpt>
      <trkpt lat="44.56761" lon="4.33598">
        <ele>372</ele>
        <time>2016-05-15T12:04:09.000Z</time>
      </trkpt>
      <trkpt lat="44.56761" lon="4.33594">
        <ele>372</ele>
        <time>2016-05-15T12:04:10.000Z</time>
      </trkpt>
      <trkpt lat="44.56761" lon="4.3359">
        <ele>372</ele>
        <time>2016-05-15T12:04:11.000Z</time>
      </trkpt>
      <trkpt lat="44.56761" lon="4.33586">
        <ele>371</ele>
        <time>2016-05-15T12:04:12.000Z</time>
      </trkpt>
      <trkpt lat="44.56761" lon="4.33582">
        <ele>373</ele>
        <time>2016-05-15T12:04:13.000Z</time>
      </trkpt>
      <trkpt lat="44.56761" lon="4.33578">
        <ele>373</ele>
        <time>2016-05-15T12:04:14.000Z</time>
      </trkpt>
      <trkpt lat="44.56761" lon="4.33574">
        <ele>374</ele>
        <time>2016-05-15T12:04:15.000Z</time>
      </trkpt>
      <trkpt lat="44.56761" lon="4.3357">
        <ele>374</ele>
        <time>2016-05-15T12:04:16.000Z</time>
      </trkpt>
      <trkpt lat="44.56761" lon="4.33566">
        <ele>375</ele>
        <time>2016-05-15T12:04:17.000Z</time>
      </trkpt>
      <trkpt lat="44.56761" lon="4.33562">
        <ele>375</ele>
        <time>2016-05-15T12:04:18.000Z</time>
      </trkpt>
      <trkpt lat="44.56761" lon="4.33558">
        <ele>376</ele>
        <time>2016-05-15T12:04:19.000Z</time>
      </trkpt>
      <trkpt lat="44.56761" lon="4.33554">
        <ele>376</ele>
        <time>2016-05-15T12:04:20.000Z</time>
      </trkpt>
      <trkpt lat="44.56761" lon="4.33551">
        <ele>376</ele>
        <time>2016-05-15T12:04:21.000Z</time>
      </trkpt>
      <trkpt lat="44.56762" lon="4.33547">
        <ele>376</ele>
        <time>2016-05-15T12:04:22.000Z</time>
      </trkpt>
      <trkpt lat="44.56762" lon="4.33544">
        <ele>376</ele>
        <time>2016-05-15T12:04:23.000Z</time>
      </trkpt>
      <trkpt lat="44.56763" lon="4.3354">
        <ele>376</ele>
        <time>2016-05-15T12:04:24.000Z</time>
      </trkpt>
      <trkpt lat="44.56764" lon="4.33536">
        <ele>376</ele>
        <time>2016-05-15T12:04:25.000Z</time>
      </trkpt>
      <trkpt lat="44.56765" lon="4.33533">
        <ele>376</ele>
        <time>2016-05-15T12:04:26.000Z</time>
      </trkpt>
      <trkpt lat="44.56766" lon="4.3353">
        <ele>376</ele>
        <time>2016-05-15T12:04:27.000Z</time>
      </trkpt>
      <trkpt lat="44.56766" lon="4.33527">
        <ele>376</ele>
        <time>2016-05-15T12:04:28.000Z</time>
      </trkpt>
      <trkpt lat="44.56768" lon="4.33523">
        <ele>376</ele>
        <time>2016-05-15T12:04:29.000Z</time>
      </trkpt>
      <trkpt lat="44.56769" lon="4.33519">
        <ele>375</ele>
        <time>2016-05-15T12:04:30.000Z</time>
      </trkpt>
      <trkpt lat="44.5677" lon="4.33516">
        <ele>375</ele>
        <time>2016-05-15T12:04:31.000Z</time>
      </trkpt>
      <trkpt lat="44.56771" lon="4.33513">
        <ele>375</ele>
        <time>2016-05-15T12:04:32.000Z</time>
      </trkpt>
      <trkpt lat="44.56773" lon="4.3351">
        <ele>375</ele>
        <time>2016-05-15T12:04:33.000Z</time>
      </trkpt>
      <trkpt lat="44.56774" lon="4.33507">
        <ele>376</ele>
        <time>2016-05-15T12:04:34.000Z</time>
      </trkpt>
      <trkpt lat="44.56776" lon="4.33504">
        <ele>376</ele>
        <time>2016-05-15T12:04:35.000Z</time>
      </trkpt>
      <trkpt lat="44.56778" lon="4.33501">
        <ele>376</ele>
        <time>2016-05-15T12:04:36.000Z</time>
      </trkpt>
      <trkpt lat="44.5678" lon="4.33498">
        <ele>373</ele>
        <time>2016-05-15T12:04:37.000Z</time>
      </trkpt>
      <trkpt lat="44.56781" lon="4.33496">
        <ele>373</ele>
        <time>2016-05-15T12:04:38.000Z</time>
      </trkpt>
      <trkpt lat="44.56783" lon="4.33493">
        <ele>374</ele>
        <time>2016-05-15T12:04:39.000Z</time>
      </trkpt>
      <trkpt lat="44.56785" lon="4.33491">
        <ele>374</ele>
        <time>2016-05-15T12:04:40.000Z</time>
      </trkpt>
      <trkpt lat="44.56787" lon="4.33488">
        <ele>374</ele>
        <time>2016-05-15T12:04:41.000Z</time>
      </trkpt>
      <trkpt lat="44.56789" lon="4.33486">
        <ele>375</ele>
        <time>2016-05-15T12:04:42.000Z</time>
      </trkpt>
      <trkpt lat="44.56791" lon="4.33483">
        <ele>375</ele>
        <time>2016-05-15T12:04:43.000Z</time>
      </trkpt>
      <trkpt lat="44.56794" lon="4.33481">
        <ele>375</ele>
        <time>2016-05-15T12:04:44.000Z</time>
      </trkpt>
      <trkpt lat="44.56796" lon="4.33479">
        <ele>376</ele>
        <time>2016-05-15T12:04:45.000Z</time>
      </trkpt>
      <trkpt lat="44.56798" lon="4.33477">
        <ele>376</ele>
        <time>2016-05-15T12:04:46.000Z</time>
      </trkpt>
      <trkpt lat="44.568" lon="4.33475">
        <ele>376</ele>
        <time>2016-05-15T12:04:47.000Z</time>
      </trkpt>
      <trkpt lat="44.56802" lon="4.33473">
        <ele>376</ele>
        <time>2016-05-15T12:04:48.000Z</time>
      </trkpt>
      <trkpt lat="44.56804" lon="4.33472">
        <ele>377</ele>
        <time>2016-05-15T12:04:49.000Z</time>
      </trkpt>
      <trkpt lat="44.56806" lon="4.3347">
        <ele>377</ele>
        <time>2016-05-15T12:04:50.000Z</time>
      </trkpt>
      <trkpt lat="44.56808" lon="4.33468">
        <ele>377</ele>
        <time>2016-05-15T12:04:51.000Z</time>
      </trkpt>
      <trkpt lat="44.5681" lon="4.33466">
        <ele>377</ele>
        <time>2016-05-15T12:04:52.000Z</time>
      </trkpt>
      <trkpt lat="44.56812" lon="4.33464">
        <ele>377</ele>
        <time>2016-05-15T12:04:53.000Z</time>
      </trkpt>
      <trkpt lat="44.56814" lon="4.33463">
        <ele>377</ele>
        <time>2016-05-15T12:04:54.000Z</time>
      </trkpt>
      <trkpt lat="44.56815" lon="4.3346">
        <ele>377</ele>
        <time>2016-05-15T12:04:55.000Z</time>
      </trkpt>
      <trkpt lat="44.56817" lon="4.33458">
        <ele>377</ele>
        <time>2016-05-15T12:04:56.000Z</time>
      </trkpt>
      <trkpt lat="44.56819" lon="4.33456">
        <ele>377</ele>
        <time>2016-05-15T12:04:57.000Z</time>
      </trkpt>
      <trkpt lat="44.56821" lon="4.33454">
        <ele>377</ele>
        <time>2016-05-15T12:04:58.000Z</time>
      </trkpt>
      <trkpt lat="44.56823" lon="4.33452">
        <ele>377</ele>
        <time>2016-05-15T12:04:59.000Z</time>
      </trkpt>
      <trkpt lat="44.56825" lon="4.33451">
        <ele>377</ele>
        <time>2016-05-15T12:05:00.000Z</time>
      </trkpt>
      <trkpt lat="44.56827" lon="4.33449">
        <ele>377</ele>
        <time>2016-05-15T12:05:01.000Z</time>
      </trkpt>
      <trkpt lat="44.5683" lon="4.33447">
        <ele>377</ele>
        <time>2016-05-15T12:05:02.000Z</time>
      </trkpt>
      <trkpt lat="44.56832" lon="4.33445">
        <ele>377</ele>
        <time>2016-05-15T12:05:03.000Z</time>
      </trkpt>
      <trkpt lat="44.56834" lon="4.33444">
        <ele>391</ele>
        <time>2016-05-15T12:05:04.000Z</time>
      </trkpt>
      <trkpt lat="44.56836" lon="4.33442">
        <ele>391</ele>
        <time>2016-05-15T12:05:05.000Z</time>
      </trkpt>
      <trkpt lat="44.56838" lon="4.33441">
        <ele>391</ele>
        <time>2016-05-15T12:05:06.000Z</time>
      </trkpt>
      <trkpt lat="44.5684" lon="4.33439">
        <ele>391</ele>
        <time>2016-05-15T12:05:07.000Z</time>
      </trkpt>
      <trkpt lat="44.56842" lon="4.33437">
        <ele>391</ele>
        <time>2016-05-15T12:05:08.000Z</time>
      </trkpt>
      <trkpt lat="44.56844" lon="4.33435">
        <ele>390</ele>
        <time>2016-05-15T12:05:09.000Z</time>
      </trkpt>
      <trkpt lat="44.56846" lon="4.33433">
        <ele>390</ele>
        <time>2016-05-15T12:05:10.000Z</time>
      </trkpt>
      <trkpt lat="44.56848" lon="4.33431">
        <ele>390</ele>
        <time>2016-05-15T12:05:11.000Z</time>
      </trkpt>
      <trkpt lat="44.5685" lon="4.33429">
        <ele>390</ele>
        <time>2016-05-15T12:05:12.000Z</time>
      </trkpt>
      <trkpt lat="44.56852" lon="4.33427">
        <ele>391</ele>
        <time>2016-05-15T12:05:13.000Z</time>
      </trkpt>
      <trkpt lat="44.56854" lon="4.33425">
        <ele>391</ele>
        <time>2016-05-15T12:05:14.000Z</time>
      </trkpt>
      <trkpt lat="44.56856" lon="4.33422">
        <ele>392</ele>
        <time>2016-05-15T12:05:15.000Z</time>
      </trkpt>
      <trkpt lat="44.56859" lon="4.33421">
        <ele>392</ele>
        <time>2016-05-15T12:05:16.000Z</time>
      </trkpt>
      <trkpt lat="44.56861" lon="4.33418">
        <ele>393</ele>
        <time>2016-05-15T12:05:17.000Z</time>
      </trkpt>
      <trkpt lat="44.56863" lon="4.33416">
        <ele>391</ele>
        <time>2016-05-15T12:05:18.000Z</time>
      </trkpt>
      <trkpt lat="44.56865" lon="4.33414">
        <ele>391</ele>
        <time>2016-05-15T12:05:19.000Z</time>
      </trkpt>
      <trkpt lat="44.56867" lon="4.33412">
        <ele>392</ele>
        <time>2016-05-15T12:05:20.000Z</time>
      </trkpt>
      <trkpt lat="44.56869" lon="4.33411">
        <ele>392</ele>
        <time>2016-05-15T12:05:21.000Z</time>
      </trkpt>
      <trkpt lat="44.56871" lon="4.33409">
        <ele>393</ele>
        <time>2016-05-15T12:05:22.000Z</time>
      </trkpt>
      <trkpt lat="44.56873" lon="4.33408">
        <ele>393</ele>
        <time>2016-05-15T12:05:23.000Z</time>
      </trkpt>
      <trkpt lat="44.56875" lon="4.33406">
        <ele>394</ele>
        <time>2016-05-15T12:05:24.000Z</time>
      </trkpt>
      <trkpt lat="44.56878" lon="4.33405">
        <ele>394</ele>
        <time>2016-05-15T12:05:25.000Z</time>
      </trkpt>
      <trkpt lat="44.5688" lon="4.33403">
        <ele>395</ele>
        <time>2016-05-15T12:05:26.000Z</time>
      </trkpt>
      <trkpt lat="44.56882" lon="4.33402">
        <ele>395</ele>
        <time>2016-05-15T12:05:27.000Z</time>
      </trkpt>
      <trkpt lat="44.56884" lon="4.334">
        <ele>396</ele>
        <time>2016-05-15T12:05:28.000Z</time>
      </trkpt>
      <trkpt lat="44.56886" lon="4.33398">
        <ele>396</ele>
        <time>2016-05-15T12:05:29.000Z</time>
      </trkpt>
      <trkpt lat="44.56888" lon="4.33396">
        <ele>396</ele>
        <time>2016-05-15T12:05:30.000Z</time>
      </trkpt>
      <trkpt lat="44.5689" lon="4.33394">
        <ele>397</ele>
        <time>2016-05-15T12:05:31.000Z</time>
      </trkpt>
      <trkpt lat="44.56891" lon="4.33393">
        <ele>397</ele>
        <time>2016-05-15T12:05:32.000Z</time>
      </trkpt>
      <trkpt lat="44.56893" lon="4.33391">
        <ele>397</ele>
        <time>2016-05-15T12:05:33.000Z</time>
      </trkpt>
      <trkpt lat="44.56895" lon="4.33389">
        <ele>397</ele>
        <time>2016-05-15T12:05:34.000Z</time>
      </trkpt>
      <trkpt lat="44.56896" lon="4.33387">
        <ele>397</ele>
        <time>2016-05-15T12:05:35.000Z</time>
      </trkpt>
      <trkpt lat="44.56898" lon="4.33385">
        <ele>397</ele>
        <time>2016-05-15T12:05:36.000Z</time>
      </trkpt>
      <trkpt lat="44.569" lon="4.33382">
        <ele>398</ele>
        <time>2016-05-15T12:05:37.000Z</time>
      </trkpt>
      <trkpt lat="44.56901" lon="4.3338">
        <ele>398</ele>
        <time>2016-05-15T12:05:38.000Z</time>
      </trkpt>
      <trkpt lat="44.56903" lon="4.33377">
        <ele>398</ele>
        <time>2016-05-15T12:05:39.000Z</time>
      </trkpt>
      <trkpt lat="44.56905" lon="4.33376">
        <ele>398</ele>
        <time>2016-05-15T12:05:40.000Z</time>
      </trkpt>
      <trkpt lat="44.56906" lon="4.33374">
        <ele>398</ele>
        <time>2016-05-15T12:05:41.000Z</time>
      </trkpt>
      <trkpt lat="44.56908" lon="4.33371">
        <ele>398</ele>
        <time>2016-05-15T12:05:42.000Z</time>
      </trkpt>
      <trkpt lat="44.5691" lon="4.3337">
        <ele>398</ele>
        <time>2016-05-15T12:05:43.000Z</time>
      </trkpt>
      <trkpt lat="44.56911" lon="4.33367">
        <ele>399</ele>
        <time>2016-05-15T12:05:44.000Z</time>
      </trkpt>
      <trkpt lat="44.56912" lon="4.33365">
        <ele>399</ele>
        <time>2016-05-15T12:05:45.000Z</time>
      </trkpt>
      <trkpt lat="44.56914" lon="4.33361">
        <ele>399</ele>
        <time>2016-05-15T12:05:46.000Z</time>
      </trkpt>
      <trkpt lat="44.56915" lon="4.33358">
        <ele>399</ele>
        <time>2016-05-15T12:05:47.000Z</time>
      </trkpt>
      <trkpt lat="44.56915" lon="4.33355">
        <ele>400</ele>
        <time>2016-05-15T12:05:48.000Z</time>
      </trkpt>
      <trkpt lat="44.56916" lon="4.33352">
        <ele>400</ele>
        <time>2016-05-15T12:05:49.000Z</time>
      </trkpt>
      <trkpt lat="44.56916" lon="4.3335">
        <ele>400</ele>
        <time>2016-05-15T12:05:50.000Z</time>
      </trkpt>
      <trkpt lat="44.56916" lon="4.33347">
        <ele>401</ele>
        <time>2016-05-15T12:05:51.000Z</time>
      </trkpt>
      <trkpt lat="44.56916" lon="4.33345">
        <ele>401</ele>
        <time>2016-05-15T12:05:52.000Z</time>
      </trkpt>
      <trkpt lat="44.56916" lon="4.33343">
        <ele>402</ele>
        <time>2016-05-15T12:05:53.000Z</time>
      </trkpt>
      <trkpt lat="44.56915" lon="4.3334">
        <ele>402</ele>
        <time>2016-05-15T12:05:54.000Z</time>
      </trkpt>
      <trkpt lat="44.56914" lon="4.33339">
        <ele>403</ele>
        <time>2016-05-15T12:05:55.000Z</time>
      </trkpt>
      <trkpt lat="44.56913" lon="4.33337">
        <ele>403</ele>
        <time>2016-05-15T12:05:56.000Z</time>
      </trkpt>
      <trkpt lat="44.56911" lon="4.33336">
        <ele>403</ele>
        <time>2016-05-15T12:05:57.000Z</time>
      </trkpt>
      <trkpt lat="44.5691" lon="4.33334">
        <ele>403</ele>
        <time>2016-05-15T12:05:58.000Z</time>
      </trkpt>
      <trkpt lat="44.56909" lon="4.33332">
        <ele>404</ele>
        <time>2016-05-15T12:05:59.000Z</time>
      </trkpt>
      <trkpt lat="44.56908" lon="4.33329">
        <ele>404</ele>
        <time>2016-05-15T12:06:00.000Z</time>
      </trkpt>
      <trkpt lat="44.56907" lon="4.33326">
        <ele>404</ele>
        <time>2016-05-15T12:06:01.000Z</time>
      </trkpt>
      <trkpt lat="44.56905" lon="4.33324">
        <ele>404</ele>
        <time>2016-05-15T12:06:02.000Z</time>
      </trkpt>
      <trkpt lat="44.56903" lon="4.33321">
        <ele>404</ele>
        <time>2016-05-15T12:06:03.000Z</time>
      </trkpt>
      <trkpt lat="44.56901" lon="4.33319">
        <ele>404</ele>
        <time>2016-05-15T12:06:04.000Z</time>
      </trkpt>
      <trkpt lat="44.569" lon="4.33316">
        <ele>404</ele>
        <time>2016-05-15T12:06:05.000Z</time>
      </trkpt>
      <trkpt lat="44.56898" lon="4.33314">
        <ele>404</ele>
        <time>2016-05-15T12:06:06.000Z</time>
      </trkpt>
      <trkpt lat="44.56896" lon="4.33311">
        <ele>404</ele>
        <time>2016-05-15T12:06:07.000Z</time>
      </trkpt>
      <trkpt lat="44.56893" lon="4.33309">
        <ele>404</ele>
        <time>2016-05-15T12:06:08.000Z</time>
      </trkpt>
      <trkpt lat="44.56891" lon="4.33306">
        <ele>404</ele>
        <time>2016-05-15T12:06:09.000Z</time>
      </trkpt>
      <trkpt lat="44.56889" lon="4.33305">
        <ele>404</ele>
        <time>2016-05-15T12:06:10.000Z</time>
      </trkpt>
      <trkpt lat="44.56886" lon="4.33303">
        <ele>404</ele>
        <time>2016-05-15T12:06:11.000Z</time>
      </trkpt>
      <trkpt lat="44.56884" lon="4.33302">
        <ele>403</ele>
        <time>2016-05-15T12:06:12.000Z</time>
      </trkpt>
      <trkpt lat="44.56881" lon="4.33301">
        <ele>403</ele>
        <time>2016-05-15T12:06:13.000Z</time>
      </trkpt>
      <trkpt lat="44.56879" lon="4.333">
        <ele>403</ele>
        <time>2016-05-15T12:06:14.000Z</time>
      </trkpt>
      <trkpt lat="44.56876" lon="4.33299">
        <ele>403</ele>
        <time>2016-05-15T12:06:15.000Z</time>
      </trkpt>
      <trkpt lat="44.56873" lon="4.33298">
        <ele>403</ele>
        <time>2016-05-15T12:06:16.000Z</time>
      </trkpt>
      <trkpt lat="44.56871" lon="4.33297">
        <ele>403</ele>
        <time>2016-05-15T12:06:17.000Z</time>
      </trkpt>
      <trkpt lat="44.56868" lon="4.33296">
        <ele>402</ele>
        <time>2016-05-15T12:06:18.000Z</time>
      </trkpt>
      <trkpt lat="44.56866" lon="4.33294">
        <ele>402</ele>
        <time>2016-05-15T12:06:19.000Z</time>
      </trkpt>
      <trkpt lat="44.56864" lon="4.33293">
        <ele>402</ele>
        <time>2016-05-15T12:06:20.000Z</time>
      </trkpt>
      <trkpt lat="44.56861" lon="4.33292">
        <ele>402</ele>
        <time>2016-05-15T12:06:21.000Z</time>
      </trkpt>
      <trkpt lat="44.56859" lon="4.33291">
        <ele>402</ele>
        <time>2016-05-15T12:06:22.000Z</time>
      </trkpt>
      <trkpt lat="44.56857" lon="4.3329">
        <ele>402</ele>
        <time>2016-05-15T12:06:23.000Z</time>
      </trkpt>
      <trkpt lat="44.56855" lon="4.33288">
        <ele>402</ele>
        <time>2016-05-15T12:06:24.000Z</time>
      </trkpt>
      <trkpt lat="44.56852" lon="4.33287">
        <ele>402</ele>
        <time>2016-05-15T12:06:25.000Z</time>
      </trkpt>
      <trkpt lat="44.5685" lon="4.33285">
        <ele>402</ele>
        <time>2016-05-15T12:06:26.000Z</time>
      </trkpt>
      <trkpt lat="44.56848" lon="4.33283">
        <ele>402</ele>
        <time>2016-05-15T12:06:27.000Z</time>
      </trkpt>
      <trkpt lat="44.56846" lon="4.33281">
        <ele>402</ele>
        <time>2016-05-15T12:06:28.000Z</time>
      </trkpt>
      <trkpt lat="44.56844" lon="4.3328">
        <ele>402</ele>
        <time>2016-05-15T12:06:29.000Z</time>
      </trkpt>
      <trkpt lat="44.56843" lon="4.33278">
        <ele>402</ele>
        <time>2016-05-15T12:06:30.000Z</time>
      </trkpt>
      <trkpt lat="44.56841" lon="4.33276">
        <ele>403</ele>
        <time>2016-05-15T12:06:31.000Z</time>
      </trkpt>
      <trkpt lat="44.5684" lon="4.33273">
        <ele>403</ele>
        <time>2016-05-15T12:06:32.000Z</time>
      </trkpt>
      <trkpt lat="44.56838" lon="4.3327">
        <ele>403</ele>
        <time>2016-05-15T12:06:33.000Z</time>
      </trkpt>
      <trkpt lat="44.56836" lon="4.33267">
        <ele>403</ele>
        <time>2016-05-15T12:06:34.000Z</time>
      </trkpt>
      <trkpt lat="44.56835" lon="4.33265">
        <ele>403</ele>
        <time>2016-05-15T12:06:35.000Z</time>
      </trkpt>
      <trkpt lat="44.56834" lon="4.33262">
        <ele>403</ele>
        <time>2016-05-15T12:06:36.000Z</time>
      </trkpt>
      <trkpt lat="44.56834" lon="4.33259">
        <ele>404</ele>
        <time>2016-05-15T12:06:37.000Z</time>
      </trkpt>
      <trkpt lat="44.56834" lon="4.33255">
        <ele>404</ele>
        <time>2016-05-15T12:06:38.000Z</time>
      </trkpt>
      <trkpt lat="44.56834" lon="4.33252">
        <ele>404</ele>
        <time>2016-05-15T12:06:39.000Z</time>
      </trkpt>
      <trkpt lat="44.56834" lon="4.33247">
        <ele>405</ele>
        <time>2016-05-15T12:06:40.000Z</time>
      </trkpt>
      <trkpt lat="44.56834" lon="4.33243">
        <ele>406</ele>
        <time>2016-05-15T12:06:41.000Z</time>
      </trkpt>
      <trkpt lat="44.56834" lon="4.33239">
        <ele>406</ele>
        <time>2016-05-15T12:06:42.000Z</time>
      </trkpt>
      <trkpt lat="44.56834" lon="4.33235">
        <ele>407</ele>
        <time>2016-05-15T12:06:43.000Z</time>
      </trkpt>
      <trkpt lat="44.56835" lon="4.33231">
        <ele>407</ele>
        <time>2016-05-15T12:06:44.000Z</time>
      </trkpt>
      <trkpt lat="44.56836" lon="4.33228">
        <ele>407</ele>
        <time>2016-05-15T12:06:45.000Z</time>
      </trkpt>
      <trkpt lat="44.56837" lon="4.33224">
        <ele>408</ele>
        <time>2016-05-15T12:06:46.000Z</time>
      </trkpt>
      <trkpt lat="44.56838" lon="4.3322">
        <ele>408</ele>
        <time>2016-05-15T12:06:47.000Z</time>
      </trkpt>
      <trkpt lat="44.56839" lon="4.33217">
        <ele>408</ele>
        <time>2016-05-15T12:06:48.000Z</time>
      </trkpt>
      <trkpt lat="44.56841" lon="4.33213">
        <ele>408</ele>
        <time>2016-05-15T12:06:49.000Z</time>
      </trkpt>
      <trkpt lat="44.56842" lon="4.3321">
        <ele>408</ele>
        <time>2016-05-15T12:06:50.000Z</time>
      </trkpt>
      <trkpt lat="44.56844" lon="4.33206">
        <ele>408</ele>
        <time>2016-05-15T12:06:51.000Z</time>
      </trkpt>
      <trkpt lat="44.56845" lon="4.33203">
        <ele>408</ele>
        <time>2016-05-15T12:06:52.000Z</time>
      </trkpt>
      <trkpt lat="44.56847" lon="4.332">
        <ele>408</ele>
        <time>2016-05-15T12:06:53.000Z</time>
      </trkpt>
      <trkpt lat="44.56849" lon="4.33197">
        <ele>408</ele>
        <time>2016-05-15T12:06:54.000Z</time>
      </trkpt>
      <trkpt lat="44.5685" lon="4.33193">
        <ele>408</ele>
        <time>2016-05-15T12:06:55.000Z</time>
      </trkpt>
      <trkpt lat="44.56852" lon="4.3319">
        <ele>408</ele>
        <time>2016-05-15T12:06:56.000Z</time>
      </trkpt>
      <trkpt lat="44.56854" lon="4.33186">
        <ele>408</ele>
        <time>2016-05-15T12:06:57.000Z</time>
      </trkpt>
      <trkpt lat="44.56856" lon="4.33182">
        <ele>408</ele>
        <time>2016-05-15T12:06:58.000Z</time>
      </trkpt>
      <trkpt lat="44.56858" lon="4.33178">
        <ele>408</ele>
        <time>2016-05-15T12:06:59.000Z</time>
      </trkpt>
      <trkpt lat="44.56859" lon="4.33174">
        <ele>408</ele>
        <time>2016-05-15T12:07:00.000Z</time>
      </trkpt>
      <trkpt lat="44.56861" lon="4.33169">
        <ele>408</ele>
        <time>2016-05-15T12:07:01.000Z</time>
      </trkpt>
      <trkpt lat="44.56862" lon="4.33165">
        <ele>408</ele>
        <time>2016-05-15T12:07:02.000Z</time>
      </trkpt>
      <trkpt lat="44.56863" lon="4.33161">
        <ele>409</ele>
        <time>2016-05-15T12:07:03.000Z</time>
      </trkpt>
      <trkpt lat="44.56863" lon="4.33157">
        <ele>409</ele>
        <time>2016-05-15T12:07:04.000Z</time>
      </trkpt>
      <trkpt lat="44.56864" lon="4.33152">
        <ele>409</ele>
        <time>2016-05-15T12:07:05.000Z</time>
      </trkpt>
      <trkpt lat="44.56864" lon="4.33148">
        <ele>409</ele>
        <time>2016-05-15T12:07:06.000Z</time>
      </trkpt>
      <trkpt lat="44.56864" lon="4.33144">
        <ele>410</ele>
        <time>2016-05-15T12:07:07.000Z</time>
      </trkpt>
      <trkpt lat="44.56863" lon="4.33141">
        <ele>410</ele>
        <time>2016-05-15T12:07:08.000Z</time>
      </trkpt>
      <trkpt lat="44.56863" lon="4.33137">
        <ele>410</ele>
        <time>2016-05-15T12:07:09.000Z</time>
      </trkpt>
      <trkpt lat="44.56863" lon="4.33133">
        <ele>410</ele>
        <time>2016-05-15T12:07:10.000Z</time>
      </trkpt>
      <trkpt lat="44.56862" lon="4.3313">
        <ele>410</ele>
        <time>2016-05-15T12:07:11.000Z</time>
      </trkpt>
      <trkpt lat="44.56862" lon="4.33126">
        <ele>410</ele>
        <time>2016-05-15T12:07:12.000Z</time>
      </trkpt>
      <trkpt lat="44.56861" lon="4.33123">
        <ele>410</ele>
        <time>2016-05-15T12:07:13.000Z</time>
      </trkpt>
      <trkpt lat="44.56861" lon="4.33119">
        <ele>410</ele>
        <time>2016-05-15T12:07:14.000Z</time>
      </trkpt>
      <trkpt lat="44.5686" lon="4.33116">
        <ele>409</ele>
        <time>2016-05-15T12:07:15.000Z</time>
      </trkpt>
      <trkpt lat="44.5686" lon="4.33112">
        <ele>409</ele>
        <time>2016-05-15T12:07:16.000Z</time>
      </trkpt>
      <trkpt lat="44.56859" lon="4.33108">
        <ele>409</ele>
        <time>2016-05-15T12:07:17.000Z</time>
      </trkpt>
      <trkpt lat="44.56858" lon="4.33104">
        <ele>409</ele>
        <time>2016-05-15T12:07:18.000Z</time>
      </trkpt>
      <trkpt lat="44.56857" lon="4.331">
        <ele>408</ele>
        <time>2016-05-15T12:07:19.000Z</time>
      </trkpt>
      <trkpt lat="44.56856" lon="4.33097">
        <ele>408</ele>
        <time>2016-05-15T12:07:20.000Z</time>
      </trkpt>
      <trkpt lat="44.56856" lon="4.33093">
        <ele>408</ele>
        <time>2016-05-15T12:07:21.000Z</time>
      </trkpt>
      <trkpt lat="44.56855" lon="4.33089">
        <ele>407</ele>
        <time>2016-05-15T12:07:22.000Z</time>
      </trkpt>
      <trkpt lat="44.56855" lon="4.33086">
        <ele>407</ele>
        <time>2016-05-15T12:07:23.000Z</time>
      </trkpt>
      <trkpt lat="44.56854" lon="4.33082">
        <ele>408</ele>
        <time>2016-05-15T12:07:24.000Z</time>
      </trkpt>
      <trkpt lat="44.56853" lon="4.33078">
        <ele>408</ele>
        <time>2016-05-15T12:07:25.000Z</time>
      </trkpt>
      <trkpt lat="44.56852" lon="4.33074">
        <ele>408</ele>
        <time>2016-05-15T12:07:26.000Z</time>
      </trkpt>
      <trkpt lat="44.56851" lon="4.3307">
        <ele>409</ele>
        <time>2016-05-15T12:07:27.000Z</time>
      </trkpt>
      <trkpt lat="44.5685" lon="4.33066">
        <ele>409</ele>
        <time>2016-05-15T12:07:28.000Z</time>
      </trkpt>
      <trkpt lat="44.56849" lon="4.33061">
        <ele>409</ele>
        <time>2016-05-15T12:07:29.000Z</time>
      </trkpt>
      <trkpt lat="44.56848" lon="4.33057">
        <ele>410</ele>
        <time>2016-05-15T12:07:30.000Z</time>
      </trkpt>
      <trkpt lat="44.56847" lon="4.33053">
        <ele>410</ele>
        <time>2016-05-15T12:07:31.000Z</time>
      </trkpt>
      <trkpt lat="44.56846" lon="4.33048">
        <ele>411</ele>
        <time>2016-05-15T12:07:32.000Z</time>
      </trkpt>
      <trkpt lat="44.56844" lon="4.33044">
        <ele>411</ele>
        <time>2016-05-15T12:07:33.000Z</time>
      </trkpt>
      <trkpt lat="44.56843" lon="4.33039">
        <ele>411</ele>
        <time>2016-05-15T12:07:34.000Z</time>
      </trkpt>
      <trkpt lat="44.56842" lon="4.33036">
        <ele>411</ele>
        <time>2016-05-15T12:07:35.000Z</time>
      </trkpt>
      <trkpt lat="44.56841" lon="4.33033">
        <ele>411</ele>
        <time>2016-05-15T12:07:36.000Z</time>
      </trkpt>
      <trkpt lat="44.5684" lon="4.33029">
        <ele>411</ele>
        <time>2016-05-15T12:07:37.000Z</time>
      </trkpt>
      <trkpt lat="44.56839" lon="4.33026">
        <ele>411</ele>
        <time>2016-05-15T12:07:38.000Z</time>
      </trkpt>
      <trkpt lat="44.56837" lon="4.33022">
        <ele>411</ele>
        <time>2016-05-15T12:07:39.000Z</time>
      </trkpt>
      <trkpt lat="44.56836" lon="4.33018">
        <ele>410</ele>
        <time>2016-05-15T12:07:40.000Z</time>
      </trkpt>
      <trkpt lat="44.56835" lon="4.33014">
        <ele>410</ele>
        <time>2016-05-15T12:07:41.000Z</time>
      </trkpt>
      <trkpt lat="44.56834" lon="4.3301">
        <ele>409</ele>
        <time>2016-05-15T12:07:42.000Z</time>
      </trkpt>
      <trkpt lat="44.56833" lon="4.33006">
        <ele>403</ele>
        <time>2016-05-15T12:07:43.000Z</time>
      </trkpt>
      <trkpt lat="44.56832" lon="4.33003">
        <ele>405</ele>
        <time>2016-05-15T12:07:44.000Z</time>
      </trkpt>
      <trkpt lat="44.56832" lon="4.32999">
        <ele>406</ele>
        <time>2016-05-15T12:07:45.000Z</time>
      </trkpt>
      <trkpt lat="44.56831" lon="4.32995">
        <ele>405</ele>
        <time>2016-05-15T12:07:46.000Z</time>
      </trkpt>
      <trkpt lat="44.56829" lon="4.32991">
        <ele>404</ele>
        <time>2016-05-15T12:07:47.000Z</time>
      </trkpt>
      <trkpt lat="44.56828" lon="4.32988">
        <ele>403</ele>
        <time>2016-05-15T12:07:48.000Z</time>
      </trkpt>
      <trkpt lat="44.56827" lon="4.32984">
        <ele>403</ele>
        <time>2016-05-15T12:07:49.000Z</time>
      </trkpt>
      <trkpt lat="44.56826" lon="4.32981">
        <ele>402</ele>
        <time>2016-05-15T12:07:50.000Z</time>
      </trkpt>
      <trkpt lat="44.56825" lon="4.32978">
        <ele>402</ele>
        <time>2016-05-15T12:07:51.000Z</time>
      </trkpt>
      <trkpt lat="44.56824" lon="4.32975">
        <ele>402</ele>
        <time>2016-05-15T12:07:52.000Z</time>
      </trkpt>
      <trkpt lat="44.56822" lon="4.32972">
        <ele>401</ele>
        <time>2016-05-15T12:07:53.000Z</time>
      </trkpt>
      <trkpt lat="44.56821" lon="4.3297">
        <ele>401</ele>
        <time>2016-05-15T12:07:54.000Z</time>
      </trkpt>
      <trkpt lat="44.5682" lon="4.32967">
        <ele>401</ele>
        <time>2016-05-15T12:07:55.000Z</time>
      </trkpt>
      <trkpt lat="44.56819" lon="4.32964">
        <ele>401</ele>
        <time>2016-05-15T12:07:56.000Z</time>
      </trkpt>
      <trkpt lat="44.56818" lon="4.32962">
        <ele>401</ele>
        <time>2016-05-15T12:07:57.000Z</time>
      </trkpt>
      <trkpt lat="44.56817" lon="4.32959">
        <ele>401</ele>
        <time>2016-05-15T12:07:58.000Z</time>
      </trkpt>
      <trkpt lat="44.56817" lon="4.32957">
        <ele>401</ele>
        <time>2016-05-15T12:07:59.000Z</time>
      </trkpt>
      <trkpt lat="44.56816" lon="4.32954">
        <ele>401</ele>
        <time>2016-05-15T12:08:00.000Z</time>
      </trkpt>
      <trkpt lat="44.56815" lon="4.32953">
        <ele>401</ele>
        <time>2016-05-15T12:08:01.000Z</time>
      </trkpt>
      <trkpt lat="44.56815" lon="4.32953">
        <ele>401</ele>
        <time>2016-05-15T12:08:02.000Z</time>
      </trkpt>
      <trkpt lat="44.56815" lon="4.32952">
        <ele>401</ele>
        <time>2016-05-15T12:08:03.000Z</time>
      </trkpt>
      <trkpt lat="44.56815" lon="4.32952">
        <ele>401</ele>
        <time>2016-05-15T12:08:04.000Z</time>
      </trkpt>
      <trkpt lat="44.56815" lon="4.32952">
        <ele>401</ele>
        <time>2016-05-15T12:08:05.000Z</time>
      </trkpt>
      <trkpt lat="44.56815" lon="4.32952">
        <ele>401</ele>
        <time>2016-05-15T12:08:06.000Z</time>
      </trkpt>
      <trkpt lat="44.56815" lon="4.32952">
        <ele>401</ele>
        <time>2016-05-15T12:08:07.000Z</time>
      </trkpt>
      <trkpt lat="44.56815" lon="4.32951">
        <ele>401</ele>
        <time>2016-05-15T12:08:08.000Z</time>
      </trkpt>
      <trkpt lat="44.56815" lon="4.32951">
        <ele>401</ele>
        <time>2016-05-15T12:08:09.000Z</time>
      </trkpt>
      <trkpt lat="44.56815" lon="4.32951">
        <ele>401</ele>
        <time>2016-05-15T12:08:10.000Z</time>
      </trkpt>
      <trkpt lat="44.56815" lon="4.32951">
        <ele>401</ele>
        <time>2016-05-15T12:08:11.000Z</time>
      </trkpt>
      <trkpt lat="44.56815" lon="4.32951">
        <ele>401</ele>
        <time>2016-05-15T12:08:12.000Z</time>
      </trkpt>
      <trkpt lat="44.56815" lon="4.32951">
        <ele>401</ele>
        <time>2016-05-15T12:08:13.000Z</time>
      </trkpt>
      <trkpt lat="44.56816" lon="4.32951">
        <ele>401</ele>
        <time>2016-05-15T12:08:14.000Z</time>
      </trkpt>
      <trkpt lat="44.56816" lon="4.32951">
        <ele>401</ele>
        <time>2016-05-15T12:08:15.000Z</time>
      </trkpt>
      <trkpt lat="44.56816" lon="4.32951">
        <ele>401</ele>
        <time>2016-05-15T12:08:16.000Z</time>
      </trkpt>
      <trkpt lat="44.56816" lon="4.32951">
        <ele>401</ele>
        <time>2016-05-15T12:08:17.000Z</time>
      </trkpt>
      <trkpt lat="44.56816" lon="4.3295">
        <ele>401</ele>
        <time>2016-05-15T12:08:18.000Z</time>
      </trkpt>
      <trkpt lat="44.56816" lon="4.3295">
        <ele>401</ele>
        <time>2016-05-15T12:08:19.000Z</time>
      </trkpt>
      <trkpt lat="44.56816" lon="4.3295">
        <ele>401</ele>
        <time>2016-05-15T12:08:20.000Z</time>
      </trkpt>
      <trkpt lat="44.56816" lon="4.3295">
        <ele>401</ele>
        <time>2016-05-15T12:08:21.000Z</time>
      </trkpt>
      <trkpt lat="44.56816" lon="4.3295">
        <ele>401</ele>
        <time>2016-05-15T12:08:22.000Z</time>
      </trkpt>
      <trkpt lat="44.56816" lon="4.3295">
        <ele>401</ele>
        <time>2016-05-15T12:08:23.000Z</time>
      </trkpt>
      <trkpt lat="44.56816" lon="4.3295">
        <ele>401</ele>
        <time>2016-05-15T12:08:24.000Z</time>
      </trkpt>
      <trkpt lat="44.56816" lon="4.3295">
        <ele>401</ele>
        <time>2016-05-15T12:08:25.000Z</time>
      </trkpt>
      <trkpt lat="44.56816" lon="4.3295">
        <ele>401</ele>
        <time>2016-05-15T12:08:26.000Z</time>
      </trkpt>
      <trkpt lat="44.56816" lon="4.3295">
        <ele>401</ele>
        <time>2016-05-15T12:08:27.000Z</time>
      </trkpt>
      <trkpt lat="44.56815" lon="4.32949">
        <ele>401</ele>
        <time>2016-05-15T12:08:28.000Z</time>
      </trkpt>
      <trkpt lat="44.56815" lon="4.32947">
        <ele>402</ele>
        <time>2016-05-15T12:08:29.000Z</time>
      </trkpt>
      <trkpt lat="44.56814" lon="4.32945">
        <ele>402</ele>
        <time>2016-05-15T12:08:30.000Z</time>
      </trkpt>
      <trkpt lat="44.56812" lon="4.32944">
        <ele>401</ele>
        <time>2016-05-15T12:08:31.000Z</time>
      </trkpt>
      <trkpt lat="44.56811" lon="4.32943">
        <ele>401</ele>
        <time>2016-05-15T12:08:32.000Z</time>
      </trkpt>
      <trkpt lat="44.5681" lon="4.32941">
        <ele>401</ele>
        <time>2016-05-15T12:08:33.000Z</time>
      </trkpt>
      <trkpt lat="44.56809" lon="4.32938">
        <ele>401</ele>
        <time>2016-05-15T12:08:34.000Z</time>
      </trkpt>
      <trkpt lat="44.56807" lon="4.32935">
        <ele>402</ele>
        <time>2016-05-15T12:08:35.000Z</time>
      </trkpt>
      <trkpt lat="44.56806" lon="4.32932">
        <ele>402</ele>
        <time>2016-05-15T12:08:36.000Z</time>
      </trkpt>
      <trkpt lat="44.56805" lon="4.32928">
        <ele>402</ele>
        <time>2016-05-15T12:08:37.000Z</time>
      </trkpt>
      <trkpt lat="44.56804" lon="4.32925">
        <ele>402</ele>
        <time>2016-05-15T12:08:38.000Z</time>
      </trkpt>
      <trkpt lat="44.56802" lon="4.32922">
        <ele>401</ele>
        <time>2016-05-15T12:08:39.000Z</time>
      </trkpt>
      <trkpt lat="44.56801" lon="4.32918">
        <ele>401</ele>
        <time>2016-05-15T12:08:40.000Z</time>
      </trkpt>
      <trkpt lat="44.56798" lon="4.32914">
        <ele>403</ele>
        <time>2016-05-15T12:08:41.000Z</time>
      </trkpt>
      <trkpt lat="44.56795" lon="4.32908">
        <ele>403</ele>
        <time>2016-05-15T12:08:42.000Z</time>
      </trkpt>
      <trkpt lat="44.56792" lon="4.32903">
        <ele>403</ele>
        <time>2016-05-15T12:08:43.000Z</time>
      </trkpt>
      <trkpt lat="44.5679" lon="4.32901">
        <ele>403</ele>
        <time>2016-05-15T12:08:44.000Z</time>
      </trkpt>
      <trkpt lat="44.56789" lon="4.329">
        <ele>402</ele>
        <time>2016-05-15T12:08:45.000Z</time>
      </trkpt>
      <trkpt lat="44.56788" lon="4.32901">
        <ele>402</ele>
        <time>2016-05-15T12:08:46.000Z</time>
      </trkpt>
      <trkpt lat="44.56787" lon="4.32903">
        <ele>402</ele>
        <time>2016-05-15T12:08:47.000Z</time>
      </trkpt>
      <trkpt lat="44.56787" lon="4.32905">
        <ele>402</ele>
        <time>2016-05-15T12:08:48.000Z</time>
      </trkpt>
      <trkpt lat="44.56787" lon="4.32908">
        <ele>402</ele>
        <time>2016-05-15T12:08:49.000Z</time>
      </trkpt>
      <trkpt lat="44.56786" lon="4.32911">
        <ele>402</ele>
        <time>2016-05-15T12:08:50.000Z</time>
      </trkpt>
      <trkpt lat="44.56785" lon="4.32915">
        <ele>402</ele>
        <time>2016-05-15T12:08:51.000Z</time>
      </trkpt>
      <trkpt lat="44.56783" lon="4.32918">
        <ele>399</ele>
        <time>2016-05-15T12:08:52.000Z</time>
      </trkpt>
      <trkpt lat="44.56782" lon="4.3292">
        <ele>399</ele>
        <time>2016-05-15T12:08:53.000Z</time>
      </trkpt>
      <trkpt lat="44.56782" lon="4.32923">
        <ele>398</ele>
        <time>2016-05-15T12:08:54.000Z</time>
      </trkpt>
      <trkpt lat="44.56783" lon="4.32926">
        <ele>398</ele>
        <time>2016-05-15T12:08:55.000Z</time>
      </trkpt>
      <trkpt lat="44.56784" lon="4.3293">
        <ele>398</ele>
        <time>2016-05-15T12:08:56.000Z</time>
      </trkpt>
      <trkpt lat="44.56785" lon="4.32935">
        <ele>399</ele>
        <time>2016-05-15T12:08:57.000Z</time>
      </trkpt>
      <trkpt lat="44.56787" lon="4.32939">
        <ele>399</ele>
        <time>2016-05-15T12:08:58.000Z</time>
      </trkpt>
      <trkpt lat="44.56788" lon="4.32941">
        <ele>399</ele>
        <time>2016-05-15T12:08:59.000Z</time>
      </trkpt>
      <trkpt lat="44.56789" lon="4.32944">
        <ele>399</ele>
        <time>2016-05-15T12:09:00.000Z</time>
      </trkpt>
      <trkpt lat="44.56791" lon="4.32946">
        <ele>399</ele>
        <time>2016-05-15T12:09:01.000Z</time>
      </trkpt>
      <trkpt lat="44.56792" lon="4.32948">
        <ele>399</ele>
        <time>2016-05-15T12:09:02.000Z</time>
      </trkpt>
      <trkpt lat="44.56792" lon="4.3295">
        <ele>399</ele>
        <time>2016-05-15T12:09:03.000Z</time>
      </trkpt>
      <trkpt lat="44.56793" lon="4.32953">
        <ele>399</ele>
        <time>2016-05-15T12:09:04.000Z</time>
      </trkpt>
      <trkpt lat="44.56794" lon="4.32956">
        <ele>399</ele>
        <time>2016-05-15T12:09:05.000Z</time>
      </trkpt>
      <trkpt lat="44.56795" lon="4.32959">
        <ele>399</ele>
        <time>2016-05-15T12:09:06.000Z</time>
      </trkpt>
      <trkpt lat="44.56796" lon="4.32962">
        <ele>399</ele>
        <time>2016-05-15T12:09:07.000Z</time>
      </trkpt>
      <trkpt lat="44.56796" lon="4.32965">
        <ele>399</ele>
        <time>2016-05-15T12:09:08.000Z</time>
      </trkpt>
      <trkpt lat="44.56796" lon="4.32967">
        <ele>398</ele>
        <time>2016-05-15T12:09:09.000Z</time>
      </trkpt>
      <trkpt lat="44.56797" lon="4.32969">
        <ele>398</ele>
        <time>2016-05-15T12:09:10.000Z</time>
      </trkpt>
      <trkpt lat="44.56797" lon="4.32972">
        <ele>398</ele>
        <time>2016-05-15T12:09:11.000Z</time>
      </trkpt>
      <trkpt lat="44.56798" lon="4.32976">
        <ele>398</ele>
        <time>2016-05-15T12:09:12.000Z</time>
      </trkpt>
      <trkpt lat="44.56799" lon="4.32981">
        <ele>399</ele>
        <time>2016-05-15T12:09:13.000Z</time>
      </trkpt>
      <trkpt lat="44.568" lon="4.32987">
        <ele>399</ele>
        <time>2016-05-15T12:09:14.000Z</time>
      </trkpt>
      <trkpt lat="44.56802" lon="4.32994">
        <ele>399</ele>
        <time>2016-05-15T12:09:15.000Z</time>
      </trkpt>
      <trkpt lat="44.56803" lon="4.33">
        <ele>394</ele>
        <time>2016-05-15T12:09:16.000Z</time>
      </trkpt>
      <trkpt lat="44.56803" lon="4.33006">
        <ele>394</ele>
        <time>2016-05-15T12:09:17.000Z</time>
      </trkpt>
      <trkpt lat="44.56804" lon="4.33011">
        <ele>394</ele>
        <time>2016-05-15T12:09:18.000Z</time>
      </trkpt>
      <trkpt lat="44.56804" lon="4.33017">
        <ele>394</ele>
        <time>2016-05-15T12:09:19.000Z</time>
      </trkpt>
      <trkpt lat="44.56804" lon="4.33023">
        <ele>393</ele>
        <time>2016-05-15T12:09:20.000Z</time>
      </trkpt>
      <trkpt lat="44.56804" lon="4.33028">
        <ele>393</ele>
        <time>2016-05-15T12:09:21.000Z</time>
      </trkpt>
      <trkpt lat="44.56805" lon="4.33033">
        <ele>393</ele>
        <time>2016-05-15T12:09:22.000Z</time>
      </trkpt>
      <trkpt lat="44.56804" lon="4.33038">
        <ele>392</ele>
        <time>2016-05-15T12:09:23.000Z</time>
      </trkpt>
      <trkpt lat="44.56802" lon="4.33043">
        <ele>392</ele>
        <time>2016-05-15T12:09:24.000Z</time>
      </trkpt>
      <trkpt lat="44.568" lon="4.33049">
        <ele>391</ele>
        <time>2016-05-15T12:09:25.000Z</time>
      </trkpt>
      <trkpt lat="44.56799" lon="4.33054">
        <ele>391</ele>
        <time>2016-05-15T12:09:26.000Z</time>
      </trkpt>
      <trkpt lat="44.568" lon="4.3306">
        <ele>391</ele>
        <time>2016-05-15T12:09:27.000Z</time>
      </trkpt>
      <trkpt lat="44.56801" lon="4.33067">
        <ele>391</ele>
        <time>2016-05-15T12:09:28.000Z</time>
      </trkpt>
      <trkpt lat="44.56802" lon="4.33073">
        <ele>391</ele>
        <time>2016-05-15T12:09:29.000Z</time>
      </trkpt>
      <trkpt lat="44.56803" lon="4.3308">
        <ele>391</ele>
        <time>2016-05-15T12:09:30.000Z</time>
      </trkpt>
      <trkpt lat="44.56803" lon="4.33087">
        <ele>391</ele>
        <time>2016-05-15T12:09:31.000Z</time>
      </trkpt>
      <trkpt lat="44.56803" lon="4.33094">
        <ele>391</ele>
        <time>2016-05-15T12:09:32.000Z</time>
      </trkpt>
      <trkpt lat="44.56802" lon="4.331">
        <ele>391</ele>
        <time>2016-05-15T12:09:33.000Z</time>
      </trkpt>
      <trkpt lat="44.56801" lon="4.33105">
        <ele>391</ele>
        <time>2016-05-15T12:09:34.000Z</time>
      </trkpt>
      <trkpt lat="44.56799" lon="4.3311">
        <ele>391</ele>
        <time>2016-05-15T12:09:35.000Z</time>
      </trkpt>
      <trkpt lat="44.56798" lon="4.33115">
        <ele>391</ele>
        <time>2016-05-15T12:09:36.000Z</time>
      </trkpt>
      <trkpt lat="44.56796" lon="4.33121">
        <ele>391</ele>
        <time>2016-05-15T12:09:37.000Z</time>
      </trkpt>
      <trkpt lat="44.56794" lon="4.33126">
        <ele>391</ele>
        <time>2016-05-15T12:09:38.000Z</time>
      </trkpt>
      <trkpt lat="44.56793" lon="4.33129">
        <ele>391</ele>
        <time>2016-05-15T12:09:39.000Z</time>
      </trkpt>
      <trkpt lat="44.56791" lon="4.33131">
        <ele>390</ele>
        <time>2016-05-15T12:09:40.000Z</time>
      </trkpt>
      <trkpt lat="44.5679" lon="4.33133">
        <ele>390</ele>
        <time>2016-05-15T12:09:41.000Z</time>
      </trkpt>
      <trkpt lat="44.56788" lon="4.33134">
        <ele>390</ele>
        <time>2016-05-15T12:09:42.000Z</time>
      </trkpt>
      <trkpt lat="44.56787" lon="4.33135">
        <ele>390</ele>
        <time>2016-05-15T12:09:43.000Z</time>
      </trkpt>
      <trkpt lat="44.56786" lon="4.33136">
        <ele>390</ele>
        <time>2016-05-15T12:09:44.000Z</time>
      </trkpt>
      <trkpt lat="44.56785" lon="4.33138">
        <ele>390</ele>
        <time>2016-05-15T12:09:45.000Z</time>
      </trkpt>
      <trkpt lat="44.56785" lon="4.3314">
        <ele>390</ele>
        <time>2016-05-15T12:09:46.000Z</time>
      </trkpt>
      <trkpt lat="44.56784" lon="4.33142">
        <ele>390</ele>
        <time>2016-05-15T12:09:47.000Z</time>
      </trkpt>
      <trkpt lat="44.56783" lon="4.33144">
        <ele>390</ele>
        <time>2016-05-15T12:09:48.000Z</time>
      </trkpt>
      <trkpt lat="44.56781" lon="4.33146">
        <ele>390</ele>
        <time>2016-05-15T12:09:49.000Z</time>
      </trkpt>
      <trkpt lat="44.56779" lon="4.33148">
        <ele>390</ele>
        <time>2016-05-15T12:09:50.000Z</time>
      </trkpt>
      <trkpt lat="44.56776" lon="4.33151">
        <ele>390</ele>
        <time>2016-05-15T12:09:51.000Z</time>
      </trkpt>
      <trkpt lat="44.56774" lon="4.33152">
        <ele>390</ele>
        <time>2016-05-15T12:09:52.000Z</time>
      </trkpt>
      <trkpt lat="44.56771" lon="4.33153">
        <ele>390</ele>
        <time>2016-05-15T12:09:53.000Z</time>
      </trkpt>
      <trkpt lat="44.56768" lon="4.33154">
        <ele>390</ele>
        <time>2016-05-15T12:09:54.000Z</time>
      </trkpt>
      <trkpt lat="44.56765" lon="4.33155">
        <ele>389</ele>
        <time>2016-05-15T12:09:55.000Z</time>
      </trkpt>
      <trkpt lat="44.56761" lon="4.33155">
        <ele>389</ele>
        <time>2016-05-15T12:09:56.000Z</time>
      </trkpt>
      <trkpt lat="44.56757" lon="4.33156">
        <ele>389</ele>
        <time>2016-05-15T12:09:57.000Z</time>
      </trkpt>
      <trkpt lat="44.56753" lon="4.33156">
        <ele>389</ele>
        <time>2016-05-15T12:09:58.000Z</time>
      </trkpt>
      <trkpt lat="44.5675" lon="4.33156">
        <ele>385</ele>
        <time>2016-05-15T12:09:59.000Z</time>
      </trkpt>
      <trkpt lat="44.56744" lon="4.33156">
        <ele>384</ele>
        <time>2016-05-15T12:10:00.000Z</time>
      </trkpt>
      <trkpt lat="44.56738" lon="4.33154">
        <ele>383</ele>
        <time>2016-05-15T12:10:01.000Z</time>
      </trkpt>
      <trkpt lat="44.56731" lon="4.33153">
        <ele>382</ele>
        <time>2016-05-15T12:10:02.000Z</time>
      </trkpt>
      <trkpt lat="44.56724" lon="4.33152">
        <ele>381</ele>
        <time>2016-05-15T12:10:03.000Z</time>
      </trkpt>
      <trkpt lat="44.56718" lon="4.33151">
        <ele>380</ele>
        <time>2016-05-15T12:10:04.000Z</time>
      </trkpt>
      <trkpt lat="44.56712" lon="4.33151">
        <ele>379</ele>
        <time>2016-05-15T12:10:05.000Z</time>
      </trkpt>
      <trkpt lat="44.56707" lon="4.3315">
        <ele>379</ele>
        <time>2016-05-15T12:10:06.000Z</time>
      </trkpt>
      <trkpt lat="44.56703" lon="4.33147">
        <ele>379</ele>
        <time>2016-05-15T12:10:07.000Z</time>
      </trkpt>
      <trkpt lat="44.56699" lon="4.33146">
        <ele>378</ele>
        <time>2016-05-15T12:10:08.000Z</time>
      </trkpt>
      <trkpt lat="44.56696" lon="4.33147">
        <ele>378</ele>
        <time>2016-05-15T12:10:09.000Z</time>
      </trkpt>
      <trkpt lat="44.56692" lon="4.33147">
        <ele>378</ele>
        <time>2016-05-15T12:10:10.000Z</time>
      </trkpt>
      <trkpt lat="44.56688" lon="4.33146">
        <ele>378</ele>
        <time>2016-05-15T12:10:11.000Z</time>
      </trkpt>
      <trkpt lat="44.56683" lon="4.33145">
        <ele>378</ele>
        <time>2016-05-15T12:10:12.000Z</time>
      </trkpt>
      <trkpt lat="44.56679" lon="4.33144">
        <ele>378</ele>
        <time>2016-05-15T12:10:13.000Z</time>
      </trkpt>
      <trkpt lat="44.56676" lon="4.33143">
        <ele>378</ele>
        <time>2016-05-15T12:10:14.000Z</time>
      </trkpt>
      <trkpt lat="44.56672" lon="4.33143">
        <ele>378</ele>
        <time>2016-05-15T12:10:15.000Z</time>
      </trkpt>
      <trkpt lat="44.56669" lon="4.33143">
        <ele>377</ele>
        <time>2016-05-15T12:10:16.000Z</time>
      </trkpt>
      <trkpt lat="44.56667" lon="4.33142">
        <ele>371</ele>
        <time>2016-05-15T12:10:17.000Z</time>
      </trkpt>
      <trkpt lat="44.56664" lon="4.33142">
        <ele>371</ele>
        <time>2016-05-15T12:10:18.000Z</time>
      </trkpt>
      <trkpt lat="44.56661" lon="4.33142">
        <ele>371</ele>
        <time>2016-05-15T12:10:19.000Z</time>
      </trkpt>
      <trkpt lat="44.56656" lon="4.33142">
        <ele>371</ele>
        <time>2016-05-15T12:10:20.000Z</time>
      </trkpt>
      <trkpt lat="44.56651" lon="4.33143">
        <ele>370</ele>
        <time>2016-05-15T12:10:21.000Z</time>
      </trkpt>
      <trkpt lat="44.56646" lon="4.33143">
        <ele>370</ele>
        <time>2016-05-15T12:10:22.000Z</time>
      </trkpt>
      <trkpt lat="44.5664" lon="4.33143">
        <ele>369</ele>
        <time>2016-05-15T12:10:23.000Z</time>
      </trkpt>
      <trkpt lat="44.56633" lon="4.33143">
        <ele>368</ele>
        <time>2016-05-15T12:10:24.000Z</time>
      </trkpt>
      <trkpt lat="44.56627" lon="4.33143">
        <ele>368</ele>
        <time>2016-05-15T12:10:25.000Z</time>
      </trkpt>
      <trkpt lat="44.5662" lon="4.33143">
        <ele>367</ele>
        <time>2016-05-15T12:10:26.000Z</time>
      </trkpt>
      <trkpt lat="44.56613" lon="4.33142">
        <ele>367</ele>
        <time>2016-05-15T12:10:27.000Z</time>
      </trkpt>
      <trkpt lat="44.56606" lon="4.3314">
        <ele>366</ele>
        <time>2016-05-15T12:10:28.000Z</time>
      </trkpt>
      <trkpt lat="44.56599" lon="4.33139">
        <ele>366</ele>
        <time>2016-05-15T12:10:29.000Z</time>
      </trkpt>
      <trkpt lat="44.56592" lon="4.33137">
        <ele>365</ele>
        <time>2016-05-15T12:10:30.000Z</time>
      </trkpt>
      <trkpt lat="44.56585" lon="4.33136">
        <ele>365</ele>
        <time>2016-05-15T12:10:31.000Z</time>
      </trkpt>
      <trkpt lat="44.56578" lon="4.33134">
        <ele>358</ele>
        <time>2016-05-15T12:10:32.000Z</time>
      </trkpt>
      <trkpt lat="44.56572" lon="4.33132">
        <ele>358</ele>
        <time>2016-05-15T12:10:33.000Z</time>
      </trkpt>
      <trkpt lat="44.56565" lon="4.33129">
        <ele>357</ele>
        <time>2016-05-15T12:10:34.000Z</time>
      </trkpt>
      <trkpt lat="44.56558" lon="4.33124">
        <ele>356</ele>
        <time>2016-05-15T12:10:35.000Z</time>
      </trkpt>
      <trkpt lat="44.5655" lon="4.3312">
        <ele>356</ele>
        <time>2016-05-15T12:10:36.000Z</time>
      </trkpt>
      <trkpt lat="44.56543" lon="4.33116">
        <ele>355</ele>
        <time>2016-05-15T12:10:37.000Z</time>
      </trkpt>
      <trkpt lat="44.56537" lon="4.33114">
        <ele>354</ele>
        <time>2016-05-15T12:10:38.000Z</time>
      </trkpt>
      <trkpt lat="44.56531" lon="4.33111">
        <ele>354</ele>
        <time>2016-05-15T12:10:39.000Z</time>
      </trkpt>
      <trkpt lat="44.56526" lon="4.33111">
        <ele>353</ele>
        <time>2016-05-15T12:10:40.000Z</time>
      </trkpt>
      <trkpt lat="44.56521" lon="4.33111">
        <ele>353</ele>
        <time>2016-05-15T12:10:41.000Z</time>
      </trkpt>
      <trkpt lat="44.56516" lon="4.33109">
        <ele>352</ele>
        <time>2016-05-15T12:10:42.000Z</time>
      </trkpt>
      <trkpt lat="44.56512" lon="4.33106">
        <ele>352</ele>
        <time>2016-05-15T12:10:43.000Z</time>
      </trkpt>
      <trkpt lat="44.56508" lon="4.33103">
        <ele>351</ele>
        <time>2016-05-15T12:10:44.000Z</time>
      </trkpt>
      <trkpt lat="44.56502" lon="4.33099">
        <ele>350</ele>
        <time>2016-05-15T12:10:45.000Z</time>
      </trkpt>
      <trkpt lat="44.56496" lon="4.33095">
        <ele>348</ele>
        <time>2016-05-15T12:10:46.000Z</time>
      </trkpt>
      <trkpt lat="44.5649" lon="4.3309">
        <ele>347</ele>
        <time>2016-05-15T12:10:47.000Z</time>
      </trkpt>
      <trkpt lat="44.56485" lon="4.33084">
        <ele>348</ele>
        <time>2016-05-15T12:10:48.000Z</time>
      </trkpt>
      <trkpt lat="44.56479" lon="4.33081">
        <ele>343</ele>
        <time>2016-05-15T12:10:49.000Z</time>
      </trkpt>
      <trkpt lat="44.56474" lon="4.3308">
        <ele>343</ele>
        <time>2016-05-15T12:10:50.000Z</time>
      </trkpt>
      <trkpt lat="44.56468" lon="4.33079">
        <ele>343</ele>
        <time>2016-05-15T12:10:51.000Z</time>
      </trkpt>
      <trkpt lat="44.56462" lon="4.33077">
        <ele>343</ele>
        <time>2016-05-15T12:10:52.000Z</time>
      </trkpt>
      <trkpt lat="44.56456" lon="4.33076">
        <ele>344</ele>
        <time>2016-05-15T12:10:53.000Z</time>
      </trkpt>
      <trkpt lat="44.5645" lon="4.33074">
        <ele>344</ele>
        <time>2016-05-15T12:10:54.000Z</time>
      </trkpt>
      <trkpt lat="44.56444" lon="4.33073">
        <ele>344</ele>
        <time>2016-05-15T12:10:55.000Z</time>
      </trkpt>
      <trkpt lat="44.56439" lon="4.33071">
        <ele>344</ele>
        <time>2016-05-15T12:10:56.000Z</time>
      </trkpt>
      <trkpt lat="44.56434" lon="4.3307">
        <ele>345</ele>
        <time>2016-05-15T12:10:57.000Z</time>
      </trkpt>
      <trkpt lat="44.56431" lon="4.33068">
        <ele>345</ele>
        <time>2016-05-15T12:10:58.000Z</time>
      </trkpt>
      <trkpt lat="44.56428" lon="4.33065">
        <ele>345</ele>
        <time>2016-05-15T12:10:59.000Z</time>
      </trkpt>
      <trkpt lat="44.56425" lon="4.33062">
        <ele>344</ele>
        <time>2016-05-15T12:11:00.000Z</time>
      </trkpt>
      <trkpt lat="44.56421" lon="4.3306">
        <ele>344</ele>
        <time>2016-05-15T12:11:01.000Z</time>
      </trkpt>
      <trkpt lat="44.56418" lon="4.33059">
        <ele>344</ele>
        <time>2016-05-15T12:11:02.000Z</time>
      </trkpt>
      <trkpt lat="44.56415" lon="4.33059">
        <ele>342</ele>
        <time>2016-05-15T12:11:03.000Z</time>
      </trkpt>
      <trkpt lat="44.56412" lon="4.33058">
        <ele>341</ele>
        <time>2016-05-15T12:11:04.000Z</time>
      </trkpt>
      <trkpt lat="44.56409" lon="4.33055">
        <ele>341</ele>
        <time>2016-05-15T12:11:05.000Z</time>
      </trkpt>
      <trkpt lat="44.56405" lon="4.33051">
        <ele>340</ele>
        <time>2016-05-15T12:11:06.000Z</time>
      </trkpt>
      <trkpt lat="44.564" lon="4.33048">
        <ele>339</ele>
        <time>2016-05-15T12:11:07.000Z</time>
      </trkpt>
      <trkpt lat="44.56395" lon="4.33044">
        <ele>339</ele>
        <time>2016-05-15T12:11:08.000Z</time>
      </trkpt>
      <trkpt lat="44.56389" lon="4.3304">
        <ele>338</ele>
        <time>2016-05-15T12:11:09.000Z</time>
      </trkpt>
      <trkpt lat="44.56384" lon="4.33034">
        <ele>337</ele>
        <time>2016-05-15T12:11:10.000Z</time>
      </trkpt>
      <trkpt lat="44.56377" lon="4.3303">
        <ele>336</ele>
        <time>2016-05-15T12:11:11.000Z</time>
      </trkpt>
      <trkpt lat="44.56371" lon="4.33026">
        <ele>336</ele>
        <time>2016-05-15T12:11:12.000Z</time>
      </trkpt>
      <trkpt lat="44.56365" lon="4.33023">
        <ele>335</ele>
        <time>2016-05-15T12:11:13.000Z</time>
      </trkpt>
      <trkpt lat="44.5636" lon="4.33019">
        <ele>334</ele>
        <time>2016-05-15T12:11:14.000Z</time>
      </trkpt>
      <trkpt lat="44.56355" lon="4.33016">
        <ele>333</ele>
        <time>2016-05-15T12:11:15.000Z</time>
      </trkpt>
      <trkpt lat="44.5635" lon="4.33015">
        <ele>332</ele>
        <time>2016-05-15T12:11:16.000Z</time>
      </trkpt>
      <trkpt lat="44.56346" lon="4.33013">
        <ele>331</ele>
        <time>2016-05-15T12:11:17.000Z</time>
      </trkpt>
      <trkpt lat="44.56342" lon="4.33013">
        <ele>331</ele>
        <time>2016-05-15T12:11:18.000Z</time>
      </trkpt>
      <trkpt lat="44.56338" lon="4.33014">
        <ele>331</ele>
        <time>2016-05-15T12:11:19.000Z</time>
      </trkpt>
      <trkpt lat="44.56334" lon="4.33014">
        <ele>330</ele>
        <time>2016-05-15T12:11:20.000Z</time>
      </trkpt>
      <trkpt lat="44.56329" lon="4.33015">
        <ele>325</ele>
        <time>2016-05-15T12:11:21.000Z</time>
      </trkpt>
      <trkpt lat="44.56323" lon="4.33015">
        <ele>324</ele>
        <time>2016-05-15T12:11:22.000Z</time>
      </trkpt>
      <trkpt lat="44.56316" lon="4.33014">
        <ele>324</ele>
        <time>2016-05-15T12:11:23.000Z</time>
      </trkpt>
      <trkpt lat="44.5631" lon="4.33012">
        <ele>323</ele>
        <time>2016-05-15T12:11:24.000Z</time>
      </trkpt>
      <trkpt lat="44.56304" lon="4.3301">
        <ele>323</ele>
        <time>2016-05-15T12:11:25.000Z</time>
      </trkpt>
      <trkpt lat="44.563" lon="4.3301">
        <ele>322</ele>
        <time>2016-05-15T12:11:26.000Z</time>
      </trkpt>
      <trkpt lat="44.56297" lon="4.33011">
        <ele>322</ele>
        <time>2016-05-15T12:11:27.000Z</time>
      </trkpt>
      <trkpt lat="44.56292" lon="4.33013">
        <ele>321</ele>
        <time>2016-05-15T12:11:28.000Z</time>
      </trkpt>
      <trkpt lat="44.56288" lon="4.33015">
        <ele>321</ele>
        <time>2016-05-15T12:11:29.000Z</time>
      </trkpt>
      <trkpt lat="44.56284" lon="4.33017">
        <ele>320</ele>
        <time>2016-05-15T12:11:30.000Z</time>
      </trkpt>
      <trkpt lat="44.56278" lon="4.33019">
        <ele>319</ele>
        <time>2016-05-15T12:11:31.000Z</time>
      </trkpt>
      <trkpt lat="44.56272" lon="4.33021">
        <ele>319</ele>
        <time>2016-05-15T12:11:32.000Z</time>
      </trkpt>
      <trkpt lat="44.56266" lon="4.33021">
        <ele>318</ele>
        <time>2016-05-15T12:11:33.000Z</time>
      </trkpt>
      <trkpt lat="44.5626" lon="4.33021">
        <ele>317</ele>
        <time>2016-05-15T12:11:34.000Z</time>
      </trkpt>
      <trkpt lat="44.56254" lon="4.3302">
        <ele>317</ele>
        <time>2016-05-15T12:11:35.000Z</time>
      </trkpt>
      <trkpt lat="44.5625" lon="4.33019">
        <ele>316</ele>
        <time>2016-05-15T12:11:36.000Z</time>
      </trkpt>
      <trkpt lat="44.56246" lon="4.33018">
        <ele>307</ele>
        <time>2016-05-15T12:11:37.000Z</time>
      </trkpt>
      <trkpt lat="44.56242" lon="4.33016">
        <ele>307</ele>
        <time>2016-05-15T12:11:38.000Z</time>
      </trkpt>
      <trkpt lat="44.56237" lon="4.33015">
        <ele>307</ele>
        <time>2016-05-15T12:11:39.000Z</time>
      </trkpt>
      <trkpt lat="44.56232" lon="4.33013">
        <ele>306</ele>
        <time>2016-05-15T12:11:40.000Z</time>
      </trkpt>
      <trkpt lat="44.56228" lon="4.33011">
        <ele>306</ele>
        <time>2016-05-15T12:11:41.000Z</time>
      </trkpt>
      <trkpt lat="44.56224" lon="4.3301">
        <ele>306</ele>
        <time>2016-05-15T12:11:42.000Z</time>
      </trkpt>
      <trkpt lat="44.56219" lon="4.33008">
        <ele>305</ele>
        <time>2016-05-15T12:11:43.000Z</time>
      </trkpt>
      <trkpt lat="44.56214" lon="4.33007">
        <ele>304</ele>
        <time>2016-05-15T12:11:44.000Z</time>
      </trkpt>
      <trkpt lat="44.56209" lon="4.33008">
        <ele>304</ele>
        <time>2016-05-15T12:11:45.000Z</time>
      </trkpt>
      <trkpt lat="44.56205" lon="4.33012">
        <ele>303</ele>
        <time>2016-05-15T12:11:46.000Z</time>
      </trkpt>
      <trkpt lat="44.56202" lon="4.33017">
        <ele>303</ele>
        <time>2016-05-15T12:11:47.000Z</time>
      </trkpt>
      <trkpt lat="44.562" lon="4.33023">
        <ele>303</ele>
        <time>2016-05-15T12:11:48.000Z</time>
      </trkpt>
      <trkpt lat="44.56199" lon="4.33029">
        <ele>303</ele>
        <time>2016-05-15T12:11:49.000Z</time>
      </trkpt>
      <trkpt lat="44.56198" lon="4.33034">
        <ele>303</ele>
        <time>2016-05-15T12:11:50.000Z</time>
      </trkpt>
      <trkpt lat="44.56198" lon="4.33039">
        <ele>303</ele>
        <time>2016-05-15T12:11:51.000Z</time>
      </trkpt>
      <trkpt lat="44.56196" lon="4.33041">
        <ele>303</ele>
        <time>2016-05-15T12:11:52.000Z</time>
      </trkpt>
      <trkpt lat="44.56193" lon="4.3304">
        <ele>303</ele>
        <time>2016-05-15T12:11:53.000Z</time>
      </trkpt>
      <trkpt lat="44.56188" lon="4.33039">
        <ele>302</ele>
        <time>2016-05-15T12:11:54.000Z</time>
      </trkpt>
      <trkpt lat="44.56184" lon="4.33039">
        <ele>302</ele>
        <time>2016-05-15T12:11:55.000Z</time>
      </trkpt>
      <trkpt lat="44.5618" lon="4.33038">
        <ele>302</ele>
        <time>2016-05-15T12:11:56.000Z</time>
      </trkpt>
      <trkpt lat="44.56175" lon="4.33037">
        <ele>301</ele>
        <time>2016-05-15T12:11:57.000Z</time>
      </trkpt>
      <trkpt lat="44.5617" lon="4.33036">
        <ele>301</ele>
        <time>2016-05-15T12:11:58.000Z</time>
      </trkpt>
      <trkpt lat="44.56165" lon="4.33035">
        <ele>294</ele>
        <time>2016-05-15T12:11:59.000Z</time>
      </trkpt>
      <trkpt lat="44.56161" lon="4.33034">
        <ele>293</ele>
        <time>2016-05-15T12:12:00.000Z</time>
      </trkpt>
      <trkpt lat="44.56157" lon="4.33033">
        <ele>293</ele>
        <time>2016-05-15T12:12:01.000Z</time>
      </trkpt>
      <trkpt lat="44.56153" lon="4.33032">
        <ele>293</ele>
        <time>2016-05-15T12:12:02.000Z</time>
      </trkpt>
      <trkpt lat="44.56148" lon="4.33031">
        <ele>293</ele>
        <time>2016-05-15T12:12:03.000Z</time>
      </trkpt>
      <trkpt lat="44.56143" lon="4.33029">
        <ele>293</ele>
        <time>2016-05-15T12:12:04.000Z</time>
      </trkpt>
      <trkpt lat="44.56138" lon="4.33029">
        <ele>293</ele>
        <time>2016-05-15T12:12:05.000Z</time>
      </trkpt>
      <trkpt lat="44.56133" lon="4.33028">
        <ele>292</ele>
        <time>2016-05-15T12:12:06.000Z</time>
      </trkpt>
      <trkpt lat="44.56128" lon="4.33028">
        <ele>292</ele>
        <time>2016-05-15T12:12:07.000Z</time>
      </trkpt>
      <trkpt lat="44.56125" lon="4.33027">
        <ele>292</ele>
        <time>2016-05-15T12:12:08.000Z</time>
      </trkpt>
      <trkpt lat="44.56123" lon="4.33026">
        <ele>292</ele>
        <time>2016-05-15T12:12:09.000Z</time>
      </trkpt>
      <trkpt lat="44.56121" lon="4.33025">
        <ele>292</ele>
        <time>2016-05-15T12:12:10.000Z</time>
      </trkpt>
      <trkpt lat="44.5612" lon="4.33025">
        <ele>291</ele>
        <time>2016-05-15T12:12:11.000Z</time>
      </trkpt>
      <trkpt lat="44.5612" lon="4.33025">
        <ele>291</ele>
        <time>2016-05-15T12:12:12.000Z</time>
      </trkpt>
      <trkpt lat="44.5612" lon="4.33025">
        <ele>291</ele>
        <time>2016-05-15T12:12:13.000Z</time>
      </trkpt>
      <trkpt lat="44.5612" lon="4.33025">
        <ele>291</ele>
        <time>2016-05-15T12:12:14.000Z</time>
      </trkpt>
      <trkpt lat="44.5612" lon="4.33025">
        <ele>291</ele>
        <time>2016-05-15T12:12:15.000Z</time>
      </trkpt>
      <trkpt lat="44.5612" lon="4.33025">
        <ele>291</ele>
        <time>2016-05-15T12:12:16.000Z</time>
      </trkpt>
      <trkpt lat="44.56119" lon="4.33024">
        <ele>291</ele>
        <time>2016-05-15T12:12:17.000Z</time>
      </trkpt>
      <trkpt lat="44.56119" lon="4.33024">
        <ele>291</ele>
        <time>2016-05-15T12:12:18.000Z</time>
      </trkpt>
      <trkpt lat="44.56118" lon="4.33024">
        <ele>291</ele>
        <time>2016-05-15T12:12:19.000Z</time>
      </trkpt>
      <trkpt lat="44.56118" lon="4.33023">
        <ele>291</ele>
        <time>2016-05-15T12:12:20.000Z</time>
      </trkpt>
      <trkpt lat="44.56117" lon="4.33023">
        <ele>291</ele>
        <time>2016-05-15T12:12:21.000Z</time>
      </trkpt>
      <trkpt lat="44.56115" lon="4.33022">
        <ele>291</ele>
        <time>2016-05-15T12:12:22.000Z</time>
      </trkpt>
      <trkpt lat="44.56113" lon="4.33022">
        <ele>291</ele>
        <time>2016-05-15T12:12:23.000Z</time>
      </trkpt>
      <trkpt lat="44.56112" lon="4.33022">
        <ele>291</ele>
        <time>2016-05-15T12:12:24.000Z</time>
      </trkpt>
      <trkpt lat="44.5611" lon="4.33021">
        <ele>291</ele>
        <time>2016-05-15T12:12:25.000Z</time>
      </trkpt>
      <trkpt lat="44.56108" lon="4.33019">
        <ele>291</ele>
        <time>2016-05-15T12:12:26.000Z</time>
      </trkpt>
      <trkpt lat="44.56106" lon="4.33015">
        <ele>290</ele>
        <time>2016-05-15T12:12:27.000Z</time>
      </trkpt>
      <trkpt lat="44.56103" lon="4.33011">
        <ele>290</ele>
        <time>2016-05-15T12:12:28.000Z</time>
      </trkpt>
      <trkpt lat="44.56099" lon="4.3301">
        <ele>290</ele>
        <time>2016-05-15T12:12:29.000Z</time>
      </trkpt>
      <trkpt lat="44.56095" lon="4.3301">
        <ele>289</ele>
        <time>2016-05-15T12:12:30.000Z</time>
      </trkpt>
      <trkpt lat="44.56092" lon="4.33012">
        <ele>289</ele>
        <time>2016-05-15T12:12:31.000Z</time>
      </trkpt>
      <trkpt lat="44.5609" lon="4.33016">
        <ele>289</ele>
        <time>2016-05-15T12:12:32.000Z</time>
      </trkpt>
      <trkpt lat="44.56089" lon="4.3302">
        <ele>290</ele>
        <time>2016-05-15T12:12:33.000Z</time>
      </trkpt>
      <trkpt lat="44.56089" lon="4.33026">
        <ele>290</ele>
        <time>2016-05-15T12:12:34.000Z</time>
      </trkpt>
      <trkpt lat="44.5609" lon="4.33031">
        <ele>290</ele>
        <time>2016-05-15T12:12:35.000Z</time>
      </trkpt>
      <trkpt lat="44.5609" lon="4.33037">
        <ele>290</ele>
        <time>2016-05-15T12:12:36.000Z</time>
      </trkpt>
      <trkpt lat="44.56091" lon="4.33043">
        <ele>290</ele>
        <time>2016-05-15T12:12:37.000Z</time>
      </trkpt>
      <trkpt lat="44.56091" lon="4.33048">
        <ele>290</ele>
        <time>2016-05-15T12:12:38.000Z</time>
      </trkpt>
      <trkpt lat="44.56092" lon="4.33054">
        <ele>290</ele>
        <time>2016-05-15T12:12:39.000Z</time>
      </trkpt>
      <trkpt lat="44.56091" lon="4.33059">
        <ele>290</ele>
        <time>2016-05-15T12:12:40.000Z</time>
      </trkpt>
      <trkpt lat="44.5609" lon="4.33064">
        <ele>290</ele>
        <time>2016-05-15T12:12:41.000Z</time>
      </trkpt>
      <trkpt lat="44.56088" lon="4.33067">
        <ele>290</ele>
        <time>2016-05-15T12:12:42.000Z</time>
      </trkpt>
      <trkpt lat="44.56085" lon="4.33068">
        <ele>290</ele>
        <time>2016-05-15T12:12:43.000Z</time>
      </trkpt>
      <trkpt lat="44.56082" lon="4.33069">
        <ele>286</ele>
        <time>2016-05-15T12:12:44.000Z</time>
      </trkpt>
      <trkpt lat="44.56078" lon="4.33069">
        <ele>286</ele>
        <time>2016-05-15T12:12:45.000Z</time>
      </trkpt>
      <trkpt lat="44.56075" lon="4.33067">
        <ele>285</ele>
        <time>2016-05-15T12:12:46.000Z</time>
      </trkpt>
      <trkpt lat="44.56071" lon="4.33065">
        <ele>285</ele>
        <time>2016-05-15T12:12:47.000Z</time>
      </trkpt>
      <trkpt lat="44.56067" lon="4.33064">
        <ele>285</ele>
        <time>2016-05-15T12:12:48.000Z</time>
      </trkpt>
      <trkpt lat="44.56062" lon="4.33062">
        <ele>284</ele>
        <time>2016-05-15T12:12:49.000Z</time>
      </trkpt>
      <trkpt lat="44.56056" lon="4.33061">
        <ele>284</ele>
        <time>2016-05-15T12:12:50.000Z</time>
      </trkpt>
      <trkpt lat="44.5605" lon="4.33059">
        <ele>284</ele>
        <time>2016-05-15T12:12:51.000Z</time>
      </trkpt>
      <trkpt lat="44.56044" lon="4.33057">
        <ele>283</ele>
        <time>2016-05-15T12:12:52.000Z</time>
      </trkpt>
      <trkpt lat="44.56038" lon="4.33055">
        <ele>283</ele>
        <time>2016-05-15T12:12:53.000Z</time>
      </trkpt>
      <trkpt lat="44.56034" lon="4.33052">
        <ele>283</ele>
        <time>2016-05-15T12:12:54.000Z</time>
      </trkpt>
      <trkpt lat="44.56031" lon="4.33048">
        <ele>283</ele>
        <time>2016-05-15T12:12:55.000Z</time>
      </trkpt>
      <trkpt lat="44.56028" lon="4.33043">
        <ele>282</ele>
        <time>2016-05-15T12:12:56.000Z</time>
      </trkpt>
      <trkpt lat="44.56027" lon="4.33036">
        <ele>282</ele>
        <time>2016-05-15T12:12:57.000Z</time>
      </trkpt>
      <trkpt lat="44.56028" lon="4.33028">
        <ele>282</ele>
        <time>2016-05-15T12:12:58.000Z</time>
      </trkpt>
      <trkpt lat="44.56028" lon="4.33021">
        <ele>282</ele>
        <time>2016-05-15T12:12:59.000Z</time>
      </trkpt>
      <trkpt lat="44.56027" lon="4.33014">
        <ele>282</ele>
        <time>2016-05-15T12:13:00.000Z</time>
      </trkpt>
      <trkpt lat="44.56024" lon="4.33007">
        <ele>281</ele>
        <time>2016-05-15T12:13:01.000Z</time>
      </trkpt>
      <trkpt lat="44.5602" lon="4.33001">
        <ele>280</ele>
        <time>2016-05-15T12:13:02.000Z</time>
      </trkpt>
      <trkpt lat="44.56015" lon="4.32995">
        <ele>280</ele>
        <time>2016-05-15T12:13:03.000Z</time>
      </trkpt>
      <trkpt lat="44.56009" lon="4.3299">
        <ele>279</ele>
        <time>2016-05-15T12:13:04.000Z</time>
      </trkpt>
      <trkpt lat="44.56002" lon="4.32987">
        <ele>279</ele>
        <time>2016-05-15T12:13:05.000Z</time>
      </trkpt>
      <trkpt lat="44.55993" lon="4.32986">
        <ele>275</ele>
        <time>2016-05-15T12:13:06.000Z</time>
      </trkpt>
      <trkpt lat="44.55985" lon="4.32986">
        <ele>275</ele>
        <time>2016-05-15T12:13:07.000Z</time>
      </trkpt>
      <trkpt lat="44.55976" lon="4.32987">
        <ele>274</ele>
        <time>2016-05-15T12:13:08.000Z</time>
      </trkpt>
      <trkpt lat="44.55967" lon="4.32988">
        <ele>274</ele>
        <time>2016-05-15T12:13:09.000Z</time>
      </trkpt>
      <trkpt lat="44.55958" lon="4.32987">
        <ele>273</ele>
        <time>2016-05-15T12:13:10.000Z</time>
      </trkpt>
      <trkpt lat="44.55949" lon="4.32984">
        <ele>272</ele>
        <time>2016-05-15T12:13:11.000Z</time>
      </trkpt>
      <trkpt lat="44.55939" lon="4.32982">
        <ele>272</ele>
        <time>2016-05-15T12:13:12.000Z</time>
      </trkpt>
      <trkpt lat="44.55929" lon="4.3298">
        <ele>271</ele>
        <time>2016-05-15T12:13:13.000Z</time>
      </trkpt>
      <trkpt lat="44.55921" lon="4.3298">
        <ele>271</ele>
        <time>2016-05-15T12:13:14.000Z</time>
      </trkpt>
      <trkpt lat="44.55913" lon="4.32982">
        <ele>267</ele>
        <time>2016-05-15T12:13:15.000Z</time>
      </trkpt>
      <trkpt lat="44.55908" lon="4.32982">
        <ele>267</ele>
        <time>2016-05-15T12:13:16.000Z</time>
      </trkpt>
      <trkpt lat="44.55903" lon="4.32979">
        <ele>266</ele>
        <time>2016-05-15T12:13:17.000Z</time>
      </trkpt>
      <trkpt lat="44.55898" lon="4.32973">
        <ele>266</ele>
        <time>2016-05-15T12:13:18.000Z</time>
      </trkpt>
      <trkpt lat="44.55894" lon="4.32965">
        <ele>266</ele>
        <time>2016-05-15T12:13:19.000Z</time>
      </trkpt>
      <trkpt lat="44.55889" lon="4.32956">
        <ele>266</ele>
        <time>2016-05-15T12:13:20.000Z</time>
      </trkpt>
      <trkpt lat="44.55885" lon="4.32948">
        <ele>266</ele>
        <time>2016-05-15T12:13:21.000Z</time>
      </trkpt>
      <trkpt lat="44.5588" lon="4.3294">
        <ele>266</ele>
        <time>2016-05-15T12:13:22.000Z</time>
      </trkpt>
      <trkpt lat="44.55873" lon="4.32935">
        <ele>265</ele>
        <time>2016-05-15T12:13:23.000Z</time>
      </trkpt>
      <trkpt lat="44.55866" lon="4.32933">
        <ele>265</ele>
        <time>2016-05-15T12:13:24.000Z</time>
      </trkpt>
      <trkpt lat="44.55858" lon="4.32933">
        <ele>265</ele>
        <time>2016-05-15T12:13:25.000Z</time>
      </trkpt>
      <trkpt lat="44.5585" lon="4.32933">
        <ele>264</ele>
        <time>2016-05-15T12:13:26.000Z</time>
      </trkpt>
      <trkpt lat="44.55841" lon="4.32932">
        <ele>264</ele>
        <time>2016-05-15T12:13:27.000Z</time>
      </trkpt>
      <trkpt lat="44.55831" lon="4.32931">
        <ele>262</ele>
        <time>2016-05-15T12:13:28.000Z</time>
      </trkpt>
      <trkpt lat="44.55822" lon="4.32929">
        <ele>262</ele>
        <time>2016-05-15T12:13:29.000Z</time>
      </trkpt>
      <trkpt lat="44.55813" lon="4.32926">
        <ele>261</ele>
        <time>2016-05-15T12:13:30.000Z</time>
      </trkpt>
      <trkpt lat="44.55805" lon="4.32924">
        <ele>261</ele>
        <time>2016-05-15T12:13:31.000Z</time>
      </trkpt>
      <trkpt lat="44.55796" lon="4.32921">
        <ele>261</ele>
        <time>2016-05-15T12:13:32.000Z</time>
      </trkpt>
      <trkpt lat="44.55789" lon="4.32918">
        <ele>260</ele>
        <time>2016-05-15T12:13:33.000Z</time>
      </trkpt>
      <trkpt lat="44.55781" lon="4.32916">
        <ele>263</ele>
        <time>2016-05-15T12:13:34.000Z</time>
      </trkpt>
      <trkpt lat="44.55774" lon="4.32916">
        <ele>262</ele>
        <time>2016-05-15T12:13:35.000Z</time>
      </trkpt>
      <trkpt lat="44.55768" lon="4.32915">
        <ele>262</ele>
        <time>2016-05-15T12:13:36.000Z</time>
      </trkpt>
      <trkpt lat="44.55762" lon="4.32914">
        <ele>261</ele>
        <time>2016-05-15T12:13:37.000Z</time>
      </trkpt>
      <trkpt lat="44.55757" lon="4.32912">
        <ele>261</ele>
        <time>2016-05-15T12:13:38.000Z</time>
      </trkpt>
      <trkpt lat="44.55752" lon="4.32914">
        <ele>260</ele>
        <time>2016-05-15T12:13:39.000Z</time>
      </trkpt>
      <trkpt lat="44.55749" lon="4.32921">
        <ele>260</ele>
        <time>2016-05-15T12:13:40.000Z</time>
      </trkpt>
      <trkpt lat="44.55747" lon="4.32928">
        <ele>259</ele>
        <time>2016-05-15T12:13:41.000Z</time>
      </trkpt>
      <trkpt lat="44.55744" lon="4.32936">
        <ele>259</ele>
        <time>2016-05-15T12:13:42.000Z</time>
      </trkpt>
      <trkpt lat="44.55741" lon="4.32945">
        <ele>259</ele>
        <time>2016-05-15T12:13:43.000Z</time>
      </trkpt>
      <trkpt lat="44.55738" lon="4.32953">
        <ele>258</ele>
        <time>2016-05-15T12:13:44.000Z</time>
      </trkpt>
      <trkpt lat="44.55734" lon="4.32962">
        <ele>258</ele>
        <time>2016-05-15T12:13:45.000Z</time>
      </trkpt>
      <trkpt lat="44.5573" lon="4.3297">
        <ele>258</ele>
        <time>2016-05-15T12:13:46.000Z</time>
      </trkpt>
      <trkpt lat="44.55726" lon="4.32977">
        <ele>258</ele>
        <time>2016-05-15T12:13:47.000Z</time>
      </trkpt>
      <trkpt lat="44.55722" lon="4.32984">
        <ele>258</ele>
        <time>2016-05-15T12:13:48.000Z</time>
      </trkpt>
      <trkpt lat="44.55718" lon="4.32992">
        <ele>258</ele>
        <time>2016-05-15T12:13:49.000Z</time>
      </trkpt>
      <trkpt lat="44.55715" lon="4.32999">
        <ele>258</ele>
        <time>2016-05-15T12:13:50.000Z</time>
      </trkpt>
      <trkpt lat="44.55711" lon="4.33007">
        <ele>257</ele>
        <time>2016-05-15T12:13:51.000Z</time>
      </trkpt>
      <trkpt lat="44.55708" lon="4.33015">
        <ele>257</ele>
        <time>2016-05-15T12:13:52.000Z</time>
      </trkpt>
      <trkpt lat="44.55704" lon="4.33022">
        <ele>257</ele>
        <time>2016-05-15T12:13:53.000Z</time>
      </trkpt>
      <trkpt lat="44.557" lon="4.33029">
        <ele>257</ele>
        <time>2016-05-15T12:13:54.000Z</time>
      </trkpt>
      <trkpt lat="44.55696" lon="4.33037">
        <ele>257</ele>
        <time>2016-05-15T12:13:55.000Z</time>
      </trkpt>
      <trkpt lat="44.55693" lon="4.33045">
        <ele>256</ele>
        <time>2016-05-15T12:13:56.000Z</time>
      </trkpt>
      <trkpt lat="44.5569" lon="4.33054">
        <ele>256</ele>
        <time>2016-05-15T12:13:57.000Z</time>
      </trkpt>
      <trkpt lat="44.55687" lon="4.33062">
        <ele>256</ele>
        <time>2016-05-15T12:13:58.000Z</time>
      </trkpt>
      <trkpt lat="44.55682" lon="4.33067">
        <ele>255</ele>
        <time>2016-05-15T12:13:59.000Z</time>
      </trkpt>
      <trkpt lat="44.55677" lon="4.3307">
        <ele>255</ele>
        <time>2016-05-15T12:14:00.000Z</time>
      </trkpt>
      <trkpt lat="44.55671" lon="4.33072">
        <ele>255</ele>
        <time>2016-05-15T12:14:01.000Z</time>
      </trkpt>
      <trkpt lat="44.55665" lon="4.33073">
        <ele>254</ele>
        <time>2016-05-15T12:14:02.000Z</time>
      </trkpt>
      <trkpt lat="44.5566" lon="4.33074">
        <ele>254</ele>
        <time>2016-05-15T12:14:03.000Z</time>
      </trkpt>
      <trkpt lat="44.55655" lon="4.33074">
        <ele>254</ele>
        <time>2016-05-15T12:14:04.000Z</time>
      </trkpt>
      <trkpt lat="44.55649" lon="4.33075">
        <ele>254</ele>
        <time>2016-05-15T12:14:05.000Z</time>
      </trkpt>
      <trkpt lat="44.55644" lon="4.33076">
        <ele>254</ele>
        <time>2016-05-15T12:14:06.000Z</time>
      </trkpt>
      <trkpt lat="44.55639" lon="4.33076">
        <ele>254</ele>
        <time>2016-05-15T12:14:07.000Z</time>
      </trkpt>
      <trkpt lat="44.55634" lon="4.33074">
        <ele>254</ele>
        <time>2016-05-15T12:14:08.000Z</time>
      </trkpt>
      <trkpt lat="44.5563" lon="4.3307">
        <ele>254</ele>
        <time>2016-05-15T12:14:09.000Z</time>
      </trkpt>
      <trkpt lat="44.55627" lon="4.33064">
        <ele>254</ele>
        <time>2016-05-15T12:14:10.000Z</time>
      </trkpt>
      <trkpt lat="44.55624" lon="4.33057">
        <ele>255</ele>
        <time>2016-05-15T12:14:11.000Z</time>
      </trkpt>
      <trkpt lat="44.55621" lon="4.33051">
        <ele>255</ele>
        <time>2016-05-15T12:14:12.000Z</time>
      </trkpt>
      <trkpt lat="44.55617" lon="4.33045">
        <ele>255</ele>
        <time>2016-05-15T12:14:13.000Z</time>
      </trkpt>
      <trkpt lat="44.55613" lon="4.33039">
        <ele>255</ele>
        <time>2016-05-15T12:14:14.000Z</time>
      </trkpt>
      <trkpt lat="44.55609" lon="4.33033">
        <ele>255</ele>
        <time>2016-05-15T12:14:15.000Z</time>
      </trkpt>
      <trkpt lat="44.55605" lon="4.33027">
        <ele>255</ele>
        <time>2016-05-15T12:14:16.000Z</time>
      </trkpt>
      <trkpt lat="44.55601" lon="4.33022">
        <ele>255</ele>
        <time>2016-05-15T12:14:17.000Z</time>
      </trkpt>
      <trkpt lat="44.55597" lon="4.33018">
        <ele>255</ele>
        <time>2016-05-15T12:14:18.000Z</time>
      </trkpt>
      <trkpt lat="44.55592" lon="4.33017">
        <ele>255</ele>
        <time>2016-05-15T12:14:19.000Z</time>
      </trkpt>
      <trkpt lat="44.55588" lon="4.33016">
        <ele>255</ele>
        <time>2016-05-15T12:14:20.000Z</time>
      </trkpt>
      <trkpt lat="44.55584" lon="4.33016">
        <ele>255</ele>
        <time>2016-05-15T12:14:21.000Z</time>
      </trkpt>
      <trkpt lat="44.5558" lon="4.33016">
        <ele>256</ele>
        <time>2016-05-15T12:14:22.000Z</time>
      </trkpt>
      <trkpt lat="44.55576" lon="4.33017">
        <ele>257</ele>
        <time>2016-05-15T12:14:23.000Z</time>
      </trkpt>
      <trkpt lat="44.55573" lon="4.33018">
        <ele>257</ele>
        <time>2016-05-15T12:14:24.000Z</time>
      </trkpt>
      <trkpt lat="44.5557" lon="4.33019">
        <ele>257</ele>
        <time>2016-05-15T12:14:25.000Z</time>
      </trkpt>
      <trkpt lat="44.55567" lon="4.33019">
        <ele>257</ele>
        <time>2016-05-15T12:14:26.000Z</time>
      </trkpt>
      <trkpt lat="44.55564" lon="4.33018">
        <ele>257</ele>
        <time>2016-05-15T12:14:27.000Z</time>
      </trkpt>
      <trkpt lat="44.55561" lon="4.33016">
        <ele>257</ele>
        <time>2016-05-15T12:14:28.000Z</time>
      </trkpt>
      <trkpt lat="44.55558" lon="4.33015">
        <ele>257</ele>
        <time>2016-05-15T12:14:29.000Z</time>
      </trkpt>
      <trkpt lat="44.55555" lon="4.33014">
        <ele>258</ele>
        <time>2016-05-15T12:14:30.000Z</time>
      </trkpt>
      <trkpt lat="44.55552" lon="4.33013">
        <ele>258</ele>
        <time>2016-05-15T12:14:31.000Z</time>
      </trkpt>
      <trkpt lat="44.55548" lon="4.33011">
        <ele>258</ele>
        <time>2016-05-15T12:14:32.000Z</time>
      </trkpt>
      <trkpt lat="44.55545" lon="4.33009">
        <ele>258</ele>
        <time>2016-05-15T12:14:33.000Z</time>
      </trkpt>
      <trkpt lat="44.55542" lon="4.33007">
        <ele>258</ele>
        <time>2016-05-15T12:14:34.000Z</time>
      </trkpt>
      <trkpt lat="44.55539" lon="4.33005">
        <ele>259</ele>
        <time>2016-05-15T12:14:35.000Z</time>
      </trkpt>
      <trkpt lat="44.55536" lon="4.33003">
        <ele>259</ele>
        <time>2016-05-15T12:14:36.000Z</time>
      </trkpt>
      <trkpt lat="44.55532" lon="4.33002">
        <ele>259</ele>
        <time>2016-05-15T12:14:37.000Z</time>
      </trkpt>
      <trkpt lat="44.55528" lon="4.33">
        <ele>259</ele>
        <time>2016-05-15T12:14:38.000Z</time>
      </trkpt>
      <trkpt lat="44.55524" lon="4.32998">
        <ele>260</ele>
        <time>2016-05-15T12:14:39.000Z</time>
      </trkpt>
      <trkpt lat="44.5552" lon="4.32997">
        <ele>260</ele>
        <time>2016-05-15T12:14:40.000Z</time>
      </trkpt>
      <trkpt lat="44.55516" lon="4.32996">
        <ele>260</ele>
        <time>2016-05-15T12:14:41.000Z</time>
      </trkpt>
      <trkpt lat="44.55512" lon="4.32995">
        <ele>261</ele>
        <time>2016-05-15T12:14:42.000Z</time>
      </trkpt>
      <trkpt lat="44.55508" lon="4.32994">
        <ele>261</ele>
        <time>2016-05-15T12:14:43.000Z</time>
      </trkpt>
      <trkpt lat="44.55503" lon="4.32992">
        <ele>261</ele>
        <time>2016-05-15T12:14:44.000Z</time>
      </trkpt>
      <trkpt lat="44.555" lon="4.3299">
        <ele>262</ele>
        <time>2016-05-15T12:14:45.000Z</time>
      </trkpt>
      <trkpt lat="44.55497" lon="4.32986">
        <ele>262</ele>
        <time>2016-05-15T12:14:46.000Z</time>
      </trkpt>
      <trkpt lat="44.55493" lon="4.32982">
        <ele>262</ele>
        <time>2016-05-15T12:14:47.000Z</time>
      </trkpt>
      <trkpt lat="44.5549" lon="4.32979">
        <ele>262</ele>
        <time>2016-05-15T12:14:48.000Z</time>
      </trkpt>
      <trkpt lat="44.55487" lon="4.32976">
        <ele>262</ele>
        <time>2016-05-15T12:14:49.000Z</time>
      </trkpt>
      <trkpt lat="44.55483" lon="4.32974">
        <ele>262</ele>
        <time>2016-05-15T12:14:50.000Z</time>
      </trkpt>
      <trkpt lat="44.5548" lon="4.32972">
        <ele>263</ele>
        <time>2016-05-15T12:14:51.000Z</time>
      </trkpt>
      <trkpt lat="44.55476" lon="4.32971">
        <ele>263</ele>
        <time>2016-05-15T12:14:52.000Z</time>
      </trkpt>
      <trkpt lat="44.55473" lon="4.3297">
        <ele>263</ele>
        <time>2016-05-15T12:14:53.000Z</time>
      </trkpt>
      <trkpt lat="44.55471" lon="4.32968">
        <ele>263</ele>
        <time>2016-05-15T12:14:54.000Z</time>
      </trkpt>
      <trkpt lat="44.55469" lon="4.32967">
        <ele>263</ele>
        <time>2016-05-15T12:14:55.000Z</time>
      </trkpt>
      <trkpt lat="44.55467" lon="4.32967">
        <ele>263</ele>
        <time>2016-05-15T12:14:56.000Z</time>
      </trkpt>
      <trkpt lat="44.55465" lon="4.32969">
        <ele>263</ele>
        <time>2016-05-15T12:14:57.000Z</time>
      </trkpt>
      <trkpt lat="44.55463" lon="4.32973">
        <ele>263</ele>
        <time>2016-05-15T12:14:58.000Z</time>
      </trkpt>
      <trkpt lat="44.55461" lon="4.32977">
        <ele>263</ele>
        <time>2016-05-15T12:14:59.000Z</time>
      </trkpt>
      <trkpt lat="44.55459" lon="4.32982">
        <ele>263</ele>
        <time>2016-05-15T12:15:00.000Z</time>
      </trkpt>
      <trkpt lat="44.55457" lon="4.32988">
        <ele>263</ele>
        <time>2016-05-15T12:15:01.000Z</time>
      </trkpt>
      <trkpt lat="44.55455" lon="4.32993">
        <ele>263</ele>
        <time>2016-05-15T12:15:02.000Z</time>
      </trkpt>
      <trkpt lat="44.55453" lon="4.32998">
        <ele>263</ele>
        <time>2016-05-15T12:15:03.000Z</time>
      </trkpt>
      <trkpt lat="44.55451" lon="4.33003">
        <ele>263</ele>
        <time>2016-05-15T12:15:04.000Z</time>
      </trkpt>
      <trkpt lat="44.55448" lon="4.33007">
        <ele>263</ele>
        <time>2016-05-15T12:15:05.000Z</time>
      </trkpt>
      <trkpt lat="44.55446" lon="4.33012">
        <ele>263</ele>
        <time>2016-05-15T12:15:06.000Z</time>
      </trkpt>
      <trkpt lat="44.55443" lon="4.33016">
        <ele>263</ele>
        <time>2016-05-15T12:15:07.000Z</time>
      </trkpt>
      <trkpt lat="44.5544" lon="4.33021">
        <ele>263</ele>
        <time>2016-05-15T12:15:08.000Z</time>
      </trkpt>
      <trkpt lat="44.55437" lon="4.33025">
        <ele>263</ele>
        <time>2016-05-15T12:15:09.000Z</time>
      </trkpt>
      <trkpt lat="44.55435" lon="4.33029">
        <ele>263</ele>
        <time>2016-05-15T12:15:10.000Z</time>
      </trkpt>
      <trkpt lat="44.55433" lon="4.33033">
        <ele>263</ele>
        <time>2016-05-15T12:15:11.000Z</time>
      </trkpt>
      <trkpt lat="44.5543" lon="4.33037">
        <ele>263</ele>
        <time>2016-05-15T12:15:12.000Z</time>
      </trkpt>
      <trkpt lat="44.55428" lon="4.33041">
        <ele>263</ele>
        <time>2016-05-15T12:15:13.000Z</time>
      </trkpt>
      <trkpt lat="44.55426" lon="4.33044">
        <ele>263</ele>
        <time>2016-05-15T12:15:14.000Z</time>
      </trkpt>
      <trkpt lat="44.55423" lon="4.33048">
        <ele>263</ele>
        <time>2016-05-15T12:15:15.000Z</time>
      </trkpt>
      <trkpt lat="44.55421" lon="4.33051">
        <ele>263</ele>
        <time>2016-05-15T12:15:16.000Z</time>
      </trkpt>
      <trkpt lat="44.55419" lon="4.33054">
        <ele>263</ele>
        <time>2016-05-15T12:15:17.000Z</time>
      </trkpt>
      <trkpt lat="44.55417" lon="4.33058">
        <ele>263</ele>
        <time>2016-05-15T12:15:18.000Z</time>
      </trkpt>
      <trkpt lat="44.55414" lon="4.33062">
        <ele>263</ele>
        <time>2016-05-15T12:15:19.000Z</time>
      </trkpt>
      <trkpt lat="44.55411" lon="4.33066">
        <ele>263</ele>
        <time>2016-05-15T12:15:20.000Z</time>
      </trkpt>
      <trkpt lat="44.55409" lon="4.3307">
        <ele>263</ele>
        <time>2016-05-15T12:15:21.000Z</time>
      </trkpt>
      <trkpt lat="44.55406" lon="4.33074">
        <ele>263</ele>
        <time>2016-05-15T12:15:22.000Z</time>
      </trkpt>
      <trkpt lat="44.55402" lon="4.33078">
        <ele>263</ele>
        <time>2016-05-15T12:15:23.000Z</time>
      </trkpt>
      <trkpt lat="44.55399" lon="4.33081">
        <ele>263</ele>
        <time>2016-05-15T12:15:24.000Z</time>
      </trkpt>
      <trkpt lat="44.55395" lon="4.33084">
        <ele>263</ele>
        <time>2016-05-15T12:15:25.000Z</time>
      </trkpt>
      <trkpt lat="44.55391" lon="4.33085">
        <ele>263</ele>
        <time>2016-05-15T12:15:26.000Z</time>
      </trkpt>
      <trkpt lat="44.55387" lon="4.33086">
        <ele>263</ele>
        <time>2016-05-15T12:15:27.000Z</time>
      </trkpt>
      <trkpt lat="44.55382" lon="4.33086">
        <ele>263</ele>
        <time>2016-05-15T12:15:28.000Z</time>
      </trkpt>
      <trkpt lat="44.55377" lon="4.33086">
        <ele>263</ele>
        <time>2016-05-15T12:15:29.000Z</time>
      </trkpt>
      <trkpt lat="44.55373" lon="4.33085">
        <ele>263</ele>
        <time>2016-05-15T12:15:30.000Z</time>
      </trkpt>
      <trkpt lat="44.55368" lon="4.33086">
        <ele>263</ele>
        <time>2016-05-15T12:15:31.000Z</time>
      </trkpt>
      <trkpt lat="44.55364" lon="4.33087">
        <ele>263</ele>
        <time>2016-05-15T12:15:32.000Z</time>
      </trkpt>
      <trkpt lat="44.55361" lon="4.33088">
        <ele>263</ele>
        <time>2016-05-15T12:15:33.000Z</time>
      </trkpt>
      <trkpt lat="44.55358" lon="4.33089">
        <ele>263</ele>
        <time>2016-05-15T12:15:34.000Z</time>
      </trkpt>
      <trkpt lat="44.55356" lon="4.33089">
        <ele>263</ele>
        <time>2016-05-15T12:15:35.000Z</time>
      </trkpt>
      <trkpt lat="44.55354" lon="4.33087">
        <ele>262</ele>
        <time>2016-05-15T12:15:36.000Z</time>
      </trkpt>
      <trkpt lat="44.55351" lon="4.33086">
        <ele>262</ele>
        <time>2016-05-15T12:15:37.000Z</time>
      </trkpt>
      <trkpt lat="44.55348" lon="4.33083">
        <ele>262</ele>
        <time>2016-05-15T12:15:38.000Z</time>
      </trkpt>
      <trkpt lat="44.55345" lon="4.33081">
        <ele>262</ele>
        <time>2016-05-15T12:15:39.000Z</time>
      </trkpt>
      <trkpt lat="44.55341" lon="4.33078">
        <ele>262</ele>
        <time>2016-05-15T12:15:40.000Z</time>
      </trkpt>
      <trkpt lat="44.55336" lon="4.33076">
        <ele>262</ele>
        <time>2016-05-15T12:15:41.000Z</time>
      </trkpt>
      <trkpt lat="44.55331" lon="4.33073">
        <ele>261</ele>
        <time>2016-05-15T12:15:42.000Z</time>
      </trkpt>
      <trkpt lat="44.55326" lon="4.3307">
        <ele>260</ele>
        <time>2016-05-15T12:15:43.000Z</time>
      </trkpt>
      <trkpt lat="44.55321" lon="4.33067">
        <ele>260</ele>
        <time>2016-05-15T12:15:44.000Z</time>
      </trkpt>
      <trkpt lat="44.55316" lon="4.33064">
        <ele>259</ele>
        <time>2016-05-15T12:15:45.000Z</time>
      </trkpt>
      <trkpt lat="44.5531" lon="4.33062">
        <ele>259</ele>
        <time>2016-05-15T12:15:46.000Z</time>
      </trkpt>
      <trkpt lat="44.55305" lon="4.33058">
        <ele>258</ele>
        <time>2016-05-15T12:15:47.000Z</time>
      </trkpt>
      <trkpt lat="44.55301" lon="4.33055">
        <ele>258</ele>
        <time>2016-05-15T12:15:48.000Z</time>
      </trkpt>
      <trkpt lat="44.55296" lon="4.33051">
        <ele>258</ele>
        <time>2016-05-15T12:15:49.000Z</time>
      </trkpt>
      <trkpt lat="44.55292" lon="4.33048">
        <ele>258</ele>
        <time>2016-05-15T12:15:50.000Z</time>
      </trkpt>
      <trkpt lat="44.55289" lon="4.33045">
        <ele>258</ele>
        <time>2016-05-15T12:15:51.000Z</time>
      </trkpt>
      <trkpt lat="44.55287" lon="4.33042">
        <ele>258</ele>
        <time>2016-05-15T12:15:52.000Z</time>
      </trkpt>
      <trkpt lat="44.55286" lon="4.33037">
        <ele>258</ele>
        <time>2016-05-15T12:15:53.000Z</time>
      </trkpt>
      <trkpt lat="44.55285" lon="4.33031">
        <ele>257</ele>
        <time>2016-05-15T12:15:54.000Z</time>
      </trkpt>
      <trkpt lat="44.55284" lon="4.33027">
        <ele>257</ele>
        <time>2016-05-15T12:15:55.000Z</time>
      </trkpt>
      <trkpt lat="44.55283" lon="4.33022">
        <ele>257</ele>
        <time>2016-05-15T12:15:56.000Z</time>
      </trkpt>
      <trkpt lat="44.55282" lon="4.33017">
        <ele>257</ele>
        <time>2016-05-15T12:15:57.000Z</time>
      </trkpt>
      <trkpt lat="44.55281" lon="4.33011">
        <ele>257</ele>
        <time>2016-05-15T12:15:58.000Z</time>
      </trkpt>
      <trkpt lat="44.55279" lon="4.33007">
        <ele>257</ele>
        <time>2016-05-15T12:15:59.000Z</time>
      </trkpt>
      <trkpt lat="44.55276" lon="4.33003">
        <ele>257</ele>
        <time>2016-05-15T12:16:00.000Z</time>
      </trkpt>
      <trkpt lat="44.55272" lon="4.33001">
        <ele>257</ele>
        <time>2016-05-15T12:16:01.000Z</time>
      </trkpt>
      <trkpt lat="44.55268" lon="4.32999">
        <ele>257</ele>
        <time>2016-05-15T12:16:02.000Z</time>
      </trkpt>
      <trkpt lat="44.55265" lon="4.32998">
        <ele>257</ele>
        <time>2016-05-15T12:16:03.000Z</time>
      </trkpt>
      <trkpt lat="44.5526" lon="4.32997">
        <ele>256</ele>
        <time>2016-05-15T12:16:04.000Z</time>
      </trkpt>
      <trkpt lat="44.55256" lon="4.32996">
        <ele>256</ele>
        <time>2016-05-15T12:16:05.000Z</time>
      </trkpt>
      <trkpt lat="44.55252" lon="4.32996">
        <ele>256</ele>
        <time>2016-05-15T12:16:06.000Z</time>
      </trkpt>
      <trkpt lat="44.55248" lon="4.32997">
        <ele>255</ele>
        <time>2016-05-15T12:16:07.000Z</time>
      </trkpt>
      <trkpt lat="44.55244" lon="4.32998">
        <ele>255</ele>
        <time>2016-05-15T12:16:08.000Z</time>
      </trkpt>
      <trkpt lat="44.55241" lon="4.33">
        <ele>256</ele>
        <time>2016-05-15T12:16:09.000Z</time>
      </trkpt>
      <trkpt lat="44.55236" lon="4.33003">
        <ele>255</ele>
        <time>2016-05-15T12:16:10.000Z</time>
      </trkpt>
      <trkpt lat="44.55232" lon="4.33005">
        <ele>255</ele>
        <time>2016-05-15T12:16:11.000Z</time>
      </trkpt>
      <trkpt lat="44.55229" lon="4.33007">
        <ele>255</ele>
        <time>2016-05-15T12:16:12.000Z</time>
      </trkpt>
      <trkpt lat="44.55225" lon="4.33009">
        <ele>255</ele>
        <time>2016-05-15T12:16:13.000Z</time>
      </trkpt>
      <trkpt lat="44.55221" lon="4.33011">
        <ele>254</ele>
        <time>2016-05-15T12:16:14.000Z</time>
      </trkpt>
      <trkpt lat="44.55218" lon="4.33014">
        <ele>254</ele>
        <time>2016-05-15T12:16:15.000Z</time>
      </trkpt>
      <trkpt lat="44.55214" lon="4.33016">
        <ele>254</ele>
        <time>2016-05-15T12:16:16.000Z</time>
      </trkpt>
      <trkpt lat="44.5521" lon="4.33018">
        <ele>254</ele>
        <time>2016-05-15T12:16:17.000Z</time>
      </trkpt>
      <trkpt lat="44.55206" lon="4.3302">
        <ele>254</ele>
        <time>2016-05-15T12:16:18.000Z</time>
      </trkpt>
      <trkpt lat="44.55202" lon="4.33023">
        <ele>254</ele>
        <time>2016-05-15T12:16:19.000Z</time>
      </trkpt>
      <trkpt lat="44.55199" lon="4.33025">
        <ele>254</ele>
        <time>2016-05-15T12:16:20.000Z</time>
      </trkpt>
      <trkpt lat="44.55195" lon="4.33028">
        <ele>254</ele>
        <time>2016-05-15T12:16:21.000Z</time>
      </trkpt>
      <trkpt lat="44.55192" lon="4.3303">
        <ele>254</ele>
        <time>2016-05-15T12:16:22.000Z</time>
      </trkpt>
      <trkpt lat="44.55188" lon="4.33032">
        <ele>254</ele>
        <time>2016-05-15T12:16:23.000Z</time>
      </trkpt>
      <trkpt lat="44.55184" lon="4.33034">
        <ele>254</ele>
        <time>2016-05-15T12:16:24.000Z</time>
      </trkpt>
      <trkpt lat="44.55181" lon="4.33035">
        <ele>254</ele>
        <time>2016-05-15T12:16:25.000Z</time>
      </trkpt>
      <trkpt lat="44.55179" lon="4.33036">
        <ele>254</ele>
        <time>2016-05-15T12:16:26.000Z</time>
      </trkpt>
      <trkpt lat="44.55176" lon="4.33039">
        <ele>254</ele>
        <time>2016-05-15T12:16:27.000Z</time>
      </trkpt>
      <trkpt lat="44.55173" lon="4.3304">
        <ele>254</ele>
        <time>2016-05-15T12:16:28.000Z</time>
      </trkpt>
      <trkpt lat="44.5517" lon="4.3304">
        <ele>254</ele>
        <time>2016-05-15T12:16:29.000Z</time>
      </trkpt>
      <trkpt lat="44.55167" lon="4.33039">
        <ele>254</ele>
        <time>2016-05-15T12:16:30.000Z</time>
      </trkpt>
      <trkpt lat="44.55164" lon="4.33038">
        <ele>253</ele>
        <time>2016-05-15T12:16:31.000Z</time>
      </trkpt>
      <trkpt lat="44.55161" lon="4.33036">
        <ele>253</ele>
        <time>2016-05-15T12:16:32.000Z</time>
      </trkpt>
      <trkpt lat="44.5516" lon="4.33033">
        <ele>253</ele>
        <time>2016-05-15T12:16:33.000Z</time>
      </trkpt>
      <trkpt lat="44.55159" lon="4.3303">
        <ele>253</ele>
        <time>2016-05-15T12:16:34.000Z</time>
      </trkpt>
      <trkpt lat="44.55158" lon="4.33028">
        <ele>253</ele>
        <time>2016-05-15T12:16:35.000Z</time>
      </trkpt>
      <trkpt lat="44.55158" lon="4.33025">
        <ele>254</ele>
        <time>2016-05-15T12:16:36.000Z</time>
      </trkpt>
      <trkpt lat="44.55157" lon="4.33023">
        <ele>254</ele>
        <time>2016-05-15T12:16:37.000Z</time>
      </trkpt>
      <trkpt lat="44.55156" lon="4.33022">
        <ele>254</ele>
        <time>2016-05-15T12:16:38.000Z</time>
      </trkpt>
      <trkpt lat="44.55156" lon="4.33022">
        <ele>254</ele>
        <time>2016-05-15T12:16:39.000Z</time>
      </trkpt>
      <trkpt lat="44.55156" lon="4.33022">
        <ele>254</ele>
        <time>2016-05-15T12:16:40.000Z</time>
      </trkpt>
      <trkpt lat="44.55155" lon="4.33021">
        <ele>254</ele>
        <time>2016-05-15T12:16:41.000Z</time>
      </trkpt>
      <trkpt lat="44.55155" lon="4.3302">
        <ele>254</ele>
        <time>2016-05-15T12:16:42.000Z</time>
      </trkpt>
      <trkpt lat="44.55154" lon="4.33019">
        <ele>254</ele>
        <time>2016-05-15T12:16:43.000Z</time>
      </trkpt>
      <trkpt lat="44.55153" lon="4.33019">
        <ele>254</ele>
        <time>2016-05-15T12:16:44.000Z</time>
      </trkpt>
      <trkpt lat="44.55152" lon="4.33019">
        <ele>254</ele>
        <time>2016-05-15T12:16:45.000Z</time>
      </trkpt>
      <trkpt lat="44.55151" lon="4.33019">
        <ele>254</ele>
        <time>2016-05-15T12:16:46.000Z</time>
      </trkpt>
      <trkpt lat="44.55151" lon="4.33019">
        <ele>254</ele>
        <time>2016-05-15T12:16:47.000Z</time>
      </trkpt>
      <trkpt lat="44.55151" lon="4.33019">
        <ele>254</ele>
        <time>2016-05-15T12:16:48.000Z</time>
      </trkpt>
      <trkpt lat="44.55151" lon="4.33019">
        <ele>254</ele>
        <time>2016-05-15T12:16:49.000Z</time>
      </trkpt>
      <trkpt lat="44.55151" lon="4.33019">
        <ele>254</ele>
        <time>2016-05-15T12:16:50.000Z</time>
      </trkpt>
      <trkpt lat="44.55151" lon="4.33019">
        <ele>254</ele>
        <time>2016-05-15T12:16:51.000Z</time>
      </trkpt>
      <trkpt lat="44.55151" lon="4.33019">
        <ele>254</ele>
        <time>2016-05-15T12:16:52.000Z</time>
      </trkpt>
      <trkpt lat="44.5515" lon="4.33019">
        <ele>254</ele>
        <time>2016-05-15T12:16:53.000Z</time>
      </trkpt>
      <trkpt lat="44.5515" lon="4.33019">
        <ele>254</ele>
        <time>2016-05-15T12:16:54.000Z</time>
      </trkpt>
      <trkpt lat="44.5515" lon="4.33019">
        <ele>254</ele>
        <time>2016-05-15T12:16:55.000Z</time>
      </trkpt>
      <trkpt lat="44.5515" lon="4.33019">
        <ele>254</ele>
        <time>2016-05-15T12:16:56.000Z</time>
      </trkpt>
      <trkpt lat="44.5515" lon="4.33019">
        <ele>254</ele>
        <time>2016-05-15T12:16:57.000Z</time>
      </trkpt>
      <trkpt lat="44.5515" lon="4.33019">
        <ele>254</ele>
        <time>2016-05-15T12:16:58.000Z</time>
      </trkpt>
      <trkpt lat="44.55149" lon="4.33019">
        <ele>254</ele>
        <time>2016-05-15T12:16:59.000Z</time>
      </trkpt>
      <trkpt lat="44.55148" lon="4.33019">
        <ele>254</ele>
        <time>2016-05-15T12:17:00.000Z</time>
      </trkpt>
      <trkpt lat="44.55147" lon="4.33019">
        <ele>254</ele>
        <time>2016-05-15T12:17:01.000Z</time>
      </trkpt>
      <trkpt lat="44.55145" lon="4.33018">
        <ele>254</ele>
        <time>2016-05-15T12:17:02.000Z</time>
      </trkpt>
      <trkpt lat="44.55144" lon="4.33017">
        <ele>254</ele>
        <time>2016-05-15T12:17:03.000Z</time>
      </trkpt>
      <trkpt lat="44.55143" lon="4.33015">
        <ele>254</ele>
        <time>2016-05-15T12:17:04.000Z</time>
      </trkpt>
      <trkpt lat="44.55143" lon="4.33013">
        <ele>254</ele>
        <time>2016-05-15T12:17:05.000Z</time>
      </trkpt>
      <trkpt lat="44.55142" lon="4.33011">
        <ele>254</ele>
        <time>2016-05-15T12:17:06.000Z</time>
      </trkpt>
      <trkpt lat="44.55142" lon="4.33008">
        <ele>254</ele>
        <time>2016-05-15T12:17:07.000Z</time>
      </trkpt>
      <trkpt lat="44.55141" lon="4.33006">
        <ele>254</ele>
        <time>2016-05-15T12:17:08.000Z</time>
      </trkpt>
      <trkpt lat="44.55141" lon="4.33003">
        <ele>254</ele>
        <time>2016-05-15T12:17:09.000Z</time>
      </trkpt>
      <trkpt lat="44.55141" lon="4.33">
        <ele>255</ele>
        <time>2016-05-15T12:17:10.000Z</time>
      </trkpt>
      <trkpt lat="44.55139" lon="4.32998">
        <ele>255</ele>
        <time>2016-05-15T12:17:11.000Z</time>
      </trkpt>
      <trkpt lat="44.55137" lon="4.32996">
        <ele>255</ele>
        <time>2016-05-15T12:17:12.000Z</time>
      </trkpt>
      <trkpt lat="44.55135" lon="4.32996">
        <ele>255</ele>
        <time>2016-05-15T12:17:13.000Z</time>
      </trkpt>
      <trkpt lat="44.55133" lon="4.32994">
        <ele>255</ele>
        <time>2016-05-15T12:17:14.000Z</time>
      </trkpt>
      <trkpt lat="44.5513" lon="4.32993">
        <ele>255</ele>
        <time>2016-05-15T12:17:15.000Z</time>
      </trkpt>
      <trkpt lat="44.55127" lon="4.32991">
        <ele>255</ele>
        <time>2016-05-15T12:17:16.000Z</time>
      </trkpt>
      <trkpt lat="44.55123" lon="4.32988">
        <ele>254</ele>
        <time>2016-05-15T12:17:17.000Z</time>
      </trkpt>
      <trkpt lat="44.5512" lon="4.32985">
        <ele>254</ele>
        <time>2016-05-15T12:17:18.000Z</time>
      </trkpt>
      <trkpt lat="44.55117" lon="4.32983">
        <ele>254</ele>
        <time>2016-05-15T12:17:19.000Z</time>
      </trkpt>
      <trkpt lat="44.55113" lon="4.32981">
        <ele>254</ele>
        <time>2016-05-15T12:17:20.000Z</time>
      </trkpt>
      <trkpt lat="44.55109" lon="4.3298">
        <ele>254</ele>
        <time>2016-05-15T12:17:21.000Z</time>
      </trkpt>
      <trkpt lat="44.55104" lon="4.32978">
        <ele>254</ele>
        <time>2016-05-15T12:17:22.000Z</time>
      </trkpt>
      <trkpt lat="44.55099" lon="4.32978">
        <ele>254</ele>
        <time>2016-05-15T12:17:23.000Z</time>
      </trkpt>
      <trkpt lat="44.55095" lon="4.3298">
        <ele>254</ele>
        <time>2016-05-15T12:17:24.000Z</time>
      </trkpt>
      <trkpt lat="44.55091" lon="4.32984">
        <ele>254</ele>
        <time>2016-05-15T12:17:25.000Z</time>
      </trkpt>
      <trkpt lat="44.55089" lon="4.32988">
        <ele>254</ele>
        <time>2016-05-15T12:17:26.000Z</time>
      </trkpt>
      <trkpt lat="44.55087" lon="4.32992">
        <ele>255</ele>
        <time>2016-05-15T12:17:27.000Z</time>
      </trkpt>
      <trkpt lat="44.55087" lon="4.32997">
        <ele>255</ele>
        <time>2016-05-15T12:17:28.000Z</time>
      </trkpt>
      <trkpt lat="44.55088" lon="4.33002">
        <ele>255</ele>
        <time>2016-05-15T12:17:29.000Z</time>
      </trkpt>
      <trkpt lat="44.55087" lon="4.33007">
        <ele>254</ele>
        <time>2016-05-15T12:17:30.000Z</time>
      </trkpt>
      <trkpt lat="44.55087" lon="4.33012">
        <ele>254</ele>
        <time>2016-05-15T12:17:31.000Z</time>
      </trkpt>
      <trkpt lat="44.55087" lon="4.33016">
        <ele>254</ele>
        <time>2016-05-15T12:17:32.000Z</time>
      </trkpt>
      <trkpt lat="44.55086" lon="4.3302">
        <ele>254</ele>
        <time>2016-05-15T12:17:33.000Z</time>
      </trkpt>
      <trkpt lat="44.55086" lon="4.33022">
        <ele>253</ele>
        <time>2016-05-15T12:17:34.000Z</time>
      </trkpt>
      <trkpt lat="44.55085" lon="4.33024">
        <ele>253</ele>
        <time>2016-05-15T12:17:35.000Z</time>
      </trkpt>
      <trkpt lat="44.55084" lon="4.33025">
        <ele>253</ele>
        <time>2016-05-15T12:17:36.000Z</time>
      </trkpt>
      <trkpt lat="44.55083" lon="4.33025">
        <ele>251</ele>
        <time>2016-05-15T12:17:37.000Z</time>
      </trkpt>
      <trkpt lat="44.55082" lon="4.33025">
        <ele>251</ele>
        <time>2016-05-15T12:17:38.000Z</time>
      </trkpt>
      <trkpt lat="44.55079" lon="4.33026">
        <ele>251</ele>
        <time>2016-05-15T12:17:39.000Z</time>
      </trkpt>
      <trkpt lat="44.55076" lon="4.33025">
        <ele>251</ele>
        <time>2016-05-15T12:17:40.000Z</time>
      </trkpt>
      <trkpt lat="44.55072" lon="4.33025">
        <ele>251</ele>
        <time>2016-05-15T12:17:41.000Z</time>
      </trkpt>
      <trkpt lat="44.55068" lon="4.33025">
        <ele>250</ele>
        <time>2016-05-15T12:17:42.000Z</time>
      </trkpt>
      <trkpt lat="44.55064" lon="4.33025">
        <ele>250</ele>
        <time>2016-05-15T12:17:43.000Z</time>
      </trkpt>
      <trkpt lat="44.5506" lon="4.33026">
        <ele>250</ele>
        <time>2016-05-15T12:17:44.000Z</time>
      </trkpt>
      <trkpt lat="44.55055" lon="4.33027">
        <ele>250</ele>
        <time>2016-05-15T12:17:45.000Z</time>
      </trkpt>
      <trkpt lat="44.55051" lon="4.33028">
        <ele>249</ele>
        <time>2016-05-15T12:17:46.000Z</time>
      </trkpt>
      <trkpt lat="44.55047" lon="4.33029">
        <ele>249</ele>
        <time>2016-05-15T12:17:47.000Z</time>
      </trkpt>
      <trkpt lat="44.55043" lon="4.33031">
        <ele>249</ele>
        <time>2016-05-15T12:17:48.000Z</time>
      </trkpt>
      <trkpt lat="44.55038" lon="4.33032">
        <ele>249</ele>
        <time>2016-05-15T12:17:49.000Z</time>
      </trkpt>
      <trkpt lat="44.55034" lon="4.33033">
        <ele>248</ele>
        <time>2016-05-15T12:17:50.000Z</time>
      </trkpt>
      <trkpt lat="44.55029" lon="4.33033">
        <ele>248</ele>
        <time>2016-05-15T12:17:51.000Z</time>
      </trkpt>
      <trkpt lat="44.55024" lon="4.33034">
        <ele>248</ele>
        <time>2016-05-15T12:17:52.000Z</time>
      </trkpt>
      <trkpt lat="44.55019" lon="4.33035">
        <ele>248</ele>
        <time>2016-05-15T12:17:53.000Z</time>
      </trkpt>
      <trkpt lat="44.55013" lon="4.33036">
        <ele>248</ele>
        <time>2016-05-15T12:17:54.000Z</time>
      </trkpt>
      <trkpt lat="44.55008" lon="4.33037">
        <ele>247</ele>
        <time>2016-05-15T12:17:55.000Z</time>
      </trkpt>
      <trkpt lat="44.55004" lon="4.33038">
        <ele>247</ele>
        <time>2016-05-15T12:17:56.000Z</time>
      </trkpt>
      <trkpt lat="44.55" lon="4.33039">
        <ele>244</ele>
        <time>2016-05-15T12:17:57.000Z</time>
      </trkpt>
      <trkpt lat="44.54997" lon="4.33043">
        <ele>244</ele>
        <time>2016-05-15T12:17:58.000Z</time>
      </trkpt>
      <trkpt lat="44.54993" lon="4.33046">
        <ele>244</ele>
        <time>2016-05-15T12:17:59.000Z</time>
      </trkpt>
      <trkpt lat="44.54989" lon="4.33048">
        <ele>244</ele>
        <time>2016-05-15T12:18:00.000Z</time>
      </trkpt>
      <trkpt lat="44.54985" lon="4.3305">
        <ele>244</ele>
        <time>2016-05-15T12:18:01.000Z</time>
      </trkpt>
      <trkpt lat="44.54981" lon="4.33053">
        <ele>243</ele>
        <time>2016-05-15T12:18:02.000Z</time>
      </trkpt>
      <trkpt lat="44.54977" lon="4.33056">
        <ele>243</ele>
        <time>2016-05-15T12:18:03.000Z</time>
      </trkpt>
      <trkpt lat="44.54973" lon="4.33058">
        <ele>243</ele>
        <time>2016-05-15T12:18:04.000Z</time>
      </trkpt>
      <trkpt lat="44.5497" lon="4.33061">
        <ele>243</ele>
        <time>2016-05-15T12:18:05.000Z</time>
      </trkpt>
      <trkpt lat="44.54966" lon="4.33064">
        <ele>243</ele>
        <time>2016-05-15T12:18:06.000Z</time>
      </trkpt>
      <trkpt lat="44.54963" lon="4.33066">
        <ele>243</ele>
        <time>2016-05-15T12:18:07.000Z</time>
      </trkpt>
      <trkpt lat="44.54959" lon="4.33068">
        <ele>243</ele>
        <time>2016-05-15T12:18:08.000Z</time>
      </trkpt>
      <trkpt lat="44.54955" lon="4.3307">
        <ele>243</ele>
        <time>2016-05-15T12:18:09.000Z</time>
      </trkpt>
      <trkpt lat="44.54952" lon="4.33073">
        <ele>243</ele>
        <time>2016-05-15T12:18:10.000Z</time>
      </trkpt>
      <trkpt lat="44.54949" lon="4.33075">
        <ele>243</ele>
        <time>2016-05-15T12:18:11.000Z</time>
      </trkpt>
      <trkpt lat="44.54946" lon="4.33078">
        <ele>243</ele>
        <time>2016-05-15T12:18:12.000Z</time>
      </trkpt>
      <trkpt lat="44.54942" lon="4.3308">
        <ele>243</ele>
        <time>2016-05-15T12:18:13.000Z</time>
      </trkpt>
      <trkpt lat="44.54939" lon="4.33082">
        <ele>243</ele>
        <time>2016-05-15T12:18:14.000Z</time>
      </trkpt>
      <trkpt lat="44.54936" lon="4.33085">
        <ele>242</ele>
        <time>2016-05-15T12:18:15.000Z</time>
      </trkpt>
      <trkpt lat="44.54932" lon="4.33087">
        <ele>242</ele>
        <time>2016-05-15T12:18:16.000Z</time>
      </trkpt>
      <trkpt lat="44.54929" lon="4.33088">
        <ele>242</ele>
        <time>2016-05-15T12:18:17.000Z</time>
      </trkpt>
      <trkpt lat="44.54926" lon="4.3309">
        <ele>242</ele>
        <time>2016-05-15T12:18:18.000Z</time>
      </trkpt>
      <trkpt lat="44.54923" lon="4.33092">
        <ele>242</ele>
        <time>2016-05-15T12:18:19.000Z</time>
      </trkpt>
      <trkpt lat="44.5492" lon="4.33094">
        <ele>242</ele>
        <time>2016-05-15T12:18:20.000Z</time>
      </trkpt>
      <trkpt lat="44.54917" lon="4.33097">
        <ele>241</ele>
        <time>2016-05-15T12:18:21.000Z</time>
      </trkpt>
      <trkpt lat="44.54914" lon="4.33099">
        <ele>241</ele>
        <time>2016-05-15T12:18:22.000Z</time>
      </trkpt>
      <trkpt lat="44.54911" lon="4.33102">
        <ele>241</ele>
        <time>2016-05-15T12:18:23.000Z</time>
      </trkpt>
      <trkpt lat="44.54909" lon="4.33104">
        <ele>240</ele>
        <time>2016-05-15T12:18:24.000Z</time>
      </trkpt>
      <trkpt lat="44.54907" lon="4.33107">
        <ele>240</ele>
        <time>2016-05-15T12:18:25.000Z</time>
      </trkpt>
      <trkpt lat="44.54904" lon="4.33109">
        <ele>240</ele>
        <time>2016-05-15T12:18:26.000Z</time>
      </trkpt>
      <trkpt lat="44.54901" lon="4.33111">
        <ele>240</ele>
        <time>2016-05-15T12:18:27.000Z</time>
      </trkpt>
      <trkpt lat="44.54898" lon="4.33112">
        <ele>240</ele>
        <time>2016-05-15T12:18:28.000Z</time>
      </trkpt>
      <trkpt lat="44.54896" lon="4.33114">
        <ele>239</ele>
        <time>2016-05-15T12:18:29.000Z</time>
      </trkpt>
      <trkpt lat="44.54894" lon="4.33115">
        <ele>239</ele>
        <time>2016-05-15T12:18:30.000Z</time>
      </trkpt>
      <trkpt lat="44.54891" lon="4.33117">
        <ele>239</ele>
        <time>2016-05-15T12:18:31.000Z</time>
      </trkpt>
      <trkpt lat="44.54887" lon="4.33119">
        <ele>239</ele>
        <time>2016-05-15T12:18:32.000Z</time>
      </trkpt>
      <trkpt lat="44.54883" lon="4.33121">
        <ele>239</ele>
        <time>2016-05-15T12:18:33.000Z</time>
      </trkpt>
      <trkpt lat="44.5488" lon="4.33123">
        <ele>239</ele>
        <time>2016-05-15T12:18:34.000Z</time>
      </trkpt>
      <trkpt lat="44.54876" lon="4.33127">
        <ele>239</ele>
        <time>2016-05-15T12:18:35.000Z</time>
      </trkpt>
      <trkpt lat="44.54873" lon="4.3313">
        <ele>239</ele>
        <time>2016-05-15T12:18:36.000Z</time>
      </trkpt>
      <trkpt lat="44.54869" lon="4.33133">
        <ele>239</ele>
        <time>2016-05-15T12:18:37.000Z</time>
      </trkpt>
      <trkpt lat="44.54866" lon="4.33136">
        <ele>239</ele>
        <time>2016-05-15T12:18:38.000Z</time>
      </trkpt>
      <trkpt lat="44.54863" lon="4.33138">
        <ele>238</ele>
        <time>2016-05-15T12:18:39.000Z</time>
      </trkpt>
      <trkpt lat="44.5486" lon="4.33141">
        <ele>238</ele>
        <time>2016-05-15T12:18:40.000Z</time>
      </trkpt>
      <trkpt lat="44.54856" lon="4.33142">
        <ele>238</ele>
        <time>2016-05-15T12:18:41.000Z</time>
      </trkpt>
      <trkpt lat="44.54853" lon="4.33142">
        <ele>238</ele>
        <time>2016-05-15T12:18:42.000Z</time>
      </trkpt>
      <trkpt lat="44.54849" lon="4.33142">
        <ele>238</ele>
        <time>2016-05-15T12:18:43.000Z</time>
      </trkpt>
      <trkpt lat="44.54847" lon="4.33144">
        <ele>238</ele>
        <time>2016-05-15T12:18:44.000Z</time>
      </trkpt>
      <trkpt lat="44.54845" lon="4.33148">
        <ele>238</ele>
        <time>2016-05-15T12:18:45.000Z</time>
      </trkpt>
      <trkpt lat="44.54844" lon="4.33153">
        <ele>238</ele>
        <time>2016-05-15T12:18:46.000Z</time>
      </trkpt>
      <trkpt lat="44.54842" lon="4.33158">
        <ele>238</ele>
        <time>2016-05-15T12:18:47.000Z</time>
      </trkpt>
      <trkpt lat="44.5484" lon="4.33162">
        <ele>238</ele>
        <time>2016-05-15T12:18:48.000Z</time>
      </trkpt>
      <trkpt lat="44.54837" lon="4.33167">
        <ele>238</ele>
        <time>2016-05-15T12:18:49.000Z</time>
      </trkpt>
      <trkpt lat="44.54833" lon="4.33171">
        <ele>237</ele>
        <time>2016-05-15T12:18:50.000Z</time>
      </trkpt>
      <trkpt lat="44.54829" lon="4.33175">
        <ele>236</ele>
        <time>2016-05-15T12:18:51.000Z</time>
      </trkpt>
      <trkpt lat="44.54825" lon="4.33178">
        <ele>235</ele>
        <time>2016-05-15T12:18:52.000Z</time>
      </trkpt>
      <trkpt lat="44.5482" lon="4.33182">
        <ele>234</ele>
        <time>2016-05-15T12:18:53.000Z</time>
      </trkpt>
      <trkpt lat="44.54816" lon="4.33185">
        <ele>233</ele>
        <time>2016-05-15T12:18:54.000Z</time>
      </trkpt>
      <trkpt lat="44.54811" lon="4.33189">
        <ele>232</ele>
        <time>2016-05-15T12:18:55.000Z</time>
      </trkpt>
      <trkpt lat="44.54807" lon="4.33195">
        <ele>232</ele>
        <time>2016-05-15T12:18:56.000Z</time>
      </trkpt>
      <trkpt lat="44.54802" lon="4.332">
        <ele>231</ele>
        <time>2016-05-15T12:18:57.000Z</time>
      </trkpt>
      <trkpt lat="44.54798" lon="4.33206">
        <ele>231</ele>
        <time>2016-05-15T12:18:58.000Z</time>
      </trkpt>
      <trkpt lat="44.54793" lon="4.33212">
        <ele>230</ele>
        <time>2016-05-15T12:18:59.000Z</time>
      </trkpt>
      <trkpt lat="44.54789" lon="4.33218">
        <ele>230</ele>
        <time>2016-05-15T12:19:00.000Z</time>
      </trkpt>
      <trkpt lat="44.54784" lon="4.33224">
        <ele>230</ele>
        <time>2016-05-15T12:19:01.000Z</time>
      </trkpt>
      <trkpt lat="44.54779" lon="4.33229">
        <ele>230</ele>
        <time>2016-05-15T12:19:02.000Z</time>
      </trkpt>
      <trkpt lat="44.54775" lon="4.33233">
        <ele>229</ele>
        <time>2016-05-15T12:19:03.000Z</time>
      </trkpt>
      <trkpt lat="44.54772" lon="4.33235">
        <ele>229</ele>
        <time>2016-05-15T12:19:04.000Z</time>
      </trkpt>
      <trkpt lat="44.54771" lon="4.33236">
        <ele>229</ele>
        <time>2016-05-15T12:19:05.000Z</time>
      </trkpt>
      <trkpt lat="44.54769" lon="4.33237">
        <ele>229</ele>
        <time>2016-05-15T12:19:06.000Z</time>
      </trkpt>
      <trkpt lat="44.54768" lon="4.33236">
        <ele>229</ele>
        <time>2016-05-15T12:19:07.000Z</time>
      </trkpt>
      <trkpt lat="44.54766" lon="4.33234">
        <ele>229</ele>
        <time>2016-05-15T12:19:08.000Z</time>
      </trkpt>
      <trkpt lat="44.54763" lon="4.33232">
        <ele>229</ele>
        <time>2016-05-15T12:19:09.000Z</time>
      </trkpt>
      <trkpt lat="44.54761" lon="4.3323">
        <ele>229</ele>
        <time>2016-05-15T12:19:10.000Z</time>
      </trkpt>
      <trkpt lat="44.54759" lon="4.33229">
        <ele>229</ele>
        <time>2016-05-15T12:19:11.000Z</time>
      </trkpt>
      <trkpt lat="44.54756" lon="4.33229">
        <ele>229</ele>
        <time>2016-05-15T12:19:12.000Z</time>
      </trkpt>
      <trkpt lat="44.54753" lon="4.33231">
        <ele>229</ele>
        <time>2016-05-15T12:19:13.000Z</time>
      </trkpt>
      <trkpt lat="44.54749" lon="4.33232">
        <ele>226</ele>
        <time>2016-05-15T12:19:14.000Z</time>
      </trkpt>
      <trkpt lat="44.54747" lon="4.33231">
        <ele>226</ele>
        <time>2016-05-15T12:19:15.000Z</time>
      </trkpt>
      <trkpt lat="44.54745" lon="4.33229">
        <ele>226</ele>
        <time>2016-05-15T12:19:16.000Z</time>
      </trkpt>
      <trkpt lat="44.54743" lon="4.33228">
        <ele>225</ele>
        <time>2016-05-15T12:19:17.000Z</time>
      </trkpt>
      <trkpt lat="44.54741" lon="4.33227">
        <ele>225</ele>
        <time>2016-05-15T12:19:18.000Z</time>
      </trkpt>
      <trkpt lat="44.54738" lon="4.33226">
        <ele>225</ele>
        <time>2016-05-15T12:19:19.000Z</time>
      </trkpt>
      <trkpt lat="44.54736" lon="4.33227">
        <ele>225</ele>
        <time>2016-05-15T12:19:20.000Z</time>
      </trkpt>
      <trkpt lat="44.54734" lon="4.33227">
        <ele>225</ele>
        <time>2016-05-15T12:19:21.000Z</time>
      </trkpt>
      <trkpt lat="44.54733" lon="4.33225">
        <ele>225</ele>
        <time>2016-05-15T12:19:22.000Z</time>
      </trkpt>
      <trkpt lat="44.54731" lon="4.33221">
        <ele>225</ele>
        <time>2016-05-15T12:19:23.000Z</time>
      </trkpt>
      <trkpt lat="44.54728" lon="4.33217">
        <ele>225</ele>
        <time>2016-05-15T12:19:24.000Z</time>
      </trkpt>
      <trkpt lat="44.54724" lon="4.33213">
        <ele>225</ele>
        <time>2016-05-15T12:19:25.000Z</time>
      </trkpt>
      <trkpt lat="44.5472" lon="4.3321">
        <ele>225</ele>
        <time>2016-05-15T12:19:26.000Z</time>
      </trkpt>
      <trkpt lat="44.54717" lon="4.33205">
        <ele>225</ele>
        <time>2016-05-15T12:19:27.000Z</time>
      </trkpt>
      <trkpt lat="44.54715" lon="4.33199">
        <ele>224</ele>
        <time>2016-05-15T12:19:28.000Z</time>
      </trkpt>
      <trkpt lat="44.54712" lon="4.33193">
        <ele>224</ele>
        <time>2016-05-15T12:19:29.000Z</time>
      </trkpt>
      <trkpt lat="44.54708" lon="4.33188">
        <ele>224</ele>
        <time>2016-05-15T12:19:30.000Z</time>
      </trkpt>
      <trkpt lat="44.54704" lon="4.33183">
        <ele>224</ele>
        <time>2016-05-15T12:19:31.000Z</time>
      </trkpt>
      <trkpt lat="44.54699" lon="4.3318">
        <ele>224</ele>
        <time>2016-05-15T12:19:32.000Z</time>
      </trkpt>
      <trkpt lat="44.54694" lon="4.33178">
        <ele>224</ele>
        <time>2016-05-15T12:19:33.000Z</time>
      </trkpt>
      <trkpt lat="44.5469" lon="4.33177">
        <ele>224</ele>
        <time>2016-05-15T12:19:34.000Z</time>
      </trkpt>
      <trkpt lat="44.54687" lon="4.33176">
        <ele>223</ele>
        <time>2016-05-15T12:19:35.000Z</time>
      </trkpt>
      <trkpt lat="44.54684" lon="4.33176">
        <ele>223</ele>
        <time>2016-05-15T12:19:36.000Z</time>
      </trkpt>
      <trkpt lat="44.54681" lon="4.33177">
        <ele>223</ele>
        <time>2016-05-15T12:19:37.000Z</time>
      </trkpt>
      <trkpt lat="44.54678" lon="4.33177">
        <ele>223</ele>
        <time>2016-05-15T12:19:38.000Z</time>
      </trkpt>
      <trkpt lat="44.54676" lon="4.33177">
        <ele>223</ele>
        <time>2016-05-15T12:19:39.000Z</time>
      </trkpt>
      <trkpt lat="44.54673" lon="4.33176">
        <ele>223</ele>
        <time>2016-05-15T12:19:40.000Z</time>
      </trkpt>
      <trkpt lat="44.54672" lon="4.33175">
        <ele>223</ele>
        <time>2016-05-15T12:19:41.000Z</time>
      </trkpt>
      <trkpt lat="44.5467" lon="4.33174">
        <ele>223</ele>
        <time>2016-05-15T12:19:42.000Z</time>
      </trkpt>
      <trkpt lat="44.54669" lon="4.33173">
        <ele>222</ele>
        <time>2016-05-15T12:19:43.000Z</time>
      </trkpt>
      <trkpt lat="44.54668" lon="4.33172">
        <ele>222</ele>
        <time>2016-05-15T12:19:44.000Z</time>
      </trkpt>
      <trkpt lat="44.54667" lon="4.3317">
        <ele>222</ele>
        <time>2016-05-15T12:19:45.000Z</time>
      </trkpt>
      <trkpt lat="44.54666" lon="4.33169">
        <ele>222</ele>
        <time>2016-05-15T12:19:46.000Z</time>
      </trkpt>
      <trkpt lat="44.54665" lon="4.33168">
        <ele>222</ele>
        <time>2016-05-15T12:19:47.000Z</time>
      </trkpt>
      <trkpt lat="44.54664" lon="4.33167">
        <ele>222</ele>
        <time>2016-05-15T12:19:48.000Z</time>
      </trkpt>
      <trkpt lat="44.54663" lon="4.33166">
        <ele>222</ele>
        <time>2016-05-15T12:19:49.000Z</time>
      </trkpt>
      <trkpt lat="44.54662" lon="4.33165">
        <ele>222</ele>
        <time>2016-05-15T12:19:50.000Z</time>
      </trkpt>
      <trkpt lat="44.54662" lon="4.33162">
        <ele>223</ele>
        <time>2016-05-15T12:19:51.000Z</time>
      </trkpt>
      <trkpt lat="44.54661" lon="4.3316">
        <ele>223</ele>
        <time>2016-05-15T12:19:52.000Z</time>
      </trkpt>
      <trkpt lat="44.54659" lon="4.33158">
        <ele>223</ele>
        <time>2016-05-15T12:19:53.000Z</time>
      </trkpt>
      <trkpt lat="44.54657" lon="4.33157">
        <ele>223</ele>
        <time>2016-05-15T12:19:54.000Z</time>
      </trkpt>
      <trkpt lat="44.54655" lon="4.33155">
        <ele>223</ele>
        <time>2016-05-15T12:19:55.000Z</time>
      </trkpt>
      <trkpt lat="44.54653" lon="4.33153">
        <ele>223</ele>
        <time>2016-05-15T12:19:56.000Z</time>
      </trkpt>
      <trkpt lat="44.5465" lon="4.33152">
        <ele>224</ele>
        <time>2016-05-15T12:19:57.000Z</time>
      </trkpt>
      <trkpt lat="44.54647" lon="4.3315">
        <ele>224</ele>
        <time>2016-05-15T12:19:58.000Z</time>
      </trkpt>
      <trkpt lat="44.54644" lon="4.33148">
        <ele>224</ele>
        <time>2016-05-15T12:19:59.000Z</time>
      </trkpt>
      <trkpt lat="44.54641" lon="4.33145">
        <ele>224</ele>
        <time>2016-05-15T12:20:00.000Z</time>
      </trkpt>
      <trkpt lat="44.54637" lon="4.33142">
        <ele>224</ele>
        <time>2016-05-15T12:20:01.000Z</time>
      </trkpt>
      <trkpt lat="44.54633" lon="4.3314">
        <ele>224</ele>
        <time>2016-05-15T12:20:02.000Z</time>
      </trkpt>
      <trkpt lat="44.54629" lon="4.33137">
        <ele>224</ele>
        <time>2016-05-15T12:20:03.000Z</time>
      </trkpt>
      <trkpt lat="44.54626" lon="4.33135">
        <ele>224</ele>
        <time>2016-05-15T12:20:04.000Z</time>
      </trkpt>
      <trkpt lat="44.54622" lon="4.33132">
        <ele>224</ele>
        <time>2016-05-15T12:20:05.000Z</time>
      </trkpt>
      <trkpt lat="44.54619" lon="4.3313">
        <ele>224</ele>
        <time>2016-05-15T12:20:06.000Z</time>
      </trkpt>
      <trkpt lat="44.54616" lon="4.33128">
        <ele>225</ele>
        <time>2016-05-15T12:20:07.000Z</time>
      </trkpt>
      <trkpt lat="44.54613" lon="4.33126">
        <ele>225</ele>
        <time>2016-05-15T12:20:08.000Z</time>
      </trkpt>
      <trkpt lat="44.54611" lon="4.33124">
        <ele>225</ele>
        <time>2016-05-15T12:20:09.000Z</time>
      </trkpt>
      <trkpt lat="44.54609" lon="4.33123">
        <ele>225</ele>
        <time>2016-05-15T12:20:10.000Z</time>
      </trkpt>
      <trkpt lat="44.54607" lon="4.33121">
        <ele>225</ele>
        <time>2016-05-15T12:20:11.000Z</time>
      </trkpt>
      <trkpt lat="44.54605" lon="4.3312">
        <ele>225</ele>
        <time>2016-05-15T12:20:12.000Z</time>
      </trkpt>
      <trkpt lat="44.54603" lon="4.33119">
        <ele>225</ele>
        <time>2016-05-15T12:20:13.000Z</time>
      </trkpt>
      <trkpt lat="44.54601" lon="4.33117">
        <ele>225</ele>
        <time>2016-05-15T12:20:14.000Z</time>
      </trkpt>
      <trkpt lat="44.54599" lon="4.33116">
        <ele>225</ele>
        <time>2016-05-15T12:20:15.000Z</time>
      </trkpt>
      <trkpt lat="44.54598" lon="4.33115">
        <ele>225</ele>
        <time>2016-05-15T12:20:16.000Z</time>
      </trkpt>
      <trkpt lat="44.54596" lon="4.33113">
        <ele>225</ele>
        <time>2016-05-15T12:20:17.000Z</time>
      </trkpt>
      <trkpt lat="44.54594" lon="4.33112">
        <ele>225</ele>
        <time>2016-05-15T12:20:18.000Z</time>
      </trkpt>
      <trkpt lat="44.54592" lon="4.33109">
        <ele>225</ele>
        <time>2016-05-15T12:20:19.000Z</time>
      </trkpt>
      <trkpt lat="44.54592" lon="4.33106">
        <ele>225</ele>
        <time>2016-05-15T12:20:20.000Z</time>
      </trkpt>
      <trkpt lat="44.54592" lon="4.33103">
        <ele>226</ele>
        <time>2016-05-15T12:20:21.000Z</time>
      </trkpt>
      <trkpt lat="44.54592" lon="4.331">
        <ele>226</ele>
        <time>2016-05-15T12:20:22.000Z</time>
      </trkpt>
      <trkpt lat="44.54593" lon="4.33097">
        <ele>226</ele>
        <time>2016-05-15T12:20:23.000Z</time>
      </trkpt>
      <trkpt lat="44.54593" lon="4.33094">
        <ele>226</ele>
        <time>2016-05-15T12:20:24.000Z</time>
      </trkpt>
      <trkpt lat="44.54594" lon="4.33091">
        <ele>226</ele>
        <time>2016-05-15T12:20:25.000Z</time>
      </trkpt>
      <trkpt lat="44.54595" lon="4.33088">
        <ele>226</ele>
        <time>2016-05-15T12:20:26.000Z</time>
      </trkpt>
      <trkpt lat="44.54595" lon="4.33085">
        <ele>226</ele>
        <time>2016-05-15T12:20:27.000Z</time>
      </trkpt>
      <trkpt lat="44.54596" lon="4.33082">
        <ele>228</ele>
        <time>2016-05-15T12:20:28.000Z</time>
      </trkpt>
      <trkpt lat="44.54597" lon="4.3308">
        <ele>228</ele>
        <time>2016-05-15T12:20:29.000Z</time>
      </trkpt>
      <trkpt lat="44.54598" lon="4.33078">
        <ele>228</ele>
        <time>2016-05-15T12:20:30.000Z</time>
      </trkpt>
      <trkpt lat="44.54599" lon="4.33075">
        <ele>229</ele>
        <time>2016-05-15T12:20:31.000Z</time>
      </trkpt>
      <trkpt lat="44.54601" lon="4.33073">
        <ele>229</ele>
        <time>2016-05-15T12:20:32.000Z</time>
      </trkpt>
      <trkpt lat="44.54602" lon="4.33071">
        <ele>229</ele>
        <time>2016-05-15T12:20:33.000Z</time>
      </trkpt>
      <trkpt lat="44.54603" lon="4.33069">
        <ele>229</ele>
        <time>2016-05-15T12:20:34.000Z</time>
      </trkpt>
      <trkpt lat="44.54604" lon="4.33067">
        <ele>229</ele>
        <time>2016-05-15T12:20:35.000Z</time>
      </trkpt>
      <trkpt lat="44.54606" lon="4.33066">
        <ele>229</ele>
        <time>2016-05-15T12:20:36.000Z</time>
      </trkpt>
      <trkpt lat="44.54607" lon="4.33064">
        <ele>229</ele>
        <time>2016-05-15T12:20:37.000Z</time>
      </trkpt>
      <trkpt lat="44.54608" lon="4.33062">
        <ele>229</ele>
        <time>2016-05-15T12:20:38.000Z</time>
      </trkpt>
      <trkpt lat="44.54609" lon="4.3306">
        <ele>229</ele>
        <time>2016-05-15T12:20:39.000Z</time>
      </trkpt>
      <trkpt lat="44.5461" lon="4.33058">
        <ele>230</ele>
        <time>2016-05-15T12:20:40.000Z</time>
      </trkpt>
      <trkpt lat="44.54611" lon="4.33055">
        <ele>230</ele>
        <time>2016-05-15T12:20:41.000Z</time>
      </trkpt>
      <trkpt lat="44.54612" lon="4.33054">
        <ele>230</ele>
        <time>2016-05-15T12:20:42.000Z</time>
      </trkpt>
      <trkpt lat="44.54613" lon="4.33051">
        <ele>230</ele>
        <time>2016-05-15T12:20:43.000Z</time>
      </trkpt>
      <trkpt lat="44.54613" lon="4.33049">
        <ele>230</ele>
        <time>2016-05-15T12:20:44.000Z</time>
      </trkpt>
      <trkpt lat="44.54614" lon="4.33047">
        <ele>230</ele>
        <time>2016-05-15T12:20:45.000Z</time>
      </trkpt>
      <trkpt lat="44.54615" lon="4.33045">
        <ele>230</ele>
        <time>2016-05-15T12:20:46.000Z</time>
      </trkpt>
      <trkpt lat="44.54615" lon="4.33043">
        <ele>230</ele>
        <time>2016-05-15T12:20:47.000Z</time>
      </trkpt>
      <trkpt lat="44.54616" lon="4.3304">
        <ele>230</ele>
        <time>2016-05-15T12:20:48.000Z</time>
      </trkpt>
      <trkpt lat="44.54616" lon="4.33038">
        <ele>230</ele>
        <time>2016-05-15T12:20:49.000Z</time>
      </trkpt>
      <trkpt lat="44.54617" lon="4.33036">
        <ele>230</ele>
        <time>2016-05-15T12:20:50.000Z</time>
      </trkpt>
      <trkpt lat="44.54617" lon="4.33033">
        <ele>230</ele>
        <time>2016-05-15T12:20:51.000Z</time>
      </trkpt>
      <trkpt lat="44.54617" lon="4.33031">
        <ele>230</ele>
        <time>2016-05-15T12:20:52.000Z</time>
      </trkpt>
      <trkpt lat="44.54617" lon="4.33028">
        <ele>230</ele>
        <time>2016-05-15T12:20:53.000Z</time>
      </trkpt>
      <trkpt lat="44.54617" lon="4.33025">
        <ele>231</ele>
        <time>2016-05-15T12:20:54.000Z</time>
      </trkpt>
      <trkpt lat="44.54617" lon="4.33023">
        <ele>231</ele>
        <time>2016-05-15T12:20:55.000Z</time>
      </trkpt>
      <trkpt lat="44.54618" lon="4.3302">
        <ele>231</ele>
        <time>2016-05-15T12:20:56.000Z</time>
      </trkpt>
      <trkpt lat="44.54617" lon="4.33018">
        <ele>231</ele>
        <time>2016-05-15T12:20:57.000Z</time>
      </trkpt>
      <trkpt lat="44.54618" lon="4.33015">
        <ele>231</ele>
        <time>2016-05-15T12:20:58.000Z</time>
      </trkpt>
      <trkpt lat="44.54617" lon="4.33012">
        <ele>231</ele>
        <time>2016-05-15T12:20:59.000Z</time>
      </trkpt>
      <trkpt lat="44.54617" lon="4.3301">
        <ele>231</ele>
        <time>2016-05-15T12:21:00.000Z</time>
      </trkpt>
      <trkpt lat="44.54617" lon="4.33007">
        <ele>231</ele>
        <time>2016-05-15T12:21:01.000Z</time>
      </trkpt>
      <trkpt lat="44.54617" lon="4.33005">
        <ele>231</ele>
        <time>2016-05-15T12:21:02.000Z</time>
      </trkpt>
      <trkpt lat="44.54617" lon="4.33003">
        <ele>231</ele>
        <time>2016-05-15T12:21:03.000Z</time>
      </trkpt>
      <trkpt lat="44.54617" lon="4.33001">
        <ele>231</ele>
        <time>2016-05-15T12:21:04.000Z</time>
      </trkpt>
      <trkpt lat="44.54617" lon="4.32998">
        <ele>234</ele>
        <time>2016-05-15T12:21:05.000Z</time>
      </trkpt>
      <trkpt lat="44.54617" lon="4.32996">
        <ele>234</ele>
        <time>2016-05-15T12:21:06.000Z</time>
      </trkpt>
      <trkpt lat="44.54617" lon="4.32993">
        <ele>234</ele>
        <time>2016-05-15T12:21:07.000Z</time>
      </trkpt>
      <trkpt lat="44.54617" lon="4.32991">
        <ele>234</ele>
        <time>2016-05-15T12:21:08.000Z</time>
      </trkpt>
      <trkpt lat="44.54617" lon="4.32988">
        <ele>235</ele>
        <time>2016-05-15T12:21:09.000Z</time>
      </trkpt>
      <trkpt lat="44.54617" lon="4.32985">
        <ele>235</ele>
        <time>2016-05-15T12:21:10.000Z</time>
      </trkpt>
      <trkpt lat="44.54617" lon="4.32983">
        <ele>235</ele>
        <time>2016-05-15T12:21:11.000Z</time>
      </trkpt>
      <trkpt lat="44.54616" lon="4.32981">
        <ele>235</ele>
        <time>2016-05-15T12:21:12.000Z</time>
      </trkpt>
      <trkpt lat="44.54616" lon="4.32979">
        <ele>235</ele>
        <time>2016-05-15T12:21:13.000Z</time>
      </trkpt>
      <trkpt lat="44.54616" lon="4.32976">
        <ele>235</ele>
        <time>2016-05-15T12:21:14.000Z</time>
      </trkpt>
      <trkpt lat="44.54616" lon="4.32974">
        <ele>235</ele>
        <time>2016-05-15T12:21:15.000Z</time>
      </trkpt>
      <trkpt lat="44.54616" lon="4.32972">
        <ele>235</ele>
        <time>2016-05-15T12:21:16.000Z</time>
      </trkpt>
      <trkpt lat="44.54616" lon="4.3297">
        <ele>235</ele>
        <time>2016-05-15T12:21:17.000Z</time>
      </trkpt>
      <trkpt lat="44.54616" lon="4.32968">
        <ele>235</ele>
        <time>2016-05-15T12:21:18.000Z</time>
      </trkpt>
      <trkpt lat="44.54616" lon="4.32966">
        <ele>235</ele>
        <time>2016-05-15T12:21:19.000Z</time>
      </trkpt>
      <trkpt lat="44.54616" lon="4.32964">
        <ele>235</ele>
        <time>2016-05-15T12:21:20.000Z</time>
      </trkpt>
      <trkpt lat="44.54616" lon="4.32962">
        <ele>235</ele>
        <time>2016-05-15T12:21:21.000Z</time>
      </trkpt>
      <trkpt lat="44.54615" lon="4.3296">
        <ele>236</ele>
        <time>2016-05-15T12:21:22.000Z</time>
      </trkpt>
      <trkpt lat="44.54616" lon="4.32957">
        <ele>236</ele>
        <time>2016-05-15T12:21:23.000Z</time>
      </trkpt>
      <trkpt lat="44.54615" lon="4.32955">
        <ele>236</ele>
        <time>2016-05-15T12:21:24.000Z</time>
      </trkpt>
      <trkpt lat="44.54615" lon="4.32953">
        <ele>236</ele>
        <time>2016-05-15T12:21:25.000Z</time>
      </trkpt>
      <trkpt lat="44.54615" lon="4.32951">
        <ele>236</ele>
        <time>2016-05-15T12:21:26.000Z</time>
      </trkpt>
      <trkpt lat="44.54614" lon="4.32948">
        <ele>236</ele>
        <time>2016-05-15T12:21:27.000Z</time>
      </trkpt>
      <trkpt lat="44.54614" lon="4.32946">
        <ele>236</ele>
        <time>2016-05-15T12:21:28.000Z</time>
      </trkpt>
      <trkpt lat="44.54614" lon="4.32943">
        <ele>236</ele>
        <time>2016-05-15T12:21:29.000Z</time>
      </trkpt>
      <trkpt lat="44.54614" lon="4.32941">
        <ele>237</ele>
        <time>2016-05-15T12:21:30.000Z</time>
      </trkpt>
      <trkpt lat="44.54614" lon="4.32938">
        <ele>237</ele>
        <time>2016-05-15T12:21:31.000Z</time>
      </trkpt>
      <trkpt lat="44.54614" lon="4.32936">
        <ele>237</ele>
        <time>2016-05-15T12:21:32.000Z</time>
      </trkpt>
      <trkpt lat="44.54614" lon="4.32933">
        <ele>237</ele>
        <time>2016-05-15T12:21:33.000Z</time>
      </trkpt>
      <trkpt lat="44.54613" lon="4.32931">
        <ele>237</ele>
        <time>2016-05-15T12:21:34.000Z</time>
      </trkpt>
      <trkpt lat="44.54613" lon="4.32929">
        <ele>237</ele>
        <time>2016-05-15T12:21:35.000Z</time>
      </trkpt>
      <trkpt lat="44.54613" lon="4.32926">
        <ele>237</ele>
        <time>2016-05-15T12:21:36.000Z</time>
      </trkpt>
      <trkpt lat="44.54613" lon="4.32924">
        <ele>237</ele>
        <time>2016-05-15T12:21:37.000Z</time>
      </trkpt>
      <trkpt lat="44.54612" lon="4.32921">
        <ele>238</ele>
        <time>2016-05-15T12:21:38.000Z</time>
      </trkpt>
      <trkpt lat="44.54612" lon="4.32919">
        <ele>238</ele>
        <time>2016-05-15T12:21:39.000Z</time>
      </trkpt>
      <trkpt lat="44.54612" lon="4.32916">
        <ele>241</ele>
        <time>2016-05-15T12:21:40.000Z</time>
      </trkpt>
      <trkpt lat="44.54612" lon="4.32914">
        <ele>241</ele>
        <time>2016-05-15T12:21:41.000Z</time>
      </trkpt>
      <trkpt lat="44.54612" lon="4.32911">
        <ele>241</ele>
        <time>2016-05-15T12:21:42.000Z</time>
      </trkpt>
      <trkpt lat="44.54612" lon="4.32909">
        <ele>241</ele>
        <time>2016-05-15T12:21:43.000Z</time>
      </trkpt>
      <trkpt lat="44.54612" lon="4.32906">
        <ele>241</ele>
        <time>2016-05-15T12:21:44.000Z</time>
      </trkpt>
      <trkpt lat="44.54612" lon="4.32904">
        <ele>241</ele>
        <time>2016-05-15T12:21:45.000Z</time>
      </trkpt>
      <trkpt lat="44.54613" lon="4.32901">
        <ele>241</ele>
        <time>2016-05-15T12:21:46.000Z</time>
      </trkpt>
      <trkpt lat="44.54613" lon="4.32899">
        <ele>241</ele>
        <time>2016-05-15T12:21:47.000Z</time>
      </trkpt>
      <trkpt lat="44.54613" lon="4.32896">
        <ele>241</ele>
        <time>2016-05-15T12:21:48.000Z</time>
      </trkpt>
      <trkpt lat="44.54613" lon="4.32894">
        <ele>241</ele>
        <time>2016-05-15T12:21:49.000Z</time>
      </trkpt>
      <trkpt lat="44.54613" lon="4.32891">
        <ele>241</ele>
        <time>2016-05-15T12:21:50.000Z</time>
      </trkpt>
      <trkpt lat="44.54613" lon="4.32889">
        <ele>241</ele>
        <time>2016-05-15T12:21:51.000Z</time>
      </trkpt>
      <trkpt lat="44.54613" lon="4.32886">
        <ele>241</ele>
        <time>2016-05-15T12:21:52.000Z</time>
      </trkpt>
      <trkpt lat="44.54612" lon="4.32884">
        <ele>241</ele>
        <time>2016-05-15T12:21:53.000Z</time>
      </trkpt>
      <trkpt lat="44.54612" lon="4.32881">
        <ele>241</ele>
        <time>2016-05-15T12:21:54.000Z</time>
      </trkpt>
      <trkpt lat="44.54612" lon="4.32879">
        <ele>241</ele>
        <time>2016-05-15T12:21:55.000Z</time>
      </trkpt>
      <trkpt lat="44.54612" lon="4.32876">
        <ele>241</ele>
        <time>2016-05-15T12:21:56.000Z</time>
      </trkpt>
      <trkpt lat="44.54612" lon="4.32874">
        <ele>241</ele>
        <time>2016-05-15T12:21:57.000Z</time>
      </trkpt>
      <trkpt lat="44.54611" lon="4.32872">
        <ele>242</ele>
        <time>2016-05-15T12:21:58.000Z</time>
      </trkpt>
      <trkpt lat="44.54611" lon="4.32869">
        <ele>242</ele>
        <time>2016-05-15T12:21:59.000Z</time>
      </trkpt>
      <trkpt lat="44.5461" lon="4.32867">
        <ele>242</ele>
        <time>2016-05-15T12:22:00.000Z</time>
      </trkpt>
      <trkpt lat="44.5461" lon="4.32865">
        <ele>242</ele>
        <time>2016-05-15T12:22:01.000Z</time>
      </trkpt>
      <trkpt lat="44.54609" lon="4.32862">
        <ele>242</ele>
        <time>2016-05-15T12:22:02.000Z</time>
      </trkpt>
      <trkpt lat="44.54609" lon="4.3286">
        <ele>242</ele>
        <time>2016-05-15T12:22:03.000Z</time>
      </trkpt>
      <trkpt lat="44.54609" lon="4.32857">
        <ele>242</ele>
        <time>2016-05-15T12:22:04.000Z</time>
      </trkpt>
      <trkpt lat="44.54608" lon="4.32855">
        <ele>242</ele>
        <time>2016-05-15T12:22:05.000Z</time>
      </trkpt>
      <trkpt lat="44.54607" lon="4.32852">
        <ele>243</ele>
        <time>2016-05-15T12:22:06.000Z</time>
      </trkpt>
      <trkpt lat="44.54607" lon="4.3285">
        <ele>243</ele>
        <time>2016-05-15T12:22:07.000Z</time>
      </trkpt>
      <trkpt lat="44.54606" lon="4.32847">
        <ele>243</ele>
        <time>2016-05-15T12:22:08.000Z</time>
      </trkpt>
      <trkpt lat="44.54605" lon="4.32845">
        <ele>243</ele>
        <time>2016-05-15T12:22:09.000Z</time>
      </trkpt>
      <trkpt lat="44.54605" lon="4.32843">
        <ele>243</ele>
        <time>2016-05-15T12:22:10.000Z</time>
      </trkpt>
      <trkpt lat="44.54604" lon="4.3284">
        <ele>243</ele>
        <time>2016-05-15T12:22:11.000Z</time>
      </trkpt>
      <trkpt lat="44.54603" lon="4.32838">
        <ele>244</ele>
        <time>2016-05-15T12:22:12.000Z</time>
      </trkpt>
      <trkpt lat="44.54602" lon="4.32835">
        <ele>244</ele>
        <time>2016-05-15T12:22:13.000Z</time>
      </trkpt>
      <trkpt lat="44.54601" lon="4.32833">
        <ele>246</ele>
        <time>2016-05-15T12:22:14.000Z</time>
      </trkpt>
      <trkpt lat="44.546" lon="4.32831">
        <ele>246</ele>
        <time>2016-05-15T12:22:15.000Z</time>
      </trkpt>
      <trkpt lat="44.54598" lon="4.32829">
        <ele>246</ele>
        <time>2016-05-15T12:22:16.000Z</time>
      </trkpt>
      <trkpt lat="44.54597" lon="4.32828">
        <ele>246</ele>
        <time>2016-05-15T12:22:17.000Z</time>
      </trkpt>
      <trkpt lat="44.54595" lon="4.32827">
        <ele>246</ele>
        <time>2016-05-15T12:22:18.000Z</time>
      </trkpt>
      <trkpt lat="44.54593" lon="4.32825">
        <ele>246</ele>
        <time>2016-05-15T12:22:19.000Z</time>
      </trkpt>
      <trkpt lat="44.54592" lon="4.32823">
        <ele>246</ele>
        <time>2016-05-15T12:22:20.000Z</time>
      </trkpt>
      <trkpt lat="44.5459" lon="4.32821">
        <ele>246</ele>
        <time>2016-05-15T12:22:21.000Z</time>
      </trkpt>
      <trkpt lat="44.54589" lon="4.32819">
        <ele>246</ele>
        <time>2016-05-15T12:22:22.000Z</time>
      </trkpt>
      <trkpt lat="44.54587" lon="4.32818">
        <ele>246</ele>
        <time>2016-05-15T12:22:23.000Z</time>
      </trkpt>
      <trkpt lat="44.54586" lon="4.32816">
        <ele>246</ele>
        <time>2016-05-15T12:22:24.000Z</time>
      </trkpt>
      <trkpt lat="44.54585" lon="4.32814">
        <ele>246</ele>
        <time>2016-05-15T12:22:25.000Z</time>
      </trkpt>
      <trkpt lat="44.54584" lon="4.32812">
        <ele>246</ele>
        <time>2016-05-15T12:22:26.000Z</time>
      </trkpt>
      <trkpt lat="44.54583" lon="4.32809">
        <ele>249</ele>
        <time>2016-05-15T12:22:27.000Z</time>
      </trkpt>
      <trkpt lat="44.54583" lon="4.32807">
        <ele>249</ele>
        <time>2016-05-15T12:22:28.000Z</time>
      </trkpt>
      <trkpt lat="44.54582" lon="4.32804">
        <ele>249</ele>
        <time>2016-05-15T12:22:29.000Z</time>
      </trkpt>
      <trkpt lat="44.54582" lon="4.32801">
        <ele>249</ele>
        <time>2016-05-15T12:22:30.000Z</time>
      </trkpt>
      <trkpt lat="44.54582" lon="4.32798">
        <ele>249</ele>
        <time>2016-05-15T12:22:31.000Z</time>
      </trkpt>
      <trkpt lat="44.54582" lon="4.32795">
        <ele>249</ele>
        <time>2016-05-15T12:22:32.000Z</time>
      </trkpt>
      <trkpt lat="44.54582" lon="4.32792">
        <ele>249</ele>
        <time>2016-05-15T12:22:33.000Z</time>
      </trkpt>
      <trkpt lat="44.54583" lon="4.3279">
        <ele>249</ele>
        <time>2016-05-15T12:22:34.000Z</time>
      </trkpt>
      <trkpt lat="44.54583" lon="4.32787">
        <ele>249</ele>
        <time>2016-05-15T12:22:35.000Z</time>
      </trkpt>
      <trkpt lat="44.54583" lon="4.32785">
        <ele>249</ele>
        <time>2016-05-15T12:22:36.000Z</time>
      </trkpt>
      <trkpt lat="44.54583" lon="4.32783">
        <ele>249</ele>
        <time>2016-05-15T12:22:37.000Z</time>
      </trkpt>
      <trkpt lat="44.54583" lon="4.3278">
        <ele>249</ele>
        <time>2016-05-15T12:22:38.000Z</time>
      </trkpt>
      <trkpt lat="44.54583" lon="4.32777">
        <ele>249</ele>
        <time>2016-05-15T12:22:39.000Z</time>
      </trkpt>
      <trkpt lat="44.54583" lon="4.32774">
        <ele>249</ele>
        <time>2016-05-15T12:22:40.000Z</time>
      </trkpt>
      <trkpt lat="44.54583" lon="4.32771">
        <ele>249</ele>
        <time>2016-05-15T12:22:41.000Z</time>
      </trkpt>
      <trkpt lat="44.54583" lon="4.32768">
        <ele>249</ele>
        <time>2016-05-15T12:22:42.000Z</time>
      </trkpt>
      <trkpt lat="44.54583" lon="4.32764">
        <ele>249</ele>
        <time>2016-05-15T12:22:43.000Z</time>
      </trkpt>
      <trkpt lat="44.54582" lon="4.32761">
        <ele>249</ele>
        <time>2016-05-15T12:22:44.000Z</time>
      </trkpt>
      <trkpt lat="44.54582" lon="4.32758">
        <ele>249</ele>
        <time>2016-05-15T12:22:45.000Z</time>
      </trkpt>
      <trkpt lat="44.54582" lon="4.32754">
        <ele>249</ele>
        <time>2016-05-15T12:22:46.000Z</time>
      </trkpt>
      <trkpt lat="44.54582" lon="4.32751">
        <ele>249</ele>
        <time>2016-05-15T12:22:47.000Z</time>
      </trkpt>
      <trkpt lat="44.54582" lon="4.32748">
        <ele>249</ele>
        <time>2016-05-15T12:22:48.000Z</time>
      </trkpt>
      <trkpt lat="44.54582" lon="4.32744">
        <ele>249</ele>
        <time>2016-05-15T12:22:49.000Z</time>
      </trkpt>
      <trkpt lat="44.54582" lon="4.32741">
        <ele>249</ele>
        <time>2016-05-15T12:22:50.000Z</time>
      </trkpt>
      <trkpt lat="44.54582" lon="4.32738">
        <ele>249</ele>
        <time>2016-05-15T12:22:51.000Z</time>
      </trkpt>
      <trkpt lat="44.54582" lon="4.32734">
        <ele>249</ele>
        <time>2016-05-15T12:22:52.000Z</time>
      </trkpt>
      <trkpt lat="44.54582" lon="4.32731">
        <ele>249</ele>
        <time>2016-05-15T12:22:53.000Z</time>
      </trkpt>
      <trkpt lat="44.54582" lon="4.32727">
        <ele>249</ele>
        <time>2016-05-15T12:22:54.000Z</time>
      </trkpt>
      <trkpt lat="44.54581" lon="4.32723">
        <ele>249</ele>
        <time>2016-05-15T12:22:55.000Z</time>
      </trkpt>
      <trkpt lat="44.54581" lon="4.3272">
        <ele>249</ele>
        <time>2016-05-15T12:22:56.000Z</time>
      </trkpt>
      <trkpt lat="44.5458" lon="4.32716">
        <ele>249</ele>
        <time>2016-05-15T12:22:57.000Z</time>
      </trkpt>
      <trkpt lat="44.5458" lon="4.32713">
        <ele>249</ele>
        <time>2016-05-15T12:22:58.000Z</time>
      </trkpt>
      <trkpt lat="44.5458" lon="4.32709">
        <ele>249</ele>
        <time>2016-05-15T12:22:59.000Z</time>
      </trkpt>
      <trkpt lat="44.54579" lon="4.32705">
        <ele>249</ele>
        <time>2016-05-15T12:23:00.000Z</time>
      </trkpt>
      <trkpt lat="44.54578" lon="4.32701">
        <ele>250</ele>
        <time>2016-05-15T12:23:01.000Z</time>
      </trkpt>
      <trkpt lat="44.54578" lon="4.32697">
        <ele>250</ele>
        <time>2016-05-15T12:23:02.000Z</time>
      </trkpt>
      <trkpt lat="44.54577" lon="4.32692">
        <ele>250</ele>
        <time>2016-05-15T12:23:03.000Z</time>
      </trkpt>
      <trkpt lat="44.54576" lon="4.32688">
        <ele>250</ele>
        <time>2016-05-15T12:23:04.000Z</time>
      </trkpt>
      <trkpt lat="44.54575" lon="4.32683">
        <ele>250</ele>
        <time>2016-05-15T12:23:05.000Z</time>
      </trkpt>
      <trkpt lat="44.54574" lon="4.32678">
        <ele>250</ele>
        <time>2016-05-15T12:23:06.000Z</time>
      </trkpt>
      <trkpt lat="44.54573" lon="4.32674">
        <ele>251</ele>
        <time>2016-05-15T12:23:07.000Z</time>
      </trkpt>
      <trkpt lat="44.54571" lon="4.32668">
        <ele>251</ele>
        <time>2016-05-15T12:23:08.000Z</time>
      </trkpt>
      <trkpt lat="44.5457" lon="4.32663">
        <ele>251</ele>
        <time>2016-05-15T12:23:09.000Z</time>
      </trkpt>
      <trkpt lat="44.54569" lon="4.32657">
        <ele>251</ele>
        <time>2016-05-15T12:23:10.000Z</time>
      </trkpt>
      <trkpt lat="44.54568" lon="4.32651">
        <ele>250</ele>
        <time>2016-05-15T12:23:11.000Z</time>
      </trkpt>
      <trkpt lat="44.54566" lon="4.32644">
        <ele>250</ele>
        <time>2016-05-15T12:23:12.000Z</time>
      </trkpt>
      <trkpt lat="44.54565" lon="4.32638">
        <ele>250</ele>
        <time>2016-05-15T12:23:13.000Z</time>
      </trkpt>
      <trkpt lat="44.54563" lon="4.3263">
        <ele>250</ele>
        <time>2016-05-15T12:23:14.000Z</time>
      </trkpt>
      <trkpt lat="44.54562" lon="4.32623">
        <ele>250</ele>
        <time>2016-05-15T12:23:15.000Z</time>
      </trkpt>
      <trkpt lat="44.5456" lon="4.32615">
        <ele>250</ele>
        <time>2016-05-15T12:23:16.000Z</time>
      </trkpt>
      <trkpt lat="44.54559" lon="4.32607">
        <ele>250</ele>
        <time>2016-05-15T12:23:17.000Z</time>
      </trkpt>
      <trkpt lat="44.54557" lon="4.326">
        <ele>250</ele>
        <time>2016-05-15T12:23:18.000Z</time>
      </trkpt>
      <trkpt lat="44.54556" lon="4.32594">
        <ele>250</ele>
        <time>2016-05-15T12:23:19.000Z</time>
      </trkpt>
      <trkpt lat="44.54554" lon="4.32592">
        <ele>250</ele>
        <time>2016-05-15T12:23:20.000Z</time>
      </trkpt>
      <trkpt lat="44.54551" lon="4.32591">
        <ele>250</ele>
        <time>2016-05-15T12:23:21.000Z</time>
      </trkpt>
      <trkpt lat="44.54549" lon="4.32591">
        <ele>250</ele>
        <time>2016-05-15T12:23:22.000Z</time>
      </trkpt>
      <trkpt lat="44.54545" lon="4.32591">
        <ele>250</ele>
        <time>2016-05-15T12:23:23.000Z</time>
      </trkpt>
      <trkpt lat="44.54541" lon="4.32592">
        <ele>250</ele>
        <time>2016-05-15T12:23:24.000Z</time>
      </trkpt>
      <trkpt lat="44.54536" lon="4.32593">
        <ele>250</ele>
        <time>2016-05-15T12:23:25.000Z</time>
      </trkpt>
      <trkpt lat="44.54531" lon="4.32594">
        <ele>250</ele>
        <time>2016-05-15T12:23:26.000Z</time>
      </trkpt>
      <trkpt lat="44.54527" lon="4.32596">
        <ele>249</ele>
        <time>2016-05-15T12:23:27.000Z</time>
      </trkpt>
      <trkpt lat="44.54522" lon="4.32598">
        <ele>249</ele>
        <time>2016-05-15T12:23:28.000Z</time>
      </trkpt>
      <trkpt lat="44.54518" lon="4.326">
        <ele>249</ele>
        <time>2016-05-15T12:23:29.000Z</time>
      </trkpt>
      <trkpt lat="44.54513" lon="4.32603">
        <ele>249</ele>
        <time>2016-05-15T12:23:30.000Z</time>
      </trkpt>
      <trkpt lat="44.54509" lon="4.32605">
        <ele>249</ele>
        <time>2016-05-15T12:23:31.000Z</time>
      </trkpt>
      <trkpt lat="44.54505" lon="4.32607">
        <ele>249</ele>
        <time>2016-05-15T12:23:32.000Z</time>
      </trkpt>
      <trkpt lat="44.54501" lon="4.32609">
        <ele>249</ele>
        <time>2016-05-15T12:23:33.000Z</time>
      </trkpt>
      <trkpt lat="44.54497" lon="4.3261">
        <ele>247</ele>
        <time>2016-05-15T12:23:34.000Z</time>
      </trkpt>
      <trkpt lat="44.54493" lon="4.3261">
        <ele>247</ele>
        <time>2016-05-15T12:23:35.000Z</time>
      </trkpt>
      <trkpt lat="44.54489" lon="4.32611">
        <ele>246</ele>
        <time>2016-05-15T12:23:36.000Z</time>
      </trkpt>
      <trkpt lat="44.54485" lon="4.32612">
        <ele>246</ele>
        <time>2016-05-15T12:23:37.000Z</time>
      </trkpt>
      <trkpt lat="44.5448" lon="4.32613">
        <ele>246</ele>
        <time>2016-05-15T12:23:38.000Z</time>
      </trkpt>
      <trkpt lat="44.54475" lon="4.32614">
        <ele>246</ele>
        <time>2016-05-15T12:23:39.000Z</time>
      </trkpt>
      <trkpt lat="44.5447" lon="4.32614">
        <ele>246</ele>
        <time>2016-05-15T12:23:40.000Z</time>
      </trkpt>
      <trkpt lat="44.54465" lon="4.32614">
        <ele>246</ele>
        <time>2016-05-15T12:23:41.000Z</time>
      </trkpt>
      <trkpt lat="44.5446" lon="4.32614">
        <ele>246</ele>
        <time>2016-05-15T12:23:42.000Z</time>
      </trkpt>
      <trkpt lat="44.54456" lon="4.32614">
        <ele>246</ele>
        <time>2016-05-15T12:23:43.000Z</time>
      </trkpt>
      <trkpt lat="44.54451" lon="4.32614">
        <ele>245</ele>
        <time>2016-05-15T12:23:44.000Z</time>
      </trkpt>
      <trkpt lat="44.54447" lon="4.32614">
        <ele>245</ele>
        <time>2016-05-15T12:23:45.000Z</time>
      </trkpt>
      <trkpt lat="44.54442" lon="4.32613">
        <ele>245</ele>
        <time>2016-05-15T12:23:46.000Z</time>
      </trkpt>
      <trkpt lat="44.54438" lon="4.32613">
        <ele>245</ele>
        <time>2016-05-15T12:23:47.000Z</time>
      </trkpt>
      <trkpt lat="44.54434" lon="4.32613">
        <ele>245</ele>
        <time>2016-05-15T12:23:48.000Z</time>
      </trkpt>
      <trkpt lat="44.54429" lon="4.32612">
        <ele>245</ele>
        <time>2016-05-15T12:23:49.000Z</time>
      </trkpt>
      <trkpt lat="44.54425" lon="4.32611">
        <ele>245</ele>
        <time>2016-05-15T12:23:50.000Z</time>
      </trkpt>
      <trkpt lat="44.54422" lon="4.32611">
        <ele>245</ele>
        <time>2016-05-15T12:23:51.000Z</time>
      </trkpt>
      <trkpt lat="44.54418" lon="4.3261">
        <ele>245</ele>
        <time>2016-05-15T12:23:52.000Z</time>
      </trkpt>
      <trkpt lat="44.54414" lon="4.3261">
        <ele>245</ele>
        <time>2016-05-15T12:23:53.000Z</time>
      </trkpt>
      <trkpt lat="44.5441" lon="4.32608">
        <ele>245</ele>
        <time>2016-05-15T12:23:54.000Z</time>
      </trkpt>
      <trkpt lat="44.54407" lon="4.32607">
        <ele>245</ele>
        <time>2016-05-15T12:23:55.000Z</time>
      </trkpt>
      <trkpt lat="44.54404" lon="4.32605">
        <ele>245</ele>
        <time>2016-05-15T12:23:56.000Z</time>
      </trkpt>
      <trkpt lat="44.54401" lon="4.32603">
        <ele>245</ele>
        <time>2016-05-15T12:23:57.000Z</time>
      </trkpt>
      <trkpt lat="44.54398" lon="4.32601">
        <ele>245</ele>
        <time>2016-05-15T12:23:58.000Z</time>
      </trkpt>
      <trkpt lat="44.54395" lon="4.32598">
        <ele>245</ele>
        <time>2016-05-15T12:23:59.000Z</time>
      </trkpt>
      <trkpt lat="44.54391" lon="4.32596">
        <ele>245</ele>
        <time>2016-05-15T12:24:00.000Z</time>
      </trkpt>
      <trkpt lat="44.54388" lon="4.32593">
        <ele>245</ele>
        <time>2016-05-15T12:24:01.000Z</time>
      </trkpt>
      <trkpt lat="44.54385" lon="4.3259">
        <ele>246</ele>
        <time>2016-05-15T12:24:02.000Z</time>
      </trkpt>
      <trkpt lat="44.54382" lon="4.32587">
        <ele>246</ele>
        <time>2016-05-15T12:24:03.000Z</time>
      </trkpt>
      <trkpt lat="44.54379" lon="4.32584">
        <ele>246</ele>
        <time>2016-05-15T12:24:04.000Z</time>
      </trkpt>
      <trkpt lat="44.54376" lon="4.32581">
        <ele>250</ele>
        <time>2016-05-15T12:24:05.000Z</time>
      </trkpt>
      <trkpt lat="44.54372" lon="4.32577">
        <ele>250</ele>
        <time>2016-05-15T12:24:06.000Z</time>
      </trkpt>
      <trkpt lat="44.54369" lon="4.32575">
        <ele>250</ele>
        <time>2016-05-15T12:24:07.000Z</time>
      </trkpt>
      <trkpt lat="44.54366" lon="4.32573">
        <ele>250</ele>
        <time>2016-05-15T12:24:08.000Z</time>
      </trkpt>
      <trkpt lat="44.54363" lon="4.3257">
        <ele>250</ele>
        <time>2016-05-15T12:24:09.000Z</time>
      </trkpt>
      <trkpt lat="44.54359" lon="4.32568">
        <ele>250</ele>
        <time>2016-05-15T12:24:10.000Z</time>
      </trkpt>
      <trkpt lat="44.54356" lon="4.32567">
        <ele>250</ele>
        <time>2016-05-15T12:24:11.000Z</time>
      </trkpt>
      <trkpt lat="44.54353" lon="4.32566">
        <ele>250</ele>
        <time>2016-05-15T12:24:12.000Z</time>
      </trkpt>
      <trkpt lat="44.5435" lon="4.32565">
        <ele>250</ele>
        <time>2016-05-15T12:24:13.000Z</time>
      </trkpt>
      <trkpt lat="44.54347" lon="4.32564">
        <ele>250</ele>
        <time>2016-05-15T12:24:14.000Z</time>
      </trkpt>
      <trkpt lat="44.54343" lon="4.32562">
        <ele>250</ele>
        <time>2016-05-15T12:24:15.000Z</time>
      </trkpt>
      <trkpt lat="44.5434" lon="4.32561">
        <ele>250</ele>
        <time>2016-05-15T12:24:16.000Z</time>
      </trkpt>
      <trkpt lat="44.54337" lon="4.32559">
        <ele>250</ele>
        <time>2016-05-15T12:24:17.000Z</time>
      </trkpt>
      <trkpt lat="44.54334" lon="4.32558">
        <ele>250</ele>
        <time>2016-05-15T12:24:18.000Z</time>
      </trkpt>
      <trkpt lat="44.54331" lon="4.32557">
        <ele>251</ele>
        <time>2016-05-15T12:24:19.000Z</time>
      </trkpt>
      <trkpt lat="44.54328" lon="4.32556">
        <ele>251</ele>
        <time>2016-05-15T12:24:20.000Z</time>
      </trkpt>
      <trkpt lat="44.54324" lon="4.32555">
        <ele>252</ele>
        <time>2016-05-15T12:24:21.000Z</time>
      </trkpt>
      <trkpt lat="44.54321" lon="4.32553">
        <ele>252</ele>
        <time>2016-05-15T12:24:22.000Z</time>
      </trkpt>
      <trkpt lat="44.54317" lon="4.32552">
        <ele>252</ele>
        <time>2016-05-15T12:24:23.000Z</time>
      </trkpt>
      <trkpt lat="44.54313" lon="4.32551">
        <ele>252</ele>
        <time>2016-05-15T12:24:24.000Z</time>
      </trkpt>
      <trkpt lat="44.5431" lon="4.3255">
        <ele>252</ele>
        <time>2016-05-15T12:24:25.000Z</time>
      </trkpt>
      <trkpt lat="44.54306" lon="4.32548">
        <ele>252</ele>
        <time>2016-05-15T12:24:26.000Z</time>
      </trkpt>
      <trkpt lat="44.54303" lon="4.32547">
        <ele>252</ele>
        <time>2016-05-15T12:24:27.000Z</time>
      </trkpt>
      <trkpt lat="44.54299" lon="4.32547">
        <ele>252</ele>
        <time>2016-05-15T12:24:28.000Z</time>
      </trkpt>
      <trkpt lat="44.54296" lon="4.32546">
        <ele>253</ele>
        <time>2016-05-15T12:24:29.000Z</time>
      </trkpt>
      <trkpt lat="44.54292" lon="4.32545">
        <ele>253</ele>
        <time>2016-05-15T12:24:30.000Z</time>
      </trkpt>
      <trkpt lat="44.54289" lon="4.32544">
        <ele>253</ele>
        <time>2016-05-15T12:24:31.000Z</time>
      </trkpt>
      <trkpt lat="44.54286" lon="4.32543">
        <ele>253</ele>
        <time>2016-05-15T12:24:32.000Z</time>
      </trkpt>
      <trkpt lat="44.54282" lon="4.32543">
        <ele>253</ele>
        <time>2016-05-15T12:24:33.000Z</time>
      </trkpt>
      <trkpt lat="44.54279" lon="4.32542">
        <ele>253</ele>
        <time>2016-05-15T12:24:34.000Z</time>
      </trkpt>
      <trkpt lat="44.54276" lon="4.32541">
        <ele>253</ele>
        <time>2016-05-15T12:24:35.000Z</time>
      </trkpt>
      <trkpt lat="44.54273" lon="4.3254">
        <ele>253</ele>
        <time>2016-05-15T12:24:36.000Z</time>
      </trkpt>
      <trkpt lat="44.5427" lon="4.32539">
        <ele>253</ele>
        <time>2016-05-15T12:24:37.000Z</time>
      </trkpt>
      <trkpt lat="44.54267" lon="4.32538">
        <ele>253</ele>
        <time>2016-05-15T12:24:38.000Z</time>
      </trkpt>
      <trkpt lat="44.54264" lon="4.32538">
        <ele>253</ele>
        <time>2016-05-15T12:24:39.000Z</time>
      </trkpt>
      <trkpt lat="44.54261" lon="4.32537">
        <ele>253</ele>
        <time>2016-05-15T12:24:40.000Z</time>
      </trkpt>
      <trkpt lat="44.54258" lon="4.32537">
        <ele>253</ele>
        <time>2016-05-15T12:24:41.000Z</time>
      </trkpt>
      <trkpt lat="44.54255" lon="4.32536">
        <ele>253</ele>
        <time>2016-05-15T12:24:42.000Z</time>
      </trkpt>
      <trkpt lat="44.54252" lon="4.32536">
        <ele>253</ele>
        <time>2016-05-15T12:24:43.000Z</time>
      </trkpt>
      <trkpt lat="44.54249" lon="4.32537">
        <ele>253</ele>
        <time>2016-05-15T12:24:44.000Z</time>
      </trkpt>
      <trkpt lat="44.54245" lon="4.3254">
        <ele>253</ele>
        <time>2016-05-15T12:24:45.000Z</time>
      </trkpt>
      <trkpt lat="44.54243" lon="4.32542">
        <ele>253</ele>
        <time>2016-05-15T12:24:46.000Z</time>
      </trkpt>
      <trkpt lat="44.54241" lon="4.32545">
        <ele>253</ele>
        <time>2016-05-15T12:24:47.000Z</time>
      </trkpt>
      <trkpt lat="44.54239" lon="4.32549">
        <ele>253</ele>
        <time>2016-05-15T12:24:48.000Z</time>
      </trkpt>
      <trkpt lat="44.54236" lon="4.32553">
        <ele>252</ele>
        <time>2016-05-15T12:24:49.000Z</time>
      </trkpt>
      <trkpt lat="44.54233" lon="4.32558">
        <ele>252</ele>
        <time>2016-05-15T12:24:50.000Z</time>
      </trkpt>
      <trkpt lat="44.5423" lon="4.32564">
        <ele>252</ele>
        <time>2016-05-15T12:24:51.000Z</time>
      </trkpt>
      <trkpt lat="44.54226" lon="4.32569">
        <ele>252</ele>
        <time>2016-05-15T12:24:52.000Z</time>
      </trkpt>
      <trkpt lat="44.54222" lon="4.32574">
        <ele>252</ele>
        <time>2016-05-15T12:24:53.000Z</time>
      </trkpt>
      <trkpt lat="44.54217" lon="4.32575">
        <ele>252</ele>
        <time>2016-05-15T12:24:54.000Z</time>
      </trkpt>
      <trkpt lat="44.54211" lon="4.32575">
        <ele>252</ele>
        <time>2016-05-15T12:24:55.000Z</time>
      </trkpt>
      <trkpt lat="44.54206" lon="4.32574">
        <ele>251</ele>
        <time>2016-05-15T12:24:56.000Z</time>
      </trkpt>
      <trkpt lat="44.542" lon="4.32573">
        <ele>251</ele>
        <time>2016-05-15T12:24:57.000Z</time>
      </trkpt>
      <trkpt lat="44.54195" lon="4.32571">
        <ele>251</ele>
        <time>2016-05-15T12:24:58.000Z</time>
      </trkpt>
      <trkpt lat="44.54189" lon="4.3257">
        <ele>251</ele>
        <time>2016-05-15T12:24:59.000Z</time>
      </trkpt>
      <trkpt lat="44.54184" lon="4.3257">
        <ele>251</ele>
        <time>2016-05-15T12:25:00.000Z</time>
      </trkpt>
      <trkpt lat="44.54179" lon="4.32569">
        <ele>251</ele>
        <time>2016-05-15T12:25:01.000Z</time>
      </trkpt>
      <trkpt lat="44.54174" lon="4.32569">
        <ele>250</ele>
        <time>2016-05-15T12:25:02.000Z</time>
      </trkpt>
      <trkpt lat="44.54169" lon="4.32569">
        <ele>250</ele>
        <time>2016-05-15T12:25:03.000Z</time>
      </trkpt>
      <trkpt lat="44.54164" lon="4.32569">
        <ele>251</ele>
        <time>2016-05-15T12:25:04.000Z</time>
      </trkpt>
      <trkpt lat="44.5416" lon="4.32569">
        <ele>251</ele>
        <time>2016-05-15T12:25:05.000Z</time>
      </trkpt>
      <trkpt lat="44.54156" lon="4.32569">
        <ele>251</ele>
        <time>2016-05-15T12:25:06.000Z</time>
      </trkpt>
      <trkpt lat="44.54152" lon="4.32569">
        <ele>251</ele>
        <time>2016-05-15T12:25:07.000Z</time>
      </trkpt>
      <trkpt lat="44.54147" lon="4.32569">
        <ele>252</ele>
        <time>2016-05-15T12:25:08.000Z</time>
      </trkpt>
      <trkpt lat="44.54143" lon="4.32569">
        <ele>252</ele>
        <time>2016-05-15T12:25:09.000Z</time>
      </trkpt>
      <trkpt lat="44.5414" lon="4.32569">
        <ele>252</ele>
        <time>2016-05-15T12:25:10.000Z</time>
      </trkpt>
      <trkpt lat="44.54136" lon="4.32569">
        <ele>252</ele>
        <time>2016-05-15T12:25:11.000Z</time>
      </trkpt>
      <trkpt lat="44.54131" lon="4.32569">
        <ele>253</ele>
        <time>2016-05-15T12:25:12.000Z</time>
      </trkpt>
      <trkpt lat="44.54127" lon="4.32569">
        <ele>253</ele>
        <time>2016-05-15T12:25:13.000Z</time>
      </trkpt>
      <trkpt lat="44.54123" lon="4.32568">
        <ele>253</ele>
        <time>2016-05-15T12:25:14.000Z</time>
      </trkpt>
      <trkpt lat="44.54119" lon="4.32568">
        <ele>253</ele>
        <time>2016-05-15T12:25:15.000Z</time>
      </trkpt>
      <trkpt lat="44.54115" lon="4.32568">
        <ele>253</ele>
        <time>2016-05-15T12:25:16.000Z</time>
      </trkpt>
      <trkpt lat="44.54111" lon="4.32567">
        <ele>253</ele>
        <time>2016-05-15T12:25:17.000Z</time>
      </trkpt>
      <trkpt lat="44.54107" lon="4.32566">
        <ele>253</ele>
        <time>2016-05-15T12:25:18.000Z</time>
      </trkpt>
      <trkpt lat="44.54103" lon="4.32565">
        <ele>253</ele>
        <time>2016-05-15T12:25:19.000Z</time>
      </trkpt>
      <trkpt lat="44.54099" lon="4.32564">
        <ele>253</ele>
        <time>2016-05-15T12:25:20.000Z</time>
      </trkpt>
      <trkpt lat="44.54096" lon="4.32563">
        <ele>254</ele>
        <time>2016-05-15T12:25:21.000Z</time>
      </trkpt>
      <trkpt lat="44.54092" lon="4.32563">
        <ele>254</ele>
        <time>2016-05-15T12:25:22.000Z</time>
      </trkpt>
      <trkpt lat="44.54089" lon="4.32562">
        <ele>254</ele>
        <time>2016-05-15T12:25:23.000Z</time>
      </trkpt>
      <trkpt lat="44.54085" lon="4.32562">
        <ele>254</ele>
        <time>2016-05-15T12:25:24.000Z</time>
      </trkpt>
      <trkpt lat="44.54081" lon="4.32562">
        <ele>254</ele>
        <time>2016-05-15T12:25:25.000Z</time>
      </trkpt>
      <trkpt lat="44.54078" lon="4.32561">
        <ele>254</ele>
        <time>2016-05-15T12:25:26.000Z</time>
      </trkpt>
      <trkpt lat="44.54074" lon="4.32561">
        <ele>255</ele>
        <time>2016-05-15T12:25:27.000Z</time>
      </trkpt>
      <trkpt lat="44.5407" lon="4.3256">
        <ele>255</ele>
        <time>2016-05-15T12:25:28.000Z</time>
      </trkpt>
      <trkpt lat="44.54066" lon="4.32559">
        <ele>255</ele>
        <time>2016-05-15T12:25:29.000Z</time>
      </trkpt>
      <trkpt lat="44.54062" lon="4.32558">
        <ele>255</ele>
        <time>2016-05-15T12:25:30.000Z</time>
      </trkpt>
      <trkpt lat="44.54059" lon="4.32557">
        <ele>255</ele>
        <time>2016-05-15T12:25:31.000Z</time>
      </trkpt>
      <trkpt lat="44.54055" lon="4.32556">
        <ele>255</ele>
        <time>2016-05-15T12:25:32.000Z</time>
      </trkpt>
      <trkpt lat="44.54052" lon="4.32555">
        <ele>255</ele>
        <time>2016-05-15T12:25:33.000Z</time>
      </trkpt>
      <trkpt lat="44.54049" lon="4.32553">
        <ele>255</ele>
        <time>2016-05-15T12:25:34.000Z</time>
      </trkpt>
      <trkpt lat="44.54046" lon="4.32552">
        <ele>255</ele>
        <time>2016-05-15T12:25:35.000Z</time>
      </trkpt>
      <trkpt lat="44.54044" lon="4.3255">
        <ele>255</ele>
        <time>2016-05-15T12:25:36.000Z</time>
      </trkpt>
      <trkpt lat="44.54042" lon="4.32549">
        <ele>255</ele>
        <time>2016-05-15T12:25:37.000Z</time>
      </trkpt>
      <trkpt lat="44.5404" lon="4.32547">
        <ele>255</ele>
        <time>2016-05-15T12:25:38.000Z</time>
      </trkpt>
      <trkpt lat="44.54038" lon="4.32546">
        <ele>255</ele>
        <time>2016-05-15T12:25:39.000Z</time>
      </trkpt>
      <trkpt lat="44.54036" lon="4.32545">
        <ele>255</ele>
        <time>2016-05-15T12:25:40.000Z</time>
      </trkpt>
      <trkpt lat="44.54034" lon="4.32544">
        <ele>255</ele>
        <time>2016-05-15T12:25:41.000Z</time>
      </trkpt>
      <trkpt lat="44.54033" lon="4.32541">
        <ele>255</ele>
        <time>2016-05-15T12:25:42.000Z</time>
      </trkpt>
      <trkpt lat="44.54034" lon="4.32539">
        <ele>255</ele>
        <time>2016-05-15T12:25:43.000Z</time>
      </trkpt>
      <trkpt lat="44.54035" lon="4.3254">
        <ele>255</ele>
        <time>2016-05-15T12:25:44.000Z</time>
      </trkpt>
      <trkpt lat="44.54036" lon="4.32541">
        <ele>255</ele>
        <time>2016-05-15T12:25:45.000Z</time>
      </trkpt>
      <trkpt lat="44.54036" lon="4.32544">
        <ele>255</ele>
        <time>2016-05-15T12:25:46.000Z</time>
      </trkpt>
      <trkpt lat="44.54037" lon="4.32546">
        <ele>255</ele>
        <time>2016-05-15T12:25:47.000Z</time>
      </trkpt>
      <trkpt lat="44.54039" lon="4.32547">
        <ele>255</ele>
        <time>2016-05-15T12:25:48.000Z</time>
      </trkpt>
      <trkpt lat="44.54042" lon="4.32549">
        <ele>255</ele>
        <time>2016-05-15T12:25:49.000Z</time>
      </trkpt>
      <trkpt lat="44.54044" lon="4.32551">
        <ele>255</ele>
        <time>2016-05-15T12:25:50.000Z</time>
      </trkpt>
      <trkpt lat="44.54047" lon="4.32552">
        <ele>255</ele>
        <time>2016-05-15T12:25:51.000Z</time>
      </trkpt>
      <trkpt lat="44.54051" lon="4.32554">
        <ele>255</ele>
        <time>2016-05-15T12:25:52.000Z</time>
      </trkpt>
      <trkpt lat="44.54054" lon="4.32555">
        <ele>255</ele>
        <time>2016-05-15T12:25:53.000Z</time>
      </trkpt>
      <trkpt lat="44.54058" lon="4.32556">
        <ele>255</ele>
        <time>2016-05-15T12:25:54.000Z</time>
      </trkpt>
      <trkpt lat="44.54061" lon="4.32558">
        <ele>255</ele>
        <time>2016-05-15T12:25:55.000Z</time>
      </trkpt>
      <trkpt lat="44.54065" lon="4.32559">
        <ele>255</ele>
        <time>2016-05-15T12:25:56.000Z</time>
      </trkpt>
      <trkpt lat="44.54069" lon="4.32559">
        <ele>255</ele>
        <time>2016-05-15T12:25:57.000Z</time>
      </trkpt>
      <trkpt lat="44.54072" lon="4.3256">
        <ele>255</ele>
        <time>2016-05-15T12:25:58.000Z</time>
      </trkpt>
      <trkpt lat="44.54076" lon="4.3256">
        <ele>255</ele>
        <time>2016-05-15T12:25:59.000Z</time>
      </trkpt>
      <trkpt lat="44.5408" lon="4.3256">
        <ele>255</ele>
        <time>2016-05-15T12:26:00.000Z</time>
      </trkpt>
      <trkpt lat="44.54084" lon="4.3256">
        <ele>254</ele>
        <time>2016-05-15T12:26:01.000Z</time>
      </trkpt>
      <trkpt lat="44.54088" lon="4.32561">
        <ele>254</ele>
        <time>2016-05-15T12:26:02.000Z</time>
      </trkpt>
      <trkpt lat="44.54093" lon="4.32562">
        <ele>254</ele>
        <time>2016-05-15T12:26:03.000Z</time>
      </trkpt>
      <trkpt lat="44.54097" lon="4.32563">
        <ele>253</ele>
        <time>2016-05-15T12:26:04.000Z</time>
      </trkpt>
      <trkpt lat="44.54101" lon="4.32564">
        <ele>253</ele>
        <time>2016-05-15T12:26:05.000Z</time>
      </trkpt>
      <trkpt lat="44.54104" lon="4.32565">
        <ele>253</ele>
        <time>2016-05-15T12:26:06.000Z</time>
      </trkpt>
      <trkpt lat="44.54106" lon="4.32565">
        <ele>253</ele>
        <time>2016-05-15T12:26:07.000Z</time>
      </trkpt>
      <trkpt lat="44.54109" lon="4.32565">
        <ele>253</ele>
        <time>2016-05-15T12:26:08.000Z</time>
      </trkpt>
      <trkpt lat="44.54111" lon="4.32566">
        <ele>253</ele>
        <time>2016-05-15T12:26:09.000Z</time>
      </trkpt>
      <trkpt lat="44.54114" lon="4.32566">
        <ele>253</ele>
        <time>2016-05-15T12:26:10.000Z</time>
      </trkpt>
      <trkpt lat="44.54118" lon="4.32566">
        <ele>253</ele>
        <time>2016-05-15T12:26:11.000Z</time>
      </trkpt>
      <trkpt lat="44.54121" lon="4.32567">
        <ele>253</ele>
        <time>2016-05-15T12:26:12.000Z</time>
      </trkpt>
      <trkpt lat="44.54125" lon="4.32567">
        <ele>253</ele>
        <time>2016-05-15T12:26:13.000Z</time>
      </trkpt>
      <trkpt lat="44.54129" lon="4.32567">
        <ele>253</ele>
        <time>2016-05-15T12:26:14.000Z</time>
      </trkpt>
      <trkpt lat="44.54134" lon="4.32567">
        <ele>253</ele>
        <time>2016-05-15T12:26:15.000Z</time>
      </trkpt>
      <trkpt lat="44.54138" lon="4.32567">
        <ele>252</ele>
        <time>2016-05-15T12:26:16.000Z</time>
      </trkpt>
      <trkpt lat="44.54141" lon="4.32567">
        <ele>252</ele>
        <time>2016-05-15T12:26:17.000Z</time>
      </trkpt>
      <trkpt lat="44.54143" lon="4.32567">
        <ele>252</ele>
        <time>2016-05-15T12:26:18.000Z</time>
      </trkpt>
      <trkpt lat="44.54145" lon="4.32567">
        <ele>252</ele>
        <time>2016-05-15T12:26:19.000Z</time>
      </trkpt>
      <trkpt lat="44.54148" lon="4.32567">
        <ele>252</ele>
        <time>2016-05-15T12:26:20.000Z</time>
      </trkpt>
      <trkpt lat="44.5415" lon="4.32567">
        <ele>252</ele>
        <time>2016-05-15T12:26:21.000Z</time>
      </trkpt>
      <trkpt lat="44.54153" lon="4.32567">
        <ele>251</ele>
        <time>2016-05-15T12:26:22.000Z</time>
      </trkpt>
      <trkpt lat="44.54156" lon="4.32567">
        <ele>251</ele>
        <time>2016-05-15T12:26:23.000Z</time>
      </trkpt>
      <trkpt lat="44.54159" lon="4.32567">
        <ele>251</ele>
        <time>2016-05-15T12:26:24.000Z</time>
      </trkpt>
      <trkpt lat="44.54162" lon="4.32567">
        <ele>251</ele>
        <time>2016-05-15T12:26:25.000Z</time>
      </trkpt>
      <trkpt lat="44.54165" lon="4.32567">
        <ele>251</ele>
        <time>2016-05-15T12:26:26.000Z</time>
      </trkpt>
      <trkpt lat="44.54168" lon="4.32567">
        <ele>250</ele>
        <time>2016-05-15T12:26:27.000Z</time>
      </trkpt>
      <trkpt lat="44.54172" lon="4.32567">
        <ele>250</ele>
        <time>2016-05-15T12:26:28.000Z</time>
      </trkpt>
      <trkpt lat="44.54176" lon="4.32567">
        <ele>251</ele>
        <time>2016-05-15T12:26:29.000Z</time>
      </trkpt>
      <trkpt lat="44.5418" lon="4.32567">
        <ele>251</ele>
        <time>2016-05-15T12:26:30.000Z</time>
      </trkpt>
      <trkpt lat="44.54184" lon="4.32568">
        <ele>251</ele>
        <time>2016-05-15T12:26:31.000Z</time>
      </trkpt>
      <trkpt lat="44.54188" lon="4.32569">
        <ele>251</ele>
        <time>2016-05-15T12:26:32.000Z</time>
      </trkpt>
      <trkpt lat="44.54192" lon="4.32569">
        <ele>251</ele>
        <time>2016-05-15T12:26:33.000Z</time>
      </trkpt>
      <trkpt lat="44.54196" lon="4.3257">
        <ele>251</ele>
        <time>2016-05-15T12:26:34.000Z</time>
      </trkpt>
      <trkpt lat="44.54199" lon="4.32571">
        <ele>251</ele>
        <time>2016-05-15T12:26:35.000Z</time>
      </trkpt>
      <trkpt lat="44.54203" lon="4.32572">
        <ele>251</ele>
        <time>2016-05-15T12:26:36.000Z</time>
      </trkpt>
      <trkpt lat="44.54206" lon="4.32573">
        <ele>251</ele>
        <time>2016-05-15T12:26:37.000Z</time>
      </trkpt>
      <trkpt lat="44.54209" lon="4.32574">
        <ele>252</ele>
        <time>2016-05-15T12:26:38.000Z</time>
      </trkpt>
      <trkpt lat="44.54212" lon="4.32575">
        <ele>252</ele>
        <time>2016-05-15T12:26:39.000Z</time>
      </trkpt>
      <trkpt lat="44.54215" lon="4.32576">
        <ele>252</ele>
        <time>2016-05-15T12:26:40.000Z</time>
      </trkpt>
      <trkpt lat="44.54218" lon="4.32577">
        <ele>252</ele>
        <time>2016-05-15T12:26:41.000Z</time>
      </trkpt>
      <trkpt lat="44.5422" lon="4.32576">
        <ele>252</ele>
        <time>2016-05-15T12:26:42.000Z</time>
      </trkpt>
      <trkpt lat="44.54223" lon="4.32575">
        <ele>252</ele>
        <time>2016-05-15T12:26:43.000Z</time>
      </trkpt>
      <trkpt lat="44.54225" lon="4.32574">
        <ele>252</ele>
        <time>2016-05-15T12:26:44.000Z</time>
      </trkpt>
      <trkpt lat="44.54227" lon="4.32572">
        <ele>252</ele>
        <time>2016-05-15T12:26:45.000Z</time>
      </trkpt>
      <trkpt lat="44.54228" lon="4.32569">
        <ele>252</ele>
        <time>2016-05-15T12:26:46.000Z</time>
      </trkpt>
      <trkpt lat="44.54229" lon="4.32567">
        <ele>252</ele>
        <time>2016-05-15T12:26:47.000Z</time>
      </trkpt>
      <trkpt lat="44.54231" lon="4.32564">
        <ele>252</ele>
        <time>2016-05-15T12:26:48.000Z</time>
      </trkpt>
      <trkpt lat="44.54232" lon="4.32562">
        <ele>252</ele>
        <time>2016-05-15T12:26:49.000Z</time>
      </trkpt>
      <trkpt lat="44.54233" lon="4.32559">
        <ele>252</ele>
        <time>2016-05-15T12:26:50.000Z</time>
      </trkpt>
      <trkpt lat="44.54235" lon="4.32557">
        <ele>252</ele>
        <time>2016-05-15T12:26:51.000Z</time>
      </trkpt>
      <trkpt lat="44.54236" lon="4.32555">
        <ele>252</ele>
        <time>2016-05-15T12:26:52.000Z</time>
      </trkpt>
      <trkpt lat="44.54237" lon="4.32552">
        <ele>252</ele>
        <time>2016-05-15T12:26:53.000Z</time>
      </trkpt>
      <trkpt lat="44.54239" lon="4.3255">
        <ele>253</ele>
        <time>2016-05-15T12:26:54.000Z</time>
      </trkpt>
      <trkpt lat="44.5424" lon="4.32547">
        <ele>253</ele>
        <time>2016-05-15T12:26:55.000Z</time>
      </trkpt>
      <trkpt lat="44.5424" lon="4.32544">
        <ele>253</ele>
        <time>2016-05-15T12:26:56.000Z</time>
      </trkpt>
      <trkpt lat="44.54241" lon="4.32541">
        <ele>253</ele>
        <time>2016-05-15T12:26:57.000Z</time>
      </trkpt>
      <trkpt lat="44.54242" lon="4.32538">
        <ele>253</ele>
        <time>2016-05-15T12:26:58.000Z</time>
      </trkpt>
      <trkpt lat="44.54243" lon="4.32537">
        <ele>253</ele>
        <time>2016-05-15T12:26:59.000Z</time>
      </trkpt>
      <trkpt lat="44.54245" lon="4.32536">
        <ele>253</ele>
        <time>2016-05-15T12:27:00.000Z</time>
      </trkpt>
      <trkpt lat="44.54247" lon="4.32535">
        <ele>253</ele>
        <time>2016-05-15T12:27:01.000Z</time>
      </trkpt>
      <trkpt lat="44.54249" lon="4.32535">
        <ele>254</ele>
        <time>2016-05-15T12:27:02.000Z</time>
      </trkpt>
      <trkpt lat="44.54252" lon="4.32534">
        <ele>254</ele>
        <time>2016-05-15T12:27:03.000Z</time>
      </trkpt>
      <trkpt lat="44.54254" lon="4.32535">
        <ele>253</ele>
        <time>2016-05-15T12:27:04.000Z</time>
      </trkpt>
      <trkpt lat="44.54256" lon="4.32535">
        <ele>253</ele>
        <time>2016-05-15T12:27:05.000Z</time>
      </trkpt>
      <trkpt lat="44.54257" lon="4.32535">
        <ele>253</ele>
        <time>2016-05-15T12:27:06.000Z</time>
      </trkpt>
      <trkpt lat="44.54259" lon="4.32535">
        <ele>253</ele>
        <time>2016-05-15T12:27:07.000Z</time>
      </trkpt>
      <trkpt lat="44.54261" lon="4.32536">
        <ele>253</ele>
        <time>2016-05-15T12:27:08.000Z</time>
      </trkpt>
      <trkpt lat="44.54263" lon="4.32536">
        <ele>253</ele>
        <time>2016-05-15T12:27:09.000Z</time>
      </trkpt>
      <trkpt lat="44.54265" lon="4.32537">
        <ele>253</ele>
        <time>2016-05-15T12:27:10.000Z</time>
      </trkpt>
      <trkpt lat="44.54267" lon="4.32537">
        <ele>253</ele>
        <time>2016-05-15T12:27:11.000Z</time>
      </trkpt>
      <trkpt lat="44.54268" lon="4.32537">
        <ele>253</ele>
        <time>2016-05-15T12:27:12.000Z</time>
      </trkpt>
      <trkpt lat="44.5427" lon="4.32538">
        <ele>253</ele>
        <time>2016-05-15T12:27:13.000Z</time>
      </trkpt>
      <trkpt lat="44.54272" lon="4.32538">
        <ele>253</ele>
        <time>2016-05-15T12:27:14.000Z</time>
      </trkpt>
      <trkpt lat="44.54274" lon="4.32538">
        <ele>253</ele>
        <time>2016-05-15T12:27:15.000Z</time>
      </trkpt>
      <trkpt lat="44.54276" lon="4.32539">
        <ele>253</ele>
        <time>2016-05-15T12:27:16.000Z</time>
      </trkpt>
      <trkpt lat="44.54279" lon="4.3254">
        <ele>253</ele>
        <time>2016-05-15T12:27:17.000Z</time>
      </trkpt>
      <trkpt lat="44.54281" lon="4.3254">
        <ele>253</ele>
        <time>2016-05-15T12:27:18.000Z</time>
      </trkpt>
      <trkpt lat="44.54284" lon="4.32541">
        <ele>253</ele>
        <time>2016-05-15T12:27:19.000Z</time>
      </trkpt>
      <trkpt lat="44.54286" lon="4.32542">
        <ele>253</ele>
        <time>2016-05-15T12:27:20.000Z</time>
      </trkpt>
      <trkpt lat="44.54288" lon="4.32543">
        <ele>253</ele>
        <time>2016-05-15T12:27:21.000Z</time>
      </trkpt>
      <trkpt lat="44.5429" lon="4.32544">
        <ele>253</ele>
        <time>2016-05-15T12:27:22.000Z</time>
      </trkpt>
      <trkpt lat="44.54291" lon="4.32545">
        <ele>253</ele>
        <time>2016-05-15T12:27:23.000Z</time>
      </trkpt>
      <trkpt lat="44.54293" lon="4.32546">
        <ele>253</ele>
        <time>2016-05-15T12:27:24.000Z</time>
      </trkpt>
      <trkpt lat="44.54295" lon="4.32547">
        <ele>252</ele>
        <time>2016-05-15T12:27:25.000Z</time>
      </trkpt>
      <trkpt lat="44.54296" lon="4.32548">
        <ele>252</ele>
        <time>2016-05-15T12:27:26.000Z</time>
      </trkpt>
      <trkpt lat="44.54297" lon="4.32549">
        <ele>252</ele>
        <time>2016-05-15T12:27:27.000Z</time>
      </trkpt>
      <trkpt lat="44.54298" lon="4.32549">
        <ele>252</ele>
        <time>2016-05-15T12:27:28.000Z</time>
      </trkpt>
      <trkpt lat="44.54299" lon="4.32548">
        <ele>252</ele>
        <time>2016-05-15T12:27:29.000Z</time>
      </trkpt>
      <trkpt lat="44.54299" lon="4.32547">
        <ele>252</ele>
        <time>2016-05-15T12:27:30.000Z</time>
      </trkpt>
      <trkpt lat="44.543" lon="4.32546">
        <ele>252</ele>
        <time>2016-05-15T12:27:31.000Z</time>
      </trkpt>
      <trkpt lat="44.54299" lon="4.32544">
        <ele>253</ele>
        <time>2016-05-15T12:27:32.000Z</time>
      </trkpt>
      <trkpt lat="44.54298" lon="4.32544">
        <ele>253</ele>
        <time>2016-05-15T12:27:33.000Z</time>
      </trkpt>
      <trkpt lat="44.54297" lon="4.32543">
        <ele>253</ele>
        <time>2016-05-15T12:27:34.000Z</time>
      </trkpt>
      <trkpt lat="44.54296" lon="4.32543">
        <ele>253</ele>
        <time>2016-05-15T12:27:35.000Z</time>
      </trkpt>
      <trkpt lat="44.54295" lon="4.32544">
        <ele>253</ele>
        <time>2016-05-15T12:27:36.000Z</time>
      </trkpt>
      <trkpt lat="44.54294" lon="4.32545">
        <ele>253</ele>
        <time>2016-05-15T12:27:37.000Z</time>
      </trkpt>
      <trkpt lat="44.54294" lon="4.32546">
        <ele>253</ele>
        <time>2016-05-15T12:27:38.000Z</time>
      </trkpt>
      <trkpt lat="44.54294" lon="4.32547">
        <ele>253</ele>
        <time>2016-05-15T12:27:39.000Z</time>
      </trkpt>
      <trkpt lat="44.54295" lon="4.32548">
        <ele>252</ele>
        <time>2016-05-15T12:27:40.000Z</time>
      </trkpt>
      <trkpt lat="44.54296" lon="4.32549">
        <ele>252</ele>
        <time>2016-05-15T12:27:41.000Z</time>
      </trkpt>
      <trkpt lat="44.54297" lon="4.32549">
        <ele>252</ele>
        <time>2016-05-15T12:27:42.000Z</time>
      </trkpt>
      <trkpt lat="44.54297" lon="4.32548">
        <ele>252</ele>
        <time>2016-05-15T12:27:43.000Z</time>
      </trkpt>
      <trkpt lat="44.54298" lon="4.32548">
        <ele>252</ele>
        <time>2016-05-15T12:27:44.000Z</time>
      </trkpt>
      <trkpt lat="44.54298" lon="4.32547">
        <ele>252</ele>
        <time>2016-05-15T12:27:45.000Z</time>
      </trkpt>
      <trkpt lat="44.54298" lon="4.32545">
        <ele>253</ele>
        <time>2016-05-15T12:27:46.000Z</time>
      </trkpt>
      <trkpt lat="44.54297" lon="4.32544">
        <ele>253</ele>
        <time>2016-05-15T12:27:47.000Z</time>
      </trkpt>
      <trkpt lat="44.54295" lon="4.32544">
        <ele>253</ele>
        <time>2016-05-15T12:27:48.000Z</time>
      </trkpt>
      <trkpt lat="44.54294" lon="4.32545">
        <ele>253</ele>
        <time>2016-05-15T12:27:49.000Z</time>
      </trkpt>
      <trkpt lat="44.54292" lon="4.32545">
        <ele>253</ele>
        <time>2016-05-15T12:27:50.000Z</time>
      </trkpt>
      <trkpt lat="44.5429" lon="4.32545">
        <ele>253</ele>
        <time>2016-05-15T12:27:51.000Z</time>
      </trkpt>
      <trkpt lat="44.54289" lon="4.32544">
        <ele>253</ele>
        <time>2016-05-15T12:27:52.000Z</time>
      </trkpt>
      <trkpt lat="44.54287" lon="4.32543">
        <ele>253</ele>
        <time>2016-05-15T12:27:53.000Z</time>
      </trkpt>
      <trkpt lat="44.54285" lon="4.32542">
        <ele>253</ele>
        <time>2016-05-15T12:27:54.000Z</time>
      </trkpt>
      <trkpt lat="44.54282" lon="4.32542">
        <ele>253</ele>
        <time>2016-05-15T12:27:55.000Z</time>
      </trkpt>
      <trkpt lat="44.5428" lon="4.32541">
        <ele>253</ele>
        <time>2016-05-15T12:27:56.000Z</time>
      </trkpt>
      <trkpt lat="44.54278" lon="4.32541">
        <ele>253</ele>
        <time>2016-05-15T12:27:57.000Z</time>
      </trkpt>
      <trkpt lat="44.54275" lon="4.3254">
        <ele>253</ele>
        <time>2016-05-15T12:27:58.000Z</time>
      </trkpt>
      <trkpt lat="44.54272" lon="4.32539">
        <ele>253</ele>
        <time>2016-05-15T12:27:59.000Z</time>
      </trkpt>
      <trkpt lat="44.54269" lon="4.32538">
        <ele>253</ele>
        <time>2016-05-15T12:28:00.000Z</time>
      </trkpt>
      <trkpt lat="44.54267" lon="4.32538">
        <ele>253</ele>
        <time>2016-05-15T12:28:01.000Z</time>
      </trkpt>
      <trkpt lat="44.54264" lon="4.32537">
        <ele>253</ele>
        <time>2016-05-15T12:28:02.000Z</time>
      </trkpt>
      <trkpt lat="44.5426" lon="4.32536">
        <ele>253</ele>
        <time>2016-05-15T12:28:03.000Z</time>
      </trkpt>
      <trkpt lat="44.54257" lon="4.32536">
        <ele>253</ele>
        <time>2016-05-15T12:28:04.000Z</time>
      </trkpt>
      <trkpt lat="44.54253" lon="4.32536">
        <ele>253</ele>
        <time>2016-05-15T12:28:05.000Z</time>
      </trkpt>
      <trkpt lat="44.5425" lon="4.32537">
        <ele>253</ele>
        <time>2016-05-15T12:28:06.000Z</time>
      </trkpt>
      <trkpt lat="44.54246" lon="4.3254">
        <ele>253</ele>
        <time>2016-05-15T12:28:07.000Z</time>
      </trkpt>
      <trkpt lat="44.54243" lon="4.32545">
        <ele>253</ele>
        <time>2016-05-15T12:28:08.000Z</time>
      </trkpt>
      <trkpt lat="44.54239" lon="4.32551">
        <ele>252</ele>
        <time>2016-05-15T12:28:09.000Z</time>
      </trkpt>
      <trkpt lat="44.54236" lon="4.32557">
        <ele>252</ele>
        <time>2016-05-15T12:28:10.000Z</time>
      </trkpt>
      <trkpt lat="44.54232" lon="4.32564">
        <ele>252</ele>
        <time>2016-05-15T12:28:11.000Z</time>
      </trkpt>
      <trkpt lat="44.54228" lon="4.3257">
        <ele>252</ele>
        <time>2016-05-15T12:28:12.000Z</time>
      </trkpt>
      <trkpt lat="44.54223" lon="4.32574">
        <ele>252</ele>
        <time>2016-05-15T12:28:13.000Z</time>
      </trkpt>
      <trkpt lat="44.54217" lon="4.32575">
        <ele>252</ele>
        <time>2016-05-15T12:28:14.000Z</time>
      </trkpt>
      <trkpt lat="44.54211" lon="4.32574">
        <ele>252</ele>
        <time>2016-05-15T12:28:15.000Z</time>
      </trkpt>
      <trkpt lat="44.54205" lon="4.32573">
        <ele>251</ele>
        <time>2016-05-15T12:28:16.000Z</time>
      </trkpt>
      <trkpt lat="44.542" lon="4.32571">
        <ele>251</ele>
        <time>2016-05-15T12:28:17.000Z</time>
      </trkpt>
      <trkpt lat="44.54194" lon="4.3257">
        <ele>251</ele>
        <time>2016-05-15T12:28:18.000Z</time>
      </trkpt>
      <trkpt lat="44.54189" lon="4.32569">
        <ele>251</ele>
        <time>2016-05-15T12:28:19.000Z</time>
      </trkpt>
      <trkpt lat="44.54185" lon="4.32568">
        <ele>251</ele>
        <time>2016-05-15T12:28:20.000Z</time>
      </trkpt>
      <trkpt lat="44.5418" lon="4.32568">
        <ele>251</ele>
        <time>2016-05-15T12:28:21.000Z</time>
      </trkpt>
      <trkpt lat="44.54176" lon="4.32568">
        <ele>251</ele>
        <time>2016-05-15T12:28:22.000Z</time>
      </trkpt>
      <trkpt lat="44.54172" lon="4.32568">
        <ele>250</ele>
        <time>2016-05-15T12:28:23.000Z</time>
      </trkpt>
      <trkpt lat="44.54168" lon="4.32568">
        <ele>250</ele>
        <time>2016-05-15T12:28:24.000Z</time>
      </trkpt>
      <trkpt lat="44.54164" lon="4.32568">
        <ele>251</ele>
        <time>2016-05-15T12:28:25.000Z</time>
      </trkpt>
      <trkpt lat="44.5416" lon="4.32568">
        <ele>251</ele>
        <time>2016-05-15T12:28:26.000Z</time>
      </trkpt>
      <trkpt lat="44.54156" lon="4.32568">
        <ele>251</ele>
        <time>2016-05-15T12:28:27.000Z</time>
      </trkpt>
      <trkpt lat="44.54152" lon="4.32568">
        <ele>251</ele>
        <time>2016-05-15T12:28:28.000Z</time>
      </trkpt>
      <trkpt lat="44.54148" lon="4.32569">
        <ele>252</ele>
        <time>2016-05-15T12:28:29.000Z</time>
      </trkpt>
      <trkpt lat="44.54144" lon="4.32569">
        <ele>252</ele>
        <time>2016-05-15T12:28:30.000Z</time>
      </trkpt>
      <trkpt lat="44.54139" lon="4.32569">
        <ele>252</ele>
        <time>2016-05-15T12:28:31.000Z</time>
      </trkpt>
      <trkpt lat="44.54135" lon="4.32568">
        <ele>252</ele>
        <time>2016-05-15T12:28:32.000Z</time>
      </trkpt>
      <trkpt lat="44.54131" lon="4.32568">
        <ele>253</ele>
        <time>2016-05-15T12:28:33.000Z</time>
      </trkpt>
      <trkpt lat="44.54127" lon="4.32568">
        <ele>253</ele>
        <time>2016-05-15T12:28:34.000Z</time>
      </trkpt>
      <trkpt lat="44.54123" lon="4.32568">
        <ele>253</ele>
        <time>2016-05-15T12:28:35.000Z</time>
      </trkpt>
      <trkpt lat="44.5412" lon="4.32568">
        <ele>253</ele>
        <time>2016-05-15T12:28:36.000Z</time>
      </trkpt>
      <trkpt lat="44.54117" lon="4.32568">
        <ele>253</ele>
        <time>2016-05-15T12:28:37.000Z</time>
      </trkpt>
      <trkpt lat="44.54115" lon="4.32568">
        <ele>253</ele>
        <time>2016-05-15T12:28:38.000Z</time>
      </trkpt>
      <trkpt lat="44.54112" lon="4.32569">
        <ele>253</ele>
        <time>2016-05-15T12:28:39.000Z</time>
      </trkpt>
      <trkpt lat="44.54109" lon="4.32568">
        <ele>253</ele>
        <time>2016-05-15T12:28:40.000Z</time>
      </trkpt>
      <trkpt lat="44.54106" lon="4.32567">
        <ele>253</ele>
        <time>2016-05-15T12:28:41.000Z</time>
      </trkpt>
      <trkpt lat="44.54102" lon="4.32565">
        <ele>253</ele>
        <time>2016-05-15T12:28:42.000Z</time>
      </trkpt>
      <trkpt lat="44.54098" lon="4.32564">
        <ele>253</ele>
        <time>2016-05-15T12:28:43.000Z</time>
      </trkpt>
      <trkpt lat="44.54095" lon="4.32563">
        <ele>254</ele>
        <time>2016-05-15T12:28:44.000Z</time>
      </trkpt>
      <trkpt lat="44.54091" lon="4.32562">
        <ele>254</ele>
        <time>2016-05-15T12:28:45.000Z</time>
      </trkpt>
      <trkpt lat="44.54088" lon="4.32562">
        <ele>254</ele>
        <time>2016-05-15T12:28:46.000Z</time>
      </trkpt>
      <trkpt lat="44.54084" lon="4.32561">
        <ele>254</ele>
        <time>2016-05-15T12:28:47.000Z</time>
      </trkpt>
      <trkpt lat="44.54081" lon="4.32561">
        <ele>254</ele>
        <time>2016-05-15T12:28:48.000Z</time>
      </trkpt>
      <trkpt lat="44.54077" lon="4.3256">
        <ele>255</ele>
        <time>2016-05-15T12:28:49.000Z</time>
      </trkpt>
      <trkpt lat="44.54074" lon="4.3256">
        <ele>255</ele>
        <time>2016-05-15T12:28:50.000Z</time>
      </trkpt>
      <trkpt lat="44.5407" lon="4.32559">
        <ele>255</ele>
        <time>2016-05-15T12:28:51.000Z</time>
      </trkpt>
      <trkpt lat="44.54066" lon="4.32558">
        <ele>255</ele>
        <time>2016-05-15T12:28:52.000Z</time>
      </trkpt>
      <trkpt lat="44.54063" lon="4.32557">
        <ele>255</ele>
        <time>2016-05-15T12:28:53.000Z</time>
      </trkpt>
      <trkpt lat="44.54059" lon="4.32556">
        <ele>255</ele>
        <time>2016-05-15T12:28:54.000Z</time>
      </trkpt>
      <trkpt lat="44.54056" lon="4.32555">
        <ele>255</ele>
        <time>2016-05-15T12:28:55.000Z</time>
      </trkpt>
      <trkpt lat="44.54053" lon="4.32554">
        <ele>255</ele>
        <time>2016-05-15T12:28:56.000Z</time>
      </trkpt>
      <trkpt lat="44.54049" lon="4.32552">
        <ele>255</ele>
        <time>2016-05-15T12:28:57.000Z</time>
      </trkpt>
      <trkpt lat="44.54046" lon="4.32551">
        <ele>255</ele>
        <time>2016-05-15T12:28:58.000Z</time>
      </trkpt>
      <trkpt lat="44.54044" lon="4.32549">
        <ele>255</ele>
        <time>2016-05-15T12:28:59.000Z</time>
      </trkpt>
      <trkpt lat="44.54041" lon="4.32547">
        <ele>255</ele>
        <time>2016-05-15T12:29:00.000Z</time>
      </trkpt>
      <trkpt lat="44.54039" lon="4.32546">
        <ele>255</ele>
        <time>2016-05-15T12:29:01.000Z</time>
      </trkpt>
      <trkpt lat="44.54037" lon="4.32545">
        <ele>255</ele>
        <time>2016-05-15T12:29:02.000Z</time>
      </trkpt>
      <trkpt lat="44.54035" lon="4.32544">
        <ele>255</ele>
        <time>2016-05-15T12:29:03.000Z</time>
      </trkpt>
      <trkpt lat="44.54033" lon="4.32543">
        <ele>255</ele>
        <time>2016-05-15T12:29:04.000Z</time>
      </trkpt>
      <trkpt lat="44.54032" lon="4.32542">
        <ele>255</ele>
        <time>2016-05-15T12:29:05.000Z</time>
      </trkpt>
      <trkpt lat="44.54031" lon="4.3254">
        <ele>255</ele>
        <time>2016-05-15T12:29:06.000Z</time>
      </trkpt>
      <trkpt lat="44.54029" lon="4.32539">
        <ele>255</ele>
        <time>2016-05-15T12:29:07.000Z</time>
      </trkpt>
      <trkpt lat="44.54028" lon="4.32537">
        <ele>255</ele>
        <time>2016-05-15T12:29:08.000Z</time>
      </trkpt>
      <trkpt lat="44.54027" lon="4.32536">
        <ele>255</ele>
        <time>2016-05-15T12:29:09.000Z</time>
      </trkpt>
      <trkpt lat="44.54025" lon="4.32535">
        <ele>255</ele>
        <time>2016-05-15T12:29:10.000Z</time>
      </trkpt>
      <trkpt lat="44.54025" lon="4.32535">
        <ele>255</ele>
        <time>2016-05-15T12:29:11.000Z</time>
      </trkpt>
      <trkpt lat="44.54836" lon="4.23099">
        <ele>574</ele>
      </trkpt>
    </trkseg>
  </trk>
</gpx>